<?xml version="1.0" encoding="UTF-8" standalone="no" ?>
<gpx xmlns="http://www.topografix.com/GPX/1/1" xmlns:xsi="http://www.w3.org/2001/XMLSchema-instance" xsi:schemaLocation="http://www.topografix.com/GPX/1/1 http://www.topografix.com/GPX/1/1/gpx.xsd" version="1.1" creator="VisuGPX - https://www.visugpx.com">
  <metadata>
    <name>BEARN</name>
    <desc><![CDATA[Eysus Asasp Issor Escot]]></desc>
  </metadata>
  <trk>
    <name><![CDATA[Asasp - Issor - Escot - 34068 - UtagawaVTT.com]]></name>
    <desc><![CDATA[Eysus Asasp Issor Escot]]></desc>
    <trkseg>
      <trkpt lat="43.13887" lon="-0.59249">
        <ele>262.113</ele>
        <time>2020-12-03T11:16:24Z</time>
      </trkpt>
      <trkpt lat="43.13903" lon="-0.59249">
        <ele>262.143</ele>
        <time>2020-12-03T11:26:37Z</time>
      </trkpt>
      <trkpt lat="43.13907" lon="-0.59305">
        <ele>262.107</ele>
        <time>2020-12-03T11:26:54Z</time>
      </trkpt>
      <trkpt lat="43.13685" lon="-0.59444">
        <ele>267.608</ele>
        <time>2020-12-03T11:27:46Z</time>
      </trkpt>
      <trkpt lat="43.1354" lon="-0.595">
        <ele>267.497</ele>
        <time>2020-12-03T11:28:17Z</time>
      </trkpt>
      <trkpt lat="43.13488" lon="-0.59546">
        <ele>268.182</ele>
        <time>2020-12-03T11:28:29Z</time>
      </trkpt>
      <trkpt lat="43.13179" lon="-0.59629">
        <ele>271.827</ele>
        <time>2020-12-03T11:29:37Z</time>
      </trkpt>
      <trkpt lat="43.12862" lon="-0.59773">
        <ele>275.423</ele>
        <time>2020-12-03T11:30:48Z</time>
      </trkpt>
      <trkpt lat="43.12803" lon="-0.59809">
        <ele>274.924</ele>
        <time>2020-12-03T11:31:01Z</time>
      </trkpt>
      <trkpt lat="43.12745" lon="-0.59894">
        <ele>275.639</ele>
        <time>2020-12-03T11:31:16Z</time>
      </trkpt>
      <trkpt lat="43.12684" lon="-0.59925">
        <ele>277.092</ele>
        <time>2020-12-03T11:31:29Z</time>
      </trkpt>
      <trkpt lat="43.12605" lon="-0.59957">
        <ele>279.193</ele>
        <time>2020-12-03T11:31:47Z</time>
      </trkpt>
      <trkpt lat="43.12484" lon="-0.5996">
        <ele>283.498</ele>
        <time>2020-12-03T11:32:16Z</time>
      </trkpt>
      <trkpt lat="43.1236" lon="-0.60012">
        <ele>287.015</ele>
        <time>2020-12-03T11:32:50Z</time>
      </trkpt>
      <trkpt lat="43.12192" lon="-0.60165">
        <ele>284.326</ele>
        <time>2020-12-03T11:33:44Z</time>
      </trkpt>
      <trkpt lat="43.1206" lon="-0.60208">
        <ele>287.508</ele>
        <time>2020-12-03T11:34:16Z</time>
      </trkpt>
      <trkpt lat="43.11977" lon="-0.60259">
        <ele>291.045</ele>
        <time>2020-12-03T11:34:36Z</time>
      </trkpt>
      <trkpt lat="43.11675" lon="-0.60513">
        <ele>298.58</ele>
        <time>2020-12-03T11:36:04Z</time>
      </trkpt>
      <trkpt lat="43.11573" lon="-0.60537">
        <ele>300.015</ele>
        <time>2020-12-03T11:36:31Z</time>
      </trkpt>
      <trkpt lat="43.11502" lon="-0.6064">
        <ele>300.231</ele>
        <time>2020-12-03T11:36:59Z</time>
      </trkpt>
      <trkpt lat="43.11546" lon="-0.60692">
        <ele>297.952</ele>
        <time>2020-12-03T11:37:11Z</time>
      </trkpt>
      <trkpt lat="43.11561" lon="-0.60783">
        <ele>292.967</ele>
        <time>2020-12-03T11:37:19Z</time>
      </trkpt>
      <trkpt lat="43.1161" lon="-0.60841">
        <ele>288.01</ele>
        <time>2020-12-03T11:37:25Z</time>
      </trkpt>
      <trkpt lat="43.11688" lon="-0.60839">
        <ele>283.411</ele>
        <time>2020-12-03T11:37:32Z</time>
      </trkpt>
      <trkpt lat="43.11804" lon="-0.608">
        <ele>277.395</ele>
        <time>2020-12-03T11:37:44Z</time>
      </trkpt>
      <trkpt lat="43.11843" lon="-0.60826">
        <ele>275.249</ele>
        <time>2020-12-03T11:37:48Z</time>
      </trkpt>
      <trkpt lat="43.11919" lon="-0.60979">
        <ele>272.123</ele>
        <time>2020-12-03T11:38:06Z</time>
      </trkpt>
      <trkpt lat="43.12004" lon="-0.61036">
        <ele>273.608</ele>
        <time>2020-12-03T11:38:24Z</time>
      </trkpt>
      <trkpt lat="43.12164" lon="-0.61248">
        <ele>278.825</ele>
        <time>2020-12-03T11:39:07Z</time>
      </trkpt>
      <trkpt lat="43.12226" lon="-0.61353">
        <ele>282.17</ele>
        <time>2020-12-03T11:39:36Z</time>
      </trkpt>
      <trkpt lat="43.1227" lon="-0.61357">
        <ele>284.625</ele>
        <time>2020-12-03T11:39:52Z</time>
      </trkpt>
      <trkpt lat="43.12228" lon="-0.61454">
        <ele>291.671</ele>
        <time>2020-12-03T11:40:23Z</time>
      </trkpt>
      <trkpt lat="43.12227" lon="-0.61495">
        <ele>296.592</ele>
        <time>2020-12-03T11:40:38Z</time>
      </trkpt>
      <trkpt lat="43.12333" lon="-0.6154">
        <ele>295.077</ele>
        <time>2020-12-03T11:41:12Z</time>
      </trkpt>
      <trkpt lat="43.12402" lon="-0.6146">
        <ele>296.43</ele>
        <time>2020-12-03T11:41:36Z</time>
      </trkpt>
      <trkpt lat="43.12424" lon="-0.61503">
        <ele>299.091</ele>
        <time>2020-12-03T11:41:47Z</time>
      </trkpt>
      <trkpt lat="43.12386" lon="-0.6158">
        <ele>302.889</ele>
        <time>2020-12-03T11:42:06Z</time>
      </trkpt>
      <trkpt lat="43.12399" lon="-0.61658">
        <ele>305.906</ele>
        <time>2020-12-03T11:42:21Z</time>
      </trkpt>
      <trkpt lat="43.12503" lon="-0.61855">
        <ele>320.526</ele>
        <time>2020-12-03T11:43:26Z</time>
      </trkpt>
      <trkpt lat="43.12541" lon="-0.61879">
        <ele>323.508</ele>
        <time>2020-12-03T11:43:38Z</time>
      </trkpt>
      <trkpt lat="43.12776" lon="-0.61902">
        <ele>347.254</ele>
        <time>2020-12-03T11:45:13Z</time>
      </trkpt>
      <trkpt lat="43.12821" lon="-0.61938">
        <ele>350.579</ele>
        <time>2020-12-03T11:45:31Z</time>
      </trkpt>
      <trkpt lat="43.12853" lon="-0.61998">
        <ele>354.024</ele>
        <time>2020-12-03T11:45:52Z</time>
      </trkpt>
      <trkpt lat="43.12877" lon="-0.62192">
        <ele>351.81</ele>
        <time>2020-12-03T11:46:31Z</time>
      </trkpt>
      <trkpt lat="43.1288" lon="-0.62515">
        <ele>341.631</ele>
        <time>2020-12-03T11:47:05Z</time>
      </trkpt>
      <trkpt lat="43.12805" lon="-0.62538">
        <ele>338.596</ele>
        <time>2020-12-03T11:47:16Z</time>
      </trkpt>
      <trkpt lat="43.12761" lon="-0.62472">
        <ele>341.969</ele>
        <time>2020-12-03T11:47:35Z</time>
      </trkpt>
      <trkpt lat="43.12738" lon="-0.62477">
        <ele>343.34</ele>
        <time>2020-12-03T11:47:43Z</time>
      </trkpt>
      <trkpt lat="43.126" lon="-0.62775">
        <ele>358.758</ele>
        <time>2020-12-03T11:49:10Z</time>
      </trkpt>
      <trkpt lat="43.1258" lon="-0.62862">
        <ele>364.952</ele>
        <time>2020-12-03T11:49:41Z</time>
      </trkpt>
      <trkpt lat="43.126" lon="-0.62956">
        <ele>370.417</ele>
        <time>2020-12-03T11:50:12Z</time>
      </trkpt>
      <trkpt lat="43.12589" lon="-0.63011">
        <ele>374.408</ele>
        <time>2020-12-03T11:50:32Z</time>
      </trkpt>
      <trkpt lat="43.12601" lon="-0.63026">
        <ele>374.621</ele>
        <time>2020-12-03T11:50:38Z</time>
      </trkpt>
      <trkpt lat="43.12637" lon="-0.63007">
        <ele>377.496</ele>
        <time>2020-12-03T11:50:56Z</time>
      </trkpt>
      <trkpt lat="43.1268" lon="-0.62951">
        <ele>383.121</ele>
        <time>2020-12-03T11:51:25Z</time>
      </trkpt>
      <trkpt lat="43.12713" lon="-0.62937">
        <ele>385.317</ele>
        <time>2020-12-03T11:51:38Z</time>
      </trkpt>
      <trkpt lat="43.12822" lon="-0.62985">
        <ele>396.088</ele>
        <time>2020-12-03T11:52:30Z</time>
      </trkpt>
      <trkpt lat="43.1284" lon="-0.63022">
        <ele>399.173</ele>
        <time>2020-12-03T11:52:46Z</time>
      </trkpt>
      <trkpt lat="43.12782" lon="-0.6315">
        <ele>408.866</ele>
        <time>2020-12-03T11:53:38Z</time>
      </trkpt>
      <trkpt lat="43.1272" lon="-0.63187">
        <ele>414.457</ele>
        <time>2020-12-03T11:54:07Z</time>
      </trkpt>
      <trkpt lat="43.12719" lon="-0.63169">
        <ele>415.517</ele>
        <time>2020-12-03T11:54:14Z</time>
      </trkpt>
      <trkpt lat="43.12758" lon="-0.63117">
        <ele>418.987</ele>
        <time>2020-12-03T11:54:40Z</time>
      </trkpt>
      <trkpt lat="43.12743" lon="-0.63101">
        <ele>421.315</ele>
        <time>2020-12-03T11:54:51Z</time>
      </trkpt>
      <trkpt lat="43.12715" lon="-0.63144">
        <ele>424.108</ele>
        <time>2020-12-03T11:55:08Z</time>
      </trkpt>
      <trkpt lat="43.12637" lon="-0.63189">
        <ele>430.847</ele>
        <time>2020-12-03T11:55:48Z</time>
      </trkpt>
      <trkpt lat="43.12556" lon="-0.63276">
        <ele>430.062</ele>
        <time>2020-12-03T11:57:07Z</time>
      </trkpt>
      <trkpt lat="43.12447" lon="-0.6342">
        <ele>432.447</ele>
        <time>2020-12-03T11:58:02Z</time>
      </trkpt>
      <trkpt lat="43.12448" lon="-0.63486">
        <ele>440.153</ele>
        <time>2020-12-03T11:58:30Z</time>
      </trkpt>
      <trkpt lat="43.12501" lon="-0.63677">
        <ele>442.884</ele>
        <time>2020-12-03T11:59:41Z</time>
      </trkpt>
      <trkpt lat="43.12534" lon="-0.63715">
        <ele>444.079</ele>
        <time>2020-12-03T12:01:49Z</time>
      </trkpt>
      <trkpt lat="43.12641" lon="-0.63669">
        <ele>441.172</ele>
        <time>2020-12-03T12:04:29Z</time>
      </trkpt>
      <trkpt lat="43.12694" lon="-0.63709">
        <ele>436.863</ele>
        <time>2020-12-03T12:04:57Z</time>
      </trkpt>
      <trkpt lat="43.12795" lon="-0.63583">
        <ele>430.147</ele>
        <time>2020-12-03T12:05:42Z</time>
      </trkpt>
      <trkpt lat="43.12851" lon="-0.63546">
        <ele>422.229</ele>
        <time>2020-12-03T12:06:59Z</time>
      </trkpt>
      <trkpt lat="43.12869" lon="-0.63554">
        <ele>418.821</ele>
        <time>2020-12-03T12:07:06Z</time>
      </trkpt>
      <trkpt lat="43.12895" lon="-0.63621">
        <ele>411.708</ele>
        <time>2020-12-03T12:07:22Z</time>
      </trkpt>
      <trkpt lat="43.12927" lon="-0.6364">
        <ele>406.68</ele>
        <time>2020-12-03T12:07:31Z</time>
      </trkpt>
      <trkpt lat="43.13011" lon="-0.6353">
        <ele>395.985</ele>
        <time>2020-12-03T12:07:51Z</time>
      </trkpt>
      <trkpt lat="43.13083" lon="-0.63489">
        <ele>393.24</ele>
        <time>2020-12-03T12:08:08Z</time>
      </trkpt>
      <trkpt lat="43.13124" lon="-0.63491">
        <ele>393.466</ele>
        <time>2020-12-03T12:08:20Z</time>
      </trkpt>
      <trkpt lat="43.13219" lon="-0.63562">
        <ele>389.157</ele>
        <time>2020-12-03T12:09:08Z</time>
      </trkpt>
      <trkpt lat="43.13221" lon="-0.6355">
        <ele>390.382</ele>
        <time>2020-12-03T12:11:49Z</time>
      </trkpt>
      <trkpt lat="43.13157" lon="-0.63655">
        <ele>407.295</ele>
        <time>2020-12-03T12:13:06Z</time>
      </trkpt>
      <trkpt lat="43.13101" lon="-0.63872">
        <ele>438.516</ele>
        <time>2020-12-03T12:14:38Z</time>
      </trkpt>
      <trkpt lat="43.13029" lon="-0.63968">
        <ele>459.193</ele>
        <time>2020-12-03T12:15:36Z</time>
      </trkpt>
      <trkpt lat="43.12954" lon="-0.64001">
        <ele>472.165</ele>
        <time>2020-12-03T12:17:18Z</time>
      </trkpt>
      <trkpt lat="43.12825" lon="-0.63989">
        <ele>495.921</ele>
        <time>2020-12-03T12:19:15Z</time>
      </trkpt>
      <trkpt lat="43.12773" lon="-0.6402">
        <ele>496.108</ele>
        <time>2020-12-03T12:19:57Z</time>
      </trkpt>
      <trkpt lat="43.12526" lon="-0.64103">
        <ele>503.895</ele>
        <time>2020-12-03T12:29:27Z</time>
      </trkpt>
      <trkpt lat="43.12389" lon="-0.64183">
        <ele>500.34</ele>
        <time>2020-12-03T12:31:11Z</time>
      </trkpt>
      <trkpt lat="43.12304" lon="-0.64258">
        <ele>502.715</ele>
        <time>2020-12-03T12:34:21Z</time>
      </trkpt>
      <trkpt lat="43.12256" lon="-0.64322">
        <ele>508.211</ele>
        <time>2020-12-03T12:34:52Z</time>
      </trkpt>
      <trkpt lat="43.12097" lon="-0.64621">
        <ele>529.092</ele>
        <time>2020-12-03T12:36:43Z</time>
      </trkpt>
      <trkpt lat="43.12102" lon="-0.64699">
        <ele>537.567</ele>
        <time>2020-12-03T12:37:17Z</time>
      </trkpt>
      <trkpt lat="43.12169" lon="-0.64775">
        <ele>552.11</ele>
        <time>2020-12-03T12:38:43Z</time>
      </trkpt>
      <trkpt lat="43.12161" lon="-0.64805">
        <ele>556.431</ele>
        <time>2020-12-03T12:39:10Z</time>
      </trkpt>
      <trkpt lat="43.12171" lon="-0.64831">
        <ele>555.746</ele>
        <time>2020-12-03T12:40:40Z</time>
      </trkpt>
      <trkpt lat="43.1214" lon="-0.64853">
        <ele>564.388</ele>
        <time>2020-12-03T12:41:01Z</time>
      </trkpt>
      <trkpt lat="43.11991" lon="-0.65162">
        <ele>596.116</ele>
        <time>2020-12-03T12:43:27Z</time>
      </trkpt>
      <trkpt lat="43.11993" lon="-0.65291">
        <ele>597.208</ele>
        <time>2020-12-03T12:46:56Z</time>
      </trkpt>
      <trkpt lat="43.12017" lon="-0.65435">
        <ele>599.63</ele>
        <time>2020-12-03T12:47:39Z</time>
      </trkpt>
      <trkpt lat="43.11998" lon="-0.65592">
        <ele>594.365</ele>
        <time>2020-12-03T12:48:17Z</time>
      </trkpt>
      <trkpt lat="43.11974" lon="-0.65681">
        <ele>594.23</ele>
        <time>2020-12-03T12:49:44Z</time>
      </trkpt>
      <trkpt lat="43.11936" lon="-0.65739">
        <ele>593.196</ele>
        <time>2020-12-03T12:50:08Z</time>
      </trkpt>
      <trkpt lat="43.11867" lon="-0.65909">
        <ele>577.847</ele>
        <time>2020-12-03T12:50:45Z</time>
      </trkpt>
      <trkpt lat="43.11795" lon="-0.65976">
        <ele>560.392</ele>
        <time>2020-12-03T12:51:24Z</time>
      </trkpt>
      <trkpt lat="43.11734" lon="-0.65998">
        <ele>549.685</ele>
        <time>2020-12-03T12:51:48Z</time>
      </trkpt>
      <trkpt lat="43.11749" lon="-0.66039">
        <ele>542.046</ele>
        <time>2020-12-03T12:52:05Z</time>
      </trkpt>
      <trkpt lat="43.11723" lon="-0.6615">
        <ele>531.312</ele>
        <time>2020-12-03T12:52:38Z</time>
      </trkpt>
      <trkpt lat="43.11782" lon="-0.66318">
        <ele>509.832</ele>
        <time>2020-12-03T12:53:34Z</time>
      </trkpt>
      <trkpt lat="43.11771" lon="-0.66392">
        <ele>502.605</ele>
        <time>2020-12-03T12:56:22Z</time>
      </trkpt>
      <trkpt lat="43.11801" lon="-0.66547">
        <ele>486.808</ele>
        <time>2020-12-03T12:56:53Z</time>
      </trkpt>
      <trkpt lat="43.11795" lon="-0.66568">
        <ele>486.877</ele>
        <time>2020-12-03T12:57:13Z</time>
      </trkpt>
      <trkpt lat="43.11732" lon="-0.66612">
        <ele>492.232</ele>
        <time>2020-12-03T12:57:37Z</time>
      </trkpt>
      <trkpt lat="43.1167" lon="-0.66564">
        <ele>492.457</ele>
        <time>2020-12-03T12:58:01Z</time>
      </trkpt>
      <trkpt lat="43.11633" lon="-0.66567">
        <ele>490.263</ele>
        <time>2020-12-03T12:58:09Z</time>
      </trkpt>
      <trkpt lat="43.11541" lon="-0.66509">
        <ele>482.674</ele>
        <time>2020-12-03T12:58:26Z</time>
      </trkpt>
      <trkpt lat="43.11445" lon="-0.66504">
        <ele>467.169</ele>
        <time>2020-12-03T12:58:46Z</time>
      </trkpt>
      <trkpt lat="43.11377" lon="-0.66557">
        <ele>459.872</ele>
        <time>2020-12-03T12:58:59Z</time>
      </trkpt>
      <trkpt lat="43.11339" lon="-0.66564">
        <ele>455.773</ele>
        <time>2020-12-03T12:59:06Z</time>
      </trkpt>
      <trkpt lat="43.11279" lon="-0.66624">
        <ele>459.468</ele>
        <time>2020-12-03T12:59:31Z</time>
      </trkpt>
      <trkpt lat="43.11257" lon="-0.66698">
        <ele>459.442</ele>
        <time>2020-12-03T12:59:53Z</time>
      </trkpt>
      <trkpt lat="43.11251" lon="-0.66809">
        <ele>459.826</ele>
        <time>2020-12-03T13:00:15Z</time>
      </trkpt>
      <trkpt lat="43.11196" lon="-0.66915">
        <ele>461.808</ele>
        <time>2020-12-03T13:00:46Z</time>
      </trkpt>
      <trkpt lat="43.1116" lon="-0.66876">
        <ele>464.582</ele>
        <time>2020-12-03T13:01:03Z</time>
      </trkpt>
      <trkpt lat="43.11119" lon="-0.66756">
        <ele>457.087</ele>
        <time>2020-12-03T13:01:30Z</time>
      </trkpt>
      <trkpt lat="43.11096" lon="-0.66745">
        <ele>454.282</ele>
        <time>2020-12-03T13:01:34Z</time>
      </trkpt>
      <trkpt lat="43.11067" lon="-0.66763">
        <ele>453.238</ele>
        <time>2020-12-03T13:01:39Z</time>
      </trkpt>
      <trkpt lat="43.11041" lon="-0.66862">
        <ele>455.569</ele>
        <time>2020-12-03T13:02:03Z</time>
      </trkpt>
      <trkpt lat="43.11074" lon="-0.67016">
        <ele>461.494</ele>
        <time>2020-12-03T13:02:42Z</time>
      </trkpt>
      <trkpt lat="43.11069" lon="-0.67047">
        <ele>462.977</ele>
        <time>2020-12-03T13:02:52Z</time>
      </trkpt>
      <trkpt lat="43.11011" lon="-0.67016">
        <ele>464.828</ele>
        <time>2020-12-03T13:03:20Z</time>
      </trkpt>
      <trkpt lat="43.10957" lon="-0.67047">
        <ele>461.966</ele>
        <time>2020-12-03T13:03:33Z</time>
      </trkpt>
      <trkpt lat="43.1092" lon="-0.66989">
        <ele>467.429</ele>
        <time>2020-12-03T13:03:59Z</time>
      </trkpt>
      <trkpt lat="43.10847" lon="-0.67077">
        <ele>468.121</ele>
        <time>2020-12-03T13:04:34Z</time>
      </trkpt>
      <trkpt lat="43.10832" lon="-0.67039">
        <ele>469.708</ele>
        <time>2020-12-03T13:04:46Z</time>
      </trkpt>
      <trkpt lat="43.10791" lon="-0.67043">
        <ele>468.092</ele>
        <time>2020-12-03T13:04:54Z</time>
      </trkpt>
      <trkpt lat="43.10761" lon="-0.67005">
        <ele>472.697</ele>
        <time>2020-12-03T13:05:10Z</time>
      </trkpt>
      <trkpt lat="43.10645" lon="-0.6698">
        <ele>476.182</ele>
        <time>2020-12-03T13:08:39Z</time>
      </trkpt>
      <trkpt lat="43.10598" lon="-0.66908">
        <ele>473.868</ele>
        <time>2020-12-03T13:08:56Z</time>
      </trkpt>
      <trkpt lat="43.1061" lon="-0.6696">
        <ele>471.579</ele>
        <time>2020-12-03T13:09:04Z</time>
      </trkpt>
      <trkpt lat="43.10592" lon="-0.66968">
        <ele>468.824</ele>
        <time>2020-12-03T13:09:09Z</time>
      </trkpt>
      <trkpt lat="43.10441" lon="-0.66848">
        <ele>444.197</ele>
        <time>2020-12-03T13:09:26Z</time>
      </trkpt>
      <trkpt lat="43.10356" lon="-0.66725">
        <ele>420.858</ele>
        <time>2020-12-03T13:09:40Z</time>
      </trkpt>
      <trkpt lat="43.10402" lon="-0.6664">
        <ele>408.666</ele>
        <time>2020-12-03T13:09:50Z</time>
      </trkpt>
      <trkpt lat="43.10393" lon="-0.66621">
        <ele>405.029</ele>
        <time>2020-12-03T13:09:54Z</time>
      </trkpt>
      <trkpt lat="43.10301" lon="-0.66646">
        <ele>395.421</ele>
        <time>2020-12-03T13:10:04Z</time>
      </trkpt>
      <trkpt lat="43.1028" lon="-0.66634">
        <ele>392.708</ele>
        <time>2020-12-03T13:10:07Z</time>
      </trkpt>
      <trkpt lat="43.10281" lon="-0.6658">
        <ele>386.852</ele>
        <time>2020-12-03T13:10:12Z</time>
      </trkpt>
      <trkpt lat="43.10309" lon="-0.66493">
        <ele>374.097</ele>
        <time>2020-12-03T13:10:20Z</time>
      </trkpt>
      <trkpt lat="43.10303" lon="-0.66479">
        <ele>371.342</ele>
        <time>2020-12-03T13:10:22Z</time>
      </trkpt>
      <trkpt lat="43.10273" lon="-0.66495">
        <ele>366.218</ele>
        <time>2020-12-03T13:10:31Z</time>
      </trkpt>
      <trkpt lat="43.10271" lon="-0.66343">
        <ele>349.899</ele>
        <time>2020-12-03T13:10:59Z</time>
      </trkpt>
      <trkpt lat="43.10184" lon="-0.66212">
        <ele>368.094</ele>
        <time>2020-12-03T13:11:57Z</time>
      </trkpt>
      <trkpt lat="43.10114" lon="-0.66141">
        <ele>365.677</ele>
        <time>2020-12-03T13:12:26Z</time>
      </trkpt>
      <trkpt lat="43.10101" lon="-0.66091">
        <ele>364.788</ele>
        <time>2020-12-03T13:12:41Z</time>
      </trkpt>
      <trkpt lat="43.10023" lon="-0.66048">
        <ele>351.829</ele>
        <time>2020-12-03T13:12:55Z</time>
      </trkpt>
      <trkpt lat="43.1002" lon="-0.65953">
        <ele>343</ele>
        <time>2020-12-03T13:13:04Z</time>
      </trkpt>
      <trkpt lat="43.09984" lon="-0.65908">
        <ele>341.12</ele>
        <time>2020-12-03T13:13:11Z</time>
      </trkpt>
      <trkpt lat="43.09972" lon="-0.65762">
        <ele>340.908</ele>
        <time>2020-12-03T13:13:41Z</time>
      </trkpt>
      <trkpt lat="43.09938" lon="-0.6573">
        <ele>346.518</ele>
        <time>2020-12-03T13:13:57Z</time>
      </trkpt>
      <trkpt lat="43.09973" lon="-0.65661">
        <ele>352.233</ele>
        <time>2020-12-03T13:14:23Z</time>
      </trkpt>
      <trkpt lat="43.09962" lon="-0.65535">
        <ele>366.098</ele>
        <time>2020-12-03T13:15:05Z</time>
      </trkpt>
      <trkpt lat="43.09899" lon="-0.65355">
        <ele>380.574</ele>
        <time>2020-12-03T13:16:11Z</time>
      </trkpt>
      <trkpt lat="43.0968" lon="-0.65525">
        <ele>411.365</ele>
        <time>2020-12-03T13:18:11Z</time>
      </trkpt>
      <trkpt lat="43.09613" lon="-0.65559">
        <ele>424.47</ele>
        <time>2020-12-03T13:18:46Z</time>
      </trkpt>
      <trkpt lat="43.09328" lon="-0.65467">
        <ele>462.443</ele>
        <time>2020-12-03T13:21:06Z</time>
      </trkpt>
      <trkpt lat="43.09281" lon="-0.65485">
        <ele>470.614</ele>
        <time>2020-12-03T13:21:30Z</time>
      </trkpt>
      <trkpt lat="43.0917" lon="-0.65568">
        <ele>487.444</ele>
        <time>2020-12-03T13:22:32Z</time>
      </trkpt>
      <trkpt lat="43.09127" lon="-0.65568">
        <ele>490.705</ele>
        <time>2020-12-03T13:22:52Z</time>
      </trkpt>
      <trkpt lat="43.09063" lon="-0.65597">
        <ele>501.315</ele>
        <time>2020-12-03T13:23:24Z</time>
      </trkpt>
      <trkpt lat="43.08987" lon="-0.65593">
        <ele>515.708</ele>
        <time>2020-12-03T13:24:01Z</time>
      </trkpt>
      <trkpt lat="43.0893" lon="-0.6554">
        <ele>525.63</ele>
        <time>2020-12-03T13:24:34Z</time>
      </trkpt>
      <trkpt lat="43.08891" lon="-0.65525">
        <ele>531.785</ele>
        <time>2020-12-03T13:24:55Z</time>
      </trkpt>
      <trkpt lat="43.08728" lon="-0.65312">
        <ele>568.45</ele>
        <time>2020-12-03T13:26:45Z</time>
      </trkpt>
      <trkpt lat="43.08609" lon="-0.65186">
        <ele>584.246</ele>
        <time>2020-12-03T13:27:54Z</time>
      </trkpt>
      <trkpt lat="43.08482" lon="-0.65096">
        <ele>593.757</ele>
        <time>2020-12-03T13:29:01Z</time>
      </trkpt>
      <trkpt lat="43.08405" lon="-0.64978">
        <ele>601.172</ele>
        <time>2020-12-03T13:29:42Z</time>
      </trkpt>
      <trkpt lat="43.08212" lon="-0.64611">
        <ele>636.625</ele>
        <time>2020-12-03T13:31:54Z</time>
      </trkpt>
      <trkpt lat="43.08051" lon="-0.64462">
        <ele>652.986</ele>
        <time>2020-12-03T13:33:24Z</time>
      </trkpt>
      <trkpt lat="43.07944" lon="-0.64273">
        <ele>669.958</ele>
        <time>2020-12-03T13:34:45Z</time>
      </trkpt>
      <trkpt lat="43.07901" lon="-0.64233">
        <ele>670.852</ele>
        <time>2020-12-03T13:35:07Z</time>
      </trkpt>
      <trkpt lat="43.07858" lon="-0.64157">
        <ele>670.417</ele>
        <time>2020-12-03T13:36:50Z</time>
      </trkpt>
      <trkpt lat="43.07831" lon="-0.64142">
        <ele>668.708</ele>
        <time>2020-12-03T13:36:58Z</time>
      </trkpt>
      <trkpt lat="43.07789" lon="-0.64157">
        <ele>665.471</ele>
        <time>2020-12-03T13:37:05Z</time>
      </trkpt>
      <trkpt lat="43.07765" lon="-0.64144">
        <ele>664.216</ele>
        <time>2020-12-03T13:37:09Z</time>
      </trkpt>
      <trkpt lat="43.07702" lon="-0.64007">
        <ele>660.821</ele>
        <time>2020-12-03T13:37:42Z</time>
      </trkpt>
      <trkpt lat="43.07668" lon="-0.63981">
        <ele>656.237</ele>
        <time>2020-12-03T13:37:48Z</time>
      </trkpt>
      <trkpt lat="43.07661" lon="-0.63952">
        <ele>653.028</ele>
        <time>2020-12-03T13:37:52Z</time>
      </trkpt>
      <trkpt lat="43.07698" lon="-0.63872">
        <ele>646.973</ele>
        <time>2020-12-03T13:38:01Z</time>
      </trkpt>
      <trkpt lat="43.07693" lon="-0.63808">
        <ele>641.426</ele>
        <time>2020-12-03T13:38:09Z</time>
      </trkpt>
      <trkpt lat="43.07717" lon="-0.63729">
        <ele>634.697</ele>
        <time>2020-12-03T13:38:18Z</time>
      </trkpt>
      <trkpt lat="43.07713" lon="-0.63541">
        <ele>619.334</ele>
        <time>2020-12-03T13:38:40Z</time>
      </trkpt>
      <trkpt lat="43.07739" lon="-0.63321">
        <ele>594.355</ele>
        <time>2020-12-03T13:39:08Z</time>
      </trkpt>
      <trkpt lat="43.07723" lon="-0.63158">
        <ele>578.31</ele>
        <time>2020-12-03T13:39:25Z</time>
      </trkpt>
      <trkpt lat="43.0773" lon="-0.63">
        <ele>564.708</ele>
        <time>2020-12-03T13:39:41Z</time>
      </trkpt>
      <trkpt lat="43.07767" lon="-0.62784">
        <ele>548.939</ele>
        <time>2020-12-03T13:40:10Z</time>
      </trkpt>
      <trkpt lat="43.07765" lon="-0.62695">
        <ele>542.764</ele>
        <time>2020-12-03T13:40:21Z</time>
      </trkpt>
      <trkpt lat="43.07796" lon="-0.6238">
        <ele>517.679</ele>
        <time>2020-12-03T13:42:42Z</time>
      </trkpt>
      <trkpt lat="43.07818" lon="-0.62307">
        <ele>512.145</ele>
        <time>2020-12-03T13:42:50Z</time>
      </trkpt>
      <trkpt lat="43.07809" lon="-0.6222">
        <ele>504.986</ele>
        <time>2020-12-03T13:43:00Z</time>
      </trkpt>
      <trkpt lat="43.07837" lon="-0.6215">
        <ele>498.881</ele>
        <time>2020-12-03T13:43:10Z</time>
      </trkpt>
      <trkpt lat="43.07814" lon="-0.62034">
        <ele>490.184</ele>
        <time>2020-12-03T13:43:23Z</time>
      </trkpt>
      <trkpt lat="43.07857" lon="-0.61889">
        <ele>474.365</ele>
        <time>2020-12-03T13:43:56Z</time>
      </trkpt>
      <trkpt lat="43.07827" lon="-0.61847">
        <ele>470.413</ele>
        <time>2020-12-03T13:44:10Z</time>
      </trkpt>
      <trkpt lat="43.07872" lon="-0.61711">
        <ele>458.143</ele>
        <time>2020-12-03T13:44:41Z</time>
      </trkpt>
      <trkpt lat="43.07855" lon="-0.61818">
        <ele>450.907</ele>
        <time>2020-12-03T13:44:57Z</time>
      </trkpt>
      <trkpt lat="43.07863" lon="-0.61828">
        <ele>449.008</ele>
        <time>2020-12-03T13:45:00Z</time>
      </trkpt>
      <trkpt lat="43.07914" lon="-0.6181">
        <ele>444.617</ele>
        <time>2020-12-03T13:45:10Z</time>
      </trkpt>
      <trkpt lat="43.07932" lon="-0.61817">
        <ele>441.742</ele>
        <time>2020-12-03T13:45:14Z</time>
      </trkpt>
      <trkpt lat="43.07931" lon="-0.61966">
        <ele>428.397</ele>
        <time>2020-12-03T13:45:31Z</time>
      </trkpt>
      <trkpt lat="43.07946" lon="-0.61978">
        <ele>424.083</ele>
        <time>2020-12-03T13:45:37Z</time>
      </trkpt>
      <trkpt lat="43.0801" lon="-0.61774">
        <ele>403.954</ele>
        <time>2020-12-03T13:46:11Z</time>
      </trkpt>
      <trkpt lat="43.07998" lon="-0.61699">
        <ele>396.929</ele>
        <time>2020-12-03T13:46:24Z</time>
      </trkpt>
      <trkpt lat="43.0806" lon="-0.61598">
        <ele>385.942</ele>
        <time>2020-12-03T13:46:41Z</time>
      </trkpt>
      <trkpt lat="43.08083" lon="-0.6151">
        <ele>376.993</ele>
        <time>2020-12-03T13:46:53Z</time>
      </trkpt>
      <trkpt lat="43.08127" lon="-0.61465">
        <ele>369.291</ele>
        <time>2020-12-03T13:47:05Z</time>
      </trkpt>
      <trkpt lat="43.08131" lon="-0.61427">
        <ele>366.281</ele>
        <time>2020-12-03T13:47:11Z</time>
      </trkpt>
      <trkpt lat="43.08108" lon="-0.6136">
        <ele>361.019</ele>
        <time>2020-12-03T13:47:59Z</time>
      </trkpt>
      <trkpt lat="43.08075" lon="-0.61339">
        <ele>361.608</ele>
        <time>2020-12-03T13:48:21Z</time>
      </trkpt>
      <trkpt lat="43.08004" lon="-0.61302">
        <ele>362.165</ele>
        <time>2020-12-03T13:48:54Z</time>
      </trkpt>
      <trkpt lat="43.07871" lon="-0.61277">
        <ele>358.99</ele>
        <time>2020-12-03T13:49:27Z</time>
      </trkpt>
      <trkpt lat="43.07777" lon="-0.61222">
        <ele>355.535</ele>
        <time>2020-12-03T13:49:44Z</time>
      </trkpt>
      <trkpt lat="43.07733" lon="-0.6115">
        <ele>354.981</ele>
        <time>2020-12-03T13:49:54Z</time>
      </trkpt>
      <trkpt lat="43.07465" lon="-0.60862">
        <ele>352.552</ele>
        <time>2020-12-03T13:50:56Z</time>
      </trkpt>
      <trkpt lat="43.07302" lon="-0.60742">
        <ele>354.317</ele>
        <time>2020-12-03T13:51:32Z</time>
      </trkpt>
      <trkpt lat="43.07202" lon="-0.60691">
        <ele>356.49</ele>
        <time>2020-12-03T13:51:56Z</time>
      </trkpt>
      <trkpt lat="43.07174" lon="-0.60661">
        <ele>356.631</ele>
        <time>2020-12-03T13:52:07Z</time>
      </trkpt>
      <trkpt lat="43.07177" lon="-0.60643">
        <ele>356.646</ele>
        <time>2020-12-03T13:52:13Z</time>
      </trkpt>
      <trkpt lat="43.07196" lon="-0.60614">
        <ele>356.588</ele>
        <time>2020-12-03T13:52:24Z</time>
      </trkpt>
      <trkpt lat="43.07327" lon="-0.60611">
        <ele>366.816</ele>
        <time>2020-12-03T13:53:09Z</time>
      </trkpt>
      <trkpt lat="43.07464" lon="-0.60676">
        <ele>365.908</ele>
        <time>2020-12-03T13:53:47Z</time>
      </trkpt>
      <trkpt lat="43.07498" lon="-0.60679">
        <ele>366.36</ele>
        <time>2020-12-03T13:53:56Z</time>
      </trkpt>
      <trkpt lat="43.07523" lon="-0.60654">
        <ele>367.055</ele>
        <time>2020-12-03T13:54:04Z</time>
      </trkpt>
      <trkpt lat="43.07546" lon="-0.60563">
        <ele>369.05</ele>
        <time>2020-12-03T13:54:23Z</time>
      </trkpt>
      <trkpt lat="43.07597" lon="-0.60511">
        <ele>365.976</ele>
        <time>2020-12-03T13:54:34Z</time>
      </trkpt>
      <trkpt lat="43.07637" lon="-0.60544">
        <ele>365.347</ele>
        <time>2020-12-03T13:54:42Z</time>
      </trkpt>
      <trkpt lat="43.07715" lon="-0.60715">
        <ele>375.672</ele>
        <time>2020-12-03T13:55:40Z</time>
      </trkpt>
      <trkpt lat="43.07893" lon="-0.6085">
        <ele>372.445</ele>
        <time>2020-12-03T13:56:27Z</time>
      </trkpt>
      <trkpt lat="43.08009" lon="-0.60887">
        <ele>371.896</ele>
        <time>2020-12-03T13:56:53Z</time>
      </trkpt>
      <trkpt lat="43.08098" lon="-0.6087">
        <ele>371.683</ele>
        <time>2020-12-03T13:57:12Z</time>
      </trkpt>
      <trkpt lat="43.08132" lon="-0.6085">
        <ele>369.825</ele>
        <time>2020-12-03T13:57:18Z</time>
      </trkpt>
      <trkpt lat="43.08195" lon="-0.60872">
        <ele>370.217</ele>
        <time>2020-12-03T13:57:32Z</time>
      </trkpt>
      <trkpt lat="43.08272" lon="-0.60845">
        <ele>365.408</ele>
        <time>2020-12-03T13:57:44Z</time>
      </trkpt>
      <trkpt lat="43.0829" lon="-0.60853">
        <ele>366.044</ele>
        <time>2020-12-03T13:57:47Z</time>
      </trkpt>
      <trkpt lat="43.0836" lon="-0.61086">
        <ele>365.269</ele>
        <time>2020-12-03T13:58:26Z</time>
      </trkpt>
      <trkpt lat="43.08445" lon="-0.61161">
        <ele>363.954</ele>
        <time>2020-12-03T13:58:43Z</time>
      </trkpt>
      <trkpt lat="43.08475" lon="-0.61164">
        <ele>363.05</ele>
        <time>2020-12-03T13:58:48Z</time>
      </trkpt>
      <trkpt lat="43.08568" lon="-0.61125">
        <ele>361.661</ele>
        <time>2020-12-03T13:59:07Z</time>
      </trkpt>
      <trkpt lat="43.08797" lon="-0.6109">
        <ele>355.686</ele>
        <time>2020-12-03T13:59:50Z</time>
      </trkpt>
      <trkpt lat="43.08859" lon="-0.61065">
        <ele>355.379</ele>
        <time>2020-12-03T14:00:03Z</time>
      </trkpt>
      <trkpt lat="43.08948" lon="-0.6107">
        <ele>356.57</ele>
        <time>2020-12-03T14:00:21Z</time>
      </trkpt>
      <trkpt lat="43.09093" lon="-0.61119">
        <ele>363.365</ele>
        <time>2020-12-03T14:01:00Z</time>
      </trkpt>
      <trkpt lat="43.09169" lon="-0.61122">
        <ele>363.668</ele>
        <time>2020-12-03T14:01:20Z</time>
      </trkpt>
      <trkpt lat="43.09288" lon="-0.61248">
        <ele>362.014</ele>
        <time>2020-12-03T14:01:58Z</time>
      </trkpt>
      <trkpt lat="43.094" lon="-0.61283">
        <ele>358.908</ele>
        <time>2020-12-03T14:02:24Z</time>
      </trkpt>
      <trkpt lat="43.09438" lon="-0.61311">
        <ele>354.442</ele>
        <time>2020-12-03T14:02:34Z</time>
      </trkpt>
      <trkpt lat="43.09448" lon="-0.61347">
        <ele>351.867</ele>
        <time>2020-12-03T14:02:42Z</time>
      </trkpt>
      <trkpt lat="43.09537" lon="-0.61379">
        <ele>350.222</ele>
        <time>2020-12-03T14:03:05Z</time>
      </trkpt>
      <trkpt lat="43.09689" lon="-0.61473">
        <ele>349.518</ele>
        <time>2020-12-03T14:03:47Z</time>
      </trkpt>
      <trkpt lat="43.0975" lon="-0.61474">
        <ele>349.879</ele>
        <time>2020-12-03T14:04:05Z</time>
      </trkpt>
      <trkpt lat="43.09867" lon="-0.61407">
        <ele>351.334</ele>
        <time>2020-12-03T14:05:31Z</time>
      </trkpt>
      <trkpt lat="43.0992" lon="-0.61413">
        <ele>352.337</ele>
        <time>2020-12-03T14:05:56Z</time>
      </trkpt>
      <trkpt lat="43.09968" lon="-0.61437">
        <ele>350.778</ele>
        <time>2020-12-03T14:06:11Z</time>
      </trkpt>
      <trkpt lat="43.10021" lon="-0.61489">
        <ele>351.787</ele>
        <time>2020-12-03T14:06:29Z</time>
      </trkpt>
      <trkpt lat="43.10102" lon="-0.61632">
        <ele>352.342</ele>
        <time>2020-12-03T14:07:32Z</time>
      </trkpt>
      <trkpt lat="43.10253" lon="-0.61653">
        <ele>351.426</ele>
        <time>2020-12-03T14:08:28Z</time>
      </trkpt>
      <trkpt lat="43.10357" lon="-0.61708">
        <ele>352.108</ele>
        <time>2020-12-03T14:08:51Z</time>
      </trkpt>
      <trkpt lat="43.10452" lon="-0.61854">
        <ele>349.824</ele>
        <time>2020-12-03T14:09:20Z</time>
      </trkpt>
      <trkpt lat="43.10513" lon="-0.62038">
        <ele>352.039</ele>
        <time>2020-12-03T14:09:53Z</time>
      </trkpt>
      <trkpt lat="43.10559" lon="-0.62083">
        <ele>350.144</ele>
        <time>2020-12-03T14:10:02Z</time>
      </trkpt>
      <trkpt lat="43.10627" lon="-0.62081">
        <ele>350.08</ele>
        <time>2020-12-03T14:10:16Z</time>
      </trkpt>
      <trkpt lat="43.10693" lon="-0.62047">
        <ele>353.061</ele>
        <time>2020-12-03T14:10:32Z</time>
      </trkpt>
      <trkpt lat="43.10716" lon="-0.62016">
        <ele>354.816</ele>
        <time>2020-12-03T14:10:39Z</time>
      </trkpt>
      <trkpt lat="43.10927" lon="-0.61607">
        <ele>351.539</ele>
        <time>2020-12-03T14:11:56Z</time>
      </trkpt>
      <trkpt lat="43.11005" lon="-0.61483">
        <ele>350.39</ele>
        <time>2020-12-03T14:12:20Z</time>
      </trkpt>
      <trkpt lat="43.11206" lon="-0.61274">
        <ele>347.497</ele>
        <time>2020-12-03T14:13:16Z</time>
      </trkpt>
      <trkpt lat="43.11193" lon="-0.61216">
        <ele>348.923</ele>
        <time>2020-12-03T14:13:30Z</time>
      </trkpt>
      <trkpt lat="43.11224" lon="-0.61078">
        <ele>348.325</ele>
        <time>2020-12-03T14:14:03Z</time>
      </trkpt>
      <trkpt lat="43.11176" lon="-0.60997">
        <ele>349.908</ele>
        <time>2020-12-03T14:14:22Z</time>
      </trkpt>
      <trkpt lat="43.11189" lon="-0.60884">
        <ele>348.755</ele>
        <time>2020-12-03T14:14:42Z</time>
      </trkpt>
      <trkpt lat="43.11253" lon="-0.60774">
        <ele>345.53</ele>
        <time>2020-12-03T14:15:05Z</time>
      </trkpt>
      <trkpt lat="43.11258" lon="-0.60728">
        <ele>343.915</ele>
        <time>2020-12-03T14:15:10Z</time>
      </trkpt>
      <trkpt lat="43.11302" lon="-0.60697">
        <ele>342.771</ele>
        <time>2020-12-03T14:15:19Z</time>
      </trkpt>
      <trkpt lat="43.11337" lon="-0.60597">
        <ele>352.382</ele>
        <time>2020-12-03T14:15:48Z</time>
      </trkpt>
      <trkpt lat="43.11346" lon="-0.60551">
        <ele>358.437</ele>
        <time>2020-12-03T14:16:05Z</time>
      </trkpt>
      <trkpt lat="43.11328" lon="-0.60494">
        <ele>365.45</ele>
        <time>2020-12-03T14:16:52Z</time>
      </trkpt>
      <trkpt lat="43.11341" lon="-0.60474">
        <ele>368.451</ele>
        <time>2020-12-03T14:17:30Z</time>
      </trkpt>
      <trkpt lat="43.11343" lon="-0.6042">
        <ele>377.787</ele>
        <time>2020-12-03T14:19:46Z</time>
      </trkpt>
      <trkpt lat="43.11378" lon="-0.60401">
        <ele>390.142</ele>
        <time>2020-12-03T14:21:37Z</time>
      </trkpt>
      <trkpt lat="43.11405" lon="-0.60403">
        <ele>395.326</ele>
        <time>2020-12-03T14:22:36Z</time>
      </trkpt>
      <trkpt lat="43.11467" lon="-0.60313">
        <ele>400.308</ele>
        <time>2020-12-03T14:25:15Z</time>
      </trkpt>
      <trkpt lat="43.11494" lon="-0.60247">
        <ele>398.434</ele>
        <time>2020-12-03T14:25:37Z</time>
      </trkpt>
      <trkpt lat="43.11498" lon="-0.60185">
        <ele>396.719</ele>
        <time>2020-12-03T14:25:49Z</time>
      </trkpt>
      <trkpt lat="43.11577" lon="-0.60027">
        <ele>385.514</ele>
        <time>2020-12-03T14:26:14Z</time>
      </trkpt>
      <trkpt lat="43.11612" lon="-0.60041">
        <ele>380.59</ele>
        <time>2020-12-03T14:26:20Z</time>
      </trkpt>
      <trkpt lat="43.11633" lon="-0.60032">
        <ele>379.141</ele>
        <time>2020-12-03T14:26:26Z</time>
      </trkpt>
      <trkpt lat="43.1178" lon="-0.5941">
        <ele>363.036</ele>
        <time>2020-12-03T14:27:47Z</time>
      </trkpt>
      <trkpt lat="43.11902" lon="-0.59352">
        <ele>354.789</ele>
        <time>2020-12-03T14:28:00Z</time>
      </trkpt>
      <trkpt lat="43.11949" lon="-0.59371">
        <ele>353.06</ele>
        <time>2020-12-03T14:28:06Z</time>
      </trkpt>
      <trkpt lat="43.11983" lon="-0.59451">
        <ele>351.148</ele>
        <time>2020-12-03T14:28:16Z</time>
      </trkpt>
      <trkpt lat="43.12026" lon="-0.59475">
        <ele>350.061</ele>
        <time>2020-12-03T14:28:25Z</time>
      </trkpt>
      <trkpt lat="43.12113" lon="-0.59446">
        <ele>349.217</ele>
        <time>2020-12-03T14:28:43Z</time>
      </trkpt>
      <trkpt lat="43.12166" lon="-0.59392">
        <ele>347.708</ele>
        <time>2020-12-03T14:28:55Z</time>
      </trkpt>
      <trkpt lat="43.12321" lon="-0.59369">
        <ele>345.22</ele>
        <time>2020-12-03T14:29:25Z</time>
      </trkpt>
      <trkpt lat="43.12649" lon="-0.59282">
        <ele>346.795</ele>
        <time>2020-12-03T14:30:23Z</time>
      </trkpt>
      <trkpt lat="43.1278" lon="-0.59353">
        <ele>347.85</ele>
        <time>2020-12-03T14:30:48Z</time>
      </trkpt>
      <trkpt lat="43.12893" lon="-0.59337">
        <ele>348.856</ele>
        <time>2020-12-03T14:31:09Z</time>
      </trkpt>
      <trkpt lat="43.12952" lon="-0.59354">
        <ele>348.937</ele>
        <time>2020-12-03T14:31:24Z</time>
      </trkpt>
      <trkpt lat="43.13076" lon="-0.5936">
        <ele>346.562</ele>
        <time>2020-12-03T14:32:38Z</time>
      </trkpt>
      <trkpt lat="43.13166" lon="-0.59401">
        <ele>340.015</ele>
        <time>2020-12-03T14:32:50Z</time>
      </trkpt>
      <trkpt lat="43.13233" lon="-0.59471">
        <ele>333.186</ele>
        <time>2020-12-03T14:32:58Z</time>
      </trkpt>
      <trkpt lat="43.1354" lon="-0.59488">
        <ele>319.346</ele>
        <time>2020-12-03T14:33:32Z</time>
      </trkpt>
      <trkpt lat="43.13778" lon="-0.59381">
        <ele>317.888</ele>
        <time>2020-12-03T14:34:22Z</time>
      </trkpt>
      <trkpt lat="43.13862" lon="-0.59321">
        <ele>316.116</ele>
        <time>2020-12-03T14:34:42Z</time>
      </trkpt>
      <trkpt lat="43.13868" lon="-0.59235">
        <ele>316.408</ele>
        <time>2020-12-03T14:35:00Z</time>
      </trkpt>
      <trkpt lat="43.13878" lon="-0.59263">
        <ele>315.91</ele>
        <time>2020-12-03T14:37:56Z</time>
      </trkpt>
    </trkseg>
  </trk>
  <trk>
    <name><![CDATA[Boucle de Lazerque]]></name>
    <trkseg>
      <trkpt lat="43.09999" lon="-0.4432">
        <ele>412</ele>
      </trkpt>
      <trkpt lat="43.09998" lon="-0.44327">
        <ele>412</ele>
      </trkpt>
      <trkpt lat="43.10001" lon="-0.44349">
        <ele>412</ele>
      </trkpt>
      <trkpt lat="43.10029" lon="-0.4444">
        <ele>411</ele>
      </trkpt>
      <trkpt lat="43.10035" lon="-0.44451">
        <ele>411</ele>
      </trkpt>
      <trkpt lat="43.10043" lon="-0.44476">
        <ele>409</ele>
      </trkpt>
      <trkpt lat="43.1005" lon="-0.44557">
        <ele>413</ele>
      </trkpt>
      <trkpt lat="43.1005" lon="-0.44581">
        <ele>413</ele>
      </trkpt>
      <trkpt lat="43.10033" lon="-0.44656">
        <ele>413</ele>
      </trkpt>
      <trkpt lat="43.09967" lon="-0.44816">
        <ele>416</ele>
      </trkpt>
      <trkpt lat="43.09959" lon="-0.44898">
        <ele>417</ele>
      </trkpt>
      <trkpt lat="43.09927" lon="-0.45032">
        <ele>417</ele>
      </trkpt>
      <trkpt lat="43.09927" lon="-0.45049">
        <ele>421</ele>
      </trkpt>
      <trkpt lat="43.0995" lon="-0.45109">
        <ele>421</ele>
      </trkpt>
      <trkpt lat="43.0998" lon="-0.45126">
        <ele>425</ele>
      </trkpt>
      <trkpt lat="43.10023" lon="-0.45171">
        <ele>425</ele>
      </trkpt>
      <trkpt lat="43.10054" lon="-0.45189">
        <ele>444</ele>
      </trkpt>
      <trkpt lat="43.10065" lon="-0.45205">
        <ele>444</ele>
      </trkpt>
      <trkpt lat="43.10065" lon="-0.45211">
        <ele>453</ele>
      </trkpt>
      <trkpt lat="43.10071" lon="-0.45229">
        <ele>453</ele>
      </trkpt>
      <trkpt lat="43.10065" lon="-0.45263">
        <ele>453</ele>
      </trkpt>
      <trkpt lat="43.1007" lon="-0.45297">
        <ele>450</ele>
      </trkpt>
      <trkpt lat="43.10092" lon="-0.45328">
        <ele>450</ele>
      </trkpt>
      <trkpt lat="43.10126" lon="-0.45342">
        <ele>463</ele>
      </trkpt>
      <trkpt lat="43.10164" lon="-0.45386">
        <ele>435</ele>
      </trkpt>
      <trkpt lat="43.10165" lon="-0.45393">
        <ele>435</ele>
      </trkpt>
      <trkpt lat="43.10178" lon="-0.45417">
        <ele>435</ele>
      </trkpt>
      <trkpt lat="43.10174" lon="-0.45432">
        <ele>435</ele>
      </trkpt>
      <trkpt lat="43.10163" lon="-0.45435">
        <ele>435</ele>
      </trkpt>
      <trkpt lat="43.1016" lon="-0.45439">
        <ele>435</ele>
      </trkpt>
      <trkpt lat="43.10163" lon="-0.45431">
        <ele>435</ele>
      </trkpt>
      <trkpt lat="43.10198" lon="-0.45399">
        <ele>435</ele>
      </trkpt>
      <trkpt lat="43.10222" lon="-0.4537">
        <ele>454</ele>
      </trkpt>
      <trkpt lat="43.10257" lon="-0.4536">
        <ele>454</ele>
      </trkpt>
      <trkpt lat="43.10272" lon="-0.45346">
        <ele>454</ele>
      </trkpt>
      <trkpt lat="43.10277" lon="-0.45338">
        <ele>454</ele>
      </trkpt>
      <trkpt lat="43.1028" lon="-0.45338">
        <ele>454</ele>
      </trkpt>
      <trkpt lat="43.10293" lon="-0.45307">
        <ele>449</ele>
      </trkpt>
      <trkpt lat="43.10318" lon="-0.45298">
        <ele>449</ele>
      </trkpt>
      <trkpt lat="43.10351" lon="-0.45273">
        <ele>452</ele>
      </trkpt>
      <trkpt lat="43.10366" lon="-0.45254">
        <ele>452</ele>
      </trkpt>
      <trkpt lat="43.10389" lon="-0.45212">
        <ele>437</ele>
      </trkpt>
      <trkpt lat="43.10407" lon="-0.45206">
        <ele>442</ele>
      </trkpt>
      <trkpt lat="43.10425" lon="-0.45217">
        <ele>437</ele>
      </trkpt>
      <trkpt lat="43.10528" lon="-0.45248">
        <ele>425</ele>
      </trkpt>
      <trkpt lat="43.10562" lon="-0.45267">
        <ele>408</ele>
      </trkpt>
      <trkpt lat="43.10579" lon="-0.45283">
        <ele>408</ele>
      </trkpt>
      <trkpt lat="43.10629" lon="-0.45355">
        <ele>406</ele>
      </trkpt>
      <trkpt lat="43.10646" lon="-0.45368">
        <ele>406</ele>
      </trkpt>
      <trkpt lat="43.10696" lon="-0.45434">
        <ele>420</ele>
      </trkpt>
      <trkpt lat="43.10717" lon="-0.45443">
        <ele>411</ele>
      </trkpt>
      <trkpt lat="43.10724" lon="-0.4544">
        <ele>411</ele>
      </trkpt>
      <trkpt lat="43.10734" lon="-0.45442">
        <ele>411</ele>
      </trkpt>
      <trkpt lat="43.10744" lon="-0.45432">
        <ele>411</ele>
      </trkpt>
      <trkpt lat="43.10742" lon="-0.45433">
        <ele>411</ele>
      </trkpt>
      <trkpt lat="43.10743" lon="-0.45435">
        <ele>411</ele>
      </trkpt>
      <trkpt lat="43.10762" lon="-0.45429">
        <ele>411</ele>
      </trkpt>
      <trkpt lat="43.10784" lon="-0.45404">
        <ele>411</ele>
      </trkpt>
      <trkpt lat="43.10801" lon="-0.45373">
        <ele>421</ele>
      </trkpt>
      <trkpt lat="43.10845" lon="-0.45312">
        <ele>421</ele>
      </trkpt>
      <trkpt lat="43.10873" lon="-0.45286">
        <ele>430</ele>
      </trkpt>
      <trkpt lat="43.10886" lon="-0.45304">
        <ele>406</ele>
      </trkpt>
      <trkpt lat="43.1084" lon="-0.45455">
        <ele>412</ele>
      </trkpt>
      <trkpt lat="43.10822" lon="-0.45522">
        <ele>407</ele>
      </trkpt>
      <trkpt lat="43.10807" lon="-0.45537">
        <ele>407</ele>
      </trkpt>
      <trkpt lat="43.1076" lon="-0.45565">
        <ele>418</ele>
      </trkpt>
      <trkpt lat="43.10732" lon="-0.45574">
        <ele>418</ele>
      </trkpt>
      <trkpt lat="43.10703" lon="-0.45601">
        <ele>411</ele>
      </trkpt>
      <trkpt lat="43.10664" lon="-0.458">
        <ele>420</ele>
      </trkpt>
      <trkpt lat="43.10664" lon="-0.4586">
        <ele>420</ele>
      </trkpt>
      <trkpt lat="43.1071" lon="-0.45942">
        <ele>421</ele>
      </trkpt>
      <trkpt lat="43.10712" lon="-0.45965">
        <ele>425</ele>
      </trkpt>
      <trkpt lat="43.10726" lon="-0.46013">
        <ele>425</ele>
      </trkpt>
      <trkpt lat="43.10739" lon="-0.46042">
        <ele>455</ele>
      </trkpt>
      <trkpt lat="43.10762" lon="-0.46067">
        <ele>455</ele>
      </trkpt>
      <trkpt lat="43.1078" lon="-0.46076">
        <ele>455</ele>
      </trkpt>
      <trkpt lat="43.10789" lon="-0.46095">
        <ele>455</ele>
      </trkpt>
      <trkpt lat="43.10789" lon="-0.46106">
        <ele>455</ele>
      </trkpt>
      <trkpt lat="43.10786" lon="-0.46116">
        <ele>455</ele>
      </trkpt>
      <trkpt lat="43.10787" lon="-0.46134">
        <ele>486</ele>
      </trkpt>
      <trkpt lat="43.10791" lon="-0.46141">
        <ele>486</ele>
      </trkpt>
      <trkpt lat="43.10808" lon="-0.46199">
        <ele>434</ele>
      </trkpt>
      <trkpt lat="43.10814" lon="-0.46243">
        <ele>454</ele>
      </trkpt>
      <trkpt lat="43.10828" lon="-0.46273">
        <ele>454</ele>
      </trkpt>
      <trkpt lat="43.1085" lon="-0.46303">
        <ele>474</ele>
      </trkpt>
      <trkpt lat="43.10856" lon="-0.46336">
        <ele>474</ele>
      </trkpt>
      <trkpt lat="43.1086" lon="-0.46342">
        <ele>474</ele>
      </trkpt>
      <trkpt lat="43.1086" lon="-0.46351">
        <ele>474</ele>
      </trkpt>
      <trkpt lat="43.10852" lon="-0.46377">
        <ele>493</ele>
      </trkpt>
      <trkpt lat="43.10854" lon="-0.46387">
        <ele>493</ele>
      </trkpt>
      <trkpt lat="43.10872" lon="-0.46408">
        <ele>493</ele>
      </trkpt>
      <trkpt lat="43.10892" lon="-0.4642">
        <ele>466</ele>
      </trkpt>
      <trkpt lat="43.10911" lon="-0.46443">
        <ele>466</ele>
      </trkpt>
      <trkpt lat="43.10908" lon="-0.46491">
        <ele>476</ele>
      </trkpt>
      <trkpt lat="43.1089" lon="-0.4652">
        <ele>476</ele>
      </trkpt>
      <trkpt lat="43.10881" lon="-0.46527">
        <ele>476</ele>
      </trkpt>
      <trkpt lat="43.10865" lon="-0.46547">
        <ele>498</ele>
      </trkpt>
      <trkpt lat="43.10863" lon="-0.46553">
        <ele>498</ele>
      </trkpt>
      <trkpt lat="43.10839" lon="-0.46586">
        <ele>498</ele>
      </trkpt>
      <trkpt lat="43.10822" lon="-0.46617">
        <ele>498</ele>
      </trkpt>
      <trkpt lat="43.10802" lon="-0.46623">
        <ele>498</ele>
      </trkpt>
      <trkpt lat="43.1076" lon="-0.46611">
        <ele>509</ele>
      </trkpt>
      <trkpt lat="43.10683" lon="-0.46583">
        <ele>512</ele>
      </trkpt>
      <trkpt lat="43.10645" lon="-0.46578">
        <ele>512</ele>
      </trkpt>
      <trkpt lat="43.10615" lon="-0.46591">
        <ele>527</ele>
      </trkpt>
      <trkpt lat="43.10572" lon="-0.46622">
        <ele>527</ele>
      </trkpt>
      <trkpt lat="43.1055" lon="-0.46642">
        <ele>523</ele>
      </trkpt>
      <trkpt lat="43.10534" lon="-0.46675">
        <ele>535</ele>
      </trkpt>
      <trkpt lat="43.10512" lon="-0.46699">
        <ele>535</ele>
      </trkpt>
      <trkpt lat="43.1047" lon="-0.46722">
        <ele>528</ele>
      </trkpt>
      <trkpt lat="43.10421" lon="-0.46764">
        <ele>539</ele>
      </trkpt>
      <trkpt lat="43.10396" lon="-0.46813">
        <ele>532</ele>
      </trkpt>
      <trkpt lat="43.10394" lon="-0.46831">
        <ele>532</ele>
      </trkpt>
      <trkpt lat="43.10399" lon="-0.46852">
        <ele>532</ele>
      </trkpt>
      <trkpt lat="43.10396" lon="-0.46882">
        <ele>537</ele>
      </trkpt>
      <trkpt lat="43.104" lon="-0.46893">
        <ele>537</ele>
      </trkpt>
      <trkpt lat="43.10414" lon="-0.46913">
        <ele>537</ele>
      </trkpt>
      <trkpt lat="43.10415" lon="-0.46924">
        <ele>537</ele>
      </trkpt>
      <trkpt lat="43.10412" lon="-0.46955">
        <ele>537</ele>
      </trkpt>
      <trkpt lat="43.10422" lon="-0.46981">
        <ele>549</ele>
      </trkpt>
      <trkpt lat="43.10448" lon="-0.47002">
        <ele>549</ele>
      </trkpt>
      <trkpt lat="43.10455" lon="-0.47019">
        <ele>549</ele>
      </trkpt>
      <trkpt lat="43.10455" lon="-0.47052">
        <ele>555</ele>
      </trkpt>
      <trkpt lat="43.10445" lon="-0.47092">
        <ele>555</ele>
      </trkpt>
      <trkpt lat="43.10438" lon="-0.47139">
        <ele>551</ele>
      </trkpt>
      <trkpt lat="43.1041" lon="-0.47244">
        <ele>550</ele>
      </trkpt>
      <trkpt lat="43.10414" lon="-0.47254">
        <ele>550</ele>
      </trkpt>
      <trkpt lat="43.1043" lon="-0.47273">
        <ele>550</ele>
      </trkpt>
      <trkpt lat="43.10462" lon="-0.47297">
        <ele>514</ele>
      </trkpt>
      <trkpt lat="43.10465" lon="-0.47302">
        <ele>514</ele>
      </trkpt>
      <trkpt lat="43.10466" lon="-0.47331">
        <ele>514</ele>
      </trkpt>
      <trkpt lat="43.10461" lon="-0.47365">
        <ele>514</ele>
      </trkpt>
      <trkpt lat="43.1045" lon="-0.47406">
        <ele>560</ele>
      </trkpt>
      <trkpt lat="43.10455" lon="-0.47417">
        <ele>560</ele>
      </trkpt>
      <trkpt lat="43.10481" lon="-0.47441">
        <ele>523</ele>
      </trkpt>
      <trkpt lat="43.10509" lon="-0.47459">
        <ele>530</ele>
      </trkpt>
      <trkpt lat="43.10514" lon="-0.47477">
        <ele>530</ele>
      </trkpt>
      <trkpt lat="43.10514" lon="-0.4749">
        <ele>530</ele>
      </trkpt>
      <trkpt lat="43.10503" lon="-0.47575">
        <ele>532</ele>
      </trkpt>
      <trkpt lat="43.10499" lon="-0.47586">
        <ele>532</ele>
      </trkpt>
      <trkpt lat="43.10498" lon="-0.476">
        <ele>532</ele>
      </trkpt>
      <trkpt lat="43.10504" lon="-0.47618">
        <ele>532</ele>
      </trkpt>
      <trkpt lat="43.10516" lon="-0.47641">
        <ele>525</ele>
      </trkpt>
      <trkpt lat="43.10517" lon="-0.47648">
        <ele>525</ele>
      </trkpt>
      <trkpt lat="43.10513" lon="-0.47668">
        <ele>525</ele>
      </trkpt>
      <trkpt lat="43.10498" lon="-0.47695">
        <ele>525</ele>
      </trkpt>
      <trkpt lat="43.10486" lon="-0.47705">
        <ele>525</ele>
      </trkpt>
      <trkpt lat="43.10477" lon="-0.47706">
        <ele>525</ele>
      </trkpt>
      <trkpt lat="43.10455" lon="-0.47698">
        <ele>546</ele>
      </trkpt>
      <trkpt lat="43.10445" lon="-0.47699">
        <ele>546</ele>
      </trkpt>
      <trkpt lat="43.10437" lon="-0.47707">
        <ele>546</ele>
      </trkpt>
      <trkpt lat="43.10418" lon="-0.47796">
        <ele>532</ele>
      </trkpt>
      <trkpt lat="43.10398" lon="-0.4784">
        <ele>532</ele>
      </trkpt>
      <trkpt lat="43.10405" lon="-0.47852">
        <ele>532</ele>
      </trkpt>
      <trkpt lat="43.10435" lon="-0.47884">
        <ele>531</ele>
      </trkpt>
      <trkpt lat="43.1044" lon="-0.47902">
        <ele>531</ele>
      </trkpt>
      <trkpt lat="43.1044" lon="-0.47951">
        <ele>531</ele>
      </trkpt>
      <trkpt lat="43.10454" lon="-0.4798">
        <ele>521</ele>
      </trkpt>
      <trkpt lat="43.10455" lon="-0.47995">
        <ele>521</ele>
      </trkpt>
      <trkpt lat="43.10451" lon="-0.48008">
        <ele>521</ele>
      </trkpt>
      <trkpt lat="43.10432" lon="-0.48023">
        <ele>521</ele>
      </trkpt>
      <trkpt lat="43.1034" lon="-0.48057">
        <ele>509</ele>
      </trkpt>
      <trkpt lat="43.10271" lon="-0.4804">
        <ele>526</ele>
      </trkpt>
      <trkpt lat="43.10262" lon="-0.48042">
        <ele>519</ele>
      </trkpt>
      <trkpt lat="43.10251" lon="-0.48054">
        <ele>519</ele>
      </trkpt>
      <trkpt lat="43.10233" lon="-0.48087">
        <ele>519</ele>
      </trkpt>
      <trkpt lat="43.1023" lon="-0.48118">
        <ele>519</ele>
      </trkpt>
      <trkpt lat="43.10221" lon="-0.48135">
        <ele>517</ele>
      </trkpt>
      <trkpt lat="43.10172" lon="-0.48159">
        <ele>525</ele>
      </trkpt>
      <trkpt lat="43.10126" lon="-0.48159">
        <ele>525</ele>
      </trkpt>
      <trkpt lat="43.10108" lon="-0.48167">
        <ele>531</ele>
      </trkpt>
      <trkpt lat="43.10081" lon="-0.48166">
        <ele>531</ele>
      </trkpt>
      <trkpt lat="43.10021" lon="-0.48174">
        <ele>543</ele>
      </trkpt>
      <trkpt lat="43.09898" lon="-0.48172">
        <ele>547</ele>
      </trkpt>
      <trkpt lat="43.09877" lon="-0.48186">
        <ele>547</ele>
      </trkpt>
      <trkpt lat="43.09832" lon="-0.48229">
        <ele>568</ele>
      </trkpt>
      <trkpt lat="43.09821" lon="-0.48231">
        <ele>568</ele>
      </trkpt>
      <trkpt lat="43.09812" lon="-0.48238">
        <ele>568</ele>
      </trkpt>
      <trkpt lat="43.09814" lon="-0.48248">
        <ele>568</ele>
      </trkpt>
      <trkpt lat="43.09834" lon="-0.48244">
        <ele>568</ele>
      </trkpt>
      <trkpt lat="43.09863" lon="-0.48225">
        <ele>568</ele>
      </trkpt>
      <trkpt lat="43.09887" lon="-0.48214">
        <ele>582</ele>
      </trkpt>
      <trkpt lat="43.09911" lon="-0.48212">
        <ele>582</ele>
      </trkpt>
      <trkpt lat="43.09939" lon="-0.48222">
        <ele>582</ele>
      </trkpt>
      <trkpt lat="43.09994" lon="-0.48252">
        <ele>574</ele>
      </trkpt>
      <trkpt lat="43.10019" lon="-0.4829">
        <ele>574</ele>
      </trkpt>
      <trkpt lat="43.1003" lon="-0.48336">
        <ele>593</ele>
      </trkpt>
      <trkpt lat="43.10033" lon="-0.48374">
        <ele>593</ele>
      </trkpt>
      <trkpt lat="43.10029" lon="-0.48416">
        <ele>598</ele>
      </trkpt>
      <trkpt lat="43.10037" lon="-0.48522">
        <ele>602</ele>
      </trkpt>
      <trkpt lat="43.1003" lon="-0.4855">
        <ele>609</ele>
      </trkpt>
      <trkpt lat="43.10028" lon="-0.48585">
        <ele>609</ele>
      </trkpt>
      <trkpt lat="43.10011" lon="-0.48624">
        <ele>609</ele>
      </trkpt>
      <trkpt lat="43.09961" lon="-0.48674">
        <ele>618</ele>
      </trkpt>
      <trkpt lat="43.09944" lon="-0.48682">
        <ele>626</ele>
      </trkpt>
      <trkpt lat="43.09922" lon="-0.48687">
        <ele>626</ele>
      </trkpt>
      <trkpt lat="43.09906" lon="-0.48685">
        <ele>626</ele>
      </trkpt>
      <trkpt lat="43.09863" lon="-0.48663">
        <ele>643</ele>
      </trkpt>
      <trkpt lat="43.09827" lon="-0.48622">
        <ele>625</ele>
      </trkpt>
      <trkpt lat="43.09819" lon="-0.48634">
        <ele>643</ele>
      </trkpt>
      <trkpt lat="43.09829" lon="-0.48649">
        <ele>643</ele>
      </trkpt>
      <trkpt lat="43.09832" lon="-0.4865">
        <ele>643</ele>
      </trkpt>
      <trkpt lat="43.09873" lon="-0.48779">
        <ele>662</ele>
      </trkpt>
      <trkpt lat="43.09877" lon="-0.48802">
        <ele>649</ele>
      </trkpt>
      <trkpt lat="43.09914" lon="-0.4889">
        <ele>663</ele>
      </trkpt>
      <trkpt lat="43.09922" lon="-0.4892">
        <ele>663</ele>
      </trkpt>
      <trkpt lat="43.09939" lon="-0.48938">
        <ele>663</ele>
      </trkpt>
      <trkpt lat="43.09975" lon="-0.48965">
        <ele>683</ele>
      </trkpt>
      <trkpt lat="43.10015" lon="-0.48973">
        <ele>683</ele>
      </trkpt>
      <trkpt lat="43.1004" lon="-0.48968">
        <ele>683</ele>
      </trkpt>
      <trkpt lat="43.10062" lon="-0.48956">
        <ele>669</ele>
      </trkpt>
      <trkpt lat="43.10063" lon="-0.48949">
        <ele>669</ele>
      </trkpt>
      <trkpt lat="43.10082" lon="-0.48913">
        <ele>669</ele>
      </trkpt>
      <trkpt lat="43.10097" lon="-0.48892">
        <ele>669</ele>
      </trkpt>
      <trkpt lat="43.10116" lon="-0.48886">
        <ele>669</ele>
      </trkpt>
      <trkpt lat="43.10141" lon="-0.48945">
        <ele>671</ele>
      </trkpt>
      <trkpt lat="43.10152" lon="-0.48981">
        <ele>688</ele>
      </trkpt>
      <trkpt lat="43.10167" lon="-0.49083">
        <ele>696</ele>
      </trkpt>
      <trkpt lat="43.10169" lon="-0.4912">
        <ele>696</ele>
      </trkpt>
      <trkpt lat="43.10185" lon="-0.49168">
        <ele>698</ele>
      </trkpt>
      <trkpt lat="43.10201" lon="-0.49301">
        <ele>687</ele>
      </trkpt>
      <trkpt lat="43.10208" lon="-0.49335">
        <ele>687</ele>
      </trkpt>
      <trkpt lat="43.10244" lon="-0.49378">
        <ele>692</ele>
      </trkpt>
      <trkpt lat="43.10274" lon="-0.49433">
        <ele>692</ele>
      </trkpt>
      <trkpt lat="43.10286" lon="-0.49468">
        <ele>693</ele>
      </trkpt>
      <trkpt lat="43.10316" lon="-0.49585">
        <ele>697</ele>
      </trkpt>
      <trkpt lat="43.10331" lon="-0.49661">
        <ele>698</ele>
      </trkpt>
      <trkpt lat="43.10347" lon="-0.49727">
        <ele>702</ele>
      </trkpt>
      <trkpt lat="43.10345" lon="-0.49743">
        <ele>702</ele>
      </trkpt>
      <trkpt lat="43.10335" lon="-0.49753">
        <ele>702</ele>
      </trkpt>
      <trkpt lat="43.10318" lon="-0.49757">
        <ele>702</ele>
      </trkpt>
      <trkpt lat="43.10265" lon="-0.49749">
        <ele>716</ele>
      </trkpt>
      <trkpt lat="43.10245" lon="-0.49759">
        <ele>716</ele>
      </trkpt>
      <trkpt lat="43.1021" lon="-0.49792">
        <ele>726</ele>
      </trkpt>
      <trkpt lat="43.10206" lon="-0.49793">
        <ele>733</ele>
      </trkpt>
      <trkpt lat="43.10199" lon="-0.49804">
        <ele>733</ele>
      </trkpt>
      <trkpt lat="43.10194" lon="-0.49821">
        <ele>733</ele>
      </trkpt>
      <trkpt lat="43.10187" lon="-0.49828">
        <ele>733</ele>
      </trkpt>
      <trkpt lat="43.10182" lon="-0.49838">
        <ele>733</ele>
      </trkpt>
      <trkpt lat="43.1018" lon="-0.49849">
        <ele>733</ele>
      </trkpt>
      <trkpt lat="43.10182" lon="-0.49895">
        <ele>735</ele>
      </trkpt>
      <trkpt lat="43.10195" lon="-0.49959">
        <ele>737</ele>
      </trkpt>
      <trkpt lat="43.10242" lon="-0.50044">
        <ele>735</ele>
      </trkpt>
      <trkpt lat="43.1026" lon="-0.50086">
        <ele>735</ele>
      </trkpt>
      <trkpt lat="43.10272" lon="-0.5014">
        <ele>734</ele>
      </trkpt>
      <trkpt lat="43.10271" lon="-0.50137">
        <ele>734</ele>
      </trkpt>
      <trkpt lat="43.10272" lon="-0.5014">
        <ele>734</ele>
      </trkpt>
      <trkpt lat="43.10257" lon="-0.50204">
        <ele>734</ele>
      </trkpt>
      <trkpt lat="43.10229" lon="-0.50351">
        <ele>732</ele>
      </trkpt>
      <trkpt lat="43.10214" lon="-0.504">
        <ele>728</ele>
      </trkpt>
      <trkpt lat="43.10187" lon="-0.50441">
        <ele>741</ele>
      </trkpt>
      <trkpt lat="43.10146" lon="-0.50485">
        <ele>741</ele>
      </trkpt>
      <trkpt lat="43.10144" lon="-0.50496">
        <ele>741</ele>
      </trkpt>
      <trkpt lat="43.10144" lon="-0.50535">
        <ele>741</ele>
      </trkpt>
      <trkpt lat="43.10139" lon="-0.50565">
        <ele>740</ele>
      </trkpt>
      <trkpt lat="43.10113" lon="-0.50609">
        <ele>771</ele>
      </trkpt>
      <trkpt lat="43.10101" lon="-0.50636">
        <ele>756</ele>
      </trkpt>
      <trkpt lat="43.10068" lon="-0.50676">
        <ele>756</ele>
      </trkpt>
      <trkpt lat="43.10054" lon="-0.50687">
        <ele>756</ele>
      </trkpt>
      <trkpt lat="43.10045" lon="-0.5069">
        <ele>756</ele>
      </trkpt>
      <trkpt lat="43.10027" lon="-0.50704">
        <ele>782</ele>
      </trkpt>
      <trkpt lat="43.10003" lon="-0.50714">
        <ele>766</ele>
      </trkpt>
      <trkpt lat="43.0998" lon="-0.50732">
        <ele>766</ele>
      </trkpt>
      <trkpt lat="43.09958" lon="-0.50761">
        <ele>802</ele>
      </trkpt>
      <trkpt lat="43.09949" lon="-0.5079">
        <ele>802</ele>
      </trkpt>
      <trkpt lat="43.09943" lon="-0.50826">
        <ele>804</ele>
      </trkpt>
      <trkpt lat="43.09943" lon="-0.50865">
        <ele>804</ele>
      </trkpt>
      <trkpt lat="43.09955" lon="-0.50968">
        <ele>818</ele>
      </trkpt>
      <trkpt lat="43.09952" lon="-0.51023">
        <ele>818</ele>
      </trkpt>
      <trkpt lat="43.09935" lon="-0.51121">
        <ele>825</ele>
      </trkpt>
      <trkpt lat="43.0994" lon="-0.51189">
        <ele>826</ele>
      </trkpt>
      <trkpt lat="43.09954" lon="-0.5124">
        <ele>831</ele>
      </trkpt>
      <trkpt lat="43.0996" lon="-0.51283">
        <ele>786</ele>
      </trkpt>
      <trkpt lat="43.09967" lon="-0.51297">
        <ele>786</ele>
      </trkpt>
      <trkpt lat="43.09963" lon="-0.5131">
        <ele>786</ele>
      </trkpt>
      <trkpt lat="43.0996" lon="-0.51309">
        <ele>786</ele>
      </trkpt>
      <trkpt lat="43.09952" lon="-0.51247">
        <ele>831</ele>
      </trkpt>
      <trkpt lat="43.0993" lon="-0.51196">
        <ele>826</ele>
      </trkpt>
      <trkpt lat="43.0992" lon="-0.51165">
        <ele>826</ele>
      </trkpt>
      <trkpt lat="43.09911" lon="-0.51081">
        <ele>825</ele>
      </trkpt>
      <trkpt lat="43.09917" lon="-0.51024">
        <ele>818</ele>
      </trkpt>
      <trkpt lat="43.09912" lon="-0.51003">
        <ele>818</ele>
      </trkpt>
      <trkpt lat="43.09915" lon="-0.50974">
        <ele>818</ele>
      </trkpt>
      <trkpt lat="43.09913" lon="-0.50951">
        <ele>811</ele>
      </trkpt>
      <trkpt lat="43.09878" lon="-0.50887">
        <ele>811</ele>
      </trkpt>
      <trkpt lat="43.09883" lon="-0.50852">
        <ele>804</ele>
      </trkpt>
      <trkpt lat="43.09868" lon="-0.50805">
        <ele>854</ele>
      </trkpt>
      <trkpt lat="43.09868" lon="-0.50772">
        <ele>851</ele>
      </trkpt>
      <trkpt lat="43.09853" lon="-0.5069">
        <ele>847</ele>
      </trkpt>
      <trkpt lat="43.09831" lon="-0.50652">
        <ele>847</ele>
      </trkpt>
      <trkpt lat="43.09821" lon="-0.50642">
        <ele>847</ele>
      </trkpt>
      <trkpt lat="43.09806" lon="-0.50604">
        <ele>843</ele>
      </trkpt>
      <trkpt lat="43.09807" lon="-0.50566">
        <ele>843</ele>
      </trkpt>
      <trkpt lat="43.09803" lon="-0.50526">
        <ele>840</ele>
      </trkpt>
      <trkpt lat="43.09788" lon="-0.50482">
        <ele>869</ele>
      </trkpt>
      <trkpt lat="43.09757" lon="-0.50424">
        <ele>861</ele>
      </trkpt>
      <trkpt lat="43.09751" lon="-0.50304">
        <ele>861</ele>
      </trkpt>
      <trkpt lat="43.09742" lon="-0.5023">
        <ele>861</ele>
      </trkpt>
      <trkpt lat="43.09726" lon="-0.50205">
        <ele>850</ele>
      </trkpt>
      <trkpt lat="43.09688" lon="-0.50177">
        <ele>884</ele>
      </trkpt>
      <trkpt lat="43.0964" lon="-0.50131">
        <ele>884</ele>
      </trkpt>
      <trkpt lat="43.09641" lon="-0.50107">
        <ele>876</ele>
      </trkpt>
      <trkpt lat="43.09661" lon="-0.50092">
        <ele>876</ele>
      </trkpt>
      <trkpt lat="43.09673" lon="-0.50064">
        <ele>876</ele>
      </trkpt>
      <trkpt lat="43.09657" lon="-0.50031">
        <ele>876</ele>
      </trkpt>
      <trkpt lat="43.09589" lon="-0.49966">
        <ele>904</ele>
      </trkpt>
      <trkpt lat="43.09549" lon="-0.49921">
        <ele>891</ele>
      </trkpt>
      <trkpt lat="43.0953" lon="-0.49908">
        <ele>906</ele>
      </trkpt>
      <trkpt lat="43.09482" lon="-0.49884">
        <ele>906</ele>
      </trkpt>
      <trkpt lat="43.09441" lon="-0.49859">
        <ele>915</ele>
      </trkpt>
      <trkpt lat="43.09409" lon="-0.49832">
        <ele>915</ele>
      </trkpt>
      <trkpt lat="43.09365" lon="-0.49735">
        <ele>937</ele>
      </trkpt>
      <trkpt lat="43.09317" lon="-0.49687">
        <ele>918</ele>
      </trkpt>
      <trkpt lat="43.09308" lon="-0.49659">
        <ele>918</ele>
      </trkpt>
      <trkpt lat="43.0927" lon="-0.49591">
        <ele>939</ele>
      </trkpt>
      <trkpt lat="43.09229" lon="-0.49534">
        <ele>922</ele>
      </trkpt>
      <trkpt lat="43.09207" lon="-0.49509">
        <ele>961</ele>
      </trkpt>
      <trkpt lat="43.09173" lon="-0.4945">
        <ele>947</ele>
      </trkpt>
      <trkpt lat="43.09172" lon="-0.49432">
        <ele>947</ele>
      </trkpt>
      <trkpt lat="43.09149" lon="-0.49358">
        <ele>945</ele>
      </trkpt>
      <trkpt lat="43.09148" lon="-0.49292">
        <ele>945</ele>
      </trkpt>
      <trkpt lat="43.0915" lon="-0.49251">
        <ele>940</ele>
      </trkpt>
      <trkpt lat="43.09135" lon="-0.49226">
        <ele>940</ele>
      </trkpt>
      <trkpt lat="43.09119" lon="-0.49225">
        <ele>961</ele>
      </trkpt>
      <trkpt lat="43.09088" lon="-0.49229">
        <ele>961</ele>
      </trkpt>
      <trkpt lat="43.09058" lon="-0.49241">
        <ele>961</ele>
      </trkpt>
      <trkpt lat="43.09031" lon="-0.49256">
        <ele>964</ele>
      </trkpt>
      <trkpt lat="43.09015" lon="-0.49276">
        <ele>964</ele>
      </trkpt>
      <trkpt lat="43.08993" lon="-0.49293">
        <ele>987</ele>
      </trkpt>
      <trkpt lat="43.08973" lon="-0.49289">
        <ele>964</ele>
      </trkpt>
      <trkpt lat="43.08967" lon="-0.49285">
        <ele>964</ele>
      </trkpt>
      <trkpt lat="43.08969" lon="-0.49248">
        <ele>964</ele>
      </trkpt>
      <trkpt lat="43.0898" lon="-0.49209">
        <ele>964</ele>
      </trkpt>
      <trkpt lat="43.08986" lon="-0.4917">
        <ele>967</ele>
      </trkpt>
      <trkpt lat="43.09008" lon="-0.49063">
        <ele>974</ele>
      </trkpt>
      <trkpt lat="43.08996" lon="-0.49024">
        <ele>964</ele>
      </trkpt>
      <trkpt lat="43.08973" lon="-0.48977">
        <ele>964</ele>
      </trkpt>
      <trkpt lat="43.08954" lon="-0.48915">
        <ele>1010</ele>
      </trkpt>
      <trkpt lat="43.08949" lon="-0.48878">
        <ele>1010</ele>
      </trkpt>
      <trkpt lat="43.08937" lon="-0.48835">
        <ele>998</ele>
      </trkpt>
      <trkpt lat="43.0893" lon="-0.48795">
        <ele>998</ele>
      </trkpt>
      <trkpt lat="43.08907" lon="-0.48754">
        <ele>985</ele>
      </trkpt>
      <trkpt lat="43.08888" lon="-0.48733">
        <ele>985</ele>
      </trkpt>
      <trkpt lat="43.08852" lon="-0.48726">
        <ele>1006</ele>
      </trkpt>
      <trkpt lat="43.08789" lon="-0.48727">
        <ele>1037</ele>
      </trkpt>
      <trkpt lat="43.08787" lon="-0.48725">
        <ele>1037</ele>
      </trkpt>
      <trkpt lat="43.08795" lon="-0.48698">
        <ele>997</ele>
      </trkpt>
      <trkpt lat="43.08831" lon="-0.48637">
        <ele>997</ele>
      </trkpt>
      <trkpt lat="43.08834" lon="-0.48605">
        <ele>1000</ele>
      </trkpt>
      <trkpt lat="43.08827" lon="-0.48573">
        <ele>1000</ele>
      </trkpt>
      <trkpt lat="43.08815" lon="-0.48539">
        <ele>997</ele>
      </trkpt>
      <trkpt lat="43.08791" lon="-0.48488">
        <ele>1040</ele>
      </trkpt>
      <trkpt lat="43.08776" lon="-0.48463">
        <ele>1040</ele>
      </trkpt>
      <trkpt lat="43.08748" lon="-0.48399">
        <ele>1028</ele>
      </trkpt>
      <trkpt lat="43.08737" lon="-0.4836">
        <ele>1020</ele>
      </trkpt>
      <trkpt lat="43.08725" lon="-0.48287">
        <ele>1011</ele>
      </trkpt>
      <trkpt lat="43.087" lon="-0.48248">
        <ele>1045</ele>
      </trkpt>
      <trkpt lat="43.08675" lon="-0.48235">
        <ele>1045</ele>
      </trkpt>
      <trkpt lat="43.08657" lon="-0.48208">
        <ele>1038</ele>
      </trkpt>
      <trkpt lat="43.08651" lon="-0.48182">
        <ele>1038</ele>
      </trkpt>
      <trkpt lat="43.0866" lon="-0.48175">
        <ele>1038</ele>
      </trkpt>
      <trkpt lat="43.08676" lon="-0.48153">
        <ele>1038</ele>
      </trkpt>
      <trkpt lat="43.08683" lon="-0.48113">
        <ele>1038</ele>
      </trkpt>
      <trkpt lat="43.08684" lon="-0.48076">
        <ele>1038</ele>
      </trkpt>
      <trkpt lat="43.08672" lon="-0.48048">
        <ele>1038</ele>
      </trkpt>
      <trkpt lat="43.08603" lon="-0.47961">
        <ele>1066</ele>
      </trkpt>
      <trkpt lat="43.0859" lon="-0.47939">
        <ele>1053</ele>
      </trkpt>
      <trkpt lat="43.0857" lon="-0.4789">
        <ele>1053</ele>
      </trkpt>
      <trkpt lat="43.0854" lon="-0.47836">
        <ele>1081</ele>
      </trkpt>
      <trkpt lat="43.08526" lon="-0.47793">
        <ele>1081</ele>
      </trkpt>
      <trkpt lat="43.0851" lon="-0.47722">
        <ele>1071</ele>
      </trkpt>
      <trkpt lat="43.08481" lon="-0.47615">
        <ele>1067</ele>
      </trkpt>
      <trkpt lat="43.08475" lon="-0.4758">
        <ele>1067</ele>
      </trkpt>
      <trkpt lat="43.08478" lon="-0.47552">
        <ele>1067</ele>
      </trkpt>
      <trkpt lat="43.08495" lon="-0.47473">
        <ele>1072</ele>
      </trkpt>
      <trkpt lat="43.08509" lon="-0.47433">
        <ele>1078</ele>
      </trkpt>
      <trkpt lat="43.08511" lon="-0.47437">
        <ele>1078</ele>
      </trkpt>
      <trkpt lat="43.08506" lon="-0.47443">
        <ele>1078</ele>
      </trkpt>
      <trkpt lat="43.08499" lon="-0.47434">
        <ele>1078</ele>
      </trkpt>
      <trkpt lat="43.08502" lon="-0.47444">
        <ele>1078</ele>
      </trkpt>
      <trkpt lat="43.08502" lon="-0.47435">
        <ele>1078</ele>
      </trkpt>
      <trkpt lat="43.08499" lon="-0.47436">
        <ele>1078</ele>
      </trkpt>
      <trkpt lat="43.08502" lon="-0.47442">
        <ele>1078</ele>
      </trkpt>
      <trkpt lat="43.08501" lon="-0.47437">
        <ele>1078</ele>
      </trkpt>
      <trkpt lat="43.08504" lon="-0.47445">
        <ele>1078</ele>
      </trkpt>
      <trkpt lat="43.08503" lon="-0.47449">
        <ele>1078</ele>
      </trkpt>
      <trkpt lat="43.08501" lon="-0.47436">
        <ele>1078</ele>
      </trkpt>
      <trkpt lat="43.08506" lon="-0.47438">
        <ele>1078</ele>
      </trkpt>
      <trkpt lat="43.08504" lon="-0.47443">
        <ele>1078</ele>
      </trkpt>
      <trkpt lat="43.085" lon="-0.47438">
        <ele>1078</ele>
      </trkpt>
      <trkpt lat="43.08504" lon="-0.47442">
        <ele>1078</ele>
      </trkpt>
      <trkpt lat="43.08502" lon="-0.47443">
        <ele>1078</ele>
      </trkpt>
      <trkpt lat="43.08496" lon="-0.47428">
        <ele>1078</ele>
      </trkpt>
      <trkpt lat="43.08498" lon="-0.47429">
        <ele>1078</ele>
      </trkpt>
      <trkpt lat="43.08492" lon="-0.47434">
        <ele>1078</ele>
      </trkpt>
      <trkpt lat="43.08468" lon="-0.47476">
        <ele>1072</ele>
      </trkpt>
      <trkpt lat="43.08464" lon="-0.47488">
        <ele>1072</ele>
      </trkpt>
      <trkpt lat="43.08459" lon="-0.47523">
        <ele>1072</ele>
      </trkpt>
      <trkpt lat="43.08446" lon="-0.47547">
        <ele>1106</ele>
      </trkpt>
      <trkpt lat="43.08438" lon="-0.47611">
        <ele>1106</ele>
      </trkpt>
      <trkpt lat="43.08431" lon="-0.47695">
        <ele>1107</ele>
      </trkpt>
      <trkpt lat="43.08428" lon="-0.47706">
        <ele>1107</ele>
      </trkpt>
      <trkpt lat="43.08425" lon="-0.47739">
        <ele>1116</ele>
      </trkpt>
      <trkpt lat="43.08425" lon="-0.47776">
        <ele>1116</ele>
      </trkpt>
      <trkpt lat="43.0844" lon="-0.4788">
        <ele>1140</ele>
      </trkpt>
      <trkpt lat="43.08459" lon="-0.47935">
        <ele>1095</ele>
      </trkpt>
      <trkpt lat="43.08458" lon="-0.47996">
        <ele>1131</ele>
      </trkpt>
      <trkpt lat="43.08453" lon="-0.48016">
        <ele>1131</ele>
      </trkpt>
      <trkpt lat="43.08393" lon="-0.48028">
        <ele>1131</ele>
      </trkpt>
      <trkpt lat="43.08369" lon="-0.48037">
        <ele>1158</ele>
      </trkpt>
      <trkpt lat="43.08336" lon="-0.48044">
        <ele>1151</ele>
      </trkpt>
      <trkpt lat="43.08322" lon="-0.48044">
        <ele>1151</ele>
      </trkpt>
      <trkpt lat="43.08303" lon="-0.48055">
        <ele>1151</ele>
      </trkpt>
      <trkpt lat="43.08306" lon="-0.48066">
        <ele>1151</ele>
      </trkpt>
      <trkpt lat="43.08382" lon="-0.4815">
        <ele>1140</ele>
      </trkpt>
      <trkpt lat="43.08397" lon="-0.4818">
        <ele>1140</ele>
      </trkpt>
      <trkpt lat="43.08413" lon="-0.48205">
        <ele>1140</ele>
      </trkpt>
      <trkpt lat="43.08429" lon="-0.48238">
        <ele>1161</ele>
      </trkpt>
      <trkpt lat="43.08435" lon="-0.48274">
        <ele>1161</ele>
      </trkpt>
      <trkpt lat="43.08438" lon="-0.48336">
        <ele>1168</ele>
      </trkpt>
      <trkpt lat="43.08454" lon="-0.48424">
        <ele>1163</ele>
      </trkpt>
      <trkpt lat="43.08446" lon="-0.48443">
        <ele>1163</ele>
      </trkpt>
      <trkpt lat="43.08421" lon="-0.48443">
        <ele>1163</ele>
      </trkpt>
      <trkpt lat="43.08388" lon="-0.48395">
        <ele>1163</ele>
      </trkpt>
      <trkpt lat="43.08366" lon="-0.4837">
        <ele>1166</ele>
      </trkpt>
      <trkpt lat="43.08334" lon="-0.48308">
        <ele>1166</ele>
      </trkpt>
      <trkpt lat="43.08278" lon="-0.48225">
        <ele>1173</ele>
      </trkpt>
      <trkpt lat="43.08248" lon="-0.48205">
        <ele>1177</ele>
      </trkpt>
      <trkpt lat="43.08166" lon="-0.48239">
        <ele>1184</ele>
      </trkpt>
      <trkpt lat="43.08147" lon="-0.48266">
        <ele>1184</ele>
      </trkpt>
      <trkpt lat="43.08137" lon="-0.48301">
        <ele>1181</ele>
      </trkpt>
      <trkpt lat="43.08136" lon="-0.48355">
        <ele>1181</ele>
      </trkpt>
      <trkpt lat="43.08126" lon="-0.48396">
        <ele>1180</ele>
      </trkpt>
      <trkpt lat="43.08127" lon="-0.4852">
        <ele>1178</ele>
      </trkpt>
      <trkpt lat="43.08124" lon="-0.4857">
        <ele>1213</ele>
      </trkpt>
      <trkpt lat="43.0811" lon="-0.48615">
        <ele>1213</ele>
      </trkpt>
      <trkpt lat="43.08057" lon="-0.48692">
        <ele>1203</ele>
      </trkpt>
      <trkpt lat="43.08041" lon="-0.48735">
        <ele>1209</ele>
      </trkpt>
      <trkpt lat="43.0802" lon="-0.48774">
        <ele>1209</ele>
      </trkpt>
      <trkpt lat="43.0798" lon="-0.48771">
        <ele>1209</ele>
      </trkpt>
      <trkpt lat="43.07953" lon="-0.48764">
        <ele>1211</ele>
      </trkpt>
      <trkpt lat="43.07937" lon="-0.4873">
        <ele>1211</ele>
      </trkpt>
      <trkpt lat="43.07927" lon="-0.48688">
        <ele>1222</ele>
      </trkpt>
      <trkpt lat="43.07891" lon="-0.48631">
        <ele>1222</ele>
      </trkpt>
      <trkpt lat="43.07869" lon="-0.48611">
        <ele>1238</ele>
      </trkpt>
      <trkpt lat="43.07841" lon="-0.48604">
        <ele>1238</ele>
      </trkpt>
      <trkpt lat="43.07783" lon="-0.48575">
        <ele>1239</ele>
      </trkpt>
      <trkpt lat="43.07793" lon="-0.48567">
        <ele>1238</ele>
      </trkpt>
      <trkpt lat="43.07822" lon="-0.48555">
        <ele>1238</ele>
      </trkpt>
      <trkpt lat="43.07885" lon="-0.48498">
        <ele>1252</ele>
      </trkpt>
      <trkpt lat="43.07921" lon="-0.48445">
        <ele>1262</ele>
      </trkpt>
      <trkpt lat="43.07934" lon="-0.48417">
        <ele>1262</ele>
      </trkpt>
      <trkpt lat="43.07936" lon="-0.48389">
        <ele>1262</ele>
      </trkpt>
      <trkpt lat="43.0791" lon="-0.48335">
        <ele>1263</ele>
      </trkpt>
      <trkpt lat="43.079" lon="-0.48321">
        <ele>1263</ele>
      </trkpt>
      <trkpt lat="43.07901" lon="-0.48317">
        <ele>1263</ele>
      </trkpt>
      <trkpt lat="43.07905" lon="-0.48316">
        <ele>1263</ele>
      </trkpt>
      <trkpt lat="43.07905" lon="-0.48318">
        <ele>1263</ele>
      </trkpt>
      <trkpt lat="43.07904" lon="-0.48315">
        <ele>1263</ele>
      </trkpt>
      <trkpt lat="43.07899" lon="-0.48316">
        <ele>1263</ele>
      </trkpt>
      <trkpt lat="43.07901" lon="-0.48321">
        <ele>1263</ele>
      </trkpt>
      <trkpt lat="43.07901" lon="-0.48293">
        <ele>1263</ele>
      </trkpt>
      <trkpt lat="43.07876" lon="-0.48212">
        <ele>1256</ele>
      </trkpt>
      <trkpt lat="43.07855" lon="-0.48182">
        <ele>1255</ele>
      </trkpt>
      <trkpt lat="43.07841" lon="-0.48174">
        <ele>1255</ele>
      </trkpt>
      <trkpt lat="43.07825" lon="-0.48154">
        <ele>1255</ele>
      </trkpt>
      <trkpt lat="43.07809" lon="-0.48127">
        <ele>1255</ele>
      </trkpt>
      <trkpt lat="43.07798" lon="-0.48125">
        <ele>1255</ele>
      </trkpt>
      <trkpt lat="43.07797" lon="-0.48128">
        <ele>1255</ele>
      </trkpt>
      <trkpt lat="43.07797" lon="-0.48106">
        <ele>1255</ele>
      </trkpt>
      <trkpt lat="43.07764" lon="-0.48084">
        <ele>1259</ele>
      </trkpt>
      <trkpt lat="43.07755" lon="-0.48091">
        <ele>1259</ele>
      </trkpt>
      <trkpt lat="43.07748" lon="-0.48108">
        <ele>1259</ele>
      </trkpt>
      <trkpt lat="43.0772" lon="-0.48078">
        <ele>1259</ele>
      </trkpt>
      <trkpt lat="43.0771" lon="-0.48056">
        <ele>1259</ele>
      </trkpt>
      <trkpt lat="43.07711" lon="-0.48048">
        <ele>1259</ele>
      </trkpt>
      <trkpt lat="43.07705" lon="-0.48042">
        <ele>1261</ele>
      </trkpt>
      <trkpt lat="43.07676" lon="-0.47983">
        <ele>1264</ele>
      </trkpt>
      <trkpt lat="43.07664" lon="-0.47969">
        <ele>1264</ele>
      </trkpt>
      <trkpt lat="43.07627" lon="-0.47941">
        <ele>1269</ele>
      </trkpt>
      <trkpt lat="43.07605" lon="-0.47931">
        <ele>1273</ele>
      </trkpt>
      <trkpt lat="43.07598" lon="-0.47923">
        <ele>1273</ele>
      </trkpt>
      <trkpt lat="43.07576" lon="-0.47917">
        <ele>1273</ele>
      </trkpt>
      <trkpt lat="43.07548" lon="-0.47895">
        <ele>1273</ele>
      </trkpt>
      <trkpt lat="43.0751" lon="-0.4788">
        <ele>1276</ele>
      </trkpt>
      <trkpt lat="43.07533" lon="-0.47853">
        <ele>1288</ele>
      </trkpt>
      <trkpt lat="43.0754" lon="-0.4784">
        <ele>1288</ele>
      </trkpt>
      <trkpt lat="43.07542" lon="-0.47831">
        <ele>1286</ele>
      </trkpt>
      <trkpt lat="43.07524" lon="-0.47818">
        <ele>1288</ele>
      </trkpt>
      <trkpt lat="43.07529" lon="-0.47829">
        <ele>1288</ele>
      </trkpt>
      <trkpt lat="43.07534" lon="-0.47817">
        <ele>1288</ele>
      </trkpt>
      <trkpt lat="43.07531" lon="-0.4781">
        <ele>1288</ele>
      </trkpt>
      <trkpt lat="43.07535" lon="-0.47799">
        <ele>1288</ele>
      </trkpt>
      <trkpt lat="43.07539" lon="-0.47797">
        <ele>1288</ele>
      </trkpt>
      <trkpt lat="43.07548" lon="-0.47811">
        <ele>1286</ele>
      </trkpt>
      <trkpt lat="43.07559" lon="-0.47822">
        <ele>1286</ele>
      </trkpt>
      <trkpt lat="43.0757" lon="-0.47844">
        <ele>1286</ele>
      </trkpt>
      <trkpt lat="43.07592" lon="-0.47864">
        <ele>1286</ele>
      </trkpt>
      <trkpt lat="43.07619" lon="-0.4787">
        <ele>1286</ele>
      </trkpt>
      <trkpt lat="43.07623" lon="-0.47864">
        <ele>1286</ele>
      </trkpt>
      <trkpt lat="43.07631" lon="-0.47862">
        <ele>1274</ele>
      </trkpt>
      <trkpt lat="43.07642" lon="-0.47852">
        <ele>1274</ele>
      </trkpt>
      <trkpt lat="43.0764" lon="-0.47822">
        <ele>1274</ele>
      </trkpt>
      <trkpt lat="43.07651" lon="-0.47799">
        <ele>1274</ele>
      </trkpt>
      <trkpt lat="43.07656" lon="-0.478">
        <ele>1274</ele>
      </trkpt>
      <trkpt lat="43.07659" lon="-0.47793">
        <ele>1274</ele>
      </trkpt>
      <trkpt lat="43.07673" lon="-0.47777">
        <ele>1286</ele>
      </trkpt>
      <trkpt lat="43.07679" lon="-0.47763">
        <ele>1286</ele>
      </trkpt>
      <trkpt lat="43.07688" lon="-0.47754">
        <ele>1286</ele>
      </trkpt>
      <trkpt lat="43.07711" lon="-0.47753">
        <ele>1275</ele>
      </trkpt>
      <trkpt lat="43.07721" lon="-0.47729">
        <ele>1275</ele>
      </trkpt>
      <trkpt lat="43.07719" lon="-0.47729">
        <ele>1275</ele>
      </trkpt>
      <trkpt lat="43.07722" lon="-0.47729">
        <ele>1275</ele>
      </trkpt>
      <trkpt lat="43.07753" lon="-0.47667">
        <ele>1288</ele>
      </trkpt>
      <trkpt lat="43.07754" lon="-0.47657">
        <ele>1288</ele>
      </trkpt>
      <trkpt lat="43.0777" lon="-0.47637">
        <ele>1288</ele>
      </trkpt>
      <trkpt lat="43.07771" lon="-0.47626">
        <ele>1288</ele>
      </trkpt>
      <trkpt lat="43.07759" lon="-0.47613">
        <ele>1291</ele>
      </trkpt>
      <trkpt lat="43.07757" lon="-0.47607">
        <ele>1291</ele>
      </trkpt>
      <trkpt lat="43.0775" lon="-0.476">
        <ele>1291</ele>
      </trkpt>
      <trkpt lat="43.07748" lon="-0.47579">
        <ele>1291</ele>
      </trkpt>
      <trkpt lat="43.07739" lon="-0.47583">
        <ele>1291</ele>
      </trkpt>
      <trkpt lat="43.0772" lon="-0.47604">
        <ele>1291</ele>
      </trkpt>
      <trkpt lat="43.07709" lon="-0.47611">
        <ele>1291</ele>
      </trkpt>
      <trkpt lat="43.07706" lon="-0.47608">
        <ele>1315</ele>
      </trkpt>
      <trkpt lat="43.07704" lon="-0.47583">
        <ele>1315</ele>
      </trkpt>
      <trkpt lat="43.07705" lon="-0.47529">
        <ele>1320</ele>
      </trkpt>
      <trkpt lat="43.07699" lon="-0.47492">
        <ele>1320</ele>
      </trkpt>
      <trkpt lat="43.07693" lon="-0.47426">
        <ele>1320</ele>
      </trkpt>
      <trkpt lat="43.07688" lon="-0.47403">
        <ele>1320</ele>
      </trkpt>
      <trkpt lat="43.0769" lon="-0.47373">
        <ele>1317</ele>
      </trkpt>
      <trkpt lat="43.07676" lon="-0.4735">
        <ele>1317</ele>
      </trkpt>
      <trkpt lat="43.0768" lon="-0.47338">
        <ele>1317</ele>
      </trkpt>
      <trkpt lat="43.07675" lon="-0.4733">
        <ele>1317</ele>
      </trkpt>
      <trkpt lat="43.07673" lon="-0.4732">
        <ele>1317</ele>
      </trkpt>
      <trkpt lat="43.07662" lon="-0.47304">
        <ele>1317</ele>
      </trkpt>
      <trkpt lat="43.07657" lon="-0.47283">
        <ele>1320</ele>
      </trkpt>
      <trkpt lat="43.07657" lon="-0.47274">
        <ele>1320</ele>
      </trkpt>
      <trkpt lat="43.07651" lon="-0.47266">
        <ele>1320</ele>
      </trkpt>
      <trkpt lat="43.07658" lon="-0.47199">
        <ele>1312</ele>
      </trkpt>
      <trkpt lat="43.07658" lon="-0.47177">
        <ele>1312</ele>
      </trkpt>
      <trkpt lat="43.07665" lon="-0.47127">
        <ele>1312</ele>
      </trkpt>
      <trkpt lat="43.07664" lon="-0.47123">
        <ele>1292</ele>
      </trkpt>
      <trkpt lat="43.07668" lon="-0.47119">
        <ele>1292</ele>
      </trkpt>
      <trkpt lat="43.07674" lon="-0.47082">
        <ele>1292</ele>
      </trkpt>
      <trkpt lat="43.0768" lon="-0.47071">
        <ele>1292</ele>
      </trkpt>
      <trkpt lat="43.07682" lon="-0.47031">
        <ele>1272</ele>
      </trkpt>
      <trkpt lat="43.0769" lon="-0.46973">
        <ele>1272</ele>
      </trkpt>
      <trkpt lat="43.07691" lon="-0.46867">
        <ele>1242</ele>
      </trkpt>
      <trkpt lat="43.07694" lon="-0.4684">
        <ele>1242</ele>
      </trkpt>
      <trkpt lat="43.07691" lon="-0.4683">
        <ele>1242</ele>
      </trkpt>
      <trkpt lat="43.0769" lon="-0.46789">
        <ele>1234</ele>
      </trkpt>
      <trkpt lat="43.07693" lon="-0.4678">
        <ele>1234</ele>
      </trkpt>
      <trkpt lat="43.07692" lon="-0.46693">
        <ele>1225</ele>
      </trkpt>
      <trkpt lat="43.07692" lon="-0.46695">
        <ele>1225</ele>
      </trkpt>
      <trkpt lat="43.07686" lon="-0.46657">
        <ele>1225</ele>
      </trkpt>
      <trkpt lat="43.07683" lon="-0.46602">
        <ele>1220</ele>
      </trkpt>
      <trkpt lat="43.07679" lon="-0.46581">
        <ele>1220</ele>
      </trkpt>
      <trkpt lat="43.07675" lon="-0.46534">
        <ele>1224</ele>
      </trkpt>
      <trkpt lat="43.07667" lon="-0.46497">
        <ele>1224</ele>
      </trkpt>
      <trkpt lat="43.07645" lon="-0.4647">
        <ele>1224</ele>
      </trkpt>
      <trkpt lat="43.07626" lon="-0.46455">
        <ele>1245</ele>
      </trkpt>
      <trkpt lat="43.07611" lon="-0.46436">
        <ele>1208</ele>
      </trkpt>
      <trkpt lat="43.07495" lon="-0.46332">
        <ele>1200</ele>
      </trkpt>
      <trkpt lat="43.07469" lon="-0.46305">
        <ele>1200</ele>
      </trkpt>
      <trkpt lat="43.07425" lon="-0.46266">
        <ele>1196</ele>
      </trkpt>
      <trkpt lat="43.07404" lon="-0.46228">
        <ele>1196</ele>
      </trkpt>
      <trkpt lat="43.07397" lon="-0.462">
        <ele>1200</ele>
      </trkpt>
      <trkpt lat="43.07365" lon="-0.46029">
        <ele>1167</ele>
      </trkpt>
      <trkpt lat="43.07362" lon="-0.46024">
        <ele>1167</ele>
      </trkpt>
      <trkpt lat="43.07362" lon="-0.46015">
        <ele>1167</ele>
      </trkpt>
      <trkpt lat="43.07367" lon="-0.46001">
        <ele>1167</ele>
      </trkpt>
      <trkpt lat="43.0737" lon="-0.45891">
        <ele>1156</ele>
      </trkpt>
      <trkpt lat="43.07368" lon="-0.45853">
        <ele>1144</ele>
      </trkpt>
      <trkpt lat="43.07369" lon="-0.45737">
        <ele>1132</ele>
      </trkpt>
      <trkpt lat="43.07367" lon="-0.45718">
        <ele>1132</ele>
      </trkpt>
      <trkpt lat="43.07364" lon="-0.45717">
        <ele>1132</ele>
      </trkpt>
      <trkpt lat="43.07364" lon="-0.45706">
        <ele>1124</ele>
      </trkpt>
      <trkpt lat="43.0736" lon="-0.45691">
        <ele>1124</ele>
      </trkpt>
      <trkpt lat="43.07351" lon="-0.45619">
        <ele>1122</ele>
      </trkpt>
      <trkpt lat="43.07325" lon="-0.45517">
        <ele>1126</ele>
      </trkpt>
      <trkpt lat="43.07317" lon="-0.45494">
        <ele>1126</ele>
      </trkpt>
      <trkpt lat="43.0731" lon="-0.4543">
        <ele>1129</ele>
      </trkpt>
      <trkpt lat="43.07304" lon="-0.45412">
        <ele>1129</ele>
      </trkpt>
      <trkpt lat="43.07271" lon="-0.45359">
        <ele>1104</ele>
      </trkpt>
      <trkpt lat="43.07254" lon="-0.45323">
        <ele>1104</ele>
      </trkpt>
      <trkpt lat="43.07235" lon="-0.45265">
        <ele>1113</ele>
      </trkpt>
      <trkpt lat="43.07227" lon="-0.45229">
        <ele>1113</ele>
      </trkpt>
      <trkpt lat="43.07215" lon="-0.45191">
        <ele>1117</ele>
      </trkpt>
      <trkpt lat="43.07208" lon="-0.45177">
        <ele>1074</ele>
      </trkpt>
      <trkpt lat="43.07201" lon="-0.45143">
        <ele>1074</ele>
      </trkpt>
      <trkpt lat="43.07196" lon="-0.45096">
        <ele>1070</ele>
      </trkpt>
      <trkpt lat="43.07197" lon="-0.45072">
        <ele>1070</ele>
      </trkpt>
      <trkpt lat="43.07195" lon="-0.45056">
        <ele>1070</ele>
      </trkpt>
      <trkpt lat="43.07197" lon="-0.45041">
        <ele>1070</ele>
      </trkpt>
      <trkpt lat="43.07193" lon="-0.45025">
        <ele>1070</ele>
      </trkpt>
      <trkpt lat="43.07178" lon="-0.45004">
        <ele>1070</ele>
      </trkpt>
      <trkpt lat="43.07158" lon="-0.44969">
        <ele>1070</ele>
      </trkpt>
      <trkpt lat="43.07149" lon="-0.4496">
        <ele>1070</ele>
      </trkpt>
      <trkpt lat="43.07137" lon="-0.44941">
        <ele>1081</ele>
      </trkpt>
      <trkpt lat="43.07068" lon="-0.44867">
        <ele>1049</ele>
      </trkpt>
      <trkpt lat="43.07051" lon="-0.44844">
        <ele>1049</ele>
      </trkpt>
      <trkpt lat="43.07046" lon="-0.44842">
        <ele>1049</ele>
      </trkpt>
      <trkpt lat="43.07008" lon="-0.44786">
        <ele>1017</ele>
      </trkpt>
      <trkpt lat="43.07" lon="-0.44763">
        <ele>1017</ele>
      </trkpt>
      <trkpt lat="43.06999" lon="-0.44747">
        <ele>1017</ele>
      </trkpt>
      <trkpt lat="43.06993" lon="-0.44733">
        <ele>1017</ele>
      </trkpt>
      <trkpt lat="43.06952" lon="-0.44678">
        <ele>999</ele>
      </trkpt>
      <trkpt lat="43.06938" lon="-0.4464">
        <ele>999</ele>
      </trkpt>
      <trkpt lat="43.06923" lon="-0.44625">
        <ele>976</ele>
      </trkpt>
      <trkpt lat="43.06912" lon="-0.44598">
        <ele>976</ele>
      </trkpt>
      <trkpt lat="43.06886" lon="-0.44573">
        <ele>976</ele>
      </trkpt>
      <trkpt lat="43.06878" lon="-0.44547">
        <ele>976</ele>
      </trkpt>
      <trkpt lat="43.06869" lon="-0.44533">
        <ele>959</ele>
      </trkpt>
      <trkpt lat="43.06843" lon="-0.44516">
        <ele>959</ele>
      </trkpt>
      <trkpt lat="43.06789" lon="-0.44534">
        <ele>952</ele>
      </trkpt>
      <trkpt lat="43.06773" lon="-0.44561">
        <ele>965</ele>
      </trkpt>
      <trkpt lat="43.06768" lon="-0.44585">
        <ele>965</ele>
      </trkpt>
      <trkpt lat="43.06765" lon="-0.44589">
        <ele>965</ele>
      </trkpt>
      <trkpt lat="43.06749" lon="-0.44588">
        <ele>965</ele>
      </trkpt>
      <trkpt lat="43.0674" lon="-0.44615">
        <ele>965</ele>
      </trkpt>
      <trkpt lat="43.06742" lon="-0.44632">
        <ele>971</ele>
      </trkpt>
      <trkpt lat="43.06732" lon="-0.44657">
        <ele>971</ele>
      </trkpt>
      <trkpt lat="43.06737" lon="-0.44683">
        <ele>971</ele>
      </trkpt>
      <trkpt lat="43.06744" lon="-0.44685">
        <ele>971</ele>
      </trkpt>
      <trkpt lat="43.06747" lon="-0.44697">
        <ele>971</ele>
      </trkpt>
      <trkpt lat="43.06748" lon="-0.44734">
        <ele>966</ele>
      </trkpt>
      <trkpt lat="43.06772" lon="-0.44886">
        <ele>948</ele>
      </trkpt>
      <trkpt lat="43.06776" lon="-0.44899">
        <ele>948</ele>
      </trkpt>
      <trkpt lat="43.06773" lon="-0.44921">
        <ele>948</ele>
      </trkpt>
      <trkpt lat="43.06787" lon="-0.45008">
        <ele>941</ele>
      </trkpt>
      <trkpt lat="43.06798" lon="-0.45039">
        <ele>965</ele>
      </trkpt>
      <trkpt lat="43.06822" lon="-0.45063">
        <ele>945</ele>
      </trkpt>
      <trkpt lat="43.0683" lon="-0.45067">
        <ele>945</ele>
      </trkpt>
      <trkpt lat="43.06833" lon="-0.45073">
        <ele>945</ele>
      </trkpt>
      <trkpt lat="43.06833" lon="-0.45079">
        <ele>945</ele>
      </trkpt>
      <trkpt lat="43.0681" lon="-0.45119">
        <ele>945</ele>
      </trkpt>
      <trkpt lat="43.0681" lon="-0.4514">
        <ele>954</ele>
      </trkpt>
      <trkpt lat="43.06808" lon="-0.45147">
        <ele>954</ele>
      </trkpt>
      <trkpt lat="43.06813" lon="-0.45154">
        <ele>954</ele>
      </trkpt>
      <trkpt lat="43.06808" lon="-0.45167">
        <ele>954</ele>
      </trkpt>
      <trkpt lat="43.06808" lon="-0.4518">
        <ele>954</ele>
      </trkpt>
      <trkpt lat="43.06796" lon="-0.45205">
        <ele>954</ele>
      </trkpt>
      <trkpt lat="43.06796" lon="-0.45222">
        <ele>968</ele>
      </trkpt>
      <trkpt lat="43.06793" lon="-0.45227">
        <ele>968</ele>
      </trkpt>
      <trkpt lat="43.06793" lon="-0.45236">
        <ele>968</ele>
      </trkpt>
      <trkpt lat="43.06789" lon="-0.45244">
        <ele>933</ele>
      </trkpt>
      <trkpt lat="43.06782" lon="-0.45291">
        <ele>933</ele>
      </trkpt>
      <trkpt lat="43.06786" lon="-0.45315">
        <ele>943</ele>
      </trkpt>
      <trkpt lat="43.06785" lon="-0.45328">
        <ele>943</ele>
      </trkpt>
      <trkpt lat="43.06787" lon="-0.4533">
        <ele>943</ele>
      </trkpt>
      <trkpt lat="43.06791" lon="-0.45358">
        <ele>943</ele>
      </trkpt>
      <trkpt lat="43.06796" lon="-0.45366">
        <ele>973</ele>
      </trkpt>
      <trkpt lat="43.06796" lon="-0.45378">
        <ele>962</ele>
      </trkpt>
      <trkpt lat="43.06792" lon="-0.45398">
        <ele>962</ele>
      </trkpt>
      <trkpt lat="43.068" lon="-0.4541">
        <ele>962</ele>
      </trkpt>
      <trkpt lat="43.06803" lon="-0.45432">
        <ele>962</ele>
      </trkpt>
      <trkpt lat="43.06809" lon="-0.45443">
        <ele>962</ele>
      </trkpt>
      <trkpt lat="43.06809" lon="-0.45448">
        <ele>962</ele>
      </trkpt>
      <trkpt lat="43.06818" lon="-0.45471">
        <ele>937</ele>
      </trkpt>
      <trkpt lat="43.0683" lon="-0.45486">
        <ele>937</ele>
      </trkpt>
      <trkpt lat="43.06847" lon="-0.45525">
        <ele>937</ele>
      </trkpt>
      <trkpt lat="43.06855" lon="-0.45525">
        <ele>937</ele>
      </trkpt>
      <trkpt lat="43.06853" lon="-0.45555">
        <ele>918</ele>
      </trkpt>
      <trkpt lat="43.06855" lon="-0.45597">
        <ele>918</ele>
      </trkpt>
      <trkpt lat="43.06871" lon="-0.45636">
        <ele>918</ele>
      </trkpt>
      <trkpt lat="43.06867" lon="-0.45684">
        <ele>918</ele>
      </trkpt>
      <trkpt lat="43.06867" lon="-0.45732">
        <ele>920</ele>
      </trkpt>
      <trkpt lat="43.06858" lon="-0.45805">
        <ele>921</ele>
      </trkpt>
      <trkpt lat="43.06847" lon="-0.45848">
        <ele>921</ele>
      </trkpt>
      <trkpt lat="43.06845" lon="-0.4587">
        <ele>921</ele>
      </trkpt>
      <trkpt lat="43.06823" lon="-0.45917">
        <ele>926</ele>
      </trkpt>
      <trkpt lat="43.06819" lon="-0.45931">
        <ele>926</ele>
      </trkpt>
      <trkpt lat="43.06804" lon="-0.45957">
        <ele>926</ele>
      </trkpt>
      <trkpt lat="43.068" lon="-0.45982">
        <ele>931</ele>
      </trkpt>
      <trkpt lat="43.06793" lon="-0.46004">
        <ele>931</ele>
      </trkpt>
      <trkpt lat="43.06792" lon="-0.4604">
        <ele>931</ele>
      </trkpt>
      <trkpt lat="43.06794" lon="-0.46048">
        <ele>930</ele>
      </trkpt>
      <trkpt lat="43.06789" lon="-0.46127">
        <ele>913</ele>
      </trkpt>
      <trkpt lat="43.06749" lon="-0.46206">
        <ele>913</ele>
      </trkpt>
      <trkpt lat="43.06739" lon="-0.46244">
        <ele>917</ele>
      </trkpt>
      <trkpt lat="43.0674" lon="-0.46247">
        <ele>917</ele>
      </trkpt>
      <trkpt lat="43.06736" lon="-0.46263">
        <ele>917</ele>
      </trkpt>
      <trkpt lat="43.06735" lon="-0.4631">
        <ele>914</ele>
      </trkpt>
      <trkpt lat="43.06737" lon="-0.46316">
        <ele>914</ele>
      </trkpt>
      <trkpt lat="43.06736" lon="-0.46323">
        <ele>914</ele>
      </trkpt>
      <trkpt lat="43.06741" lon="-0.46356">
        <ele>914</ele>
      </trkpt>
      <trkpt lat="43.06741" lon="-0.46395">
        <ele>903</ele>
      </trkpt>
      <trkpt lat="43.06734" lon="-0.46401">
        <ele>903</ele>
      </trkpt>
      <trkpt lat="43.06716" lon="-0.46401">
        <ele>903</ele>
      </trkpt>
      <trkpt lat="43.06696" lon="-0.46408">
        <ele>895</ele>
      </trkpt>
      <trkpt lat="43.0669" lon="-0.46414">
        <ele>895</ele>
      </trkpt>
      <trkpt lat="43.06691" lon="-0.4642">
        <ele>895</ele>
      </trkpt>
      <trkpt lat="43.06676" lon="-0.46438">
        <ele>895</ele>
      </trkpt>
      <trkpt lat="43.06671" lon="-0.46479">
        <ele>894</ele>
      </trkpt>
      <trkpt lat="43.06679" lon="-0.46524">
        <ele>894</ele>
      </trkpt>
      <trkpt lat="43.06683" lon="-0.46535">
        <ele>894</ele>
      </trkpt>
      <trkpt lat="43.06682" lon="-0.46546">
        <ele>893</ele>
      </trkpt>
      <trkpt lat="43.06661" lon="-0.46537">
        <ele>894</ele>
      </trkpt>
      <trkpt lat="43.06639" lon="-0.46518">
        <ele>894</ele>
      </trkpt>
      <trkpt lat="43.06629" lon="-0.46516">
        <ele>894</ele>
      </trkpt>
      <trkpt lat="43.0662" lon="-0.46523">
        <ele>885</ele>
      </trkpt>
      <trkpt lat="43.0659" lon="-0.46572">
        <ele>886</ele>
      </trkpt>
      <trkpt lat="43.06584" lon="-0.46586">
        <ele>886</ele>
      </trkpt>
      <trkpt lat="43.0655" lon="-0.46698">
        <ele>886</ele>
      </trkpt>
      <trkpt lat="43.06547" lon="-0.46702">
        <ele>886</ele>
      </trkpt>
      <trkpt lat="43.06532" lon="-0.46692">
        <ele>882</ele>
      </trkpt>
      <trkpt lat="43.0653" lon="-0.46569">
        <ele>883</ele>
      </trkpt>
      <trkpt lat="43.06513" lon="-0.46496">
        <ele>881</ele>
      </trkpt>
      <trkpt lat="43.06495" lon="-0.4649">
        <ele>881</ele>
      </trkpt>
      <trkpt lat="43.06467" lon="-0.46487">
        <ele>881</ele>
      </trkpt>
      <trkpt lat="43.06431" lon="-0.46496">
        <ele>876</ele>
      </trkpt>
      <trkpt lat="43.06396" lon="-0.46515">
        <ele>876</ele>
      </trkpt>
      <trkpt lat="43.06361" lon="-0.46524">
        <ele>872</ele>
      </trkpt>
      <trkpt lat="43.06289" lon="-0.46553">
        <ele>883</ele>
      </trkpt>
      <trkpt lat="43.06249" lon="-0.46583">
        <ele>883</ele>
      </trkpt>
      <trkpt lat="43.06208" lon="-0.466">
        <ele>885</ele>
      </trkpt>
      <trkpt lat="43.06168" lon="-0.46609">
        <ele>885</ele>
      </trkpt>
      <trkpt lat="43.06124" lon="-0.46593">
        <ele>899</ele>
      </trkpt>
      <trkpt lat="43.06082" lon="-0.46566">
        <ele>899</ele>
      </trkpt>
      <trkpt lat="43.06052" lon="-0.46557">
        <ele>899</ele>
      </trkpt>
      <trkpt lat="43.0602" lon="-0.46555">
        <ele>898</ele>
      </trkpt>
      <trkpt lat="43.05992" lon="-0.46542">
        <ele>898</ele>
      </trkpt>
      <trkpt lat="43.05962" lon="-0.46519">
        <ele>881</ele>
      </trkpt>
      <trkpt lat="43.05947" lon="-0.465">
        <ele>888</ele>
      </trkpt>
      <trkpt lat="43.05873" lon="-0.46347">
        <ele>879</ele>
      </trkpt>
      <trkpt lat="43.05862" lon="-0.46316">
        <ele>879</ele>
      </trkpt>
      <trkpt lat="43.05876" lon="-0.46292">
        <ele>865</ele>
      </trkpt>
      <trkpt lat="43.05882" lon="-0.46241">
        <ele>864</ele>
      </trkpt>
      <trkpt lat="43.05889" lon="-0.46208">
        <ele>864</ele>
      </trkpt>
      <trkpt lat="43.05892" lon="-0.4618">
        <ele>864</ele>
      </trkpt>
      <trkpt lat="43.05892" lon="-0.46153">
        <ele>864</ele>
      </trkpt>
      <trkpt lat="43.05885" lon="-0.46123">
        <ele>860</ele>
      </trkpt>
      <trkpt lat="43.05887" lon="-0.46021">
        <ele>853</ele>
      </trkpt>
      <trkpt lat="43.05882" lon="-0.46011">
        <ele>853</ele>
      </trkpt>
      <trkpt lat="43.05874" lon="-0.46009">
        <ele>860</ele>
      </trkpt>
      <trkpt lat="43.05863" lon="-0.46015">
        <ele>860</ele>
      </trkpt>
      <trkpt lat="43.05821" lon="-0.46028">
        <ele>860</ele>
      </trkpt>
      <trkpt lat="43.05792" lon="-0.46041">
        <ele>860</ele>
      </trkpt>
      <trkpt lat="43.05764" lon="-0.46049">
        <ele>861</ele>
      </trkpt>
      <trkpt lat="43.05715" lon="-0.46048">
        <ele>861</ele>
      </trkpt>
      <trkpt lat="43.05647" lon="-0.46064">
        <ele>863</ele>
      </trkpt>
      <trkpt lat="43.05635" lon="-0.46078">
        <ele>863</ele>
      </trkpt>
      <trkpt lat="43.05636" lon="-0.46144">
        <ele>861</ele>
      </trkpt>
      <trkpt lat="43.05622" lon="-0.46179">
        <ele>865</ele>
      </trkpt>
      <trkpt lat="43.05599" lon="-0.46174">
        <ele>865</ele>
      </trkpt>
      <trkpt lat="43.05562" lon="-0.46142">
        <ele>865</ele>
      </trkpt>
      <trkpt lat="43.05478" lon="-0.46077">
        <ele>868</ele>
      </trkpt>
      <trkpt lat="43.05421" lon="-0.46015">
        <ele>876</ele>
      </trkpt>
      <trkpt lat="43.05298" lon="-0.45971">
        <ele>880</ele>
      </trkpt>
      <trkpt lat="43.05263" lon="-0.45967">
        <ele>888</ele>
      </trkpt>
      <trkpt lat="43.05235" lon="-0.45957">
        <ele>881</ele>
      </trkpt>
      <trkpt lat="43.05208" lon="-0.45938">
        <ele>895</ele>
      </trkpt>
      <trkpt lat="43.05166" lon="-0.45894">
        <ele>895</ele>
      </trkpt>
      <trkpt lat="43.05138" lon="-0.45896">
        <ele>895</ele>
      </trkpt>
      <trkpt lat="43.05108" lon="-0.45919">
        <ele>889</ele>
      </trkpt>
      <trkpt lat="43.05096" lon="-0.45936">
        <ele>889</ele>
      </trkpt>
      <trkpt lat="43.04989" lon="-0.46038">
        <ele>897</ele>
      </trkpt>
      <trkpt lat="43.04957" lon="-0.46074">
        <ele>887</ele>
      </trkpt>
      <trkpt lat="43.04935" lon="-0.46115">
        <ele>887</ele>
      </trkpt>
      <trkpt lat="43.04924" lon="-0.46121">
        <ele>887</ele>
      </trkpt>
      <trkpt lat="43.04904" lon="-0.46122">
        <ele>887</ele>
      </trkpt>
      <trkpt lat="43.04871" lon="-0.46129">
        <ele>884</ele>
      </trkpt>
      <trkpt lat="43.04868" lon="-0.46126">
        <ele>884</ele>
      </trkpt>
      <trkpt lat="43.0487" lon="-0.46126">
        <ele>884</ele>
      </trkpt>
      <trkpt lat="43.04868" lon="-0.46123">
        <ele>877</ele>
      </trkpt>
      <trkpt lat="43.04864" lon="-0.46124">
        <ele>877</ele>
      </trkpt>
      <trkpt lat="43.04864" lon="-0.46121">
        <ele>877</ele>
      </trkpt>
      <trkpt lat="43.04845" lon="-0.46115">
        <ele>877</ele>
      </trkpt>
      <trkpt lat="43.04812" lon="-0.46125">
        <ele>877</ele>
      </trkpt>
      <trkpt lat="43.04802" lon="-0.46123">
        <ele>877</ele>
      </trkpt>
      <trkpt lat="43.04848" lon="-0.4604">
        <ele>854</ele>
      </trkpt>
      <trkpt lat="43.04851" lon="-0.46029">
        <ele>854</ele>
      </trkpt>
      <trkpt lat="43.04865" lon="-0.46023">
        <ele>854</ele>
      </trkpt>
      <trkpt lat="43.04878" lon="-0.46025">
        <ele>877</ele>
      </trkpt>
      <trkpt lat="43.049" lon="-0.46011">
        <ele>877</ele>
      </trkpt>
      <trkpt lat="43.04911" lon="-0.45983">
        <ele>877</ele>
      </trkpt>
      <trkpt lat="43.04913" lon="-0.45955">
        <ele>847</ele>
      </trkpt>
      <trkpt lat="43.04989" lon="-0.45802">
        <ele>823</ele>
      </trkpt>
      <trkpt lat="43.05013" lon="-0.45778">
        <ele>785</ele>
      </trkpt>
      <trkpt lat="43.05022" lon="-0.45756">
        <ele>785</ele>
      </trkpt>
      <trkpt lat="43.05026" lon="-0.45752">
        <ele>785</ele>
      </trkpt>
      <trkpt lat="43.0503" lon="-0.45717">
        <ele>785</ele>
      </trkpt>
      <trkpt lat="43.05028" lon="-0.45712">
        <ele>785</ele>
      </trkpt>
      <trkpt lat="43.05018" lon="-0.45722">
        <ele>785</ele>
      </trkpt>
      <trkpt lat="43.04997" lon="-0.45723">
        <ele>785</ele>
      </trkpt>
      <trkpt lat="43.05006" lon="-0.45721">
        <ele>785</ele>
      </trkpt>
      <trkpt lat="43.0503" lon="-0.45681">
        <ele>747</ele>
      </trkpt>
      <trkpt lat="43.05073" lon="-0.45637">
        <ele>772</ele>
      </trkpt>
      <trkpt lat="43.05095" lon="-0.45631">
        <ele>772</ele>
      </trkpt>
      <trkpt lat="43.05104" lon="-0.45624">
        <ele>733</ele>
      </trkpt>
      <trkpt lat="43.0512" lon="-0.45597">
        <ele>733</ele>
      </trkpt>
      <trkpt lat="43.05138" lon="-0.45557">
        <ele>755</ele>
      </trkpt>
      <trkpt lat="43.05175" lon="-0.45536">
        <ele>716</ele>
      </trkpt>
      <trkpt lat="43.05185" lon="-0.45527">
        <ele>716</ele>
      </trkpt>
      <trkpt lat="43.05216" lon="-0.45509">
        <ele>732</ele>
      </trkpt>
      <trkpt lat="43.05247" lon="-0.45507">
        <ele>732</ele>
      </trkpt>
      <trkpt lat="43.05273" lon="-0.45496">
        <ele>732</ele>
      </trkpt>
      <trkpt lat="43.05298" lon="-0.45472">
        <ele>738</ele>
      </trkpt>
      <trkpt lat="43.05311" lon="-0.45466">
        <ele>738</ele>
      </trkpt>
      <trkpt lat="43.05345" lon="-0.45461">
        <ele>738</ele>
      </trkpt>
      <trkpt lat="43.05354" lon="-0.45457">
        <ele>716</ele>
      </trkpt>
      <trkpt lat="43.05382" lon="-0.45428">
        <ele>724</ele>
      </trkpt>
      <trkpt lat="43.05434" lon="-0.45391">
        <ele>724</ele>
      </trkpt>
      <trkpt lat="43.05491" lon="-0.45355">
        <ele>715</ele>
      </trkpt>
      <trkpt lat="43.05551" lon="-0.45295">
        <ele>720</ele>
      </trkpt>
      <trkpt lat="43.05562" lon="-0.45267">
        <ele>716</ele>
      </trkpt>
      <trkpt lat="43.05571" lon="-0.45201">
        <ele>714</ele>
      </trkpt>
      <trkpt lat="43.05601" lon="-0.45169">
        <ele>714</ele>
      </trkpt>
      <trkpt lat="43.05668" lon="-0.45138">
        <ele>712</ele>
      </trkpt>
      <trkpt lat="43.05673" lon="-0.45129">
        <ele>712</ele>
      </trkpt>
      <trkpt lat="43.05673" lon="-0.45113">
        <ele>702</ele>
      </trkpt>
      <trkpt lat="43.05659" lon="-0.45054">
        <ele>702</ele>
      </trkpt>
      <trkpt lat="43.0567" lon="-0.44968">
        <ele>697</ele>
      </trkpt>
      <trkpt lat="43.05672" lon="-0.44968">
        <ele>697</ele>
      </trkpt>
      <trkpt lat="43.05667" lon="-0.44966">
        <ele>697</ele>
      </trkpt>
      <trkpt lat="43.05668" lon="-0.44969">
        <ele>697</ele>
      </trkpt>
      <trkpt lat="43.05682" lon="-0.44961">
        <ele>697</ele>
      </trkpt>
      <trkpt lat="43.05723" lon="-0.44956">
        <ele>684</ele>
      </trkpt>
      <trkpt lat="43.05742" lon="-0.44969">
        <ele>704</ele>
      </trkpt>
      <trkpt lat="43.05762" lon="-0.44971">
        <ele>704</ele>
      </trkpt>
      <trkpt lat="43.05798" lon="-0.4496">
        <ele>691</ele>
      </trkpt>
      <trkpt lat="43.0585" lon="-0.44912">
        <ele>676</ele>
      </trkpt>
      <trkpt lat="43.05857" lon="-0.44888">
        <ele>676</ele>
      </trkpt>
      <trkpt lat="43.05868" lon="-0.4487">
        <ele>663</ele>
      </trkpt>
      <trkpt lat="43.05897" lon="-0.44875">
        <ele>661</ele>
      </trkpt>
      <trkpt lat="43.05906" lon="-0.44871">
        <ele>661</ele>
      </trkpt>
      <trkpt lat="43.05918" lon="-0.44823">
        <ele>661</ele>
      </trkpt>
      <trkpt lat="43.05925" lon="-0.44817">
        <ele>661</ele>
      </trkpt>
      <trkpt lat="43.0601" lon="-0.44804">
        <ele>660</ele>
      </trkpt>
      <trkpt lat="43.06038" lon="-0.44836">
        <ele>660</ele>
      </trkpt>
      <trkpt lat="43.06046" lon="-0.44837">
        <ele>664</ele>
      </trkpt>
      <trkpt lat="43.06049" lon="-0.44832">
        <ele>664</ele>
      </trkpt>
      <trkpt lat="43.0605" lon="-0.44809">
        <ele>664</ele>
      </trkpt>
      <trkpt lat="43.0606" lon="-0.44784">
        <ele>655</ele>
      </trkpt>
      <trkpt lat="43.06072" lon="-0.44769">
        <ele>655</ele>
      </trkpt>
      <trkpt lat="43.06107" lon="-0.44744">
        <ele>655</ele>
      </trkpt>
      <trkpt lat="43.06113" lon="-0.44734">
        <ele>655</ele>
      </trkpt>
      <trkpt lat="43.06134" lon="-0.44677">
        <ele>663</ele>
      </trkpt>
      <trkpt lat="43.06133" lon="-0.44672">
        <ele>663</ele>
      </trkpt>
      <trkpt lat="43.06127" lon="-0.44665">
        <ele>663</ele>
      </trkpt>
      <trkpt lat="43.06124" lon="-0.44643">
        <ele>644</ele>
      </trkpt>
      <trkpt lat="43.06132" lon="-0.44607">
        <ele>657</ele>
      </trkpt>
      <trkpt lat="43.06132" lon="-0.44597">
        <ele>657</ele>
      </trkpt>
      <trkpt lat="43.06127" lon="-0.4458">
        <ele>657</ele>
      </trkpt>
      <trkpt lat="43.06112" lon="-0.4456">
        <ele>634</ele>
      </trkpt>
      <trkpt lat="43.06109" lon="-0.44542">
        <ele>634</ele>
      </trkpt>
      <trkpt lat="43.06117" lon="-0.44466">
        <ele>629</ele>
      </trkpt>
      <trkpt lat="43.06116" lon="-0.44457">
        <ele>621</ele>
      </trkpt>
      <trkpt lat="43.06111" lon="-0.44446">
        <ele>621</ele>
      </trkpt>
      <trkpt lat="43.06102" lon="-0.44445">
        <ele>621</ele>
      </trkpt>
      <trkpt lat="43.06098" lon="-0.44449">
        <ele>621</ele>
      </trkpt>
      <trkpt lat="43.06076" lon="-0.445">
        <ele>629</ele>
      </trkpt>
      <trkpt lat="43.06066" lon="-0.44506">
        <ele>629</ele>
      </trkpt>
      <trkpt lat="43.06061" lon="-0.44503">
        <ele>629</ele>
      </trkpt>
      <trkpt lat="43.06056" lon="-0.44489">
        <ele>629</ele>
      </trkpt>
      <trkpt lat="43.0606" lon="-0.4446">
        <ele>629</ele>
      </trkpt>
      <trkpt lat="43.06058" lon="-0.44344">
        <ele>613</ele>
      </trkpt>
      <trkpt lat="43.06046" lon="-0.44294">
        <ele>613</ele>
      </trkpt>
      <trkpt lat="43.06045" lon="-0.44277">
        <ele>609</ele>
      </trkpt>
      <trkpt lat="43.06051" lon="-0.44222">
        <ele>609</ele>
      </trkpt>
      <trkpt lat="43.06053" lon="-0.44126">
        <ele>599</ele>
      </trkpt>
      <trkpt lat="43.06037" lon="-0.44026">
        <ele>566</ele>
      </trkpt>
      <trkpt lat="43.06037" lon="-0.43984">
        <ele>566</ele>
      </trkpt>
      <trkpt lat="43.06043" lon="-0.43946">
        <ele>580</ele>
      </trkpt>
      <trkpt lat="43.06048" lon="-0.4393">
        <ele>580</ele>
      </trkpt>
      <trkpt lat="43.06065" lon="-0.43904">
        <ele>580</ele>
      </trkpt>
      <trkpt lat="43.06165" lon="-0.43793">
        <ele>577</ele>
      </trkpt>
      <trkpt lat="43.0619" lon="-0.43759">
        <ele>560</ele>
      </trkpt>
      <trkpt lat="43.06208" lon="-0.43741">
        <ele>560</ele>
      </trkpt>
      <trkpt lat="43.06269" lon="-0.43627">
        <ele>563</ele>
      </trkpt>
      <trkpt lat="43.06284" lon="-0.43614">
        <ele>542</ele>
      </trkpt>
      <trkpt lat="43.06345" lon="-0.43577">
        <ele>565</ele>
      </trkpt>
      <trkpt lat="43.06352" lon="-0.4357">
        <ele>565</ele>
      </trkpt>
      <trkpt lat="43.06346" lon="-0.43558">
        <ele>565</ele>
      </trkpt>
      <trkpt lat="43.06324" lon="-0.43544">
        <ele>565</ele>
      </trkpt>
      <trkpt lat="43.0632" lon="-0.43538">
        <ele>554</ele>
      </trkpt>
      <trkpt lat="43.06319" lon="-0.43526">
        <ele>554</ele>
      </trkpt>
      <trkpt lat="43.06322" lon="-0.43512">
        <ele>554</ele>
      </trkpt>
      <trkpt lat="43.06323" lon="-0.43515">
        <ele>554</ele>
      </trkpt>
      <trkpt lat="43.06322" lon="-0.43509">
        <ele>554</ele>
      </trkpt>
      <trkpt lat="43.06327" lon="-0.43501">
        <ele>554</ele>
      </trkpt>
      <trkpt lat="43.06348" lon="-0.4344">
        <ele>545</ele>
      </trkpt>
      <trkpt lat="43.06371" lon="-0.43407">
        <ele>545</ele>
      </trkpt>
      <trkpt lat="43.0638" lon="-0.43388">
        <ele>570</ele>
      </trkpt>
      <trkpt lat="43.064" lon="-0.43302">
        <ele>555</ele>
      </trkpt>
      <trkpt lat="43.06402" lon="-0.43252">
        <ele>539</ele>
      </trkpt>
      <trkpt lat="43.06408" lon="-0.43236">
        <ele>539</ele>
      </trkpt>
      <trkpt lat="43.06428" lon="-0.43219">
        <ele>539</ele>
      </trkpt>
      <trkpt lat="43.06457" lon="-0.43174">
        <ele>525</ele>
      </trkpt>
      <trkpt lat="43.06488" lon="-0.43143">
        <ele>548</ele>
      </trkpt>
      <trkpt lat="43.06538" lon="-0.43084">
        <ele>525</ele>
      </trkpt>
      <trkpt lat="43.06577" lon="-0.43016">
        <ele>525</ele>
      </trkpt>
      <trkpt lat="43.06581" lon="-0.43005">
        <ele>525</ele>
      </trkpt>
      <trkpt lat="43.06576" lon="-0.42999">
        <ele>525</ele>
      </trkpt>
      <trkpt lat="43.06571" lon="-0.42999">
        <ele>525</ele>
      </trkpt>
      <trkpt lat="43.06525" lon="-0.4304">
        <ele>506</ele>
      </trkpt>
      <trkpt lat="43.06512" lon="-0.43046">
        <ele>525</ele>
      </trkpt>
      <trkpt lat="43.06502" lon="-0.43043">
        <ele>525</ele>
      </trkpt>
      <trkpt lat="43.06497" lon="-0.43032">
        <ele>506</ele>
      </trkpt>
      <trkpt lat="43.06499" lon="-0.43023">
        <ele>506</ele>
      </trkpt>
      <trkpt lat="43.06507" lon="-0.43026">
        <ele>506</ele>
      </trkpt>
      <trkpt lat="43.0652" lon="-0.43007">
        <ele>506</ele>
      </trkpt>
      <trkpt lat="43.0658" lon="-0.42935">
        <ele>502</ele>
      </trkpt>
      <trkpt lat="43.0662" lon="-0.42868">
        <ele>487</ele>
      </trkpt>
      <trkpt lat="43.06614" lon="-0.42828">
        <ele>487</ele>
      </trkpt>
      <trkpt lat="43.06618" lon="-0.42806">
        <ele>487</ele>
      </trkpt>
      <trkpt lat="43.06639" lon="-0.4273">
        <ele>492</ele>
      </trkpt>
      <trkpt lat="43.06648" lon="-0.42711">
        <ele>492</ele>
      </trkpt>
      <trkpt lat="43.06677" lon="-0.42676">
        <ele>481</ele>
      </trkpt>
      <trkpt lat="43.06694" lon="-0.42646">
        <ele>481</ele>
      </trkpt>
      <trkpt lat="43.06728" lon="-0.42616">
        <ele>474</ele>
      </trkpt>
      <trkpt lat="43.06742" lon="-0.4259">
        <ele>474</ele>
      </trkpt>
      <trkpt lat="43.06789" lon="-0.42482">
        <ele>456</ele>
      </trkpt>
      <trkpt lat="43.06799" lon="-0.42475">
        <ele>473</ele>
      </trkpt>
      <trkpt lat="43.06811" lon="-0.42474">
        <ele>473</ele>
      </trkpt>
      <trkpt lat="43.06827" lon="-0.42478">
        <ele>473</ele>
      </trkpt>
      <trkpt lat="43.06844" lon="-0.42467">
        <ele>473</ele>
      </trkpt>
      <trkpt lat="43.06847" lon="-0.42461">
        <ele>473</ele>
      </trkpt>
      <trkpt lat="43.06844" lon="-0.42449">
        <ele>451</ele>
      </trkpt>
      <trkpt lat="43.0684" lon="-0.42445">
        <ele>451</ele>
      </trkpt>
      <trkpt lat="43.06824" lon="-0.42443">
        <ele>451</ele>
      </trkpt>
      <trkpt lat="43.06818" lon="-0.42436">
        <ele>451</ele>
      </trkpt>
      <trkpt lat="43.06819" lon="-0.42424">
        <ele>451</ele>
      </trkpt>
      <trkpt lat="43.06825" lon="-0.42414">
        <ele>451</ele>
      </trkpt>
      <trkpt lat="43.06874" lon="-0.42393">
        <ele>451</ele>
      </trkpt>
      <trkpt lat="43.06879" lon="-0.42388">
        <ele>450</ele>
      </trkpt>
      <trkpt lat="43.06944" lon="-0.42377">
        <ele>450</ele>
      </trkpt>
      <trkpt lat="43.07015" lon="-0.42351">
        <ele>437</ele>
      </trkpt>
      <trkpt lat="43.07106" lon="-0.42285">
        <ele>435</ele>
      </trkpt>
      <trkpt lat="43.07113" lon="-0.42266">
        <ele>435</ele>
      </trkpt>
      <trkpt lat="43.07184" lon="-0.42207">
        <ele>434</ele>
      </trkpt>
      <trkpt lat="43.07264" lon="-0.42148">
        <ele>432</ele>
      </trkpt>
      <trkpt lat="43.07348" lon="-0.42124">
        <ele>432</ele>
      </trkpt>
      <trkpt lat="43.07429" lon="-0.42132">
        <ele>443</ele>
      </trkpt>
      <trkpt lat="43.07591" lon="-0.42166">
        <ele>436</ele>
      </trkpt>
      <trkpt lat="43.0767" lon="-0.42171">
        <ele>433</ele>
      </trkpt>
      <trkpt lat="43.07965" lon="-0.4214">
        <ele>442</ele>
      </trkpt>
      <trkpt lat="43.07978" lon="-0.42152">
        <ele>442</ele>
      </trkpt>
      <trkpt lat="43.0798" lon="-0.4217">
        <ele>442</ele>
      </trkpt>
      <trkpt lat="43.07994" lon="-0.42195">
        <ele>442</ele>
      </trkpt>
      <trkpt lat="43.08011" lon="-0.42213">
        <ele>461</ele>
      </trkpt>
      <trkpt lat="43.0802" lon="-0.42235">
        <ele>461</ele>
      </trkpt>
      <trkpt lat="43.0802" lon="-0.42256">
        <ele>461</ele>
      </trkpt>
      <trkpt lat="43.08031" lon="-0.42275">
        <ele>461</ele>
      </trkpt>
      <trkpt lat="43.08032" lon="-0.42285">
        <ele>461</ele>
      </trkpt>
      <trkpt lat="43.08041" lon="-0.42301">
        <ele>477</ele>
      </trkpt>
      <trkpt lat="43.08076" lon="-0.42334">
        <ele>456</ele>
      </trkpt>
      <trkpt lat="43.08086" lon="-0.42365">
        <ele>456</ele>
      </trkpt>
      <trkpt lat="43.08088" lon="-0.42401">
        <ele>462</ele>
      </trkpt>
      <trkpt lat="43.08086" lon="-0.42407">
        <ele>462</ele>
      </trkpt>
      <trkpt lat="43.08101" lon="-0.42433">
        <ele>462</ele>
      </trkpt>
      <trkpt lat="43.08101" lon="-0.4244">
        <ele>462</ele>
      </trkpt>
      <trkpt lat="43.08081" lon="-0.42454">
        <ele>462</ele>
      </trkpt>
      <trkpt lat="43.08064" lon="-0.42511">
        <ele>467</ele>
      </trkpt>
      <trkpt lat="43.08068" lon="-0.42522">
        <ele>467</ele>
      </trkpt>
      <trkpt lat="43.08105" lon="-0.42588">
        <ele>475</ele>
      </trkpt>
      <trkpt lat="43.08134" lon="-0.42652">
        <ele>472</ele>
      </trkpt>
      <trkpt lat="43.08137" lon="-0.42677">
        <ele>472</ele>
      </trkpt>
      <trkpt lat="43.08141" lon="-0.4269">
        <ele>472</ele>
      </trkpt>
      <trkpt lat="43.08136" lon="-0.42742">
        <ele>472</ele>
      </trkpt>
      <trkpt lat="43.08162" lon="-0.42797">
        <ele>468</ele>
      </trkpt>
      <trkpt lat="43.08198" lon="-0.42829">
        <ele>468</ele>
      </trkpt>
      <trkpt lat="43.08229" lon="-0.42849">
        <ele>473</ele>
      </trkpt>
      <trkpt lat="43.08235" lon="-0.42866">
        <ele>473</ele>
      </trkpt>
      <trkpt lat="43.08236" lon="-0.4288">
        <ele>459</ele>
      </trkpt>
      <trkpt lat="43.08247" lon="-0.4293">
        <ele>459</ele>
      </trkpt>
      <trkpt lat="43.08292" lon="-0.42975">
        <ele>474</ele>
      </trkpt>
      <trkpt lat="43.08317" lon="-0.43045">
        <ele>472</ele>
      </trkpt>
      <trkpt lat="43.08326" lon="-0.43082">
        <ele>472</ele>
      </trkpt>
      <trkpt lat="43.08345" lon="-0.43118">
        <ele>472</ele>
      </trkpt>
      <trkpt lat="43.08362" lon="-0.43162">
        <ele>475</ele>
      </trkpt>
      <trkpt lat="43.08376" lon="-0.43186">
        <ele>470</ele>
      </trkpt>
      <trkpt lat="43.0841" lon="-0.43297">
        <ele>456</ele>
      </trkpt>
      <trkpt lat="43.08414" lon="-0.43341">
        <ele>456</ele>
      </trkpt>
      <trkpt lat="43.08439" lon="-0.43464">
        <ele>454</ele>
      </trkpt>
      <trkpt lat="43.08456" lon="-0.43502">
        <ele>454</ele>
      </trkpt>
      <trkpt lat="43.0849" lon="-0.43515">
        <ele>442</ele>
      </trkpt>
      <trkpt lat="43.08504" lon="-0.43555">
        <ele>442</ele>
      </trkpt>
      <trkpt lat="43.08543" lon="-0.43642">
        <ele>437</ele>
      </trkpt>
      <trkpt lat="43.08562" lon="-0.43648">
        <ele>437</ele>
      </trkpt>
      <trkpt lat="43.08579" lon="-0.43649">
        <ele>437</ele>
      </trkpt>
      <trkpt lat="43.08617" lon="-0.4364">
        <ele>437</ele>
      </trkpt>
      <trkpt lat="43.08645" lon="-0.43618">
        <ele>435</ele>
      </trkpt>
      <trkpt lat="43.08659" lon="-0.43603">
        <ele>435</ele>
      </trkpt>
      <trkpt lat="43.08675" lon="-0.43595">
        <ele>435</ele>
      </trkpt>
      <trkpt lat="43.08747" lon="-0.43544">
        <ele>434</ele>
      </trkpt>
      <trkpt lat="43.08808" lon="-0.43507">
        <ele>436</ele>
      </trkpt>
      <trkpt lat="43.08815" lon="-0.43512">
        <ele>436</ele>
      </trkpt>
      <trkpt lat="43.08817" lon="-0.43521">
        <ele>436</ele>
      </trkpt>
      <trkpt lat="43.08813" lon="-0.43565">
        <ele>440</ele>
      </trkpt>
      <trkpt lat="43.08786" lon="-0.43651">
        <ele>435</ele>
      </trkpt>
      <trkpt lat="43.08765" lon="-0.4374">
        <ele>435</ele>
      </trkpt>
      <trkpt lat="43.08743" lon="-0.43852">
        <ele>435</ele>
      </trkpt>
      <trkpt lat="43.08717" lon="-0.43956">
        <ele>435</ele>
      </trkpt>
      <trkpt lat="43.0869" lon="-0.44043">
        <ele>434</ele>
      </trkpt>
      <trkpt lat="43.08657" lon="-0.44165">
        <ele>435</ele>
      </trkpt>
      <trkpt lat="43.08641" lon="-0.44208">
        <ele>435</ele>
      </trkpt>
      <trkpt lat="43.08616" lon="-0.44304">
        <ele>438</ele>
      </trkpt>
      <trkpt lat="43.0861" lon="-0.44362">
        <ele>438</ele>
      </trkpt>
      <trkpt lat="43.08628" lon="-0.44425">
        <ele>435</ele>
      </trkpt>
      <trkpt lat="43.08663" lon="-0.44479">
        <ele>441</ele>
      </trkpt>
      <trkpt lat="43.08691" lon="-0.44493">
        <ele>441</ele>
      </trkpt>
      <trkpt lat="43.08699" lon="-0.44503">
        <ele>441</ele>
      </trkpt>
      <trkpt lat="43.08707" lon="-0.44522">
        <ele>441</ele>
      </trkpt>
      <trkpt lat="43.08706" lon="-0.44572">
        <ele>447</ele>
      </trkpt>
      <trkpt lat="43.08714" lon="-0.44585">
        <ele>442</ele>
      </trkpt>
      <trkpt lat="43.08748" lon="-0.44614">
        <ele>442</ele>
      </trkpt>
      <trkpt lat="43.08754" lon="-0.44622">
        <ele>442</ele>
      </trkpt>
      <trkpt lat="43.08756" lon="-0.44633">
        <ele>444</ele>
      </trkpt>
      <trkpt lat="43.08756" lon="-0.44681">
        <ele>444</ele>
      </trkpt>
      <trkpt lat="43.08761" lon="-0.44757">
        <ele>451</ele>
      </trkpt>
      <trkpt lat="43.08778" lon="-0.44816">
        <ele>459</ele>
      </trkpt>
      <trkpt lat="43.08789" lon="-0.44829">
        <ele>459</ele>
      </trkpt>
      <trkpt lat="43.08816" lon="-0.4488">
        <ele>439</ele>
      </trkpt>
      <trkpt lat="43.08816" lon="-0.44929">
        <ele>439</ele>
      </trkpt>
      <trkpt lat="43.08854" lon="-0.44947">
        <ele>439</ele>
      </trkpt>
      <trkpt lat="43.08857" lon="-0.44972">
        <ele>457</ele>
      </trkpt>
      <trkpt lat="43.0889" lon="-0.44971">
        <ele>451</ele>
      </trkpt>
      <trkpt lat="43.08917" lon="-0.44961">
        <ele>451</ele>
      </trkpt>
      <trkpt lat="43.0893" lon="-0.44948">
        <ele>433</ele>
      </trkpt>
      <trkpt lat="43.09009" lon="-0.44906">
        <ele>443</ele>
      </trkpt>
      <trkpt lat="43.09023" lon="-0.44893">
        <ele>443</ele>
      </trkpt>
      <trkpt lat="43.09051" lon="-0.44846">
        <ele>452</ele>
      </trkpt>
      <trkpt lat="43.09074" lon="-0.44789">
        <ele>440</ele>
      </trkpt>
      <trkpt lat="43.09084" lon="-0.44746">
        <ele>440</ele>
      </trkpt>
      <trkpt lat="43.09132" lon="-0.4468">
        <ele>444</ele>
      </trkpt>
      <trkpt lat="43.09174" lon="-0.44632">
        <ele>444</ele>
      </trkpt>
      <trkpt lat="43.09201" lon="-0.44618">
        <ele>432</ele>
      </trkpt>
      <trkpt lat="43.09272" lon="-0.44605">
        <ele>436</ele>
      </trkpt>
      <trkpt lat="43.09365" lon="-0.44547">
        <ele>448</ele>
      </trkpt>
      <trkpt lat="43.09442" lon="-0.4451">
        <ele>425</ele>
      </trkpt>
      <trkpt lat="43.09477" lon="-0.44509">
        <ele>426</ele>
      </trkpt>
      <trkpt lat="43.09585" lon="-0.44488">
        <ele>430</ele>
      </trkpt>
      <trkpt lat="43.09627" lon="-0.44444">
        <ele>419</ele>
      </trkpt>
      <trkpt lat="43.09639" lon="-0.44439">
        <ele>419</ele>
      </trkpt>
      <trkpt lat="43.09678" lon="-0.4444">
        <ele>419</ele>
      </trkpt>
      <trkpt lat="43.09724" lon="-0.44456">
        <ele>416</ele>
      </trkpt>
      <trkpt lat="43.09814" lon="-0.44442">
        <ele>414</ele>
      </trkpt>
      <trkpt lat="43.09898" lon="-0.444">
        <ele>414</ele>
      </trkpt>
      <trkpt lat="43.09959" lon="-0.44343">
        <ele>412</ele>
      </trkpt>
      <trkpt lat="43.0999" lon="-0.44321">
        <ele>412</ele>
      </trkpt>
    </trkseg>
  </trk>
  <trk>
    <name><![CDATA[BOUCLE DU COL DU CERISIER]]></name>
    <trkseg>
      <trkpt lat="43.13551" lon="-0.47807">
        <ele>341.41</ele>
        <time>2016-12-11T07:23:01Z</time>
      </trkpt>
      <trkpt lat="43.13554" lon="-0.47807">
        <ele>341.41</ele>
        <time>2016-12-11T07:23:02Z</time>
      </trkpt>
      <trkpt lat="43.13556" lon="-0.47806">
        <ele>341.41</ele>
        <time>2016-12-11T07:23:03Z</time>
      </trkpt>
      <trkpt lat="43.13557" lon="-0.47804">
        <ele>341.41</ele>
        <time>2016-12-11T07:23:04Z</time>
      </trkpt>
      <trkpt lat="43.13559" lon="-0.47801">
        <ele>341.41</ele>
        <time>2016-12-11T07:23:05Z</time>
      </trkpt>
      <trkpt lat="43.13562" lon="-0.47793">
        <ele>341.41</ele>
        <time>2016-12-11T07:23:08Z</time>
      </trkpt>
      <trkpt lat="43.13563" lon="-0.47789">
        <ele>341.89</ele>
        <time>2016-12-11T07:23:09Z</time>
      </trkpt>
      <trkpt lat="43.13563" lon="-0.47786">
        <ele>341.41</ele>
        <time>2016-12-11T07:23:10Z</time>
      </trkpt>
      <trkpt lat="43.13562" lon="-0.47783">
        <ele>341.89</ele>
        <time>2016-12-11T07:23:11Z</time>
      </trkpt>
      <trkpt lat="43.13561" lon="-0.4778">
        <ele>341.89</ele>
        <time>2016-12-11T07:23:12Z</time>
      </trkpt>
      <trkpt lat="43.1356" lon="-0.47778">
        <ele>342.37</ele>
        <time>2016-12-11T07:23:13Z</time>
      </trkpt>
      <trkpt lat="43.13558" lon="-0.47776">
        <ele>342.85</ele>
        <time>2016-12-11T07:23:14Z</time>
      </trkpt>
      <trkpt lat="43.13556" lon="-0.47775">
        <ele>342.85</ele>
        <time>2016-12-11T07:23:15Z</time>
      </trkpt>
      <trkpt lat="43.13554" lon="-0.47775">
        <ele>342.37</ele>
        <time>2016-12-11T07:23:16Z</time>
      </trkpt>
      <trkpt lat="43.13552" lon="-0.47775">
        <ele>342.85</ele>
        <time>2016-12-11T07:23:17Z</time>
      </trkpt>
      <trkpt lat="43.1355" lon="-0.47775">
        <ele>343.33</ele>
        <time>2016-12-11T07:23:18Z</time>
      </trkpt>
      <trkpt lat="43.13537" lon="-0.47776">
        <ele>343.81</ele>
        <time>2016-12-11T07:23:25Z</time>
      </trkpt>
      <trkpt lat="43.13534" lon="-0.47776">
        <ele>343.81</ele>
        <time>2016-12-11T07:23:26Z</time>
      </trkpt>
      <trkpt lat="43.13505" lon="-0.47777">
        <ele>346.21</ele>
        <time>2016-12-11T07:23:39Z</time>
      </trkpt>
      <trkpt lat="43.13479" lon="-0.4777">
        <ele>347.65</ele>
        <time>2016-12-11T07:23:51Z</time>
      </trkpt>
      <trkpt lat="43.13445" lon="-0.47752">
        <ele>348.13</ele>
        <time>2016-12-11T07:24:04Z</time>
      </trkpt>
      <trkpt lat="43.13403" lon="-0.47729">
        <ele>351.5</ele>
        <time>2016-12-11T07:24:20Z</time>
      </trkpt>
      <trkpt lat="43.13371" lon="-0.47709">
        <ele>353.9</ele>
        <time>2016-12-11T07:24:34Z</time>
      </trkpt>
      <trkpt lat="43.1334" lon="-0.47689">
        <ele>356.31</ele>
        <time>2016-12-11T07:24:49Z</time>
      </trkpt>
      <trkpt lat="43.13308" lon="-0.47677">
        <ele>359.19</ele>
        <time>2016-12-11T07:25:03Z</time>
      </trkpt>
      <trkpt lat="43.13279" lon="-0.47671">
        <ele>362.07</ele>
        <time>2016-12-11T07:25:16Z</time>
      </trkpt>
      <trkpt lat="43.13248" lon="-0.47659">
        <ele>364.48</ele>
        <time>2016-12-11T07:25:30Z</time>
      </trkpt>
      <trkpt lat="43.13218" lon="-0.47643">
        <ele>365.92</ele>
        <time>2016-12-11T07:25:43Z</time>
      </trkpt>
      <trkpt lat="43.13181" lon="-0.47604">
        <ele>367.84</ele>
        <time>2016-12-11T07:25:57Z</time>
      </trkpt>
      <trkpt lat="43.13138" lon="-0.47586">
        <ele>370.73</ele>
        <time>2016-12-11T07:26:12Z</time>
      </trkpt>
      <trkpt lat="43.13101" lon="-0.47576">
        <ele>372.17</ele>
        <time>2016-12-11T07:26:25Z</time>
      </trkpt>
      <trkpt lat="43.13066" lon="-0.4757">
        <ele>374.09</ele>
        <time>2016-12-11T07:26:38Z</time>
      </trkpt>
      <trkpt lat="43.13038" lon="-0.47566">
        <ele>375.05</ele>
        <time>2016-12-11T07:26:49Z</time>
      </trkpt>
      <trkpt lat="43.13019" lon="-0.47557">
        <ele>376.01</ele>
        <time>2016-12-11T07:27:02Z</time>
      </trkpt>
      <trkpt lat="43.13017" lon="-0.47556">
        <ele>376.49</ele>
        <time>2016-12-11T07:27:03Z</time>
      </trkpt>
      <trkpt lat="43.13015" lon="-0.47556">
        <ele>376.49</ele>
        <time>2016-12-11T07:27:04Z</time>
      </trkpt>
      <trkpt lat="43.13012" lon="-0.47557">
        <ele>376.01</ele>
        <time>2016-12-11T07:27:05Z</time>
      </trkpt>
      <trkpt lat="43.12971" lon="-0.47569">
        <ele>378.42</ele>
        <time>2016-12-11T07:27:19Z</time>
      </trkpt>
      <trkpt lat="43.12945" lon="-0.47559">
        <ele>380.34</ele>
        <time>2016-12-11T07:27:30Z</time>
      </trkpt>
      <trkpt lat="43.12935" lon="-0.47541">
        <ele>382.26</ele>
        <time>2016-12-11T07:27:37Z</time>
      </trkpt>
      <trkpt lat="43.12935" lon="-0.47538">
        <ele>382.74</ele>
        <time>2016-12-11T07:27:38Z</time>
      </trkpt>
      <trkpt lat="43.12934" lon="-0.47535">
        <ele>383.22</ele>
        <time>2016-12-11T07:27:39Z</time>
      </trkpt>
      <trkpt lat="43.12934" lon="-0.47533">
        <ele>383.22</ele>
        <time>2016-12-11T07:27:40Z</time>
      </trkpt>
      <trkpt lat="43.12934" lon="-0.4753">
        <ele>383.7</ele>
        <time>2016-12-11T07:27:41Z</time>
      </trkpt>
      <trkpt lat="43.12935" lon="-0.47528">
        <ele>384.18</ele>
        <time>2016-12-11T07:27:42Z</time>
      </trkpt>
      <trkpt lat="43.12936" lon="-0.47525">
        <ele>384.18</ele>
        <time>2016-12-11T07:27:43Z</time>
      </trkpt>
      <trkpt lat="43.12936" lon="-0.47522">
        <ele>384.66</ele>
        <time>2016-12-11T07:27:44Z</time>
      </trkpt>
      <trkpt lat="43.12937" lon="-0.47519">
        <ele>385.15</ele>
        <time>2016-12-11T07:27:45Z</time>
      </trkpt>
      <trkpt lat="43.12937" lon="-0.47517">
        <ele>385.15</ele>
        <time>2016-12-11T07:27:46Z</time>
      </trkpt>
      <trkpt lat="43.12939" lon="-0.47515">
        <ele>385.15</ele>
        <time>2016-12-11T07:27:47Z</time>
      </trkpt>
      <trkpt lat="43.1294" lon="-0.47512">
        <ele>385.63</ele>
        <time>2016-12-11T07:27:48Z</time>
      </trkpt>
      <trkpt lat="43.12941" lon="-0.4751">
        <ele>386.11</ele>
        <time>2016-12-11T07:27:49Z</time>
      </trkpt>
      <trkpt lat="43.12942" lon="-0.47508">
        <ele>386.59</ele>
        <time>2016-12-11T07:27:50Z</time>
      </trkpt>
      <trkpt lat="43.12943" lon="-0.47506">
        <ele>386.59</ele>
        <time>2016-12-11T07:27:51Z</time>
      </trkpt>
      <trkpt lat="43.12962" lon="-0.47476">
        <ele>389.47</ele>
        <time>2016-12-11T07:28:05Z</time>
      </trkpt>
      <trkpt lat="43.12964" lon="-0.47471">
        <ele>389.95</ele>
        <time>2016-12-11T07:28:07Z</time>
      </trkpt>
      <trkpt lat="43.12976" lon="-0.47441">
        <ele>392.36</ele>
        <time>2016-12-11T07:28:20Z</time>
      </trkpt>
      <trkpt lat="43.12986" lon="-0.47414">
        <ele>394.28</ele>
        <time>2016-12-11T07:28:31Z</time>
      </trkpt>
      <trkpt lat="43.12987" lon="-0.47412">
        <ele>395.24</ele>
        <time>2016-12-11T07:28:32Z</time>
      </trkpt>
      <trkpt lat="43.12988" lon="-0.47411">
        <ele>394.76</ele>
        <time>2016-12-11T07:28:33Z</time>
      </trkpt>
      <trkpt lat="43.12989" lon="-0.47409">
        <ele>395.72</ele>
        <time>2016-12-11T07:28:34Z</time>
      </trkpt>
      <trkpt lat="43.1299" lon="-0.47406">
        <ele>395.72</ele>
        <time>2016-12-11T07:28:35Z</time>
      </trkpt>
      <trkpt lat="43.12991" lon="-0.47404">
        <ele>396.2</ele>
        <time>2016-12-11T07:28:36Z</time>
      </trkpt>
      <trkpt lat="43.12992" lon="-0.47402">
        <ele>396.2</ele>
        <time>2016-12-11T07:28:37Z</time>
      </trkpt>
      <trkpt lat="43.13002" lon="-0.47376">
        <ele>399.57</ele>
        <time>2016-12-11T07:28:48Z</time>
      </trkpt>
      <trkpt lat="43.13021" lon="-0.47344">
        <ele>401.49</ele>
        <time>2016-12-11T07:29:03Z</time>
      </trkpt>
      <trkpt lat="43.13046" lon="-0.47312">
        <ele>401.49</ele>
        <time>2016-12-11T07:29:18Z</time>
      </trkpt>
      <trkpt lat="43.13064" lon="-0.47301">
        <ele>400.53</ele>
        <time>2016-12-11T07:29:24Z</time>
      </trkpt>
      <trkpt lat="43.13068" lon="-0.47299">
        <ele>399.57</ele>
        <time>2016-12-11T07:29:25Z</time>
      </trkpt>
      <trkpt lat="43.13073" lon="-0.47296">
        <ele>399.57</ele>
        <time>2016-12-11T07:29:26Z</time>
      </trkpt>
      <trkpt lat="43.13078" lon="-0.47292">
        <ele>399.08</ele>
        <time>2016-12-11T07:29:27Z</time>
      </trkpt>
      <trkpt lat="43.13083" lon="-0.47289">
        <ele>398.12</ele>
        <time>2016-12-11T07:29:28Z</time>
      </trkpt>
      <trkpt lat="43.13088" lon="-0.47286">
        <ele>398.12</ele>
        <time>2016-12-11T07:29:29Z</time>
      </trkpt>
      <trkpt lat="43.13121" lon="-0.4726">
        <ele>396.68</ele>
        <time>2016-12-11T07:29:35Z</time>
      </trkpt>
      <trkpt lat="43.13125" lon="-0.47254">
        <ele>396.2</ele>
        <time>2016-12-11T07:29:36Z</time>
      </trkpt>
      <trkpt lat="43.13132" lon="-0.47241">
        <ele>395.24</ele>
        <time>2016-12-11T07:29:38Z</time>
      </trkpt>
      <trkpt lat="43.13136" lon="-0.47235">
        <ele>395.24</ele>
        <time>2016-12-11T07:29:39Z</time>
      </trkpt>
      <trkpt lat="43.13152" lon="-0.47211">
        <ele>392.84</ele>
        <time>2016-12-11T07:29:43Z</time>
      </trkpt>
      <trkpt lat="43.13156" lon="-0.47205">
        <ele>392.36</ele>
        <time>2016-12-11T07:29:44Z</time>
      </trkpt>
      <trkpt lat="43.13158" lon="-0.47199">
        <ele>391.87</ele>
        <time>2016-12-11T07:29:45Z</time>
      </trkpt>
      <trkpt lat="43.13162" lon="-0.47195">
        <ele>391.87</ele>
        <time>2016-12-11T07:29:46Z</time>
      </trkpt>
      <trkpt lat="43.13166" lon="-0.47194">
        <ele>391.39</ele>
        <time>2016-12-11T07:29:47Z</time>
      </trkpt>
      <trkpt lat="43.1317" lon="-0.47194">
        <ele>390.43</ele>
        <time>2016-12-11T07:29:48Z</time>
      </trkpt>
      <trkpt lat="43.13173" lon="-0.47195">
        <ele>390.91</ele>
        <time>2016-12-11T07:29:49Z</time>
      </trkpt>
      <trkpt lat="43.13187" lon="-0.47194">
        <ele>390.43</ele>
        <time>2016-12-11T07:29:53Z</time>
      </trkpt>
      <trkpt lat="43.1319" lon="-0.47193">
        <ele>389.95</ele>
        <time>2016-12-11T07:29:54Z</time>
      </trkpt>
      <trkpt lat="43.13194" lon="-0.47193">
        <ele>389.95</ele>
        <time>2016-12-11T07:29:55Z</time>
      </trkpt>
      <trkpt lat="43.13228" lon="-0.47184">
        <ele>391.39</ele>
        <time>2016-12-11T07:30:06Z</time>
      </trkpt>
      <trkpt lat="43.13231" lon="-0.47159">
        <ele>389.47</ele>
        <time>2016-12-11T07:30:13Z</time>
      </trkpt>
      <trkpt lat="43.13231" lon="-0.47153">
        <ele>388.99</ele>
        <time>2016-12-11T07:30:14Z</time>
      </trkpt>
      <trkpt lat="43.1323" lon="-0.47129">
        <ele>387.55</ele>
        <time>2016-12-11T07:30:17Z</time>
      </trkpt>
      <trkpt lat="43.13227" lon="-0.4712">
        <ele>387.07</ele>
        <time>2016-12-11T07:30:18Z</time>
      </trkpt>
      <trkpt lat="43.13222" lon="-0.47111">
        <ele>386.11</ele>
        <time>2016-12-11T07:30:19Z</time>
      </trkpt>
      <trkpt lat="43.13216" lon="-0.47103">
        <ele>384.66</ele>
        <time>2016-12-11T07:30:20Z</time>
      </trkpt>
      <trkpt lat="43.13209" lon="-0.47097">
        <ele>384.66</ele>
        <time>2016-12-11T07:30:21Z</time>
      </trkpt>
      <trkpt lat="43.13201" lon="-0.47091">
        <ele>383.7</ele>
        <time>2016-12-11T07:30:22Z</time>
      </trkpt>
      <trkpt lat="43.13194" lon="-0.47087">
        <ele>383.7</ele>
        <time>2016-12-11T07:30:23Z</time>
      </trkpt>
      <trkpt lat="43.13187" lon="-0.47083">
        <ele>383.22</ele>
        <time>2016-12-11T07:30:24Z</time>
      </trkpt>
      <trkpt lat="43.13179" lon="-0.4708">
        <ele>382.74</ele>
        <time>2016-12-11T07:30:25Z</time>
      </trkpt>
      <trkpt lat="43.13172" lon="-0.47078">
        <ele>382.74</ele>
        <time>2016-12-11T07:30:26Z</time>
      </trkpt>
      <trkpt lat="43.13164" lon="-0.47078">
        <ele>382.74</ele>
        <time>2016-12-11T07:30:27Z</time>
      </trkpt>
      <trkpt lat="43.13143" lon="-0.47078">
        <ele>381.3</ele>
        <time>2016-12-11T07:30:30Z</time>
      </trkpt>
      <trkpt lat="43.13125" lon="-0.47078">
        <ele>380.34</ele>
        <time>2016-12-11T07:30:33Z</time>
      </trkpt>
      <trkpt lat="43.13119" lon="-0.47077">
        <ele>380.34</ele>
        <time>2016-12-11T07:30:34Z</time>
      </trkpt>
      <trkpt lat="43.13114" lon="-0.47073">
        <ele>379.86</ele>
        <time>2016-12-11T07:30:35Z</time>
      </trkpt>
      <trkpt lat="43.1311" lon="-0.47069">
        <ele>380.34</ele>
        <time>2016-12-11T07:30:36Z</time>
      </trkpt>
      <trkpt lat="43.13107" lon="-0.47064">
        <ele>380.34</ele>
        <time>2016-12-11T07:30:37Z</time>
      </trkpt>
      <trkpt lat="43.13104" lon="-0.4706">
        <ele>380.82</ele>
        <time>2016-12-11T07:30:38Z</time>
      </trkpt>
      <trkpt lat="43.13102" lon="-0.47055">
        <ele>381.3</ele>
        <time>2016-12-11T07:30:39Z</time>
      </trkpt>
      <trkpt lat="43.13099" lon="-0.4705">
        <ele>381.3</ele>
        <time>2016-12-11T07:30:40Z</time>
      </trkpt>
      <trkpt lat="43.13096" lon="-0.47045">
        <ele>381.78</ele>
        <time>2016-12-11T07:30:41Z</time>
      </trkpt>
      <trkpt lat="43.1308" lon="-0.47024">
        <ele>382.74</ele>
        <time>2016-12-11T07:30:46Z</time>
      </trkpt>
      <trkpt lat="43.13061" lon="-0.46988">
        <ele>383.7</ele>
        <time>2016-12-11T07:30:54Z</time>
      </trkpt>
      <trkpt lat="43.13021" lon="-0.46934">
        <ele>382.74</ele>
        <time>2016-12-11T07:31:07Z</time>
      </trkpt>
      <trkpt lat="43.13017" lon="-0.4693">
        <ele>382.74</ele>
        <time>2016-12-11T07:31:08Z</time>
      </trkpt>
      <trkpt lat="43.13015" lon="-0.46925">
        <ele>383.22</ele>
        <time>2016-12-11T07:31:09Z</time>
      </trkpt>
      <trkpt lat="43.13013" lon="-0.46921">
        <ele>383.22</ele>
        <time>2016-12-11T07:31:10Z</time>
      </trkpt>
      <trkpt lat="43.13011" lon="-0.46917">
        <ele>383.22</ele>
        <time>2016-12-11T07:31:11Z</time>
      </trkpt>
      <trkpt lat="43.1301" lon="-0.46912">
        <ele>384.18</ele>
        <time>2016-12-11T07:31:12Z</time>
      </trkpt>
      <trkpt lat="43.13008" lon="-0.46907">
        <ele>383.7</ele>
        <time>2016-12-11T07:31:13Z</time>
      </trkpt>
      <trkpt lat="43.13007" lon="-0.46902">
        <ele>384.18</ele>
        <time>2016-12-11T07:31:14Z</time>
      </trkpt>
      <trkpt lat="43.12996" lon="-0.46863">
        <ele>387.07</ele>
        <time>2016-12-11T07:31:22Z</time>
      </trkpt>
      <trkpt lat="43.12973" lon="-0.4681">
        <ele>388.03</ele>
        <time>2016-12-11T07:31:35Z</time>
      </trkpt>
      <trkpt lat="43.12963" lon="-0.46797">
        <ele>386.11</ele>
        <time>2016-12-11T07:31:39Z</time>
      </trkpt>
      <trkpt lat="43.12962" lon="-0.46792">
        <ele>386.59</ele>
        <time>2016-12-11T07:31:40Z</time>
      </trkpt>
      <trkpt lat="43.12963" lon="-0.46788">
        <ele>386.59</ele>
        <time>2016-12-11T07:31:41Z</time>
      </trkpt>
      <trkpt lat="43.12965" lon="-0.46783">
        <ele>387.07</ele>
        <time>2016-12-11T07:31:42Z</time>
      </trkpt>
      <trkpt lat="43.12966" lon="-0.46779">
        <ele>387.07</ele>
        <time>2016-12-11T07:31:43Z</time>
      </trkpt>
      <trkpt lat="43.12967" lon="-0.46774">
        <ele>387.55</ele>
        <time>2016-12-11T07:31:44Z</time>
      </trkpt>
      <trkpt lat="43.12967" lon="-0.46768">
        <ele>387.07</ele>
        <time>2016-12-11T07:31:45Z</time>
      </trkpt>
      <trkpt lat="43.12967" lon="-0.46763">
        <ele>387.55</ele>
        <time>2016-12-11T07:31:46Z</time>
      </trkpt>
      <trkpt lat="43.12967" lon="-0.46758">
        <ele>388.51</ele>
        <time>2016-12-11T07:31:47Z</time>
      </trkpt>
      <trkpt lat="43.12966" lon="-0.46753">
        <ele>388.51</ele>
        <time>2016-12-11T07:31:48Z</time>
      </trkpt>
      <trkpt lat="43.12951" lon="-0.46684">
        <ele>390.43</ele>
        <time>2016-12-11T07:32:03Z</time>
      </trkpt>
      <trkpt lat="43.12943" lon="-0.46662">
        <ele>389.95</ele>
        <time>2016-12-11T07:32:08Z</time>
      </trkpt>
      <trkpt lat="43.1294" lon="-0.46652">
        <ele>391.39</ele>
        <time>2016-12-11T07:32:10Z</time>
      </trkpt>
      <trkpt lat="43.12938" lon="-0.46647">
        <ele>391.39</ele>
        <time>2016-12-11T07:32:11Z</time>
      </trkpt>
      <trkpt lat="43.12935" lon="-0.46642">
        <ele>390.43</ele>
        <time>2016-12-11T07:32:12Z</time>
      </trkpt>
      <trkpt lat="43.12932" lon="-0.46639">
        <ele>391.39</ele>
        <time>2016-12-11T07:32:13Z</time>
      </trkpt>
      <trkpt lat="43.12929" lon="-0.46636">
        <ele>391.39</ele>
        <time>2016-12-11T07:32:14Z</time>
      </trkpt>
      <trkpt lat="43.12888" lon="-0.46601">
        <ele>393.8</ele>
        <time>2016-12-11T07:32:28Z</time>
      </trkpt>
      <trkpt lat="43.12874" lon="-0.46592">
        <ele>394.76</ele>
        <time>2016-12-11T07:32:32Z</time>
      </trkpt>
      <trkpt lat="43.12871" lon="-0.4659">
        <ele>395.24</ele>
        <time>2016-12-11T07:32:33Z</time>
      </trkpt>
      <trkpt lat="43.12814" lon="-0.46568">
        <ele>396.2</ele>
        <time>2016-12-11T07:32:49Z</time>
      </trkpt>
      <trkpt lat="43.12759" lon="-0.46576">
        <ele>398.6</ele>
        <time>2016-12-11T07:33:05Z</time>
      </trkpt>
      <trkpt lat="43.12722" lon="-0.46583">
        <ele>401.49</ele>
        <time>2016-12-11T07:33:16Z</time>
      </trkpt>
      <trkpt lat="43.12715" lon="-0.46583">
        <ele>402.45</ele>
        <time>2016-12-11T07:33:18Z</time>
      </trkpt>
      <trkpt lat="43.12691" lon="-0.46585">
        <ele>405.81</ele>
        <time>2016-12-11T07:33:27Z</time>
      </trkpt>
      <trkpt lat="43.12657" lon="-0.46582">
        <ele>405.81</ele>
        <time>2016-12-11T07:33:39Z</time>
      </trkpt>
      <trkpt lat="43.12648" lon="-0.4658">
        <ele>405.33</ele>
        <time>2016-12-11T07:33:41Z</time>
      </trkpt>
      <trkpt lat="43.12589" lon="-0.46561">
        <ele>401.97</ele>
        <time>2016-12-11T07:33:50Z</time>
      </trkpt>
      <trkpt lat="43.12549" lon="-0.46543">
        <ele>399.57</ele>
        <time>2016-12-11T07:33:56Z</time>
      </trkpt>
      <trkpt lat="43.12486" lon="-0.46491">
        <ele>396.68</ele>
        <time>2016-12-11T07:34:08Z</time>
      </trkpt>
      <trkpt lat="43.12481" lon="-0.4649">
        <ele>395.72</ele>
        <time>2016-12-11T07:34:09Z</time>
      </trkpt>
      <trkpt lat="43.12477" lon="-0.46492">
        <ele>395.24</ele>
        <time>2016-12-11T07:34:10Z</time>
      </trkpt>
      <trkpt lat="43.12474" lon="-0.46496">
        <ele>395.72</ele>
        <time>2016-12-11T07:34:11Z</time>
      </trkpt>
      <trkpt lat="43.12472" lon="-0.46501">
        <ele>395.24</ele>
        <time>2016-12-11T07:34:12Z</time>
      </trkpt>
      <trkpt lat="43.1247" lon="-0.46507">
        <ele>395.24</ele>
        <time>2016-12-11T07:34:13Z</time>
      </trkpt>
      <trkpt lat="43.12468" lon="-0.46514">
        <ele>396.2</ele>
        <time>2016-12-11T07:34:14Z</time>
      </trkpt>
      <trkpt lat="43.12466" lon="-0.4652">
        <ele>395.72</ele>
        <time>2016-12-11T07:34:15Z</time>
      </trkpt>
      <trkpt lat="43.12451" lon="-0.46543">
        <ele>399.08</ele>
        <time>2016-12-11T07:34:21Z</time>
      </trkpt>
      <trkpt lat="43.12438" lon="-0.46552">
        <ele>401.49</ele>
        <time>2016-12-11T07:34:27Z</time>
      </trkpt>
      <trkpt lat="43.12433" lon="-0.46546">
        <ele>402.45</ele>
        <time>2016-12-11T07:34:30Z</time>
      </trkpt>
      <trkpt lat="43.12429" lon="-0.46529">
        <ele>403.89</ele>
        <time>2016-12-11T07:34:36Z</time>
      </trkpt>
      <trkpt lat="43.12421" lon="-0.46489">
        <ele>407.26</ele>
        <time>2016-12-11T07:34:49Z</time>
      </trkpt>
      <trkpt lat="43.12419" lon="-0.4645">
        <ele>409.66</ele>
        <time>2016-12-11T07:35:02Z</time>
      </trkpt>
      <trkpt lat="43.12428" lon="-0.46406">
        <ele>410.62</ele>
        <time>2016-12-11T07:35:15Z</time>
      </trkpt>
      <trkpt lat="43.12436" lon="-0.46369">
        <ele>412.06</ele>
        <time>2016-12-11T07:35:26Z</time>
      </trkpt>
      <trkpt lat="43.12455" lon="-0.46333">
        <ele>414.95</ele>
        <time>2016-12-11T07:35:38Z</time>
      </trkpt>
      <trkpt lat="43.12459" lon="-0.46327">
        <ele>415.91</ele>
        <time>2016-12-11T07:35:40Z</time>
      </trkpt>
      <trkpt lat="43.12477" lon="-0.46306">
        <ele>419.27</ele>
        <time>2016-12-11T07:35:48Z</time>
      </trkpt>
      <trkpt lat="43.12491" lon="-0.46276">
        <ele>421.19</ele>
        <time>2016-12-11T07:36:00Z</time>
      </trkpt>
      <trkpt lat="43.12492" lon="-0.46273">
        <ele>421.19</ele>
        <time>2016-12-11T07:36:01Z</time>
      </trkpt>
      <trkpt lat="43.12478" lon="-0.46248">
        <ele>420.71</ele>
        <time>2016-12-11T07:36:11Z</time>
      </trkpt>
      <trkpt lat="43.12441" lon="-0.46197">
        <ele>419.75</ele>
        <time>2016-12-11T07:36:26Z</time>
      </trkpt>
      <trkpt lat="43.12438" lon="-0.46193">
        <ele>419.75</ele>
        <time>2016-12-11T07:36:27Z</time>
      </trkpt>
      <trkpt lat="43.12409" lon="-0.46154">
        <ele>420.23</ele>
        <time>2016-12-11T07:36:37Z</time>
      </trkpt>
      <trkpt lat="43.1237" lon="-0.46092">
        <ele>422.16</ele>
        <time>2016-12-11T07:36:53Z</time>
      </trkpt>
      <trkpt lat="43.1237" lon="-0.46088">
        <ele>422.64</ele>
        <time>2016-12-11T07:36:54Z</time>
      </trkpt>
      <trkpt lat="43.12371" lon="-0.46084">
        <ele>422.64</ele>
        <time>2016-12-11T07:36:55Z</time>
      </trkpt>
      <trkpt lat="43.12373" lon="-0.4608">
        <ele>422.64</ele>
        <time>2016-12-11T07:36:56Z</time>
      </trkpt>
      <trkpt lat="43.12375" lon="-0.46077">
        <ele>423.12</ele>
        <time>2016-12-11T07:36:57Z</time>
      </trkpt>
      <trkpt lat="43.12376" lon="-0.46074">
        <ele>423.12</ele>
        <time>2016-12-11T07:36:58Z</time>
      </trkpt>
      <trkpt lat="43.12378" lon="-0.46071">
        <ele>423.12</ele>
        <time>2016-12-11T07:36:59Z</time>
      </trkpt>
      <trkpt lat="43.1238" lon="-0.46068">
        <ele>423.12</ele>
        <time>2016-12-11T07:37:00Z</time>
      </trkpt>
      <trkpt lat="43.12383" lon="-0.4605">
        <ele>424.56</ele>
        <time>2016-12-11T07:37:05Z</time>
      </trkpt>
      <trkpt lat="43.12381" lon="-0.46047">
        <ele>424.56</ele>
        <time>2016-12-11T07:37:06Z</time>
      </trkpt>
      <trkpt lat="43.1238" lon="-0.46043">
        <ele>424.56</ele>
        <time>2016-12-11T07:37:07Z</time>
      </trkpt>
      <trkpt lat="43.12378" lon="-0.4604">
        <ele>424.56</ele>
        <time>2016-12-11T07:37:08Z</time>
      </trkpt>
      <trkpt lat="43.12376" lon="-0.46036">
        <ele>424.56</ele>
        <time>2016-12-11T07:37:09Z</time>
      </trkpt>
      <trkpt lat="43.12353" lon="-0.45991">
        <ele>427.92</ele>
        <time>2016-12-11T07:37:22Z</time>
      </trkpt>
      <trkpt lat="43.12326" lon="-0.4594">
        <ele>431.29</ele>
        <time>2016-12-11T07:37:37Z</time>
      </trkpt>
      <trkpt lat="43.12295" lon="-0.45886">
        <ele>433.21</ele>
        <time>2016-12-11T07:37:53Z</time>
      </trkpt>
      <trkpt lat="43.12263" lon="-0.45828">
        <ele>436.58</ele>
        <time>2016-12-11T07:38:09Z</time>
      </trkpt>
      <trkpt lat="43.12238" lon="-0.45782">
        <ele>439.94</ele>
        <time>2016-12-11T07:38:23Z</time>
      </trkpt>
      <trkpt lat="43.1223" lon="-0.45767">
        <ele>441.38</ele>
        <time>2016-12-11T07:38:28Z</time>
      </trkpt>
      <trkpt lat="43.12211" lon="-0.45731">
        <ele>444.75</ele>
        <time>2016-12-11T07:38:40Z</time>
      </trkpt>
      <trkpt lat="43.12191" lon="-0.45695">
        <ele>447.63</ele>
        <time>2016-12-11T07:38:54Z</time>
      </trkpt>
      <trkpt lat="43.12186" lon="-0.45694">
        <ele>447.63</ele>
        <time>2016-12-11T07:38:57Z</time>
      </trkpt>
      <trkpt lat="43.12177" lon="-0.45702">
        <ele>448.11</ele>
        <time>2016-12-11T07:39:08Z</time>
      </trkpt>
      <trkpt lat="43.12178" lon="-0.45703">
        <ele>448.11</ele>
        <time>2016-12-11T07:39:44Z</time>
      </trkpt>
      <trkpt lat="43.12178" lon="-0.45704">
        <ele>448.59</ele>
        <time>2016-12-11T07:40:27Z</time>
      </trkpt>
      <trkpt lat="43.12178" lon="-0.45704">
        <ele>448.11</ele>
        <time>2016-12-11T07:41:10Z</time>
      </trkpt>
      <trkpt lat="43.12178" lon="-0.45703">
        <ele>448.11</ele>
        <time>2016-12-11T07:41:17Z</time>
      </trkpt>
      <trkpt lat="43.12177" lon="-0.45704">
        <ele>448.11</ele>
        <time>2016-12-11T07:41:18Z</time>
      </trkpt>
      <trkpt lat="43.12175" lon="-0.45705">
        <ele>448.59</ele>
        <time>2016-12-11T07:41:19Z</time>
      </trkpt>
      <trkpt lat="43.12173" lon="-0.45706">
        <ele>448.59</ele>
        <time>2016-12-11T07:41:20Z</time>
      </trkpt>
      <trkpt lat="43.12171" lon="-0.45708">
        <ele>448.59</ele>
        <time>2016-12-11T07:41:21Z</time>
      </trkpt>
      <trkpt lat="43.12168" lon="-0.45709">
        <ele>448.11</ele>
        <time>2016-12-11T07:41:22Z</time>
      </trkpt>
      <trkpt lat="43.12165" lon="-0.45711">
        <ele>448.59</ele>
        <time>2016-12-11T07:41:23Z</time>
      </trkpt>
      <trkpt lat="43.12163" lon="-0.45713">
        <ele>448.59</ele>
        <time>2016-12-11T07:41:24Z</time>
      </trkpt>
      <trkpt lat="43.1216" lon="-0.45714">
        <ele>448.59</ele>
        <time>2016-12-11T07:41:25Z</time>
      </trkpt>
      <trkpt lat="43.12158" lon="-0.45716">
        <ele>449.07</ele>
        <time>2016-12-11T07:41:26Z</time>
      </trkpt>
      <trkpt lat="43.12116" lon="-0.45748">
        <ele>448.59</ele>
        <time>2016-12-11T07:41:41Z</time>
      </trkpt>
      <trkpt lat="43.12071" lon="-0.4578">
        <ele>444.75</ele>
        <time>2016-12-11T07:41:51Z</time>
      </trkpt>
      <trkpt lat="43.12066" lon="-0.45784">
        <ele>444.75</ele>
        <time>2016-12-11T07:41:52Z</time>
      </trkpt>
      <trkpt lat="43.12059" lon="-0.45787">
        <ele>443.79</ele>
        <time>2016-12-11T07:41:53Z</time>
      </trkpt>
      <trkpt lat="43.12052" lon="-0.45788">
        <ele>442.82</ele>
        <time>2016-12-11T07:41:54Z</time>
      </trkpt>
      <trkpt lat="43.12045" lon="-0.45785">
        <ele>442.34</ele>
        <time>2016-12-11T07:41:55Z</time>
      </trkpt>
      <trkpt lat="43.12039" lon="-0.4578">
        <ele>442.82</ele>
        <time>2016-12-11T07:41:56Z</time>
      </trkpt>
      <trkpt lat="43.12034" lon="-0.45775">
        <ele>442.34</ele>
        <time>2016-12-11T07:41:57Z</time>
      </trkpt>
      <trkpt lat="43.11997" lon="-0.45739">
        <ele>440.9</ele>
        <time>2016-12-11T07:42:04Z</time>
      </trkpt>
      <trkpt lat="43.11992" lon="-0.45736">
        <ele>440.9</ele>
        <time>2016-12-11T07:42:05Z</time>
      </trkpt>
      <trkpt lat="43.11987" lon="-0.45733">
        <ele>440.9</ele>
        <time>2016-12-11T07:42:06Z</time>
      </trkpt>
      <trkpt lat="43.11962" lon="-0.45719">
        <ele>440.9</ele>
        <time>2016-12-11T07:42:11Z</time>
      </trkpt>
      <trkpt lat="43.1195" lon="-0.45709">
        <ele>440.9</ele>
        <time>2016-12-11T07:42:14Z</time>
      </trkpt>
      <trkpt lat="43.11943" lon="-0.45701">
        <ele>440.9</ele>
        <time>2016-12-11T07:42:16Z</time>
      </trkpt>
      <trkpt lat="43.1193" lon="-0.45684">
        <ele>441.38</ele>
        <time>2016-12-11T07:42:20Z</time>
      </trkpt>
      <trkpt lat="43.11928" lon="-0.45679">
        <ele>441.38</ele>
        <time>2016-12-11T07:42:21Z</time>
      </trkpt>
      <trkpt lat="43.11925" lon="-0.45674">
        <ele>441.86</ele>
        <time>2016-12-11T07:42:22Z</time>
      </trkpt>
      <trkpt lat="43.11924" lon="-0.45668">
        <ele>441.86</ele>
        <time>2016-12-11T07:42:23Z</time>
      </trkpt>
      <trkpt lat="43.11922" lon="-0.45663">
        <ele>441.86</ele>
        <time>2016-12-11T07:42:24Z</time>
      </trkpt>
      <trkpt lat="43.11921" lon="-0.45658">
        <ele>441.86</ele>
        <time>2016-12-11T07:42:25Z</time>
      </trkpt>
      <trkpt lat="43.11909" lon="-0.45613">
        <ele>441.38</ele>
        <time>2016-12-11T07:42:34Z</time>
      </trkpt>
      <trkpt lat="43.11902" lon="-0.4559">
        <ele>439.94</ele>
        <time>2016-12-11T07:42:38Z</time>
      </trkpt>
      <trkpt lat="43.11895" lon="-0.45574">
        <ele>438.5</ele>
        <time>2016-12-11T07:42:41Z</time>
      </trkpt>
      <trkpt lat="43.11893" lon="-0.45569">
        <ele>438.98</ele>
        <time>2016-12-11T07:42:42Z</time>
      </trkpt>
      <trkpt lat="43.1189" lon="-0.45564">
        <ele>438.98</ele>
        <time>2016-12-11T07:42:43Z</time>
      </trkpt>
      <trkpt lat="43.11879" lon="-0.45544">
        <ele>438.98</ele>
        <time>2016-12-11T07:42:47Z</time>
      </trkpt>
      <trkpt lat="43.11855" lon="-0.45502">
        <ele>438.02</ele>
        <time>2016-12-11T07:42:58Z</time>
      </trkpt>
      <trkpt lat="43.11853" lon="-0.45503">
        <ele>438.98</ele>
        <time>2016-12-11T07:42:59Z</time>
      </trkpt>
      <trkpt lat="43.1185" lon="-0.45505">
        <ele>438.5</ele>
        <time>2016-12-11T07:43:00Z</time>
      </trkpt>
      <trkpt lat="43.11836" lon="-0.45526">
        <ele>438.98</ele>
        <time>2016-12-11T07:43:07Z</time>
      </trkpt>
      <trkpt lat="43.11833" lon="-0.4553">
        <ele>438.98</ele>
        <time>2016-12-11T07:43:08Z</time>
      </trkpt>
      <trkpt lat="43.11831" lon="-0.45534">
        <ele>438.02</ele>
        <time>2016-12-11T07:43:09Z</time>
      </trkpt>
      <trkpt lat="43.11831" lon="-0.45537">
        <ele>438.5</ele>
        <time>2016-12-11T07:43:10Z</time>
      </trkpt>
      <trkpt lat="43.11831" lon="-0.4554">
        <ele>438.02</ele>
        <time>2016-12-11T07:43:11Z</time>
      </trkpt>
      <trkpt lat="43.1183" lon="-0.45544">
        <ele>438.02</ele>
        <time>2016-12-11T07:43:12Z</time>
      </trkpt>
      <trkpt lat="43.11829" lon="-0.45547">
        <ele>438.02</ele>
        <time>2016-12-11T07:43:13Z</time>
      </trkpt>
      <trkpt lat="43.11819" lon="-0.45575">
        <ele>438.5</ele>
        <time>2016-12-11T07:43:22Z</time>
      </trkpt>
      <trkpt lat="43.11818" lon="-0.45577">
        <ele>438.98</ele>
        <time>2016-12-11T07:43:35Z</time>
      </trkpt>
      <trkpt lat="43.11816" lon="-0.45581">
        <ele>438.98</ele>
        <time>2016-12-11T07:43:46Z</time>
      </trkpt>
      <trkpt lat="43.11815" lon="-0.45582">
        <ele>439.94</ele>
        <time>2016-12-11T07:43:47Z</time>
      </trkpt>
      <trkpt lat="43.11814" lon="-0.45583">
        <ele>439.94</ele>
        <time>2016-12-11T07:43:48Z</time>
      </trkpt>
      <trkpt lat="43.11813" lon="-0.45586">
        <ele>439.94</ele>
        <time>2016-12-11T07:43:49Z</time>
      </trkpt>
      <trkpt lat="43.11812" lon="-0.45588">
        <ele>440.9</ele>
        <time>2016-12-11T07:43:50Z</time>
      </trkpt>
      <trkpt lat="43.11811" lon="-0.4559">
        <ele>440.42</ele>
        <time>2016-12-11T07:43:51Z</time>
      </trkpt>
      <trkpt lat="43.1181" lon="-0.45592">
        <ele>440.9</ele>
        <time>2016-12-11T07:43:52Z</time>
      </trkpt>
      <trkpt lat="43.11798" lon="-0.45612">
        <ele>443.79</ele>
        <time>2016-12-11T07:44:03Z</time>
      </trkpt>
      <trkpt lat="43.11789" lon="-0.45626">
        <ele>446.19</ele>
        <time>2016-12-11T07:44:11Z</time>
      </trkpt>
      <trkpt lat="43.11788" lon="-0.45627">
        <ele>446.67</ele>
        <time>2016-12-11T07:44:12Z</time>
      </trkpt>
      <trkpt lat="43.11787" lon="-0.45628">
        <ele>446.67</ele>
        <time>2016-12-11T07:44:13Z</time>
      </trkpt>
      <trkpt lat="43.11786" lon="-0.4563">
        <ele>447.15</ele>
        <time>2016-12-11T07:44:14Z</time>
      </trkpt>
      <trkpt lat="43.11785" lon="-0.45632">
        <ele>447.15</ele>
        <time>2016-12-11T07:44:15Z</time>
      </trkpt>
      <trkpt lat="43.11778" lon="-0.45668">
        <ele>449.55</ele>
        <time>2016-12-11T07:44:30Z</time>
      </trkpt>
      <trkpt lat="43.11766" lon="-0.45698">
        <ele>452.44</ele>
        <time>2016-12-11T07:44:43Z</time>
      </trkpt>
      <trkpt lat="43.11747" lon="-0.45712">
        <ele>454.36</ele>
        <time>2016-12-11T07:44:55Z</time>
      </trkpt>
      <trkpt lat="43.11746" lon="-0.45712">
        <ele>454.36</ele>
        <time>2016-12-11T07:44:57Z</time>
      </trkpt>
      <trkpt lat="43.11746" lon="-0.45712">
        <ele>453.88</ele>
        <time>2016-12-11T07:45:08Z</time>
      </trkpt>
      <trkpt lat="43.11745" lon="-0.45711">
        <ele>454.84</ele>
        <time>2016-12-11T07:45:09Z</time>
      </trkpt>
      <trkpt lat="43.11745" lon="-0.4571">
        <ele>455.32</ele>
        <time>2016-12-11T07:45:13Z</time>
      </trkpt>
      <trkpt lat="43.11744" lon="-0.45709">
        <ele>455.32</ele>
        <time>2016-12-11T07:45:14Z</time>
      </trkpt>
      <trkpt lat="43.11743" lon="-0.45709">
        <ele>455.8</ele>
        <time>2016-12-11T07:45:15Z</time>
      </trkpt>
      <trkpt lat="43.11741" lon="-0.45707">
        <ele>455.8</ele>
        <time>2016-12-11T07:45:16Z</time>
      </trkpt>
      <trkpt lat="43.11739" lon="-0.45706">
        <ele>456.28</ele>
        <time>2016-12-11T07:45:17Z</time>
      </trkpt>
      <trkpt lat="43.11738" lon="-0.45705">
        <ele>456.76</ele>
        <time>2016-12-11T07:45:18Z</time>
      </trkpt>
      <trkpt lat="43.11737" lon="-0.45703">
        <ele>457.24</ele>
        <time>2016-12-11T07:45:19Z</time>
      </trkpt>
      <trkpt lat="43.11736" lon="-0.45702">
        <ele>457.24</ele>
        <time>2016-12-11T07:45:20Z</time>
      </trkpt>
      <trkpt lat="43.11735" lon="-0.45701">
        <ele>457.24</ele>
        <time>2016-12-11T07:45:21Z</time>
      </trkpt>
      <trkpt lat="43.1173" lon="-0.45697">
        <ele>458.21</ele>
        <time>2016-12-11T07:45:24Z</time>
      </trkpt>
      <trkpt lat="43.11729" lon="-0.45696">
        <ele>458.21</ele>
        <time>2016-12-11T07:45:25Z</time>
      </trkpt>
      <trkpt lat="43.11727" lon="-0.45695">
        <ele>458.69</ele>
        <time>2016-12-11T07:45:26Z</time>
      </trkpt>
      <trkpt lat="43.11726" lon="-0.45694">
        <ele>458.69</ele>
        <time>2016-12-11T07:45:27Z</time>
      </trkpt>
      <trkpt lat="43.11724" lon="-0.45693">
        <ele>459.17</ele>
        <time>2016-12-11T07:45:28Z</time>
      </trkpt>
      <trkpt lat="43.11696" lon="-0.45673">
        <ele>461.09</ele>
        <time>2016-12-11T07:45:43Z</time>
      </trkpt>
      <trkpt lat="43.11673" lon="-0.45656">
        <ele>463.49</ele>
        <time>2016-12-11T07:45:56Z</time>
      </trkpt>
      <trkpt lat="43.11648" lon="-0.45647">
        <ele>466.38</ele>
        <time>2016-12-11T07:46:09Z</time>
      </trkpt>
      <trkpt lat="43.11633" lon="-0.45637">
        <ele>467.82</ele>
        <time>2016-12-11T07:46:19Z</time>
      </trkpt>
      <trkpt lat="43.11599" lon="-0.45614">
        <ele>468.3</ele>
        <time>2016-12-11T07:46:34Z</time>
      </trkpt>
      <trkpt lat="43.11579" lon="-0.45601">
        <ele>471.66</ele>
        <time>2016-12-11T07:46:45Z</time>
      </trkpt>
      <trkpt lat="43.11569" lon="-0.45594">
        <ele>473.11</ele>
        <time>2016-12-11T07:46:51Z</time>
      </trkpt>
      <trkpt lat="43.11562" lon="-0.45591">
        <ele>474.55</ele>
        <time>2016-12-11T07:46:55Z</time>
      </trkpt>
      <trkpt lat="43.11561" lon="-0.4559">
        <ele>474.55</ele>
        <time>2016-12-11T07:46:56Z</time>
      </trkpt>
      <trkpt lat="43.1156" lon="-0.45589">
        <ele>475.03</ele>
        <time>2016-12-11T07:46:57Z</time>
      </trkpt>
      <trkpt lat="43.11558" lon="-0.45588">
        <ele>475.03</ele>
        <time>2016-12-11T07:46:58Z</time>
      </trkpt>
      <trkpt lat="43.11557" lon="-0.45587">
        <ele>475.51</ele>
        <time>2016-12-11T07:46:59Z</time>
      </trkpt>
      <trkpt lat="43.11556" lon="-0.45586">
        <ele>475.99</ele>
        <time>2016-12-11T07:47:00Z</time>
      </trkpt>
      <trkpt lat="43.11554" lon="-0.45585">
        <ele>475.99</ele>
        <time>2016-12-11T07:47:01Z</time>
      </trkpt>
      <trkpt lat="43.11553" lon="-0.45584">
        <ele>476.47</ele>
        <time>2016-12-11T07:47:02Z</time>
      </trkpt>
      <trkpt lat="43.11552" lon="-0.45583">
        <ele>476.95</ele>
        <time>2016-12-11T07:47:03Z</time>
      </trkpt>
      <trkpt lat="43.11551" lon="-0.45581">
        <ele>476.95</ele>
        <time>2016-12-11T07:47:04Z</time>
      </trkpt>
      <trkpt lat="43.11551" lon="-0.4558">
        <ele>477.43</ele>
        <time>2016-12-11T07:47:05Z</time>
      </trkpt>
      <trkpt lat="43.1155" lon="-0.45578">
        <ele>476.95</ele>
        <time>2016-12-11T07:47:06Z</time>
      </trkpt>
      <trkpt lat="43.11548" lon="-0.45577">
        <ele>476.95</ele>
        <time>2016-12-11T07:47:07Z</time>
      </trkpt>
      <trkpt lat="43.11548" lon="-0.45576">
        <ele>477.91</ele>
        <time>2016-12-11T07:47:08Z</time>
      </trkpt>
      <trkpt lat="43.11547" lon="-0.45575">
        <ele>478.39</ele>
        <time>2016-12-11T07:47:09Z</time>
      </trkpt>
      <trkpt lat="43.11546" lon="-0.45573">
        <ele>478.39</ele>
        <time>2016-12-11T07:47:10Z</time>
      </trkpt>
      <trkpt lat="43.11546" lon="-0.45572">
        <ele>478.87</ele>
        <time>2016-12-11T07:47:11Z</time>
      </trkpt>
      <trkpt lat="43.11545" lon="-0.4557">
        <ele>478.87</ele>
        <time>2016-12-11T07:47:12Z</time>
      </trkpt>
      <trkpt lat="43.11544" lon="-0.45569">
        <ele>478.87</ele>
        <time>2016-12-11T07:47:13Z</time>
      </trkpt>
      <trkpt lat="43.11545" lon="-0.45567">
        <ele>479.35</ele>
        <time>2016-12-11T07:47:14Z</time>
      </trkpt>
      <trkpt lat="43.11545" lon="-0.45565">
        <ele>479.35</ele>
        <time>2016-12-11T07:47:15Z</time>
      </trkpt>
      <trkpt lat="43.11547" lon="-0.45564">
        <ele>479.35</ele>
        <time>2016-12-11T07:47:16Z</time>
      </trkpt>
      <trkpt lat="43.11548" lon="-0.45564">
        <ele>479.84</ele>
        <time>2016-12-11T07:47:17Z</time>
      </trkpt>
      <trkpt lat="43.1155" lon="-0.45564">
        <ele>479.35</ele>
        <time>2016-12-11T07:47:18Z</time>
      </trkpt>
      <trkpt lat="43.11552" lon="-0.45564">
        <ele>479.35</ele>
        <time>2016-12-11T07:47:19Z</time>
      </trkpt>
      <trkpt lat="43.11555" lon="-0.45565">
        <ele>479.35</ele>
        <time>2016-12-11T07:47:20Z</time>
      </trkpt>
      <trkpt lat="43.11558" lon="-0.45564">
        <ele>479.35</ele>
        <time>2016-12-11T07:47:21Z</time>
      </trkpt>
      <trkpt lat="43.11571" lon="-0.45561">
        <ele>478.87</ele>
        <time>2016-12-11T07:47:24Z</time>
      </trkpt>
      <trkpt lat="43.11606" lon="-0.45541">
        <ele>479.84</ele>
        <time>2016-12-11T07:47:35Z</time>
      </trkpt>
      <trkpt lat="43.11607" lon="-0.45539">
        <ele>479.84</ele>
        <time>2016-12-11T07:47:36Z</time>
      </trkpt>
      <trkpt lat="43.11609" lon="-0.45537">
        <ele>480.32</ele>
        <time>2016-12-11T07:47:37Z</time>
      </trkpt>
      <trkpt lat="43.11625" lon="-0.45514">
        <ele>483.2</ele>
        <time>2016-12-11T07:47:48Z</time>
      </trkpt>
      <trkpt lat="43.11645" lon="-0.45473">
        <ele>481.28</ele>
        <time>2016-12-11T07:47:59Z</time>
      </trkpt>
      <trkpt lat="43.11655" lon="-0.45446">
        <ele>480.32</ele>
        <time>2016-12-11T07:48:02Z</time>
      </trkpt>
      <trkpt lat="43.11659" lon="-0.45438">
        <ele>479.35</ele>
        <time>2016-12-11T07:48:03Z</time>
      </trkpt>
      <trkpt lat="43.11664" lon="-0.45429">
        <ele>479.35</ele>
        <time>2016-12-11T07:48:04Z</time>
      </trkpt>
      <trkpt lat="43.11668" lon="-0.45421">
        <ele>479.35</ele>
        <time>2016-12-11T07:48:05Z</time>
      </trkpt>
      <trkpt lat="43.11671" lon="-0.45414">
        <ele>479.35</ele>
        <time>2016-12-11T07:48:06Z</time>
      </trkpt>
      <trkpt lat="43.11673" lon="-0.45407">
        <ele>478.87</ele>
        <time>2016-12-11T07:48:07Z</time>
      </trkpt>
      <trkpt lat="43.11681" lon="-0.45373">
        <ele>480.8</ele>
        <time>2016-12-11T07:48:15Z</time>
      </trkpt>
      <trkpt lat="43.11683" lon="-0.45342">
        <ele>484.16</ele>
        <time>2016-12-11T07:48:24Z</time>
      </trkpt>
      <trkpt lat="43.11682" lon="-0.45339">
        <ele>484.16</ele>
        <time>2016-12-11T07:48:25Z</time>
      </trkpt>
      <trkpt lat="43.11679" lon="-0.45307">
        <ele>487.05</ele>
        <time>2016-12-11T07:48:36Z</time>
      </trkpt>
      <trkpt lat="43.11677" lon="-0.45278">
        <ele>489.93</ele>
        <time>2016-12-11T07:48:46Z</time>
      </trkpt>
      <trkpt lat="43.11677" lon="-0.45275">
        <ele>489.45</ele>
        <time>2016-12-11T07:48:47Z</time>
      </trkpt>
      <trkpt lat="43.11677" lon="-0.45272">
        <ele>490.41</ele>
        <time>2016-12-11T07:48:48Z</time>
      </trkpt>
      <trkpt lat="43.11678" lon="-0.45269">
        <ele>490.41</ele>
        <time>2016-12-11T07:48:49Z</time>
      </trkpt>
      <trkpt lat="43.11678" lon="-0.45267">
        <ele>490.89</ele>
        <time>2016-12-11T07:48:50Z</time>
      </trkpt>
      <trkpt lat="43.11678" lon="-0.45264">
        <ele>491.37</ele>
        <time>2016-12-11T07:48:51Z</time>
      </trkpt>
      <trkpt lat="43.11679" lon="-0.45261">
        <ele>490.89</ele>
        <time>2016-12-11T07:48:52Z</time>
      </trkpt>
      <trkpt lat="43.11683" lon="-0.45224">
        <ele>493.29</ele>
        <time>2016-12-11T07:49:05Z</time>
      </trkpt>
      <trkpt lat="43.11694" lon="-0.45184">
        <ele>493.77</ele>
        <time>2016-12-11T07:49:17Z</time>
      </trkpt>
      <trkpt lat="43.11702" lon="-0.45127">
        <ele>494.74</ele>
        <time>2016-12-11T07:49:29Z</time>
      </trkpt>
      <trkpt lat="43.11706" lon="-0.45103">
        <ele>495.7</ele>
        <time>2016-12-11T07:49:35Z</time>
      </trkpt>
      <trkpt lat="43.1171" lon="-0.45097">
        <ele>496.18</ele>
        <time>2016-12-11T07:49:37Z</time>
      </trkpt>
      <trkpt lat="43.11713" lon="-0.45095">
        <ele>495.7</ele>
        <time>2016-12-11T07:49:38Z</time>
      </trkpt>
      <trkpt lat="43.11716" lon="-0.45092">
        <ele>495.7</ele>
        <time>2016-12-11T07:49:39Z</time>
      </trkpt>
      <trkpt lat="43.11751" lon="-0.45055">
        <ele>494.74</ele>
        <time>2016-12-11T07:49:48Z</time>
      </trkpt>
      <trkpt lat="43.11755" lon="-0.45052">
        <ele>494.74</ele>
        <time>2016-12-11T07:49:49Z</time>
      </trkpt>
      <trkpt lat="43.1176" lon="-0.45049">
        <ele>494.74</ele>
        <time>2016-12-11T07:49:50Z</time>
      </trkpt>
      <trkpt lat="43.11784" lon="-0.4503">
        <ele>494.74</ele>
        <time>2016-12-11T07:49:56Z</time>
      </trkpt>
      <trkpt lat="43.11792" lon="-0.45024">
        <ele>494.74</ele>
        <time>2016-12-11T07:49:58Z</time>
      </trkpt>
      <trkpt lat="43.11796" lon="-0.45022">
        <ele>495.22</ele>
        <time>2016-12-11T07:49:59Z</time>
      </trkpt>
      <trkpt lat="43.11821" lon="-0.45">
        <ele>494.74</ele>
        <time>2016-12-11T07:50:06Z</time>
      </trkpt>
      <trkpt lat="43.11824" lon="-0.44995">
        <ele>494.74</ele>
        <time>2016-12-11T07:50:07Z</time>
      </trkpt>
      <trkpt lat="43.11825" lon="-0.44989">
        <ele>494.74</ele>
        <time>2016-12-11T07:50:08Z</time>
      </trkpt>
      <trkpt lat="43.11824" lon="-0.44984">
        <ele>494.74</ele>
        <time>2016-12-11T07:50:09Z</time>
      </trkpt>
      <trkpt lat="43.11822" lon="-0.4498">
        <ele>494.74</ele>
        <time>2016-12-11T07:50:10Z</time>
      </trkpt>
      <trkpt lat="43.11819" lon="-0.44978">
        <ele>494.74</ele>
        <time>2016-12-11T07:50:11Z</time>
      </trkpt>
      <trkpt lat="43.11817" lon="-0.44975">
        <ele>495.7</ele>
        <time>2016-12-11T07:50:12Z</time>
      </trkpt>
      <trkpt lat="43.11815" lon="-0.44972">
        <ele>496.18</ele>
        <time>2016-12-11T07:50:13Z</time>
      </trkpt>
      <trkpt lat="43.11813" lon="-0.44968">
        <ele>496.18</ele>
        <time>2016-12-11T07:50:14Z</time>
      </trkpt>
      <trkpt lat="43.11811" lon="-0.44965">
        <ele>496.66</ele>
        <time>2016-12-11T07:50:15Z</time>
      </trkpt>
      <trkpt lat="43.11811" lon="-0.44962">
        <ele>497.14</ele>
        <time>2016-12-11T07:50:16Z</time>
      </trkpt>
      <trkpt lat="43.11811" lon="-0.44959">
        <ele>497.62</ele>
        <time>2016-12-11T07:50:17Z</time>
      </trkpt>
      <trkpt lat="43.11811" lon="-0.44956">
        <ele>497.62</ele>
        <time>2016-12-11T07:50:18Z</time>
      </trkpt>
      <trkpt lat="43.1181" lon="-0.44953">
        <ele>498.1</ele>
        <time>2016-12-11T07:50:19Z</time>
      </trkpt>
      <trkpt lat="43.11809" lon="-0.4495">
        <ele>498.1</ele>
        <time>2016-12-11T07:50:20Z</time>
      </trkpt>
      <trkpt lat="43.11809" lon="-0.44946">
        <ele>498.58</ele>
        <time>2016-12-11T07:50:21Z</time>
      </trkpt>
      <trkpt lat="43.11807" lon="-0.44943">
        <ele>498.1</ele>
        <time>2016-12-11T07:50:22Z</time>
      </trkpt>
      <trkpt lat="43.11782" lon="-0.44915">
        <ele>500.02</ele>
        <time>2016-12-11T07:50:33Z</time>
      </trkpt>
      <trkpt lat="43.11737" lon="-0.44905">
        <ele>502.43</ele>
        <time>2016-12-11T07:50:48Z</time>
      </trkpt>
      <trkpt lat="43.11707" lon="-0.44897">
        <ele>505.31</ele>
        <time>2016-12-11T07:50:59Z</time>
      </trkpt>
      <trkpt lat="43.11682" lon="-0.44899">
        <ele>508.67</ele>
        <time>2016-12-11T07:51:09Z</time>
      </trkpt>
      <trkpt lat="43.11644" lon="-0.44897">
        <ele>509.16</ele>
        <time>2016-12-11T07:51:24Z</time>
      </trkpt>
      <trkpt lat="43.11611" lon="-0.44886">
        <ele>511.56</ele>
        <time>2016-12-11T07:51:37Z</time>
      </trkpt>
      <trkpt lat="43.11609" lon="-0.44887">
        <ele>512.52</ele>
        <time>2016-12-11T07:51:38Z</time>
      </trkpt>
      <trkpt lat="43.11582" lon="-0.44891">
        <ele>513</ele>
        <time>2016-12-11T07:51:50Z</time>
      </trkpt>
      <trkpt lat="43.11551" lon="-0.44896">
        <ele>513.96</ele>
        <time>2016-12-11T07:52:03Z</time>
      </trkpt>
      <trkpt lat="43.11517" lon="-0.44904">
        <ele>514.92</ele>
        <time>2016-12-11T07:52:18Z</time>
      </trkpt>
      <trkpt lat="43.11505" lon="-0.44906">
        <ele>516.37</ele>
        <time>2016-12-11T07:52:32Z</time>
      </trkpt>
      <trkpt lat="43.11501" lon="-0.44909">
        <ele>516.85</ele>
        <time>2016-12-11T07:52:48Z</time>
      </trkpt>
      <trkpt lat="43.11485" lon="-0.44908">
        <ele>513.48</ele>
        <time>2016-12-11T07:52:56Z</time>
      </trkpt>
      <trkpt lat="43.11477" lon="-0.44906">
        <ele>510.6</ele>
        <time>2016-12-11T07:52:58Z</time>
      </trkpt>
      <trkpt lat="43.11473" lon="-0.44904">
        <ele>508.19</ele>
        <time>2016-12-11T07:52:59Z</time>
      </trkpt>
      <trkpt lat="43.11468" lon="-0.44902">
        <ele>506.75</ele>
        <time>2016-12-11T07:53:00Z</time>
      </trkpt>
      <trkpt lat="43.11463" lon="-0.449">
        <ele>505.31</ele>
        <time>2016-12-11T07:53:01Z</time>
      </trkpt>
      <trkpt lat="43.1144" lon="-0.44899">
        <ele>500.98</ele>
        <time>2016-12-11T07:53:04Z</time>
      </trkpt>
      <trkpt lat="43.11433" lon="-0.44899">
        <ele>500.02</ele>
        <time>2016-12-11T07:53:05Z</time>
      </trkpt>
      <trkpt lat="43.11406" lon="-0.44887">
        <ele>496.18</ele>
        <time>2016-12-11T07:53:09Z</time>
      </trkpt>
      <trkpt lat="43.11389" lon="-0.4487">
        <ele>491.85</ele>
        <time>2016-12-11T07:53:12Z</time>
      </trkpt>
      <trkpt lat="43.11377" lon="-0.44881">
        <ele>488.01</ele>
        <time>2016-12-11T07:53:17Z</time>
      </trkpt>
      <trkpt lat="43.11375" lon="-0.44887">
        <ele>485.6</ele>
        <time>2016-12-11T07:53:19Z</time>
      </trkpt>
      <trkpt lat="43.11364" lon="-0.44913">
        <ele>478.87</ele>
        <time>2016-12-11T07:53:23Z</time>
      </trkpt>
      <trkpt lat="43.11363" lon="-0.44934">
        <ele>475.03</ele>
        <time>2016-12-11T07:53:26Z</time>
      </trkpt>
      <trkpt lat="43.11364" lon="-0.44949">
        <ele>471.66</ele>
        <time>2016-12-11T07:53:30Z</time>
      </trkpt>
      <trkpt lat="43.1136" lon="-0.44953">
        <ele>471.18</ele>
        <time>2016-12-11T07:53:31Z</time>
      </trkpt>
      <trkpt lat="43.11346" lon="-0.44966">
        <ele>466.86</ele>
        <time>2016-12-11T07:53:34Z</time>
      </trkpt>
      <trkpt lat="43.11341" lon="-0.44971">
        <ele>465.42</ele>
        <time>2016-12-11T07:53:35Z</time>
      </trkpt>
      <trkpt lat="43.11328" lon="-0.44989">
        <ele>461.09</ele>
        <time>2016-12-11T07:53:39Z</time>
      </trkpt>
      <trkpt lat="43.11323" lon="-0.44999">
        <ele>459.65</ele>
        <time>2016-12-11T07:53:42Z</time>
      </trkpt>
      <trkpt lat="43.1132" lon="-0.45002">
        <ele>458.69</ele>
        <time>2016-12-11T07:53:44Z</time>
      </trkpt>
      <trkpt lat="43.11308" lon="-0.45008">
        <ele>456.76</ele>
        <time>2016-12-11T07:53:49Z</time>
      </trkpt>
      <trkpt lat="43.11279" lon="-0.45008">
        <ele>455.32</ele>
        <time>2016-12-11T07:53:57Z</time>
      </trkpt>
      <trkpt lat="43.11269" lon="-0.45">
        <ele>455.32</ele>
        <time>2016-12-11T07:54:01Z</time>
      </trkpt>
      <trkpt lat="43.11261" lon="-0.44986">
        <ele>453.88</ele>
        <time>2016-12-11T07:54:05Z</time>
      </trkpt>
      <trkpt lat="43.11244" lon="-0.44955">
        <ele>451</ele>
        <time>2016-12-11T07:54:10Z</time>
      </trkpt>
      <trkpt lat="43.11238" lon="-0.44946">
        <ele>451</ele>
        <time>2016-12-11T07:54:11Z</time>
      </trkpt>
      <trkpt lat="43.11226" lon="-0.4491">
        <ele>449.55</ele>
        <time>2016-12-11T07:54:15Z</time>
      </trkpt>
      <trkpt lat="43.11223" lon="-0.44862">
        <ele>446.67</ele>
        <time>2016-12-11T07:54:21Z</time>
      </trkpt>
      <trkpt lat="43.11208" lon="-0.44801">
        <ele>446.67</ele>
        <time>2016-12-11T07:54:31Z</time>
      </trkpt>
      <trkpt lat="43.11199" lon="-0.44742">
        <ele>449.07</ele>
        <time>2016-12-11T07:54:44Z</time>
      </trkpt>
      <trkpt lat="43.11195" lon="-0.44704">
        <ele>451</ele>
        <time>2016-12-11T07:54:53Z</time>
      </trkpt>
      <trkpt lat="43.112" lon="-0.44674">
        <ele>450.03</ele>
        <time>2016-12-11T07:55:00Z</time>
      </trkpt>
      <trkpt lat="43.11199" lon="-0.44624">
        <ele>449.07</ele>
        <time>2016-12-11T07:55:10Z</time>
      </trkpt>
      <trkpt lat="43.11198" lon="-0.4461">
        <ele>449.55</ele>
        <time>2016-12-11T07:55:13Z</time>
      </trkpt>
      <trkpt lat="43.11184" lon="-0.44565">
        <ele>451</ele>
        <time>2016-12-11T07:55:24Z</time>
      </trkpt>
      <trkpt lat="43.11184" lon="-0.44561">
        <ele>451.48</ele>
        <time>2016-12-11T07:55:25Z</time>
      </trkpt>
      <trkpt lat="43.11185" lon="-0.44543">
        <ele>451</ele>
        <time>2016-12-11T07:55:29Z</time>
      </trkpt>
      <trkpt lat="43.11182" lon="-0.44513">
        <ele>449.55</ele>
        <time>2016-12-11T07:55:33Z</time>
      </trkpt>
      <trkpt lat="43.11179" lon="-0.44497">
        <ele>448.11</ele>
        <time>2016-12-11T07:55:35Z</time>
      </trkpt>
      <trkpt lat="43.11175" lon="-0.44481">
        <ele>447.63</ele>
        <time>2016-12-11T07:55:37Z</time>
      </trkpt>
      <trkpt lat="43.11156" lon="-0.44413">
        <ele>444.75</ele>
        <time>2016-12-11T07:55:48Z</time>
      </trkpt>
      <trkpt lat="43.11155" lon="-0.44409">
        <ele>444.75</ele>
        <time>2016-12-11T07:55:49Z</time>
      </trkpt>
      <trkpt lat="43.11141" lon="-0.44371">
        <ele>446.19</ele>
        <time>2016-12-11T07:55:58Z</time>
      </trkpt>
      <trkpt lat="43.11119" lon="-0.44344">
        <ele>449.07</ele>
        <time>2016-12-11T07:56:09Z</time>
      </trkpt>
      <trkpt lat="43.11112" lon="-0.44334">
        <ele>449.07</ele>
        <time>2016-12-11T07:56:14Z</time>
      </trkpt>
      <trkpt lat="43.11088" lon="-0.44294">
        <ele>448.11</ele>
        <time>2016-12-11T07:56:26Z</time>
      </trkpt>
      <trkpt lat="43.11087" lon="-0.4429">
        <ele>448.11</ele>
        <time>2016-12-11T07:56:27Z</time>
      </trkpt>
      <trkpt lat="43.1108" lon="-0.4428">
        <ele>447.15</ele>
        <time>2016-12-11T07:56:30Z</time>
      </trkpt>
      <trkpt lat="43.11076" lon="-0.44277">
        <ele>445.71</ele>
        <time>2016-12-11T07:56:31Z</time>
      </trkpt>
      <trkpt lat="43.11072" lon="-0.44274">
        <ele>444.27</ele>
        <time>2016-12-11T07:56:32Z</time>
      </trkpt>
      <trkpt lat="43.11068" lon="-0.44271">
        <ele>443.79</ele>
        <time>2016-12-11T07:56:33Z</time>
      </trkpt>
      <trkpt lat="43.11061" lon="-0.44265">
        <ele>441.86</ele>
        <time>2016-12-11T07:56:35Z</time>
      </trkpt>
      <trkpt lat="43.11045" lon="-0.44262">
        <ele>438.02</ele>
        <time>2016-12-11T07:56:40Z</time>
      </trkpt>
      <trkpt lat="43.11037" lon="-0.44251">
        <ele>435.61</ele>
        <time>2016-12-11T07:56:43Z</time>
      </trkpt>
      <trkpt lat="43.11033" lon="-0.44246">
        <ele>434.65</ele>
        <time>2016-12-11T07:56:44Z</time>
      </trkpt>
      <trkpt lat="43.1103" lon="-0.44242">
        <ele>433.69</ele>
        <time>2016-12-11T07:56:45Z</time>
      </trkpt>
      <trkpt lat="43.11026" lon="-0.44239">
        <ele>432.73</ele>
        <time>2016-12-11T07:56:46Z</time>
      </trkpt>
      <trkpt lat="43.11021" lon="-0.44237">
        <ele>432.25</ele>
        <time>2016-12-11T07:56:47Z</time>
      </trkpt>
      <trkpt lat="43.11015" lon="-0.44235">
        <ele>430.81</ele>
        <time>2016-12-11T07:56:48Z</time>
      </trkpt>
      <trkpt lat="43.1101" lon="-0.44233">
        <ele>429.37</ele>
        <time>2016-12-11T07:56:49Z</time>
      </trkpt>
      <trkpt lat="43.11006" lon="-0.4423">
        <ele>427.92</ele>
        <time>2016-12-11T07:56:50Z</time>
      </trkpt>
      <trkpt lat="43.11003" lon="-0.44226">
        <ele>427.44</ele>
        <time>2016-12-11T07:56:51Z</time>
      </trkpt>
      <trkpt lat="43.11" lon="-0.4422">
        <ele>426.48</ele>
        <time>2016-12-11T07:56:52Z</time>
      </trkpt>
      <trkpt lat="43.10996" lon="-0.44213">
        <ele>426</ele>
        <time>2016-12-11T07:56:53Z</time>
      </trkpt>
      <trkpt lat="43.10992" lon="-0.44207">
        <ele>424.08</ele>
        <time>2016-12-11T07:56:54Z</time>
      </trkpt>
      <trkpt lat="43.10989" lon="-0.442">
        <ele>423.6</ele>
        <time>2016-12-11T07:56:55Z</time>
      </trkpt>
      <trkpt lat="43.10987" lon="-0.44194">
        <ele>422.64</ele>
        <time>2016-12-11T07:56:56Z</time>
      </trkpt>
      <trkpt lat="43.10986" lon="-0.44187">
        <ele>422.16</ele>
        <time>2016-12-11T07:56:57Z</time>
      </trkpt>
      <trkpt lat="43.10985" lon="-0.4418">
        <ele>420.71</ele>
        <time>2016-12-11T07:56:58Z</time>
      </trkpt>
      <trkpt lat="43.10983" lon="-0.44173">
        <ele>419.27</ele>
        <time>2016-12-11T07:56:59Z</time>
      </trkpt>
      <trkpt lat="43.10983" lon="-0.44164">
        <ele>419.75</ele>
        <time>2016-12-11T07:57:00Z</time>
      </trkpt>
      <trkpt lat="43.10984" lon="-0.44155">
        <ele>418.31</ele>
        <time>2016-12-11T07:57:01Z</time>
      </trkpt>
      <trkpt lat="43.10985" lon="-0.44145">
        <ele>418.31</ele>
        <time>2016-12-11T07:57:02Z</time>
      </trkpt>
      <trkpt lat="43.10986" lon="-0.44134">
        <ele>418.31</ele>
        <time>2016-12-11T07:57:03Z</time>
      </trkpt>
      <trkpt lat="43.10985" lon="-0.44117">
        <ele>415.43</ele>
        <time>2016-12-11T07:57:05Z</time>
      </trkpt>
      <trkpt lat="43.10984" lon="-0.44099">
        <ele>413.98</ele>
        <time>2016-12-11T07:57:13Z</time>
      </trkpt>
      <trkpt lat="43.10986" lon="-0.44095">
        <ele>413.5</ele>
        <time>2016-12-11T07:57:43Z</time>
      </trkpt>
      <trkpt lat="43.10984" lon="-0.4409">
        <ele>413.02</ele>
        <time>2016-12-11T07:57:55Z</time>
      </trkpt>
      <trkpt lat="43.10984" lon="-0.44086">
        <ele>413.02</ele>
        <time>2016-12-11T07:57:56Z</time>
      </trkpt>
      <trkpt lat="43.10983" lon="-0.4408">
        <ele>413.02</ele>
        <time>2016-12-11T07:57:57Z</time>
      </trkpt>
      <trkpt lat="43.1098" lon="-0.44021">
        <ele>409.66</ele>
        <time>2016-12-11T07:58:04Z</time>
      </trkpt>
      <trkpt lat="43.10975" lon="-0.43976">
        <ele>407.26</ele>
        <time>2016-12-11T07:58:08Z</time>
      </trkpt>
      <trkpt lat="43.1097" lon="-0.43952">
        <ele>403.89</ele>
        <time>2016-12-11T07:58:10Z</time>
      </trkpt>
      <trkpt lat="43.10964" lon="-0.43894">
        <ele>402.45</ele>
        <time>2016-12-11T07:58:15Z</time>
      </trkpt>
      <trkpt lat="43.10969" lon="-0.43884">
        <ele>402.45</ele>
        <time>2016-12-11T07:58:16Z</time>
      </trkpt>
      <trkpt lat="43.10993" lon="-0.43838">
        <ele>398.6</ele>
        <time>2016-12-11T07:58:20Z</time>
      </trkpt>
      <trkpt lat="43.11024" lon="-0.43783">
        <ele>395.24</ele>
        <time>2016-12-11T07:58:25Z</time>
      </trkpt>
      <trkpt lat="43.11031" lon="-0.43775">
        <ele>395.24</ele>
        <time>2016-12-11T07:58:26Z</time>
      </trkpt>
      <trkpt lat="43.11044" lon="-0.43761">
        <ele>394.28</ele>
        <time>2016-12-11T07:58:28Z</time>
      </trkpt>
      <trkpt lat="43.11052" lon="-0.43757">
        <ele>393.8</ele>
        <time>2016-12-11T07:58:29Z</time>
      </trkpt>
      <trkpt lat="43.1106" lon="-0.43756">
        <ele>394.28</ele>
        <time>2016-12-11T07:58:30Z</time>
      </trkpt>
      <trkpt lat="43.11067" lon="-0.43758">
        <ele>393.8</ele>
        <time>2016-12-11T07:58:31Z</time>
      </trkpt>
      <trkpt lat="43.11073" lon="-0.43759">
        <ele>393.32</ele>
        <time>2016-12-11T07:58:32Z</time>
      </trkpt>
      <trkpt lat="43.11078" lon="-0.43757">
        <ele>392.84</ele>
        <time>2016-12-11T07:58:33Z</time>
      </trkpt>
      <trkpt lat="43.11072" lon="-0.43745">
        <ele>392.36</ele>
        <time>2016-12-11T07:58:37Z</time>
      </trkpt>
      <trkpt lat="43.11053" lon="-0.43734">
        <ele>394.28</ele>
        <time>2016-12-11T07:58:42Z</time>
      </trkpt>
      <trkpt lat="43.1105" lon="-0.43731">
        <ele>394.28</ele>
        <time>2016-12-11T07:58:43Z</time>
      </trkpt>
      <trkpt lat="43.11047" lon="-0.43727">
        <ele>394.76</ele>
        <time>2016-12-11T07:58:44Z</time>
      </trkpt>
      <trkpt lat="43.11044" lon="-0.43723">
        <ele>394.76</ele>
        <time>2016-12-11T07:58:45Z</time>
      </trkpt>
      <trkpt lat="43.11041" lon="-0.43719">
        <ele>395.24</ele>
        <time>2016-12-11T07:58:46Z</time>
      </trkpt>
      <trkpt lat="43.11015" lon="-0.43674">
        <ele>396.2</ele>
        <time>2016-12-11T07:58:56Z</time>
      </trkpt>
      <trkpt lat="43.11013" lon="-0.43669">
        <ele>396.2</ele>
        <time>2016-12-11T07:58:57Z</time>
      </trkpt>
      <trkpt lat="43.11012" lon="-0.43663">
        <ele>396.68</ele>
        <time>2016-12-11T07:58:58Z</time>
      </trkpt>
      <trkpt lat="43.11011" lon="-0.43658">
        <ele>396.68</ele>
        <time>2016-12-11T07:58:59Z</time>
      </trkpt>
      <trkpt lat="43.1101" lon="-0.43652">
        <ele>396.68</ele>
        <time>2016-12-11T07:59:00Z</time>
      </trkpt>
      <trkpt lat="43.11005" lon="-0.43615">
        <ele>398.6</ele>
        <time>2016-12-11T07:59:07Z</time>
      </trkpt>
      <trkpt lat="43.11003" lon="-0.4361">
        <ele>399.57</ele>
        <time>2016-12-11T07:59:08Z</time>
      </trkpt>
      <trkpt lat="43.11001" lon="-0.43606">
        <ele>399.57</ele>
        <time>2016-12-11T07:59:09Z</time>
      </trkpt>
      <trkpt lat="43.10998" lon="-0.43602">
        <ele>400.05</ele>
        <time>2016-12-11T07:59:10Z</time>
      </trkpt>
      <trkpt lat="43.10996" lon="-0.43598">
        <ele>400.05</ele>
        <time>2016-12-11T07:59:11Z</time>
      </trkpt>
      <trkpt lat="43.10978" lon="-0.43583">
        <ele>402.93</ele>
        <time>2016-12-11T07:59:17Z</time>
      </trkpt>
      <trkpt lat="43.10975" lon="-0.43581">
        <ele>402.93</ele>
        <time>2016-12-11T07:59:18Z</time>
      </trkpt>
      <trkpt lat="43.10961" lon="-0.43577">
        <ele>404.37</ele>
        <time>2016-12-11T07:59:22Z</time>
      </trkpt>
      <trkpt lat="43.10912" lon="-0.4356">
        <ele>406.77</ele>
        <time>2016-12-11T07:59:36Z</time>
      </trkpt>
      <trkpt lat="43.10856" lon="-0.43541">
        <ele>409.18</ele>
        <time>2016-12-11T07:59:50Z</time>
      </trkpt>
      <trkpt lat="43.10832" lon="-0.43533">
        <ele>410.14</ele>
        <time>2016-12-11T07:59:56Z</time>
      </trkpt>
      <trkpt lat="43.10794" lon="-0.43536">
        <ele>410.14</ele>
        <time>2016-12-11T08:00:05Z</time>
      </trkpt>
      <trkpt lat="43.1072" lon="-0.43555">
        <ele>411.1</ele>
        <time>2016-12-11T08:00:21Z</time>
      </trkpt>
      <trkpt lat="43.10708" lon="-0.4356">
        <ele>411.58</ele>
        <time>2016-12-11T08:00:24Z</time>
      </trkpt>
      <trkpt lat="43.10696" lon="-0.43567">
        <ele>411.1</ele>
        <time>2016-12-11T08:00:27Z</time>
      </trkpt>
      <trkpt lat="43.10691" lon="-0.43569">
        <ele>411.1</ele>
        <time>2016-12-11T08:00:28Z</time>
      </trkpt>
      <trkpt lat="43.10687" lon="-0.43571">
        <ele>411.1</ele>
        <time>2016-12-11T08:00:29Z</time>
      </trkpt>
      <trkpt lat="43.1062" lon="-0.43572">
        <ele>410.14</ele>
        <time>2016-12-11T08:00:42Z</time>
      </trkpt>
      <trkpt lat="43.10546" lon="-0.43558">
        <ele>411.58</ele>
        <time>2016-12-11T08:00:57Z</time>
      </trkpt>
      <trkpt lat="43.10531" lon="-0.43558">
        <ele>411.58</ele>
        <time>2016-12-11T08:01:00Z</time>
      </trkpt>
      <trkpt lat="43.10446" lon="-0.43547">
        <ele>412.54</ele>
        <time>2016-12-11T08:01:17Z</time>
      </trkpt>
      <trkpt lat="43.10395" lon="-0.43535">
        <ele>411.1</ele>
        <time>2016-12-11T08:01:27Z</time>
      </trkpt>
      <trkpt lat="43.1039" lon="-0.43536">
        <ele>411.1</ele>
        <time>2016-12-11T08:01:28Z</time>
      </trkpt>
      <trkpt lat="43.10386" lon="-0.43539">
        <ele>410.62</ele>
        <time>2016-12-11T08:01:29Z</time>
      </trkpt>
      <trkpt lat="43.10382" lon="-0.43544">
        <ele>411.1</ele>
        <time>2016-12-11T08:01:30Z</time>
      </trkpt>
      <trkpt lat="43.1038" lon="-0.4355">
        <ele>411.58</ele>
        <time>2016-12-11T08:01:31Z</time>
      </trkpt>
      <trkpt lat="43.10378" lon="-0.43557">
        <ele>411.58</ele>
        <time>2016-12-11T08:01:32Z</time>
      </trkpt>
      <trkpt lat="43.10376" lon="-0.43563">
        <ele>411.58</ele>
        <time>2016-12-11T08:01:33Z</time>
      </trkpt>
      <trkpt lat="43.10349" lon="-0.43663">
        <ele>411.58</ele>
        <time>2016-12-11T08:01:48Z</time>
      </trkpt>
      <trkpt lat="43.10347" lon="-0.4367">
        <ele>411.58</ele>
        <time>2016-12-11T08:01:49Z</time>
      </trkpt>
      <trkpt lat="43.1033" lon="-0.43715">
        <ele>412.54</ele>
        <time>2016-12-11T08:01:56Z</time>
      </trkpt>
      <trkpt lat="43.10326" lon="-0.43719">
        <ele>412.54</ele>
        <time>2016-12-11T08:01:57Z</time>
      </trkpt>
      <trkpt lat="43.10322" lon="-0.43723">
        <ele>412.54</ele>
        <time>2016-12-11T08:01:58Z</time>
      </trkpt>
      <trkpt lat="43.10318" lon="-0.43727">
        <ele>412.54</ele>
        <time>2016-12-11T08:01:59Z</time>
      </trkpt>
      <trkpt lat="43.10313" lon="-0.43729">
        <ele>413.02</ele>
        <time>2016-12-11T08:02:00Z</time>
      </trkpt>
      <trkpt lat="43.10308" lon="-0.43731">
        <ele>413.5</ele>
        <time>2016-12-11T08:02:01Z</time>
      </trkpt>
      <trkpt lat="43.10303" lon="-0.43733">
        <ele>413.5</ele>
        <time>2016-12-11T08:02:02Z</time>
      </trkpt>
      <trkpt lat="43.10278" lon="-0.43741">
        <ele>413.5</ele>
        <time>2016-12-11T08:02:07Z</time>
      </trkpt>
      <trkpt lat="43.10274" lon="-0.43744">
        <ele>413.5</ele>
        <time>2016-12-11T08:02:08Z</time>
      </trkpt>
      <trkpt lat="43.1027" lon="-0.43749">
        <ele>413.98</ele>
        <time>2016-12-11T08:02:09Z</time>
      </trkpt>
      <trkpt lat="43.10266" lon="-0.43755">
        <ele>413.5</ele>
        <time>2016-12-11T08:02:10Z</time>
      </trkpt>
      <trkpt lat="43.10263" lon="-0.4376">
        <ele>413.98</ele>
        <time>2016-12-11T08:02:11Z</time>
      </trkpt>
      <trkpt lat="43.10233" lon="-0.43819">
        <ele>413.98</ele>
        <time>2016-12-11T08:02:21Z</time>
      </trkpt>
      <trkpt lat="43.10225" lon="-0.43828">
        <ele>414.47</ele>
        <time>2016-12-11T08:02:23Z</time>
      </trkpt>
      <trkpt lat="43.10207" lon="-0.43843">
        <ele>414.47</ele>
        <time>2016-12-11T08:02:27Z</time>
      </trkpt>
      <trkpt lat="43.10203" lon="-0.43848">
        <ele>414.47</ele>
        <time>2016-12-11T08:02:28Z</time>
      </trkpt>
      <trkpt lat="43.10164" lon="-0.43908">
        <ele>413.98</ele>
        <time>2016-12-11T08:02:39Z</time>
      </trkpt>
      <trkpt lat="43.1016" lon="-0.43913">
        <ele>414.47</ele>
        <time>2016-12-11T08:02:40Z</time>
      </trkpt>
      <trkpt lat="43.10156" lon="-0.43919">
        <ele>413.98</ele>
        <time>2016-12-11T08:02:41Z</time>
      </trkpt>
      <trkpt lat="43.10104" lon="-0.4402">
        <ele>414.47</ele>
        <time>2016-12-11T08:02:58Z</time>
      </trkpt>
      <trkpt lat="43.10055" lon="-0.44119">
        <ele>414.47</ele>
        <time>2016-12-11T08:03:15Z</time>
      </trkpt>
      <trkpt lat="43.10028" lon="-0.44171">
        <ele>412.54</ele>
        <time>2016-12-11T08:03:23Z</time>
      </trkpt>
      <trkpt lat="43.10025" lon="-0.4418">
        <ele>411.58</ele>
        <time>2016-12-11T08:03:24Z</time>
      </trkpt>
      <trkpt lat="43.10022" lon="-0.4419">
        <ele>411.58</ele>
        <time>2016-12-11T08:03:25Z</time>
      </trkpt>
      <trkpt lat="43.1002" lon="-0.44201">
        <ele>411.1</ele>
        <time>2016-12-11T08:03:26Z</time>
      </trkpt>
      <trkpt lat="43.10019" lon="-0.44213">
        <ele>410.14</ele>
        <time>2016-12-11T08:03:27Z</time>
      </trkpt>
      <trkpt lat="43.10018" lon="-0.44225">
        <ele>409.66</ele>
        <time>2016-12-11T08:03:28Z</time>
      </trkpt>
      <trkpt lat="43.10017" lon="-0.44237">
        <ele>409.18</ele>
        <time>2016-12-11T08:03:29Z</time>
      </trkpt>
      <trkpt lat="43.10002" lon="-0.44304">
        <ele>408.22</ele>
        <time>2016-12-11T08:03:36Z</time>
      </trkpt>
      <trkpt lat="43.09999" lon="-0.44311">
        <ele>408.22</ele>
        <time>2016-12-11T08:03:37Z</time>
      </trkpt>
      <trkpt lat="43.09995" lon="-0.44318">
        <ele>408.7</ele>
        <time>2016-12-11T08:03:38Z</time>
      </trkpt>
      <trkpt lat="43.09991" lon="-0.44324">
        <ele>408.7</ele>
        <time>2016-12-11T08:03:39Z</time>
      </trkpt>
      <trkpt lat="43.09986" lon="-0.44329">
        <ele>408.7</ele>
        <time>2016-12-11T08:03:40Z</time>
      </trkpt>
      <trkpt lat="43.09981" lon="-0.44333">
        <ele>409.66</ele>
        <time>2016-12-11T08:03:41Z</time>
      </trkpt>
      <trkpt lat="43.09916" lon="-0.44387">
        <ele>410.14</ele>
        <time>2016-12-11T08:03:55Z</time>
      </trkpt>
      <trkpt lat="43.09845" lon="-0.44431">
        <ele>411.58</ele>
        <time>2016-12-11T08:04:10Z</time>
      </trkpt>
      <trkpt lat="43.09821" lon="-0.44442">
        <ele>411.58</ele>
        <time>2016-12-11T08:04:15Z</time>
      </trkpt>
      <trkpt lat="43.09816" lon="-0.44444">
        <ele>412.06</ele>
        <time>2016-12-11T08:04:16Z</time>
      </trkpt>
      <trkpt lat="43.09737" lon="-0.44456">
        <ele>413.5</ele>
        <time>2016-12-11T08:04:32Z</time>
      </trkpt>
      <trkpt lat="43.09663" lon="-0.44439">
        <ele>413.02</ele>
        <time>2016-12-11T08:04:47Z</time>
      </trkpt>
      <trkpt lat="43.09642" lon="-0.44438">
        <ele>413.02</ele>
        <time>2016-12-11T08:04:51Z</time>
      </trkpt>
      <trkpt lat="43.09637" lon="-0.44439">
        <ele>412.54</ele>
        <time>2016-12-11T08:04:52Z</time>
      </trkpt>
      <trkpt lat="43.09633" lon="-0.44441">
        <ele>413.02</ele>
        <time>2016-12-11T08:04:53Z</time>
      </trkpt>
      <trkpt lat="43.09628" lon="-0.44442">
        <ele>413.02</ele>
        <time>2016-12-11T08:04:54Z</time>
      </trkpt>
      <trkpt lat="43.09624" lon="-0.44445">
        <ele>413.02</ele>
        <time>2016-12-11T08:04:55Z</time>
      </trkpt>
      <trkpt lat="43.09619" lon="-0.44448">
        <ele>412.54</ele>
        <time>2016-12-11T08:04:56Z</time>
      </trkpt>
      <trkpt lat="43.09615" lon="-0.44451">
        <ele>413.5</ele>
        <time>2016-12-11T08:04:57Z</time>
      </trkpt>
      <trkpt lat="43.09611" lon="-0.44454">
        <ele>413.5</ele>
        <time>2016-12-11T08:04:58Z</time>
      </trkpt>
      <trkpt lat="43.0959" lon="-0.44476">
        <ele>414.47</ele>
        <time>2016-12-11T08:05:04Z</time>
      </trkpt>
      <trkpt lat="43.09587" lon="-0.4448">
        <ele>414.47</ele>
        <time>2016-12-11T08:05:05Z</time>
      </trkpt>
      <trkpt lat="43.09584" lon="-0.44484">
        <ele>414.95</ele>
        <time>2016-12-11T08:05:06Z</time>
      </trkpt>
      <trkpt lat="43.09581" lon="-0.44486">
        <ele>415.43</ele>
        <time>2016-12-11T08:05:07Z</time>
      </trkpt>
      <trkpt lat="43.09578" lon="-0.44488">
        <ele>415.43</ele>
        <time>2016-12-11T08:05:08Z</time>
      </trkpt>
      <trkpt lat="43.0954" lon="-0.44493">
        <ele>416.39</ele>
        <time>2016-12-11T08:05:18Z</time>
      </trkpt>
      <trkpt lat="43.09536" lon="-0.44493">
        <ele>416.39</ele>
        <time>2016-12-11T08:05:19Z</time>
      </trkpt>
      <trkpt lat="43.09532" lon="-0.44493">
        <ele>416.39</ele>
        <time>2016-12-11T08:05:20Z</time>
      </trkpt>
      <trkpt lat="43.09528" lon="-0.44494">
        <ele>416.39</ele>
        <time>2016-12-11T08:05:21Z</time>
      </trkpt>
      <trkpt lat="43.09524" lon="-0.44494">
        <ele>416.87</ele>
        <time>2016-12-11T08:05:22Z</time>
      </trkpt>
      <trkpt lat="43.0952" lon="-0.44495">
        <ele>416.87</ele>
        <time>2016-12-11T08:05:23Z</time>
      </trkpt>
      <trkpt lat="43.09516" lon="-0.44496">
        <ele>416.39</ele>
        <time>2016-12-11T08:05:24Z</time>
      </trkpt>
      <trkpt lat="43.09472" lon="-0.44505">
        <ele>418.79</ele>
        <time>2016-12-11T08:05:36Z</time>
      </trkpt>
      <trkpt lat="43.0942" lon="-0.44511">
        <ele>420.23</ele>
        <time>2016-12-11T08:05:50Z</time>
      </trkpt>
      <trkpt lat="43.09379" lon="-0.44535">
        <ele>422.64</ele>
        <time>2016-12-11T08:06:03Z</time>
      </trkpt>
      <trkpt lat="43.09354" lon="-0.44554">
        <ele>425.52</ele>
        <time>2016-12-11T08:06:13Z</time>
      </trkpt>
      <trkpt lat="43.0932" lon="-0.44576">
        <ele>427.92</ele>
        <time>2016-12-11T08:06:27Z</time>
      </trkpt>
      <trkpt lat="43.0928" lon="-0.44603">
        <ele>429.85</ele>
        <time>2016-12-11T08:06:40Z</time>
      </trkpt>
      <trkpt lat="43.09244" lon="-0.44616">
        <ele>430.33</ele>
        <time>2016-12-11T08:06:51Z</time>
      </trkpt>
      <trkpt lat="43.09207" lon="-0.44619">
        <ele>430.81</ele>
        <time>2016-12-11T08:07:02Z</time>
      </trkpt>
      <trkpt lat="43.09169" lon="-0.44642">
        <ele>432.25</ele>
        <time>2016-12-11T08:07:14Z</time>
      </trkpt>
      <trkpt lat="43.09137" lon="-0.44677">
        <ele>433.69</ele>
        <time>2016-12-11T08:07:26Z</time>
      </trkpt>
      <trkpt lat="43.09108" lon="-0.44707">
        <ele>433.69</ele>
        <time>2016-12-11T08:07:37Z</time>
      </trkpt>
      <trkpt lat="43.09084" lon="-0.44751">
        <ele>435.13</ele>
        <time>2016-12-11T08:07:48Z</time>
      </trkpt>
      <trkpt lat="43.09076" lon="-0.44787">
        <ele>437.06</ele>
        <time>2016-12-11T08:07:57Z</time>
      </trkpt>
      <trkpt lat="43.0906" lon="-0.4483">
        <ele>438.5</ele>
        <time>2016-12-11T08:08:08Z</time>
      </trkpt>
      <trkpt lat="43.0903" lon="-0.44887">
        <ele>437.06</ele>
        <time>2016-12-11T08:08:21Z</time>
      </trkpt>
      <trkpt lat="43.09027" lon="-0.4489">
        <ele>437.06</ele>
        <time>2016-12-11T08:08:22Z</time>
      </trkpt>
      <trkpt lat="43.09017" lon="-0.44901">
        <ele>436.58</ele>
        <time>2016-12-11T08:08:25Z</time>
      </trkpt>
      <trkpt lat="43.0901" lon="-0.44906">
        <ele>437.06</ele>
        <time>2016-12-11T08:08:27Z</time>
      </trkpt>
      <trkpt lat="43.08969" lon="-0.4493">
        <ele>438.5</ele>
        <time>2016-12-11T08:08:39Z</time>
      </trkpt>
      <trkpt lat="43.08948" lon="-0.44945">
        <ele>437.54</ele>
        <time>2016-12-11T08:08:45Z</time>
      </trkpt>
      <trkpt lat="43.08934" lon="-0.44952">
        <ele>437.06</ele>
        <time>2016-12-11T08:08:48Z</time>
      </trkpt>
      <trkpt lat="43.0893" lon="-0.44955">
        <ele>437.06</ele>
        <time>2016-12-11T08:08:49Z</time>
      </trkpt>
      <trkpt lat="43.08927" lon="-0.4496">
        <ele>437.06</ele>
        <time>2016-12-11T08:08:50Z</time>
      </trkpt>
      <trkpt lat="43.08923" lon="-0.44964">
        <ele>437.54</ele>
        <time>2016-12-11T08:08:51Z</time>
      </trkpt>
      <trkpt lat="43.0892" lon="-0.44967">
        <ele>438.02</ele>
        <time>2016-12-11T08:08:52Z</time>
      </trkpt>
      <trkpt lat="43.08917" lon="-0.44969">
        <ele>438.02</ele>
        <time>2016-12-11T08:08:53Z</time>
      </trkpt>
      <trkpt lat="43.08914" lon="-0.4497">
        <ele>438.5</ele>
        <time>2016-12-11T08:08:54Z</time>
      </trkpt>
      <trkpt lat="43.08911" lon="-0.4497">
        <ele>438.5</ele>
        <time>2016-12-11T08:08:55Z</time>
      </trkpt>
      <trkpt lat="43.08909" lon="-0.44971">
        <ele>439.46</ele>
        <time>2016-12-11T08:08:56Z</time>
      </trkpt>
      <trkpt lat="43.08907" lon="-0.44972">
        <ele>439.46</ele>
        <time>2016-12-11T08:08:57Z</time>
      </trkpt>
      <trkpt lat="43.08905" lon="-0.44973">
        <ele>439.46</ele>
        <time>2016-12-11T08:08:58Z</time>
      </trkpt>
      <trkpt lat="43.08902" lon="-0.44975">
        <ele>439.46</ele>
        <time>2016-12-11T08:08:59Z</time>
      </trkpt>
      <trkpt lat="43.08899" lon="-0.44976">
        <ele>438.98</ele>
        <time>2016-12-11T08:09:00Z</time>
      </trkpt>
      <trkpt lat="43.08896" lon="-0.44977">
        <ele>439.46</ele>
        <time>2016-12-11T08:09:01Z</time>
      </trkpt>
      <trkpt lat="43.08892" lon="-0.44977">
        <ele>438.98</ele>
        <time>2016-12-11T08:09:02Z</time>
      </trkpt>
      <trkpt lat="43.08889" lon="-0.44977">
        <ele>439.46</ele>
        <time>2016-12-11T08:09:03Z</time>
      </trkpt>
      <trkpt lat="43.08886" lon="-0.44976">
        <ele>439.46</ele>
        <time>2016-12-11T08:09:04Z</time>
      </trkpt>
      <trkpt lat="43.08882" lon="-0.44976">
        <ele>438.98</ele>
        <time>2016-12-11T08:09:05Z</time>
      </trkpt>
      <trkpt lat="43.08869" lon="-0.44976">
        <ele>438.5</ele>
        <time>2016-12-11T08:09:09Z</time>
      </trkpt>
      <trkpt lat="43.08865" lon="-0.44952">
        <ele>436.1</ele>
        <time>2016-12-11T08:09:13Z</time>
      </trkpt>
      <trkpt lat="43.08861" lon="-0.44948">
        <ele>436.1</ele>
        <time>2016-12-11T08:09:14Z</time>
      </trkpt>
      <trkpt lat="43.08856" lon="-0.44947">
        <ele>435.61</ele>
        <time>2016-12-11T08:09:15Z</time>
      </trkpt>
      <trkpt lat="43.08851" lon="-0.44947">
        <ele>435.61</ele>
        <time>2016-12-11T08:09:16Z</time>
      </trkpt>
      <trkpt lat="43.08846" lon="-0.44947">
        <ele>435.13</ele>
        <time>2016-12-11T08:09:17Z</time>
      </trkpt>
      <trkpt lat="43.0884" lon="-0.44947">
        <ele>435.61</ele>
        <time>2016-12-11T08:09:18Z</time>
      </trkpt>
      <trkpt lat="43.08835" lon="-0.44946">
        <ele>435.13</ele>
        <time>2016-12-11T08:09:19Z</time>
      </trkpt>
      <trkpt lat="43.0883" lon="-0.44945">
        <ele>435.13</ele>
        <time>2016-12-11T08:09:20Z</time>
      </trkpt>
      <trkpt lat="43.08819" lon="-0.44915">
        <ele>434.65</ele>
        <time>2016-12-11T08:09:26Z</time>
      </trkpt>
      <trkpt lat="43.08815" lon="-0.44877">
        <ele>433.21</ele>
        <time>2016-12-11T08:09:31Z</time>
      </trkpt>
      <trkpt lat="43.08803" lon="-0.44852">
        <ele>431.29</ele>
        <time>2016-12-11T08:09:35Z</time>
      </trkpt>
      <trkpt lat="43.08801" lon="-0.44846">
        <ele>431.29</ele>
        <time>2016-12-11T08:09:36Z</time>
      </trkpt>
      <trkpt lat="43.08797" lon="-0.44841">
        <ele>430.81</ele>
        <time>2016-12-11T08:09:37Z</time>
      </trkpt>
      <trkpt lat="43.08793" lon="-0.44837">
        <ele>431.29</ele>
        <time>2016-12-11T08:09:38Z</time>
      </trkpt>
      <trkpt lat="43.0879" lon="-0.44833">
        <ele>431.29</ele>
        <time>2016-12-11T08:09:39Z</time>
      </trkpt>
      <trkpt lat="43.08787" lon="-0.4483">
        <ele>431.29</ele>
        <time>2016-12-11T08:09:40Z</time>
      </trkpt>
      <trkpt lat="43.08777" lon="-0.44809">
        <ele>430.81</ele>
        <time>2016-12-11T08:09:45Z</time>
      </trkpt>
      <trkpt lat="43.08771" lon="-0.4479">
        <ele>430.33</ele>
        <time>2016-12-11T08:09:48Z</time>
      </trkpt>
      <trkpt lat="43.08765" lon="-0.44771">
        <ele>429.85</ele>
        <time>2016-12-11T08:09:51Z</time>
      </trkpt>
      <trkpt lat="43.08763" lon="-0.44764">
        <ele>430.33</ele>
        <time>2016-12-11T08:09:52Z</time>
      </trkpt>
      <trkpt lat="43.08762" lon="-0.44757">
        <ele>429.85</ele>
        <time>2016-12-11T08:09:53Z</time>
      </trkpt>
      <trkpt lat="43.08761" lon="-0.44751">
        <ele>429.85</ele>
        <time>2016-12-11T08:09:54Z</time>
      </trkpt>
      <trkpt lat="43.0876" lon="-0.44744">
        <ele>429.37</ele>
        <time>2016-12-11T08:09:55Z</time>
      </trkpt>
      <trkpt lat="43.0876" lon="-0.44738">
        <ele>429.85</ele>
        <time>2016-12-11T08:09:56Z</time>
      </trkpt>
      <trkpt lat="43.0876" lon="-0.44732">
        <ele>429.85</ele>
        <time>2016-12-11T08:09:57Z</time>
      </trkpt>
      <trkpt lat="43.0876" lon="-0.44726">
        <ele>430.33</ele>
        <time>2016-12-11T08:09:58Z</time>
      </trkpt>
      <trkpt lat="43.0876" lon="-0.44719">
        <ele>429.85</ele>
        <time>2016-12-11T08:09:59Z</time>
      </trkpt>
      <trkpt lat="43.08759" lon="-0.44712">
        <ele>429.37</ele>
        <time>2016-12-11T08:10:00Z</time>
      </trkpt>
      <trkpt lat="43.08757" lon="-0.44637">
        <ele>429.85</ele>
        <time>2016-12-11T08:10:12Z</time>
      </trkpt>
      <trkpt lat="43.08738" lon="-0.44605">
        <ele>430.81</ele>
        <time>2016-12-11T08:10:20Z</time>
      </trkpt>
      <trkpt lat="43.08727" lon="-0.44595">
        <ele>430.81</ele>
        <time>2016-12-11T08:10:23Z</time>
      </trkpt>
      <trkpt lat="43.08713" lon="-0.44581">
        <ele>430.81</ele>
        <time>2016-12-11T08:10:27Z</time>
      </trkpt>
      <trkpt lat="43.0871" lon="-0.44576">
        <ele>430.81</ele>
        <time>2016-12-11T08:10:28Z</time>
      </trkpt>
      <trkpt lat="43.08709" lon="-0.44571">
        <ele>430.81</ele>
        <time>2016-12-11T08:10:29Z</time>
      </trkpt>
      <trkpt lat="43.08704" lon="-0.44545">
        <ele>431.77</ele>
        <time>2016-12-11T08:10:34Z</time>
      </trkpt>
      <trkpt lat="43.08693" lon="-0.445">
        <ele>432.25</ele>
        <time>2016-12-11T08:10:44Z</time>
      </trkpt>
      <trkpt lat="43.0869" lon="-0.44497">
        <ele>432.25</ele>
        <time>2016-12-11T08:10:45Z</time>
      </trkpt>
      <trkpt lat="43.08661" lon="-0.44481">
        <ele>433.21</ele>
        <time>2016-12-11T08:10:55Z</time>
      </trkpt>
      <trkpt lat="43.08647" lon="-0.44456">
        <ele>433.69</ele>
        <time>2016-12-11T08:11:00Z</time>
      </trkpt>
      <trkpt lat="43.08644" lon="-0.44452">
        <ele>433.69</ele>
        <time>2016-12-11T08:11:01Z</time>
      </trkpt>
      <trkpt lat="43.08641" lon="-0.44446">
        <ele>433.69</ele>
        <time>2016-12-11T08:11:02Z</time>
      </trkpt>
      <trkpt lat="43.08628" lon="-0.44421">
        <ele>433.21</ele>
        <time>2016-12-11T08:11:07Z</time>
      </trkpt>
      <trkpt lat="43.08626" lon="-0.44415">
        <ele>434.17</ele>
        <time>2016-12-11T08:11:08Z</time>
      </trkpt>
      <trkpt lat="43.08621" lon="-0.44398">
        <ele>434.17</ele>
        <time>2016-12-11T08:11:11Z</time>
      </trkpt>
      <trkpt lat="43.08606" lon="-0.44355">
        <ele>434.65</ele>
        <time>2016-12-11T08:11:21Z</time>
      </trkpt>
      <trkpt lat="43.08605" lon="-0.44355">
        <ele>435.13</ele>
        <time>2016-12-11T08:11:22Z</time>
      </trkpt>
      <trkpt lat="43.08603" lon="-0.44356">
        <ele>434.65</ele>
        <time>2016-12-11T08:11:23Z</time>
      </trkpt>
      <trkpt lat="43.08602" lon="-0.44356">
        <ele>435.13</ele>
        <time>2016-12-11T08:11:24Z</time>
      </trkpt>
      <trkpt lat="43.086" lon="-0.44356">
        <ele>435.13</ele>
        <time>2016-12-11T08:11:25Z</time>
      </trkpt>
      <trkpt lat="43.08599" lon="-0.44356">
        <ele>434.65</ele>
        <time>2016-12-11T08:11:26Z</time>
      </trkpt>
      <trkpt lat="43.08598" lon="-0.44357">
        <ele>434.65</ele>
        <time>2016-12-11T08:11:27Z</time>
      </trkpt>
      <trkpt lat="43.08596" lon="-0.44358">
        <ele>434.65</ele>
        <time>2016-12-11T08:11:28Z</time>
      </trkpt>
      <trkpt lat="43.08595" lon="-0.44359">
        <ele>434.65</ele>
        <time>2016-12-11T08:11:29Z</time>
      </trkpt>
      <trkpt lat="43.08593" lon="-0.4436">
        <ele>435.13</ele>
        <time>2016-12-11T08:11:30Z</time>
      </trkpt>
      <trkpt lat="43.08592" lon="-0.44362">
        <ele>435.13</ele>
        <time>2016-12-11T08:11:31Z</time>
      </trkpt>
      <trkpt lat="43.0859" lon="-0.44363">
        <ele>434.65</ele>
        <time>2016-12-11T08:11:32Z</time>
      </trkpt>
      <trkpt lat="43.08588" lon="-0.44364">
        <ele>435.13</ele>
        <time>2016-12-11T08:11:33Z</time>
      </trkpt>
      <trkpt lat="43.08586" lon="-0.44366">
        <ele>435.61</ele>
        <time>2016-12-11T08:11:34Z</time>
      </trkpt>
      <trkpt lat="43.08584" lon="-0.44367">
        <ele>435.61</ele>
        <time>2016-12-11T08:11:35Z</time>
      </trkpt>
      <trkpt lat="43.08567" lon="-0.44395">
        <ele>438.02</ele>
        <time>2016-12-11T08:11:47Z</time>
      </trkpt>
      <trkpt lat="43.08561" lon="-0.44421">
        <ele>440.9</ele>
        <time>2016-12-11T08:11:55Z</time>
      </trkpt>
      <trkpt lat="43.0856" lon="-0.44424">
        <ele>440.9</ele>
        <time>2016-12-11T08:11:56Z</time>
      </trkpt>
      <trkpt lat="43.08558" lon="-0.4445">
        <ele>444.27</ele>
        <time>2016-12-11T08:12:04Z</time>
      </trkpt>
      <trkpt lat="43.08558" lon="-0.44464">
        <ele>446.19</ele>
        <time>2016-12-11T08:12:09Z</time>
      </trkpt>
      <trkpt lat="43.08567" lon="-0.44503">
        <ele>449.55</ele>
        <time>2016-12-11T08:12:22Z</time>
      </trkpt>
      <trkpt lat="43.08572" lon="-0.44529">
        <ele>451.48</ele>
        <time>2016-12-11T08:12:31Z</time>
      </trkpt>
      <trkpt lat="43.08581" lon="-0.44553">
        <ele>453.4</ele>
        <time>2016-12-11T08:12:40Z</time>
      </trkpt>
      <trkpt lat="43.08581" lon="-0.44556">
        <ele>453.88</ele>
        <time>2016-12-11T08:12:41Z</time>
      </trkpt>
      <trkpt lat="43.08582" lon="-0.44564">
        <ele>454.36</ele>
        <time>2016-12-11T08:12:44Z</time>
      </trkpt>
      <trkpt lat="43.08583" lon="-0.44566">
        <ele>454.84</ele>
        <time>2016-12-11T08:12:45Z</time>
      </trkpt>
      <trkpt lat="43.08586" lon="-0.44573">
        <ele>455.32</ele>
        <time>2016-12-11T08:12:48Z</time>
      </trkpt>
      <trkpt lat="43.08587" lon="-0.44576">
        <ele>455.8</ele>
        <time>2016-12-11T08:12:49Z</time>
      </trkpt>
      <trkpt lat="43.08589" lon="-0.44578">
        <ele>455.8</ele>
        <time>2016-12-11T08:12:50Z</time>
      </trkpt>
      <trkpt lat="43.0859" lon="-0.44581">
        <ele>455.8</ele>
        <time>2016-12-11T08:12:51Z</time>
      </trkpt>
      <trkpt lat="43.0859" lon="-0.44584">
        <ele>455.8</ele>
        <time>2016-12-11T08:12:52Z</time>
      </trkpt>
      <trkpt lat="43.08591" lon="-0.44587">
        <ele>456.76</ele>
        <time>2016-12-11T08:12:53Z</time>
      </trkpt>
      <trkpt lat="43.08599" lon="-0.44612">
        <ele>458.69</ele>
        <time>2016-12-11T08:13:03Z</time>
      </trkpt>
      <trkpt lat="43.08599" lon="-0.44614">
        <ele>459.17</ele>
        <time>2016-12-11T08:13:04Z</time>
      </trkpt>
      <trkpt lat="43.08603" lon="-0.4464">
        <ele>461.57</ele>
        <time>2016-12-11T08:13:16Z</time>
      </trkpt>
      <trkpt lat="43.08612" lon="-0.44661">
        <ele>463.01</ele>
        <time>2016-12-11T08:13:27Z</time>
      </trkpt>
      <trkpt lat="43.08614" lon="-0.44666">
        <ele>463.97</ele>
        <time>2016-12-11T08:13:29Z</time>
      </trkpt>
      <trkpt lat="43.08624" lon="-0.44679">
        <ele>465.9</ele>
        <time>2016-12-11T08:13:37Z</time>
      </trkpt>
      <trkpt lat="43.0864" lon="-0.44695">
        <ele>468.3</ele>
        <time>2016-12-11T08:13:48Z</time>
      </trkpt>
      <trkpt lat="43.08652" lon="-0.44715">
        <ele>471.66</ele>
        <time>2016-12-11T08:13:58Z</time>
      </trkpt>
      <trkpt lat="43.08661" lon="-0.44738">
        <ele>474.07</ele>
        <time>2016-12-11T08:14:08Z</time>
      </trkpt>
      <trkpt lat="43.0867" lon="-0.44747">
        <ele>475.51</ele>
        <time>2016-12-11T08:14:14Z</time>
      </trkpt>
      <trkpt lat="43.08671" lon="-0.44749">
        <ele>475.51</ele>
        <time>2016-12-11T08:14:15Z</time>
      </trkpt>
      <trkpt lat="43.08672" lon="-0.44751">
        <ele>475.51</ele>
        <time>2016-12-11T08:14:16Z</time>
      </trkpt>
      <trkpt lat="43.08673" lon="-0.44754">
        <ele>476.47</ele>
        <time>2016-12-11T08:14:17Z</time>
      </trkpt>
      <trkpt lat="43.08674" lon="-0.44756">
        <ele>476.47</ele>
        <time>2016-12-11T08:14:18Z</time>
      </trkpt>
      <trkpt lat="43.08676" lon="-0.44758">
        <ele>476.47</ele>
        <time>2016-12-11T08:14:19Z</time>
      </trkpt>
      <trkpt lat="43.08677" lon="-0.44761">
        <ele>476.47</ele>
        <time>2016-12-11T08:14:20Z</time>
      </trkpt>
      <trkpt lat="43.08678" lon="-0.44764">
        <ele>476.95</ele>
        <time>2016-12-11T08:14:21Z</time>
      </trkpt>
      <trkpt lat="43.0868" lon="-0.44767">
        <ele>476.95</ele>
        <time>2016-12-11T08:14:22Z</time>
      </trkpt>
      <trkpt lat="43.08681" lon="-0.44769">
        <ele>476.95</ele>
        <time>2016-12-11T08:14:23Z</time>
      </trkpt>
      <trkpt lat="43.08682" lon="-0.44772">
        <ele>477.43</ele>
        <time>2016-12-11T08:14:24Z</time>
      </trkpt>
      <trkpt lat="43.08691" lon="-0.44803">
        <ele>480.32</ele>
        <time>2016-12-11T08:14:36Z</time>
      </trkpt>
      <trkpt lat="43.08703" lon="-0.44837">
        <ele>483.2</ele>
        <time>2016-12-11T08:14:50Z</time>
      </trkpt>
      <trkpt lat="43.08708" lon="-0.44878">
        <ele>485.6</ele>
        <time>2016-12-11T08:15:02Z</time>
      </trkpt>
      <trkpt lat="43.08712" lon="-0.44885">
        <ele>486.08</ele>
        <time>2016-12-11T08:15:05Z</time>
      </trkpt>
      <trkpt lat="43.08715" lon="-0.44901">
        <ele>487.53</ele>
        <time>2016-12-11T08:15:11Z</time>
      </trkpt>
      <trkpt lat="43.08715" lon="-0.44905">
        <ele>487.53</ele>
        <time>2016-12-11T08:15:12Z</time>
      </trkpt>
      <trkpt lat="43.08715" lon="-0.44907">
        <ele>487.53</ele>
        <time>2016-12-11T08:15:13Z</time>
      </trkpt>
      <trkpt lat="43.08714" lon="-0.4491">
        <ele>488.01</ele>
        <time>2016-12-11T08:15:14Z</time>
      </trkpt>
      <trkpt lat="43.0871" lon="-0.44917">
        <ele>488.49</ele>
        <time>2016-12-11T08:15:16Z</time>
      </trkpt>
      <trkpt lat="43.08707" lon="-0.44918">
        <ele>488.49</ele>
        <time>2016-12-11T08:15:18Z</time>
      </trkpt>
      <trkpt lat="43.087" lon="-0.44912">
        <ele>489.93</ele>
        <time>2016-12-11T08:15:24Z</time>
      </trkpt>
      <trkpt lat="43.08698" lon="-0.44908">
        <ele>490.41</ele>
        <time>2016-12-11T08:15:26Z</time>
      </trkpt>
      <trkpt lat="43.08694" lon="-0.44898">
        <ele>491.37</ele>
        <time>2016-12-11T08:15:30Z</time>
      </trkpt>
      <trkpt lat="43.08679" lon="-0.44871">
        <ele>494.74</ele>
        <time>2016-12-11T08:15:44Z</time>
      </trkpt>
      <trkpt lat="43.08676" lon="-0.44867">
        <ele>495.22</ele>
        <time>2016-12-11T08:15:46Z</time>
      </trkpt>
      <trkpt lat="43.08672" lon="-0.44859">
        <ele>496.18</ele>
        <time>2016-12-11T08:15:50Z</time>
      </trkpt>
      <trkpt lat="43.08657" lon="-0.44833">
        <ele>499.54</ele>
        <time>2016-12-11T08:16:02Z</time>
      </trkpt>
      <trkpt lat="43.08643" lon="-0.44813">
        <ele>501.46</ele>
        <time>2016-12-11T08:16:13Z</time>
      </trkpt>
      <trkpt lat="43.08618" lon="-0.44792">
        <ele>504.35</ele>
        <time>2016-12-11T08:16:27Z</time>
      </trkpt>
      <trkpt lat="43.08593" lon="-0.44785">
        <ele>507.71</ele>
        <time>2016-12-11T08:16:41Z</time>
      </trkpt>
      <trkpt lat="43.08576" lon="-0.44777">
        <ele>509.16</ele>
        <time>2016-12-11T08:16:50Z</time>
      </trkpt>
      <trkpt lat="43.08559" lon="-0.44756">
        <ele>513</ele>
        <time>2016-12-11T08:17:02Z</time>
      </trkpt>
      <trkpt lat="43.08555" lon="-0.44747">
        <ele>513.48</ele>
        <time>2016-12-11T08:17:06Z</time>
      </trkpt>
      <trkpt lat="43.08542" lon="-0.44718">
        <ele>515.88</ele>
        <time>2016-12-11T08:17:19Z</time>
      </trkpt>
      <trkpt lat="43.08531" lon="-0.44691">
        <ele>519.25</ele>
        <time>2016-12-11T08:17:31Z</time>
      </trkpt>
      <trkpt lat="43.0852" lon="-0.44675">
        <ele>520.69</ele>
        <time>2016-12-11T08:17:40Z</time>
      </trkpt>
      <trkpt lat="43.08508" lon="-0.44675">
        <ele>522.61</ele>
        <time>2016-12-11T08:17:46Z</time>
      </trkpt>
      <trkpt lat="43.08505" lon="-0.44677">
        <ele>522.61</ele>
        <time>2016-12-11T08:17:48Z</time>
      </trkpt>
      <trkpt lat="43.08501" lon="-0.44684">
        <ele>524.54</ele>
        <time>2016-12-11T08:17:52Z</time>
      </trkpt>
      <trkpt lat="43.08503" lon="-0.44693">
        <ele>525.5</ele>
        <time>2016-12-11T08:17:57Z</time>
      </trkpt>
      <trkpt lat="43.08506" lon="-0.44698">
        <ele>526.46</ele>
        <time>2016-12-11T08:18:00Z</time>
      </trkpt>
      <trkpt lat="43.08517" lon="-0.44719">
        <ele>529.34</ele>
        <time>2016-12-11T08:18:12Z</time>
      </trkpt>
      <trkpt lat="43.08525" lon="-0.44752">
        <ele>532.71</ele>
        <time>2016-12-11T08:18:26Z</time>
      </trkpt>
      <trkpt lat="43.0853" lon="-0.44776">
        <ele>535.11</ele>
        <time>2016-12-11T08:18:36Z</time>
      </trkpt>
      <trkpt lat="43.08532" lon="-0.44791">
        <ele>536.55</ele>
        <time>2016-12-11T08:18:42Z</time>
      </trkpt>
      <trkpt lat="43.08537" lon="-0.44805">
        <ele>538.48</ele>
        <time>2016-12-11T08:18:49Z</time>
      </trkpt>
      <trkpt lat="43.0854" lon="-0.44818">
        <ele>538.96</ele>
        <time>2016-12-11T08:18:55Z</time>
      </trkpt>
      <trkpt lat="43.08543" lon="-0.44846">
        <ele>541.84</ele>
        <time>2016-12-11T08:19:08Z</time>
      </trkpt>
      <trkpt lat="43.08528" lon="-0.4487">
        <ele>544.24</ele>
        <time>2016-12-11T08:19:20Z</time>
      </trkpt>
      <trkpt lat="43.08516" lon="-0.44896">
        <ele>547.13</ele>
        <time>2016-12-11T08:19:32Z</time>
      </trkpt>
      <trkpt lat="43.08516" lon="-0.44903">
        <ele>548.09</ele>
        <time>2016-12-11T08:19:35Z</time>
      </trkpt>
      <trkpt lat="43.08517" lon="-0.44913">
        <ele>549.53</ele>
        <time>2016-12-11T08:19:40Z</time>
      </trkpt>
      <trkpt lat="43.08519" lon="-0.44917">
        <ele>550.01</ele>
        <time>2016-12-11T08:19:42Z</time>
      </trkpt>
      <trkpt lat="43.08527" lon="-0.44941">
        <ele>552.9</ele>
        <time>2016-12-11T08:19:54Z</time>
      </trkpt>
      <trkpt lat="43.0853" lon="-0.44954">
        <ele>554.34</ele>
        <time>2016-12-11T08:20:00Z</time>
      </trkpt>
      <trkpt lat="43.08531" lon="-0.44968">
        <ele>556.26</ele>
        <time>2016-12-11T08:20:06Z</time>
      </trkpt>
      <trkpt lat="43.08533" lon="-0.44986">
        <ele>557.7</ele>
        <time>2016-12-11T08:20:13Z</time>
      </trkpt>
      <trkpt lat="43.08534" lon="-0.44991">
        <ele>558.18</ele>
        <time>2016-12-11T08:20:15Z</time>
      </trkpt>
      <trkpt lat="43.08537" lon="-0.45004">
        <ele>559.62</ele>
        <time>2016-12-11T08:20:21Z</time>
      </trkpt>
      <trkpt lat="43.08539" lon="-0.45011">
        <ele>559.62</ele>
        <time>2016-12-11T08:20:24Z</time>
      </trkpt>
      <trkpt lat="43.0854" lon="-0.4502">
        <ele>560.59</ele>
        <time>2016-12-11T08:20:28Z</time>
      </trkpt>
      <trkpt lat="43.08546" lon="-0.45053">
        <ele>563.95</ele>
        <time>2016-12-11T08:20:42Z</time>
      </trkpt>
      <trkpt lat="43.08554" lon="-0.45079">
        <ele>567.32</ele>
        <time>2016-12-11T08:20:54Z</time>
      </trkpt>
      <trkpt lat="43.08561" lon="-0.45089">
        <ele>568.28</ele>
        <time>2016-12-11T08:21:00Z</time>
      </trkpt>
      <trkpt lat="43.08566" lon="-0.45106">
        <ele>570.2</ele>
        <time>2016-12-11T08:21:08Z</time>
      </trkpt>
      <trkpt lat="43.08579" lon="-0.45129">
        <ele>572.12</ele>
        <time>2016-12-11T08:21:21Z</time>
      </trkpt>
      <trkpt lat="43.0858" lon="-0.45131">
        <ele>572.6</ele>
        <time>2016-12-11T08:21:22Z</time>
      </trkpt>
      <trkpt lat="43.0859" lon="-0.45162">
        <ele>575.49</ele>
        <time>2016-12-11T08:21:35Z</time>
      </trkpt>
      <trkpt lat="43.08602" lon="-0.45184">
        <ele>578.37</ele>
        <time>2016-12-11T08:21:47Z</time>
      </trkpt>
      <trkpt lat="43.08616" lon="-0.45213">
        <ele>581.25</ele>
        <time>2016-12-11T08:22:00Z</time>
      </trkpt>
      <trkpt lat="43.08627" lon="-0.45238">
        <ele>584.62</ele>
        <time>2016-12-11T08:22:13Z</time>
      </trkpt>
      <trkpt lat="43.08631" lon="-0.45248">
        <ele>585.58</ele>
        <time>2016-12-11T08:22:18Z</time>
      </trkpt>
      <trkpt lat="43.08647" lon="-0.45268">
        <ele>589.43</ele>
        <time>2016-12-11T08:22:31Z</time>
      </trkpt>
      <trkpt lat="43.08658" lon="-0.45287">
        <ele>591.83</ele>
        <time>2016-12-11T08:22:42Z</time>
      </trkpt>
      <trkpt lat="43.08659" lon="-0.45289">
        <ele>591.83</ele>
        <time>2016-12-11T08:22:43Z</time>
      </trkpt>
      <trkpt lat="43.08675" lon="-0.45314">
        <ele>595.19</ele>
        <time>2016-12-11T08:22:58Z</time>
      </trkpt>
      <trkpt lat="43.0868" lon="-0.45323">
        <ele>596.15</ele>
        <time>2016-12-11T08:23:03Z</time>
      </trkpt>
      <trkpt lat="43.08687" lon="-0.45336">
        <ele>598.08</ele>
        <time>2016-12-11T08:23:10Z</time>
      </trkpt>
      <trkpt lat="43.08693" lon="-0.45346">
        <ele>599.52</ele>
        <time>2016-12-11T08:23:16Z</time>
      </trkpt>
      <trkpt lat="43.08708" lon="-0.45367">
        <ele>602.4</ele>
        <time>2016-12-11T08:23:29Z</time>
      </trkpt>
      <trkpt lat="43.08722" lon="-0.45382">
        <ele>605.29</ele>
        <time>2016-12-11T08:23:39Z</time>
      </trkpt>
      <trkpt lat="43.08742" lon="-0.45397">
        <ele>608.17</ele>
        <time>2016-12-11T08:23:53Z</time>
      </trkpt>
      <trkpt lat="43.08754" lon="-0.45402">
        <ele>610.09</ele>
        <time>2016-12-11T08:24:01Z</time>
      </trkpt>
      <trkpt lat="43.08772" lon="-0.45416">
        <ele>611.54</ele>
        <time>2016-12-11T08:24:14Z</time>
      </trkpt>
      <trkpt lat="43.08785" lon="-0.45437">
        <ele>613.94</ele>
        <time>2016-12-11T08:24:27Z</time>
      </trkpt>
      <trkpt lat="43.08788" lon="-0.45458">
        <ele>614.9</ele>
        <time>2016-12-11T08:24:43Z</time>
      </trkpt>
      <trkpt lat="43.08788" lon="-0.45464">
        <ele>615.38</ele>
        <time>2016-12-11T08:24:55Z</time>
      </trkpt>
      <trkpt lat="43.08788" lon="-0.45464">
        <ele>614.9</ele>
        <time>2016-12-11T08:25:17Z</time>
      </trkpt>
      <trkpt lat="43.08788" lon="-0.45465">
        <ele>614.9</ele>
        <time>2016-12-11T08:25:45Z</time>
      </trkpt>
      <trkpt lat="43.08787" lon="-0.45466">
        <ele>615.38</ele>
        <time>2016-12-11T08:26:04Z</time>
      </trkpt>
      <trkpt lat="43.08787" lon="-0.45465">
        <ele>615.86</ele>
        <time>2016-12-11T08:26:29Z</time>
      </trkpt>
      <trkpt lat="43.08787" lon="-0.45465">
        <ele>615.86</ele>
        <time>2016-12-11T08:26:51Z</time>
      </trkpt>
      <trkpt lat="43.08787" lon="-0.45465">
        <ele>615.86</ele>
        <time>2016-12-11T08:27:22Z</time>
      </trkpt>
      <trkpt lat="43.08788" lon="-0.45466">
        <ele>615.86</ele>
        <time>2016-12-11T08:27:48Z</time>
      </trkpt>
      <trkpt lat="43.08786" lon="-0.45466">
        <ele>616.34</ele>
        <time>2016-12-11T08:27:51Z</time>
      </trkpt>
      <trkpt lat="43.08766" lon="-0.45466">
        <ele>616.34</ele>
        <time>2016-12-11T08:28:03Z</time>
      </trkpt>
      <trkpt lat="43.08743" lon="-0.45458">
        <ele>618.75</ele>
        <time>2016-12-11T08:28:15Z</time>
      </trkpt>
      <trkpt lat="43.08729" lon="-0.45452">
        <ele>619.71</ele>
        <time>2016-12-11T08:28:23Z</time>
      </trkpt>
      <trkpt lat="43.08723" lon="-0.45453">
        <ele>620.67</ele>
        <time>2016-12-11T08:28:27Z</time>
      </trkpt>
      <trkpt lat="43.08693" lon="-0.45476">
        <ele>621.63</ele>
        <time>2016-12-11T08:28:39Z</time>
      </trkpt>
      <trkpt lat="43.08648" lon="-0.45517">
        <ele>622.59</ele>
        <time>2016-12-11T08:28:55Z</time>
      </trkpt>
      <trkpt lat="43.08633" lon="-0.45556">
        <ele>624.03</ele>
        <time>2016-12-11T08:29:05Z</time>
      </trkpt>
      <trkpt lat="43.08632" lon="-0.45578">
        <ele>624.03</ele>
        <time>2016-12-11T08:29:10Z</time>
      </trkpt>
      <trkpt lat="43.08637" lon="-0.45627">
        <ele>626.92</ele>
        <time>2016-12-11T08:29:23Z</time>
      </trkpt>
      <trkpt lat="43.08636" lon="-0.45635">
        <ele>627.88</ele>
        <time>2016-12-11T08:29:26Z</time>
      </trkpt>
      <trkpt lat="43.08637" lon="-0.45641">
        <ele>628.84</ele>
        <time>2016-12-11T08:29:29Z</time>
      </trkpt>
      <trkpt lat="43.08636" lon="-0.45649">
        <ele>630.28</ele>
        <time>2016-12-11T08:29:33Z</time>
      </trkpt>
      <trkpt lat="43.08629" lon="-0.4568">
        <ele>633.65</ele>
        <time>2016-12-11T08:29:45Z</time>
      </trkpt>
      <trkpt lat="43.08619" lon="-0.45697">
        <ele>635.09</ele>
        <time>2016-12-11T08:29:52Z</time>
      </trkpt>
      <trkpt lat="43.08605" lon="-0.45723">
        <ele>637.49</ele>
        <time>2016-12-11T08:30:04Z</time>
      </trkpt>
      <trkpt lat="43.08597" lon="-0.45759">
        <ele>639.41</ele>
        <time>2016-12-11T08:30:19Z</time>
      </trkpt>
      <trkpt lat="43.08595" lon="-0.45794">
        <ele>641.82</ele>
        <time>2016-12-11T08:30:33Z</time>
      </trkpt>
      <trkpt lat="43.08595" lon="-0.45798">
        <ele>642.3</ele>
        <time>2016-12-11T08:30:35Z</time>
      </trkpt>
      <trkpt lat="43.08593" lon="-0.45807">
        <ele>643.74</ele>
        <time>2016-12-11T08:30:39Z</time>
      </trkpt>
      <trkpt lat="43.08589" lon="-0.45834">
        <ele>646.14</ele>
        <time>2016-12-11T08:30:51Z</time>
      </trkpt>
      <trkpt lat="43.08591" lon="-0.45846">
        <ele>648.07</ele>
        <time>2016-12-11T08:30:57Z</time>
      </trkpt>
      <trkpt lat="43.08599" lon="-0.4587">
        <ele>650.47</ele>
        <time>2016-12-11T08:31:09Z</time>
      </trkpt>
      <trkpt lat="43.08603" lon="-0.45886">
        <ele>651.91</ele>
        <time>2016-12-11T08:31:17Z</time>
      </trkpt>
      <trkpt lat="43.08603" lon="-0.45896">
        <ele>653.35</ele>
        <time>2016-12-11T08:31:22Z</time>
      </trkpt>
      <trkpt lat="43.08611" lon="-0.4591">
        <ele>654.8</ele>
        <time>2016-12-11T08:31:30Z</time>
      </trkpt>
      <trkpt lat="43.08613" lon="-0.45922">
        <ele>655.28</ele>
        <time>2016-12-11T08:31:34Z</time>
      </trkpt>
      <trkpt lat="43.08619" lon="-0.45933">
        <ele>656.24</ele>
        <time>2016-12-11T08:31:39Z</time>
      </trkpt>
      <trkpt lat="43.08627" lon="-0.45963">
        <ele>658.16</ele>
        <time>2016-12-11T08:31:50Z</time>
      </trkpt>
      <trkpt lat="43.08632" lon="-0.45992">
        <ele>659.12</ele>
        <time>2016-12-11T08:31:59Z</time>
      </trkpt>
      <trkpt lat="43.08641" lon="-0.46019">
        <ele>661.52</ele>
        <time>2016-12-11T08:32:12Z</time>
      </trkpt>
      <trkpt lat="43.08643" lon="-0.46024">
        <ele>662.49</ele>
        <time>2016-12-11T08:32:14Z</time>
      </trkpt>
      <trkpt lat="43.08646" lon="-0.46032">
        <ele>662.97</ele>
        <time>2016-12-11T08:32:18Z</time>
      </trkpt>
      <trkpt lat="43.08655" lon="-0.46044">
        <ele>665.85</ele>
        <time>2016-12-11T08:32:28Z</time>
      </trkpt>
      <trkpt lat="43.08657" lon="-0.46051">
        <ele>667.29</ele>
        <time>2016-12-11T08:32:31Z</time>
      </trkpt>
      <trkpt lat="43.08662" lon="-0.46058">
        <ele>667.77</ele>
        <time>2016-12-11T08:32:35Z</time>
      </trkpt>
      <trkpt lat="43.0867" lon="-0.46073">
        <ele>670.18</ele>
        <time>2016-12-11T08:32:42Z</time>
      </trkpt>
      <trkpt lat="43.08677" lon="-0.46093">
        <ele>671.62</ele>
        <time>2016-12-11T08:32:49Z</time>
      </trkpt>
      <trkpt lat="43.08685" lon="-0.46102">
        <ele>673.06</ele>
        <time>2016-12-11T08:32:55Z</time>
      </trkpt>
      <trkpt lat="43.08698" lon="-0.46116">
        <ele>677.39</ele>
        <time>2016-12-11T08:33:07Z</time>
      </trkpt>
      <trkpt lat="43.08708" lon="-0.46131">
        <ele>679.31</ele>
        <time>2016-12-11T08:33:18Z</time>
      </trkpt>
      <trkpt lat="43.08716" lon="-0.46144">
        <ele>682.19</ele>
        <time>2016-12-11T08:33:28Z</time>
      </trkpt>
      <trkpt lat="43.08722" lon="-0.4615">
        <ele>683.15</ele>
        <time>2016-12-11T08:33:34Z</time>
      </trkpt>
      <trkpt lat="43.08726" lon="-0.46158">
        <ele>684.6</ele>
        <time>2016-12-11T08:33:39Z</time>
      </trkpt>
      <trkpt lat="43.0873" lon="-0.46162">
        <ele>685.08</ele>
        <time>2016-12-11T08:33:43Z</time>
      </trkpt>
      <trkpt lat="43.08732" lon="-0.46169">
        <ele>686.04</ele>
        <time>2016-12-11T08:33:47Z</time>
      </trkpt>
      <trkpt lat="43.08735" lon="-0.46173">
        <ele>687</ele>
        <time>2016-12-11T08:33:51Z</time>
      </trkpt>
      <trkpt lat="43.08737" lon="-0.46179">
        <ele>687.96</ele>
        <time>2016-12-11T08:33:56Z</time>
      </trkpt>
      <trkpt lat="43.08733" lon="-0.46186">
        <ele>687.96</ele>
        <time>2016-12-11T08:34:01Z</time>
      </trkpt>
      <trkpt lat="43.08724" lon="-0.46185">
        <ele>688.44</ele>
        <time>2016-12-11T08:34:11Z</time>
      </trkpt>
      <trkpt lat="43.08719" lon="-0.46187">
        <ele>688.92</ele>
        <time>2016-12-11T08:34:16Z</time>
      </trkpt>
      <trkpt lat="43.08719" lon="-0.46207">
        <ele>692.29</ele>
        <time>2016-12-11T08:34:26Z</time>
      </trkpt>
      <trkpt lat="43.0872" lon="-0.46213">
        <ele>693.25</ele>
        <time>2016-12-11T08:34:30Z</time>
      </trkpt>
      <trkpt lat="43.08721" lon="-0.46219">
        <ele>693.25</ele>
        <time>2016-12-11T08:34:34Z</time>
      </trkpt>
      <trkpt lat="43.08721" lon="-0.46227">
        <ele>694.21</ele>
        <time>2016-12-11T08:34:38Z</time>
      </trkpt>
      <trkpt lat="43.08718" lon="-0.46236">
        <ele>695.65</ele>
        <time>2016-12-11T08:34:43Z</time>
      </trkpt>
      <trkpt lat="43.08716" lon="-0.4624">
        <ele>696.61</ele>
        <time>2016-12-11T08:34:47Z</time>
      </trkpt>
      <trkpt lat="43.08715" lon="-0.46246">
        <ele>697.57</ele>
        <time>2016-12-11T08:34:51Z</time>
      </trkpt>
      <trkpt lat="43.08709" lon="-0.46253">
        <ele>699.02</ele>
        <time>2016-12-11T08:34:58Z</time>
      </trkpt>
      <trkpt lat="43.08698" lon="-0.46258">
        <ele>701.9</ele>
        <time>2016-12-11T08:35:09Z</time>
      </trkpt>
      <trkpt lat="43.08689" lon="-0.4626">
        <ele>704.3</ele>
        <time>2016-12-11T08:35:16Z</time>
      </trkpt>
      <trkpt lat="43.08674" lon="-0.46263">
        <ele>706.71</ele>
        <time>2016-12-11T08:35:29Z</time>
      </trkpt>
      <trkpt lat="43.08673" lon="-0.46263">
        <ele>706.71</ele>
        <time>2016-12-11T08:35:30Z</time>
      </trkpt>
      <trkpt lat="43.08671" lon="-0.46263">
        <ele>707.19</ele>
        <time>2016-12-11T08:35:32Z</time>
      </trkpt>
      <trkpt lat="43.08664" lon="-0.46264">
        <ele>709.11</ele>
        <time>2016-12-11T08:35:38Z</time>
      </trkpt>
      <trkpt lat="43.0866" lon="-0.46262">
        <ele>709.59</ele>
        <time>2016-12-11T08:35:41Z</time>
      </trkpt>
      <trkpt lat="43.08643" lon="-0.46258">
        <ele>711.99</ele>
        <time>2016-12-11T08:35:55Z</time>
      </trkpt>
      <trkpt lat="43.08635" lon="-0.46252">
        <ele>712.95</ele>
        <time>2016-12-11T08:36:03Z</time>
      </trkpt>
      <trkpt lat="43.08627" lon="-0.46251">
        <ele>714.4</ele>
        <time>2016-12-11T08:36:09Z</time>
      </trkpt>
      <trkpt lat="43.08623" lon="-0.46251">
        <ele>715.36</ele>
        <time>2016-12-11T08:36:13Z</time>
      </trkpt>
      <trkpt lat="43.08621" lon="-0.46254">
        <ele>716.32</ele>
        <time>2016-12-11T08:36:16Z</time>
      </trkpt>
      <trkpt lat="43.08621" lon="-0.46266">
        <ele>718.24</ele>
        <time>2016-12-11T08:36:24Z</time>
      </trkpt>
      <trkpt lat="43.08627" lon="-0.46281">
        <ele>721.13</ele>
        <time>2016-12-11T08:36:37Z</time>
      </trkpt>
      <trkpt lat="43.08632" lon="-0.46291">
        <ele>722.57</ele>
        <time>2016-12-11T08:36:45Z</time>
      </trkpt>
      <trkpt lat="43.08633" lon="-0.463">
        <ele>724.01</ele>
        <time>2016-12-11T08:36:51Z</time>
      </trkpt>
      <trkpt lat="43.08641" lon="-0.46316">
        <ele>725.93</ele>
        <time>2016-12-11T08:37:03Z</time>
      </trkpt>
      <trkpt lat="43.08651" lon="-0.46344">
        <ele>728.34</ele>
        <time>2016-12-11T08:37:18Z</time>
      </trkpt>
      <trkpt lat="43.08651" lon="-0.46348">
        <ele>728.34</ele>
        <time>2016-12-11T08:37:21Z</time>
      </trkpt>
      <trkpt lat="43.08653" lon="-0.46354">
        <ele>729.3</ele>
        <time>2016-12-11T08:37:25Z</time>
      </trkpt>
      <trkpt lat="43.08658" lon="-0.46373">
        <ele>730.74</ele>
        <time>2016-12-11T08:37:36Z</time>
      </trkpt>
      <trkpt lat="43.08661" lon="-0.46377">
        <ele>731.22</ele>
        <time>2016-12-11T08:37:40Z</time>
      </trkpt>
      <trkpt lat="43.08662" lon="-0.46382">
        <ele>731.7</ele>
        <time>2016-12-11T08:37:43Z</time>
      </trkpt>
      <trkpt lat="43.08669" lon="-0.46397">
        <ele>735.07</ele>
        <time>2016-12-11T08:37:53Z</time>
      </trkpt>
      <trkpt lat="43.08671" lon="-0.46399">
        <ele>735.07</ele>
        <time>2016-12-11T08:37:56Z</time>
      </trkpt>
      <trkpt lat="43.08675" lon="-0.46406">
        <ele>735.55</ele>
        <time>2016-12-11T08:38:02Z</time>
      </trkpt>
      <trkpt lat="43.08677" lon="-0.46414">
        <ele>736.99</ele>
        <time>2016-12-11T08:38:05Z</time>
      </trkpt>
      <trkpt lat="43.0868" lon="-0.46419">
        <ele>737.47</ele>
        <time>2016-12-11T08:38:08Z</time>
      </trkpt>
      <trkpt lat="43.08681" lon="-0.46423">
        <ele>738.43</ele>
        <time>2016-12-11T08:38:10Z</time>
      </trkpt>
      <trkpt lat="43.08687" lon="-0.46444">
        <ele>739.87</ele>
        <time>2016-12-11T08:38:22Z</time>
      </trkpt>
      <trkpt lat="43.08688" lon="-0.46446">
        <ele>740.35</ele>
        <time>2016-12-11T08:38:23Z</time>
      </trkpt>
      <trkpt lat="43.0869" lon="-0.46448">
        <ele>741.31</ele>
        <time>2016-12-11T08:38:25Z</time>
      </trkpt>
      <trkpt lat="43.08692" lon="-0.46453">
        <ele>741.31</ele>
        <time>2016-12-11T08:38:29Z</time>
      </trkpt>
      <trkpt lat="43.08696" lon="-0.4647">
        <ele>744.68</ele>
        <time>2016-12-11T08:38:42Z</time>
      </trkpt>
      <trkpt lat="43.08696" lon="-0.46485">
        <ele>747.08</ele>
        <time>2016-12-11T08:38:53Z</time>
      </trkpt>
      <trkpt lat="43.08696" lon="-0.46491">
        <ele>748.52</ele>
        <time>2016-12-11T08:39:03Z</time>
      </trkpt>
      <trkpt lat="43.08695" lon="-0.46499">
        <ele>749.49</ele>
        <time>2016-12-11T08:39:11Z</time>
      </trkpt>
      <trkpt lat="43.08693" lon="-0.46511">
        <ele>751.89</ele>
        <time>2016-12-11T08:39:23Z</time>
      </trkpt>
      <trkpt lat="43.08692" lon="-0.46518">
        <ele>752.85</ele>
        <time>2016-12-11T08:39:38Z</time>
      </trkpt>
      <trkpt lat="43.08691" lon="-0.46519">
        <ele>752.85</ele>
        <time>2016-12-11T08:39:50Z</time>
      </trkpt>
      <trkpt lat="43.08691" lon="-0.46522">
        <ele>753.33</ele>
        <time>2016-12-11T08:39:52Z</time>
      </trkpt>
      <trkpt lat="43.08689" lon="-0.46545">
        <ele>755.73</ele>
        <time>2016-12-11T08:40:04Z</time>
      </trkpt>
      <trkpt lat="43.08687" lon="-0.46566">
        <ele>757.66</ele>
        <time>2016-12-11T08:40:16Z</time>
      </trkpt>
      <trkpt lat="43.08686" lon="-0.46572">
        <ele>758.62</ele>
        <time>2016-12-11T08:40:19Z</time>
      </trkpt>
      <trkpt lat="43.08684" lon="-0.46585">
        <ele>760.06</ele>
        <time>2016-12-11T08:40:26Z</time>
      </trkpt>
      <trkpt lat="43.08681" lon="-0.46597">
        <ele>761.02</ele>
        <time>2016-12-11T08:40:33Z</time>
      </trkpt>
      <trkpt lat="43.08678" lon="-0.46611">
        <ele>762.94</ele>
        <time>2016-12-11T08:40:45Z</time>
      </trkpt>
      <trkpt lat="43.08677" lon="-0.46618">
        <ele>763.9</ele>
        <time>2016-12-11T08:40:49Z</time>
      </trkpt>
      <trkpt lat="43.08676" lon="-0.46638">
        <ele>766.79</ele>
        <time>2016-12-11T08:40:59Z</time>
      </trkpt>
      <trkpt lat="43.08677" lon="-0.46658">
        <ele>768.23</ele>
        <time>2016-12-11T08:41:07Z</time>
      </trkpt>
      <trkpt lat="43.08676" lon="-0.46676">
        <ele>770.63</ele>
        <time>2016-12-11T08:41:19Z</time>
      </trkpt>
      <trkpt lat="43.08674" lon="-0.46696">
        <ele>772.56</ele>
        <time>2016-12-11T08:41:31Z</time>
      </trkpt>
      <trkpt lat="43.08675" lon="-0.46713">
        <ele>774.48</ele>
        <time>2016-12-11T08:41:43Z</time>
      </trkpt>
      <trkpt lat="43.08676" lon="-0.4672">
        <ele>775.44</ele>
        <time>2016-12-11T08:41:47Z</time>
      </trkpt>
      <trkpt lat="43.08677" lon="-0.46734">
        <ele>775.92</ele>
        <time>2016-12-11T08:41:53Z</time>
      </trkpt>
      <trkpt lat="43.08678" lon="-0.46745">
        <ele>777.36</ele>
        <time>2016-12-11T08:42:00Z</time>
      </trkpt>
      <trkpt lat="43.08682" lon="-0.46767">
        <ele>779.77</ele>
        <time>2016-12-11T08:42:13Z</time>
      </trkpt>
      <trkpt lat="43.08683" lon="-0.46783">
        <ele>781.69</ele>
        <time>2016-12-11T08:42:25Z</time>
      </trkpt>
      <trkpt lat="43.08685" lon="-0.46788">
        <ele>782.65</ele>
        <time>2016-12-11T08:42:28Z</time>
      </trkpt>
      <trkpt lat="43.0869" lon="-0.46809">
        <ele>785.05</ele>
        <time>2016-12-11T08:42:41Z</time>
      </trkpt>
      <trkpt lat="43.08695" lon="-0.46819">
        <ele>786.98</ele>
        <time>2016-12-11T08:42:49Z</time>
      </trkpt>
      <trkpt lat="43.08701" lon="-0.46833">
        <ele>788.42</ele>
        <time>2016-12-11T08:43:01Z</time>
      </trkpt>
      <trkpt lat="43.08701" lon="-0.46835">
        <ele>788.9</ele>
        <time>2016-12-11T08:43:02Z</time>
      </trkpt>
      <trkpt lat="43.08709" lon="-0.46854">
        <ele>789.38</ele>
        <time>2016-12-11T08:43:12Z</time>
      </trkpt>
      <trkpt lat="43.08711" lon="-0.4686">
        <ele>789.86</ele>
        <time>2016-12-11T08:43:15Z</time>
      </trkpt>
      <trkpt lat="43.0872" lon="-0.46874">
        <ele>791.78</ele>
        <time>2016-12-11T08:43:26Z</time>
      </trkpt>
      <trkpt lat="43.08727" lon="-0.46887">
        <ele>791.78</ele>
        <time>2016-12-11T08:43:33Z</time>
      </trkpt>
      <trkpt lat="43.08731" lon="-0.46899">
        <ele>792.26</ele>
        <time>2016-12-11T08:43:39Z</time>
      </trkpt>
      <trkpt lat="43.08739" lon="-0.46913">
        <ele>793.71</ele>
        <time>2016-12-11T08:43:48Z</time>
      </trkpt>
      <trkpt lat="43.08741" lon="-0.4692">
        <ele>794.67</ele>
        <time>2016-12-11T08:43:52Z</time>
      </trkpt>
      <trkpt lat="43.08747" lon="-0.46933">
        <ele>797.07</ele>
        <time>2016-12-11T08:44:03Z</time>
      </trkpt>
      <trkpt lat="43.0875" lon="-0.46942">
        <ele>798.99</ele>
        <time>2016-12-11T08:44:14Z</time>
      </trkpt>
      <trkpt lat="43.08753" lon="-0.4695">
        <ele>800.92</ele>
        <time>2016-12-11T08:44:25Z</time>
      </trkpt>
      <trkpt lat="43.08755" lon="-0.46959">
        <ele>802.36</ele>
        <time>2016-12-11T08:44:35Z</time>
      </trkpt>
      <trkpt lat="43.08755" lon="-0.46973">
        <ele>805.24</ele>
        <time>2016-12-11T08:44:48Z</time>
      </trkpt>
      <trkpt lat="43.08756" lon="-0.46979">
        <ele>806.68</ele>
        <time>2016-12-11T08:44:57Z</time>
      </trkpt>
      <trkpt lat="43.08759" lon="-0.46989">
        <ele>808.61</ele>
        <time>2016-12-11T08:45:08Z</time>
      </trkpt>
      <trkpt lat="43.08761" lon="-0.47001">
        <ele>810.53</ele>
        <time>2016-12-11T08:45:19Z</time>
      </trkpt>
      <trkpt lat="43.08764" lon="-0.47011">
        <ele>811.97</ele>
        <time>2016-12-11T08:45:29Z</time>
      </trkpt>
      <trkpt lat="43.08765" lon="-0.47019">
        <ele>813.89</ele>
        <time>2016-12-11T08:45:39Z</time>
      </trkpt>
      <trkpt lat="43.0877" lon="-0.4703">
        <ele>815.34</ele>
        <time>2016-12-11T08:45:51Z</time>
      </trkpt>
      <trkpt lat="43.08775" lon="-0.47039">
        <ele>817.74</ele>
        <time>2016-12-11T08:46:02Z</time>
      </trkpt>
      <trkpt lat="43.08776" lon="-0.47042">
        <ele>819.18</ele>
        <time>2016-12-11T08:46:13Z</time>
      </trkpt>
      <trkpt lat="43.08777" lon="-0.47045">
        <ele>820.62</ele>
        <time>2016-12-11T08:46:23Z</time>
      </trkpt>
      <trkpt lat="43.08778" lon="-0.47048">
        <ele>822.55</ele>
        <time>2016-12-11T08:46:32Z</time>
      </trkpt>
      <trkpt lat="43.0878" lon="-0.47063">
        <ele>823.99</ele>
        <time>2016-12-11T08:46:41Z</time>
      </trkpt>
      <trkpt lat="43.08781" lon="-0.47071">
        <ele>825.91</ele>
        <time>2016-12-11T08:46:47Z</time>
      </trkpt>
      <trkpt lat="43.08785" lon="-0.47076">
        <ele>827.35</ele>
        <time>2016-12-11T08:46:59Z</time>
      </trkpt>
      <trkpt lat="43.08792" lon="-0.47082">
        <ele>829.27</ele>
        <time>2016-12-11T08:47:08Z</time>
      </trkpt>
      <trkpt lat="43.08796" lon="-0.47085">
        <ele>829.27</ele>
        <time>2016-12-11T08:47:21Z</time>
      </trkpt>
      <trkpt lat="43.08798" lon="-0.47088">
        <ele>829.76</ele>
        <time>2016-12-11T08:47:36Z</time>
      </trkpt>
      <trkpt lat="43.088" lon="-0.47089">
        <ele>829.27</ele>
        <time>2016-12-11T08:48:06Z</time>
      </trkpt>
      <trkpt lat="43.08801" lon="-0.47089">
        <ele>829.27</ele>
        <time>2016-12-11T08:48:36Z</time>
      </trkpt>
      <trkpt lat="43.088" lon="-0.47089">
        <ele>829.27</ele>
        <time>2016-12-11T08:48:59Z</time>
      </trkpt>
      <trkpt lat="43.08799" lon="-0.47089">
        <ele>828.79</ele>
        <time>2016-12-11T08:49:23Z</time>
      </trkpt>
      <trkpt lat="43.08799" lon="-0.47091">
        <ele>829.27</ele>
        <time>2016-12-11T08:49:44Z</time>
      </trkpt>
      <trkpt lat="43.08799" lon="-0.47091">
        <ele>829.27</ele>
        <time>2016-12-11T08:50:08Z</time>
      </trkpt>
      <trkpt lat="43.088" lon="-0.47091">
        <ele>829.27</ele>
        <time>2016-12-11T08:50:10Z</time>
      </trkpt>
      <trkpt lat="43.08804" lon="-0.47092">
        <ele>828.79</ele>
        <time>2016-12-11T08:50:13Z</time>
      </trkpt>
      <trkpt lat="43.08811" lon="-0.47109">
        <ele>827.35</ele>
        <time>2016-12-11T08:50:19Z</time>
      </trkpt>
      <trkpt lat="43.08814" lon="-0.47136">
        <ele>824.47</ele>
        <time>2016-12-11T08:50:23Z</time>
      </trkpt>
      <trkpt lat="43.08815" lon="-0.47143">
        <ele>823.51</ele>
        <time>2016-12-11T08:50:24Z</time>
      </trkpt>
      <trkpt lat="43.08817" lon="-0.47153">
        <ele>821.58</ele>
        <time>2016-12-11T08:50:28Z</time>
      </trkpt>
      <trkpt lat="43.08818" lon="-0.47151">
        <ele>822.06</ele>
        <time>2016-12-11T08:50:39Z</time>
      </trkpt>
      <trkpt lat="43.08821" lon="-0.47147">
        <ele>821.1</ele>
        <time>2016-12-11T08:50:47Z</time>
      </trkpt>
      <trkpt lat="43.08823" lon="-0.47146">
        <ele>820.62</ele>
        <time>2016-12-11T08:50:48Z</time>
      </trkpt>
      <trkpt lat="43.08825" lon="-0.47143">
        <ele>820.62</ele>
        <time>2016-12-11T08:50:49Z</time>
      </trkpt>
      <trkpt lat="43.08827" lon="-0.4714">
        <ele>818.7</ele>
        <time>2016-12-11T08:50:50Z</time>
      </trkpt>
      <trkpt lat="43.08829" lon="-0.47137">
        <ele>817.74</ele>
        <time>2016-12-11T08:50:52Z</time>
      </trkpt>
      <trkpt lat="43.08838" lon="-0.47134">
        <ele>813.89</ele>
        <time>2016-12-11T08:50:56Z</time>
      </trkpt>
      <trkpt lat="43.08844" lon="-0.47134">
        <ele>812.45</ele>
        <time>2016-12-11T08:50:58Z</time>
      </trkpt>
      <trkpt lat="43.08853" lon="-0.47129">
        <ele>811.49</ele>
        <time>2016-12-11T08:51:00Z</time>
      </trkpt>
      <trkpt lat="43.08861" lon="-0.47124">
        <ele>810.53</ele>
        <time>2016-12-11T08:51:02Z</time>
      </trkpt>
      <trkpt lat="43.08867" lon="-0.47122">
        <ele>808.61</ele>
        <time>2016-12-11T08:51:04Z</time>
      </trkpt>
      <trkpt lat="43.08883" lon="-0.47112">
        <ele>806.2</ele>
        <time>2016-12-11T08:51:09Z</time>
      </trkpt>
      <trkpt lat="43.08889" lon="-0.47104">
        <ele>804.28</ele>
        <time>2016-12-11T08:51:12Z</time>
      </trkpt>
      <trkpt lat="43.089" lon="-0.47091">
        <ele>800.44</ele>
        <time>2016-12-11T08:51:16Z</time>
      </trkpt>
      <trkpt lat="43.08917" lon="-0.47085">
        <ele>796.59</ele>
        <time>2016-12-11T08:51:20Z</time>
      </trkpt>
      <trkpt lat="43.08928" lon="-0.47078">
        <ele>794.67</ele>
        <time>2016-12-11T08:51:23Z</time>
      </trkpt>
      <trkpt lat="43.08937" lon="-0.47075">
        <ele>792.74</ele>
        <time>2016-12-11T08:51:25Z</time>
      </trkpt>
      <trkpt lat="43.08953" lon="-0.47068">
        <ele>788.42</ele>
        <time>2016-12-11T08:51:30Z</time>
      </trkpt>
      <trkpt lat="43.08967" lon="-0.47059">
        <ele>786.02</ele>
        <time>2016-12-11T08:51:34Z</time>
      </trkpt>
      <trkpt lat="43.08981" lon="-0.47048">
        <ele>783.13</ele>
        <time>2016-12-11T08:51:38Z</time>
      </trkpt>
      <trkpt lat="43.08985" lon="-0.47046">
        <ele>782.17</ele>
        <time>2016-12-11T08:51:39Z</time>
      </trkpt>
      <trkpt lat="43.08997" lon="-0.47039">
        <ele>778.81</ele>
        <time>2016-12-11T08:51:42Z</time>
      </trkpt>
      <trkpt lat="43.09011" lon="-0.47032">
        <ele>776.4</ele>
        <time>2016-12-11T08:51:47Z</time>
      </trkpt>
      <trkpt lat="43.09024" lon="-0.47024">
        <ele>773.04</ele>
        <time>2016-12-11T08:51:52Z</time>
      </trkpt>
      <trkpt lat="43.09027" lon="-0.47023">
        <ele>773.04</ele>
        <time>2016-12-11T08:51:53Z</time>
      </trkpt>
      <trkpt lat="43.09037" lon="-0.4702">
        <ele>771.6</ele>
        <time>2016-12-11T08:51:57Z</time>
      </trkpt>
      <trkpt lat="43.09053" lon="-0.47015">
        <ele>768.23</ele>
        <time>2016-12-11T08:52:04Z</time>
      </trkpt>
      <trkpt lat="43.09065" lon="-0.47011">
        <ele>765.83</ele>
        <time>2016-12-11T08:52:08Z</time>
      </trkpt>
      <trkpt lat="43.09075" lon="-0.47013">
        <ele>761.98</ele>
        <time>2016-12-11T08:52:14Z</time>
      </trkpt>
      <trkpt lat="43.09073" lon="-0.4702">
        <ele>760.54</ele>
        <time>2016-12-11T08:52:16Z</time>
      </trkpt>
      <trkpt lat="43.09069" lon="-0.4703">
        <ele>758.62</ele>
        <time>2016-12-11T08:52:20Z</time>
      </trkpt>
      <trkpt lat="43.09067" lon="-0.47034">
        <ele>757.66</ele>
        <time>2016-12-11T08:52:22Z</time>
      </trkpt>
      <trkpt lat="43.09058" lon="-0.47048">
        <ele>754.29</ele>
        <time>2016-12-11T08:52:31Z</time>
      </trkpt>
      <trkpt lat="43.09057" lon="-0.47052">
        <ele>753.81</ele>
        <time>2016-12-11T08:52:32Z</time>
      </trkpt>
      <trkpt lat="43.0905" lon="-0.47065">
        <ele>751.41</ele>
        <time>2016-12-11T08:52:35Z</time>
      </trkpt>
      <trkpt lat="43.09043" lon="-0.47085">
        <ele>747.56</ele>
        <time>2016-12-11T08:52:38Z</time>
      </trkpt>
      <trkpt lat="43.09038" lon="-0.47103">
        <ele>744.68</ele>
        <time>2016-12-11T08:52:41Z</time>
      </trkpt>
      <trkpt lat="43.09033" lon="-0.47128">
        <ele>740.35</ele>
        <time>2016-12-11T08:52:45Z</time>
      </trkpt>
      <trkpt lat="43.09027" lon="-0.47146">
        <ele>736.51</ele>
        <time>2016-12-11T08:52:50Z</time>
      </trkpt>
      <trkpt lat="43.09022" lon="-0.47173">
        <ele>732.66</ele>
        <time>2016-12-11T08:52:55Z</time>
      </trkpt>
      <trkpt lat="43.09019" lon="-0.47182">
        <ele>731.7</ele>
        <time>2016-12-11T08:52:57Z</time>
      </trkpt>
      <trkpt lat="43.09019" lon="-0.47191">
        <ele>730.74</ele>
        <time>2016-12-11T08:52:59Z</time>
      </trkpt>
      <trkpt lat="43.09017" lon="-0.47209">
        <ele>726.89</ele>
        <time>2016-12-11T08:53:03Z</time>
      </trkpt>
      <trkpt lat="43.09022" lon="-0.47213">
        <ele>724.01</ele>
        <time>2016-12-11T08:53:07Z</time>
      </trkpt>
      <trkpt lat="43.09024" lon="-0.47212">
        <ele>724.01</ele>
        <time>2016-12-11T08:53:08Z</time>
      </trkpt>
      <trkpt lat="43.09027" lon="-0.47208">
        <ele>722.57</ele>
        <time>2016-12-11T08:53:10Z</time>
      </trkpt>
      <trkpt lat="43.0903" lon="-0.47202">
        <ele>720.65</ele>
        <time>2016-12-11T08:53:13Z</time>
      </trkpt>
      <trkpt lat="43.09035" lon="-0.47197">
        <ele>719.68</ele>
        <time>2016-12-11T08:53:15Z</time>
      </trkpt>
      <trkpt lat="43.09047" lon="-0.47183">
        <ele>716.32</ele>
        <time>2016-12-11T08:53:19Z</time>
      </trkpt>
      <trkpt lat="43.09061" lon="-0.4717">
        <ele>712.95</ele>
        <time>2016-12-11T08:53:25Z</time>
      </trkpt>
      <trkpt lat="43.09081" lon="-0.4716">
        <ele>709.11</ele>
        <time>2016-12-11T08:53:30Z</time>
      </trkpt>
      <trkpt lat="43.09096" lon="-0.47149">
        <ele>705.26</ele>
        <time>2016-12-11T08:53:33Z</time>
      </trkpt>
      <trkpt lat="43.0911" lon="-0.47138">
        <ele>701.42</ele>
        <time>2016-12-11T08:53:37Z</time>
      </trkpt>
      <trkpt lat="43.0912" lon="-0.47131">
        <ele>697.09</ele>
        <time>2016-12-11T08:53:41Z</time>
      </trkpt>
      <trkpt lat="43.09124" lon="-0.47129">
        <ele>696.13</ele>
        <time>2016-12-11T08:53:42Z</time>
      </trkpt>
      <trkpt lat="43.0914" lon="-0.47123">
        <ele>692.77</ele>
        <time>2016-12-11T08:53:46Z</time>
      </trkpt>
      <trkpt lat="43.09164" lon="-0.47113">
        <ele>687.48</ele>
        <time>2016-12-11T08:53:52Z</time>
      </trkpt>
      <trkpt lat="43.09187" lon="-0.47109">
        <ele>683.63</ele>
        <time>2016-12-11T08:53:57Z</time>
      </trkpt>
      <trkpt lat="43.09203" lon="-0.47105">
        <ele>678.35</ele>
        <time>2016-12-11T08:54:02Z</time>
      </trkpt>
      <trkpt lat="43.09207" lon="-0.47105">
        <ele>676.91</ele>
        <time>2016-12-11T08:54:04Z</time>
      </trkpt>
      <trkpt lat="43.09199" lon="-0.47127">
        <ele>673.06</ele>
        <time>2016-12-11T08:54:12Z</time>
      </trkpt>
      <trkpt lat="43.09191" lon="-0.4714">
        <ele>669.7</ele>
        <time>2016-12-11T08:54:15Z</time>
      </trkpt>
      <trkpt lat="43.09181" lon="-0.47158">
        <ele>665.85</ele>
        <time>2016-12-11T08:54:19Z</time>
      </trkpt>
      <trkpt lat="43.09169" lon="-0.47179">
        <ele>662.49</ele>
        <time>2016-12-11T08:54:23Z</time>
      </trkpt>
      <trkpt lat="43.09161" lon="-0.47194">
        <ele>659.12</ele>
        <time>2016-12-11T08:54:27Z</time>
      </trkpt>
      <trkpt lat="43.09161" lon="-0.47205">
        <ele>656.24</ele>
        <time>2016-12-11T08:54:31Z</time>
      </trkpt>
      <trkpt lat="43.09176" lon="-0.47201">
        <ele>652.87</ele>
        <time>2016-12-11T08:54:37Z</time>
      </trkpt>
      <trkpt lat="43.09187" lon="-0.47192">
        <ele>650.47</ele>
        <time>2016-12-11T08:54:41Z</time>
      </trkpt>
      <trkpt lat="43.09202" lon="-0.4719">
        <ele>646.14</ele>
        <time>2016-12-11T08:54:46Z</time>
      </trkpt>
      <trkpt lat="43.09215" lon="-0.47188">
        <ele>642.78</ele>
        <time>2016-12-11T08:54:52Z</time>
      </trkpt>
      <trkpt lat="43.09226" lon="-0.47186">
        <ele>641.82</ele>
        <time>2016-12-11T08:54:55Z</time>
      </trkpt>
      <trkpt lat="43.09245" lon="-0.47183">
        <ele>637.01</ele>
        <time>2016-12-11T08:55:01Z</time>
      </trkpt>
      <trkpt lat="43.09251" lon="-0.47179">
        <ele>635.09</ele>
        <time>2016-12-11T08:55:04Z</time>
      </trkpt>
      <trkpt lat="43.0926" lon="-0.47176">
        <ele>632.2</ele>
        <time>2016-12-11T08:55:07Z</time>
      </trkpt>
      <trkpt lat="43.09268" lon="-0.4717">
        <ele>629.32</ele>
        <time>2016-12-11T08:55:11Z</time>
      </trkpt>
      <trkpt lat="43.09272" lon="-0.4717">
        <ele>628.36</ele>
        <time>2016-12-11T08:55:13Z</time>
      </trkpt>
      <trkpt lat="43.09263" lon="-0.47194">
        <ele>625.47</ele>
        <time>2016-12-11T08:55:19Z</time>
      </trkpt>
      <trkpt lat="43.09257" lon="-0.47209">
        <ele>622.11</ele>
        <time>2016-12-11T08:55:22Z</time>
      </trkpt>
      <trkpt lat="43.09253" lon="-0.47218">
        <ele>618.75</ele>
        <time>2016-12-11T08:55:25Z</time>
      </trkpt>
      <trkpt lat="43.09258" lon="-0.4724">
        <ele>614.42</ele>
        <time>2016-12-11T08:55:31Z</time>
      </trkpt>
      <trkpt lat="43.09258" lon="-0.47244">
        <ele>612.98</ele>
        <time>2016-12-11T08:55:32Z</time>
      </trkpt>
      <trkpt lat="43.09258" lon="-0.47247">
        <ele>613.46</ele>
        <time>2016-12-11T08:55:33Z</time>
      </trkpt>
      <trkpt lat="43.0927" lon="-0.47246">
        <ele>608.65</ele>
        <time>2016-12-11T08:55:38Z</time>
      </trkpt>
      <trkpt lat="43.09284" lon="-0.47228">
        <ele>605.29</ele>
        <time>2016-12-11T08:55:42Z</time>
      </trkpt>
      <trkpt lat="43.09288" lon="-0.47223">
        <ele>603.36</ele>
        <time>2016-12-11T08:55:44Z</time>
      </trkpt>
      <trkpt lat="43.09294" lon="-0.47224">
        <ele>601.44</ele>
        <time>2016-12-11T08:55:47Z</time>
      </trkpt>
      <trkpt lat="43.09295" lon="-0.47235">
        <ele>598.08</ele>
        <time>2016-12-11T08:55:50Z</time>
      </trkpt>
      <trkpt lat="43.09305" lon="-0.47268">
        <ele>594.23</ele>
        <time>2016-12-11T08:55:55Z</time>
      </trkpt>
      <trkpt lat="43.09311" lon="-0.47286">
        <ele>591.83</ele>
        <time>2016-12-11T08:55:58Z</time>
      </trkpt>
      <trkpt lat="43.09313" lon="-0.47293">
        <ele>590.39</ele>
        <time>2016-12-11T08:56:00Z</time>
      </trkpt>
      <trkpt lat="43.09321" lon="-0.47305">
        <ele>586.54</ele>
        <time>2016-12-11T08:56:04Z</time>
      </trkpt>
      <trkpt lat="43.09326" lon="-0.47305">
        <ele>585.1</ele>
        <time>2016-12-11T08:56:07Z</time>
      </trkpt>
      <trkpt lat="43.09327" lon="-0.473">
        <ele>584.14</ele>
        <time>2016-12-11T08:56:09Z</time>
      </trkpt>
      <trkpt lat="43.09329" lon="-0.4729">
        <ele>580.29</ele>
        <time>2016-12-11T08:56:14Z</time>
      </trkpt>
      <trkpt lat="43.09339" lon="-0.47313">
        <ele>576.93</ele>
        <time>2016-12-11T08:56:22Z</time>
      </trkpt>
      <trkpt lat="43.09348" lon="-0.47328">
        <ele>574.04</ele>
        <time>2016-12-11T08:56:26Z</time>
      </trkpt>
      <trkpt lat="43.09358" lon="-0.47341">
        <ele>571.64</ele>
        <time>2016-12-11T08:56:29Z</time>
      </trkpt>
      <trkpt lat="43.09363" lon="-0.47345">
        <ele>570.68</ele>
        <time>2016-12-11T08:56:31Z</time>
      </trkpt>
      <trkpt lat="43.09376" lon="-0.47354">
        <ele>567.32</ele>
        <time>2016-12-11T08:56:35Z</time>
      </trkpt>
      <trkpt lat="43.09385" lon="-0.47359">
        <ele>564.91</ele>
        <time>2016-12-11T08:56:37Z</time>
      </trkpt>
      <trkpt lat="43.094" lon="-0.47368">
        <ele>561.07</ele>
        <time>2016-12-11T08:56:41Z</time>
      </trkpt>
      <trkpt lat="43.09405" lon="-0.4737">
        <ele>560.59</ele>
        <time>2016-12-11T08:56:42Z</time>
      </trkpt>
      <trkpt lat="43.09421" lon="-0.47382">
        <ele>555.78</ele>
        <time>2016-12-11T08:56:46Z</time>
      </trkpt>
      <trkpt lat="43.09432" lon="-0.47393">
        <ele>553.86</ele>
        <time>2016-12-11T08:56:49Z</time>
      </trkpt>
      <trkpt lat="43.09445" lon="-0.47405">
        <ele>551.45</ele>
        <time>2016-12-11T08:56:52Z</time>
      </trkpt>
      <trkpt lat="43.09459" lon="-0.47428">
        <ele>549.53</ele>
        <time>2016-12-11T08:56:56Z</time>
      </trkpt>
      <trkpt lat="43.09469" lon="-0.47445">
        <ele>549.05</ele>
        <time>2016-12-11T08:56:59Z</time>
      </trkpt>
      <trkpt lat="43.0949" lon="-0.47465">
        <ele>547.61</ele>
        <time>2016-12-11T08:57:14Z</time>
      </trkpt>
      <trkpt lat="43.09499" lon="-0.47468">
        <ele>547.61</ele>
        <time>2016-12-11T08:57:38Z</time>
      </trkpt>
      <trkpt lat="43.09498" lon="-0.47469">
        <ele>546.65</ele>
        <time>2016-12-11T08:57:57Z</time>
      </trkpt>
      <trkpt lat="43.09498" lon="-0.47465">
        <ele>546.65</ele>
        <time>2016-12-11T08:58:21Z</time>
      </trkpt>
      <trkpt lat="43.09498" lon="-0.47465">
        <ele>546.65</ele>
        <time>2016-12-11T08:58:50Z</time>
      </trkpt>
      <trkpt lat="43.09498" lon="-0.47466">
        <ele>546.17</ele>
        <time>2016-12-11T08:59:06Z</time>
      </trkpt>
      <trkpt lat="43.09511" lon="-0.47481">
        <ele>543.76</ele>
        <time>2016-12-11T08:59:12Z</time>
      </trkpt>
      <trkpt lat="43.09523" lon="-0.47504">
        <ele>543.76</ele>
        <time>2016-12-11T08:59:19Z</time>
      </trkpt>
      <trkpt lat="43.0954" lon="-0.47536">
        <ele>544.72</ele>
        <time>2016-12-11T08:59:29Z</time>
      </trkpt>
      <trkpt lat="43.09558" lon="-0.47566">
        <ele>546.65</ele>
        <time>2016-12-11T08:59:38Z</time>
      </trkpt>
      <trkpt lat="43.09567" lon="-0.4758">
        <ele>547.13</ele>
        <time>2016-12-11T08:59:43Z</time>
      </trkpt>
      <trkpt lat="43.09585" lon="-0.47612">
        <ele>546.17</ele>
        <time>2016-12-11T08:59:52Z</time>
      </trkpt>
      <trkpt lat="43.096" lon="-0.47641">
        <ele>546.17</ele>
        <time>2016-12-11T09:00:01Z</time>
      </trkpt>
      <trkpt lat="43.09605" lon="-0.47651">
        <ele>545.69</ele>
        <time>2016-12-11T09:00:04Z</time>
      </trkpt>
      <trkpt lat="43.09615" lon="-0.47667">
        <ele>545.69</ele>
        <time>2016-12-11T09:00:08Z</time>
      </trkpt>
      <trkpt lat="43.09629" lon="-0.47704">
        <ele>546.17</ele>
        <time>2016-12-11T09:00:17Z</time>
      </trkpt>
      <trkpt lat="43.09645" lon="-0.47738">
        <ele>546.65</ele>
        <time>2016-12-11T09:00:25Z</time>
      </trkpt>
      <trkpt lat="43.09656" lon="-0.47765">
        <ele>545.2</ele>
        <time>2016-12-11T09:00:34Z</time>
      </trkpt>
      <trkpt lat="43.09657" lon="-0.47768">
        <ele>542.8</ele>
        <time>2016-12-11T09:00:35Z</time>
      </trkpt>
      <trkpt lat="43.09658" lon="-0.4777">
        <ele>541.84</ele>
        <time>2016-12-11T09:00:36Z</time>
      </trkpt>
      <trkpt lat="43.09666" lon="-0.47779">
        <ele>541.36</ele>
        <time>2016-12-11T09:00:41Z</time>
      </trkpt>
      <trkpt lat="43.09667" lon="-0.4778">
        <ele>541.84</ele>
        <time>2016-12-11T09:00:42Z</time>
      </trkpt>
      <trkpt lat="43.09676" lon="-0.4781">
        <ele>544.24</ele>
        <time>2016-12-11T09:00:53Z</time>
      </trkpt>
      <trkpt lat="43.09684" lon="-0.47829">
        <ele>546.65</ele>
        <time>2016-12-11T09:01:02Z</time>
      </trkpt>
      <trkpt lat="43.09684" lon="-0.47832">
        <ele>546.65</ele>
        <time>2016-12-11T09:01:03Z</time>
      </trkpt>
      <trkpt lat="43.09684" lon="-0.47837">
        <ele>547.61</ele>
        <time>2016-12-11T09:01:05Z</time>
      </trkpt>
      <trkpt lat="43.09689" lon="-0.47846">
        <ele>548.09</ele>
        <time>2016-12-11T09:01:10Z</time>
      </trkpt>
      <trkpt lat="43.09692" lon="-0.47856">
        <ele>549.05</ele>
        <time>2016-12-11T09:01:14Z</time>
      </trkpt>
      <trkpt lat="43.09695" lon="-0.47873">
        <ele>549.53</ele>
        <time>2016-12-11T09:01:20Z</time>
      </trkpt>
      <trkpt lat="43.09697" lon="-0.47883">
        <ele>549.53</ele>
        <time>2016-12-11T09:01:24Z</time>
      </trkpt>
      <trkpt lat="43.09697" lon="-0.47889">
        <ele>550.01</ele>
        <time>2016-12-11T09:01:26Z</time>
      </trkpt>
      <trkpt lat="43.09701" lon="-0.47904">
        <ele>550.01</ele>
        <time>2016-12-11T09:01:31Z</time>
      </trkpt>
      <trkpt lat="43.09701" lon="-0.47913">
        <ele>550.01</ele>
        <time>2016-12-11T09:01:33Z</time>
      </trkpt>
      <trkpt lat="43.09703" lon="-0.47917">
        <ele>549.53</ele>
        <time>2016-12-11T09:01:35Z</time>
      </trkpt>
      <trkpt lat="43.09704" lon="-0.47945">
        <ele>549.53</ele>
        <time>2016-12-11T09:01:42Z</time>
      </trkpt>
      <trkpt lat="43.09712" lon="-0.47965">
        <ele>548.09</ele>
        <time>2016-12-11T09:01:47Z</time>
      </trkpt>
      <trkpt lat="43.09717" lon="-0.47981">
        <ele>544.72</ele>
        <time>2016-12-11T09:01:50Z</time>
      </trkpt>
      <trkpt lat="43.0972" lon="-0.47986">
        <ele>544.24</ele>
        <time>2016-12-11T09:01:51Z</time>
      </trkpt>
      <trkpt lat="43.09732" lon="-0.48013">
        <ele>540.88</ele>
        <time>2016-12-11T09:01:55Z</time>
      </trkpt>
      <trkpt lat="43.09735" lon="-0.48021">
        <ele>539.44</ele>
        <time>2016-12-11T09:01:56Z</time>
      </trkpt>
      <trkpt lat="43.09738" lon="-0.4803">
        <ele>539.44</ele>
        <time>2016-12-11T09:01:57Z</time>
      </trkpt>
      <trkpt lat="43.09744" lon="-0.48048">
        <ele>537.51</ele>
        <time>2016-12-11T09:01:59Z</time>
      </trkpt>
      <trkpt lat="43.09748" lon="-0.48056">
        <ele>537.03</ele>
        <time>2016-12-11T09:02:00Z</time>
      </trkpt>
      <trkpt lat="43.09751" lon="-0.48061">
        <ele>535.11</ele>
        <time>2016-12-11T09:02:01Z</time>
      </trkpt>
      <trkpt lat="43.09754" lon="-0.48066">
        <ele>535.11</ele>
        <time>2016-12-11T09:02:02Z</time>
      </trkpt>
      <trkpt lat="43.09756" lon="-0.48071">
        <ele>535.11</ele>
        <time>2016-12-11T09:02:03Z</time>
      </trkpt>
      <trkpt lat="43.09758" lon="-0.48077">
        <ele>534.63</ele>
        <time>2016-12-11T09:02:04Z</time>
      </trkpt>
      <trkpt lat="43.0976" lon="-0.48085">
        <ele>534.15</ele>
        <time>2016-12-11T09:02:06Z</time>
      </trkpt>
      <trkpt lat="43.09761" lon="-0.4809">
        <ele>533.67</ele>
        <time>2016-12-11T09:02:07Z</time>
      </trkpt>
      <trkpt lat="43.09763" lon="-0.48107">
        <ele>532.71</ele>
        <time>2016-12-11T09:02:10Z</time>
      </trkpt>
      <trkpt lat="43.09765" lon="-0.48113">
        <ele>532.71</ele>
        <time>2016-12-11T09:02:11Z</time>
      </trkpt>
      <trkpt lat="43.09767" lon="-0.48119">
        <ele>531.27</ele>
        <time>2016-12-11T09:02:12Z</time>
      </trkpt>
      <trkpt lat="43.09783" lon="-0.48148">
        <ele>528.38</ele>
        <time>2016-12-11T09:02:19Z</time>
      </trkpt>
      <trkpt lat="43.0979" lon="-0.48154">
        <ele>527.42</ele>
        <time>2016-12-11T09:02:21Z</time>
      </trkpt>
      <trkpt lat="43.09794" lon="-0.48156">
        <ele>526.94</ele>
        <time>2016-12-11T09:02:22Z</time>
      </trkpt>
      <trkpt lat="43.09797" lon="-0.48158">
        <ele>526.94</ele>
        <time>2016-12-11T09:02:23Z</time>
      </trkpt>
      <trkpt lat="43.09799" lon="-0.48161">
        <ele>526.46</ele>
        <time>2016-12-11T09:02:24Z</time>
      </trkpt>
      <trkpt lat="43.09801" lon="-0.48164">
        <ele>525.98</ele>
        <time>2016-12-11T09:02:25Z</time>
      </trkpt>
      <trkpt lat="43.09803" lon="-0.48167">
        <ele>526.46</ele>
        <time>2016-12-11T09:02:26Z</time>
      </trkpt>
      <trkpt lat="43.09805" lon="-0.48169">
        <ele>525.98</ele>
        <time>2016-12-11T09:02:27Z</time>
      </trkpt>
      <trkpt lat="43.09807" lon="-0.48171">
        <ele>525.5</ele>
        <time>2016-12-11T09:02:28Z</time>
      </trkpt>
      <trkpt lat="43.0981" lon="-0.48172">
        <ele>525.5</ele>
        <time>2016-12-11T09:02:29Z</time>
      </trkpt>
      <trkpt lat="43.09814" lon="-0.48174">
        <ele>525.02</ele>
        <time>2016-12-11T09:02:31Z</time>
      </trkpt>
      <trkpt lat="43.09817" lon="-0.48174">
        <ele>525.5</ele>
        <time>2016-12-11T09:02:32Z</time>
      </trkpt>
      <trkpt lat="43.09818" lon="-0.48174">
        <ele>525.5</ele>
        <time>2016-12-11T09:02:33Z</time>
      </trkpt>
      <trkpt lat="43.0985" lon="-0.48161">
        <ele>522.61</ele>
        <time>2016-12-11T09:02:43Z</time>
      </trkpt>
      <trkpt lat="43.09852" lon="-0.48157">
        <ele>522.61</ele>
        <time>2016-12-11T09:02:44Z</time>
      </trkpt>
      <trkpt lat="43.09855" lon="-0.48154">
        <ele>521.65</ele>
        <time>2016-12-11T09:02:45Z</time>
      </trkpt>
      <trkpt lat="43.0986" lon="-0.48151">
        <ele>521.65</ele>
        <time>2016-12-11T09:02:46Z</time>
      </trkpt>
      <trkpt lat="43.09864" lon="-0.48148">
        <ele>520.69</ele>
        <time>2016-12-11T09:02:47Z</time>
      </trkpt>
      <trkpt lat="43.09868" lon="-0.48146">
        <ele>520.21</ele>
        <time>2016-12-11T09:02:48Z</time>
      </trkpt>
      <trkpt lat="43.09873" lon="-0.48145">
        <ele>520.21</ele>
        <time>2016-12-11T09:02:49Z</time>
      </trkpt>
      <trkpt lat="43.09878" lon="-0.48145">
        <ele>520.21</ele>
        <time>2016-12-11T09:02:50Z</time>
      </trkpt>
      <trkpt lat="43.09882" lon="-0.48144">
        <ele>519.73</ele>
        <time>2016-12-11T09:02:51Z</time>
      </trkpt>
      <trkpt lat="43.09898" lon="-0.48142">
        <ele>518.77</ele>
        <time>2016-12-11T09:02:54Z</time>
      </trkpt>
      <trkpt lat="43.09902" lon="-0.48143">
        <ele>517.81</ele>
        <time>2016-12-11T09:02:55Z</time>
      </trkpt>
      <trkpt lat="43.09906" lon="-0.48144">
        <ele>517.81</ele>
        <time>2016-12-11T09:02:56Z</time>
      </trkpt>
      <trkpt lat="43.0991" lon="-0.48145">
        <ele>517.81</ele>
        <time>2016-12-11T09:02:57Z</time>
      </trkpt>
      <trkpt lat="43.09914" lon="-0.48146">
        <ele>517.33</ele>
        <time>2016-12-11T09:02:58Z</time>
      </trkpt>
      <trkpt lat="43.09918" lon="-0.48146">
        <ele>517.33</ele>
        <time>2016-12-11T09:02:59Z</time>
      </trkpt>
      <trkpt lat="43.09958" lon="-0.48151">
        <ele>514.92</ele>
        <time>2016-12-11T09:03:09Z</time>
      </trkpt>
      <trkpt lat="43.09966" lon="-0.48152">
        <ele>514.44</ele>
        <time>2016-12-11T09:03:11Z</time>
      </trkpt>
      <trkpt lat="43.09969" lon="-0.48152">
        <ele>513.96</ele>
        <time>2016-12-11T09:03:12Z</time>
      </trkpt>
      <trkpt lat="43.09997" lon="-0.48148">
        <ele>512.52</ele>
        <time>2016-12-11T09:03:21Z</time>
      </trkpt>
      <trkpt lat="43.10005" lon="-0.48151">
        <ele>513</ele>
        <time>2016-12-11T09:03:27Z</time>
      </trkpt>
      <trkpt lat="43.10007" lon="-0.4815">
        <ele>512.52</ele>
        <time>2016-12-11T09:03:29Z</time>
      </trkpt>
      <trkpt lat="43.10008" lon="-0.4815">
        <ele>513</ele>
        <time>2016-12-11T09:03:30Z</time>
      </trkpt>
      <trkpt lat="43.1001" lon="-0.4815">
        <ele>512.52</ele>
        <time>2016-12-11T09:03:31Z</time>
      </trkpt>
      <trkpt lat="43.10019" lon="-0.48153">
        <ele>513</ele>
        <time>2016-12-11T09:03:46Z</time>
      </trkpt>
      <trkpt lat="43.10022" lon="-0.48153">
        <ele>513</ele>
        <time>2016-12-11T09:04:03Z</time>
      </trkpt>
      <trkpt lat="43.10028" lon="-0.48153">
        <ele>513</ele>
        <time>2016-12-11T09:04:13Z</time>
      </trkpt>
      <trkpt lat="43.10029" lon="-0.48153">
        <ele>513</ele>
        <time>2016-12-11T09:04:14Z</time>
      </trkpt>
      <trkpt lat="43.10032" lon="-0.48153">
        <ele>513</ele>
        <time>2016-12-11T09:04:15Z</time>
      </trkpt>
      <trkpt lat="43.10034" lon="-0.48154">
        <ele>513</ele>
        <time>2016-12-11T09:04:16Z</time>
      </trkpt>
      <trkpt lat="43.10037" lon="-0.48154">
        <ele>513</ele>
        <time>2016-12-11T09:04:17Z</time>
      </trkpt>
      <trkpt lat="43.10039" lon="-0.48155">
        <ele>513</ele>
        <time>2016-12-11T09:04:18Z</time>
      </trkpt>
      <trkpt lat="43.10042" lon="-0.48155">
        <ele>512.52</ele>
        <time>2016-12-11T09:04:19Z</time>
      </trkpt>
      <trkpt lat="43.10048" lon="-0.48156">
        <ele>513</ele>
        <time>2016-12-11T09:04:21Z</time>
      </trkpt>
      <trkpt lat="43.1005" lon="-0.48156">
        <ele>512.52</ele>
        <time>2016-12-11T09:04:22Z</time>
      </trkpt>
      <trkpt lat="43.10053" lon="-0.48156">
        <ele>512.52</ele>
        <time>2016-12-11T09:04:23Z</time>
      </trkpt>
      <trkpt lat="43.10056" lon="-0.48155">
        <ele>512.52</ele>
        <time>2016-12-11T09:04:24Z</time>
      </trkpt>
      <trkpt lat="43.10059" lon="-0.48155">
        <ele>512.52</ele>
        <time>2016-12-11T09:04:25Z</time>
      </trkpt>
      <trkpt lat="43.10062" lon="-0.48156">
        <ele>512.52</ele>
        <time>2016-12-11T09:04:26Z</time>
      </trkpt>
      <trkpt lat="43.10087" lon="-0.48163">
        <ele>512.04</ele>
        <time>2016-12-11T09:04:34Z</time>
      </trkpt>
      <trkpt lat="43.10088" lon="-0.48165">
        <ele>512.52</ele>
        <time>2016-12-11T09:04:35Z</time>
      </trkpt>
      <trkpt lat="43.10087" lon="-0.48167">
        <ele>513</ele>
        <time>2016-12-11T09:04:36Z</time>
      </trkpt>
      <trkpt lat="43.10086" lon="-0.48168">
        <ele>513</ele>
        <time>2016-12-11T09:04:37Z</time>
      </trkpt>
      <trkpt lat="43.10083" lon="-0.48167">
        <ele>513</ele>
        <time>2016-12-11T09:04:38Z</time>
      </trkpt>
      <trkpt lat="43.10076" lon="-0.48167">
        <ele>513.96</ele>
        <time>2016-12-11T09:04:42Z</time>
      </trkpt>
      <trkpt lat="43.10074" lon="-0.48168">
        <ele>514.92</ele>
        <time>2016-12-11T09:04:43Z</time>
      </trkpt>
      <trkpt lat="43.10072" lon="-0.48169">
        <ele>514.92</ele>
        <time>2016-12-11T09:04:44Z</time>
      </trkpt>
      <trkpt lat="43.1007" lon="-0.48169">
        <ele>514.92</ele>
        <time>2016-12-11T09:04:45Z</time>
      </trkpt>
      <trkpt lat="43.10068" lon="-0.48169">
        <ele>515.4</ele>
        <time>2016-12-11T09:04:46Z</time>
      </trkpt>
      <trkpt lat="43.10066" lon="-0.4817">
        <ele>515.4</ele>
        <time>2016-12-11T09:04:47Z</time>
      </trkpt>
      <trkpt lat="43.10064" lon="-0.4817">
        <ele>515.88</ele>
        <time>2016-12-11T09:04:48Z</time>
      </trkpt>
      <trkpt lat="43.10062" lon="-0.4817">
        <ele>516.37</ele>
        <time>2016-12-11T09:04:49Z</time>
      </trkpt>
      <trkpt lat="43.1006" lon="-0.4817">
        <ele>516.37</ele>
        <time>2016-12-11T09:04:50Z</time>
      </trkpt>
      <trkpt lat="43.10058" lon="-0.48171">
        <ele>516.85</ele>
        <time>2016-12-11T09:04:51Z</time>
      </trkpt>
      <trkpt lat="43.10056" lon="-0.48172">
        <ele>516.85</ele>
        <time>2016-12-11T09:04:52Z</time>
      </trkpt>
      <trkpt lat="43.10054" lon="-0.48173">
        <ele>516.85</ele>
        <time>2016-12-11T09:04:53Z</time>
      </trkpt>
      <trkpt lat="43.10051" lon="-0.48174">
        <ele>517.81</ele>
        <time>2016-12-11T09:04:55Z</time>
      </trkpt>
      <trkpt lat="43.10049" lon="-0.48175">
        <ele>517.81</ele>
        <time>2016-12-11T09:04:56Z</time>
      </trkpt>
      <trkpt lat="43.10039" lon="-0.48177">
        <ele>518.77</ele>
        <time>2016-12-11T09:05:01Z</time>
      </trkpt>
      <trkpt lat="43.10037" lon="-0.48179">
        <ele>518.77</ele>
        <time>2016-12-11T09:05:02Z</time>
      </trkpt>
      <trkpt lat="43.10035" lon="-0.4818">
        <ele>519.25</ele>
        <time>2016-12-11T09:05:03Z</time>
      </trkpt>
      <trkpt lat="43.10033" lon="-0.4818">
        <ele>519.25</ele>
        <time>2016-12-11T09:05:04Z</time>
      </trkpt>
      <trkpt lat="43.10031" lon="-0.48179">
        <ele>519.73</ele>
        <time>2016-12-11T09:05:05Z</time>
      </trkpt>
      <trkpt lat="43.10006" lon="-0.48177">
        <ele>522.61</ele>
        <time>2016-12-11T09:05:17Z</time>
      </trkpt>
      <trkpt lat="43.10005" lon="-0.48176">
        <ele>522.61</ele>
        <time>2016-12-11T09:05:18Z</time>
      </trkpt>
      <trkpt lat="43.10003" lon="-0.48176">
        <ele>523.09</ele>
        <time>2016-12-11T09:05:19Z</time>
      </trkpt>
      <trkpt lat="43.10001" lon="-0.48176">
        <ele>523.09</ele>
        <time>2016-12-11T09:05:20Z</time>
      </trkpt>
      <trkpt lat="43.1" lon="-0.48175">
        <ele>523.58</ele>
        <time>2016-12-11T09:05:21Z</time>
      </trkpt>
      <trkpt lat="43.09998" lon="-0.48175">
        <ele>523.58</ele>
        <time>2016-12-11T09:05:22Z</time>
      </trkpt>
      <trkpt lat="43.09981" lon="-0.48173">
        <ele>525.98</ele>
        <time>2016-12-11T09:05:32Z</time>
      </trkpt>
      <trkpt lat="43.09959" lon="-0.48172">
        <ele>528.86</ele>
        <time>2016-12-11T09:05:44Z</time>
      </trkpt>
      <trkpt lat="43.09955" lon="-0.48171">
        <ele>528.86</ele>
        <time>2016-12-11T09:05:46Z</time>
      </trkpt>
      <trkpt lat="43.09953" lon="-0.48171">
        <ele>528.86</ele>
        <time>2016-12-11T09:05:47Z</time>
      </trkpt>
      <trkpt lat="43.09951" lon="-0.48171">
        <ele>529.34</ele>
        <time>2016-12-11T09:05:48Z</time>
      </trkpt>
      <trkpt lat="43.09949" lon="-0.48171">
        <ele>529.82</ele>
        <time>2016-12-11T09:05:49Z</time>
      </trkpt>
      <trkpt lat="43.09947" lon="-0.48171">
        <ele>529.82</ele>
        <time>2016-12-11T09:05:50Z</time>
      </trkpt>
      <trkpt lat="43.09926" lon="-0.48168">
        <ele>532.23</ele>
        <time>2016-12-11T09:06:00Z</time>
      </trkpt>
      <trkpt lat="43.09917" lon="-0.48169">
        <ele>532.71</ele>
        <time>2016-12-11T09:06:04Z</time>
      </trkpt>
      <trkpt lat="43.09895" lon="-0.48173">
        <ele>534.63</ele>
        <time>2016-12-11T09:06:15Z</time>
      </trkpt>
      <trkpt lat="43.09893" lon="-0.48175">
        <ele>535.11</ele>
        <time>2016-12-11T09:06:16Z</time>
      </trkpt>
      <trkpt lat="43.09878" lon="-0.48181">
        <ele>537.03</ele>
        <time>2016-12-11T09:06:24Z</time>
      </trkpt>
      <trkpt lat="43.09877" lon="-0.48182">
        <ele>537.51</ele>
        <time>2016-12-11T09:06:25Z</time>
      </trkpt>
      <trkpt lat="43.09874" lon="-0.48185">
        <ele>537.03</ele>
        <time>2016-12-11T09:06:27Z</time>
      </trkpt>
      <trkpt lat="43.09873" lon="-0.48187">
        <ele>537.99</ele>
        <time>2016-12-11T09:06:28Z</time>
      </trkpt>
      <trkpt lat="43.09864" lon="-0.48199">
        <ele>539.44</ele>
        <time>2016-12-11T09:06:34Z</time>
      </trkpt>
      <trkpt lat="43.09862" lon="-0.48201">
        <ele>539.44</ele>
        <time>2016-12-11T09:06:35Z</time>
      </trkpt>
      <trkpt lat="43.09859" lon="-0.48204">
        <ele>539.92</ele>
        <time>2016-12-11T09:06:37Z</time>
      </trkpt>
      <trkpt lat="43.09857" lon="-0.48206">
        <ele>540.4</ele>
        <time>2016-12-11T09:06:38Z</time>
      </trkpt>
      <trkpt lat="43.09856" lon="-0.48208">
        <ele>540.4</ele>
        <time>2016-12-11T09:06:39Z</time>
      </trkpt>
      <trkpt lat="43.09855" lon="-0.4821">
        <ele>540.4</ele>
        <time>2016-12-11T09:06:40Z</time>
      </trkpt>
      <trkpt lat="43.09839" lon="-0.48226">
        <ele>542.32</ele>
        <time>2016-12-11T09:06:50Z</time>
      </trkpt>
      <trkpt lat="43.09833" lon="-0.48227">
        <ele>542.8</ele>
        <time>2016-12-11T09:06:53Z</time>
      </trkpt>
      <trkpt lat="43.0983" lon="-0.48229">
        <ele>542.8</ele>
        <time>2016-12-11T09:06:54Z</time>
      </trkpt>
      <trkpt lat="43.09828" lon="-0.4823">
        <ele>543.28</ele>
        <time>2016-12-11T09:06:55Z</time>
      </trkpt>
      <trkpt lat="43.09825" lon="-0.48231">
        <ele>543.28</ele>
        <time>2016-12-11T09:06:56Z</time>
      </trkpt>
      <trkpt lat="43.09823" lon="-0.48232">
        <ele>543.28</ele>
        <time>2016-12-11T09:06:57Z</time>
      </trkpt>
      <trkpt lat="43.09821" lon="-0.48234">
        <ele>543.76</ele>
        <time>2016-12-11T09:06:58Z</time>
      </trkpt>
      <trkpt lat="43.09819" lon="-0.48236">
        <ele>544.72</ele>
        <time>2016-12-11T09:06:59Z</time>
      </trkpt>
      <trkpt lat="43.09819" lon="-0.48239">
        <ele>544.72</ele>
        <time>2016-12-11T09:07:00Z</time>
      </trkpt>
      <trkpt lat="43.09818" lon="-0.48241">
        <ele>544.72</ele>
        <time>2016-12-11T09:07:01Z</time>
      </trkpt>
      <trkpt lat="43.09819" lon="-0.48243">
        <ele>544.72</ele>
        <time>2016-12-11T09:07:02Z</time>
      </trkpt>
      <trkpt lat="43.0982" lon="-0.48244">
        <ele>544.72</ele>
        <time>2016-12-11T09:07:03Z</time>
      </trkpt>
      <trkpt lat="43.09821" lon="-0.48245">
        <ele>544.72</ele>
        <time>2016-12-11T09:07:04Z</time>
      </trkpt>
      <trkpt lat="43.09823" lon="-0.48246">
        <ele>545.2</ele>
        <time>2016-12-11T09:07:05Z</time>
      </trkpt>
      <trkpt lat="43.09825" lon="-0.48246">
        <ele>545.2</ele>
        <time>2016-12-11T09:07:06Z</time>
      </trkpt>
      <trkpt lat="43.09827" lon="-0.48246">
        <ele>545.2</ele>
        <time>2016-12-11T09:07:07Z</time>
      </trkpt>
      <trkpt lat="43.09828" lon="-0.48246">
        <ele>545.2</ele>
        <time>2016-12-11T09:07:08Z</time>
      </trkpt>
      <trkpt lat="43.09831" lon="-0.48245">
        <ele>544.72</ele>
        <time>2016-12-11T09:07:09Z</time>
      </trkpt>
      <trkpt lat="43.09833" lon="-0.48245">
        <ele>545.69</ele>
        <time>2016-12-11T09:07:10Z</time>
      </trkpt>
      <trkpt lat="43.09835" lon="-0.48243">
        <ele>545.69</ele>
        <time>2016-12-11T09:07:11Z</time>
      </trkpt>
      <trkpt lat="43.09837" lon="-0.48242">
        <ele>545.2</ele>
        <time>2016-12-11T09:07:12Z</time>
      </trkpt>
      <trkpt lat="43.09845" lon="-0.48236">
        <ele>547.13</ele>
        <time>2016-12-11T09:07:18Z</time>
      </trkpt>
      <trkpt lat="43.09847" lon="-0.48236">
        <ele>546.65</ele>
        <time>2016-12-11T09:07:19Z</time>
      </trkpt>
      <trkpt lat="43.09848" lon="-0.48235">
        <ele>547.13</ele>
        <time>2016-12-11T09:07:20Z</time>
      </trkpt>
      <trkpt lat="43.09849" lon="-0.48234">
        <ele>547.61</ele>
        <time>2016-12-11T09:07:21Z</time>
      </trkpt>
      <trkpt lat="43.09851" lon="-0.48233">
        <ele>547.61</ele>
        <time>2016-12-11T09:07:22Z</time>
      </trkpt>
      <trkpt lat="43.09853" lon="-0.48233">
        <ele>548.09</ele>
        <time>2016-12-11T09:07:23Z</time>
      </trkpt>
      <trkpt lat="43.09854" lon="-0.48232">
        <ele>548.09</ele>
        <time>2016-12-11T09:07:24Z</time>
      </trkpt>
      <trkpt lat="43.09856" lon="-0.48231">
        <ele>548.09</ele>
        <time>2016-12-11T09:07:25Z</time>
      </trkpt>
      <trkpt lat="43.0987" lon="-0.48224">
        <ele>549.53</ele>
        <time>2016-12-11T09:07:32Z</time>
      </trkpt>
      <trkpt lat="43.09872" lon="-0.48223">
        <ele>550.49</ele>
        <time>2016-12-11T09:07:33Z</time>
      </trkpt>
      <trkpt lat="43.09874" lon="-0.48223">
        <ele>551.45</ele>
        <time>2016-12-11T09:07:34Z</time>
      </trkpt>
      <trkpt lat="43.09876" lon="-0.48222">
        <ele>550.97</ele>
        <time>2016-12-11T09:07:35Z</time>
      </trkpt>
      <trkpt lat="43.09878" lon="-0.48222">
        <ele>550.97</ele>
        <time>2016-12-11T09:07:36Z</time>
      </trkpt>
      <trkpt lat="43.0988" lon="-0.48221">
        <ele>551.45</ele>
        <time>2016-12-11T09:07:37Z</time>
      </trkpt>
      <trkpt lat="43.09903" lon="-0.48217">
        <ele>554.34</ele>
        <time>2016-12-11T09:07:48Z</time>
      </trkpt>
      <trkpt lat="43.09923" lon="-0.48221">
        <ele>557.7</ele>
        <time>2016-12-11T09:07:58Z</time>
      </trkpt>
      <trkpt lat="43.09947" lon="-0.48232">
        <ele>560.11</ele>
        <time>2016-12-11T09:08:09Z</time>
      </trkpt>
      <trkpt lat="43.09972" lon="-0.48242">
        <ele>562.51</ele>
        <time>2016-12-11T09:08:20Z</time>
      </trkpt>
      <trkpt lat="43.09989" lon="-0.48252">
        <ele>564.43</ele>
        <time>2016-12-11T09:08:29Z</time>
      </trkpt>
      <trkpt lat="43.09991" lon="-0.48253">
        <ele>564.91</ele>
        <time>2016-12-11T09:08:30Z</time>
      </trkpt>
      <trkpt lat="43.09992" lon="-0.48255">
        <ele>565.39</ele>
        <time>2016-12-11T09:08:31Z</time>
      </trkpt>
      <trkpt lat="43.09993" lon="-0.48256">
        <ele>564.91</ele>
        <time>2016-12-11T09:08:32Z</time>
      </trkpt>
      <trkpt lat="43.10014" lon="-0.48282">
        <ele>566.83</ele>
        <time>2016-12-11T09:08:43Z</time>
      </trkpt>
      <trkpt lat="43.10026" lon="-0.48321">
        <ele>567.8</ele>
        <time>2016-12-11T09:08:54Z</time>
      </trkpt>
      <trkpt lat="43.10027" lon="-0.48325">
        <ele>568.28</ele>
        <time>2016-12-11T09:08:55Z</time>
      </trkpt>
      <trkpt lat="43.10027" lon="-0.48328">
        <ele>568.28</ele>
        <time>2016-12-11T09:08:56Z</time>
      </trkpt>
      <trkpt lat="43.10031" lon="-0.48373">
        <ele>570.68</ele>
        <time>2016-12-11T09:09:09Z</time>
      </trkpt>
      <trkpt lat="43.10028" lon="-0.48407">
        <ele>574.04</ele>
        <time>2016-12-11T09:09:20Z</time>
      </trkpt>
      <trkpt lat="43.10029" lon="-0.4841">
        <ele>574.04</ele>
        <time>2016-12-11T09:09:21Z</time>
      </trkpt>
      <trkpt lat="43.10029" lon="-0.48413">
        <ele>574.53</ele>
        <time>2016-12-11T09:09:22Z</time>
      </trkpt>
      <trkpt lat="43.10031" lon="-0.48451">
        <ele>577.89</ele>
        <time>2016-12-11T09:09:34Z</time>
      </trkpt>
      <trkpt lat="43.10033" lon="-0.4847">
        <ele>578.85</ele>
        <time>2016-12-11T09:09:40Z</time>
      </trkpt>
      <trkpt lat="43.10034" lon="-0.48473">
        <ele>579.33</ele>
        <time>2016-12-11T09:09:41Z</time>
      </trkpt>
      <trkpt lat="43.10039" lon="-0.4851">
        <ele>580.77</ele>
        <time>2016-12-11T09:09:53Z</time>
      </trkpt>
      <trkpt lat="43.10032" lon="-0.48539">
        <ele>584.14</ele>
        <time>2016-12-11T09:10:03Z</time>
      </trkpt>
      <trkpt lat="43.10028" lon="-0.4857">
        <ele>587.02</ele>
        <time>2016-12-11T09:10:15Z</time>
      </trkpt>
      <trkpt lat="43.10018" lon="-0.486">
        <ele>590.39</ele>
        <time>2016-12-11T09:10:27Z</time>
      </trkpt>
      <trkpt lat="43.1001" lon="-0.48623">
        <ele>592.79</ele>
        <time>2016-12-11T09:10:38Z</time>
      </trkpt>
      <trkpt lat="43.10004" lon="-0.48627">
        <ele>593.27</ele>
        <time>2016-12-11T09:10:42Z</time>
      </trkpt>
      <trkpt lat="43.10003" lon="-0.48628">
        <ele>594.23</ele>
        <time>2016-12-11T09:10:43Z</time>
      </trkpt>
      <trkpt lat="43.10002" lon="-0.48629">
        <ele>593.75</ele>
        <time>2016-12-11T09:10:44Z</time>
      </trkpt>
      <trkpt lat="43.1" lon="-0.4863">
        <ele>594.23</ele>
        <time>2016-12-11T09:10:45Z</time>
      </trkpt>
      <trkpt lat="43.09982" lon="-0.48645">
        <ele>596.64</ele>
        <time>2016-12-11T09:10:56Z</time>
      </trkpt>
      <trkpt lat="43.09975" lon="-0.48654">
        <ele>597.6</ele>
        <time>2016-12-11T09:11:01Z</time>
      </trkpt>
      <trkpt lat="43.09974" lon="-0.48656">
        <ele>598.08</ele>
        <time>2016-12-11T09:11:02Z</time>
      </trkpt>
      <trkpt lat="43.09957" lon="-0.48671">
        <ele>600.48</ele>
        <time>2016-12-11T09:11:12Z</time>
      </trkpt>
      <trkpt lat="43.09955" lon="-0.48672">
        <ele>600.48</ele>
        <time>2016-12-11T09:11:13Z</time>
      </trkpt>
      <trkpt lat="43.09953" lon="-0.48673">
        <ele>600.48</ele>
        <time>2016-12-11T09:11:14Z</time>
      </trkpt>
      <trkpt lat="43.09951" lon="-0.48674">
        <ele>600.96</ele>
        <time>2016-12-11T09:11:15Z</time>
      </trkpt>
      <trkpt lat="43.09949" lon="-0.48675">
        <ele>601.44</ele>
        <time>2016-12-11T09:11:16Z</time>
      </trkpt>
      <trkpt lat="43.09948" lon="-0.48675">
        <ele>600.96</ele>
        <time>2016-12-11T09:11:17Z</time>
      </trkpt>
      <trkpt lat="43.09946" lon="-0.48676">
        <ele>601.44</ele>
        <time>2016-12-11T09:11:18Z</time>
      </trkpt>
      <trkpt lat="43.09944" lon="-0.48676">
        <ele>601.44</ele>
        <time>2016-12-11T09:11:19Z</time>
      </trkpt>
      <trkpt lat="43.09943" lon="-0.48676">
        <ele>601.92</ele>
        <time>2016-12-11T09:11:20Z</time>
      </trkpt>
      <trkpt lat="43.0994" lon="-0.48677">
        <ele>602.4</ele>
        <time>2016-12-11T09:11:21Z</time>
      </trkpt>
      <trkpt lat="43.0993" lon="-0.48678">
        <ele>603.36</ele>
        <time>2016-12-11T09:11:26Z</time>
      </trkpt>
      <trkpt lat="43.09928" lon="-0.48678">
        <ele>603.36</ele>
        <time>2016-12-11T09:11:27Z</time>
      </trkpt>
      <trkpt lat="43.09923" lon="-0.4868">
        <ele>604.33</ele>
        <time>2016-12-11T09:11:30Z</time>
      </trkpt>
      <trkpt lat="43.09921" lon="-0.4868">
        <ele>604.81</ele>
        <time>2016-12-11T09:11:31Z</time>
      </trkpt>
      <trkpt lat="43.09899" lon="-0.48679">
        <ele>607.21</ele>
        <time>2016-12-11T09:11:43Z</time>
      </trkpt>
      <trkpt lat="43.09897" lon="-0.48679">
        <ele>607.69</ele>
        <time>2016-12-11T09:11:44Z</time>
      </trkpt>
      <trkpt lat="43.09895" lon="-0.48679">
        <ele>607.69</ele>
        <time>2016-12-11T09:11:45Z</time>
      </trkpt>
      <trkpt lat="43.09888" lon="-0.48674">
        <ele>608.17</ele>
        <time>2016-12-11T09:11:49Z</time>
      </trkpt>
      <trkpt lat="43.09887" lon="-0.48674">
        <ele>608.65</ele>
        <time>2016-12-11T09:11:50Z</time>
      </trkpt>
      <trkpt lat="43.09885" lon="-0.48673">
        <ele>608.65</ele>
        <time>2016-12-11T09:11:51Z</time>
      </trkpt>
      <trkpt lat="43.09883" lon="-0.48673">
        <ele>609.13</ele>
        <time>2016-12-11T09:11:52Z</time>
      </trkpt>
      <trkpt lat="43.09881" lon="-0.48672">
        <ele>609.61</ele>
        <time>2016-12-11T09:11:53Z</time>
      </trkpt>
      <trkpt lat="43.09875" lon="-0.4867">
        <ele>610.09</ele>
        <time>2016-12-11T09:11:56Z</time>
      </trkpt>
      <trkpt lat="43.09873" lon="-0.48669">
        <ele>610.09</ele>
        <time>2016-12-11T09:11:57Z</time>
      </trkpt>
      <trkpt lat="43.09871" lon="-0.48668">
        <ele>611.06</ele>
        <time>2016-12-11T09:11:58Z</time>
      </trkpt>
      <trkpt lat="43.09869" lon="-0.48666">
        <ele>610.57</ele>
        <time>2016-12-11T09:11:59Z</time>
      </trkpt>
      <trkpt lat="43.09868" lon="-0.48665">
        <ele>611.06</ele>
        <time>2016-12-11T09:12:00Z</time>
      </trkpt>
      <trkpt lat="43.09853" lon="-0.48655">
        <ele>614.42</ele>
        <time>2016-12-11T09:12:09Z</time>
      </trkpt>
      <trkpt lat="43.09834" lon="-0.48627">
        <ele>615.38</ele>
        <time>2016-12-11T09:12:21Z</time>
      </trkpt>
      <trkpt lat="43.09821" lon="-0.48619">
        <ele>615.86</ele>
        <time>2016-12-11T09:12:27Z</time>
      </trkpt>
      <trkpt lat="43.09819" lon="-0.4862">
        <ele>615.86</ele>
        <time>2016-12-11T09:12:28Z</time>
      </trkpt>
      <trkpt lat="43.09818" lon="-0.48623">
        <ele>616.82</ele>
        <time>2016-12-11T09:12:29Z</time>
      </trkpt>
      <trkpt lat="43.09817" lon="-0.48625">
        <ele>616.82</ele>
        <time>2016-12-11T09:12:30Z</time>
      </trkpt>
      <trkpt lat="43.09816" lon="-0.48627">
        <ele>617.3</ele>
        <time>2016-12-11T09:12:31Z</time>
      </trkpt>
      <trkpt lat="43.09816" lon="-0.4863">
        <ele>616.82</ele>
        <time>2016-12-11T09:12:32Z</time>
      </trkpt>
      <trkpt lat="43.09816" lon="-0.48632">
        <ele>617.78</ele>
        <time>2016-12-11T09:12:33Z</time>
      </trkpt>
      <trkpt lat="43.09817" lon="-0.48634">
        <ele>617.78</ele>
        <time>2016-12-11T09:12:34Z</time>
      </trkpt>
      <trkpt lat="43.09818" lon="-0.48637">
        <ele>617.78</ele>
        <time>2016-12-11T09:12:35Z</time>
      </trkpt>
      <trkpt lat="43.0982" lon="-0.4864">
        <ele>618.75</ele>
        <time>2016-12-11T09:12:36Z</time>
      </trkpt>
      <trkpt lat="43.09821" lon="-0.48642">
        <ele>618.26</ele>
        <time>2016-12-11T09:12:37Z</time>
      </trkpt>
      <trkpt lat="43.09823" lon="-0.48644">
        <ele>618.26</ele>
        <time>2016-12-11T09:12:38Z</time>
      </trkpt>
      <trkpt lat="43.09824" lon="-0.48647">
        <ele>618.26</ele>
        <time>2016-12-11T09:12:39Z</time>
      </trkpt>
      <trkpt lat="43.09826" lon="-0.48649">
        <ele>618.75</ele>
        <time>2016-12-11T09:12:40Z</time>
      </trkpt>
      <trkpt lat="43.09827" lon="-0.48651">
        <ele>618.75</ele>
        <time>2016-12-11T09:12:41Z</time>
      </trkpt>
      <trkpt lat="43.09834" lon="-0.48659">
        <ele>619.71</ele>
        <time>2016-12-11T09:12:45Z</time>
      </trkpt>
      <trkpt lat="43.09835" lon="-0.48662">
        <ele>619.23</ele>
        <time>2016-12-11T09:12:46Z</time>
      </trkpt>
      <trkpt lat="43.09846" lon="-0.4869">
        <ele>622.11</ele>
        <time>2016-12-11T09:12:56Z</time>
      </trkpt>
      <trkpt lat="43.09851" lon="-0.4871">
        <ele>623.07</ele>
        <time>2016-12-11T09:13:02Z</time>
      </trkpt>
      <trkpt lat="43.09852" lon="-0.48713">
        <ele>623.07</ele>
        <time>2016-12-11T09:13:03Z</time>
      </trkpt>
      <trkpt lat="43.09853" lon="-0.48716">
        <ele>623.55</ele>
        <time>2016-12-11T09:13:04Z</time>
      </trkpt>
      <trkpt lat="43.09854" lon="-0.48719">
        <ele>624.03</ele>
        <time>2016-12-11T09:13:05Z</time>
      </trkpt>
      <trkpt lat="43.09856" lon="-0.48723">
        <ele>624.51</ele>
        <time>2016-12-11T09:13:07Z</time>
      </trkpt>
      <trkpt lat="43.09858" lon="-0.48725">
        <ele>624.99</ele>
        <time>2016-12-11T09:13:08Z</time>
      </trkpt>
      <trkpt lat="43.09859" lon="-0.48728">
        <ele>625.47</ele>
        <time>2016-12-11T09:13:09Z</time>
      </trkpt>
      <trkpt lat="43.09869" lon="-0.48754">
        <ele>628.36</ele>
        <time>2016-12-11T09:13:20Z</time>
      </trkpt>
      <trkpt lat="43.0987" lon="-0.48756">
        <ele>628.36</ele>
        <time>2016-12-11T09:13:21Z</time>
      </trkpt>
      <trkpt lat="43.09871" lon="-0.48759">
        <ele>628.84</ele>
        <time>2016-12-11T09:13:22Z</time>
      </trkpt>
      <trkpt lat="43.09871" lon="-0.48761">
        <ele>629.32</ele>
        <time>2016-12-11T09:13:23Z</time>
      </trkpt>
      <trkpt lat="43.09872" lon="-0.48772">
        <ele>630.28</ele>
        <time>2016-12-11T09:13:28Z</time>
      </trkpt>
      <trkpt lat="43.09872" lon="-0.48774">
        <ele>630.28</ele>
        <time>2016-12-11T09:13:29Z</time>
      </trkpt>
      <trkpt lat="43.09876" lon="-0.48793">
        <ele>632.68</ele>
        <time>2016-12-11T09:13:37Z</time>
      </trkpt>
      <trkpt lat="43.09878" lon="-0.48797">
        <ele>633.17</ele>
        <time>2016-12-11T09:13:39Z</time>
      </trkpt>
      <trkpt lat="43.09879" lon="-0.48799">
        <ele>633.17</ele>
        <time>2016-12-11T09:13:40Z</time>
      </trkpt>
      <trkpt lat="43.0988" lon="-0.48802">
        <ele>633.65</ele>
        <time>2016-12-11T09:13:41Z</time>
      </trkpt>
      <trkpt lat="43.09881" lon="-0.48805">
        <ele>633.65</ele>
        <time>2016-12-11T09:13:42Z</time>
      </trkpt>
      <trkpt lat="43.09882" lon="-0.48807">
        <ele>633.65</ele>
        <time>2016-12-11T09:13:43Z</time>
      </trkpt>
      <trkpt lat="43.09882" lon="-0.48809">
        <ele>633.65</ele>
        <time>2016-12-11T09:13:44Z</time>
      </trkpt>
      <trkpt lat="43.09883" lon="-0.48812">
        <ele>634.13</ele>
        <time>2016-12-11T09:13:45Z</time>
      </trkpt>
      <trkpt lat="43.09882" lon="-0.48814">
        <ele>634.13</ele>
        <time>2016-12-11T09:13:46Z</time>
      </trkpt>
      <trkpt lat="43.09882" lon="-0.48817">
        <ele>634.61</ele>
        <time>2016-12-11T09:13:47Z</time>
      </trkpt>
      <trkpt lat="43.09883" lon="-0.48819">
        <ele>634.13</ele>
        <time>2016-12-11T09:13:48Z</time>
      </trkpt>
      <trkpt lat="43.09883" lon="-0.48822">
        <ele>634.61</ele>
        <time>2016-12-11T09:13:49Z</time>
      </trkpt>
      <trkpt lat="43.09884" lon="-0.48825">
        <ele>634.61</ele>
        <time>2016-12-11T09:13:50Z</time>
      </trkpt>
      <trkpt lat="43.09884" lon="-0.48827">
        <ele>635.09</ele>
        <time>2016-12-11T09:13:51Z</time>
      </trkpt>
      <trkpt lat="43.09886" lon="-0.4883">
        <ele>634.61</ele>
        <time>2016-12-11T09:13:52Z</time>
      </trkpt>
      <trkpt lat="43.09887" lon="-0.48833">
        <ele>635.09</ele>
        <time>2016-12-11T09:13:53Z</time>
      </trkpt>
      <trkpt lat="43.09899" lon="-0.48859">
        <ele>636.53</ele>
        <time>2016-12-11T09:14:04Z</time>
      </trkpt>
      <trkpt lat="43.09901" lon="-0.48867">
        <ele>637.97</ele>
        <time>2016-12-11T09:14:07Z</time>
      </trkpt>
      <trkpt lat="43.09901" lon="-0.48869">
        <ele>637.97</ele>
        <time>2016-12-11T09:14:08Z</time>
      </trkpt>
      <trkpt lat="43.09901" lon="-0.48871">
        <ele>637.97</ele>
        <time>2016-12-11T09:14:09Z</time>
      </trkpt>
      <trkpt lat="43.09902" lon="-0.48874">
        <ele>638.45</ele>
        <time>2016-12-11T09:14:10Z</time>
      </trkpt>
      <trkpt lat="43.09903" lon="-0.48876">
        <ele>638.93</ele>
        <time>2016-12-11T09:14:11Z</time>
      </trkpt>
      <trkpt lat="43.09904" lon="-0.48879">
        <ele>638.93</ele>
        <time>2016-12-11T09:14:12Z</time>
      </trkpt>
      <trkpt lat="43.09905" lon="-0.48882">
        <ele>638.93</ele>
        <time>2016-12-11T09:14:13Z</time>
      </trkpt>
      <trkpt lat="43.09911" lon="-0.48895">
        <ele>639.41</ele>
        <time>2016-12-11T09:14:18Z</time>
      </trkpt>
      <trkpt lat="43.09912" lon="-0.48898">
        <ele>639.89</ele>
        <time>2016-12-11T09:14:19Z</time>
      </trkpt>
      <trkpt lat="43.09915" lon="-0.48902">
        <ele>640.38</ele>
        <time>2016-12-11T09:14:21Z</time>
      </trkpt>
      <trkpt lat="43.09916" lon="-0.48905">
        <ele>640.38</ele>
        <time>2016-12-11T09:14:22Z</time>
      </trkpt>
      <trkpt lat="43.09917" lon="-0.48908">
        <ele>640.38</ele>
        <time>2016-12-11T09:14:23Z</time>
      </trkpt>
      <trkpt lat="43.09917" lon="-0.4891">
        <ele>640.86</ele>
        <time>2016-12-11T09:14:24Z</time>
      </trkpt>
      <trkpt lat="43.09919" lon="-0.48913">
        <ele>640.86</ele>
        <time>2016-12-11T09:14:25Z</time>
      </trkpt>
      <trkpt lat="43.0992" lon="-0.48915">
        <ele>640.86</ele>
        <time>2016-12-11T09:14:26Z</time>
      </trkpt>
      <trkpt lat="43.09923" lon="-0.48919">
        <ele>641.34</ele>
        <time>2016-12-11T09:14:28Z</time>
      </trkpt>
      <trkpt lat="43.09925" lon="-0.48921">
        <ele>641.82</ele>
        <time>2016-12-11T09:14:29Z</time>
      </trkpt>
      <trkpt lat="43.09926" lon="-0.48924">
        <ele>641.34</ele>
        <time>2016-12-11T09:14:30Z</time>
      </trkpt>
      <trkpt lat="43.09927" lon="-0.48926">
        <ele>641.82</ele>
        <time>2016-12-11T09:14:31Z</time>
      </trkpt>
      <trkpt lat="43.09928" lon="-0.48928">
        <ele>641.82</ele>
        <time>2016-12-11T09:14:32Z</time>
      </trkpt>
      <trkpt lat="43.09942" lon="-0.48943">
        <ele>644.22</ele>
        <time>2016-12-11T09:14:42Z</time>
      </trkpt>
      <trkpt lat="43.09957" lon="-0.48956">
        <ele>645.66</ele>
        <time>2016-12-11T09:14:51Z</time>
      </trkpt>
      <trkpt lat="43.09975" lon="-0.48964">
        <ele>647.59</ele>
        <time>2016-12-11T09:15:02Z</time>
      </trkpt>
      <trkpt lat="43.09998" lon="-0.4897">
        <ele>650.47</ele>
        <time>2016-12-11T09:15:13Z</time>
      </trkpt>
      <trkpt lat="43.10011" lon="-0.48971">
        <ele>651.91</ele>
        <time>2016-12-11T09:15:20Z</time>
      </trkpt>
      <trkpt lat="43.10012" lon="-0.48971">
        <ele>652.39</ele>
        <time>2016-12-11T09:15:21Z</time>
      </trkpt>
      <trkpt lat="43.10014" lon="-0.4897">
        <ele>652.39</ele>
        <time>2016-12-11T09:15:22Z</time>
      </trkpt>
      <trkpt lat="43.10024" lon="-0.48967">
        <ele>653.35</ele>
        <time>2016-12-11T09:15:30Z</time>
      </trkpt>
      <trkpt lat="43.10042" lon="-0.4896">
        <ele>655.28</ele>
        <time>2016-12-11T09:15:39Z</time>
      </trkpt>
      <trkpt lat="43.10045" lon="-0.4896">
        <ele>655.76</ele>
        <time>2016-12-11T09:15:40Z</time>
      </trkpt>
      <trkpt lat="43.10047" lon="-0.48959">
        <ele>655.76</ele>
        <time>2016-12-11T09:15:41Z</time>
      </trkpt>
      <trkpt lat="43.10049" lon="-0.48958">
        <ele>656.24</ele>
        <time>2016-12-11T09:15:42Z</time>
      </trkpt>
      <trkpt lat="43.10051" lon="-0.48956">
        <ele>656.72</ele>
        <time>2016-12-11T09:15:43Z</time>
      </trkpt>
      <trkpt lat="43.10052" lon="-0.48955">
        <ele>656.72</ele>
        <time>2016-12-11T09:15:44Z</time>
      </trkpt>
      <trkpt lat="43.10065" lon="-0.48942">
        <ele>658.16</ele>
        <time>2016-12-11T09:15:52Z</time>
      </trkpt>
      <trkpt lat="43.10076" lon="-0.48927">
        <ele>660.08</ele>
        <time>2016-12-11T09:16:00Z</time>
      </trkpt>
      <trkpt lat="43.10078" lon="-0.48924">
        <ele>660.08</ele>
        <time>2016-12-11T09:16:01Z</time>
      </trkpt>
      <trkpt lat="43.10092" lon="-0.48901">
        <ele>663.45</ele>
        <time>2016-12-11T09:16:13Z</time>
      </trkpt>
      <trkpt lat="43.10095" lon="-0.48895">
        <ele>663.93</ele>
        <time>2016-12-11T09:16:16Z</time>
      </trkpt>
      <trkpt lat="43.1011" lon="-0.48886">
        <ele>665.37</ele>
        <time>2016-12-11T09:16:26Z</time>
      </trkpt>
      <trkpt lat="43.10115" lon="-0.4889">
        <ele>665.85</ele>
        <time>2016-12-11T09:16:29Z</time>
      </trkpt>
      <trkpt lat="43.10129" lon="-0.48915">
        <ele>669.22</ele>
        <time>2016-12-11T09:16:42Z</time>
      </trkpt>
      <trkpt lat="43.10133" lon="-0.4892">
        <ele>669.7</ele>
        <time>2016-12-11T09:16:45Z</time>
      </trkpt>
      <trkpt lat="43.10136" lon="-0.4893">
        <ele>670.66</ele>
        <time>2016-12-11T09:16:50Z</time>
      </trkpt>
      <trkpt lat="43.10146" lon="-0.48947">
        <ele>673.06</ele>
        <time>2016-12-11T09:17:00Z</time>
      </trkpt>
      <trkpt lat="43.10147" lon="-0.48953">
        <ele>673.54</ele>
        <time>2016-12-11T09:17:02Z</time>
      </trkpt>
      <trkpt lat="43.1015" lon="-0.48962">
        <ele>674.5</ele>
        <time>2016-12-11T09:17:06Z</time>
      </trkpt>
      <trkpt lat="43.10153" lon="-0.48982">
        <ele>675.94</ele>
        <time>2016-12-11T09:17:13Z</time>
      </trkpt>
      <trkpt lat="43.10156" lon="-0.49003">
        <ele>677.39</ele>
        <time>2016-12-11T09:17:21Z</time>
      </trkpt>
      <trkpt lat="43.10162" lon="-0.49037">
        <ele>679.79</ele>
        <time>2016-12-11T09:17:33Z</time>
      </trkpt>
      <trkpt lat="43.10165" lon="-0.4905">
        <ele>680.75</ele>
        <time>2016-12-11T09:17:38Z</time>
      </trkpt>
      <trkpt lat="43.10165" lon="-0.49057">
        <ele>681.23</ele>
        <time>2016-12-11T09:17:41Z</time>
      </trkpt>
      <trkpt lat="43.10169" lon="-0.49083">
        <ele>683.15</ele>
        <time>2016-12-11T09:17:50Z</time>
      </trkpt>
      <trkpt lat="43.10175" lon="-0.49124">
        <ele>684.6</ele>
        <time>2016-12-11T09:18:02Z</time>
      </trkpt>
      <trkpt lat="43.10184" lon="-0.49163">
        <ele>685.56</ele>
        <time>2016-12-11T09:18:13Z</time>
      </trkpt>
      <trkpt lat="43.10188" lon="-0.49209">
        <ele>686.04</ele>
        <time>2016-12-11T09:18:25Z</time>
      </trkpt>
      <trkpt lat="43.10198" lon="-0.4927">
        <ele>685.08</ele>
        <time>2016-12-11T09:18:38Z</time>
      </trkpt>
      <trkpt lat="43.10206" lon="-0.49326">
        <ele>685.08</ele>
        <time>2016-12-11T09:18:50Z</time>
      </trkpt>
      <trkpt lat="43.10234" lon="-0.4936">
        <ele>685.08</ele>
        <time>2016-12-11T09:19:00Z</time>
      </trkpt>
      <trkpt lat="43.10242" lon="-0.49372">
        <ele>685.08</ele>
        <time>2016-12-11T09:19:03Z</time>
      </trkpt>
      <trkpt lat="43.10244" lon="-0.49376">
        <ele>685.08</ele>
        <time>2016-12-11T09:19:04Z</time>
      </trkpt>
      <trkpt lat="43.10247" lon="-0.4938">
        <ele>685.08</ele>
        <time>2016-12-11T09:19:05Z</time>
      </trkpt>
      <trkpt lat="43.10261" lon="-0.49408">
        <ele>684.6</ele>
        <time>2016-12-11T09:19:11Z</time>
      </trkpt>
      <trkpt lat="43.10263" lon="-0.49413">
        <ele>684.6</ele>
        <time>2016-12-11T09:19:12Z</time>
      </trkpt>
      <trkpt lat="43.10266" lon="-0.49418">
        <ele>685.08</ele>
        <time>2016-12-11T09:19:13Z</time>
      </trkpt>
      <trkpt lat="43.1027" lon="-0.49429">
        <ele>685.08</ele>
        <time>2016-12-11T09:19:15Z</time>
      </trkpt>
      <trkpt lat="43.10284" lon="-0.49468">
        <ele>685.08</ele>
        <time>2016-12-11T09:19:22Z</time>
      </trkpt>
      <trkpt lat="43.10295" lon="-0.49517">
        <ele>685.56</ele>
        <time>2016-12-11T09:19:31Z</time>
      </trkpt>
      <trkpt lat="43.10301" lon="-0.49552">
        <ele>685.56</ele>
        <time>2016-12-11T09:19:38Z</time>
      </trkpt>
      <trkpt lat="43.10303" lon="-0.49564">
        <ele>685.56</ele>
        <time>2016-12-11T09:19:40Z</time>
      </trkpt>
      <trkpt lat="43.10307" lon="-0.49582">
        <ele>686.04</ele>
        <time>2016-12-11T09:19:43Z</time>
      </trkpt>
      <trkpt lat="43.10312" lon="-0.49616">
        <ele>686.04</ele>
        <time>2016-12-11T09:19:49Z</time>
      </trkpt>
      <trkpt lat="43.10323" lon="-0.49655">
        <ele>686.04</ele>
        <time>2016-12-11T09:19:56Z</time>
      </trkpt>
      <trkpt lat="43.10325" lon="-0.4966">
        <ele>686.52</ele>
        <time>2016-12-11T09:19:57Z</time>
      </trkpt>
      <trkpt lat="43.10327" lon="-0.49665">
        <ele>686.52</ele>
        <time>2016-12-11T09:19:58Z</time>
      </trkpt>
      <trkpt lat="43.10329" lon="-0.49671">
        <ele>686.52</ele>
        <time>2016-12-11T09:19:59Z</time>
      </trkpt>
      <trkpt lat="43.10331" lon="-0.49677">
        <ele>686.52</ele>
        <time>2016-12-11T09:20:00Z</time>
      </trkpt>
      <trkpt lat="43.10342" lon="-0.49736">
        <ele>687.48</ele>
        <time>2016-12-11T09:20:11Z</time>
      </trkpt>
      <trkpt lat="43.10341" lon="-0.49741">
        <ele>687.48</ele>
        <time>2016-12-11T09:20:12Z</time>
      </trkpt>
      <trkpt lat="43.10339" lon="-0.49745">
        <ele>687.96</ele>
        <time>2016-12-11T09:20:13Z</time>
      </trkpt>
      <trkpt lat="43.10336" lon="-0.49748">
        <ele>687.96</ele>
        <time>2016-12-11T09:20:14Z</time>
      </trkpt>
      <trkpt lat="43.10333" lon="-0.49751">
        <ele>687.96</ele>
        <time>2016-12-11T09:20:15Z</time>
      </trkpt>
      <trkpt lat="43.1033" lon="-0.49753">
        <ele>687.96</ele>
        <time>2016-12-11T09:20:16Z</time>
      </trkpt>
      <trkpt lat="43.10296" lon="-0.49754">
        <ele>690.36</ele>
        <time>2016-12-11T09:20:27Z</time>
      </trkpt>
      <trkpt lat="43.10285" lon="-0.49753">
        <ele>691.33</ele>
        <time>2016-12-11T09:20:31Z</time>
      </trkpt>
      <trkpt lat="43.10262" lon="-0.49753">
        <ele>694.21</ele>
        <time>2016-12-11T09:20:43Z</time>
      </trkpt>
      <trkpt lat="43.1026" lon="-0.49753">
        <ele>694.69</ele>
        <time>2016-12-11T09:20:44Z</time>
      </trkpt>
      <trkpt lat="43.10258" lon="-0.49754">
        <ele>694.69</ele>
        <time>2016-12-11T09:20:45Z</time>
      </trkpt>
      <trkpt lat="43.10257" lon="-0.49755">
        <ele>695.17</ele>
        <time>2016-12-11T09:20:46Z</time>
      </trkpt>
      <trkpt lat="43.10255" lon="-0.49756">
        <ele>695.17</ele>
        <time>2016-12-11T09:20:47Z</time>
      </trkpt>
      <trkpt lat="43.10254" lon="-0.49757">
        <ele>695.65</ele>
        <time>2016-12-11T09:20:48Z</time>
      </trkpt>
      <trkpt lat="43.10239" lon="-0.49769">
        <ele>697.57</ele>
        <time>2016-12-11T09:20:57Z</time>
      </trkpt>
      <trkpt lat="43.10231" lon="-0.49777">
        <ele>699.02</ele>
        <time>2016-12-11T09:21:02Z</time>
      </trkpt>
      <trkpt lat="43.1023" lon="-0.49777">
        <ele>699.02</ele>
        <time>2016-12-11T09:21:03Z</time>
      </trkpt>
      <trkpt lat="43.10228" lon="-0.49779">
        <ele>699.5</ele>
        <time>2016-12-11T09:21:04Z</time>
      </trkpt>
      <trkpt lat="43.10227" lon="-0.49781">
        <ele>699.5</ele>
        <time>2016-12-11T09:21:05Z</time>
      </trkpt>
      <trkpt lat="43.10224" lon="-0.49783">
        <ele>699.98</ele>
        <time>2016-12-11T09:21:07Z</time>
      </trkpt>
      <trkpt lat="43.10211" lon="-0.49796">
        <ele>702.86</ele>
        <time>2016-12-11T09:21:18Z</time>
      </trkpt>
      <trkpt lat="43.10208" lon="-0.49798">
        <ele>703.34</ele>
        <time>2016-12-11T09:21:20Z</time>
      </trkpt>
      <trkpt lat="43.10206" lon="-0.49803">
        <ele>703.82</ele>
        <time>2016-12-11T09:21:23Z</time>
      </trkpt>
      <trkpt lat="43.10205" lon="-0.49804">
        <ele>704.3</ele>
        <time>2016-12-11T09:21:24Z</time>
      </trkpt>
      <trkpt lat="43.10204" lon="-0.49805">
        <ele>704.3</ele>
        <time>2016-12-11T09:21:25Z</time>
      </trkpt>
      <trkpt lat="43.10202" lon="-0.49807">
        <ele>704.78</ele>
        <time>2016-12-11T09:21:26Z</time>
      </trkpt>
      <trkpt lat="43.10201" lon="-0.49809">
        <ele>705.26</ele>
        <time>2016-12-11T09:21:27Z</time>
      </trkpt>
      <trkpt lat="43.10198" lon="-0.49813">
        <ele>705.26</ele>
        <time>2016-12-11T09:21:29Z</time>
      </trkpt>
      <trkpt lat="43.10196" lon="-0.49815">
        <ele>705.75</ele>
        <time>2016-12-11T09:21:30Z</time>
      </trkpt>
      <trkpt lat="43.10196" lon="-0.49817">
        <ele>706.23</ele>
        <time>2016-12-11T09:21:31Z</time>
      </trkpt>
      <trkpt lat="43.10195" lon="-0.49819">
        <ele>706.23</ele>
        <time>2016-12-11T09:21:32Z</time>
      </trkpt>
      <trkpt lat="43.10193" lon="-0.49821">
        <ele>706.23</ele>
        <time>2016-12-11T09:21:33Z</time>
      </trkpt>
      <trkpt lat="43.10192" lon="-0.49823">
        <ele>706.71</ele>
        <time>2016-12-11T09:21:34Z</time>
      </trkpt>
      <trkpt lat="43.10191" lon="-0.49824">
        <ele>706.71</ele>
        <time>2016-12-11T09:21:35Z</time>
      </trkpt>
      <trkpt lat="43.1019" lon="-0.49826">
        <ele>706.71</ele>
        <time>2016-12-11T09:21:36Z</time>
      </trkpt>
      <trkpt lat="43.10189" lon="-0.49827">
        <ele>707.19</ele>
        <time>2016-12-11T09:21:37Z</time>
      </trkpt>
      <trkpt lat="43.10188" lon="-0.49829">
        <ele>707.19</ele>
        <time>2016-12-11T09:21:38Z</time>
      </trkpt>
      <trkpt lat="43.10188" lon="-0.49831">
        <ele>707.19</ele>
        <time>2016-12-11T09:21:39Z</time>
      </trkpt>
      <trkpt lat="43.10186" lon="-0.49833">
        <ele>707.19</ele>
        <time>2016-12-11T09:21:40Z</time>
      </trkpt>
      <trkpt lat="43.10185" lon="-0.49836">
        <ele>708.15</ele>
        <time>2016-12-11T09:21:42Z</time>
      </trkpt>
      <trkpt lat="43.10185" lon="-0.49838">
        <ele>707.67</ele>
        <time>2016-12-11T09:21:43Z</time>
      </trkpt>
      <trkpt lat="43.10184" lon="-0.4984">
        <ele>708.15</ele>
        <time>2016-12-11T09:21:44Z</time>
      </trkpt>
      <trkpt lat="43.10183" lon="-0.49841">
        <ele>708.63</ele>
        <time>2016-12-11T09:21:45Z</time>
      </trkpt>
      <trkpt lat="43.10181" lon="-0.49847">
        <ele>709.59</ele>
        <time>2016-12-11T09:21:49Z</time>
      </trkpt>
      <trkpt lat="43.10181" lon="-0.4985">
        <ele>710.07</ele>
        <time>2016-12-11T09:21:50Z</time>
      </trkpt>
      <trkpt lat="43.10181" lon="-0.49851">
        <ele>710.07</ele>
        <time>2016-12-11T09:21:51Z</time>
      </trkpt>
      <trkpt lat="43.10181" lon="-0.49853">
        <ele>711.03</ele>
        <time>2016-12-11T09:21:52Z</time>
      </trkpt>
      <trkpt lat="43.10182" lon="-0.49855">
        <ele>710.55</ele>
        <time>2016-12-11T09:21:53Z</time>
      </trkpt>
      <trkpt lat="43.10182" lon="-0.49858">
        <ele>711.03</ele>
        <time>2016-12-11T09:21:54Z</time>
      </trkpt>
      <trkpt lat="43.10182" lon="-0.4986">
        <ele>711.03</ele>
        <time>2016-12-11T09:21:55Z</time>
      </trkpt>
      <trkpt lat="43.10182" lon="-0.49862">
        <ele>711.99</ele>
        <time>2016-12-11T09:21:56Z</time>
      </trkpt>
      <trkpt lat="43.10182" lon="-0.49865">
        <ele>711.51</ele>
        <time>2016-12-11T09:21:57Z</time>
      </trkpt>
      <trkpt lat="43.10182" lon="-0.49867">
        <ele>711.99</ele>
        <time>2016-12-11T09:21:58Z</time>
      </trkpt>
      <trkpt lat="43.10182" lon="-0.49869">
        <ele>712.47</ele>
        <time>2016-12-11T09:21:59Z</time>
      </trkpt>
      <trkpt lat="43.10182" lon="-0.49872">
        <ele>712.47</ele>
        <time>2016-12-11T09:22:00Z</time>
      </trkpt>
      <trkpt lat="43.10183" lon="-0.49874">
        <ele>712.95</ele>
        <time>2016-12-11T09:22:01Z</time>
      </trkpt>
      <trkpt lat="43.10183" lon="-0.49876">
        <ele>712.95</ele>
        <time>2016-12-11T09:22:02Z</time>
      </trkpt>
      <trkpt lat="43.10184" lon="-0.49878">
        <ele>713.44</ele>
        <time>2016-12-11T09:22:03Z</time>
      </trkpt>
      <trkpt lat="43.10184" lon="-0.4988">
        <ele>713.44</ele>
        <time>2016-12-11T09:22:04Z</time>
      </trkpt>
      <trkpt lat="43.10185" lon="-0.49882">
        <ele>713.92</ele>
        <time>2016-12-11T09:22:05Z</time>
      </trkpt>
      <trkpt lat="43.10186" lon="-0.49889">
        <ele>714.88</ele>
        <time>2016-12-11T09:22:09Z</time>
      </trkpt>
      <trkpt lat="43.10186" lon="-0.49891">
        <ele>715.36</ele>
        <time>2016-12-11T09:22:10Z</time>
      </trkpt>
      <trkpt lat="43.10192" lon="-0.49917">
        <ele>717.76</ele>
        <time>2016-12-11T09:22:22Z</time>
      </trkpt>
      <trkpt lat="43.10193" lon="-0.49935">
        <ele>719.2</ele>
        <time>2016-12-11T09:22:31Z</time>
      </trkpt>
      <trkpt lat="43.10193" lon="-0.49937">
        <ele>719.2</ele>
        <time>2016-12-11T09:22:32Z</time>
      </trkpt>
      <trkpt lat="43.10193" lon="-0.49939">
        <ele>719.2</ele>
        <time>2016-12-11T09:22:33Z</time>
      </trkpt>
      <trkpt lat="43.10193" lon="-0.4994">
        <ele>719.68</ele>
        <time>2016-12-11T09:22:34Z</time>
      </trkpt>
      <trkpt lat="43.10193" lon="-0.49942">
        <ele>719.2</ele>
        <time>2016-12-11T09:22:35Z</time>
      </trkpt>
      <trkpt lat="43.10193" lon="-0.49944">
        <ele>719.2</ele>
        <time>2016-12-11T09:22:36Z</time>
      </trkpt>
      <trkpt lat="43.10193" lon="-0.49946">
        <ele>719.2</ele>
        <time>2016-12-11T09:22:37Z</time>
      </trkpt>
      <trkpt lat="43.10194" lon="-0.4996">
        <ele>720.65</ele>
        <time>2016-12-11T09:22:47Z</time>
      </trkpt>
      <trkpt lat="43.10195" lon="-0.49961">
        <ele>720.16</ele>
        <time>2016-12-11T09:22:48Z</time>
      </trkpt>
      <trkpt lat="43.10196" lon="-0.49965">
        <ele>720.65</ele>
        <time>2016-12-11T09:22:51Z</time>
      </trkpt>
      <trkpt lat="43.10196" lon="-0.49967">
        <ele>720.65</ele>
        <time>2016-12-11T09:22:52Z</time>
      </trkpt>
      <trkpt lat="43.10196" lon="-0.49969">
        <ele>720.65</ele>
        <time>2016-12-11T09:22:53Z</time>
      </trkpt>
      <trkpt lat="43.10196" lon="-0.49971">
        <ele>720.65</ele>
        <time>2016-12-11T09:22:54Z</time>
      </trkpt>
      <trkpt lat="43.10197" lon="-0.49972">
        <ele>721.13</ele>
        <time>2016-12-11T09:22:55Z</time>
      </trkpt>
      <trkpt lat="43.10198" lon="-0.49973">
        <ele>721.13</ele>
        <time>2016-12-11T09:22:56Z</time>
      </trkpt>
      <trkpt lat="43.10199" lon="-0.49975">
        <ele>721.13</ele>
        <time>2016-12-11T09:22:57Z</time>
      </trkpt>
      <trkpt lat="43.10203" lon="-0.49982">
        <ele>722.09</ele>
        <time>2016-12-11T09:23:02Z</time>
      </trkpt>
      <trkpt lat="43.10203" lon="-0.49984">
        <ele>722.09</ele>
        <time>2016-12-11T09:23:03Z</time>
      </trkpt>
      <trkpt lat="43.10207" lon="-0.4999">
        <ele>722.57</ele>
        <time>2016-12-11T09:23:09Z</time>
      </trkpt>
      <trkpt lat="43.10207" lon="-0.49991">
        <ele>722.57</ele>
        <time>2016-12-11T09:23:10Z</time>
      </trkpt>
      <trkpt lat="43.10215" lon="-0.5">
        <ele>724.01</ele>
        <time>2016-12-11T09:23:18Z</time>
      </trkpt>
      <trkpt lat="43.10216" lon="-0.50001">
        <ele>724.01</ele>
        <time>2016-12-11T09:23:19Z</time>
      </trkpt>
      <trkpt lat="43.10218" lon="-0.50006">
        <ele>724.01</ele>
        <time>2016-12-11T09:23:22Z</time>
      </trkpt>
      <trkpt lat="43.10229" lon="-0.50023">
        <ele>725.45</ele>
        <time>2016-12-11T09:23:36Z</time>
      </trkpt>
      <trkpt lat="43.10233" lon="-0.5003">
        <ele>725.93</ele>
        <time>2016-12-11T09:23:42Z</time>
      </trkpt>
      <trkpt lat="43.10235" lon="-0.50033">
        <ele>725.93</ele>
        <time>2016-12-11T09:23:47Z</time>
      </trkpt>
      <trkpt lat="43.10236" lon="-0.50038">
        <ele>725.93</ele>
        <time>2016-12-11T09:23:51Z</time>
      </trkpt>
      <trkpt lat="43.10241" lon="-0.50048">
        <ele>726.89</ele>
        <time>2016-12-11T09:23:57Z</time>
      </trkpt>
      <trkpt lat="43.10254" lon="-0.50081">
        <ele>727.86</ele>
        <time>2016-12-11T09:24:09Z</time>
      </trkpt>
      <trkpt lat="43.1026" lon="-0.50105">
        <ele>727.86</ele>
        <time>2016-12-11T09:24:16Z</time>
      </trkpt>
      <trkpt lat="43.10263" lon="-0.50125">
        <ele>727.37</ele>
        <time>2016-12-11T09:24:23Z</time>
      </trkpt>
      <trkpt lat="43.10265" lon="-0.50135">
        <ele>726.89</ele>
        <time>2016-12-11T09:24:29Z</time>
      </trkpt>
      <trkpt lat="43.10268" lon="-0.50139">
        <ele>726.89</ele>
        <time>2016-12-11T09:24:42Z</time>
      </trkpt>
      <trkpt lat="43.10269" lon="-0.5014">
        <ele>727.37</ele>
        <time>2016-12-11T09:25:07Z</time>
      </trkpt>
      <trkpt lat="43.1027" lon="-0.50142">
        <ele>727.37</ele>
        <time>2016-12-11T09:25:30Z</time>
      </trkpt>
      <trkpt lat="43.10269" lon="-0.50143">
        <ele>727.37</ele>
        <time>2016-12-11T09:25:57Z</time>
      </trkpt>
      <trkpt lat="43.10269" lon="-0.50143">
        <ele>727.37</ele>
        <time>2016-12-11T09:26:20Z</time>
      </trkpt>
      <trkpt lat="43.10269" lon="-0.50144">
        <ele>727.37</ele>
        <time>2016-12-11T09:26:25Z</time>
      </trkpt>
      <trkpt lat="43.10272" lon="-0.50152">
        <ele>727.37</ele>
        <time>2016-12-11T09:26:29Z</time>
      </trkpt>
      <trkpt lat="43.10272" lon="-0.50163">
        <ele>727.37</ele>
        <time>2016-12-11T09:26:33Z</time>
      </trkpt>
      <trkpt lat="43.10272" lon="-0.50173">
        <ele>726.89</ele>
        <time>2016-12-11T09:26:38Z</time>
      </trkpt>
      <trkpt lat="43.10274" lon="-0.50177">
        <ele>726.89</ele>
        <time>2016-12-11T09:26:40Z</time>
      </trkpt>
      <trkpt lat="43.1028" lon="-0.50199">
        <ele>726.41</ele>
        <time>2016-12-11T09:26:48Z</time>
      </trkpt>
      <trkpt lat="43.10281" lon="-0.5021">
        <ele>726.89</ele>
        <time>2016-12-11T09:26:52Z</time>
      </trkpt>
      <trkpt lat="43.10298" lon="-0.50251">
        <ele>725.93</ele>
        <time>2016-12-11T09:27:01Z</time>
      </trkpt>
      <trkpt lat="43.10308" lon="-0.50273">
        <ele>725.93</ele>
        <time>2016-12-11T09:27:06Z</time>
      </trkpt>
      <trkpt lat="43.10321" lon="-0.50314">
        <ele>725.45</ele>
        <time>2016-12-11T09:27:16Z</time>
      </trkpt>
      <trkpt lat="43.10326" lon="-0.50327">
        <ele>726.41</ele>
        <time>2016-12-11T09:27:19Z</time>
      </trkpt>
      <trkpt lat="43.10335" lon="-0.50379">
        <ele>725.93</ele>
        <time>2016-12-11T09:27:30Z</time>
      </trkpt>
      <trkpt lat="43.10349" lon="-0.50436">
        <ele>725.93</ele>
        <time>2016-12-11T09:27:41Z</time>
      </trkpt>
      <trkpt lat="43.10354" lon="-0.50481">
        <ele>725.45</ele>
        <time>2016-12-11T09:27:49Z</time>
      </trkpt>
      <trkpt lat="43.10354" lon="-0.50487">
        <ele>725.45</ele>
        <time>2016-12-11T09:27:50Z</time>
      </trkpt>
      <trkpt lat="43.10355" lon="-0.50494">
        <ele>725.45</ele>
        <time>2016-12-11T09:27:51Z</time>
      </trkpt>
      <trkpt lat="43.10356" lon="-0.50501">
        <ele>724.97</ele>
        <time>2016-12-11T09:27:52Z</time>
      </trkpt>
      <trkpt lat="43.10357" lon="-0.50508">
        <ele>724.97</ele>
        <time>2016-12-11T09:27:53Z</time>
      </trkpt>
      <trkpt lat="43.10358" lon="-0.50516">
        <ele>724.01</ele>
        <time>2016-12-11T09:27:54Z</time>
      </trkpt>
      <trkpt lat="43.1036" lon="-0.50524">
        <ele>724.49</ele>
        <time>2016-12-11T09:27:55Z</time>
      </trkpt>
      <trkpt lat="43.10369" lon="-0.50542">
        <ele>724.01</ele>
        <time>2016-12-11T09:27:57Z</time>
      </trkpt>
      <trkpt lat="43.10373" lon="-0.50549">
        <ele>724.01</ele>
        <time>2016-12-11T09:27:58Z</time>
      </trkpt>
      <trkpt lat="43.10385" lon="-0.50566">
        <ele>724.01</ele>
        <time>2016-12-11T09:28:00Z</time>
      </trkpt>
      <trkpt lat="43.10389" lon="-0.50574">
        <ele>724.01</ele>
        <time>2016-12-11T09:28:01Z</time>
      </trkpt>
      <trkpt lat="43.10392" lon="-0.50583">
        <ele>723.53</ele>
        <time>2016-12-11T09:28:02Z</time>
      </trkpt>
      <trkpt lat="43.10401" lon="-0.50608">
        <ele>722.57</ele>
        <time>2016-12-11T09:28:05Z</time>
      </trkpt>
      <trkpt lat="43.10416" lon="-0.50646">
        <ele>722.09</ele>
        <time>2016-12-11T09:28:12Z</time>
      </trkpt>
      <trkpt lat="43.10424" lon="-0.50665">
        <ele>721.61</ele>
        <time>2016-12-11T09:28:15Z</time>
      </trkpt>
      <trkpt lat="43.10428" lon="-0.50679">
        <ele>721.13</ele>
        <time>2016-12-11T09:28:17Z</time>
      </trkpt>
      <trkpt lat="43.10431" lon="-0.50685">
        <ele>721.13</ele>
        <time>2016-12-11T09:28:18Z</time>
      </trkpt>
      <trkpt lat="43.10432" lon="-0.50691">
        <ele>721.13</ele>
        <time>2016-12-11T09:28:19Z</time>
      </trkpt>
      <trkpt lat="43.10434" lon="-0.50697">
        <ele>720.16</ele>
        <time>2016-12-11T09:28:20Z</time>
      </trkpt>
      <trkpt lat="43.10437" lon="-0.50705">
        <ele>720.16</ele>
        <time>2016-12-11T09:28:21Z</time>
      </trkpt>
      <trkpt lat="43.10439" lon="-0.50714">
        <ele>720.16</ele>
        <time>2016-12-11T09:28:22Z</time>
      </trkpt>
      <trkpt lat="43.1044" lon="-0.50723">
        <ele>719.2</ele>
        <time>2016-12-11T09:28:23Z</time>
      </trkpt>
      <trkpt lat="43.10441" lon="-0.50734">
        <ele>718.72</ele>
        <time>2016-12-11T09:28:24Z</time>
      </trkpt>
      <trkpt lat="43.10441" lon="-0.50757">
        <ele>717.76</ele>
        <time>2016-12-11T09:28:26Z</time>
      </trkpt>
      <trkpt lat="43.1044" lon="-0.50768">
        <ele>717.76</ele>
        <time>2016-12-11T09:28:27Z</time>
      </trkpt>
      <trkpt lat="43.10438" lon="-0.50794">
        <ele>716.32</ele>
        <time>2016-12-11T09:28:29Z</time>
      </trkpt>
      <trkpt lat="43.10437" lon="-0.50817">
        <ele>714.4</ele>
        <time>2016-12-11T09:28:31Z</time>
      </trkpt>
      <trkpt lat="43.10438" lon="-0.50828">
        <ele>713.44</ele>
        <time>2016-12-11T09:28:32Z</time>
      </trkpt>
      <trkpt lat="43.1044" lon="-0.50837">
        <ele>712.95</ele>
        <time>2016-12-11T09:28:33Z</time>
      </trkpt>
      <trkpt lat="43.10443" lon="-0.50847">
        <ele>712.95</ele>
        <time>2016-12-11T09:28:34Z</time>
      </trkpt>
      <trkpt lat="43.10446" lon="-0.50856">
        <ele>712.47</ele>
        <time>2016-12-11T09:28:35Z</time>
      </trkpt>
      <trkpt lat="43.10461" lon="-0.50894">
        <ele>711.03</ele>
        <time>2016-12-11T09:28:39Z</time>
      </trkpt>
      <trkpt lat="43.10462" lon="-0.50905">
        <ele>710.07</ele>
        <time>2016-12-11T09:28:40Z</time>
      </trkpt>
      <trkpt lat="43.10463" lon="-0.50925">
        <ele>709.59</ele>
        <time>2016-12-11T09:28:42Z</time>
      </trkpt>
      <trkpt lat="43.10463" lon="-0.50955">
        <ele>705.75</ele>
        <time>2016-12-11T09:28:44Z</time>
      </trkpt>
      <trkpt lat="43.10465" lon="-0.50988">
        <ele>702.38</ele>
        <time>2016-12-11T09:28:47Z</time>
      </trkpt>
      <trkpt lat="43.10468" lon="-0.50999">
        <ele>700.94</ele>
        <time>2016-12-11T09:28:48Z</time>
      </trkpt>
      <trkpt lat="43.10477" lon="-0.5102">
        <ele>698.53</ele>
        <time>2016-12-11T09:28:50Z</time>
      </trkpt>
      <trkpt lat="43.10487" lon="-0.51037">
        <ele>695.65</ele>
        <time>2016-12-11T09:28:52Z</time>
      </trkpt>
      <trkpt lat="43.10493" lon="-0.51043">
        <ele>694.69</ele>
        <time>2016-12-11T09:28:53Z</time>
      </trkpt>
      <trkpt lat="43.10498" lon="-0.51048">
        <ele>693.73</ele>
        <time>2016-12-11T09:28:54Z</time>
      </trkpt>
      <trkpt lat="43.10503" lon="-0.51051">
        <ele>691.81</ele>
        <time>2016-12-11T09:28:55Z</time>
      </trkpt>
      <trkpt lat="43.10508" lon="-0.51054">
        <ele>691.33</ele>
        <time>2016-12-11T09:28:56Z</time>
      </trkpt>
      <trkpt lat="43.10513" lon="-0.51055">
        <ele>690.84</ele>
        <time>2016-12-11T09:28:57Z</time>
      </trkpt>
      <trkpt lat="43.10517" lon="-0.51054">
        <ele>690.84</ele>
        <time>2016-12-11T09:28:58Z</time>
      </trkpt>
      <trkpt lat="43.10523" lon="-0.51053">
        <ele>689.88</ele>
        <time>2016-12-11T09:28:59Z</time>
      </trkpt>
      <trkpt lat="43.1053" lon="-0.51054">
        <ele>687.96</ele>
        <time>2016-12-11T09:29:01Z</time>
      </trkpt>
      <trkpt lat="43.10534" lon="-0.51057">
        <ele>687.96</ele>
        <time>2016-12-11T09:29:02Z</time>
      </trkpt>
      <trkpt lat="43.10538" lon="-0.51062">
        <ele>687.96</ele>
        <time>2016-12-11T09:29:03Z</time>
      </trkpt>
      <trkpt lat="43.10543" lon="-0.51072">
        <ele>687</ele>
        <time>2016-12-11T09:29:05Z</time>
      </trkpt>
      <trkpt lat="43.10544" lon="-0.51078">
        <ele>686.52</ele>
        <time>2016-12-11T09:29:06Z</time>
      </trkpt>
      <trkpt lat="43.10545" lon="-0.51084">
        <ele>686.04</ele>
        <time>2016-12-11T09:29:07Z</time>
      </trkpt>
      <trkpt lat="43.10551" lon="-0.51123">
        <ele>684.12</ele>
        <time>2016-12-11T09:29:15Z</time>
      </trkpt>
      <trkpt lat="43.10557" lon="-0.51147">
        <ele>683.15</ele>
        <time>2016-12-11T09:29:21Z</time>
      </trkpt>
      <trkpt lat="43.10563" lon="-0.51158">
        <ele>683.15</ele>
        <time>2016-12-11T09:29:23Z</time>
      </trkpt>
      <trkpt lat="43.10586" lon="-0.512">
        <ele>680.75</ele>
        <time>2016-12-11T09:29:32Z</time>
      </trkpt>
      <trkpt lat="43.10595" lon="-0.51222">
        <ele>680.27</ele>
        <time>2016-12-11T09:29:37Z</time>
      </trkpt>
      <trkpt lat="43.10606" lon="-0.51255">
        <ele>678.35</ele>
        <time>2016-12-11T09:29:43Z</time>
      </trkpt>
      <trkpt lat="43.10615" lon="-0.51273">
        <ele>677.39</ele>
        <time>2016-12-11T09:29:46Z</time>
      </trkpt>
      <trkpt lat="43.10622" lon="-0.51288">
        <ele>676.42</ele>
        <time>2016-12-11T09:29:48Z</time>
      </trkpt>
      <trkpt lat="43.1063" lon="-0.51302">
        <ele>674.5</ele>
        <time>2016-12-11T09:29:50Z</time>
      </trkpt>
      <trkpt lat="43.10644" lon="-0.51321">
        <ele>671.14</ele>
        <time>2016-12-11T09:29:53Z</time>
      </trkpt>
      <trkpt lat="43.10658" lon="-0.51334">
        <ele>669.7</ele>
        <time>2016-12-11T09:29:56Z</time>
      </trkpt>
      <trkpt lat="43.10672" lon="-0.51352">
        <ele>666.81</ele>
        <time>2016-12-11T09:30:00Z</time>
      </trkpt>
      <trkpt lat="43.10676" lon="-0.51364">
        <ele>667.29</ele>
        <time>2016-12-11T09:30:04Z</time>
      </trkpt>
      <trkpt lat="43.1068" lon="-0.51377">
        <ele>666.81</ele>
        <time>2016-12-11T09:30:08Z</time>
      </trkpt>
      <trkpt lat="43.10688" lon="-0.51394">
        <ele>666.81</ele>
        <time>2016-12-11T09:30:20Z</time>
      </trkpt>
      <trkpt lat="43.10697" lon="-0.51413">
        <ele>667.77</ele>
        <time>2016-12-11T09:30:29Z</time>
      </trkpt>
      <trkpt lat="43.10698" lon="-0.51412">
        <ele>667.77</ele>
        <time>2016-12-11T09:30:31Z</time>
      </trkpt>
      <trkpt lat="43.10719" lon="-0.51439">
        <ele>671.14</ele>
        <time>2016-12-11T09:30:42Z</time>
      </trkpt>
      <trkpt lat="43.10724" lon="-0.51451">
        <ele>672.58</ele>
        <time>2016-12-11T09:30:46Z</time>
      </trkpt>
      <trkpt lat="43.10727" lon="-0.51456">
        <ele>674.02</ele>
        <time>2016-12-11T09:30:48Z</time>
      </trkpt>
      <trkpt lat="43.10731" lon="-0.51468">
        <ele>674.5</ele>
        <time>2016-12-11T09:30:52Z</time>
      </trkpt>
      <trkpt lat="43.10737" lon="-0.5149">
        <ele>675.46</ele>
        <time>2016-12-11T09:31:04Z</time>
      </trkpt>
      <trkpt lat="43.10736" lon="-0.51504">
        <ele>675.46</ele>
        <time>2016-12-11T09:31:11Z</time>
      </trkpt>
      <trkpt lat="43.10737" lon="-0.51516">
        <ele>675.46</ele>
        <time>2016-12-11T09:31:17Z</time>
      </trkpt>
      <trkpt lat="43.10741" lon="-0.51533">
        <ele>674.5</ele>
        <time>2016-12-11T09:31:22Z</time>
      </trkpt>
      <trkpt lat="43.10744" lon="-0.51543">
        <ele>673.54</ele>
        <time>2016-12-11T09:31:24Z</time>
      </trkpt>
      <trkpt lat="43.10761" lon="-0.51587">
        <ele>670.66</ele>
        <time>2016-12-11T09:31:31Z</time>
      </trkpt>
      <trkpt lat="43.10764" lon="-0.51601">
        <ele>668.25</ele>
        <time>2016-12-11T09:31:33Z</time>
      </trkpt>
      <trkpt lat="43.1077" lon="-0.51627">
        <ele>664.89</ele>
        <time>2016-12-11T09:31:37Z</time>
      </trkpt>
      <trkpt lat="43.10778" lon="-0.51661">
        <ele>661.52</ele>
        <time>2016-12-11T09:31:42Z</time>
      </trkpt>
      <trkpt lat="43.1078" lon="-0.51688">
        <ele>658.16</ele>
        <time>2016-12-11T09:31:45Z</time>
      </trkpt>
      <trkpt lat="43.10787" lon="-0.51704">
        <ele>655.28</ele>
        <time>2016-12-11T09:31:47Z</time>
      </trkpt>
      <trkpt lat="43.10795" lon="-0.51731">
        <ele>651.43</ele>
        <time>2016-12-11T09:31:52Z</time>
      </trkpt>
      <trkpt lat="43.10798" lon="-0.51754">
        <ele>647.1</ele>
        <time>2016-12-11T09:31:56Z</time>
      </trkpt>
      <trkpt lat="43.10802" lon="-0.51773">
        <ele>644.22</ele>
        <time>2016-12-11T09:31:59Z</time>
      </trkpt>
      <trkpt lat="43.10803" lon="-0.51786">
        <ele>641.82</ele>
        <time>2016-12-11T09:32:01Z</time>
      </trkpt>
      <trkpt lat="43.10811" lon="-0.51811">
        <ele>637.01</ele>
        <time>2016-12-11T09:32:05Z</time>
      </trkpt>
      <trkpt lat="43.10813" lon="-0.51817">
        <ele>635.57</ele>
        <time>2016-12-11T09:32:06Z</time>
      </trkpt>
      <trkpt lat="43.10823" lon="-0.51834">
        <ele>630.76</ele>
        <time>2016-12-11T09:32:09Z</time>
      </trkpt>
      <trkpt lat="43.10827" lon="-0.51845">
        <ele>627.4</ele>
        <time>2016-12-11T09:32:11Z</time>
      </trkpt>
      <trkpt lat="43.10829" lon="-0.51856">
        <ele>625.47</ele>
        <time>2016-12-11T09:32:13Z</time>
      </trkpt>
      <trkpt lat="43.10841" lon="-0.51879">
        <ele>621.15</ele>
        <time>2016-12-11T09:32:17Z</time>
      </trkpt>
      <trkpt lat="43.10854" lon="-0.51905">
        <ele>613.94</ele>
        <time>2016-12-11T09:32:22Z</time>
      </trkpt>
      <trkpt lat="43.10858" lon="-0.51927">
        <ele>610.09</ele>
        <time>2016-12-11T09:32:25Z</time>
      </trkpt>
      <trkpt lat="43.1086" lon="-0.5195">
        <ele>606.73</ele>
        <time>2016-12-11T09:32:28Z</time>
      </trkpt>
      <trkpt lat="43.10859" lon="-0.51965">
        <ele>605.29</ele>
        <time>2016-12-11T09:32:30Z</time>
      </trkpt>
      <trkpt lat="43.1086" lon="-0.51982">
        <ele>601.92</ele>
        <time>2016-12-11T09:32:32Z</time>
      </trkpt>
      <trkpt lat="43.10866" lon="-0.52008">
        <ele>597.12</ele>
        <time>2016-12-11T09:32:35Z</time>
      </trkpt>
      <trkpt lat="43.10872" lon="-0.52033">
        <ele>592.79</ele>
        <time>2016-12-11T09:32:38Z</time>
      </trkpt>
      <trkpt lat="43.10876" lon="-0.52053">
        <ele>589.91</ele>
        <time>2016-12-11T09:32:40Z</time>
      </trkpt>
      <trkpt lat="43.10877" lon="-0.52062">
        <ele>588.46</ele>
        <time>2016-12-11T09:32:41Z</time>
      </trkpt>
      <trkpt lat="43.10881" lon="-0.52078">
        <ele>584.62</ele>
        <time>2016-12-11T09:32:43Z</time>
      </trkpt>
      <trkpt lat="43.10885" lon="-0.52084">
        <ele>582.22</ele>
        <time>2016-12-11T09:32:44Z</time>
      </trkpt>
      <trkpt lat="43.10887" lon="-0.52091">
        <ele>580.77</ele>
        <time>2016-12-11T09:32:45Z</time>
      </trkpt>
      <trkpt lat="43.10889" lon="-0.52098">
        <ele>578.85</ele>
        <time>2016-12-11T09:32:46Z</time>
      </trkpt>
      <trkpt lat="43.10891" lon="-0.52106">
        <ele>577.41</ele>
        <time>2016-12-11T09:32:47Z</time>
      </trkpt>
      <trkpt lat="43.10893" lon="-0.52114">
        <ele>575.49</ele>
        <time>2016-12-11T09:32:48Z</time>
      </trkpt>
      <trkpt lat="43.10894" lon="-0.52122">
        <ele>574.53</ele>
        <time>2016-12-11T09:32:49Z</time>
      </trkpt>
      <trkpt lat="43.10894" lon="-0.5213">
        <ele>572.6</ele>
        <time>2016-12-11T09:32:50Z</time>
      </trkpt>
      <trkpt lat="43.10894" lon="-0.52138">
        <ele>571.16</ele>
        <time>2016-12-11T09:32:51Z</time>
      </trkpt>
      <trkpt lat="43.10893" lon="-0.52146">
        <ele>569.72</ele>
        <time>2016-12-11T09:32:52Z</time>
      </trkpt>
      <trkpt lat="43.10893" lon="-0.52152">
        <ele>568.28</ele>
        <time>2016-12-11T09:32:53Z</time>
      </trkpt>
      <trkpt lat="43.10893" lon="-0.52168">
        <ele>565.39</ele>
        <time>2016-12-11T09:32:56Z</time>
      </trkpt>
      <trkpt lat="43.10896" lon="-0.52175">
        <ele>565.39</ele>
        <time>2016-12-11T09:33:06Z</time>
      </trkpt>
      <trkpt lat="43.10899" lon="-0.52173">
        <ele>565.87</ele>
        <time>2016-12-11T09:33:36Z</time>
      </trkpt>
      <trkpt lat="43.10899" lon="-0.52176">
        <ele>564.91</ele>
        <time>2016-12-11T09:34:06Z</time>
      </trkpt>
      <trkpt lat="43.10901" lon="-0.52175">
        <ele>564.91</ele>
        <time>2016-12-11T09:34:31Z</time>
      </trkpt>
      <trkpt lat="43.109" lon="-0.52175">
        <ele>565.87</ele>
        <time>2016-12-11T09:35:03Z</time>
      </trkpt>
      <trkpt lat="43.10899" lon="-0.52174">
        <ele>565.87</ele>
        <time>2016-12-11T09:35:37Z</time>
      </trkpt>
      <trkpt lat="43.10901" lon="-0.52175">
        <ele>565.87</ele>
        <time>2016-12-11T09:36:07Z</time>
      </trkpt>
      <trkpt lat="43.10901" lon="-0.52175">
        <ele>566.35</ele>
        <time>2016-12-11T09:36:34Z</time>
      </trkpt>
      <trkpt lat="43.109" lon="-0.52176">
        <ele>566.35</ele>
        <time>2016-12-11T09:36:53Z</time>
      </trkpt>
      <trkpt lat="43.10901" lon="-0.52178">
        <ele>566.35</ele>
        <time>2016-12-11T09:37:13Z</time>
      </trkpt>
      <trkpt lat="43.109" lon="-0.52179">
        <ele>566.83</ele>
        <time>2016-12-11T09:37:37Z</time>
      </trkpt>
      <trkpt lat="43.109" lon="-0.5218">
        <ele>566.83</ele>
        <time>2016-12-11T09:38:04Z</time>
      </trkpt>
      <trkpt lat="43.10919" lon="-0.5217">
        <ele>565.87</ele>
        <time>2016-12-11T09:38:11Z</time>
      </trkpt>
      <trkpt lat="43.10922" lon="-0.52164">
        <ele>565.39</ele>
        <time>2016-12-11T09:38:12Z</time>
      </trkpt>
      <trkpt lat="43.10926" lon="-0.52158">
        <ele>564.91</ele>
        <time>2016-12-11T09:38:13Z</time>
      </trkpt>
      <trkpt lat="43.10929" lon="-0.5215">
        <ele>564.91</ele>
        <time>2016-12-11T09:38:14Z</time>
      </trkpt>
      <trkpt lat="43.10931" lon="-0.52142">
        <ele>564.43</ele>
        <time>2016-12-11T09:38:15Z</time>
      </trkpt>
      <trkpt lat="43.10934" lon="-0.52133">
        <ele>563.95</ele>
        <time>2016-12-11T09:38:16Z</time>
      </trkpt>
      <trkpt lat="43.10937" lon="-0.52125">
        <ele>563.47</ele>
        <time>2016-12-11T09:38:17Z</time>
      </trkpt>
      <trkpt lat="43.10958" lon="-0.52079">
        <ele>561.07</ele>
        <time>2016-12-11T09:38:22Z</time>
      </trkpt>
      <trkpt lat="43.10981" lon="-0.52026">
        <ele>557.7</ele>
        <time>2016-12-11T09:38:27Z</time>
      </trkpt>
      <trkpt lat="43.11002" lon="-0.51981">
        <ele>554.82</ele>
        <time>2016-12-11T09:38:31Z</time>
      </trkpt>
      <trkpt lat="43.11032" lon="-0.51926">
        <ele>550.97</ele>
        <time>2016-12-11T09:38:36Z</time>
      </trkpt>
      <trkpt lat="43.11044" lon="-0.51903">
        <ele>549.53</ele>
        <time>2016-12-11T09:38:38Z</time>
      </trkpt>
      <trkpt lat="43.11066" lon="-0.51852">
        <ele>546.17</ele>
        <time>2016-12-11T09:38:42Z</time>
      </trkpt>
      <trkpt lat="43.11084" lon="-0.51798">
        <ele>542.32</ele>
        <time>2016-12-11T09:38:46Z</time>
      </trkpt>
      <trkpt lat="43.11089" lon="-0.51771">
        <ele>538.96</ele>
        <time>2016-12-11T09:38:48Z</time>
      </trkpt>
      <trkpt lat="43.1109" lon="-0.51761">
        <ele>537.03</ele>
        <time>2016-12-11T09:38:49Z</time>
      </trkpt>
      <trkpt lat="43.1109" lon="-0.51751">
        <ele>536.07</ele>
        <time>2016-12-11T09:38:50Z</time>
      </trkpt>
      <trkpt lat="43.11088" lon="-0.51742">
        <ele>535.59</ele>
        <time>2016-12-11T09:38:51Z</time>
      </trkpt>
      <trkpt lat="43.11083" lon="-0.51736">
        <ele>534.63</ele>
        <time>2016-12-11T09:38:52Z</time>
      </trkpt>
      <trkpt lat="43.11077" lon="-0.51732">
        <ele>533.67</ele>
        <time>2016-12-11T09:38:53Z</time>
      </trkpt>
      <trkpt lat="43.11071" lon="-0.51729">
        <ele>533.67</ele>
        <time>2016-12-11T09:38:54Z</time>
      </trkpt>
      <trkpt lat="43.11065" lon="-0.51726">
        <ele>532.71</ele>
        <time>2016-12-11T09:38:55Z</time>
      </trkpt>
      <trkpt lat="43.1106" lon="-0.51722">
        <ele>532.23</ele>
        <time>2016-12-11T09:38:56Z</time>
      </trkpt>
      <trkpt lat="43.11057" lon="-0.51714">
        <ele>531.75</ele>
        <time>2016-12-11T09:38:57Z</time>
      </trkpt>
      <trkpt lat="43.11057" lon="-0.51706">
        <ele>531.75</ele>
        <time>2016-12-11T09:38:58Z</time>
      </trkpt>
      <trkpt lat="43.11059" lon="-0.51698">
        <ele>531.27</ele>
        <time>2016-12-11T09:38:59Z</time>
      </trkpt>
      <trkpt lat="43.11062" lon="-0.51691">
        <ele>531.27</ele>
        <time>2016-12-11T09:39:00Z</time>
      </trkpt>
      <trkpt lat="43.11065" lon="-0.51684">
        <ele>529.82</ele>
        <time>2016-12-11T09:39:01Z</time>
      </trkpt>
      <trkpt lat="43.11069" lon="-0.51677">
        <ele>529.82</ele>
        <time>2016-12-11T09:39:02Z</time>
      </trkpt>
      <trkpt lat="43.11076" lon="-0.51662">
        <ele>529.34</ele>
        <time>2016-12-11T09:39:04Z</time>
      </trkpt>
      <trkpt lat="43.11078" lon="-0.51654">
        <ele>530.3</ele>
        <time>2016-12-11T09:39:05Z</time>
      </trkpt>
      <trkpt lat="43.11082" lon="-0.51637">
        <ele>529.34</ele>
        <time>2016-12-11T09:39:07Z</time>
      </trkpt>
      <trkpt lat="43.11083" lon="-0.51628">
        <ele>528.38</ele>
        <time>2016-12-11T09:39:08Z</time>
      </trkpt>
      <trkpt lat="43.11086" lon="-0.51615">
        <ele>527.42</ele>
        <time>2016-12-11T09:39:10Z</time>
      </trkpt>
      <trkpt lat="43.11085" lon="-0.51609">
        <ele>526.94</ele>
        <time>2016-12-11T09:39:11Z</time>
      </trkpt>
      <trkpt lat="43.11083" lon="-0.51606">
        <ele>526.94</ele>
        <time>2016-12-11T09:39:12Z</time>
      </trkpt>
      <trkpt lat="43.11082" lon="-0.51604">
        <ele>527.42</ele>
        <time>2016-12-11T09:39:13Z</time>
      </trkpt>
      <trkpt lat="43.1108" lon="-0.51602">
        <ele>527.9</ele>
        <time>2016-12-11T09:39:14Z</time>
      </trkpt>
      <trkpt lat="43.11078" lon="-0.51601">
        <ele>527.9</ele>
        <time>2016-12-11T09:39:15Z</time>
      </trkpt>
      <trkpt lat="43.11066" lon="-0.51592">
        <ele>530.3</ele>
        <time>2016-12-11T09:39:24Z</time>
      </trkpt>
      <trkpt lat="43.11059" lon="-0.51583">
        <ele>532.23</ele>
        <time>2016-12-11T09:39:31Z</time>
      </trkpt>
      <trkpt lat="43.11052" lon="-0.51577">
        <ele>534.63</ele>
        <time>2016-12-11T09:39:39Z</time>
      </trkpt>
      <trkpt lat="43.11044" lon="-0.51563">
        <ele>536.55</ele>
        <time>2016-12-11T09:39:50Z</time>
      </trkpt>
      <trkpt lat="43.11039" lon="-0.51542">
        <ele>538.48</ele>
        <time>2016-12-11T09:40:02Z</time>
      </trkpt>
      <trkpt lat="43.1104" lon="-0.51534">
        <ele>540.4</ele>
        <time>2016-12-11T09:40:09Z</time>
      </trkpt>
      <trkpt lat="43.11045" lon="-0.51507">
        <ele>541.84</ele>
        <time>2016-12-11T09:40:22Z</time>
      </trkpt>
      <trkpt lat="43.11052" lon="-0.51483">
        <ele>540.4</ele>
        <time>2016-12-11T09:40:29Z</time>
      </trkpt>
      <trkpt lat="43.11055" lon="-0.51464">
        <ele>540.88</ele>
        <time>2016-12-11T09:40:34Z</time>
      </trkpt>
      <trkpt lat="43.11063" lon="-0.51435">
        <ele>538.96</ele>
        <time>2016-12-11T09:40:39Z</time>
      </trkpt>
      <trkpt lat="43.11065" lon="-0.51419">
        <ele>538.48</ele>
        <time>2016-12-11T09:40:41Z</time>
      </trkpt>
      <trkpt lat="43.11069" lon="-0.51394">
        <ele>537.51</ele>
        <time>2016-12-11T09:40:44Z</time>
      </trkpt>
      <trkpt lat="43.11083" lon="-0.51357">
        <ele>533.19</ele>
        <time>2016-12-11T09:40:49Z</time>
      </trkpt>
      <trkpt lat="43.11085" lon="-0.51351">
        <ele>532.23</ele>
        <time>2016-12-11T09:40:50Z</time>
      </trkpt>
      <trkpt lat="43.111" lon="-0.51325">
        <ele>527.9</ele>
        <time>2016-12-11T09:40:56Z</time>
      </trkpt>
      <trkpt lat="43.11107" lon="-0.51315">
        <ele>526.46</ele>
        <time>2016-12-11T09:41:00Z</time>
      </trkpt>
      <trkpt lat="43.11111" lon="-0.5131">
        <ele>525.98</ele>
        <time>2016-12-11T09:41:13Z</time>
      </trkpt>
      <trkpt lat="43.11113" lon="-0.51308">
        <ele>525.98</ele>
        <time>2016-12-11T09:41:36Z</time>
      </trkpt>
      <trkpt lat="43.11113" lon="-0.51307">
        <ele>526.46</ele>
        <time>2016-12-11T09:41:46Z</time>
      </trkpt>
      <trkpt lat="43.11118" lon="-0.51294">
        <ele>525.02</ele>
        <time>2016-12-11T09:41:50Z</time>
      </trkpt>
      <trkpt lat="43.11124" lon="-0.51286">
        <ele>524.06</ele>
        <time>2016-12-11T09:41:52Z</time>
      </trkpt>
      <trkpt lat="43.1113" lon="-0.51276">
        <ele>523.09</ele>
        <time>2016-12-11T09:41:54Z</time>
      </trkpt>
      <trkpt lat="43.11149" lon="-0.51242">
        <ele>520.21</ele>
        <time>2016-12-11T09:42:00Z</time>
      </trkpt>
      <trkpt lat="43.11161" lon="-0.51213">
        <ele>517.33</ele>
        <time>2016-12-11T09:42:04Z</time>
      </trkpt>
      <trkpt lat="43.11169" lon="-0.51188">
        <ele>514.92</ele>
        <time>2016-12-11T09:42:07Z</time>
      </trkpt>
      <trkpt lat="43.11172" lon="-0.51179">
        <ele>513</ele>
        <time>2016-12-11T09:42:08Z</time>
      </trkpt>
      <trkpt lat="43.11177" lon="-0.51164">
        <ele>511.56</ele>
        <time>2016-12-11T09:42:10Z</time>
      </trkpt>
      <trkpt lat="43.11177" lon="-0.51144">
        <ele>508.19</ele>
        <time>2016-12-11T09:42:13Z</time>
      </trkpt>
      <trkpt lat="43.11177" lon="-0.51121">
        <ele>502.43</ele>
        <time>2016-12-11T09:42:16Z</time>
      </trkpt>
      <trkpt lat="43.11176" lon="-0.51104">
        <ele>500.02</ele>
        <time>2016-12-11T09:42:18Z</time>
      </trkpt>
      <trkpt lat="43.11176" lon="-0.51072">
        <ele>494.26</ele>
        <time>2016-12-11T09:42:22Z</time>
      </trkpt>
      <trkpt lat="43.11177" lon="-0.51064">
        <ele>493.29</ele>
        <time>2016-12-11T09:42:23Z</time>
      </trkpt>
      <trkpt lat="43.11183" lon="-0.51035">
        <ele>487.53</ele>
        <time>2016-12-11T09:42:28Z</time>
      </trkpt>
      <trkpt lat="43.1119" lon="-0.51019">
        <ele>484.64</ele>
        <time>2016-12-11T09:42:31Z</time>
      </trkpt>
      <trkpt lat="43.11201" lon="-0.50993">
        <ele>478.87</ele>
        <time>2016-12-11T09:42:35Z</time>
      </trkpt>
      <trkpt lat="43.11207" lon="-0.50977">
        <ele>476.95</ele>
        <time>2016-12-11T09:42:37Z</time>
      </trkpt>
      <trkpt lat="43.11214" lon="-0.5096">
        <ele>473.59</ele>
        <time>2016-12-11T09:42:39Z</time>
      </trkpt>
      <trkpt lat="43.11222" lon="-0.50943">
        <ele>470.22</ele>
        <time>2016-12-11T09:42:41Z</time>
      </trkpt>
      <trkpt lat="43.11241" lon="-0.50923">
        <ele>465.42</ele>
        <time>2016-12-11T09:42:46Z</time>
      </trkpt>
      <trkpt lat="43.11246" lon="-0.50923">
        <ele>464.45</ele>
        <time>2016-12-11T09:42:47Z</time>
      </trkpt>
      <trkpt lat="43.11276" lon="-0.50922">
        <ele>457.72</ele>
        <time>2016-12-11T09:42:52Z</time>
      </trkpt>
      <trkpt lat="43.11281" lon="-0.50921">
        <ele>456.28</ele>
        <time>2016-12-11T09:42:53Z</time>
      </trkpt>
      <trkpt lat="43.11295" lon="-0.50931">
        <ele>454.36</ele>
        <time>2016-12-11T09:42:56Z</time>
      </trkpt>
      <trkpt lat="43.11298" lon="-0.50937">
        <ele>453.4</ele>
        <time>2016-12-11T09:42:57Z</time>
      </trkpt>
      <trkpt lat="43.11307" lon="-0.50974">
        <ele>451</ele>
        <time>2016-12-11T09:43:02Z</time>
      </trkpt>
      <trkpt lat="43.11305" lon="-0.50988">
        <ele>450.52</ele>
        <time>2016-12-11T09:43:04Z</time>
      </trkpt>
      <trkpt lat="43.11295" lon="-0.51022">
        <ele>448.59</ele>
        <time>2016-12-11T09:43:09Z</time>
      </trkpt>
      <trkpt lat="43.11297" lon="-0.5103">
        <ele>447.63</ele>
        <time>2016-12-11T09:43:11Z</time>
      </trkpt>
      <trkpt lat="43.11299" lon="-0.51031">
        <ele>446.67</ele>
        <time>2016-12-11T09:43:12Z</time>
      </trkpt>
      <trkpt lat="43.11305" lon="-0.51029">
        <ele>445.71</ele>
        <time>2016-12-11T09:43:14Z</time>
      </trkpt>
      <trkpt lat="43.11318" lon="-0.51027">
        <ele>441.86</ele>
        <time>2016-12-11T09:43:17Z</time>
      </trkpt>
      <trkpt lat="43.11336" lon="-0.51023">
        <ele>437.54</ele>
        <time>2016-12-11T09:43:21Z</time>
      </trkpt>
      <trkpt lat="43.11345" lon="-0.5102">
        <ele>435.13</ele>
        <time>2016-12-11T09:43:25Z</time>
      </trkpt>
      <trkpt lat="43.11348" lon="-0.51019">
        <ele>435.13</ele>
        <time>2016-12-11T09:43:26Z</time>
      </trkpt>
      <trkpt lat="43.1137" lon="-0.51029">
        <ele>431.29</ele>
        <time>2016-12-11T09:43:33Z</time>
      </trkpt>
      <trkpt lat="43.11372" lon="-0.51031">
        <ele>431.29</ele>
        <time>2016-12-11T09:43:34Z</time>
      </trkpt>
      <trkpt lat="43.11385" lon="-0.51024">
        <ele>430.81</ele>
        <time>2016-12-11T09:43:40Z</time>
      </trkpt>
      <trkpt lat="43.11389" lon="-0.51021">
        <ele>429.37</ele>
        <time>2016-12-11T09:43:42Z</time>
      </trkpt>
      <trkpt lat="43.11393" lon="-0.51019">
        <ele>428.4</ele>
        <time>2016-12-11T09:43:44Z</time>
      </trkpt>
      <trkpt lat="43.11407" lon="-0.51006">
        <ele>426.48</ele>
        <time>2016-12-11T09:43:51Z</time>
      </trkpt>
      <trkpt lat="43.11438" lon="-0.50996">
        <ele>422.16</ele>
        <time>2016-12-11T09:43:57Z</time>
      </trkpt>
      <trkpt lat="43.11444" lon="-0.50992">
        <ele>421.19</ele>
        <time>2016-12-11T09:43:58Z</time>
      </trkpt>
      <trkpt lat="43.11453" lon="-0.50985">
        <ele>417.83</ele>
        <time>2016-12-11T09:44:00Z</time>
      </trkpt>
      <trkpt lat="43.11469" lon="-0.5097">
        <ele>412.06</ele>
        <time>2016-12-11T09:44:04Z</time>
      </trkpt>
      <trkpt lat="43.11484" lon="-0.50959">
        <ele>408.7</ele>
        <time>2016-12-11T09:44:10Z</time>
      </trkpt>
      <trkpt lat="43.11495" lon="-0.50954">
        <ele>407.74</ele>
        <time>2016-12-11T09:44:20Z</time>
      </trkpt>
      <trkpt lat="43.11497" lon="-0.50953">
        <ele>406.29</ele>
        <time>2016-12-11T09:44:24Z</time>
      </trkpt>
      <trkpt lat="43.11504" lon="-0.50943">
        <ele>405.33</ele>
        <time>2016-12-11T09:44:28Z</time>
      </trkpt>
      <trkpt lat="43.11512" lon="-0.50938">
        <ele>403.41</ele>
        <time>2016-12-11T09:44:30Z</time>
      </trkpt>
      <trkpt lat="43.11542" lon="-0.50928">
        <ele>398.6</ele>
        <time>2016-12-11T09:44:37Z</time>
      </trkpt>
      <trkpt lat="43.11565" lon="-0.50928">
        <ele>397.64</ele>
        <time>2016-12-11T09:44:41Z</time>
      </trkpt>
      <trkpt lat="43.11575" lon="-0.50931">
        <ele>397.16</ele>
        <time>2016-12-11T09:44:43Z</time>
      </trkpt>
      <trkpt lat="43.11593" lon="-0.50961">
        <ele>395.72</ele>
        <time>2016-12-11T09:44:50Z</time>
      </trkpt>
      <trkpt lat="43.11606" lon="-0.50965">
        <ele>393.32</ele>
        <time>2016-12-11T09:44:56Z</time>
      </trkpt>
      <trkpt lat="43.11633" lon="-0.50946">
        <ele>390.91</ele>
        <time>2016-12-11T09:45:02Z</time>
      </trkpt>
      <trkpt lat="43.11655" lon="-0.50939">
        <ele>389.47</ele>
        <time>2016-12-11T09:45:06Z</time>
      </trkpt>
      <trkpt lat="43.11676" lon="-0.50927">
        <ele>386.11</ele>
        <time>2016-12-11T09:45:10Z</time>
      </trkpt>
      <trkpt lat="43.11687" lon="-0.50915">
        <ele>386.11</ele>
        <time>2016-12-11T09:45:12Z</time>
      </trkpt>
      <trkpt lat="43.11698" lon="-0.50905">
        <ele>385.15</ele>
        <time>2016-12-11T09:45:14Z</time>
      </trkpt>
      <trkpt lat="43.11711" lon="-0.50899">
        <ele>384.66</ele>
        <time>2016-12-11T09:45:16Z</time>
      </trkpt>
      <trkpt lat="43.11732" lon="-0.5089">
        <ele>382.74</ele>
        <time>2016-12-11T09:45:19Z</time>
      </trkpt>
      <trkpt lat="43.11739" lon="-0.50887">
        <ele>382.26</ele>
        <time>2016-12-11T09:45:20Z</time>
      </trkpt>
      <trkpt lat="43.11762" lon="-0.50877">
        <ele>380.34</ele>
        <time>2016-12-11T09:45:23Z</time>
      </trkpt>
      <trkpt lat="43.11768" lon="-0.50875">
        <ele>379.38</ele>
        <time>2016-12-11T09:45:24Z</time>
      </trkpt>
      <trkpt lat="43.11781" lon="-0.50867">
        <ele>379.38</ele>
        <time>2016-12-11T09:45:26Z</time>
      </trkpt>
      <trkpt lat="43.11816" lon="-0.50844">
        <ele>375.05</ele>
        <time>2016-12-11T09:45:31Z</time>
      </trkpt>
      <trkpt lat="43.1184" lon="-0.50831">
        <ele>370.24</ele>
        <time>2016-12-11T09:45:35Z</time>
      </trkpt>
      <trkpt lat="43.11859" lon="-0.5082">
        <ele>365.92</ele>
        <time>2016-12-11T09:45:38Z</time>
      </trkpt>
      <trkpt lat="43.11871" lon="-0.50812">
        <ele>362.55</ele>
        <time>2016-12-11T09:45:40Z</time>
      </trkpt>
      <trkpt lat="43.11889" lon="-0.50799">
        <ele>358.23</ele>
        <time>2016-12-11T09:45:43Z</time>
      </trkpt>
      <trkpt lat="43.11894" lon="-0.50795">
        <ele>356.79</ele>
        <time>2016-12-11T09:45:44Z</time>
      </trkpt>
      <trkpt lat="43.11908" lon="-0.50776">
        <ele>351.98</ele>
        <time>2016-12-11T09:45:48Z</time>
      </trkpt>
      <trkpt lat="43.11932" lon="-0.50753">
        <ele>350.06</ele>
        <time>2016-12-11T09:45:56Z</time>
      </trkpt>
      <trkpt lat="43.11939" lon="-0.50748">
        <ele>349.58</ele>
        <time>2016-12-11T09:45:58Z</time>
      </trkpt>
      <trkpt lat="43.11956" lon="-0.50724">
        <ele>351.02</ele>
        <time>2016-12-11T09:46:04Z</time>
      </trkpt>
      <trkpt lat="43.1198" lon="-0.50698">
        <ele>350.06</ele>
        <time>2016-12-11T09:46:12Z</time>
      </trkpt>
      <trkpt lat="43.12" lon="-0.50682">
        <ele>345.25</ele>
        <time>2016-12-11T09:46:16Z</time>
      </trkpt>
      <trkpt lat="43.12009" lon="-0.50671">
        <ele>343.81</ele>
        <time>2016-12-11T09:46:19Z</time>
      </trkpt>
      <trkpt lat="43.12012" lon="-0.50664">
        <ele>343.33</ele>
        <time>2016-12-11T09:46:21Z</time>
      </trkpt>
      <trkpt lat="43.12023" lon="-0.50637">
        <ele>343.33</ele>
        <time>2016-12-11T09:46:31Z</time>
      </trkpt>
      <trkpt lat="43.12025" lon="-0.50635">
        <ele>342.85</ele>
        <time>2016-12-11T09:46:33Z</time>
      </trkpt>
      <trkpt lat="43.12035" lon="-0.50621">
        <ele>344.77</ele>
        <time>2016-12-11T09:46:40Z</time>
      </trkpt>
      <trkpt lat="43.12043" lon="-0.50613">
        <ele>344.77</ele>
        <time>2016-12-11T09:46:45Z</time>
      </trkpt>
      <trkpt lat="43.12051" lon="-0.50599">
        <ele>344.29</ele>
        <time>2016-12-11T09:46:51Z</time>
      </trkpt>
      <trkpt lat="43.12066" lon="-0.50579">
        <ele>342.37</ele>
        <time>2016-12-11T09:46:57Z</time>
      </trkpt>
      <trkpt lat="43.12082" lon="-0.50563">
        <ele>341.41</ele>
        <time>2016-12-11T09:47:00Z</time>
      </trkpt>
      <trkpt lat="43.12123" lon="-0.50522">
        <ele>338.52</ele>
        <time>2016-12-11T09:47:07Z</time>
      </trkpt>
      <trkpt lat="43.12153" lon="-0.5049">
        <ele>335.16</ele>
        <time>2016-12-11T09:47:15Z</time>
      </trkpt>
      <trkpt lat="43.12164" lon="-0.50475">
        <ele>334.2</ele>
        <time>2016-12-11T09:47:18Z</time>
      </trkpt>
      <trkpt lat="43.12174" lon="-0.50464">
        <ele>333.23</ele>
        <time>2016-12-11T09:47:20Z</time>
      </trkpt>
      <trkpt lat="43.12182" lon="-0.50449">
        <ele>331.79</ele>
        <time>2016-12-11T09:47:22Z</time>
      </trkpt>
      <trkpt lat="43.12186" lon="-0.5043">
        <ele>330.35</ele>
        <time>2016-12-11T09:47:24Z</time>
      </trkpt>
      <trkpt lat="43.12193" lon="-0.50389">
        <ele>326.02</ele>
        <time>2016-12-11T09:47:28Z</time>
      </trkpt>
      <trkpt lat="43.12196" lon="-0.50362">
        <ele>322.18</ele>
        <time>2016-12-11T09:47:31Z</time>
      </trkpt>
      <trkpt lat="43.12197" lon="-0.50354">
        <ele>321.22</ele>
        <time>2016-12-11T09:47:32Z</time>
      </trkpt>
      <trkpt lat="43.12203" lon="-0.50326">
        <ele>316.41</ele>
        <time>2016-12-11T09:47:37Z</time>
      </trkpt>
      <trkpt lat="43.12205" lon="-0.5031">
        <ele>314.49</ele>
        <time>2016-12-11T09:47:42Z</time>
      </trkpt>
      <trkpt lat="43.12212" lon="-0.50304">
        <ele>314.49</ele>
        <time>2016-12-11T09:47:47Z</time>
      </trkpt>
      <trkpt lat="43.12214" lon="-0.50307">
        <ele>314.49</ele>
        <time>2016-12-11T09:47:51Z</time>
      </trkpt>
      <trkpt lat="43.12213" lon="-0.50304">
        <ele>314.01</ele>
        <time>2016-12-11T09:48:01Z</time>
      </trkpt>
      <trkpt lat="43.12211" lon="-0.50308">
        <ele>314.49</ele>
        <time>2016-12-11T09:48:20Z</time>
      </trkpt>
      <trkpt lat="43.1221" lon="-0.50308">
        <ele>314.49</ele>
        <time>2016-12-11T09:48:40Z</time>
      </trkpt>
      <trkpt lat="43.12211" lon="-0.50306">
        <ele>314.49</ele>
        <time>2016-12-11T09:49:07Z</time>
      </trkpt>
      <trkpt lat="43.12211" lon="-0.50306">
        <ele>314.97</ele>
        <time>2016-12-11T09:49:25Z</time>
      </trkpt>
      <trkpt lat="43.12213" lon="-0.50306">
        <ele>314.49</ele>
        <time>2016-12-11T09:49:49Z</time>
      </trkpt>
      <trkpt lat="43.12211" lon="-0.50305">
        <ele>314.49</ele>
        <time>2016-12-11T09:50:14Z</time>
      </trkpt>
      <trkpt lat="43.12211" lon="-0.50306">
        <ele>314.49</ele>
        <time>2016-12-11T09:50:38Z</time>
      </trkpt>
      <trkpt lat="43.12211" lon="-0.50306">
        <ele>314.97</ele>
        <time>2016-12-11T09:51:02Z</time>
      </trkpt>
      <trkpt lat="43.12211" lon="-0.50306">
        <ele>314.97</ele>
        <time>2016-12-11T09:51:24Z</time>
      </trkpt>
      <trkpt lat="43.12212" lon="-0.50305">
        <ele>314.49</ele>
        <time>2016-12-11T09:51:33Z</time>
      </trkpt>
      <trkpt lat="43.12214" lon="-0.50302">
        <ele>314.97</ele>
        <time>2016-12-11T09:51:57Z</time>
      </trkpt>
      <trkpt lat="43.12214" lon="-0.50302">
        <ele>314.97</ele>
        <time>2016-12-11T09:52:23Z</time>
      </trkpt>
      <trkpt lat="43.12213" lon="-0.50302">
        <ele>314.97</ele>
        <time>2016-12-11T09:52:47Z</time>
      </trkpt>
      <trkpt lat="43.12213" lon="-0.50301">
        <ele>314.97</ele>
        <time>2016-12-11T09:53:19Z</time>
      </trkpt>
      <trkpt lat="43.12213" lon="-0.503">
        <ele>315.45</ele>
        <time>2016-12-11T09:53:52Z</time>
      </trkpt>
      <trkpt lat="43.12215" lon="-0.50301">
        <ele>315.45</ele>
        <time>2016-12-11T09:54:27Z</time>
      </trkpt>
      <trkpt lat="43.12215" lon="-0.50302">
        <ele>315.45</ele>
        <time>2016-12-11T09:54:57Z</time>
      </trkpt>
      <trkpt lat="43.12213" lon="-0.503">
        <ele>315.45</ele>
        <time>2016-12-11T09:55:23Z</time>
      </trkpt>
      <trkpt lat="43.12211" lon="-0.503">
        <ele>315.45</ele>
        <time>2016-12-11T09:55:52Z</time>
      </trkpt>
      <trkpt lat="43.12213" lon="-0.50297">
        <ele>315.93</ele>
        <time>2016-12-11T09:56:31Z</time>
      </trkpt>
      <trkpt lat="43.12212" lon="-0.50296">
        <ele>315.93</ele>
        <time>2016-12-11T09:57:02Z</time>
      </trkpt>
      <trkpt lat="43.12213" lon="-0.50299">
        <ele>316.89</ele>
        <time>2016-12-11T09:57:15Z</time>
      </trkpt>
      <trkpt lat="43.12214" lon="-0.50301">
        <ele>316.89</ele>
        <time>2016-12-11T09:57:39Z</time>
      </trkpt>
      <trkpt lat="43.12214" lon="-0.50303">
        <ele>316.89</ele>
        <time>2016-12-11T09:58:09Z</time>
      </trkpt>
      <trkpt lat="43.12213" lon="-0.50303">
        <ele>317.37</ele>
        <time>2016-12-11T09:58:24Z</time>
      </trkpt>
      <trkpt lat="43.12215" lon="-0.50304">
        <ele>316.89</ele>
        <time>2016-12-11T09:58:50Z</time>
      </trkpt>
      <trkpt lat="43.12213" lon="-0.50305">
        <ele>317.37</ele>
        <time>2016-12-11T09:59:14Z</time>
      </trkpt>
      <trkpt lat="43.12213" lon="-0.50306">
        <ele>317.37</ele>
        <time>2016-12-11T09:59:42Z</time>
      </trkpt>
      <trkpt lat="43.12211" lon="-0.50309">
        <ele>317.85</ele>
        <time>2016-12-11T10:00:08Z</time>
      </trkpt>
      <trkpt lat="43.12212" lon="-0.50308">
        <ele>317.37</ele>
        <time>2016-12-11T10:00:25Z</time>
      </trkpt>
      <trkpt lat="43.12213" lon="-0.50308">
        <ele>317.85</ele>
        <time>2016-12-11T10:00:45Z</time>
      </trkpt>
      <trkpt lat="43.12231" lon="-0.50306">
        <ele>318.81</ele>
        <time>2016-12-11T10:00:57Z</time>
      </trkpt>
      <trkpt lat="43.12245" lon="-0.50304">
        <ele>320.26</ele>
        <time>2016-12-11T10:01:05Z</time>
      </trkpt>
      <trkpt lat="43.12255" lon="-0.50307">
        <ele>320.74</ele>
        <time>2016-12-11T10:01:09Z</time>
      </trkpt>
      <trkpt lat="43.1227" lon="-0.50315">
        <ele>321.22</ele>
        <time>2016-12-11T10:01:17Z</time>
      </trkpt>
      <trkpt lat="43.12276" lon="-0.50309">
        <ele>320.74</ele>
        <time>2016-12-11T10:01:28Z</time>
      </trkpt>
      <trkpt lat="43.1228" lon="-0.50302">
        <ele>321.22</ele>
        <time>2016-12-11T10:02:01Z</time>
      </trkpt>
      <trkpt lat="43.12279" lon="-0.50303">
        <ele>321.22</ele>
        <time>2016-12-11T10:02:31Z</time>
      </trkpt>
      <trkpt lat="43.1228" lon="-0.50304">
        <ele>321.7</ele>
        <time>2016-12-11T10:02:59Z</time>
      </trkpt>
      <trkpt lat="43.12283" lon="-0.50301">
        <ele>321.22</ele>
        <time>2016-12-11T10:03:18Z</time>
      </trkpt>
      <trkpt lat="43.12318" lon="-0.50315">
        <ele>318.33</ele>
        <time>2016-12-11T10:03:28Z</time>
      </trkpt>
      <trkpt lat="43.12334" lon="-0.50327">
        <ele>317.37</ele>
        <time>2016-12-11T10:03:31Z</time>
      </trkpt>
      <trkpt lat="43.12339" lon="-0.50332">
        <ele>316.89</ele>
        <time>2016-12-11T10:03:32Z</time>
      </trkpt>
      <trkpt lat="43.12351" lon="-0.50348">
        <ele>314.49</ele>
        <time>2016-12-11T10:03:35Z</time>
      </trkpt>
      <trkpt lat="43.12354" lon="-0.50355">
        <ele>313.53</ele>
        <time>2016-12-11T10:03:36Z</time>
      </trkpt>
      <trkpt lat="43.12355" lon="-0.50362">
        <ele>312.57</ele>
        <time>2016-12-11T10:03:37Z</time>
      </trkpt>
      <trkpt lat="43.12354" lon="-0.50369">
        <ele>312.09</ele>
        <time>2016-12-11T10:03:38Z</time>
      </trkpt>
      <trkpt lat="43.12352" lon="-0.50375">
        <ele>310.64</ele>
        <time>2016-12-11T10:03:39Z</time>
      </trkpt>
      <trkpt lat="43.12349" lon="-0.50382">
        <ele>309.2</ele>
        <time>2016-12-11T10:03:40Z</time>
      </trkpt>
      <trkpt lat="43.12345" lon="-0.50387">
        <ele>308.24</ele>
        <time>2016-12-11T10:03:41Z</time>
      </trkpt>
      <trkpt lat="43.12342" lon="-0.50396">
        <ele>305.84</ele>
        <time>2016-12-11T10:03:43Z</time>
      </trkpt>
      <trkpt lat="43.12342" lon="-0.50401">
        <ele>305.84</ele>
        <time>2016-12-11T10:03:44Z</time>
      </trkpt>
      <trkpt lat="43.12342" lon="-0.50404">
        <ele>305.36</ele>
        <time>2016-12-11T10:03:45Z</time>
      </trkpt>
      <trkpt lat="43.12349" lon="-0.50407">
        <ele>305.84</ele>
        <time>2016-12-11T10:03:48Z</time>
      </trkpt>
      <trkpt lat="43.12355" lon="-0.50403">
        <ele>305.84</ele>
        <time>2016-12-11T10:03:50Z</time>
      </trkpt>
      <trkpt lat="43.12381" lon="-0.50418">
        <ele>301.99</ele>
        <time>2016-12-11T10:03:55Z</time>
      </trkpt>
      <trkpt lat="43.12395" lon="-0.50438">
        <ele>297.67</ele>
        <time>2016-12-11T10:03:58Z</time>
      </trkpt>
      <trkpt lat="43.12399" lon="-0.50448">
        <ele>296.7</ele>
        <time>2016-12-11T10:04:00Z</time>
      </trkpt>
      <trkpt lat="43.12402" lon="-0.50457">
        <ele>296.7</ele>
        <time>2016-12-11T10:04:13Z</time>
      </trkpt>
      <trkpt lat="43.12404" lon="-0.50456">
        <ele>296.22</ele>
        <time>2016-12-11T10:04:15Z</time>
      </trkpt>
      <trkpt lat="43.12401" lon="-0.50449">
        <ele>296.7</ele>
        <time>2016-12-11T10:04:22Z</time>
      </trkpt>
      <trkpt lat="43.124" lon="-0.50444">
        <ele>297.18</ele>
        <time>2016-12-11T10:04:29Z</time>
      </trkpt>
      <trkpt lat="43.12413" lon="-0.50437">
        <ele>293.82</ele>
        <time>2016-12-11T10:04:37Z</time>
      </trkpt>
      <trkpt lat="43.12439" lon="-0.50461">
        <ele>293.82</ele>
        <time>2016-12-11T10:04:47Z</time>
      </trkpt>
      <trkpt lat="43.12464" lon="-0.50494">
        <ele>293.34</ele>
        <time>2016-12-11T10:04:56Z</time>
      </trkpt>
      <trkpt lat="43.12467" lon="-0.5051">
        <ele>293.82</ele>
        <time>2016-12-11T10:04:59Z</time>
      </trkpt>
      <trkpt lat="43.12477" lon="-0.50528">
        <ele>293.34</ele>
        <time>2016-12-11T10:05:04Z</time>
      </trkpt>
      <trkpt lat="43.12488" lon="-0.5054">
        <ele>292.86</ele>
        <time>2016-12-11T10:05:07Z</time>
      </trkpt>
      <trkpt lat="43.12532" lon="-0.5059">
        <ele>292.38</ele>
        <time>2016-12-11T10:05:19Z</time>
      </trkpt>
      <trkpt lat="43.12561" lon="-0.50616">
        <ele>291.9</ele>
        <time>2016-12-11T10:05:26Z</time>
      </trkpt>
      <trkpt lat="43.12573" lon="-0.50633">
        <ele>291.9</ele>
        <time>2016-12-11T10:05:30Z</time>
      </trkpt>
      <trkpt lat="43.12587" lon="-0.50651">
        <ele>291.9</ele>
        <time>2016-12-11T10:05:35Z</time>
      </trkpt>
      <trkpt lat="43.12595" lon="-0.50663">
        <ele>291.9</ele>
        <time>2016-12-11T10:05:38Z</time>
      </trkpt>
      <trkpt lat="43.12622" lon="-0.50699">
        <ele>290.46</ele>
        <time>2016-12-11T10:05:46Z</time>
      </trkpt>
      <trkpt lat="43.12629" lon="-0.50712">
        <ele>291.42</ele>
        <time>2016-12-11T10:05:49Z</time>
      </trkpt>
      <trkpt lat="43.12632" lon="-0.50715">
        <ele>290.46</ele>
        <time>2016-12-11T10:05:50Z</time>
      </trkpt>
      <trkpt lat="43.12642" lon="-0.50728">
        <ele>290.46</ele>
        <time>2016-12-11T10:05:54Z</time>
      </trkpt>
      <trkpt lat="43.12652" lon="-0.50766">
        <ele>289.97</ele>
        <time>2016-12-11T10:06:00Z</time>
      </trkpt>
      <trkpt lat="43.12646" lon="-0.50802">
        <ele>290.46</ele>
        <time>2016-12-11T10:06:07Z</time>
      </trkpt>
      <trkpt lat="43.12638" lon="-0.50818">
        <ele>289.97</ele>
        <time>2016-12-11T10:06:10Z</time>
      </trkpt>
      <trkpt lat="43.1263" lon="-0.50856">
        <ele>289.97</ele>
        <time>2016-12-11T10:06:17Z</time>
      </trkpt>
      <trkpt lat="43.12629" lon="-0.50862">
        <ele>289.97</ele>
        <time>2016-12-11T10:06:18Z</time>
      </trkpt>
      <trkpt lat="43.12627" lon="-0.5088">
        <ele>289.01</ele>
        <time>2016-12-11T10:06:21Z</time>
      </trkpt>
      <trkpt lat="43.12618" lon="-0.509">
        <ele>289.01</ele>
        <time>2016-12-11T10:06:25Z</time>
      </trkpt>
      <trkpt lat="43.12615" lon="-0.50911">
        <ele>288.53</ele>
        <time>2016-12-11T10:06:27Z</time>
      </trkpt>
      <trkpt lat="43.12597" lon="-0.50928">
        <ele>288.05</ele>
        <time>2016-12-11T10:06:34Z</time>
      </trkpt>
      <trkpt lat="43.12588" lon="-0.5095">
        <ele>286.13</ele>
        <time>2016-12-11T10:06:41Z</time>
      </trkpt>
      <trkpt lat="43.12587" lon="-0.50953">
        <ele>285.65</ele>
        <time>2016-12-11T10:06:42Z</time>
      </trkpt>
      <trkpt lat="43.12575" lon="-0.50972">
        <ele>287.09</ele>
        <time>2016-12-11T10:06:50Z</time>
      </trkpt>
      <trkpt lat="43.12569" lon="-0.50974">
        <ele>288.05</ele>
        <time>2016-12-11T10:06:53Z</time>
      </trkpt>
      <trkpt lat="43.12544" lon="-0.50974">
        <ele>290.94</ele>
        <time>2016-12-11T10:07:03Z</time>
      </trkpt>
      <trkpt lat="43.12543" lon="-0.50973">
        <ele>291.42</ele>
        <time>2016-12-11T10:07:04Z</time>
      </trkpt>
      <trkpt lat="43.12541" lon="-0.50972">
        <ele>291.9</ele>
        <time>2016-12-11T10:07:05Z</time>
      </trkpt>
      <trkpt lat="43.12537" lon="-0.50972">
        <ele>292.86</ele>
        <time>2016-12-11T10:07:07Z</time>
      </trkpt>
      <trkpt lat="43.1253" lon="-0.50973">
        <ele>294.78</ele>
        <time>2016-12-11T10:07:11Z</time>
      </trkpt>
      <trkpt lat="43.1252" lon="-0.50992">
        <ele>297.18</ele>
        <time>2016-12-11T10:07:23Z</time>
      </trkpt>
      <trkpt lat="43.12518" lon="-0.50996">
        <ele>297.67</ele>
        <time>2016-12-11T10:07:26Z</time>
      </trkpt>
      <trkpt lat="43.12514" lon="-0.51006">
        <ele>299.11</ele>
        <time>2016-12-11T10:07:33Z</time>
      </trkpt>
      <trkpt lat="43.12511" lon="-0.51036">
        <ele>301.51</ele>
        <time>2016-12-11T10:07:45Z</time>
      </trkpt>
      <trkpt lat="43.12514" lon="-0.51049">
        <ele>303.43</ele>
        <time>2016-12-11T10:07:52Z</time>
      </trkpt>
      <trkpt lat="43.12517" lon="-0.51061">
        <ele>304.88</ele>
        <time>2016-12-11T10:07:56Z</time>
      </trkpt>
      <trkpt lat="43.12521" lon="-0.51069">
        <ele>304.88</ele>
        <time>2016-12-11T10:07:59Z</time>
      </trkpt>
      <trkpt lat="43.12525" lon="-0.51094">
        <ele>305.36</ele>
        <time>2016-12-11T10:08:08Z</time>
      </trkpt>
      <trkpt lat="43.12524" lon="-0.51101">
        <ele>305.84</ele>
        <time>2016-12-11T10:08:10Z</time>
      </trkpt>
      <trkpt lat="43.12531" lon="-0.51121">
        <ele>306.32</ele>
        <time>2016-12-11T10:08:18Z</time>
      </trkpt>
      <trkpt lat="43.12536" lon="-0.51136">
        <ele>306.32</ele>
        <time>2016-12-11T10:08:22Z</time>
      </trkpt>
      <trkpt lat="43.12545" lon="-0.51165">
        <ele>307.76</ele>
        <time>2016-12-11T10:08:30Z</time>
      </trkpt>
      <trkpt lat="43.12545" lon="-0.51166">
        <ele>307.28</ele>
        <time>2016-12-11T10:08:31Z</time>
      </trkpt>
      <trkpt lat="43.12544" lon="-0.51184">
        <ele>308.24</ele>
        <time>2016-12-11T10:08:35Z</time>
      </trkpt>
      <trkpt lat="43.12546" lon="-0.51197">
        <ele>308.24</ele>
        <time>2016-12-11T10:08:39Z</time>
      </trkpt>
      <trkpt lat="43.12546" lon="-0.51204">
        <ele>308.24</ele>
        <time>2016-12-11T10:08:42Z</time>
      </trkpt>
      <trkpt lat="43.12547" lon="-0.5121">
        <ele>308.24</ele>
        <time>2016-12-11T10:08:44Z</time>
      </trkpt>
      <trkpt lat="43.12553" lon="-0.51223">
        <ele>306.8</ele>
        <time>2016-12-11T10:08:48Z</time>
      </trkpt>
      <trkpt lat="43.12555" lon="-0.51223">
        <ele>306.8</ele>
        <time>2016-12-11T10:08:49Z</time>
      </trkpt>
      <trkpt lat="43.12572" lon="-0.51224">
        <ele>302.47</ele>
        <time>2016-12-11T10:08:54Z</time>
      </trkpt>
      <trkpt lat="43.12577" lon="-0.51229">
        <ele>301.03</ele>
        <time>2016-12-11T10:08:58Z</time>
      </trkpt>
      <trkpt lat="43.12581" lon="-0.51227">
        <ele>300.07</ele>
        <time>2016-12-11T10:09:00Z</time>
      </trkpt>
      <trkpt lat="43.12586" lon="-0.51226">
        <ele>298.63</ele>
        <time>2016-12-11T10:09:02Z</time>
      </trkpt>
      <trkpt lat="43.1259" lon="-0.5123">
        <ele>297.18</ele>
        <time>2016-12-11T10:09:05Z</time>
      </trkpt>
      <trkpt lat="43.1259" lon="-0.51237">
        <ele>293.34</ele>
        <time>2016-12-11T10:09:08Z</time>
      </trkpt>
      <trkpt lat="43.1259" lon="-0.51238">
        <ele>292.86</ele>
        <time>2016-12-11T10:09:09Z</time>
      </trkpt>
      <trkpt lat="43.12602" lon="-0.51245">
        <ele>295.26</ele>
        <time>2016-12-11T10:09:15Z</time>
      </trkpt>
      <trkpt lat="43.12607" lon="-0.51248">
        <ele>296.7</ele>
        <time>2016-12-11T10:09:18Z</time>
      </trkpt>
      <trkpt lat="43.12615" lon="-0.51255">
        <ele>298.63</ele>
        <time>2016-12-11T10:09:29Z</time>
      </trkpt>
      <trkpt lat="43.12622" lon="-0.51256">
        <ele>300.07</ele>
        <time>2016-12-11T10:09:35Z</time>
      </trkpt>
      <trkpt lat="43.12633" lon="-0.51259">
        <ele>303.43</ele>
        <time>2016-12-11T10:09:43Z</time>
      </trkpt>
      <trkpt lat="43.1264" lon="-0.51264">
        <ele>305.84</ele>
        <time>2016-12-11T10:09:51Z</time>
      </trkpt>
      <trkpt lat="43.12642" lon="-0.51271">
        <ele>307.28</ele>
        <time>2016-12-11T10:09:57Z</time>
      </trkpt>
      <trkpt lat="43.12644" lon="-0.51282">
        <ele>308.24</ele>
        <time>2016-12-11T10:10:08Z</time>
      </trkpt>
      <trkpt lat="43.12653" lon="-0.51313">
        <ele>308.24</ele>
        <time>2016-12-11T10:10:18Z</time>
      </trkpt>
      <trkpt lat="43.12662" lon="-0.51334">
        <ele>304.39</ele>
        <time>2016-12-11T10:10:23Z</time>
      </trkpt>
      <trkpt lat="43.12663" lon="-0.51337">
        <ele>303.91</ele>
        <time>2016-12-11T10:10:24Z</time>
      </trkpt>
      <trkpt lat="43.12665" lon="-0.51343">
        <ele>302.47</ele>
        <time>2016-12-11T10:10:26Z</time>
      </trkpt>
      <trkpt lat="43.1268" lon="-0.51352">
        <ele>300.07</ele>
        <time>2016-12-11T10:10:32Z</time>
      </trkpt>
      <trkpt lat="43.1269" lon="-0.51355">
        <ele>298.15</ele>
        <time>2016-12-11T10:10:36Z</time>
      </trkpt>
      <trkpt lat="43.12705" lon="-0.51358">
        <ele>299.59</ele>
        <time>2016-12-11T10:10:41Z</time>
      </trkpt>
      <trkpt lat="43.1271" lon="-0.51371">
        <ele>302.95</ele>
        <time>2016-12-11T10:10:51Z</time>
      </trkpt>
      <trkpt lat="43.1271" lon="-0.51382">
        <ele>304.88</ele>
        <time>2016-12-11T10:10:58Z</time>
      </trkpt>
      <trkpt lat="43.12715" lon="-0.51393">
        <ele>304.88</ele>
        <time>2016-12-11T10:11:04Z</time>
      </trkpt>
      <trkpt lat="43.12728" lon="-0.51412">
        <ele>304.39</ele>
        <time>2016-12-11T10:11:12Z</time>
      </trkpt>
      <trkpt lat="43.1273" lon="-0.51415">
        <ele>304.39</ele>
        <time>2016-12-11T10:11:13Z</time>
      </trkpt>
      <trkpt lat="43.12733" lon="-0.51423">
        <ele>304.39</ele>
        <time>2016-12-11T10:11:16Z</time>
      </trkpt>
      <trkpt lat="43.12732" lon="-0.51433">
        <ele>304.39</ele>
        <time>2016-12-11T10:11:19Z</time>
      </trkpt>
      <trkpt lat="43.12751" lon="-0.51453">
        <ele>302.95</ele>
        <time>2016-12-11T10:11:24Z</time>
      </trkpt>
      <trkpt lat="43.12756" lon="-0.51461">
        <ele>301.99</ele>
        <time>2016-12-11T10:11:25Z</time>
      </trkpt>
      <trkpt lat="43.12774" lon="-0.5148">
        <ele>300.07</ele>
        <time>2016-12-11T10:11:30Z</time>
      </trkpt>
      <trkpt lat="43.12786" lon="-0.51496">
        <ele>297.67</ele>
        <time>2016-12-11T10:11:34Z</time>
      </trkpt>
      <trkpt lat="43.12792" lon="-0.51507">
        <ele>296.22</ele>
        <time>2016-12-11T10:11:35Z</time>
      </trkpt>
      <trkpt lat="43.12821" lon="-0.51534">
        <ele>295.74</ele>
        <time>2016-12-11T10:11:42Z</time>
      </trkpt>
      <trkpt lat="43.12829" lon="-0.51547">
        <ele>295.74</ele>
        <time>2016-12-11T10:11:44Z</time>
      </trkpt>
      <trkpt lat="43.12849" lon="-0.51577">
        <ele>294.3</ele>
        <time>2016-12-11T10:11:48Z</time>
      </trkpt>
      <trkpt lat="43.12868" lon="-0.51603">
        <ele>292.86</ele>
        <time>2016-12-11T10:11:52Z</time>
      </trkpt>
      <trkpt lat="43.12899" lon="-0.5162">
        <ele>288.53</ele>
        <time>2016-12-11T10:11:57Z</time>
      </trkpt>
      <trkpt lat="43.12905" lon="-0.51626">
        <ele>287.09</ele>
        <time>2016-12-11T10:11:58Z</time>
      </trkpt>
      <trkpt lat="43.12926" lon="-0.51679">
        <ele>285.65</ele>
        <time>2016-12-11T10:12:08Z</time>
      </trkpt>
      <trkpt lat="43.1292" lon="-0.5174">
        <ele>284.21</ele>
        <time>2016-12-11T10:12:17Z</time>
      </trkpt>
      <trkpt lat="43.12909" lon="-0.51784">
        <ele>287.09</ele>
        <time>2016-12-11T10:12:26Z</time>
      </trkpt>
      <trkpt lat="43.12909" lon="-0.51785">
        <ele>287.57</ele>
        <time>2016-12-11T10:12:27Z</time>
      </trkpt>
      <trkpt lat="43.12904" lon="-0.51806">
        <ele>289.97</ele>
        <time>2016-12-11T10:12:38Z</time>
      </trkpt>
      <trkpt lat="43.129" lon="-0.51821">
        <ele>292.38</ele>
        <time>2016-12-11T10:12:47Z</time>
      </trkpt>
      <trkpt lat="43.12894" lon="-0.51832">
        <ele>293.34</ele>
        <time>2016-12-11T10:12:53Z</time>
      </trkpt>
      <trkpt lat="43.12889" lon="-0.51843">
        <ele>291.9</ele>
        <time>2016-12-11T10:13:00Z</time>
      </trkpt>
      <trkpt lat="43.12888" lon="-0.51843">
        <ele>291.42</ele>
        <time>2016-12-11T10:13:01Z</time>
      </trkpt>
      <trkpt lat="43.12882" lon="-0.51854">
        <ele>289.01</ele>
        <time>2016-12-11T10:13:06Z</time>
      </trkpt>
      <trkpt lat="43.12883" lon="-0.51872">
        <ele>287.09</ele>
        <time>2016-12-11T10:13:12Z</time>
      </trkpt>
      <trkpt lat="43.1288" lon="-0.51888">
        <ele>289.49</ele>
        <time>2016-12-11T10:13:24Z</time>
      </trkpt>
      <trkpt lat="43.1288" lon="-0.51888">
        <ele>289.97</ele>
        <time>2016-12-11T10:13:25Z</time>
      </trkpt>
      <trkpt lat="43.12881" lon="-0.51903">
        <ele>291.42</ele>
        <time>2016-12-11T10:13:33Z</time>
      </trkpt>
      <trkpt lat="43.12884" lon="-0.5192">
        <ele>293.82</ele>
        <time>2016-12-11T10:13:45Z</time>
      </trkpt>
      <trkpt lat="43.1289" lon="-0.51935">
        <ele>295.74</ele>
        <time>2016-12-11T10:13:56Z</time>
      </trkpt>
      <trkpt lat="43.12897" lon="-0.51951">
        <ele>297.67</ele>
        <time>2016-12-11T10:14:07Z</time>
      </trkpt>
      <trkpt lat="43.12897" lon="-0.51953">
        <ele>298.15</ele>
        <time>2016-12-11T10:14:08Z</time>
      </trkpt>
      <trkpt lat="43.12898" lon="-0.51958">
        <ele>298.63</ele>
        <time>2016-12-11T10:14:11Z</time>
      </trkpt>
      <trkpt lat="43.129" lon="-0.51964">
        <ele>299.59</ele>
        <time>2016-12-11T10:14:14Z</time>
      </trkpt>
      <trkpt lat="43.12903" lon="-0.5198">
        <ele>301.99</ele>
        <time>2016-12-11T10:14:25Z</time>
      </trkpt>
      <trkpt lat="43.1291" lon="-0.52">
        <ele>304.39</ele>
        <time>2016-12-11T10:14:35Z</time>
      </trkpt>
      <trkpt lat="43.12911" lon="-0.52007">
        <ele>305.36</ele>
        <time>2016-12-11T10:14:39Z</time>
      </trkpt>
      <trkpt lat="43.12918" lon="-0.52026">
        <ele>307.28</ele>
        <time>2016-12-11T10:14:52Z</time>
      </trkpt>
      <trkpt lat="43.12924" lon="-0.52041">
        <ele>308.72</ele>
        <time>2016-12-11T10:15:05Z</time>
      </trkpt>
      <trkpt lat="43.12925" lon="-0.52046">
        <ele>308.24</ele>
        <time>2016-12-11T10:15:09Z</time>
      </trkpt>
      <trkpt lat="43.12927" lon="-0.52051">
        <ele>309.2</ele>
        <time>2016-12-11T10:15:11Z</time>
      </trkpt>
      <trkpt lat="43.12928" lon="-0.5206">
        <ele>309.2</ele>
        <time>2016-12-11T10:15:14Z</time>
      </trkpt>
      <trkpt lat="43.12931" lon="-0.52063">
        <ele>310.16</ele>
        <time>2016-12-11T10:15:16Z</time>
      </trkpt>
      <trkpt lat="43.12934" lon="-0.52071">
        <ele>310.64</ele>
        <time>2016-12-11T10:15:21Z</time>
      </trkpt>
      <trkpt lat="43.12938" lon="-0.52076">
        <ele>311.12</ele>
        <time>2016-12-11T10:15:24Z</time>
      </trkpt>
      <trkpt lat="43.12955" lon="-0.52107">
        <ele>311.12</ele>
        <time>2016-12-11T10:15:32Z</time>
      </trkpt>
      <trkpt lat="43.12967" lon="-0.5213">
        <ele>310.64</ele>
        <time>2016-12-11T10:15:38Z</time>
      </trkpt>
      <trkpt lat="43.12976" lon="-0.52155">
        <ele>309.68</ele>
        <time>2016-12-11T10:15:44Z</time>
      </trkpt>
      <trkpt lat="43.1298" lon="-0.52163">
        <ele>309.68</ele>
        <time>2016-12-11T10:15:47Z</time>
      </trkpt>
      <trkpt lat="43.12987" lon="-0.52182">
        <ele>309.68</ele>
        <time>2016-12-11T10:15:52Z</time>
      </trkpt>
      <trkpt lat="43.13003" lon="-0.52206">
        <ele>306.32</ele>
        <time>2016-12-11T10:15:57Z</time>
      </trkpt>
      <trkpt lat="43.13004" lon="-0.52209">
        <ele>305.84</ele>
        <time>2016-12-11T10:15:58Z</time>
      </trkpt>
      <trkpt lat="43.13022" lon="-0.52237">
        <ele>306.32</ele>
        <time>2016-12-11T10:16:07Z</time>
      </trkpt>
      <trkpt lat="43.13042" lon="-0.5227">
        <ele>304.88</ele>
        <time>2016-12-11T10:16:15Z</time>
      </trkpt>
      <trkpt lat="43.13055" lon="-0.52304">
        <ele>300.07</ele>
        <time>2016-12-11T10:16:20Z</time>
      </trkpt>
      <trkpt lat="43.13053" lon="-0.52321">
        <ele>297.18</ele>
        <time>2016-12-11T10:16:22Z</time>
      </trkpt>
      <trkpt lat="43.13044" lon="-0.5234">
        <ele>292.86</ele>
        <time>2016-12-11T10:16:25Z</time>
      </trkpt>
      <trkpt lat="43.13037" lon="-0.52354">
        <ele>290.46</ele>
        <time>2016-12-11T10:16:28Z</time>
      </trkpt>
      <trkpt lat="43.13035" lon="-0.52359">
        <ele>289.01</ele>
        <time>2016-12-11T10:16:29Z</time>
      </trkpt>
      <trkpt lat="43.13033" lon="-0.52366">
        <ele>289.01</ele>
        <time>2016-12-11T10:16:31Z</time>
      </trkpt>
      <trkpt lat="43.13039" lon="-0.52388">
        <ele>290.94</ele>
        <time>2016-12-11T10:16:40Z</time>
      </trkpt>
      <trkpt lat="43.13048" lon="-0.524">
        <ele>289.49</ele>
        <time>2016-12-11T10:16:44Z</time>
      </trkpt>
      <trkpt lat="43.13053" lon="-0.52402">
        <ele>289.01</ele>
        <time>2016-12-11T10:16:46Z</time>
      </trkpt>
      <trkpt lat="43.13059" lon="-0.52403">
        <ele>289.01</ele>
        <time>2016-12-11T10:16:48Z</time>
      </trkpt>
      <trkpt lat="43.13072" lon="-0.52409">
        <ele>288.05</ele>
        <time>2016-12-11T10:16:53Z</time>
      </trkpt>
      <trkpt lat="43.1308" lon="-0.52412">
        <ele>287.09</ele>
        <time>2016-12-11T10:16:56Z</time>
      </trkpt>
      <trkpt lat="43.1309" lon="-0.52419">
        <ele>285.65</ele>
        <time>2016-12-11T10:16:59Z</time>
      </trkpt>
      <trkpt lat="43.13096" lon="-0.52423">
        <ele>285.65</ele>
        <time>2016-12-11T10:17:01Z</time>
      </trkpt>
      <trkpt lat="43.13128" lon="-0.52435">
        <ele>287.57</ele>
        <time>2016-12-11T10:17:11Z</time>
      </trkpt>
      <trkpt lat="43.13145" lon="-0.52441">
        <ele>287.09</ele>
        <time>2016-12-11T10:17:16Z</time>
      </trkpt>
      <trkpt lat="43.13162" lon="-0.52452">
        <ele>284.69</ele>
        <time>2016-12-11T10:17:22Z</time>
      </trkpt>
      <trkpt lat="43.13171" lon="-0.52458">
        <ele>284.21</ele>
        <time>2016-12-11T10:17:35Z</time>
      </trkpt>
      <trkpt lat="43.13175" lon="-0.52459">
        <ele>284.69</ele>
        <time>2016-12-11T10:17:54Z</time>
      </trkpt>
      <trkpt lat="43.13196" lon="-0.52478">
        <ele>282.77</ele>
        <time>2016-12-11T10:18:02Z</time>
      </trkpt>
      <trkpt lat="43.13208" lon="-0.52492">
        <ele>281.32</ele>
        <time>2016-12-11T10:18:05Z</time>
      </trkpt>
      <trkpt lat="43.13216" lon="-0.52501">
        <ele>280.84</ele>
        <time>2016-12-11T10:18:07Z</time>
      </trkpt>
      <trkpt lat="43.13235" lon="-0.52533">
        <ele>280.36</ele>
        <time>2016-12-11T10:18:13Z</time>
      </trkpt>
      <trkpt lat="43.13245" lon="-0.5255">
        <ele>279.88</ele>
        <time>2016-12-11T10:18:16Z</time>
      </trkpt>
      <trkpt lat="43.13251" lon="-0.52601">
        <ele>279.88</ele>
        <time>2016-12-11T10:18:26Z</time>
      </trkpt>
      <trkpt lat="43.13248" lon="-0.52631">
        <ele>278.44</ele>
        <time>2016-12-11T10:18:35Z</time>
      </trkpt>
      <trkpt lat="43.1325" lon="-0.52655">
        <ele>280.36</ele>
        <time>2016-12-11T10:18:42Z</time>
      </trkpt>
      <trkpt lat="43.1325" lon="-0.52659">
        <ele>281.32</ele>
        <time>2016-12-11T10:18:43Z</time>
      </trkpt>
      <trkpt lat="43.13244" lon="-0.52672">
        <ele>282.77</ele>
        <time>2016-12-11T10:18:47Z</time>
      </trkpt>
      <trkpt lat="43.13239" lon="-0.52684">
        <ele>284.21</ele>
        <time>2016-12-11T10:18:53Z</time>
      </trkpt>
      <trkpt lat="43.13232" lon="-0.52715">
        <ele>285.65</ele>
        <time>2016-12-11T10:19:04Z</time>
      </trkpt>
      <trkpt lat="43.13227" lon="-0.52739">
        <ele>289.01</ele>
        <time>2016-12-11T10:19:14Z</time>
      </trkpt>
      <trkpt lat="43.13226" lon="-0.52761">
        <ele>291.9</ele>
        <time>2016-12-11T10:19:26Z</time>
      </trkpt>
      <trkpt lat="43.13226" lon="-0.52765">
        <ele>291.9</ele>
        <time>2016-12-11T10:19:28Z</time>
      </trkpt>
      <trkpt lat="43.13225" lon="-0.52773">
        <ele>292.38</ele>
        <time>2016-12-11T10:19:32Z</time>
      </trkpt>
      <trkpt lat="43.13225" lon="-0.52803">
        <ele>294.78</ele>
        <time>2016-12-11T10:19:44Z</time>
      </trkpt>
      <trkpt lat="43.13224" lon="-0.52811">
        <ele>294.78</ele>
        <time>2016-12-11T10:19:48Z</time>
      </trkpt>
      <trkpt lat="43.13217" lon="-0.52828">
        <ele>296.7</ele>
        <time>2016-12-11T10:20:01Z</time>
      </trkpt>
      <trkpt lat="43.13211" lon="-0.52838">
        <ele>297.67</ele>
        <time>2016-12-11T10:20:14Z</time>
      </trkpt>
      <trkpt lat="43.1321" lon="-0.52839">
        <ele>298.15</ele>
        <time>2016-12-11T10:20:15Z</time>
      </trkpt>
      <trkpt lat="43.13208" lon="-0.52843">
        <ele>298.63</ele>
        <time>2016-12-11T10:20:18Z</time>
      </trkpt>
      <trkpt lat="43.13203" lon="-0.52854">
        <ele>299.11</ele>
        <time>2016-12-11T10:20:23Z</time>
      </trkpt>
      <trkpt lat="43.13197" lon="-0.52868">
        <ele>300.55</ele>
        <time>2016-12-11T10:20:29Z</time>
      </trkpt>
      <trkpt lat="43.13194" lon="-0.52872">
        <ele>301.03</ele>
        <time>2016-12-11T10:20:31Z</time>
      </trkpt>
      <trkpt lat="43.13191" lon="-0.5288">
        <ele>301.51</ele>
        <time>2016-12-11T10:20:35Z</time>
      </trkpt>
      <trkpt lat="43.13189" lon="-0.52885">
        <ele>302.47</ele>
        <time>2016-12-11T10:20:37Z</time>
      </trkpt>
      <trkpt lat="43.13187" lon="-0.52894">
        <ele>302.95</ele>
        <time>2016-12-11T10:20:41Z</time>
      </trkpt>
      <trkpt lat="43.13181" lon="-0.52916">
        <ele>304.39</ele>
        <time>2016-12-11T10:20:49Z</time>
      </trkpt>
      <trkpt lat="43.13172" lon="-0.52943">
        <ele>306.32</ele>
        <time>2016-12-11T10:21:00Z</time>
      </trkpt>
      <trkpt lat="43.1317" lon="-0.52953">
        <ele>307.28</ele>
        <time>2016-12-11T10:21:04Z</time>
      </trkpt>
      <trkpt lat="43.13167" lon="-0.52963">
        <ele>307.76</ele>
        <time>2016-12-11T10:21:08Z</time>
      </trkpt>
      <trkpt lat="43.13163" lon="-0.52971">
        <ele>308.24</ele>
        <time>2016-12-11T10:21:12Z</time>
      </trkpt>
      <trkpt lat="43.1315" lon="-0.52997">
        <ele>310.16</ele>
        <time>2016-12-11T10:21:24Z</time>
      </trkpt>
      <trkpt lat="43.13137" lon="-0.53015">
        <ele>310.16</ele>
        <time>2016-12-11T10:21:32Z</time>
      </trkpt>
      <trkpt lat="43.13124" lon="-0.53035">
        <ele>311.6</ele>
        <time>2016-12-11T10:21:42Z</time>
      </trkpt>
      <trkpt lat="43.13108" lon="-0.5306">
        <ele>312.09</ele>
        <time>2016-12-11T10:21:54Z</time>
      </trkpt>
      <trkpt lat="43.13089" lon="-0.53088">
        <ele>313.05</ele>
        <time>2016-12-11T10:22:05Z</time>
      </trkpt>
      <trkpt lat="43.13081" lon="-0.53101">
        <ele>313.53</ele>
        <time>2016-12-11T10:22:10Z</time>
      </trkpt>
      <trkpt lat="43.13067" lon="-0.53126">
        <ele>315.45</ele>
        <time>2016-12-11T10:22:20Z</time>
      </trkpt>
      <trkpt lat="43.13056" lon="-0.53145">
        <ele>316.41</ele>
        <time>2016-12-11T10:22:29Z</time>
      </trkpt>
      <trkpt lat="43.13041" lon="-0.53166">
        <ele>318.33</ele>
        <time>2016-12-11T10:22:39Z</time>
      </trkpt>
      <trkpt lat="43.13023" lon="-0.53197">
        <ele>321.22</ele>
        <time>2016-12-11T10:22:52Z</time>
      </trkpt>
      <trkpt lat="43.13009" lon="-0.53219">
        <ele>323.14</ele>
        <time>2016-12-11T10:23:02Z</time>
      </trkpt>
      <trkpt lat="43.12994" lon="-0.53245">
        <ele>325.54</ele>
        <time>2016-12-11T10:23:13Z</time>
      </trkpt>
      <trkpt lat="43.12983" lon="-0.5326">
        <ele>326.02</ele>
        <time>2016-12-11T10:23:20Z</time>
      </trkpt>
      <trkpt lat="43.12976" lon="-0.53268">
        <ele>326.99</ele>
        <time>2016-12-11T10:23:24Z</time>
      </trkpt>
      <trkpt lat="43.12942" lon="-0.53302">
        <ele>328.43</ele>
        <time>2016-12-11T10:23:39Z</time>
      </trkpt>
      <trkpt lat="43.12915" lon="-0.53326">
        <ele>329.39</ele>
        <time>2016-12-11T10:23:51Z</time>
      </trkpt>
      <trkpt lat="43.12888" lon="-0.53343">
        <ele>330.35</ele>
        <time>2016-12-11T10:24:01Z</time>
      </trkpt>
      <trkpt lat="43.12844" lon="-0.53364">
        <ele>330.35</ele>
        <time>2016-12-11T10:24:14Z</time>
      </trkpt>
      <trkpt lat="43.12823" lon="-0.53373">
        <ele>331.31</ele>
        <time>2016-12-11T10:24:21Z</time>
      </trkpt>
      <trkpt lat="43.12801" lon="-0.53386">
        <ele>333.71</ele>
        <time>2016-12-11T10:24:30Z</time>
      </trkpt>
      <trkpt lat="43.12797" lon="-0.53388">
        <ele>333.71</ele>
        <time>2016-12-11T10:24:32Z</time>
      </trkpt>
      <trkpt lat="43.12787" lon="-0.53396">
        <ele>334.68</ele>
        <time>2016-12-11T10:24:37Z</time>
      </trkpt>
      <trkpt lat="43.12757" lon="-0.53426">
        <ele>337.56</ele>
        <time>2016-12-11T10:24:51Z</time>
      </trkpt>
      <trkpt lat="43.12738" lon="-0.53446">
        <ele>339</ele>
        <time>2016-12-11T10:25:00Z</time>
      </trkpt>
      <trkpt lat="43.12719" lon="-0.53474">
        <ele>340.44</ele>
        <time>2016-12-11T10:25:11Z</time>
      </trkpt>
      <trkpt lat="43.12703" lon="-0.53508">
        <ele>342.85</ele>
        <time>2016-12-11T10:25:24Z</time>
      </trkpt>
      <trkpt lat="43.12702" lon="-0.5351">
        <ele>342.85</ele>
        <time>2016-12-11T10:25:25Z</time>
      </trkpt>
      <trkpt lat="43.1269" lon="-0.5352">
        <ele>343.81</ele>
        <time>2016-12-11T10:25:35Z</time>
      </trkpt>
      <trkpt lat="43.12689" lon="-0.53518">
        <ele>344.29</ele>
        <time>2016-12-11T10:25:36Z</time>
      </trkpt>
      <trkpt lat="43.12687" lon="-0.53511">
        <ele>344.77</ele>
        <time>2016-12-11T10:25:39Z</time>
      </trkpt>
      <trkpt lat="43.12686" lon="-0.53481">
        <ele>345.73</ele>
        <time>2016-12-11T10:25:51Z</time>
      </trkpt>
      <trkpt lat="43.12674" lon="-0.53454">
        <ele>348.62</ele>
        <time>2016-12-11T10:26:01Z</time>
      </trkpt>
      <trkpt lat="43.12668" lon="-0.53441">
        <ele>349.1</ele>
        <time>2016-12-11T10:26:06Z</time>
      </trkpt>
      <trkpt lat="43.12646" lon="-0.53408">
        <ele>351.5</ele>
        <time>2016-12-11T10:26:16Z</time>
      </trkpt>
      <trkpt lat="43.12637" lon="-0.534">
        <ele>351.98</ele>
        <time>2016-12-11T10:26:20Z</time>
      </trkpt>
      <trkpt lat="43.12624" lon="-0.53385">
        <ele>353.9</ele>
        <time>2016-12-11T10:26:27Z</time>
      </trkpt>
      <trkpt lat="43.12607" lon="-0.53366">
        <ele>355.83</ele>
        <time>2016-12-11T10:26:36Z</time>
      </trkpt>
      <trkpt lat="43.12584" lon="-0.5335">
        <ele>357.27</ele>
        <time>2016-12-11T10:26:46Z</time>
      </trkpt>
      <trkpt lat="43.12556" lon="-0.53352">
        <ele>359.19</ele>
        <time>2016-12-11T10:26:57Z</time>
      </trkpt>
      <trkpt lat="43.12549" lon="-0.53353">
        <ele>360.15</ele>
        <time>2016-12-11T10:27:00Z</time>
      </trkpt>
      <trkpt lat="43.12535" lon="-0.53369">
        <ele>361.59</ele>
        <time>2016-12-11T10:27:08Z</time>
      </trkpt>
      <trkpt lat="43.1253" lon="-0.53377">
        <ele>362.07</ele>
        <time>2016-12-11T10:27:12Z</time>
      </trkpt>
      <trkpt lat="43.1252" lon="-0.53415">
        <ele>365.92</ele>
        <time>2016-12-11T10:27:26Z</time>
      </trkpt>
      <trkpt lat="43.12512" lon="-0.53445">
        <ele>367.36</ele>
        <time>2016-12-11T10:27:36Z</time>
      </trkpt>
      <trkpt lat="43.1251" lon="-0.53469">
        <ele>369.28</ele>
        <time>2016-12-11T10:27:43Z</time>
      </trkpt>
      <trkpt lat="43.12512" lon="-0.53504">
        <ele>370.73</ele>
        <time>2016-12-11T10:27:53Z</time>
      </trkpt>
      <trkpt lat="43.12515" lon="-0.53537">
        <ele>372.65</ele>
        <time>2016-12-11T10:28:04Z</time>
      </trkpt>
      <trkpt lat="43.12506" lon="-0.53573">
        <ele>375.05</ele>
        <time>2016-12-11T10:28:16Z</time>
      </trkpt>
      <trkpt lat="43.125" lon="-0.53597">
        <ele>376.49</ele>
        <time>2016-12-11T10:28:24Z</time>
      </trkpt>
      <trkpt lat="43.12498" lon="-0.53619">
        <ele>377.45</ele>
        <time>2016-12-11T10:28:30Z</time>
      </trkpt>
      <trkpt lat="43.12496" lon="-0.53651">
        <ele>379.86</ele>
        <time>2016-12-11T10:28:42Z</time>
      </trkpt>
      <trkpt lat="43.12496" lon="-0.53657">
        <ele>380.34</ele>
        <time>2016-12-11T10:28:44Z</time>
      </trkpt>
      <trkpt lat="43.12492" lon="-0.53695">
        <ele>383.22</ele>
        <time>2016-12-11T10:28:56Z</time>
      </trkpt>
      <trkpt lat="43.12491" lon="-0.53701">
        <ele>383.22</ele>
        <time>2016-12-11T10:28:58Z</time>
      </trkpt>
      <trkpt lat="43.12492" lon="-0.53719">
        <ele>384.18</ele>
        <time>2016-12-11T10:29:04Z</time>
      </trkpt>
      <trkpt lat="43.12492" lon="-0.5373">
        <ele>385.63</ele>
        <time>2016-12-11T10:29:08Z</time>
      </trkpt>
      <trkpt lat="43.12492" lon="-0.53748">
        <ele>386.59</ele>
        <time>2016-12-11T10:29:14Z</time>
      </trkpt>
      <trkpt lat="43.1249" lon="-0.5376">
        <ele>386.59</ele>
        <time>2016-12-11T10:29:18Z</time>
      </trkpt>
      <trkpt lat="43.12487" lon="-0.53777">
        <ele>387.55</ele>
        <time>2016-12-11T10:29:23Z</time>
      </trkpt>
      <trkpt lat="43.12496" lon="-0.53821">
        <ele>389.47</ele>
        <time>2016-12-11T10:29:34Z</time>
      </trkpt>
      <trkpt lat="43.12499" lon="-0.53827">
        <ele>389.47</ele>
        <time>2016-12-11T10:29:36Z</time>
      </trkpt>
      <trkpt lat="43.12505" lon="-0.53837">
        <ele>389.95</ele>
        <time>2016-12-11T10:29:40Z</time>
      </trkpt>
      <trkpt lat="43.1251" lon="-0.53852">
        <ele>390.91</ele>
        <time>2016-12-11T10:29:46Z</time>
      </trkpt>
      <trkpt lat="43.12513" lon="-0.53863">
        <ele>391.39</ele>
        <time>2016-12-11T10:29:50Z</time>
      </trkpt>
      <trkpt lat="43.12513" lon="-0.5388">
        <ele>392.36</ele>
        <time>2016-12-11T10:29:56Z</time>
      </trkpt>
      <trkpt lat="43.12512" lon="-0.5389">
        <ele>393.8</ele>
        <time>2016-12-11T10:30:01Z</time>
      </trkpt>
      <trkpt lat="43.12507" lon="-0.53931">
        <ele>395.72</ele>
        <time>2016-12-11T10:30:12Z</time>
      </trkpt>
      <trkpt lat="43.12502" lon="-0.53946">
        <ele>396.2</ele>
        <time>2016-12-11T10:30:17Z</time>
      </trkpt>
      <trkpt lat="43.12499" lon="-0.53964">
        <ele>397.16</ele>
        <time>2016-12-11T10:30:23Z</time>
      </trkpt>
      <trkpt lat="43.12499" lon="-0.53976">
        <ele>397.64</ele>
        <time>2016-12-11T10:30:27Z</time>
      </trkpt>
      <trkpt lat="43.12497" lon="-0.54">
        <ele>398.6</ele>
        <time>2016-12-11T10:30:34Z</time>
      </trkpt>
      <trkpt lat="43.12487" lon="-0.54015">
        <ele>399.57</ele>
        <time>2016-12-11T10:30:44Z</time>
      </trkpt>
      <trkpt lat="43.12486" lon="-0.5401">
        <ele>400.53</ele>
        <time>2016-12-11T10:30:47Z</time>
      </trkpt>
      <trkpt lat="43.12486" lon="-0.54001">
        <ele>400.05</ele>
        <time>2016-12-11T10:30:51Z</time>
      </trkpt>
      <trkpt lat="43.12476" lon="-0.53974">
        <ele>401.49</ele>
        <time>2016-12-11T10:31:03Z</time>
      </trkpt>
      <trkpt lat="43.12466" lon="-0.5396">
        <ele>402.93</ele>
        <time>2016-12-11T10:31:12Z</time>
      </trkpt>
      <trkpt lat="43.12451" lon="-0.53941">
        <ele>404.85</ele>
        <time>2016-12-11T10:31:22Z</time>
      </trkpt>
      <trkpt lat="43.1244" lon="-0.53927">
        <ele>405.33</ele>
        <time>2016-12-11T10:31:28Z</time>
      </trkpt>
      <trkpt lat="43.12422" lon="-0.53912">
        <ele>406.77</ele>
        <time>2016-12-11T10:31:36Z</time>
      </trkpt>
      <trkpt lat="43.1242" lon="-0.53911">
        <ele>406.77</ele>
        <time>2016-12-11T10:31:37Z</time>
      </trkpt>
      <trkpt lat="43.12415" lon="-0.5391">
        <ele>407.26</ele>
        <time>2016-12-11T10:31:39Z</time>
      </trkpt>
      <trkpt lat="43.12387" lon="-0.53913">
        <ele>408.22</ele>
        <time>2016-12-11T10:31:50Z</time>
      </trkpt>
      <trkpt lat="43.1235" lon="-0.5394">
        <ele>406.77</ele>
        <time>2016-12-11T10:32:05Z</time>
      </trkpt>
      <trkpt lat="43.12338" lon="-0.53946">
        <ele>406.77</ele>
        <time>2016-12-11T10:32:12Z</time>
      </trkpt>
      <trkpt lat="43.12319" lon="-0.53941">
        <ele>407.26</ele>
        <time>2016-12-11T10:32:20Z</time>
      </trkpt>
      <trkpt lat="43.12294" lon="-0.53924">
        <ele>408.22</ele>
        <time>2016-12-11T10:32:30Z</time>
      </trkpt>
      <trkpt lat="43.1227" lon="-0.53908">
        <ele>409.18</ele>
        <time>2016-12-11T10:32:40Z</time>
      </trkpt>
      <trkpt lat="43.12242" lon="-0.53894">
        <ele>411.1</ele>
        <time>2016-12-11T10:32:52Z</time>
      </trkpt>
      <trkpt lat="43.12212" lon="-0.53875">
        <ele>412.54</ele>
        <time>2016-12-11T10:33:05Z</time>
      </trkpt>
      <trkpt lat="43.12205" lon="-0.53871">
        <ele>412.54</ele>
        <time>2016-12-11T10:33:08Z</time>
      </trkpt>
      <trkpt lat="43.12197" lon="-0.53875">
        <ele>412.06</ele>
        <time>2016-12-11T10:33:12Z</time>
      </trkpt>
      <trkpt lat="43.12179" lon="-0.53872">
        <ele>412.54</ele>
        <time>2016-12-11T10:33:23Z</time>
      </trkpt>
      <trkpt lat="43.12178" lon="-0.53871">
        <ele>413.02</ele>
        <time>2016-12-11T10:33:24Z</time>
      </trkpt>
      <trkpt lat="43.12174" lon="-0.5387">
        <ele>413.5</ele>
        <time>2016-12-11T10:33:26Z</time>
      </trkpt>
      <trkpt lat="43.12168" lon="-0.5387">
        <ele>413.5</ele>
        <time>2016-12-11T10:33:29Z</time>
      </trkpt>
      <trkpt lat="43.1215" lon="-0.53864">
        <ele>415.43</ele>
        <time>2016-12-11T10:33:40Z</time>
      </trkpt>
      <trkpt lat="43.12146" lon="-0.53862">
        <ele>416.87</ele>
        <time>2016-12-11T10:33:43Z</time>
      </trkpt>
      <trkpt lat="43.12144" lon="-0.5386">
        <ele>416.87</ele>
        <time>2016-12-11T10:33:45Z</time>
      </trkpt>
      <trkpt lat="43.12131" lon="-0.53852">
        <ele>419.27</ele>
        <time>2016-12-11T10:33:55Z</time>
      </trkpt>
      <trkpt lat="43.12127" lon="-0.53848">
        <ele>419.75</ele>
        <time>2016-12-11T10:33:58Z</time>
      </trkpt>
      <trkpt lat="43.12122" lon="-0.53846">
        <ele>420.71</ele>
        <time>2016-12-11T10:34:01Z</time>
      </trkpt>
      <trkpt lat="43.12115" lon="-0.53843">
        <ele>422.16</ele>
        <time>2016-12-11T10:34:06Z</time>
      </trkpt>
      <trkpt lat="43.12109" lon="-0.53843">
        <ele>423.12</ele>
        <time>2016-12-11T10:34:11Z</time>
      </trkpt>
      <trkpt lat="43.12094" lon="-0.53846">
        <ele>426.48</ele>
        <time>2016-12-11T10:34:24Z</time>
      </trkpt>
      <trkpt lat="43.12085" lon="-0.53846">
        <ele>427.92</ele>
        <time>2016-12-11T10:34:34Z</time>
      </trkpt>
      <trkpt lat="43.12081" lon="-0.53843">
        <ele>428.89</ele>
        <time>2016-12-11T10:34:37Z</time>
      </trkpt>
      <trkpt lat="43.12073" lon="-0.53835">
        <ele>430.33</ele>
        <time>2016-12-11T10:34:43Z</time>
      </trkpt>
      <trkpt lat="43.12064" lon="-0.53824">
        <ele>433.21</ele>
        <time>2016-12-11T10:34:53Z</time>
      </trkpt>
      <trkpt lat="43.12057" lon="-0.53813">
        <ele>435.13</ele>
        <time>2016-12-11T10:35:05Z</time>
      </trkpt>
      <trkpt lat="43.12053" lon="-0.53811">
        <ele>436.1</ele>
        <time>2016-12-11T10:35:09Z</time>
      </trkpt>
      <trkpt lat="43.1204" lon="-0.53801">
        <ele>438.02</ele>
        <time>2016-12-11T10:35:21Z</time>
      </trkpt>
      <trkpt lat="43.12036" lon="-0.53797">
        <ele>438.98</ele>
        <time>2016-12-11T10:35:25Z</time>
      </trkpt>
      <trkpt lat="43.12031" lon="-0.53795">
        <ele>439.46</ele>
        <time>2016-12-11T10:35:29Z</time>
      </trkpt>
      <trkpt lat="43.12026" lon="-0.5379">
        <ele>440.9</ele>
        <time>2016-12-11T10:35:35Z</time>
      </trkpt>
      <trkpt lat="43.12019" lon="-0.53785">
        <ele>441.38</ele>
        <time>2016-12-11T10:35:42Z</time>
      </trkpt>
      <trkpt lat="43.12007" lon="-0.53779">
        <ele>443.31</ele>
        <time>2016-12-11T10:35:52Z</time>
      </trkpt>
      <trkpt lat="43.12001" lon="-0.53775">
        <ele>443.31</ele>
        <time>2016-12-11T10:35:56Z</time>
      </trkpt>
      <trkpt lat="43.11993" lon="-0.53763">
        <ele>443.31</ele>
        <time>2016-12-11T10:36:01Z</time>
      </trkpt>
      <trkpt lat="43.11969" lon="-0.53736">
        <ele>441.38</ele>
        <time>2016-12-11T10:36:12Z</time>
      </trkpt>
      <trkpt lat="43.1196" lon="-0.53728">
        <ele>440.9</ele>
        <time>2016-12-11T10:36:15Z</time>
      </trkpt>
      <trkpt lat="43.11952" lon="-0.53717">
        <ele>440.42</ele>
        <time>2016-12-11T10:36:23Z</time>
      </trkpt>
      <trkpt lat="43.11952" lon="-0.53712">
        <ele>440.42</ele>
        <time>2016-12-11T10:36:27Z</time>
      </trkpt>
      <trkpt lat="43.11951" lon="-0.53707">
        <ele>440.42</ele>
        <time>2016-12-11T10:36:31Z</time>
      </trkpt>
      <trkpt lat="43.11949" lon="-0.53705">
        <ele>439.94</ele>
        <time>2016-12-11T10:36:33Z</time>
      </trkpt>
      <trkpt lat="43.11947" lon="-0.53694">
        <ele>440.42</ele>
        <time>2016-12-11T10:36:42Z</time>
      </trkpt>
      <trkpt lat="43.11946" lon="-0.53689">
        <ele>439.94</ele>
        <time>2016-12-11T10:36:44Z</time>
      </trkpt>
      <trkpt lat="43.1194" lon="-0.53672">
        <ele>440.9</ele>
        <time>2016-12-11T10:36:53Z</time>
      </trkpt>
      <trkpt lat="43.11931" lon="-0.53648">
        <ele>442.34</ele>
        <time>2016-12-11T10:37:04Z</time>
      </trkpt>
      <trkpt lat="43.11929" lon="-0.53644">
        <ele>442.82</ele>
        <time>2016-12-11T10:37:06Z</time>
      </trkpt>
      <trkpt lat="43.11923" lon="-0.53627">
        <ele>444.27</ele>
        <time>2016-12-11T10:37:13Z</time>
      </trkpt>
      <trkpt lat="43.1191" lon="-0.5358">
        <ele>443.79</ele>
        <time>2016-12-11T10:37:24Z</time>
      </trkpt>
      <trkpt lat="43.11907" lon="-0.53569">
        <ele>443.79</ele>
        <time>2016-12-11T10:37:26Z</time>
      </trkpt>
      <trkpt lat="43.11905" lon="-0.53563">
        <ele>443.79</ele>
        <time>2016-12-11T10:37:27Z</time>
      </trkpt>
      <trkpt lat="43.11903" lon="-0.53558">
        <ele>442.82</ele>
        <time>2016-12-11T10:37:28Z</time>
      </trkpt>
      <trkpt lat="43.11902" lon="-0.53553">
        <ele>443.31</ele>
        <time>2016-12-11T10:37:29Z</time>
      </trkpt>
      <trkpt lat="43.11901" lon="-0.53547">
        <ele>443.31</ele>
        <time>2016-12-11T10:37:30Z</time>
      </trkpt>
      <trkpt lat="43.119" lon="-0.5354">
        <ele>443.31</ele>
        <time>2016-12-11T10:37:31Z</time>
      </trkpt>
      <trkpt lat="43.11898" lon="-0.53533">
        <ele>442.34</ele>
        <time>2016-12-11T10:37:32Z</time>
      </trkpt>
      <trkpt lat="43.11893" lon="-0.53516">
        <ele>442.34</ele>
        <time>2016-12-11T10:37:36Z</time>
      </trkpt>
      <trkpt lat="43.11891" lon="-0.53513">
        <ele>442.34</ele>
        <time>2016-12-11T10:37:37Z</time>
      </trkpt>
      <trkpt lat="43.1189" lon="-0.5351">
        <ele>442.34</ele>
        <time>2016-12-11T10:37:38Z</time>
      </trkpt>
      <trkpt lat="43.1189" lon="-0.53507">
        <ele>442.34</ele>
        <time>2016-12-11T10:37:39Z</time>
      </trkpt>
      <trkpt lat="43.11891" lon="-0.53505">
        <ele>442.34</ele>
        <time>2016-12-11T10:37:40Z</time>
      </trkpt>
      <trkpt lat="43.11891" lon="-0.53502">
        <ele>441.86</ele>
        <time>2016-12-11T10:37:41Z</time>
      </trkpt>
      <trkpt lat="43.11892" lon="-0.53499">
        <ele>442.34</ele>
        <time>2016-12-11T10:37:42Z</time>
      </trkpt>
      <trkpt lat="43.11893" lon="-0.53495">
        <ele>442.34</ele>
        <time>2016-12-11T10:37:43Z</time>
      </trkpt>
      <trkpt lat="43.11893" lon="-0.53492">
        <ele>441.86</ele>
        <time>2016-12-11T10:37:44Z</time>
      </trkpt>
      <trkpt lat="43.11893" lon="-0.53489">
        <ele>442.34</ele>
        <time>2016-12-11T10:37:45Z</time>
      </trkpt>
      <trkpt lat="43.11892" lon="-0.53485">
        <ele>442.34</ele>
        <time>2016-12-11T10:37:46Z</time>
      </trkpt>
      <trkpt lat="43.11885" lon="-0.53448">
        <ele>442.34</ele>
        <time>2016-12-11T10:37:55Z</time>
      </trkpt>
      <trkpt lat="43.11878" lon="-0.53431">
        <ele>442.34</ele>
        <time>2016-12-11T10:38:00Z</time>
      </trkpt>
      <trkpt lat="43.11877" lon="-0.53427">
        <ele>443.31</ele>
        <time>2016-12-11T10:38:01Z</time>
      </trkpt>
      <trkpt lat="43.11883" lon="-0.53383">
        <ele>445.23</ele>
        <time>2016-12-11T10:38:12Z</time>
      </trkpt>
      <trkpt lat="43.11885" lon="-0.53369">
        <ele>445.23</ele>
        <time>2016-12-11T10:38:16Z</time>
      </trkpt>
      <trkpt lat="43.11885" lon="-0.53366">
        <ele>444.27</ele>
        <time>2016-12-11T10:38:17Z</time>
      </trkpt>
      <trkpt lat="43.11886" lon="-0.53359">
        <ele>444.75</ele>
        <time>2016-12-11T10:38:19Z</time>
      </trkpt>
      <trkpt lat="43.11885" lon="-0.53356">
        <ele>444.75</ele>
        <time>2016-12-11T10:38:20Z</time>
      </trkpt>
      <trkpt lat="43.11885" lon="-0.53352">
        <ele>444.27</ele>
        <time>2016-12-11T10:38:21Z</time>
      </trkpt>
      <trkpt lat="43.11885" lon="-0.53341">
        <ele>444.75</ele>
        <time>2016-12-11T10:38:24Z</time>
      </trkpt>
      <trkpt lat="43.11885" lon="-0.53339">
        <ele>444.75</ele>
        <time>2016-12-11T10:38:25Z</time>
      </trkpt>
      <trkpt lat="43.11885" lon="-0.53336">
        <ele>444.75</ele>
        <time>2016-12-11T10:38:26Z</time>
      </trkpt>
      <trkpt lat="43.11884" lon="-0.53332">
        <ele>445.23</ele>
        <time>2016-12-11T10:38:27Z</time>
      </trkpt>
      <trkpt lat="43.11883" lon="-0.53327">
        <ele>445.23</ele>
        <time>2016-12-11T10:38:28Z</time>
      </trkpt>
      <trkpt lat="43.11883" lon="-0.53323">
        <ele>445.23</ele>
        <time>2016-12-11T10:38:29Z</time>
      </trkpt>
      <trkpt lat="43.11882" lon="-0.5332">
        <ele>445.23</ele>
        <time>2016-12-11T10:38:30Z</time>
      </trkpt>
      <trkpt lat="43.11882" lon="-0.53317">
        <ele>445.71</ele>
        <time>2016-12-11T10:38:31Z</time>
      </trkpt>
      <trkpt lat="43.11882" lon="-0.53315">
        <ele>445.71</ele>
        <time>2016-12-11T10:38:32Z</time>
      </trkpt>
      <trkpt lat="43.11882" lon="-0.53311">
        <ele>445.71</ele>
        <time>2016-12-11T10:38:33Z</time>
      </trkpt>
      <trkpt lat="43.11881" lon="-0.53307">
        <ele>445.71</ele>
        <time>2016-12-11T10:38:34Z</time>
      </trkpt>
      <trkpt lat="43.11881" lon="-0.53303">
        <ele>445.23</ele>
        <time>2016-12-11T10:38:35Z</time>
      </trkpt>
      <trkpt lat="43.11881" lon="-0.53298">
        <ele>445.71</ele>
        <time>2016-12-11T10:38:36Z</time>
      </trkpt>
      <trkpt lat="43.1188" lon="-0.53292">
        <ele>445.23</ele>
        <time>2016-12-11T10:38:37Z</time>
      </trkpt>
      <trkpt lat="43.11878" lon="-0.53286">
        <ele>445.71</ele>
        <time>2016-12-11T10:38:38Z</time>
      </trkpt>
      <trkpt lat="43.11877" lon="-0.53281">
        <ele>445.71</ele>
        <time>2016-12-11T10:38:39Z</time>
      </trkpt>
      <trkpt lat="43.11877" lon="-0.53275">
        <ele>445.71</ele>
        <time>2016-12-11T10:38:40Z</time>
      </trkpt>
      <trkpt lat="43.11876" lon="-0.5327">
        <ele>445.71</ele>
        <time>2016-12-11T10:38:41Z</time>
      </trkpt>
      <trkpt lat="43.11876" lon="-0.53265">
        <ele>445.71</ele>
        <time>2016-12-11T10:38:42Z</time>
      </trkpt>
      <trkpt lat="43.11874" lon="-0.53258">
        <ele>446.19</ele>
        <time>2016-12-11T10:38:44Z</time>
      </trkpt>
      <trkpt lat="43.11873" lon="-0.53254">
        <ele>445.71</ele>
        <time>2016-12-11T10:38:45Z</time>
      </trkpt>
      <trkpt lat="43.11873" lon="-0.53249">
        <ele>446.19</ele>
        <time>2016-12-11T10:38:46Z</time>
      </trkpt>
      <trkpt lat="43.11873" lon="-0.53245">
        <ele>446.19</ele>
        <time>2016-12-11T10:38:47Z</time>
      </trkpt>
      <trkpt lat="43.11872" lon="-0.5324">
        <ele>446.67</ele>
        <time>2016-12-11T10:38:48Z</time>
      </trkpt>
      <trkpt lat="43.11872" lon="-0.53237">
        <ele>447.15</ele>
        <time>2016-12-11T10:38:49Z</time>
      </trkpt>
      <trkpt lat="43.11872" lon="-0.53233">
        <ele>446.67</ele>
        <time>2016-12-11T10:38:50Z</time>
      </trkpt>
      <trkpt lat="43.11872" lon="-0.53229">
        <ele>447.15</ele>
        <time>2016-12-11T10:38:51Z</time>
      </trkpt>
      <trkpt lat="43.11872" lon="-0.53224">
        <ele>447.15</ele>
        <time>2016-12-11T10:38:52Z</time>
      </trkpt>
      <trkpt lat="43.11866" lon="-0.53167">
        <ele>449.07</ele>
        <time>2016-12-11T10:39:05Z</time>
      </trkpt>
      <trkpt lat="43.11866" lon="-0.53161">
        <ele>450.03</ele>
        <time>2016-12-11T10:39:07Z</time>
      </trkpt>
      <trkpt lat="43.11866" lon="-0.53159">
        <ele>450.03</ele>
        <time>2016-12-11T10:39:08Z</time>
      </trkpt>
      <trkpt lat="43.11865" lon="-0.53153">
        <ele>451</ele>
        <time>2016-12-11T10:39:11Z</time>
      </trkpt>
      <trkpt lat="43.11864" lon="-0.5315">
        <ele>451.48</ele>
        <time>2016-12-11T10:39:12Z</time>
      </trkpt>
      <trkpt lat="43.11864" lon="-0.53148">
        <ele>451.48</ele>
        <time>2016-12-11T10:39:13Z</time>
      </trkpt>
      <trkpt lat="43.11861" lon="-0.53123">
        <ele>454.84</ele>
        <time>2016-12-11T10:39:25Z</time>
      </trkpt>
      <trkpt lat="43.11857" lon="-0.53106">
        <ele>456.28</ele>
        <time>2016-12-11T10:39:32Z</time>
      </trkpt>
      <trkpt lat="43.11857" lon="-0.53104">
        <ele>456.28</ele>
        <time>2016-12-11T10:39:33Z</time>
      </trkpt>
      <trkpt lat="43.11857" lon="-0.53095">
        <ele>457.72</ele>
        <time>2016-12-11T10:39:39Z</time>
      </trkpt>
      <trkpt lat="43.11858" lon="-0.53076">
        <ele>459.17</ele>
        <time>2016-12-11T10:39:48Z</time>
      </trkpt>
      <trkpt lat="43.11852" lon="-0.53054">
        <ele>462.05</ele>
        <time>2016-12-11T10:40:00Z</time>
      </trkpt>
      <trkpt lat="43.1185" lon="-0.53052">
        <ele>463.01</ele>
        <time>2016-12-11T10:40:02Z</time>
      </trkpt>
      <trkpt lat="43.11843" lon="-0.53036">
        <ele>465.42</ele>
        <time>2016-12-11T10:40:15Z</time>
      </trkpt>
      <trkpt lat="43.11841" lon="-0.53034">
        <ele>465.9</ele>
        <time>2016-12-11T10:40:18Z</time>
      </trkpt>
      <trkpt lat="43.11832" lon="-0.53025">
        <ele>467.34</ele>
        <time>2016-12-11T10:40:27Z</time>
      </trkpt>
      <trkpt lat="43.11831" lon="-0.53024">
        <ele>466.86</ele>
        <time>2016-12-11T10:40:28Z</time>
      </trkpt>
      <trkpt lat="43.11829" lon="-0.53023">
        <ele>467.82</ele>
        <time>2016-12-11T10:40:29Z</time>
      </trkpt>
      <trkpt lat="43.11828" lon="-0.53021">
        <ele>466.86</ele>
        <time>2016-12-11T10:40:30Z</time>
      </trkpt>
      <trkpt lat="43.11827" lon="-0.53019">
        <ele>467.82</ele>
        <time>2016-12-11T10:40:31Z</time>
      </trkpt>
      <trkpt lat="43.11821" lon="-0.53007">
        <ele>467.34</ele>
        <time>2016-12-11T10:40:37Z</time>
      </trkpt>
      <trkpt lat="43.1182" lon="-0.53005">
        <ele>467.82</ele>
        <time>2016-12-11T10:40:38Z</time>
      </trkpt>
      <trkpt lat="43.11819" lon="-0.53002">
        <ele>468.3</ele>
        <time>2016-12-11T10:40:39Z</time>
      </trkpt>
      <trkpt lat="43.11812" lon="-0.52982">
        <ele>469.74</ele>
        <time>2016-12-11T10:40:48Z</time>
      </trkpt>
      <trkpt lat="43.11808" lon="-0.52944">
        <ele>469.26</ele>
        <time>2016-12-11T10:41:00Z</time>
      </trkpt>
      <trkpt lat="43.11808" lon="-0.5294">
        <ele>469.26</ele>
        <time>2016-12-11T10:41:02Z</time>
      </trkpt>
      <trkpt lat="43.11808" lon="-0.52924">
        <ele>469.74</ele>
        <time>2016-12-11T10:41:08Z</time>
      </trkpt>
      <trkpt lat="43.11795" lon="-0.52885">
        <ele>471.18</ele>
        <time>2016-12-11T10:41:20Z</time>
      </trkpt>
      <trkpt lat="43.1179" lon="-0.52877">
        <ele>471.66</ele>
        <time>2016-12-11T10:41:24Z</time>
      </trkpt>
      <trkpt lat="43.11788" lon="-0.52875">
        <ele>471.66</ele>
        <time>2016-12-11T10:41:25Z</time>
      </trkpt>
      <trkpt lat="43.11787" lon="-0.52874">
        <ele>472.14</ele>
        <time>2016-12-11T10:41:26Z</time>
      </trkpt>
      <trkpt lat="43.11769" lon="-0.52853">
        <ele>474.55</ele>
        <time>2016-12-11T10:41:38Z</time>
      </trkpt>
      <trkpt lat="43.11761" lon="-0.52844">
        <ele>474.55</ele>
        <time>2016-12-11T10:41:43Z</time>
      </trkpt>
      <trkpt lat="43.1176" lon="-0.52842">
        <ele>475.03</ele>
        <time>2016-12-11T10:41:44Z</time>
      </trkpt>
      <trkpt lat="43.11759" lon="-0.52841">
        <ele>475.03</ele>
        <time>2016-12-11T10:41:45Z</time>
      </trkpt>
      <trkpt lat="43.11757" lon="-0.52839">
        <ele>475.03</ele>
        <time>2016-12-11T10:41:46Z</time>
      </trkpt>
      <trkpt lat="43.11755" lon="-0.52836">
        <ele>475.51</ele>
        <time>2016-12-11T10:41:47Z</time>
      </trkpt>
      <trkpt lat="43.11744" lon="-0.52825">
        <ele>475.51</ele>
        <time>2016-12-11T10:41:58Z</time>
      </trkpt>
      <trkpt lat="43.11727" lon="-0.52817">
        <ele>476.95</ele>
        <time>2016-12-11T10:42:08Z</time>
      </trkpt>
      <trkpt lat="43.11725" lon="-0.52816">
        <ele>476.95</ele>
        <time>2016-12-11T10:42:09Z</time>
      </trkpt>
      <trkpt lat="43.11717" lon="-0.52815">
        <ele>477.43</ele>
        <time>2016-12-11T10:42:13Z</time>
      </trkpt>
      <trkpt lat="43.11715" lon="-0.52815">
        <ele>477.91</ele>
        <time>2016-12-11T10:42:14Z</time>
      </trkpt>
      <trkpt lat="43.11714" lon="-0.52817">
        <ele>478.39</ele>
        <time>2016-12-11T10:42:15Z</time>
      </trkpt>
      <trkpt lat="43.11713" lon="-0.52817">
        <ele>478.39</ele>
        <time>2016-12-11T10:42:16Z</time>
      </trkpt>
      <trkpt lat="43.11711" lon="-0.52819">
        <ele>478.87</ele>
        <time>2016-12-11T10:42:17Z</time>
      </trkpt>
      <trkpt lat="43.1171" lon="-0.52821">
        <ele>478.87</ele>
        <time>2016-12-11T10:42:18Z</time>
      </trkpt>
      <trkpt lat="43.11709" lon="-0.52822">
        <ele>478.87</ele>
        <time>2016-12-11T10:42:19Z</time>
      </trkpt>
      <trkpt lat="43.11707" lon="-0.52823">
        <ele>478.87</ele>
        <time>2016-12-11T10:42:20Z</time>
      </trkpt>
      <trkpt lat="43.11706" lon="-0.52824">
        <ele>478.87</ele>
        <time>2016-12-11T10:42:21Z</time>
      </trkpt>
      <trkpt lat="43.11701" lon="-0.5283">
        <ele>479.84</ele>
        <time>2016-12-11T10:42:25Z</time>
      </trkpt>
      <trkpt lat="43.11699" lon="-0.52832">
        <ele>480.32</ele>
        <time>2016-12-11T10:42:26Z</time>
      </trkpt>
      <trkpt lat="43.11698" lon="-0.52833">
        <ele>479.84</ele>
        <time>2016-12-11T10:42:27Z</time>
      </trkpt>
      <trkpt lat="43.11697" lon="-0.52835">
        <ele>479.84</ele>
        <time>2016-12-11T10:42:28Z</time>
      </trkpt>
      <trkpt lat="43.11695" lon="-0.52837">
        <ele>479.84</ele>
        <time>2016-12-11T10:42:29Z</time>
      </trkpt>
      <trkpt lat="43.11694" lon="-0.52839">
        <ele>480.32</ele>
        <time>2016-12-11T10:42:30Z</time>
      </trkpt>
      <trkpt lat="43.11692" lon="-0.52841">
        <ele>480.32</ele>
        <time>2016-12-11T10:42:31Z</time>
      </trkpt>
      <trkpt lat="43.11691" lon="-0.52842">
        <ele>480.32</ele>
        <time>2016-12-11T10:42:32Z</time>
      </trkpt>
      <trkpt lat="43.1169" lon="-0.52844">
        <ele>480.8</ele>
        <time>2016-12-11T10:42:33Z</time>
      </trkpt>
      <trkpt lat="43.11688" lon="-0.52846">
        <ele>480.8</ele>
        <time>2016-12-11T10:42:34Z</time>
      </trkpt>
      <trkpt lat="43.11687" lon="-0.52848">
        <ele>480.8</ele>
        <time>2016-12-11T10:42:35Z</time>
      </trkpt>
      <trkpt lat="43.11686" lon="-0.52849">
        <ele>480.8</ele>
        <time>2016-12-11T10:42:36Z</time>
      </trkpt>
      <trkpt lat="43.11683" lon="-0.52853">
        <ele>480.8</ele>
        <time>2016-12-11T10:42:39Z</time>
      </trkpt>
      <trkpt lat="43.11682" lon="-0.52855">
        <ele>481.28</ele>
        <time>2016-12-11T10:42:40Z</time>
      </trkpt>
      <trkpt lat="43.11681" lon="-0.52856">
        <ele>481.28</ele>
        <time>2016-12-11T10:42:41Z</time>
      </trkpt>
      <trkpt lat="43.11679" lon="-0.52859">
        <ele>481.76</ele>
        <time>2016-12-11T10:42:42Z</time>
      </trkpt>
      <trkpt lat="43.11678" lon="-0.52861">
        <ele>482.24</ele>
        <time>2016-12-11T10:42:43Z</time>
      </trkpt>
      <trkpt lat="43.11663" lon="-0.52882">
        <ele>482.72</ele>
        <time>2016-12-11T10:42:52Z</time>
      </trkpt>
      <trkpt lat="43.11661" lon="-0.52883">
        <ele>482.72</ele>
        <time>2016-12-11T10:42:53Z</time>
      </trkpt>
      <trkpt lat="43.1166" lon="-0.52885">
        <ele>482.72</ele>
        <time>2016-12-11T10:42:54Z</time>
      </trkpt>
      <trkpt lat="43.11658" lon="-0.52886">
        <ele>482.72</ele>
        <time>2016-12-11T10:42:55Z</time>
      </trkpt>
      <trkpt lat="43.11656" lon="-0.52887">
        <ele>482.24</ele>
        <time>2016-12-11T10:42:56Z</time>
      </trkpt>
      <trkpt lat="43.11653" lon="-0.52889">
        <ele>481.76</ele>
        <time>2016-12-11T10:42:57Z</time>
      </trkpt>
      <trkpt lat="43.11651" lon="-0.52892">
        <ele>482.24</ele>
        <time>2016-12-11T10:42:58Z</time>
      </trkpt>
      <trkpt lat="43.11648" lon="-0.52894">
        <ele>481.76</ele>
        <time>2016-12-11T10:42:59Z</time>
      </trkpt>
      <trkpt lat="43.11646" lon="-0.52895">
        <ele>481.76</ele>
        <time>2016-12-11T10:43:00Z</time>
      </trkpt>
      <trkpt lat="43.11643" lon="-0.52897">
        <ele>481.76</ele>
        <time>2016-12-11T10:43:01Z</time>
      </trkpt>
      <trkpt lat="43.11641" lon="-0.52898">
        <ele>481.76</ele>
        <time>2016-12-11T10:43:02Z</time>
      </trkpt>
      <trkpt lat="43.11638" lon="-0.52901">
        <ele>481.76</ele>
        <time>2016-12-11T10:43:03Z</time>
      </trkpt>
      <trkpt lat="43.11621" lon="-0.52907">
        <ele>481.76</ele>
        <time>2016-12-11T10:43:11Z</time>
      </trkpt>
      <trkpt lat="43.11618" lon="-0.52908">
        <ele>482.24</ele>
        <time>2016-12-11T10:43:12Z</time>
      </trkpt>
      <trkpt lat="43.11616" lon="-0.52908">
        <ele>482.72</ele>
        <time>2016-12-11T10:43:13Z</time>
      </trkpt>
      <trkpt lat="43.11614" lon="-0.52908">
        <ele>482.24</ele>
        <time>2016-12-11T10:43:14Z</time>
      </trkpt>
      <trkpt lat="43.11611" lon="-0.52908">
        <ele>482.24</ele>
        <time>2016-12-11T10:43:15Z</time>
      </trkpt>
      <trkpt lat="43.11609" lon="-0.52908">
        <ele>482.24</ele>
        <time>2016-12-11T10:43:16Z</time>
      </trkpt>
      <trkpt lat="43.11599" lon="-0.52907">
        <ele>482.24</ele>
        <time>2016-12-11T10:43:20Z</time>
      </trkpt>
      <trkpt lat="43.11597" lon="-0.52907">
        <ele>482.72</ele>
        <time>2016-12-11T10:43:21Z</time>
      </trkpt>
      <trkpt lat="43.11594" lon="-0.52907">
        <ele>482.72</ele>
        <time>2016-12-11T10:43:22Z</time>
      </trkpt>
      <trkpt lat="43.1157" lon="-0.52904">
        <ele>484.64</ele>
        <time>2016-12-11T10:43:32Z</time>
      </trkpt>
      <trkpt lat="43.11569" lon="-0.52902">
        <ele>484.64</ele>
        <time>2016-12-11T10:43:33Z</time>
      </trkpt>
      <trkpt lat="43.11567" lon="-0.52901">
        <ele>484.64</ele>
        <time>2016-12-11T10:43:34Z</time>
      </trkpt>
      <trkpt lat="43.11566" lon="-0.52899">
        <ele>485.6</ele>
        <time>2016-12-11T10:43:35Z</time>
      </trkpt>
      <trkpt lat="43.11565" lon="-0.52897">
        <ele>485.6</ele>
        <time>2016-12-11T10:43:36Z</time>
      </trkpt>
      <trkpt lat="43.11563" lon="-0.52891">
        <ele>486.56</ele>
        <time>2016-12-11T10:43:39Z</time>
      </trkpt>
      <trkpt lat="43.11554" lon="-0.52859">
        <ele>489.93</ele>
        <time>2016-12-11T10:43:51Z</time>
      </trkpt>
      <trkpt lat="43.11554" lon="-0.52849">
        <ele>490.41</ele>
        <time>2016-12-11T10:43:56Z</time>
      </trkpt>
      <trkpt lat="43.11555" lon="-0.52842">
        <ele>491.37</ele>
        <time>2016-12-11T10:44:01Z</time>
      </trkpt>
      <trkpt lat="43.11559" lon="-0.52824">
        <ele>494.26</ele>
        <time>2016-12-11T10:44:12Z</time>
      </trkpt>
      <trkpt lat="43.11562" lon="-0.52806">
        <ele>496.18</ele>
        <time>2016-12-11T10:44:22Z</time>
      </trkpt>
      <trkpt lat="43.11563" lon="-0.52799">
        <ele>497.14</ele>
        <time>2016-12-11T10:44:26Z</time>
      </trkpt>
      <trkpt lat="43.11571" lon="-0.5278">
        <ele>500.5</ele>
        <time>2016-12-11T10:44:39Z</time>
      </trkpt>
      <trkpt lat="43.11574" lon="-0.52775">
        <ele>501.46</ele>
        <time>2016-12-11T10:44:44Z</time>
      </trkpt>
      <trkpt lat="43.11577" lon="-0.52768">
        <ele>502.43</ele>
        <time>2016-12-11T10:44:49Z</time>
      </trkpt>
      <trkpt lat="43.11585" lon="-0.52752">
        <ele>504.83</ele>
        <time>2016-12-11T10:45:01Z</time>
      </trkpt>
      <trkpt lat="43.11585" lon="-0.52751">
        <ele>505.31</ele>
        <time>2016-12-11T10:45:02Z</time>
      </trkpt>
      <trkpt lat="43.1159" lon="-0.52726">
        <ele>506.75</ele>
        <time>2016-12-11T10:45:14Z</time>
      </trkpt>
      <trkpt lat="43.11591" lon="-0.52716">
        <ele>507.23</ele>
        <time>2016-12-11T10:45:19Z</time>
      </trkpt>
      <trkpt lat="43.11596" lon="-0.52692">
        <ele>510.12</ele>
        <time>2016-12-11T10:45:34Z</time>
      </trkpt>
      <trkpt lat="43.11599" lon="-0.5268">
        <ele>511.56</ele>
        <time>2016-12-11T10:45:44Z</time>
      </trkpt>
      <trkpt lat="43.11601" lon="-0.52668">
        <ele>513</ele>
        <time>2016-12-11T10:45:52Z</time>
      </trkpt>
      <trkpt lat="43.11599" lon="-0.52655">
        <ele>514.92</ele>
        <time>2016-12-11T10:45:57Z</time>
      </trkpt>
      <trkpt lat="43.11597" lon="-0.52621">
        <ele>515.4</ele>
        <time>2016-12-11T10:46:08Z</time>
      </trkpt>
      <trkpt lat="43.11595" lon="-0.52572">
        <ele>516.85</ele>
        <time>2016-12-11T10:46:21Z</time>
      </trkpt>
      <trkpt lat="43.11597" lon="-0.52541">
        <ele>518.77</ele>
        <time>2016-12-11T10:46:34Z</time>
      </trkpt>
      <trkpt lat="43.11598" lon="-0.52511">
        <ele>519.25</ele>
        <time>2016-12-11T10:46:45Z</time>
      </trkpt>
      <trkpt lat="43.11599" lon="-0.52506">
        <ele>519.73</ele>
        <time>2016-12-11T10:46:48Z</time>
      </trkpt>
      <trkpt lat="43.116" lon="-0.52498">
        <ele>519.73</ele>
        <time>2016-12-11T10:46:52Z</time>
      </trkpt>
      <trkpt lat="43.11594" lon="-0.52461">
        <ele>520.69</ele>
        <time>2016-12-11T10:47:03Z</time>
      </trkpt>
      <trkpt lat="43.11589" lon="-0.5242">
        <ele>521.17</ele>
        <time>2016-12-11T10:47:13Z</time>
      </trkpt>
      <trkpt lat="43.1158" lon="-0.52381">
        <ele>520.69</ele>
        <time>2016-12-11T10:47:24Z</time>
      </trkpt>
      <trkpt lat="43.11571" lon="-0.52364">
        <ele>519.25</ele>
        <time>2016-12-11T10:47:30Z</time>
      </trkpt>
      <trkpt lat="43.11567" lon="-0.52357">
        <ele>518.77</ele>
        <time>2016-12-11T10:47:34Z</time>
      </trkpt>
      <trkpt lat="43.11544" lon="-0.52319">
        <ele>516.37</ele>
        <time>2016-12-11T10:47:41Z</time>
      </trkpt>
      <trkpt lat="43.11512" lon="-0.523">
        <ele>514.44</ele>
        <time>2016-12-11T10:47:46Z</time>
      </trkpt>
      <trkpt lat="43.11508" lon="-0.52295">
        <ele>513.96</ele>
        <time>2016-12-11T10:47:47Z</time>
      </trkpt>
      <trkpt lat="43.11504" lon="-0.5229">
        <ele>513.48</ele>
        <time>2016-12-11T10:47:48Z</time>
      </trkpt>
      <trkpt lat="43.11501" lon="-0.52285">
        <ele>512.52</ele>
        <time>2016-12-11T10:47:49Z</time>
      </trkpt>
      <trkpt lat="43.11499" lon="-0.52281">
        <ele>512.52</ele>
        <time>2016-12-11T10:47:50Z</time>
      </trkpt>
      <trkpt lat="43.11495" lon="-0.52278">
        <ele>513</ele>
        <time>2016-12-11T10:47:51Z</time>
      </trkpt>
      <trkpt lat="43.11474" lon="-0.52243">
        <ele>513</ele>
        <time>2016-12-11T10:48:00Z</time>
      </trkpt>
      <trkpt lat="43.11457" lon="-0.52218">
        <ele>513.96</ele>
        <time>2016-12-11T10:48:06Z</time>
      </trkpt>
      <trkpt lat="43.11439" lon="-0.52172">
        <ele>515.4</ele>
        <time>2016-12-11T10:48:17Z</time>
      </trkpt>
      <trkpt lat="43.1143" lon="-0.52121">
        <ele>514.44</ele>
        <time>2016-12-11T10:48:29Z</time>
      </trkpt>
      <trkpt lat="43.11434" lon="-0.52074">
        <ele>513</ele>
        <time>2016-12-11T10:48:38Z</time>
      </trkpt>
      <trkpt lat="43.11433" lon="-0.52055">
        <ele>511.08</ele>
        <time>2016-12-11T10:48:40Z</time>
      </trkpt>
      <trkpt lat="43.11432" lon="-0.52044">
        <ele>510.6</ele>
        <time>2016-12-11T10:48:41Z</time>
      </trkpt>
      <trkpt lat="43.1143" lon="-0.52034">
        <ele>509.64</ele>
        <time>2016-12-11T10:48:42Z</time>
      </trkpt>
      <trkpt lat="43.11427" lon="-0.52025">
        <ele>508.67</ele>
        <time>2016-12-11T10:48:43Z</time>
      </trkpt>
      <trkpt lat="43.11423" lon="-0.52018">
        <ele>508.67</ele>
        <time>2016-12-11T10:48:44Z</time>
      </trkpt>
      <trkpt lat="43.11419" lon="-0.52011">
        <ele>508.19</ele>
        <time>2016-12-11T10:48:45Z</time>
      </trkpt>
      <trkpt lat="43.11414" lon="-0.52005">
        <ele>507.71</ele>
        <time>2016-12-11T10:48:46Z</time>
      </trkpt>
      <trkpt lat="43.11409" lon="-0.51998">
        <ele>507.71</ele>
        <time>2016-12-11T10:48:47Z</time>
      </trkpt>
      <trkpt lat="43.11404" lon="-0.51991">
        <ele>507.23</ele>
        <time>2016-12-11T10:48:48Z</time>
      </trkpt>
      <trkpt lat="43.11394" lon="-0.51979">
        <ele>505.79</ele>
        <time>2016-12-11T10:48:50Z</time>
      </trkpt>
      <trkpt lat="43.11375" lon="-0.51964">
        <ele>503.87</ele>
        <time>2016-12-11T10:48:53Z</time>
      </trkpt>
      <trkpt lat="43.11368" lon="-0.51959">
        <ele>502.91</ele>
        <time>2016-12-11T10:48:54Z</time>
      </trkpt>
      <trkpt lat="43.11362" lon="-0.51955">
        <ele>502.43</ele>
        <time>2016-12-11T10:48:55Z</time>
      </trkpt>
      <trkpt lat="43.11356" lon="-0.51952">
        <ele>501.95</ele>
        <time>2016-12-11T10:48:56Z</time>
      </trkpt>
      <trkpt lat="43.1135" lon="-0.51951">
        <ele>501.46</ele>
        <time>2016-12-11T10:48:57Z</time>
      </trkpt>
      <trkpt lat="43.11344" lon="-0.5195">
        <ele>500.5</ele>
        <time>2016-12-11T10:48:58Z</time>
      </trkpt>
      <trkpt lat="43.11337" lon="-0.51949">
        <ele>500.5</ele>
        <time>2016-12-11T10:48:59Z</time>
      </trkpt>
      <trkpt lat="43.11326" lon="-0.51946">
        <ele>500.02</ele>
        <time>2016-12-11T10:49:01Z</time>
      </trkpt>
      <trkpt lat="43.11322" lon="-0.51944">
        <ele>499.54</ele>
        <time>2016-12-11T10:49:02Z</time>
      </trkpt>
      <trkpt lat="43.11317" lon="-0.51941">
        <ele>499.54</ele>
        <time>2016-12-11T10:49:03Z</time>
      </trkpt>
      <trkpt lat="43.11297" lon="-0.51933">
        <ele>497.14</ele>
        <time>2016-12-11T10:49:06Z</time>
      </trkpt>
      <trkpt lat="43.11291" lon="-0.5193">
        <ele>497.14</ele>
        <time>2016-12-11T10:49:07Z</time>
      </trkpt>
      <trkpt lat="43.11287" lon="-0.51928">
        <ele>496.18</ele>
        <time>2016-12-11T10:49:08Z</time>
      </trkpt>
      <trkpt lat="43.11284" lon="-0.51927">
        <ele>495.7</ele>
        <time>2016-12-11T10:49:09Z</time>
      </trkpt>
      <trkpt lat="43.11281" lon="-0.51927">
        <ele>495.22</ele>
        <time>2016-12-11T10:49:10Z</time>
      </trkpt>
      <trkpt lat="43.11279" lon="-0.51928">
        <ele>495.7</ele>
        <time>2016-12-11T10:49:11Z</time>
      </trkpt>
      <trkpt lat="43.11276" lon="-0.51929">
        <ele>495.22</ele>
        <time>2016-12-11T10:49:12Z</time>
      </trkpt>
      <trkpt lat="43.11259" lon="-0.51936">
        <ele>495.7</ele>
        <time>2016-12-11T10:49:19Z</time>
      </trkpt>
      <trkpt lat="43.11257" lon="-0.51934">
        <ele>496.18</ele>
        <time>2016-12-11T10:49:20Z</time>
      </trkpt>
      <trkpt lat="43.11256" lon="-0.51932">
        <ele>496.18</ele>
        <time>2016-12-11T10:49:21Z</time>
      </trkpt>
      <trkpt lat="43.11256" lon="-0.5193">
        <ele>496.18</ele>
        <time>2016-12-11T10:49:22Z</time>
      </trkpt>
      <trkpt lat="43.11255" lon="-0.51928">
        <ele>496.66</ele>
        <time>2016-12-11T10:49:23Z</time>
      </trkpt>
      <trkpt lat="43.11254" lon="-0.51925">
        <ele>496.66</ele>
        <time>2016-12-11T10:49:25Z</time>
      </trkpt>
      <trkpt lat="43.11253" lon="-0.51923">
        <ele>497.14</ele>
        <time>2016-12-11T10:49:26Z</time>
      </trkpt>
      <trkpt lat="43.11252" lon="-0.51922">
        <ele>497.14</ele>
        <time>2016-12-11T10:49:27Z</time>
      </trkpt>
      <trkpt lat="43.11251" lon="-0.5192">
        <ele>497.14</ele>
        <time>2016-12-11T10:49:28Z</time>
      </trkpt>
      <trkpt lat="43.11251" lon="-0.51918">
        <ele>497.14</ele>
        <time>2016-12-11T10:49:29Z</time>
      </trkpt>
      <trkpt lat="43.1125" lon="-0.51915">
        <ele>497.62</ele>
        <time>2016-12-11T10:49:30Z</time>
      </trkpt>
      <trkpt lat="43.1125" lon="-0.51913">
        <ele>497.62</ele>
        <time>2016-12-11T10:49:31Z</time>
      </trkpt>
      <trkpt lat="43.11249" lon="-0.5191">
        <ele>497.62</ele>
        <time>2016-12-11T10:49:32Z</time>
      </trkpt>
      <trkpt lat="43.11243" lon="-0.51872">
        <ele>500.02</ele>
        <time>2016-12-11T10:49:44Z</time>
      </trkpt>
      <trkpt lat="43.11238" lon="-0.51847">
        <ele>501.46</ele>
        <time>2016-12-11T10:49:51Z</time>
      </trkpt>
      <trkpt lat="43.11236" lon="-0.51846">
        <ele>501.95</ele>
        <time>2016-12-11T10:49:52Z</time>
      </trkpt>
      <trkpt lat="43.11233" lon="-0.51846">
        <ele>501.95</ele>
        <time>2016-12-11T10:49:53Z</time>
      </trkpt>
      <trkpt lat="43.11231" lon="-0.51846">
        <ele>501.95</ele>
        <time>2016-12-11T10:49:54Z</time>
      </trkpt>
      <trkpt lat="43.11229" lon="-0.51848">
        <ele>502.43</ele>
        <time>2016-12-11T10:49:55Z</time>
      </trkpt>
      <trkpt lat="43.11227" lon="-0.5185">
        <ele>502.43</ele>
        <time>2016-12-11T10:49:56Z</time>
      </trkpt>
      <trkpt lat="43.11227" lon="-0.51852">
        <ele>502.43</ele>
        <time>2016-12-11T10:49:57Z</time>
      </trkpt>
      <trkpt lat="43.11226" lon="-0.51854">
        <ele>502.91</ele>
        <time>2016-12-11T10:49:58Z</time>
      </trkpt>
      <trkpt lat="43.11227" lon="-0.51857">
        <ele>502.43</ele>
        <time>2016-12-11T10:49:59Z</time>
      </trkpt>
      <trkpt lat="43.11228" lon="-0.51891">
        <ele>504.35</ele>
        <time>2016-12-11T10:50:09Z</time>
      </trkpt>
      <trkpt lat="43.11219" lon="-0.519">
        <ele>504.83</ele>
        <time>2016-12-11T10:50:13Z</time>
      </trkpt>
      <trkpt lat="43.11217" lon="-0.51899">
        <ele>505.31</ele>
        <time>2016-12-11T10:50:14Z</time>
      </trkpt>
      <trkpt lat="43.11215" lon="-0.51898">
        <ele>505.31</ele>
        <time>2016-12-11T10:50:15Z</time>
      </trkpt>
      <trkpt lat="43.11214" lon="-0.51896">
        <ele>505.79</ele>
        <time>2016-12-11T10:50:16Z</time>
      </trkpt>
      <trkpt lat="43.11214" lon="-0.51894">
        <ele>505.79</ele>
        <time>2016-12-11T10:50:17Z</time>
      </trkpt>
      <trkpt lat="43.11213" lon="-0.51891">
        <ele>505.79</ele>
        <time>2016-12-11T10:50:18Z</time>
      </trkpt>
      <trkpt lat="43.11213" lon="-0.51888">
        <ele>506.27</ele>
        <time>2016-12-11T10:50:19Z</time>
      </trkpt>
      <trkpt lat="43.11213" lon="-0.51885">
        <ele>506.75</ele>
        <time>2016-12-11T10:50:20Z</time>
      </trkpt>
      <trkpt lat="43.11212" lon="-0.51882">
        <ele>506.75</ele>
        <time>2016-12-11T10:50:21Z</time>
      </trkpt>
      <trkpt lat="43.11203" lon="-0.51841">
        <ele>509.16</ele>
        <time>2016-12-11T10:50:33Z</time>
      </trkpt>
      <trkpt lat="43.1119" lon="-0.51821">
        <ele>510.6</ele>
        <time>2016-12-11T10:50:41Z</time>
      </trkpt>
      <trkpt lat="43.11188" lon="-0.51819">
        <ele>510.6</ele>
        <time>2016-12-11T10:50:42Z</time>
      </trkpt>
      <trkpt lat="43.11186" lon="-0.51818">
        <ele>511.08</ele>
        <time>2016-12-11T10:50:43Z</time>
      </trkpt>
      <trkpt lat="43.11184" lon="-0.51816">
        <ele>511.08</ele>
        <time>2016-12-11T10:50:44Z</time>
      </trkpt>
      <trkpt lat="43.11181" lon="-0.51815">
        <ele>511.08</ele>
        <time>2016-12-11T10:50:45Z</time>
      </trkpt>
      <trkpt lat="43.11178" lon="-0.51814">
        <ele>511.56</ele>
        <time>2016-12-11T10:50:46Z</time>
      </trkpt>
      <trkpt lat="43.11176" lon="-0.51813">
        <ele>512.04</ele>
        <time>2016-12-11T10:50:47Z</time>
      </trkpt>
      <trkpt lat="43.11155" lon="-0.51788">
        <ele>513.48</ele>
        <time>2016-12-11T10:50:57Z</time>
      </trkpt>
      <trkpt lat="43.11151" lon="-0.51741">
        <ele>515.88</ele>
        <time>2016-12-11T10:51:10Z</time>
      </trkpt>
      <trkpt lat="43.11138" lon="-0.51726">
        <ele>518.29</ele>
        <time>2016-12-11T10:51:18Z</time>
      </trkpt>
      <trkpt lat="43.11136" lon="-0.51726">
        <ele>518.77</ele>
        <time>2016-12-11T10:51:19Z</time>
      </trkpt>
      <trkpt lat="43.11134" lon="-0.51726">
        <ele>518.29</ele>
        <time>2016-12-11T10:51:20Z</time>
      </trkpt>
      <trkpt lat="43.11132" lon="-0.51726">
        <ele>518.77</ele>
        <time>2016-12-11T10:51:21Z</time>
      </trkpt>
      <trkpt lat="43.1113" lon="-0.51726">
        <ele>518.77</ele>
        <time>2016-12-11T10:51:22Z</time>
      </trkpt>
      <trkpt lat="43.11128" lon="-0.51727">
        <ele>519.73</ele>
        <time>2016-12-11T10:51:23Z</time>
      </trkpt>
      <trkpt lat="43.11125" lon="-0.51727">
        <ele>519.73</ele>
        <time>2016-12-11T10:51:24Z</time>
      </trkpt>
      <trkpt lat="43.11123" lon="-0.51728">
        <ele>519.73</ele>
        <time>2016-12-11T10:51:25Z</time>
      </trkpt>
      <trkpt lat="43.11121" lon="-0.51728">
        <ele>520.21</ele>
        <time>2016-12-11T10:51:26Z</time>
      </trkpt>
      <trkpt lat="43.11119" lon="-0.51728">
        <ele>520.21</ele>
        <time>2016-12-11T10:51:27Z</time>
      </trkpt>
      <trkpt lat="43.1109" lon="-0.51721">
        <ele>522.61</ele>
        <time>2016-12-11T10:51:40Z</time>
      </trkpt>
      <trkpt lat="43.11088" lon="-0.51719">
        <ele>522.61</ele>
        <time>2016-12-11T10:51:41Z</time>
      </trkpt>
      <trkpt lat="43.11087" lon="-0.51712">
        <ele>522.61</ele>
        <time>2016-12-11T10:51:43Z</time>
      </trkpt>
      <trkpt lat="43.11093" lon="-0.51675">
        <ele>523.58</ele>
        <time>2016-12-11T10:51:54Z</time>
      </trkpt>
      <trkpt lat="43.11103" lon="-0.51641">
        <ele>525.02</ele>
        <time>2016-12-11T10:52:04Z</time>
      </trkpt>
      <trkpt lat="43.111" lon="-0.51624">
        <ele>525.98</ele>
        <time>2016-12-11T10:52:09Z</time>
      </trkpt>
      <trkpt lat="43.11088" lon="-0.5161">
        <ele>528.38</ele>
        <time>2016-12-11T10:52:17Z</time>
      </trkpt>
      <trkpt lat="43.11078" lon="-0.51599">
        <ele>530.3</ele>
        <time>2016-12-11T10:52:25Z</time>
      </trkpt>
      <trkpt lat="43.11072" lon="-0.51594">
        <ele>531.27</ele>
        <time>2016-12-11T10:52:29Z</time>
      </trkpt>
      <trkpt lat="43.11068" lon="-0.51592">
        <ele>532.23</ele>
        <time>2016-12-11T10:52:33Z</time>
      </trkpt>
      <trkpt lat="43.1106" lon="-0.51583">
        <ele>534.15</ele>
        <time>2016-12-11T10:52:41Z</time>
      </trkpt>
      <trkpt lat="43.11059" lon="-0.51582">
        <ele>534.63</ele>
        <time>2016-12-11T10:52:43Z</time>
      </trkpt>
      <trkpt lat="43.11056" lon="-0.5158">
        <ele>535.59</ele>
        <time>2016-12-11T10:52:46Z</time>
      </trkpt>
      <trkpt lat="43.11051" lon="-0.51572">
        <ele>537.51</ele>
        <time>2016-12-11T10:52:53Z</time>
      </trkpt>
      <trkpt lat="43.11045" lon="-0.51555">
        <ele>538.96</ele>
        <time>2016-12-11T10:53:03Z</time>
      </trkpt>
      <trkpt lat="43.11043" lon="-0.51547">
        <ele>539.92</ele>
        <time>2016-12-11T10:53:08Z</time>
      </trkpt>
      <trkpt lat="43.11042" lon="-0.51541">
        <ele>540.88</ele>
        <time>2016-12-11T10:53:12Z</time>
      </trkpt>
      <trkpt lat="43.11044" lon="-0.51527">
        <ele>542.32</ele>
        <time>2016-12-11T10:53:20Z</time>
      </trkpt>
      <trkpt lat="43.11045" lon="-0.51521">
        <ele>542.8</ele>
        <time>2016-12-11T10:53:24Z</time>
      </trkpt>
      <trkpt lat="43.11048" lon="-0.51515">
        <ele>543.28</ele>
        <time>2016-12-11T10:53:28Z</time>
      </trkpt>
      <trkpt lat="43.11049" lon="-0.51509">
        <ele>543.28</ele>
        <time>2016-12-11T10:53:32Z</time>
      </trkpt>
      <trkpt lat="43.11055" lon="-0.51487">
        <ele>541.84</ele>
        <time>2016-12-11T10:53:38Z</time>
      </trkpt>
      <trkpt lat="43.11057" lon="-0.5148">
        <ele>542.8</ele>
        <time>2016-12-11T10:53:41Z</time>
      </trkpt>
      <trkpt lat="43.11063" lon="-0.51454">
        <ele>541.84</ele>
        <time>2016-12-11T10:53:48Z</time>
      </trkpt>
      <trkpt lat="43.11066" lon="-0.51439">
        <ele>540.88</ele>
        <time>2016-12-11T10:53:50Z</time>
      </trkpt>
      <trkpt lat="43.1107" lon="-0.51412">
        <ele>539.92</ele>
        <time>2016-12-11T10:53:54Z</time>
      </trkpt>
      <trkpt lat="43.11074" lon="-0.51391">
        <ele>537.51</ele>
        <time>2016-12-11T10:53:57Z</time>
      </trkpt>
      <trkpt lat="43.1109" lon="-0.51348">
        <ele>533.67</ele>
        <time>2016-12-11T10:54:03Z</time>
      </trkpt>
      <trkpt lat="43.11104" lon="-0.51325">
        <ele>529.34</ele>
        <time>2016-12-11T10:54:07Z</time>
      </trkpt>
      <trkpt lat="43.11108" lon="-0.51317">
        <ele>528.38</ele>
        <time>2016-12-11T10:54:09Z</time>
      </trkpt>
      <trkpt lat="43.11115" lon="-0.51302">
        <ele>527.42</ele>
        <time>2016-12-11T10:54:12Z</time>
      </trkpt>
      <trkpt lat="43.11129" lon="-0.5128">
        <ele>525.98</ele>
        <time>2016-12-11T10:54:15Z</time>
      </trkpt>
      <trkpt lat="43.11142" lon="-0.51259">
        <ele>524.06</ele>
        <time>2016-12-11T10:54:18Z</time>
      </trkpt>
      <trkpt lat="43.11158" lon="-0.51219">
        <ele>519.73</ele>
        <time>2016-12-11T10:54:23Z</time>
      </trkpt>
      <trkpt lat="43.11172" lon="-0.51188">
        <ele>515.4</ele>
        <time>2016-12-11T10:54:27Z</time>
      </trkpt>
      <trkpt lat="43.11177" lon="-0.51173">
        <ele>514.44</ele>
        <time>2016-12-11T10:54:29Z</time>
      </trkpt>
      <trkpt lat="43.11177" lon="-0.51145">
        <ele>508.67</ele>
        <time>2016-12-11T10:54:33Z</time>
      </trkpt>
      <trkpt lat="43.11178" lon="-0.51122">
        <ele>503.39</ele>
        <time>2016-12-11T10:54:36Z</time>
      </trkpt>
      <trkpt lat="43.11177" lon="-0.51114">
        <ele>502.91</ele>
        <time>2016-12-11T10:54:37Z</time>
      </trkpt>
      <trkpt lat="43.11179" lon="-0.51083">
        <ele>496.66</ele>
        <time>2016-12-11T10:54:41Z</time>
      </trkpt>
      <trkpt lat="43.1118" lon="-0.51075">
        <ele>495.7</ele>
        <time>2016-12-11T10:54:42Z</time>
      </trkpt>
      <trkpt lat="43.11188" lon="-0.51043">
        <ele>488.49</ele>
        <time>2016-12-11T10:54:48Z</time>
      </trkpt>
      <trkpt lat="43.1119" lon="-0.51038">
        <ele>487.53</ele>
        <time>2016-12-11T10:54:50Z</time>
      </trkpt>
      <trkpt lat="43.11197" lon="-0.51024">
        <ele>484.16</ele>
        <time>2016-12-11T10:54:54Z</time>
      </trkpt>
      <trkpt lat="43.11207" lon="-0.50998">
        <ele>479.84</ele>
        <time>2016-12-11T10:54:58Z</time>
      </trkpt>
      <trkpt lat="43.11213" lon="-0.50978">
        <ele>476.47</ele>
        <time>2016-12-11T10:55:01Z</time>
      </trkpt>
      <trkpt lat="43.11223" lon="-0.50959">
        <ele>472.63</ele>
        <time>2016-12-11T10:55:04Z</time>
      </trkpt>
      <trkpt lat="43.11245" lon="-0.50939">
        <ele>467.34</ele>
        <time>2016-12-11T10:55:09Z</time>
      </trkpt>
      <trkpt lat="43.11264" lon="-0.50937">
        <ele>462.53</ele>
        <time>2016-12-11T10:55:12Z</time>
      </trkpt>
      <trkpt lat="43.11285" lon="-0.50931">
        <ele>457.24</ele>
        <time>2016-12-11T10:55:17Z</time>
      </trkpt>
      <trkpt lat="43.11293" lon="-0.50936">
        <ele>455.8</ele>
        <time>2016-12-11T10:55:20Z</time>
      </trkpt>
      <trkpt lat="43.11295" lon="-0.50939">
        <ele>455.32</ele>
        <time>2016-12-11T10:55:21Z</time>
      </trkpt>
      <trkpt lat="43.11308" lon="-0.50961">
        <ele>453.4</ele>
        <time>2016-12-11T10:55:25Z</time>
      </trkpt>
      <trkpt lat="43.11306" lon="-0.50986">
        <ele>451.96</ele>
        <time>2016-12-11T10:55:29Z</time>
      </trkpt>
      <trkpt lat="43.11302" lon="-0.50999">
        <ele>451.48</ele>
        <time>2016-12-11T10:55:31Z</time>
      </trkpt>
      <trkpt lat="43.11298" lon="-0.5102">
        <ele>449.07</ele>
        <time>2016-12-11T10:55:35Z</time>
      </trkpt>
      <trkpt lat="43.11301" lon="-0.51027">
        <ele>448.11</ele>
        <time>2016-12-11T10:55:37Z</time>
      </trkpt>
      <trkpt lat="43.11319" lon="-0.51025">
        <ele>444.27</ele>
        <time>2016-12-11T10:55:42Z</time>
      </trkpt>
      <trkpt lat="43.11334" lon="-0.5102">
        <ele>439.94</ele>
        <time>2016-12-11T10:55:46Z</time>
      </trkpt>
      <trkpt lat="43.11341" lon="-0.51019">
        <ele>437.06</ele>
        <time>2016-12-11T10:55:50Z</time>
      </trkpt>
      <trkpt lat="43.11344" lon="-0.51019">
        <ele>436.58</ele>
        <time>2016-12-11T10:55:52Z</time>
      </trkpt>
      <trkpt lat="43.1135" lon="-0.5102">
        <ele>435.61</ele>
        <time>2016-12-11T10:55:55Z</time>
      </trkpt>
      <trkpt lat="43.11358" lon="-0.51025">
        <ele>433.21</ele>
        <time>2016-12-11T10:55:59Z</time>
      </trkpt>
      <trkpt lat="43.11371" lon="-0.51026">
        <ele>433.69</ele>
        <time>2016-12-11T10:56:05Z</time>
      </trkpt>
      <trkpt lat="43.11385" lon="-0.51019">
        <ele>430.33</ele>
        <time>2016-12-11T10:56:11Z</time>
      </trkpt>
      <trkpt lat="43.11396" lon="-0.51011">
        <ele>428.89</ele>
        <time>2016-12-11T10:56:17Z</time>
      </trkpt>
      <trkpt lat="43.11413" lon="-0.50998">
        <ele>427.92</ele>
        <time>2016-12-11T10:56:22Z</time>
      </trkpt>
      <trkpt lat="43.11423" lon="-0.50996">
        <ele>426</ele>
        <time>2016-12-11T10:56:24Z</time>
      </trkpt>
      <trkpt lat="43.11442" lon="-0.50984">
        <ele>421.19</ele>
        <time>2016-12-11T10:56:28Z</time>
      </trkpt>
      <trkpt lat="43.11449" lon="-0.50976">
        <ele>419.27</ele>
        <time>2016-12-11T10:56:30Z</time>
      </trkpt>
      <trkpt lat="43.11459" lon="-0.50959">
        <ele>413.5</ele>
        <time>2016-12-11T10:56:34Z</time>
      </trkpt>
      <trkpt lat="43.11468" lon="-0.50954">
        <ele>411.1</ele>
        <time>2016-12-11T10:56:37Z</time>
      </trkpt>
      <trkpt lat="43.11487" lon="-0.50953">
        <ele>409.18</ele>
        <time>2016-12-11T10:56:48Z</time>
      </trkpt>
      <trkpt lat="43.1149" lon="-0.50949">
        <ele>408.22</ele>
        <time>2016-12-11T10:56:53Z</time>
      </trkpt>
      <trkpt lat="43.11506" lon="-0.50932">
        <ele>403.89</ele>
        <time>2016-12-11T10:56:59Z</time>
      </trkpt>
      <trkpt lat="43.11518" lon="-0.50921">
        <ele>401.49</ele>
        <time>2016-12-11T10:57:02Z</time>
      </trkpt>
      <trkpt lat="43.11537" lon="-0.50919">
        <ele>400.05</ele>
        <time>2016-12-11T10:57:06Z</time>
      </trkpt>
      <trkpt lat="43.11561" lon="-0.50919">
        <ele>399.57</ele>
        <time>2016-12-11T10:57:10Z</time>
      </trkpt>
      <trkpt lat="43.11571" lon="-0.50921">
        <ele>399.08</ele>
        <time>2016-12-11T10:57:12Z</time>
      </trkpt>
      <trkpt lat="43.11587" lon="-0.50939">
        <ele>399.08</ele>
        <time>2016-12-11T10:57:17Z</time>
      </trkpt>
      <trkpt lat="43.11598" lon="-0.50943">
        <ele>396.68</ele>
        <time>2016-12-11T10:57:21Z</time>
      </trkpt>
      <trkpt lat="43.11602" lon="-0.50944">
        <ele>396.2</ele>
        <time>2016-12-11T10:57:23Z</time>
      </trkpt>
      <trkpt lat="43.11619" lon="-0.50937">
        <ele>394.28</ele>
        <time>2016-12-11T10:57:29Z</time>
      </trkpt>
      <trkpt lat="43.11639" lon="-0.50923">
        <ele>392.36</ele>
        <time>2016-12-11T10:57:33Z</time>
      </trkpt>
      <trkpt lat="43.11643" lon="-0.50921">
        <ele>392.36</ele>
        <time>2016-12-11T10:57:34Z</time>
      </trkpt>
      <trkpt lat="43.11652" lon="-0.50917">
        <ele>391.87</ele>
        <time>2016-12-11T10:57:36Z</time>
      </trkpt>
      <trkpt lat="43.11662" lon="-0.50911">
        <ele>390.91</ele>
        <time>2016-12-11T10:57:38Z</time>
      </trkpt>
      <trkpt lat="43.11688" lon="-0.50894">
        <ele>388.51</ele>
        <time>2016-12-11T10:57:42Z</time>
      </trkpt>
      <trkpt lat="43.11706" lon="-0.50881">
        <ele>387.55</ele>
        <time>2016-12-11T10:57:45Z</time>
      </trkpt>
      <trkpt lat="43.11718" lon="-0.5087">
        <ele>386.11</ele>
        <time>2016-12-11T10:57:47Z</time>
      </trkpt>
      <trkpt lat="43.11732" lon="-0.50864">
        <ele>385.63</ele>
        <time>2016-12-11T10:57:49Z</time>
      </trkpt>
      <trkpt lat="43.11756" lon="-0.50854">
        <ele>383.7</ele>
        <time>2016-12-11T10:57:52Z</time>
      </trkpt>
      <trkpt lat="43.11774" lon="-0.50848">
        <ele>382.74</ele>
        <time>2016-12-11T10:57:54Z</time>
      </trkpt>
      <trkpt lat="43.11798" lon="-0.50835">
        <ele>378.9</ele>
        <time>2016-12-11T10:57:57Z</time>
      </trkpt>
      <trkpt lat="43.11805" lon="-0.50831">
        <ele>378.42</ele>
        <time>2016-12-11T10:57:58Z</time>
      </trkpt>
      <trkpt lat="43.11823" lon="-0.50818">
        <ele>375.05</ele>
        <time>2016-12-11T10:58:01Z</time>
      </trkpt>
      <trkpt lat="43.11835" lon="-0.50812">
        <ele>373.13</ele>
        <time>2016-12-11T10:58:03Z</time>
      </trkpt>
      <trkpt lat="43.11847" lon="-0.50809">
        <ele>369.76</ele>
        <time>2016-12-11T10:58:05Z</time>
      </trkpt>
      <trkpt lat="43.11872" lon="-0.50797">
        <ele>364.48</ele>
        <time>2016-12-11T10:58:09Z</time>
      </trkpt>
      <trkpt lat="43.11891" lon="-0.50785">
        <ele>358.71</ele>
        <time>2016-12-11T10:58:13Z</time>
      </trkpt>
      <trkpt lat="43.11896" lon="-0.50782">
        <ele>357.75</ele>
        <time>2016-12-11T10:58:14Z</time>
      </trkpt>
      <trkpt lat="43.11907" lon="-0.5077">
        <ele>355.34</ele>
        <time>2016-12-11T10:58:17Z</time>
      </trkpt>
      <trkpt lat="43.11922" lon="-0.50754">
        <ele>353.42</ele>
        <time>2016-12-11T10:58:22Z</time>
      </trkpt>
      <trkpt lat="43.11948" lon="-0.50733">
        <ele>352.46</ele>
        <time>2016-12-11T10:58:31Z</time>
      </trkpt>
      <trkpt lat="43.11952" lon="-0.50727">
        <ele>352.46</ele>
        <time>2016-12-11T10:58:33Z</time>
      </trkpt>
      <trkpt lat="43.11958" lon="-0.5072">
        <ele>353.42</ele>
        <time>2016-12-11T10:58:35Z</time>
      </trkpt>
      <trkpt lat="43.11982" lon="-0.50693">
        <ele>353.42</ele>
        <time>2016-12-11T10:58:42Z</time>
      </trkpt>
      <trkpt lat="43.11997" lon="-0.50677">
        <ele>349.58</ele>
        <time>2016-12-11T10:58:45Z</time>
      </trkpt>
      <trkpt lat="43.12002" lon="-0.50671">
        <ele>348.13</ele>
        <time>2016-12-11T10:58:46Z</time>
      </trkpt>
      <trkpt lat="43.12009" lon="-0.50661">
        <ele>346.69</ele>
        <time>2016-12-11T10:58:49Z</time>
      </trkpt>
      <trkpt lat="43.12013" lon="-0.50651">
        <ele>346.69</ele>
        <time>2016-12-11T10:58:52Z</time>
      </trkpt>
      <trkpt lat="43.12034" lon="-0.50622">
        <ele>348.13</ele>
        <time>2016-12-11T10:59:01Z</time>
      </trkpt>
      <trkpt lat="43.12059" lon="-0.50592">
        <ele>346.69</ele>
        <time>2016-12-11T10:59:10Z</time>
      </trkpt>
      <trkpt lat="43.12078" lon="-0.50565">
        <ele>345.25</ele>
        <time>2016-12-11T10:59:15Z</time>
      </trkpt>
      <trkpt lat="43.12089" lon="-0.50553">
        <ele>343.81</ele>
        <time>2016-12-11T10:59:17Z</time>
      </trkpt>
      <trkpt lat="43.12118" lon="-0.50522">
        <ele>340.92</ele>
        <time>2016-12-11T10:59:22Z</time>
      </trkpt>
      <trkpt lat="43.12136" lon="-0.50509">
        <ele>339</ele>
        <time>2016-12-11T10:59:26Z</time>
      </trkpt>
      <trkpt lat="43.12167" lon="-0.5047">
        <ele>337.08</ele>
        <time>2016-12-11T10:59:34Z</time>
      </trkpt>
      <trkpt lat="43.12181" lon="-0.50435">
        <ele>333.71</ele>
        <time>2016-12-11T10:59:38Z</time>
      </trkpt>
      <trkpt lat="43.12186" lon="-0.50398">
        <ele>329.87</ele>
        <time>2016-12-11T10:59:41Z</time>
      </trkpt>
      <trkpt lat="43.12191" lon="-0.50367">
        <ele>326.02</ele>
        <time>2016-12-11T10:59:44Z</time>
      </trkpt>
      <trkpt lat="43.12194" lon="-0.5035">
        <ele>323.14</ele>
        <time>2016-12-11T10:59:46Z</time>
      </trkpt>
      <trkpt lat="43.12197" lon="-0.5033">
        <ele>319.3</ele>
        <time>2016-12-11T10:59:49Z</time>
      </trkpt>
      <trkpt lat="43.122" lon="-0.50317">
        <ele>317.85</ele>
        <time>2016-12-11T10:59:52Z</time>
      </trkpt>
      <trkpt lat="43.122" lon="-0.50314">
        <ele>317.85</ele>
        <time>2016-12-11T10:59:53Z</time>
      </trkpt>
      <trkpt lat="43.122" lon="-0.50313">
        <ele>317.85</ele>
        <time>2016-12-11T11:00:05Z</time>
      </trkpt>
      <trkpt lat="43.12204" lon="-0.50316">
        <ele>317.85</ele>
        <time>2016-12-11T11:00:28Z</time>
      </trkpt>
      <trkpt lat="43.12203" lon="-0.50317">
        <ele>317.85</ele>
        <time>2016-12-11T11:00:58Z</time>
      </trkpt>
      <trkpt lat="43.12195" lon="-0.50316">
        <ele>317.37</ele>
        <time>2016-12-11T11:01:21Z</time>
      </trkpt>
      <trkpt lat="43.12184" lon="-0.50313">
        <ele>317.37</ele>
        <time>2016-12-11T11:01:24Z</time>
      </trkpt>
      <trkpt lat="43.1218" lon="-0.50311">
        <ele>316.89</ele>
        <time>2016-12-11T11:01:25Z</time>
      </trkpt>
      <trkpt lat="43.12176" lon="-0.50308">
        <ele>316.89</ele>
        <time>2016-12-11T11:01:26Z</time>
      </trkpt>
      <trkpt lat="43.12168" lon="-0.503">
        <ele>316.41</ele>
        <time>2016-12-11T11:01:28Z</time>
      </trkpt>
      <trkpt lat="43.12164" lon="-0.50295">
        <ele>316.89</ele>
        <time>2016-12-11T11:01:29Z</time>
      </trkpt>
      <trkpt lat="43.12161" lon="-0.50289">
        <ele>316.41</ele>
        <time>2016-12-11T11:01:30Z</time>
      </trkpt>
      <trkpt lat="43.12159" lon="-0.50284">
        <ele>316.41</ele>
        <time>2016-12-11T11:01:31Z</time>
      </trkpt>
      <trkpt lat="43.12157" lon="-0.50279">
        <ele>316.41</ele>
        <time>2016-12-11T11:01:32Z</time>
      </trkpt>
      <trkpt lat="43.12155" lon="-0.50273">
        <ele>315.93</ele>
        <time>2016-12-11T11:01:33Z</time>
      </trkpt>
      <trkpt lat="43.12154" lon="-0.50267">
        <ele>316.41</ele>
        <time>2016-12-11T11:01:34Z</time>
      </trkpt>
      <trkpt lat="43.12148" lon="-0.50229">
        <ele>316.89</ele>
        <time>2016-12-11T11:01:40Z</time>
      </trkpt>
      <trkpt lat="43.12147" lon="-0.50223">
        <ele>316.89</ele>
        <time>2016-12-11T11:01:41Z</time>
      </trkpt>
      <trkpt lat="43.12143" lon="-0.50186">
        <ele>317.37</ele>
        <time>2016-12-11T11:01:47Z</time>
      </trkpt>
      <trkpt lat="43.12143" lon="-0.50179">
        <ele>317.37</ele>
        <time>2016-12-11T11:01:48Z</time>
      </trkpt>
      <trkpt lat="43.12147" lon="-0.50162">
        <ele>317.37</ele>
        <time>2016-12-11T11:01:51Z</time>
      </trkpt>
      <trkpt lat="43.12149" lon="-0.50157">
        <ele>317.37</ele>
        <time>2016-12-11T11:01:52Z</time>
      </trkpt>
      <trkpt lat="43.12152" lon="-0.50152">
        <ele>317.85</ele>
        <time>2016-12-11T11:01:53Z</time>
      </trkpt>
      <trkpt lat="43.12155" lon="-0.50147">
        <ele>317.37</ele>
        <time>2016-12-11T11:01:54Z</time>
      </trkpt>
      <trkpt lat="43.12158" lon="-0.50143">
        <ele>317.85</ele>
        <time>2016-12-11T11:01:55Z</time>
      </trkpt>
      <trkpt lat="43.12166" lon="-0.50136">
        <ele>317.85</ele>
        <time>2016-12-11T11:01:57Z</time>
      </trkpt>
      <trkpt lat="43.1217" lon="-0.50134">
        <ele>317.85</ele>
        <time>2016-12-11T11:01:58Z</time>
      </trkpt>
      <trkpt lat="43.12174" lon="-0.50132">
        <ele>317.85</ele>
        <time>2016-12-11T11:01:59Z</time>
      </trkpt>
      <trkpt lat="43.12201" lon="-0.50118">
        <ele>319.78</ele>
        <time>2016-12-11T11:02:06Z</time>
      </trkpt>
      <trkpt lat="43.12214" lon="-0.50105">
        <ele>320.26</ele>
        <time>2016-12-11T11:02:10Z</time>
      </trkpt>
      <trkpt lat="43.12217" lon="-0.50101">
        <ele>321.22</ele>
        <time>2016-12-11T11:02:11Z</time>
      </trkpt>
      <trkpt lat="43.1222" lon="-0.50097">
        <ele>320.74</ele>
        <time>2016-12-11T11:02:12Z</time>
      </trkpt>
      <trkpt lat="43.12247" lon="-0.50055">
        <ele>321.22</ele>
        <time>2016-12-11T11:02:22Z</time>
      </trkpt>
      <trkpt lat="43.12265" lon="-0.49992">
        <ele>321.22</ele>
        <time>2016-12-11T11:02:33Z</time>
      </trkpt>
      <trkpt lat="43.12265" lon="-0.49986">
        <ele>320.74</ele>
        <time>2016-12-11T11:02:34Z</time>
      </trkpt>
      <trkpt lat="43.12274" lon="-0.49922">
        <ele>319.78</ele>
        <time>2016-12-11T11:02:44Z</time>
      </trkpt>
      <trkpt lat="43.12274" lon="-0.49915">
        <ele>319.78</ele>
        <time>2016-12-11T11:02:45Z</time>
      </trkpt>
      <trkpt lat="43.12272" lon="-0.49908">
        <ele>319.78</ele>
        <time>2016-12-11T11:02:46Z</time>
      </trkpt>
      <trkpt lat="43.1227" lon="-0.49902">
        <ele>319.3</ele>
        <time>2016-12-11T11:02:47Z</time>
      </trkpt>
      <trkpt lat="43.12268" lon="-0.49897">
        <ele>319.3</ele>
        <time>2016-12-11T11:02:48Z</time>
      </trkpt>
      <trkpt lat="43.12264" lon="-0.49892">
        <ele>319.3</ele>
        <time>2016-12-11T11:02:49Z</time>
      </trkpt>
      <trkpt lat="43.1226" lon="-0.49888">
        <ele>319.3</ele>
        <time>2016-12-11T11:02:50Z</time>
      </trkpt>
      <trkpt lat="43.12256" lon="-0.49884">
        <ele>319.3</ele>
        <time>2016-12-11T11:02:51Z</time>
      </trkpt>
      <trkpt lat="43.12251" lon="-0.49882">
        <ele>319.3</ele>
        <time>2016-12-11T11:02:52Z</time>
      </trkpt>
      <trkpt lat="43.12246" lon="-0.4988">
        <ele>319.3</ele>
        <time>2016-12-11T11:02:53Z</time>
      </trkpt>
      <trkpt lat="43.1224" lon="-0.4988">
        <ele>318.81</ele>
        <time>2016-12-11T11:02:54Z</time>
      </trkpt>
      <trkpt lat="43.12235" lon="-0.4988">
        <ele>318.81</ele>
        <time>2016-12-11T11:02:55Z</time>
      </trkpt>
      <trkpt lat="43.1223" lon="-0.49881">
        <ele>318.81</ele>
        <time>2016-12-11T11:02:56Z</time>
      </trkpt>
      <trkpt lat="43.12209" lon="-0.49882">
        <ele>318.33</ele>
        <time>2016-12-11T11:03:00Z</time>
      </trkpt>
      <trkpt lat="43.12204" lon="-0.49882">
        <ele>317.85</ele>
        <time>2016-12-11T11:03:01Z</time>
      </trkpt>
      <trkpt lat="43.12199" lon="-0.4988">
        <ele>318.33</ele>
        <time>2016-12-11T11:03:02Z</time>
      </trkpt>
      <trkpt lat="43.12194" lon="-0.49877">
        <ele>317.85</ele>
        <time>2016-12-11T11:03:03Z</time>
      </trkpt>
      <trkpt lat="43.1219" lon="-0.49873">
        <ele>317.85</ele>
        <time>2016-12-11T11:03:04Z</time>
      </trkpt>
      <trkpt lat="43.12186" lon="-0.49869">
        <ele>317.37</ele>
        <time>2016-12-11T11:03:05Z</time>
      </trkpt>
      <trkpt lat="43.12183" lon="-0.49863">
        <ele>317.85</ele>
        <time>2016-12-11T11:03:06Z</time>
      </trkpt>
      <trkpt lat="43.12182" lon="-0.49857">
        <ele>317.37</ele>
        <time>2016-12-11T11:03:07Z</time>
      </trkpt>
      <trkpt lat="43.12181" lon="-0.49849">
        <ele>317.37</ele>
        <time>2016-12-11T11:03:08Z</time>
      </trkpt>
      <trkpt lat="43.12182" lon="-0.49842">
        <ele>317.37</ele>
        <time>2016-12-11T11:03:09Z</time>
      </trkpt>
      <trkpt lat="43.12183" lon="-0.49834">
        <ele>316.89</ele>
        <time>2016-12-11T11:03:10Z</time>
      </trkpt>
      <trkpt lat="43.12185" lon="-0.49828">
        <ele>317.37</ele>
        <time>2016-12-11T11:03:11Z</time>
      </trkpt>
      <trkpt lat="43.12187" lon="-0.49823">
        <ele>317.37</ele>
        <time>2016-12-11T11:03:12Z</time>
      </trkpt>
      <trkpt lat="43.12189" lon="-0.49818">
        <ele>317.37</ele>
        <time>2016-12-11T11:03:13Z</time>
      </trkpt>
      <trkpt lat="43.12192" lon="-0.49813">
        <ele>317.37</ele>
        <time>2016-12-11T11:03:14Z</time>
      </trkpt>
      <trkpt lat="43.12211" lon="-0.49782">
        <ele>318.33</ele>
        <time>2016-12-11T11:03:20Z</time>
      </trkpt>
      <trkpt lat="43.12214" lon="-0.49776">
        <ele>317.85</ele>
        <time>2016-12-11T11:03:21Z</time>
      </trkpt>
      <trkpt lat="43.12216" lon="-0.4977">
        <ele>318.33</ele>
        <time>2016-12-11T11:03:22Z</time>
      </trkpt>
      <trkpt lat="43.12218" lon="-0.49763">
        <ele>318.33</ele>
        <time>2016-12-11T11:03:23Z</time>
      </trkpt>
      <trkpt lat="43.12219" lon="-0.49757">
        <ele>319.3</ele>
        <time>2016-12-11T11:03:24Z</time>
      </trkpt>
      <trkpt lat="43.12221" lon="-0.49745">
        <ele>319.3</ele>
        <time>2016-12-11T11:03:26Z</time>
      </trkpt>
      <trkpt lat="43.12221" lon="-0.49726">
        <ele>319.78</ele>
        <time>2016-12-11T11:03:29Z</time>
      </trkpt>
      <trkpt lat="43.1222" lon="-0.4972">
        <ele>319.3</ele>
        <time>2016-12-11T11:03:30Z</time>
      </trkpt>
      <trkpt lat="43.12213" lon="-0.49695">
        <ele>320.26</ele>
        <time>2016-12-11T11:03:34Z</time>
      </trkpt>
      <trkpt lat="43.12211" lon="-0.49689">
        <ele>320.26</ele>
        <time>2016-12-11T11:03:35Z</time>
      </trkpt>
      <trkpt lat="43.12209" lon="-0.49684">
        <ele>320.26</ele>
        <time>2016-12-11T11:03:36Z</time>
      </trkpt>
      <trkpt lat="43.12207" lon="-0.49679">
        <ele>320.74</ele>
        <time>2016-12-11T11:03:37Z</time>
      </trkpt>
      <trkpt lat="43.12204" lon="-0.49674">
        <ele>320.74</ele>
        <time>2016-12-11T11:03:38Z</time>
      </trkpt>
      <trkpt lat="43.12202" lon="-0.4967">
        <ele>320.74</ele>
        <time>2016-12-11T11:03:39Z</time>
      </trkpt>
      <trkpt lat="43.12193" lon="-0.49658">
        <ele>321.7</ele>
        <time>2016-12-11T11:03:42Z</time>
      </trkpt>
      <trkpt lat="43.1219" lon="-0.49654">
        <ele>321.7</ele>
        <time>2016-12-11T11:03:43Z</time>
      </trkpt>
      <trkpt lat="43.1217" lon="-0.49633">
        <ele>322.18</ele>
        <time>2016-12-11T11:03:52Z</time>
      </trkpt>
      <trkpt lat="43.1217" lon="-0.49631">
        <ele>322.18</ele>
        <time>2016-12-11T11:03:53Z</time>
      </trkpt>
      <trkpt lat="43.1217" lon="-0.49629">
        <ele>321.7</ele>
        <time>2016-12-11T11:03:54Z</time>
      </trkpt>
      <trkpt lat="43.12172" lon="-0.49628">
        <ele>321.7</ele>
        <time>2016-12-11T11:04:03Z</time>
      </trkpt>
      <trkpt lat="43.12174" lon="-0.49627">
        <ele>321.22</ele>
        <time>2016-12-11T11:04:10Z</time>
      </trkpt>
      <trkpt lat="43.12176" lon="-0.49625">
        <ele>321.22</ele>
        <time>2016-12-11T11:04:12Z</time>
      </trkpt>
      <trkpt lat="43.12177" lon="-0.49622">
        <ele>319.78</ele>
        <time>2016-12-11T11:04:13Z</time>
      </trkpt>
      <trkpt lat="43.1218" lon="-0.49618">
        <ele>320.26</ele>
        <time>2016-12-11T11:04:14Z</time>
      </trkpt>
      <trkpt lat="43.12183" lon="-0.49614">
        <ele>319.3</ele>
        <time>2016-12-11T11:04:15Z</time>
      </trkpt>
      <trkpt lat="43.12187" lon="-0.4961">
        <ele>319.78</ele>
        <time>2016-12-11T11:04:16Z</time>
      </trkpt>
      <trkpt lat="43.1219" lon="-0.49605">
        <ele>318.33</ele>
        <time>2016-12-11T11:04:17Z</time>
      </trkpt>
      <trkpt lat="43.12193" lon="-0.496">
        <ele>316.89</ele>
        <time>2016-12-11T11:04:18Z</time>
      </trkpt>
      <trkpt lat="43.12195" lon="-0.49595">
        <ele>316.41</ele>
        <time>2016-12-11T11:04:19Z</time>
      </trkpt>
      <trkpt lat="43.12197" lon="-0.49591">
        <ele>315.45</ele>
        <time>2016-12-11T11:04:20Z</time>
      </trkpt>
      <trkpt lat="43.12198" lon="-0.49588">
        <ele>314.97</ele>
        <time>2016-12-11T11:04:21Z</time>
      </trkpt>
      <trkpt lat="43.12198" lon="-0.49585">
        <ele>314.97</ele>
        <time>2016-12-11T11:04:22Z</time>
      </trkpt>
      <trkpt lat="43.12198" lon="-0.49582">
        <ele>313.53</ele>
        <time>2016-12-11T11:04:23Z</time>
      </trkpt>
      <trkpt lat="43.122" lon="-0.49579">
        <ele>312.57</ele>
        <time>2016-12-11T11:04:25Z</time>
      </trkpt>
      <trkpt lat="43.12213" lon="-0.49583">
        <ele>310.16</ele>
        <time>2016-12-11T11:04:29Z</time>
      </trkpt>
      <trkpt lat="43.12235" lon="-0.49602">
        <ele>305.36</ele>
        <time>2016-12-11T11:04:33Z</time>
      </trkpt>
      <trkpt lat="43.12249" lon="-0.49613">
        <ele>304.39</ele>
        <time>2016-12-11T11:04:35Z</time>
      </trkpt>
      <trkpt lat="43.12255" lon="-0.49617">
        <ele>302.47</ele>
        <time>2016-12-11T11:04:36Z</time>
      </trkpt>
      <trkpt lat="43.1227" lon="-0.49626">
        <ele>299.11</ele>
        <time>2016-12-11T11:04:39Z</time>
      </trkpt>
      <trkpt lat="43.12278" lon="-0.4964">
        <ele>296.22</ele>
        <time>2016-12-11T11:04:43Z</time>
      </trkpt>
      <trkpt lat="43.12301" lon="-0.49614">
        <ele>296.22</ele>
        <time>2016-12-11T11:04:53Z</time>
      </trkpt>
      <trkpt lat="43.12307" lon="-0.49606">
        <ele>295.74</ele>
        <time>2016-12-11T11:04:56Z</time>
      </trkpt>
      <trkpt lat="43.12317" lon="-0.49611">
        <ele>296.7</ele>
        <time>2016-12-11T11:05:00Z</time>
      </trkpt>
      <trkpt lat="43.12331" lon="-0.49612">
        <ele>299.59</ele>
        <time>2016-12-11T11:05:08Z</time>
      </trkpt>
      <trkpt lat="43.12333" lon="-0.49612">
        <ele>299.59</ele>
        <time>2016-12-11T11:05:09Z</time>
      </trkpt>
      <trkpt lat="43.12344" lon="-0.49615">
        <ele>302.47</ele>
        <time>2016-12-11T11:05:18Z</time>
      </trkpt>
      <trkpt lat="43.12356" lon="-0.4962">
        <ele>304.88</ele>
        <time>2016-12-11T11:05:29Z</time>
      </trkpt>
      <trkpt lat="43.12362" lon="-0.49621">
        <ele>305.84</ele>
        <time>2016-12-11T11:05:35Z</time>
      </trkpt>
      <trkpt lat="43.12374" lon="-0.4963">
        <ele>306.32</ele>
        <time>2016-12-11T11:05:44Z</time>
      </trkpt>
      <trkpt lat="43.12378" lon="-0.49636">
        <ele>305.84</ele>
        <time>2016-12-11T11:05:48Z</time>
      </trkpt>
      <trkpt lat="43.12387" lon="-0.49644">
        <ele>305.84</ele>
        <time>2016-12-11T11:05:52Z</time>
      </trkpt>
      <trkpt lat="43.12393" lon="-0.49654">
        <ele>305.36</ele>
        <time>2016-12-11T11:05:56Z</time>
      </trkpt>
      <trkpt lat="43.12413" lon="-0.49691">
        <ele>305.36</ele>
        <time>2016-12-11T11:06:07Z</time>
      </trkpt>
      <trkpt lat="43.12433" lon="-0.49725">
        <ele>305.36</ele>
        <time>2016-12-11T11:06:16Z</time>
      </trkpt>
      <trkpt lat="43.12454" lon="-0.49762">
        <ele>304.39</ele>
        <time>2016-12-11T11:06:25Z</time>
      </trkpt>
      <trkpt lat="43.12458" lon="-0.49768">
        <ele>304.39</ele>
        <time>2016-12-11T11:06:27Z</time>
      </trkpt>
      <trkpt lat="43.12471" lon="-0.49779">
        <ele>303.43</ele>
        <time>2016-12-11T11:06:32Z</time>
      </trkpt>
      <trkpt lat="43.12479" lon="-0.49789">
        <ele>302.47</ele>
        <time>2016-12-11T11:06:35Z</time>
      </trkpt>
      <trkpt lat="43.12493" lon="-0.4981">
        <ele>301.51</ele>
        <time>2016-12-11T11:06:40Z</time>
      </trkpt>
      <trkpt lat="43.12486" lon="-0.49827">
        <ele>302.47</ele>
        <time>2016-12-11T11:06:47Z</time>
      </trkpt>
      <trkpt lat="43.12486" lon="-0.49839">
        <ele>303.43</ele>
        <time>2016-12-11T11:06:51Z</time>
      </trkpt>
      <trkpt lat="43.12489" lon="-0.49854">
        <ele>304.39</ele>
        <time>2016-12-11T11:06:56Z</time>
      </trkpt>
      <trkpt lat="43.12494" lon="-0.49863">
        <ele>305.36</ele>
        <time>2016-12-11T11:07:01Z</time>
      </trkpt>
      <trkpt lat="43.12509" lon="-0.49878">
        <ele>305.84</ele>
        <time>2016-12-11T11:07:13Z</time>
      </trkpt>
      <trkpt lat="43.12512" lon="-0.4988">
        <ele>306.32</ele>
        <time>2016-12-11T11:07:15Z</time>
      </trkpt>
      <trkpt lat="43.1252" lon="-0.49894">
        <ele>305.84</ele>
        <time>2016-12-11T11:07:19Z</time>
      </trkpt>
      <trkpt lat="43.1253" lon="-0.49914">
        <ele>306.8</ele>
        <time>2016-12-11T11:07:28Z</time>
      </trkpt>
      <trkpt lat="43.12533" lon="-0.49925">
        <ele>307.28</ele>
        <time>2016-12-11T11:07:31Z</time>
      </trkpt>
      <trkpt lat="43.12536" lon="-0.49942">
        <ele>308.24</ele>
        <time>2016-12-11T11:07:36Z</time>
      </trkpt>
      <trkpt lat="43.12546" lon="-0.49974">
        <ele>309.68</ele>
        <time>2016-12-11T11:07:47Z</time>
      </trkpt>
      <trkpt lat="43.12552" lon="-0.49988">
        <ele>310.64</ele>
        <time>2016-12-11T11:07:53Z</time>
      </trkpt>
      <trkpt lat="43.12558" lon="-0.49988">
        <ele>311.6</ele>
        <time>2016-12-11T11:07:58Z</time>
      </trkpt>
      <trkpt lat="43.12559" lon="-0.4998">
        <ele>312.57</ele>
        <time>2016-12-11T11:08:02Z</time>
      </trkpt>
      <trkpt lat="43.12558" lon="-0.49972">
        <ele>313.53</ele>
        <time>2016-12-11T11:08:06Z</time>
      </trkpt>
      <trkpt lat="43.1256" lon="-0.49953">
        <ele>314.97</ele>
        <time>2016-12-11T11:08:15Z</time>
      </trkpt>
      <trkpt lat="43.12562" lon="-0.49941">
        <ele>316.41</ele>
        <time>2016-12-11T11:08:21Z</time>
      </trkpt>
      <trkpt lat="43.12562" lon="-0.49936">
        <ele>317.37</ele>
        <time>2016-12-11T11:08:23Z</time>
      </trkpt>
      <trkpt lat="43.12563" lon="-0.49932">
        <ele>316.89</ele>
        <time>2016-12-11T11:08:25Z</time>
      </trkpt>
      <trkpt lat="43.12567" lon="-0.49922">
        <ele>317.85</ele>
        <time>2016-12-11T11:08:30Z</time>
      </trkpt>
      <trkpt lat="43.12573" lon="-0.49909">
        <ele>320.26</ele>
        <time>2016-12-11T11:08:36Z</time>
      </trkpt>
      <trkpt lat="43.12584" lon="-0.49903">
        <ele>321.22</ele>
        <time>2016-12-11T11:08:44Z</time>
      </trkpt>
      <trkpt lat="43.12588" lon="-0.49893">
        <ele>322.18</ele>
        <time>2016-12-11T11:08:49Z</time>
      </trkpt>
      <trkpt lat="43.12591" lon="-0.49899">
        <ele>324.1</ele>
        <time>2016-12-11T11:08:55Z</time>
      </trkpt>
      <trkpt lat="43.12593" lon="-0.49902">
        <ele>324.58</ele>
        <time>2016-12-11T11:08:57Z</time>
      </trkpt>
      <trkpt lat="43.12599" lon="-0.49919">
        <ele>325.54</ele>
        <time>2016-12-11T11:09:05Z</time>
      </trkpt>
      <trkpt lat="43.12611" lon="-0.49954">
        <ele>327.95</ele>
        <time>2016-12-11T11:09:18Z</time>
      </trkpt>
      <trkpt lat="43.12614" lon="-0.49968">
        <ele>328.43</ele>
        <time>2016-12-11T11:09:23Z</time>
      </trkpt>
      <trkpt lat="43.1263" lon="-0.50015">
        <ele>331.79</ele>
        <time>2016-12-11T11:09:39Z</time>
      </trkpt>
      <trkpt lat="43.12638" lon="-0.50051">
        <ele>334.2</ele>
        <time>2016-12-11T11:09:51Z</time>
      </trkpt>
      <trkpt lat="43.12645" lon="-0.50083">
        <ele>335.16</ele>
        <time>2016-12-11T11:10:01Z</time>
      </trkpt>
      <trkpt lat="43.12673" lon="-0.50104">
        <ele>336.6</ele>
        <time>2016-12-11T11:10:14Z</time>
      </trkpt>
      <trkpt lat="43.12706" lon="-0.50114">
        <ele>338.04</ele>
        <time>2016-12-11T11:10:26Z</time>
      </trkpt>
      <trkpt lat="43.12726" lon="-0.50114">
        <ele>341.41</ele>
        <time>2016-12-11T11:10:34Z</time>
      </trkpt>
      <trkpt lat="43.12737" lon="-0.50081">
        <ele>343.33</ele>
        <time>2016-12-11T11:10:46Z</time>
      </trkpt>
      <trkpt lat="43.12739" lon="-0.50043">
        <ele>345.25</ele>
        <time>2016-12-11T11:10:57Z</time>
      </trkpt>
      <trkpt lat="43.12758" lon="-0.50002">
        <ele>346.69</ele>
        <time>2016-12-11T11:11:11Z</time>
      </trkpt>
      <trkpt lat="43.12775" lon="-0.49958">
        <ele>350.06</ele>
        <time>2016-12-11T11:11:23Z</time>
      </trkpt>
      <trkpt lat="43.12784" lon="-0.49907">
        <ele>351.02</ele>
        <time>2016-12-11T11:11:34Z</time>
      </trkpt>
      <trkpt lat="43.12794" lon="-0.4985">
        <ele>351.5</ele>
        <time>2016-12-11T11:11:45Z</time>
      </trkpt>
      <trkpt lat="43.12803" lon="-0.49807">
        <ele>352.46</ele>
        <time>2016-12-11T11:11:53Z</time>
      </trkpt>
      <trkpt lat="43.12804" lon="-0.49801">
        <ele>352.46</ele>
        <time>2016-12-11T11:11:54Z</time>
      </trkpt>
      <trkpt lat="43.12812" lon="-0.49761">
        <ele>352.46</ele>
        <time>2016-12-11T11:12:01Z</time>
      </trkpt>
      <trkpt lat="43.12813" lon="-0.49755">
        <ele>352.46</ele>
        <time>2016-12-11T11:12:02Z</time>
      </trkpt>
      <trkpt lat="43.12826" lon="-0.49689">
        <ele>351.98</ele>
        <time>2016-12-11T11:12:13Z</time>
      </trkpt>
      <trkpt lat="43.12827" lon="-0.49683">
        <ele>351.98</ele>
        <time>2016-12-11T11:12:14Z</time>
      </trkpt>
      <trkpt lat="43.12835" lon="-0.49634">
        <ele>352.46</ele>
        <time>2016-12-11T11:12:22Z</time>
      </trkpt>
      <trkpt lat="43.12835" lon="-0.49628">
        <ele>352.94</ele>
        <time>2016-12-11T11:12:23Z</time>
      </trkpt>
      <trkpt lat="43.12834" lon="-0.49616">
        <ele>353.42</ele>
        <time>2016-12-11T11:12:25Z</time>
      </trkpt>
      <trkpt lat="43.12833" lon="-0.49611">
        <ele>353.42</ele>
        <time>2016-12-11T11:12:26Z</time>
      </trkpt>
      <trkpt lat="43.12832" lon="-0.49605">
        <ele>353.42</ele>
        <time>2016-12-11T11:12:27Z</time>
      </trkpt>
      <trkpt lat="43.12831" lon="-0.49599">
        <ele>353.42</ele>
        <time>2016-12-11T11:12:28Z</time>
      </trkpt>
      <trkpt lat="43.12831" lon="-0.49593">
        <ele>353.42</ele>
        <time>2016-12-11T11:12:29Z</time>
      </trkpt>
      <trkpt lat="43.1283" lon="-0.49588">
        <ele>353.9</ele>
        <time>2016-12-11T11:12:30Z</time>
      </trkpt>
      <trkpt lat="43.1283" lon="-0.49582">
        <ele>353.9</ele>
        <time>2016-12-11T11:12:31Z</time>
      </trkpt>
      <trkpt lat="43.1283" lon="-0.49576">
        <ele>353.9</ele>
        <time>2016-12-11T11:12:32Z</time>
      </trkpt>
      <trkpt lat="43.12832" lon="-0.49559">
        <ele>354.38</ele>
        <time>2016-12-11T11:12:35Z</time>
      </trkpt>
      <trkpt lat="43.12833" lon="-0.49553">
        <ele>354.38</ele>
        <time>2016-12-11T11:12:36Z</time>
      </trkpt>
      <trkpt lat="43.12835" lon="-0.49548">
        <ele>353.9</ele>
        <time>2016-12-11T11:12:37Z</time>
      </trkpt>
      <trkpt lat="43.12856" lon="-0.49463">
        <ele>355.83</ele>
        <time>2016-12-11T11:12:52Z</time>
      </trkpt>
      <trkpt lat="43.12859" lon="-0.49433">
        <ele>357.27</ele>
        <time>2016-12-11T11:12:57Z</time>
      </trkpt>
      <trkpt lat="43.12858" lon="-0.49359">
        <ele>360.15</ele>
        <time>2016-12-11T11:13:11Z</time>
      </trkpt>
      <trkpt lat="43.12856" lon="-0.49303">
        <ele>362.55</ele>
        <time>2016-12-11T11:13:23Z</time>
      </trkpt>
      <trkpt lat="43.12846" lon="-0.49262">
        <ele>364.48</ele>
        <time>2016-12-11T11:13:35Z</time>
      </trkpt>
      <trkpt lat="43.12842" lon="-0.49249">
        <ele>364.96</ele>
        <time>2016-12-11T11:13:42Z</time>
      </trkpt>
      <trkpt lat="43.12842" lon="-0.49248">
        <ele>364.96</ele>
        <time>2016-12-11T11:13:43Z</time>
      </trkpt>
      <trkpt lat="43.12843" lon="-0.49246">
        <ele>365.44</ele>
        <time>2016-12-11T11:13:44Z</time>
      </trkpt>
      <trkpt lat="43.12844" lon="-0.49246">
        <ele>365.44</ele>
        <time>2016-12-11T11:13:45Z</time>
      </trkpt>
      <trkpt lat="43.12847" lon="-0.49248">
        <ele>365.44</ele>
        <time>2016-12-11T11:13:57Z</time>
      </trkpt>
      <trkpt lat="43.12848" lon="-0.49248">
        <ele>364.48</ele>
        <time>2016-12-11T11:14:23Z</time>
      </trkpt>
      <trkpt lat="43.12848" lon="-0.49248">
        <ele>364.96</ele>
        <time>2016-12-11T11:14:45Z</time>
      </trkpt>
      <trkpt lat="43.12862" lon="-0.49243">
        <ele>366.88</ele>
        <time>2016-12-11T11:14:59Z</time>
      </trkpt>
      <trkpt lat="43.12892" lon="-0.49232">
        <ele>367.84</ele>
        <time>2016-12-11T11:15:07Z</time>
      </trkpt>
      <trkpt lat="43.1297" lon="-0.49207">
        <ele>366.88</ele>
        <time>2016-12-11T11:15:23Z</time>
      </trkpt>
      <trkpt lat="43.12993" lon="-0.492">
        <ele>366.88</ele>
        <time>2016-12-11T11:15:27Z</time>
      </trkpt>
      <trkpt lat="43.12998" lon="-0.49199">
        <ele>366.4</ele>
        <time>2016-12-11T11:15:28Z</time>
      </trkpt>
      <trkpt lat="43.13016" lon="-0.49201">
        <ele>365.92</ele>
        <time>2016-12-11T11:15:31Z</time>
      </trkpt>
      <trkpt lat="43.1304" lon="-0.49205">
        <ele>364.48</ele>
        <time>2016-12-11T11:15:35Z</time>
      </trkpt>
      <trkpt lat="43.13061" lon="-0.49205">
        <ele>363.04</ele>
        <time>2016-12-11T11:15:38Z</time>
      </trkpt>
      <trkpt lat="43.13085" lon="-0.49205">
        <ele>359.67</ele>
        <time>2016-12-11T11:15:41Z</time>
      </trkpt>
      <trkpt lat="43.13101" lon="-0.49205">
        <ele>358.23</ele>
        <time>2016-12-11T11:15:43Z</time>
      </trkpt>
      <trkpt lat="43.1311" lon="-0.49204">
        <ele>357.27</ele>
        <time>2016-12-11T11:15:44Z</time>
      </trkpt>
      <trkpt lat="43.13119" lon="-0.49202">
        <ele>356.79</ele>
        <time>2016-12-11T11:15:45Z</time>
      </trkpt>
      <trkpt lat="43.13127" lon="-0.49199">
        <ele>357.75</ele>
        <time>2016-12-11T11:15:46Z</time>
      </trkpt>
      <trkpt lat="43.13136" lon="-0.49196">
        <ele>355.83</ele>
        <time>2016-12-11T11:15:47Z</time>
      </trkpt>
      <trkpt lat="43.13144" lon="-0.49193">
        <ele>355.34</ele>
        <time>2016-12-11T11:15:48Z</time>
      </trkpt>
      <trkpt lat="43.13151" lon="-0.49194">
        <ele>355.34</ele>
        <time>2016-12-11T11:15:49Z</time>
      </trkpt>
      <trkpt lat="43.13157" lon="-0.49197">
        <ele>352.94</ele>
        <time>2016-12-11T11:15:50Z</time>
      </trkpt>
      <trkpt lat="43.13162" lon="-0.49202">
        <ele>352.46</ele>
        <time>2016-12-11T11:15:51Z</time>
      </trkpt>
      <trkpt lat="43.13166" lon="-0.49206">
        <ele>352.46</ele>
        <time>2016-12-11T11:15:52Z</time>
      </trkpt>
      <trkpt lat="43.13169" lon="-0.4921">
        <ele>351.5</ele>
        <time>2016-12-11T11:15:53Z</time>
      </trkpt>
      <trkpt lat="43.13172" lon="-0.49215">
        <ele>352.46</ele>
        <time>2016-12-11T11:15:54Z</time>
      </trkpt>
      <trkpt lat="43.13174" lon="-0.49219">
        <ele>351.98</ele>
        <time>2016-12-11T11:15:55Z</time>
      </trkpt>
      <trkpt lat="43.13185" lon="-0.49245">
        <ele>351.02</ele>
        <time>2016-12-11T11:16:00Z</time>
      </trkpt>
      <trkpt lat="43.13189" lon="-0.49256">
        <ele>350.54</ele>
        <time>2016-12-11T11:16:02Z</time>
      </trkpt>
      <trkpt lat="43.13192" lon="-0.49262">
        <ele>350.54</ele>
        <time>2016-12-11T11:16:03Z</time>
      </trkpt>
      <trkpt lat="43.13194" lon="-0.49268">
        <ele>350.06</ele>
        <time>2016-12-11T11:16:04Z</time>
      </trkpt>
      <trkpt lat="43.13197" lon="-0.49276">
        <ele>349.1</ele>
        <time>2016-12-11T11:16:05Z</time>
      </trkpt>
      <trkpt lat="43.132" lon="-0.49283">
        <ele>348.13</ele>
        <time>2016-12-11T11:16:06Z</time>
      </trkpt>
      <trkpt lat="43.13203" lon="-0.49289">
        <ele>348.62</ele>
        <time>2016-12-11T11:16:07Z</time>
      </trkpt>
      <trkpt lat="43.13205" lon="-0.49293">
        <ele>350.06</ele>
        <time>2016-12-11T11:16:08Z</time>
      </trkpt>
      <trkpt lat="43.13209" lon="-0.493">
        <ele>350.54</ele>
        <time>2016-12-11T11:16:10Z</time>
      </trkpt>
      <trkpt lat="43.13221" lon="-0.49325">
        <ele>351.5</ele>
        <time>2016-12-11T11:16:16Z</time>
      </trkpt>
      <trkpt lat="43.13229" lon="-0.4934">
        <ele>351.5</ele>
        <time>2016-12-11T11:16:19Z</time>
      </trkpt>
      <trkpt lat="43.13236" lon="-0.49363">
        <ele>351.5</ele>
        <time>2016-12-11T11:16:23Z</time>
      </trkpt>
      <trkpt lat="43.13239" lon="-0.49382">
        <ele>351.5</ele>
        <time>2016-12-11T11:16:26Z</time>
      </trkpt>
      <trkpt lat="43.1324" lon="-0.49387">
        <ele>351.02</ele>
        <time>2016-12-11T11:16:27Z</time>
      </trkpt>
      <trkpt lat="43.13241" lon="-0.49393">
        <ele>351.02</ele>
        <time>2016-12-11T11:16:28Z</time>
      </trkpt>
      <trkpt lat="43.13251" lon="-0.49426">
        <ele>351.02</ele>
        <time>2016-12-11T11:16:35Z</time>
      </trkpt>
      <trkpt lat="43.13259" lon="-0.49439">
        <ele>350.54</ele>
        <time>2016-12-11T11:16:38Z</time>
      </trkpt>
      <trkpt lat="43.13262" lon="-0.49443">
        <ele>350.54</ele>
        <time>2016-12-11T11:16:39Z</time>
      </trkpt>
      <trkpt lat="43.13266" lon="-0.49445">
        <ele>350.06</ele>
        <time>2016-12-11T11:16:40Z</time>
      </trkpt>
      <trkpt lat="43.1327" lon="-0.49448">
        <ele>350.54</ele>
        <time>2016-12-11T11:16:41Z</time>
      </trkpt>
      <trkpt lat="43.13274" lon="-0.49451">
        <ele>350.54</ele>
        <time>2016-12-11T11:16:42Z</time>
      </trkpt>
      <trkpt lat="43.13278" lon="-0.49454">
        <ele>350.06</ele>
        <time>2016-12-11T11:16:43Z</time>
      </trkpt>
      <trkpt lat="43.13281" lon="-0.49459">
        <ele>350.06</ele>
        <time>2016-12-11T11:16:44Z</time>
      </trkpt>
      <trkpt lat="43.13284" lon="-0.49464">
        <ele>350.06</ele>
        <time>2016-12-11T11:16:45Z</time>
      </trkpt>
      <trkpt lat="43.13295" lon="-0.49484">
        <ele>350.06</ele>
        <time>2016-12-11T11:16:49Z</time>
      </trkpt>
      <trkpt lat="43.13309" lon="-0.49515">
        <ele>350.54</ele>
        <time>2016-12-11T11:16:55Z</time>
      </trkpt>
      <trkpt lat="43.1331" lon="-0.4952">
        <ele>350.54</ele>
        <time>2016-12-11T11:16:56Z</time>
      </trkpt>
      <trkpt lat="43.13311" lon="-0.49526">
        <ele>350.06</ele>
        <time>2016-12-11T11:16:57Z</time>
      </trkpt>
      <trkpt lat="43.13311" lon="-0.49533">
        <ele>350.06</ele>
        <time>2016-12-11T11:16:58Z</time>
      </trkpt>
      <trkpt lat="43.13311" lon="-0.49539">
        <ele>349.58</ele>
        <time>2016-12-11T11:16:59Z</time>
      </trkpt>
      <trkpt lat="43.13312" lon="-0.4956">
        <ele>349.1</ele>
        <time>2016-12-11T11:17:02Z</time>
      </trkpt>
      <trkpt lat="43.13313" lon="-0.49574">
        <ele>348.62</ele>
        <time>2016-12-11T11:17:04Z</time>
      </trkpt>
      <trkpt lat="43.13313" lon="-0.4958">
        <ele>348.13</ele>
        <time>2016-12-11T11:17:05Z</time>
      </trkpt>
      <trkpt lat="43.13312" lon="-0.49586">
        <ele>346.69</ele>
        <time>2016-12-11T11:17:06Z</time>
      </trkpt>
      <trkpt lat="43.13313" lon="-0.49591">
        <ele>346.69</ele>
        <time>2016-12-11T11:17:07Z</time>
      </trkpt>
      <trkpt lat="43.13315" lon="-0.49596">
        <ele>346.21</ele>
        <time>2016-12-11T11:17:08Z</time>
      </trkpt>
      <trkpt lat="43.13319" lon="-0.496">
        <ele>346.69</ele>
        <time>2016-12-11T11:17:09Z</time>
      </trkpt>
      <trkpt lat="43.13322" lon="-0.49604">
        <ele>346.21</ele>
        <time>2016-12-11T11:17:10Z</time>
      </trkpt>
      <trkpt lat="43.13326" lon="-0.4961">
        <ele>346.69</ele>
        <time>2016-12-11T11:17:11Z</time>
      </trkpt>
      <trkpt lat="43.13329" lon="-0.49615">
        <ele>346.21</ele>
        <time>2016-12-11T11:17:12Z</time>
      </trkpt>
      <trkpt lat="43.13356" lon="-0.49655">
        <ele>346.69</ele>
        <time>2016-12-11T11:17:21Z</time>
      </trkpt>
      <trkpt lat="43.13359" lon="-0.49659">
        <ele>347.17</ele>
        <time>2016-12-11T11:17:22Z</time>
      </trkpt>
      <trkpt lat="43.13373" lon="-0.49678">
        <ele>347.65</ele>
        <time>2016-12-11T11:17:27Z</time>
      </trkpt>
      <trkpt lat="43.13376" lon="-0.49682">
        <ele>347.17</ele>
        <time>2016-12-11T11:17:28Z</time>
      </trkpt>
      <trkpt lat="43.13378" lon="-0.49685">
        <ele>347.65</ele>
        <time>2016-12-11T11:17:29Z</time>
      </trkpt>
      <trkpt lat="43.13381" lon="-0.49689">
        <ele>347.65</ele>
        <time>2016-12-11T11:17:30Z</time>
      </trkpt>
      <trkpt lat="43.13384" lon="-0.49692">
        <ele>348.13</ele>
        <time>2016-12-11T11:17:31Z</time>
      </trkpt>
      <trkpt lat="43.134" lon="-0.49708">
        <ele>347.65</ele>
        <time>2016-12-11T11:17:36Z</time>
      </trkpt>
      <trkpt lat="43.13403" lon="-0.49713">
        <ele>347.65</ele>
        <time>2016-12-11T11:17:37Z</time>
      </trkpt>
      <trkpt lat="43.13407" lon="-0.49718">
        <ele>347.65</ele>
        <time>2016-12-11T11:17:38Z</time>
      </trkpt>
      <trkpt lat="43.1341" lon="-0.49722">
        <ele>347.65</ele>
        <time>2016-12-11T11:17:39Z</time>
      </trkpt>
      <trkpt lat="43.13413" lon="-0.49727">
        <ele>347.17</ele>
        <time>2016-12-11T11:17:40Z</time>
      </trkpt>
      <trkpt lat="43.13415" lon="-0.49732">
        <ele>346.69</ele>
        <time>2016-12-11T11:17:41Z</time>
      </trkpt>
      <trkpt lat="43.13418" lon="-0.49738">
        <ele>346.69</ele>
        <time>2016-12-11T11:17:42Z</time>
      </trkpt>
      <trkpt lat="43.13422" lon="-0.49743">
        <ele>346.21</ele>
        <time>2016-12-11T11:17:43Z</time>
      </trkpt>
      <trkpt lat="43.13427" lon="-0.49748">
        <ele>345.73</ele>
        <time>2016-12-11T11:17:44Z</time>
      </trkpt>
      <trkpt lat="43.13432" lon="-0.49752">
        <ele>345.73</ele>
        <time>2016-12-11T11:17:45Z</time>
      </trkpt>
      <trkpt lat="43.13437" lon="-0.49757">
        <ele>345.25</ele>
        <time>2016-12-11T11:17:46Z</time>
      </trkpt>
      <trkpt lat="43.13442" lon="-0.4976">
        <ele>345.25</ele>
        <time>2016-12-11T11:17:47Z</time>
      </trkpt>
      <trkpt lat="43.13447" lon="-0.49764">
        <ele>344.77</ele>
        <time>2016-12-11T11:17:48Z</time>
      </trkpt>
      <trkpt lat="43.13451" lon="-0.49767">
        <ele>344.29</ele>
        <time>2016-12-11T11:17:49Z</time>
      </trkpt>
      <trkpt lat="43.13455" lon="-0.49769">
        <ele>344.29</ele>
        <time>2016-12-11T11:17:50Z</time>
      </trkpt>
      <trkpt lat="43.13459" lon="-0.49771">
        <ele>344.77</ele>
        <time>2016-12-11T11:17:51Z</time>
      </trkpt>
      <trkpt lat="43.13461" lon="-0.49773">
        <ele>345.25</ele>
        <time>2016-12-11T11:17:52Z</time>
      </trkpt>
      <trkpt lat="43.13464" lon="-0.49774">
        <ele>344.29</ele>
        <time>2016-12-11T11:17:53Z</time>
      </trkpt>
      <trkpt lat="43.13467" lon="-0.49775">
        <ele>345.25</ele>
        <time>2016-12-11T11:17:54Z</time>
      </trkpt>
      <trkpt lat="43.13469" lon="-0.49775">
        <ele>344.77</ele>
        <time>2016-12-11T11:17:55Z</time>
      </trkpt>
      <trkpt lat="43.13471" lon="-0.49775">
        <ele>344.77</ele>
        <time>2016-12-11T11:17:56Z</time>
      </trkpt>
      <trkpt lat="43.13473" lon="-0.49775">
        <ele>344.77</ele>
        <time>2016-12-11T11:17:57Z</time>
      </trkpt>
      <trkpt lat="43.13474" lon="-0.49775">
        <ele>344.77</ele>
        <time>2016-12-11T11:17:58Z</time>
      </trkpt>
      <trkpt lat="43.13482" lon="-0.49777">
        <ele>344.77</ele>
        <time>2016-12-11T11:18:08Z</time>
      </trkpt>
      <trkpt lat="43.13485" lon="-0.49777">
        <ele>344.77</ele>
        <time>2016-12-11T11:18:18Z</time>
      </trkpt>
      <trkpt lat="43.13489" lon="-0.49776">
        <ele>344.29</ele>
        <time>2016-12-11T11:18:26Z</time>
      </trkpt>
      <trkpt lat="43.13517" lon="-0.49783">
        <ele>344.29</ele>
        <time>2016-12-11T11:18:33Z</time>
      </trkpt>
      <trkpt lat="43.13522" lon="-0.49786">
        <ele>344.77</ele>
        <time>2016-12-11T11:18:34Z</time>
      </trkpt>
      <trkpt lat="43.13572" lon="-0.49812">
        <ele>341.41</ele>
        <time>2016-12-11T11:18:42Z</time>
      </trkpt>
      <trkpt lat="43.1358" lon="-0.49814">
        <ele>340.44</ele>
        <time>2016-12-11T11:18:43Z</time>
      </trkpt>
      <trkpt lat="43.13587" lon="-0.49815">
        <ele>340.44</ele>
        <time>2016-12-11T11:18:44Z</time>
      </trkpt>
      <trkpt lat="43.13594" lon="-0.49815">
        <ele>339.48</ele>
        <time>2016-12-11T11:18:45Z</time>
      </trkpt>
      <trkpt lat="43.13602" lon="-0.49813">
        <ele>339.48</ele>
        <time>2016-12-11T11:18:46Z</time>
      </trkpt>
      <trkpt lat="43.13622" lon="-0.49808">
        <ele>338.52</ele>
        <time>2016-12-11T11:18:49Z</time>
      </trkpt>
      <trkpt lat="43.13629" lon="-0.49805">
        <ele>338.52</ele>
        <time>2016-12-11T11:18:50Z</time>
      </trkpt>
      <trkpt lat="43.13636" lon="-0.498">
        <ele>337.56</ele>
        <time>2016-12-11T11:18:51Z</time>
      </trkpt>
      <trkpt lat="43.13659" lon="-0.49787">
        <ele>337.08</ele>
        <time>2016-12-11T11:18:54Z</time>
      </trkpt>
      <trkpt lat="43.13667" lon="-0.49784">
        <ele>336.12</ele>
        <time>2016-12-11T11:18:55Z</time>
      </trkpt>
      <trkpt lat="43.13675" lon="-0.49784">
        <ele>335.64</ele>
        <time>2016-12-11T11:18:56Z</time>
      </trkpt>
      <trkpt lat="43.13683" lon="-0.49784">
        <ele>335.64</ele>
        <time>2016-12-11T11:18:57Z</time>
      </trkpt>
      <trkpt lat="43.1369" lon="-0.49785">
        <ele>336.12</ele>
        <time>2016-12-11T11:18:58Z</time>
      </trkpt>
      <trkpt lat="43.13698" lon="-0.49787">
        <ele>335.16</ele>
        <time>2016-12-11T11:18:59Z</time>
      </trkpt>
      <trkpt lat="43.13705" lon="-0.49789">
        <ele>335.16</ele>
        <time>2016-12-11T11:19:00Z</time>
      </trkpt>
      <trkpt lat="43.13742" lon="-0.49804">
        <ele>333.71</ele>
        <time>2016-12-11T11:19:05Z</time>
      </trkpt>
      <trkpt lat="43.1375" lon="-0.49805">
        <ele>333.23</ele>
        <time>2016-12-11T11:19:06Z</time>
      </trkpt>
      <trkpt lat="43.13757" lon="-0.49805">
        <ele>332.27</ele>
        <time>2016-12-11T11:19:07Z</time>
      </trkpt>
      <trkpt lat="43.13764" lon="-0.49805">
        <ele>331.79</ele>
        <time>2016-12-11T11:19:08Z</time>
      </trkpt>
      <trkpt lat="43.13771" lon="-0.49804">
        <ele>330.35</ele>
        <time>2016-12-11T11:19:09Z</time>
      </trkpt>
      <trkpt lat="43.13775" lon="-0.49802">
        <ele>329.87</ele>
        <time>2016-12-11T11:19:10Z</time>
      </trkpt>
      <trkpt lat="43.13779" lon="-0.49801">
        <ele>329.87</ele>
        <time>2016-12-11T11:19:11Z</time>
      </trkpt>
      <trkpt lat="43.13783" lon="-0.49802">
        <ele>329.39</ele>
        <time>2016-12-11T11:19:12Z</time>
      </trkpt>
      <trkpt lat="43.13786" lon="-0.49803">
        <ele>329.87</ele>
        <time>2016-12-11T11:19:13Z</time>
      </trkpt>
      <trkpt lat="43.13792" lon="-0.49802">
        <ele>330.35</ele>
        <time>2016-12-11T11:19:17Z</time>
      </trkpt>
      <trkpt lat="43.13794" lon="-0.498">
        <ele>329.87</ele>
        <time>2016-12-11T11:19:18Z</time>
      </trkpt>
      <trkpt lat="43.13796" lon="-0.49798">
        <ele>329.39</ele>
        <time>2016-12-11T11:19:19Z</time>
      </trkpt>
      <trkpt lat="43.13798" lon="-0.49797">
        <ele>329.87</ele>
        <time>2016-12-11T11:19:20Z</time>
      </trkpt>
      <trkpt lat="43.138" lon="-0.49796">
        <ele>329.39</ele>
        <time>2016-12-11T11:19:21Z</time>
      </trkpt>
      <trkpt lat="43.13803" lon="-0.49796">
        <ele>329.87</ele>
        <time>2016-12-11T11:19:22Z</time>
      </trkpt>
      <trkpt lat="43.13835" lon="-0.49791">
        <ele>329.87</ele>
        <time>2016-12-11T11:19:31Z</time>
      </trkpt>
      <trkpt lat="43.13835" lon="-0.49789">
        <ele>329.39</ele>
        <time>2016-12-11T11:19:32Z</time>
      </trkpt>
      <trkpt lat="43.13834" lon="-0.49786">
        <ele>329.39</ele>
        <time>2016-12-11T11:19:33Z</time>
      </trkpt>
      <trkpt lat="43.13822" lon="-0.49769">
        <ele>330.35</ele>
        <time>2016-12-11T11:19:38Z</time>
      </trkpt>
      <trkpt lat="43.13819" lon="-0.49764">
        <ele>330.35</ele>
        <time>2016-12-11T11:19:39Z</time>
      </trkpt>
      <trkpt lat="43.13794" lon="-0.49698">
        <ele>331.31</ele>
        <time>2016-12-11T11:19:50Z</time>
      </trkpt>
      <trkpt lat="43.13794" lon="-0.4969">
        <ele>330.83</ele>
        <time>2016-12-11T11:19:51Z</time>
      </trkpt>
      <trkpt lat="43.13794" lon="-0.49682">
        <ele>331.31</ele>
        <time>2016-12-11T11:19:52Z</time>
      </trkpt>
      <trkpt lat="43.13795" lon="-0.49674">
        <ele>331.31</ele>
        <time>2016-12-11T11:19:53Z</time>
      </trkpt>
      <trkpt lat="43.13796" lon="-0.49666">
        <ele>331.31</ele>
        <time>2016-12-11T11:19:54Z</time>
      </trkpt>
      <trkpt lat="43.13797" lon="-0.49658">
        <ele>331.31</ele>
        <time>2016-12-11T11:19:55Z</time>
      </trkpt>
      <trkpt lat="43.13797" lon="-0.49649">
        <ele>331.79</ele>
        <time>2016-12-11T11:19:56Z</time>
      </trkpt>
      <trkpt lat="43.13796" lon="-0.4964">
        <ele>331.31</ele>
        <time>2016-12-11T11:19:57Z</time>
      </trkpt>
      <trkpt lat="43.13793" lon="-0.49588">
        <ele>331.79</ele>
        <time>2016-12-11T11:20:03Z</time>
      </trkpt>
      <trkpt lat="43.13794" lon="-0.49579">
        <ele>331.79</ele>
        <time>2016-12-11T11:20:04Z</time>
      </trkpt>
      <trkpt lat="43.13795" lon="-0.49571">
        <ele>331.31</ele>
        <time>2016-12-11T11:20:05Z</time>
      </trkpt>
      <trkpt lat="43.13796" lon="-0.49562">
        <ele>331.79</ele>
        <time>2016-12-11T11:20:06Z</time>
      </trkpt>
      <trkpt lat="43.13795" lon="-0.49554">
        <ele>331.31</ele>
        <time>2016-12-11T11:20:07Z</time>
      </trkpt>
      <trkpt lat="43.13794" lon="-0.49546">
        <ele>331.31</ele>
        <time>2016-12-11T11:20:08Z</time>
      </trkpt>
      <trkpt lat="43.13792" lon="-0.49538">
        <ele>331.79</ele>
        <time>2016-12-11T11:20:09Z</time>
      </trkpt>
      <trkpt lat="43.13787" lon="-0.49514">
        <ele>331.79</ele>
        <time>2016-12-11T11:20:12Z</time>
      </trkpt>
      <trkpt lat="43.13786" lon="-0.49506">
        <ele>332.27</ele>
        <time>2016-12-11T11:20:13Z</time>
      </trkpt>
      <trkpt lat="43.13785" lon="-0.49498">
        <ele>331.31</ele>
        <time>2016-12-11T11:20:14Z</time>
      </trkpt>
      <trkpt lat="43.13781" lon="-0.49468">
        <ele>332.27</ele>
        <time>2016-12-11T11:20:18Z</time>
      </trkpt>
      <trkpt lat="43.13768" lon="-0.49394">
        <ele>333.23</ele>
        <time>2016-12-11T11:20:28Z</time>
      </trkpt>
      <trkpt lat="43.13768" lon="-0.49356">
        <ele>333.71</ele>
        <time>2016-12-11T11:20:33Z</time>
      </trkpt>
      <trkpt lat="43.13769" lon="-0.49348">
        <ele>333.23</ele>
        <time>2016-12-11T11:20:34Z</time>
      </trkpt>
      <trkpt lat="43.1377" lon="-0.49341">
        <ele>333.23</ele>
        <time>2016-12-11T11:20:35Z</time>
      </trkpt>
      <trkpt lat="43.13771" lon="-0.49334">
        <ele>333.71</ele>
        <time>2016-12-11T11:20:36Z</time>
      </trkpt>
      <trkpt lat="43.13773" lon="-0.49327">
        <ele>333.71</ele>
        <time>2016-12-11T11:20:37Z</time>
      </trkpt>
      <trkpt lat="43.13785" lon="-0.49228">
        <ele>334.2</ele>
        <time>2016-12-11T11:20:51Z</time>
      </trkpt>
      <trkpt lat="43.13786" lon="-0.49084">
        <ele>335.16</ele>
        <time>2016-12-11T11:21:10Z</time>
      </trkpt>
      <trkpt lat="43.13773" lon="-0.48996">
        <ele>335.64</ele>
        <time>2016-12-11T11:21:22Z</time>
      </trkpt>
      <trkpt lat="43.13771" lon="-0.48974">
        <ele>335.64</ele>
        <time>2016-12-11T11:21:25Z</time>
      </trkpt>
      <trkpt lat="43.13771" lon="-0.48967">
        <ele>335.16</ele>
        <time>2016-12-11T11:21:26Z</time>
      </trkpt>
      <trkpt lat="43.13771" lon="-0.4896">
        <ele>336.12</ele>
        <time>2016-12-11T11:21:27Z</time>
      </trkpt>
      <trkpt lat="43.13771" lon="-0.48952">
        <ele>336.12</ele>
        <time>2016-12-11T11:21:28Z</time>
      </trkpt>
      <trkpt lat="43.13772" lon="-0.48945">
        <ele>335.64</ele>
        <time>2016-12-11T11:21:29Z</time>
      </trkpt>
      <trkpt lat="43.13772" lon="-0.48937">
        <ele>335.64</ele>
        <time>2016-12-11T11:21:30Z</time>
      </trkpt>
      <trkpt lat="43.1377" lon="-0.48878">
        <ele>336.12</ele>
        <time>2016-12-11T11:21:38Z</time>
      </trkpt>
      <trkpt lat="43.13769" lon="-0.48871">
        <ele>336.6</ele>
        <time>2016-12-11T11:21:39Z</time>
      </trkpt>
      <trkpt lat="43.13756" lon="-0.48778">
        <ele>337.56</ele>
        <time>2016-12-11T11:21:53Z</time>
      </trkpt>
      <trkpt lat="43.13751" lon="-0.487">
        <ele>338.52</ele>
        <time>2016-12-11T11:22:05Z</time>
      </trkpt>
      <trkpt lat="43.1375" lon="-0.48694">
        <ele>339</ele>
        <time>2016-12-11T11:22:06Z</time>
      </trkpt>
      <trkpt lat="43.13749" lon="-0.48669">
        <ele>339</ele>
        <time>2016-12-11T11:22:10Z</time>
      </trkpt>
      <trkpt lat="43.13742" lon="-0.48625">
        <ele>339.48</ele>
        <time>2016-12-11T11:22:20Z</time>
      </trkpt>
      <trkpt lat="43.13736" lon="-0.48593">
        <ele>339.96</ele>
        <time>2016-12-11T11:22:32Z</time>
      </trkpt>
      <trkpt lat="43.13734" lon="-0.48576">
        <ele>340.44</ele>
        <time>2016-12-11T11:22:37Z</time>
      </trkpt>
      <trkpt lat="43.13734" lon="-0.48573">
        <ele>339.96</ele>
        <time>2016-12-11T11:22:38Z</time>
      </trkpt>
      <trkpt lat="43.13724" lon="-0.4853">
        <ele>339.96</ele>
        <time>2016-12-11T11:22:49Z</time>
      </trkpt>
      <trkpt lat="43.13723" lon="-0.48526">
        <ele>340.44</ele>
        <time>2016-12-11T11:22:51Z</time>
      </trkpt>
      <trkpt lat="43.13721" lon="-0.48523">
        <ele>339.96</ele>
        <time>2016-12-11T11:22:57Z</time>
      </trkpt>
      <trkpt lat="43.1372" lon="-0.48524">
        <ele>340.44</ele>
        <time>2016-12-11T11:22:58Z</time>
      </trkpt>
      <trkpt lat="43.13709" lon="-0.48526">
        <ele>341.89</ele>
        <time>2016-12-11T11:23:05Z</time>
      </trkpt>
      <trkpt lat="43.13702" lon="-0.48524">
        <ele>343.33</ele>
        <time>2016-12-11T11:23:12Z</time>
      </trkpt>
      <trkpt lat="43.13689" lon="-0.48514">
        <ele>346.21</ele>
        <time>2016-12-11T11:23:21Z</time>
      </trkpt>
      <trkpt lat="43.13687" lon="-0.4851">
        <ele>347.17</ele>
        <time>2016-12-11T11:23:24Z</time>
      </trkpt>
      <trkpt lat="43.13679" lon="-0.48498">
        <ele>349.1</ele>
        <time>2016-12-11T11:23:32Z</time>
      </trkpt>
      <trkpt lat="43.13669" lon="-0.4849">
        <ele>351.98</ele>
        <time>2016-12-11T11:23:44Z</time>
      </trkpt>
      <trkpt lat="43.13668" lon="-0.48488">
        <ele>352.46</ele>
        <time>2016-12-11T11:23:46Z</time>
      </trkpt>
      <trkpt lat="43.13666" lon="-0.48485">
        <ele>352.46</ele>
        <time>2016-12-11T11:23:48Z</time>
      </trkpt>
      <trkpt lat="43.13651" lon="-0.48477">
        <ele>353.42</ele>
        <time>2016-12-11T11:24:00Z</time>
      </trkpt>
      <trkpt lat="43.13648" lon="-0.48474">
        <ele>354.38</ele>
        <time>2016-12-11T11:24:06Z</time>
      </trkpt>
      <trkpt lat="43.13644" lon="-0.48461">
        <ele>355.83</ele>
        <time>2016-12-11T11:24:19Z</time>
      </trkpt>
      <trkpt lat="43.13643" lon="-0.48459">
        <ele>356.79</ele>
        <time>2016-12-11T11:24:23Z</time>
      </trkpt>
      <trkpt lat="43.13643" lon="-0.48455">
        <ele>358.71</ele>
        <time>2016-12-11T11:24:34Z</time>
      </trkpt>
      <trkpt lat="43.13643" lon="-0.48455">
        <ele>358.23</ele>
        <time>2016-12-11T11:24:35Z</time>
      </trkpt>
      <trkpt lat="43.13641" lon="-0.48448">
        <ele>359.67</ele>
        <time>2016-12-11T11:24:47Z</time>
      </trkpt>
      <trkpt lat="43.13641" lon="-0.48447">
        <ele>360.63</ele>
        <time>2016-12-11T11:25:02Z</time>
      </trkpt>
      <trkpt lat="43.13637" lon="-0.48448">
        <ele>361.11</ele>
        <time>2016-12-11T11:25:13Z</time>
      </trkpt>
      <trkpt lat="43.13622" lon="-0.48454">
        <ele>362.07</ele>
        <time>2016-12-11T11:25:24Z</time>
      </trkpt>
      <trkpt lat="43.13617" lon="-0.48454">
        <ele>362.07</ele>
        <time>2016-12-11T11:25:27Z</time>
      </trkpt>
      <trkpt lat="43.13612" lon="-0.48456">
        <ele>363.04</ele>
        <time>2016-12-11T11:25:30Z</time>
      </trkpt>
      <trkpt lat="43.13601" lon="-0.48459">
        <ele>365.44</ele>
        <time>2016-12-11T11:25:43Z</time>
      </trkpt>
      <trkpt lat="43.13601" lon="-0.48459">
        <ele>364.96</ele>
        <time>2016-12-11T11:25:45Z</time>
      </trkpt>
      <trkpt lat="43.13593" lon="-0.48456">
        <ele>366.4</ele>
        <time>2016-12-11T11:25:58Z</time>
      </trkpt>
      <trkpt lat="43.13591" lon="-0.48454">
        <ele>366.4</ele>
        <time>2016-12-11T11:26:16Z</time>
      </trkpt>
      <trkpt lat="43.13591" lon="-0.48446">
        <ele>367.84</ele>
        <time>2016-12-11T11:26:22Z</time>
      </trkpt>
      <trkpt lat="43.1359" lon="-0.48432">
        <ele>367.84</ele>
        <time>2016-12-11T11:26:33Z</time>
      </trkpt>
      <trkpt lat="43.1359" lon="-0.48432">
        <ele>368.32</ele>
        <time>2016-12-11T11:26:47Z</time>
      </trkpt>
      <trkpt lat="43.13589" lon="-0.48432">
        <ele>368.32</ele>
        <time>2016-12-11T11:26:50Z</time>
      </trkpt>
      <trkpt lat="43.13581" lon="-0.48435">
        <ele>369.28</ele>
        <time>2016-12-11T11:27:00Z</time>
      </trkpt>
      <trkpt lat="43.13575" lon="-0.4843">
        <ele>369.28</ele>
        <time>2016-12-11T11:27:04Z</time>
      </trkpt>
      <trkpt lat="43.1357" lon="-0.4842">
        <ele>369.28</ele>
        <time>2016-12-11T11:27:10Z</time>
      </trkpt>
      <trkpt lat="43.1357" lon="-0.48411">
        <ele>369.28</ele>
        <time>2016-12-11T11:27:14Z</time>
      </trkpt>
      <trkpt lat="43.13569" lon="-0.48395">
        <ele>369.28</ele>
        <time>2016-12-11T11:27:20Z</time>
      </trkpt>
      <trkpt lat="43.13572" lon="-0.48392">
        <ele>369.28</ele>
        <time>2016-12-11T11:28:02Z</time>
      </trkpt>
      <trkpt lat="43.13574" lon="-0.48394">
        <ele>369.28</ele>
        <time>2016-12-11T11:28:14Z</time>
      </trkpt>
      <trkpt lat="43.13583" lon="-0.48399">
        <ele>368.32</ele>
        <time>2016-12-11T11:28:26Z</time>
      </trkpt>
      <trkpt lat="43.1359" lon="-0.48401">
        <ele>367.36</ele>
        <time>2016-12-11T11:28:34Z</time>
      </trkpt>
      <trkpt lat="43.13592" lon="-0.48406">
        <ele>366.88</ele>
        <time>2016-12-11T11:28:37Z</time>
      </trkpt>
      <trkpt lat="43.1359" lon="-0.48423">
        <ele>367.84</ele>
        <time>2016-12-11T11:28:48Z</time>
      </trkpt>
      <trkpt lat="43.1359" lon="-0.48425">
        <ele>367.84</ele>
        <time>2016-12-11T11:28:50Z</time>
      </trkpt>
      <trkpt lat="43.13594" lon="-0.48434">
        <ele>369.28</ele>
        <time>2016-12-11T11:28:59Z</time>
      </trkpt>
      <trkpt lat="43.13597" lon="-0.48436">
        <ele>370.24</ele>
        <time>2016-12-11T11:29:09Z</time>
      </trkpt>
      <trkpt lat="43.13598" lon="-0.48436">
        <ele>370.24</ele>
        <time>2016-12-11T11:29:12Z</time>
      </trkpt>
      <trkpt lat="43.13609" lon="-0.48428">
        <ele>370.24</ele>
        <time>2016-12-11T11:29:20Z</time>
      </trkpt>
      <trkpt lat="43.13622" lon="-0.4842">
        <ele>367.36</ele>
        <time>2016-12-11T11:29:30Z</time>
      </trkpt>
      <trkpt lat="43.13624" lon="-0.48416">
        <ele>366.4</ele>
        <time>2016-12-11T11:29:39Z</time>
      </trkpt>
      <trkpt lat="43.13624" lon="-0.48414">
        <ele>365.92</ele>
        <time>2016-12-11T11:29:41Z</time>
      </trkpt>
      <trkpt lat="43.13621" lon="-0.48403">
        <ele>364</ele>
        <time>2016-12-11T11:29:44Z</time>
      </trkpt>
      <trkpt lat="43.13618" lon="-0.48393">
        <ele>363.52</ele>
        <time>2016-12-11T11:29:48Z</time>
      </trkpt>
      <trkpt lat="43.13619" lon="-0.48383">
        <ele>364</ele>
        <time>2016-12-11T11:29:52Z</time>
      </trkpt>
      <trkpt lat="43.13615" lon="-0.48368">
        <ele>363.04</ele>
        <time>2016-12-11T11:29:58Z</time>
      </trkpt>
      <trkpt lat="43.13612" lon="-0.4837">
        <ele>364.48</ele>
        <time>2016-12-11T11:30:01Z</time>
      </trkpt>
      <trkpt lat="43.13611" lon="-0.4837">
        <ele>364.48</ele>
        <time>2016-12-11T11:30:02Z</time>
      </trkpt>
      <trkpt lat="43.13606" lon="-0.48357">
        <ele>363.52</ele>
        <time>2016-12-11T11:30:09Z</time>
      </trkpt>
      <trkpt lat="43.136" lon="-0.48347">
        <ele>362.07</ele>
        <time>2016-12-11T11:30:13Z</time>
      </trkpt>
      <trkpt lat="43.13589" lon="-0.48335">
        <ele>360.15</ele>
        <time>2016-12-11T11:30:19Z</time>
      </trkpt>
      <trkpt lat="43.13581" lon="-0.48334">
        <ele>358.71</ele>
        <time>2016-12-11T11:30:23Z</time>
      </trkpt>
      <trkpt lat="43.13573" lon="-0.48335">
        <ele>358.23</ele>
        <time>2016-12-11T11:30:28Z</time>
      </trkpt>
      <trkpt lat="43.13569" lon="-0.48331">
        <ele>356.31</ele>
        <time>2016-12-11T11:30:32Z</time>
      </trkpt>
      <trkpt lat="43.13569" lon="-0.4833">
        <ele>356.31</ele>
        <time>2016-12-11T11:30:33Z</time>
      </trkpt>
      <trkpt lat="43.13572" lon="-0.48327">
        <ele>355.83</ele>
        <time>2016-12-11T11:30:35Z</time>
      </trkpt>
      <trkpt lat="43.13577" lon="-0.48317">
        <ele>353.9</ele>
        <time>2016-12-11T11:30:38Z</time>
      </trkpt>
      <trkpt lat="43.13579" lon="-0.48312">
        <ele>352.94</ele>
        <time>2016-12-11T11:30:39Z</time>
      </trkpt>
      <trkpt lat="43.13595" lon="-0.48304">
        <ele>348.62</ele>
        <time>2016-12-11T11:30:45Z</time>
      </trkpt>
      <trkpt lat="43.13596" lon="-0.48301">
        <ele>347.17</ele>
        <time>2016-12-11T11:30:47Z</time>
      </trkpt>
      <trkpt lat="43.13598" lon="-0.48299">
        <ele>346.69</ele>
        <time>2016-12-11T11:30:49Z</time>
      </trkpt>
      <trkpt lat="43.13606" lon="-0.48286">
        <ele>343.33</ele>
        <time>2016-12-11T11:30:55Z</time>
      </trkpt>
      <trkpt lat="43.13603" lon="-0.48276">
        <ele>342.37</ele>
        <time>2016-12-11T11:30:57Z</time>
      </trkpt>
      <trkpt lat="43.13601" lon="-0.48268">
        <ele>341.89</ele>
        <time>2016-12-11T11:30:59Z</time>
      </trkpt>
      <trkpt lat="43.13597" lon="-0.48257">
        <ele>341.41</ele>
        <time>2016-12-11T11:31:11Z</time>
      </trkpt>
      <trkpt lat="43.13598" lon="-0.48256">
        <ele>341.89</ele>
        <time>2016-12-11T11:31:40Z</time>
      </trkpt>
      <trkpt lat="43.13598" lon="-0.48255">
        <ele>341.41</ele>
        <time>2016-12-11T11:31:43Z</time>
      </trkpt>
      <trkpt lat="43.13597" lon="-0.48241">
        <ele>341.41</ele>
        <time>2016-12-11T11:31:50Z</time>
      </trkpt>
      <trkpt lat="43.13599" lon="-0.48209">
        <ele>341.89</ele>
        <time>2016-12-11T11:31:59Z</time>
      </trkpt>
      <trkpt lat="43.13604" lon="-0.48159">
        <ele>341.89</ele>
        <time>2016-12-11T11:32:10Z</time>
      </trkpt>
      <trkpt lat="43.13606" lon="-0.48093">
        <ele>342.37</ele>
        <time>2016-12-11T11:32:22Z</time>
      </trkpt>
      <trkpt lat="43.13602" lon="-0.4805">
        <ele>342.37</ele>
        <time>2016-12-11T11:32:30Z</time>
      </trkpt>
      <trkpt lat="43.13597" lon="-0.48035">
        <ele>342.37</ele>
        <time>2016-12-11T11:32:33Z</time>
      </trkpt>
      <trkpt lat="43.13582" lon="-0.4799">
        <ele>341.41</ele>
        <time>2016-12-11T11:32:41Z</time>
      </trkpt>
      <trkpt lat="43.13581" lon="-0.47984">
        <ele>341.41</ele>
        <time>2016-12-11T11:32:42Z</time>
      </trkpt>
      <trkpt lat="43.13579" lon="-0.47978">
        <ele>341.41</ele>
        <time>2016-12-11T11:32:43Z</time>
      </trkpt>
      <trkpt lat="43.13577" lon="-0.47972">
        <ele>341.41</ele>
        <time>2016-12-11T11:32:44Z</time>
      </trkpt>
      <trkpt lat="43.13575" lon="-0.47966">
        <ele>340.92</ele>
        <time>2016-12-11T11:32:45Z</time>
      </trkpt>
      <trkpt lat="43.13552" lon="-0.47901">
        <ele>340.44</ele>
        <time>2016-12-11T11:32:56Z</time>
      </trkpt>
      <trkpt lat="43.1355" lon="-0.47894">
        <ele>340.92</ele>
        <time>2016-12-11T11:32:57Z</time>
      </trkpt>
      <trkpt lat="43.1355" lon="-0.47888">
        <ele>340.44</ele>
        <time>2016-12-11T11:32:58Z</time>
      </trkpt>
      <trkpt lat="43.13551" lon="-0.47881">
        <ele>340.44</ele>
        <time>2016-12-11T11:32:59Z</time>
      </trkpt>
      <trkpt lat="43.13551" lon="-0.47875">
        <ele>340.44</ele>
        <time>2016-12-11T11:33:00Z</time>
      </trkpt>
      <trkpt lat="43.13552" lon="-0.4787">
        <ele>340.92</ele>
        <time>2016-12-11T11:33:01Z</time>
      </trkpt>
      <trkpt lat="43.13558" lon="-0.47825">
        <ele>340.44</ele>
        <time>2016-12-11T11:33:10Z</time>
      </trkpt>
      <trkpt lat="43.13558" lon="-0.47822">
        <ele>340.44</ele>
        <time>2016-12-11T11:33:11Z</time>
      </trkpt>
      <trkpt lat="43.13557" lon="-0.4782">
        <ele>340.44</ele>
        <time>2016-12-11T11:33:12Z</time>
      </trkpt>
      <trkpt lat="43.13555" lon="-0.47818">
        <ele>340.44</ele>
        <time>2016-12-11T11:33:13Z</time>
      </trkpt>
      <trkpt lat="43.13554" lon="-0.47816">
        <ele>340.44</ele>
        <time>2016-12-11T11:33:14Z</time>
      </trkpt>
      <trkpt lat="43.13553" lon="-0.47814">
        <ele>340.44</ele>
        <time>2016-12-11T11:33:15Z</time>
      </trkpt>
      <trkpt lat="43.13552" lon="-0.47812">
        <ele>340.44</ele>
        <time>2016-12-11T11:33:16Z</time>
      </trkpt>
      <trkpt lat="43.13551" lon="-0.47811">
        <ele>340.44</ele>
        <time>2016-12-11T11:33:17Z</time>
      </trkpt>
      <trkpt lat="43.13549" lon="-0.4781">
        <ele>339.96</ele>
        <time>2016-12-11T11:33:18Z</time>
      </trkpt>
    </trkseg>
  </trk>
  <trk>
    <name><![CDATA[BOUCLE LAZERQUE]]></name>
    <trkseg>
      <trkpt lat="43.09999" lon="-0.4432">
        <ele>410.14</ele>
        <time>2015-08-29T06:01:28Z</time>
      </trkpt>
      <trkpt lat="43.09999" lon="-0.44328">
        <ele>409.66</ele>
        <time>2015-08-29T06:01:29Z</time>
      </trkpt>
      <trkpt lat="43.09999" lon="-0.44336">
        <ele>409.66</ele>
        <time>2015-08-29T06:01:30Z</time>
      </trkpt>
      <trkpt lat="43.1" lon="-0.44343">
        <ele>409.66</ele>
        <time>2015-08-29T06:01:31Z</time>
      </trkpt>
      <trkpt lat="43.10002" lon="-0.4435">
        <ele>409.66</ele>
        <time>2015-08-29T06:01:32Z</time>
      </trkpt>
      <trkpt lat="43.10004" lon="-0.44357">
        <ele>409.66</ele>
        <time>2015-08-29T06:01:33Z</time>
      </trkpt>
      <trkpt lat="43.10029" lon="-0.4444">
        <ele>408.7</ele>
        <time>2015-08-29T06:01:46Z</time>
      </trkpt>
      <trkpt lat="43.10035" lon="-0.44452">
        <ele>408.7</ele>
        <time>2015-08-29T06:01:48Z</time>
      </trkpt>
      <trkpt lat="43.10038" lon="-0.44458">
        <ele>409.18</ele>
        <time>2015-08-29T06:01:49Z</time>
      </trkpt>
      <trkpt lat="43.1004" lon="-0.44464">
        <ele>409.18</ele>
        <time>2015-08-29T06:01:50Z</time>
      </trkpt>
      <trkpt lat="43.10042" lon="-0.4447">
        <ele>409.18</ele>
        <time>2015-08-29T06:01:51Z</time>
      </trkpt>
      <trkpt lat="43.10043" lon="-0.44476">
        <ele>409.18</ele>
        <time>2015-08-29T06:01:52Z</time>
      </trkpt>
      <trkpt lat="43.10051" lon="-0.44557">
        <ele>408.7</ele>
        <time>2015-08-29T06:02:05Z</time>
      </trkpt>
      <trkpt lat="43.1005" lon="-0.44582">
        <ele>409.18</ele>
        <time>2015-08-29T06:02:09Z</time>
      </trkpt>
      <trkpt lat="43.10034" lon="-0.44657">
        <ele>408.7</ele>
        <time>2015-08-29T06:02:21Z</time>
      </trkpt>
      <trkpt lat="43.10031" lon="-0.44662">
        <ele>408.7</ele>
        <time>2015-08-29T06:02:22Z</time>
      </trkpt>
      <trkpt lat="43.09999" lon="-0.44739">
        <ele>410.62</ele>
        <time>2015-08-29T06:02:36Z</time>
      </trkpt>
      <trkpt lat="43.09968" lon="-0.44817">
        <ele>414.47</ele>
        <time>2015-08-29T06:02:52Z</time>
      </trkpt>
      <trkpt lat="43.09959" lon="-0.44898">
        <ele>413.02</ele>
        <time>2015-08-29T06:03:06Z</time>
      </trkpt>
      <trkpt lat="43.09937" lon="-0.44993">
        <ele>413.02</ele>
        <time>2015-08-29T06:03:22Z</time>
      </trkpt>
      <trkpt lat="43.09929" lon="-0.45026">
        <ele>413.98</ele>
        <time>2015-08-29T06:03:28Z</time>
      </trkpt>
      <trkpt lat="43.09928" lon="-0.45032">
        <ele>413.98</ele>
        <time>2015-08-29T06:03:29Z</time>
      </trkpt>
      <trkpt lat="43.09927" lon="-0.45038">
        <ele>414.47</ele>
        <time>2015-08-29T06:03:30Z</time>
      </trkpt>
      <trkpt lat="43.09927" lon="-0.45044">
        <ele>414.47</ele>
        <time>2015-08-29T06:03:31Z</time>
      </trkpt>
      <trkpt lat="43.09928" lon="-0.45049">
        <ele>414.95</ele>
        <time>2015-08-29T06:03:32Z</time>
      </trkpt>
      <trkpt lat="43.0995" lon="-0.45109">
        <ele>415.91</ele>
        <time>2015-08-29T06:03:45Z</time>
      </trkpt>
      <trkpt lat="43.09977" lon="-0.45124">
        <ele>416.87</ele>
        <time>2015-08-29T06:03:52Z</time>
      </trkpt>
      <trkpt lat="43.09981" lon="-0.45127">
        <ele>417.35</ele>
        <time>2015-08-29T06:03:53Z</time>
      </trkpt>
      <trkpt lat="43.10024" lon="-0.45171">
        <ele>421.19</ele>
        <time>2015-08-29T06:04:07Z</time>
      </trkpt>
      <trkpt lat="43.10054" lon="-0.45189">
        <ele>426</ele>
        <time>2015-08-29T06:04:18Z</time>
      </trkpt>
      <trkpt lat="43.10065" lon="-0.45205">
        <ele>429.85</ele>
        <time>2015-08-29T06:04:26Z</time>
      </trkpt>
      <trkpt lat="43.10065" lon="-0.45209">
        <ele>429.85</ele>
        <time>2015-08-29T06:04:27Z</time>
      </trkpt>
      <trkpt lat="43.10066" lon="-0.45212">
        <ele>430.33</ele>
        <time>2015-08-29T06:04:28Z</time>
      </trkpt>
      <trkpt lat="43.10067" lon="-0.45214">
        <ele>430.81</ele>
        <time>2015-08-29T06:04:29Z</time>
      </trkpt>
      <trkpt lat="43.10068" lon="-0.45217">
        <ele>431.29</ele>
        <time>2015-08-29T06:04:30Z</time>
      </trkpt>
      <trkpt lat="43.10071" lon="-0.4523">
        <ele>433.69</ele>
        <time>2015-08-29T06:04:36Z</time>
      </trkpt>
      <trkpt lat="43.10071" lon="-0.45232">
        <ele>434.65</ele>
        <time>2015-08-29T06:04:37Z</time>
      </trkpt>
      <trkpt lat="43.1007" lon="-0.45235">
        <ele>435.61</ele>
        <time>2015-08-29T06:04:38Z</time>
      </trkpt>
      <trkpt lat="43.10069" lon="-0.45239">
        <ele>436.1</ele>
        <time>2015-08-29T06:04:39Z</time>
      </trkpt>
      <trkpt lat="43.10069" lon="-0.45242">
        <ele>436.58</ele>
        <time>2015-08-29T06:04:40Z</time>
      </trkpt>
      <trkpt lat="43.10066" lon="-0.4526">
        <ele>438.02</ele>
        <time>2015-08-29T06:04:46Z</time>
      </trkpt>
      <trkpt lat="43.10066" lon="-0.45263">
        <ele>438.5</ele>
        <time>2015-08-29T06:04:47Z</time>
      </trkpt>
      <trkpt lat="43.10066" lon="-0.45266">
        <ele>438.5</ele>
        <time>2015-08-29T06:04:48Z</time>
      </trkpt>
      <trkpt lat="43.1007" lon="-0.45298">
        <ele>442.82</ele>
        <time>2015-08-29T06:05:01Z</time>
      </trkpt>
      <trkpt lat="43.10093" lon="-0.45328">
        <ele>442.34</ele>
        <time>2015-08-29T06:05:14Z</time>
      </trkpt>
      <trkpt lat="43.10095" lon="-0.4533">
        <ele>442.34</ele>
        <time>2015-08-29T06:05:15Z</time>
      </trkpt>
      <trkpt lat="43.10126" lon="-0.45343">
        <ele>442.34</ele>
        <time>2015-08-29T06:05:25Z</time>
      </trkpt>
      <trkpt lat="43.10165" lon="-0.45387">
        <ele>442.82</ele>
        <time>2015-08-29T06:05:37Z</time>
      </trkpt>
      <trkpt lat="43.10166" lon="-0.45394">
        <ele>442.82</ele>
        <time>2015-08-29T06:05:38Z</time>
      </trkpt>
      <trkpt lat="43.10178" lon="-0.45418">
        <ele>442.82</ele>
        <time>2015-08-29T06:05:44Z</time>
      </trkpt>
      <trkpt lat="43.10174" lon="-0.45432">
        <ele>442.82</ele>
        <time>2015-08-29T06:05:52Z</time>
      </trkpt>
      <trkpt lat="43.10164" lon="-0.45435">
        <ele>443.79</ele>
        <time>2015-08-29T06:06:04Z</time>
      </trkpt>
      <trkpt lat="43.1016" lon="-0.4544">
        <ele>444.75</ele>
        <time>2015-08-29T06:06:24Z</time>
      </trkpt>
      <trkpt lat="43.10162" lon="-0.45435">
        <ele>445.23</ele>
        <time>2015-08-29T06:06:30Z</time>
      </trkpt>
      <trkpt lat="43.10162" lon="-0.45433">
        <ele>445.71</ele>
        <time>2015-08-29T06:06:31Z</time>
      </trkpt>
      <trkpt lat="43.10163" lon="-0.45431">
        <ele>445.71</ele>
        <time>2015-08-29T06:06:32Z</time>
      </trkpt>
      <trkpt lat="43.10198" lon="-0.45399">
        <ele>449.55</ele>
        <time>2015-08-29T06:06:47Z</time>
      </trkpt>
      <trkpt lat="43.10223" lon="-0.45371">
        <ele>451.96</ele>
        <time>2015-08-29T06:06:57Z</time>
      </trkpt>
      <trkpt lat="43.10257" lon="-0.4536">
        <ele>455.32</ele>
        <time>2015-08-29T06:07:09Z</time>
      </trkpt>
      <trkpt lat="43.10273" lon="-0.45346">
        <ele>457.72</ele>
        <time>2015-08-29T06:07:21Z</time>
      </trkpt>
      <trkpt lat="43.10277" lon="-0.45338">
        <ele>457.24</ele>
        <time>2015-08-29T06:07:27Z</time>
      </trkpt>
      <trkpt lat="43.1028" lon="-0.45339">
        <ele>453.4</ele>
        <time>2015-08-29T06:07:40Z</time>
      </trkpt>
      <trkpt lat="43.1028" lon="-0.45339">
        <ele>451.48</ele>
        <time>2015-08-29T06:07:47Z</time>
      </trkpt>
      <trkpt lat="43.10282" lon="-0.45334">
        <ele>451</ele>
        <time>2015-08-29T06:07:50Z</time>
      </trkpt>
      <trkpt lat="43.10294" lon="-0.45307">
        <ele>447.63</ele>
        <time>2015-08-29T06:08:00Z</time>
      </trkpt>
      <trkpt lat="43.10318" lon="-0.45298">
        <ele>448.11</ele>
        <time>2015-08-29T06:08:07Z</time>
      </trkpt>
      <trkpt lat="43.10338" lon="-0.45285">
        <ele>448.11</ele>
        <time>2015-08-29T06:08:09Z</time>
      </trkpt>
      <trkpt lat="43.10351" lon="-0.45273">
        <ele>448.11</ele>
        <time>2015-08-29T06:08:10Z</time>
      </trkpt>
      <trkpt lat="43.10358" lon="-0.45265">
        <ele>448.11</ele>
        <time>2015-08-29T06:08:11Z</time>
      </trkpt>
      <trkpt lat="43.10366" lon="-0.45255">
        <ele>448.59</ele>
        <time>2015-08-29T06:08:12Z</time>
      </trkpt>
      <trkpt lat="43.10371" lon="-0.45245">
        <ele>448.59</ele>
        <time>2015-08-29T06:08:13Z</time>
      </trkpt>
      <trkpt lat="43.10376" lon="-0.45234">
        <ele>448.59</ele>
        <time>2015-08-29T06:08:14Z</time>
      </trkpt>
      <trkpt lat="43.10381" lon="-0.45225">
        <ele>448.11</ele>
        <time>2015-08-29T06:08:15Z</time>
      </trkpt>
      <trkpt lat="43.10384" lon="-0.45219">
        <ele>448.11</ele>
        <time>2015-08-29T06:08:16Z</time>
      </trkpt>
      <trkpt lat="43.10389" lon="-0.45213">
        <ele>448.11</ele>
        <time>2015-08-29T06:08:17Z</time>
      </trkpt>
      <trkpt lat="43.10395" lon="-0.45208">
        <ele>448.11</ele>
        <time>2015-08-29T06:08:18Z</time>
      </trkpt>
      <trkpt lat="43.10401" lon="-0.45206">
        <ele>448.11</ele>
        <time>2015-08-29T06:08:19Z</time>
      </trkpt>
      <trkpt lat="43.10408" lon="-0.45207">
        <ele>448.11</ele>
        <time>2015-08-29T06:08:20Z</time>
      </trkpt>
      <trkpt lat="43.10414" lon="-0.45209">
        <ele>448.11</ele>
        <time>2015-08-29T06:08:21Z</time>
      </trkpt>
      <trkpt lat="43.10419" lon="-0.45213">
        <ele>448.11</ele>
        <time>2015-08-29T06:08:22Z</time>
      </trkpt>
      <trkpt lat="43.10426" lon="-0.45217">
        <ele>448.11</ele>
        <time>2015-08-29T06:08:23Z</time>
      </trkpt>
      <trkpt lat="43.10434" lon="-0.45221">
        <ele>448.11</ele>
        <time>2015-08-29T06:08:24Z</time>
      </trkpt>
      <trkpt lat="43.10443" lon="-0.45224">
        <ele>447.63</ele>
        <time>2015-08-29T06:08:25Z</time>
      </trkpt>
      <trkpt lat="43.10454" lon="-0.45226">
        <ele>447.15</ele>
        <time>2015-08-29T06:08:26Z</time>
      </trkpt>
      <trkpt lat="43.10529" lon="-0.45249">
        <ele>442.82</ele>
        <time>2015-08-29T06:08:32Z</time>
      </trkpt>
      <trkpt lat="43.10562" lon="-0.45268">
        <ele>440.42</ele>
        <time>2015-08-29T06:08:35Z</time>
      </trkpt>
      <trkpt lat="43.1058" lon="-0.45283">
        <ele>438.5</ele>
        <time>2015-08-29T06:08:37Z</time>
      </trkpt>
      <trkpt lat="43.10608" lon="-0.45325">
        <ele>433.21</ele>
        <time>2015-08-29T06:08:42Z</time>
      </trkpt>
      <trkpt lat="43.10629" lon="-0.45355">
        <ele>429.85</ele>
        <time>2015-08-29T06:08:48Z</time>
      </trkpt>
      <trkpt lat="43.10646" lon="-0.45368">
        <ele>426.48</ele>
        <time>2015-08-29T06:08:53Z</time>
      </trkpt>
      <trkpt lat="43.10661" lon="-0.45388">
        <ele>423.12</ele>
        <time>2015-08-29T06:08:58Z</time>
      </trkpt>
      <trkpt lat="43.10697" lon="-0.45434">
        <ele>415.91</ele>
        <time>2015-08-29T06:09:09Z</time>
      </trkpt>
      <trkpt lat="43.10702" lon="-0.45438">
        <ele>415.43</ele>
        <time>2015-08-29T06:09:10Z</time>
      </trkpt>
      <trkpt lat="43.10706" lon="-0.4544">
        <ele>414.95</ele>
        <time>2015-08-29T06:09:11Z</time>
      </trkpt>
      <trkpt lat="43.10717" lon="-0.45444">
        <ele>413.02</ele>
        <time>2015-08-29T06:09:17Z</time>
      </trkpt>
      <trkpt lat="43.10725" lon="-0.4544">
        <ele>412.54</ele>
        <time>2015-08-29T06:09:30Z</time>
      </trkpt>
      <trkpt lat="43.10735" lon="-0.45442">
        <ele>411.58</ele>
        <time>2015-08-29T06:09:43Z</time>
      </trkpt>
      <trkpt lat="43.10739" lon="-0.45438">
        <ele>412.54</ele>
        <time>2015-08-29T06:09:51Z</time>
      </trkpt>
      <trkpt lat="43.10743" lon="-0.45435">
        <ele>413.5</ele>
        <time>2015-08-29T06:10:03Z</time>
      </trkpt>
      <trkpt lat="43.10744" lon="-0.45433">
        <ele>413.02</ele>
        <time>2015-08-29T06:10:09Z</time>
      </trkpt>
      <trkpt lat="43.10743" lon="-0.45434">
        <ele>412.06</ele>
        <time>2015-08-29T06:10:21Z</time>
      </trkpt>
      <trkpt lat="43.10743" lon="-0.45435">
        <ele>412.54</ele>
        <time>2015-08-29T06:10:29Z</time>
      </trkpt>
      <trkpt lat="43.10762" lon="-0.45429">
        <ele>415.43</ele>
        <time>2015-08-29T06:10:41Z</time>
      </trkpt>
      <trkpt lat="43.10784" lon="-0.45405">
        <ele>419.27</ele>
        <time>2015-08-29T06:10:54Z</time>
      </trkpt>
      <trkpt lat="43.10802" lon="-0.45374">
        <ele>419.27</ele>
        <time>2015-08-29T06:11:04Z</time>
      </trkpt>
      <trkpt lat="43.10818" lon="-0.45349">
        <ele>419.27</ele>
        <time>2015-08-29T06:11:12Z</time>
      </trkpt>
      <trkpt lat="43.10845" lon="-0.45313">
        <ele>419.75</ele>
        <time>2015-08-29T06:11:24Z</time>
      </trkpt>
      <trkpt lat="43.10873" lon="-0.45287">
        <ele>420.71</ele>
        <time>2015-08-29T06:11:33Z</time>
      </trkpt>
      <trkpt lat="43.10887" lon="-0.45305">
        <ele>421.19</ele>
        <time>2015-08-29T06:11:39Z</time>
      </trkpt>
      <trkpt lat="43.1088" lon="-0.45327">
        <ele>421.19</ele>
        <time>2015-08-29T06:11:44Z</time>
      </trkpt>
      <trkpt lat="43.10878" lon="-0.45333">
        <ele>421.19</ele>
        <time>2015-08-29T06:11:45Z</time>
      </trkpt>
      <trkpt lat="43.10868" lon="-0.45365">
        <ele>419.27</ele>
        <time>2015-08-29T06:11:51Z</time>
      </trkpt>
      <trkpt lat="43.1086" lon="-0.45391">
        <ele>417.35</ele>
        <time>2015-08-29T06:11:55Z</time>
      </trkpt>
      <trkpt lat="43.10859" lon="-0.45398">
        <ele>416.87</ele>
        <time>2015-08-29T06:11:56Z</time>
      </trkpt>
      <trkpt lat="43.10841" lon="-0.45456">
        <ele>414.47</ele>
        <time>2015-08-29T06:12:04Z</time>
      </trkpt>
      <trkpt lat="43.10833" lon="-0.45483">
        <ele>413.5</ele>
        <time>2015-08-29T06:12:08Z</time>
      </trkpt>
      <trkpt lat="43.10824" lon="-0.45517">
        <ele>412.54</ele>
        <time>2015-08-29T06:12:14Z</time>
      </trkpt>
      <trkpt lat="43.10822" lon="-0.45522">
        <ele>412.54</ele>
        <time>2015-08-29T06:12:15Z</time>
      </trkpt>
      <trkpt lat="43.1082" lon="-0.45526">
        <ele>412.06</ele>
        <time>2015-08-29T06:12:16Z</time>
      </trkpt>
      <trkpt lat="43.10817" lon="-0.4553">
        <ele>412.06</ele>
        <time>2015-08-29T06:12:17Z</time>
      </trkpt>
      <trkpt lat="43.10813" lon="-0.45533">
        <ele>411.58</ele>
        <time>2015-08-29T06:12:18Z</time>
      </trkpt>
      <trkpt lat="43.1081" lon="-0.45536">
        <ele>411.58</ele>
        <time>2015-08-29T06:12:19Z</time>
      </trkpt>
      <trkpt lat="43.10807" lon="-0.45538">
        <ele>411.58</ele>
        <time>2015-08-29T06:12:20Z</time>
      </trkpt>
      <trkpt lat="43.10804" lon="-0.4554">
        <ele>411.1</ele>
        <time>2015-08-29T06:12:21Z</time>
      </trkpt>
      <trkpt lat="43.10801" lon="-0.45541">
        <ele>411.58</ele>
        <time>2015-08-29T06:12:22Z</time>
      </trkpt>
      <trkpt lat="43.10799" lon="-0.45542">
        <ele>411.58</ele>
        <time>2015-08-29T06:12:23Z</time>
      </trkpt>
      <trkpt lat="43.10798" lon="-0.45543">
        <ele>411.58</ele>
        <time>2015-08-29T06:12:24Z</time>
      </trkpt>
      <trkpt lat="43.10796" lon="-0.45543">
        <ele>412.06</ele>
        <time>2015-08-29T06:12:25Z</time>
      </trkpt>
      <trkpt lat="43.10795" lon="-0.45544">
        <ele>412.54</ele>
        <time>2015-08-29T06:12:26Z</time>
      </trkpt>
      <trkpt lat="43.10792" lon="-0.45546">
        <ele>413.02</ele>
        <time>2015-08-29T06:12:27Z</time>
      </trkpt>
      <trkpt lat="43.1079" lon="-0.45547">
        <ele>413.02</ele>
        <time>2015-08-29T06:12:28Z</time>
      </trkpt>
      <trkpt lat="43.1076" lon="-0.45565">
        <ele>416.87</ele>
        <time>2015-08-29T06:12:41Z</time>
      </trkpt>
      <trkpt lat="43.10733" lon="-0.45574">
        <ele>422.16</ele>
        <time>2015-08-29T06:12:54Z</time>
      </trkpt>
      <trkpt lat="43.10704" lon="-0.45602">
        <ele>422.16</ele>
        <time>2015-08-29T06:13:05Z</time>
      </trkpt>
      <trkpt lat="43.10702" lon="-0.45607">
        <ele>421.68</ele>
        <time>2015-08-29T06:13:06Z</time>
      </trkpt>
      <trkpt lat="43.10701" lon="-0.45612">
        <ele>421.19</ele>
        <time>2015-08-29T06:13:07Z</time>
      </trkpt>
      <trkpt lat="43.107" lon="-0.45617">
        <ele>420.71</ele>
        <time>2015-08-29T06:13:08Z</time>
      </trkpt>
      <trkpt lat="43.10683" lon="-0.45708">
        <ele>413.02</ele>
        <time>2015-08-29T06:13:22Z</time>
      </trkpt>
      <trkpt lat="43.10667" lon="-0.45791">
        <ele>409.66</ele>
        <time>2015-08-29T06:13:34Z</time>
      </trkpt>
      <trkpt lat="43.10666" lon="-0.45796">
        <ele>409.18</ele>
        <time>2015-08-29T06:13:35Z</time>
      </trkpt>
      <trkpt lat="43.10665" lon="-0.45801">
        <ele>409.18</ele>
        <time>2015-08-29T06:13:36Z</time>
      </trkpt>
      <trkpt lat="43.10664" lon="-0.45861">
        <ele>408.22</ele>
        <time>2015-08-29T06:13:50Z</time>
      </trkpt>
      <trkpt lat="43.10686" lon="-0.45895">
        <ele>411.1</ele>
        <time>2015-08-29T06:14:03Z</time>
      </trkpt>
      <trkpt lat="43.10702" lon="-0.45928">
        <ele>415.91</ele>
        <time>2015-08-29T06:14:16Z</time>
      </trkpt>
      <trkpt lat="43.10707" lon="-0.45939">
        <ele>416.39</ele>
        <time>2015-08-29T06:14:20Z</time>
      </trkpt>
      <trkpt lat="43.10709" lon="-0.45941">
        <ele>416.87</ele>
        <time>2015-08-29T06:14:21Z</time>
      </trkpt>
      <trkpt lat="43.1071" lon="-0.45943">
        <ele>416.87</ele>
        <time>2015-08-29T06:14:22Z</time>
      </trkpt>
      <trkpt lat="43.10711" lon="-0.45946">
        <ele>416.87</ele>
        <time>2015-08-29T06:14:23Z</time>
      </trkpt>
      <trkpt lat="43.10711" lon="-0.4595">
        <ele>417.35</ele>
        <time>2015-08-29T06:14:24Z</time>
      </trkpt>
      <trkpt lat="43.10712" lon="-0.45953">
        <ele>417.83</ele>
        <time>2015-08-29T06:14:25Z</time>
      </trkpt>
      <trkpt lat="43.10713" lon="-0.45956">
        <ele>417.35</ele>
        <time>2015-08-29T06:14:26Z</time>
      </trkpt>
      <trkpt lat="43.10713" lon="-0.45959">
        <ele>417.83</ele>
        <time>2015-08-29T06:14:27Z</time>
      </trkpt>
      <trkpt lat="43.10713" lon="-0.45962">
        <ele>417.83</ele>
        <time>2015-08-29T06:14:28Z</time>
      </trkpt>
      <trkpt lat="43.10713" lon="-0.45965">
        <ele>418.31</ele>
        <time>2015-08-29T06:14:29Z</time>
      </trkpt>
      <trkpt lat="43.10727" lon="-0.46014">
        <ele>426</ele>
        <time>2015-08-29T06:14:46Z</time>
      </trkpt>
      <trkpt lat="43.1074" lon="-0.46043">
        <ele>430.81</ele>
        <time>2015-08-29T06:14:59Z</time>
      </trkpt>
      <trkpt lat="43.10754" lon="-0.46061">
        <ele>433.69</ele>
        <time>2015-08-29T06:15:10Z</time>
      </trkpt>
      <trkpt lat="43.10756" lon="-0.46062">
        <ele>433.69</ele>
        <time>2015-08-29T06:15:11Z</time>
      </trkpt>
      <trkpt lat="43.10758" lon="-0.46063">
        <ele>433.69</ele>
        <time>2015-08-29T06:15:12Z</time>
      </trkpt>
      <trkpt lat="43.10759" lon="-0.46064">
        <ele>434.17</ele>
        <time>2015-08-29T06:15:13Z</time>
      </trkpt>
      <trkpt lat="43.1076" lon="-0.46066">
        <ele>434.17</ele>
        <time>2015-08-29T06:15:14Z</time>
      </trkpt>
      <trkpt lat="43.10762" lon="-0.46067">
        <ele>434.65</ele>
        <time>2015-08-29T06:15:15Z</time>
      </trkpt>
      <trkpt lat="43.1078" lon="-0.46076">
        <ele>437.06</ele>
        <time>2015-08-29T06:15:25Z</time>
      </trkpt>
      <trkpt lat="43.10789" lon="-0.46096">
        <ele>439.46</ele>
        <time>2015-08-29T06:15:34Z</time>
      </trkpt>
      <trkpt lat="43.1079" lon="-0.46098">
        <ele>439.46</ele>
        <time>2015-08-29T06:15:35Z</time>
      </trkpt>
      <trkpt lat="43.10789" lon="-0.46101">
        <ele>439.46</ele>
        <time>2015-08-29T06:15:36Z</time>
      </trkpt>
      <trkpt lat="43.10789" lon="-0.46103">
        <ele>439.46</ele>
        <time>2015-08-29T06:15:37Z</time>
      </trkpt>
      <trkpt lat="43.10789" lon="-0.46106">
        <ele>439.94</ele>
        <time>2015-08-29T06:15:38Z</time>
      </trkpt>
      <trkpt lat="43.10789" lon="-0.46109">
        <ele>440.42</ele>
        <time>2015-08-29T06:15:39Z</time>
      </trkpt>
      <trkpt lat="43.10788" lon="-0.46111">
        <ele>440.42</ele>
        <time>2015-08-29T06:15:40Z</time>
      </trkpt>
      <trkpt lat="43.10787" lon="-0.46114">
        <ele>440.9</ele>
        <time>2015-08-29T06:15:41Z</time>
      </trkpt>
      <trkpt lat="43.10787" lon="-0.46117">
        <ele>441.38</ele>
        <time>2015-08-29T06:15:42Z</time>
      </trkpt>
      <trkpt lat="43.10786" lon="-0.46119">
        <ele>441.38</ele>
        <time>2015-08-29T06:15:43Z</time>
      </trkpt>
      <trkpt lat="43.10786" lon="-0.46122">
        <ele>441.38</ele>
        <time>2015-08-29T06:15:44Z</time>
      </trkpt>
      <trkpt lat="43.10786" lon="-0.46124">
        <ele>441.86</ele>
        <time>2015-08-29T06:15:45Z</time>
      </trkpt>
      <trkpt lat="43.10788" lon="-0.46134">
        <ele>442.82</ele>
        <time>2015-08-29T06:15:49Z</time>
      </trkpt>
      <trkpt lat="43.10789" lon="-0.46136">
        <ele>442.82</ele>
        <time>2015-08-29T06:15:50Z</time>
      </trkpt>
      <trkpt lat="43.1079" lon="-0.46139">
        <ele>443.31</ele>
        <time>2015-08-29T06:15:51Z</time>
      </trkpt>
      <trkpt lat="43.10791" lon="-0.46141">
        <ele>443.79</ele>
        <time>2015-08-29T06:15:52Z</time>
      </trkpt>
      <trkpt lat="43.10792" lon="-0.46144">
        <ele>444.27</ele>
        <time>2015-08-29T06:15:53Z</time>
      </trkpt>
      <trkpt lat="43.10792" lon="-0.46147">
        <ele>444.27</ele>
        <time>2015-08-29T06:15:54Z</time>
      </trkpt>
      <trkpt lat="43.10792" lon="-0.46149">
        <ele>444.75</ele>
        <time>2015-08-29T06:15:55Z</time>
      </trkpt>
      <trkpt lat="43.10793" lon="-0.46152">
        <ele>444.75</ele>
        <time>2015-08-29T06:15:56Z</time>
      </trkpt>
      <trkpt lat="43.10794" lon="-0.46155">
        <ele>444.75</ele>
        <time>2015-08-29T06:15:57Z</time>
      </trkpt>
      <trkpt lat="43.10795" lon="-0.46157">
        <ele>445.23</ele>
        <time>2015-08-29T06:15:58Z</time>
      </trkpt>
      <trkpt lat="43.10805" lon="-0.46185">
        <ele>448.11</ele>
        <time>2015-08-29T06:16:10Z</time>
      </trkpt>
      <trkpt lat="43.10809" lon="-0.462">
        <ele>449.55</ele>
        <time>2015-08-29T06:16:17Z</time>
      </trkpt>
      <trkpt lat="43.10809" lon="-0.46202">
        <ele>449.55</ele>
        <time>2015-08-29T06:16:18Z</time>
      </trkpt>
      <trkpt lat="43.10809" lon="-0.46206">
        <ele>449.55</ele>
        <time>2015-08-29T06:16:19Z</time>
      </trkpt>
      <trkpt lat="43.10815" lon="-0.46244">
        <ele>449.07</ele>
        <time>2015-08-29T06:16:33Z</time>
      </trkpt>
      <trkpt lat="43.10828" lon="-0.46273">
        <ele>452.44</ele>
        <time>2015-08-29T06:16:46Z</time>
      </trkpt>
      <trkpt lat="43.10835" lon="-0.4628">
        <ele>453.4</ele>
        <time>2015-08-29T06:16:50Z</time>
      </trkpt>
      <trkpt lat="43.10839" lon="-0.46288">
        <ele>454.84</ele>
        <time>2015-08-29T06:16:54Z</time>
      </trkpt>
      <trkpt lat="43.1085" lon="-0.46303">
        <ele>454.36</ele>
        <time>2015-08-29T06:17:03Z</time>
      </trkpt>
      <trkpt lat="43.1085" lon="-0.46307">
        <ele>454.36</ele>
        <time>2015-08-29T06:17:04Z</time>
      </trkpt>
      <trkpt lat="43.10857" lon="-0.46336">
        <ele>457.72</ele>
        <time>2015-08-29T06:17:15Z</time>
      </trkpt>
      <trkpt lat="43.10858" lon="-0.46338">
        <ele>457.72</ele>
        <time>2015-08-29T06:17:16Z</time>
      </trkpt>
      <trkpt lat="43.10859" lon="-0.46341">
        <ele>457.72</ele>
        <time>2015-08-29T06:17:17Z</time>
      </trkpt>
      <trkpt lat="43.1086" lon="-0.46343">
        <ele>457.72</ele>
        <time>2015-08-29T06:17:18Z</time>
      </trkpt>
      <trkpt lat="43.10861" lon="-0.46346">
        <ele>458.21</ele>
        <time>2015-08-29T06:17:19Z</time>
      </trkpt>
      <trkpt lat="43.1086" lon="-0.46349">
        <ele>458.21</ele>
        <time>2015-08-29T06:17:20Z</time>
      </trkpt>
      <trkpt lat="43.1086" lon="-0.46352">
        <ele>458.21</ele>
        <time>2015-08-29T06:17:21Z</time>
      </trkpt>
      <trkpt lat="43.10853" lon="-0.46378">
        <ele>460.13</ele>
        <time>2015-08-29T06:17:31Z</time>
      </trkpt>
      <trkpt lat="43.10854" lon="-0.46388">
        <ele>461.09</ele>
        <time>2015-08-29T06:17:35Z</time>
      </trkpt>
      <trkpt lat="43.10855" lon="-0.46389">
        <ele>461.57</ele>
        <time>2015-08-29T06:17:36Z</time>
      </trkpt>
      <trkpt lat="43.10872" lon="-0.46409">
        <ele>466.38</ele>
        <time>2015-08-29T06:17:48Z</time>
      </trkpt>
      <trkpt lat="43.10892" lon="-0.4642">
        <ele>472.14</ele>
        <time>2015-08-29T06:18:00Z</time>
      </trkpt>
      <trkpt lat="43.10911" lon="-0.46443">
        <ele>475.99</ele>
        <time>2015-08-29T06:18:12Z</time>
      </trkpt>
      <trkpt lat="43.10913" lon="-0.46449">
        <ele>475.99</ele>
        <time>2015-08-29T06:18:14Z</time>
      </trkpt>
      <trkpt lat="43.10913" lon="-0.46452">
        <ele>476.47</ele>
        <time>2015-08-29T06:18:15Z</time>
      </trkpt>
      <trkpt lat="43.10908" lon="-0.46492">
        <ele>478.39</ele>
        <time>2015-08-29T06:18:29Z</time>
      </trkpt>
      <trkpt lat="43.1089" lon="-0.4652">
        <ele>481.76</ele>
        <time>2015-08-29T06:18:43Z</time>
      </trkpt>
      <trkpt lat="43.10882" lon="-0.46527">
        <ele>482.72</ele>
        <time>2015-08-29T06:18:48Z</time>
      </trkpt>
      <trkpt lat="43.10868" lon="-0.46545">
        <ele>485.6</ele>
        <time>2015-08-29T06:18:58Z</time>
      </trkpt>
      <trkpt lat="43.10867" lon="-0.46546">
        <ele>485.6</ele>
        <time>2015-08-29T06:18:59Z</time>
      </trkpt>
      <trkpt lat="43.10866" lon="-0.46548">
        <ele>486.08</ele>
        <time>2015-08-29T06:19:00Z</time>
      </trkpt>
      <trkpt lat="43.10864" lon="-0.4655">
        <ele>486.56</ele>
        <time>2015-08-29T06:19:02Z</time>
      </trkpt>
      <trkpt lat="43.10864" lon="-0.46552">
        <ele>486.56</ele>
        <time>2015-08-29T06:19:03Z</time>
      </trkpt>
      <trkpt lat="43.10863" lon="-0.46554">
        <ele>487.05</ele>
        <time>2015-08-29T06:19:04Z</time>
      </trkpt>
      <trkpt lat="43.10862" lon="-0.46555">
        <ele>487.53</ele>
        <time>2015-08-29T06:19:05Z</time>
      </trkpt>
      <trkpt lat="43.1086" lon="-0.46557">
        <ele>487.53</ele>
        <time>2015-08-29T06:19:06Z</time>
      </trkpt>
      <trkpt lat="43.10859" lon="-0.46558">
        <ele>488.01</ele>
        <time>2015-08-29T06:19:07Z</time>
      </trkpt>
      <trkpt lat="43.10858" lon="-0.4656">
        <ele>488.01</ele>
        <time>2015-08-29T06:19:08Z</time>
      </trkpt>
      <trkpt lat="43.10848" lon="-0.46573">
        <ele>490.41</ele>
        <time>2015-08-29T06:19:16Z</time>
      </trkpt>
      <trkpt lat="43.10848" lon="-0.46575">
        <ele>490.41</ele>
        <time>2015-08-29T06:19:17Z</time>
      </trkpt>
      <trkpt lat="43.10847" lon="-0.46577">
        <ele>490.89</ele>
        <time>2015-08-29T06:19:18Z</time>
      </trkpt>
      <trkpt lat="43.10845" lon="-0.46579">
        <ele>490.89</ele>
        <time>2015-08-29T06:19:19Z</time>
      </trkpt>
      <trkpt lat="43.10844" lon="-0.46581">
        <ele>490.89</ele>
        <time>2015-08-29T06:19:20Z</time>
      </trkpt>
      <trkpt lat="43.10843" lon="-0.46583">
        <ele>491.37</ele>
        <time>2015-08-29T06:19:21Z</time>
      </trkpt>
      <trkpt lat="43.10841" lon="-0.46585">
        <ele>491.37</ele>
        <time>2015-08-29T06:19:22Z</time>
      </trkpt>
      <trkpt lat="43.1084" lon="-0.46587">
        <ele>491.85</ele>
        <time>2015-08-29T06:19:23Z</time>
      </trkpt>
      <trkpt lat="43.10829" lon="-0.46607">
        <ele>493.29</ele>
        <time>2015-08-29T06:19:34Z</time>
      </trkpt>
      <trkpt lat="43.10828" lon="-0.46611">
        <ele>494.26</ele>
        <time>2015-08-29T06:19:36Z</time>
      </trkpt>
      <trkpt lat="43.10827" lon="-0.46612">
        <ele>494.26</ele>
        <time>2015-08-29T06:19:37Z</time>
      </trkpt>
      <trkpt lat="43.10826" lon="-0.46614">
        <ele>494.74</ele>
        <time>2015-08-29T06:19:38Z</time>
      </trkpt>
      <trkpt lat="43.10824" lon="-0.46616">
        <ele>495.22</ele>
        <time>2015-08-29T06:19:39Z</time>
      </trkpt>
      <trkpt lat="43.10822" lon="-0.46617">
        <ele>495.22</ele>
        <time>2015-08-29T06:19:40Z</time>
      </trkpt>
      <trkpt lat="43.10802" lon="-0.46624">
        <ele>496.18</ele>
        <time>2015-08-29T06:19:51Z</time>
      </trkpt>
      <trkpt lat="43.10781" lon="-0.46617">
        <ele>498.58</ele>
        <time>2015-08-29T06:20:03Z</time>
      </trkpt>
      <trkpt lat="43.1076" lon="-0.46612">
        <ele>501.46</ele>
        <time>2015-08-29T06:20:16Z</time>
      </trkpt>
      <trkpt lat="43.10736" lon="-0.46603">
        <ele>505.31</ele>
        <time>2015-08-29T06:20:30Z</time>
      </trkpt>
      <trkpt lat="43.10711" lon="-0.46593">
        <ele>508.19</ele>
        <time>2015-08-29T06:20:45Z</time>
      </trkpt>
      <trkpt lat="43.10684" lon="-0.46584">
        <ele>511.56</ele>
        <time>2015-08-29T06:21:00Z</time>
      </trkpt>
      <trkpt lat="43.10659" lon="-0.4658">
        <ele>514.44</ele>
        <time>2015-08-29T06:21:14Z</time>
      </trkpt>
      <trkpt lat="43.10645" lon="-0.46579">
        <ele>515.4</ele>
        <time>2015-08-29T06:21:22Z</time>
      </trkpt>
      <trkpt lat="43.10643" lon="-0.46579">
        <ele>515.88</ele>
        <time>2015-08-29T06:21:23Z</time>
      </trkpt>
      <trkpt lat="43.10642" lon="-0.4658">
        <ele>515.88</ele>
        <time>2015-08-29T06:21:24Z</time>
      </trkpt>
      <trkpt lat="43.10616" lon="-0.46591">
        <ele>520.21</ele>
        <time>2015-08-29T06:21:39Z</time>
      </trkpt>
      <trkpt lat="43.10596" lon="-0.46605">
        <ele>522.61</ele>
        <time>2015-08-29T06:21:51Z</time>
      </trkpt>
      <trkpt lat="43.10572" lon="-0.46622">
        <ele>526.94</ele>
        <time>2015-08-29T06:22:06Z</time>
      </trkpt>
      <trkpt lat="43.1055" lon="-0.46642">
        <ele>529.82</ele>
        <time>2015-08-29T06:22:20Z</time>
      </trkpt>
      <trkpt lat="43.10535" lon="-0.46675">
        <ele>532.23</ele>
        <time>2015-08-29T06:22:34Z</time>
      </trkpt>
      <trkpt lat="43.10512" lon="-0.467">
        <ele>534.15</ele>
        <time>2015-08-29T06:22:48Z</time>
      </trkpt>
      <trkpt lat="43.1047" lon="-0.46722">
        <ele>535.11</ele>
        <time>2015-08-29T06:23:04Z</time>
      </trkpt>
      <trkpt lat="43.10422" lon="-0.46765">
        <ele>535.59</ele>
        <time>2015-08-29T06:23:20Z</time>
      </trkpt>
      <trkpt lat="43.10398" lon="-0.46808">
        <ele>536.07</ele>
        <time>2015-08-29T06:23:30Z</time>
      </trkpt>
      <trkpt lat="43.10396" lon="-0.46813">
        <ele>536.07</ele>
        <time>2015-08-29T06:23:31Z</time>
      </trkpt>
      <trkpt lat="43.10395" lon="-0.46831">
        <ele>536.07</ele>
        <time>2015-08-29T06:23:34Z</time>
      </trkpt>
      <trkpt lat="43.10396" lon="-0.46836">
        <ele>535.59</ele>
        <time>2015-08-29T06:23:35Z</time>
      </trkpt>
      <trkpt lat="43.10397" lon="-0.46841">
        <ele>535.59</ele>
        <time>2015-08-29T06:23:36Z</time>
      </trkpt>
      <trkpt lat="43.10399" lon="-0.46847">
        <ele>535.59</ele>
        <time>2015-08-29T06:23:37Z</time>
      </trkpt>
      <trkpt lat="43.10399" lon="-0.46853">
        <ele>535.59</ele>
        <time>2015-08-29T06:23:38Z</time>
      </trkpt>
      <trkpt lat="43.10399" lon="-0.46859">
        <ele>535.11</ele>
        <time>2015-08-29T06:23:39Z</time>
      </trkpt>
      <trkpt lat="43.10399" lon="-0.46864">
        <ele>535.11</ele>
        <time>2015-08-29T06:23:40Z</time>
      </trkpt>
      <trkpt lat="43.10398" lon="-0.4687">
        <ele>535.11</ele>
        <time>2015-08-29T06:23:41Z</time>
      </trkpt>
      <trkpt lat="43.10397" lon="-0.46876">
        <ele>535.11</ele>
        <time>2015-08-29T06:23:42Z</time>
      </trkpt>
      <trkpt lat="43.10397" lon="-0.46882">
        <ele>534.63</ele>
        <time>2015-08-29T06:23:43Z</time>
      </trkpt>
      <trkpt lat="43.10398" lon="-0.46889">
        <ele>534.63</ele>
        <time>2015-08-29T06:23:44Z</time>
      </trkpt>
      <trkpt lat="43.10401" lon="-0.46894">
        <ele>534.63</ele>
        <time>2015-08-29T06:23:45Z</time>
      </trkpt>
      <trkpt lat="43.10404" lon="-0.46898">
        <ele>535.11</ele>
        <time>2015-08-29T06:23:46Z</time>
      </trkpt>
      <trkpt lat="43.10407" lon="-0.46901">
        <ele>535.11</ele>
        <time>2015-08-29T06:23:47Z</time>
      </trkpt>
      <trkpt lat="43.10414" lon="-0.46914">
        <ele>535.11</ele>
        <time>2015-08-29T06:23:50Z</time>
      </trkpt>
      <trkpt lat="43.10415" lon="-0.46919">
        <ele>534.63</ele>
        <time>2015-08-29T06:23:51Z</time>
      </trkpt>
      <trkpt lat="43.10415" lon="-0.46925">
        <ele>534.63</ele>
        <time>2015-08-29T06:23:52Z</time>
      </trkpt>
      <trkpt lat="43.10414" lon="-0.46931">
        <ele>534.63</ele>
        <time>2015-08-29T06:23:53Z</time>
      </trkpt>
      <trkpt lat="43.10413" lon="-0.46937">
        <ele>534.63</ele>
        <time>2015-08-29T06:23:54Z</time>
      </trkpt>
      <trkpt lat="43.10412" lon="-0.46949">
        <ele>534.15</ele>
        <time>2015-08-29T06:23:56Z</time>
      </trkpt>
      <trkpt lat="43.10413" lon="-0.46955">
        <ele>533.67</ele>
        <time>2015-08-29T06:23:57Z</time>
      </trkpt>
      <trkpt lat="43.10414" lon="-0.46961">
        <ele>533.19</ele>
        <time>2015-08-29T06:23:58Z</time>
      </trkpt>
      <trkpt lat="43.10416" lon="-0.46967">
        <ele>532.71</ele>
        <time>2015-08-29T06:23:59Z</time>
      </trkpt>
      <trkpt lat="43.10417" lon="-0.46972">
        <ele>532.23</ele>
        <time>2015-08-29T06:24:00Z</time>
      </trkpt>
      <trkpt lat="43.1042" lon="-0.46977">
        <ele>531.75</ele>
        <time>2015-08-29T06:24:01Z</time>
      </trkpt>
      <trkpt lat="43.10423" lon="-0.46981">
        <ele>531.27</ele>
        <time>2015-08-29T06:24:02Z</time>
      </trkpt>
      <trkpt lat="43.10427" lon="-0.46986">
        <ele>531.27</ele>
        <time>2015-08-29T06:24:03Z</time>
      </trkpt>
      <trkpt lat="43.10432" lon="-0.4699">
        <ele>530.79</ele>
        <time>2015-08-29T06:24:04Z</time>
      </trkpt>
      <trkpt lat="43.10436" lon="-0.46993">
        <ele>530.79</ele>
        <time>2015-08-29T06:24:05Z</time>
      </trkpt>
      <trkpt lat="43.1044" lon="-0.46996">
        <ele>530.79</ele>
        <time>2015-08-29T06:24:06Z</time>
      </trkpt>
      <trkpt lat="43.10449" lon="-0.47003">
        <ele>530.3</ele>
        <time>2015-08-29T06:24:08Z</time>
      </trkpt>
      <trkpt lat="43.10452" lon="-0.47008">
        <ele>530.3</ele>
        <time>2015-08-29T06:24:09Z</time>
      </trkpt>
      <trkpt lat="43.10454" lon="-0.47013">
        <ele>529.82</ele>
        <time>2015-08-29T06:24:10Z</time>
      </trkpt>
      <trkpt lat="43.10455" lon="-0.4702">
        <ele>529.34</ele>
        <time>2015-08-29T06:24:11Z</time>
      </trkpt>
      <trkpt lat="43.10456" lon="-0.47026">
        <ele>528.86</ele>
        <time>2015-08-29T06:24:12Z</time>
      </trkpt>
      <trkpt lat="43.10456" lon="-0.47033">
        <ele>528.38</ele>
        <time>2015-08-29T06:24:13Z</time>
      </trkpt>
      <trkpt lat="43.10456" lon="-0.4704">
        <ele>527.9</ele>
        <time>2015-08-29T06:24:14Z</time>
      </trkpt>
      <trkpt lat="43.10456" lon="-0.47046">
        <ele>527.9</ele>
        <time>2015-08-29T06:24:15Z</time>
      </trkpt>
      <trkpt lat="43.10455" lon="-0.47053">
        <ele>527.42</ele>
        <time>2015-08-29T06:24:16Z</time>
      </trkpt>
      <trkpt lat="43.10454" lon="-0.47059">
        <ele>527.42</ele>
        <time>2015-08-29T06:24:17Z</time>
      </trkpt>
      <trkpt lat="43.1045" lon="-0.47076">
        <ele>526.94</ele>
        <time>2015-08-29T06:24:20Z</time>
      </trkpt>
      <trkpt lat="43.10449" lon="-0.47082">
        <ele>526.46</ele>
        <time>2015-08-29T06:24:21Z</time>
      </trkpt>
      <trkpt lat="43.10446" lon="-0.47093">
        <ele>525.98</ele>
        <time>2015-08-29T06:24:23Z</time>
      </trkpt>
      <trkpt lat="43.10444" lon="-0.47099">
        <ele>525.98</ele>
        <time>2015-08-29T06:24:24Z</time>
      </trkpt>
      <trkpt lat="43.10439" lon="-0.47134">
        <ele>524.06</ele>
        <time>2015-08-29T06:24:30Z</time>
      </trkpt>
      <trkpt lat="43.10438" lon="-0.47139">
        <ele>524.06</ele>
        <time>2015-08-29T06:24:31Z</time>
      </trkpt>
      <trkpt lat="43.10428" lon="-0.47171">
        <ele>522.61</ele>
        <time>2015-08-29T06:24:37Z</time>
      </trkpt>
      <trkpt lat="43.10411" lon="-0.47245">
        <ele>520.69</ele>
        <time>2015-08-29T06:24:50Z</time>
      </trkpt>
      <trkpt lat="43.10414" lon="-0.47254">
        <ele>520.69</ele>
        <time>2015-08-29T06:24:52Z</time>
      </trkpt>
      <trkpt lat="43.10431" lon="-0.47274">
        <ele>521.17</ele>
        <time>2015-08-29T06:24:56Z</time>
      </trkpt>
      <trkpt lat="43.10436" lon="-0.47278">
        <ele>521.65</ele>
        <time>2015-08-29T06:24:57Z</time>
      </trkpt>
      <trkpt lat="43.10448" lon="-0.47286">
        <ele>522.13</ele>
        <time>2015-08-29T06:24:59Z</time>
      </trkpt>
      <trkpt lat="43.10453" lon="-0.4729">
        <ele>522.61</ele>
        <time>2015-08-29T06:25:00Z</time>
      </trkpt>
      <trkpt lat="43.10458" lon="-0.47293">
        <ele>522.61</ele>
        <time>2015-08-29T06:25:01Z</time>
      </trkpt>
      <trkpt lat="43.10462" lon="-0.47297">
        <ele>523.09</ele>
        <time>2015-08-29T06:25:02Z</time>
      </trkpt>
      <trkpt lat="43.10465" lon="-0.47302">
        <ele>523.58</ele>
        <time>2015-08-29T06:25:03Z</time>
      </trkpt>
      <trkpt lat="43.10466" lon="-0.47309">
        <ele>523.58</ele>
        <time>2015-08-29T06:25:04Z</time>
      </trkpt>
      <trkpt lat="43.10466" lon="-0.47317">
        <ele>523.58</ele>
        <time>2015-08-29T06:25:05Z</time>
      </trkpt>
      <trkpt lat="43.10467" lon="-0.47325">
        <ele>523.58</ele>
        <time>2015-08-29T06:25:06Z</time>
      </trkpt>
      <trkpt lat="43.10467" lon="-0.47332">
        <ele>523.58</ele>
        <time>2015-08-29T06:25:07Z</time>
      </trkpt>
      <trkpt lat="43.10466" lon="-0.47339">
        <ele>524.06</ele>
        <time>2015-08-29T06:25:08Z</time>
      </trkpt>
      <trkpt lat="43.10463" lon="-0.47359">
        <ele>523.58</ele>
        <time>2015-08-29T06:25:11Z</time>
      </trkpt>
      <trkpt lat="43.10461" lon="-0.47366">
        <ele>523.58</ele>
        <time>2015-08-29T06:25:12Z</time>
      </trkpt>
      <trkpt lat="43.1046" lon="-0.47372">
        <ele>523.58</ele>
        <time>2015-08-29T06:25:13Z</time>
      </trkpt>
      <trkpt lat="43.10457" lon="-0.47377">
        <ele>523.58</ele>
        <time>2015-08-29T06:25:14Z</time>
      </trkpt>
      <trkpt lat="43.10455" lon="-0.47383">
        <ele>523.58</ele>
        <time>2015-08-29T06:25:15Z</time>
      </trkpt>
      <trkpt lat="43.10452" lon="-0.47394">
        <ele>522.61</ele>
        <time>2015-08-29T06:25:17Z</time>
      </trkpt>
      <trkpt lat="43.10451" lon="-0.47401">
        <ele>522.61</ele>
        <time>2015-08-29T06:25:18Z</time>
      </trkpt>
      <trkpt lat="43.10451" lon="-0.47407">
        <ele>522.13</ele>
        <time>2015-08-29T06:25:19Z</time>
      </trkpt>
      <trkpt lat="43.10453" lon="-0.47412">
        <ele>522.13</ele>
        <time>2015-08-29T06:25:20Z</time>
      </trkpt>
      <trkpt lat="43.10456" lon="-0.47418">
        <ele>521.65</ele>
        <time>2015-08-29T06:25:21Z</time>
      </trkpt>
      <trkpt lat="43.1046" lon="-0.47422">
        <ele>521.65</ele>
        <time>2015-08-29T06:25:22Z</time>
      </trkpt>
      <trkpt lat="43.10464" lon="-0.47427">
        <ele>521.65</ele>
        <time>2015-08-29T06:25:23Z</time>
      </trkpt>
      <trkpt lat="43.10481" lon="-0.47442">
        <ele>522.13</ele>
        <time>2015-08-29T06:25:27Z</time>
      </trkpt>
      <trkpt lat="43.10492" lon="-0.47448">
        <ele>522.13</ele>
        <time>2015-08-29T06:25:29Z</time>
      </trkpt>
      <trkpt lat="43.10497" lon="-0.4745">
        <ele>522.61</ele>
        <time>2015-08-29T06:25:30Z</time>
      </trkpt>
      <trkpt lat="43.10501" lon="-0.47453">
        <ele>523.09</ele>
        <time>2015-08-29T06:25:31Z</time>
      </trkpt>
      <trkpt lat="43.10505" lon="-0.47455">
        <ele>523.09</ele>
        <time>2015-08-29T06:25:32Z</time>
      </trkpt>
      <trkpt lat="43.10509" lon="-0.4746">
        <ele>523.58</ele>
        <time>2015-08-29T06:25:33Z</time>
      </trkpt>
      <trkpt lat="43.10512" lon="-0.47465">
        <ele>523.58</ele>
        <time>2015-08-29T06:25:34Z</time>
      </trkpt>
      <trkpt lat="43.10513" lon="-0.47472">
        <ele>523.58</ele>
        <time>2015-08-29T06:25:35Z</time>
      </trkpt>
      <trkpt lat="43.10514" lon="-0.47478">
        <ele>523.58</ele>
        <time>2015-08-29T06:25:36Z</time>
      </trkpt>
      <trkpt lat="43.10514" lon="-0.47484">
        <ele>523.09</ele>
        <time>2015-08-29T06:25:37Z</time>
      </trkpt>
      <trkpt lat="43.10514" lon="-0.4749">
        <ele>522.61</ele>
        <time>2015-08-29T06:25:38Z</time>
      </trkpt>
      <trkpt lat="43.10503" lon="-0.47575">
        <ele>519.73</ele>
        <time>2015-08-29T06:25:52Z</time>
      </trkpt>
      <trkpt lat="43.10501" lon="-0.47581">
        <ele>519.73</ele>
        <time>2015-08-29T06:25:53Z</time>
      </trkpt>
      <trkpt lat="43.105" lon="-0.47587">
        <ele>519.25</ele>
        <time>2015-08-29T06:25:54Z</time>
      </trkpt>
      <trkpt lat="43.10499" lon="-0.47594">
        <ele>519.25</ele>
        <time>2015-08-29T06:25:55Z</time>
      </trkpt>
      <trkpt lat="43.10499" lon="-0.47601">
        <ele>518.77</ele>
        <time>2015-08-29T06:25:56Z</time>
      </trkpt>
      <trkpt lat="43.105" lon="-0.47607">
        <ele>518.29</ele>
        <time>2015-08-29T06:25:57Z</time>
      </trkpt>
      <trkpt lat="43.10502" lon="-0.47612">
        <ele>518.29</ele>
        <time>2015-08-29T06:25:58Z</time>
      </trkpt>
      <trkpt lat="43.10505" lon="-0.47618">
        <ele>517.81</ele>
        <time>2015-08-29T06:25:59Z</time>
      </trkpt>
      <trkpt lat="43.10516" lon="-0.47642">
        <ele>516.85</ele>
        <time>2015-08-29T06:26:03Z</time>
      </trkpt>
      <trkpt lat="43.10517" lon="-0.47649">
        <ele>516.85</ele>
        <time>2015-08-29T06:26:04Z</time>
      </trkpt>
      <trkpt lat="43.10517" lon="-0.47656">
        <ele>516.85</ele>
        <time>2015-08-29T06:26:05Z</time>
      </trkpt>
      <trkpt lat="43.10515" lon="-0.47662">
        <ele>516.85</ele>
        <time>2015-08-29T06:26:06Z</time>
      </trkpt>
      <trkpt lat="43.10513" lon="-0.47668">
        <ele>517.33</ele>
        <time>2015-08-29T06:26:07Z</time>
      </trkpt>
      <trkpt lat="43.1051" lon="-0.47674">
        <ele>517.33</ele>
        <time>2015-08-29T06:26:08Z</time>
      </trkpt>
      <trkpt lat="43.10505" lon="-0.47685">
        <ele>517.33</ele>
        <time>2015-08-29T06:26:10Z</time>
      </trkpt>
      <trkpt lat="43.10501" lon="-0.47691">
        <ele>516.85</ele>
        <time>2015-08-29T06:26:11Z</time>
      </trkpt>
      <trkpt lat="43.10498" lon="-0.47696">
        <ele>516.85</ele>
        <time>2015-08-29T06:26:12Z</time>
      </trkpt>
      <trkpt lat="43.10495" lon="-0.47699">
        <ele>516.85</ele>
        <time>2015-08-29T06:26:13Z</time>
      </trkpt>
      <trkpt lat="43.10491" lon="-0.47703">
        <ele>516.85</ele>
        <time>2015-08-29T06:26:14Z</time>
      </trkpt>
      <trkpt lat="43.10487" lon="-0.47705">
        <ele>516.85</ele>
        <time>2015-08-29T06:26:15Z</time>
      </trkpt>
      <trkpt lat="43.10482" lon="-0.47706">
        <ele>516.85</ele>
        <time>2015-08-29T06:26:16Z</time>
      </trkpt>
      <trkpt lat="43.10477" lon="-0.47707">
        <ele>517.33</ele>
        <time>2015-08-29T06:26:17Z</time>
      </trkpt>
      <trkpt lat="43.10473" lon="-0.47706">
        <ele>517.33</ele>
        <time>2015-08-29T06:26:18Z</time>
      </trkpt>
      <trkpt lat="43.10469" lon="-0.47704">
        <ele>517.33</ele>
        <time>2015-08-29T06:26:19Z</time>
      </trkpt>
      <trkpt lat="43.10464" lon="-0.47702">
        <ele>516.85</ele>
        <time>2015-08-29T06:26:20Z</time>
      </trkpt>
      <trkpt lat="43.1046" lon="-0.477">
        <ele>516.85</ele>
        <time>2015-08-29T06:26:21Z</time>
      </trkpt>
      <trkpt lat="43.10455" lon="-0.47699">
        <ele>516.85</ele>
        <time>2015-08-29T06:26:22Z</time>
      </trkpt>
      <trkpt lat="43.10451" lon="-0.47698">
        <ele>516.37</ele>
        <time>2015-08-29T06:26:23Z</time>
      </trkpt>
      <trkpt lat="43.10446" lon="-0.47699">
        <ele>516.37</ele>
        <time>2015-08-29T06:26:24Z</time>
      </trkpt>
      <trkpt lat="43.10441" lon="-0.47702">
        <ele>516.37</ele>
        <time>2015-08-29T06:26:25Z</time>
      </trkpt>
      <trkpt lat="43.10438" lon="-0.47708">
        <ele>516.37</ele>
        <time>2015-08-29T06:26:26Z</time>
      </trkpt>
      <trkpt lat="43.10435" lon="-0.47713">
        <ele>516.37</ele>
        <time>2015-08-29T06:26:27Z</time>
      </trkpt>
      <trkpt lat="43.10433" lon="-0.47719">
        <ele>515.88</ele>
        <time>2015-08-29T06:26:28Z</time>
      </trkpt>
      <trkpt lat="43.1042" lon="-0.4779">
        <ele>512.04</ele>
        <time>2015-08-29T06:26:40Z</time>
      </trkpt>
      <trkpt lat="43.10419" lon="-0.47797">
        <ele>511.56</ele>
        <time>2015-08-29T06:26:41Z</time>
      </trkpt>
      <trkpt lat="43.10417" lon="-0.47802">
        <ele>511.56</ele>
        <time>2015-08-29T06:26:42Z</time>
      </trkpt>
      <trkpt lat="43.104" lon="-0.47835">
        <ele>510.12</ele>
        <time>2015-08-29T06:26:48Z</time>
      </trkpt>
      <trkpt lat="43.10399" lon="-0.4784">
        <ele>510.12</ele>
        <time>2015-08-29T06:26:49Z</time>
      </trkpt>
      <trkpt lat="43.10401" lon="-0.47847">
        <ele>510.12</ele>
        <time>2015-08-29T06:26:50Z</time>
      </trkpt>
      <trkpt lat="43.10406" lon="-0.47853">
        <ele>510.12</ele>
        <time>2015-08-29T06:26:51Z</time>
      </trkpt>
      <trkpt lat="43.10412" lon="-0.47858">
        <ele>510.12</ele>
        <time>2015-08-29T06:26:52Z</time>
      </trkpt>
      <trkpt lat="43.10417" lon="-0.47864">
        <ele>509.64</ele>
        <time>2015-08-29T06:26:53Z</time>
      </trkpt>
      <trkpt lat="43.10422" lon="-0.47869">
        <ele>509.64</ele>
        <time>2015-08-29T06:26:54Z</time>
      </trkpt>
      <trkpt lat="43.10432" lon="-0.47879">
        <ele>509.16</ele>
        <time>2015-08-29T06:26:56Z</time>
      </trkpt>
      <trkpt lat="43.10435" lon="-0.47885">
        <ele>509.16</ele>
        <time>2015-08-29T06:26:57Z</time>
      </trkpt>
      <trkpt lat="43.10438" lon="-0.4789">
        <ele>508.67</ele>
        <time>2015-08-29T06:26:58Z</time>
      </trkpt>
      <trkpt lat="43.10439" lon="-0.47896">
        <ele>508.67</ele>
        <time>2015-08-29T06:26:59Z</time>
      </trkpt>
      <trkpt lat="43.1044" lon="-0.47902">
        <ele>509.16</ele>
        <time>2015-08-29T06:27:00Z</time>
      </trkpt>
      <trkpt lat="43.10441" lon="-0.47909">
        <ele>509.64</ele>
        <time>2015-08-29T06:27:01Z</time>
      </trkpt>
      <trkpt lat="43.1044" lon="-0.47916">
        <ele>509.64</ele>
        <time>2015-08-29T06:27:02Z</time>
      </trkpt>
      <trkpt lat="43.1044" lon="-0.47944">
        <ele>509.16</ele>
        <time>2015-08-29T06:27:06Z</time>
      </trkpt>
      <trkpt lat="43.10441" lon="-0.47951">
        <ele>509.16</ele>
        <time>2015-08-29T06:27:07Z</time>
      </trkpt>
      <trkpt lat="43.10443" lon="-0.47958">
        <ele>509.16</ele>
        <time>2015-08-29T06:27:08Z</time>
      </trkpt>
      <trkpt lat="43.10446" lon="-0.47964">
        <ele>508.67</ele>
        <time>2015-08-29T06:27:09Z</time>
      </trkpt>
      <trkpt lat="43.1045" lon="-0.47969">
        <ele>508.67</ele>
        <time>2015-08-29T06:27:10Z</time>
      </trkpt>
      <trkpt lat="43.10452" lon="-0.47975">
        <ele>509.16</ele>
        <time>2015-08-29T06:27:11Z</time>
      </trkpt>
      <trkpt lat="43.10455" lon="-0.47981">
        <ele>509.16</ele>
        <time>2015-08-29T06:27:12Z</time>
      </trkpt>
      <trkpt lat="43.10456" lon="-0.47988">
        <ele>509.64</ele>
        <time>2015-08-29T06:27:13Z</time>
      </trkpt>
      <trkpt lat="43.10455" lon="-0.47995">
        <ele>510.12</ele>
        <time>2015-08-29T06:27:14Z</time>
      </trkpt>
      <trkpt lat="43.10454" lon="-0.48003">
        <ele>510.6</ele>
        <time>2015-08-29T06:27:15Z</time>
      </trkpt>
      <trkpt lat="43.10451" lon="-0.48009">
        <ele>511.56</ele>
        <time>2015-08-29T06:27:16Z</time>
      </trkpt>
      <trkpt lat="43.10447" lon="-0.48014">
        <ele>511.56</ele>
        <time>2015-08-29T06:27:17Z</time>
      </trkpt>
      <trkpt lat="43.10443" lon="-0.48018">
        <ele>512.52</ele>
        <time>2015-08-29T06:27:18Z</time>
      </trkpt>
      <trkpt lat="43.10438" lon="-0.48021">
        <ele>513.48</ele>
        <time>2015-08-29T06:27:19Z</time>
      </trkpt>
      <trkpt lat="43.10433" lon="-0.48023">
        <ele>514.44</ele>
        <time>2015-08-29T06:27:20Z</time>
      </trkpt>
      <trkpt lat="43.10428" lon="-0.48025">
        <ele>514.92</ele>
        <time>2015-08-29T06:27:21Z</time>
      </trkpt>
      <trkpt lat="43.10423" lon="-0.48027">
        <ele>515.4</ele>
        <time>2015-08-29T06:27:22Z</time>
      </trkpt>
      <trkpt lat="43.10359" lon="-0.48052">
        <ele>516.85</ele>
        <time>2015-08-29T06:27:36Z</time>
      </trkpt>
      <trkpt lat="43.10345" lon="-0.48056">
        <ele>516.85</ele>
        <time>2015-08-29T06:27:39Z</time>
      </trkpt>
      <trkpt lat="43.1034" lon="-0.48057">
        <ele>517.33</ele>
        <time>2015-08-29T06:27:40Z</time>
      </trkpt>
      <trkpt lat="43.10336" lon="-0.48057">
        <ele>517.33</ele>
        <time>2015-08-29T06:27:41Z</time>
      </trkpt>
      <trkpt lat="43.10271" lon="-0.4804">
        <ele>518.77</ele>
        <time>2015-08-29T06:27:56Z</time>
      </trkpt>
      <trkpt lat="43.10267" lon="-0.48041">
        <ele>518.29</ele>
        <time>2015-08-29T06:27:57Z</time>
      </trkpt>
      <trkpt lat="43.10263" lon="-0.48043">
        <ele>518.29</ele>
        <time>2015-08-29T06:27:58Z</time>
      </trkpt>
      <trkpt lat="43.10259" lon="-0.48046">
        <ele>518.29</ele>
        <time>2015-08-29T06:27:59Z</time>
      </trkpt>
      <trkpt lat="43.10255" lon="-0.4805">
        <ele>518.29</ele>
        <time>2015-08-29T06:28:00Z</time>
      </trkpt>
      <trkpt lat="43.10252" lon="-0.48055">
        <ele>518.29</ele>
        <time>2015-08-29T06:28:01Z</time>
      </trkpt>
      <trkpt lat="43.10248" lon="-0.48059">
        <ele>518.77</ele>
        <time>2015-08-29T06:28:02Z</time>
      </trkpt>
      <trkpt lat="43.10233" lon="-0.48087">
        <ele>518.29</ele>
        <time>2015-08-29T06:28:13Z</time>
      </trkpt>
      <trkpt lat="43.1023" lon="-0.48118">
        <ele>519.25</ele>
        <time>2015-08-29T06:28:28Z</time>
      </trkpt>
      <trkpt lat="43.10222" lon="-0.48136">
        <ele>519.25</ele>
        <time>2015-08-29T06:28:35Z</time>
      </trkpt>
      <trkpt lat="43.10219" lon="-0.48136">
        <ele>519.73</ele>
        <time>2015-08-29T06:28:36Z</time>
      </trkpt>
      <trkpt lat="43.10217" lon="-0.48137">
        <ele>519.73</ele>
        <time>2015-08-29T06:28:37Z</time>
      </trkpt>
      <trkpt lat="43.10215" lon="-0.48138">
        <ele>519.73</ele>
        <time>2015-08-29T06:28:38Z</time>
      </trkpt>
      <trkpt lat="43.10212" lon="-0.48139">
        <ele>519.73</ele>
        <time>2015-08-29T06:28:39Z</time>
      </trkpt>
      <trkpt lat="43.10172" lon="-0.48159">
        <ele>520.69</ele>
        <time>2015-08-29T06:28:53Z</time>
      </trkpt>
      <trkpt lat="43.10134" lon="-0.4816">
        <ele>522.13</ele>
        <time>2015-08-29T06:29:05Z</time>
      </trkpt>
      <trkpt lat="43.10129" lon="-0.4816">
        <ele>522.13</ele>
        <time>2015-08-29T06:29:07Z</time>
      </trkpt>
      <trkpt lat="43.10128" lon="-0.4816">
        <ele>522.13</ele>
        <time>2015-08-29T06:29:08Z</time>
      </trkpt>
      <trkpt lat="43.10126" lon="-0.4816">
        <ele>522.61</ele>
        <time>2015-08-29T06:29:09Z</time>
      </trkpt>
      <trkpt lat="43.10125" lon="-0.4816">
        <ele>522.61</ele>
        <time>2015-08-29T06:29:10Z</time>
      </trkpt>
      <trkpt lat="43.10108" lon="-0.48167">
        <ele>523.58</ele>
        <time>2015-08-29T06:29:22Z</time>
      </trkpt>
      <trkpt lat="43.10081" lon="-0.48167">
        <ele>525.02</ele>
        <time>2015-08-29T06:29:34Z</time>
      </trkpt>
      <trkpt lat="43.1005" lon="-0.48171">
        <ele>530.79</ele>
        <time>2015-08-29T06:29:48Z</time>
      </trkpt>
      <trkpt lat="43.10022" lon="-0.48175">
        <ele>537.51</ele>
        <time>2015-08-29T06:30:01Z</time>
      </trkpt>
      <trkpt lat="43.09997" lon="-0.48172">
        <ele>541.84</ele>
        <time>2015-08-29T06:30:14Z</time>
      </trkpt>
      <trkpt lat="43.09974" lon="-0.48172">
        <ele>543.28</ele>
        <time>2015-08-29T06:30:28Z</time>
      </trkpt>
      <trkpt lat="43.09951" lon="-0.48172">
        <ele>543.76</ele>
        <time>2015-08-29T06:30:41Z</time>
      </trkpt>
      <trkpt lat="43.09923" lon="-0.48172">
        <ele>548.09</ele>
        <time>2015-08-29T06:30:55Z</time>
      </trkpt>
      <trkpt lat="43.09898" lon="-0.48172">
        <ele>550.97</ele>
        <time>2015-08-29T06:31:07Z</time>
      </trkpt>
      <trkpt lat="43.09878" lon="-0.48187">
        <ele>550.49</ele>
        <time>2015-08-29T06:31:20Z</time>
      </trkpt>
      <trkpt lat="43.09854" lon="-0.48209">
        <ele>552.9</ele>
        <time>2015-08-29T06:31:35Z</time>
      </trkpt>
      <trkpt lat="43.09841" lon="-0.48223">
        <ele>557.22</ele>
        <time>2015-08-29T06:31:45Z</time>
      </trkpt>
      <trkpt lat="43.09839" lon="-0.48225">
        <ele>557.22</ele>
        <time>2015-08-29T06:31:46Z</time>
      </trkpt>
      <trkpt lat="43.09837" lon="-0.48227">
        <ele>557.7</ele>
        <time>2015-08-29T06:31:47Z</time>
      </trkpt>
      <trkpt lat="43.09835" lon="-0.48228">
        <ele>557.7</ele>
        <time>2015-08-29T06:31:48Z</time>
      </trkpt>
      <trkpt lat="43.09833" lon="-0.48229">
        <ele>558.18</ele>
        <time>2015-08-29T06:31:49Z</time>
      </trkpt>
      <trkpt lat="43.0983" lon="-0.48231">
        <ele>558.18</ele>
        <time>2015-08-29T06:31:50Z</time>
      </trkpt>
      <trkpt lat="43.09828" lon="-0.48231">
        <ele>558.66</ele>
        <time>2015-08-29T06:31:51Z</time>
      </trkpt>
      <trkpt lat="43.09825" lon="-0.48232">
        <ele>558.66</ele>
        <time>2015-08-29T06:31:52Z</time>
      </trkpt>
      <trkpt lat="43.09822" lon="-0.48232">
        <ele>558.66</ele>
        <time>2015-08-29T06:31:53Z</time>
      </trkpt>
      <trkpt lat="43.09812" lon="-0.48239">
        <ele>559.14</ele>
        <time>2015-08-29T06:31:59Z</time>
      </trkpt>
      <trkpt lat="43.09812" lon="-0.48241">
        <ele>559.14</ele>
        <time>2015-08-29T06:32:00Z</time>
      </trkpt>
      <trkpt lat="43.09813" lon="-0.48244">
        <ele>559.62</ele>
        <time>2015-08-29T06:32:01Z</time>
      </trkpt>
      <trkpt lat="43.09814" lon="-0.48246">
        <ele>559.62</ele>
        <time>2015-08-29T06:32:02Z</time>
      </trkpt>
      <trkpt lat="43.09815" lon="-0.48249">
        <ele>560.11</ele>
        <time>2015-08-29T06:32:03Z</time>
      </trkpt>
      <trkpt lat="43.09835" lon="-0.48244">
        <ele>561.07</ele>
        <time>2015-08-29T06:32:14Z</time>
      </trkpt>
      <trkpt lat="43.09863" lon="-0.48225">
        <ele>565.87</ele>
        <time>2015-08-29T06:32:27Z</time>
      </trkpt>
      <trkpt lat="43.09887" lon="-0.48214">
        <ele>570.68</ele>
        <time>2015-08-29T06:32:40Z</time>
      </trkpt>
      <trkpt lat="43.09911" lon="-0.48213">
        <ele>573.08</ele>
        <time>2015-08-29T06:32:52Z</time>
      </trkpt>
      <trkpt lat="43.09939" lon="-0.48223">
        <ele>577.89</ele>
        <time>2015-08-29T06:33:07Z</time>
      </trkpt>
      <trkpt lat="43.09962" lon="-0.48234">
        <ele>582.22</ele>
        <time>2015-08-29T06:33:20Z</time>
      </trkpt>
      <trkpt lat="43.09982" lon="-0.48244">
        <ele>582.7</ele>
        <time>2015-08-29T06:33:31Z</time>
      </trkpt>
      <trkpt lat="43.09995" lon="-0.48253">
        <ele>582.7</ele>
        <time>2015-08-29T06:33:38Z</time>
      </trkpt>
      <trkpt lat="43.10001" lon="-0.4826">
        <ele>583.18</ele>
        <time>2015-08-29T06:33:42Z</time>
      </trkpt>
      <trkpt lat="43.1002" lon="-0.4829">
        <ele>580.77</ele>
        <time>2015-08-29T06:33:54Z</time>
      </trkpt>
      <trkpt lat="43.1003" lon="-0.48337">
        <ele>577.89</ele>
        <time>2015-08-29T06:34:08Z</time>
      </trkpt>
      <trkpt lat="43.10033" lon="-0.48374">
        <ele>577.89</ele>
        <time>2015-08-29T06:34:20Z</time>
      </trkpt>
      <trkpt lat="43.1003" lon="-0.48416">
        <ele>580.29</ele>
        <time>2015-08-29T06:34:34Z</time>
      </trkpt>
      <trkpt lat="43.10033" lon="-0.48463">
        <ele>584.62</ele>
        <time>2015-08-29T06:34:49Z</time>
      </trkpt>
      <trkpt lat="43.10036" lon="-0.48482">
        <ele>585.58</ele>
        <time>2015-08-29T06:34:56Z</time>
      </trkpt>
      <trkpt lat="43.10036" lon="-0.485">
        <ele>587.5</ele>
        <time>2015-08-29T06:35:03Z</time>
      </trkpt>
      <trkpt lat="43.10037" lon="-0.48523">
        <ele>591.35</ele>
        <time>2015-08-29T06:35:12Z</time>
      </trkpt>
      <trkpt lat="43.10031" lon="-0.4855">
        <ele>595.19</ele>
        <time>2015-08-29T06:35:23Z</time>
      </trkpt>
      <trkpt lat="43.1003" lon="-0.48556">
        <ele>596.15</ele>
        <time>2015-08-29T06:35:25Z</time>
      </trkpt>
      <trkpt lat="43.10031" lon="-0.48561">
        <ele>596.64</ele>
        <time>2015-08-29T06:35:27Z</time>
      </trkpt>
      <trkpt lat="43.10029" lon="-0.48585">
        <ele>598.56</ele>
        <time>2015-08-29T06:35:36Z</time>
      </trkpt>
      <trkpt lat="43.10017" lon="-0.48615">
        <ele>601.44</ele>
        <time>2015-08-29T06:35:51Z</time>
      </trkpt>
      <trkpt lat="43.10012" lon="-0.48624">
        <ele>601.44</ele>
        <time>2015-08-29T06:35:57Z</time>
      </trkpt>
      <trkpt lat="43.1" lon="-0.48637">
        <ele>603.85</ele>
        <time>2015-08-29T06:36:07Z</time>
      </trkpt>
      <trkpt lat="43.09983" lon="-0.48652">
        <ele>605.29</ele>
        <time>2015-08-29T06:36:20Z</time>
      </trkpt>
      <trkpt lat="43.0998" lon="-0.48656">
        <ele>605.77</ele>
        <time>2015-08-29T06:36:24Z</time>
      </trkpt>
      <trkpt lat="43.09961" lon="-0.48675">
        <ele>607.21</ele>
        <time>2015-08-29T06:36:37Z</time>
      </trkpt>
      <trkpt lat="43.09944" lon="-0.48682">
        <ele>609.61</ele>
        <time>2015-08-29T06:36:48Z</time>
      </trkpt>
      <trkpt lat="43.09935" lon="-0.48684">
        <ele>621.63</ele>
        <time>2015-08-29T06:39:09Z</time>
      </trkpt>
      <trkpt lat="43.09922" lon="-0.48687">
        <ele>621.63</ele>
        <time>2015-08-29T06:39:19Z</time>
      </trkpt>
      <trkpt lat="43.09906" lon="-0.48686">
        <ele>623.07</ele>
        <time>2015-08-29T06:39:32Z</time>
      </trkpt>
      <trkpt lat="43.09888" lon="-0.48676">
        <ele>627.4</ele>
        <time>2015-08-29T06:39:45Z</time>
      </trkpt>
      <trkpt lat="43.09874" lon="-0.48668">
        <ele>629.32</ele>
        <time>2015-08-29T06:39:55Z</time>
      </trkpt>
      <trkpt lat="43.09863" lon="-0.48663">
        <ele>630.28</ele>
        <time>2015-08-29T06:40:01Z</time>
      </trkpt>
      <trkpt lat="43.09845" lon="-0.48645">
        <ele>633.65</ele>
        <time>2015-08-29T06:40:15Z</time>
      </trkpt>
      <trkpt lat="43.09828" lon="-0.48622">
        <ele>636.53</ele>
        <time>2015-08-29T06:40:27Z</time>
      </trkpt>
      <trkpt lat="43.0982" lon="-0.48635">
        <ele>635.09</ele>
        <time>2015-08-29T06:40:37Z</time>
      </trkpt>
      <trkpt lat="43.09821" lon="-0.48636">
        <ele>635.09</ele>
        <time>2015-08-29T06:40:38Z</time>
      </trkpt>
      <trkpt lat="43.09829" lon="-0.48649">
        <ele>634.61</ele>
        <time>2015-08-29T06:40:45Z</time>
      </trkpt>
      <trkpt lat="43.09833" lon="-0.48651">
        <ele>634.61</ele>
        <time>2015-08-29T06:40:47Z</time>
      </trkpt>
      <trkpt lat="43.09843" lon="-0.48685">
        <ele>633.65</ele>
        <time>2015-08-29T06:40:58Z</time>
      </trkpt>
      <trkpt lat="43.09856" lon="-0.48721">
        <ele>632.68</ele>
        <time>2015-08-29T06:41:10Z</time>
      </trkpt>
      <trkpt lat="43.09862" lon="-0.48746">
        <ele>631.72</ele>
        <time>2015-08-29T06:41:19Z</time>
      </trkpt>
      <trkpt lat="43.09874" lon="-0.48779">
        <ele>636.53</ele>
        <time>2015-08-29T06:41:33Z</time>
      </trkpt>
      <trkpt lat="43.09875" lon="-0.48789">
        <ele>637.49</ele>
        <time>2015-08-29T06:41:37Z</time>
      </trkpt>
      <trkpt lat="43.09878" lon="-0.48802">
        <ele>637.49</ele>
        <time>2015-08-29T06:41:42Z</time>
      </trkpt>
      <trkpt lat="43.09891" lon="-0.48833">
        <ele>640.86</ele>
        <time>2015-08-29T06:41:54Z</time>
      </trkpt>
      <trkpt lat="43.09897" lon="-0.48854">
        <ele>641.82</ele>
        <time>2015-08-29T06:42:02Z</time>
      </trkpt>
      <trkpt lat="43.09911" lon="-0.4888">
        <ele>642.3</ele>
        <time>2015-08-29T06:42:13Z</time>
      </trkpt>
      <trkpt lat="43.09915" lon="-0.48891">
        <ele>642.78</ele>
        <time>2015-08-29T06:42:17Z</time>
      </trkpt>
      <trkpt lat="43.09923" lon="-0.48921">
        <ele>643.26</ele>
        <time>2015-08-29T06:42:29Z</time>
      </trkpt>
      <trkpt lat="43.09925" lon="-0.48924">
        <ele>643.26</ele>
        <time>2015-08-29T06:42:31Z</time>
      </trkpt>
      <trkpt lat="43.0993" lon="-0.48926">
        <ele>643.74</ele>
        <time>2015-08-29T06:42:34Z</time>
      </trkpt>
      <trkpt lat="43.0994" lon="-0.48938">
        <ele>646.14</ele>
        <time>2015-08-29T06:42:39Z</time>
      </trkpt>
      <trkpt lat="43.09953" lon="-0.48949">
        <ele>649.03</ele>
        <time>2015-08-29T06:42:47Z</time>
      </trkpt>
      <trkpt lat="43.09975" lon="-0.48965">
        <ele>655.28</ele>
        <time>2015-08-29T06:43:01Z</time>
      </trkpt>
      <trkpt lat="43.09991" lon="-0.48969">
        <ele>659.12</ele>
        <time>2015-08-29T06:43:09Z</time>
      </trkpt>
      <trkpt lat="43.10016" lon="-0.48973">
        <ele>663.93</ele>
        <time>2015-08-29T06:43:22Z</time>
      </trkpt>
      <trkpt lat="43.10041" lon="-0.48968">
        <ele>668.25</ele>
        <time>2015-08-29T06:43:34Z</time>
      </trkpt>
      <trkpt lat="43.1006" lon="-0.4896">
        <ele>674.5</ele>
        <time>2015-08-29T06:43:45Z</time>
      </trkpt>
      <trkpt lat="43.10063" lon="-0.48957">
        <ele>675.94</ele>
        <time>2015-08-29T06:43:48Z</time>
      </trkpt>
      <trkpt lat="43.10064" lon="-0.48949">
        <ele>678.35</ele>
        <time>2015-08-29T06:43:52Z</time>
      </trkpt>
      <trkpt lat="43.10083" lon="-0.48913">
        <ele>690.84</ele>
        <time>2015-08-29T06:44:08Z</time>
      </trkpt>
      <trkpt lat="43.10097" lon="-0.48893">
        <ele>697.09</ele>
        <time>2015-08-29T06:44:20Z</time>
      </trkpt>
      <trkpt lat="43.10116" lon="-0.48887">
        <ele>700.46</ele>
        <time>2015-08-29T06:44:31Z</time>
      </trkpt>
      <trkpt lat="43.10125" lon="-0.48907">
        <ele>701.9</ele>
        <time>2015-08-29T06:44:41Z</time>
      </trkpt>
      <trkpt lat="43.10129" lon="-0.48916">
        <ele>699.98</ele>
        <time>2015-08-29T06:44:45Z</time>
      </trkpt>
      <trkpt lat="43.10142" lon="-0.48946">
        <ele>695.17</ele>
        <time>2015-08-29T06:44:59Z</time>
      </trkpt>
      <trkpt lat="43.10153" lon="-0.48981">
        <ele>689.4</ele>
        <time>2015-08-29T06:45:13Z</time>
      </trkpt>
      <trkpt lat="43.10156" lon="-0.49013">
        <ele>687</ele>
        <time>2015-08-29T06:45:25Z</time>
      </trkpt>
      <trkpt lat="43.10164" lon="-0.49051">
        <ele>686.52</ele>
        <time>2015-08-29T06:45:39Z</time>
      </trkpt>
      <trkpt lat="43.10167" lon="-0.49083">
        <ele>686.52</ele>
        <time>2015-08-29T06:45:51Z</time>
      </trkpt>
      <trkpt lat="43.10169" lon="-0.4912">
        <ele>688.44</ele>
        <time>2015-08-29T06:46:03Z</time>
      </trkpt>
      <trkpt lat="43.10185" lon="-0.49169">
        <ele>690.36</ele>
        <time>2015-08-29T06:46:17Z</time>
      </trkpt>
      <trkpt lat="43.10194" lon="-0.4924">
        <ele>691.33</ele>
        <time>2015-08-29T06:46:33Z</time>
      </trkpt>
      <trkpt lat="43.10201" lon="-0.49301">
        <ele>690.84</ele>
        <time>2015-08-29T06:46:47Z</time>
      </trkpt>
      <trkpt lat="43.10208" lon="-0.49336">
        <ele>691.81</ele>
        <time>2015-08-29T06:46:54Z</time>
      </trkpt>
      <trkpt lat="43.10244" lon="-0.49379">
        <ele>693.73</ele>
        <time>2015-08-29T06:47:06Z</time>
      </trkpt>
      <trkpt lat="43.10261" lon="-0.49407">
        <ele>694.69</ele>
        <time>2015-08-29T06:47:12Z</time>
      </trkpt>
      <trkpt lat="43.10269" lon="-0.49423">
        <ele>696.13</ele>
        <time>2015-08-29T06:47:15Z</time>
      </trkpt>
      <trkpt lat="43.10272" lon="-0.49429">
        <ele>696.61</ele>
        <time>2015-08-29T06:47:16Z</time>
      </trkpt>
      <trkpt lat="43.10274" lon="-0.49434">
        <ele>697.09</ele>
        <time>2015-08-29T06:47:17Z</time>
      </trkpt>
      <trkpt lat="43.10281" lon="-0.49451">
        <ele>697.57</ele>
        <time>2015-08-29T06:47:20Z</time>
      </trkpt>
      <trkpt lat="43.10286" lon="-0.49469">
        <ele>699.02</ele>
        <time>2015-08-29T06:47:23Z</time>
      </trkpt>
      <trkpt lat="43.10288" lon="-0.4948">
        <ele>699.5</ele>
        <time>2015-08-29T06:47:25Z</time>
      </trkpt>
      <trkpt lat="43.1029" lon="-0.49485">
        <ele>699.98</ele>
        <time>2015-08-29T06:47:26Z</time>
      </trkpt>
      <trkpt lat="43.10292" lon="-0.4949">
        <ele>699.98</ele>
        <time>2015-08-29T06:47:27Z</time>
      </trkpt>
      <trkpt lat="43.10294" lon="-0.49496">
        <ele>700.46</ele>
        <time>2015-08-29T06:47:28Z</time>
      </trkpt>
      <trkpt lat="43.10295" lon="-0.49502">
        <ele>700.94</ele>
        <time>2015-08-29T06:47:29Z</time>
      </trkpt>
      <trkpt lat="43.10297" lon="-0.49508">
        <ele>700.94</ele>
        <time>2015-08-29T06:47:30Z</time>
      </trkpt>
      <trkpt lat="43.10298" lon="-0.49514">
        <ele>701.42</ele>
        <time>2015-08-29T06:47:31Z</time>
      </trkpt>
      <trkpt lat="43.10303" lon="-0.49531">
        <ele>702.38</ele>
        <time>2015-08-29T06:47:34Z</time>
      </trkpt>
      <trkpt lat="43.10316" lon="-0.49586">
        <ele>705.26</ele>
        <time>2015-08-29T06:47:43Z</time>
      </trkpt>
      <trkpt lat="43.1032" lon="-0.49605">
        <ele>705.26</ele>
        <time>2015-08-29T06:47:46Z</time>
      </trkpt>
      <trkpt lat="43.10328" lon="-0.49643">
        <ele>705.26</ele>
        <time>2015-08-29T06:47:52Z</time>
      </trkpt>
      <trkpt lat="43.10332" lon="-0.49661">
        <ele>705.26</ele>
        <time>2015-08-29T06:47:55Z</time>
      </trkpt>
      <trkpt lat="43.10347" lon="-0.49727">
        <ele>705.75</ele>
        <time>2015-08-29T06:48:06Z</time>
      </trkpt>
      <trkpt lat="43.10347" lon="-0.49733">
        <ele>705.75</ele>
        <time>2015-08-29T06:48:07Z</time>
      </trkpt>
      <trkpt lat="43.10347" lon="-0.49738">
        <ele>706.23</ele>
        <time>2015-08-29T06:48:08Z</time>
      </trkpt>
      <trkpt lat="43.10345" lon="-0.49743">
        <ele>705.26</ele>
        <time>2015-08-29T06:48:09Z</time>
      </trkpt>
      <trkpt lat="43.10343" lon="-0.49747">
        <ele>705.75</ele>
        <time>2015-08-29T06:48:10Z</time>
      </trkpt>
      <trkpt lat="43.10339" lon="-0.49751">
        <ele>705.26</ele>
        <time>2015-08-29T06:48:11Z</time>
      </trkpt>
      <trkpt lat="43.10335" lon="-0.49753">
        <ele>705.26</ele>
        <time>2015-08-29T06:48:12Z</time>
      </trkpt>
      <trkpt lat="43.10331" lon="-0.49755">
        <ele>705.75</ele>
        <time>2015-08-29T06:48:13Z</time>
      </trkpt>
      <trkpt lat="43.10327" lon="-0.49757">
        <ele>705.75</ele>
        <time>2015-08-29T06:48:14Z</time>
      </trkpt>
      <trkpt lat="43.10323" lon="-0.49757">
        <ele>706.23</ele>
        <time>2015-08-29T06:48:15Z</time>
      </trkpt>
      <trkpt lat="43.10319" lon="-0.49757">
        <ele>706.71</ele>
        <time>2015-08-29T06:48:16Z</time>
      </trkpt>
      <trkpt lat="43.10289" lon="-0.49751">
        <ele>709.59</ele>
        <time>2015-08-29T06:48:27Z</time>
      </trkpt>
      <trkpt lat="43.10265" lon="-0.4975">
        <ele>715.36</ele>
        <time>2015-08-29T06:48:39Z</time>
      </trkpt>
      <trkpt lat="43.10246" lon="-0.49759">
        <ele>718.24</ele>
        <time>2015-08-29T06:48:50Z</time>
      </trkpt>
      <trkpt lat="43.10224" lon="-0.49781">
        <ele>723.05</ele>
        <time>2015-08-29T06:49:03Z</time>
      </trkpt>
      <trkpt lat="43.10217" lon="-0.49785">
        <ele>725.45</ele>
        <time>2015-08-29T06:49:07Z</time>
      </trkpt>
      <trkpt lat="43.10216" lon="-0.49787">
        <ele>725.93</ele>
        <time>2015-08-29T06:49:08Z</time>
      </trkpt>
      <trkpt lat="43.10214" lon="-0.49788">
        <ele>725.93</ele>
        <time>2015-08-29T06:49:09Z</time>
      </trkpt>
      <trkpt lat="43.1021" lon="-0.49793">
        <ele>726.89</ele>
        <time>2015-08-29T06:49:12Z</time>
      </trkpt>
      <trkpt lat="43.10208" lon="-0.49793">
        <ele>727.37</ele>
        <time>2015-08-29T06:49:13Z</time>
      </trkpt>
      <trkpt lat="43.10207" lon="-0.49794">
        <ele>727.37</ele>
        <time>2015-08-29T06:49:14Z</time>
      </trkpt>
      <trkpt lat="43.10205" lon="-0.49795">
        <ele>727.37</ele>
        <time>2015-08-29T06:49:15Z</time>
      </trkpt>
      <trkpt lat="43.10202" lon="-0.49798">
        <ele>727.86</ele>
        <time>2015-08-29T06:49:17Z</time>
      </trkpt>
      <trkpt lat="43.102" lon="-0.49805">
        <ele>729.3</ele>
        <time>2015-08-29T06:49:20Z</time>
      </trkpt>
      <trkpt lat="43.10199" lon="-0.49807">
        <ele>729.78</ele>
        <time>2015-08-29T06:49:21Z</time>
      </trkpt>
      <trkpt lat="43.10198" lon="-0.4981">
        <ele>729.78</ele>
        <time>2015-08-29T06:49:22Z</time>
      </trkpt>
      <trkpt lat="43.10197" lon="-0.49814">
        <ele>730.26</ele>
        <time>2015-08-29T06:49:23Z</time>
      </trkpt>
      <trkpt lat="43.10196" lon="-0.49816">
        <ele>730.74</ele>
        <time>2015-08-29T06:49:24Z</time>
      </trkpt>
      <trkpt lat="43.10195" lon="-0.49819">
        <ele>730.74</ele>
        <time>2015-08-29T06:49:25Z</time>
      </trkpt>
      <trkpt lat="43.10195" lon="-0.49821">
        <ele>730.74</ele>
        <time>2015-08-29T06:49:26Z</time>
      </trkpt>
      <trkpt lat="43.10194" lon="-0.49823">
        <ele>731.7</ele>
        <time>2015-08-29T06:49:27Z</time>
      </trkpt>
      <trkpt lat="43.10192" lon="-0.49824">
        <ele>732.18</ele>
        <time>2015-08-29T06:49:28Z</time>
      </trkpt>
      <trkpt lat="43.10189" lon="-0.49826">
        <ele>732.66</ele>
        <time>2015-08-29T06:49:29Z</time>
      </trkpt>
      <trkpt lat="43.10188" lon="-0.49828">
        <ele>732.18</ele>
        <time>2015-08-29T06:49:30Z</time>
      </trkpt>
      <trkpt lat="43.10186" lon="-0.49831">
        <ele>732.18</ele>
        <time>2015-08-29T06:49:31Z</time>
      </trkpt>
      <trkpt lat="43.10185" lon="-0.49833">
        <ele>732.18</ele>
        <time>2015-08-29T06:49:32Z</time>
      </trkpt>
      <trkpt lat="43.10185" lon="-0.49834">
        <ele>732.18</ele>
        <time>2015-08-29T06:49:33Z</time>
      </trkpt>
      <trkpt lat="43.10184" lon="-0.49836">
        <ele>731.7</ele>
        <time>2015-08-29T06:49:34Z</time>
      </trkpt>
      <trkpt lat="43.10183" lon="-0.49838">
        <ele>731.7</ele>
        <time>2015-08-29T06:49:36Z</time>
      </trkpt>
      <trkpt lat="43.10182" lon="-0.4984">
        <ele>731.7</ele>
        <time>2015-08-29T06:49:37Z</time>
      </trkpt>
      <trkpt lat="43.10181" lon="-0.49849">
        <ele>733.62</ele>
        <time>2015-08-29T06:49:43Z</time>
      </trkpt>
      <trkpt lat="43.10182" lon="-0.49878">
        <ele>735.55</ele>
        <time>2015-08-29T06:49:55Z</time>
      </trkpt>
      <trkpt lat="43.10182" lon="-0.49886">
        <ele>736.03</ele>
        <time>2015-08-29T06:49:59Z</time>
      </trkpt>
      <trkpt lat="43.10182" lon="-0.49888">
        <ele>736.03</ele>
        <time>2015-08-29T06:50:00Z</time>
      </trkpt>
      <trkpt lat="43.10183" lon="-0.49891">
        <ele>736.03</ele>
        <time>2015-08-29T06:50:01Z</time>
      </trkpt>
      <trkpt lat="43.10182" lon="-0.49893">
        <ele>736.03</ele>
        <time>2015-08-29T06:50:02Z</time>
      </trkpt>
      <trkpt lat="43.10183" lon="-0.49895">
        <ele>736.03</ele>
        <time>2015-08-29T06:50:03Z</time>
      </trkpt>
      <trkpt lat="43.10189" lon="-0.49924">
        <ele>736.99</ele>
        <time>2015-08-29T06:50:15Z</time>
      </trkpt>
      <trkpt lat="43.10196" lon="-0.4996">
        <ele>736.99</ele>
        <time>2015-08-29T06:50:28Z</time>
      </trkpt>
      <trkpt lat="43.10213" lon="-0.49993">
        <ele>735.55</ele>
        <time>2015-08-29T06:50:43Z</time>
      </trkpt>
      <trkpt lat="43.10215" lon="-0.49994">
        <ele>735.55</ele>
        <time>2015-08-29T06:50:44Z</time>
      </trkpt>
      <trkpt lat="43.10216" lon="-0.49997">
        <ele>735.55</ele>
        <time>2015-08-29T06:50:45Z</time>
      </trkpt>
      <trkpt lat="43.10218" lon="-0.49999">
        <ele>735.07</ele>
        <time>2015-08-29T06:50:46Z</time>
      </trkpt>
      <trkpt lat="43.1022" lon="-0.50004">
        <ele>735.07</ele>
        <time>2015-08-29T06:50:48Z</time>
      </trkpt>
      <trkpt lat="43.10243" lon="-0.50045">
        <ele>735.55</ele>
        <time>2015-08-29T06:51:04Z</time>
      </trkpt>
      <trkpt lat="43.10261" lon="-0.50086">
        <ele>736.99</ele>
        <time>2015-08-29T06:51:17Z</time>
      </trkpt>
      <trkpt lat="43.10272" lon="-0.50137">
        <ele>736.51</ele>
        <time>2015-08-29T06:51:32Z</time>
      </trkpt>
      <trkpt lat="43.10273" lon="-0.50141">
        <ele>736.99</ele>
        <time>2015-08-29T06:51:46Z</time>
      </trkpt>
      <trkpt lat="43.10272" lon="-0.5014">
        <ele>737.95</ele>
        <time>2015-08-29T06:52:08Z</time>
      </trkpt>
      <trkpt lat="43.10272" lon="-0.50139">
        <ele>737.95</ele>
        <time>2015-08-29T06:52:37Z</time>
      </trkpt>
      <trkpt lat="43.10272" lon="-0.50137">
        <ele>738.91</ele>
        <time>2015-08-29T06:53:07Z</time>
      </trkpt>
      <trkpt lat="43.10273" lon="-0.5014">
        <ele>738.91</ele>
        <time>2015-08-29T06:53:13Z</time>
      </trkpt>
      <trkpt lat="43.10269" lon="-0.50155">
        <ele>739.39</ele>
        <time>2015-08-29T06:53:19Z</time>
      </trkpt>
      <trkpt lat="43.10258" lon="-0.50204">
        <ele>736.51</ele>
        <time>2015-08-29T06:53:31Z</time>
      </trkpt>
      <trkpt lat="43.10253" lon="-0.50229">
        <ele>735.55</ele>
        <time>2015-08-29T06:53:35Z</time>
      </trkpt>
      <trkpt lat="43.10253" lon="-0.50236">
        <ele>735.55</ele>
        <time>2015-08-29T06:53:36Z</time>
      </trkpt>
      <trkpt lat="43.10252" lon="-0.50242">
        <ele>735.07</ele>
        <time>2015-08-29T06:53:37Z</time>
      </trkpt>
      <trkpt lat="43.10251" lon="-0.50249">
        <ele>734.58</ele>
        <time>2015-08-29T06:53:38Z</time>
      </trkpt>
      <trkpt lat="43.10249" lon="-0.50255">
        <ele>734.58</ele>
        <time>2015-08-29T06:53:39Z</time>
      </trkpt>
      <trkpt lat="43.10247" lon="-0.50261">
        <ele>734.1</ele>
        <time>2015-08-29T06:53:40Z</time>
      </trkpt>
      <trkpt lat="43.10241" lon="-0.50294">
        <ele>733.14</ele>
        <time>2015-08-29T06:53:45Z</time>
      </trkpt>
      <trkpt lat="43.10239" lon="-0.50306">
        <ele>732.66</ele>
        <time>2015-08-29T06:53:47Z</time>
      </trkpt>
      <trkpt lat="43.10232" lon="-0.50338">
        <ele>730.74</ele>
        <time>2015-08-29T06:53:52Z</time>
      </trkpt>
      <trkpt lat="43.10231" lon="-0.50345">
        <ele>730.74</ele>
        <time>2015-08-29T06:53:53Z</time>
      </trkpt>
      <trkpt lat="43.10229" lon="-0.50351">
        <ele>730.26</ele>
        <time>2015-08-29T06:53:54Z</time>
      </trkpt>
      <trkpt lat="43.10217" lon="-0.50396">
        <ele>727.86</ele>
        <time>2015-08-29T06:54:02Z</time>
      </trkpt>
      <trkpt lat="43.10214" lon="-0.504">
        <ele>727.37</ele>
        <time>2015-08-29T06:54:03Z</time>
      </trkpt>
      <trkpt lat="43.10187" lon="-0.50442">
        <ele>724.01</ele>
        <time>2015-08-29T06:54:15Z</time>
      </trkpt>
      <trkpt lat="43.10168" lon="-0.50462">
        <ele>724.01</ele>
        <time>2015-08-29T06:54:24Z</time>
      </trkpt>
      <trkpt lat="43.10147" lon="-0.50486">
        <ele>726.89</ele>
        <time>2015-08-29T06:54:36Z</time>
      </trkpt>
      <trkpt lat="43.10144" lon="-0.50497">
        <ele>727.86</ele>
        <time>2015-08-29T06:54:40Z</time>
      </trkpt>
      <trkpt lat="43.10145" lon="-0.50536">
        <ele>732.66</ele>
        <time>2015-08-29T06:54:54Z</time>
      </trkpt>
      <trkpt lat="43.10139" lon="-0.50565">
        <ele>735.07</ele>
        <time>2015-08-29T06:55:05Z</time>
      </trkpt>
      <trkpt lat="43.10127" lon="-0.5059">
        <ele>736.51</ele>
        <time>2015-08-29T06:55:17Z</time>
      </trkpt>
      <trkpt lat="43.10114" lon="-0.5061">
        <ele>739.39</ele>
        <time>2015-08-29T06:55:28Z</time>
      </trkpt>
      <trkpt lat="43.10101" lon="-0.50636">
        <ele>741.31</ele>
        <time>2015-08-29T06:55:41Z</time>
      </trkpt>
      <trkpt lat="43.10082" lon="-0.50658">
        <ele>744.68</ele>
        <time>2015-08-29T06:55:53Z</time>
      </trkpt>
      <trkpt lat="43.10069" lon="-0.50676">
        <ele>753.33</ele>
        <time>2015-08-29T06:56:07Z</time>
      </trkpt>
      <trkpt lat="43.10061" lon="-0.5068">
        <ele>756.69</ele>
        <time>2015-08-29T06:56:13Z</time>
      </trkpt>
      <trkpt lat="43.1006" lon="-0.50683">
        <ele>757.66</ele>
        <time>2015-08-29T06:56:14Z</time>
      </trkpt>
      <trkpt lat="43.10055" lon="-0.50687">
        <ele>759.1</ele>
        <time>2015-08-29T06:56:17Z</time>
      </trkpt>
      <trkpt lat="43.10045" lon="-0.5069">
        <ele>760.54</ele>
        <time>2015-08-29T06:56:21Z</time>
      </trkpt>
      <trkpt lat="43.10037" lon="-0.50696">
        <ele>761.98</ele>
        <time>2015-08-29T06:56:26Z</time>
      </trkpt>
      <trkpt lat="43.10028" lon="-0.50704">
        <ele>762.46</ele>
        <time>2015-08-29T06:56:32Z</time>
      </trkpt>
      <trkpt lat="43.10004" lon="-0.50715">
        <ele>762.46</ele>
        <time>2015-08-29T06:56:42Z</time>
      </trkpt>
      <trkpt lat="43.0998" lon="-0.50732">
        <ele>762.46</ele>
        <time>2015-08-29T06:56:55Z</time>
      </trkpt>
      <trkpt lat="43.09958" lon="-0.50761">
        <ele>762.46</ele>
        <time>2015-08-29T06:57:07Z</time>
      </trkpt>
      <trkpt lat="43.09949" lon="-0.50791">
        <ele>765.83</ele>
        <time>2015-08-29T06:57:19Z</time>
      </trkpt>
      <trkpt lat="43.09943" lon="-0.50826">
        <ele>766.31</ele>
        <time>2015-08-29T06:57:33Z</time>
      </trkpt>
      <trkpt lat="43.09943" lon="-0.50865">
        <ele>766.31</ele>
        <time>2015-08-29T06:57:48Z</time>
      </trkpt>
      <trkpt lat="43.09947" lon="-0.50905">
        <ele>768.23</ele>
        <time>2015-08-29T06:58:01Z</time>
      </trkpt>
      <trkpt lat="43.09951" lon="-0.50936">
        <ele>771.11</ele>
        <time>2015-08-29T06:58:13Z</time>
      </trkpt>
      <trkpt lat="43.09955" lon="-0.50968">
        <ele>774</ele>
        <time>2015-08-29T06:58:26Z</time>
      </trkpt>
      <trkpt lat="43.09956" lon="-0.50991">
        <ele>774.48</ele>
        <time>2015-08-29T06:58:35Z</time>
      </trkpt>
      <trkpt lat="43.09956" lon="-0.50993">
        <ele>774.96</ele>
        <time>2015-08-29T06:58:36Z</time>
      </trkpt>
      <trkpt lat="43.09953" lon="-0.51024">
        <ele>776.4</ele>
        <time>2015-08-29T06:58:50Z</time>
      </trkpt>
      <trkpt lat="43.09947" lon="-0.51056">
        <ele>777.84</ele>
        <time>2015-08-29T06:59:04Z</time>
      </trkpt>
      <trkpt lat="43.09941" lon="-0.51085">
        <ele>777.36</ele>
        <time>2015-08-29T06:59:17Z</time>
      </trkpt>
      <trkpt lat="43.09936" lon="-0.51122">
        <ele>775.92</ele>
        <time>2015-08-29T06:59:31Z</time>
      </trkpt>
      <trkpt lat="43.09939" lon="-0.51163">
        <ele>777.36</ele>
        <time>2015-08-29T06:59:45Z</time>
      </trkpt>
      <trkpt lat="43.0994" lon="-0.51179">
        <ele>783.13</ele>
        <time>2015-08-29T06:59:56Z</time>
      </trkpt>
      <trkpt lat="43.09941" lon="-0.51186">
        <ele>784.57</ele>
        <time>2015-08-29T07:00:05Z</time>
      </trkpt>
      <trkpt lat="43.09941" lon="-0.51187">
        <ele>785.05</ele>
        <time>2015-08-29T07:00:06Z</time>
      </trkpt>
      <trkpt lat="43.09941" lon="-0.51189">
        <ele>785.53</ele>
        <time>2015-08-29T07:00:07Z</time>
      </trkpt>
      <trkpt lat="43.09941" lon="-0.51191">
        <ele>785.53</ele>
        <time>2015-08-29T07:00:08Z</time>
      </trkpt>
      <trkpt lat="43.09942" lon="-0.51193">
        <ele>786.02</ele>
        <time>2015-08-29T07:00:09Z</time>
      </trkpt>
      <trkpt lat="43.09942" lon="-0.51194">
        <ele>786.02</ele>
        <time>2015-08-29T07:00:10Z</time>
      </trkpt>
      <trkpt lat="43.09943" lon="-0.51196">
        <ele>786.5</ele>
        <time>2015-08-29T07:00:11Z</time>
      </trkpt>
      <trkpt lat="43.09943" lon="-0.51199">
        <ele>786.5</ele>
        <time>2015-08-29T07:00:12Z</time>
      </trkpt>
      <trkpt lat="43.09944" lon="-0.51201">
        <ele>786.98</ele>
        <time>2015-08-29T07:00:13Z</time>
      </trkpt>
      <trkpt lat="43.09945" lon="-0.51204">
        <ele>786.98</ele>
        <time>2015-08-29T07:00:14Z</time>
      </trkpt>
      <trkpt lat="43.09954" lon="-0.51241">
        <ele>789.86</ele>
        <time>2015-08-29T07:00:27Z</time>
      </trkpt>
      <trkpt lat="43.09961" lon="-0.51284">
        <ele>792.26</ele>
        <time>2015-08-29T07:00:41Z</time>
      </trkpt>
      <trkpt lat="43.09967" lon="-0.51297">
        <ele>793.71</ele>
        <time>2015-08-29T07:00:46Z</time>
      </trkpt>
      <trkpt lat="43.09968" lon="-0.513">
        <ele>793.71</ele>
        <time>2015-08-29T07:00:47Z</time>
      </trkpt>
      <trkpt lat="43.09967" lon="-0.51303">
        <ele>793.71</ele>
        <time>2015-08-29T07:00:48Z</time>
      </trkpt>
      <trkpt lat="43.09967" lon="-0.51305">
        <ele>794.19</ele>
        <time>2015-08-29T07:00:49Z</time>
      </trkpt>
      <trkpt lat="43.09966" lon="-0.51308">
        <ele>794.19</ele>
        <time>2015-08-29T07:00:50Z</time>
      </trkpt>
      <trkpt lat="43.09965" lon="-0.51309">
        <ele>794.67</ele>
        <time>2015-08-29T07:00:51Z</time>
      </trkpt>
      <trkpt lat="43.09963" lon="-0.51311">
        <ele>795.15</ele>
        <time>2015-08-29T07:00:52Z</time>
      </trkpt>
      <trkpt lat="43.09962" lon="-0.51311">
        <ele>795.15</ele>
        <time>2015-08-29T07:00:53Z</time>
      </trkpt>
      <trkpt lat="43.0996" lon="-0.5131">
        <ele>795.15</ele>
        <time>2015-08-29T07:00:54Z</time>
      </trkpt>
      <trkpt lat="43.09957" lon="-0.51293">
        <ele>797.07</ele>
        <time>2015-08-29T07:01:00Z</time>
      </trkpt>
      <trkpt lat="43.09953" lon="-0.51247">
        <ele>802.36</ele>
        <time>2015-08-29T07:01:15Z</time>
      </trkpt>
      <trkpt lat="43.0993" lon="-0.51196">
        <ele>810.05</ele>
        <time>2015-08-29T07:01:29Z</time>
      </trkpt>
      <trkpt lat="43.09921" lon="-0.51165">
        <ele>815.34</ele>
        <time>2015-08-29T07:01:42Z</time>
      </trkpt>
      <trkpt lat="43.09918" lon="-0.51134">
        <ele>818.22</ele>
        <time>2015-08-29T07:01:52Z</time>
      </trkpt>
      <trkpt lat="43.09914" lon="-0.51101">
        <ele>818.22</ele>
        <time>2015-08-29T07:02:03Z</time>
      </trkpt>
      <trkpt lat="43.09912" lon="-0.51081">
        <ele>817.74</ele>
        <time>2015-08-29T07:02:10Z</time>
      </trkpt>
      <trkpt lat="43.09915" lon="-0.51042">
        <ele>816.78</ele>
        <time>2015-08-29T07:02:24Z</time>
      </trkpt>
      <trkpt lat="43.09918" lon="-0.51024">
        <ele>815.82</ele>
        <time>2015-08-29T07:02:30Z</time>
      </trkpt>
      <trkpt lat="43.09912" lon="-0.51003">
        <ele>816.3</ele>
        <time>2015-08-29T07:02:37Z</time>
      </trkpt>
      <trkpt lat="43.09916" lon="-0.50974">
        <ele>818.22</ele>
        <time>2015-08-29T07:02:49Z</time>
      </trkpt>
      <trkpt lat="43.09913" lon="-0.50952">
        <ele>820.14</ele>
        <time>2015-08-29T07:02:59Z</time>
      </trkpt>
      <trkpt lat="43.09888" lon="-0.50903">
        <ele>822.06</ele>
        <time>2015-08-29T07:03:13Z</time>
      </trkpt>
      <trkpt lat="43.09878" lon="-0.50887">
        <ele>823.03</ele>
        <time>2015-08-29T07:03:17Z</time>
      </trkpt>
      <trkpt lat="43.09883" lon="-0.50852">
        <ele>823.03</ele>
        <time>2015-08-29T07:03:29Z</time>
      </trkpt>
      <trkpt lat="43.09868" lon="-0.50806">
        <ele>822.55</ele>
        <time>2015-08-29T07:03:44Z</time>
      </trkpt>
      <trkpt lat="43.09868" lon="-0.50773">
        <ele>822.06</ele>
        <time>2015-08-29T07:03:55Z</time>
      </trkpt>
      <trkpt lat="43.09859" lon="-0.50727">
        <ele>823.51</ele>
        <time>2015-08-29T07:04:10Z</time>
      </trkpt>
      <trkpt lat="43.09853" lon="-0.50691">
        <ele>825.43</ele>
        <time>2015-08-29T07:04:23Z</time>
      </trkpt>
      <trkpt lat="43.09832" lon="-0.50653">
        <ele>831.68</ele>
        <time>2015-08-29T07:04:36Z</time>
      </trkpt>
      <trkpt lat="43.09822" lon="-0.50643">
        <ele>833.12</ele>
        <time>2015-08-29T07:04:41Z</time>
      </trkpt>
      <trkpt lat="43.09806" lon="-0.50605">
        <ele>835.04</ele>
        <time>2015-08-29T07:04:54Z</time>
      </trkpt>
      <trkpt lat="43.09807" lon="-0.50566">
        <ele>837.45</ele>
        <time>2015-08-29T07:05:06Z</time>
      </trkpt>
      <trkpt lat="43.09804" lon="-0.50527">
        <ele>839.37</ele>
        <time>2015-08-29T07:05:19Z</time>
      </trkpt>
      <trkpt lat="43.09788" lon="-0.50483">
        <ele>845.62</ele>
        <time>2015-08-29T07:05:34Z</time>
      </trkpt>
      <trkpt lat="43.09771" lon="-0.50453">
        <ele>848.98</ele>
        <time>2015-08-29T07:05:46Z</time>
      </trkpt>
      <trkpt lat="43.09757" lon="-0.50424">
        <ele>848.5</ele>
        <time>2015-08-29T07:06:00Z</time>
      </trkpt>
      <trkpt lat="43.09758" lon="-0.50422">
        <ele>848.98</ele>
        <time>2015-08-29T07:06:01Z</time>
      </trkpt>
      <trkpt lat="43.09755" lon="-0.50384">
        <ele>848.98</ele>
        <time>2015-08-29T07:06:15Z</time>
      </trkpt>
      <trkpt lat="43.09752" lon="-0.50344">
        <ele>848.98</ele>
        <time>2015-08-29T07:06:29Z</time>
      </trkpt>
      <trkpt lat="43.09751" lon="-0.50305">
        <ele>850.9</ele>
        <time>2015-08-29T07:06:42Z</time>
      </trkpt>
      <trkpt lat="43.09746" lon="-0.50266">
        <ele>858.11</ele>
        <time>2015-08-29T07:06:55Z</time>
      </trkpt>
      <trkpt lat="43.09742" lon="-0.5023">
        <ele>864.84</ele>
        <time>2015-08-29T07:07:08Z</time>
      </trkpt>
      <trkpt lat="43.09726" lon="-0.50206">
        <ele>869.65</ele>
        <time>2015-08-29T07:07:20Z</time>
      </trkpt>
      <trkpt lat="43.09707" lon="-0.50192">
        <ele>873.5</ele>
        <time>2015-08-29T07:07:33Z</time>
      </trkpt>
      <trkpt lat="43.09701" lon="-0.50187">
        <ele>874.46</ele>
        <time>2015-08-29T07:07:37Z</time>
      </trkpt>
      <trkpt lat="43.09689" lon="-0.50177">
        <ele>876.38</ele>
        <time>2015-08-29T07:07:44Z</time>
      </trkpt>
      <trkpt lat="43.09659" lon="-0.50151">
        <ele>879.26</ele>
        <time>2015-08-29T07:08:00Z</time>
      </trkpt>
      <trkpt lat="43.09643" lon="-0.50133">
        <ele>884.07</ele>
        <time>2015-08-29T07:08:12Z</time>
      </trkpt>
      <trkpt lat="43.0964" lon="-0.50131">
        <ele>885.51</ele>
        <time>2015-08-29T07:08:16Z</time>
      </trkpt>
      <trkpt lat="43.09641" lon="-0.50107">
        <ele>891.76</ele>
        <time>2015-08-29T07:08:27Z</time>
      </trkpt>
      <trkpt lat="43.09642" lon="-0.50106">
        <ele>892.24</ele>
        <time>2015-08-29T07:08:28Z</time>
      </trkpt>
      <trkpt lat="43.09662" lon="-0.50093">
        <ele>891.76</ele>
        <time>2015-08-29T07:08:40Z</time>
      </trkpt>
      <trkpt lat="43.09674" lon="-0.50064">
        <ele>890.32</ele>
        <time>2015-08-29T07:08:52Z</time>
      </trkpt>
      <trkpt lat="43.09657" lon="-0.50031">
        <ele>887.91</ele>
        <time>2015-08-29T07:09:05Z</time>
      </trkpt>
      <trkpt lat="43.09636" lon="-0.50013">
        <ele>884.55</ele>
        <time>2015-08-29T07:09:17Z</time>
      </trkpt>
      <trkpt lat="43.0961" lon="-0.49985">
        <ele>882.15</ele>
        <time>2015-08-29T07:09:30Z</time>
      </trkpt>
      <trkpt lat="43.0959" lon="-0.49966">
        <ele>881.19</ele>
        <time>2015-08-29T07:09:42Z</time>
      </trkpt>
      <trkpt lat="43.09567" lon="-0.49943">
        <ele>882.63</ele>
        <time>2015-08-29T07:09:53Z</time>
      </trkpt>
      <trkpt lat="43.09549" lon="-0.49922">
        <ele>886.95</ele>
        <time>2015-08-29T07:10:05Z</time>
      </trkpt>
      <trkpt lat="43.09531" lon="-0.49909">
        <ele>889.84</ele>
        <time>2015-08-29T07:10:14Z</time>
      </trkpt>
      <trkpt lat="43.09516" lon="-0.499">
        <ele>892.24</ele>
        <time>2015-08-29T07:10:22Z</time>
      </trkpt>
      <trkpt lat="43.09507" lon="-0.49897">
        <ele>892.72</ele>
        <time>2015-08-29T07:10:26Z</time>
      </trkpt>
      <trkpt lat="43.09483" lon="-0.49885">
        <ele>894.16</ele>
        <time>2015-08-29T07:10:39Z</time>
      </trkpt>
      <trkpt lat="43.09472" lon="-0.49878">
        <ele>895.61</ele>
        <time>2015-08-29T07:10:45Z</time>
      </trkpt>
      <trkpt lat="43.09441" lon="-0.4986">
        <ele>898.01</ele>
        <time>2015-08-29T07:10:59Z</time>
      </trkpt>
      <trkpt lat="43.0941" lon="-0.49833">
        <ele>899.45</ele>
        <time>2015-08-29T07:11:13Z</time>
      </trkpt>
      <trkpt lat="43.09407" lon="-0.49826">
        <ele>899.93</ele>
        <time>2015-08-29T07:11:16Z</time>
      </trkpt>
      <trkpt lat="43.09401" lon="-0.49812">
        <ele>902.82</ele>
        <time>2015-08-29T07:11:22Z</time>
      </trkpt>
      <trkpt lat="43.09383" lon="-0.49772">
        <ele>909.06</ele>
        <time>2015-08-29T07:11:34Z</time>
      </trkpt>
      <trkpt lat="43.09366" lon="-0.49736">
        <ele>914.35</ele>
        <time>2015-08-29T07:11:48Z</time>
      </trkpt>
      <trkpt lat="43.0934" lon="-0.49712">
        <ele>916.27</ele>
        <time>2015-08-29T07:12:02Z</time>
      </trkpt>
      <trkpt lat="43.09317" lon="-0.49687">
        <ele>920.12</ele>
        <time>2015-08-29T07:12:15Z</time>
      </trkpt>
      <trkpt lat="43.09309" lon="-0.49659">
        <ele>924.93</ele>
        <time>2015-08-29T07:12:27Z</time>
      </trkpt>
      <trkpt lat="43.0929" lon="-0.49626">
        <ele>930.69</ele>
        <time>2015-08-29T07:12:40Z</time>
      </trkpt>
      <trkpt lat="43.0927" lon="-0.49591">
        <ele>936.46</ele>
        <time>2015-08-29T07:12:53Z</time>
      </trkpt>
      <trkpt lat="43.09251" lon="-0.49566">
        <ele>939.35</ele>
        <time>2015-08-29T07:13:05Z</time>
      </trkpt>
      <trkpt lat="43.09229" lon="-0.49534">
        <ele>938.38</ele>
        <time>2015-08-29T07:13:20Z</time>
      </trkpt>
      <trkpt lat="43.09208" lon="-0.4951">
        <ele>940.31</ele>
        <time>2015-08-29T07:13:33Z</time>
      </trkpt>
      <trkpt lat="43.09189" lon="-0.49481">
        <ele>942.23</ele>
        <time>2015-08-29T07:13:45Z</time>
      </trkpt>
      <trkpt lat="43.09173" lon="-0.4945">
        <ele>947.52</ele>
        <time>2015-08-29T07:13:59Z</time>
      </trkpt>
      <trkpt lat="43.09173" lon="-0.49445">
        <ele>947.52</ele>
        <time>2015-08-29T07:14:01Z</time>
      </trkpt>
      <trkpt lat="43.09173" lon="-0.49432">
        <ele>948.48</ele>
        <time>2015-08-29T07:14:08Z</time>
      </trkpt>
      <trkpt lat="43.09162" lon="-0.494">
        <ele>954.73</ele>
        <time>2015-08-29T07:14:21Z</time>
      </trkpt>
      <trkpt lat="43.09153" lon="-0.49369">
        <ele>959.53</ele>
        <time>2015-08-29T07:14:32Z</time>
      </trkpt>
      <trkpt lat="43.0915" lon="-0.49358">
        <ele>959.53</ele>
        <time>2015-08-29T07:14:36Z</time>
      </trkpt>
      <trkpt lat="43.09149" lon="-0.49345">
        <ele>959.05</ele>
        <time>2015-08-29T07:14:40Z</time>
      </trkpt>
      <trkpt lat="43.09148" lon="-0.49293">
        <ele>955.21</ele>
        <time>2015-08-29T07:14:55Z</time>
      </trkpt>
      <trkpt lat="43.09151" lon="-0.49251">
        <ele>953.28</ele>
        <time>2015-08-29T07:15:09Z</time>
      </trkpt>
      <trkpt lat="43.09136" lon="-0.49227">
        <ele>946.56</ele>
        <time>2015-08-29T07:15:21Z</time>
      </trkpt>
      <trkpt lat="43.09119" lon="-0.49225">
        <ele>944.15</ele>
        <time>2015-08-29T07:15:31Z</time>
      </trkpt>
      <trkpt lat="43.09088" lon="-0.4923">
        <ele>944.63</ele>
        <time>2015-08-29T07:15:44Z</time>
      </trkpt>
      <trkpt lat="43.09059" lon="-0.49241">
        <ele>945.59</ele>
        <time>2015-08-29T07:15:57Z</time>
      </trkpt>
      <trkpt lat="43.09032" lon="-0.49257">
        <ele>947.04</ele>
        <time>2015-08-29T07:16:10Z</time>
      </trkpt>
      <trkpt lat="43.09015" lon="-0.49276">
        <ele>947.52</ele>
        <time>2015-08-29T07:16:21Z</time>
      </trkpt>
      <trkpt lat="43.08993" lon="-0.49294">
        <ele>950.4</ele>
        <time>2015-08-29T07:16:34Z</time>
      </trkpt>
      <trkpt lat="43.08974" lon="-0.49289">
        <ele>954.25</ele>
        <time>2015-08-29T07:16:45Z</time>
      </trkpt>
      <trkpt lat="43.08968" lon="-0.49286">
        <ele>954.73</ele>
        <time>2015-08-29T07:16:47Z</time>
      </trkpt>
      <trkpt lat="43.0897" lon="-0.49248">
        <ele>957.61</ele>
        <time>2015-08-29T07:16:59Z</time>
      </trkpt>
      <trkpt lat="43.08981" lon="-0.4921">
        <ele>959.53</ele>
        <time>2015-08-29T07:17:12Z</time>
      </trkpt>
      <trkpt lat="43.08987" lon="-0.49171">
        <ele>963.86</ele>
        <time>2015-08-29T07:17:24Z</time>
      </trkpt>
      <trkpt lat="43.08993" lon="-0.49143">
        <ele>965.3</ele>
        <time>2015-08-29T07:17:32Z</time>
      </trkpt>
      <trkpt lat="43.09001" lon="-0.491">
        <ele>965.3</ele>
        <time>2015-08-29T07:17:45Z</time>
      </trkpt>
      <trkpt lat="43.09008" lon="-0.49063">
        <ele>962.9</ele>
        <time>2015-08-29T07:17:59Z</time>
      </trkpt>
      <trkpt lat="43.08997" lon="-0.49025">
        <ele>965.78</ele>
        <time>2015-08-29T07:18:12Z</time>
      </trkpt>
      <trkpt lat="43.0898" lon="-0.48989">
        <ele>969.63</ele>
        <time>2015-08-29T07:18:24Z</time>
      </trkpt>
      <trkpt lat="43.08974" lon="-0.48978">
        <ele>970.59</ele>
        <time>2015-08-29T07:18:29Z</time>
      </trkpt>
      <trkpt lat="43.08963" lon="-0.48946">
        <ele>975.39</ele>
        <time>2015-08-29T07:18:43Z</time>
      </trkpt>
      <trkpt lat="43.08958" lon="-0.48925">
        <ele>979.72</ele>
        <time>2015-08-29T07:18:51Z</time>
      </trkpt>
      <trkpt lat="43.08955" lon="-0.48915">
        <ele>981.64</ele>
        <time>2015-08-29T07:18:55Z</time>
      </trkpt>
      <trkpt lat="43.08949" lon="-0.48879">
        <ele>987.41</ele>
        <time>2015-08-29T07:19:08Z</time>
      </trkpt>
      <trkpt lat="43.08938" lon="-0.48836">
        <ele>990.3</ele>
        <time>2015-08-29T07:19:22Z</time>
      </trkpt>
      <trkpt lat="43.0893" lon="-0.48796">
        <ele>991.74</ele>
        <time>2015-08-29T07:19:33Z</time>
      </trkpt>
      <trkpt lat="43.08927" lon="-0.4879">
        <ele>992.22</ele>
        <time>2015-08-29T07:19:35Z</time>
      </trkpt>
      <trkpt lat="43.08908" lon="-0.48754">
        <ele>992.22</ele>
        <time>2015-08-29T07:19:48Z</time>
      </trkpt>
      <trkpt lat="43.08888" lon="-0.48733">
        <ele>992.22</ele>
        <time>2015-08-29T07:20:01Z</time>
      </trkpt>
      <trkpt lat="43.08853" lon="-0.48726">
        <ele>991.74</ele>
        <time>2015-08-29T07:20:15Z</time>
      </trkpt>
      <trkpt lat="43.08819" lon="-0.48728">
        <ele>990.3</ele>
        <time>2015-08-29T07:20:30Z</time>
      </trkpt>
      <trkpt lat="43.0879" lon="-0.48727">
        <ele>990.78</ele>
        <time>2015-08-29T07:20:44Z</time>
      </trkpt>
      <trkpt lat="43.08787" lon="-0.48725">
        <ele>990.78</ele>
        <time>2015-08-29T07:20:46Z</time>
      </trkpt>
      <trkpt lat="43.08795" lon="-0.48698">
        <ele>994.14</ele>
        <time>2015-08-29T07:20:55Z</time>
      </trkpt>
      <trkpt lat="43.0881" lon="-0.48673">
        <ele>998.95</ele>
        <time>2015-08-29T07:21:05Z</time>
      </trkpt>
      <trkpt lat="43.08831" lon="-0.48638">
        <ele>1000.39</ele>
        <time>2015-08-29T07:21:17Z</time>
      </trkpt>
      <trkpt lat="43.08834" lon="-0.48606">
        <ele>1000.39</ele>
        <time>2015-08-29T07:21:29Z</time>
      </trkpt>
      <trkpt lat="43.08827" lon="-0.48573">
        <ele>1002.79</ele>
        <time>2015-08-29T07:21:42Z</time>
      </trkpt>
      <trkpt lat="43.08815" lon="-0.4854">
        <ele>1003.75</ele>
        <time>2015-08-29T07:21:56Z</time>
      </trkpt>
      <trkpt lat="43.08798" lon="-0.48502">
        <ele>1005.68</ele>
        <time>2015-08-29T07:22:10Z</time>
      </trkpt>
      <trkpt lat="43.08792" lon="-0.48488">
        <ele>1004.72</ele>
        <time>2015-08-29T07:22:16Z</time>
      </trkpt>
      <trkpt lat="43.08776" lon="-0.48463">
        <ele>1007.6</ele>
        <time>2015-08-29T07:22:29Z</time>
      </trkpt>
      <trkpt lat="43.08762" lon="-0.48429">
        <ele>1011.44</ele>
        <time>2015-08-29T07:22:43Z</time>
      </trkpt>
      <trkpt lat="43.08754" lon="-0.4841">
        <ele>1012.41</ele>
        <time>2015-08-29T07:22:51Z</time>
      </trkpt>
      <trkpt lat="43.08748" lon="-0.48399">
        <ele>1013.85</ele>
        <time>2015-08-29T07:22:56Z</time>
      </trkpt>
      <trkpt lat="43.08737" lon="-0.48361">
        <ele>1018.65</ele>
        <time>2015-08-29T07:23:12Z</time>
      </trkpt>
      <trkpt lat="43.08732" lon="-0.4833">
        <ele>1022.5</ele>
        <time>2015-08-29T07:23:25Z</time>
      </trkpt>
      <trkpt lat="43.08725" lon="-0.48288">
        <ele>1026.34</ele>
        <time>2015-08-29T07:23:39Z</time>
      </trkpt>
      <trkpt lat="43.087" lon="-0.48249">
        <ele>1032.11</ele>
        <time>2015-08-29T07:23:53Z</time>
      </trkpt>
      <trkpt lat="43.08675" lon="-0.48236">
        <ele>1027.79</ele>
        <time>2015-08-29T07:24:07Z</time>
      </trkpt>
      <trkpt lat="43.08658" lon="-0.48209">
        <ele>1031.15</ele>
        <time>2015-08-29T07:24:20Z</time>
      </trkpt>
      <trkpt lat="43.08652" lon="-0.48182">
        <ele>1035</ele>
        <time>2015-08-29T07:24:28Z</time>
      </trkpt>
      <trkpt lat="43.08661" lon="-0.48175">
        <ele>1037.4</ele>
        <time>2015-08-29T07:24:33Z</time>
      </trkpt>
      <trkpt lat="43.08677" lon="-0.48154">
        <ele>1041.73</ele>
        <time>2015-08-29T07:24:45Z</time>
      </trkpt>
      <trkpt lat="43.08684" lon="-0.48114">
        <ele>1041.25</ele>
        <time>2015-08-29T07:24:58Z</time>
      </trkpt>
      <trkpt lat="43.08685" lon="-0.48076">
        <ele>1041.73</ele>
        <time>2015-08-29T07:25:11Z</time>
      </trkpt>
      <trkpt lat="43.08672" lon="-0.48049">
        <ele>1039.8</ele>
        <time>2015-08-29T07:25:24Z</time>
      </trkpt>
      <trkpt lat="43.08651" lon="-0.48021">
        <ele>1038.84</ele>
        <time>2015-08-29T07:25:39Z</time>
      </trkpt>
      <trkpt lat="43.08625" lon="-0.47987">
        <ele>1038.36</ele>
        <time>2015-08-29T07:25:54Z</time>
      </trkpt>
      <trkpt lat="43.08604" lon="-0.47961">
        <ele>1041.73</ele>
        <time>2015-08-29T07:26:08Z</time>
      </trkpt>
      <trkpt lat="43.0859" lon="-0.47939">
        <ele>1045.09</ele>
        <time>2015-08-29T07:26:21Z</time>
      </trkpt>
      <trkpt lat="43.08576" lon="-0.47905">
        <ele>1051.82</ele>
        <time>2015-08-29T07:26:34Z</time>
      </trkpt>
      <trkpt lat="43.0857" lon="-0.47891">
        <ele>1052.3</ele>
        <time>2015-08-29T07:26:40Z</time>
      </trkpt>
      <trkpt lat="43.08553" lon="-0.47863">
        <ele>1056.63</ele>
        <time>2015-08-29T07:26:53Z</time>
      </trkpt>
      <trkpt lat="43.08541" lon="-0.47836">
        <ele>1059.99</ele>
        <time>2015-08-29T07:27:03Z</time>
      </trkpt>
      <trkpt lat="43.08527" lon="-0.47793">
        <ele>1062.87</ele>
        <time>2015-08-29T07:27:17Z</time>
      </trkpt>
      <trkpt lat="43.08521" lon="-0.47766">
        <ele>1066.72</ele>
        <time>2015-08-29T07:27:28Z</time>
      </trkpt>
      <trkpt lat="43.0851" lon="-0.47722">
        <ele>1069.12</ele>
        <time>2015-08-29T07:27:43Z</time>
      </trkpt>
      <trkpt lat="43.08501" lon="-0.47684">
        <ele>1069.12</ele>
        <time>2015-08-29T07:27:56Z</time>
      </trkpt>
      <trkpt lat="43.08491" lon="-0.4765">
        <ele>1068.16</ele>
        <time>2015-08-29T07:28:10Z</time>
      </trkpt>
      <trkpt lat="43.08482" lon="-0.47616">
        <ele>1070.08</ele>
        <time>2015-08-29T07:28:24Z</time>
      </trkpt>
      <trkpt lat="43.08476" lon="-0.47581">
        <ele>1073.45</ele>
        <time>2015-08-29T07:28:38Z</time>
      </trkpt>
      <trkpt lat="43.08479" lon="-0.47552">
        <ele>1071.53</ele>
        <time>2015-08-29T07:28:48Z</time>
      </trkpt>
      <trkpt lat="43.08485" lon="-0.47518">
        <ele>1066.72</ele>
        <time>2015-08-29T07:29:00Z</time>
      </trkpt>
      <trkpt lat="43.08496" lon="-0.47473">
        <ele>1062.39</ele>
        <time>2015-08-29T07:29:14Z</time>
      </trkpt>
      <trkpt lat="43.08508" lon="-0.47436">
        <ele>1057.59</ele>
        <time>2015-08-29T07:29:29Z</time>
      </trkpt>
      <trkpt lat="43.0851" lon="-0.47434">
        <ele>1058.07</ele>
        <time>2015-08-29T07:29:31Z</time>
      </trkpt>
      <trkpt lat="43.08511" lon="-0.47437">
        <ele>1059.03</ele>
        <time>2015-08-29T07:29:34Z</time>
      </trkpt>
      <trkpt lat="43.08506" lon="-0.47444">
        <ele>1058.55</ele>
        <time>2015-08-29T07:29:41Z</time>
      </trkpt>
      <trkpt lat="43.085" lon="-0.47435">
        <ele>1058.07</ele>
        <time>2015-08-29T07:29:54Z</time>
      </trkpt>
      <trkpt lat="43.08499" lon="-0.47435">
        <ele>1058.07</ele>
        <time>2015-08-29T07:30:00Z</time>
      </trkpt>
      <trkpt lat="43.085" lon="-0.47436">
        <ele>1058.07</ele>
        <time>2015-08-29T07:30:03Z</time>
      </trkpt>
      <trkpt lat="43.08503" lon="-0.47444">
        <ele>1057.11</ele>
        <time>2015-08-29T07:30:14Z</time>
      </trkpt>
      <trkpt lat="43.08503" lon="-0.47443">
        <ele>1057.11</ele>
        <time>2015-08-29T07:30:15Z</time>
      </trkpt>
      <trkpt lat="43.08502" lon="-0.47436">
        <ele>1056.15</ele>
        <time>2015-08-29T07:30:23Z</time>
      </trkpt>
      <trkpt lat="43.085" lon="-0.47437">
        <ele>1056.63</ele>
        <time>2015-08-29T07:30:37Z</time>
      </trkpt>
      <trkpt lat="43.085" lon="-0.47436">
        <ele>1057.11</ele>
        <time>2015-08-29T07:30:41Z</time>
      </trkpt>
      <trkpt lat="43.08502" lon="-0.47439">
        <ele>1058.55</ele>
        <time>2015-08-29T07:30:45Z</time>
      </trkpt>
      <trkpt lat="43.08503" lon="-0.47443">
        <ele>1060.47</ele>
        <time>2015-08-29T07:30:56Z</time>
      </trkpt>
      <trkpt lat="43.08502" lon="-0.47438">
        <ele>1062.39</ele>
        <time>2015-08-29T07:31:07Z</time>
      </trkpt>
      <trkpt lat="43.08502" lon="-0.4744">
        <ele>1063.36</ele>
        <time>2015-08-29T07:31:19Z</time>
      </trkpt>
      <trkpt lat="43.08504" lon="-0.4744">
        <ele>1064.32</ele>
        <time>2015-08-29T07:31:40Z</time>
      </trkpt>
      <trkpt lat="43.08504" lon="-0.47446">
        <ele>1063.84</ele>
        <time>2015-08-29T07:31:57Z</time>
      </trkpt>
      <trkpt lat="43.08504" lon="-0.47449">
        <ele>1062.87</ele>
        <time>2015-08-29T07:32:05Z</time>
      </trkpt>
      <trkpt lat="43.08502" lon="-0.47436">
        <ele>1063.84</ele>
        <time>2015-08-29T07:32:15Z</time>
      </trkpt>
      <trkpt lat="43.08504" lon="-0.47437">
        <ele>1063.84</ele>
        <time>2015-08-29T07:32:27Z</time>
      </trkpt>
      <trkpt lat="43.08506" lon="-0.47439">
        <ele>1064.8</ele>
        <time>2015-08-29T07:32:38Z</time>
      </trkpt>
      <trkpt lat="43.08505" lon="-0.47443">
        <ele>1064.32</ele>
        <time>2015-08-29T07:32:51Z</time>
      </trkpt>
      <trkpt lat="43.08504" lon="-0.47442">
        <ele>1064.32</ele>
        <time>2015-08-29T07:32:53Z</time>
      </trkpt>
      <trkpt lat="43.085" lon="-0.47439">
        <ele>1065.76</ele>
        <time>2015-08-29T07:33:05Z</time>
      </trkpt>
      <trkpt lat="43.08504" lon="-0.4744">
        <ele>1067.2</ele>
        <time>2015-08-29T07:33:18Z</time>
      </trkpt>
      <trkpt lat="43.08504" lon="-0.47442">
        <ele>1067.68</ele>
        <time>2015-08-29T07:33:23Z</time>
      </trkpt>
      <trkpt lat="43.08503" lon="-0.47443">
        <ele>1067.68</ele>
        <time>2015-08-29T07:33:31Z</time>
      </trkpt>
      <trkpt lat="43.08498" lon="-0.47433">
        <ele>1069.12</ele>
        <time>2015-08-29T07:33:42Z</time>
      </trkpt>
      <trkpt lat="43.08498" lon="-0.47434">
        <ele>1070.08</ele>
        <time>2015-08-29T07:33:55Z</time>
      </trkpt>
      <trkpt lat="43.08497" lon="-0.47429">
        <ele>1069.6</ele>
        <time>2015-08-29T07:34:09Z</time>
      </trkpt>
      <trkpt lat="43.08498" lon="-0.4743">
        <ele>1070.08</ele>
        <time>2015-08-29T07:34:25Z</time>
      </trkpt>
      <trkpt lat="43.08493" lon="-0.47435">
        <ele>1070.08</ele>
        <time>2015-08-29T07:34:48Z</time>
      </trkpt>
      <trkpt lat="43.08487" lon="-0.47443">
        <ele>1071.05</ele>
        <time>2015-08-29T07:34:58Z</time>
      </trkpt>
      <trkpt lat="43.08471" lon="-0.47474">
        <ele>1068.64</ele>
        <time>2015-08-29T07:35:16Z</time>
      </trkpt>
      <trkpt lat="43.08469" lon="-0.47477">
        <ele>1068.16</ele>
        <time>2015-08-29T07:35:18Z</time>
      </trkpt>
      <trkpt lat="43.08468" lon="-0.47481">
        <ele>1067.68</ele>
        <time>2015-08-29T07:35:20Z</time>
      </trkpt>
      <trkpt lat="43.08465" lon="-0.47489">
        <ele>1067.68</ele>
        <time>2015-08-29T07:35:24Z</time>
      </trkpt>
      <trkpt lat="43.08459" lon="-0.47523">
        <ele>1065.76</ele>
        <time>2015-08-29T07:35:41Z</time>
      </trkpt>
      <trkpt lat="43.08456" lon="-0.47528">
        <ele>1066.24</ele>
        <time>2015-08-29T07:35:44Z</time>
      </trkpt>
      <trkpt lat="43.08447" lon="-0.47547">
        <ele>1067.68</ele>
        <time>2015-08-29T07:35:54Z</time>
      </trkpt>
      <trkpt lat="43.08441" lon="-0.47584">
        <ele>1068.64</ele>
        <time>2015-08-29T07:36:11Z</time>
      </trkpt>
      <trkpt lat="43.08439" lon="-0.47611">
        <ele>1073.93</ele>
        <time>2015-08-29T07:36:24Z</time>
      </trkpt>
      <trkpt lat="43.08438" lon="-0.47639">
        <ele>1077.29</ele>
        <time>2015-08-29T07:36:38Z</time>
      </trkpt>
      <trkpt lat="43.08435" lon="-0.47652">
        <ele>1082.58</ele>
        <time>2015-08-29T07:36:47Z</time>
      </trkpt>
      <trkpt lat="43.08435" lon="-0.47657">
        <ele>1084.02</ele>
        <time>2015-08-29T07:36:50Z</time>
      </trkpt>
      <trkpt lat="43.08431" lon="-0.47696">
        <ele>1088.35</ele>
        <time>2015-08-29T07:37:07Z</time>
      </trkpt>
      <trkpt lat="43.08428" lon="-0.47706">
        <ele>1087.87</ele>
        <time>2015-08-29T07:37:12Z</time>
      </trkpt>
      <trkpt lat="43.08426" lon="-0.4774">
        <ele>1086.91</ele>
        <time>2015-08-29T07:37:27Z</time>
      </trkpt>
      <trkpt lat="43.08426" lon="-0.47776">
        <ele>1088.35</ele>
        <time>2015-08-29T07:37:41Z</time>
      </trkpt>
      <trkpt lat="43.0843" lon="-0.47806">
        <ele>1087.39</ele>
        <time>2015-08-29T07:37:55Z</time>
      </trkpt>
      <trkpt lat="43.08434" lon="-0.47837">
        <ele>1091.23</ele>
        <time>2015-08-29T07:38:08Z</time>
      </trkpt>
      <trkpt lat="43.0844" lon="-0.4788">
        <ele>1091.23</ele>
        <time>2015-08-29T07:38:25Z</time>
      </trkpt>
      <trkpt lat="43.0845" lon="-0.47907">
        <ele>1094.6</ele>
        <time>2015-08-29T07:38:39Z</time>
      </trkpt>
      <trkpt lat="43.0846" lon="-0.47935">
        <ele>1099.4</ele>
        <time>2015-08-29T07:38:53Z</time>
      </trkpt>
      <trkpt lat="43.08459" lon="-0.47964">
        <ele>1102.77</ele>
        <time>2015-08-29T07:39:04Z</time>
      </trkpt>
      <trkpt lat="43.08458" lon="-0.47996">
        <ele>1107.1</ele>
        <time>2015-08-29T07:39:16Z</time>
      </trkpt>
      <trkpt lat="43.08454" lon="-0.48016">
        <ele>1107.1</ele>
        <time>2015-08-29T07:39:24Z</time>
      </trkpt>
      <trkpt lat="43.08432" lon="-0.48022">
        <ele>1108.54</ele>
        <time>2015-08-29T07:39:38Z</time>
      </trkpt>
      <trkpt lat="43.08414" lon="-0.48025">
        <ele>1110.46</ele>
        <time>2015-08-29T07:39:49Z</time>
      </trkpt>
      <trkpt lat="43.08393" lon="-0.48029">
        <ele>1116.23</ele>
        <time>2015-08-29T07:40:01Z</time>
      </trkpt>
      <trkpt lat="43.08369" lon="-0.48037">
        <ele>1120.07</ele>
        <time>2015-08-29T07:40:15Z</time>
      </trkpt>
      <trkpt lat="43.08337" lon="-0.48045">
        <ele>1124.88</ele>
        <time>2015-08-29T07:40:33Z</time>
      </trkpt>
      <trkpt lat="43.08322" lon="-0.48044">
        <ele>1126.32</ele>
        <time>2015-08-29T07:40:41Z</time>
      </trkpt>
      <trkpt lat="43.08304" lon="-0.48055">
        <ele>1126.8</ele>
        <time>2015-08-29T07:40:54Z</time>
      </trkpt>
      <trkpt lat="43.08307" lon="-0.48067">
        <ele>1128.24</ele>
        <time>2015-08-29T07:40:57Z</time>
      </trkpt>
      <trkpt lat="43.0833" lon="-0.48091">
        <ele>1132.09</ele>
        <time>2015-08-29T07:41:10Z</time>
      </trkpt>
      <trkpt lat="43.08345" lon="-0.4811">
        <ele>1133.53</ele>
        <time>2015-08-29T07:41:22Z</time>
      </trkpt>
      <trkpt lat="43.08364" lon="-0.48131">
        <ele>1135.94</ele>
        <time>2015-08-29T07:41:36Z</time>
      </trkpt>
      <trkpt lat="43.08382" lon="-0.48151">
        <ele>1139.3</ele>
        <time>2015-08-29T07:41:50Z</time>
      </trkpt>
      <trkpt lat="43.08398" lon="-0.4818">
        <ele>1142.18</ele>
        <time>2015-08-29T07:42:05Z</time>
      </trkpt>
      <trkpt lat="43.08413" lon="-0.48206">
        <ele>1144.59</ele>
        <time>2015-08-29T07:42:18Z</time>
      </trkpt>
      <trkpt lat="43.08429" lon="-0.48239">
        <ele>1146.99</ele>
        <time>2015-08-29T07:42:34Z</time>
      </trkpt>
      <trkpt lat="43.08435" lon="-0.48275">
        <ele>1150.35</ele>
        <time>2015-08-29T07:42:49Z</time>
      </trkpt>
      <trkpt lat="43.08437" lon="-0.48307">
        <ele>1150.35</ele>
        <time>2015-08-29T07:43:02Z</time>
      </trkpt>
      <trkpt lat="43.08439" lon="-0.48336">
        <ele>1150.84</ele>
        <time>2015-08-29T07:43:14Z</time>
      </trkpt>
      <trkpt lat="43.08442" lon="-0.48361">
        <ele>1153.72</ele>
        <time>2015-08-29T07:43:25Z</time>
      </trkpt>
      <trkpt lat="43.0845" lon="-0.48395">
        <ele>1158.05</ele>
        <time>2015-08-29T07:43:38Z</time>
      </trkpt>
      <trkpt lat="43.08454" lon="-0.48425">
        <ele>1159.97</ele>
        <time>2015-08-29T07:43:51Z</time>
      </trkpt>
      <trkpt lat="43.08454" lon="-0.4843">
        <ele>1159.01</ele>
        <time>2015-08-29T07:43:53Z</time>
      </trkpt>
      <trkpt lat="43.08446" lon="-0.48443">
        <ele>1159.01</ele>
        <time>2015-08-29T07:44:00Z</time>
      </trkpt>
      <trkpt lat="43.08422" lon="-0.48443">
        <ele>1159.97</ele>
        <time>2015-08-29T07:44:15Z</time>
      </trkpt>
      <trkpt lat="43.08404" lon="-0.48419">
        <ele>1160.45</ele>
        <time>2015-08-29T07:44:28Z</time>
      </trkpt>
      <trkpt lat="43.08388" lon="-0.48396">
        <ele>1162.37</ele>
        <time>2015-08-29T07:44:41Z</time>
      </trkpt>
      <trkpt lat="43.08367" lon="-0.4837">
        <ele>1166.22</ele>
        <time>2015-08-29T07:44:56Z</time>
      </trkpt>
      <trkpt lat="43.08349" lon="-0.48336">
        <ele>1169.58</ele>
        <time>2015-08-29T07:45:13Z</time>
      </trkpt>
      <trkpt lat="43.08334" lon="-0.48309">
        <ele>1171.98</ele>
        <time>2015-08-29T07:45:26Z</time>
      </trkpt>
      <trkpt lat="43.08316" lon="-0.48284">
        <ele>1172.95</ele>
        <time>2015-08-29T07:45:39Z</time>
      </trkpt>
      <trkpt lat="43.083" lon="-0.48258">
        <ele>1174.39</ele>
        <time>2015-08-29T07:45:52Z</time>
      </trkpt>
      <trkpt lat="43.08279" lon="-0.48225">
        <ele>1175.35</ele>
        <time>2015-08-29T07:46:09Z</time>
      </trkpt>
      <trkpt lat="43.08248" lon="-0.48205">
        <ele>1177.27</ele>
        <time>2015-08-29T07:46:25Z</time>
      </trkpt>
      <trkpt lat="43.08221" lon="-0.48215">
        <ele>1177.75</ele>
        <time>2015-08-29T07:46:38Z</time>
      </trkpt>
      <trkpt lat="43.08196" lon="-0.48227">
        <ele>1178.71</ele>
        <time>2015-08-29T07:46:51Z</time>
      </trkpt>
      <trkpt lat="43.08167" lon="-0.4824">
        <ele>1181.12</ele>
        <time>2015-08-29T07:47:06Z</time>
      </trkpt>
      <trkpt lat="43.08148" lon="-0.48267">
        <ele>1183.52</ele>
        <time>2015-08-29T07:47:20Z</time>
      </trkpt>
      <trkpt lat="43.08138" lon="-0.48302">
        <ele>1186.4</ele>
        <time>2015-08-29T07:47:34Z</time>
      </trkpt>
      <trkpt lat="43.08136" lon="-0.48355">
        <ele>1186.4</ele>
        <time>2015-08-29T07:47:49Z</time>
      </trkpt>
      <trkpt lat="43.08127" lon="-0.48396">
        <ele>1186.88</ele>
        <time>2015-08-29T07:48:02Z</time>
      </trkpt>
      <trkpt lat="43.08128" lon="-0.48438">
        <ele>1188.81</ele>
        <time>2015-08-29T07:48:15Z</time>
      </trkpt>
      <trkpt lat="43.08127" lon="-0.48472">
        <ele>1188.33</ele>
        <time>2015-08-29T07:48:27Z</time>
      </trkpt>
      <trkpt lat="43.08128" lon="-0.4852">
        <ele>1189.29</ele>
        <time>2015-08-29T07:48:42Z</time>
      </trkpt>
      <trkpt lat="43.08125" lon="-0.48571">
        <ele>1192.65</ele>
        <time>2015-08-29T07:48:58Z</time>
      </trkpt>
      <trkpt lat="43.08111" lon="-0.48615">
        <ele>1194.58</ele>
        <time>2015-08-29T07:49:12Z</time>
      </trkpt>
      <trkpt lat="43.08085" lon="-0.48651">
        <ele>1198.42</ele>
        <time>2015-08-29T07:49:27Z</time>
      </trkpt>
      <trkpt lat="43.08057" lon="-0.48692">
        <ele>1200.34</ele>
        <time>2015-08-29T07:49:44Z</time>
      </trkpt>
      <trkpt lat="43.08042" lon="-0.48735">
        <ele>1201.79</ele>
        <time>2015-08-29T07:49:59Z</time>
      </trkpt>
      <trkpt lat="43.0802" lon="-0.48775">
        <ele>1203.71</ele>
        <time>2015-08-29T07:50:16Z</time>
      </trkpt>
      <trkpt lat="43.08019" lon="-0.48776">
        <ele>1203.71</ele>
        <time>2015-08-29T07:50:17Z</time>
      </trkpt>
      <trkpt lat="43.0798" lon="-0.48771">
        <ele>1204.19</ele>
        <time>2015-08-29T07:50:32Z</time>
      </trkpt>
      <trkpt lat="43.07954" lon="-0.48765">
        <ele>1207.07</ele>
        <time>2015-08-29T07:50:44Z</time>
      </trkpt>
      <trkpt lat="43.07938" lon="-0.4873">
        <ele>1208.51</ele>
        <time>2015-08-29T07:50:58Z</time>
      </trkpt>
      <trkpt lat="43.07927" lon="-0.48688">
        <ele>1211.88</ele>
        <time>2015-08-29T07:51:13Z</time>
      </trkpt>
      <trkpt lat="43.07908" lon="-0.48656">
        <ele>1215.72</ele>
        <time>2015-08-29T07:51:31Z</time>
      </trkpt>
      <trkpt lat="43.07892" lon="-0.48632">
        <ele>1220.05</ele>
        <time>2015-08-29T07:51:46Z</time>
      </trkpt>
      <trkpt lat="43.07869" lon="-0.48612">
        <ele>1224.38</ele>
        <time>2015-08-29T07:52:03Z</time>
      </trkpt>
      <trkpt lat="43.07864" lon="-0.48609">
        <ele>1224.86</ele>
        <time>2015-08-29T07:52:07Z</time>
      </trkpt>
      <trkpt lat="43.07841" lon="-0.48605">
        <ele>1227.74</ele>
        <time>2015-08-29T07:52:23Z</time>
      </trkpt>
      <trkpt lat="43.07815" lon="-0.48592">
        <ele>1231.11</ele>
        <time>2015-08-29T07:52:41Z</time>
      </trkpt>
      <trkpt lat="43.07798" lon="-0.48581">
        <ele>1233.51</ele>
        <time>2015-08-29T07:52:54Z</time>
      </trkpt>
      <trkpt lat="43.07795" lon="-0.48579">
        <ele>1234.47</ele>
        <time>2015-08-29T07:52:56Z</time>
      </trkpt>
      <trkpt lat="43.07783" lon="-0.48575">
        <ele>1235.43</ele>
        <time>2015-08-29T07:53:05Z</time>
      </trkpt>
      <trkpt lat="43.07793" lon="-0.48568">
        <ele>1237.83</ele>
        <time>2015-08-29T07:53:16Z</time>
      </trkpt>
      <trkpt lat="43.07802" lon="-0.48565">
        <ele>1238.32</ele>
        <time>2015-08-29T07:53:22Z</time>
      </trkpt>
      <trkpt lat="43.07823" lon="-0.48556">
        <ele>1240.24</ele>
        <time>2015-08-29T07:53:38Z</time>
      </trkpt>
      <trkpt lat="43.07843" lon="-0.48538">
        <ele>1244.08</ele>
        <time>2015-08-29T07:53:53Z</time>
      </trkpt>
      <trkpt lat="43.0785" lon="-0.48531">
        <ele>1245.53</ele>
        <time>2015-08-29T07:54:00Z</time>
      </trkpt>
      <trkpt lat="43.07867" lon="-0.48514">
        <ele>1247.45</ele>
        <time>2015-08-29T07:54:14Z</time>
      </trkpt>
      <trkpt lat="43.07885" lon="-0.48499">
        <ele>1249.85</ele>
        <time>2015-08-29T07:54:29Z</time>
      </trkpt>
      <trkpt lat="43.07903" lon="-0.48475">
        <ele>1252.74</ele>
        <time>2015-08-29T07:54:46Z</time>
      </trkpt>
      <trkpt lat="43.07921" lon="-0.48445">
        <ele>1256.58</ele>
        <time>2015-08-29T07:55:04Z</time>
      </trkpt>
      <trkpt lat="43.07935" lon="-0.48418">
        <ele>1259.94</ele>
        <time>2015-08-29T07:55:20Z</time>
      </trkpt>
      <trkpt lat="43.07937" lon="-0.4839">
        <ele>1262.35</ele>
        <time>2015-08-29T07:55:34Z</time>
      </trkpt>
      <trkpt lat="43.07922" lon="-0.48358">
        <ele>1261.87</ele>
        <time>2015-08-29T07:55:50Z</time>
      </trkpt>
      <trkpt lat="43.07911" lon="-0.48337">
        <ele>1262.83</ele>
        <time>2015-08-29T07:56:04Z</time>
      </trkpt>
      <trkpt lat="43.0791" lon="-0.48335">
        <ele>1262.83</ele>
        <time>2015-08-29T07:56:05Z</time>
      </trkpt>
      <trkpt lat="43.07901" lon="-0.48322">
        <ele>1262.35</ele>
        <time>2015-08-29T07:56:18Z</time>
      </trkpt>
      <trkpt lat="43.07901" lon="-0.48321">
        <ele>1261.87</ele>
        <time>2015-08-29T07:56:27Z</time>
      </trkpt>
      <trkpt lat="43.07902" lon="-0.48319">
        <ele>1261.87</ele>
        <time>2015-08-29T07:56:29Z</time>
      </trkpt>
      <trkpt lat="43.07901" lon="-0.48317">
        <ele>1261.39</ele>
        <time>2015-08-29T07:56:41Z</time>
      </trkpt>
      <trkpt lat="43.07902" lon="-0.48317">
        <ele>1261.39</ele>
        <time>2015-08-29T07:56:44Z</time>
      </trkpt>
      <trkpt lat="43.07903" lon="-0.48316">
        <ele>1260.91</ele>
        <time>2015-08-29T07:56:46Z</time>
      </trkpt>
      <trkpt lat="43.07906" lon="-0.48317">
        <ele>1260.43</ele>
        <time>2015-08-29T07:56:59Z</time>
      </trkpt>
      <trkpt lat="43.07905" lon="-0.48317">
        <ele>1260.43</ele>
        <time>2015-08-29T07:57:26Z</time>
      </trkpt>
      <trkpt lat="43.07905" lon="-0.48317">
        <ele>1260.43</ele>
        <time>2015-08-29T07:57:50Z</time>
      </trkpt>
      <trkpt lat="43.07905" lon="-0.48317">
        <ele>1259.94</ele>
        <time>2015-08-29T07:58:12Z</time>
      </trkpt>
      <trkpt lat="43.07906" lon="-0.48318">
        <ele>1259.94</ele>
        <time>2015-08-29T07:58:29Z</time>
      </trkpt>
      <trkpt lat="43.07905" lon="-0.48317">
        <ele>1259.94</ele>
        <time>2015-08-29T07:58:47Z</time>
      </trkpt>
      <trkpt lat="43.07904" lon="-0.48316">
        <ele>1258.98</ele>
        <time>2015-08-29T07:59:08Z</time>
      </trkpt>
      <trkpt lat="43.07902" lon="-0.48317">
        <ele>1258.02</ele>
        <time>2015-08-29T07:59:24Z</time>
      </trkpt>
      <trkpt lat="43.07901" lon="-0.48316">
        <ele>1258.5</ele>
        <time>2015-08-29T07:59:35Z</time>
      </trkpt>
      <trkpt lat="43.07901" lon="-0.48316">
        <ele>1258.5</ele>
        <time>2015-08-29T07:59:55Z</time>
      </trkpt>
      <trkpt lat="43.07901" lon="-0.48316">
        <ele>1258.02</ele>
        <time>2015-08-29T08:00:26Z</time>
      </trkpt>
      <trkpt lat="43.079" lon="-0.48317">
        <ele>1258.02</ele>
        <time>2015-08-29T08:00:31Z</time>
      </trkpt>
      <trkpt lat="43.07901" lon="-0.48321">
        <ele>1258.5</ele>
        <time>2015-08-29T08:00:39Z</time>
      </trkpt>
      <trkpt lat="43.07901" lon="-0.48321">
        <ele>1258.5</ele>
        <time>2015-08-29T08:01:13Z</time>
      </trkpt>
      <trkpt lat="43.079" lon="-0.48321">
        <ele>1258.98</ele>
        <time>2015-08-29T08:01:36Z</time>
      </trkpt>
      <trkpt lat="43.07901" lon="-0.48321">
        <ele>1258.98</ele>
        <time>2015-08-29T08:01:47Z</time>
      </trkpt>
      <trkpt lat="43.07902" lon="-0.4832">
        <ele>1258.02</ele>
        <time>2015-08-29T08:02:01Z</time>
      </trkpt>
      <trkpt lat="43.07901" lon="-0.48293">
        <ele>1256.58</ele>
        <time>2015-08-29T08:02:13Z</time>
      </trkpt>
      <trkpt lat="43.0789" lon="-0.48261">
        <ele>1252.74</ele>
        <time>2015-08-29T08:02:22Z</time>
      </trkpt>
      <trkpt lat="43.07882" lon="-0.48229">
        <ele>1248.41</ele>
        <time>2015-08-29T08:02:32Z</time>
      </trkpt>
      <trkpt lat="43.07877" lon="-0.48213">
        <ele>1246.97</ele>
        <time>2015-08-29T08:02:39Z</time>
      </trkpt>
      <trkpt lat="43.07866" lon="-0.48196">
        <ele>1246.01</ele>
        <time>2015-08-29T08:02:48Z</time>
      </trkpt>
      <trkpt lat="43.07856" lon="-0.48183">
        <ele>1247.45</ele>
        <time>2015-08-29T08:02:56Z</time>
      </trkpt>
      <trkpt lat="43.07847" lon="-0.48178">
        <ele>1247.93</ele>
        <time>2015-08-29T08:03:02Z</time>
      </trkpt>
      <trkpt lat="43.07841" lon="-0.48175">
        <ele>1247.93</ele>
        <time>2015-08-29T08:03:06Z</time>
      </trkpt>
      <trkpt lat="43.07825" lon="-0.48155">
        <ele>1247.45</ele>
        <time>2015-08-29T08:03:16Z</time>
      </trkpt>
      <trkpt lat="43.07814" lon="-0.48135">
        <ele>1245.53</ele>
        <time>2015-08-29T08:03:25Z</time>
      </trkpt>
      <trkpt lat="43.0781" lon="-0.48127">
        <ele>1244.56</ele>
        <time>2015-08-29T08:03:28Z</time>
      </trkpt>
      <trkpt lat="43.07807" lon="-0.48126">
        <ele>1243.6</ele>
        <time>2015-08-29T08:03:30Z</time>
      </trkpt>
      <trkpt lat="43.07804" lon="-0.48126">
        <ele>1243.12</ele>
        <time>2015-08-29T08:03:34Z</time>
      </trkpt>
      <trkpt lat="43.07799" lon="-0.48126">
        <ele>1245.04</ele>
        <time>2015-08-29T08:03:45Z</time>
      </trkpt>
      <trkpt lat="43.07798" lon="-0.48126">
        <ele>1245.53</ele>
        <time>2015-08-29T08:04:00Z</time>
      </trkpt>
      <trkpt lat="43.07798" lon="-0.48128">
        <ele>1246.01</ele>
        <time>2015-08-29T08:04:16Z</time>
      </trkpt>
      <trkpt lat="43.07799" lon="-0.48126">
        <ele>1245.53</ele>
        <time>2015-08-29T08:04:29Z</time>
      </trkpt>
      <trkpt lat="43.07798" lon="-0.48125">
        <ele>1245.53</ele>
        <time>2015-08-29T08:04:33Z</time>
      </trkpt>
      <trkpt lat="43.07797" lon="-0.48107">
        <ele>1246.49</ele>
        <time>2015-08-29T08:04:44Z</time>
      </trkpt>
      <trkpt lat="43.07786" lon="-0.481">
        <ele>1246.97</ele>
        <time>2015-08-29T08:05:56Z</time>
      </trkpt>
      <trkpt lat="43.07764" lon="-0.48085">
        <ele>1246.49</ele>
        <time>2015-08-29T08:06:05Z</time>
      </trkpt>
      <trkpt lat="43.07755" lon="-0.48092">
        <ele>1246.97</ele>
        <time>2015-08-29T08:06:08Z</time>
      </trkpt>
      <trkpt lat="43.07749" lon="-0.48109">
        <ele>1249.85</ele>
        <time>2015-08-29T08:06:19Z</time>
      </trkpt>
      <trkpt lat="43.07734" lon="-0.48094">
        <ele>1250.33</ele>
        <time>2015-08-29T08:06:34Z</time>
      </trkpt>
      <trkpt lat="43.0772" lon="-0.48078">
        <ele>1252.25</ele>
        <time>2015-08-29T08:06:47Z</time>
      </trkpt>
      <trkpt lat="43.07711" lon="-0.48056">
        <ele>1254.18</ele>
        <time>2015-08-29T08:06:59Z</time>
      </trkpt>
      <trkpt lat="43.07711" lon="-0.48053">
        <ele>1254.66</ele>
        <time>2015-08-29T08:07:01Z</time>
      </trkpt>
      <trkpt lat="43.07711" lon="-0.48048">
        <ele>1254.66</ele>
        <time>2015-08-29T08:07:04Z</time>
      </trkpt>
      <trkpt lat="43.07705" lon="-0.48043">
        <ele>1255.62</ele>
        <time>2015-08-29T08:07:10Z</time>
      </trkpt>
      <trkpt lat="43.07692" lon="-0.48014">
        <ele>1258.98</ele>
        <time>2015-08-29T08:07:27Z</time>
      </trkpt>
      <trkpt lat="43.07679" lon="-0.47989">
        <ele>1259.46</ele>
        <time>2015-08-29T08:07:39Z</time>
      </trkpt>
      <trkpt lat="43.07677" lon="-0.47984">
        <ele>1258.98</ele>
        <time>2015-08-29T08:07:41Z</time>
      </trkpt>
      <trkpt lat="43.07671" lon="-0.47979">
        <ele>1259.46</ele>
        <time>2015-08-29T08:07:50Z</time>
      </trkpt>
      <trkpt lat="43.07664" lon="-0.47969">
        <ele>1259.46</ele>
        <time>2015-08-29T08:07:56Z</time>
      </trkpt>
      <trkpt lat="43.07653" lon="-0.47963">
        <ele>1258.02</ele>
        <time>2015-08-29T08:08:03Z</time>
      </trkpt>
      <trkpt lat="43.07635" lon="-0.47948">
        <ele>1260.43</ele>
        <time>2015-08-29T08:08:17Z</time>
      </trkpt>
      <trkpt lat="43.07627" lon="-0.47941">
        <ele>1262.83</ele>
        <time>2015-08-29T08:08:25Z</time>
      </trkpt>
      <trkpt lat="43.07622" lon="-0.4794">
        <ele>1263.79</ele>
        <time>2015-08-29T08:08:29Z</time>
      </trkpt>
      <trkpt lat="43.07606" lon="-0.47932">
        <ele>1265.23</ele>
        <time>2015-08-29T08:08:43Z</time>
      </trkpt>
      <trkpt lat="43.07598" lon="-0.47923">
        <ele>1267.16</ele>
        <time>2015-08-29T08:08:56Z</time>
      </trkpt>
      <trkpt lat="43.07598" lon="-0.47923">
        <ele>1267.16</ele>
        <time>2015-08-29T08:08:58Z</time>
      </trkpt>
      <trkpt lat="43.07596" lon="-0.47923">
        <ele>1267.64</ele>
        <time>2015-08-29T08:09:00Z</time>
      </trkpt>
      <trkpt lat="43.07593" lon="-0.47922">
        <ele>1268.12</ele>
        <time>2015-08-29T08:09:03Z</time>
      </trkpt>
      <trkpt lat="43.07592" lon="-0.47921">
        <ele>1268.6</ele>
        <time>2015-08-29T08:09:05Z</time>
      </trkpt>
      <trkpt lat="43.07576" lon="-0.47917">
        <ele>1271.48</ele>
        <time>2015-08-29T08:09:18Z</time>
      </trkpt>
      <trkpt lat="43.0757" lon="-0.47913">
        <ele>1272.92</ele>
        <time>2015-08-29T08:09:23Z</time>
      </trkpt>
      <trkpt lat="43.07563" lon="-0.47909">
        <ele>1273.4</ele>
        <time>2015-08-29T08:09:30Z</time>
      </trkpt>
      <trkpt lat="43.07561" lon="-0.47906">
        <ele>1273.88</ele>
        <time>2015-08-29T08:09:33Z</time>
      </trkpt>
      <trkpt lat="43.07552" lon="-0.47898">
        <ele>1276.77</ele>
        <time>2015-08-29T08:09:47Z</time>
      </trkpt>
      <trkpt lat="43.07549" lon="-0.47895">
        <ele>1276.77</ele>
        <time>2015-08-29T08:09:50Z</time>
      </trkpt>
      <trkpt lat="43.07535" lon="-0.47891">
        <ele>1278.69</ele>
        <time>2015-08-29T08:10:01Z</time>
      </trkpt>
      <trkpt lat="43.07521" lon="-0.47884">
        <ele>1279.65</ele>
        <time>2015-08-29T08:10:14Z</time>
      </trkpt>
      <trkpt lat="43.07519" lon="-0.47884">
        <ele>1279.65</ele>
        <time>2015-08-29T08:10:16Z</time>
      </trkpt>
      <trkpt lat="43.07513" lon="-0.47883">
        <ele>1280.13</ele>
        <time>2015-08-29T08:10:22Z</time>
      </trkpt>
      <trkpt lat="43.07511" lon="-0.47881">
        <ele>1280.13</ele>
        <time>2015-08-29T08:10:24Z</time>
      </trkpt>
      <trkpt lat="43.07518" lon="-0.47871">
        <ele>1281.09</ele>
        <time>2015-08-29T08:10:35Z</time>
      </trkpt>
      <trkpt lat="43.07519" lon="-0.4787">
        <ele>1281.57</ele>
        <time>2015-08-29T08:10:36Z</time>
      </trkpt>
      <trkpt lat="43.07521" lon="-0.47866">
        <ele>1282.54</ele>
        <time>2015-08-29T08:10:40Z</time>
      </trkpt>
      <trkpt lat="43.07527" lon="-0.47858">
        <ele>1283.02</ele>
        <time>2015-08-29T08:10:48Z</time>
      </trkpt>
      <trkpt lat="43.07533" lon="-0.47853">
        <ele>1283.98</ele>
        <time>2015-08-29T08:10:54Z</time>
      </trkpt>
      <trkpt lat="43.07541" lon="-0.4784">
        <ele>1285.9</ele>
        <time>2015-08-29T08:11:05Z</time>
      </trkpt>
      <trkpt lat="43.07542" lon="-0.47831">
        <ele>1286.86</ele>
        <time>2015-08-29T08:11:14Z</time>
      </trkpt>
      <trkpt lat="43.07526" lon="-0.4782">
        <ele>1288.3</ele>
        <time>2015-08-29T08:11:29Z</time>
      </trkpt>
      <trkpt lat="43.07526" lon="-0.47819">
        <ele>1288.78</ele>
        <time>2015-08-29T08:11:42Z</time>
      </trkpt>
      <trkpt lat="43.07526" lon="-0.47819">
        <ele>1287.82</ele>
        <time>2015-08-29T08:12:05Z</time>
      </trkpt>
      <trkpt lat="43.07525" lon="-0.47818">
        <ele>1287.82</ele>
        <time>2015-08-29T08:12:31Z</time>
      </trkpt>
      <trkpt lat="43.07525" lon="-0.47818">
        <ele>1287.82</ele>
        <time>2015-08-29T08:12:43Z</time>
      </trkpt>
      <trkpt lat="43.07527" lon="-0.47828">
        <ele>1287.34</ele>
        <time>2015-08-29T08:12:51Z</time>
      </trkpt>
      <trkpt lat="43.0753" lon="-0.47829">
        <ele>1286.86</ele>
        <time>2015-08-29T08:12:53Z</time>
      </trkpt>
      <trkpt lat="43.07535" lon="-0.47818">
        <ele>1286.86</ele>
        <time>2015-08-29T08:13:02Z</time>
      </trkpt>
      <trkpt lat="43.07531" lon="-0.47811">
        <ele>1287.82</ele>
        <time>2015-08-29T08:13:07Z</time>
      </trkpt>
      <trkpt lat="43.07533" lon="-0.47807">
        <ele>1288.78</ele>
        <time>2015-08-29T08:13:10Z</time>
      </trkpt>
      <trkpt lat="43.07534" lon="-0.47805">
        <ele>1289.75</ele>
        <time>2015-08-29T08:13:12Z</time>
      </trkpt>
      <trkpt lat="43.07536" lon="-0.47799">
        <ele>1290.71</ele>
        <time>2015-08-29T08:13:16Z</time>
      </trkpt>
      <trkpt lat="43.0754" lon="-0.47798">
        <ele>1291.19</ele>
        <time>2015-08-29T08:13:20Z</time>
      </trkpt>
      <trkpt lat="43.07548" lon="-0.47812">
        <ele>1289.75</ele>
        <time>2015-08-29T08:13:28Z</time>
      </trkpt>
      <trkpt lat="43.07559" lon="-0.47823">
        <ele>1287.34</ele>
        <time>2015-08-29T08:13:34Z</time>
      </trkpt>
      <trkpt lat="43.0757" lon="-0.47844">
        <ele>1282.54</ele>
        <time>2015-08-29T08:13:43Z</time>
      </trkpt>
      <trkpt lat="43.07593" lon="-0.47865">
        <ele>1276.77</ele>
        <time>2015-08-29T08:13:56Z</time>
      </trkpt>
      <trkpt lat="43.07601" lon="-0.47868">
        <ele>1275.33</ele>
        <time>2015-08-29T08:14:00Z</time>
      </trkpt>
      <trkpt lat="43.07619" lon="-0.4787">
        <ele>1271.96</ele>
        <time>2015-08-29T08:14:11Z</time>
      </trkpt>
      <trkpt lat="43.07623" lon="-0.47865">
        <ele>1269.56</ele>
        <time>2015-08-29T08:14:22Z</time>
      </trkpt>
      <trkpt lat="43.07623" lon="-0.47865">
        <ele>1269.08</ele>
        <time>2015-08-29T08:14:26Z</time>
      </trkpt>
      <trkpt lat="43.07625" lon="-0.47865">
        <ele>1268.6</ele>
        <time>2015-08-29T08:14:28Z</time>
      </trkpt>
      <trkpt lat="43.07631" lon="-0.47862">
        <ele>1268.6</ele>
        <time>2015-08-29T08:14:34Z</time>
      </trkpt>
      <trkpt lat="43.07635" lon="-0.47859">
        <ele>1268.6</ele>
        <time>2015-08-29T08:14:38Z</time>
      </trkpt>
      <trkpt lat="43.0764" lon="-0.47855">
        <ele>1268.6</ele>
        <time>2015-08-29T08:14:43Z</time>
      </trkpt>
      <trkpt lat="43.07642" lon="-0.47853">
        <ele>1269.08</ele>
        <time>2015-08-29T08:14:52Z</time>
      </trkpt>
      <trkpt lat="43.07643" lon="-0.47852">
        <ele>1269.08</ele>
        <time>2015-08-29T08:14:53Z</time>
      </trkpt>
      <trkpt lat="43.07641" lon="-0.47823">
        <ele>1268.6</ele>
        <time>2015-08-29T08:15:06Z</time>
      </trkpt>
      <trkpt lat="43.07649" lon="-0.47802">
        <ele>1270.52</ele>
        <time>2015-08-29T08:15:18Z</time>
      </trkpt>
      <trkpt lat="43.07651" lon="-0.47799">
        <ele>1271.48</ele>
        <time>2015-08-29T08:15:24Z</time>
      </trkpt>
      <trkpt lat="43.07655" lon="-0.47799">
        <ele>1274.36</ele>
        <time>2015-08-29T08:15:36Z</time>
      </trkpt>
      <trkpt lat="43.07656" lon="-0.478">
        <ele>1275.81</ele>
        <time>2015-08-29T08:15:42Z</time>
      </trkpt>
      <trkpt lat="43.0766" lon="-0.47793">
        <ele>1274.36</ele>
        <time>2015-08-29T08:15:57Z</time>
      </trkpt>
      <trkpt lat="43.07659" lon="-0.47793">
        <ele>1272.44</ele>
        <time>2015-08-29T08:16:10Z</time>
      </trkpt>
      <trkpt lat="43.07673" lon="-0.47778">
        <ele>1273.88</ele>
        <time>2015-08-29T08:16:21Z</time>
      </trkpt>
      <trkpt lat="43.07679" lon="-0.47764">
        <ele>1274.85</ele>
        <time>2015-08-29T08:16:27Z</time>
      </trkpt>
      <trkpt lat="43.07689" lon="-0.47754">
        <ele>1275.33</ele>
        <time>2015-08-29T08:16:37Z</time>
      </trkpt>
      <trkpt lat="43.07697" lon="-0.47755">
        <ele>1277.25</ele>
        <time>2015-08-29T08:16:45Z</time>
      </trkpt>
      <trkpt lat="43.07705" lon="-0.47753">
        <ele>1280.13</ele>
        <time>2015-08-29T08:16:54Z</time>
      </trkpt>
      <trkpt lat="43.07708" lon="-0.47754">
        <ele>1280.61</ele>
        <time>2015-08-29T08:16:56Z</time>
      </trkpt>
      <trkpt lat="43.07711" lon="-0.47754">
        <ele>1281.09</ele>
        <time>2015-08-29T08:17:10Z</time>
      </trkpt>
      <trkpt lat="43.07711" lon="-0.47754">
        <ele>1280.61</ele>
        <time>2015-08-29T08:17:20Z</time>
      </trkpt>
      <trkpt lat="43.07715" lon="-0.47748">
        <ele>1280.13</ele>
        <time>2015-08-29T08:17:23Z</time>
      </trkpt>
      <trkpt lat="43.07718" lon="-0.47736">
        <ele>1278.69</ele>
        <time>2015-08-29T08:17:31Z</time>
      </trkpt>
      <trkpt lat="43.07721" lon="-0.47731">
        <ele>1278.21</ele>
        <time>2015-08-29T08:17:45Z</time>
      </trkpt>
      <trkpt lat="43.07721" lon="-0.47729">
        <ele>1277.73</ele>
        <time>2015-08-29T08:18:06Z</time>
      </trkpt>
      <trkpt lat="43.07721" lon="-0.47729">
        <ele>1276.77</ele>
        <time>2015-08-29T08:18:25Z</time>
      </trkpt>
      <trkpt lat="43.0772" lon="-0.4773">
        <ele>1276.77</ele>
        <time>2015-08-29T08:18:41Z</time>
      </trkpt>
      <trkpt lat="43.07721" lon="-0.4773">
        <ele>1276.77</ele>
        <time>2015-08-29T08:18:59Z</time>
      </trkpt>
      <trkpt lat="43.07723" lon="-0.47729">
        <ele>1276.77</ele>
        <time>2015-08-29T08:19:01Z</time>
      </trkpt>
      <trkpt lat="43.07735" lon="-0.47708">
        <ele>1278.21</ele>
        <time>2015-08-29T08:19:15Z</time>
      </trkpt>
      <trkpt lat="43.07741" lon="-0.47694">
        <ele>1279.65</ele>
        <time>2015-08-29T08:19:24Z</time>
      </trkpt>
      <trkpt lat="43.07742" lon="-0.4769">
        <ele>1279.65</ele>
        <time>2015-08-29T08:19:27Z</time>
      </trkpt>
      <trkpt lat="43.07751" lon="-0.47672">
        <ele>1280.61</ele>
        <time>2015-08-29T08:19:41Z</time>
      </trkpt>
      <trkpt lat="43.07753" lon="-0.47667">
        <ele>1281.09</ele>
        <time>2015-08-29T08:19:44Z</time>
      </trkpt>
      <trkpt lat="43.07755" lon="-0.47657">
        <ele>1280.61</ele>
        <time>2015-08-29T08:19:50Z</time>
      </trkpt>
      <trkpt lat="43.07767" lon="-0.47641">
        <ele>1283.02</ele>
        <time>2015-08-29T08:20:03Z</time>
      </trkpt>
      <trkpt lat="43.0777" lon="-0.47638">
        <ele>1283.5</ele>
        <time>2015-08-29T08:20:06Z</time>
      </trkpt>
      <trkpt lat="43.07772" lon="-0.47626">
        <ele>1284.94</ele>
        <time>2015-08-29T08:20:13Z</time>
      </trkpt>
      <trkpt lat="43.07759" lon="-0.47613">
        <ele>1286.86</ele>
        <time>2015-08-29T08:20:25Z</time>
      </trkpt>
      <trkpt lat="43.07757" lon="-0.47608">
        <ele>1286.86</ele>
        <time>2015-08-29T08:20:29Z</time>
      </trkpt>
      <trkpt lat="43.07751" lon="-0.476">
        <ele>1286.86</ele>
        <time>2015-08-29T08:20:36Z</time>
      </trkpt>
      <trkpt lat="43.07749" lon="-0.4758">
        <ele>1288.78</ele>
        <time>2015-08-29T08:20:49Z</time>
      </trkpt>
      <trkpt lat="43.0774" lon="-0.47583">
        <ele>1290.71</ele>
        <time>2015-08-29T08:20:57Z</time>
      </trkpt>
      <trkpt lat="43.07726" lon="-0.47598">
        <ele>1293.11</ele>
        <time>2015-08-29T08:21:13Z</time>
      </trkpt>
      <trkpt lat="43.0772" lon="-0.47605">
        <ele>1294.07</ele>
        <time>2015-08-29T08:21:19Z</time>
      </trkpt>
      <trkpt lat="43.07717" lon="-0.47607">
        <ele>1294.07</ele>
        <time>2015-08-29T08:21:23Z</time>
      </trkpt>
      <trkpt lat="43.07709" lon="-0.47612">
        <ele>1294.55</ele>
        <time>2015-08-29T08:21:31Z</time>
      </trkpt>
      <trkpt lat="43.07707" lon="-0.47608">
        <ele>1294.07</ele>
        <time>2015-08-29T08:21:35Z</time>
      </trkpt>
      <trkpt lat="43.07704" lon="-0.47584">
        <ele>1298.88</ele>
        <time>2015-08-29T08:21:51Z</time>
      </trkpt>
      <trkpt lat="43.07704" lon="-0.47556">
        <ele>1301.76</ele>
        <time>2015-08-29T08:22:04Z</time>
      </trkpt>
      <trkpt lat="43.07706" lon="-0.47529">
        <ele>1302.24</ele>
        <time>2015-08-29T08:22:17Z</time>
      </trkpt>
      <trkpt lat="43.077" lon="-0.47493">
        <ele>1302.24</ele>
        <time>2015-08-29T08:22:32Z</time>
      </trkpt>
      <trkpt lat="43.07697" lon="-0.47466">
        <ele>1302.24</ele>
        <time>2015-08-29T08:22:43Z</time>
      </trkpt>
      <trkpt lat="43.07694" lon="-0.47426">
        <ele>1302.24</ele>
        <time>2015-08-29T08:22:55Z</time>
      </trkpt>
      <trkpt lat="43.07689" lon="-0.47403">
        <ele>1303.2</ele>
        <time>2015-08-29T08:23:05Z</time>
      </trkpt>
      <trkpt lat="43.0769" lon="-0.47373">
        <ele>1303.69</ele>
        <time>2015-08-29T08:23:18Z</time>
      </trkpt>
      <trkpt lat="43.07681" lon="-0.47357">
        <ele>1304.65</ele>
        <time>2015-08-29T08:23:27Z</time>
      </trkpt>
      <trkpt lat="43.07677" lon="-0.47351">
        <ele>1304.17</ele>
        <time>2015-08-29T08:23:37Z</time>
      </trkpt>
      <trkpt lat="43.07678" lon="-0.47343">
        <ele>1307.05</ele>
        <time>2015-08-29T08:23:49Z</time>
      </trkpt>
      <trkpt lat="43.07681" lon="-0.47339">
        <ele>1310.41</ele>
        <time>2015-08-29T08:23:58Z</time>
      </trkpt>
      <trkpt lat="43.07677" lon="-0.47331">
        <ele>1311.86</ele>
        <time>2015-08-29T08:24:10Z</time>
      </trkpt>
      <trkpt lat="43.07676" lon="-0.4733">
        <ele>1311.86</ele>
        <time>2015-08-29T08:24:37Z</time>
      </trkpt>
      <trkpt lat="43.07674" lon="-0.4732">
        <ele>1311.86</ele>
        <time>2015-08-29T08:24:53Z</time>
      </trkpt>
      <trkpt lat="43.07663" lon="-0.47304">
        <ele>1313.3</ele>
        <time>2015-08-29T08:25:04Z</time>
      </trkpt>
      <trkpt lat="43.07661" lon="-0.473">
        <ele>1314.26</ele>
        <time>2015-08-29T08:25:08Z</time>
      </trkpt>
      <trkpt lat="43.07658" lon="-0.47284">
        <ele>1313.78</ele>
        <time>2015-08-29T08:25:19Z</time>
      </trkpt>
      <trkpt lat="43.07658" lon="-0.47274">
        <ele>1312.34</ele>
        <time>2015-08-29T08:25:22Z</time>
      </trkpt>
      <trkpt lat="43.07652" lon="-0.47268">
        <ele>1311.38</ele>
        <time>2015-08-29T08:25:36Z</time>
      </trkpt>
      <trkpt lat="43.07653" lon="-0.47269">
        <ele>1312.34</ele>
        <time>2015-08-29T08:25:58Z</time>
      </trkpt>
      <trkpt lat="43.07653" lon="-0.47268">
        <ele>1312.82</ele>
        <time>2015-08-29T08:26:23Z</time>
      </trkpt>
      <trkpt lat="43.07653" lon="-0.47269">
        <ele>1312.82</ele>
        <time>2015-08-29T08:26:38Z</time>
      </trkpt>
      <trkpt lat="43.07652" lon="-0.47266">
        <ele>1312.82</ele>
        <time>2015-08-29T08:26:51Z</time>
      </trkpt>
      <trkpt lat="43.07652" lon="-0.47253">
        <ele>1311.86</ele>
        <time>2015-08-29T08:26:55Z</time>
      </trkpt>
      <trkpt lat="43.07655" lon="-0.4722">
        <ele>1310.41</ele>
        <time>2015-08-29T08:27:08Z</time>
      </trkpt>
      <trkpt lat="43.07659" lon="-0.47199">
        <ele>1308.97</ele>
        <time>2015-08-29T08:27:19Z</time>
      </trkpt>
      <trkpt lat="43.07658" lon="-0.47177">
        <ele>1306.57</ele>
        <time>2015-08-29T08:27:29Z</time>
      </trkpt>
      <trkpt lat="43.07662" lon="-0.47151">
        <ele>1302.72</ele>
        <time>2015-08-29T08:27:39Z</time>
      </trkpt>
      <trkpt lat="43.07662" lon="-0.4715">
        <ele>1302.72</ele>
        <time>2015-08-29T08:27:40Z</time>
      </trkpt>
      <trkpt lat="43.07663" lon="-0.47145">
        <ele>1301.76</ele>
        <time>2015-08-29T08:27:49Z</time>
      </trkpt>
      <trkpt lat="43.07664" lon="-0.4714">
        <ele>1299.84</ele>
        <time>2015-08-29T08:27:55Z</time>
      </trkpt>
      <trkpt lat="43.07665" lon="-0.47134">
        <ele>1298.88</ele>
        <time>2015-08-29T08:28:00Z</time>
      </trkpt>
      <trkpt lat="43.07666" lon="-0.47127">
        <ele>1296.96</ele>
        <time>2015-08-29T08:28:06Z</time>
      </trkpt>
      <trkpt lat="43.07665" lon="-0.47124">
        <ele>1295.51</ele>
        <time>2015-08-29T08:28:20Z</time>
      </trkpt>
      <trkpt lat="43.07664" lon="-0.47124">
        <ele>1295.99</ele>
        <time>2015-08-29T08:28:44Z</time>
      </trkpt>
      <trkpt lat="43.07664" lon="-0.47125">
        <ele>1296.48</ele>
        <time>2015-08-29T08:29:04Z</time>
      </trkpt>
      <trkpt lat="43.07666" lon="-0.47125">
        <ele>1296.96</ele>
        <time>2015-08-29T08:29:19Z</time>
      </trkpt>
      <trkpt lat="43.07669" lon="-0.47119">
        <ele>1295.99</ele>
        <time>2015-08-29T08:29:34Z</time>
      </trkpt>
      <trkpt lat="43.07674" lon="-0.47082">
        <ele>1288.3</ele>
        <time>2015-08-29T08:29:46Z</time>
      </trkpt>
      <trkpt lat="43.0768" lon="-0.47072">
        <ele>1285.9</ele>
        <time>2015-08-29T08:29:50Z</time>
      </trkpt>
      <trkpt lat="43.07682" lon="-0.47031">
        <ele>1277.73</ele>
        <time>2015-08-29T08:30:01Z</time>
      </trkpt>
      <trkpt lat="43.07691" lon="-0.46973">
        <ele>1269.08</ele>
        <time>2015-08-29T08:30:14Z</time>
      </trkpt>
      <trkpt lat="43.07692" lon="-0.46936">
        <ele>1263.31</ele>
        <time>2015-08-29T08:30:23Z</time>
      </trkpt>
      <trkpt lat="43.07691" lon="-0.46909">
        <ele>1259.94</ele>
        <time>2015-08-29T08:30:31Z</time>
      </trkpt>
      <trkpt lat="43.07692" lon="-0.46868">
        <ele>1255.62</ele>
        <time>2015-08-29T08:30:41Z</time>
      </trkpt>
      <trkpt lat="43.07694" lon="-0.4684">
        <ele>1251.77</ele>
        <time>2015-08-29T08:30:50Z</time>
      </trkpt>
      <trkpt lat="43.07694" lon="-0.46839">
        <ele>1251.29</ele>
        <time>2015-08-29T08:30:52Z</time>
      </trkpt>
      <trkpt lat="43.07692" lon="-0.46834">
        <ele>1250.33</ele>
        <time>2015-08-29T08:30:54Z</time>
      </trkpt>
      <trkpt lat="43.07692" lon="-0.4683">
        <ele>1249.85</ele>
        <time>2015-08-29T08:30:55Z</time>
      </trkpt>
      <trkpt lat="43.0769" lon="-0.46806">
        <ele>1246.97</ele>
        <time>2015-08-29T08:31:03Z</time>
      </trkpt>
      <trkpt lat="43.0769" lon="-0.46803">
        <ele>1246.49</ele>
        <time>2015-08-29T08:31:04Z</time>
      </trkpt>
      <trkpt lat="43.07689" lon="-0.46799">
        <ele>1246.01</ele>
        <time>2015-08-29T08:31:05Z</time>
      </trkpt>
      <trkpt lat="43.0769" lon="-0.46795">
        <ele>1245.04</ele>
        <time>2015-08-29T08:31:06Z</time>
      </trkpt>
      <trkpt lat="43.0769" lon="-0.46793">
        <ele>1245.04</ele>
        <time>2015-08-29T08:31:07Z</time>
      </trkpt>
      <trkpt lat="43.07691" lon="-0.4679">
        <ele>1244.56</ele>
        <time>2015-08-29T08:31:08Z</time>
      </trkpt>
      <trkpt lat="43.07693" lon="-0.46781">
        <ele>1243.12</ele>
        <time>2015-08-29T08:31:12Z</time>
      </trkpt>
      <trkpt lat="43.07693" lon="-0.46778">
        <ele>1242.64</ele>
        <time>2015-08-29T08:31:13Z</time>
      </trkpt>
      <trkpt lat="43.07694" lon="-0.46739">
        <ele>1238.32</ele>
        <time>2015-08-29T08:31:23Z</time>
      </trkpt>
      <trkpt lat="43.07693" lon="-0.46694">
        <ele>1233.51</ele>
        <time>2015-08-29T08:31:35Z</time>
      </trkpt>
      <trkpt lat="43.07693" lon="-0.46694">
        <ele>1233.51</ele>
        <time>2015-08-29T08:31:44Z</time>
      </trkpt>
      <trkpt lat="43.07693" lon="-0.46694">
        <ele>1234.47</ele>
        <time>2015-08-29T08:31:59Z</time>
      </trkpt>
      <trkpt lat="43.07693" lon="-0.46695">
        <ele>1235.43</ele>
        <time>2015-08-29T08:32:14Z</time>
      </trkpt>
      <trkpt lat="43.07693" lon="-0.46695">
        <ele>1237.35</ele>
        <time>2015-08-29T08:32:30Z</time>
      </trkpt>
      <trkpt lat="43.07692" lon="-0.46696">
        <ele>1237.83</ele>
        <time>2015-08-29T08:32:59Z</time>
      </trkpt>
      <trkpt lat="43.07693" lon="-0.46696">
        <ele>1237.35</ele>
        <time>2015-08-29T08:33:30Z</time>
      </trkpt>
      <trkpt lat="43.07693" lon="-0.46696">
        <ele>1237.35</ele>
        <time>2015-08-29T08:33:56Z</time>
      </trkpt>
      <trkpt lat="43.07693" lon="-0.46695">
        <ele>1237.83</ele>
        <time>2015-08-29T08:34:07Z</time>
      </trkpt>
      <trkpt lat="43.07693" lon="-0.46695">
        <ele>1237.83</ele>
        <time>2015-08-29T08:34:20Z</time>
      </trkpt>
      <trkpt lat="43.07692" lon="-0.46695">
        <ele>1237.83</ele>
        <time>2015-08-29T08:34:40Z</time>
      </trkpt>
      <trkpt lat="43.07692" lon="-0.46692">
        <ele>1237.35</ele>
        <time>2015-08-29T08:34:45Z</time>
      </trkpt>
      <trkpt lat="43.07686" lon="-0.46658">
        <ele>1233.03</ele>
        <time>2015-08-29T08:34:55Z</time>
      </trkpt>
      <trkpt lat="43.07683" lon="-0.46621">
        <ele>1229.18</ele>
        <time>2015-08-29T08:35:04Z</time>
      </trkpt>
      <trkpt lat="43.07683" lon="-0.46603">
        <ele>1227.74</ele>
        <time>2015-08-29T08:35:13Z</time>
      </trkpt>
      <trkpt lat="43.07683" lon="-0.46603">
        <ele>1227.26</ele>
        <time>2015-08-29T08:35:18Z</time>
      </trkpt>
      <trkpt lat="43.07683" lon="-0.46598">
        <ele>1226.78</ele>
        <time>2015-08-29T08:35:21Z</time>
      </trkpt>
      <trkpt lat="43.0768" lon="-0.46582">
        <ele>1223.9</ele>
        <time>2015-08-29T08:35:26Z</time>
      </trkpt>
      <trkpt lat="43.07676" lon="-0.46535">
        <ele>1217.65</ele>
        <time>2015-08-29T08:35:37Z</time>
      </trkpt>
      <trkpt lat="43.07667" lon="-0.46498">
        <ele>1212.84</ele>
        <time>2015-08-29T08:35:47Z</time>
      </trkpt>
      <trkpt lat="43.07645" lon="-0.46471">
        <ele>1209.48</ele>
        <time>2015-08-29T08:35:59Z</time>
      </trkpt>
      <trkpt lat="43.07627" lon="-0.46456">
        <ele>1206.11</ele>
        <time>2015-08-29T08:36:09Z</time>
      </trkpt>
      <trkpt lat="43.07628" lon="-0.46456">
        <ele>1205.63</ele>
        <time>2015-08-29T08:36:20Z</time>
      </trkpt>
      <trkpt lat="43.07627" lon="-0.46454">
        <ele>1206.11</ele>
        <time>2015-08-29T08:36:34Z</time>
      </trkpt>
      <trkpt lat="43.07627" lon="-0.46455">
        <ele>1205.63</ele>
        <time>2015-08-29T08:36:55Z</time>
      </trkpt>
      <trkpt lat="43.07627" lon="-0.46455">
        <ele>1206.11</ele>
        <time>2015-08-29T08:37:11Z</time>
      </trkpt>
      <trkpt lat="43.07627" lon="-0.46455">
        <ele>1206.59</ele>
        <time>2015-08-29T08:37:33Z</time>
      </trkpt>
      <trkpt lat="43.07628" lon="-0.46455">
        <ele>1207.55</ele>
        <time>2015-08-29T08:37:52Z</time>
      </trkpt>
      <trkpt lat="43.07627" lon="-0.46454">
        <ele>1207.55</ele>
        <time>2015-08-29T08:38:19Z</time>
      </trkpt>
      <trkpt lat="43.07627" lon="-0.46455">
        <ele>1208.51</ele>
        <time>2015-08-29T08:38:31Z</time>
      </trkpt>
      <trkpt lat="43.07626" lon="-0.46455">
        <ele>1208.51</ele>
        <time>2015-08-29T08:38:43Z</time>
      </trkpt>
      <trkpt lat="43.07626" lon="-0.46455">
        <ele>1208.03</ele>
        <time>2015-08-29T08:39:06Z</time>
      </trkpt>
      <trkpt lat="43.07626" lon="-0.46455">
        <ele>1208.03</ele>
        <time>2015-08-29T08:39:17Z</time>
      </trkpt>
      <trkpt lat="43.07611" lon="-0.46436">
        <ele>1208.51</ele>
        <time>2015-08-29T08:39:27Z</time>
      </trkpt>
      <trkpt lat="43.0759" lon="-0.46417">
        <ele>1207.07</ele>
        <time>2015-08-29T08:39:37Z</time>
      </trkpt>
      <trkpt lat="43.07565" lon="-0.46392">
        <ele>1205.15</ele>
        <time>2015-08-29T08:39:47Z</time>
      </trkpt>
      <trkpt lat="43.07549" lon="-0.46379">
        <ele>1203.23</ele>
        <time>2015-08-29T08:39:54Z</time>
      </trkpt>
      <trkpt lat="43.07547" lon="-0.46377">
        <ele>1203.23</ele>
        <time>2015-08-29T08:39:55Z</time>
      </trkpt>
      <trkpt lat="43.07521" lon="-0.46355">
        <ele>1199.86</ele>
        <time>2015-08-29T08:40:06Z</time>
      </trkpt>
      <trkpt lat="43.07496" lon="-0.46333">
        <ele>1196.5</ele>
        <time>2015-08-29T08:40:16Z</time>
      </trkpt>
      <trkpt lat="43.0747" lon="-0.46306">
        <ele>1194.09</ele>
        <time>2015-08-29T08:40:26Z</time>
      </trkpt>
      <trkpt lat="43.07456" lon="-0.46292">
        <ele>1194.09</ele>
        <time>2015-08-29T08:40:30Z</time>
      </trkpt>
      <trkpt lat="43.07425" lon="-0.46267">
        <ele>1191.21</ele>
        <time>2015-08-29T08:40:39Z</time>
      </trkpt>
      <trkpt lat="43.07419" lon="-0.46258">
        <ele>1191.21</ele>
        <time>2015-08-29T08:40:41Z</time>
      </trkpt>
      <trkpt lat="43.07417" lon="-0.46253">
        <ele>1190.73</ele>
        <time>2015-08-29T08:40:42Z</time>
      </trkpt>
      <trkpt lat="43.07405" lon="-0.46229">
        <ele>1189.29</ele>
        <time>2015-08-29T08:40:47Z</time>
      </trkpt>
      <trkpt lat="43.07403" lon="-0.46223">
        <ele>1189.29</ele>
        <time>2015-08-29T08:40:48Z</time>
      </trkpt>
      <trkpt lat="43.07402" lon="-0.46217">
        <ele>1189.29</ele>
        <time>2015-08-29T08:40:49Z</time>
      </trkpt>
      <trkpt lat="43.074" lon="-0.46211">
        <ele>1189.29</ele>
        <time>2015-08-29T08:40:50Z</time>
      </trkpt>
      <trkpt lat="43.07399" lon="-0.46206">
        <ele>1189.29</ele>
        <time>2015-08-29T08:40:51Z</time>
      </trkpt>
      <trkpt lat="43.07398" lon="-0.462">
        <ele>1189.29</ele>
        <time>2015-08-29T08:40:52Z</time>
      </trkpt>
      <trkpt lat="43.07397" lon="-0.46195">
        <ele>1188.81</ele>
        <time>2015-08-29T08:40:53Z</time>
      </trkpt>
      <trkpt lat="43.07396" lon="-0.46183">
        <ele>1188.33</ele>
        <time>2015-08-29T08:40:55Z</time>
      </trkpt>
      <trkpt lat="43.07392" lon="-0.46166">
        <ele>1187.85</ele>
        <time>2015-08-29T08:40:58Z</time>
      </trkpt>
      <trkpt lat="43.07391" lon="-0.4616">
        <ele>1187.37</ele>
        <time>2015-08-29T08:40:59Z</time>
      </trkpt>
      <trkpt lat="43.07389" lon="-0.46154">
        <ele>1187.37</ele>
        <time>2015-08-29T08:41:00Z</time>
      </trkpt>
      <trkpt lat="43.07388" lon="-0.46148">
        <ele>1186.88</ele>
        <time>2015-08-29T08:41:01Z</time>
      </trkpt>
      <trkpt lat="43.07387" lon="-0.46143">
        <ele>1186.88</ele>
        <time>2015-08-29T08:41:02Z</time>
      </trkpt>
      <trkpt lat="43.0738" lon="-0.46102">
        <ele>1184.48</ele>
        <time>2015-08-29T08:41:11Z</time>
      </trkpt>
      <trkpt lat="43.07373" lon="-0.46062">
        <ele>1180.64</ele>
        <time>2015-08-29T08:41:20Z</time>
      </trkpt>
      <trkpt lat="43.07366" lon="-0.46029">
        <ele>1175.83</ele>
        <time>2015-08-29T08:41:31Z</time>
      </trkpt>
      <trkpt lat="43.07364" lon="-0.46027">
        <ele>1174.87</ele>
        <time>2015-08-29T08:41:32Z</time>
      </trkpt>
      <trkpt lat="43.07363" lon="-0.46025">
        <ele>1174.39</ele>
        <time>2015-08-29T08:41:33Z</time>
      </trkpt>
      <trkpt lat="43.07362" lon="-0.46021">
        <ele>1173.43</ele>
        <time>2015-08-29T08:41:34Z</time>
      </trkpt>
      <trkpt lat="43.07362" lon="-0.46018">
        <ele>1172.95</ele>
        <time>2015-08-29T08:41:35Z</time>
      </trkpt>
      <trkpt lat="43.07363" lon="-0.46016">
        <ele>1171.98</ele>
        <time>2015-08-29T08:41:36Z</time>
      </trkpt>
      <trkpt lat="43.07364" lon="-0.46013">
        <ele>1171.5</ele>
        <time>2015-08-29T08:41:37Z</time>
      </trkpt>
      <trkpt lat="43.07364" lon="-0.46011">
        <ele>1171.02</ele>
        <time>2015-08-29T08:41:38Z</time>
      </trkpt>
      <trkpt lat="43.07366" lon="-0.46009">
        <ele>1170.54</ele>
        <time>2015-08-29T08:41:39Z</time>
      </trkpt>
      <trkpt lat="43.07367" lon="-0.46005">
        <ele>1170.06</ele>
        <time>2015-08-29T08:41:40Z</time>
      </trkpt>
      <trkpt lat="43.07367" lon="-0.46002">
        <ele>1169.1</ele>
        <time>2015-08-29T08:41:41Z</time>
      </trkpt>
      <trkpt lat="43.07367" lon="-0.45998">
        <ele>1168.62</ele>
        <time>2015-08-29T08:41:42Z</time>
      </trkpt>
      <trkpt lat="43.07367" lon="-0.45995">
        <ele>1168.14</ele>
        <time>2015-08-29T08:41:43Z</time>
      </trkpt>
      <trkpt lat="43.07367" lon="-0.45992">
        <ele>1167.66</ele>
        <time>2015-08-29T08:41:44Z</time>
      </trkpt>
      <trkpt lat="43.07367" lon="-0.45984">
        <ele>1166.7</ele>
        <time>2015-08-29T08:41:46Z</time>
      </trkpt>
      <trkpt lat="43.07368" lon="-0.45981">
        <ele>1166.7</ele>
        <time>2015-08-29T08:41:47Z</time>
      </trkpt>
      <trkpt lat="43.0737" lon="-0.45936">
        <ele>1162.85</ele>
        <time>2015-08-29T08:41:59Z</time>
      </trkpt>
      <trkpt lat="43.07371" lon="-0.45895">
        <ele>1159.01</ele>
        <time>2015-08-29T08:42:09Z</time>
      </trkpt>
      <trkpt lat="43.0737" lon="-0.45891">
        <ele>1158.53</ele>
        <time>2015-08-29T08:42:10Z</time>
      </trkpt>
      <trkpt lat="43.0737" lon="-0.45888">
        <ele>1158.05</ele>
        <time>2015-08-29T08:42:11Z</time>
      </trkpt>
      <trkpt lat="43.07369" lon="-0.45856">
        <ele>1156.12</ele>
        <time>2015-08-29T08:42:21Z</time>
      </trkpt>
      <trkpt lat="43.07368" lon="-0.45853">
        <ele>1155.16</ele>
        <time>2015-08-29T08:42:22Z</time>
      </trkpt>
      <trkpt lat="43.07368" lon="-0.4585">
        <ele>1154.68</ele>
        <time>2015-08-29T08:42:23Z</time>
      </trkpt>
      <trkpt lat="43.07368" lon="-0.45845">
        <ele>1154.2</ele>
        <time>2015-08-29T08:42:24Z</time>
      </trkpt>
      <trkpt lat="43.07369" lon="-0.4584">
        <ele>1154.2</ele>
        <time>2015-08-29T08:42:25Z</time>
      </trkpt>
      <trkpt lat="43.07368" lon="-0.45824">
        <ele>1153.24</ele>
        <time>2015-08-29T08:42:28Z</time>
      </trkpt>
      <trkpt lat="43.07369" lon="-0.45818">
        <ele>1152.76</ele>
        <time>2015-08-29T08:42:29Z</time>
      </trkpt>
      <trkpt lat="43.07369" lon="-0.45799">
        <ele>1151.8</ele>
        <time>2015-08-29T08:42:33Z</time>
      </trkpt>
      <trkpt lat="43.07369" lon="-0.45793">
        <ele>1151.32</ele>
        <time>2015-08-29T08:42:34Z</time>
      </trkpt>
      <trkpt lat="43.07369" lon="-0.45787">
        <ele>1150.84</ele>
        <time>2015-08-29T08:42:35Z</time>
      </trkpt>
      <trkpt lat="43.07369" lon="-0.45759">
        <ele>1148.43</ele>
        <time>2015-08-29T08:42:44Z</time>
      </trkpt>
      <trkpt lat="43.0737" lon="-0.45738">
        <ele>1145.07</ele>
        <time>2015-08-29T08:42:52Z</time>
      </trkpt>
      <trkpt lat="43.07369" lon="-0.45737">
        <ele>1144.59</ele>
        <time>2015-08-29T08:42:53Z</time>
      </trkpt>
      <trkpt lat="43.07368" lon="-0.45734">
        <ele>1144.59</ele>
        <time>2015-08-29T08:42:54Z</time>
      </trkpt>
      <trkpt lat="43.07368" lon="-0.45732">
        <ele>1144.11</ele>
        <time>2015-08-29T08:42:55Z</time>
      </trkpt>
      <trkpt lat="43.07368" lon="-0.45728">
        <ele>1143.63</ele>
        <time>2015-08-29T08:42:56Z</time>
      </trkpt>
      <trkpt lat="43.07368" lon="-0.45725">
        <ele>1143.63</ele>
        <time>2015-08-29T08:42:57Z</time>
      </trkpt>
      <trkpt lat="43.07368" lon="-0.45718">
        <ele>1142.66</ele>
        <time>2015-08-29T08:43:06Z</time>
      </trkpt>
      <trkpt lat="43.07368" lon="-0.45718">
        <ele>1142.18</ele>
        <time>2015-08-29T08:43:28Z</time>
      </trkpt>
      <trkpt lat="43.07368" lon="-0.45719">
        <ele>1142.66</ele>
        <time>2015-08-29T08:43:55Z</time>
      </trkpt>
      <trkpt lat="43.07367" lon="-0.45719">
        <ele>1143.14</ele>
        <time>2015-08-29T08:44:19Z</time>
      </trkpt>
      <trkpt lat="43.07366" lon="-0.45717">
        <ele>1143.14</ele>
        <time>2015-08-29T08:44:38Z</time>
      </trkpt>
      <trkpt lat="43.07365" lon="-0.45717">
        <ele>1143.63</ele>
        <time>2015-08-29T08:44:49Z</time>
      </trkpt>
      <trkpt lat="43.07364" lon="-0.45717">
        <ele>1143.14</ele>
        <time>2015-08-29T08:45:11Z</time>
      </trkpt>
      <trkpt lat="43.07364" lon="-0.45717">
        <ele>1143.14</ele>
        <time>2015-08-29T08:45:13Z</time>
      </trkpt>
      <trkpt lat="43.07364" lon="-0.45715">
        <ele>1143.14</ele>
        <time>2015-08-29T08:45:14Z</time>
      </trkpt>
      <trkpt lat="43.07365" lon="-0.45712">
        <ele>1143.14</ele>
        <time>2015-08-29T08:45:15Z</time>
      </trkpt>
      <trkpt lat="43.07365" lon="-0.45709">
        <ele>1143.14</ele>
        <time>2015-08-29T08:45:16Z</time>
      </trkpt>
      <trkpt lat="43.07364" lon="-0.45706">
        <ele>1142.18</ele>
        <time>2015-08-29T08:45:17Z</time>
      </trkpt>
      <trkpt lat="43.07363" lon="-0.45704">
        <ele>1141.7</ele>
        <time>2015-08-29T08:45:18Z</time>
      </trkpt>
      <trkpt lat="43.07362" lon="-0.45701">
        <ele>1141.22</ele>
        <time>2015-08-29T08:45:19Z</time>
      </trkpt>
      <trkpt lat="43.07361" lon="-0.45696">
        <ele>1141.22</ele>
        <time>2015-08-29T08:45:20Z</time>
      </trkpt>
      <trkpt lat="43.0736" lon="-0.45691">
        <ele>1140.26</ele>
        <time>2015-08-29T08:45:21Z</time>
      </trkpt>
      <trkpt lat="43.07356" lon="-0.45654">
        <ele>1136.42</ele>
        <time>2015-08-29T08:45:30Z</time>
      </trkpt>
      <trkpt lat="43.07352" lon="-0.45619">
        <ele>1131.61</ele>
        <time>2015-08-29T08:45:39Z</time>
      </trkpt>
      <trkpt lat="43.07344" lon="-0.45586">
        <ele>1127.28</ele>
        <time>2015-08-29T08:45:47Z</time>
      </trkpt>
      <trkpt lat="43.07334" lon="-0.45549">
        <ele>1120.55</ele>
        <time>2015-08-29T08:45:58Z</time>
      </trkpt>
      <trkpt lat="43.0733" lon="-0.45538">
        <ele>1119.11</ele>
        <time>2015-08-29T08:46:00Z</time>
      </trkpt>
      <trkpt lat="43.07328" lon="-0.45531">
        <ele>1118.15</ele>
        <time>2015-08-29T08:46:01Z</time>
      </trkpt>
      <trkpt lat="43.07326" lon="-0.45524">
        <ele>1117.19</ele>
        <time>2015-08-29T08:46:02Z</time>
      </trkpt>
      <trkpt lat="43.07325" lon="-0.45518">
        <ele>1116.23</ele>
        <time>2015-08-29T08:46:03Z</time>
      </trkpt>
      <trkpt lat="43.07323" lon="-0.45512">
        <ele>1115.27</ele>
        <time>2015-08-29T08:46:04Z</time>
      </trkpt>
      <trkpt lat="43.07321" lon="-0.45505">
        <ele>1114.79</ele>
        <time>2015-08-29T08:46:05Z</time>
      </trkpt>
      <trkpt lat="43.07319" lon="-0.45499">
        <ele>1113.82</ele>
        <time>2015-08-29T08:46:06Z</time>
      </trkpt>
      <trkpt lat="43.07318" lon="-0.45494">
        <ele>1113.34</ele>
        <time>2015-08-29T08:46:07Z</time>
      </trkpt>
      <trkpt lat="43.07312" lon="-0.45454">
        <ele>1107.58</ele>
        <time>2015-08-29T08:46:18Z</time>
      </trkpt>
      <trkpt lat="43.07312" lon="-0.45444">
        <ele>1107.1</ele>
        <time>2015-08-29T08:46:20Z</time>
      </trkpt>
      <trkpt lat="43.07311" lon="-0.45438">
        <ele>1107.1</ele>
        <time>2015-08-29T08:46:21Z</time>
      </trkpt>
      <trkpt lat="43.0731" lon="-0.45431">
        <ele>1106.61</ele>
        <time>2015-08-29T08:46:22Z</time>
      </trkpt>
      <trkpt lat="43.07304" lon="-0.45412">
        <ele>1105.17</ele>
        <time>2015-08-29T08:46:25Z</time>
      </trkpt>
      <trkpt lat="43.07301" lon="-0.45407">
        <ele>1104.69</ele>
        <time>2015-08-29T08:46:26Z</time>
      </trkpt>
      <trkpt lat="43.07299" lon="-0.45402">
        <ele>1104.21</ele>
        <time>2015-08-29T08:46:27Z</time>
      </trkpt>
      <trkpt lat="43.07296" lon="-0.45397">
        <ele>1104.21</ele>
        <time>2015-08-29T08:46:28Z</time>
      </trkpt>
      <trkpt lat="43.07292" lon="-0.45392">
        <ele>1103.73</ele>
        <time>2015-08-29T08:46:29Z</time>
      </trkpt>
      <trkpt lat="43.07288" lon="-0.45386">
        <ele>1103.73</ele>
        <time>2015-08-29T08:46:30Z</time>
      </trkpt>
      <trkpt lat="43.07285" lon="-0.4538">
        <ele>1103.25</ele>
        <time>2015-08-29T08:46:31Z</time>
      </trkpt>
      <trkpt lat="43.07282" lon="-0.45375">
        <ele>1103.25</ele>
        <time>2015-08-29T08:46:32Z</time>
      </trkpt>
      <trkpt lat="43.07279" lon="-0.4537">
        <ele>1103.25</ele>
        <time>2015-08-29T08:46:33Z</time>
      </trkpt>
      <trkpt lat="43.07276" lon="-0.45366">
        <ele>1103.25</ele>
        <time>2015-08-29T08:46:34Z</time>
      </trkpt>
      <trkpt lat="43.07274" lon="-0.45362">
        <ele>1102.77</ele>
        <time>2015-08-29T08:46:35Z</time>
      </trkpt>
      <trkpt lat="43.07272" lon="-0.45359">
        <ele>1102.77</ele>
        <time>2015-08-29T08:46:36Z</time>
      </trkpt>
      <trkpt lat="43.07255" lon="-0.45323">
        <ele>1103.73</ele>
        <time>2015-08-29T08:46:45Z</time>
      </trkpt>
      <trkpt lat="43.07244" lon="-0.4529">
        <ele>1103.25</ele>
        <time>2015-08-29T08:46:54Z</time>
      </trkpt>
      <trkpt lat="43.07237" lon="-0.4527">
        <ele>1102.29</ele>
        <time>2015-08-29T08:46:58Z</time>
      </trkpt>
      <trkpt lat="43.07236" lon="-0.45265">
        <ele>1102.29</ele>
        <time>2015-08-29T08:46:59Z</time>
      </trkpt>
      <trkpt lat="43.07234" lon="-0.45261">
        <ele>1102.29</ele>
        <time>2015-08-29T08:47:00Z</time>
      </trkpt>
      <trkpt lat="43.07233" lon="-0.45256">
        <ele>1102.29</ele>
        <time>2015-08-29T08:47:01Z</time>
      </trkpt>
      <trkpt lat="43.07232" lon="-0.45252">
        <ele>1101.81</ele>
        <time>2015-08-29T08:47:02Z</time>
      </trkpt>
      <trkpt lat="43.07231" lon="-0.45248">
        <ele>1102.29</ele>
        <time>2015-08-29T08:47:03Z</time>
      </trkpt>
      <trkpt lat="43.07227" lon="-0.4523">
        <ele>1101.33</ele>
        <time>2015-08-29T08:47:07Z</time>
      </trkpt>
      <trkpt lat="43.07223" lon="-0.45217">
        <ele>1099.89</ele>
        <time>2015-08-29T08:47:10Z</time>
      </trkpt>
      <trkpt lat="43.07222" lon="-0.45213">
        <ele>1098.92</ele>
        <time>2015-08-29T08:47:11Z</time>
      </trkpt>
      <trkpt lat="43.07219" lon="-0.45204">
        <ele>1097.48</ele>
        <time>2015-08-29T08:47:13Z</time>
      </trkpt>
      <trkpt lat="43.07218" lon="-0.45199">
        <ele>1097.48</ele>
        <time>2015-08-29T08:47:14Z</time>
      </trkpt>
      <trkpt lat="43.07217" lon="-0.45195">
        <ele>1097</ele>
        <time>2015-08-29T08:47:15Z</time>
      </trkpt>
      <trkpt lat="43.07215" lon="-0.45192">
        <ele>1096.52</ele>
        <time>2015-08-29T08:47:16Z</time>
      </trkpt>
      <trkpt lat="43.07214" lon="-0.45189">
        <ele>1096.04</ele>
        <time>2015-08-29T08:47:17Z</time>
      </trkpt>
      <trkpt lat="43.07212" lon="-0.45186">
        <ele>1095.56</ele>
        <time>2015-08-29T08:47:18Z</time>
      </trkpt>
      <trkpt lat="43.0721" lon="-0.45182">
        <ele>1094.6</ele>
        <time>2015-08-29T08:47:19Z</time>
      </trkpt>
      <trkpt lat="43.07209" lon="-0.45178">
        <ele>1093.64</ele>
        <time>2015-08-29T08:47:20Z</time>
      </trkpt>
      <trkpt lat="43.07201" lon="-0.45144">
        <ele>1089.79</ele>
        <time>2015-08-29T08:47:29Z</time>
      </trkpt>
      <trkpt lat="43.07197" lon="-0.45096">
        <ele>1085.47</ele>
        <time>2015-08-29T08:47:39Z</time>
      </trkpt>
      <trkpt lat="43.07196" lon="-0.45091">
        <ele>1084.99</ele>
        <time>2015-08-29T08:47:40Z</time>
      </trkpt>
      <trkpt lat="43.07197" lon="-0.45072">
        <ele>1084.02</ele>
        <time>2015-08-29T08:47:45Z</time>
      </trkpt>
      <trkpt lat="43.07197" lon="-0.45069">
        <ele>1084.02</ele>
        <time>2015-08-29T08:47:46Z</time>
      </trkpt>
      <trkpt lat="43.07197" lon="-0.45066">
        <ele>1083.54</ele>
        <time>2015-08-29T08:47:47Z</time>
      </trkpt>
      <trkpt lat="43.07197" lon="-0.45063">
        <ele>1083.06</ele>
        <time>2015-08-29T08:47:48Z</time>
      </trkpt>
      <trkpt lat="43.07196" lon="-0.4506">
        <ele>1083.06</ele>
        <time>2015-08-29T08:47:49Z</time>
      </trkpt>
      <trkpt lat="43.07196" lon="-0.45057">
        <ele>1082.58</ele>
        <time>2015-08-29T08:47:50Z</time>
      </trkpt>
      <trkpt lat="43.07196" lon="-0.45052">
        <ele>1081.62</ele>
        <time>2015-08-29T08:47:51Z</time>
      </trkpt>
      <trkpt lat="43.07198" lon="-0.45048">
        <ele>1081.62</ele>
        <time>2015-08-29T08:47:52Z</time>
      </trkpt>
      <trkpt lat="43.07198" lon="-0.45041">
        <ele>1080.66</ele>
        <time>2015-08-29T08:47:54Z</time>
      </trkpt>
      <trkpt lat="43.07196" lon="-0.45038">
        <ele>1080.18</ele>
        <time>2015-08-29T08:47:55Z</time>
      </trkpt>
      <trkpt lat="43.07194" lon="-0.45029">
        <ele>1079.7</ele>
        <time>2015-08-29T08:47:58Z</time>
      </trkpt>
      <trkpt lat="43.07194" lon="-0.45027">
        <ele>1079.22</ele>
        <time>2015-08-29T08:47:59Z</time>
      </trkpt>
      <trkpt lat="43.07193" lon="-0.45025">
        <ele>1078.74</ele>
        <time>2015-08-29T08:48:00Z</time>
      </trkpt>
      <trkpt lat="43.07179" lon="-0.45004">
        <ele>1072.97</ele>
        <time>2015-08-29T08:48:10Z</time>
      </trkpt>
      <trkpt lat="43.07159" lon="-0.44971">
        <ele>1065.76</ele>
        <time>2015-08-29T08:48:22Z</time>
      </trkpt>
      <trkpt lat="43.07158" lon="-0.44969">
        <ele>1064.8</ele>
        <time>2015-08-29T08:48:23Z</time>
      </trkpt>
      <trkpt lat="43.07157" lon="-0.44967">
        <ele>1063.84</ele>
        <time>2015-08-29T08:48:24Z</time>
      </trkpt>
      <trkpt lat="43.07154" lon="-0.44965">
        <ele>1063.36</ele>
        <time>2015-08-29T08:48:25Z</time>
      </trkpt>
      <trkpt lat="43.07152" lon="-0.44963">
        <ele>1062.39</ele>
        <time>2015-08-29T08:48:26Z</time>
      </trkpt>
      <trkpt lat="43.0715" lon="-0.44961">
        <ele>1061.43</ele>
        <time>2015-08-29T08:48:27Z</time>
      </trkpt>
      <trkpt lat="43.07148" lon="-0.44958">
        <ele>1060.47</ele>
        <time>2015-08-29T08:48:28Z</time>
      </trkpt>
      <trkpt lat="43.07147" lon="-0.44956">
        <ele>1059.99</ele>
        <time>2015-08-29T08:48:29Z</time>
      </trkpt>
      <trkpt lat="43.07145" lon="-0.44953">
        <ele>1059.51</ele>
        <time>2015-08-29T08:48:30Z</time>
      </trkpt>
      <trkpt lat="43.07144" lon="-0.44951">
        <ele>1059.03</ele>
        <time>2015-08-29T08:48:31Z</time>
      </trkpt>
      <trkpt lat="43.07142" lon="-0.44948">
        <ele>1058.55</ele>
        <time>2015-08-29T08:48:32Z</time>
      </trkpt>
      <trkpt lat="43.0714" lon="-0.44945">
        <ele>1058.07</ele>
        <time>2015-08-29T08:48:33Z</time>
      </trkpt>
      <trkpt lat="43.07137" lon="-0.44942">
        <ele>1057.11</ele>
        <time>2015-08-29T08:48:34Z</time>
      </trkpt>
      <trkpt lat="43.07135" lon="-0.44939">
        <ele>1056.15</ele>
        <time>2015-08-29T08:48:35Z</time>
      </trkpt>
      <trkpt lat="43.07133" lon="-0.44938">
        <ele>1055.18</ele>
        <time>2015-08-29T08:48:36Z</time>
      </trkpt>
      <trkpt lat="43.07131" lon="-0.44936">
        <ele>1054.22</ele>
        <time>2015-08-29T08:48:37Z</time>
      </trkpt>
      <trkpt lat="43.07128" lon="-0.44934">
        <ele>1053.26</ele>
        <time>2015-08-29T08:48:38Z</time>
      </trkpt>
      <trkpt lat="43.07126" lon="-0.44931">
        <ele>1052.3</ele>
        <time>2015-08-29T08:48:39Z</time>
      </trkpt>
      <trkpt lat="43.07124" lon="-0.44929">
        <ele>1051.34</ele>
        <time>2015-08-29T08:48:40Z</time>
      </trkpt>
      <trkpt lat="43.07123" lon="-0.44927">
        <ele>1050.86</ele>
        <time>2015-08-29T08:48:41Z</time>
      </trkpt>
      <trkpt lat="43.07121" lon="-0.44924">
        <ele>1050.38</ele>
        <time>2015-08-29T08:48:42Z</time>
      </trkpt>
      <trkpt lat="43.07119" lon="-0.44922">
        <ele>1049.9</ele>
        <time>2015-08-29T08:48:43Z</time>
      </trkpt>
      <trkpt lat="43.07102" lon="-0.44903">
        <ele>1043.65</ele>
        <time>2015-08-29T08:48:52Z</time>
      </trkpt>
      <trkpt lat="43.0709" lon="-0.4489">
        <ele>1039.32</ele>
        <time>2015-08-29T08:48:58Z</time>
      </trkpt>
      <trkpt lat="43.07088" lon="-0.44888">
        <ele>1038.36</ele>
        <time>2015-08-29T08:48:59Z</time>
      </trkpt>
      <trkpt lat="43.07086" lon="-0.44885">
        <ele>1037.88</ele>
        <time>2015-08-29T08:49:00Z</time>
      </trkpt>
      <trkpt lat="43.07083" lon="-0.44882">
        <ele>1036.92</ele>
        <time>2015-08-29T08:49:01Z</time>
      </trkpt>
      <trkpt lat="43.07081" lon="-0.44879">
        <ele>1035.96</ele>
        <time>2015-08-29T08:49:02Z</time>
      </trkpt>
      <trkpt lat="43.07071" lon="-0.44871">
        <ele>1034.04</ele>
        <time>2015-08-29T08:49:05Z</time>
      </trkpt>
      <trkpt lat="43.07068" lon="-0.44867">
        <ele>1033.07</ele>
        <time>2015-08-29T08:49:06Z</time>
      </trkpt>
      <trkpt lat="43.07065" lon="-0.44863">
        <ele>1031.63</ele>
        <time>2015-08-29T08:49:07Z</time>
      </trkpt>
      <trkpt lat="43.07062" lon="-0.44859">
        <ele>1030.19</ele>
        <time>2015-08-29T08:49:08Z</time>
      </trkpt>
      <trkpt lat="43.07058" lon="-0.44853">
        <ele>1029.23</ele>
        <time>2015-08-29T08:49:09Z</time>
      </trkpt>
      <trkpt lat="43.07052" lon="-0.44844">
        <ele>1027.31</ele>
        <time>2015-08-29T08:49:11Z</time>
      </trkpt>
      <trkpt lat="43.0705" lon="-0.44844">
        <ele>1026.34</ele>
        <time>2015-08-29T08:49:12Z</time>
      </trkpt>
      <trkpt lat="43.07047" lon="-0.44843">
        <ele>1024.9</ele>
        <time>2015-08-29T08:49:21Z</time>
      </trkpt>
      <trkpt lat="43.07046" lon="-0.44843">
        <ele>1024.42</ele>
        <time>2015-08-29T08:49:43Z</time>
      </trkpt>
      <trkpt lat="43.07046" lon="-0.44843">
        <ele>1024.9</ele>
        <time>2015-08-29T08:50:08Z</time>
      </trkpt>
      <trkpt lat="43.07031" lon="-0.44821">
        <ele>1022.98</ele>
        <time>2015-08-29T08:50:15Z</time>
      </trkpt>
      <trkpt lat="43.07025" lon="-0.44812">
        <ele>1021.06</ele>
        <time>2015-08-29T08:50:17Z</time>
      </trkpt>
      <trkpt lat="43.07022" lon="-0.44807">
        <ele>1020.58</ele>
        <time>2015-08-29T08:50:18Z</time>
      </trkpt>
      <trkpt lat="43.07019" lon="-0.44802">
        <ele>1019.62</ele>
        <time>2015-08-29T08:50:19Z</time>
      </trkpt>
      <trkpt lat="43.07016" lon="-0.44798">
        <ele>1018.65</ele>
        <time>2015-08-29T08:50:20Z</time>
      </trkpt>
      <trkpt lat="43.07013" lon="-0.44795">
        <ele>1018.17</ele>
        <time>2015-08-29T08:50:21Z</time>
      </trkpt>
      <trkpt lat="43.07009" lon="-0.44787">
        <ele>1016.25</ele>
        <time>2015-08-29T08:50:23Z</time>
      </trkpt>
      <trkpt lat="43.07001" lon="-0.44763">
        <ele>1011.93</ele>
        <time>2015-08-29T08:50:28Z</time>
      </trkpt>
      <trkpt lat="43.07" lon="-0.44758">
        <ele>1010.96</ele>
        <time>2015-08-29T08:50:29Z</time>
      </trkpt>
      <trkpt lat="43.07" lon="-0.44754">
        <ele>1010.48</ele>
        <time>2015-08-29T08:50:30Z</time>
      </trkpt>
      <trkpt lat="43.07" lon="-0.4475">
        <ele>1009.52</ele>
        <time>2015-08-29T08:50:31Z</time>
      </trkpt>
      <trkpt lat="43.06999" lon="-0.44747">
        <ele>1009.04</ele>
        <time>2015-08-29T08:50:32Z</time>
      </trkpt>
      <trkpt lat="43.06999" lon="-0.44745">
        <ele>1008.56</ele>
        <time>2015-08-29T08:50:33Z</time>
      </trkpt>
      <trkpt lat="43.06998" lon="-0.44744">
        <ele>1008.08</ele>
        <time>2015-08-29T08:50:34Z</time>
      </trkpt>
      <trkpt lat="43.06994" lon="-0.44739">
        <ele>1006.16</ele>
        <time>2015-08-29T08:50:37Z</time>
      </trkpt>
      <trkpt lat="43.06994" lon="-0.44736">
        <ele>1006.16</ele>
        <time>2015-08-29T08:50:38Z</time>
      </trkpt>
      <trkpt lat="43.06994" lon="-0.44734">
        <ele>1005.68</ele>
        <time>2015-08-29T08:50:39Z</time>
      </trkpt>
      <trkpt lat="43.06992" lon="-0.44733">
        <ele>1004.23</ele>
        <time>2015-08-29T08:50:43Z</time>
      </trkpt>
      <trkpt lat="43.06978" lon="-0.4471">
        <ele>1000.39</ele>
        <time>2015-08-29T08:50:49Z</time>
      </trkpt>
      <trkpt lat="43.06957" lon="-0.44683">
        <ele>993.66</ele>
        <time>2015-08-29T08:50:57Z</time>
      </trkpt>
      <trkpt lat="43.06954" lon="-0.44681">
        <ele>992.7</ele>
        <time>2015-08-29T08:50:58Z</time>
      </trkpt>
      <trkpt lat="43.06953" lon="-0.44678">
        <ele>992.22</ele>
        <time>2015-08-29T08:50:59Z</time>
      </trkpt>
      <trkpt lat="43.06952" lon="-0.44674">
        <ele>991.26</ele>
        <time>2015-08-29T08:51:00Z</time>
      </trkpt>
      <trkpt lat="43.06944" lon="-0.44658">
        <ele>985.97</ele>
        <time>2015-08-29T08:51:05Z</time>
      </trkpt>
      <trkpt lat="43.06943" lon="-0.44653">
        <ele>985.01</ele>
        <time>2015-08-29T08:51:06Z</time>
      </trkpt>
      <trkpt lat="43.06942" lon="-0.44648">
        <ele>983.57</ele>
        <time>2015-08-29T08:51:07Z</time>
      </trkpt>
      <trkpt lat="43.0694" lon="-0.44644">
        <ele>982.6</ele>
        <time>2015-08-29T08:51:08Z</time>
      </trkpt>
      <trkpt lat="43.06938" lon="-0.44641">
        <ele>981.64</ele>
        <time>2015-08-29T08:51:09Z</time>
      </trkpt>
      <trkpt lat="43.06936" lon="-0.44638">
        <ele>980.68</ele>
        <time>2015-08-29T08:51:10Z</time>
      </trkpt>
      <trkpt lat="43.06934" lon="-0.44636">
        <ele>979.72</ele>
        <time>2015-08-29T08:51:11Z</time>
      </trkpt>
      <trkpt lat="43.06932" lon="-0.44635">
        <ele>978.76</ele>
        <time>2015-08-29T08:51:12Z</time>
      </trkpt>
      <trkpt lat="43.0693" lon="-0.44632">
        <ele>977.8</ele>
        <time>2015-08-29T08:51:13Z</time>
      </trkpt>
      <trkpt lat="43.06928" lon="-0.44629">
        <ele>977.32</ele>
        <time>2015-08-29T08:51:14Z</time>
      </trkpt>
      <trkpt lat="43.06924" lon="-0.44625">
        <ele>977.32</ele>
        <time>2015-08-29T08:51:15Z</time>
      </trkpt>
      <trkpt lat="43.06921" lon="-0.4462">
        <ele>977.32</ele>
        <time>2015-08-29T08:51:16Z</time>
      </trkpt>
      <trkpt lat="43.06918" lon="-0.44614">
        <ele>977.32</ele>
        <time>2015-08-29T08:51:17Z</time>
      </trkpt>
      <trkpt lat="43.06915" lon="-0.44609">
        <ele>977.32</ele>
        <time>2015-08-29T08:51:18Z</time>
      </trkpt>
      <trkpt lat="43.06913" lon="-0.44603">
        <ele>977.32</ele>
        <time>2015-08-29T08:51:19Z</time>
      </trkpt>
      <trkpt lat="43.06912" lon="-0.44598">
        <ele>976.84</ele>
        <time>2015-08-29T08:51:20Z</time>
      </trkpt>
      <trkpt lat="43.06894" lon="-0.44582">
        <ele>973.47</ele>
        <time>2015-08-29T08:51:28Z</time>
      </trkpt>
      <trkpt lat="43.06886" lon="-0.44573">
        <ele>972.03</ele>
        <time>2015-08-29T08:51:31Z</time>
      </trkpt>
      <trkpt lat="43.06884" lon="-0.44569">
        <ele>971.55</ele>
        <time>2015-08-29T08:51:32Z</time>
      </trkpt>
      <trkpt lat="43.06881" lon="-0.44556">
        <ele>971.07</ele>
        <time>2015-08-29T08:51:34Z</time>
      </trkpt>
      <trkpt lat="43.06878" lon="-0.44548">
        <ele>970.59</ele>
        <time>2015-08-29T08:51:35Z</time>
      </trkpt>
      <trkpt lat="43.06874" lon="-0.4454">
        <ele>969.63</ele>
        <time>2015-08-29T08:51:36Z</time>
      </trkpt>
      <trkpt lat="43.06869" lon="-0.44534">
        <ele>968.67</ele>
        <time>2015-08-29T08:51:37Z</time>
      </trkpt>
      <trkpt lat="43.06863" lon="-0.44529">
        <ele>968.18</ele>
        <time>2015-08-29T08:51:38Z</time>
      </trkpt>
      <trkpt lat="43.06852" lon="-0.4452">
        <ele>967.22</ele>
        <time>2015-08-29T08:51:40Z</time>
      </trkpt>
      <trkpt lat="43.06847" lon="-0.44517">
        <ele>966.74</ele>
        <time>2015-08-29T08:51:41Z</time>
      </trkpt>
      <trkpt lat="43.06843" lon="-0.44517">
        <ele>966.26</ele>
        <time>2015-08-29T08:51:42Z</time>
      </trkpt>
      <trkpt lat="43.06839" lon="-0.44518">
        <ele>965.3</ele>
        <time>2015-08-29T08:51:43Z</time>
      </trkpt>
      <trkpt lat="43.06834" lon="-0.4452">
        <ele>963.86</ele>
        <time>2015-08-29T08:51:44Z</time>
      </trkpt>
      <trkpt lat="43.06831" lon="-0.44522">
        <ele>962.9</ele>
        <time>2015-08-29T08:51:45Z</time>
      </trkpt>
      <trkpt lat="43.06827" lon="-0.44524">
        <ele>961.94</ele>
        <time>2015-08-29T08:51:46Z</time>
      </trkpt>
      <trkpt lat="43.06795" lon="-0.44532">
        <ele>959.53</ele>
        <time>2015-08-29T08:52:00Z</time>
      </trkpt>
      <trkpt lat="43.06792" lon="-0.44533">
        <ele>959.53</ele>
        <time>2015-08-29T08:52:02Z</time>
      </trkpt>
      <trkpt lat="43.06791" lon="-0.44534">
        <ele>959.05</ele>
        <time>2015-08-29T08:52:03Z</time>
      </trkpt>
      <trkpt lat="43.06789" lon="-0.44535">
        <ele>959.05</ele>
        <time>2015-08-29T08:52:04Z</time>
      </trkpt>
      <trkpt lat="43.06788" lon="-0.44536">
        <ele>959.05</ele>
        <time>2015-08-29T08:52:05Z</time>
      </trkpt>
      <trkpt lat="43.06787" lon="-0.44538">
        <ele>959.05</ele>
        <time>2015-08-29T08:52:06Z</time>
      </trkpt>
      <trkpt lat="43.06786" lon="-0.4454">
        <ele>959.05</ele>
        <time>2015-08-29T08:52:07Z</time>
      </trkpt>
      <trkpt lat="43.06774" lon="-0.44562">
        <ele>961.46</ele>
        <time>2015-08-29T08:52:18Z</time>
      </trkpt>
      <trkpt lat="43.06768" lon="-0.44585">
        <ele>962.9</ele>
        <time>2015-08-29T08:52:30Z</time>
      </trkpt>
      <trkpt lat="43.06767" lon="-0.44589">
        <ele>963.38</ele>
        <time>2015-08-29T08:52:32Z</time>
      </trkpt>
      <trkpt lat="43.06766" lon="-0.4459">
        <ele>963.86</ele>
        <time>2015-08-29T08:52:33Z</time>
      </trkpt>
      <trkpt lat="43.06764" lon="-0.4459">
        <ele>964.34</ele>
        <time>2015-08-29T08:52:34Z</time>
      </trkpt>
      <trkpt lat="43.06762" lon="-0.4459">
        <ele>964.34</ele>
        <time>2015-08-29T08:52:35Z</time>
      </trkpt>
      <trkpt lat="43.0676" lon="-0.4459">
        <ele>964.34</ele>
        <time>2015-08-29T08:52:36Z</time>
      </trkpt>
      <trkpt lat="43.06758" lon="-0.44589">
        <ele>964.34</ele>
        <time>2015-08-29T08:52:37Z</time>
      </trkpt>
      <trkpt lat="43.06757" lon="-0.44588">
        <ele>964.82</ele>
        <time>2015-08-29T08:52:38Z</time>
      </trkpt>
      <trkpt lat="43.06752" lon="-0.44588">
        <ele>965.3</ele>
        <time>2015-08-29T08:52:48Z</time>
      </trkpt>
      <trkpt lat="43.06751" lon="-0.44588">
        <ele>965.3</ele>
        <time>2015-08-29T08:52:50Z</time>
      </trkpt>
      <trkpt lat="43.06749" lon="-0.44589">
        <ele>964.34</ele>
        <time>2015-08-29T08:53:04Z</time>
      </trkpt>
      <trkpt lat="43.0675" lon="-0.4459">
        <ele>962.9</ele>
        <time>2015-08-29T08:53:32Z</time>
      </trkpt>
      <trkpt lat="43.0675" lon="-0.4459">
        <ele>962.42</ele>
        <time>2015-08-29T08:53:56Z</time>
      </trkpt>
      <trkpt lat="43.0675" lon="-0.44591">
        <ele>961.94</ele>
        <time>2015-08-29T08:54:11Z</time>
      </trkpt>
      <trkpt lat="43.0675" lon="-0.44591">
        <ele>961.46</ele>
        <time>2015-08-29T08:54:28Z</time>
      </trkpt>
      <trkpt lat="43.06749" lon="-0.44591">
        <ele>961.94</ele>
        <time>2015-08-29T08:54:46Z</time>
      </trkpt>
      <trkpt lat="43.06749" lon="-0.44591">
        <ele>961.46</ele>
        <time>2015-08-29T08:54:54Z</time>
      </trkpt>
      <trkpt lat="43.06748" lon="-0.44593">
        <ele>961.94</ele>
        <time>2015-08-29T08:54:55Z</time>
      </trkpt>
      <trkpt lat="43.06747" lon="-0.44595">
        <ele>962.42</ele>
        <time>2015-08-29T08:54:56Z</time>
      </trkpt>
      <trkpt lat="43.06746" lon="-0.44597">
        <ele>962.42</ele>
        <time>2015-08-29T08:54:57Z</time>
      </trkpt>
      <trkpt lat="43.06746" lon="-0.446">
        <ele>962.42</ele>
        <time>2015-08-29T08:54:58Z</time>
      </trkpt>
      <trkpt lat="43.06746" lon="-0.44603">
        <ele>962.42</ele>
        <time>2015-08-29T08:54:59Z</time>
      </trkpt>
      <trkpt lat="43.06745" lon="-0.44606">
        <ele>962.42</ele>
        <time>2015-08-29T08:55:00Z</time>
      </trkpt>
      <trkpt lat="43.06743" lon="-0.44609">
        <ele>962.42</ele>
        <time>2015-08-29T08:55:01Z</time>
      </trkpt>
      <trkpt lat="43.06742" lon="-0.44612">
        <ele>962.42</ele>
        <time>2015-08-29T08:55:02Z</time>
      </trkpt>
      <trkpt lat="43.06741" lon="-0.44616">
        <ele>962.42</ele>
        <time>2015-08-29T08:55:03Z</time>
      </trkpt>
      <trkpt lat="43.06741" lon="-0.44619">
        <ele>962.9</ele>
        <time>2015-08-29T08:55:04Z</time>
      </trkpt>
      <trkpt lat="43.06741" lon="-0.44622">
        <ele>962.9</ele>
        <time>2015-08-29T08:55:05Z</time>
      </trkpt>
      <trkpt lat="43.06742" lon="-0.44625">
        <ele>962.42</ele>
        <time>2015-08-29T08:55:06Z</time>
      </trkpt>
      <trkpt lat="43.06742" lon="-0.44628">
        <ele>962.42</ele>
        <time>2015-08-29T08:55:07Z</time>
      </trkpt>
      <trkpt lat="43.06742" lon="-0.44631">
        <ele>962.42</ele>
        <time>2015-08-29T08:55:08Z</time>
      </trkpt>
      <trkpt lat="43.06742" lon="-0.44632">
        <ele>962.42</ele>
        <time>2015-08-29T08:55:09Z</time>
      </trkpt>
      <trkpt lat="43.06742" lon="-0.44634">
        <ele>962.42</ele>
        <time>2015-08-29T08:55:10Z</time>
      </trkpt>
      <trkpt lat="43.06741" lon="-0.44637">
        <ele>962.42</ele>
        <time>2015-08-29T08:55:11Z</time>
      </trkpt>
      <trkpt lat="43.0674" lon="-0.4464">
        <ele>962.42</ele>
        <time>2015-08-29T08:55:12Z</time>
      </trkpt>
      <trkpt lat="43.06738" lon="-0.44643">
        <ele>962.42</ele>
        <time>2015-08-29T08:55:13Z</time>
      </trkpt>
      <trkpt lat="43.06733" lon="-0.44654">
        <ele>963.38</ele>
        <time>2015-08-29T08:55:18Z</time>
      </trkpt>
      <trkpt lat="43.06733" lon="-0.44657">
        <ele>963.38</ele>
        <time>2015-08-29T08:55:19Z</time>
      </trkpt>
      <trkpt lat="43.06733" lon="-0.4466">
        <ele>963.38</ele>
        <time>2015-08-29T08:55:20Z</time>
      </trkpt>
      <trkpt lat="43.06737" lon="-0.44684">
        <ele>962.9</ele>
        <time>2015-08-29T08:55:31Z</time>
      </trkpt>
      <trkpt lat="43.06738" lon="-0.44684">
        <ele>962.9</ele>
        <time>2015-08-29T08:55:32Z</time>
      </trkpt>
      <trkpt lat="43.06738" lon="-0.44685">
        <ele>962.9</ele>
        <time>2015-08-29T08:55:43Z</time>
      </trkpt>
      <trkpt lat="43.06744" lon="-0.44686">
        <ele>962.9</ele>
        <time>2015-08-29T08:55:57Z</time>
      </trkpt>
      <trkpt lat="43.06748" lon="-0.44697">
        <ele>962.42</ele>
        <time>2015-08-29T08:56:03Z</time>
      </trkpt>
      <trkpt lat="43.06749" lon="-0.44734">
        <ele>963.38</ele>
        <time>2015-08-29T08:56:15Z</time>
      </trkpt>
      <trkpt lat="43.06753" lon="-0.44761">
        <ele>961.94</ele>
        <time>2015-08-29T08:56:20Z</time>
      </trkpt>
      <trkpt lat="43.06755" lon="-0.44767">
        <ele>961.46</ele>
        <time>2015-08-29T08:56:21Z</time>
      </trkpt>
      <trkpt lat="43.06756" lon="-0.44774">
        <ele>960.98</ele>
        <time>2015-08-29T08:56:22Z</time>
      </trkpt>
      <trkpt lat="43.06756" lon="-0.44781">
        <ele>960.49</ele>
        <time>2015-08-29T08:56:23Z</time>
      </trkpt>
      <trkpt lat="43.06757" lon="-0.44789">
        <ele>960.01</ele>
        <time>2015-08-29T08:56:24Z</time>
      </trkpt>
      <trkpt lat="43.06757" lon="-0.44798">
        <ele>959.05</ele>
        <time>2015-08-29T08:56:25Z</time>
      </trkpt>
      <trkpt lat="43.06773" lon="-0.44887">
        <ele>952.8</ele>
        <time>2015-08-29T08:56:34Z</time>
      </trkpt>
      <trkpt lat="43.06774" lon="-0.44892">
        <ele>952.32</ele>
        <time>2015-08-29T08:56:35Z</time>
      </trkpt>
      <trkpt lat="43.06775" lon="-0.44895">
        <ele>951.84</ele>
        <time>2015-08-29T08:56:36Z</time>
      </trkpt>
      <trkpt lat="43.06776" lon="-0.44899">
        <ele>951.36</ele>
        <time>2015-08-29T08:56:37Z</time>
      </trkpt>
      <trkpt lat="43.06777" lon="-0.44903">
        <ele>950.88</ele>
        <time>2015-08-29T08:56:38Z</time>
      </trkpt>
      <trkpt lat="43.06777" lon="-0.44906">
        <ele>950.88</ele>
        <time>2015-08-29T08:56:39Z</time>
      </trkpt>
      <trkpt lat="43.06776" lon="-0.4491">
        <ele>950.88</ele>
        <time>2015-08-29T08:56:40Z</time>
      </trkpt>
      <trkpt lat="43.06774" lon="-0.44913">
        <ele>950.4</ele>
        <time>2015-08-29T08:56:41Z</time>
      </trkpt>
      <trkpt lat="43.06773" lon="-0.44922">
        <ele>950.88</ele>
        <time>2015-08-29T08:56:44Z</time>
      </trkpt>
      <trkpt lat="43.0678" lon="-0.44952">
        <ele>948</ele>
        <time>2015-08-29T08:56:53Z</time>
      </trkpt>
      <trkpt lat="43.06783" lon="-0.44983">
        <ele>943.67</ele>
        <time>2015-08-29T08:57:01Z</time>
      </trkpt>
      <trkpt lat="43.06787" lon="-0.45008">
        <ele>937.9</ele>
        <time>2015-08-29T08:57:11Z</time>
      </trkpt>
      <trkpt lat="43.06794" lon="-0.45029">
        <ele>934.54</ele>
        <time>2015-08-29T08:57:17Z</time>
      </trkpt>
      <trkpt lat="43.06796" lon="-0.45034">
        <ele>934.06</ele>
        <time>2015-08-29T08:57:18Z</time>
      </trkpt>
      <trkpt lat="43.06799" lon="-0.4504">
        <ele>933.58</ele>
        <time>2015-08-29T08:57:19Z</time>
      </trkpt>
      <trkpt lat="43.06802" lon="-0.45044">
        <ele>933.1</ele>
        <time>2015-08-29T08:57:20Z</time>
      </trkpt>
      <trkpt lat="43.06806" lon="-0.45049">
        <ele>933.1</ele>
        <time>2015-08-29T08:57:21Z</time>
      </trkpt>
      <trkpt lat="43.06823" lon="-0.45063">
        <ele>931.17</ele>
        <time>2015-08-29T08:57:27Z</time>
      </trkpt>
      <trkpt lat="43.06825" lon="-0.45064">
        <ele>931.17</ele>
        <time>2015-08-29T08:57:28Z</time>
      </trkpt>
      <trkpt lat="43.06827" lon="-0.45065">
        <ele>931.17</ele>
        <time>2015-08-29T08:57:29Z</time>
      </trkpt>
      <trkpt lat="43.0683" lon="-0.45068">
        <ele>931.17</ele>
        <time>2015-08-29T08:57:30Z</time>
      </trkpt>
      <trkpt lat="43.06832" lon="-0.45071">
        <ele>931.17</ele>
        <time>2015-08-29T08:57:31Z</time>
      </trkpt>
      <trkpt lat="43.06833" lon="-0.45074">
        <ele>931.17</ele>
        <time>2015-08-29T08:57:32Z</time>
      </trkpt>
      <trkpt lat="43.06834" lon="-0.45076">
        <ele>930.69</ele>
        <time>2015-08-29T08:57:33Z</time>
      </trkpt>
      <trkpt lat="43.06833" lon="-0.45079">
        <ele>931.17</ele>
        <time>2015-08-29T08:57:34Z</time>
      </trkpt>
      <trkpt lat="43.06833" lon="-0.45082">
        <ele>931.17</ele>
        <time>2015-08-29T08:57:35Z</time>
      </trkpt>
      <trkpt lat="43.06832" lon="-0.45084">
        <ele>930.69</ele>
        <time>2015-08-29T08:57:36Z</time>
      </trkpt>
      <trkpt lat="43.06831" lon="-0.45086">
        <ele>931.17</ele>
        <time>2015-08-29T08:57:37Z</time>
      </trkpt>
      <trkpt lat="43.06821" lon="-0.45105">
        <ele>939.83</ele>
        <time>2015-08-29T08:57:47Z</time>
      </trkpt>
      <trkpt lat="43.06815" lon="-0.45114">
        <ele>941.75</ele>
        <time>2015-08-29T08:57:57Z</time>
      </trkpt>
      <trkpt lat="43.06811" lon="-0.45119">
        <ele>943.19</ele>
        <time>2015-08-29T08:58:01Z</time>
      </trkpt>
      <trkpt lat="43.06811" lon="-0.45135">
        <ele>942.23</ele>
        <time>2015-08-29T08:58:13Z</time>
      </trkpt>
      <trkpt lat="43.0681" lon="-0.4514">
        <ele>943.19</ele>
        <time>2015-08-29T08:58:17Z</time>
      </trkpt>
      <trkpt lat="43.06809" lon="-0.45142">
        <ele>943.19</ele>
        <time>2015-08-29T08:58:18Z</time>
      </trkpt>
      <trkpt lat="43.06809" lon="-0.45148">
        <ele>944.15</ele>
        <time>2015-08-29T08:58:23Z</time>
      </trkpt>
      <trkpt lat="43.0681" lon="-0.4515">
        <ele>943.67</ele>
        <time>2015-08-29T08:58:25Z</time>
      </trkpt>
      <trkpt lat="43.06812" lon="-0.45153">
        <ele>942.23</ele>
        <time>2015-08-29T08:58:37Z</time>
      </trkpt>
      <trkpt lat="43.06813" lon="-0.45154">
        <ele>941.75</ele>
        <time>2015-08-29T08:59:01Z</time>
      </trkpt>
      <trkpt lat="43.06813" lon="-0.45154">
        <ele>941.75</ele>
        <time>2015-08-29T08:59:36Z</time>
      </trkpt>
      <trkpt lat="43.06813" lon="-0.45154">
        <ele>941.27</ele>
        <time>2015-08-29T09:00:00Z</time>
      </trkpt>
      <trkpt lat="43.06812" lon="-0.45155">
        <ele>941.27</ele>
        <time>2015-08-29T09:00:29Z</time>
      </trkpt>
      <trkpt lat="43.06811" lon="-0.45161">
        <ele>941.27</ele>
        <time>2015-08-29T09:00:40Z</time>
      </trkpt>
      <trkpt lat="43.0681" lon="-0.45165">
        <ele>941.75</ele>
        <time>2015-08-29T09:00:44Z</time>
      </trkpt>
      <trkpt lat="43.06809" lon="-0.45166">
        <ele>941.27</ele>
        <time>2015-08-29T09:00:45Z</time>
      </trkpt>
      <trkpt lat="43.06809" lon="-0.45167">
        <ele>941.27</ele>
        <time>2015-08-29T09:00:46Z</time>
      </trkpt>
      <trkpt lat="43.06808" lon="-0.45169">
        <ele>941.27</ele>
        <time>2015-08-29T09:00:47Z</time>
      </trkpt>
      <trkpt lat="43.06808" lon="-0.4518">
        <ele>942.23</ele>
        <time>2015-08-29T09:00:54Z</time>
      </trkpt>
      <trkpt lat="43.06808" lon="-0.45182">
        <ele>942.23</ele>
        <time>2015-08-29T09:00:55Z</time>
      </trkpt>
      <trkpt lat="43.06807" lon="-0.45183">
        <ele>942.23</ele>
        <time>2015-08-29T09:00:56Z</time>
      </trkpt>
      <trkpt lat="43.06807" lon="-0.45185">
        <ele>942.23</ele>
        <time>2015-08-29T09:00:57Z</time>
      </trkpt>
      <trkpt lat="43.06806" lon="-0.45187">
        <ele>942.23</ele>
        <time>2015-08-29T09:00:58Z</time>
      </trkpt>
      <trkpt lat="43.06797" lon="-0.45203">
        <ele>945.11</ele>
        <time>2015-08-29T09:01:10Z</time>
      </trkpt>
      <trkpt lat="43.06797" lon="-0.45205">
        <ele>944.63</ele>
        <time>2015-08-29T09:01:11Z</time>
      </trkpt>
      <trkpt lat="43.06797" lon="-0.45207">
        <ele>944.63</ele>
        <time>2015-08-29T09:01:12Z</time>
      </trkpt>
      <trkpt lat="43.06796" lon="-0.45209">
        <ele>945.11</ele>
        <time>2015-08-29T09:01:13Z</time>
      </trkpt>
      <trkpt lat="43.06796" lon="-0.45211">
        <ele>945.11</ele>
        <time>2015-08-29T09:01:14Z</time>
      </trkpt>
      <trkpt lat="43.06796" lon="-0.45222">
        <ele>947.52</ele>
        <time>2015-08-29T09:01:20Z</time>
      </trkpt>
      <trkpt lat="43.06795" lon="-0.45224">
        <ele>948</ele>
        <time>2015-08-29T09:01:21Z</time>
      </trkpt>
      <trkpt lat="43.06795" lon="-0.45225">
        <ele>948.48</ele>
        <time>2015-08-29T09:01:22Z</time>
      </trkpt>
      <trkpt lat="43.06794" lon="-0.45228">
        <ele>948.96</ele>
        <time>2015-08-29T09:01:24Z</time>
      </trkpt>
      <trkpt lat="43.06793" lon="-0.45229">
        <ele>949.44</ele>
        <time>2015-08-29T09:01:25Z</time>
      </trkpt>
      <trkpt lat="43.06793" lon="-0.45232">
        <ele>949.92</ele>
        <time>2015-08-29T09:01:27Z</time>
      </trkpt>
      <trkpt lat="43.06793" lon="-0.45234">
        <ele>949.92</ele>
        <time>2015-08-29T09:01:28Z</time>
      </trkpt>
      <trkpt lat="43.06793" lon="-0.45236">
        <ele>949.92</ele>
        <time>2015-08-29T09:01:29Z</time>
      </trkpt>
      <trkpt lat="43.06793" lon="-0.45238">
        <ele>949.92</ele>
        <time>2015-08-29T09:01:30Z</time>
      </trkpt>
      <trkpt lat="43.06792" lon="-0.4524">
        <ele>950.4</ele>
        <time>2015-08-29T09:01:31Z</time>
      </trkpt>
      <trkpt lat="43.06792" lon="-0.45241">
        <ele>950.4</ele>
        <time>2015-08-29T09:01:32Z</time>
      </trkpt>
      <trkpt lat="43.0679" lon="-0.45245">
        <ele>950.88</ele>
        <time>2015-08-29T09:01:35Z</time>
      </trkpt>
      <trkpt lat="43.0679" lon="-0.45246">
        <ele>951.36</ele>
        <time>2015-08-29T09:01:36Z</time>
      </trkpt>
      <trkpt lat="43.06789" lon="-0.45248">
        <ele>951.84</ele>
        <time>2015-08-29T09:01:37Z</time>
      </trkpt>
      <trkpt lat="43.06785" lon="-0.45269">
        <ele>954.73</ele>
        <time>2015-08-29T09:01:51Z</time>
      </trkpt>
      <trkpt lat="43.06782" lon="-0.45291">
        <ele>954.25</ele>
        <time>2015-08-29T09:02:04Z</time>
      </trkpt>
      <trkpt lat="43.06782" lon="-0.45297">
        <ele>954.25</ele>
        <time>2015-08-29T09:02:07Z</time>
      </trkpt>
      <trkpt lat="43.06784" lon="-0.45305">
        <ele>954.73</ele>
        <time>2015-08-29T09:02:12Z</time>
      </trkpt>
      <trkpt lat="43.06786" lon="-0.45315">
        <ele>954.25</ele>
        <time>2015-08-29T09:02:19Z</time>
      </trkpt>
      <trkpt lat="43.06787" lon="-0.45317">
        <ele>954.73</ele>
        <time>2015-08-29T09:02:20Z</time>
      </trkpt>
      <trkpt lat="43.06787" lon="-0.45323">
        <ele>955.21</ele>
        <time>2015-08-29T09:02:24Z</time>
      </trkpt>
      <trkpt lat="43.06786" lon="-0.45324">
        <ele>955.21</ele>
        <time>2015-08-29T09:02:25Z</time>
      </trkpt>
      <trkpt lat="43.06786" lon="-0.45324">
        <ele>954.25</ele>
        <time>2015-08-29T09:02:38Z</time>
      </trkpt>
      <trkpt lat="43.06786" lon="-0.45324">
        <ele>954.25</ele>
        <time>2015-08-29T09:02:58Z</time>
      </trkpt>
      <trkpt lat="43.06786" lon="-0.45324">
        <ele>954.25</ele>
        <time>2015-08-29T09:03:16Z</time>
      </trkpt>
      <trkpt lat="43.06787" lon="-0.45327">
        <ele>953.28</ele>
        <time>2015-08-29T09:03:44Z</time>
      </trkpt>
      <trkpt lat="43.06786" lon="-0.45329">
        <ele>953.28</ele>
        <time>2015-08-29T09:04:16Z</time>
      </trkpt>
      <trkpt lat="43.06786" lon="-0.45329">
        <ele>953.28</ele>
        <time>2015-08-29T09:04:42Z</time>
      </trkpt>
      <trkpt lat="43.06786" lon="-0.45329">
        <ele>953.28</ele>
        <time>2015-08-29T09:05:08Z</time>
      </trkpt>
      <trkpt lat="43.06786" lon="-0.45329">
        <ele>953.28</ele>
        <time>2015-08-29T09:05:38Z</time>
      </trkpt>
      <trkpt lat="43.06786" lon="-0.45328">
        <ele>953.28</ele>
        <time>2015-08-29T09:05:51Z</time>
      </trkpt>
      <trkpt lat="43.06787" lon="-0.45329">
        <ele>953.28</ele>
        <time>2015-08-29T09:05:52Z</time>
      </trkpt>
      <trkpt lat="43.06787" lon="-0.45331">
        <ele>953.28</ele>
        <time>2015-08-29T09:05:53Z</time>
      </trkpt>
      <trkpt lat="43.06791" lon="-0.45358">
        <ele>952.8</ele>
        <time>2015-08-29T09:06:04Z</time>
      </trkpt>
      <trkpt lat="43.06796" lon="-0.45367">
        <ele>951.84</ele>
        <time>2015-08-29T09:06:07Z</time>
      </trkpt>
      <trkpt lat="43.06797" lon="-0.4537">
        <ele>951.36</ele>
        <time>2015-08-29T09:06:08Z</time>
      </trkpt>
      <trkpt lat="43.06797" lon="-0.45375">
        <ele>951.36</ele>
        <time>2015-08-29T09:06:09Z</time>
      </trkpt>
      <trkpt lat="43.06797" lon="-0.45378">
        <ele>950.88</ele>
        <time>2015-08-29T09:06:10Z</time>
      </trkpt>
      <trkpt lat="43.06796" lon="-0.45382">
        <ele>950.4</ele>
        <time>2015-08-29T09:06:11Z</time>
      </trkpt>
      <trkpt lat="43.06794" lon="-0.45385">
        <ele>949.92</ele>
        <time>2015-08-29T09:06:12Z</time>
      </trkpt>
      <trkpt lat="43.06793" lon="-0.45389">
        <ele>949.44</ele>
        <time>2015-08-29T09:06:13Z</time>
      </trkpt>
      <trkpt lat="43.06792" lon="-0.45394">
        <ele>948.96</ele>
        <time>2015-08-29T09:06:14Z</time>
      </trkpt>
      <trkpt lat="43.06793" lon="-0.45398">
        <ele>948.96</ele>
        <time>2015-08-29T09:06:15Z</time>
      </trkpt>
      <trkpt lat="43.06795" lon="-0.45403">
        <ele>948.48</ele>
        <time>2015-08-29T09:06:16Z</time>
      </trkpt>
      <trkpt lat="43.06798" lon="-0.45407">
        <ele>948</ele>
        <time>2015-08-29T09:06:17Z</time>
      </trkpt>
      <trkpt lat="43.068" lon="-0.45411">
        <ele>947.52</ele>
        <time>2015-08-29T09:06:18Z</time>
      </trkpt>
      <trkpt lat="43.06802" lon="-0.45414">
        <ele>947.52</ele>
        <time>2015-08-29T09:06:19Z</time>
      </trkpt>
      <trkpt lat="43.06802" lon="-0.45418">
        <ele>947.04</ele>
        <time>2015-08-29T09:06:20Z</time>
      </trkpt>
      <trkpt lat="43.06801" lon="-0.45421">
        <ele>946.56</ele>
        <time>2015-08-29T09:06:21Z</time>
      </trkpt>
      <trkpt lat="43.06801" lon="-0.45425">
        <ele>946.07</ele>
        <time>2015-08-29T09:06:22Z</time>
      </trkpt>
      <trkpt lat="43.06802" lon="-0.45429">
        <ele>945.59</ele>
        <time>2015-08-29T09:06:23Z</time>
      </trkpt>
      <trkpt lat="43.06804" lon="-0.45432">
        <ele>945.11</ele>
        <time>2015-08-29T09:06:24Z</time>
      </trkpt>
      <trkpt lat="43.06806" lon="-0.45436">
        <ele>944.63</ele>
        <time>2015-08-29T09:06:25Z</time>
      </trkpt>
      <trkpt lat="43.06808" lon="-0.45439">
        <ele>944.15</ele>
        <time>2015-08-29T09:06:26Z</time>
      </trkpt>
      <trkpt lat="43.06809" lon="-0.45443">
        <ele>943.67</ele>
        <time>2015-08-29T09:06:27Z</time>
      </trkpt>
      <trkpt lat="43.0681" lon="-0.45448">
        <ele>943.19</ele>
        <time>2015-08-29T09:06:28Z</time>
      </trkpt>
      <trkpt lat="43.06815" lon="-0.45465">
        <ele>942.23</ele>
        <time>2015-08-29T09:06:31Z</time>
      </trkpt>
      <trkpt lat="43.06818" lon="-0.45472">
        <ele>941.75</ele>
        <time>2015-08-29T09:06:32Z</time>
      </trkpt>
      <trkpt lat="43.06822" lon="-0.45478">
        <ele>941.27</ele>
        <time>2015-08-29T09:06:33Z</time>
      </trkpt>
      <trkpt lat="43.06827" lon="-0.45483">
        <ele>940.79</ele>
        <time>2015-08-29T09:06:34Z</time>
      </trkpt>
      <trkpt lat="43.0683" lon="-0.45486">
        <ele>940.31</ele>
        <time>2015-08-29T09:06:35Z</time>
      </trkpt>
      <trkpt lat="43.06843" lon="-0.45517">
        <ele>936.94</ele>
        <time>2015-08-29T09:06:44Z</time>
      </trkpt>
      <trkpt lat="43.06846" lon="-0.45525">
        <ele>935.02</ele>
        <time>2015-08-29T09:06:48Z</time>
      </trkpt>
      <trkpt lat="43.06848" lon="-0.45525">
        <ele>935.02</ele>
        <time>2015-08-29T09:06:49Z</time>
      </trkpt>
      <trkpt lat="43.06855" lon="-0.45525">
        <ele>933.1</ele>
        <time>2015-08-29T09:06:54Z</time>
      </trkpt>
      <trkpt lat="43.06854" lon="-0.45555">
        <ele>930.69</ele>
        <time>2015-08-29T09:07:03Z</time>
      </trkpt>
      <trkpt lat="43.06855" lon="-0.4558">
        <ele>928.29</ele>
        <time>2015-08-29T09:07:08Z</time>
      </trkpt>
      <trkpt lat="43.06856" lon="-0.45597">
        <ele>926.85</ele>
        <time>2015-08-29T09:07:11Z</time>
      </trkpt>
      <trkpt lat="43.06871" lon="-0.45631">
        <ele>923</ele>
        <time>2015-08-29T09:07:19Z</time>
      </trkpt>
      <trkpt lat="43.06872" lon="-0.45636">
        <ele>922.52</ele>
        <time>2015-08-29T09:07:20Z</time>
      </trkpt>
      <trkpt lat="43.06871" lon="-0.45641">
        <ele>922.04</ele>
        <time>2015-08-29T09:07:21Z</time>
      </trkpt>
      <trkpt lat="43.06868" lon="-0.45685">
        <ele>920.6</ele>
        <time>2015-08-29T09:07:32Z</time>
      </trkpt>
      <trkpt lat="43.06868" lon="-0.45732">
        <ele>918.68</ele>
        <time>2015-08-29T09:07:45Z</time>
      </trkpt>
      <trkpt lat="43.06865" lon="-0.45767">
        <ele>919.16</ele>
        <time>2015-08-29T09:07:57Z</time>
      </trkpt>
      <trkpt lat="43.06858" lon="-0.45805">
        <ele>919.64</ele>
        <time>2015-08-29T09:08:10Z</time>
      </trkpt>
      <trkpt lat="43.06847" lon="-0.45848">
        <ele>918.68</ele>
        <time>2015-08-29T09:08:22Z</time>
      </trkpt>
      <trkpt lat="43.06845" lon="-0.45871">
        <ele>920.12</ele>
        <time>2015-08-29T09:08:29Z</time>
      </trkpt>
      <trkpt lat="43.06844" lon="-0.45873">
        <ele>920.12</ele>
        <time>2015-08-29T09:08:30Z</time>
      </trkpt>
      <trkpt lat="43.06843" lon="-0.45876">
        <ele>920.12</ele>
        <time>2015-08-29T09:08:31Z</time>
      </trkpt>
      <trkpt lat="43.06842" lon="-0.4588">
        <ele>920.12</ele>
        <time>2015-08-29T09:08:32Z</time>
      </trkpt>
      <trkpt lat="43.06841" lon="-0.45883">
        <ele>920.12</ele>
        <time>2015-08-29T09:08:33Z</time>
      </trkpt>
      <trkpt lat="43.06824" lon="-0.45917">
        <ele>922.04</ele>
        <time>2015-08-29T09:08:45Z</time>
      </trkpt>
      <trkpt lat="43.0682" lon="-0.4593">
        <ele>923</ele>
        <time>2015-08-29T09:08:49Z</time>
      </trkpt>
      <trkpt lat="43.06819" lon="-0.45931">
        <ele>923.48</ele>
        <time>2015-08-29T09:08:50Z</time>
      </trkpt>
      <trkpt lat="43.06818" lon="-0.45933">
        <ele>923.48</ele>
        <time>2015-08-29T09:08:51Z</time>
      </trkpt>
      <trkpt lat="43.06816" lon="-0.45934">
        <ele>923.48</ele>
        <time>2015-08-29T09:08:52Z</time>
      </trkpt>
      <trkpt lat="43.06815" lon="-0.45936">
        <ele>923.96</ele>
        <time>2015-08-29T09:08:53Z</time>
      </trkpt>
      <trkpt lat="43.06805" lon="-0.45957">
        <ele>926.37</ele>
        <time>2015-08-29T09:09:04Z</time>
      </trkpt>
      <trkpt lat="43.068" lon="-0.45979">
        <ele>927.81</ele>
        <time>2015-08-29T09:09:13Z</time>
      </trkpt>
      <trkpt lat="43.068" lon="-0.45983">
        <ele>927.81</ele>
        <time>2015-08-29T09:09:14Z</time>
      </trkpt>
      <trkpt lat="43.06799" lon="-0.45986">
        <ele>927.33</ele>
        <time>2015-08-29T09:09:15Z</time>
      </trkpt>
      <trkpt lat="43.06798" lon="-0.45989">
        <ele>927.33</ele>
        <time>2015-08-29T09:09:16Z</time>
      </trkpt>
      <trkpt lat="43.06797" lon="-0.45991">
        <ele>927.33</ele>
        <time>2015-08-29T09:09:17Z</time>
      </trkpt>
      <trkpt lat="43.06796" lon="-0.45994">
        <ele>927.81</ele>
        <time>2015-08-29T09:09:18Z</time>
      </trkpt>
      <trkpt lat="43.06795" lon="-0.45997">
        <ele>927.81</ele>
        <time>2015-08-29T09:09:19Z</time>
      </trkpt>
      <trkpt lat="43.06794" lon="-0.46001">
        <ele>927.81</ele>
        <time>2015-08-29T09:09:20Z</time>
      </trkpt>
      <trkpt lat="43.06794" lon="-0.46005">
        <ele>927.81</ele>
        <time>2015-08-29T09:09:21Z</time>
      </trkpt>
      <trkpt lat="43.06793" lon="-0.46009">
        <ele>927.81</ele>
        <time>2015-08-29T09:09:22Z</time>
      </trkpt>
      <trkpt lat="43.06792" lon="-0.46041">
        <ele>927.33</ele>
        <time>2015-08-29T09:09:30Z</time>
      </trkpt>
      <trkpt lat="43.06794" lon="-0.46044">
        <ele>927.33</ele>
        <time>2015-08-29T09:09:31Z</time>
      </trkpt>
      <trkpt lat="43.06794" lon="-0.46048">
        <ele>926.85</ele>
        <time>2015-08-29T09:09:32Z</time>
      </trkpt>
      <trkpt lat="43.06794" lon="-0.46052">
        <ele>926.85</ele>
        <time>2015-08-29T09:09:33Z</time>
      </trkpt>
      <trkpt lat="43.06794" lon="-0.46056">
        <ele>926.37</ele>
        <time>2015-08-29T09:09:34Z</time>
      </trkpt>
      <trkpt lat="43.06794" lon="-0.4606">
        <ele>926.37</ele>
        <time>2015-08-29T09:09:35Z</time>
      </trkpt>
      <trkpt lat="43.06793" lon="-0.46064">
        <ele>925.89</ele>
        <time>2015-08-29T09:09:36Z</time>
      </trkpt>
      <trkpt lat="43.06793" lon="-0.4607">
        <ele>925.41</ele>
        <time>2015-08-29T09:09:37Z</time>
      </trkpt>
      <trkpt lat="43.06793" lon="-0.46075">
        <ele>924.93</ele>
        <time>2015-08-29T09:09:38Z</time>
      </trkpt>
      <trkpt lat="43.0679" lon="-0.46128">
        <ele>922.04</ele>
        <time>2015-08-29T09:09:49Z</time>
      </trkpt>
      <trkpt lat="43.06782" lon="-0.46143">
        <ele>920.6</ele>
        <time>2015-08-29T09:09:53Z</time>
      </trkpt>
      <trkpt lat="43.06779" lon="-0.46147">
        <ele>920.12</ele>
        <time>2015-08-29T09:09:54Z</time>
      </trkpt>
      <trkpt lat="43.06776" lon="-0.46151">
        <ele>919.16</ele>
        <time>2015-08-29T09:09:55Z</time>
      </trkpt>
      <trkpt lat="43.06758" lon="-0.4619">
        <ele>913.39</ele>
        <time>2015-08-29T09:10:04Z</time>
      </trkpt>
      <trkpt lat="43.0675" lon="-0.46207">
        <ele>911.47</ele>
        <time>2015-08-29T09:10:09Z</time>
      </trkpt>
      <trkpt lat="43.06747" lon="-0.46217">
        <ele>910.51</ele>
        <time>2015-08-29T09:10:12Z</time>
      </trkpt>
      <trkpt lat="43.06746" lon="-0.4622">
        <ele>910.51</ele>
        <time>2015-08-29T09:10:13Z</time>
      </trkpt>
      <trkpt lat="43.06745" lon="-0.46223">
        <ele>910.03</ele>
        <time>2015-08-29T09:10:14Z</time>
      </trkpt>
      <trkpt lat="43.06745" lon="-0.46225">
        <ele>910.03</ele>
        <time>2015-08-29T09:10:15Z</time>
      </trkpt>
      <trkpt lat="43.06744" lon="-0.46228">
        <ele>910.03</ele>
        <time>2015-08-29T09:10:16Z</time>
      </trkpt>
      <trkpt lat="43.0674" lon="-0.46245">
        <ele>909.54</ele>
        <time>2015-08-29T09:10:20Z</time>
      </trkpt>
      <trkpt lat="43.0674" lon="-0.46248">
        <ele>909.06</ele>
        <time>2015-08-29T09:10:21Z</time>
      </trkpt>
      <trkpt lat="43.0674" lon="-0.46249">
        <ele>909.06</ele>
        <time>2015-08-29T09:10:22Z</time>
      </trkpt>
      <trkpt lat="43.06739" lon="-0.46252">
        <ele>908.58</ele>
        <time>2015-08-29T09:10:23Z</time>
      </trkpt>
      <trkpt lat="43.06738" lon="-0.46255">
        <ele>908.1</ele>
        <time>2015-08-29T09:10:24Z</time>
      </trkpt>
      <trkpt lat="43.06736" lon="-0.46264">
        <ele>907.14</ele>
        <time>2015-08-29T09:10:26Z</time>
      </trkpt>
      <trkpt lat="43.06736" lon="-0.46269">
        <ele>907.14</ele>
        <time>2015-08-29T09:10:27Z</time>
      </trkpt>
      <trkpt lat="43.06737" lon="-0.46275">
        <ele>907.14</ele>
        <time>2015-08-29T09:10:28Z</time>
      </trkpt>
      <trkpt lat="43.06736" lon="-0.46279">
        <ele>906.66</ele>
        <time>2015-08-29T09:10:29Z</time>
      </trkpt>
      <trkpt lat="43.06736" lon="-0.46283">
        <ele>906.66</ele>
        <time>2015-08-29T09:10:30Z</time>
      </trkpt>
      <trkpt lat="43.06736" lon="-0.463">
        <ele>905.22</ele>
        <time>2015-08-29T09:10:34Z</time>
      </trkpt>
      <trkpt lat="43.06736" lon="-0.46303">
        <ele>904.74</ele>
        <time>2015-08-29T09:10:35Z</time>
      </trkpt>
      <trkpt lat="43.06735" lon="-0.46307">
        <ele>904.26</ele>
        <time>2015-08-29T09:10:36Z</time>
      </trkpt>
      <trkpt lat="43.06736" lon="-0.46311">
        <ele>904.26</ele>
        <time>2015-08-29T09:10:37Z</time>
      </trkpt>
      <trkpt lat="43.06737" lon="-0.46314">
        <ele>904.26</ele>
        <time>2015-08-29T09:10:38Z</time>
      </trkpt>
      <trkpt lat="43.06737" lon="-0.46317">
        <ele>903.78</ele>
        <time>2015-08-29T09:10:39Z</time>
      </trkpt>
      <trkpt lat="43.06737" lon="-0.46319">
        <ele>903.3</ele>
        <time>2015-08-29T09:10:40Z</time>
      </trkpt>
      <trkpt lat="43.06737" lon="-0.46323">
        <ele>903.3</ele>
        <time>2015-08-29T09:10:41Z</time>
      </trkpt>
      <trkpt lat="43.06742" lon="-0.46356">
        <ele>899.93</ele>
        <time>2015-08-29T09:10:51Z</time>
      </trkpt>
      <trkpt lat="43.06742" lon="-0.46393">
        <ele>897.53</ele>
        <time>2015-08-29T09:11:01Z</time>
      </trkpt>
      <trkpt lat="43.06742" lon="-0.46396">
        <ele>897.05</ele>
        <time>2015-08-29T09:11:02Z</time>
      </trkpt>
      <trkpt lat="43.06735" lon="-0.46402">
        <ele>895.61</ele>
        <time>2015-08-29T09:11:07Z</time>
      </trkpt>
      <trkpt lat="43.06716" lon="-0.46402">
        <ele>893.68</ele>
        <time>2015-08-29T09:11:13Z</time>
      </trkpt>
      <trkpt lat="43.06712" lon="-0.46403">
        <ele>893.2</ele>
        <time>2015-08-29T09:11:14Z</time>
      </trkpt>
      <trkpt lat="43.06708" lon="-0.46404">
        <ele>893.2</ele>
        <time>2015-08-29T09:11:15Z</time>
      </trkpt>
      <trkpt lat="43.067" lon="-0.46407">
        <ele>892.24</ele>
        <time>2015-08-29T09:11:17Z</time>
      </trkpt>
      <trkpt lat="43.06696" lon="-0.46408">
        <ele>891.76</ele>
        <time>2015-08-29T09:11:18Z</time>
      </trkpt>
      <trkpt lat="43.06693" lon="-0.46411">
        <ele>891.76</ele>
        <time>2015-08-29T09:11:19Z</time>
      </trkpt>
      <trkpt lat="43.06691" lon="-0.46415">
        <ele>891.76</ele>
        <time>2015-08-29T09:11:20Z</time>
      </trkpt>
      <trkpt lat="43.06691" lon="-0.46418">
        <ele>891.76</ele>
        <time>2015-08-29T09:11:21Z</time>
      </trkpt>
      <trkpt lat="43.06691" lon="-0.46421">
        <ele>891.76</ele>
        <time>2015-08-29T09:11:22Z</time>
      </trkpt>
      <trkpt lat="43.06691" lon="-0.46424">
        <ele>891.76</ele>
        <time>2015-08-29T09:11:23Z</time>
      </trkpt>
      <trkpt lat="43.06688" lon="-0.46427">
        <ele>891.76</ele>
        <time>2015-08-29T09:11:24Z</time>
      </trkpt>
      <trkpt lat="43.06676" lon="-0.46439">
        <ele>890.32</ele>
        <time>2015-08-29T09:11:28Z</time>
      </trkpt>
      <trkpt lat="43.06672" lon="-0.46479">
        <ele>890.32</ele>
        <time>2015-08-29T09:11:38Z</time>
      </trkpt>
      <trkpt lat="43.06679" lon="-0.46525">
        <ele>889.36</ele>
        <time>2015-08-29T09:11:45Z</time>
      </trkpt>
      <trkpt lat="43.06683" lon="-0.46535">
        <ele>889.36</ele>
        <time>2015-08-29T09:11:47Z</time>
      </trkpt>
      <trkpt lat="43.06682" lon="-0.46547">
        <ele>888.88</ele>
        <time>2015-08-29T09:11:52Z</time>
      </trkpt>
      <trkpt lat="43.06661" lon="-0.46538">
        <ele>887.43</ele>
        <time>2015-08-29T09:11:59Z</time>
      </trkpt>
      <trkpt lat="43.06651" lon="-0.46528">
        <ele>886.47</ele>
        <time>2015-08-29T09:12:02Z</time>
      </trkpt>
      <trkpt lat="43.0664" lon="-0.46518">
        <ele>885.51</ele>
        <time>2015-08-29T09:12:05Z</time>
      </trkpt>
      <trkpt lat="43.06629" lon="-0.46516">
        <ele>884.55</ele>
        <time>2015-08-29T09:12:08Z</time>
      </trkpt>
      <trkpt lat="43.06625" lon="-0.46519">
        <ele>883.59</ele>
        <time>2015-08-29T09:12:09Z</time>
      </trkpt>
      <trkpt lat="43.06621" lon="-0.46523">
        <ele>883.11</ele>
        <time>2015-08-29T09:12:10Z</time>
      </trkpt>
      <trkpt lat="43.06618" lon="-0.46528">
        <ele>882.63</ele>
        <time>2015-08-29T09:12:11Z</time>
      </trkpt>
      <trkpt lat="43.06615" lon="-0.46534">
        <ele>882.15</ele>
        <time>2015-08-29T09:12:12Z</time>
      </trkpt>
      <trkpt lat="43.06611" lon="-0.46539">
        <ele>882.15</ele>
        <time>2015-08-29T09:12:13Z</time>
      </trkpt>
      <trkpt lat="43.06608" lon="-0.46544">
        <ele>881.67</ele>
        <time>2015-08-29T09:12:14Z</time>
      </trkpt>
      <trkpt lat="43.06598" lon="-0.46561">
        <ele>881.19</ele>
        <time>2015-08-29T09:12:17Z</time>
      </trkpt>
      <trkpt lat="43.06591" lon="-0.46573">
        <ele>880.22</ele>
        <time>2015-08-29T09:12:19Z</time>
      </trkpt>
      <trkpt lat="43.06585" lon="-0.46586">
        <ele>879.74</ele>
        <time>2015-08-29T09:12:21Z</time>
      </trkpt>
      <trkpt lat="43.06566" lon="-0.46646">
        <ele>877.34</ele>
        <time>2015-08-29T09:12:30Z</time>
      </trkpt>
      <trkpt lat="43.06564" lon="-0.46652">
        <ele>876.86</ele>
        <time>2015-08-29T09:12:31Z</time>
      </trkpt>
      <trkpt lat="43.0655" lon="-0.46698">
        <ele>874.94</ele>
        <time>2015-08-29T09:12:38Z</time>
      </trkpt>
      <trkpt lat="43.06547" lon="-0.46703">
        <ele>874.46</ele>
        <time>2015-08-29T09:12:39Z</time>
      </trkpt>
      <trkpt lat="43.06533" lon="-0.46693">
        <ele>873.5</ele>
        <time>2015-08-29T09:12:44Z</time>
      </trkpt>
      <trkpt lat="43.06532" lon="-0.46688">
        <ele>873.01</ele>
        <time>2015-08-29T09:12:45Z</time>
      </trkpt>
      <trkpt lat="43.06532" lon="-0.46626">
        <ele>875.42</ele>
        <time>2015-08-29T09:13:00Z</time>
      </trkpt>
      <trkpt lat="43.06531" lon="-0.46569">
        <ele>875.9</ele>
        <time>2015-08-29T09:13:15Z</time>
      </trkpt>
      <trkpt lat="43.0652" lon="-0.46529">
        <ele>879.26</ele>
        <time>2015-08-29T09:13:28Z</time>
      </trkpt>
      <trkpt lat="43.06514" lon="-0.46497">
        <ele>881.19</ele>
        <time>2015-08-29T09:13:40Z</time>
      </trkpt>
      <trkpt lat="43.06495" lon="-0.46491">
        <ele>881.67</ele>
        <time>2015-08-29T09:13:52Z</time>
      </trkpt>
      <trkpt lat="43.06468" lon="-0.46488">
        <ele>882.15</ele>
        <time>2015-08-29T09:14:06Z</time>
      </trkpt>
      <trkpt lat="43.06431" lon="-0.46497">
        <ele>882.15</ele>
        <time>2015-08-29T09:14:21Z</time>
      </trkpt>
      <trkpt lat="43.06397" lon="-0.46515">
        <ele>884.07</ele>
        <time>2015-08-29T09:14:36Z</time>
      </trkpt>
      <trkpt lat="43.06361" lon="-0.46524">
        <ele>884.55</ele>
        <time>2015-08-29T09:14:48Z</time>
      </trkpt>
      <trkpt lat="43.06336" lon="-0.46534">
        <ele>883.59</ele>
        <time>2015-08-29T09:14:54Z</time>
      </trkpt>
      <trkpt lat="43.0629" lon="-0.46554">
        <ele>883.59</ele>
        <time>2015-08-29T09:15:07Z</time>
      </trkpt>
      <trkpt lat="43.06249" lon="-0.46583">
        <ele>883.11</ele>
        <time>2015-08-29T09:15:21Z</time>
      </trkpt>
      <trkpt lat="43.06209" lon="-0.46601">
        <ele>884.55</ele>
        <time>2015-08-29T09:15:34Z</time>
      </trkpt>
      <trkpt lat="43.06169" lon="-0.4661">
        <ele>885.51</ele>
        <time>2015-08-29T09:15:47Z</time>
      </trkpt>
      <trkpt lat="43.06124" lon="-0.46594">
        <ele>888.4</ele>
        <time>2015-08-29T09:16:00Z</time>
      </trkpt>
      <trkpt lat="43.06083" lon="-0.46566">
        <ele>891.28</ele>
        <time>2015-08-29T09:16:14Z</time>
      </trkpt>
      <trkpt lat="43.06053" lon="-0.46557">
        <ele>895.61</ele>
        <time>2015-08-29T09:16:26Z</time>
      </trkpt>
      <trkpt lat="43.06021" lon="-0.46555">
        <ele>895.61</ele>
        <time>2015-08-29T09:16:39Z</time>
      </trkpt>
      <trkpt lat="43.05992" lon="-0.46543">
        <ele>894.64</ele>
        <time>2015-08-29T09:16:51Z</time>
      </trkpt>
      <trkpt lat="43.05963" lon="-0.4652">
        <ele>894.64</ele>
        <time>2015-08-29T09:17:05Z</time>
      </trkpt>
      <trkpt lat="43.05947" lon="-0.465">
        <ele>892.24</ele>
        <time>2015-08-29T09:17:11Z</time>
      </trkpt>
      <trkpt lat="43.05945" lon="-0.46495">
        <ele>891.76</ele>
        <time>2015-08-29T09:17:12Z</time>
      </trkpt>
      <trkpt lat="43.0591" lon="-0.4642">
        <ele>885.03</ele>
        <time>2015-08-29T09:17:22Z</time>
      </trkpt>
      <trkpt lat="43.05873" lon="-0.46347">
        <ele>880.22</ele>
        <time>2015-08-29T09:17:29Z</time>
      </trkpt>
      <trkpt lat="43.05862" lon="-0.46316">
        <ele>874.94</ele>
        <time>2015-08-29T09:17:35Z</time>
      </trkpt>
      <trkpt lat="43.05863" lon="-0.46313">
        <ele>873.98</ele>
        <time>2015-08-29T09:17:36Z</time>
      </trkpt>
      <trkpt lat="43.05866" lon="-0.4631">
        <ele>873.5</ele>
        <time>2015-08-29T09:17:37Z</time>
      </trkpt>
      <trkpt lat="43.05869" lon="-0.46307">
        <ele>872.53</ele>
        <time>2015-08-29T09:17:38Z</time>
      </trkpt>
      <trkpt lat="43.05873" lon="-0.46301">
        <ele>872.05</ele>
        <time>2015-08-29T09:17:39Z</time>
      </trkpt>
      <trkpt lat="43.05876" lon="-0.46292">
        <ele>871.09</ele>
        <time>2015-08-29T09:17:40Z</time>
      </trkpt>
      <trkpt lat="43.05878" lon="-0.46282">
        <ele>870.61</ele>
        <time>2015-08-29T09:17:41Z</time>
      </trkpt>
      <trkpt lat="43.05879" lon="-0.46272">
        <ele>869.65</ele>
        <time>2015-08-29T09:17:42Z</time>
      </trkpt>
      <trkpt lat="43.05883" lon="-0.46241">
        <ele>867.25</ele>
        <time>2015-08-29T09:17:45Z</time>
      </trkpt>
      <trkpt lat="43.05888" lon="-0.4622">
        <ele>865.8</ele>
        <time>2015-08-29T09:17:47Z</time>
      </trkpt>
      <trkpt lat="43.05889" lon="-0.46209">
        <ele>865.32</ele>
        <time>2015-08-29T09:17:48Z</time>
      </trkpt>
      <trkpt lat="43.0589" lon="-0.46198">
        <ele>864.84</ele>
        <time>2015-08-29T09:17:49Z</time>
      </trkpt>
      <trkpt lat="43.05892" lon="-0.46189">
        <ele>864.84</ele>
        <time>2015-08-29T09:17:50Z</time>
      </trkpt>
      <trkpt lat="43.05892" lon="-0.46181">
        <ele>864.36</ele>
        <time>2015-08-29T09:17:51Z</time>
      </trkpt>
      <trkpt lat="43.05892" lon="-0.46153">
        <ele>863.4</ele>
        <time>2015-08-29T09:17:55Z</time>
      </trkpt>
      <trkpt lat="43.05886" lon="-0.46123">
        <ele>863.4</ele>
        <time>2015-08-29T09:18:00Z</time>
      </trkpt>
      <trkpt lat="43.05887" lon="-0.46059">
        <ele>859.56</ele>
        <time>2015-08-29T09:18:09Z</time>
      </trkpt>
      <trkpt lat="43.05887" lon="-0.46053">
        <ele>859.08</ele>
        <time>2015-08-29T09:18:10Z</time>
      </trkpt>
      <trkpt lat="43.05887" lon="-0.46035">
        <ele>856.19</ele>
        <time>2015-08-29T09:18:13Z</time>
      </trkpt>
      <trkpt lat="43.05888" lon="-0.46027">
        <ele>855.23</ele>
        <time>2015-08-29T09:18:14Z</time>
      </trkpt>
      <trkpt lat="43.05887" lon="-0.46021">
        <ele>853.79</ele>
        <time>2015-08-29T09:18:15Z</time>
      </trkpt>
      <trkpt lat="43.05885" lon="-0.46015">
        <ele>852.83</ele>
        <time>2015-08-29T09:18:16Z</time>
      </trkpt>
      <trkpt lat="43.05882" lon="-0.46012">
        <ele>851.87</ele>
        <time>2015-08-29T09:18:17Z</time>
      </trkpt>
      <trkpt lat="43.0588" lon="-0.46011">
        <ele>849.94</ele>
        <time>2015-08-29T09:18:21Z</time>
      </trkpt>
      <trkpt lat="43.05879" lon="-0.4601">
        <ele>848.98</ele>
        <time>2015-08-29T09:18:30Z</time>
      </trkpt>
      <trkpt lat="43.05878" lon="-0.46009">
        <ele>848.98</ele>
        <time>2015-08-29T09:18:45Z</time>
      </trkpt>
      <trkpt lat="43.05877" lon="-0.46009">
        <ele>848.98</ele>
        <time>2015-08-29T09:19:08Z</time>
      </trkpt>
      <trkpt lat="43.05876" lon="-0.46009">
        <ele>849.46</ele>
        <time>2015-08-29T09:19:24Z</time>
      </trkpt>
      <trkpt lat="43.05876" lon="-0.46009">
        <ele>849.46</ele>
        <time>2015-08-29T09:19:25Z</time>
      </trkpt>
      <trkpt lat="43.05874" lon="-0.4601">
        <ele>849.46</ele>
        <time>2015-08-29T09:19:26Z</time>
      </trkpt>
      <trkpt lat="43.05872" lon="-0.4601">
        <ele>849.94</ele>
        <time>2015-08-29T09:19:27Z</time>
      </trkpt>
      <trkpt lat="43.0587" lon="-0.46011">
        <ele>850.42</ele>
        <time>2015-08-29T09:19:28Z</time>
      </trkpt>
      <trkpt lat="43.05868" lon="-0.46013">
        <ele>850.42</ele>
        <time>2015-08-29T09:19:29Z</time>
      </trkpt>
      <trkpt lat="43.05866" lon="-0.46014">
        <ele>850.9</ele>
        <time>2015-08-29T09:19:30Z</time>
      </trkpt>
      <trkpt lat="43.05863" lon="-0.46015">
        <ele>850.9</ele>
        <time>2015-08-29T09:19:31Z</time>
      </trkpt>
      <trkpt lat="43.05821" lon="-0.46029">
        <ele>852.35</ele>
        <time>2015-08-29T09:19:44Z</time>
      </trkpt>
      <trkpt lat="43.05793" lon="-0.46041">
        <ele>854.27</ele>
        <time>2015-08-29T09:19:55Z</time>
      </trkpt>
      <trkpt lat="43.05764" lon="-0.46049">
        <ele>857.15</ele>
        <time>2015-08-29T09:20:05Z</time>
      </trkpt>
      <trkpt lat="43.05716" lon="-0.46049">
        <ele>860.04</ele>
        <time>2015-08-29T09:20:19Z</time>
      </trkpt>
      <trkpt lat="43.05682" lon="-0.46056">
        <ele>862.44</ele>
        <time>2015-08-29T09:20:31Z</time>
      </trkpt>
      <trkpt lat="43.05648" lon="-0.46064">
        <ele>864.36</ele>
        <time>2015-08-29T09:20:43Z</time>
      </trkpt>
      <trkpt lat="43.05636" lon="-0.46078">
        <ele>864.36</ele>
        <time>2015-08-29T09:20:48Z</time>
      </trkpt>
      <trkpt lat="43.05635" lon="-0.46083">
        <ele>864.36</ele>
        <time>2015-08-29T09:20:49Z</time>
      </trkpt>
      <trkpt lat="43.05635" lon="-0.46088">
        <ele>864.36</ele>
        <time>2015-08-29T09:20:50Z</time>
      </trkpt>
      <trkpt lat="43.05637" lon="-0.46144">
        <ele>864.36</ele>
        <time>2015-08-29T09:21:03Z</time>
      </trkpt>
      <trkpt lat="43.05623" lon="-0.4618">
        <ele>865.32</ele>
        <time>2015-08-29T09:21:16Z</time>
      </trkpt>
      <trkpt lat="43.05599" lon="-0.46175">
        <ele>865.32</ele>
        <time>2015-08-29T09:21:28Z</time>
      </trkpt>
      <trkpt lat="43.05562" lon="-0.46143">
        <ele>867.25</ele>
        <time>2015-08-29T09:21:45Z</time>
      </trkpt>
      <trkpt lat="43.05526" lon="-0.46116">
        <ele>868.21</ele>
        <time>2015-08-29T09:21:58Z</time>
      </trkpt>
      <trkpt lat="43.05478" lon="-0.46077">
        <ele>868.21</ele>
        <time>2015-08-29T09:22:14Z</time>
      </trkpt>
      <trkpt lat="43.05461" lon="-0.4606">
        <ele>869.17</ele>
        <time>2015-08-29T09:22:20Z</time>
      </trkpt>
      <trkpt lat="43.05421" lon="-0.46016">
        <ele>871.57</ele>
        <time>2015-08-29T09:22:35Z</time>
      </trkpt>
      <trkpt lat="43.05393" lon="-0.46005">
        <ele>871.57</ele>
        <time>2015-08-29T09:22:43Z</time>
      </trkpt>
      <trkpt lat="43.05343" lon="-0.45989">
        <ele>871.57</ele>
        <time>2015-08-29T09:22:56Z</time>
      </trkpt>
      <trkpt lat="43.05299" lon="-0.45971">
        <ele>872.05</ele>
        <time>2015-08-29T09:23:09Z</time>
      </trkpt>
      <trkpt lat="43.05263" lon="-0.45967">
        <ele>876.38</ele>
        <time>2015-08-29T09:23:23Z</time>
      </trkpt>
      <trkpt lat="43.05235" lon="-0.45958">
        <ele>879.74</ele>
        <time>2015-08-29T09:23:35Z</time>
      </trkpt>
      <trkpt lat="43.05209" lon="-0.45939">
        <ele>884.07</ele>
        <time>2015-08-29T09:23:46Z</time>
      </trkpt>
      <trkpt lat="43.05182" lon="-0.4591">
        <ele>889.36</ele>
        <time>2015-08-29T09:23:59Z</time>
      </trkpt>
      <trkpt lat="43.05166" lon="-0.45895">
        <ele>893.2</ele>
        <time>2015-08-29T09:24:12Z</time>
      </trkpt>
      <trkpt lat="43.05139" lon="-0.45897">
        <ele>894.64</ele>
        <time>2015-08-29T09:24:23Z</time>
      </trkpt>
      <trkpt lat="43.05112" lon="-0.45916">
        <ele>898.97</ele>
        <time>2015-08-29T09:24:38Z</time>
      </trkpt>
      <trkpt lat="43.05109" lon="-0.4592">
        <ele>899.93</ele>
        <time>2015-08-29T09:24:40Z</time>
      </trkpt>
      <trkpt lat="43.05107" lon="-0.45922">
        <ele>899.93</ele>
        <time>2015-08-29T09:24:41Z</time>
      </trkpt>
      <trkpt lat="43.05096" lon="-0.45937">
        <ele>900.89</ele>
        <time>2015-08-29T09:24:49Z</time>
      </trkpt>
      <trkpt lat="43.05072" lon="-0.45961">
        <ele>902.33</ele>
        <time>2015-08-29T09:25:04Z</time>
      </trkpt>
      <trkpt lat="43.0505" lon="-0.45983">
        <ele>901.85</ele>
        <time>2015-08-29T09:25:17Z</time>
      </trkpt>
      <trkpt lat="43.05022" lon="-0.46007">
        <ele>902.33</ele>
        <time>2015-08-29T09:25:31Z</time>
      </trkpt>
      <trkpt lat="43.04989" lon="-0.46038">
        <ele>900.89</ele>
        <time>2015-08-29T09:25:38Z</time>
      </trkpt>
      <trkpt lat="43.04958" lon="-0.46074">
        <ele>899.45</ele>
        <time>2015-08-29T09:25:44Z</time>
      </trkpt>
      <trkpt lat="43.04953" lon="-0.46082">
        <ele>898.97</ele>
        <time>2015-08-29T09:25:45Z</time>
      </trkpt>
      <trkpt lat="43.04948" lon="-0.46091">
        <ele>898.01</ele>
        <time>2015-08-29T09:25:46Z</time>
      </trkpt>
      <trkpt lat="43.04943" lon="-0.46101">
        <ele>897.53</ele>
        <time>2015-08-29T09:25:47Z</time>
      </trkpt>
      <trkpt lat="43.0494" lon="-0.4611">
        <ele>897.53</ele>
        <time>2015-08-29T09:25:48Z</time>
      </trkpt>
      <trkpt lat="43.04936" lon="-0.46116">
        <ele>896.57</ele>
        <time>2015-08-29T09:25:49Z</time>
      </trkpt>
      <trkpt lat="43.0493" lon="-0.4612">
        <ele>896.09</ele>
        <time>2015-08-29T09:25:50Z</time>
      </trkpt>
      <trkpt lat="43.04924" lon="-0.46121">
        <ele>895.61</ele>
        <time>2015-08-29T09:25:51Z</time>
      </trkpt>
      <trkpt lat="43.04917" lon="-0.46122">
        <ele>895.12</ele>
        <time>2015-08-29T09:25:52Z</time>
      </trkpt>
      <trkpt lat="43.04911" lon="-0.46122">
        <ele>894.16</ele>
        <time>2015-08-29T09:25:53Z</time>
      </trkpt>
      <trkpt lat="43.04904" lon="-0.46123">
        <ele>893.68</ele>
        <time>2015-08-29T09:25:54Z</time>
      </trkpt>
      <trkpt lat="43.04872" lon="-0.4613">
        <ele>890.8</ele>
        <time>2015-08-29T09:26:00Z</time>
      </trkpt>
      <trkpt lat="43.04871" lon="-0.46128">
        <ele>890.8</ele>
        <time>2015-08-29T09:26:01Z</time>
      </trkpt>
      <trkpt lat="43.04871" lon="-0.46129">
        <ele>889.36</ele>
        <time>2015-08-29T09:26:14Z</time>
      </trkpt>
      <trkpt lat="43.04869" lon="-0.46126">
        <ele>888.4</ele>
        <time>2015-08-29T09:26:27Z</time>
      </trkpt>
      <trkpt lat="43.04869" lon="-0.46127">
        <ele>888.4</ele>
        <time>2015-08-29T09:26:42Z</time>
      </trkpt>
      <trkpt lat="43.0487" lon="-0.46126">
        <ele>889.36</ele>
        <time>2015-08-29T09:26:58Z</time>
      </trkpt>
      <trkpt lat="43.04868" lon="-0.46123">
        <ele>887.91</ele>
        <time>2015-08-29T09:27:10Z</time>
      </trkpt>
      <trkpt lat="43.04866" lon="-0.46124">
        <ele>886.47</ele>
        <time>2015-08-29T09:27:25Z</time>
      </trkpt>
      <trkpt lat="43.04864" lon="-0.46124">
        <ele>887.43</ele>
        <time>2015-08-29T09:27:49Z</time>
      </trkpt>
      <trkpt lat="43.04864" lon="-0.46123">
        <ele>887.43</ele>
        <time>2015-08-29T09:28:05Z</time>
      </trkpt>
      <trkpt lat="43.04865" lon="-0.46122">
        <ele>886.95</ele>
        <time>2015-08-29T09:28:30Z</time>
      </trkpt>
      <trkpt lat="43.04864" lon="-0.46121">
        <ele>886.47</ele>
        <time>2015-08-29T09:28:35Z</time>
      </trkpt>
      <trkpt lat="43.04862" lon="-0.46121">
        <ele>886.47</ele>
        <time>2015-08-29T09:28:36Z</time>
      </trkpt>
      <trkpt lat="43.04861" lon="-0.4612">
        <ele>885.99</ele>
        <time>2015-08-29T09:28:37Z</time>
      </trkpt>
      <trkpt lat="43.04858" lon="-0.4612">
        <ele>885.99</ele>
        <time>2015-08-29T09:28:38Z</time>
      </trkpt>
      <trkpt lat="43.04856" lon="-0.46119">
        <ele>885.51</ele>
        <time>2015-08-29T09:28:39Z</time>
      </trkpt>
      <trkpt lat="43.04845" lon="-0.46116">
        <ele>885.51</ele>
        <time>2015-08-29T09:28:44Z</time>
      </trkpt>
      <trkpt lat="43.04813" lon="-0.46126">
        <ele>886.47</ele>
        <time>2015-08-29T09:28:55Z</time>
      </trkpt>
      <trkpt lat="43.04803" lon="-0.46125">
        <ele>885.99</ele>
        <time>2015-08-29T09:29:00Z</time>
      </trkpt>
      <trkpt lat="43.04803" lon="-0.46123">
        <ele>885.99</ele>
        <time>2015-08-29T09:29:01Z</time>
      </trkpt>
      <trkpt lat="43.04808" lon="-0.46111">
        <ele>885.03</ele>
        <time>2015-08-29T09:29:05Z</time>
      </trkpt>
      <trkpt lat="43.04818" lon="-0.46092">
        <ele>884.55</ele>
        <time>2015-08-29T09:29:11Z</time>
      </trkpt>
      <trkpt lat="43.04848" lon="-0.4604">
        <ele>881.19</ele>
        <time>2015-08-29T09:29:22Z</time>
      </trkpt>
      <trkpt lat="43.04852" lon="-0.46029">
        <ele>880.22</ele>
        <time>2015-08-29T09:29:24Z</time>
      </trkpt>
      <trkpt lat="43.04866" lon="-0.46023">
        <ele>877.82</ele>
        <time>2015-08-29T09:29:28Z</time>
      </trkpt>
      <trkpt lat="43.04879" lon="-0.46025">
        <ele>874.94</ele>
        <time>2015-08-29T09:29:31Z</time>
      </trkpt>
      <trkpt lat="43.04901" lon="-0.46011">
        <ele>872.05</ele>
        <time>2015-08-29T09:29:36Z</time>
      </trkpt>
      <trkpt lat="43.04912" lon="-0.45983">
        <ele>868.69</ele>
        <time>2015-08-29T09:29:45Z</time>
      </trkpt>
      <trkpt lat="43.04913" lon="-0.45955">
        <ele>866.77</ele>
        <time>2015-08-29T09:29:50Z</time>
      </trkpt>
      <trkpt lat="43.04939" lon="-0.45902">
        <ele>863.4</ele>
        <time>2015-08-29T09:30:01Z</time>
      </trkpt>
      <trkpt lat="43.04952" lon="-0.45879">
        <ele>862.44</ele>
        <time>2015-08-29T09:30:05Z</time>
      </trkpt>
      <trkpt lat="43.04965" lon="-0.45855">
        <ele>862.44</ele>
        <time>2015-08-29T09:30:09Z</time>
      </trkpt>
      <trkpt lat="43.04989" lon="-0.45802">
        <ele>859.08</ele>
        <time>2015-08-29T09:30:19Z</time>
      </trkpt>
      <trkpt lat="43.05013" lon="-0.45778">
        <ele>857.63</ele>
        <time>2015-08-29T09:30:27Z</time>
      </trkpt>
      <trkpt lat="43.05023" lon="-0.45756">
        <ele>858.59</ele>
        <time>2015-08-29T09:30:35Z</time>
      </trkpt>
      <trkpt lat="43.05026" lon="-0.45752">
        <ele>856.19</ele>
        <time>2015-08-29T09:30:44Z</time>
      </trkpt>
      <trkpt lat="43.05027" lon="-0.45748">
        <ele>856.19</ele>
        <time>2015-08-29T09:30:45Z</time>
      </trkpt>
      <trkpt lat="43.05027" lon="-0.45743">
        <ele>856.19</ele>
        <time>2015-08-29T09:30:46Z</time>
      </trkpt>
      <trkpt lat="43.05028" lon="-0.45737">
        <ele>856.19</ele>
        <time>2015-08-29T09:30:47Z</time>
      </trkpt>
      <trkpt lat="43.05028" lon="-0.45731">
        <ele>856.19</ele>
        <time>2015-08-29T09:30:48Z</time>
      </trkpt>
      <trkpt lat="43.05028" lon="-0.45725">
        <ele>856.67</ele>
        <time>2015-08-29T09:30:49Z</time>
      </trkpt>
      <trkpt lat="43.0503" lon="-0.45718">
        <ele>856.19</ele>
        <time>2015-08-29T09:30:51Z</time>
      </trkpt>
      <trkpt lat="43.05029" lon="-0.45712">
        <ele>852.83</ele>
        <time>2015-08-29T09:30:54Z</time>
      </trkpt>
      <trkpt lat="43.05018" lon="-0.45722">
        <ele>844.18</ele>
        <time>2015-08-29T09:30:59Z</time>
      </trkpt>
      <trkpt lat="43.05014" lon="-0.45724">
        <ele>842.25</ele>
        <time>2015-08-29T09:31:00Z</time>
      </trkpt>
      <trkpt lat="43.0501" lon="-0.45725">
        <ele>840.33</ele>
        <time>2015-08-29T09:31:01Z</time>
      </trkpt>
      <trkpt lat="43.04998" lon="-0.45723">
        <ele>825.91</ele>
        <time>2015-08-29T09:31:08Z</time>
      </trkpt>
      <trkpt lat="43.05006" lon="-0.45721">
        <ele>823.03</ele>
        <time>2015-08-29T09:31:13Z</time>
      </trkpt>
      <trkpt lat="43.0503" lon="-0.45682">
        <ele>822.06</ele>
        <time>2015-08-29T09:31:23Z</time>
      </trkpt>
      <trkpt lat="43.05069" lon="-0.45641">
        <ele>820.14</ele>
        <time>2015-08-29T09:31:32Z</time>
      </trkpt>
      <trkpt lat="43.05074" lon="-0.45638">
        <ele>819.66</ele>
        <time>2015-08-29T09:31:33Z</time>
      </trkpt>
      <trkpt lat="43.05079" lon="-0.45635">
        <ele>818.22</ele>
        <time>2015-08-29T09:31:34Z</time>
      </trkpt>
      <trkpt lat="43.05096" lon="-0.45631">
        <ele>816.3</ele>
        <time>2015-08-29T09:31:37Z</time>
      </trkpt>
      <trkpt lat="43.051" lon="-0.45628">
        <ele>816.3</ele>
        <time>2015-08-29T09:31:38Z</time>
      </trkpt>
      <trkpt lat="43.05105" lon="-0.45624">
        <ele>815.82</ele>
        <time>2015-08-29T09:31:39Z</time>
      </trkpt>
      <trkpt lat="43.05108" lon="-0.45619">
        <ele>815.82</ele>
        <time>2015-08-29T09:31:40Z</time>
      </trkpt>
      <trkpt lat="43.05112" lon="-0.45613">
        <ele>815.82</ele>
        <time>2015-08-29T09:31:41Z</time>
      </trkpt>
      <trkpt lat="43.05116" lon="-0.45606">
        <ele>815.34</ele>
        <time>2015-08-29T09:31:42Z</time>
      </trkpt>
      <trkpt lat="43.0512" lon="-0.45597">
        <ele>815.34</ele>
        <time>2015-08-29T09:31:43Z</time>
      </trkpt>
      <trkpt lat="43.05139" lon="-0.45558">
        <ele>811.97</ele>
        <time>2015-08-29T09:31:49Z</time>
      </trkpt>
      <trkpt lat="43.05144" lon="-0.45553">
        <ele>811.01</ele>
        <time>2015-08-29T09:31:50Z</time>
      </trkpt>
      <trkpt lat="43.0515" lon="-0.45549">
        <ele>810.05</ele>
        <time>2015-08-29T09:31:51Z</time>
      </trkpt>
      <trkpt lat="43.05157" lon="-0.45545">
        <ele>810.05</ele>
        <time>2015-08-29T09:31:52Z</time>
      </trkpt>
      <trkpt lat="43.05163" lon="-0.45542">
        <ele>809.57</ele>
        <time>2015-08-29T09:31:53Z</time>
      </trkpt>
      <trkpt lat="43.0517" lon="-0.4554">
        <ele>809.57</ele>
        <time>2015-08-29T09:31:54Z</time>
      </trkpt>
      <trkpt lat="43.05176" lon="-0.45536">
        <ele>808.13</ele>
        <time>2015-08-29T09:31:55Z</time>
      </trkpt>
      <trkpt lat="43.0518" lon="-0.45532">
        <ele>807.64</ele>
        <time>2015-08-29T09:31:56Z</time>
      </trkpt>
      <trkpt lat="43.05185" lon="-0.45528">
        <ele>807.16</ele>
        <time>2015-08-29T09:31:57Z</time>
      </trkpt>
      <trkpt lat="43.05191" lon="-0.45524">
        <ele>806.2</ele>
        <time>2015-08-29T09:31:58Z</time>
      </trkpt>
      <trkpt lat="43.05195" lon="-0.45521">
        <ele>805.72</ele>
        <time>2015-08-29T09:31:59Z</time>
      </trkpt>
      <trkpt lat="43.052" lon="-0.45519">
        <ele>805.24</ele>
        <time>2015-08-29T09:32:00Z</time>
      </trkpt>
      <trkpt lat="43.05204" lon="-0.45516">
        <ele>805.24</ele>
        <time>2015-08-29T09:32:01Z</time>
      </trkpt>
      <trkpt lat="43.05208" lon="-0.45513">
        <ele>804.76</ele>
        <time>2015-08-29T09:32:02Z</time>
      </trkpt>
      <trkpt lat="43.05212" lon="-0.45511">
        <ele>804.28</ele>
        <time>2015-08-29T09:32:03Z</time>
      </trkpt>
      <trkpt lat="43.05216" lon="-0.4551">
        <ele>803.8</ele>
        <time>2015-08-29T09:32:04Z</time>
      </trkpt>
      <trkpt lat="43.05219" lon="-0.45509">
        <ele>803.8</ele>
        <time>2015-08-29T09:32:05Z</time>
      </trkpt>
      <trkpt lat="43.05223" lon="-0.4551">
        <ele>802.84</ele>
        <time>2015-08-29T09:32:06Z</time>
      </trkpt>
      <trkpt lat="43.05227" lon="-0.4551">
        <ele>802.36</ele>
        <time>2015-08-29T09:32:07Z</time>
      </trkpt>
      <trkpt lat="43.05232" lon="-0.45509">
        <ele>801.88</ele>
        <time>2015-08-29T09:32:08Z</time>
      </trkpt>
      <trkpt lat="43.05237" lon="-0.45509">
        <ele>801.4</ele>
        <time>2015-08-29T09:32:09Z</time>
      </trkpt>
      <trkpt lat="43.05242" lon="-0.45508">
        <ele>801.4</ele>
        <time>2015-08-29T09:32:10Z</time>
      </trkpt>
      <trkpt lat="43.05248" lon="-0.45507">
        <ele>801.4</ele>
        <time>2015-08-29T09:32:11Z</time>
      </trkpt>
      <trkpt lat="43.05252" lon="-0.45506">
        <ele>801.4</ele>
        <time>2015-08-29T09:32:12Z</time>
      </trkpt>
      <trkpt lat="43.05267" lon="-0.45499">
        <ele>800.44</ele>
        <time>2015-08-29T09:32:15Z</time>
      </trkpt>
      <trkpt lat="43.05273" lon="-0.45496">
        <ele>799.47</ele>
        <time>2015-08-29T09:32:16Z</time>
      </trkpt>
      <trkpt lat="43.05279" lon="-0.45492">
        <ele>798.03</ele>
        <time>2015-08-29T09:32:17Z</time>
      </trkpt>
      <trkpt lat="43.05284" lon="-0.45487">
        <ele>796.59</ele>
        <time>2015-08-29T09:32:18Z</time>
      </trkpt>
      <trkpt lat="43.05288" lon="-0.45481">
        <ele>796.11</ele>
        <time>2015-08-29T09:32:19Z</time>
      </trkpt>
      <trkpt lat="43.05294" lon="-0.45477">
        <ele>793.71</ele>
        <time>2015-08-29T09:32:20Z</time>
      </trkpt>
      <trkpt lat="43.05299" lon="-0.45472">
        <ele>792.26</ele>
        <time>2015-08-29T09:32:21Z</time>
      </trkpt>
      <trkpt lat="43.05311" lon="-0.45467">
        <ele>790.34</ele>
        <time>2015-08-29T09:32:23Z</time>
      </trkpt>
      <trkpt lat="43.05346" lon="-0.45462">
        <ele>777.84</ele>
        <time>2015-08-29T09:32:27Z</time>
      </trkpt>
      <trkpt lat="43.05355" lon="-0.45458">
        <ele>774</ele>
        <time>2015-08-29T09:32:28Z</time>
      </trkpt>
      <trkpt lat="43.05361" lon="-0.4545">
        <ele>774</ele>
        <time>2015-08-29T09:32:29Z</time>
      </trkpt>
      <trkpt lat="43.05382" lon="-0.45429">
        <ele>769.19</ele>
        <time>2015-08-29T09:32:32Z</time>
      </trkpt>
      <trkpt lat="43.05391" lon="-0.45423">
        <ele>767.27</ele>
        <time>2015-08-29T09:32:33Z</time>
      </trkpt>
      <trkpt lat="43.05435" lon="-0.45391">
        <ele>759.58</ele>
        <time>2015-08-29T09:32:38Z</time>
      </trkpt>
      <trkpt lat="43.05492" lon="-0.45356">
        <ele>751.41</ele>
        <time>2015-08-29T09:32:45Z</time>
      </trkpt>
      <trkpt lat="43.05551" lon="-0.45295">
        <ele>742.28</ele>
        <time>2015-08-29T09:32:53Z</time>
      </trkpt>
      <trkpt lat="43.05556" lon="-0.45287">
        <ele>741.31</ele>
        <time>2015-08-29T09:32:54Z</time>
      </trkpt>
      <trkpt lat="43.0556" lon="-0.45277">
        <ele>740.35</ele>
        <time>2015-08-29T09:32:55Z</time>
      </trkpt>
      <trkpt lat="43.05562" lon="-0.45268">
        <ele>739.87</ele>
        <time>2015-08-29T09:32:56Z</time>
      </trkpt>
      <trkpt lat="43.05572" lon="-0.45201">
        <ele>736.03</ele>
        <time>2015-08-29T09:33:06Z</time>
      </trkpt>
      <trkpt lat="43.05602" lon="-0.4517">
        <ele>731.7</ele>
        <time>2015-08-29T09:33:17Z</time>
      </trkpt>
      <trkpt lat="43.05654" lon="-0.45145">
        <ele>727.37</ele>
        <time>2015-08-29T09:33:25Z</time>
      </trkpt>
      <trkpt lat="43.0566" lon="-0.45143">
        <ele>726.89</ele>
        <time>2015-08-29T09:33:26Z</time>
      </trkpt>
      <trkpt lat="43.05665" lon="-0.45141">
        <ele>726.89</ele>
        <time>2015-08-29T09:33:27Z</time>
      </trkpt>
      <trkpt lat="43.05668" lon="-0.45138">
        <ele>726.89</ele>
        <time>2015-08-29T09:33:28Z</time>
      </trkpt>
      <trkpt lat="43.05673" lon="-0.4513">
        <ele>725.93</ele>
        <time>2015-08-29T09:33:36Z</time>
      </trkpt>
      <trkpt lat="43.05673" lon="-0.45129">
        <ele>725.45</ele>
        <time>2015-08-29T09:33:38Z</time>
      </trkpt>
      <trkpt lat="43.05674" lon="-0.45128">
        <ele>725.45</ele>
        <time>2015-08-29T09:33:39Z</time>
      </trkpt>
      <trkpt lat="43.05674" lon="-0.45125">
        <ele>725.45</ele>
        <time>2015-08-29T09:33:40Z</time>
      </trkpt>
      <trkpt lat="43.05673" lon="-0.45122">
        <ele>725.45</ele>
        <time>2015-08-29T09:33:41Z</time>
      </trkpt>
      <trkpt lat="43.05674" lon="-0.45118">
        <ele>725.45</ele>
        <time>2015-08-29T09:33:42Z</time>
      </trkpt>
      <trkpt lat="43.05674" lon="-0.45114">
        <ele>724.97</ele>
        <time>2015-08-29T09:33:43Z</time>
      </trkpt>
      <trkpt lat="43.05663" lon="-0.45065">
        <ele>724.49</ele>
        <time>2015-08-29T09:33:54Z</time>
      </trkpt>
      <trkpt lat="43.0566" lon="-0.45055">
        <ele>724.01</ele>
        <time>2015-08-29T09:33:56Z</time>
      </trkpt>
      <trkpt lat="43.05659" lon="-0.45049">
        <ele>724.01</ele>
        <time>2015-08-29T09:33:57Z</time>
      </trkpt>
      <trkpt lat="43.05661" lon="-0.45036">
        <ele>723.53</ele>
        <time>2015-08-29T09:33:59Z</time>
      </trkpt>
      <trkpt lat="43.05663" lon="-0.45015">
        <ele>723.05</ele>
        <time>2015-08-29T09:34:02Z</time>
      </trkpt>
      <trkpt lat="43.05671" lon="-0.44969">
        <ele>720.65</ele>
        <time>2015-08-29T09:34:12Z</time>
      </trkpt>
      <trkpt lat="43.05672" lon="-0.44968">
        <ele>720.16</ele>
        <time>2015-08-29T09:34:23Z</time>
      </trkpt>
      <trkpt lat="43.05672" lon="-0.44968">
        <ele>718.24</ele>
        <time>2015-08-29T09:34:36Z</time>
      </trkpt>
      <trkpt lat="43.0567" lon="-0.44967">
        <ele>715.84</ele>
        <time>2015-08-29T09:34:51Z</time>
      </trkpt>
      <trkpt lat="43.05669" lon="-0.44967">
        <ele>713.92</ele>
        <time>2015-08-29T09:35:11Z</time>
      </trkpt>
      <trkpt lat="43.05668" lon="-0.44966">
        <ele>713.44</ele>
        <time>2015-08-29T09:35:25Z</time>
      </trkpt>
      <trkpt lat="43.05668" lon="-0.44967">
        <ele>711.99</ele>
        <time>2015-08-29T09:35:37Z</time>
      </trkpt>
      <trkpt lat="43.05669" lon="-0.44969">
        <ele>707.67</ele>
        <time>2015-08-29T09:35:56Z</time>
      </trkpt>
      <trkpt lat="43.0567" lon="-0.44969">
        <ele>708.15</ele>
        <time>2015-08-29T09:36:11Z</time>
      </trkpt>
      <trkpt lat="43.05671" lon="-0.44967">
        <ele>707.19</ele>
        <time>2015-08-29T09:36:19Z</time>
      </trkpt>
      <trkpt lat="43.05672" lon="-0.44968">
        <ele>705.75</ele>
        <time>2015-08-29T09:36:42Z</time>
      </trkpt>
      <trkpt lat="43.05675" lon="-0.44967">
        <ele>705.75</ele>
        <time>2015-08-29T09:36:44Z</time>
      </trkpt>
      <trkpt lat="43.05676" lon="-0.44966">
        <ele>705.75</ele>
        <time>2015-08-29T09:36:45Z</time>
      </trkpt>
      <trkpt lat="43.05677" lon="-0.44965">
        <ele>705.75</ele>
        <time>2015-08-29T09:36:46Z</time>
      </trkpt>
      <trkpt lat="43.05679" lon="-0.44963">
        <ele>705.75</ele>
        <time>2015-08-29T09:36:47Z</time>
      </trkpt>
      <trkpt lat="43.0568" lon="-0.44962">
        <ele>705.75</ele>
        <time>2015-08-29T09:36:48Z</time>
      </trkpt>
      <trkpt lat="43.05682" lon="-0.44962">
        <ele>705.75</ele>
        <time>2015-08-29T09:36:49Z</time>
      </trkpt>
      <trkpt lat="43.05685" lon="-0.44962">
        <ele>705.75</ele>
        <time>2015-08-29T09:36:50Z</time>
      </trkpt>
      <trkpt lat="43.05689" lon="-0.44961">
        <ele>705.26</ele>
        <time>2015-08-29T09:36:51Z</time>
      </trkpt>
      <trkpt lat="43.05693" lon="-0.4496">
        <ele>705.26</ele>
        <time>2015-08-29T09:36:52Z</time>
      </trkpt>
      <trkpt lat="43.0571" lon="-0.44958">
        <ele>703.82</ele>
        <time>2015-08-29T09:36:55Z</time>
      </trkpt>
      <trkpt lat="43.05723" lon="-0.44957">
        <ele>703.82</ele>
        <time>2015-08-29T09:36:57Z</time>
      </trkpt>
      <trkpt lat="43.0573" lon="-0.4496">
        <ele>703.34</ele>
        <time>2015-08-29T09:36:58Z</time>
      </trkpt>
      <trkpt lat="43.05737" lon="-0.44965">
        <ele>703.34</ele>
        <time>2015-08-29T09:36:59Z</time>
      </trkpt>
      <trkpt lat="43.05743" lon="-0.4497">
        <ele>703.34</ele>
        <time>2015-08-29T09:37:00Z</time>
      </trkpt>
      <trkpt lat="43.05749" lon="-0.44972">
        <ele>702.86</ele>
        <time>2015-08-29T09:37:01Z</time>
      </trkpt>
      <trkpt lat="43.05755" lon="-0.44972">
        <ele>702.38</ele>
        <time>2015-08-29T09:37:02Z</time>
      </trkpt>
      <trkpt lat="43.05762" lon="-0.44971">
        <ele>702.38</ele>
        <time>2015-08-29T09:37:03Z</time>
      </trkpt>
      <trkpt lat="43.05769" lon="-0.44969">
        <ele>702.38</ele>
        <time>2015-08-29T09:37:04Z</time>
      </trkpt>
      <trkpt lat="43.0578" lon="-0.44966">
        <ele>701.9</ele>
        <time>2015-08-29T09:37:06Z</time>
      </trkpt>
      <trkpt lat="43.05799" lon="-0.44961">
        <ele>701.42</ele>
        <time>2015-08-29T09:37:10Z</time>
      </trkpt>
      <trkpt lat="43.05808" lon="-0.44954">
        <ele>700.94</ele>
        <time>2015-08-29T09:37:12Z</time>
      </trkpt>
      <trkpt lat="43.05813" lon="-0.44949">
        <ele>700.94</ele>
        <time>2015-08-29T09:37:13Z</time>
      </trkpt>
      <trkpt lat="43.05818" lon="-0.44945">
        <ele>700.46</ele>
        <time>2015-08-29T09:37:14Z</time>
      </trkpt>
      <trkpt lat="43.0585" lon="-0.44912">
        <ele>698.05</ele>
        <time>2015-08-29T09:37:21Z</time>
      </trkpt>
      <trkpt lat="43.05852" lon="-0.44905">
        <ele>697.57</ele>
        <time>2015-08-29T09:37:22Z</time>
      </trkpt>
      <trkpt lat="43.05857" lon="-0.44889">
        <ele>695.65</ele>
        <time>2015-08-29T09:37:24Z</time>
      </trkpt>
      <trkpt lat="43.05868" lon="-0.44871">
        <ele>693.25</ele>
        <time>2015-08-29T09:37:29Z</time>
      </trkpt>
      <trkpt lat="43.05872" lon="-0.44872">
        <ele>692.29</ele>
        <time>2015-08-29T09:37:30Z</time>
      </trkpt>
      <trkpt lat="43.05877" lon="-0.44873">
        <ele>691.81</ele>
        <time>2015-08-29T09:37:31Z</time>
      </trkpt>
      <trkpt lat="43.05881" lon="-0.44873">
        <ele>691.33</ele>
        <time>2015-08-29T09:37:32Z</time>
      </trkpt>
      <trkpt lat="43.05887" lon="-0.44875">
        <ele>690.36</ele>
        <time>2015-08-29T09:37:33Z</time>
      </trkpt>
      <trkpt lat="43.05892" lon="-0.44876">
        <ele>690.36</ele>
        <time>2015-08-29T09:37:34Z</time>
      </trkpt>
      <trkpt lat="43.05898" lon="-0.44875">
        <ele>689.88</ele>
        <time>2015-08-29T09:37:35Z</time>
      </trkpt>
      <trkpt lat="43.05903" lon="-0.44874">
        <ele>689.4</ele>
        <time>2015-08-29T09:37:36Z</time>
      </trkpt>
      <trkpt lat="43.05907" lon="-0.44871">
        <ele>688.44</ele>
        <time>2015-08-29T09:37:37Z</time>
      </trkpt>
      <trkpt lat="43.05908" lon="-0.44867">
        <ele>687.96</ele>
        <time>2015-08-29T09:37:38Z</time>
      </trkpt>
      <trkpt lat="43.05909" lon="-0.44863">
        <ele>686.04</ele>
        <time>2015-08-29T09:37:39Z</time>
      </trkpt>
      <trkpt lat="43.05909" lon="-0.44858">
        <ele>685.08</ele>
        <time>2015-08-29T09:37:40Z</time>
      </trkpt>
      <trkpt lat="43.0591" lon="-0.44853">
        <ele>684.6</ele>
        <time>2015-08-29T09:37:41Z</time>
      </trkpt>
      <trkpt lat="43.05912" lon="-0.44848">
        <ele>683.63</ele>
        <time>2015-08-29T09:37:42Z</time>
      </trkpt>
      <trkpt lat="43.05914" lon="-0.44843">
        <ele>683.15</ele>
        <time>2015-08-29T09:37:43Z</time>
      </trkpt>
      <trkpt lat="43.05915" lon="-0.44837">
        <ele>682.67</ele>
        <time>2015-08-29T09:37:44Z</time>
      </trkpt>
      <trkpt lat="43.05917" lon="-0.44829">
        <ele>682.19</ele>
        <time>2015-08-29T09:37:45Z</time>
      </trkpt>
      <trkpt lat="43.05918" lon="-0.44823">
        <ele>681.71</ele>
        <time>2015-08-29T09:37:46Z</time>
      </trkpt>
      <trkpt lat="43.05921" lon="-0.4482">
        <ele>681.71</ele>
        <time>2015-08-29T09:37:47Z</time>
      </trkpt>
      <trkpt lat="43.05925" lon="-0.44818">
        <ele>681.23</ele>
        <time>2015-08-29T09:37:48Z</time>
      </trkpt>
      <trkpt lat="43.05929" lon="-0.44817">
        <ele>681.23</ele>
        <time>2015-08-29T09:37:49Z</time>
      </trkpt>
      <trkpt lat="43.06005" lon="-0.44804">
        <ele>675.46</ele>
        <time>2015-08-29T09:38:04Z</time>
      </trkpt>
      <trkpt lat="43.0601" lon="-0.44805">
        <ele>674.98</ele>
        <time>2015-08-29T09:38:05Z</time>
      </trkpt>
      <trkpt lat="43.06015" lon="-0.44808">
        <ele>674.5</ele>
        <time>2015-08-29T09:38:06Z</time>
      </trkpt>
      <trkpt lat="43.06019" lon="-0.44813">
        <ele>673.54</ele>
        <time>2015-08-29T09:38:07Z</time>
      </trkpt>
      <trkpt lat="43.06024" lon="-0.4482">
        <ele>673.06</ele>
        <time>2015-08-29T09:38:08Z</time>
      </trkpt>
      <trkpt lat="43.06033" lon="-0.44832">
        <ele>672.1</ele>
        <time>2015-08-29T09:38:10Z</time>
      </trkpt>
      <trkpt lat="43.06039" lon="-0.44836">
        <ele>671.14</ele>
        <time>2015-08-29T09:38:11Z</time>
      </trkpt>
      <trkpt lat="43.06043" lon="-0.44838">
        <ele>670.66</ele>
        <time>2015-08-29T09:38:12Z</time>
      </trkpt>
      <trkpt lat="43.06047" lon="-0.44838">
        <ele>669.7</ele>
        <time>2015-08-29T09:38:13Z</time>
      </trkpt>
      <trkpt lat="43.06049" lon="-0.44833">
        <ele>669.7</ele>
        <time>2015-08-29T09:38:14Z</time>
      </trkpt>
      <trkpt lat="43.0605" lon="-0.44828">
        <ele>668.73</ele>
        <time>2015-08-29T09:38:15Z</time>
      </trkpt>
      <trkpt lat="43.0605" lon="-0.44822">
        <ele>668.25</ele>
        <time>2015-08-29T09:38:16Z</time>
      </trkpt>
      <trkpt lat="43.0605" lon="-0.44817">
        <ele>667.77</ele>
        <time>2015-08-29T09:38:17Z</time>
      </trkpt>
      <trkpt lat="43.06051" lon="-0.44809">
        <ele>667.29</ele>
        <time>2015-08-29T09:38:18Z</time>
      </trkpt>
      <trkpt lat="43.06054" lon="-0.44799">
        <ele>667.77</ele>
        <time>2015-08-29T09:38:19Z</time>
      </trkpt>
      <trkpt lat="43.06057" lon="-0.44791">
        <ele>667.77</ele>
        <time>2015-08-29T09:38:20Z</time>
      </trkpt>
      <trkpt lat="43.06061" lon="-0.44785">
        <ele>667.29</ele>
        <time>2015-08-29T09:38:21Z</time>
      </trkpt>
      <trkpt lat="43.06065" lon="-0.44779">
        <ele>666.81</ele>
        <time>2015-08-29T09:38:22Z</time>
      </trkpt>
      <trkpt lat="43.06069" lon="-0.44774">
        <ele>666.81</ele>
        <time>2015-08-29T09:38:23Z</time>
      </trkpt>
      <trkpt lat="43.06073" lon="-0.4477">
        <ele>666.33</ele>
        <time>2015-08-29T09:38:24Z</time>
      </trkpt>
      <trkpt lat="43.06081" lon="-0.44762">
        <ele>666.33</ele>
        <time>2015-08-29T09:38:26Z</time>
      </trkpt>
      <trkpt lat="43.06107" lon="-0.44744">
        <ele>665.85</ele>
        <time>2015-08-29T09:38:32Z</time>
      </trkpt>
      <trkpt lat="43.06111" lon="-0.4474">
        <ele>665.85</ele>
        <time>2015-08-29T09:38:33Z</time>
      </trkpt>
      <trkpt lat="43.06114" lon="-0.44735">
        <ele>665.85</ele>
        <time>2015-08-29T09:38:34Z</time>
      </trkpt>
      <trkpt lat="43.06116" lon="-0.44729">
        <ele>665.85</ele>
        <time>2015-08-29T09:38:35Z</time>
      </trkpt>
      <trkpt lat="43.06134" lon="-0.44678">
        <ele>664.89</ele>
        <time>2015-08-29T09:38:44Z</time>
      </trkpt>
      <trkpt lat="43.06134" lon="-0.44672">
        <ele>664.89</ele>
        <time>2015-08-29T09:38:45Z</time>
      </trkpt>
      <trkpt lat="43.06128" lon="-0.44665">
        <ele>664.41</ele>
        <time>2015-08-29T09:38:47Z</time>
      </trkpt>
      <trkpt lat="43.06125" lon="-0.44659">
        <ele>664.41</ele>
        <time>2015-08-29T09:38:48Z</time>
      </trkpt>
      <trkpt lat="43.06125" lon="-0.44652">
        <ele>663.93</ele>
        <time>2015-08-29T09:38:49Z</time>
      </trkpt>
      <trkpt lat="43.06125" lon="-0.44644">
        <ele>663.93</ele>
        <time>2015-08-29T09:38:50Z</time>
      </trkpt>
      <trkpt lat="43.06126" lon="-0.44635">
        <ele>663.93</ele>
        <time>2015-08-29T09:38:51Z</time>
      </trkpt>
      <trkpt lat="43.06128" lon="-0.44626">
        <ele>663.93</ele>
        <time>2015-08-29T09:38:52Z</time>
      </trkpt>
      <trkpt lat="43.0613" lon="-0.44617">
        <ele>663.45</ele>
        <time>2015-08-29T09:38:53Z</time>
      </trkpt>
      <trkpt lat="43.06132" lon="-0.44608">
        <ele>663.45</ele>
        <time>2015-08-29T09:38:54Z</time>
      </trkpt>
      <trkpt lat="43.06133" lon="-0.44598">
        <ele>663.45</ele>
        <time>2015-08-29T09:38:55Z</time>
      </trkpt>
      <trkpt lat="43.06131" lon="-0.44588">
        <ele>662.97</ele>
        <time>2015-08-29T09:38:56Z</time>
      </trkpt>
      <trkpt lat="43.06127" lon="-0.44581">
        <ele>662.49</ele>
        <time>2015-08-29T09:38:57Z</time>
      </trkpt>
      <trkpt lat="43.06122" lon="-0.44574">
        <ele>662.49</ele>
        <time>2015-08-29T09:38:58Z</time>
      </trkpt>
      <trkpt lat="43.06113" lon="-0.44561">
        <ele>662.01</ele>
        <time>2015-08-29T09:39:00Z</time>
      </trkpt>
      <trkpt lat="43.0611" lon="-0.44552">
        <ele>661.52</ele>
        <time>2015-08-29T09:39:01Z</time>
      </trkpt>
      <trkpt lat="43.0611" lon="-0.44542">
        <ele>661.04</ele>
        <time>2015-08-29T09:39:02Z</time>
      </trkpt>
      <trkpt lat="43.06111" lon="-0.44532">
        <ele>661.04</ele>
        <time>2015-08-29T09:39:03Z</time>
      </trkpt>
      <trkpt lat="43.06112" lon="-0.44521">
        <ele>660.56</ele>
        <time>2015-08-29T09:39:04Z</time>
      </trkpt>
      <trkpt lat="43.06118" lon="-0.44466">
        <ele>658.64</ele>
        <time>2015-08-29T09:39:09Z</time>
      </trkpt>
      <trkpt lat="43.06117" lon="-0.44458">
        <ele>658.16</ele>
        <time>2015-08-29T09:39:10Z</time>
      </trkpt>
      <trkpt lat="43.06115" lon="-0.44451">
        <ele>657.68</ele>
        <time>2015-08-29T09:39:11Z</time>
      </trkpt>
      <trkpt lat="43.06111" lon="-0.44447">
        <ele>656.72</ele>
        <time>2015-08-29T09:39:12Z</time>
      </trkpt>
      <trkpt lat="43.06107" lon="-0.44445">
        <ele>656.24</ele>
        <time>2015-08-29T09:39:13Z</time>
      </trkpt>
      <trkpt lat="43.06103" lon="-0.44446">
        <ele>655.28</ele>
        <time>2015-08-29T09:39:14Z</time>
      </trkpt>
      <trkpt lat="43.06099" lon="-0.4445">
        <ele>654.31</ele>
        <time>2015-08-29T09:39:15Z</time>
      </trkpt>
      <trkpt lat="43.06095" lon="-0.44455">
        <ele>653.83</ele>
        <time>2015-08-29T09:39:16Z</time>
      </trkpt>
      <trkpt lat="43.06092" lon="-0.44462">
        <ele>652.87</ele>
        <time>2015-08-29T09:39:17Z</time>
      </trkpt>
      <trkpt lat="43.06089" lon="-0.4447">
        <ele>651.91</ele>
        <time>2015-08-29T09:39:18Z</time>
      </trkpt>
      <trkpt lat="43.06076" lon="-0.44501">
        <ele>648.55</ele>
        <time>2015-08-29T09:39:22Z</time>
      </trkpt>
      <trkpt lat="43.06071" lon="-0.44505">
        <ele>647.59</ele>
        <time>2015-08-29T09:39:23Z</time>
      </trkpt>
      <trkpt lat="43.06066" lon="-0.44506">
        <ele>646.62</ele>
        <time>2015-08-29T09:39:24Z</time>
      </trkpt>
      <trkpt lat="43.06061" lon="-0.44504">
        <ele>646.14</ele>
        <time>2015-08-29T09:39:25Z</time>
      </trkpt>
      <trkpt lat="43.06058" lon="-0.44498">
        <ele>644.22</ele>
        <time>2015-08-29T09:39:26Z</time>
      </trkpt>
      <trkpt lat="43.06057" lon="-0.4449">
        <ele>643.26</ele>
        <time>2015-08-29T09:39:27Z</time>
      </trkpt>
      <trkpt lat="43.06058" lon="-0.44481">
        <ele>642.3</ele>
        <time>2015-08-29T09:39:28Z</time>
      </trkpt>
      <trkpt lat="43.06059" lon="-0.44471">
        <ele>641.34</ele>
        <time>2015-08-29T09:39:29Z</time>
      </trkpt>
      <trkpt lat="43.0606" lon="-0.4446">
        <ele>640.38</ele>
        <time>2015-08-29T09:39:30Z</time>
      </trkpt>
      <trkpt lat="43.06061" lon="-0.44449">
        <ele>638.93</ele>
        <time>2015-08-29T09:39:31Z</time>
      </trkpt>
      <trkpt lat="43.0606" lon="-0.44436">
        <ele>637.97</ele>
        <time>2015-08-29T09:39:32Z</time>
      </trkpt>
      <trkpt lat="43.06059" lon="-0.44361">
        <ele>631.24</ele>
        <time>2015-08-29T09:39:37Z</time>
      </trkpt>
      <trkpt lat="43.06058" lon="-0.44345">
        <ele>630.28</ele>
        <time>2015-08-29T09:39:38Z</time>
      </trkpt>
      <trkpt lat="43.06055" lon="-0.44328">
        <ele>628.36</ele>
        <time>2015-08-29T09:39:39Z</time>
      </trkpt>
      <trkpt lat="43.06047" lon="-0.44295">
        <ele>624.99</ele>
        <time>2015-08-29T09:39:41Z</time>
      </trkpt>
      <trkpt lat="43.06045" lon="-0.44277">
        <ele>623.07</ele>
        <time>2015-08-29T09:39:42Z</time>
      </trkpt>
      <trkpt lat="43.06046" lon="-0.4426">
        <ele>621.63</ele>
        <time>2015-08-29T09:39:43Z</time>
      </trkpt>
      <trkpt lat="43.06048" lon="-0.44242">
        <ele>619.71</ele>
        <time>2015-08-29T09:39:44Z</time>
      </trkpt>
      <trkpt lat="43.06051" lon="-0.44223">
        <ele>617.78</ele>
        <time>2015-08-29T09:39:45Z</time>
      </trkpt>
      <trkpt lat="43.06052" lon="-0.44204">
        <ele>616.34</ele>
        <time>2015-08-29T09:39:46Z</time>
      </trkpt>
      <trkpt lat="43.06052" lon="-0.44185">
        <ele>614.9</ele>
        <time>2015-08-29T09:39:47Z</time>
      </trkpt>
      <trkpt lat="43.06054" lon="-0.44126">
        <ele>609.61</ele>
        <time>2015-08-29T09:39:50Z</time>
      </trkpt>
      <trkpt lat="43.06052" lon="-0.44107">
        <ele>608.17</ele>
        <time>2015-08-29T09:39:51Z</time>
      </trkpt>
      <trkpt lat="43.06049" lon="-0.44087">
        <ele>606.25</ele>
        <time>2015-08-29T09:39:52Z</time>
      </trkpt>
      <trkpt lat="43.06045" lon="-0.44067">
        <ele>603.85</ele>
        <time>2015-08-29T09:39:53Z</time>
      </trkpt>
      <trkpt lat="43.0604" lon="-0.44047">
        <ele>601.92</ele>
        <time>2015-08-29T09:39:54Z</time>
      </trkpt>
      <trkpt lat="43.06037" lon="-0.44026">
        <ele>599.52</ele>
        <time>2015-08-29T09:39:55Z</time>
      </trkpt>
      <trkpt lat="43.06037" lon="-0.44005">
        <ele>597.12</ele>
        <time>2015-08-29T09:39:56Z</time>
      </trkpt>
      <trkpt lat="43.06038" lon="-0.43985">
        <ele>595.19</ele>
        <time>2015-08-29T09:39:57Z</time>
      </trkpt>
      <trkpt lat="43.0604" lon="-0.43965">
        <ele>593.75</ele>
        <time>2015-08-29T09:39:58Z</time>
      </trkpt>
      <trkpt lat="43.06043" lon="-0.43947">
        <ele>591.83</ele>
        <time>2015-08-29T09:39:59Z</time>
      </trkpt>
      <trkpt lat="43.06049" lon="-0.4393">
        <ele>590.39</ele>
        <time>2015-08-29T09:40:00Z</time>
      </trkpt>
      <trkpt lat="43.06056" lon="-0.43916">
        <ele>588.95</ele>
        <time>2015-08-29T09:40:01Z</time>
      </trkpt>
      <trkpt lat="43.06066" lon="-0.43904">
        <ele>587.5</ele>
        <time>2015-08-29T09:40:02Z</time>
      </trkpt>
      <trkpt lat="43.06076" lon="-0.43893">
        <ele>586.06</ele>
        <time>2015-08-29T09:40:03Z</time>
      </trkpt>
      <trkpt lat="43.06088" lon="-0.43882">
        <ele>584.62</ele>
        <time>2015-08-29T09:40:04Z</time>
      </trkpt>
      <trkpt lat="43.06165" lon="-0.43794">
        <ele>572.6</ele>
        <time>2015-08-29T09:40:12Z</time>
      </trkpt>
      <trkpt lat="43.06191" lon="-0.43759">
        <ele>571.64</ele>
        <time>2015-08-29T09:40:15Z</time>
      </trkpt>
      <trkpt lat="43.06208" lon="-0.43741">
        <ele>571.64</ele>
        <time>2015-08-29T09:40:17Z</time>
      </trkpt>
      <trkpt lat="43.06215" lon="-0.43731">
        <ele>571.64</ele>
        <time>2015-08-29T09:40:18Z</time>
      </trkpt>
      <trkpt lat="43.06263" lon="-0.43636">
        <ele>570.68</ele>
        <time>2015-08-29T09:40:28Z</time>
      </trkpt>
      <trkpt lat="43.0627" lon="-0.43628">
        <ele>570.68</ele>
        <time>2015-08-29T09:40:29Z</time>
      </trkpt>
      <trkpt lat="43.06277" lon="-0.43621">
        <ele>570.68</ele>
        <time>2015-08-29T09:40:30Z</time>
      </trkpt>
      <trkpt lat="43.06284" lon="-0.43614">
        <ele>570.68</ele>
        <time>2015-08-29T09:40:31Z</time>
      </trkpt>
      <trkpt lat="43.06337" lon="-0.43584">
        <ele>570.68</ele>
        <time>2015-08-29T09:40:37Z</time>
      </trkpt>
      <trkpt lat="43.06345" lon="-0.43577">
        <ele>570.68</ele>
        <time>2015-08-29T09:40:38Z</time>
      </trkpt>
      <trkpt lat="43.06353" lon="-0.4357">
        <ele>570.68</ele>
        <time>2015-08-29T09:40:39Z</time>
      </trkpt>
      <trkpt lat="43.06351" lon="-0.43564">
        <ele>570.2</ele>
        <time>2015-08-29T09:40:40Z</time>
      </trkpt>
      <trkpt lat="43.06346" lon="-0.43559">
        <ele>570.2</ele>
        <time>2015-08-29T09:40:41Z</time>
      </trkpt>
      <trkpt lat="43.06341" lon="-0.43555">
        <ele>569.72</ele>
        <time>2015-08-29T09:40:42Z</time>
      </trkpt>
      <trkpt lat="43.06335" lon="-0.43552">
        <ele>569.72</ele>
        <time>2015-08-29T09:40:43Z</time>
      </trkpt>
      <trkpt lat="43.0633" lon="-0.43549">
        <ele>569.72</ele>
        <time>2015-08-29T09:40:44Z</time>
      </trkpt>
      <trkpt lat="43.06325" lon="-0.43544">
        <ele>569.24</ele>
        <time>2015-08-29T09:40:45Z</time>
      </trkpt>
      <trkpt lat="43.06321" lon="-0.43539">
        <ele>568.76</ele>
        <time>2015-08-29T09:40:46Z</time>
      </trkpt>
      <trkpt lat="43.0632" lon="-0.43533">
        <ele>568.76</ele>
        <time>2015-08-29T09:40:47Z</time>
      </trkpt>
      <trkpt lat="43.0632" lon="-0.43527">
        <ele>568.28</ele>
        <time>2015-08-29T09:40:48Z</time>
      </trkpt>
      <trkpt lat="43.0632" lon="-0.43521">
        <ele>568.28</ele>
        <time>2015-08-29T09:40:49Z</time>
      </trkpt>
      <trkpt lat="43.06321" lon="-0.43517">
        <ele>567.8</ele>
        <time>2015-08-29T09:40:50Z</time>
      </trkpt>
      <trkpt lat="43.06322" lon="-0.43514">
        <ele>567.8</ele>
        <time>2015-08-29T09:40:51Z</time>
      </trkpt>
      <trkpt lat="43.06323" lon="-0.43512">
        <ele>567.32</ele>
        <time>2015-08-29T09:40:52Z</time>
      </trkpt>
      <trkpt lat="43.06324" lon="-0.43515">
        <ele>564.43</ele>
        <time>2015-08-29T09:41:01Z</time>
      </trkpt>
      <trkpt lat="43.06322" lon="-0.43516">
        <ele>561.07</ele>
        <time>2015-08-29T09:41:19Z</time>
      </trkpt>
      <trkpt lat="43.06323" lon="-0.4351">
        <ele>561.07</ele>
        <time>2015-08-29T09:41:22Z</time>
      </trkpt>
      <trkpt lat="43.06324" lon="-0.43508">
        <ele>561.55</ele>
        <time>2015-08-29T09:41:23Z</time>
      </trkpt>
      <trkpt lat="43.06326" lon="-0.43505">
        <ele>561.55</ele>
        <time>2015-08-29T09:41:24Z</time>
      </trkpt>
      <trkpt lat="43.06327" lon="-0.43502">
        <ele>561.55</ele>
        <time>2015-08-29T09:41:25Z</time>
      </trkpt>
      <trkpt lat="43.06329" lon="-0.43499">
        <ele>561.55</ele>
        <time>2015-08-29T09:41:26Z</time>
      </trkpt>
      <trkpt lat="43.0633" lon="-0.43495">
        <ele>562.03</ele>
        <time>2015-08-29T09:41:27Z</time>
      </trkpt>
      <trkpt lat="43.06331" lon="-0.4349">
        <ele>562.03</ele>
        <time>2015-08-29T09:41:28Z</time>
      </trkpt>
      <trkpt lat="43.06349" lon="-0.43441">
        <ele>563.95</ele>
        <time>2015-08-29T09:41:37Z</time>
      </trkpt>
      <trkpt lat="43.06352" lon="-0.43436">
        <ele>563.95</ele>
        <time>2015-08-29T09:41:38Z</time>
      </trkpt>
      <trkpt lat="43.06369" lon="-0.43413">
        <ele>564.91</ele>
        <time>2015-08-29T09:41:43Z</time>
      </trkpt>
      <trkpt lat="43.06372" lon="-0.43407">
        <ele>564.91</ele>
        <time>2015-08-29T09:41:44Z</time>
      </trkpt>
      <trkpt lat="43.0638" lon="-0.43388">
        <ele>565.39</ele>
        <time>2015-08-29T09:41:47Z</time>
      </trkpt>
      <trkpt lat="43.06382" lon="-0.4338">
        <ele>564.91</ele>
        <time>2015-08-29T09:41:48Z</time>
      </trkpt>
      <trkpt lat="43.06386" lon="-0.43361">
        <ele>564.43</ele>
        <time>2015-08-29T09:41:50Z</time>
      </trkpt>
      <trkpt lat="43.06389" lon="-0.43351">
        <ele>564.43</ele>
        <time>2015-08-29T09:41:51Z</time>
      </trkpt>
      <trkpt lat="43.06399" lon="-0.43316">
        <ele>563.47</ele>
        <time>2015-08-29T09:41:54Z</time>
      </trkpt>
      <trkpt lat="43.06401" lon="-0.43302">
        <ele>562.99</ele>
        <time>2015-08-29T09:41:55Z</time>
      </trkpt>
      <trkpt lat="43.06402" lon="-0.43288">
        <ele>562.99</ele>
        <time>2015-08-29T09:41:56Z</time>
      </trkpt>
      <trkpt lat="43.06402" lon="-0.43253">
        <ele>562.03</ele>
        <time>2015-08-29T09:41:59Z</time>
      </trkpt>
      <trkpt lat="43.06405" lon="-0.43244">
        <ele>562.03</ele>
        <time>2015-08-29T09:42:00Z</time>
      </trkpt>
      <trkpt lat="43.06409" lon="-0.43236">
        <ele>562.03</ele>
        <time>2015-08-29T09:42:01Z</time>
      </trkpt>
      <trkpt lat="43.06415" lon="-0.43231">
        <ele>561.55</ele>
        <time>2015-08-29T09:42:02Z</time>
      </trkpt>
      <trkpt lat="43.06429" lon="-0.4322">
        <ele>561.55</ele>
        <time>2015-08-29T09:42:04Z</time>
      </trkpt>
      <trkpt lat="43.06435" lon="-0.43212">
        <ele>561.07</ele>
        <time>2015-08-29T09:42:05Z</time>
      </trkpt>
      <trkpt lat="43.0644" lon="-0.43203">
        <ele>561.07</ele>
        <time>2015-08-29T09:42:06Z</time>
      </trkpt>
      <trkpt lat="43.06458" lon="-0.43175">
        <ele>560.59</ele>
        <time>2015-08-29T09:42:09Z</time>
      </trkpt>
      <trkpt lat="43.06465" lon="-0.43167">
        <ele>560.59</ele>
        <time>2015-08-29T09:42:10Z</time>
      </trkpt>
      <trkpt lat="43.06489" lon="-0.43143">
        <ele>559.62</ele>
        <time>2015-08-29T09:42:14Z</time>
      </trkpt>
      <trkpt lat="43.06538" lon="-0.43084">
        <ele>558.66</ele>
        <time>2015-08-29T09:42:23Z</time>
      </trkpt>
      <trkpt lat="43.06578" lon="-0.43017">
        <ele>557.7</ele>
        <time>2015-08-29T09:42:31Z</time>
      </trkpt>
      <trkpt lat="43.06581" lon="-0.43006">
        <ele>557.22</ele>
        <time>2015-08-29T09:42:33Z</time>
      </trkpt>
      <trkpt lat="43.0658" lon="-0.43002">
        <ele>557.22</ele>
        <time>2015-08-29T09:42:34Z</time>
      </trkpt>
      <trkpt lat="43.06576" lon="-0.43">
        <ele>556.74</ele>
        <time>2015-08-29T09:42:35Z</time>
      </trkpt>
      <trkpt lat="43.06572" lon="-0.43">
        <ele>556.74</ele>
        <time>2015-08-29T09:42:36Z</time>
      </trkpt>
      <trkpt lat="43.06568" lon="-0.43002">
        <ele>556.74</ele>
        <time>2015-08-29T09:42:37Z</time>
      </trkpt>
      <trkpt lat="43.06525" lon="-0.43041">
        <ele>554.34</ele>
        <time>2015-08-29T09:42:47Z</time>
      </trkpt>
      <trkpt lat="43.06513" lon="-0.43047">
        <ele>553.86</ele>
        <time>2015-08-29T09:42:49Z</time>
      </trkpt>
      <trkpt lat="43.06507" lon="-0.43046">
        <ele>553.38</ele>
        <time>2015-08-29T09:42:50Z</time>
      </trkpt>
      <trkpt lat="43.06503" lon="-0.43043">
        <ele>553.38</ele>
        <time>2015-08-29T09:42:51Z</time>
      </trkpt>
      <trkpt lat="43.065" lon="-0.43038">
        <ele>552.9</ele>
        <time>2015-08-29T09:42:52Z</time>
      </trkpt>
      <trkpt lat="43.06498" lon="-0.43033">
        <ele>552.9</ele>
        <time>2015-08-29T09:42:53Z</time>
      </trkpt>
      <trkpt lat="43.06498" lon="-0.43028">
        <ele>552.41</ele>
        <time>2015-08-29T09:42:54Z</time>
      </trkpt>
      <trkpt lat="43.06499" lon="-0.43023">
        <ele>551.93</ele>
        <time>2015-08-29T09:42:55Z</time>
      </trkpt>
      <trkpt lat="43.06504" lon="-0.43024">
        <ele>548.57</ele>
        <time>2015-08-29T09:43:03Z</time>
      </trkpt>
      <trkpt lat="43.06508" lon="-0.43027">
        <ele>542.8</ele>
        <time>2015-08-29T09:43:15Z</time>
      </trkpt>
      <trkpt lat="43.06509" lon="-0.43025">
        <ele>542.32</ele>
        <time>2015-08-29T09:43:16Z</time>
      </trkpt>
      <trkpt lat="43.06512" lon="-0.43022">
        <ele>541.84</ele>
        <time>2015-08-29T09:43:17Z</time>
      </trkpt>
      <trkpt lat="43.06514" lon="-0.43019">
        <ele>541.36</ele>
        <time>2015-08-29T09:43:18Z</time>
      </trkpt>
      <trkpt lat="43.06517" lon="-0.43013">
        <ele>541.36</ele>
        <time>2015-08-29T09:43:19Z</time>
      </trkpt>
      <trkpt lat="43.06521" lon="-0.43007">
        <ele>540.88</ele>
        <time>2015-08-29T09:43:20Z</time>
      </trkpt>
      <trkpt lat="43.06525" lon="-0.43001">
        <ele>540.4</ele>
        <time>2015-08-29T09:43:21Z</time>
      </trkpt>
      <trkpt lat="43.06531" lon="-0.42996">
        <ele>540.4</ele>
        <time>2015-08-29T09:43:22Z</time>
      </trkpt>
      <trkpt lat="43.0658" lon="-0.42936">
        <ele>538.48</ele>
        <time>2015-08-29T09:43:30Z</time>
      </trkpt>
      <trkpt lat="43.0662" lon="-0.42869">
        <ele>537.99</ele>
        <time>2015-08-29T09:43:39Z</time>
      </trkpt>
      <trkpt lat="43.06614" lon="-0.42828">
        <ele>537.51</ele>
        <time>2015-08-29T09:43:42Z</time>
      </trkpt>
      <trkpt lat="43.06618" lon="-0.42806">
        <ele>537.03</ele>
        <time>2015-08-29T09:43:44Z</time>
      </trkpt>
      <trkpt lat="43.06621" lon="-0.42795">
        <ele>537.03</ele>
        <time>2015-08-29T09:43:45Z</time>
      </trkpt>
      <trkpt lat="43.06628" lon="-0.42774">
        <ele>536.55</ele>
        <time>2015-08-29T09:43:47Z</time>
      </trkpt>
      <trkpt lat="43.0664" lon="-0.42731">
        <ele>536.55</ele>
        <time>2015-08-29T09:43:51Z</time>
      </trkpt>
      <trkpt lat="43.06644" lon="-0.42721">
        <ele>536.55</ele>
        <time>2015-08-29T09:43:52Z</time>
      </trkpt>
      <trkpt lat="43.06649" lon="-0.42711">
        <ele>536.55</ele>
        <time>2015-08-29T09:43:53Z</time>
      </trkpt>
      <trkpt lat="43.06677" lon="-0.42676">
        <ele>536.55</ele>
        <time>2015-08-29T09:43:57Z</time>
      </trkpt>
      <trkpt lat="43.06695" lon="-0.42646">
        <ele>536.07</ele>
        <time>2015-08-29T09:44:00Z</time>
      </trkpt>
      <trkpt lat="43.06708" lon="-0.42633">
        <ele>536.07</ele>
        <time>2015-08-29T09:44:02Z</time>
      </trkpt>
      <trkpt lat="43.06728" lon="-0.42617">
        <ele>535.59</ele>
        <time>2015-08-29T09:44:05Z</time>
      </trkpt>
      <trkpt lat="43.06743" lon="-0.42591">
        <ele>535.59</ele>
        <time>2015-08-29T09:44:08Z</time>
      </trkpt>
      <trkpt lat="43.06746" lon="-0.4258">
        <ele>535.59</ele>
        <time>2015-08-29T09:44:09Z</time>
      </trkpt>
      <trkpt lat="43.06789" lon="-0.42483">
        <ele>533.67</ele>
        <time>2015-08-29T09:44:19Z</time>
      </trkpt>
      <trkpt lat="43.06794" lon="-0.42478">
        <ele>533.19</ele>
        <time>2015-08-29T09:44:20Z</time>
      </trkpt>
      <trkpt lat="43.068" lon="-0.42476">
        <ele>532.71</ele>
        <time>2015-08-29T09:44:21Z</time>
      </trkpt>
      <trkpt lat="43.06805" lon="-0.42475">
        <ele>532.71</ele>
        <time>2015-08-29T09:44:22Z</time>
      </trkpt>
      <trkpt lat="43.06812" lon="-0.42475">
        <ele>532.71</ele>
        <time>2015-08-29T09:44:23Z</time>
      </trkpt>
      <trkpt lat="43.06827" lon="-0.42478">
        <ele>531.27</ele>
        <time>2015-08-29T09:44:25Z</time>
      </trkpt>
      <trkpt lat="43.06834" lon="-0.42476">
        <ele>531.27</ele>
        <time>2015-08-29T09:44:26Z</time>
      </trkpt>
      <trkpt lat="43.06844" lon="-0.42468">
        <ele>530.79</ele>
        <time>2015-08-29T09:44:28Z</time>
      </trkpt>
      <trkpt lat="43.06847" lon="-0.42462">
        <ele>530.3</ele>
        <time>2015-08-29T09:44:29Z</time>
      </trkpt>
      <trkpt lat="43.06847" lon="-0.42455">
        <ele>530.3</ele>
        <time>2015-08-29T09:44:30Z</time>
      </trkpt>
      <trkpt lat="43.06845" lon="-0.4245">
        <ele>529.34</ele>
        <time>2015-08-29T09:44:31Z</time>
      </trkpt>
      <trkpt lat="43.06841" lon="-0.42446">
        <ele>528.86</ele>
        <time>2015-08-29T09:44:32Z</time>
      </trkpt>
      <trkpt lat="43.06835" lon="-0.42445">
        <ele>527.9</ele>
        <time>2015-08-29T09:44:33Z</time>
      </trkpt>
      <trkpt lat="43.0683" lon="-0.42445">
        <ele>527.9</ele>
        <time>2015-08-29T09:44:34Z</time>
      </trkpt>
      <trkpt lat="43.06825" lon="-0.42444">
        <ele>527.42</ele>
        <time>2015-08-29T09:44:35Z</time>
      </trkpt>
      <trkpt lat="43.06821" lon="-0.42441">
        <ele>526.94</ele>
        <time>2015-08-29T09:44:36Z</time>
      </trkpt>
      <trkpt lat="43.06819" lon="-0.42436">
        <ele>525.98</ele>
        <time>2015-08-29T09:44:37Z</time>
      </trkpt>
      <trkpt lat="43.06818" lon="-0.42431">
        <ele>525.5</ele>
        <time>2015-08-29T09:44:38Z</time>
      </trkpt>
      <trkpt lat="43.0682" lon="-0.42425">
        <ele>525.02</ele>
        <time>2015-08-29T09:44:39Z</time>
      </trkpt>
      <trkpt lat="43.06822" lon="-0.42419">
        <ele>524.54</ele>
        <time>2015-08-29T09:44:40Z</time>
      </trkpt>
      <trkpt lat="43.06825" lon="-0.42415">
        <ele>524.54</ele>
        <time>2015-08-29T09:44:41Z</time>
      </trkpt>
      <trkpt lat="43.06874" lon="-0.42394">
        <ele>516.85</ele>
        <time>2015-08-29T09:44:51Z</time>
      </trkpt>
      <trkpt lat="43.06876" lon="-0.42392">
        <ele>511.08</ele>
        <time>2015-08-29T09:45:01Z</time>
      </trkpt>
      <trkpt lat="43.0688" lon="-0.42389">
        <ele>497.62</ele>
        <time>2015-08-29T09:45:25Z</time>
      </trkpt>
      <trkpt lat="43.06882" lon="-0.42389">
        <ele>496.66</ele>
        <time>2015-08-29T09:45:26Z</time>
      </trkpt>
      <trkpt lat="43.06884" lon="-0.42389">
        <ele>495.7</ele>
        <time>2015-08-29T09:45:27Z</time>
      </trkpt>
      <trkpt lat="43.06945" lon="-0.42377">
        <ele>482.24</ele>
        <time>2015-08-29T09:45:40Z</time>
      </trkpt>
      <trkpt lat="43.07016" lon="-0.42351">
        <ele>475.03</ele>
        <time>2015-08-29T09:45:55Z</time>
      </trkpt>
      <trkpt lat="43.0702" lon="-0.42348">
        <ele>474.55</ele>
        <time>2015-08-29T09:45:56Z</time>
      </trkpt>
      <trkpt lat="43.07046" lon="-0.42331">
        <ele>472.14</ele>
        <time>2015-08-29T09:46:02Z</time>
      </trkpt>
      <trkpt lat="43.07106" lon="-0.42285">
        <ele>469.74</ele>
        <time>2015-08-29T09:46:17Z</time>
      </trkpt>
      <trkpt lat="43.07108" lon="-0.42281">
        <ele>469.74</ele>
        <time>2015-08-29T09:46:18Z</time>
      </trkpt>
      <trkpt lat="43.0711" lon="-0.42276">
        <ele>469.26</ele>
        <time>2015-08-29T09:46:19Z</time>
      </trkpt>
      <trkpt lat="43.07111" lon="-0.4227">
        <ele>468.78</ele>
        <time>2015-08-29T09:46:20Z</time>
      </trkpt>
      <trkpt lat="43.07114" lon="-0.42266">
        <ele>468.3</ele>
        <time>2015-08-29T09:46:21Z</time>
      </trkpt>
      <trkpt lat="43.07117" lon="-0.42263">
        <ele>468.3</ele>
        <time>2015-08-29T09:46:22Z</time>
      </trkpt>
      <trkpt lat="43.07121" lon="-0.4226">
        <ele>467.82</ele>
        <time>2015-08-29T09:46:23Z</time>
      </trkpt>
      <trkpt lat="43.07125" lon="-0.42256">
        <ele>467.82</ele>
        <time>2015-08-29T09:46:24Z</time>
      </trkpt>
      <trkpt lat="43.07184" lon="-0.42208">
        <ele>463.97</ele>
        <time>2015-08-29T09:46:37Z</time>
      </trkpt>
      <trkpt lat="43.07264" lon="-0.42149">
        <ele>461.09</ele>
        <time>2015-08-29T09:46:53Z</time>
      </trkpt>
      <trkpt lat="43.07349" lon="-0.42125">
        <ele>457.24</ele>
        <time>2015-08-29T09:47:08Z</time>
      </trkpt>
      <trkpt lat="43.07429" lon="-0.42132">
        <ele>454.84</ele>
        <time>2015-08-29T09:47:22Z</time>
      </trkpt>
      <trkpt lat="43.07519" lon="-0.42152">
        <ele>451.96</ele>
        <time>2015-08-29T09:47:38Z</time>
      </trkpt>
      <trkpt lat="43.07591" lon="-0.42167">
        <ele>450.52</ele>
        <time>2015-08-29T09:47:51Z</time>
      </trkpt>
      <trkpt lat="43.07659" lon="-0.42171">
        <ele>449.55</ele>
        <time>2015-08-29T09:48:03Z</time>
      </trkpt>
      <trkpt lat="43.07665" lon="-0.42171">
        <ele>449.55</ele>
        <time>2015-08-29T09:48:04Z</time>
      </trkpt>
      <trkpt lat="43.0767" lon="-0.42171">
        <ele>449.55</ele>
        <time>2015-08-29T09:48:05Z</time>
      </trkpt>
      <trkpt lat="43.07682" lon="-0.4217">
        <ele>449.55</ele>
        <time>2015-08-29T09:48:07Z</time>
      </trkpt>
      <trkpt lat="43.07688" lon="-0.42169">
        <ele>449.55</ele>
        <time>2015-08-29T09:48:08Z</time>
      </trkpt>
      <trkpt lat="43.07705" lon="-0.42167">
        <ele>449.55</ele>
        <time>2015-08-29T09:48:11Z</time>
      </trkpt>
      <trkpt lat="43.07792" lon="-0.42157">
        <ele>448.11</ele>
        <time>2015-08-29T09:48:26Z</time>
      </trkpt>
      <trkpt lat="43.0788" lon="-0.42149">
        <ele>447.15</ele>
        <time>2015-08-29T09:48:42Z</time>
      </trkpt>
      <trkpt lat="43.07904" lon="-0.42147">
        <ele>446.19</ele>
        <time>2015-08-29T09:48:46Z</time>
      </trkpt>
      <trkpt lat="43.0791" lon="-0.42147">
        <ele>445.71</ele>
        <time>2015-08-29T09:48:47Z</time>
      </trkpt>
      <trkpt lat="43.07965" lon="-0.42141">
        <ele>442.82</ele>
        <time>2015-08-29T09:48:57Z</time>
      </trkpt>
      <trkpt lat="43.07969" lon="-0.42142">
        <ele>442.82</ele>
        <time>2015-08-29T09:48:58Z</time>
      </trkpt>
      <trkpt lat="43.07972" lon="-0.42144">
        <ele>442.34</ele>
        <time>2015-08-29T09:48:59Z</time>
      </trkpt>
      <trkpt lat="43.07973" lon="-0.42146">
        <ele>441.86</ele>
        <time>2015-08-29T09:49:00Z</time>
      </trkpt>
      <trkpt lat="43.07975" lon="-0.42148">
        <ele>441.38</ele>
        <time>2015-08-29T09:49:01Z</time>
      </trkpt>
      <trkpt lat="43.07979" lon="-0.42152">
        <ele>440.42</ele>
        <time>2015-08-29T09:49:04Z</time>
      </trkpt>
      <trkpt lat="43.07979" lon="-0.4216">
        <ele>431.29</ele>
        <time>2015-08-29T09:50:23Z</time>
      </trkpt>
      <trkpt lat="43.0798" lon="-0.4217">
        <ele>431.77</ele>
        <time>2015-08-29T09:50:38Z</time>
      </trkpt>
      <trkpt lat="43.07984" lon="-0.42178">
        <ele>435.13</ele>
        <time>2015-08-29T09:50:54Z</time>
      </trkpt>
      <trkpt lat="43.07991" lon="-0.4219">
        <ele>438.02</ele>
        <time>2015-08-29T09:51:07Z</time>
      </trkpt>
      <trkpt lat="43.07995" lon="-0.42195">
        <ele>441.86</ele>
        <time>2015-08-29T09:51:25Z</time>
      </trkpt>
      <trkpt lat="43.08" lon="-0.422">
        <ele>446.19</ele>
        <time>2015-08-29T09:51:40Z</time>
      </trkpt>
      <trkpt lat="43.08012" lon="-0.42213">
        <ele>448.11</ele>
        <time>2015-08-29T09:51:56Z</time>
      </trkpt>
      <trkpt lat="43.0802" lon="-0.42235">
        <ele>451.48</ele>
        <time>2015-08-29T09:52:06Z</time>
      </trkpt>
      <trkpt lat="43.08021" lon="-0.42256">
        <ele>455.8</ele>
        <time>2015-08-29T09:52:16Z</time>
      </trkpt>
      <trkpt lat="43.08023" lon="-0.42259">
        <ele>455.8</ele>
        <time>2015-08-29T09:52:18Z</time>
      </trkpt>
      <trkpt lat="43.08031" lon="-0.42276">
        <ele>457.72</ele>
        <time>2015-08-29T09:52:26Z</time>
      </trkpt>
      <trkpt lat="43.08033" lon="-0.42286">
        <ele>458.21</ele>
        <time>2015-08-29T09:52:31Z</time>
      </trkpt>
      <trkpt lat="43.08041" lon="-0.42301">
        <ele>457.24</ele>
        <time>2015-08-29T09:52:39Z</time>
      </trkpt>
      <trkpt lat="43.08063" lon="-0.42322">
        <ele>456.76</ele>
        <time>2015-08-29T09:52:52Z</time>
      </trkpt>
      <trkpt lat="43.08076" lon="-0.42335">
        <ele>457.24</ele>
        <time>2015-08-29T09:52:58Z</time>
      </trkpt>
      <trkpt lat="43.08081" lon="-0.42349">
        <ele>456.76</ele>
        <time>2015-08-29T09:53:02Z</time>
      </trkpt>
      <trkpt lat="43.08087" lon="-0.42366">
        <ele>456.28</ele>
        <time>2015-08-29T09:53:08Z</time>
      </trkpt>
      <trkpt lat="43.08088" lon="-0.42401">
        <ele>453.88</ele>
        <time>2015-08-29T09:53:18Z</time>
      </trkpt>
      <trkpt lat="43.08087" lon="-0.42408">
        <ele>453.4</ele>
        <time>2015-08-29T09:53:20Z</time>
      </trkpt>
      <trkpt lat="43.08101" lon="-0.42434">
        <ele>452.92</ele>
        <time>2015-08-29T09:53:27Z</time>
      </trkpt>
      <trkpt lat="43.08101" lon="-0.42441">
        <ele>452.92</ele>
        <time>2015-08-29T09:53:30Z</time>
      </trkpt>
      <trkpt lat="43.08081" lon="-0.42454">
        <ele>453.4</ele>
        <time>2015-08-29T09:53:40Z</time>
      </trkpt>
      <trkpt lat="43.0808" lon="-0.4246">
        <ele>452.92</ele>
        <time>2015-08-29T09:53:42Z</time>
      </trkpt>
      <trkpt lat="43.0807" lon="-0.42493">
        <ele>452.92</ele>
        <time>2015-08-29T09:53:51Z</time>
      </trkpt>
      <trkpt lat="43.08066" lon="-0.42501">
        <ele>453.4</ele>
        <time>2015-08-29T09:53:55Z</time>
      </trkpt>
      <trkpt lat="43.08065" lon="-0.42512">
        <ele>454.36</ele>
        <time>2015-08-29T09:54:08Z</time>
      </trkpt>
      <trkpt lat="43.08068" lon="-0.42523">
        <ele>453.88</ele>
        <time>2015-08-29T09:54:23Z</time>
      </trkpt>
      <trkpt lat="43.08078" lon="-0.42539">
        <ele>452.92</ele>
        <time>2015-08-29T09:54:28Z</time>
      </trkpt>
      <trkpt lat="43.08106" lon="-0.42589">
        <ele>452.92</ele>
        <time>2015-08-29T09:54:41Z</time>
      </trkpt>
      <trkpt lat="43.08127" lon="-0.42635">
        <ele>452.44</ele>
        <time>2015-08-29T09:54:51Z</time>
      </trkpt>
      <trkpt lat="43.08129" lon="-0.42641">
        <ele>452.92</ele>
        <time>2015-08-29T09:55:06Z</time>
      </trkpt>
      <trkpt lat="43.08131" lon="-0.42644">
        <ele>452.92</ele>
        <time>2015-08-29T09:55:08Z</time>
      </trkpt>
      <trkpt lat="43.08135" lon="-0.42652">
        <ele>454.36</ele>
        <time>2015-08-29T09:55:13Z</time>
      </trkpt>
      <trkpt lat="43.08138" lon="-0.42669">
        <ele>456.76</ele>
        <time>2015-08-29T09:55:19Z</time>
      </trkpt>
      <trkpt lat="43.08138" lon="-0.42678">
        <ele>459.17</ele>
        <time>2015-08-29T09:55:23Z</time>
      </trkpt>
      <trkpt lat="43.08141" lon="-0.4269">
        <ele>463.97</ele>
        <time>2015-08-29T09:55:30Z</time>
      </trkpt>
      <trkpt lat="43.08142" lon="-0.42696">
        <ele>465.42</ele>
        <time>2015-08-29T09:55:33Z</time>
      </trkpt>
      <trkpt lat="43.08137" lon="-0.42731">
        <ele>473.59</ele>
        <time>2015-08-29T09:55:45Z</time>
      </trkpt>
      <trkpt lat="43.08136" lon="-0.42742">
        <ele>474.07</ele>
        <time>2015-08-29T09:55:49Z</time>
      </trkpt>
      <trkpt lat="43.08141" lon="-0.42751">
        <ele>473.59</ele>
        <time>2015-08-29T09:55:50Z</time>
      </trkpt>
      <trkpt lat="43.08155" lon="-0.42783">
        <ele>472.63</ele>
        <time>2015-08-29T09:55:55Z</time>
      </trkpt>
      <trkpt lat="43.08157" lon="-0.42788">
        <ele>472.63</ele>
        <time>2015-08-29T09:55:56Z</time>
      </trkpt>
      <trkpt lat="43.08159" lon="-0.42793">
        <ele>472.63</ele>
        <time>2015-08-29T09:55:57Z</time>
      </trkpt>
      <trkpt lat="43.08162" lon="-0.42798">
        <ele>472.63</ele>
        <time>2015-08-29T09:55:58Z</time>
      </trkpt>
      <trkpt lat="43.08166" lon="-0.42801">
        <ele>472.63</ele>
        <time>2015-08-29T09:55:59Z</time>
      </trkpt>
      <trkpt lat="43.0817" lon="-0.42805">
        <ele>472.63</ele>
        <time>2015-08-29T09:56:00Z</time>
      </trkpt>
      <trkpt lat="43.08198" lon="-0.42829">
        <ele>472.14</ele>
        <time>2015-08-29T09:56:09Z</time>
      </trkpt>
      <trkpt lat="43.08221" lon="-0.42842">
        <ele>472.14</ele>
        <time>2015-08-29T09:56:15Z</time>
      </trkpt>
      <trkpt lat="43.08226" lon="-0.42846">
        <ele>472.63</ele>
        <time>2015-08-29T09:56:16Z</time>
      </trkpt>
      <trkpt lat="43.08229" lon="-0.4285">
        <ele>473.11</ele>
        <time>2015-08-29T09:56:17Z</time>
      </trkpt>
      <trkpt lat="43.08232" lon="-0.42855">
        <ele>473.11</ele>
        <time>2015-08-29T09:56:18Z</time>
      </trkpt>
      <trkpt lat="43.08234" lon="-0.42861">
        <ele>472.63</ele>
        <time>2015-08-29T09:56:19Z</time>
      </trkpt>
      <trkpt lat="43.08236" lon="-0.42867">
        <ele>472.63</ele>
        <time>2015-08-29T09:56:20Z</time>
      </trkpt>
      <trkpt lat="43.08236" lon="-0.42874">
        <ele>472.63</ele>
        <time>2015-08-29T09:56:21Z</time>
      </trkpt>
      <trkpt lat="43.08237" lon="-0.4288">
        <ele>472.63</ele>
        <time>2015-08-29T09:56:22Z</time>
      </trkpt>
      <trkpt lat="43.08247" lon="-0.42931">
        <ele>468.78</ele>
        <time>2015-08-29T09:56:33Z</time>
      </trkpt>
      <trkpt lat="43.08271" lon="-0.42954">
        <ele>464.45</ele>
        <time>2015-08-29T09:56:43Z</time>
      </trkpt>
      <trkpt lat="43.08293" lon="-0.42975">
        <ele>461.57</ele>
        <time>2015-08-29T09:56:54Z</time>
      </trkpt>
      <trkpt lat="43.08293" lon="-0.42978">
        <ele>461.57</ele>
        <time>2015-08-29T09:56:55Z</time>
      </trkpt>
      <trkpt lat="43.08306" lon="-0.43015">
        <ele>459.65</ele>
        <time>2015-08-29T09:57:08Z</time>
      </trkpt>
      <trkpt lat="43.08317" lon="-0.43045">
        <ele>460.61</ele>
        <time>2015-08-29T09:57:20Z</time>
      </trkpt>
      <trkpt lat="43.08326" lon="-0.43081">
        <ele>460.13</ele>
        <time>2015-08-29T09:57:35Z</time>
      </trkpt>
      <trkpt lat="43.08327" lon="-0.43083">
        <ele>460.61</ele>
        <time>2015-08-29T09:57:36Z</time>
      </trkpt>
      <trkpt lat="43.08328" lon="-0.43085">
        <ele>460.61</ele>
        <time>2015-08-29T09:57:37Z</time>
      </trkpt>
      <trkpt lat="43.08329" lon="-0.43087">
        <ele>460.61</ele>
        <time>2015-08-29T09:57:38Z</time>
      </trkpt>
      <trkpt lat="43.0833" lon="-0.43089">
        <ele>460.61</ele>
        <time>2015-08-29T09:57:39Z</time>
      </trkpt>
      <trkpt lat="43.08345" lon="-0.43119">
        <ele>462.53</ele>
        <time>2015-08-29T09:57:50Z</time>
      </trkpt>
      <trkpt lat="43.08363" lon="-0.43163">
        <ele>459.17</ele>
        <time>2015-08-29T09:58:00Z</time>
      </trkpt>
      <trkpt lat="43.08366" lon="-0.43167">
        <ele>459.65</ele>
        <time>2015-08-29T09:58:01Z</time>
      </trkpt>
      <trkpt lat="43.08369" lon="-0.43172">
        <ele>459.65</ele>
        <time>2015-08-29T09:58:02Z</time>
      </trkpt>
      <trkpt lat="43.08377" lon="-0.43186">
        <ele>459.17</ele>
        <time>2015-08-29T09:58:04Z</time>
      </trkpt>
      <trkpt lat="43.08386" lon="-0.43216">
        <ele>458.69</ele>
        <time>2015-08-29T09:58:07Z</time>
      </trkpt>
      <trkpt lat="43.08389" lon="-0.43225">
        <ele>458.69</ele>
        <time>2015-08-29T09:58:08Z</time>
      </trkpt>
      <trkpt lat="43.0841" lon="-0.43297">
        <ele>457.24</ele>
        <time>2015-08-29T09:58:18Z</time>
      </trkpt>
      <trkpt lat="43.08414" lon="-0.43341">
        <ele>454.36</ele>
        <time>2015-08-29T09:58:29Z</time>
      </trkpt>
      <trkpt lat="43.08426" lon="-0.43399">
        <ele>453.88</ele>
        <time>2015-08-29T09:58:40Z</time>
      </trkpt>
      <trkpt lat="43.08431" lon="-0.43423">
        <ele>452.92</ele>
        <time>2015-08-29T09:58:49Z</time>
      </trkpt>
      <trkpt lat="43.08432" lon="-0.43426">
        <ele>452.44</ele>
        <time>2015-08-29T09:58:59Z</time>
      </trkpt>
      <trkpt lat="43.08432" lon="-0.43426">
        <ele>451.48</ele>
        <time>2015-08-29T09:59:14Z</time>
      </trkpt>
      <trkpt lat="43.08433" lon="-0.43429">
        <ele>451.48</ele>
        <time>2015-08-29T09:59:19Z</time>
      </trkpt>
      <trkpt lat="43.08433" lon="-0.43431">
        <ele>451.48</ele>
        <time>2015-08-29T09:59:20Z</time>
      </trkpt>
      <trkpt lat="43.08433" lon="-0.43434">
        <ele>451.48</ele>
        <time>2015-08-29T09:59:21Z</time>
      </trkpt>
      <trkpt lat="43.0844" lon="-0.43465">
        <ele>451.48</ele>
        <time>2015-08-29T09:59:33Z</time>
      </trkpt>
      <trkpt lat="43.08457" lon="-0.43503">
        <ele>449.07</ele>
        <time>2015-08-29T09:59:44Z</time>
      </trkpt>
      <trkpt lat="43.08491" lon="-0.43516">
        <ele>447.15</ele>
        <time>2015-08-29T09:59:54Z</time>
      </trkpt>
      <trkpt lat="43.08505" lon="-0.43555">
        <ele>446.67</ele>
        <time>2015-08-29T10:00:04Z</time>
      </trkpt>
      <trkpt lat="43.08532" lon="-0.43617">
        <ele>444.75</ele>
        <time>2015-08-29T10:00:19Z</time>
      </trkpt>
      <trkpt lat="43.08544" lon="-0.43642">
        <ele>443.79</ele>
        <time>2015-08-29T10:00:25Z</time>
      </trkpt>
      <trkpt lat="43.08562" lon="-0.43648">
        <ele>443.79</ele>
        <time>2015-08-29T10:00:30Z</time>
      </trkpt>
      <trkpt lat="43.08579" lon="-0.43649">
        <ele>442.82</ele>
        <time>2015-08-29T10:00:34Z</time>
      </trkpt>
      <trkpt lat="43.08613" lon="-0.43642">
        <ele>442.82</ele>
        <time>2015-08-29T10:00:41Z</time>
      </trkpt>
      <trkpt lat="43.08617" lon="-0.4364">
        <ele>442.82</ele>
        <time>2015-08-29T10:00:42Z</time>
      </trkpt>
      <trkpt lat="43.08621" lon="-0.43638">
        <ele>442.34</ele>
        <time>2015-08-29T10:00:43Z</time>
      </trkpt>
      <trkpt lat="43.08646" lon="-0.43619">
        <ele>441.86</ele>
        <time>2015-08-29T10:00:49Z</time>
      </trkpt>
      <trkpt lat="43.0866" lon="-0.43604">
        <ele>441.38</ele>
        <time>2015-08-29T10:00:53Z</time>
      </trkpt>
      <trkpt lat="43.08663" lon="-0.43601">
        <ele>440.9</ele>
        <time>2015-08-29T10:00:54Z</time>
      </trkpt>
      <trkpt lat="43.08667" lon="-0.43599">
        <ele>440.9</ele>
        <time>2015-08-29T10:00:55Z</time>
      </trkpt>
      <trkpt lat="43.08671" lon="-0.43597">
        <ele>440.42</ele>
        <time>2015-08-29T10:00:56Z</time>
      </trkpt>
      <trkpt lat="43.08675" lon="-0.43596">
        <ele>440.42</ele>
        <time>2015-08-29T10:00:57Z</time>
      </trkpt>
      <trkpt lat="43.0874" lon="-0.43551">
        <ele>439.94</ele>
        <time>2015-08-29T10:01:13Z</time>
      </trkpt>
      <trkpt lat="43.08747" lon="-0.43545">
        <ele>439.46</ele>
        <time>2015-08-29T10:01:15Z</time>
      </trkpt>
      <trkpt lat="43.088" lon="-0.4351">
        <ele>438.98</ele>
        <time>2015-08-29T10:01:28Z</time>
      </trkpt>
      <trkpt lat="43.08804" lon="-0.43509">
        <ele>438.98</ele>
        <time>2015-08-29T10:01:29Z</time>
      </trkpt>
      <trkpt lat="43.08808" lon="-0.43508">
        <ele>438.98</ele>
        <time>2015-08-29T10:01:30Z</time>
      </trkpt>
      <trkpt lat="43.08812" lon="-0.43509">
        <ele>438.5</ele>
        <time>2015-08-29T10:01:31Z</time>
      </trkpt>
      <trkpt lat="43.08815" lon="-0.43512">
        <ele>438.98</ele>
        <time>2015-08-29T10:01:32Z</time>
      </trkpt>
      <trkpt lat="43.08817" lon="-0.43517">
        <ele>438.98</ele>
        <time>2015-08-29T10:01:33Z</time>
      </trkpt>
      <trkpt lat="43.08817" lon="-0.43522">
        <ele>438.98</ele>
        <time>2015-08-29T10:01:34Z</time>
      </trkpt>
      <trkpt lat="43.08817" lon="-0.43526">
        <ele>438.98</ele>
        <time>2015-08-29T10:01:35Z</time>
      </trkpt>
      <trkpt lat="43.08817" lon="-0.43531">
        <ele>438.98</ele>
        <time>2015-08-29T10:01:36Z</time>
      </trkpt>
      <trkpt lat="43.08817" lon="-0.43535">
        <ele>438.98</ele>
        <time>2015-08-29T10:01:37Z</time>
      </trkpt>
      <trkpt lat="43.08816" lon="-0.4354">
        <ele>438.98</ele>
        <time>2015-08-29T10:01:38Z</time>
      </trkpt>
      <trkpt lat="43.08814" lon="-0.43566">
        <ele>437.54</ele>
        <time>2015-08-29T10:01:43Z</time>
      </trkpt>
      <trkpt lat="43.08787" lon="-0.43651">
        <ele>435.13</ele>
        <time>2015-08-29T10:01:59Z</time>
      </trkpt>
      <trkpt lat="43.08766" lon="-0.43741">
        <ele>436.58</ele>
        <time>2015-08-29T10:02:15Z</time>
      </trkpt>
      <trkpt lat="43.08743" lon="-0.43852">
        <ele>437.06</ele>
        <time>2015-08-29T10:02:33Z</time>
      </trkpt>
      <trkpt lat="43.08717" lon="-0.43957">
        <ele>437.54</ele>
        <time>2015-08-29T10:02:49Z</time>
      </trkpt>
      <trkpt lat="43.08691" lon="-0.44044">
        <ele>438.5</ele>
        <time>2015-08-29T10:03:03Z</time>
      </trkpt>
      <trkpt lat="43.08657" lon="-0.44165">
        <ele>438.5</ele>
        <time>2015-08-29T10:03:21Z</time>
      </trkpt>
      <trkpt lat="43.08642" lon="-0.44209">
        <ele>437.54</ele>
        <time>2015-08-29T10:03:28Z</time>
      </trkpt>
      <trkpt lat="43.08616" lon="-0.44304">
        <ele>436.58</ele>
        <time>2015-08-29T10:03:43Z</time>
      </trkpt>
      <trkpt lat="43.0861" lon="-0.44363">
        <ele>436.58</ele>
        <time>2015-08-29T10:03:53Z</time>
      </trkpt>
      <trkpt lat="43.08623" lon="-0.44407">
        <ele>436.1</ele>
        <time>2015-08-29T10:04:00Z</time>
      </trkpt>
      <trkpt lat="43.08625" lon="-0.44413">
        <ele>436.1</ele>
        <time>2015-08-29T10:04:01Z</time>
      </trkpt>
      <trkpt lat="43.08627" lon="-0.4442">
        <ele>436.1</ele>
        <time>2015-08-29T10:04:02Z</time>
      </trkpt>
      <trkpt lat="43.08629" lon="-0.44426">
        <ele>436.1</ele>
        <time>2015-08-29T10:04:03Z</time>
      </trkpt>
      <trkpt lat="43.08632" lon="-0.44431">
        <ele>436.1</ele>
        <time>2015-08-29T10:04:04Z</time>
      </trkpt>
      <trkpt lat="43.08635" lon="-0.44437">
        <ele>436.1</ele>
        <time>2015-08-29T10:04:05Z</time>
      </trkpt>
      <trkpt lat="43.08639" lon="-0.44442">
        <ele>436.1</ele>
        <time>2015-08-29T10:04:06Z</time>
      </trkpt>
      <trkpt lat="43.08642" lon="-0.44447">
        <ele>435.61</ele>
        <time>2015-08-29T10:04:07Z</time>
      </trkpt>
      <trkpt lat="43.08663" lon="-0.44479">
        <ele>436.58</ele>
        <time>2015-08-29T10:04:13Z</time>
      </trkpt>
      <trkpt lat="43.08668" lon="-0.44483">
        <ele>436.58</ele>
        <time>2015-08-29T10:04:14Z</time>
      </trkpt>
      <trkpt lat="43.08673" lon="-0.44485">
        <ele>436.58</ele>
        <time>2015-08-29T10:04:15Z</time>
      </trkpt>
      <trkpt lat="43.08691" lon="-0.44494">
        <ele>436.58</ele>
        <time>2015-08-29T10:04:19Z</time>
      </trkpt>
      <trkpt lat="43.08696" lon="-0.44498">
        <ele>437.06</ele>
        <time>2015-08-29T10:04:20Z</time>
      </trkpt>
      <trkpt lat="43.08699" lon="-0.44503">
        <ele>437.06</ele>
        <time>2015-08-29T10:04:21Z</time>
      </trkpt>
      <trkpt lat="43.08706" lon="-0.44515">
        <ele>437.06</ele>
        <time>2015-08-29T10:04:23Z</time>
      </trkpt>
      <trkpt lat="43.08708" lon="-0.44523">
        <ele>437.06</ele>
        <time>2015-08-29T10:04:25Z</time>
      </trkpt>
      <trkpt lat="43.08707" lon="-0.44526">
        <ele>437.06</ele>
        <time>2015-08-29T10:04:26Z</time>
      </trkpt>
      <trkpt lat="43.08707" lon="-0.44573">
        <ele>438.5</ele>
        <time>2015-08-29T10:04:36Z</time>
      </trkpt>
      <trkpt lat="43.08709" lon="-0.44578">
        <ele>438.5</ele>
        <time>2015-08-29T10:04:37Z</time>
      </trkpt>
      <trkpt lat="43.08711" lon="-0.44582">
        <ele>438.5</ele>
        <time>2015-08-29T10:04:38Z</time>
      </trkpt>
      <trkpt lat="43.08715" lon="-0.44585">
        <ele>438.5</ele>
        <time>2015-08-29T10:04:39Z</time>
      </trkpt>
      <trkpt lat="43.08719" lon="-0.44589">
        <ele>438.98</ele>
        <time>2015-08-29T10:04:40Z</time>
      </trkpt>
      <trkpt lat="43.08722" lon="-0.44593">
        <ele>438.98</ele>
        <time>2015-08-29T10:04:41Z</time>
      </trkpt>
      <trkpt lat="43.08727" lon="-0.44596">
        <ele>438.98</ele>
        <time>2015-08-29T10:04:42Z</time>
      </trkpt>
      <trkpt lat="43.08731" lon="-0.446">
        <ele>438.98</ele>
        <time>2015-08-29T10:04:43Z</time>
      </trkpt>
      <trkpt lat="43.08736" lon="-0.44603">
        <ele>438.98</ele>
        <time>2015-08-29T10:04:44Z</time>
      </trkpt>
      <trkpt lat="43.08748" lon="-0.44614">
        <ele>438.98</ele>
        <time>2015-08-29T10:04:47Z</time>
      </trkpt>
      <trkpt lat="43.08752" lon="-0.44618">
        <ele>438.98</ele>
        <time>2015-08-29T10:04:48Z</time>
      </trkpt>
      <trkpt lat="43.08754" lon="-0.44623">
        <ele>439.46</ele>
        <time>2015-08-29T10:04:49Z</time>
      </trkpt>
      <trkpt lat="43.08756" lon="-0.44628">
        <ele>439.46</ele>
        <time>2015-08-29T10:04:50Z</time>
      </trkpt>
      <trkpt lat="43.08756" lon="-0.44633">
        <ele>439.46</ele>
        <time>2015-08-29T10:04:51Z</time>
      </trkpt>
      <trkpt lat="43.08756" lon="-0.44639">
        <ele>439.46</ele>
        <time>2015-08-29T10:04:52Z</time>
      </trkpt>
      <trkpt lat="43.08757" lon="-0.44682">
        <ele>439.94</ele>
        <time>2015-08-29T10:04:59Z</time>
      </trkpt>
      <trkpt lat="43.08761" lon="-0.44758">
        <ele>440.9</ele>
        <time>2015-08-29T10:05:12Z</time>
      </trkpt>
      <trkpt lat="43.08763" lon="-0.44763">
        <ele>440.9</ele>
        <time>2015-08-29T10:05:13Z</time>
      </trkpt>
      <trkpt lat="43.08765" lon="-0.44768">
        <ele>441.38</ele>
        <time>2015-08-29T10:05:14Z</time>
      </trkpt>
      <trkpt lat="43.08768" lon="-0.4478">
        <ele>441.86</ele>
        <time>2015-08-29T10:05:16Z</time>
      </trkpt>
      <trkpt lat="43.08779" lon="-0.44817">
        <ele>444.27</ele>
        <time>2015-08-29T10:05:24Z</time>
      </trkpt>
      <trkpt lat="43.0878" lon="-0.44819">
        <ele>444.27</ele>
        <time>2015-08-29T10:05:25Z</time>
      </trkpt>
      <trkpt lat="43.08782" lon="-0.44821">
        <ele>444.75</ele>
        <time>2015-08-29T10:05:26Z</time>
      </trkpt>
      <trkpt lat="43.08785" lon="-0.44825">
        <ele>445.23</ele>
        <time>2015-08-29T10:05:27Z</time>
      </trkpt>
      <trkpt lat="43.08789" lon="-0.44829">
        <ele>445.23</ele>
        <time>2015-08-29T10:05:28Z</time>
      </trkpt>
      <trkpt lat="43.08815" lon="-0.44877">
        <ele>443.79</ele>
        <time>2015-08-29T10:05:39Z</time>
      </trkpt>
      <trkpt lat="43.08816" lon="-0.44881">
        <ele>443.79</ele>
        <time>2015-08-29T10:05:40Z</time>
      </trkpt>
      <trkpt lat="43.08816" lon="-0.4493">
        <ele>443.79</ele>
        <time>2015-08-29T10:05:52Z</time>
      </trkpt>
      <trkpt lat="43.08843" lon="-0.44944">
        <ele>443.79</ele>
        <time>2015-08-29T10:06:01Z</time>
      </trkpt>
      <trkpt lat="43.08854" lon="-0.44947">
        <ele>443.79</ele>
        <time>2015-08-29T10:06:04Z</time>
      </trkpt>
      <trkpt lat="43.08856" lon="-0.44968">
        <ele>443.79</ele>
        <time>2015-08-29T10:06:09Z</time>
      </trkpt>
      <trkpt lat="43.08857" lon="-0.44972">
        <ele>443.79</ele>
        <time>2015-08-29T10:06:12Z</time>
      </trkpt>
      <trkpt lat="43.0889" lon="-0.44972">
        <ele>444.75</ele>
        <time>2015-08-29T10:06:26Z</time>
      </trkpt>
      <trkpt lat="43.08912" lon="-0.44964">
        <ele>444.75</ele>
        <time>2015-08-29T10:06:33Z</time>
      </trkpt>
      <trkpt lat="43.08917" lon="-0.44962">
        <ele>445.23</ele>
        <time>2015-08-29T10:06:34Z</time>
      </trkpt>
      <trkpt lat="43.08922" lon="-0.44957">
        <ele>445.23</ele>
        <time>2015-08-29T10:06:35Z</time>
      </trkpt>
      <trkpt lat="43.08926" lon="-0.44952">
        <ele>445.23</ele>
        <time>2015-08-29T10:06:36Z</time>
      </trkpt>
      <trkpt lat="43.08931" lon="-0.44949">
        <ele>444.75</ele>
        <time>2015-08-29T10:06:37Z</time>
      </trkpt>
      <trkpt lat="43.08935" lon="-0.44947">
        <ele>444.75</ele>
        <time>2015-08-29T10:06:38Z</time>
      </trkpt>
      <trkpt lat="43.08939" lon="-0.44945">
        <ele>444.75</ele>
        <time>2015-08-29T10:06:39Z</time>
      </trkpt>
      <trkpt lat="43.08973" lon="-0.44927">
        <ele>443.79</ele>
        <time>2015-08-29T10:06:50Z</time>
      </trkpt>
      <trkpt lat="43.09009" lon="-0.44906">
        <ele>443.31</ele>
        <time>2015-08-29T10:06:59Z</time>
      </trkpt>
      <trkpt lat="43.09013" lon="-0.44904">
        <ele>443.31</ele>
        <time>2015-08-29T10:07:00Z</time>
      </trkpt>
      <trkpt lat="43.09017" lon="-0.44901">
        <ele>443.31</ele>
        <time>2015-08-29T10:07:01Z</time>
      </trkpt>
      <trkpt lat="43.09021" lon="-0.44897">
        <ele>443.31</ele>
        <time>2015-08-29T10:07:02Z</time>
      </trkpt>
      <trkpt lat="43.09023" lon="-0.44894">
        <ele>443.31</ele>
        <time>2015-08-29T10:07:03Z</time>
      </trkpt>
      <trkpt lat="43.09051" lon="-0.44846">
        <ele>443.31</ele>
        <time>2015-08-29T10:07:16Z</time>
      </trkpt>
      <trkpt lat="43.09075" lon="-0.4479">
        <ele>442.82</ele>
        <time>2015-08-29T10:07:30Z</time>
      </trkpt>
      <trkpt lat="43.09076" lon="-0.44783">
        <ele>443.31</ele>
        <time>2015-08-29T10:07:31Z</time>
      </trkpt>
      <trkpt lat="43.09085" lon="-0.44747">
        <ele>443.79</ele>
        <time>2015-08-29T10:07:36Z</time>
      </trkpt>
      <trkpt lat="43.09088" lon="-0.4474">
        <ele>443.79</ele>
        <time>2015-08-29T10:07:37Z</time>
      </trkpt>
      <trkpt lat="43.09132" lon="-0.44681">
        <ele>443.79</ele>
        <time>2015-08-29T10:07:48Z</time>
      </trkpt>
      <trkpt lat="43.09174" lon="-0.44632">
        <ele>443.31</ele>
        <time>2015-08-29T10:07:59Z</time>
      </trkpt>
      <trkpt lat="43.09178" lon="-0.4463">
        <ele>443.31</ele>
        <time>2015-08-29T10:08:00Z</time>
      </trkpt>
      <trkpt lat="43.09202" lon="-0.44619">
        <ele>442.82</ele>
        <time>2015-08-29T10:08:05Z</time>
      </trkpt>
      <trkpt lat="43.09207" lon="-0.44618">
        <ele>442.82</ele>
        <time>2015-08-29T10:08:06Z</time>
      </trkpt>
      <trkpt lat="43.09211" lon="-0.44617">
        <ele>442.82</ele>
        <time>2015-08-29T10:08:07Z</time>
      </trkpt>
      <trkpt lat="43.09272" lon="-0.44606">
        <ele>441.38</ele>
        <time>2015-08-29T10:08:21Z</time>
      </trkpt>
      <trkpt lat="43.09289" lon="-0.44595">
        <ele>440.9</ele>
        <time>2015-08-29T10:08:25Z</time>
      </trkpt>
      <trkpt lat="43.09294" lon="-0.44592">
        <ele>440.42</ele>
        <time>2015-08-29T10:08:26Z</time>
      </trkpt>
      <trkpt lat="43.09298" lon="-0.44589">
        <ele>440.42</ele>
        <time>2015-08-29T10:08:27Z</time>
      </trkpt>
      <trkpt lat="43.09331" lon="-0.44569">
        <ele>438.5</ele>
        <time>2015-08-29T10:08:34Z</time>
      </trkpt>
      <trkpt lat="43.09336" lon="-0.44566">
        <ele>438.5</ele>
        <time>2015-08-29T10:08:35Z</time>
      </trkpt>
      <trkpt lat="43.09365" lon="-0.44548">
        <ele>437.06</ele>
        <time>2015-08-29T10:08:40Z</time>
      </trkpt>
      <trkpt lat="43.09442" lon="-0.44511">
        <ele>431.77</ele>
        <time>2015-08-29T10:08:51Z</time>
      </trkpt>
      <trkpt lat="43.09456" lon="-0.44508">
        <ele>431.29</ele>
        <time>2015-08-29T10:08:53Z</time>
      </trkpt>
      <trkpt lat="43.09463" lon="-0.44509">
        <ele>430.81</ele>
        <time>2015-08-29T10:08:54Z</time>
      </trkpt>
      <trkpt lat="43.0947" lon="-0.4451">
        <ele>430.33</ele>
        <time>2015-08-29T10:08:55Z</time>
      </trkpt>
      <trkpt lat="43.09477" lon="-0.44509">
        <ele>429.85</ele>
        <time>2015-08-29T10:08:56Z</time>
      </trkpt>
      <trkpt lat="43.09484" lon="-0.44508">
        <ele>429.37</ele>
        <time>2015-08-29T10:08:57Z</time>
      </trkpt>
      <trkpt lat="43.09491" lon="-0.44507">
        <ele>429.37</ele>
        <time>2015-08-29T10:08:58Z</time>
      </trkpt>
      <trkpt lat="43.09579" lon="-0.44492">
        <ele>426</ele>
        <time>2015-08-29T10:09:11Z</time>
      </trkpt>
      <trkpt lat="43.09585" lon="-0.44489">
        <ele>425.52</ele>
        <time>2015-08-29T10:09:12Z</time>
      </trkpt>
      <trkpt lat="43.09591" lon="-0.44485">
        <ele>424.56</ele>
        <time>2015-08-29T10:09:13Z</time>
      </trkpt>
      <trkpt lat="43.09596" lon="-0.44479">
        <ele>424.08</ele>
        <time>2015-08-29T10:09:14Z</time>
      </trkpt>
      <trkpt lat="43.09601" lon="-0.44473">
        <ele>423.12</ele>
        <time>2015-08-29T10:09:15Z</time>
      </trkpt>
      <trkpt lat="43.09627" lon="-0.44444">
        <ele>420.71</ele>
        <time>2015-08-29T10:09:20Z</time>
      </trkpt>
      <trkpt lat="43.09633" lon="-0.44441">
        <ele>419.75</ele>
        <time>2015-08-29T10:09:21Z</time>
      </trkpt>
      <trkpt lat="43.09639" lon="-0.4444">
        <ele>419.27</ele>
        <time>2015-08-29T10:09:22Z</time>
      </trkpt>
      <trkpt lat="43.09645" lon="-0.44439">
        <ele>418.79</ele>
        <time>2015-08-29T10:09:23Z</time>
      </trkpt>
      <trkpt lat="43.09651" lon="-0.44438">
        <ele>417.83</ele>
        <time>2015-08-29T10:09:24Z</time>
      </trkpt>
      <trkpt lat="43.09657" lon="-0.44439">
        <ele>417.83</ele>
        <time>2015-08-29T10:09:25Z</time>
      </trkpt>
      <trkpt lat="43.09678" lon="-0.4444">
        <ele>415.91</ele>
        <time>2015-08-29T10:09:29Z</time>
      </trkpt>
      <trkpt lat="43.09687" lon="-0.44444">
        <ele>414.95</ele>
        <time>2015-08-29T10:09:31Z</time>
      </trkpt>
      <trkpt lat="43.0972" lon="-0.44456">
        <ele>412.06</ele>
        <time>2015-08-29T10:09:39Z</time>
      </trkpt>
      <trkpt lat="43.09725" lon="-0.44456">
        <ele>412.06</ele>
        <time>2015-08-29T10:09:40Z</time>
      </trkpt>
      <trkpt lat="43.09815" lon="-0.44442">
        <ele>410.62</ele>
        <time>2015-08-29T10:09:58Z</time>
      </trkpt>
      <trkpt lat="43.09898" lon="-0.444">
        <ele>409.66</ele>
        <time>2015-08-29T10:10:14Z</time>
      </trkpt>
      <trkpt lat="43.09959" lon="-0.44343">
        <ele>406.29</ele>
        <time>2015-08-29T10:10:27Z</time>
      </trkpt>
      <trkpt lat="43.0999" lon="-0.44321">
        <ele>405.33</ele>
        <time>2015-08-29T10:10:33Z</time>
      </trkpt>
    </trkseg>
  </trk>
  <trk>
    <name><![CDATA[BOUCLES DU COL DU CERISIER]]></name>
    <trkseg>
      <trkpt lat="43.13551" lon="-0.47807">
        <ele>343</ele>
      </trkpt>
      <trkpt lat="43.13555" lon="-0.47806">
        <ele>343</ele>
      </trkpt>
      <trkpt lat="43.13562" lon="-0.47792">
        <ele>343</ele>
      </trkpt>
      <trkpt lat="43.13562" lon="-0.47782">
        <ele>345</ele>
      </trkpt>
      <trkpt lat="43.13558" lon="-0.47775">
        <ele>345</ele>
      </trkpt>
      <trkpt lat="43.13505" lon="-0.47776">
        <ele>349</ele>
      </trkpt>
      <trkpt lat="43.13478" lon="-0.47769">
        <ele>349</ele>
      </trkpt>
      <trkpt lat="43.13403" lon="-0.47729">
        <ele>352</ele>
      </trkpt>
      <trkpt lat="43.13339" lon="-0.47688">
        <ele>359</ele>
      </trkpt>
      <trkpt lat="43.13308" lon="-0.47677">
        <ele>359</ele>
      </trkpt>
      <trkpt lat="43.13279" lon="-0.47671">
        <ele>364</ele>
      </trkpt>
      <trkpt lat="43.13217" lon="-0.47643">
        <ele>364</ele>
      </trkpt>
      <trkpt lat="43.13181" lon="-0.47604">
        <ele>371</ele>
      </trkpt>
      <trkpt lat="43.13137" lon="-0.47586">
        <ele>371</ele>
      </trkpt>
      <trkpt lat="43.131" lon="-0.47576">
        <ele>377</ele>
      </trkpt>
      <trkpt lat="43.13038" lon="-0.47565">
        <ele>379</ele>
      </trkpt>
      <trkpt lat="43.13018" lon="-0.47556">
        <ele>379</ele>
      </trkpt>
      <trkpt lat="43.12971" lon="-0.47568">
        <ele>379</ele>
      </trkpt>
      <trkpt lat="43.12944" lon="-0.47558">
        <ele>378</ele>
      </trkpt>
      <trkpt lat="43.12933" lon="-0.47532">
        <ele>388</ele>
      </trkpt>
      <trkpt lat="43.12936" lon="-0.47519">
        <ele>388</ele>
      </trkpt>
      <trkpt lat="43.12963" lon="-0.47471">
        <ele>387</ele>
      </trkpt>
      <trkpt lat="43.13002" lon="-0.47375">
        <ele>400</ele>
      </trkpt>
      <trkpt lat="43.1302" lon="-0.47343">
        <ele>400</ele>
      </trkpt>
      <trkpt lat="43.13046" lon="-0.47312">
        <ele>394</ele>
      </trkpt>
      <trkpt lat="43.13082" lon="-0.47289">
        <ele>398</ele>
      </trkpt>
      <trkpt lat="43.1312" lon="-0.47259">
        <ele>398</ele>
      </trkpt>
      <trkpt lat="43.13162" lon="-0.47194">
        <ele>390</ele>
      </trkpt>
      <trkpt lat="43.1319" lon="-0.47193">
        <ele>390</ele>
      </trkpt>
      <trkpt lat="43.13227" lon="-0.47184">
        <ele>391</ele>
      </trkpt>
      <trkpt lat="43.13231" lon="-0.47152">
        <ele>391</ele>
      </trkpt>
      <trkpt lat="43.1323" lon="-0.47129">
        <ele>391</ele>
      </trkpt>
      <trkpt lat="43.13222" lon="-0.4711">
        <ele>380</ele>
      </trkpt>
      <trkpt lat="43.13208" lon="-0.47096">
        <ele>380</ele>
      </trkpt>
      <trkpt lat="43.13186" lon="-0.47082">
        <ele>380</ele>
      </trkpt>
      <trkpt lat="43.13171" lon="-0.47078">
        <ele>380</ele>
      </trkpt>
      <trkpt lat="43.13124" lon="-0.47078">
        <ele>384</ele>
      </trkpt>
      <trkpt lat="43.13114" lon="-0.47073">
        <ele>384</ele>
      </trkpt>
      <trkpt lat="43.1308" lon="-0.47023">
        <ele>381</ele>
      </trkpt>
      <trkpt lat="43.13061" lon="-0.46987">
        <ele>381</ele>
      </trkpt>
      <trkpt lat="43.1302" lon="-0.46934">
        <ele>386</ele>
      </trkpt>
      <trkpt lat="43.13009" lon="-0.46912">
        <ele>386</ele>
      </trkpt>
      <trkpt lat="43.12995" lon="-0.46863">
        <ele>388</ele>
      </trkpt>
      <trkpt lat="43.12973" lon="-0.4681">
        <ele>388</ele>
      </trkpt>
      <trkpt lat="43.12963" lon="-0.46796">
        <ele>388</ele>
      </trkpt>
      <trkpt lat="43.12962" lon="-0.46787">
        <ele>390</ele>
      </trkpt>
      <trkpt lat="43.12966" lon="-0.46778">
        <ele>390</ele>
      </trkpt>
      <trkpt lat="43.12966" lon="-0.46753">
        <ele>390</ele>
      </trkpt>
      <trkpt lat="43.1295" lon="-0.46684">
        <ele>391</ele>
      </trkpt>
      <trkpt lat="43.12938" lon="-0.46646">
        <ele>391</ele>
      </trkpt>
      <trkpt lat="43.12928" lon="-0.46635">
        <ele>391</ele>
      </trkpt>
      <trkpt lat="43.12874" lon="-0.46591">
        <ele>397</ele>
      </trkpt>
      <trkpt lat="43.12814" lon="-0.46567">
        <ele>397</ele>
      </trkpt>
      <trkpt lat="43.12715" lon="-0.46583">
        <ele>398</ele>
      </trkpt>
      <trkpt lat="43.12657" lon="-0.46581">
        <ele>402</ele>
      </trkpt>
      <trkpt lat="43.12588" lon="-0.4656">
        <ele>394</ele>
      </trkpt>
      <trkpt lat="43.12548" lon="-0.46543">
        <ele>394</ele>
      </trkpt>
      <trkpt lat="43.12486" lon="-0.46491">
        <ele>398</ele>
      </trkpt>
      <trkpt lat="43.12476" lon="-0.46491">
        <ele>398</ele>
      </trkpt>
      <trkpt lat="43.12468" lon="-0.46513">
        <ele>398</ele>
      </trkpt>
      <trkpt lat="43.12451" lon="-0.46543">
        <ele>399</ele>
      </trkpt>
      <trkpt lat="43.12437" lon="-0.46551">
        <ele>399</ele>
      </trkpt>
      <trkpt lat="43.12432" lon="-0.46546">
        <ele>399</ele>
      </trkpt>
      <trkpt lat="43.12421" lon="-0.46489">
        <ele>408</ele>
      </trkpt>
      <trkpt lat="43.12419" lon="-0.46449">
        <ele>413</ele>
      </trkpt>
      <trkpt lat="43.12436" lon="-0.46369">
        <ele>413</ele>
      </trkpt>
      <trkpt lat="43.12454" lon="-0.46333">
        <ele>413</ele>
      </trkpt>
      <trkpt lat="43.12476" lon="-0.46306">
        <ele>417</ele>
      </trkpt>
      <trkpt lat="43.12491" lon="-0.46273">
        <ele>421</ele>
      </trkpt>
      <trkpt lat="43.12477" lon="-0.46247">
        <ele>421</ele>
      </trkpt>
      <trkpt lat="43.12409" lon="-0.46153">
        <ele>417</ele>
      </trkpt>
      <trkpt lat="43.12369" lon="-0.46092">
        <ele>421</ele>
      </trkpt>
      <trkpt lat="43.12369" lon="-0.46087">
        <ele>421</ele>
      </trkpt>
      <trkpt lat="43.1238" lon="-0.46068">
        <ele>419</ele>
      </trkpt>
      <trkpt lat="43.12382" lon="-0.4605">
        <ele>419</ele>
      </trkpt>
      <trkpt lat="43.12353" lon="-0.4599">
        <ele>427</ele>
      </trkpt>
      <trkpt lat="43.12191" lon="-0.45695">
        <ele>447</ele>
      </trkpt>
      <trkpt lat="43.12186" lon="-0.45694">
        <ele>447</ele>
      </trkpt>
      <trkpt lat="43.12177" lon="-0.45702">
        <ele>447</ele>
      </trkpt>
      <trkpt lat="43.12178" lon="-0.45704">
        <ele>447</ele>
      </trkpt>
      <trkpt lat="43.12165" lon="-0.4571">
        <ele>444</ele>
      </trkpt>
      <trkpt lat="43.12059" lon="-0.45787">
        <ele>442</ele>
      </trkpt>
      <trkpt lat="43.12052" lon="-0.45788">
        <ele>442</ele>
      </trkpt>
      <trkpt lat="43.12045" lon="-0.45785">
        <ele>442</ele>
      </trkpt>
      <trkpt lat="43.11997" lon="-0.45739">
        <ele>438</ele>
      </trkpt>
      <trkpt lat="43.11962" lon="-0.45719">
        <ele>438</ele>
      </trkpt>
      <trkpt lat="43.11949" lon="-0.45708">
        <ele>437</ele>
      </trkpt>
      <trkpt lat="43.11927" lon="-0.45678">
        <ele>437</ele>
      </trkpt>
      <trkpt lat="43.1192" lon="-0.45658">
        <ele>437</ele>
      </trkpt>
      <trkpt lat="43.11909" lon="-0.45612">
        <ele>443</ele>
      </trkpt>
      <trkpt lat="43.11895" lon="-0.45573">
        <ele>443</ele>
      </trkpt>
      <trkpt lat="43.11854" lon="-0.45502">
        <ele>445</ele>
      </trkpt>
      <trkpt lat="43.11831" lon="-0.45533">
        <ele>445</ele>
      </trkpt>
      <trkpt lat="43.11831" lon="-0.4554">
        <ele>445</ele>
      </trkpt>
      <trkpt lat="43.11819" lon="-0.45575">
        <ele>440</ele>
      </trkpt>
      <trkpt lat="43.11784" lon="-0.45631">
        <ele>453</ele>
      </trkpt>
      <trkpt lat="43.11777" lon="-0.45667">
        <ele>453</ele>
      </trkpt>
      <trkpt lat="43.11765" lon="-0.45698">
        <ele>453</ele>
      </trkpt>
      <trkpt lat="43.11746" lon="-0.45712">
        <ele>448</ele>
      </trkpt>
      <trkpt lat="43.1173" lon="-0.45696">
        <ele>453</ele>
      </trkpt>
      <trkpt lat="43.11673" lon="-0.45656">
        <ele>462</ele>
      </trkpt>
      <trkpt lat="43.11648" lon="-0.45647">
        <ele>462</ele>
      </trkpt>
      <trkpt lat="43.11554" lon="-0.45585">
        <ele>476</ele>
      </trkpt>
      <trkpt lat="43.11544" lon="-0.4557">
        <ele>476</ele>
      </trkpt>
      <trkpt lat="43.11544" lon="-0.45566">
        <ele>476</ele>
      </trkpt>
      <trkpt lat="43.11548" lon="-0.45563">
        <ele>476</ele>
      </trkpt>
      <trkpt lat="43.11571" lon="-0.45561">
        <ele>476</ele>
      </trkpt>
      <trkpt lat="43.11605" lon="-0.45541">
        <ele>489</ele>
      </trkpt>
      <trkpt lat="43.11624" lon="-0.45513">
        <ele>489</ele>
      </trkpt>
      <trkpt lat="43.11673" lon="-0.45406">
        <ele>481</ele>
      </trkpt>
      <trkpt lat="43.1168" lon="-0.45373">
        <ele>490</ele>
      </trkpt>
      <trkpt lat="43.11682" lon="-0.45338">
        <ele>490</ele>
      </trkpt>
      <trkpt lat="43.11676" lon="-0.45278">
        <ele>495</ele>
      </trkpt>
      <trkpt lat="43.11682" lon="-0.45224">
        <ele>495</ele>
      </trkpt>
      <trkpt lat="43.11693" lon="-0.45184">
        <ele>500</ele>
      </trkpt>
      <trkpt lat="43.11706" lon="-0.45103">
        <ele>505</ele>
      </trkpt>
      <trkpt lat="43.11754" lon="-0.45051">
        <ele>494</ele>
      </trkpt>
      <trkpt lat="43.11821" lon="-0.45">
        <ele>494</ele>
      </trkpt>
      <trkpt lat="43.11824" lon="-0.44988">
        <ele>494</ele>
      </trkpt>
      <trkpt lat="43.11823" lon="-0.44983">
        <ele>494</ele>
      </trkpt>
      <trkpt lat="43.11812" lon="-0.44968">
        <ele>494</ele>
      </trkpt>
      <trkpt lat="43.11807" lon="-0.44942">
        <ele>496</ele>
      </trkpt>
      <trkpt lat="43.11781" lon="-0.44915">
        <ele>503</ele>
      </trkpt>
      <trkpt lat="43.11707" lon="-0.44897">
        <ele>511</ele>
      </trkpt>
      <trkpt lat="43.11643" lon="-0.44896">
        <ele>511</ele>
      </trkpt>
      <trkpt lat="43.11611" lon="-0.44886">
        <ele>516</ele>
      </trkpt>
      <trkpt lat="43.11504" lon="-0.44905">
        <ele>519</ele>
      </trkpt>
      <trkpt lat="43.11501" lon="-0.44908">
        <ele>519</ele>
      </trkpt>
      <trkpt lat="43.11485" lon="-0.44908">
        <ele>519</ele>
      </trkpt>
      <trkpt lat="43.11462" lon="-0.44899">
        <ele>519</ele>
      </trkpt>
      <trkpt lat="43.11432" lon="-0.44899">
        <ele>499</ele>
      </trkpt>
      <trkpt lat="43.11406" lon="-0.44887">
        <ele>499</ele>
      </trkpt>
      <trkpt lat="43.11388" lon="-0.44869">
        <ele>516</ele>
      </trkpt>
      <trkpt lat="43.11376" lon="-0.4488">
        <ele>499</ele>
      </trkpt>
      <trkpt lat="43.11363" lon="-0.44912">
        <ele>473</ele>
      </trkpt>
      <trkpt lat="43.11364" lon="-0.44949">
        <ele>473</ele>
      </trkpt>
      <trkpt lat="43.11341" lon="-0.4497">
        <ele>463</ele>
      </trkpt>
      <trkpt lat="43.11323" lon="-0.44999">
        <ele>463</ele>
      </trkpt>
      <trkpt lat="43.11307" lon="-0.45008">
        <ele>463</ele>
      </trkpt>
      <trkpt lat="43.11278" lon="-0.45007">
        <ele>449</ele>
      </trkpt>
      <trkpt lat="43.11268" lon="-0.44999">
        <ele>449</ele>
      </trkpt>
      <trkpt lat="43.11238" lon="-0.44946">
        <ele>460</ele>
      </trkpt>
      <trkpt lat="43.11226" lon="-0.4491">
        <ele>460</ele>
      </trkpt>
      <trkpt lat="43.11223" lon="-0.44861">
        <ele>465</ele>
      </trkpt>
      <trkpt lat="43.11208" lon="-0.448">
        <ele>430</ele>
      </trkpt>
      <trkpt lat="43.11195" lon="-0.44704">
        <ele>445</ele>
      </trkpt>
      <trkpt lat="43.112" lon="-0.44674">
        <ele>445</ele>
      </trkpt>
      <trkpt lat="43.11197" lon="-0.4461">
        <ele>447</ele>
      </trkpt>
      <trkpt lat="43.11183" lon="-0.4456">
        <ele>447</ele>
      </trkpt>
      <trkpt lat="43.11185" lon="-0.44542">
        <ele>447</ele>
      </trkpt>
      <trkpt lat="43.11182" lon="-0.44512">
        <ele>454</ele>
      </trkpt>
      <trkpt lat="43.11175" lon="-0.44481">
        <ele>454</ele>
      </trkpt>
      <trkpt lat="43.11141" lon="-0.4437">
        <ele>460</ele>
      </trkpt>
      <trkpt lat="43.11111" lon="-0.44334">
        <ele>451</ele>
      </trkpt>
      <trkpt lat="43.11079" lon="-0.4428">
        <ele>452</ele>
      </trkpt>
      <trkpt lat="43.1106" lon="-0.44264">
        <ele>452</ele>
      </trkpt>
      <trkpt lat="43.11044" lon="-0.44261">
        <ele>452</ele>
      </trkpt>
      <trkpt lat="43.11029" lon="-0.44242">
        <ele>436</ele>
      </trkpt>
      <trkpt lat="43.11006" lon="-0.4423">
        <ele>436</ele>
      </trkpt>
      <trkpt lat="43.10988" lon="-0.442">
        <ele>429</ele>
      </trkpt>
      <trkpt lat="43.10983" lon="-0.44172">
        <ele>429</ele>
      </trkpt>
      <trkpt lat="43.10985" lon="-0.44144">
        <ele>429</ele>
      </trkpt>
      <trkpt lat="43.10983" lon="-0.44098">
        <ele>420</ele>
      </trkpt>
      <trkpt lat="43.10986" lon="-0.44095">
        <ele>420</ele>
      </trkpt>
      <trkpt lat="43.10983" lon="-0.44086">
        <ele>420</ele>
      </trkpt>
      <trkpt lat="43.1098" lon="-0.44021">
        <ele>416</ele>
      </trkpt>
      <trkpt lat="43.10969" lon="-0.43952">
        <ele>408</ele>
      </trkpt>
      <trkpt lat="43.10963" lon="-0.43893">
        <ele>408</ele>
      </trkpt>
      <trkpt lat="43.11024" lon="-0.43783">
        <ele>399</ele>
      </trkpt>
      <trkpt lat="43.11044" lon="-0.4376">
        <ele>397</ele>
      </trkpt>
      <trkpt lat="43.11051" lon="-0.43756">
        <ele>397</ele>
      </trkpt>
      <trkpt lat="43.11073" lon="-0.43759">
        <ele>397</ele>
      </trkpt>
      <trkpt lat="43.11077" lon="-0.43757">
        <ele>397</ele>
      </trkpt>
      <trkpt lat="43.11071" lon="-0.43744">
        <ele>397</ele>
      </trkpt>
      <trkpt lat="43.11052" lon="-0.43734">
        <ele>397</ele>
      </trkpt>
      <trkpt lat="43.11011" lon="-0.43663">
        <ele>402</ele>
      </trkpt>
      <trkpt lat="43.11004" lon="-0.43615">
        <ele>403</ele>
      </trkpt>
      <trkpt lat="43.10998" lon="-0.43601">
        <ele>403</ele>
      </trkpt>
      <trkpt lat="43.10977" lon="-0.43582">
        <ele>403</ele>
      </trkpt>
      <trkpt lat="43.10832" lon="-0.43533">
        <ele>410</ele>
      </trkpt>
      <trkpt lat="43.10794" lon="-0.43536">
        <ele>410</ele>
      </trkpt>
      <trkpt lat="43.1072" lon="-0.43554">
        <ele>416</ele>
      </trkpt>
      <trkpt lat="43.10686" lon="-0.43571">
        <ele>415</ele>
      </trkpt>
      <trkpt lat="43.10619" lon="-0.43572">
        <ele>414</ele>
      </trkpt>
      <trkpt lat="43.10545" lon="-0.43557">
        <ele>414</ele>
      </trkpt>
      <trkpt lat="43.10445" lon="-0.43546">
        <ele>414</ele>
      </trkpt>
      <trkpt lat="43.1039" lon="-0.43535">
        <ele>413</ele>
      </trkpt>
      <trkpt lat="43.10385" lon="-0.43538">
        <ele>413</ele>
      </trkpt>
      <trkpt lat="43.10377" lon="-0.43556">
        <ele>414</ele>
      </trkpt>
      <trkpt lat="43.10346" lon="-0.43669">
        <ele>415</ele>
      </trkpt>
      <trkpt lat="43.10326" lon="-0.43719">
        <ele>415</ele>
      </trkpt>
      <trkpt lat="43.10313" lon="-0.43729">
        <ele>415</ele>
      </trkpt>
      <trkpt lat="43.10277" lon="-0.4374">
        <ele>416</ele>
      </trkpt>
      <trkpt lat="43.10269" lon="-0.43748">
        <ele>416</ele>
      </trkpt>
      <trkpt lat="43.10232" lon="-0.43819">
        <ele>418</ele>
      </trkpt>
      <trkpt lat="43.10203" lon="-0.43847">
        <ele>415</ele>
      </trkpt>
      <trkpt lat="43.10156" lon="-0.43918">
        <ele>416</ele>
      </trkpt>
      <trkpt lat="43.10024" lon="-0.4418">
        <ele>413</ele>
      </trkpt>
      <trkpt lat="43.10019" lon="-0.44201">
        <ele>413</ele>
      </trkpt>
      <trkpt lat="43.10016" lon="-0.44236">
        <ele>411</ele>
      </trkpt>
      <trkpt lat="43.09999" lon="-0.44311">
        <ele>412</ele>
      </trkpt>
      <trkpt lat="43.0999" lon="-0.44324">
        <ele>412</ele>
      </trkpt>
      <trkpt lat="43.09915" lon="-0.44387">
        <ele>414</ele>
      </trkpt>
      <trkpt lat="43.09844" lon="-0.44431">
        <ele>414</ele>
      </trkpt>
      <trkpt lat="43.09821" lon="-0.44442">
        <ele>414</ele>
      </trkpt>
      <trkpt lat="43.09737" lon="-0.44456">
        <ele>416</ele>
      </trkpt>
      <trkpt lat="43.09662" lon="-0.44439">
        <ele>419</ele>
      </trkpt>
      <trkpt lat="43.09642" lon="-0.44438">
        <ele>419</ele>
      </trkpt>
      <trkpt lat="43.09623" lon="-0.44444">
        <ele>419</ele>
      </trkpt>
      <trkpt lat="43.09584" lon="-0.44483">
        <ele>430</ele>
      </trkpt>
      <trkpt lat="43.09577" lon="-0.44487">
        <ele>430</ele>
      </trkpt>
      <trkpt lat="43.0942" lon="-0.44511">
        <ele>425</ele>
      </trkpt>
      <trkpt lat="43.09379" lon="-0.44535">
        <ele>425</ele>
      </trkpt>
      <trkpt lat="43.0928" lon="-0.44602">
        <ele>436</ele>
      </trkpt>
      <trkpt lat="43.09243" lon="-0.44616">
        <ele>436</ele>
      </trkpt>
      <trkpt lat="43.09207" lon="-0.44618">
        <ele>432</ele>
      </trkpt>
      <trkpt lat="43.09168" lon="-0.44642">
        <ele>444</ele>
      </trkpt>
      <trkpt lat="43.09108" lon="-0.44707">
        <ele>437</ele>
      </trkpt>
      <trkpt lat="43.09084" lon="-0.4475">
        <ele>440</ele>
      </trkpt>
      <trkpt lat="43.09076" lon="-0.44786">
        <ele>440</ele>
      </trkpt>
      <trkpt lat="43.09059" lon="-0.4483">
        <ele>452</ele>
      </trkpt>
      <trkpt lat="43.0903" lon="-0.44886">
        <ele>443</ele>
      </trkpt>
      <trkpt lat="43.09017" lon="-0.449">
        <ele>443</ele>
      </trkpt>
      <trkpt lat="43.08934" lon="-0.44951">
        <ele>433</ele>
      </trkpt>
      <trkpt lat="43.0892" lon="-0.44966">
        <ele>451</ele>
      </trkpt>
      <trkpt lat="43.08892" lon="-0.44977">
        <ele>451</ele>
      </trkpt>
      <trkpt lat="43.08869" lon="-0.44975">
        <ele>457</ele>
      </trkpt>
      <trkpt lat="43.08864" lon="-0.44951">
        <ele>439</ele>
      </trkpt>
      <trkpt lat="43.08861" lon="-0.44947">
        <ele>439</ele>
      </trkpt>
      <trkpt lat="43.0883" lon="-0.44944">
        <ele>439</ele>
      </trkpt>
      <trkpt lat="43.08819" lon="-0.44914">
        <ele>439</ele>
      </trkpt>
      <trkpt lat="43.08815" lon="-0.44876">
        <ele>439</ele>
      </trkpt>
      <trkpt lat="43.088" lon="-0.44845">
        <ele>441</ele>
      </trkpt>
      <trkpt lat="43.08786" lon="-0.4483">
        <ele>459</ele>
      </trkpt>
      <trkpt lat="43.0877" lon="-0.4479">
        <ele>451</ele>
      </trkpt>
      <trkpt lat="43.08761" lon="-0.44757">
        <ele>451</ele>
      </trkpt>
      <trkpt lat="43.08756" lon="-0.44637">
        <ele>444</ele>
      </trkpt>
      <trkpt lat="43.08737" lon="-0.44605">
        <ele>442</ele>
      </trkpt>
      <trkpt lat="43.0871" lon="-0.44576">
        <ele>442</ele>
      </trkpt>
      <trkpt lat="43.08692" lon="-0.44499">
        <ele>441</ele>
      </trkpt>
      <trkpt lat="43.0866" lon="-0.44481">
        <ele>441</ele>
      </trkpt>
      <trkpt lat="43.08627" lon="-0.4442">
        <ele>435</ele>
      </trkpt>
      <trkpt lat="43.08606" lon="-0.44354">
        <ele>438</ele>
      </trkpt>
      <trkpt lat="43.086" lon="-0.44355">
        <ele>438</ele>
      </trkpt>
      <trkpt lat="43.08585" lon="-0.44365">
        <ele>438</ele>
      </trkpt>
      <trkpt lat="43.08567" lon="-0.44394">
        <ele>443</ele>
      </trkpt>
      <trkpt lat="43.0856" lon="-0.44423">
        <ele>443</ele>
      </trkpt>
      <trkpt lat="43.08557" lon="-0.44464">
        <ele>458</ele>
      </trkpt>
      <trkpt lat="43.08582" lon="-0.44564">
        <ele>475</ele>
      </trkpt>
      <trkpt lat="43.0859" lon="-0.44583">
        <ele>475</ele>
      </trkpt>
      <trkpt lat="43.08603" lon="-0.4464">
        <ele>498</ele>
      </trkpt>
      <trkpt lat="43.08613" lon="-0.44665">
        <ele>498</ele>
      </trkpt>
      <trkpt lat="43.08639" lon="-0.44695">
        <ele>465</ele>
      </trkpt>
      <trkpt lat="43.08661" lon="-0.44737">
        <ele>484</ele>
      </trkpt>
      <trkpt lat="43.08669" lon="-0.44746">
        <ele>484</ele>
      </trkpt>
      <trkpt lat="43.0868" lon="-0.44768">
        <ele>484</ele>
      </trkpt>
      <trkpt lat="43.08702" lon="-0.44836">
        <ele>511</ele>
      </trkpt>
      <trkpt lat="43.08708" lon="-0.44878">
        <ele>539</ele>
      </trkpt>
      <trkpt lat="43.08715" lon="-0.44901">
        <ele>475</ele>
      </trkpt>
      <trkpt lat="43.08714" lon="-0.4491">
        <ele>475</ele>
      </trkpt>
      <trkpt lat="43.08707" lon="-0.44918">
        <ele>539</ele>
      </trkpt>
      <trkpt lat="43.08697" lon="-0.44908">
        <ele>539</ele>
      </trkpt>
      <trkpt lat="43.08694" lon="-0.44898">
        <ele>539</ele>
      </trkpt>
      <trkpt lat="43.08657" lon="-0.44832">
        <ele>511</ele>
      </trkpt>
      <trkpt lat="43.08643" lon="-0.44812">
        <ele>511</ele>
      </trkpt>
      <trkpt lat="43.08618" lon="-0.44791">
        <ele>517</ele>
      </trkpt>
      <trkpt lat="43.08592" lon="-0.44785">
        <ele>517</ele>
      </trkpt>
      <trkpt lat="43.08575" lon="-0.44777">
        <ele>517</ele>
      </trkpt>
      <trkpt lat="43.08558" lon="-0.44756">
        <ele>517</ele>
      </trkpt>
      <trkpt lat="43.0853" lon="-0.4469">
        <ele>533</ele>
      </trkpt>
      <trkpt lat="43.0852" lon="-0.44674">
        <ele>533</ele>
      </trkpt>
      <trkpt lat="43.08504" lon="-0.44677">
        <ele>533</ele>
      </trkpt>
      <trkpt lat="43.08501" lon="-0.44684">
        <ele>533</ele>
      </trkpt>
      <trkpt lat="43.08503" lon="-0.44693">
        <ele>533</ele>
      </trkpt>
      <trkpt lat="43.08516" lon="-0.44719">
        <ele>547</ele>
      </trkpt>
      <trkpt lat="43.0854" lon="-0.44817">
        <ele>559</ele>
      </trkpt>
      <trkpt lat="43.08542" lon="-0.44846">
        <ele>539</ele>
      </trkpt>
      <trkpt lat="43.08528" lon="-0.44869">
        <ele>559</ele>
      </trkpt>
      <trkpt lat="43.08516" lon="-0.44895">
        <ele>575</ele>
      </trkpt>
      <trkpt lat="43.08517" lon="-0.44913">
        <ele>575</ele>
      </trkpt>
      <trkpt lat="43.08526" lon="-0.4494">
        <ele>575</ele>
      </trkpt>
      <trkpt lat="43.08545" lon="-0.45053">
        <ele>573</ele>
      </trkpt>
      <trkpt lat="43.08553" lon="-0.45078">
        <ele>573</ele>
      </trkpt>
      <trkpt lat="43.0856" lon="-0.45089">
        <ele>573</ele>
      </trkpt>
      <trkpt lat="43.08565" lon="-0.45105">
        <ele>573</ele>
      </trkpt>
      <trkpt lat="43.08579" lon="-0.45128">
        <ele>594</ele>
      </trkpt>
      <trkpt lat="43.08589" lon="-0.45161">
        <ele>594</ele>
      </trkpt>
      <trkpt lat="43.08602" lon="-0.45184">
        <ele>594</ele>
      </trkpt>
      <trkpt lat="43.08631" lon="-0.45248">
        <ele>589</ele>
      </trkpt>
      <trkpt lat="43.08647" lon="-0.45268">
        <ele>589</ele>
      </trkpt>
      <trkpt lat="43.08707" lon="-0.45366">
        <ele>617</ele>
      </trkpt>
      <trkpt lat="43.08722" lon="-0.45382">
        <ele>621</ele>
      </trkpt>
      <trkpt lat="43.08772" lon="-0.45416">
        <ele>621</ele>
      </trkpt>
      <trkpt lat="43.08784" lon="-0.45437">
        <ele>621</ele>
      </trkpt>
      <trkpt lat="43.08787" lon="-0.45466">
        <ele>623</ele>
      </trkpt>
      <trkpt lat="43.08766" lon="-0.45465">
        <ele>623</ele>
      </trkpt>
      <trkpt lat="43.08729" lon="-0.45452">
        <ele>621</ele>
      </trkpt>
      <trkpt lat="43.08722" lon="-0.45452">
        <ele>621</ele>
      </trkpt>
      <trkpt lat="43.08693" lon="-0.45475">
        <ele>625</ele>
      </trkpt>
      <trkpt lat="43.08648" lon="-0.45517">
        <ele>625</ele>
      </trkpt>
      <trkpt lat="43.08633" lon="-0.45556">
        <ele>623</ele>
      </trkpt>
      <trkpt lat="43.08631" lon="-0.45578">
        <ele>623</ele>
      </trkpt>
      <trkpt lat="43.08637" lon="-0.45626">
        <ele>627</ele>
      </trkpt>
      <trkpt lat="43.08636" lon="-0.45648">
        <ele>627</ele>
      </trkpt>
      <trkpt lat="43.08628" lon="-0.4568">
        <ele>627</ele>
      </trkpt>
      <trkpt lat="43.08604" lon="-0.45723">
        <ele>655</ele>
      </trkpt>
      <trkpt lat="43.08596" lon="-0.45759">
        <ele>655</ele>
      </trkpt>
      <trkpt lat="43.08595" lon="-0.45798">
        <ele>660</ele>
      </trkpt>
      <trkpt lat="43.08589" lon="-0.45833">
        <ele>660</ele>
      </trkpt>
      <trkpt lat="43.0859" lon="-0.45846">
        <ele>660</ele>
      </trkpt>
      <trkpt lat="43.08602" lon="-0.45885">
        <ele>678</ele>
      </trkpt>
      <trkpt lat="43.08603" lon="-0.45896">
        <ele>678</ele>
      </trkpt>
      <trkpt lat="43.08618" lon="-0.45932">
        <ele>678</ele>
      </trkpt>
      <trkpt lat="43.08632" lon="-0.45992">
        <ele>663</ele>
      </trkpt>
      <trkpt lat="43.08645" lon="-0.46031">
        <ele>663</ele>
      </trkpt>
      <trkpt lat="43.08654" lon="-0.46044">
        <ele>686</ele>
      </trkpt>
      <trkpt lat="43.08656" lon="-0.46051">
        <ele>686</ele>
      </trkpt>
      <trkpt lat="43.0867" lon="-0.46072">
        <ele>686</ele>
      </trkpt>
      <trkpt lat="43.08676" lon="-0.46093">
        <ele>686</ele>
      </trkpt>
      <trkpt lat="43.08698" lon="-0.46116">
        <ele>686</ele>
      </trkpt>
      <trkpt lat="43.08726" lon="-0.46157">
        <ele>691</ele>
      </trkpt>
      <trkpt lat="43.08737" lon="-0.46179">
        <ele>691</ele>
      </trkpt>
      <trkpt lat="43.08733" lon="-0.46186">
        <ele>691</ele>
      </trkpt>
      <trkpt lat="43.08723" lon="-0.46184">
        <ele>691</ele>
      </trkpt>
      <trkpt lat="43.08719" lon="-0.46187">
        <ele>691</ele>
      </trkpt>
      <trkpt lat="43.08718" lon="-0.46207">
        <ele>691</ele>
      </trkpt>
      <trkpt lat="43.08721" lon="-0.46226">
        <ele>709</ele>
      </trkpt>
      <trkpt lat="43.08714" lon="-0.46246">
        <ele>709</ele>
      </trkpt>
      <trkpt lat="43.08698" lon="-0.46258">
        <ele>721</ele>
      </trkpt>
      <trkpt lat="43.08663" lon="-0.46263">
        <ele>721</ele>
      </trkpt>
      <trkpt lat="43.08635" lon="-0.46252">
        <ele>721</ele>
      </trkpt>
      <trkpt lat="43.08622" lon="-0.46251">
        <ele>749</ele>
      </trkpt>
      <trkpt lat="43.0862" lon="-0.46254">
        <ele>749</ele>
      </trkpt>
      <trkpt lat="43.0862" lon="-0.46266">
        <ele>749</ele>
      </trkpt>
      <trkpt lat="43.08631" lon="-0.4629">
        <ele>721</ele>
      </trkpt>
      <trkpt lat="43.08632" lon="-0.46299">
        <ele>736</ele>
      </trkpt>
      <trkpt lat="43.08641" lon="-0.46316">
        <ele>736</ele>
      </trkpt>
      <trkpt lat="43.08657" lon="-0.46372">
        <ele>736</ele>
      </trkpt>
      <trkpt lat="43.08675" lon="-0.46405">
        <ele>754</ele>
      </trkpt>
      <trkpt lat="43.08687" lon="-0.46444">
        <ele>754</ele>
      </trkpt>
      <trkpt lat="43.08692" lon="-0.46453">
        <ele>754</ele>
      </trkpt>
      <trkpt lat="43.08696" lon="-0.46469">
        <ele>770</ele>
      </trkpt>
      <trkpt lat="43.08695" lon="-0.46498">
        <ele>770</ele>
      </trkpt>
      <trkpt lat="43.08692" lon="-0.46511">
        <ele>770</ele>
      </trkpt>
      <trkpt lat="43.08687" lon="-0.46566">
        <ele>780</ele>
      </trkpt>
      <trkpt lat="43.08677" lon="-0.46611">
        <ele>780</ele>
      </trkpt>
      <trkpt lat="43.08677" lon="-0.46657">
        <ele>787</ele>
      </trkpt>
      <trkpt lat="43.08673" lon="-0.46696">
        <ele>787</ele>
      </trkpt>
      <trkpt lat="43.08677" lon="-0.46745">
        <ele>795</ele>
      </trkpt>
      <trkpt lat="43.08682" lon="-0.46766">
        <ele>795</ele>
      </trkpt>
      <trkpt lat="43.08683" lon="-0.46782">
        <ele>795</ele>
      </trkpt>
      <trkpt lat="43.0869" lon="-0.46808">
        <ele>813</ele>
      </trkpt>
      <trkpt lat="43.08711" lon="-0.4686">
        <ele>794</ele>
      </trkpt>
      <trkpt lat="43.08739" lon="-0.46912">
        <ele>812</ele>
      </trkpt>
      <trkpt lat="43.08753" lon="-0.46949">
        <ele>812</ele>
      </trkpt>
      <trkpt lat="43.08756" lon="-0.46979">
        <ele>830</ele>
      </trkpt>
      <trkpt lat="43.08764" lon="-0.47019">
        <ele>830</ele>
      </trkpt>
      <trkpt lat="43.08776" lon="-0.47041">
        <ele>830</ele>
      </trkpt>
      <trkpt lat="43.08781" lon="-0.4707">
        <ele>853</ele>
      </trkpt>
      <trkpt lat="43.08791" lon="-0.47082">
        <ele>853</ele>
      </trkpt>
      <trkpt lat="43.088" lon="-0.47088">
        <ele>836</ele>
      </trkpt>
      <trkpt lat="43.08799" lon="-0.47091">
        <ele>836</ele>
      </trkpt>
      <trkpt lat="43.08804" lon="-0.47092">
        <ele>836</ele>
      </trkpt>
      <trkpt lat="43.0881" lon="-0.47108">
        <ele>836</ele>
      </trkpt>
      <trkpt lat="43.08816" lon="-0.47153">
        <ele>839</ele>
      </trkpt>
      <trkpt lat="43.08828" lon="-0.47137">
        <ele>839</ele>
      </trkpt>
      <trkpt lat="43.08844" lon="-0.47133">
        <ele>839</ele>
      </trkpt>
      <trkpt lat="43.08882" lon="-0.47112">
        <ele>816</ele>
      </trkpt>
      <trkpt lat="43.089" lon="-0.4709">
        <ele>816</ele>
      </trkpt>
      <trkpt lat="43.08966" lon="-0.47059">
        <ele>786</ele>
      </trkpt>
      <trkpt lat="43.08996" lon="-0.47038">
        <ele>810</ele>
      </trkpt>
      <trkpt lat="43.09023" lon="-0.47024">
        <ele>810</ele>
      </trkpt>
      <trkpt lat="43.09065" lon="-0.47011">
        <ele>773</ele>
      </trkpt>
      <trkpt lat="43.09075" lon="-0.47012">
        <ele>773</ele>
      </trkpt>
      <trkpt lat="43.09073" lon="-0.4702">
        <ele>773</ele>
      </trkpt>
      <trkpt lat="43.09049" lon="-0.47064">
        <ele>752</ele>
      </trkpt>
      <trkpt lat="43.09026" lon="-0.47146">
        <ele>769</ele>
      </trkpt>
      <trkpt lat="43.09016" lon="-0.47209">
        <ele>775</ele>
      </trkpt>
      <trkpt lat="43.09022" lon="-0.47213">
        <ele>775</ele>
      </trkpt>
      <trkpt lat="43.09046" lon="-0.47182">
        <ele>729</ele>
      </trkpt>
      <trkpt lat="43.0906" lon="-0.47169">
        <ele>729</ele>
      </trkpt>
      <trkpt lat="43.09081" lon="-0.47159">
        <ele>729</ele>
      </trkpt>
      <trkpt lat="43.09119" lon="-0.47131">
        <ele>729</ele>
      </trkpt>
      <trkpt lat="43.09163" lon="-0.47113">
        <ele>724</ele>
      </trkpt>
      <trkpt lat="43.09206" lon="-0.47105">
        <ele>724</ele>
      </trkpt>
      <trkpt lat="43.09199" lon="-0.47126">
        <ele>695</ele>
      </trkpt>
      <trkpt lat="43.0916" lon="-0.47194">
        <ele>695</ele>
      </trkpt>
      <trkpt lat="43.09161" lon="-0.47204">
        <ele>695</ele>
      </trkpt>
      <trkpt lat="43.09175" lon="-0.472">
        <ele>695</ele>
      </trkpt>
      <trkpt lat="43.09187" lon="-0.47191">
        <ele>695</ele>
      </trkpt>
      <trkpt lat="43.09244" lon="-0.47182">
        <ele>658</ele>
      </trkpt>
      <trkpt lat="43.0926" lon="-0.47176">
        <ele>658</ele>
      </trkpt>
      <trkpt lat="43.09267" lon="-0.4717">
        <ele>658</ele>
      </trkpt>
      <trkpt lat="43.09271" lon="-0.4717">
        <ele>658</ele>
      </trkpt>
      <trkpt lat="43.09252" lon="-0.47218">
        <ele>643</ele>
      </trkpt>
      <trkpt lat="43.09258" lon="-0.47246">
        <ele>643</ele>
      </trkpt>
      <trkpt lat="43.09269" lon="-0.47245">
        <ele>643</ele>
      </trkpt>
      <trkpt lat="43.09288" lon="-0.47222">
        <ele>643</ele>
      </trkpt>
      <trkpt lat="43.09293" lon="-0.47224">
        <ele>605</ele>
      </trkpt>
      <trkpt lat="43.09294" lon="-0.47234">
        <ele>605</ele>
      </trkpt>
      <trkpt lat="43.09313" lon="-0.47292">
        <ele>611</ele>
      </trkpt>
      <trkpt lat="43.09321" lon="-0.47304">
        <ele>611</ele>
      </trkpt>
      <trkpt lat="43.09325" lon="-0.47305">
        <ele>611</ele>
      </trkpt>
      <trkpt lat="43.09328" lon="-0.4729">
        <ele>605</ele>
      </trkpt>
      <trkpt lat="43.09338" lon="-0.47312">
        <ele>611</ele>
      </trkpt>
      <trkpt lat="43.09358" lon="-0.47341">
        <ele>611</ele>
      </trkpt>
      <trkpt lat="43.09421" lon="-0.47382">
        <ele>588</ele>
      </trkpt>
      <trkpt lat="43.09445" lon="-0.47405">
        <ele>588</ele>
      </trkpt>
      <trkpt lat="43.09469" lon="-0.47445">
        <ele>553</ele>
      </trkpt>
      <trkpt lat="43.0949" lon="-0.47465">
        <ele>576</ele>
      </trkpt>
      <trkpt lat="43.09498" lon="-0.47468">
        <ele>576</ele>
      </trkpt>
      <trkpt lat="43.09498" lon="-0.47464">
        <ele>576</ele>
      </trkpt>
      <trkpt lat="43.09511" lon="-0.4748">
        <ele>576</ele>
      </trkpt>
      <trkpt lat="43.0954" lon="-0.47535">
        <ele>576</ele>
      </trkpt>
      <trkpt lat="43.09585" lon="-0.47612">
        <ele>559</ele>
      </trkpt>
      <trkpt lat="43.09614" lon="-0.47667">
        <ele>589</ele>
      </trkpt>
      <trkpt lat="43.09645" lon="-0.47737">
        <ele>559</ele>
      </trkpt>
      <trkpt lat="43.09655" lon="-0.47765">
        <ele>559</ele>
      </trkpt>
      <trkpt lat="43.09667" lon="-0.47779">
        <ele>559</ele>
      </trkpt>
      <trkpt lat="43.09675" lon="-0.47809">
        <ele>576</ele>
      </trkpt>
      <trkpt lat="43.09683" lon="-0.47828">
        <ele>576</ele>
      </trkpt>
      <trkpt lat="43.09683" lon="-0.47837">
        <ele>576</ele>
      </trkpt>
      <trkpt lat="43.09689" lon="-0.47845">
        <ele>576</ele>
      </trkpt>
      <trkpt lat="43.09701" lon="-0.47904">
        <ele>590</ele>
      </trkpt>
      <trkpt lat="43.09703" lon="-0.47944">
        <ele>590</ele>
      </trkpt>
      <trkpt lat="43.09757" lon="-0.48076">
        <ele>552</ele>
      </trkpt>
      <trkpt lat="43.09766" lon="-0.48119">
        <ele>552</ele>
      </trkpt>
      <trkpt lat="43.09782" lon="-0.48147">
        <ele>566</ele>
      </trkpt>
      <trkpt lat="43.09799" lon="-0.4816">
        <ele>542</ele>
      </trkpt>
      <trkpt lat="43.09807" lon="-0.48171">
        <ele>542</ele>
      </trkpt>
      <trkpt lat="43.09816" lon="-0.48174">
        <ele>542</ele>
      </trkpt>
      <trkpt lat="43.09849" lon="-0.48161">
        <ele>542</ele>
      </trkpt>
      <trkpt lat="43.09855" lon="-0.48153">
        <ele>542</ele>
      </trkpt>
      <trkpt lat="43.09868" lon="-0.48146">
        <ele>542</ele>
      </trkpt>
      <trkpt lat="43.09897" lon="-0.48142">
        <ele>547</ele>
      </trkpt>
      <trkpt lat="43.09965" lon="-0.48152">
        <ele>543</ele>
      </trkpt>
      <trkpt lat="43.09996" lon="-0.48148">
        <ele>543</ele>
      </trkpt>
      <trkpt lat="43.10004" lon="-0.48151">
        <ele>543</ele>
      </trkpt>
      <trkpt lat="43.10008" lon="-0.48149">
        <ele>543</ele>
      </trkpt>
      <trkpt lat="43.10021" lon="-0.48153">
        <ele>543</ele>
      </trkpt>
      <trkpt lat="43.10031" lon="-0.48152">
        <ele>543</ele>
      </trkpt>
      <trkpt lat="43.10047" lon="-0.48156">
        <ele>531</ele>
      </trkpt>
      <trkpt lat="43.10061" lon="-0.48155">
        <ele>531</ele>
      </trkpt>
      <trkpt lat="43.10086" lon="-0.48162">
        <ele>531</ele>
      </trkpt>
      <trkpt lat="43.10087" lon="-0.48167">
        <ele>531</ele>
      </trkpt>
      <trkpt lat="43.10076" lon="-0.48166">
        <ele>531</ele>
      </trkpt>
      <trkpt lat="43.10035" lon="-0.4818">
        <ele>543</ele>
      </trkpt>
      <trkpt lat="43.09925" lon="-0.48167">
        <ele>547</ele>
      </trkpt>
      <trkpt lat="43.09894" lon="-0.48173">
        <ele>547</ele>
      </trkpt>
      <trkpt lat="43.09876" lon="-0.48181">
        <ele>547</ele>
      </trkpt>
      <trkpt lat="43.09864" lon="-0.48199">
        <ele>542</ele>
      </trkpt>
      <trkpt lat="43.09839" lon="-0.48226">
        <ele>568</ele>
      </trkpt>
      <trkpt lat="43.09822" lon="-0.48232">
        <ele>568</ele>
      </trkpt>
      <trkpt lat="43.09818" lon="-0.48242">
        <ele>568</ele>
      </trkpt>
      <trkpt lat="43.09821" lon="-0.48245">
        <ele>568</ele>
      </trkpt>
      <trkpt lat="43.0983" lon="-0.48245">
        <ele>568</ele>
      </trkpt>
      <trkpt lat="43.09869" lon="-0.48223">
        <ele>568</ele>
      </trkpt>
      <trkpt lat="43.09902" lon="-0.48216">
        <ele>582</ele>
      </trkpt>
      <trkpt lat="43.09923" lon="-0.48221">
        <ele>582</ele>
      </trkpt>
      <trkpt lat="43.09989" lon="-0.48251">
        <ele>574</ele>
      </trkpt>
      <trkpt lat="43.10014" lon="-0.48282">
        <ele>574</ele>
      </trkpt>
      <trkpt lat="43.10026" lon="-0.48321">
        <ele>593</ele>
      </trkpt>
      <trkpt lat="43.1003" lon="-0.48372">
        <ele>593</ele>
      </trkpt>
      <trkpt lat="43.10028" lon="-0.48407">
        <ele>598</ele>
      </trkpt>
      <trkpt lat="43.1003" lon="-0.48451">
        <ele>598</ele>
      </trkpt>
      <trkpt lat="43.10038" lon="-0.48509">
        <ele>602</ele>
      </trkpt>
      <trkpt lat="43.10027" lon="-0.4857">
        <ele>609</ele>
      </trkpt>
      <trkpt lat="43.10009" lon="-0.48622">
        <ele>609</ele>
      </trkpt>
      <trkpt lat="43.09982" lon="-0.48644">
        <ele>618</ele>
      </trkpt>
      <trkpt lat="43.09955" lon="-0.48672">
        <ele>626</ele>
      </trkpt>
      <trkpt lat="43.09923" lon="-0.4868">
        <ele>626</ele>
      </trkpt>
      <trkpt lat="43.09895" lon="-0.48679">
        <ele>626</ele>
      </trkpt>
      <trkpt lat="43.09853" lon="-0.48655">
        <ele>643</ele>
      </trkpt>
      <trkpt lat="43.09833" lon="-0.48626">
        <ele>643</ele>
      </trkpt>
      <trkpt lat="43.0982" lon="-0.48619">
        <ele>625</ele>
      </trkpt>
      <trkpt lat="43.09816" lon="-0.48632">
        <ele>643</ele>
      </trkpt>
      <trkpt lat="43.09834" lon="-0.48659">
        <ele>643</ele>
      </trkpt>
      <trkpt lat="43.09853" lon="-0.48719">
        <ele>662</ele>
      </trkpt>
      <trkpt lat="43.09871" lon="-0.48761">
        <ele>662</ele>
      </trkpt>
      <trkpt lat="43.09875" lon="-0.48792">
        <ele>649</ele>
      </trkpt>
      <trkpt lat="43.09882" lon="-0.48809">
        <ele>649</ele>
      </trkpt>
      <trkpt lat="43.09882" lon="-0.48819">
        <ele>649</ele>
      </trkpt>
      <trkpt lat="43.09901" lon="-0.48867">
        <ele>649</ele>
      </trkpt>
      <trkpt lat="43.09901" lon="-0.48873">
        <ele>649</ele>
      </trkpt>
      <trkpt lat="43.09917" lon="-0.4891">
        <ele>663</ele>
      </trkpt>
      <trkpt lat="43.09928" lon="-0.48928">
        <ele>663</ele>
      </trkpt>
      <trkpt lat="43.09956" lon="-0.48955">
        <ele>663</ele>
      </trkpt>
      <trkpt lat="43.09975" lon="-0.48964">
        <ele>683</ele>
      </trkpt>
      <trkpt lat="43.10014" lon="-0.4897">
        <ele>683</ele>
      </trkpt>
      <trkpt lat="43.10049" lon="-0.48958">
        <ele>669</ele>
      </trkpt>
      <trkpt lat="43.10065" lon="-0.48942">
        <ele>669</ele>
      </trkpt>
      <trkpt lat="43.10094" lon="-0.48894">
        <ele>669</ele>
      </trkpt>
      <trkpt lat="43.10109" lon="-0.48886">
        <ele>669</ele>
      </trkpt>
      <trkpt lat="43.10115" lon="-0.48889">
        <ele>669</ele>
      </trkpt>
      <trkpt lat="43.10145" lon="-0.48947">
        <ele>671</ele>
      </trkpt>
      <trkpt lat="43.10164" lon="-0.49049">
        <ele>696</ele>
      </trkpt>
      <trkpt lat="43.10168" lon="-0.49083">
        <ele>696</ele>
      </trkpt>
      <trkpt lat="43.10183" lon="-0.49163">
        <ele>698</ele>
      </trkpt>
      <trkpt lat="43.10188" lon="-0.49209">
        <ele>694</ele>
      </trkpt>
      <trkpt lat="43.10206" lon="-0.49326">
        <ele>687</ele>
      </trkpt>
      <trkpt lat="43.10242" lon="-0.49371">
        <ele>698</ele>
      </trkpt>
      <trkpt lat="43.10263" lon="-0.49412">
        <ele>692</ele>
      </trkpt>
      <trkpt lat="43.10283" lon="-0.49468">
        <ele>693</ele>
      </trkpt>
      <trkpt lat="43.10301" lon="-0.49551">
        <ele>697</ele>
      </trkpt>
      <trkpt lat="43.10312" lon="-0.49616">
        <ele>697</ele>
      </trkpt>
      <trkpt lat="43.10329" lon="-0.49671">
        <ele>698</ele>
      </trkpt>
      <trkpt lat="43.10342" lon="-0.49735">
        <ele>702</ele>
      </trkpt>
      <trkpt lat="43.10341" lon="-0.4974">
        <ele>702</ele>
      </trkpt>
      <trkpt lat="43.10329" lon="-0.49752">
        <ele>702</ele>
      </trkpt>
      <trkpt lat="43.10256" lon="-0.49754">
        <ele>716</ele>
      </trkpt>
      <trkpt lat="43.1021" lon="-0.49795">
        <ele>726</ele>
      </trkpt>
      <trkpt lat="43.10197" lon="-0.49812">
        <ele>733</ele>
      </trkpt>
      <trkpt lat="43.10184" lon="-0.49835">
        <ele>733</ele>
      </trkpt>
      <trkpt lat="43.1018" lon="-0.49847">
        <ele>733</ele>
      </trkpt>
      <trkpt lat="43.10182" lon="-0.49874">
        <ele>733</ele>
      </trkpt>
      <trkpt lat="43.10192" lon="-0.49916">
        <ele>735</ele>
      </trkpt>
      <trkpt lat="43.10195" lon="-0.49968">
        <ele>737</ele>
      </trkpt>
      <trkpt lat="43.10202" lon="-0.49983">
        <ele>737</ele>
      </trkpt>
      <trkpt lat="43.10235" lon="-0.50033">
        <ele>733</ele>
      </trkpt>
      <trkpt lat="43.1026" lon="-0.50104">
        <ele>735</ele>
      </trkpt>
      <trkpt lat="43.10264" lon="-0.50135">
        <ele>734</ele>
      </trkpt>
      <trkpt lat="43.10269" lon="-0.50142">
        <ele>734</ele>
      </trkpt>
      <trkpt lat="43.10271" lon="-0.50173">
        <ele>734</ele>
      </trkpt>
      <trkpt lat="43.1028" lon="-0.50198">
        <ele>734</ele>
      </trkpt>
      <trkpt lat="43.10281" lon="-0.5021">
        <ele>733</ele>
      </trkpt>
      <trkpt lat="43.10307" lon="-0.50272">
        <ele>733</ele>
      </trkpt>
      <trkpt lat="43.10325" lon="-0.50327">
        <ele>733</ele>
      </trkpt>
      <trkpt lat="43.10334" lon="-0.50379">
        <ele>733</ele>
      </trkpt>
      <trkpt lat="43.10349" lon="-0.50435">
        <ele>733</ele>
      </trkpt>
      <trkpt lat="43.10354" lon="-0.50494">
        <ele>732</ele>
      </trkpt>
      <trkpt lat="43.1036" lon="-0.50523">
        <ele>732</ele>
      </trkpt>
      <trkpt lat="43.10392" lon="-0.50583">
        <ele>737</ele>
      </trkpt>
      <trkpt lat="43.10424" lon="-0.50664">
        <ele>733</ele>
      </trkpt>
      <trkpt lat="43.10438" lon="-0.50714">
        <ele>728</ele>
      </trkpt>
      <trkpt lat="43.10441" lon="-0.50756">
        <ele>728</ele>
      </trkpt>
      <trkpt lat="43.10437" lon="-0.50817">
        <ele>722</ele>
      </trkpt>
      <trkpt lat="43.1044" lon="-0.50837">
        <ele>722</ele>
      </trkpt>
      <trkpt lat="43.1046" lon="-0.50893">
        <ele>716</ele>
      </trkpt>
      <trkpt lat="43.10462" lon="-0.50905">
        <ele>716</ele>
      </trkpt>
      <trkpt lat="43.10464" lon="-0.50988">
        <ele>710</ele>
      </trkpt>
      <trkpt lat="43.10467" lon="-0.50998">
        <ele>710</ele>
      </trkpt>
      <trkpt lat="43.10487" lon="-0.51036">
        <ele>710</ele>
      </trkpt>
      <trkpt lat="43.10502" lon="-0.51051">
        <ele>702</ele>
      </trkpt>
      <trkpt lat="43.10512" lon="-0.51055">
        <ele>702</ele>
      </trkpt>
      <trkpt lat="43.1053" lon="-0.51053">
        <ele>702</ele>
      </trkpt>
      <trkpt lat="43.10543" lon="-0.51072">
        <ele>695</ele>
      </trkpt>
      <trkpt lat="43.10556" lon="-0.51146">
        <ele>698</ele>
      </trkpt>
      <trkpt lat="43.10585" lon="-0.51199">
        <ele>698</ele>
      </trkpt>
      <trkpt lat="43.10606" lon="-0.51255">
        <ele>695</ele>
      </trkpt>
      <trkpt lat="43.10629" lon="-0.51302">
        <ele>691</ele>
      </trkpt>
      <trkpt lat="43.10643" lon="-0.5132">
        <ele>691</ele>
      </trkpt>
      <trkpt lat="43.10658" lon="-0.51333">
        <ele>691</ele>
      </trkpt>
      <trkpt lat="43.10671" lon="-0.51351">
        <ele>691</ele>
      </trkpt>
      <trkpt lat="43.1068" lon="-0.51377">
        <ele>687</ele>
      </trkpt>
      <trkpt lat="43.10696" lon="-0.51412">
        <ele>687</ele>
      </trkpt>
      <trkpt lat="43.10718" lon="-0.51438">
        <ele>683</ele>
      </trkpt>
      <trkpt lat="43.1073" lon="-0.51467">
        <ele>686</ele>
      </trkpt>
      <trkpt lat="43.10736" lon="-0.5149">
        <ele>686</ele>
      </trkpt>
      <trkpt lat="43.10736" lon="-0.51516">
        <ele>686</ele>
      </trkpt>
      <trkpt lat="43.10743" lon="-0.51543">
        <ele>681</ele>
      </trkpt>
      <trkpt lat="43.1076" lon="-0.51587">
        <ele>681</ele>
      </trkpt>
      <trkpt lat="43.10777" lon="-0.51661">
        <ele>669</ele>
      </trkpt>
      <trkpt lat="43.10779" lon="-0.51687">
        <ele>669</ele>
      </trkpt>
      <trkpt lat="43.10795" lon="-0.51731">
        <ele>656</ele>
      </trkpt>
      <trkpt lat="43.10803" lon="-0.51786">
        <ele>656</ele>
      </trkpt>
      <trkpt lat="43.1081" lon="-0.51811">
        <ele>645</ele>
      </trkpt>
      <trkpt lat="43.10822" lon="-0.51833">
        <ele>645</ele>
      </trkpt>
      <trkpt lat="43.10829" lon="-0.51855">
        <ele>645</ele>
      </trkpt>
      <trkpt lat="43.10853" lon="-0.51905">
        <ele>630</ele>
      </trkpt>
      <trkpt lat="43.10858" lon="-0.51927">
        <ele>630</ele>
      </trkpt>
      <trkpt lat="43.10859" lon="-0.51982">
        <ele>613</ele>
      </trkpt>
      <trkpt lat="43.10881" lon="-0.52077">
        <ele>592</ele>
      </trkpt>
      <trkpt lat="43.10887" lon="-0.5209">
        <ele>592</ele>
      </trkpt>
      <trkpt lat="43.10894" lon="-0.52121">
        <ele>592</ele>
      </trkpt>
      <trkpt lat="43.10893" lon="-0.52167">
        <ele>577</ele>
      </trkpt>
      <trkpt lat="43.10896" lon="-0.52174">
        <ele>577</ele>
      </trkpt>
      <trkpt lat="43.109" lon="-0.52175">
        <ele>577</ele>
      </trkpt>
      <trkpt lat="43.10898" lon="-0.52174">
        <ele>577</ele>
      </trkpt>
      <trkpt lat="43.109" lon="-0.52174">
        <ele>577</ele>
      </trkpt>
      <trkpt lat="43.10899" lon="-0.5218">
        <ele>577</ele>
      </trkpt>
      <trkpt lat="43.10922" lon="-0.52164">
        <ele>577</ele>
      </trkpt>
      <trkpt lat="43.10933" lon="-0.52133">
        <ele>577</ele>
      </trkpt>
      <trkpt lat="43.11001" lon="-0.51981">
        <ele>570</ele>
      </trkpt>
      <trkpt lat="43.11043" lon="-0.51902">
        <ele>547</ele>
      </trkpt>
      <trkpt lat="43.11065" lon="-0.51851">
        <ele>549</ele>
      </trkpt>
      <trkpt lat="43.11084" lon="-0.51797">
        <ele>549</ele>
      </trkpt>
      <trkpt lat="43.1109" lon="-0.5175">
        <ele>550</ele>
      </trkpt>
      <trkpt lat="43.11082" lon="-0.51735">
        <ele>550</ele>
      </trkpt>
      <trkpt lat="43.11059" lon="-0.51721">
        <ele>550</ele>
      </trkpt>
      <trkpt lat="43.11056" lon="-0.51705">
        <ele>549</ele>
      </trkpt>
      <trkpt lat="43.11078" lon="-0.51654">
        <ele>549</ele>
      </trkpt>
      <trkpt lat="43.11085" lon="-0.51614">
        <ele>548</ele>
      </trkpt>
      <trkpt lat="43.11083" lon="-0.51605">
        <ele>548</ele>
      </trkpt>
      <trkpt lat="43.11051" lon="-0.51576">
        <ele>548</ele>
      </trkpt>
      <trkpt lat="43.11044" lon="-0.51563">
        <ele>548</ele>
      </trkpt>
      <trkpt lat="43.11039" lon="-0.51541">
        <ele>587</ele>
      </trkpt>
      <trkpt lat="43.11044" lon="-0.51507">
        <ele>554</ele>
      </trkpt>
      <trkpt lat="43.11052" lon="-0.51482">
        <ele>554</ele>
      </trkpt>
      <trkpt lat="43.11069" lon="-0.51394">
        <ele>559</ele>
      </trkpt>
      <trkpt lat="43.11082" lon="-0.51357">
        <ele>559</ele>
      </trkpt>
      <trkpt lat="43.11099" lon="-0.51324">
        <ele>559</ele>
      </trkpt>
      <trkpt lat="43.11113" lon="-0.51306">
        <ele>559</ele>
      </trkpt>
      <trkpt lat="43.11117" lon="-0.51294">
        <ele>559</ele>
      </trkpt>
      <trkpt lat="43.11149" lon="-0.51241">
        <ele>543</ele>
      </trkpt>
      <trkpt lat="43.11176" lon="-0.51163">
        <ele>526</ele>
      </trkpt>
      <trkpt lat="43.11175" lon="-0.51104">
        <ele>507</ele>
      </trkpt>
      <trkpt lat="43.11177" lon="-0.51063">
        <ele>507</ele>
      </trkpt>
      <trkpt lat="43.11183" lon="-0.51034">
        <ele>489</ele>
      </trkpt>
      <trkpt lat="43.11222" lon="-0.50943">
        <ele>474</ele>
      </trkpt>
      <trkpt lat="43.11241" lon="-0.50923">
        <ele>474</ele>
      </trkpt>
      <trkpt lat="43.11281" lon="-0.50921">
        <ele>474</ele>
      </trkpt>
      <trkpt lat="43.11295" lon="-0.5093">
        <ele>454</ele>
      </trkpt>
      <trkpt lat="43.11307" lon="-0.50973">
        <ele>468</ele>
      </trkpt>
      <trkpt lat="43.11295" lon="-0.51021">
        <ele>468</ele>
      </trkpt>
      <trkpt lat="43.11296" lon="-0.51029">
        <ele>468</ele>
      </trkpt>
      <trkpt lat="43.11347" lon="-0.51019">
        <ele>468</ele>
      </trkpt>
      <trkpt lat="43.11372" lon="-0.5103">
        <ele>468</ele>
      </trkpt>
      <trkpt lat="43.11393" lon="-0.51018">
        <ele>452</ele>
      </trkpt>
      <trkpt lat="43.11406" lon="-0.51005">
        <ele>452</ele>
      </trkpt>
      <trkpt lat="43.11437" lon="-0.50996">
        <ele>452</ele>
      </trkpt>
      <trkpt lat="43.11453" lon="-0.50985">
        <ele>452</ele>
      </trkpt>
      <trkpt lat="43.11468" lon="-0.50969">
        <ele>459</ele>
      </trkpt>
      <trkpt lat="43.11495" lon="-0.50954">
        <ele>434</ele>
      </trkpt>
      <trkpt lat="43.11511" lon="-0.50937">
        <ele>434</ele>
      </trkpt>
      <trkpt lat="43.11542" lon="-0.50927">
        <ele>424</ele>
      </trkpt>
      <trkpt lat="43.11574" lon="-0.5093">
        <ele>424</ele>
      </trkpt>
      <trkpt lat="43.11592" lon="-0.5096">
        <ele>454</ele>
      </trkpt>
      <trkpt lat="43.11605" lon="-0.50965">
        <ele>454</ele>
      </trkpt>
      <trkpt lat="43.11633" lon="-0.50945">
        <ele>409</ele>
      </trkpt>
      <trkpt lat="43.11655" lon="-0.50939">
        <ele>409</ele>
      </trkpt>
      <trkpt lat="43.11675" lon="-0.50926">
        <ele>409</ele>
      </trkpt>
      <trkpt lat="43.11698" lon="-0.50905">
        <ele>409</ele>
      </trkpt>
      <trkpt lat="43.11768" lon="-0.50874">
        <ele>389</ele>
      </trkpt>
      <trkpt lat="43.11871" lon="-0.50812">
        <ele>391</ele>
      </trkpt>
      <trkpt lat="43.11894" lon="-0.50794">
        <ele>379</ele>
      </trkpt>
      <trkpt lat="43.11907" lon="-0.50775">
        <ele>370</ele>
      </trkpt>
      <trkpt lat="43.11938" lon="-0.50747">
        <ele>370</ele>
      </trkpt>
      <trkpt lat="43.11955" lon="-0.50723">
        <ele>370</ele>
      </trkpt>
      <trkpt lat="43.11979" lon="-0.50698">
        <ele>362</ele>
      </trkpt>
      <trkpt lat="43.12" lon="-0.50682">
        <ele>362</ele>
      </trkpt>
      <trkpt lat="43.12008" lon="-0.5067">
        <ele>362</ele>
      </trkpt>
      <trkpt lat="43.12022" lon="-0.50637">
        <ele>362</ele>
      </trkpt>
      <trkpt lat="43.12066" lon="-0.50578">
        <ele>360</ele>
      </trkpt>
      <trkpt lat="43.12152" lon="-0.50489">
        <ele>351</ele>
      </trkpt>
      <trkpt lat="43.12182" lon="-0.50448">
        <ele>348</ele>
      </trkpt>
      <trkpt lat="43.12205" lon="-0.5031">
        <ele>338</ele>
      </trkpt>
      <trkpt lat="43.12211" lon="-0.50304">
        <ele>339</ele>
      </trkpt>
      <trkpt lat="43.12213" lon="-0.50306">
        <ele>339</ele>
      </trkpt>
      <trkpt lat="43.12212" lon="-0.50304">
        <ele>339</ele>
      </trkpt>
      <trkpt lat="43.12209" lon="-0.50307">
        <ele>339</ele>
      </trkpt>
      <trkpt lat="43.12212" lon="-0.50305">
        <ele>339</ele>
      </trkpt>
      <trkpt lat="43.1221" lon="-0.50306">
        <ele>339</ele>
      </trkpt>
      <trkpt lat="43.12214" lon="-0.50302">
        <ele>339</ele>
      </trkpt>
      <trkpt lat="43.12212" lon="-0.503">
        <ele>339</ele>
      </trkpt>
      <trkpt lat="43.12215" lon="-0.50302">
        <ele>339</ele>
      </trkpt>
      <trkpt lat="43.12211" lon="-0.50299">
        <ele>339</ele>
      </trkpt>
      <trkpt lat="43.12212" lon="-0.50296">
        <ele>339</ele>
      </trkpt>
      <trkpt lat="43.12213" lon="-0.50303">
        <ele>339</ele>
      </trkpt>
      <trkpt lat="43.12215" lon="-0.50303">
        <ele>339</ele>
      </trkpt>
      <trkpt lat="43.12211" lon="-0.50307">
        <ele>339</ele>
      </trkpt>
      <trkpt lat="43.12244" lon="-0.50304">
        <ele>339</ele>
      </trkpt>
      <trkpt lat="43.1227" lon="-0.50315">
        <ele>339</ele>
      </trkpt>
      <trkpt lat="43.1228" lon="-0.50302">
        <ele>339</ele>
      </trkpt>
      <trkpt lat="43.1228" lon="-0.50304">
        <ele>339</ele>
      </trkpt>
      <trkpt lat="43.12282" lon="-0.50301">
        <ele>339</ele>
      </trkpt>
      <trkpt lat="43.12317" lon="-0.50314">
        <ele>323</ele>
      </trkpt>
      <trkpt lat="43.12334" lon="-0.50326">
        <ele>323</ele>
      </trkpt>
      <trkpt lat="43.12351" lon="-0.50348">
        <ele>323</ele>
      </trkpt>
      <trkpt lat="43.12354" lon="-0.50368">
        <ele>323</ele>
      </trkpt>
      <trkpt lat="43.12342" lon="-0.50396">
        <ele>332</ele>
      </trkpt>
      <trkpt lat="43.12342" lon="-0.50404">
        <ele>332</ele>
      </trkpt>
      <trkpt lat="43.12348" lon="-0.50406">
        <ele>332</ele>
      </trkpt>
      <trkpt lat="43.12355" lon="-0.50403">
        <ele>332</ele>
      </trkpt>
      <trkpt lat="43.12381" lon="-0.50418">
        <ele>314</ele>
      </trkpt>
      <trkpt lat="43.12394" lon="-0.50438">
        <ele>314</ele>
      </trkpt>
      <trkpt lat="43.12402" lon="-0.50456">
        <ele>314</ele>
      </trkpt>
      <trkpt lat="43.12399" lon="-0.50443">
        <ele>314</ele>
      </trkpt>
      <trkpt lat="43.12412" lon="-0.50437">
        <ele>314</ele>
      </trkpt>
      <trkpt lat="43.12439" lon="-0.50461">
        <ele>324</ele>
      </trkpt>
      <trkpt lat="43.12463" lon="-0.50493">
        <ele>310</ele>
      </trkpt>
      <trkpt lat="43.12467" lon="-0.50509">
        <ele>310</ele>
      </trkpt>
      <trkpt lat="43.12477" lon="-0.50528">
        <ele>310</ele>
      </trkpt>
      <trkpt lat="43.12532" lon="-0.5059">
        <ele>315</ele>
      </trkpt>
      <trkpt lat="43.12561" lon="-0.50616">
        <ele>307</ele>
      </trkpt>
      <trkpt lat="43.12621" lon="-0.50698">
        <ele>310</ele>
      </trkpt>
      <trkpt lat="43.12628" lon="-0.50711">
        <ele>301</ele>
      </trkpt>
      <trkpt lat="43.12642" lon="-0.50728">
        <ele>301</ele>
      </trkpt>
      <trkpt lat="43.12652" lon="-0.50765">
        <ele>301</ele>
      </trkpt>
      <trkpt lat="43.12646" lon="-0.50802">
        <ele>302</ele>
      </trkpt>
      <trkpt lat="43.12637" lon="-0.50818">
        <ele>302</ele>
      </trkpt>
      <trkpt lat="43.12627" lon="-0.5088">
        <ele>301</ele>
      </trkpt>
      <trkpt lat="43.12614" lon="-0.5091">
        <ele>306</ele>
      </trkpt>
      <trkpt lat="43.12597" lon="-0.50928">
        <ele>306</ele>
      </trkpt>
      <trkpt lat="43.12587" lon="-0.50953">
        <ele>306</ele>
      </trkpt>
      <trkpt lat="43.12575" lon="-0.50972">
        <ele>306</ele>
      </trkpt>
      <trkpt lat="43.12529" lon="-0.50973">
        <ele>316</ele>
      </trkpt>
      <trkpt lat="43.12514" lon="-0.51006">
        <ele>316</ele>
      </trkpt>
      <trkpt lat="43.12511" lon="-0.51035">
        <ele>316</ele>
      </trkpt>
      <trkpt lat="43.12513" lon="-0.51049">
        <ele>326</ele>
      </trkpt>
      <trkpt lat="43.1252" lon="-0.51068">
        <ele>326</ele>
      </trkpt>
      <trkpt lat="43.12524" lon="-0.51093">
        <ele>326</ele>
      </trkpt>
      <trkpt lat="43.12523" lon="-0.511">
        <ele>326</ele>
      </trkpt>
      <trkpt lat="43.12544" lon="-0.51164">
        <ele>311</ele>
      </trkpt>
      <trkpt lat="43.12543" lon="-0.51183">
        <ele>311</ele>
      </trkpt>
      <trkpt lat="43.12547" lon="-0.51209">
        <ele>321</ele>
      </trkpt>
      <trkpt lat="43.12552" lon="-0.51222">
        <ele>321</ele>
      </trkpt>
      <trkpt lat="43.12572" lon="-0.51223">
        <ele>321</ele>
      </trkpt>
      <trkpt lat="43.12577" lon="-0.51228">
        <ele>321</ele>
      </trkpt>
      <trkpt lat="43.12585" lon="-0.51226">
        <ele>321</ele>
      </trkpt>
      <trkpt lat="43.12589" lon="-0.5123">
        <ele>321</ele>
      </trkpt>
      <trkpt lat="43.1259" lon="-0.51238">
        <ele>321</ele>
      </trkpt>
      <trkpt lat="43.12615" lon="-0.51254">
        <ele>321</ele>
      </trkpt>
      <trkpt lat="43.12632" lon="-0.51259">
        <ele>307</ele>
      </trkpt>
      <trkpt lat="43.12639" lon="-0.51264">
        <ele>307</ele>
      </trkpt>
      <trkpt lat="43.12652" lon="-0.51312">
        <ele>320</ele>
      </trkpt>
      <trkpt lat="43.12664" lon="-0.51343">
        <ele>320</ele>
      </trkpt>
      <trkpt lat="43.12679" lon="-0.51351">
        <ele>320</ele>
      </trkpt>
      <trkpt lat="43.12704" lon="-0.51357">
        <ele>320</ele>
      </trkpt>
      <trkpt lat="43.1271" lon="-0.51371">
        <ele>307</ele>
      </trkpt>
      <trkpt lat="43.1271" lon="-0.51382">
        <ele>314</ele>
      </trkpt>
      <trkpt lat="43.12714" lon="-0.51392">
        <ele>314</ele>
      </trkpt>
      <trkpt lat="43.12728" lon="-0.51411">
        <ele>314</ele>
      </trkpt>
      <trkpt lat="43.12733" lon="-0.51422">
        <ele>314</ele>
      </trkpt>
      <trkpt lat="43.12731" lon="-0.51433">
        <ele>314</ele>
      </trkpt>
      <trkpt lat="43.12774" lon="-0.5148">
        <ele>319</ele>
      </trkpt>
      <trkpt lat="43.12791" lon="-0.51506">
        <ele>319</ele>
      </trkpt>
      <trkpt lat="43.1282" lon="-0.51533">
        <ele>300</ele>
      </trkpt>
      <trkpt lat="43.12867" lon="-0.51603">
        <ele>311</ele>
      </trkpt>
      <trkpt lat="43.12904" lon="-0.51625">
        <ele>294</ele>
      </trkpt>
      <trkpt lat="43.12926" lon="-0.51678">
        <ele>302</ele>
      </trkpt>
      <trkpt lat="43.1292" lon="-0.5174">
        <ele>304</ele>
      </trkpt>
      <trkpt lat="43.12904" lon="-0.51806">
        <ele>300</ele>
      </trkpt>
      <trkpt lat="43.12889" lon="-0.51842">
        <ele>300</ele>
      </trkpt>
      <trkpt lat="43.12881" lon="-0.51854">
        <ele>300</ele>
      </trkpt>
      <trkpt lat="43.1288" lon="-0.51903">
        <ele>301</ele>
      </trkpt>
      <trkpt lat="43.12883" lon="-0.51919">
        <ele>301</ele>
      </trkpt>
      <trkpt lat="43.12897" lon="-0.51952">
        <ele>301</ele>
      </trkpt>
      <trkpt lat="43.1291" lon="-0.52007">
        <ele>313</ele>
      </trkpt>
      <trkpt lat="43.12928" lon="-0.52059">
        <ele>325</ele>
      </trkpt>
      <trkpt lat="43.12967" lon="-0.52129">
        <ele>324</ele>
      </trkpt>
      <trkpt lat="43.12986" lon="-0.52182">
        <ele>324</ele>
      </trkpt>
      <trkpt lat="43.13042" lon="-0.5227">
        <ele>301</ele>
      </trkpt>
      <trkpt lat="43.13054" lon="-0.52303">
        <ele>301</ele>
      </trkpt>
      <trkpt lat="43.13053" lon="-0.5232">
        <ele>301</ele>
      </trkpt>
      <trkpt lat="43.13036" lon="-0.52354">
        <ele>317</ele>
      </trkpt>
      <trkpt lat="43.13033" lon="-0.52366">
        <ele>317</ele>
      </trkpt>
      <trkpt lat="43.13039" lon="-0.52388">
        <ele>309</ele>
      </trkpt>
      <trkpt lat="43.13047" lon="-0.52399">
        <ele>302</ele>
      </trkpt>
      <trkpt lat="43.1308" lon="-0.52411">
        <ele>302</ele>
      </trkpt>
      <trkpt lat="43.13089" lon="-0.52419">
        <ele>302</ele>
      </trkpt>
      <trkpt lat="43.13144" lon="-0.5244">
        <ele>291</ele>
      </trkpt>
      <trkpt lat="43.13174" lon="-0.52458">
        <ele>291</ele>
      </trkpt>
      <trkpt lat="43.13196" lon="-0.52477">
        <ele>301</ele>
      </trkpt>
      <trkpt lat="43.13216" lon="-0.52501">
        <ele>287</ele>
      </trkpt>
      <trkpt lat="43.13245" lon="-0.52549">
        <ele>294</ele>
      </trkpt>
      <trkpt lat="43.1325" lon="-0.52601">
        <ele>294</ele>
      </trkpt>
      <trkpt lat="43.13247" lon="-0.5263">
        <ele>297</ele>
      </trkpt>
      <trkpt lat="43.13249" lon="-0.52659">
        <ele>297</ele>
      </trkpt>
      <trkpt lat="43.13243" lon="-0.52671">
        <ele>297</ele>
      </trkpt>
      <trkpt lat="43.13226" lon="-0.52739">
        <ele>300</ele>
      </trkpt>
      <trkpt lat="43.13224" lon="-0.52772">
        <ele>300</ele>
      </trkpt>
      <trkpt lat="43.13225" lon="-0.52803">
        <ele>307</ele>
      </trkpt>
      <trkpt lat="43.13188" lon="-0.52884">
        <ele>315</ele>
      </trkpt>
      <trkpt lat="43.13181" lon="-0.52915">
        <ele>315</ele>
      </trkpt>
      <trkpt lat="43.13171" lon="-0.52943">
        <ele>315</ele>
      </trkpt>
      <trkpt lat="43.13167" lon="-0.52962">
        <ele>321</ele>
      </trkpt>
      <trkpt lat="43.1315" lon="-0.52997">
        <ele>321</ele>
      </trkpt>
      <trkpt lat="43.13136" lon="-0.53015">
        <ele>321</ele>
      </trkpt>
      <trkpt lat="43.1304" lon="-0.53165">
        <ele>326</ele>
      </trkpt>
      <trkpt lat="43.13023" lon="-0.53197">
        <ele>326</ele>
      </trkpt>
      <trkpt lat="43.12982" lon="-0.53259">
        <ele>334</ele>
      </trkpt>
      <trkpt lat="43.12942" lon="-0.53301">
        <ele>337</ele>
      </trkpt>
      <trkpt lat="43.12914" lon="-0.53325">
        <ele>337</ele>
      </trkpt>
      <trkpt lat="43.12887" lon="-0.53343">
        <ele>337</ele>
      </trkpt>
      <trkpt lat="43.12822" lon="-0.53372">
        <ele>339</ele>
      </trkpt>
      <trkpt lat="43.12786" lon="-0.53395">
        <ele>352</ele>
      </trkpt>
      <trkpt lat="43.12738" lon="-0.53445">
        <ele>352</ele>
      </trkpt>
      <trkpt lat="43.12719" lon="-0.53474">
        <ele>351</ele>
      </trkpt>
      <trkpt lat="43.12701" lon="-0.5351">
        <ele>366</ele>
      </trkpt>
      <trkpt lat="43.12689" lon="-0.5352">
        <ele>366</ele>
      </trkpt>
      <trkpt lat="43.12685" lon="-0.53481">
        <ele>366</ele>
      </trkpt>
      <trkpt lat="43.12668" lon="-0.5344">
        <ele>367</ele>
      </trkpt>
      <trkpt lat="43.12645" lon="-0.53408">
        <ele>367</ele>
      </trkpt>
      <trkpt lat="43.12606" lon="-0.53366">
        <ele>374</ele>
      </trkpt>
      <trkpt lat="43.12583" lon="-0.5335">
        <ele>374</ele>
      </trkpt>
      <trkpt lat="43.12549" lon="-0.53353">
        <ele>374</ele>
      </trkpt>
      <trkpt lat="43.12534" lon="-0.53368">
        <ele>370</ele>
      </trkpt>
      <trkpt lat="43.12511" lon="-0.53444">
        <ele>374</ele>
      </trkpt>
      <trkpt lat="43.1251" lon="-0.53468">
        <ele>381</ele>
      </trkpt>
      <trkpt lat="43.12514" lon="-0.53536">
        <ele>381</ele>
      </trkpt>
      <trkpt lat="43.12499" lon="-0.53596">
        <ele>387</ele>
      </trkpt>
      <trkpt lat="43.12491" lon="-0.537">
        <ele>392</ele>
      </trkpt>
      <trkpt lat="43.12491" lon="-0.53747">
        <ele>397</ele>
      </trkpt>
      <trkpt lat="43.12486" lon="-0.53777">
        <ele>397</ele>
      </trkpt>
      <trkpt lat="43.12496" lon="-0.53821">
        <ele>407</ele>
      </trkpt>
      <trkpt lat="43.1251" lon="-0.53851">
        <ele>407</ele>
      </trkpt>
      <trkpt lat="43.12513" lon="-0.53879">
        <ele>414</ele>
      </trkpt>
      <trkpt lat="43.12506" lon="-0.53931">
        <ele>414</ele>
      </trkpt>
      <trkpt lat="43.12499" lon="-0.53963">
        <ele>416</ele>
      </trkpt>
      <trkpt lat="43.12497" lon="-0.53999">
        <ele>416</ele>
      </trkpt>
      <trkpt lat="43.12487" lon="-0.54015">
        <ele>416</ele>
      </trkpt>
      <trkpt lat="43.12486" lon="-0.54">
        <ele>416</ele>
      </trkpt>
      <trkpt lat="43.12476" lon="-0.53974">
        <ele>416</ele>
      </trkpt>
      <trkpt lat="43.12439" lon="-0.53927">
        <ele>425</ele>
      </trkpt>
      <trkpt lat="43.12422" lon="-0.53911">
        <ele>425</ele>
      </trkpt>
      <trkpt lat="43.12415" lon="-0.53909">
        <ele>425</ele>
      </trkpt>
      <trkpt lat="43.12387" lon="-0.53912">
        <ele>425</ele>
      </trkpt>
      <trkpt lat="43.12337" lon="-0.53946">
        <ele>427</ele>
      </trkpt>
      <trkpt lat="43.12319" lon="-0.5394">
        <ele>427</ele>
      </trkpt>
      <trkpt lat="43.1227" lon="-0.53907">
        <ele>431</ele>
      </trkpt>
      <trkpt lat="43.12241" lon="-0.53894">
        <ele>431</ele>
      </trkpt>
      <trkpt lat="43.12204" lon="-0.5387">
        <ele>431</ele>
      </trkpt>
      <trkpt lat="43.12196" lon="-0.53875">
        <ele>431</ele>
      </trkpt>
      <trkpt lat="43.12168" lon="-0.5387">
        <ele>431</ele>
      </trkpt>
      <trkpt lat="43.12143" lon="-0.5386">
        <ele>431</ele>
      </trkpt>
      <trkpt lat="43.12127" lon="-0.53848">
        <ele>431</ele>
      </trkpt>
      <trkpt lat="43.12108" lon="-0.53842">
        <ele>443</ele>
      </trkpt>
      <trkpt lat="43.12084" lon="-0.53845">
        <ele>443</ele>
      </trkpt>
      <trkpt lat="43.12072" lon="-0.53834">
        <ele>443</ele>
      </trkpt>
      <trkpt lat="43.12056" lon="-0.53812">
        <ele>443</ele>
      </trkpt>
      <trkpt lat="43.12019" lon="-0.53784">
        <ele>452</ele>
      </trkpt>
      <trkpt lat="43.12" lon="-0.53774">
        <ele>452</ele>
      </trkpt>
      <trkpt lat="43.11951" lon="-0.53717">
        <ele>457</ele>
      </trkpt>
      <trkpt lat="43.11952" lon="-0.53712">
        <ele>457</ele>
      </trkpt>
      <trkpt lat="43.11946" lon="-0.53689">
        <ele>457</ele>
      </trkpt>
      <trkpt lat="43.11922" lon="-0.53626">
        <ele>457</ele>
      </trkpt>
      <trkpt lat="43.1191" lon="-0.53579">
        <ele>454</ele>
      </trkpt>
      <trkpt lat="43.11902" lon="-0.53558">
        <ele>454</ele>
      </trkpt>
      <trkpt lat="43.11898" lon="-0.53533">
        <ele>449</ele>
      </trkpt>
      <trkpt lat="43.1189" lon="-0.53509">
        <ele>449</ele>
      </trkpt>
      <trkpt lat="43.11893" lon="-0.53495">
        <ele>449</ele>
      </trkpt>
      <trkpt lat="43.11884" lon="-0.53448">
        <ele>448</ele>
      </trkpt>
      <trkpt lat="43.11877" lon="-0.53431">
        <ele>448</ele>
      </trkpt>
      <trkpt lat="43.11885" lon="-0.53339">
        <ele>452</ele>
      </trkpt>
      <trkpt lat="43.11881" lon="-0.5332">
        <ele>452</ele>
      </trkpt>
      <trkpt lat="43.11881" lon="-0.53302">
        <ele>452</ele>
      </trkpt>
      <trkpt lat="43.11876" lon="-0.5328">
        <ele>453</ele>
      </trkpt>
      <trkpt lat="43.11876" lon="-0.53269">
        <ele>453</ele>
      </trkpt>
      <trkpt lat="43.11873" lon="-0.53258">
        <ele>459</ele>
      </trkpt>
      <trkpt lat="43.11864" lon="-0.5315">
        <ele>461</ele>
      </trkpt>
      <trkpt lat="43.11856" lon="-0.53104">
        <ele>471</ele>
      </trkpt>
      <trkpt lat="43.11857" lon="-0.53076">
        <ele>471</ele>
      </trkpt>
      <trkpt lat="43.11852" lon="-0.53054">
        <ele>471</ele>
      </trkpt>
      <trkpt lat="43.1184" lon="-0.53033">
        <ele>479</ele>
      </trkpt>
      <trkpt lat="43.11826" lon="-0.53018">
        <ele>479</ele>
      </trkpt>
      <trkpt lat="43.11812" lon="-0.52982">
        <ele>479</ele>
      </trkpt>
      <trkpt lat="43.11808" lon="-0.52923">
        <ele>482</ele>
      </trkpt>
      <trkpt lat="43.11795" lon="-0.52885">
        <ele>482</ele>
      </trkpt>
      <trkpt lat="43.11744" lon="-0.52825">
        <ele>486</ele>
      </trkpt>
      <trkpt lat="43.11724" lon="-0.52816">
        <ele>486</ele>
      </trkpt>
      <trkpt lat="43.11715" lon="-0.52815">
        <ele>486</ele>
      </trkpt>
      <trkpt lat="43.117" lon="-0.52829">
        <ele>497</ele>
      </trkpt>
      <trkpt lat="43.11663" lon="-0.52881">
        <ele>489</ele>
      </trkpt>
      <trkpt lat="43.11638" lon="-0.529">
        <ele>489</ele>
      </trkpt>
      <trkpt lat="43.11616" lon="-0.52908">
        <ele>495</ele>
      </trkpt>
      <trkpt lat="43.11569" lon="-0.52903">
        <ele>495</ele>
      </trkpt>
      <trkpt lat="43.11565" lon="-0.52899">
        <ele>495</ele>
      </trkpt>
      <trkpt lat="43.11554" lon="-0.52859">
        <ele>502</ele>
      </trkpt>
      <trkpt lat="43.11553" lon="-0.52848">
        <ele>502</ele>
      </trkpt>
      <trkpt lat="43.11563" lon="-0.52798">
        <ele>502</ele>
      </trkpt>
      <trkpt lat="43.11585" lon="-0.52752">
        <ele>511</ele>
      </trkpt>
      <trkpt lat="43.11601" lon="-0.52667">
        <ele>520</ele>
      </trkpt>
      <trkpt lat="43.11598" lon="-0.52654">
        <ele>520</ele>
      </trkpt>
      <trkpt lat="43.11595" lon="-0.52572">
        <ele>528</ele>
      </trkpt>
      <trkpt lat="43.11597" lon="-0.52511">
        <ele>531</ele>
      </trkpt>
      <trkpt lat="43.116" lon="-0.52497">
        <ele>531</ele>
      </trkpt>
      <trkpt lat="43.11589" lon="-0.52419">
        <ele>531</ele>
      </trkpt>
      <trkpt lat="43.11579" lon="-0.5238">
        <ele>531</ele>
      </trkpt>
      <trkpt lat="43.11544" lon="-0.52319">
        <ele>530</ele>
      </trkpt>
      <trkpt lat="43.11507" lon="-0.52295">
        <ele>530</ele>
      </trkpt>
      <trkpt lat="43.11457" lon="-0.52218">
        <ele>523</ele>
      </trkpt>
      <trkpt lat="43.11439" lon="-0.52171">
        <ele>524</ele>
      </trkpt>
      <trkpt lat="43.1143" lon="-0.52121">
        <ele>523</ele>
      </trkpt>
      <trkpt lat="43.11433" lon="-0.52054">
        <ele>523</ele>
      </trkpt>
      <trkpt lat="43.1143" lon="-0.52034">
        <ele>516</ele>
      </trkpt>
      <trkpt lat="43.11423" lon="-0.52017">
        <ele>516</ele>
      </trkpt>
      <trkpt lat="43.11393" lon="-0.51978">
        <ele>516</ele>
      </trkpt>
      <trkpt lat="43.11362" lon="-0.51954">
        <ele>505</ele>
      </trkpt>
      <trkpt lat="43.11326" lon="-0.51945">
        <ele>505</ele>
      </trkpt>
      <trkpt lat="43.11284" lon="-0.51927">
        <ele>510</ele>
      </trkpt>
      <trkpt lat="43.11258" lon="-0.51935">
        <ele>510</ele>
      </trkpt>
      <trkpt lat="43.11251" lon="-0.51922">
        <ele>510</ele>
      </trkpt>
      <trkpt lat="43.11237" lon="-0.51847">
        <ele>503</ele>
      </trkpt>
      <trkpt lat="43.1123" lon="-0.51846">
        <ele>503</ele>
      </trkpt>
      <trkpt lat="43.11226" lon="-0.51851">
        <ele>503</ele>
      </trkpt>
      <trkpt lat="43.11227" lon="-0.5189">
        <ele>510</ele>
      </trkpt>
      <trkpt lat="43.11219" lon="-0.51899">
        <ele>510</ele>
      </trkpt>
      <trkpt lat="43.11213" lon="-0.51895">
        <ele>510</ele>
      </trkpt>
      <trkpt lat="43.11203" lon="-0.5184">
        <ele>520</ele>
      </trkpt>
      <trkpt lat="43.1119" lon="-0.51821">
        <ele>520</ele>
      </trkpt>
      <trkpt lat="43.11175" lon="-0.51812">
        <ele>520</ele>
      </trkpt>
      <trkpt lat="43.11154" lon="-0.51788">
        <ele>517</ele>
      </trkpt>
      <trkpt lat="43.1115" lon="-0.5174">
        <ele>517</ele>
      </trkpt>
      <trkpt lat="43.11137" lon="-0.51726">
        <ele>517</ele>
      </trkpt>
      <trkpt lat="43.11121" lon="-0.51728">
        <ele>550</ele>
      </trkpt>
      <trkpt lat="43.11089" lon="-0.51721">
        <ele>550</ele>
      </trkpt>
      <trkpt lat="43.11086" lon="-0.51711">
        <ele>550</ele>
      </trkpt>
      <trkpt lat="43.11092" lon="-0.51674">
        <ele>549</ele>
      </trkpt>
      <trkpt lat="43.11103" lon="-0.5164">
        <ele>549</ele>
      </trkpt>
      <trkpt lat="43.11099" lon="-0.51624">
        <ele>548</ele>
      </trkpt>
      <trkpt lat="43.11051" lon="-0.51572">
        <ele>548</ele>
      </trkpt>
      <trkpt lat="43.11042" lon="-0.51541">
        <ele>554</ele>
      </trkpt>
      <trkpt lat="43.11045" lon="-0.5152">
        <ele>554</ele>
      </trkpt>
      <trkpt lat="43.11065" lon="-0.51439">
        <ele>559</ele>
      </trkpt>
      <trkpt lat="43.11073" lon="-0.5139">
        <ele>559</ele>
      </trkpt>
      <trkpt lat="43.11089" lon="-0.51347">
        <ele>559</ele>
      </trkpt>
      <trkpt lat="43.11141" lon="-0.51259">
        <ele>543</ele>
      </trkpt>
      <trkpt lat="43.11176" lon="-0.51172">
        <ele>526</ele>
      </trkpt>
      <trkpt lat="43.11179" lon="-0.51074">
        <ele>507</ele>
      </trkpt>
      <trkpt lat="43.11187" lon="-0.51043">
        <ele>507</ele>
      </trkpt>
      <trkpt lat="43.11197" lon="-0.51023">
        <ele>489</ele>
      </trkpt>
      <trkpt lat="43.11213" lon="-0.50977">
        <ele>499</ele>
      </trkpt>
      <trkpt lat="43.11223" lon="-0.50958">
        <ele>474</ele>
      </trkpt>
      <trkpt lat="43.11245" lon="-0.50938">
        <ele>474</ele>
      </trkpt>
      <trkpt lat="43.11263" lon="-0.50937">
        <ele>474</ele>
      </trkpt>
      <trkpt lat="43.11285" lon="-0.50931">
        <ele>474</ele>
      </trkpt>
      <trkpt lat="43.11292" lon="-0.50935">
        <ele>454</ele>
      </trkpt>
      <trkpt lat="43.11308" lon="-0.5096">
        <ele>468</ele>
      </trkpt>
      <trkpt lat="43.11306" lon="-0.50986">
        <ele>468</ele>
      </trkpt>
      <trkpt lat="43.11298" lon="-0.5102">
        <ele>468</ele>
      </trkpt>
      <trkpt lat="43.113" lon="-0.51027">
        <ele>468</ele>
      </trkpt>
      <trkpt lat="43.11343" lon="-0.51018">
        <ele>468</ele>
      </trkpt>
      <trkpt lat="43.11358" lon="-0.51025">
        <ele>468</ele>
      </trkpt>
      <trkpt lat="43.1137" lon="-0.51026">
        <ele>468</ele>
      </trkpt>
      <trkpt lat="43.11413" lon="-0.50998">
        <ele>452</ele>
      </trkpt>
      <trkpt lat="43.11423" lon="-0.50995">
        <ele>452</ele>
      </trkpt>
      <trkpt lat="43.11441" lon="-0.50983">
        <ele>452</ele>
      </trkpt>
      <trkpt lat="43.11459" lon="-0.50958">
        <ele>434</ele>
      </trkpt>
      <trkpt lat="43.11468" lon="-0.50953">
        <ele>434</ele>
      </trkpt>
      <trkpt lat="43.11487" lon="-0.50952">
        <ele>434</ele>
      </trkpt>
      <trkpt lat="43.11518" lon="-0.50921">
        <ele>434</ele>
      </trkpt>
      <trkpt lat="43.1156" lon="-0.50919">
        <ele>424</ele>
      </trkpt>
      <trkpt lat="43.11571" lon="-0.50921">
        <ele>424</ele>
      </trkpt>
      <trkpt lat="43.11587" lon="-0.50939">
        <ele>424</ele>
      </trkpt>
      <trkpt lat="43.11602" lon="-0.50943">
        <ele>424</ele>
      </trkpt>
      <trkpt lat="43.11618" lon="-0.50936">
        <ele>424</ele>
      </trkpt>
      <trkpt lat="43.11638" lon="-0.50922">
        <ele>409</ele>
      </trkpt>
      <trkpt lat="43.11651" lon="-0.50917">
        <ele>409</ele>
      </trkpt>
      <trkpt lat="43.11718" lon="-0.5087">
        <ele>389</ele>
      </trkpt>
      <trkpt lat="43.11774" lon="-0.50848">
        <ele>389</ele>
      </trkpt>
      <trkpt lat="43.11822" lon="-0.50818">
        <ele>391</ele>
      </trkpt>
      <trkpt lat="43.11847" lon="-0.50808">
        <ele>391</ele>
      </trkpt>
      <trkpt lat="43.11891" lon="-0.50784">
        <ele>370</ele>
      </trkpt>
      <trkpt lat="43.11948" lon="-0.50732">
        <ele>370</ele>
      </trkpt>
      <trkpt lat="43.12009" lon="-0.5066">
        <ele>362</ele>
      </trkpt>
      <trkpt lat="43.12012" lon="-0.5065">
        <ele>362</ele>
      </trkpt>
      <trkpt lat="43.12059" lon="-0.50592">
        <ele>360</ele>
      </trkpt>
      <trkpt lat="43.12077" lon="-0.50565">
        <ele>360</ele>
      </trkpt>
      <trkpt lat="43.12118" lon="-0.50522">
        <ele>351</ele>
      </trkpt>
      <trkpt lat="43.12135" lon="-0.50508">
        <ele>351</ele>
      </trkpt>
      <trkpt lat="43.12167" lon="-0.50469">
        <ele>351</ele>
      </trkpt>
      <trkpt lat="43.1218" lon="-0.50435">
        <ele>348</ele>
      </trkpt>
      <trkpt lat="43.12199" lon="-0.50313">
        <ele>338</ele>
      </trkpt>
      <trkpt lat="43.12203" lon="-0.50315">
        <ele>338</ele>
      </trkpt>
      <trkpt lat="43.12183" lon="-0.50313">
        <ele>338</ele>
      </trkpt>
      <trkpt lat="43.12167" lon="-0.50299">
        <ele>338</ele>
      </trkpt>
      <trkpt lat="43.12156" lon="-0.50278">
        <ele>329</ele>
      </trkpt>
      <trkpt lat="43.12142" lon="-0.50185">
        <ele>327</ele>
      </trkpt>
      <trkpt lat="43.12148" lon="-0.50156">
        <ele>327</ele>
      </trkpt>
      <trkpt lat="43.12169" lon="-0.50133">
        <ele>327</ele>
      </trkpt>
      <trkpt lat="43.122" lon="-0.50118">
        <ele>331</ele>
      </trkpt>
      <trkpt lat="43.12214" lon="-0.50104">
        <ele>324</ele>
      </trkpt>
      <trkpt lat="43.12246" lon="-0.50055">
        <ele>324</ele>
      </trkpt>
      <trkpt lat="43.12264" lon="-0.49992">
        <ele>327</ele>
      </trkpt>
      <trkpt lat="43.12274" lon="-0.49922">
        <ele>322</ele>
      </trkpt>
      <trkpt lat="43.12272" lon="-0.49908">
        <ele>322</ele>
      </trkpt>
      <trkpt lat="43.12264" lon="-0.49891">
        <ele>322</ele>
      </trkpt>
      <trkpt lat="43.1225" lon="-0.49881">
        <ele>322</ele>
      </trkpt>
      <trkpt lat="43.1224" lon="-0.49879">
        <ele>322</ele>
      </trkpt>
      <trkpt lat="43.12208" lon="-0.49882">
        <ele>327</ele>
      </trkpt>
      <trkpt lat="43.12194" lon="-0.49877">
        <ele>327</ele>
      </trkpt>
      <trkpt lat="43.12185" lon="-0.49868">
        <ele>330</ele>
      </trkpt>
      <trkpt lat="43.12181" lon="-0.49856">
        <ele>330</ele>
      </trkpt>
      <trkpt lat="43.12186" lon="-0.49822">
        <ele>330</ele>
      </trkpt>
      <trkpt lat="43.12216" lon="-0.49769">
        <ele>315</ele>
      </trkpt>
      <trkpt lat="43.12221" lon="-0.49725">
        <ele>315</ele>
      </trkpt>
      <trkpt lat="43.12209" lon="-0.49683">
        <ele>312</ele>
      </trkpt>
      <trkpt lat="43.1219" lon="-0.49654">
        <ele>325</ele>
      </trkpt>
      <trkpt lat="43.12169" lon="-0.49631">
        <ele>325</ele>
      </trkpt>
      <trkpt lat="43.12174" lon="-0.49627">
        <ele>325</ele>
      </trkpt>
      <trkpt lat="43.12195" lon="-0.49595">
        <ele>318</ele>
      </trkpt>
      <trkpt lat="43.12197" lon="-0.49582">
        <ele>318</ele>
      </trkpt>
      <trkpt lat="43.122" lon="-0.49579">
        <ele>318</ele>
      </trkpt>
      <trkpt lat="43.12212" lon="-0.49583">
        <ele>309</ele>
      </trkpt>
      <trkpt lat="43.12248" lon="-0.49613">
        <ele>309</ele>
      </trkpt>
      <trkpt lat="43.12269" lon="-0.49625">
        <ele>312</ele>
      </trkpt>
      <trkpt lat="43.12278" lon="-0.4964">
        <ele>312</ele>
      </trkpt>
      <trkpt lat="43.12307" lon="-0.49605">
        <ele>311</ele>
      </trkpt>
      <trkpt lat="43.12316" lon="-0.49611">
        <ele>311</ele>
      </trkpt>
      <trkpt lat="43.12331" lon="-0.49611">
        <ele>311</ele>
      </trkpt>
      <trkpt lat="43.12362" lon="-0.4962">
        <ele>311</ele>
      </trkpt>
      <trkpt lat="43.12374" lon="-0.49629">
        <ele>304</ele>
      </trkpt>
      <trkpt lat="43.12377" lon="-0.49636">
        <ele>316</ele>
      </trkpt>
      <trkpt lat="43.12393" lon="-0.49653">
        <ele>316</ele>
      </trkpt>
      <trkpt lat="43.12453" lon="-0.49762">
        <ele>306</ele>
      </trkpt>
      <trkpt lat="43.12471" lon="-0.49778">
        <ele>322</ele>
      </trkpt>
      <trkpt lat="43.12492" lon="-0.49809">
        <ele>313</ele>
      </trkpt>
      <trkpt lat="43.12486" lon="-0.49827">
        <ele>313</ele>
      </trkpt>
      <trkpt lat="43.12485" lon="-0.49838">
        <ele>313</ele>
      </trkpt>
      <trkpt lat="43.12488" lon="-0.49854">
        <ele>313</ele>
      </trkpt>
      <trkpt lat="43.12493" lon="-0.49863">
        <ele>313</ele>
      </trkpt>
      <trkpt lat="43.12511" lon="-0.4988">
        <ele>312</ele>
      </trkpt>
      <trkpt lat="43.1253" lon="-0.49914">
        <ele>312</ele>
      </trkpt>
      <trkpt lat="43.12536" lon="-0.49941">
        <ele>312</ele>
      </trkpt>
      <trkpt lat="43.12552" lon="-0.49988">
        <ele>327</ele>
      </trkpt>
      <trkpt lat="43.12558" lon="-0.49988">
        <ele>327</ele>
      </trkpt>
      <trkpt lat="43.12559" lon="-0.49979">
        <ele>327</ele>
      </trkpt>
      <trkpt lat="43.12557" lon="-0.49972">
        <ele>327</ele>
      </trkpt>
      <trkpt lat="43.12561" lon="-0.49936">
        <ele>328</ele>
      </trkpt>
      <trkpt lat="43.12572" lon="-0.49908">
        <ele>328</ele>
      </trkpt>
      <trkpt lat="43.12584" lon="-0.49902">
        <ele>328</ele>
      </trkpt>
      <trkpt lat="43.12587" lon="-0.49893">
        <ele>328</ele>
      </trkpt>
      <trkpt lat="43.12591" lon="-0.49898">
        <ele>328</ele>
      </trkpt>
      <trkpt lat="43.1263" lon="-0.50015">
        <ele>340</ele>
      </trkpt>
      <trkpt lat="43.12644" lon="-0.50082">
        <ele>339</ele>
      </trkpt>
      <trkpt lat="43.12672" lon="-0.50104">
        <ele>339</ele>
      </trkpt>
      <trkpt lat="43.12706" lon="-0.50114">
        <ele>339</ele>
      </trkpt>
      <trkpt lat="43.12725" lon="-0.50113">
        <ele>347</ele>
      </trkpt>
      <trkpt lat="43.12737" lon="-0.50081">
        <ele>347</ele>
      </trkpt>
      <trkpt lat="43.12739" lon="-0.50043">
        <ele>347</ele>
      </trkpt>
      <trkpt lat="43.12758" lon="-0.50002">
        <ele>349</ele>
      </trkpt>
      <trkpt lat="43.12774" lon="-0.49958">
        <ele>349</ele>
      </trkpt>
      <trkpt lat="43.12826" lon="-0.49689">
        <ele>352</ele>
      </trkpt>
      <trkpt lat="43.12834" lon="-0.49633">
        <ele>352</ele>
      </trkpt>
      <trkpt lat="43.12834" lon="-0.49616">
        <ele>354</ele>
      </trkpt>
      <trkpt lat="43.12829" lon="-0.49576">
        <ele>354</ele>
      </trkpt>
      <trkpt lat="43.12831" lon="-0.49558">
        <ele>354</ele>
      </trkpt>
      <trkpt lat="43.12856" lon="-0.49462">
        <ele>356</ele>
      </trkpt>
      <trkpt lat="43.12858" lon="-0.49433">
        <ele>356</ele>
      </trkpt>
      <trkpt lat="43.12856" lon="-0.49303">
        <ele>357</ele>
      </trkpt>
      <trkpt lat="43.12842" lon="-0.49249">
        <ele>363</ele>
      </trkpt>
      <trkpt lat="43.12843" lon="-0.49245">
        <ele>363</ele>
      </trkpt>
      <trkpt lat="43.12847" lon="-0.49248">
        <ele>363</ele>
      </trkpt>
      <trkpt lat="43.12992" lon="-0.49199">
        <ele>365</ele>
      </trkpt>
      <trkpt lat="43.1304" lon="-0.49205">
        <ele>365</ele>
      </trkpt>
      <trkpt lat="43.1311" lon="-0.49203">
        <ele>357</ele>
      </trkpt>
      <trkpt lat="43.13143" lon="-0.49193">
        <ele>350</ele>
      </trkpt>
      <trkpt lat="43.13157" lon="-0.49196">
        <ele>350</ele>
      </trkpt>
      <trkpt lat="43.13169" lon="-0.49209">
        <ele>353</ele>
      </trkpt>
      <trkpt lat="43.13199" lon="-0.49283">
        <ele>353</ele>
      </trkpt>
      <trkpt lat="43.13228" lon="-0.4934">
        <ele>350</ele>
      </trkpt>
      <trkpt lat="43.13236" lon="-0.49362">
        <ele>350</ele>
      </trkpt>
      <trkpt lat="43.13241" lon="-0.49392">
        <ele>352</ele>
      </trkpt>
      <trkpt lat="43.13251" lon="-0.49425">
        <ele>352</ele>
      </trkpt>
      <trkpt lat="43.13258" lon="-0.49439">
        <ele>352</ele>
      </trkpt>
      <trkpt lat="43.13281" lon="-0.49458">
        <ele>352</ele>
      </trkpt>
      <trkpt lat="43.13308" lon="-0.49514">
        <ele>350</ele>
      </trkpt>
      <trkpt lat="43.13313" lon="-0.49573">
        <ele>351</ele>
      </trkpt>
      <trkpt lat="43.13312" lon="-0.49591">
        <ele>351</ele>
      </trkpt>
      <trkpt lat="43.13383" lon="-0.49692">
        <ele>346</ele>
      </trkpt>
      <trkpt lat="43.13403" lon="-0.49712">
        <ele>352</ele>
      </trkpt>
      <trkpt lat="43.13418" lon="-0.49738">
        <ele>352</ele>
      </trkpt>
      <trkpt lat="43.13427" lon="-0.49748">
        <ele>352</ele>
      </trkpt>
      <trkpt lat="43.13461" lon="-0.49773">
        <ele>347</ele>
      </trkpt>
      <trkpt lat="43.13484" lon="-0.49777">
        <ele>347</ele>
      </trkpt>
      <trkpt lat="43.13489" lon="-0.49775">
        <ele>347</ele>
      </trkpt>
      <trkpt lat="43.13522" lon="-0.49785">
        <ele>347</ele>
      </trkpt>
      <trkpt lat="43.13579" lon="-0.49814">
        <ele>343</ele>
      </trkpt>
      <trkpt lat="43.13602" lon="-0.49813">
        <ele>343</ele>
      </trkpt>
      <trkpt lat="43.13622" lon="-0.49808">
        <ele>343</ele>
      </trkpt>
      <trkpt lat="43.13658" lon="-0.49786">
        <ele>340</ele>
      </trkpt>
      <trkpt lat="43.13674" lon="-0.49783">
        <ele>340</ele>
      </trkpt>
      <trkpt lat="43.1369" lon="-0.49784">
        <ele>340</ele>
      </trkpt>
      <trkpt lat="43.13741" lon="-0.49804">
        <ele>339</ele>
      </trkpt>
      <trkpt lat="43.13757" lon="-0.49805">
        <ele>339</ele>
      </trkpt>
      <trkpt lat="43.13775" lon="-0.49801">
        <ele>339</ele>
      </trkpt>
      <trkpt lat="43.13792" lon="-0.49802">
        <ele>337</ele>
      </trkpt>
      <trkpt lat="43.13795" lon="-0.49798">
        <ele>337</ele>
      </trkpt>
      <trkpt lat="43.13834" lon="-0.49791">
        <ele>334</ele>
      </trkpt>
      <trkpt lat="43.13833" lon="-0.49785">
        <ele>334</ele>
      </trkpt>
      <trkpt lat="43.13821" lon="-0.49768">
        <ele>334</ele>
      </trkpt>
      <trkpt lat="43.13794" lon="-0.49698">
        <ele>332</ele>
      </trkpt>
      <trkpt lat="43.13793" lon="-0.4969">
        <ele>332</ele>
      </trkpt>
      <trkpt lat="43.13796" lon="-0.49666">
        <ele>332</ele>
      </trkpt>
      <trkpt lat="43.13793" lon="-0.49587">
        <ele>332</ele>
      </trkpt>
      <trkpt lat="43.13795" lon="-0.49554">
        <ele>332</ele>
      </trkpt>
      <trkpt lat="43.13786" lon="-0.49514">
        <ele>335</ele>
      </trkpt>
      <trkpt lat="43.13768" lon="-0.49393">
        <ele>337</ele>
      </trkpt>
      <trkpt lat="43.13769" lon="-0.49341">
        <ele>336</ele>
      </trkpt>
      <trkpt lat="43.13773" lon="-0.49327">
        <ele>336</ele>
      </trkpt>
      <trkpt lat="43.13784" lon="-0.49228">
        <ele>334</ele>
      </trkpt>
      <trkpt lat="43.13786" lon="-0.49083">
        <ele>338</ele>
      </trkpt>
      <trkpt lat="43.1377" lon="-0.48974">
        <ele>339</ele>
      </trkpt>
      <trkpt lat="43.13769" lon="-0.48878">
        <ele>339</ele>
      </trkpt>
      <trkpt lat="43.13755" lon="-0.48777">
        <ele>342</ele>
      </trkpt>
      <trkpt lat="43.13749" lon="-0.48669">
        <ele>345</ele>
      </trkpt>
      <trkpt lat="43.13724" lon="-0.48529">
        <ele>341</ele>
      </trkpt>
      <trkpt lat="43.1372" lon="-0.48522">
        <ele>341</ele>
      </trkpt>
      <trkpt lat="43.13709" lon="-0.48525">
        <ele>341</ele>
      </trkpt>
      <trkpt lat="43.13701" lon="-0.48523">
        <ele>364</ele>
      </trkpt>
      <trkpt lat="43.13686" lon="-0.4851">
        <ele>364</ele>
      </trkpt>
      <trkpt lat="43.13679" lon="-0.48497">
        <ele>364</ele>
      </trkpt>
      <trkpt lat="43.13665" lon="-0.48484">
        <ele>364</ele>
      </trkpt>
      <trkpt lat="43.1365" lon="-0.48477">
        <ele>364</ele>
      </trkpt>
      <trkpt lat="43.13647" lon="-0.48473">
        <ele>364</ele>
      </trkpt>
      <trkpt lat="43.1364" lon="-0.48447">
        <ele>366</ele>
      </trkpt>
      <trkpt lat="43.13601" lon="-0.48458">
        <ele>381</ele>
      </trkpt>
      <trkpt lat="43.1359" lon="-0.48453">
        <ele>381</ele>
      </trkpt>
      <trkpt lat="43.1359" lon="-0.48431">
        <ele>381</ele>
      </trkpt>
      <trkpt lat="43.1358" lon="-0.48434">
        <ele>381</ele>
      </trkpt>
      <trkpt lat="43.13569" lon="-0.4842">
        <ele>381</ele>
      </trkpt>
      <trkpt lat="43.13569" lon="-0.48395">
        <ele>381</ele>
      </trkpt>
      <trkpt lat="43.13572" lon="-0.48392">
        <ele>381</ele>
      </trkpt>
      <trkpt lat="43.13582" lon="-0.48399">
        <ele>381</ele>
      </trkpt>
      <trkpt lat="43.1359" lon="-0.484">
        <ele>381</ele>
      </trkpt>
      <trkpt lat="43.13589" lon="-0.48425">
        <ele>381</ele>
      </trkpt>
      <trkpt lat="43.13593" lon="-0.48433">
        <ele>381</ele>
      </trkpt>
      <trkpt lat="43.13598" lon="-0.48436">
        <ele>381</ele>
      </trkpt>
      <trkpt lat="43.13622" lon="-0.4842">
        <ele>381</ele>
      </trkpt>
      <trkpt lat="43.13624" lon="-0.48415">
        <ele>381</ele>
      </trkpt>
      <trkpt lat="43.13618" lon="-0.48392">
        <ele>381</ele>
      </trkpt>
      <trkpt lat="43.13618" lon="-0.48382">
        <ele>381</ele>
      </trkpt>
      <trkpt lat="43.13614" lon="-0.48368">
        <ele>369</ele>
      </trkpt>
      <trkpt lat="43.13611" lon="-0.4837">
        <ele>369</ele>
      </trkpt>
      <trkpt lat="43.136" lon="-0.48347">
        <ele>369</ele>
      </trkpt>
      <trkpt lat="43.13588" lon="-0.48334">
        <ele>369</ele>
      </trkpt>
      <trkpt lat="43.13572" lon="-0.48335">
        <ele>369</ele>
      </trkpt>
      <trkpt lat="43.13568" lon="-0.4833">
        <ele>369</ele>
      </trkpt>
      <trkpt lat="43.13579" lon="-0.48312">
        <ele>369</ele>
      </trkpt>
      <trkpt lat="43.13594" lon="-0.48303">
        <ele>369</ele>
      </trkpt>
      <trkpt lat="43.13606" lon="-0.48285">
        <ele>350</ele>
      </trkpt>
      <trkpt lat="43.13596" lon="-0.4824">
        <ele>350</ele>
      </trkpt>
      <trkpt lat="43.13604" lon="-0.48159">
        <ele>345</ele>
      </trkpt>
      <trkpt lat="43.13605" lon="-0.48093">
        <ele>346</ele>
      </trkpt>
      <trkpt lat="43.13602" lon="-0.4805">
        <ele>346</ele>
      </trkpt>
      <trkpt lat="43.13577" lon="-0.47971">
        <ele>344</ele>
      </trkpt>
      <trkpt lat="43.13551" lon="-0.479">
        <ele>343</ele>
      </trkpt>
      <trkpt lat="43.1355" lon="-0.47881">
        <ele>343</ele>
      </trkpt>
      <trkpt lat="43.13558" lon="-0.47825">
        <ele>343</ele>
      </trkpt>
      <trkpt lat="43.13549" lon="-0.47809">
        <ele>343</ele>
      </trkpt>
    </trkseg>
  </trk>
  <trk>
    <name><![CDATA[Bugangue - Labaig - 27505 - UtagawaVTT.com]]></name>
    <trkseg>
      <trkpt lat="43.18039" lon="-0.62082">
        <ele>249.604996</ele>
      </trkpt>
      <trkpt lat="43.18008" lon="-0.6211">
        <ele>250.277496</ele>
      </trkpt>
      <trkpt lat="43.17983" lon="-0.62129">
        <ele>250.820007</ele>
      </trkpt>
      <trkpt lat="43.17959" lon="-0.62153">
        <ele>251</ele>
      </trkpt>
      <trkpt lat="43.17916" lon="-0.62218">
        <ele>251.040024</ele>
      </trkpt>
      <trkpt lat="43.17853" lon="-0.62347">
        <ele>250.568039</ele>
      </trkpt>
      <trkpt lat="43.17767" lon="-0.62501">
        <ele>251.976868</ele>
      </trkpt>
      <trkpt lat="43.17762" lon="-0.62516">
        <ele>252.327499</ele>
      </trkpt>
      <trkpt lat="43.17763" lon="-0.62542">
        <ele>252.455002</ele>
      </trkpt>
      <trkpt lat="43.17692" lon="-0.62634">
        <ele>254.784378</ele>
      </trkpt>
      <trkpt lat="43.1765" lon="-0.62682">
        <ele>256.501251</ele>
      </trkpt>
      <trkpt lat="43.17636" lon="-0.6269">
        <ele>256.951874</ele>
      </trkpt>
      <trkpt lat="43.17632" lon="-0.62679">
        <ele>256.870636</ele>
      </trkpt>
      <trkpt lat="43.17624" lon="-0.62669">
        <ele>256.898743</ele>
      </trkpt>
      <trkpt lat="43.17585" lon="-0.62633">
        <ele>257.244995</ele>
      </trkpt>
      <trkpt lat="43.17538" lon="-0.62596">
        <ele>257.872681</ele>
      </trkpt>
      <trkpt lat="43.17499" lon="-0.62559">
        <ele>258.309174</ele>
      </trkpt>
      <trkpt lat="43.17449" lon="-0.62518">
        <ele>258.638214</ele>
      </trkpt>
      <trkpt lat="43.17398" lon="-0.62457">
        <ele>259.739777</ele>
      </trkpt>
      <trkpt lat="43.17363" lon="-0.62421">
        <ele>259.932434</ele>
      </trkpt>
      <trkpt lat="43.17289" lon="-0.62368">
        <ele>258.602509</ele>
      </trkpt>
      <trkpt lat="43.17278" lon="-0.62354">
        <ele>258.184998</ele>
      </trkpt>
      <trkpt lat="43.17291" lon="-0.62319">
        <ele>257.013763</ele>
      </trkpt>
      <trkpt lat="43.17293" lon="-0.62287">
        <ele>256.482513</ele>
      </trkpt>
      <trkpt lat="43.17289" lon="-0.6227">
        <ele>256.21936</ele>
      </trkpt>
      <trkpt lat="43.17272" lon="-0.62264">
        <ele>256.136871</ele>
      </trkpt>
      <trkpt lat="43.17256" lon="-0.62253">
        <ele>256</ele>
      </trkpt>
      <trkpt lat="43.17242" lon="-0.6223">
        <ele>256</ele>
      </trkpt>
      <trkpt lat="43.17231" lon="-0.62192">
        <ele>256</ele>
      </trkpt>
      <trkpt lat="43.17234" lon="-0.62114">
        <ele>256</ele>
      </trkpt>
      <trkpt lat="43.17228" lon="-0.6209">
        <ele>256</ele>
      </trkpt>
      <trkpt lat="43.17231" lon="-0.62041">
        <ele>256</ele>
      </trkpt>
      <trkpt lat="43.17235" lon="-0.62016">
        <ele>256</ele>
      </trkpt>
      <trkpt lat="43.17236" lon="-0.61986">
        <ele>255.631256</ele>
      </trkpt>
      <trkpt lat="43.17202" lon="-0.61989">
        <ele>255.704376</ele>
      </trkpt>
      <trkpt lat="43.17164" lon="-0.61987">
        <ele>255.613358</ele>
      </trkpt>
      <trkpt lat="43.17111" lon="-0.61971">
        <ele>255</ele>
      </trkpt>
      <trkpt lat="43.17083" lon="-0.61957">
        <ele>255</ele>
      </trkpt>
      <trkpt lat="43.17042" lon="-0.61917">
        <ele>254.681244</ele>
      </trkpt>
      <trkpt lat="43.16972" lon="-0.61836">
        <ele>253.694504</ele>
      </trkpt>
      <trkpt lat="43.16943" lon="-0.61798">
        <ele>253.811249</ele>
      </trkpt>
      <trkpt lat="43.16741" lon="-0.61655">
        <ele>252.659378</ele>
      </trkpt>
      <trkpt lat="43.1667" lon="-0.61623">
        <ele>252.193756</ele>
      </trkpt>
      <trkpt lat="43.16657" lon="-0.61626">
        <ele>252.254379</ele>
      </trkpt>
      <trkpt lat="43.16641" lon="-0.61638">
        <ele>252.458755</ele>
      </trkpt>
      <trkpt lat="43.1655" lon="-0.61684">
        <ele>253.284378</ele>
      </trkpt>
      <trkpt lat="43.16527" lon="-0.61702">
        <ele>253.598129</ele>
      </trkpt>
      <trkpt lat="43.1647" lon="-0.6178">
        <ele>254.914993</ele>
      </trkpt>
      <trkpt lat="43.16422" lon="-0.61825">
        <ele>255.69313</ele>
      </trkpt>
      <trkpt lat="43.16363" lon="-0.61839">
        <ele>255.96875</ele>
      </trkpt>
      <trkpt lat="43.16336" lon="-0.6185">
        <ele>256.170624</ele>
      </trkpt>
      <trkpt lat="43.16324" lon="-0.61863">
        <ele>256.390625</ele>
      </trkpt>
      <trkpt lat="43.16308" lon="-0.61925">
        <ele>256.909424</ele>
      </trkpt>
      <trkpt lat="43.16301" lon="-0.61939">
        <ele>256.777161</ele>
      </trkpt>
      <trkpt lat="43.16274" lon="-0.61925">
        <ele>256.569885</ele>
      </trkpt>
      <trkpt lat="43.16207" lon="-0.61885">
        <ele>256.918121</ele>
      </trkpt>
      <trkpt lat="43.16141" lon="-0.61827">
        <ele>256.99939</ele>
      </trkpt>
      <trkpt lat="43.16108" lon="-0.61804">
        <ele>257</ele>
      </trkpt>
      <trkpt lat="43.16069" lon="-0.61771">
        <ele>258.18042</ele>
      </trkpt>
      <trkpt lat="43.15997" lon="-0.61721">
        <ele>261.313995</ele>
      </trkpt>
      <trkpt lat="43.15967" lon="-0.61706">
        <ele>263.513855</ele>
      </trkpt>
      <trkpt lat="43.1595" lon="-0.61712">
        <ele>264.09375</ele>
      </trkpt>
      <trkpt lat="43.15904" lon="-0.61768">
        <ele>264.256256</ele>
      </trkpt>
      <trkpt lat="43.15839" lon="-0.61839">
        <ele>264.637451</ele>
      </trkpt>
      <trkpt lat="43.15829" lon="-0.61846">
        <ele>265.184814</ele>
      </trkpt>
      <trkpt lat="43.15819" lon="-0.61856">
        <ele>265.690399</ele>
      </trkpt>
      <trkpt lat="43.15802" lon="-0.61886">
        <ele>266.004547</ele>
      </trkpt>
      <trkpt lat="43.15786" lon="-0.61906">
        <ele>266.041107</ele>
      </trkpt>
      <trkpt lat="43.15751" lon="-0.61918">
        <ele>268.000458</ele>
      </trkpt>
      <trkpt lat="43.15729" lon="-0.61918">
        <ele>270.440918</ele>
      </trkpt>
      <trkpt lat="43.15714" lon="-0.61914">
        <ele>273.103149</ele>
      </trkpt>
      <trkpt lat="43.15662" lon="-0.61911">
        <ele>279.063354</ele>
      </trkpt>
      <trkpt lat="43.15604" lon="-0.61914">
        <ele>282.924988</ele>
      </trkpt>
      <trkpt lat="43.15589" lon="-0.61912">
        <ele>284.75943</ele>
      </trkpt>
      <trkpt lat="43.15572" lon="-0.61906">
        <ele>287.56427</ele>
      </trkpt>
      <trkpt lat="43.15562" lon="-0.61892">
        <ele>290.55603</ele>
      </trkpt>
      <trkpt lat="43.15511" lon="-0.61841">
        <ele>300.199951</ele>
      </trkpt>
      <trkpt lat="43.15491" lon="-0.6183">
        <ele>301.368195</ele>
      </trkpt>
      <trkpt lat="43.1546" lon="-0.61823">
        <ele>302.752808</ele>
      </trkpt>
      <trkpt lat="43.15424" lon="-0.61821">
        <ele>304.39743</ele>
      </trkpt>
      <trkpt lat="43.1539" lon="-0.61826">
        <ele>303.224213</ele>
      </trkpt>
      <trkpt lat="43.1537" lon="-0.61825">
        <ele>302.434998</ele>
      </trkpt>
      <trkpt lat="43.1534" lon="-0.6182">
        <ele>301.345001</ele>
      </trkpt>
      <trkpt lat="43.15307" lon="-0.61817">
        <ele>300.994995</ele>
      </trkpt>
      <trkpt lat="43.15265" lon="-0.6182">
        <ele>301.125</ele>
      </trkpt>
      <trkpt lat="43.15224" lon="-0.61804">
        <ele>302.881317</ele>
      </trkpt>
      <trkpt lat="43.15188" lon="-0.61795">
        <ele>303.680542</ele>
      </trkpt>
      <trkpt lat="43.1516" lon="-0.6178">
        <ele>304.774872</ele>
      </trkpt>
      <trkpt lat="43.15105" lon="-0.61723">
        <ele>302.96521</ele>
      </trkpt>
      <trkpt lat="43.15073" lon="-0.617">
        <ele>303.30368</ele>
      </trkpt>
      <trkpt lat="43.14982" lon="-0.61643">
        <ele>308.003754</ele>
      </trkpt>
      <trkpt lat="43.14918" lon="-0.61597">
        <ele>309.103516</ele>
      </trkpt>
      <trkpt lat="43.14908" lon="-0.61596">
        <ele>308.853851</ele>
      </trkpt>
      <trkpt lat="43.14869" lon="-0.61636">
        <ele>305.95636</ele>
      </trkpt>
      <trkpt lat="43.14866" lon="-0.61559">
        <ele>310.491882</ele>
      </trkpt>
      <trkpt lat="43.14867" lon="-0.61542">
        <ele>311.326233</ele>
      </trkpt>
      <trkpt lat="43.14873" lon="-0.61528">
        <ele>311.926239</ele>
      </trkpt>
      <trkpt lat="43.14887" lon="-0.61512">
        <ele>312.455627</ele>
      </trkpt>
      <trkpt lat="43.14891" lon="-0.61497">
        <ele>313.105377</ele>
      </trkpt>
      <trkpt lat="43.1489" lon="-0.61478">
        <ele>314.040009</ele>
      </trkpt>
      <trkpt lat="43.14878" lon="-0.61445">
        <ele>315.858551</ele>
      </trkpt>
      <trkpt lat="43.14864" lon="-0.61432">
        <ele>316.96048</ele>
      </trkpt>
      <trkpt lat="43.1485" lon="-0.6143">
        <ele>317.591644</ele>
      </trkpt>
      <trkpt lat="43.14827" lon="-0.61431">
        <ele>319.325012</ele>
      </trkpt>
      <trkpt lat="43.14802" lon="-0.61449">
        <ele>320.279999</ele>
      </trkpt>
      <trkpt lat="43.14743" lon="-0.61508">
        <ele>325.453552</ele>
      </trkpt>
      <trkpt lat="43.14694" lon="-0.61543">
        <ele>329.124817</ele>
      </trkpt>
      <trkpt lat="43.14681" lon="-0.6155">
        <ele>329.605438</ele>
      </trkpt>
      <trkpt lat="43.14647" lon="-0.61553">
        <ele>332.100281</ele>
      </trkpt>
      <trkpt lat="43.14634" lon="-0.61558">
        <ele>331.860474</ele>
      </trkpt>
      <trkpt lat="43.14593" lon="-0.61555">
        <ele>333.930725</ele>
      </trkpt>
      <trkpt lat="43.14544" lon="-0.61547">
        <ele>336.490417</ele>
      </trkpt>
      <trkpt lat="43.14489" lon="-0.61545">
        <ele>338.997925</ele>
      </trkpt>
      <trkpt lat="43.14474" lon="-0.61547">
        <ele>340.593506</ele>
      </trkpt>
      <trkpt lat="43.14463" lon="-0.61556">
        <ele>342.668213</ele>
      </trkpt>
      <trkpt lat="43.14449" lon="-0.61576">
        <ele>344.473175</ele>
      </trkpt>
      <trkpt lat="43.14419" lon="-0.61631">
        <ele>348.535004</ele>
      </trkpt>
      <trkpt lat="43.14402" lon="-0.61654">
        <ele>351.070007</ele>
      </trkpt>
      <trkpt lat="43.14367" lon="-0.61688">
        <ele>355.891113</ele>
      </trkpt>
      <trkpt lat="43.14353" lon="-0.61697">
        <ele>357.33017</ele>
      </trkpt>
      <trkpt lat="43.14342" lon="-0.617">
        <ele>358.82016</ele>
      </trkpt>
      <trkpt lat="43.14326" lon="-0.61709">
        <ele>359.021271</ele>
      </trkpt>
      <trkpt lat="43.14273" lon="-0.61712">
        <ele>361.608185</ele>
      </trkpt>
      <trkpt lat="43.14158" lon="-0.61669">
        <ele>368.318481</ele>
      </trkpt>
      <trkpt lat="43.14141" lon="-0.61665">
        <ele>371.537537</ele>
      </trkpt>
      <trkpt lat="43.14126" lon="-0.61666">
        <ele>373.012115</ele>
      </trkpt>
      <trkpt lat="43.14095" lon="-0.61678">
        <ele>380.385193</ele>
      </trkpt>
      <trkpt lat="43.14083" lon="-0.6169">
        <ele>382.538208</ele>
      </trkpt>
      <trkpt lat="43.14068" lon="-0.61718">
        <ele>381.814362</ele>
      </trkpt>
      <trkpt lat="43.13973" lon="-0.61822">
        <ele>390.997681</ele>
      </trkpt>
      <trkpt lat="43.13955" lon="-0.61832">
        <ele>391.46225</ele>
      </trkpt>
      <trkpt lat="43.13939" lon="-0.61834">
        <ele>393.370544</ele>
      </trkpt>
      <trkpt lat="43.13929" lon="-0.61843">
        <ele>392.456787</ele>
      </trkpt>
      <trkpt lat="43.13925" lon="-0.61868">
        <ele>391.292206</ele>
      </trkpt>
      <trkpt lat="43.1391" lon="-0.61902">
        <ele>389.977875</ele>
      </trkpt>
      <trkpt lat="43.13894" lon="-0.61953">
        <ele>389.899323</ele>
      </trkpt>
      <trkpt lat="43.13882" lon="-0.6198">
        <ele>389.698486</ele>
      </trkpt>
      <trkpt lat="43.13824" lon="-0.62155">
        <ele>406.684082</ele>
      </trkpt>
      <trkpt lat="43.13793" lon="-0.62235">
        <ele>418.470764</ele>
      </trkpt>
      <trkpt lat="43.13766" lon="-0.62319">
        <ele>421.447754</ele>
      </trkpt>
      <trkpt lat="43.13755" lon="-0.6234">
        <ele>420.491211</ele>
      </trkpt>
      <trkpt lat="43.1374" lon="-0.62359">
        <ele>420.374329</ele>
      </trkpt>
      <trkpt lat="43.13728" lon="-0.62383">
        <ele>419.577637</ele>
      </trkpt>
      <trkpt lat="43.13696" lon="-0.6244">
        <ele>418.980652</ele>
      </trkpt>
      <trkpt lat="43.13682" lon="-0.62473">
        <ele>417.96991</ele>
      </trkpt>
      <trkpt lat="43.13674" lon="-0.625">
        <ele>417.88089</ele>
      </trkpt>
      <trkpt lat="43.13647" lon="-0.62648">
        <ele>419.897491</ele>
      </trkpt>
      <trkpt lat="43.13649" lon="-0.62661">
        <ele>419.14624</ele>
      </trkpt>
      <trkpt lat="43.13653" lon="-0.62666">
        <ele>418.475006</ele>
      </trkpt>
      <trkpt lat="43.13666" lon="-0.62677">
        <ele>416.366241</ele>
      </trkpt>
      <trkpt lat="43.1367" lon="-0.62686">
        <ele>415.188873</ele>
      </trkpt>
      <trkpt lat="43.13672" lon="-0.62695">
        <ele>413.577332</ele>
      </trkpt>
      <trkpt lat="43.13675" lon="-0.627">
        <ele>412.469269</ele>
      </trkpt>
      <trkpt lat="43.13676" lon="-0.62706">
        <ele>411.584686</ele>
      </trkpt>
      <trkpt lat="43.13649" lon="-0.62767">
        <ele>400.051117</ele>
      </trkpt>
      <trkpt lat="43.13637" lon="-0.62784">
        <ele>395.040222</ele>
      </trkpt>
      <trkpt lat="43.13633" lon="-0.62794">
        <ele>391.676392</ele>
      </trkpt>
      <trkpt lat="43.13622" lon="-0.6281">
        <ele>386.621094</ele>
      </trkpt>
      <trkpt lat="43.13612" lon="-0.62836">
        <ele>378.926697</ele>
      </trkpt>
      <trkpt lat="43.13601" lon="-0.62849">
        <ele>375.580414</ele>
      </trkpt>
      <trkpt lat="43.13595" lon="-0.62862">
        <ele>372.725922</ele>
      </trkpt>
      <trkpt lat="43.13579" lon="-0.62877">
        <ele>369.997009</ele>
      </trkpt>
      <trkpt lat="43.13579" lon="-0.62921">
        <ele>360.973999</ele>
      </trkpt>
      <trkpt lat="43.13576" lon="-0.62931">
        <ele>359.38031</ele>
      </trkpt>
      <trkpt lat="43.13565" lon="-0.6295">
        <ele>358.869537</ele>
      </trkpt>
      <trkpt lat="43.13561" lon="-0.62961">
        <ele>358.327698</ele>
      </trkpt>
      <trkpt lat="43.1355" lon="-0.63047">
        <ele>356.092529</ele>
      </trkpt>
      <trkpt lat="43.13552" lon="-0.63114">
        <ele>353.77124</ele>
      </trkpt>
      <trkpt lat="43.13557" lon="-0.63129">
        <ele>351.683746</ele>
      </trkpt>
      <trkpt lat="43.13562" lon="-0.63154">
        <ele>349.910614</ele>
      </trkpt>
      <trkpt lat="43.1356" lon="-0.63186">
        <ele>349.830383</ele>
      </trkpt>
      <trkpt lat="43.13561" lon="-0.63205">
        <ele>347.849396</ele>
      </trkpt>
      <trkpt lat="43.13564" lon="-0.63214">
        <ele>346.191956</ele>
      </trkpt>
      <trkpt lat="43.13585" lon="-0.63249">
        <ele>333.63855</ele>
      </trkpt>
      <trkpt lat="43.13591" lon="-0.63265">
        <ele>328.54129</ele>
      </trkpt>
      <trkpt lat="43.13596" lon="-0.63292">
        <ele>322.708008</ele>
      </trkpt>
      <trkpt lat="43.13595" lon="-0.63301">
        <ele>321.579102</ele>
      </trkpt>
      <trkpt lat="43.13598" lon="-0.63307">
        <ele>319.70462</ele>
      </trkpt>
      <trkpt lat="43.13609" lon="-0.63312">
        <ele>315.791748</ele>
      </trkpt>
      <trkpt lat="43.13621" lon="-0.63332">
        <ele>309.761169</ele>
      </trkpt>
      <trkpt lat="43.13629" lon="-0.63352">
        <ele>305.457611</ele>
      </trkpt>
      <trkpt lat="43.13634" lon="-0.6337">
        <ele>300.46582</ele>
      </trkpt>
      <trkpt lat="43.13638" lon="-0.63379">
        <ele>297.184967</ele>
      </trkpt>
      <trkpt lat="43.13644" lon="-0.63383">
        <ele>294.543518</ele>
      </trkpt>
      <trkpt lat="43.13667" lon="-0.6339">
        <ele>286.167969</ele>
      </trkpt>
      <trkpt lat="43.13672" lon="-0.63397">
        <ele>283.837219</ele>
      </trkpt>
      <trkpt lat="43.13633" lon="-0.6348">
        <ele>280.350494</ele>
      </trkpt>
      <trkpt lat="43.13627" lon="-0.63507">
        <ele>281.445679</ele>
      </trkpt>
      <trkpt lat="43.13628" lon="-0.63528">
        <ele>281.931702</ele>
      </trkpt>
      <trkpt lat="43.13639" lon="-0.63556">
        <ele>281.651672</ele>
      </trkpt>
      <trkpt lat="43.13644" lon="-0.63581">
        <ele>281.710785</ele>
      </trkpt>
      <trkpt lat="43.13643" lon="-0.63597">
        <ele>282.143951</ele>
      </trkpt>
      <trkpt lat="43.13623" lon="-0.63657">
        <ele>282.017273</ele>
      </trkpt>
      <trkpt lat="43.13606" lon="-0.63847">
        <ele>287.983612</ele>
      </trkpt>
      <trkpt lat="43.13605" lon="-0.6388">
        <ele>289.524231</ele>
      </trkpt>
      <trkpt lat="43.13594" lon="-0.6394">
        <ele>292.20813</ele>
      </trkpt>
      <trkpt lat="43.13586" lon="-0.63944">
        <ele>292.286255</ele>
      </trkpt>
      <trkpt lat="43.13576" lon="-0.63959">
        <ele>292.808746</ele>
      </trkpt>
      <trkpt lat="43.13554" lon="-0.63969">
        <ele>293.059448</ele>
      </trkpt>
      <trkpt lat="43.13522" lon="-0.63967">
        <ele>293.03125</ele>
      </trkpt>
      <trkpt lat="43.13488" lon="-0.63956">
        <ele>294.339691</ele>
      </trkpt>
      <trkpt lat="43.13468" lon="-0.63953">
        <ele>295.279999</ele>
      </trkpt>
      <trkpt lat="43.1346" lon="-0.63959">
        <ele>295.61499</ele>
      </trkpt>
      <trkpt lat="43.13447" lon="-0.63978">
        <ele>296.428131</ele>
      </trkpt>
      <trkpt lat="43.13433" lon="-0.64005">
        <ele>297.47937</ele>
      </trkpt>
      <trkpt lat="43.1342" lon="-0.64084">
        <ele>298.336304</ele>
      </trkpt>
      <trkpt lat="43.13409" lon="-0.64112">
        <ele>298.876129</ele>
      </trkpt>
      <trkpt lat="43.13361" lon="-0.64205">
        <ele>299.047424</ele>
      </trkpt>
      <trkpt lat="43.13351" lon="-0.64228">
        <ele>298.804382</ele>
      </trkpt>
      <trkpt lat="43.13353" lon="-0.6428">
        <ele>297.619537</ele>
      </trkpt>
      <trkpt lat="43.13359" lon="-0.64312">
        <ele>297.855499</ele>
      </trkpt>
      <trkpt lat="43.13357" lon="-0.64345">
        <ele>298.199982</ele>
      </trkpt>
      <trkpt lat="43.13345" lon="-0.64383">
        <ele>298.375244</ele>
      </trkpt>
      <trkpt lat="43.13334" lon="-0.64437">
        <ele>298.85907</ele>
      </trkpt>
      <trkpt lat="43.13326" lon="-0.64631">
        <ele>300.755005</ele>
      </trkpt>
      <trkpt lat="43.13314" lon="-0.64642">
        <ele>301.373077</ele>
      </trkpt>
      <trkpt lat="43.13262" lon="-0.64659">
        <ele>304.704956</ele>
      </trkpt>
      <trkpt lat="43.13229" lon="-0.64659">
        <ele>308.056824</ele>
      </trkpt>
      <trkpt lat="43.13214" lon="-0.64655">
        <ele>309.569305</ele>
      </trkpt>
      <trkpt lat="43.13152" lon="-0.6466">
        <ele>315.65155</ele>
      </trkpt>
      <trkpt lat="43.1314" lon="-0.64666">
        <ele>317.145416</ele>
      </trkpt>
      <trkpt lat="43.13134" lon="-0.64681">
        <ele>318.749176</ele>
      </trkpt>
      <trkpt lat="43.13136" lon="-0.647">
        <ele>319.274689</ele>
      </trkpt>
      <trkpt lat="43.13152" lon="-0.64699">
        <ele>317.093323</ele>
      </trkpt>
      <trkpt lat="43.13165" lon="-0.64719">
        <ele>315.729736</ele>
      </trkpt>
      <trkpt lat="43.13166" lon="-0.64742">
        <ele>315.832031</ele>
      </trkpt>
      <trkpt lat="43.1316" lon="-0.64759">
        <ele>317.131561</ele>
      </trkpt>
      <trkpt lat="43.13134" lon="-0.64786">
        <ele>323.545502</ele>
      </trkpt>
      <trkpt lat="43.13111" lon="-0.64804">
        <ele>329.468353</ele>
      </trkpt>
      <trkpt lat="43.13057" lon="-0.64862">
        <ele>344.022583</ele>
      </trkpt>
      <trkpt lat="43.13037" lon="-0.6489">
        <ele>347.351349</ele>
      </trkpt>
      <trkpt lat="43.13015" lon="-0.64909">
        <ele>352.275085</ele>
      </trkpt>
      <trkpt lat="43.12998" lon="-0.6493">
        <ele>354.57077</ele>
      </trkpt>
      <trkpt lat="43.12907" lon="-0.65009">
        <ele>354.361908</ele>
      </trkpt>
      <trkpt lat="43.12863" lon="-0.6503">
        <ele>359.240234</ele>
      </trkpt>
      <trkpt lat="43.12842" lon="-0.65042">
        <ele>361.571655</ele>
      </trkpt>
      <trkpt lat="43.12825" lon="-0.65046">
        <ele>365.583801</ele>
      </trkpt>
      <trkpt lat="43.12822" lon="-0.65043">
        <ele>367.560333</ele>
      </trkpt>
      <trkpt lat="43.12823" lon="-0.65034">
        <ele>369.42276</ele>
      </trkpt>
      <trkpt lat="43.12833" lon="-0.65026">
        <ele>369.326385</ele>
      </trkpt>
      <trkpt lat="43.12851" lon="-0.6502">
        <ele>365.828674</ele>
      </trkpt>
      <trkpt lat="43.12869" lon="-0.64997">
        <ele>367.64502</ele>
      </trkpt>
      <trkpt lat="43.12906" lon="-0.64938">
        <ele>373.178192</ele>
      </trkpt>
      <trkpt lat="43.12925" lon="-0.64859">
        <ele>381.076172</ele>
      </trkpt>
      <trkpt lat="43.12926" lon="-0.64799">
        <ele>380.26416</ele>
      </trkpt>
      <trkpt lat="43.12907" lon="-0.64763">
        <ele>382.572205</ele>
      </trkpt>
      <trkpt lat="43.12887" lon="-0.64744">
        <ele>387.906494</ele>
      </trkpt>
      <trkpt lat="43.12869" lon="-0.64704">
        <ele>386.085693</ele>
      </trkpt>
      <trkpt lat="43.12852" lon="-0.64673">
        <ele>385.884216</ele>
      </trkpt>
      <trkpt lat="43.12837" lon="-0.64659">
        <ele>388.361053</ele>
      </trkpt>
      <trkpt lat="43.12807" lon="-0.64641">
        <ele>392.03952</ele>
      </trkpt>
      <trkpt lat="43.12741" lon="-0.64625">
        <ele>404.250427</ele>
      </trkpt>
      <trkpt lat="43.12698" lon="-0.64603">
        <ele>407.592072</ele>
      </trkpt>
      <trkpt lat="43.12666" lon="-0.64593">
        <ele>412.94751</ele>
      </trkpt>
      <trkpt lat="43.12619" lon="-0.64573">
        <ele>416.559204</ele>
      </trkpt>
      <trkpt lat="43.12526" lon="-0.6455">
        <ele>425.501251</ele>
      </trkpt>
      <trkpt lat="43.12491" lon="-0.64545">
        <ele>429.072906</ele>
      </trkpt>
      <trkpt lat="43.1245" lon="-0.64535">
        <ele>429.843262</ele>
      </trkpt>
      <trkpt lat="43.12391" lon="-0.64531">
        <ele>433.821869</ele>
      </trkpt>
      <trkpt lat="43.12352" lon="-0.64521">
        <ele>438.27948</ele>
      </trkpt>
      <trkpt lat="43.12311" lon="-0.64502">
        <ele>443.503143</ele>
      </trkpt>
      <trkpt lat="43.12303" lon="-0.64494">
        <ele>443.490631</ele>
      </trkpt>
      <trkpt lat="43.12291" lon="-0.6449">
        <ele>445.450012</ele>
      </trkpt>
      <trkpt lat="43.12263" lon="-0.64491">
        <ele>453.904938</ele>
      </trkpt>
      <trkpt lat="43.12253" lon="-0.64496">
        <ele>456.878571</ele>
      </trkpt>
      <trkpt lat="43.12249" lon="-0.64501">
        <ele>457.768005</ele>
      </trkpt>
      <trkpt lat="43.12239" lon="-0.64504">
        <ele>460.348206</ele>
      </trkpt>
      <trkpt lat="43.12234" lon="-0.64502">
        <ele>462.4021</ele>
      </trkpt>
      <trkpt lat="43.12234" lon="-0.64483">
        <ele>463.760986</ele>
      </trkpt>
      <trkpt lat="43.12264" lon="-0.64411">
        <ele>462.0867</ele>
      </trkpt>
      <trkpt lat="43.1228" lon="-0.6436">
        <ele>466.697845</ele>
      </trkpt>
      <trkpt lat="43.12291" lon="-0.64332">
        <ele>468.104095</ele>
      </trkpt>
      <trkpt lat="43.12309" lon="-0.64299">
        <ele>469.598816</ele>
      </trkpt>
      <trkpt lat="43.12327" lon="-0.64275">
        <ele>469.082916</ele>
      </trkpt>
      <trkpt lat="43.12353" lon="-0.64245">
        <ele>467.261505</ele>
      </trkpt>
      <trkpt lat="43.12379" lon="-0.64209">
        <ele>467.111176</ele>
      </trkpt>
      <trkpt lat="43.12382" lon="-0.64198">
        <ele>469.164001</ele>
      </trkpt>
      <trkpt lat="43.12375" lon="-0.64199">
        <ele>472.098511</ele>
      </trkpt>
      <trkpt lat="43.12321" lon="-0.64243">
        <ele>483.712402</ele>
      </trkpt>
      <trkpt lat="43.12294" lon="-0.64272">
        <ele>485.745697</ele>
      </trkpt>
      <trkpt lat="43.12268" lon="-0.64305">
        <ele>489.021881</ele>
      </trkpt>
      <trkpt lat="43.12247" lon="-0.64328">
        <ele>492.106873</ele>
      </trkpt>
      <trkpt lat="43.12208" lon="-0.64394">
        <ele>492.31427</ele>
      </trkpt>
      <trkpt lat="43.12196" lon="-0.64421">
        <ele>491.115753</ele>
      </trkpt>
      <trkpt lat="43.12156" lon="-0.64495">
        <ele>492.743744</ele>
      </trkpt>
      <trkpt lat="43.1214" lon="-0.64531">
        <ele>494.036102</ele>
      </trkpt>
      <trkpt lat="43.12117" lon="-0.64563">
        <ele>496.311249</ele>
      </trkpt>
      <trkpt lat="43.12086" lon="-0.646">
        <ele>506.548004</ele>
      </trkpt>
      <trkpt lat="43.12074" lon="-0.64631">
        <ele>511.512054</ele>
      </trkpt>
      <trkpt lat="43.12082" lon="-0.64681">
        <ele>517.453491</ele>
      </trkpt>
      <trkpt lat="43.12103" lon="-0.64712">
        <ele>518.95752</ele>
      </trkpt>
      <trkpt lat="43.1212" lon="-0.64728">
        <ele>521.72876</ele>
      </trkpt>
      <trkpt lat="43.12148" lon="-0.64744">
        <ele>523.619934</ele>
      </trkpt>
      <trkpt lat="43.12155" lon="-0.64752">
        <ele>525.483276</ele>
      </trkpt>
      <trkpt lat="43.12171" lon="-0.64778">
        <ele>528.207031</ele>
      </trkpt>
      <trkpt lat="43.12173" lon="-0.64788">
        <ele>529.137756</ele>
      </trkpt>
      <trkpt lat="43.12172" lon="-0.64809">
        <ele>531.139954</ele>
      </trkpt>
      <trkpt lat="43.12168" lon="-0.64818">
        <ele>532.149414</ele>
      </trkpt>
      <trkpt lat="43.12171" lon="-0.64831">
        <ele>532.799561</ele>
      </trkpt>
      <trkpt lat="43.12165" lon="-0.64839">
        <ele>533.762085</ele>
      </trkpt>
      <trkpt lat="43.12152" lon="-0.64839">
        <ele>535.019348</ele>
      </trkpt>
      <trkpt lat="43.12142" lon="-0.64852">
        <ele>537.96875</ele>
      </trkpt>
      <trkpt lat="43.12111" lon="-0.6493">
        <ele>549.668762</ele>
      </trkpt>
      <trkpt lat="43.1208" lon="-0.64988">
        <ele>555.198425</ele>
      </trkpt>
      <trkpt lat="43.1207" lon="-0.65">
        <ele>557.177795</ele>
      </trkpt>
      <trkpt lat="43.12053" lon="-0.65037">
        <ele>558.301575</ele>
      </trkpt>
      <trkpt lat="43.12021" lon="-0.65092">
        <ele>567.034668</ele>
      </trkpt>
      <trkpt lat="43.12008" lon="-0.65121">
        <ele>570.166016</ele>
      </trkpt>
      <trkpt lat="43.11998" lon="-0.65162">
        <ele>574.210083</ele>
      </trkpt>
      <trkpt lat="43.11994" lon="-0.65201">
        <ele>579.333923</ele>
      </trkpt>
      <trkpt lat="43.11996" lon="-0.65247">
        <ele>582.813599</ele>
      </trkpt>
      <trkpt lat="43.12003" lon="-0.65304">
        <ele>587.285645</ele>
      </trkpt>
      <trkpt lat="43.12013" lon="-0.65347">
        <ele>585.664185</ele>
      </trkpt>
      <trkpt lat="43.12014" lon="-0.65366">
        <ele>586.5</ele>
      </trkpt>
      <trkpt lat="43.12021" lon="-0.65411">
        <ele>583.82251</ele>
      </trkpt>
      <trkpt lat="43.12027" lon="-0.65433">
        <ele>581.299988</ele>
      </trkpt>
      <trkpt lat="43.12032" lon="-0.65471">
        <ele>577.912476</ele>
      </trkpt>
      <trkpt lat="43.12033" lon="-0.65522">
        <ele>572.226257</ele>
      </trkpt>
      <trkpt lat="43.1202" lon="-0.65569">
        <ele>570.86377</ele>
      </trkpt>
      <trkpt lat="43.11996" lon="-0.65637">
        <ele>567.930176</ele>
      </trkpt>
      <trkpt lat="43.11962" lon="-0.65719">
        <ele>562.566162</ele>
      </trkpt>
      <trkpt lat="43.11885" lon="-0.65887">
        <ele>555.774292</ele>
      </trkpt>
      <trkpt lat="43.1187" lon="-0.65912">
        <ele>552.226929</ele>
      </trkpt>
      <trkpt lat="43.1186" lon="-0.65923">
        <ele>550.614197</ele>
      </trkpt>
      <trkpt lat="43.11771" lon="-0.65969">
        <ele>538.772034</ele>
      </trkpt>
      <trkpt lat="43.11741" lon="-0.65981">
        <ele>532.007141</ele>
      </trkpt>
      <trkpt lat="43.11732" lon="-0.65992">
        <ele>525.86615</ele>
      </trkpt>
      <trkpt lat="43.11733" lon="-0.66002">
        <ele>521.909729</ele>
      </trkpt>
      <trkpt lat="43.11737" lon="-0.66003">
        <ele>522.549805</ele>
      </trkpt>
      <trkpt lat="43.11754" lon="-0.66021">
        <ele>520.784302</ele>
      </trkpt>
      <trkpt lat="43.11755" lon="-0.66034">
        <ele>518.215088</ele>
      </trkpt>
      <trkpt lat="43.11749" lon="-0.66066">
        <ele>509.418945</ele>
      </trkpt>
      <trkpt lat="43.11742" lon="-0.66086">
        <ele>502.058075</ele>
      </trkpt>
      <trkpt lat="43.11736" lon="-0.66093">
        <ele>499.524048</ele>
      </trkpt>
      <trkpt lat="43.11725" lon="-0.66136">
        <ele>495.853027</ele>
      </trkpt>
      <trkpt lat="43.11723" lon="-0.66149">
        <ele>495.092682</ele>
      </trkpt>
      <trkpt lat="43.11725" lon="-0.66169">
        <ele>493.940277</ele>
      </trkpt>
      <trkpt lat="43.11732" lon="-0.66198">
        <ele>494.809143</ele>
      </trkpt>
      <trkpt lat="43.11761" lon="-0.66271">
        <ele>486.871948</ele>
      </trkpt>
      <trkpt lat="43.11773" lon="-0.66295">
        <ele>485.052002</ele>
      </trkpt>
      <trkpt lat="43.11784" lon="-0.66323">
        <ele>483.813385</ele>
      </trkpt>
      <trkpt lat="43.11772" lon="-0.66371">
        <ele>472.498566</ele>
      </trkpt>
      <trkpt lat="43.11769" lon="-0.66404">
        <ele>466.138947</ele>
      </trkpt>
      <trkpt lat="43.1177" lon="-0.66435">
        <ele>460.853546</ele>
      </trkpt>
      <trkpt lat="43.11781" lon="-0.66495">
        <ele>455.41098</ele>
      </trkpt>
      <trkpt lat="43.11801" lon="-0.66548">
        <ele>451.8685</ele>
      </trkpt>
      <trkpt lat="43.11792" lon="-0.6657">
        <ele>453.405457</ele>
      </trkpt>
      <trkpt lat="43.11794" lon="-0.6658">
        <ele>454.181213</ele>
      </trkpt>
      <trkpt lat="43.11807" lon="-0.66587">
        <ele>453.933044</ele>
      </trkpt>
      <trkpt lat="43.11822" lon="-0.66588">
        <ele>451.647827</ele>
      </trkpt>
      <trkpt lat="43.11839" lon="-0.666">
        <ele>450.430145</ele>
      </trkpt>
      <trkpt lat="43.11868" lon="-0.66647">
        <ele>450.506653</ele>
      </trkpt>
      <trkpt lat="43.11869" lon="-0.66657">
        <ele>449.334625</ele>
      </trkpt>
      <trkpt lat="43.11867" lon="-0.6667">
        <ele>448.94281</ele>
      </trkpt>
      <trkpt lat="43.11846" lon="-0.66726">
        <ele>458.251465</ele>
      </trkpt>
      <trkpt lat="43.11843" lon="-0.66738">
        <ele>460.085449</ele>
      </trkpt>
      <trkpt lat="43.11846" lon="-0.66748">
        <ele>459.416138</ele>
      </trkpt>
      <trkpt lat="43.11851" lon="-0.66753">
        <ele>457.62027</ele>
      </trkpt>
      <trkpt lat="43.11864" lon="-0.66756">
        <ele>452.950806</ele>
      </trkpt>
      <trkpt lat="43.11883" lon="-0.66755">
        <ele>449.079407</ele>
      </trkpt>
      <trkpt lat="43.11904" lon="-0.6676">
        <ele>446.633087</ele>
      </trkpt>
      <trkpt lat="43.11918" lon="-0.66775">
        <ele>451.095001</ele>
      </trkpt>
      <trkpt lat="43.11936" lon="-0.66771">
        <ele>449.964996</ele>
      </trkpt>
      <trkpt lat="43.11952" lon="-0.66773">
        <ele>451.342499</ele>
      </trkpt>
      <trkpt lat="43.12001" lon="-0.66767">
        <ele>450.926178</ele>
      </trkpt>
      <trkpt lat="43.12021" lon="-0.66773">
        <ele>454.709869</ele>
      </trkpt>
      <trkpt lat="43.12047" lon="-0.66771">
        <ele>455.8396</ele>
      </trkpt>
      <trkpt lat="43.12063" lon="-0.66773">
        <ele>455.862396</ele>
      </trkpt>
      <trkpt lat="43.12075" lon="-0.66782">
        <ele>457.251678</ele>
      </trkpt>
      <trkpt lat="43.12084" lon="-0.66795">
        <ele>458.952087</ele>
      </trkpt>
      <trkpt lat="43.12091" lon="-0.66815">
        <ele>461.305969</ele>
      </trkpt>
      <trkpt lat="43.12094" lon="-0.66869">
        <ele>465.070129</ele>
      </trkpt>
      <trkpt lat="43.12098" lon="-0.66883">
        <ele>464.474091</ele>
      </trkpt>
      <trkpt lat="43.12105" lon="-0.66888">
        <ele>463.053772</ele>
      </trkpt>
      <trkpt lat="43.12111" lon="-0.66888">
        <ele>461.482452</ele>
      </trkpt>
      <trkpt lat="43.12124" lon="-0.66897">
        <ele>459.456696</ele>
      </trkpt>
      <trkpt lat="43.12129" lon="-0.66907">
        <ele>459.290649</ele>
      </trkpt>
      <trkpt lat="43.12131" lon="-0.66918">
        <ele>459.81546</ele>
      </trkpt>
      <trkpt lat="43.12127" lon="-0.66922">
        <ele>460.929291</ele>
      </trkpt>
      <trkpt lat="43.12112" lon="-0.66921">
        <ele>463.595306</ele>
      </trkpt>
      <trkpt lat="43.12094" lon="-0.66916">
        <ele>466.614594</ele>
      </trkpt>
      <trkpt lat="43.12078" lon="-0.66906">
        <ele>470.791992</ele>
      </trkpt>
      <trkpt lat="43.12052" lon="-0.66881">
        <ele>478.467712</ele>
      </trkpt>
      <trkpt lat="43.12042" lon="-0.66877">
        <ele>480.893066</ele>
      </trkpt>
      <trkpt lat="43.11931" lon="-0.66892">
        <ele>491.346375</ele>
      </trkpt>
      <trkpt lat="43.11891" lon="-0.66911">
        <ele>497.401245</ele>
      </trkpt>
      <trkpt lat="43.11828" lon="-0.66945">
        <ele>517.239685</ele>
      </trkpt>
      <trkpt lat="43.11765" lon="-0.66965">
        <ele>529.936462</ele>
      </trkpt>
      <trkpt lat="43.11715" lon="-0.66976">
        <ele>545.697815</ele>
      </trkpt>
      <trkpt lat="43.11698" lon="-0.66992">
        <ele>549.328918</ele>
      </trkpt>
      <trkpt lat="43.11673" lon="-0.67028">
        <ele>553.621582</ele>
      </trkpt>
      <trkpt lat="43.11674" lon="-0.6705">
        <ele>549.323792</ele>
      </trkpt>
      <trkpt lat="43.11659" lon="-0.6707">
        <ele>552.349731</ele>
      </trkpt>
      <trkpt lat="43.11637" lon="-0.67081">
        <ele>558.85614</ele>
      </trkpt>
      <trkpt lat="43.11611" lon="-0.67084">
        <ele>566.190369</ele>
      </trkpt>
      <trkpt lat="43.11578" lon="-0.67171">
        <ele>566.49939</ele>
      </trkpt>
      <trkpt lat="43.11575" lon="-0.67197">
        <ele>566.133728</ele>
      </trkpt>
      <trkpt lat="43.11576" lon="-0.67238">
        <ele>564.407593</ele>
      </trkpt>
      <trkpt lat="43.1161" lon="-0.67279">
        <ele>560.103149</ele>
      </trkpt>
      <trkpt lat="43.11628" lon="-0.67307">
        <ele>562.281372</ele>
      </trkpt>
      <trkpt lat="43.11646" lon="-0.67324">
        <ele>559.590027</ele>
      </trkpt>
      <trkpt lat="43.11665" lon="-0.6733">
        <ele>560.070801</ele>
      </trkpt>
      <trkpt lat="43.11702" lon="-0.67332">
        <ele>561.264648</ele>
      </trkpt>
      <trkpt lat="43.11729" lon="-0.67347">
        <ele>560.47113</ele>
      </trkpt>
      <trkpt lat="43.11745" lon="-0.67369">
        <ele>558.488281</ele>
      </trkpt>
      <trkpt lat="43.1176" lon="-0.67397">
        <ele>553.646973</ele>
      </trkpt>
      <trkpt lat="43.11786" lon="-0.67459">
        <ele>541.0448</ele>
      </trkpt>
      <trkpt lat="43.11811" lon="-0.67494">
        <ele>532.278992</ele>
      </trkpt>
      <trkpt lat="43.11837" lon="-0.67509">
        <ele>528.119995</ele>
      </trkpt>
      <trkpt lat="43.11843" lon="-0.67521">
        <ele>525.315002</ele>
      </trkpt>
      <trkpt lat="43.11861" lon="-0.67522">
        <ele>524.615356</ele>
      </trkpt>
      <trkpt lat="43.11897" lon="-0.67519">
        <ele>523.979492</ele>
      </trkpt>
      <trkpt lat="43.11907" lon="-0.6753">
        <ele>522.21106</ele>
      </trkpt>
      <trkpt lat="43.11913" lon="-0.67543">
        <ele>520.907837</ele>
      </trkpt>
      <trkpt lat="43.11919" lon="-0.67551">
        <ele>520.529114</ele>
      </trkpt>
      <trkpt lat="43.11944" lon="-0.67571">
        <ele>520.435181</ele>
      </trkpt>
      <trkpt lat="43.11962" lon="-0.67589">
        <ele>519.16626</ele>
      </trkpt>
      <trkpt lat="43.12003" lon="-0.67624">
        <ele>521.382324</ele>
      </trkpt>
      <trkpt lat="43.12031" lon="-0.6764">
        <ele>523.745911</ele>
      </trkpt>
      <trkpt lat="43.12102" lon="-0.67655">
        <ele>528.803467</ele>
      </trkpt>
      <trkpt lat="43.12146" lon="-0.67644">
        <ele>526.490967</ele>
      </trkpt>
      <trkpt lat="43.12165" lon="-0.67642">
        <ele>525.644897</ele>
      </trkpt>
      <trkpt lat="43.12207" lon="-0.67647">
        <ele>525.234985</ele>
      </trkpt>
      <trkpt lat="43.12227" lon="-0.67653">
        <ele>524.837524</ele>
      </trkpt>
      <trkpt lat="43.12257" lon="-0.67668">
        <ele>527.556641</ele>
      </trkpt>
      <trkpt lat="43.12287" lon="-0.67649">
        <ele>521.779053</ele>
      </trkpt>
      <trkpt lat="43.12298" lon="-0.67639">
        <ele>518.794861</ele>
      </trkpt>
      <trkpt lat="43.12314" lon="-0.67635">
        <ele>517.422852</ele>
      </trkpt>
      <trkpt lat="43.12328" lon="-0.67641">
        <ele>518.850098</ele>
      </trkpt>
      <trkpt lat="43.12344" lon="-0.67653">
        <ele>519.472229</ele>
      </trkpt>
      <trkpt lat="43.12361" lon="-0.67682">
        <ele>518.352234</ele>
      </trkpt>
      <trkpt lat="43.12366" lon="-0.67699">
        <ele>519.268066</ele>
      </trkpt>
      <trkpt lat="43.12368" lon="-0.67719">
        <ele>521.140808</ele>
      </trkpt>
      <trkpt lat="43.12383" lon="-0.67734">
        <ele>517.438477</ele>
      </trkpt>
      <trkpt lat="43.12389" lon="-0.67744">
        <ele>516.834717</ele>
      </trkpt>
      <trkpt lat="43.12393" lon="-0.67766">
        <ele>519.022278</ele>
      </trkpt>
      <trkpt lat="43.12425" lon="-0.67798">
        <ele>520.793518</ele>
      </trkpt>
      <trkpt lat="43.12452" lon="-0.67806">
        <ele>524.679199</ele>
      </trkpt>
      <trkpt lat="43.1246" lon="-0.67834">
        <ele>532.81842</ele>
      </trkpt>
      <trkpt lat="43.12468" lon="-0.67881">
        <ele>533.976257</ele>
      </trkpt>
      <trkpt lat="43.12478" lon="-0.67895">
        <ele>534.712524</ele>
      </trkpt>
      <trkpt lat="43.12489" lon="-0.67918">
        <ele>534.33783</ele>
      </trkpt>
      <trkpt lat="43.12503" lon="-0.67922">
        <ele>535.936951</ele>
      </trkpt>
      <trkpt lat="43.12518" lon="-0.67923">
        <ele>535.523071</ele>
      </trkpt>
      <trkpt lat="43.12529" lon="-0.67935">
        <ele>533.549194</ele>
      </trkpt>
      <trkpt lat="43.12536" lon="-0.67955">
        <ele>531.85791</ele>
      </trkpt>
      <trkpt lat="43.12543" lon="-0.67963">
        <ele>530.96405</ele>
      </trkpt>
      <trkpt lat="43.12568" lon="-0.6796">
        <ele>526.132629</ele>
      </trkpt>
      <trkpt lat="43.12581" lon="-0.67954">
        <ele>522.721375</ele>
      </trkpt>
      <trkpt lat="43.126" lon="-0.67929">
        <ele>516.77533</ele>
      </trkpt>
      <trkpt lat="43.1261" lon="-0.67904">
        <ele>512.319336</ele>
      </trkpt>
      <trkpt lat="43.12635" lon="-0.6786">
        <ele>503.524353</ele>
      </trkpt>
      <trkpt lat="43.12655" lon="-0.67811">
        <ele>495.163239</ele>
      </trkpt>
      <trkpt lat="43.12665" lon="-0.67791">
        <ele>491.590759</ele>
      </trkpt>
      <trkpt lat="43.12703" lon="-0.67736">
        <ele>474.374115</ele>
      </trkpt>
      <trkpt lat="43.1271" lon="-0.67721">
        <ele>470.656097</ele>
      </trkpt>
      <trkpt lat="43.12714" lon="-0.67699">
        <ele>465.459747</ele>
      </trkpt>
      <trkpt lat="43.12714" lon="-0.67667">
        <ele>459.391876</ele>
      </trkpt>
      <trkpt lat="43.12709" lon="-0.67642">
        <ele>453.965637</ele>
      </trkpt>
      <trkpt lat="43.12702" lon="-0.67629">
        <ele>451.978119</ele>
      </trkpt>
      <trkpt lat="43.12694" lon="-0.67624">
        <ele>451.446686</ele>
      </trkpt>
      <trkpt lat="43.12684" lon="-0.67625">
        <ele>451.158234</ele>
      </trkpt>
      <trkpt lat="43.12663" lon="-0.6764">
        <ele>456.462555</ele>
      </trkpt>
      <trkpt lat="43.12656" lon="-0.67639">
        <ele>456.437256</ele>
      </trkpt>
      <trkpt lat="43.12655" lon="-0.67634">
        <ele>454.516418</ele>
      </trkpt>
      <trkpt lat="43.12656" lon="-0.67628">
        <ele>451.90799</ele>
      </trkpt>
      <trkpt lat="43.12666" lon="-0.67615">
        <ele>447.119537</ele>
      </trkpt>
      <trkpt lat="43.12682" lon="-0.67585">
        <ele>439.110046</ele>
      </trkpt>
      <trkpt lat="43.12693" lon="-0.67571">
        <ele>435.989868</ele>
      </trkpt>
      <trkpt lat="43.12701" lon="-0.67566">
        <ele>434.383606</ele>
      </trkpt>
      <trkpt lat="43.12738" lon="-0.67583">
        <ele>435.808594</ele>
      </trkpt>
      <trkpt lat="43.12761" lon="-0.67587">
        <ele>433.740692</ele>
      </trkpt>
      <trkpt lat="43.12776" lon="-0.67586">
        <ele>431.338867</ele>
      </trkpt>
      <trkpt lat="43.12791" lon="-0.67573">
        <ele>426.621948</ele>
      </trkpt>
      <trkpt lat="43.12797" lon="-0.67544">
        <ele>419.491608</ele>
      </trkpt>
      <trkpt lat="43.12803" lon="-0.67533">
        <ele>416.622803</ele>
      </trkpt>
      <trkpt lat="43.12818" lon="-0.67529">
        <ele>413.078369</ele>
      </trkpt>
      <trkpt lat="43.12836" lon="-0.6754">
        <ele>410.854645</ele>
      </trkpt>
      <trkpt lat="43.12842" lon="-0.67548">
        <ele>410.237488</ele>
      </trkpt>
      <trkpt lat="43.12852" lon="-0.67555">
        <ele>408.507233</ele>
      </trkpt>
      <trkpt lat="43.12857" lon="-0.67542">
        <ele>405.370636</ele>
      </trkpt>
      <trkpt lat="43.12858" lon="-0.67491">
        <ele>399.968628</ele>
      </trkpt>
      <trkpt lat="43.12867" lon="-0.67476">
        <ele>399.272552</ele>
      </trkpt>
      <trkpt lat="43.12885" lon="-0.67464">
        <ele>397.88562</ele>
      </trkpt>
      <trkpt lat="43.12944" lon="-0.67449">
        <ele>389.496765</ele>
      </trkpt>
      <trkpt lat="43.12966" lon="-0.67436">
        <ele>386.336884</ele>
      </trkpt>
      <trkpt lat="43.13007" lon="-0.67392">
        <ele>381.184998</ele>
      </trkpt>
      <trkpt lat="43.1302" lon="-0.67382">
        <ele>379.784668</ele>
      </trkpt>
      <trkpt lat="43.13032" lon="-0.67364">
        <ele>379.719696</ele>
      </trkpt>
      <trkpt lat="43.1304" lon="-0.67344">
        <ele>380.356323</ele>
      </trkpt>
      <trkpt lat="43.13045" lon="-0.67319">
        <ele>382.340637</ele>
      </trkpt>
      <trkpt lat="43.13054" lon="-0.67304">
        <ele>382.520447</ele>
      </trkpt>
      <trkpt lat="43.13078" lon="-0.67213">
        <ele>387.141449</ele>
      </trkpt>
      <trkpt lat="43.1309" lon="-0.67156">
        <ele>389.790771</ele>
      </trkpt>
      <trkpt lat="43.13104" lon="-0.67117">
        <ele>392.244995</ele>
      </trkpt>
      <trkpt lat="43.13123" lon="-0.6708">
        <ele>395.026886</ele>
      </trkpt>
      <trkpt lat="43.13145" lon="-0.6705">
        <ele>397.326904</ele>
      </trkpt>
      <trkpt lat="43.13161" lon="-0.67007">
        <ele>393.717468</ele>
      </trkpt>
      <trkpt lat="43.13187" lon="-0.66954">
        <ele>390.204987</ele>
      </trkpt>
      <trkpt lat="43.13212" lon="-0.66932">
        <ele>393.504059</ele>
      </trkpt>
      <trkpt lat="43.13287" lon="-0.6676">
        <ele>382.721954</ele>
      </trkpt>
      <trkpt lat="43.13307" lon="-0.66737">
        <ele>382.866425</ele>
      </trkpt>
      <trkpt lat="43.13337" lon="-0.66711">
        <ele>386.385681</ele>
      </trkpt>
      <trkpt lat="43.13348" lon="-0.66694">
        <ele>386.840424</ele>
      </trkpt>
      <trkpt lat="43.13374" lon="-0.66642">
        <ele>387.640686</ele>
      </trkpt>
      <trkpt lat="43.1338" lon="-0.66621">
        <ele>387.423523</ele>
      </trkpt>
      <trkpt lat="43.13388" lon="-0.66608">
        <ele>388.055695</ele>
      </trkpt>
      <trkpt lat="43.13411" lon="-0.66592">
        <ele>390.926819</ele>
      </trkpt>
      <trkpt lat="43.13418" lon="-0.66594">
        <ele>392.326141</ele>
      </trkpt>
      <trkpt lat="43.13426" lon="-0.66602">
        <ele>394.886169</ele>
      </trkpt>
      <trkpt lat="43.13437" lon="-0.6662">
        <ele>399.726044</ele>
      </trkpt>
      <trkpt lat="43.13437" lon="-0.66642">
        <ele>403.351776</ele>
      </trkpt>
      <trkpt lat="43.13421" lon="-0.66693">
        <ele>408.729523</ele>
      </trkpt>
      <trkpt lat="43.13387" lon="-0.66741">
        <ele>410.337708</ele>
      </trkpt>
      <trkpt lat="43.13344" lon="-0.66792">
        <ele>410.459412</ele>
      </trkpt>
      <trkpt lat="43.13331" lon="-0.66812">
        <ele>411.735931</ele>
      </trkpt>
      <trkpt lat="43.13319" lon="-0.66834">
        <ele>413.855652</ele>
      </trkpt>
      <trkpt lat="43.13315" lon="-0.66848">
        <ele>415.818909</ele>
      </trkpt>
      <trkpt lat="43.13293" lon="-0.66944">
        <ele>430.804993</ele>
      </trkpt>
      <trkpt lat="43.13273" lon="-0.67016">
        <ele>439.287628</ele>
      </trkpt>
      <trkpt lat="43.1326" lon="-0.67053">
        <ele>441.867371</ele>
      </trkpt>
      <trkpt lat="43.13255" lon="-0.67075">
        <ele>444.549255</ele>
      </trkpt>
      <trkpt lat="43.13247" lon="-0.67126">
        <ele>448.990936</ele>
      </trkpt>
      <trkpt lat="43.13246" lon="-0.67155">
        <ele>450.46286</ele>
      </trkpt>
      <trkpt lat="43.13254" lon="-0.67182">
        <ele>451.774719</ele>
      </trkpt>
      <trkpt lat="43.13262" lon="-0.67199">
        <ele>452.710968</ele>
      </trkpt>
      <trkpt lat="43.13282" lon="-0.67217">
        <ele>454.040894</ele>
      </trkpt>
      <trkpt lat="43.13295" lon="-0.67222">
        <ele>455.219269</ele>
      </trkpt>
      <trkpt lat="43.13362" lon="-0.67217">
        <ele>466.651001</ele>
      </trkpt>
      <trkpt lat="43.13386" lon="-0.67212">
        <ele>471.779999</ele>
      </trkpt>
      <trkpt lat="43.13396" lon="-0.67216">
        <ele>474.514038</ele>
      </trkpt>
      <trkpt lat="43.13402" lon="-0.67226">
        <ele>475.614502</ele>
      </trkpt>
      <trkpt lat="43.13404" lon="-0.67239">
        <ele>475.132202</ele>
      </trkpt>
      <trkpt lat="43.13403" lon="-0.67319">
        <ele>471.366608</ele>
      </trkpt>
      <trkpt lat="43.13411" lon="-0.6734">
        <ele>474.292297</ele>
      </trkpt>
      <trkpt lat="43.13426" lon="-0.67367">
        <ele>476.628754</ele>
      </trkpt>
      <trkpt lat="43.13446" lon="-0.67391">
        <ele>479.203766</ele>
      </trkpt>
      <trkpt lat="43.13465" lon="-0.67406">
        <ele>481.527496</ele>
      </trkpt>
      <trkpt lat="43.13484" lon="-0.67417">
        <ele>482.386444</ele>
      </trkpt>
      <trkpt lat="43.13526" lon="-0.6745">
        <ele>481.537506</ele>
      </trkpt>
      <trkpt lat="43.13567" lon="-0.67478">
        <ele>477.980591</ele>
      </trkpt>
      <trkpt lat="43.13605" lon="-0.67489">
        <ele>476.418121</ele>
      </trkpt>
      <trkpt lat="43.13667" lon="-0.67482">
        <ele>477.719635</ele>
      </trkpt>
      <trkpt lat="43.13705" lon="-0.67473">
        <ele>479.013214</ele>
      </trkpt>
      <trkpt lat="43.13703" lon="-0.67469">
        <ele>480.138885</ele>
      </trkpt>
      <trkpt lat="43.13648" lon="-0.67444">
        <ele>487.55603</ele>
      </trkpt>
      <trkpt lat="43.1356" lon="-0.6738">
        <ele>502.370087</ele>
      </trkpt>
      <trkpt lat="43.13543" lon="-0.67363">
        <ele>503.848755</ele>
      </trkpt>
      <trkpt lat="43.13514" lon="-0.67324">
        <ele>506.109467</ele>
      </trkpt>
      <trkpt lat="43.13502" lon="-0.67303">
        <ele>505.535248</ele>
      </trkpt>
      <trkpt lat="43.13495" lon="-0.67284">
        <ele>505.327759</ele>
      </trkpt>
      <trkpt lat="43.13464" lon="-0.67172">
        <ele>502.118713</ele>
      </trkpt>
      <trkpt lat="43.13454" lon="-0.67128">
        <ele>502.210297</ele>
      </trkpt>
      <trkpt lat="43.13456" lon="-0.67081">
        <ele>503.510162</ele>
      </trkpt>
      <trkpt lat="43.13461" lon="-0.67058">
        <ele>503.003296</ele>
      </trkpt>
      <trkpt lat="43.1347" lon="-0.67045">
        <ele>504.123993</ele>
      </trkpt>
      <trkpt lat="43.13487" lon="-0.67029">
        <ele>505.742554</ele>
      </trkpt>
      <trkpt lat="43.13501" lon="-0.67019">
        <ele>505.806061</ele>
      </trkpt>
      <trkpt lat="43.13512" lon="-0.67015">
        <ele>506.555328</ele>
      </trkpt>
      <trkpt lat="43.13531" lon="-0.67016">
        <ele>509.168304</ele>
      </trkpt>
      <trkpt lat="43.13555" lon="-0.67028">
        <ele>515.870056</ele>
      </trkpt>
      <trkpt lat="43.13591" lon="-0.67021">
        <ele>517.585022</ele>
      </trkpt>
      <trkpt lat="43.13616" lon="-0.67019">
        <ele>520.146057</ele>
      </trkpt>
      <trkpt lat="43.13633" lon="-0.67023">
        <ele>524.959839</ele>
      </trkpt>
      <trkpt lat="43.13647" lon="-0.67019">
        <ele>526.015015</ele>
      </trkpt>
      <trkpt lat="43.13668" lon="-0.67002">
        <ele>524.432495</ele>
      </trkpt>
      <trkpt lat="43.13731" lon="-0.66958">
        <ele>521.609375</ele>
      </trkpt>
      <trkpt lat="43.13808" lon="-0.66927">
        <ele>526.999573</ele>
      </trkpt>
      <trkpt lat="43.13879" lon="-0.66884">
        <ele>541.034058</ele>
      </trkpt>
      <trkpt lat="43.13891" lon="-0.66868">
        <ele>541.777283</ele>
      </trkpt>
      <trkpt lat="43.13898" lon="-0.66844">
        <ele>540.492004</ele>
      </trkpt>
      <trkpt lat="43.13911" lon="-0.66833">
        <ele>541.174316</ele>
      </trkpt>
      <trkpt lat="43.13962" lon="-0.66743">
        <ele>543.236023</ele>
      </trkpt>
      <trkpt lat="43.13974" lon="-0.66728">
        <ele>543.623901</ele>
      </trkpt>
      <trkpt lat="43.13999" lon="-0.66705">
        <ele>543.911682</ele>
      </trkpt>
      <trkpt lat="43.14057" lon="-0.66662">
        <ele>541.053955</ele>
      </trkpt>
      <trkpt lat="43.14075" lon="-0.66647">
        <ele>541.11908</ele>
      </trkpt>
      <trkpt lat="43.14103" lon="-0.66601">
        <ele>536.935669</ele>
      </trkpt>
      <trkpt lat="43.14106" lon="-0.6658">
        <ele>535.539429</ele>
      </trkpt>
      <trkpt lat="43.14109" lon="-0.66574">
        <ele>535.40509</ele>
      </trkpt>
      <trkpt lat="43.14134" lon="-0.66556">
        <ele>532.625732</ele>
      </trkpt>
      <trkpt lat="43.14148" lon="-0.66553">
        <ele>531.382751</ele>
      </trkpt>
      <trkpt lat="43.14164" lon="-0.6657">
        <ele>533.773376</ele>
      </trkpt>
      <trkpt lat="43.1418" lon="-0.6657">
        <ele>533.019836</ele>
      </trkpt>
      <trkpt lat="43.14206" lon="-0.66548">
        <ele>529.407471</ele>
      </trkpt>
      <trkpt lat="43.14216" lon="-0.66546">
        <ele>529.019836</ele>
      </trkpt>
      <trkpt lat="43.14223" lon="-0.6655">
        <ele>529.26178</ele>
      </trkpt>
      <trkpt lat="43.14237" lon="-0.66567">
        <ele>529.80719</ele>
      </trkpt>
      <trkpt lat="43.14254" lon="-0.66578">
        <ele>529.023376</ele>
      </trkpt>
      <trkpt lat="43.14259" lon="-0.66574">
        <ele>528.381897</ele>
      </trkpt>
      <trkpt lat="43.14281" lon="-0.66549">
        <ele>525.985779</ele>
      </trkpt>
      <trkpt lat="43.14293" lon="-0.6654">
        <ele>524.749207</ele>
      </trkpt>
      <trkpt lat="43.14313" lon="-0.66513">
        <ele>521.338257</ele>
      </trkpt>
      <trkpt lat="43.14317" lon="-0.665">
        <ele>519.842712</ele>
      </trkpt>
      <trkpt lat="43.1433" lon="-0.66477">
        <ele>516.556519</ele>
      </trkpt>
      <trkpt lat="43.14347" lon="-0.66455">
        <ele>510.454468</ele>
      </trkpt>
      <trkpt lat="43.14358" lon="-0.6645">
        <ele>506.922211</ele>
      </trkpt>
      <trkpt lat="43.14387" lon="-0.6643">
        <ele>498.72113</ele>
      </trkpt>
      <trkpt lat="43.14386" lon="-0.66427">
        <ele>498.177521</ele>
      </trkpt>
      <trkpt lat="43.14389" lon="-0.66417">
        <ele>496.162415</ele>
      </trkpt>
      <trkpt lat="43.14408" lon="-0.66381">
        <ele>485.735474</ele>
      </trkpt>
      <trkpt lat="43.14424" lon="-0.66372">
        <ele>483.518097</ele>
      </trkpt>
      <trkpt lat="43.14443" lon="-0.66358">
        <ele>481.326294</ele>
      </trkpt>
      <trkpt lat="43.14451" lon="-0.66361">
        <ele>479.640198</ele>
      </trkpt>
      <trkpt lat="43.14463" lon="-0.66377">
        <ele>478.301666</ele>
      </trkpt>
      <trkpt lat="43.14472" lon="-0.66398">
        <ele>477.495941</ele>
      </trkpt>
      <trkpt lat="43.14469" lon="-0.66448">
        <ele>477.723816</ele>
      </trkpt>
      <trkpt lat="43.14471" lon="-0.66498">
        <ele>474.743134</ele>
      </trkpt>
      <trkpt lat="43.14471" lon="-0.66552">
        <ele>471.929443</ele>
      </trkpt>
      <trkpt lat="43.14507" lon="-0.66633">
        <ele>455.317871</ele>
      </trkpt>
      <trkpt lat="43.14522" lon="-0.66707">
        <ele>451.456085</ele>
      </trkpt>
      <trkpt lat="43.14526" lon="-0.66737">
        <ele>449.910309</ele>
      </trkpt>
      <trkpt lat="43.14527" lon="-0.66785">
        <ele>448.564117</ele>
      </trkpt>
      <trkpt lat="43.14535" lon="-0.66843">
        <ele>444.099518</ele>
      </trkpt>
      <trkpt lat="43.14537" lon="-0.66882">
        <ele>441.278931</ele>
      </trkpt>
      <trkpt lat="43.14543" lon="-0.66918">
        <ele>438.134735</ele>
      </trkpt>
      <trkpt lat="43.14563" lon="-0.66952">
        <ele>432.339813</ele>
      </trkpt>
      <trkpt lat="43.14578" lon="-0.66962">
        <ele>429.475067</ele>
      </trkpt>
      <trkpt lat="43.14592" lon="-0.6696">
        <ele>427.572296</ele>
      </trkpt>
      <trkpt lat="43.14606" lon="-0.66964">
        <ele>425.140808</ele>
      </trkpt>
      <trkpt lat="43.1466" lon="-0.67023">
        <ele>410.61795</ele>
      </trkpt>
      <trkpt lat="43.14675" lon="-0.67024">
        <ele>411.086914</ele>
      </trkpt>
      <trkpt lat="43.14687" lon="-0.67021">
        <ele>412.241394</ele>
      </trkpt>
      <trkpt lat="43.14712" lon="-0.67026">
        <ele>412.518097</ele>
      </trkpt>
      <trkpt lat="43.14721" lon="-0.67033">
        <ele>411.846344</ele>
      </trkpt>
      <trkpt lat="43.14764" lon="-0.67051">
        <ele>408.914368</ele>
      </trkpt>
      <trkpt lat="43.14768" lon="-0.67057">
        <ele>408.316254</ele>
      </trkpt>
      <trkpt lat="43.14763" lon="-0.67073">
        <ele>407.819366</ele>
      </trkpt>
      <trkpt lat="43.14766" lon="-0.67085">
        <ele>406.993744</ele>
      </trkpt>
      <trkpt lat="43.14758" lon="-0.671">
        <ele>406.955444</ele>
      </trkpt>
      <trkpt lat="43.14753" lon="-0.67121">
        <ele>408.187836</ele>
      </trkpt>
      <trkpt lat="43.1475" lon="-0.67155">
        <ele>409.54245</ele>
      </trkpt>
      <trkpt lat="43.14757" lon="-0.67188">
        <ele>412.292969</ele>
      </trkpt>
      <trkpt lat="43.1477" lon="-0.67209">
        <ele>416.064545</ele>
      </trkpt>
      <trkpt lat="43.14781" lon="-0.67217">
        <ele>417.810303</ele>
      </trkpt>
      <trkpt lat="43.14818" lon="-0.67257">
        <ele>419.557281</ele>
      </trkpt>
      <trkpt lat="43.14846" lon="-0.67263">
        <ele>418.424927</ele>
      </trkpt>
      <trkpt lat="43.14867" lon="-0.67279">
        <ele>419.542511</ele>
      </trkpt>
      <trkpt lat="43.1488" lon="-0.67285">
        <ele>420.63501</ele>
      </trkpt>
      <trkpt lat="43.14887" lon="-0.67291">
        <ele>421.428131</ele>
      </trkpt>
      <trkpt lat="43.14889" lon="-0.67297">
        <ele>420.304901</ele>
      </trkpt>
      <trkpt lat="43.14898" lon="-0.67301">
        <ele>419.740204</ele>
      </trkpt>
      <trkpt lat="43.14911" lon="-0.673">
        <ele>420.381256</ele>
      </trkpt>
      <trkpt lat="43.14926" lon="-0.67303">
        <ele>419.801117</ele>
      </trkpt>
      <trkpt lat="43.14948" lon="-0.67319">
        <ele>416.980164</ele>
      </trkpt>
      <trkpt lat="43.14958" lon="-0.67324">
        <ele>415.616486</ele>
      </trkpt>
      <trkpt lat="43.14981" lon="-0.67325">
        <ele>412.436462</ele>
      </trkpt>
      <trkpt lat="43.14984" lon="-0.67328">
        <ele>411.798279</ele>
      </trkpt>
      <trkpt lat="43.1499" lon="-0.67361">
        <ele>408.446198</ele>
      </trkpt>
      <trkpt lat="43.15002" lon="-0.67378">
        <ele>404.182312</ele>
      </trkpt>
      <trkpt lat="43.15014" lon="-0.67418">
        <ele>397.830902</ele>
      </trkpt>
      <trkpt lat="43.15023" lon="-0.67428">
        <ele>398.52298</ele>
      </trkpt>
      <trkpt lat="43.15028" lon="-0.67427">
        <ele>399.248596</ele>
      </trkpt>
      <trkpt lat="43.15033" lon="-0.6742">
        <ele>400.024323</ele>
      </trkpt>
      <trkpt lat="43.15032" lon="-0.67412">
        <ele>400.437714</ele>
      </trkpt>
      <trkpt lat="43.1504" lon="-0.674">
        <ele>401.665741</ele>
      </trkpt>
      <trkpt lat="43.15045" lon="-0.67397">
        <ele>401.697174</ele>
      </trkpt>
      <trkpt lat="43.15057" lon="-0.674">
        <ele>401.476074</ele>
      </trkpt>
      <trkpt lat="43.15065" lon="-0.67408">
        <ele>401.946411</ele>
      </trkpt>
      <trkpt lat="43.15086" lon="-0.67413">
        <ele>403.019989</ele>
      </trkpt>
      <trkpt lat="43.15105" lon="-0.67411">
        <ele>403.169373</ele>
      </trkpt>
      <trkpt lat="43.15134" lon="-0.67396">
        <ele>401.296143</ele>
      </trkpt>
      <trkpt lat="43.15138" lon="-0.67385">
        <ele>399.325867</ele>
      </trkpt>
      <trkpt lat="43.15146" lon="-0.67374">
        <ele>397.358459</ele>
      </trkpt>
      <trkpt lat="43.15165" lon="-0.6736">
        <ele>393.781189</ele>
      </trkpt>
      <trkpt lat="43.15185" lon="-0.67324">
        <ele>386.347198</ele>
      </trkpt>
      <trkpt lat="43.15189" lon="-0.67309">
        <ele>383.884003</ele>
      </trkpt>
      <trkpt lat="43.15211" lon="-0.67281">
        <ele>381.419067</ele>
      </trkpt>
      <trkpt lat="43.15221" lon="-0.67262">
        <ele>380.681183</ele>
      </trkpt>
      <trkpt lat="43.15251" lon="-0.67222">
        <ele>375.611877</ele>
      </trkpt>
      <trkpt lat="43.15256" lon="-0.672">
        <ele>373.644409</ele>
      </trkpt>
      <trkpt lat="43.1527" lon="-0.67173">
        <ele>371.975586</ele>
      </trkpt>
      <trkpt lat="43.15285" lon="-0.67152">
        <ele>369.091187</ele>
      </trkpt>
      <trkpt lat="43.15315" lon="-0.67123">
        <ele>367.42749</ele>
      </trkpt>
      <trkpt lat="43.15348" lon="-0.67081">
        <ele>362.944794</ele>
      </trkpt>
      <trkpt lat="43.15395" lon="-0.67043">
        <ele>357.887695</ele>
      </trkpt>
      <trkpt lat="43.15453" lon="-0.67011">
        <ele>353.637146</ele>
      </trkpt>
      <trkpt lat="43.15461" lon="-0.67003">
        <ele>351.481079</ele>
      </trkpt>
      <trkpt lat="43.15465" lon="-0.66992">
        <ele>349.457031</ele>
      </trkpt>
      <trkpt lat="43.15466" lon="-0.66975">
        <ele>347.217468</ele>
      </trkpt>
      <trkpt lat="43.15459" lon="-0.66961">
        <ele>345.406311</ele>
      </trkpt>
      <trkpt lat="43.15459" lon="-0.66949">
        <ele>343.931641</ele>
      </trkpt>
      <trkpt lat="43.15476" lon="-0.66913">
        <ele>342.34552</ele>
      </trkpt>
      <trkpt lat="43.15493" lon="-0.66838">
        <ele>336.740601</ele>
      </trkpt>
      <trkpt lat="43.15508" lon="-0.66791">
        <ele>332.471497</ele>
      </trkpt>
      <trkpt lat="43.15512" lon="-0.66766">
        <ele>330.04364</ele>
      </trkpt>
      <trkpt lat="43.15519" lon="-0.66741">
        <ele>327.482635</ele>
      </trkpt>
      <trkpt lat="43.15537" lon="-0.66699">
        <ele>324.879486</ele>
      </trkpt>
      <trkpt lat="43.15585" lon="-0.66651">
        <ele>324.94696</ele>
      </trkpt>
      <trkpt lat="43.15597" lon="-0.66642">
        <ele>324.720001</ele>
      </trkpt>
      <trkpt lat="43.15616" lon="-0.66623">
        <ele>324.027985</ele>
      </trkpt>
      <trkpt lat="43.15647" lon="-0.66568">
        <ele>322.291229</ele>
      </trkpt>
      <trkpt lat="43.1565" lon="-0.66554">
        <ele>321.227997</ele>
      </trkpt>
      <trkpt lat="43.15646" lon="-0.66511">
        <ele>316.642792</ele>
      </trkpt>
      <trkpt lat="43.15632" lon="-0.66488">
        <ele>312.050201</ele>
      </trkpt>
      <trkpt lat="43.15632" lon="-0.66452">
        <ele>306.79718</ele>
      </trkpt>
      <trkpt lat="43.15626" lon="-0.66434">
        <ele>303.682556</ele>
      </trkpt>
      <trkpt lat="43.1562" lon="-0.66407">
        <ele>299.153809</ele>
      </trkpt>
      <trkpt lat="43.15609" lon="-0.66368">
        <ele>294.072327</ele>
      </trkpt>
      <trkpt lat="43.15605" lon="-0.66348">
        <ele>291.368683</ele>
      </trkpt>
      <trkpt lat="43.15623" lon="-0.66318">
        <ele>290.127228</ele>
      </trkpt>
      <trkpt lat="43.15629" lon="-0.66302">
        <ele>288.863678</ele>
      </trkpt>
      <trkpt lat="43.15632" lon="-0.6626">
        <ele>284.559662</ele>
      </trkpt>
      <trkpt lat="43.15629" lon="-0.66237">
        <ele>282.053345</ele>
      </trkpt>
      <trkpt lat="43.15613" lon="-0.662">
        <ele>277.617004</ele>
      </trkpt>
      <trkpt lat="43.15591" lon="-0.6617">
        <ele>272.208099</ele>
      </trkpt>
      <trkpt lat="43.15572" lon="-0.66169">
        <ele>269.945984</ele>
      </trkpt>
      <trkpt lat="43.15564" lon="-0.66162">
        <ele>268.297791</ele>
      </trkpt>
      <trkpt lat="43.15549" lon="-0.66137">
        <ele>264.869385</ele>
      </trkpt>
      <trkpt lat="43.1554" lon="-0.66127">
        <ele>262.938385</ele>
      </trkpt>
      <trkpt lat="43.15527" lon="-0.66123">
        <ele>260.929962</ele>
      </trkpt>
      <trkpt lat="43.15525" lon="-0.66077">
        <ele>257.11438</ele>
      </trkpt>
      <trkpt lat="43.15521" lon="-0.66066">
        <ele>255.671219</ele>
      </trkpt>
      <trkpt lat="43.1552" lon="-0.66047">
        <ele>254.041504</ele>
      </trkpt>
      <trkpt lat="43.15518" lon="-0.66041">
        <ele>253.311981</ele>
      </trkpt>
      <trkpt lat="43.15517" lon="-0.66028">
        <ele>252.38884</ele>
      </trkpt>
      <trkpt lat="43.1552" lon="-0.66019">
        <ele>252.028442</ele>
      </trkpt>
      <trkpt lat="43.15519" lon="-0.66003">
        <ele>251.017731</ele>
      </trkpt>
      <trkpt lat="43.15513" lon="-0.6598">
        <ele>249.711502</ele>
      </trkpt>
      <trkpt lat="43.15513" lon="-0.65965">
        <ele>249.205338</ele>
      </trkpt>
      <trkpt lat="43.15522" lon="-0.65957">
        <ele>248.593185</ele>
      </trkpt>
      <trkpt lat="43.15533" lon="-0.65941">
        <ele>247.773758</ele>
      </trkpt>
      <trkpt lat="43.15542" lon="-0.65937">
        <ele>249.026871</ele>
      </trkpt>
      <trkpt lat="43.15544" lon="-0.65932">
        <ele>249.161865</ele>
      </trkpt>
      <trkpt lat="43.15538" lon="-0.65908">
        <ele>246.798996</ele>
      </trkpt>
      <trkpt lat="43.15543" lon="-0.65901">
        <ele>247.396271</ele>
      </trkpt>
      <trkpt lat="43.15543" lon="-0.65898">
        <ele>247.166779</ele>
      </trkpt>
      <trkpt lat="43.15547" lon="-0.65891">
        <ele>247.498764</ele>
      </trkpt>
      <trkpt lat="43.15551" lon="-0.65891">
        <ele>248.229477</ele>
      </trkpt>
      <trkpt lat="43.15552" lon="-0.65882">
        <ele>248.000641</ele>
      </trkpt>
      <trkpt lat="43.1555" lon="-0.65878">
        <ele>247.427353</ele>
      </trkpt>
      <trkpt lat="43.15553" lon="-0.65872">
        <ele>247.524338</ele>
      </trkpt>
      <trkpt lat="43.15555" lon="-0.65855">
        <ele>246.949326</ele>
      </trkpt>
      <trkpt lat="43.15559" lon="-0.65836">
        <ele>246.691193</ele>
      </trkpt>
      <trkpt lat="43.15561" lon="-0.65811">
        <ele>245.67514</ele>
      </trkpt>
      <trkpt lat="43.15569" lon="-0.658">
        <ele>246.12645</ele>
      </trkpt>
      <trkpt lat="43.15582" lon="-0.65794">
        <ele>247.220749</ele>
      </trkpt>
      <trkpt lat="43.15589" lon="-0.65782">
        <ele>247.04686</ele>
      </trkpt>
      <trkpt lat="43.1559" lon="-0.65744">
        <ele>244.428055</ele>
      </trkpt>
      <trkpt lat="43.15598" lon="-0.65737">
        <ele>244.496933</ele>
      </trkpt>
      <trkpt lat="43.15632" lon="-0.65737">
        <ele>246.621933</ele>
      </trkpt>
      <trkpt lat="43.15636" lon="-0.65731">
        <ele>246.491013</ele>
      </trkpt>
      <trkpt lat="43.15643" lon="-0.65732">
        <ele>246.950821</ele>
      </trkpt>
      <trkpt lat="43.15658" lon="-0.65711">
        <ele>246.233963</ele>
      </trkpt>
      <trkpt lat="43.15674" lon="-0.65701">
        <ele>246.198929</ele>
      </trkpt>
      <trkpt lat="43.15677" lon="-0.65696">
        <ele>245.816238</ele>
      </trkpt>
      <trkpt lat="43.15677" lon="-0.65685">
        <ele>244.881271</ele>
      </trkpt>
      <trkpt lat="43.15703" lon="-0.65665">
        <ele>243.345001</ele>
      </trkpt>
      <trkpt lat="43.15739" lon="-0.65668">
        <ele>242.999298</ele>
      </trkpt>
      <trkpt lat="43.15753" lon="-0.65661">
        <ele>242.361145</ele>
      </trkpt>
      <trkpt lat="43.15763" lon="-0.65669">
        <ele>242.546982</ele>
      </trkpt>
      <trkpt lat="43.15795" lon="-0.65659">
        <ele>241.684158</ele>
      </trkpt>
      <trkpt lat="43.15806" lon="-0.65645">
        <ele>239.968597</ele>
      </trkpt>
      <trkpt lat="43.15842" lon="-0.65616">
        <ele>237.342712</ele>
      </trkpt>
      <trkpt lat="43.15845" lon="-0.65607">
        <ele>237.717606</ele>
      </trkpt>
      <trkpt lat="43.15843" lon="-0.65599">
        <ele>238.399796</ele>
      </trkpt>
      <trkpt lat="43.15848" lon="-0.65591">
        <ele>238.147446</ele>
      </trkpt>
      <trkpt lat="43.15863" lon="-0.6558">
        <ele>237.345657</ele>
      </trkpt>
      <trkpt lat="43.15878" lon="-0.65579">
        <ele>238.018234</ele>
      </trkpt>
      <trkpt lat="43.15894" lon="-0.65565">
        <ele>237.995743</ele>
      </trkpt>
      <trkpt lat="43.15913" lon="-0.65545">
        <ele>239.157578</ele>
      </trkpt>
      <trkpt lat="43.1593" lon="-0.65546">
        <ele>240.381943</ele>
      </trkpt>
      <trkpt lat="43.15928" lon="-0.65568">
        <ele>240.607498</ele>
      </trkpt>
      <trkpt lat="43.15939" lon="-0.65601">
        <ele>243.794998</ele>
      </trkpt>
      <trkpt lat="43.15931" lon="-0.65635">
        <ele>245.611374</ele>
      </trkpt>
      <trkpt lat="43.15941" lon="-0.65651">
        <ele>247.528931</ele>
      </trkpt>
      <trkpt lat="43.15966" lon="-0.65675">
        <ele>249.432953</ele>
      </trkpt>
      <trkpt lat="43.15987" lon="-0.65664">
        <ele>249.525543</ele>
      </trkpt>
      <trkpt lat="43.15996" lon="-0.65662">
        <ele>249.842957</ele>
      </trkpt>
      <trkpt lat="43.16046" lon="-0.65672">
        <ele>252.499374</ele>
      </trkpt>
      <trkpt lat="43.16079" lon="-0.65668">
        <ele>255.46875</ele>
      </trkpt>
      <trkpt lat="43.16139" lon="-0.65652">
        <ele>260.076874</ele>
      </trkpt>
      <trkpt lat="43.16173" lon="-0.65647">
        <ele>263.129364</ele>
      </trkpt>
      <trkpt lat="43.16182" lon="-0.65643">
        <ele>263.784393</ele>
      </trkpt>
      <trkpt lat="43.16183" lon="-0.65616">
        <ele>264.257507</ele>
      </trkpt>
      <trkpt lat="43.16178" lon="-0.65564">
        <ele>264.679993</ele>
      </trkpt>
      <trkpt lat="43.16172" lon="-0.6554">
        <ele>264.608765</ele>
      </trkpt>
      <trkpt lat="43.16165" lon="-0.65498">
        <ele>264.386292</ele>
      </trkpt>
      <trkpt lat="43.16159" lon="-0.65481">
        <ele>263.829132</ele>
      </trkpt>
      <trkpt lat="43.16172" lon="-0.65453">
        <ele>264.756256</ele>
      </trkpt>
      <trkpt lat="43.1619" lon="-0.6544">
        <ele>265.768738</ele>
      </trkpt>
      <trkpt lat="43.16212" lon="-0.65439">
        <ele>267.196869</ele>
      </trkpt>
      <trkpt lat="43.16232" lon="-0.6545">
        <ele>267.881256</ele>
      </trkpt>
      <trkpt lat="43.16247" lon="-0.65441">
        <ele>267.720612</ele>
      </trkpt>
      <trkpt lat="43.1626" lon="-0.65407">
        <ele>267.150635</ele>
      </trkpt>
      <trkpt lat="43.16264" lon="-0.65374">
        <ele>266.200806</ele>
      </trkpt>
      <trkpt lat="43.16266" lon="-0.65346">
        <ele>265.304138</ele>
      </trkpt>
      <trkpt lat="43.16271" lon="-0.65327">
        <ele>264.199982</ele>
      </trkpt>
      <trkpt lat="43.1628" lon="-0.6532">
        <ele>263.074982</ele>
      </trkpt>
      <trkpt lat="43.16318" lon="-0.65307">
        <ele>259.154938</ele>
      </trkpt>
      <trkpt lat="43.16355" lon="-0.65255">
        <ele>249.73996</ele>
      </trkpt>
      <trkpt lat="43.16378" lon="-0.65248">
        <ele>245.613068</ele>
      </trkpt>
      <trkpt lat="43.16391" lon="-0.65249">
        <ele>243.555344</ele>
      </trkpt>
      <trkpt lat="43.16425" lon="-0.65265">
        <ele>239.078339</ele>
      </trkpt>
      <trkpt lat="43.16445" lon="-0.65255">
        <ele>236.525284</ele>
      </trkpt>
      <trkpt lat="43.16453" lon="-0.65255">
        <ele>235.804993</ele>
      </trkpt>
      <trkpt lat="43.16433" lon="-0.65234">
        <ele>237.999359</ele>
      </trkpt>
      <trkpt lat="43.16443" lon="-0.65216">
        <ele>236.712723</ele>
      </trkpt>
      <trkpt lat="43.16445" lon="-0.65187">
        <ele>236.121216</ele>
      </trkpt>
      <trkpt lat="43.16449" lon="-0.65147">
        <ele>234.80426</ele>
      </trkpt>
      <trkpt lat="43.16455" lon="-0.65132">
        <ele>233.922562</ele>
      </trkpt>
      <trkpt lat="43.16473" lon="-0.65107">
        <ele>232.671646</ele>
      </trkpt>
      <trkpt lat="43.16562" lon="-0.65052">
        <ele>234.298523</ele>
      </trkpt>
      <trkpt lat="43.16564" lon="-0.65012">
        <ele>235.769394</ele>
      </trkpt>
      <trkpt lat="43.16543" lon="-0.64943">
        <ele>238.402756</ele>
      </trkpt>
      <trkpt lat="43.16525" lon="-0.64894">
        <ele>239.165695</ele>
      </trkpt>
      <trkpt lat="43.16508" lon="-0.64868">
        <ele>239.258026</ele>
      </trkpt>
      <trkpt lat="43.16501" lon="-0.64836">
        <ele>239.14711</ele>
      </trkpt>
      <trkpt lat="43.16501" lon="-0.64801">
        <ele>238.674255</ele>
      </trkpt>
      <trkpt lat="43.16514" lon="-0.64801">
        <ele>238.065674</ele>
      </trkpt>
      <trkpt lat="43.16527" lon="-0.64809">
        <ele>238.106079</ele>
      </trkpt>
      <trkpt lat="43.16561" lon="-0.64902">
        <ele>237.742142</ele>
      </trkpt>
      <trkpt lat="43.1657" lon="-0.64917">
        <ele>237.199875</ele>
      </trkpt>
      <trkpt lat="43.16588" lon="-0.64934">
        <ele>236.103943</ele>
      </trkpt>
      <trkpt lat="43.16605" lon="-0.64942">
        <ele>235.357864</ele>
      </trkpt>
      <trkpt lat="43.16615" lon="-0.64942">
        <ele>235.104248</ele>
      </trkpt>
      <trkpt lat="43.16642" lon="-0.64926">
        <ele>234.92749</ele>
      </trkpt>
      <trkpt lat="43.16663" lon="-0.64905">
        <ele>235.714569</ele>
      </trkpt>
      <trkpt lat="43.16683" lon="-0.64893">
        <ele>235.769119</ele>
      </trkpt>
      <trkpt lat="43.16698" lon="-0.64887">
        <ele>235.272812</ele>
      </trkpt>
      <trkpt lat="43.16738" lon="-0.64775">
        <ele>237.583755</ele>
      </trkpt>
      <trkpt lat="43.16747" lon="-0.64746">
        <ele>237.863953</ele>
      </trkpt>
      <trkpt lat="43.16783" lon="-0.64699">
        <ele>236.374908</ele>
      </trkpt>
      <trkpt lat="43.16807" lon="-0.64662">
        <ele>234.758591</ele>
      </trkpt>
      <trkpt lat="43.16824" lon="-0.64644">
        <ele>233.89505</ele>
      </trkpt>
      <trkpt lat="43.16809" lon="-0.64634">
        <ele>234.784653</ele>
      </trkpt>
      <trkpt lat="43.16781" lon="-0.6462">
        <ele>236.241882</ele>
      </trkpt>
      <trkpt lat="43.16761" lon="-0.64606">
        <ele>238.103317</ele>
      </trkpt>
      <trkpt lat="43.16712" lon="-0.64547">
        <ele>240.672516</ele>
      </trkpt>
      <trkpt lat="43.16664" lon="-0.64478">
        <ele>241.132919</ele>
      </trkpt>
      <trkpt lat="43.16644" lon="-0.64462">
        <ele>241.307037</ele>
      </trkpt>
      <trkpt lat="43.16614" lon="-0.64424">
        <ele>240.638077</ele>
      </trkpt>
      <trkpt lat="43.16586" lon="-0.64403">
        <ele>244.689728</ele>
      </trkpt>
      <trkpt lat="43.16548" lon="-0.64365">
        <ele>250.080383</ele>
      </trkpt>
      <trkpt lat="43.16522" lon="-0.6433">
        <ele>256.948547</ele>
      </trkpt>
      <trkpt lat="43.1644" lon="-0.64202">
        <ele>263.821198</ele>
      </trkpt>
      <trkpt lat="43.16364" lon="-0.64108">
        <ele>260.047882</ele>
      </trkpt>
      <trkpt lat="43.16358" lon="-0.64092">
        <ele>261.5849</ele>
      </trkpt>
      <trkpt lat="43.16364" lon="-0.64083">
        <ele>261.989258</ele>
      </trkpt>
      <trkpt lat="43.16373" lon="-0.64077">
        <ele>262.000671</ele>
      </trkpt>
      <trkpt lat="43.16383" lon="-0.64063">
        <ele>262.27066</ele>
      </trkpt>
      <trkpt lat="43.16395" lon="-0.64055">
        <ele>261.56189</ele>
      </trkpt>
      <trkpt lat="43.16417" lon="-0.64018">
        <ele>264.988831</ele>
      </trkpt>
      <trkpt lat="43.16427" lon="-0.6398">
        <ele>270.905182</ele>
      </trkpt>
      <trkpt lat="43.16441" lon="-0.63939">
        <ele>274.352966</ele>
      </trkpt>
      <trkpt lat="43.16515" lon="-0.63799">
        <ele>258.652008</ele>
      </trkpt>
      <trkpt lat="43.16549" lon="-0.63782">
        <ele>262.937775</ele>
      </trkpt>
      <trkpt lat="43.16596" lon="-0.63764">
        <ele>271.364594</ele>
      </trkpt>
      <trkpt lat="43.16644" lon="-0.63726">
        <ele>278.130005</ele>
      </trkpt>
      <trkpt lat="43.16681" lon="-0.63688">
        <ele>276.70813</ele>
      </trkpt>
      <trkpt lat="43.16654" lon="-0.63649">
        <ele>284.25119</ele>
      </trkpt>
      <trkpt lat="43.16636" lon="-0.63617">
        <ele>289.363708</ele>
      </trkpt>
      <trkpt lat="43.16624" lon="-0.63567">
        <ele>293.676483</ele>
      </trkpt>
      <trkpt lat="43.16622" lon="-0.63525">
        <ele>295.031097</ele>
      </trkpt>
      <trkpt lat="43.16634" lon="-0.63471">
        <ele>293.422485</ele>
      </trkpt>
      <trkpt lat="43.16648" lon="-0.63456">
        <ele>288.571716</ele>
      </trkpt>
      <trkpt lat="43.16683" lon="-0.63443">
        <ele>275.886963</ele>
      </trkpt>
      <trkpt lat="43.1671" lon="-0.63426">
        <ele>270.512848</ele>
      </trkpt>
      <trkpt lat="43.16724" lon="-0.634">
        <ele>269.103943</ele>
      </trkpt>
      <trkpt lat="43.16733" lon="-0.63377">
        <ele>268.907501</ele>
      </trkpt>
      <trkpt lat="43.16736" lon="-0.6334">
        <ele>269.711884</ele>
      </trkpt>
      <trkpt lat="43.16716" lon="-0.63295">
        <ele>274.665741</ele>
      </trkpt>
      <trkpt lat="43.16735" lon="-0.63287">
        <ele>273.010864</ele>
      </trkpt>
      <trkpt lat="43.16782" lon="-0.63276">
        <ele>273.061218</ele>
      </trkpt>
      <trkpt lat="43.1682" lon="-0.6326">
        <ele>277.051666</ele>
      </trkpt>
      <trkpt lat="43.16858" lon="-0.63206">
        <ele>284.568573</ele>
      </trkpt>
      <trkpt lat="43.16907" lon="-0.63144">
        <ele>285.401672</ele>
      </trkpt>
      <trkpt lat="43.1688" lon="-0.63094">
        <ele>289.224548</ele>
      </trkpt>
      <trkpt lat="43.16821" lon="-0.62945">
        <ele>292.623749</ele>
      </trkpt>
      <trkpt lat="43.16817" lon="-0.62928">
        <ele>293.082489</ele>
      </trkpt>
      <trkpt lat="43.16885" lon="-0.62862">
        <ele>283.142456</ele>
      </trkpt>
      <trkpt lat="43.16923" lon="-0.62836">
        <ele>282.85437</ele>
      </trkpt>
      <trkpt lat="43.16947" lon="-0.62827">
        <ele>283.453125</ele>
      </trkpt>
      <trkpt lat="43.16987" lon="-0.62829">
        <ele>283.323944</ele>
      </trkpt>
      <trkpt lat="43.17068" lon="-0.6284">
        <ele>284.707764</ele>
      </trkpt>
      <trkpt lat="43.17111" lon="-0.62842">
        <ele>284.915649</ele>
      </trkpt>
      <trkpt lat="43.17268" lon="-0.62812">
        <ele>278.671722</ele>
      </trkpt>
      <trkpt lat="43.17401" lon="-0.62776">
        <ele>275.81601</ele>
      </trkpt>
      <trkpt lat="43.17491" lon="-0.62735">
        <ele>265.22464</ele>
      </trkpt>
      <trkpt lat="43.17536" lon="-0.6274">
        <ele>262.335815</ele>
      </trkpt>
      <trkpt lat="43.17574" lon="-0.62727">
        <ele>259.773041</ele>
      </trkpt>
      <trkpt lat="43.17597" lon="-0.62715">
        <ele>258.303192</ele>
      </trkpt>
      <trkpt lat="43.17618" lon="-0.62698">
        <ele>257.495636</ele>
      </trkpt>
      <trkpt lat="43.1765" lon="-0.62682">
        <ele>256.501251</ele>
      </trkpt>
      <trkpt lat="43.17692" lon="-0.62634">
        <ele>254.784378</ele>
      </trkpt>
      <trkpt lat="43.17763" lon="-0.62542">
        <ele>252.455002</ele>
      </trkpt>
      <trkpt lat="43.17762" lon="-0.62516">
        <ele>252.327499</ele>
      </trkpt>
      <trkpt lat="43.17767" lon="-0.62501">
        <ele>251.976868</ele>
      </trkpt>
      <trkpt lat="43.17853" lon="-0.62347">
        <ele>250.568039</ele>
      </trkpt>
      <trkpt lat="43.17916" lon="-0.62218">
        <ele>251.040024</ele>
      </trkpt>
      <trkpt lat="43.17959" lon="-0.62153">
        <ele>251</ele>
      </trkpt>
      <trkpt lat="43.17983" lon="-0.62129">
        <ele>250.820007</ele>
      </trkpt>
      <trkpt lat="43.18008" lon="-0.6211">
        <ele>250.277496</ele>
      </trkpt>
      <trkpt lat="43.18039" lon="-0.62082">
        <ele>249.604996</ele>
      </trkpt>
    </trkseg>
  </trk>
  <trk>
    <name><![CDATA[Chapelle de Rousse 2010]]></name>
    <trkseg>
      <trkpt lat="43.26025" lon="-0.42181">
        <ele>324.402</ele>
        <time>2010-09-19T06:39:04Z</time>
      </trkpt>
      <trkpt lat="43.26025" lon="-0.42181">
        <ele>324.402</ele>
        <time>2010-09-19T06:39:05Z</time>
      </trkpt>
      <trkpt lat="43.26024" lon="-0.42182">
        <ele>324.655</ele>
        <time>2010-09-19T06:39:08Z</time>
      </trkpt>
      <trkpt lat="43.26024" lon="-0.42182">
        <ele>324.742</ele>
        <time>2010-09-19T06:39:19Z</time>
      </trkpt>
      <trkpt lat="43.26024" lon="-0.42182">
        <ele>324.833</ele>
        <time>2010-09-19T06:39:24Z</time>
      </trkpt>
      <trkpt lat="43.26024" lon="-0.42182">
        <ele>324.842</ele>
        <time>2010-09-19T06:39:27Z</time>
      </trkpt>
      <trkpt lat="43.26024" lon="-0.42182">
        <ele>324.879</ele>
        <time>2010-09-19T06:39:50Z</time>
      </trkpt>
      <trkpt lat="43.26024" lon="-0.42182">
        <ele>325.013</ele>
        <time>2010-09-19T06:39:52Z</time>
      </trkpt>
      <trkpt lat="43.26024" lon="-0.42183">
        <ele>324.787</ele>
        <time>2010-09-19T06:39:56Z</time>
      </trkpt>
      <trkpt lat="43.26024" lon="-0.42182">
        <ele>324.79</ele>
        <time>2010-09-19T06:39:57Z</time>
      </trkpt>
      <trkpt lat="43.26023" lon="-0.42182">
        <ele>324.925</ele>
        <time>2010-09-19T06:40:07Z</time>
      </trkpt>
      <trkpt lat="43.26023" lon="-0.42182">
        <ele>324.874</ele>
        <time>2010-09-19T06:40:16Z</time>
      </trkpt>
      <trkpt lat="43.26023" lon="-0.42182">
        <ele>324.973</ele>
        <time>2010-09-19T06:40:20Z</time>
      </trkpt>
      <trkpt lat="43.26022" lon="-0.42182">
        <ele>325.01</ele>
        <time>2010-09-19T06:40:23Z</time>
      </trkpt>
      <trkpt lat="43.26022" lon="-0.42183">
        <ele>325.008</ele>
        <time>2010-09-19T06:40:27Z</time>
      </trkpt>
      <trkpt lat="43.26022" lon="-0.42183">
        <ele>325.033</ele>
        <time>2010-09-19T06:40:28Z</time>
      </trkpt>
      <trkpt lat="43.26022" lon="-0.42182">
        <ele>325.032</ele>
        <time>2010-09-19T06:40:47Z</time>
      </trkpt>
      <trkpt lat="43.26022" lon="-0.42182">
        <ele>325.048</ele>
        <time>2010-09-19T06:40:48Z</time>
      </trkpt>
      <trkpt lat="43.26022" lon="-0.42182">
        <ele>325.057</ele>
        <time>2010-09-19T06:40:49Z</time>
      </trkpt>
      <trkpt lat="43.26021" lon="-0.42182">
        <ele>325.104</ele>
        <time>2010-09-19T06:40:55Z</time>
      </trkpt>
      <trkpt lat="43.26021" lon="-0.42182">
        <ele>325.141</ele>
        <time>2010-09-19T06:40:59Z</time>
      </trkpt>
      <trkpt lat="43.26021" lon="-0.42182">
        <ele>325.07</ele>
        <time>2010-09-19T06:41:01Z</time>
      </trkpt>
      <trkpt lat="43.26021" lon="-0.42182">
        <ele>325.239</ele>
        <time>2010-09-19T06:41:03Z</time>
      </trkpt>
      <trkpt lat="43.26021" lon="-0.42182">
        <ele>325.14</ele>
        <time>2010-09-19T06:41:06Z</time>
      </trkpt>
      <trkpt lat="43.26021" lon="-0.42182">
        <ele>325.146</ele>
        <time>2010-09-19T06:41:07Z</time>
      </trkpt>
      <trkpt lat="43.2602" lon="-0.42183">
        <ele>325.387</ele>
        <time>2010-09-19T06:41:30Z</time>
      </trkpt>
      <trkpt lat="43.26019" lon="-0.42184">
        <ele>325.361</ele>
        <time>2010-09-19T06:41:34Z</time>
      </trkpt>
      <trkpt lat="43.26019" lon="-0.42184">
        <ele>325.545</ele>
        <time>2010-09-19T06:41:36Z</time>
      </trkpt>
      <trkpt lat="43.26018" lon="-0.42184">
        <ele>325.522</ele>
        <time>2010-09-19T06:41:38Z</time>
      </trkpt>
      <trkpt lat="43.26017" lon="-0.42186">
        <ele>325.636</ele>
        <time>2010-09-19T06:41:46Z</time>
      </trkpt>
      <trkpt lat="43.26017" lon="-0.42187">
        <ele>325.535</ele>
        <time>2010-09-19T06:41:50Z</time>
      </trkpt>
      <trkpt lat="43.26017" lon="-0.42191">
        <ele>325.612</ele>
        <time>2010-09-19T06:42:07Z</time>
      </trkpt>
      <trkpt lat="43.26014" lon="-0.42199">
        <ele>325.76</ele>
        <time>2010-09-19T06:42:48Z</time>
      </trkpt>
      <trkpt lat="43.26013" lon="-0.422">
        <ele>325.732</ele>
        <time>2010-09-19T06:42:51Z</time>
      </trkpt>
      <trkpt lat="43.26013" lon="-0.42207">
        <ele>326.343</ele>
        <time>2010-09-19T06:43:04Z</time>
      </trkpt>
      <trkpt lat="43.26013" lon="-0.42213">
        <ele>326.471</ele>
        <time>2010-09-19T06:43:09Z</time>
      </trkpt>
      <trkpt lat="43.26013" lon="-0.42215">
        <ele>326.526</ele>
        <time>2010-09-19T06:43:11Z</time>
      </trkpt>
      <trkpt lat="43.26008" lon="-0.42231">
        <ele>325.839</ele>
        <time>2010-09-19T06:43:18Z</time>
      </trkpt>
      <trkpt lat="43.26" lon="-0.42246">
        <ele>325.362</ele>
        <time>2010-09-19T06:43:24Z</time>
      </trkpt>
      <trkpt lat="43.25987" lon="-0.42272">
        <ele>323.992</ele>
        <time>2010-09-19T06:43:32Z</time>
      </trkpt>
      <trkpt lat="43.25971" lon="-0.42298">
        <ele>322.534</ele>
        <time>2010-09-19T06:43:39Z</time>
      </trkpt>
      <trkpt lat="43.25962" lon="-0.42312">
        <ele>321.829</ele>
        <time>2010-09-19T06:43:43Z</time>
      </trkpt>
      <trkpt lat="43.25961" lon="-0.42316">
        <ele>321.497</ele>
        <time>2010-09-19T06:43:44Z</time>
      </trkpt>
      <trkpt lat="43.25959" lon="-0.42319">
        <ele>321.169</ele>
        <time>2010-09-19T06:43:45Z</time>
      </trkpt>
      <trkpt lat="43.25953" lon="-0.42328">
        <ele>320.326</ele>
        <time>2010-09-19T06:43:48Z</time>
      </trkpt>
      <trkpt lat="43.25944" lon="-0.42339">
        <ele>318.618</ele>
        <time>2010-09-19T06:43:53Z</time>
      </trkpt>
      <trkpt lat="43.25936" lon="-0.42335">
        <ele>317.776</ele>
        <time>2010-09-19T06:43:57Z</time>
      </trkpt>
      <trkpt lat="43.25935" lon="-0.42325">
        <ele>318.176</ele>
        <time>2010-09-19T06:44:01Z</time>
      </trkpt>
      <trkpt lat="43.25934" lon="-0.42315">
        <ele>318.829</ele>
        <time>2010-09-19T06:44:04Z</time>
      </trkpt>
      <trkpt lat="43.25934" lon="-0.42309">
        <ele>319.448</ele>
        <time>2010-09-19T06:44:06Z</time>
      </trkpt>
      <trkpt lat="43.25933" lon="-0.42305">
        <ele>319.818</ele>
        <time>2010-09-19T06:44:07Z</time>
      </trkpt>
      <trkpt lat="43.25932" lon="-0.42297">
        <ele>320.781</ele>
        <time>2010-09-19T06:44:10Z</time>
      </trkpt>
      <trkpt lat="43.25932" lon="-0.42292">
        <ele>321.36</ele>
        <time>2010-09-19T06:44:12Z</time>
      </trkpt>
      <trkpt lat="43.25923" lon="-0.42284">
        <ele>322.637</ele>
        <time>2010-09-19T06:44:17Z</time>
      </trkpt>
      <trkpt lat="43.25921" lon="-0.42282">
        <ele>322.464</ele>
        <time>2010-09-19T06:44:18Z</time>
      </trkpt>
      <trkpt lat="43.25897" lon="-0.42268">
        <ele>319.889</ele>
        <time>2010-09-19T06:44:23Z</time>
      </trkpt>
      <trkpt lat="43.25866" lon="-0.42245">
        <ele>316.664</ele>
        <time>2010-09-19T06:44:28Z</time>
      </trkpt>
      <trkpt lat="43.25847" lon="-0.42231">
        <ele>317.295</ele>
        <time>2010-09-19T06:44:32Z</time>
      </trkpt>
      <trkpt lat="43.25835" lon="-0.42223">
        <ele>318.138</ele>
        <time>2010-09-19T06:44:35Z</time>
      </trkpt>
      <trkpt lat="43.25813" lon="-0.42209">
        <ele>320.612</ele>
        <time>2010-09-19T06:44:42Z</time>
      </trkpt>
      <trkpt lat="43.25792" lon="-0.42195">
        <ele>322.995</ele>
        <time>2010-09-19T06:44:51Z</time>
      </trkpt>
      <trkpt lat="43.25775" lon="-0.42183">
        <ele>324.252</ele>
        <time>2010-09-19T06:44:58Z</time>
      </trkpt>
      <trkpt lat="43.25759" lon="-0.42167">
        <ele>325.207</ele>
        <time>2010-09-19T06:45:05Z</time>
      </trkpt>
      <trkpt lat="43.25736" lon="-0.42143">
        <ele>324</ele>
        <time>2010-09-19T06:45:13Z</time>
      </trkpt>
      <trkpt lat="43.25705" lon="-0.42113">
        <ele>322.393</ele>
        <time>2010-09-19T06:45:21Z</time>
      </trkpt>
      <trkpt lat="43.25686" lon="-0.42095">
        <ele>322.701</ele>
        <time>2010-09-19T06:45:27Z</time>
      </trkpt>
      <trkpt lat="43.25658" lon="-0.42069">
        <ele>324.011</ele>
        <time>2010-09-19T06:45:37Z</time>
      </trkpt>
      <trkpt lat="43.25655" lon="-0.42067">
        <ele>324.213</ele>
        <time>2010-09-19T06:45:38Z</time>
      </trkpt>
      <trkpt lat="43.25635" lon="-0.42075">
        <ele>321.989</ele>
        <time>2010-09-19T06:45:43Z</time>
      </trkpt>
      <trkpt lat="43.25624" lon="-0.42081">
        <ele>320.046</ele>
        <time>2010-09-19T06:45:45Z</time>
      </trkpt>
      <trkpt lat="43.25609" lon="-0.42106">
        <ele>315.195</ele>
        <time>2010-09-19T06:45:49Z</time>
      </trkpt>
      <trkpt lat="43.25602" lon="-0.42122">
        <ele>312.668</ele>
        <time>2010-09-19T06:45:51Z</time>
      </trkpt>
      <trkpt lat="43.25582" lon="-0.42169">
        <ele>306.937</ele>
        <time>2010-09-19T06:45:56Z</time>
      </trkpt>
      <trkpt lat="43.25554" lon="-0.42221">
        <ele>301.346</ele>
        <time>2010-09-19T06:46:01Z</time>
      </trkpt>
      <trkpt lat="43.25512" lon="-0.42296">
        <ele>294.979</ele>
        <time>2010-09-19T06:46:08Z</time>
      </trkpt>
      <trkpt lat="43.25498" lon="-0.4232">
        <ele>292.271</ele>
        <time>2010-09-19T06:46:11Z</time>
      </trkpt>
      <trkpt lat="43.25484" lon="-0.42358">
        <ele>287.41</ele>
        <time>2010-09-19T06:46:16Z</time>
      </trkpt>
      <trkpt lat="43.25482" lon="-0.42369">
        <ele>286.67</ele>
        <time>2010-09-19T06:46:18Z</time>
      </trkpt>
      <trkpt lat="43.25483" lon="-0.42374">
        <ele>286.334</ele>
        <time>2010-09-19T06:46:19Z</time>
      </trkpt>
      <trkpt lat="43.25496" lon="-0.42388">
        <ele>285.809</ele>
        <time>2010-09-19T06:46:24Z</time>
      </trkpt>
      <trkpt lat="43.25503" lon="-0.42382">
        <ele>285.794</ele>
        <time>2010-09-19T06:46:27Z</time>
      </trkpt>
      <trkpt lat="43.25505" lon="-0.42378">
        <ele>285.832</ele>
        <time>2010-09-19T06:46:28Z</time>
      </trkpt>
      <trkpt lat="43.2552" lon="-0.42356">
        <ele>286.267</ele>
        <time>2010-09-19T06:46:35Z</time>
      </trkpt>
      <trkpt lat="43.25535" lon="-0.42333">
        <ele>286.966</ele>
        <time>2010-09-19T06:46:42Z</time>
      </trkpt>
      <trkpt lat="43.25541" lon="-0.42323">
        <ele>287.272</ele>
        <time>2010-09-19T06:46:45Z</time>
      </trkpt>
      <trkpt lat="43.25556" lon="-0.42302">
        <ele>288.365</ele>
        <time>2010-09-19T06:46:52Z</time>
      </trkpt>
      <trkpt lat="43.25565" lon="-0.4229">
        <ele>289.206</ele>
        <time>2010-09-19T06:46:56Z</time>
      </trkpt>
      <trkpt lat="43.25567" lon="-0.42287">
        <ele>289.4</ele>
        <time>2010-09-19T06:46:57Z</time>
      </trkpt>
      <trkpt lat="43.25569" lon="-0.42284">
        <ele>289.48</ele>
        <time>2010-09-19T06:46:58Z</time>
      </trkpt>
      <trkpt lat="43.25574" lon="-0.42279">
        <ele>289.834</ele>
        <time>2010-09-19T06:47:00Z</time>
      </trkpt>
      <trkpt lat="43.25576" lon="-0.42276">
        <ele>289.987</ele>
        <time>2010-09-19T06:47:01Z</time>
      </trkpt>
      <trkpt lat="43.25593" lon="-0.42255">
        <ele>291.031</ele>
        <time>2010-09-19T06:47:09Z</time>
      </trkpt>
      <trkpt lat="43.25611" lon="-0.42234">
        <ele>292.249</ele>
        <time>2010-09-19T06:47:17Z</time>
      </trkpt>
      <trkpt lat="43.25617" lon="-0.42224">
        <ele>293.086</ele>
        <time>2010-09-19T06:47:23Z</time>
      </trkpt>
      <trkpt lat="43.25625" lon="-0.42221">
        <ele>293.087</ele>
        <time>2010-09-19T06:47:30Z</time>
      </trkpt>
      <trkpt lat="43.25629" lon="-0.4222">
        <ele>292.697</ele>
        <time>2010-09-19T06:47:36Z</time>
      </trkpt>
      <trkpt lat="43.25631" lon="-0.42219">
        <ele>292.564</ele>
        <time>2010-09-19T06:47:44Z</time>
      </trkpt>
      <trkpt lat="43.25635" lon="-0.42215">
        <ele>293.337</ele>
        <time>2010-09-19T06:47:50Z</time>
      </trkpt>
      <trkpt lat="43.25638" lon="-0.42211">
        <ele>294.414</ele>
        <time>2010-09-19T06:47:56Z</time>
      </trkpt>
      <trkpt lat="43.2564" lon="-0.42208">
        <ele>295.394</ele>
        <time>2010-09-19T06:47:58Z</time>
      </trkpt>
      <trkpt lat="43.25642" lon="-0.42205">
        <ele>296.078</ele>
        <time>2010-09-19T06:48:00Z</time>
      </trkpt>
      <trkpt lat="43.25648" lon="-0.422">
        <ele>296.559</ele>
        <time>2010-09-19T06:48:04Z</time>
      </trkpt>
      <trkpt lat="43.25664" lon="-0.42198">
        <ele>297.541</ele>
        <time>2010-09-19T06:48:12Z</time>
      </trkpt>
      <trkpt lat="43.2568" lon="-0.42204">
        <ele>298.496</ele>
        <time>2010-09-19T06:48:19Z</time>
      </trkpt>
      <trkpt lat="43.25697" lon="-0.4222">
        <ele>300.919</ele>
        <time>2010-09-19T06:48:28Z</time>
      </trkpt>
      <trkpt lat="43.25704" lon="-0.42235">
        <ele>302.838</ele>
        <time>2010-09-19T06:48:34Z</time>
      </trkpt>
      <trkpt lat="43.25712" lon="-0.42255">
        <ele>303.753</ele>
        <time>2010-09-19T06:48:41Z</time>
      </trkpt>
      <trkpt lat="43.25719" lon="-0.42273">
        <ele>304.085</ele>
        <time>2010-09-19T06:48:46Z</time>
      </trkpt>
      <trkpt lat="43.25729" lon="-0.42291">
        <ele>304.401</ele>
        <time>2010-09-19T06:48:52Z</time>
      </trkpt>
      <trkpt lat="43.2573" lon="-0.42301">
        <ele>303.171</ele>
        <time>2010-09-19T06:48:57Z</time>
      </trkpt>
      <trkpt lat="43.25723" lon="-0.42322">
        <ele>297.806</ele>
        <time>2010-09-19T06:49:04Z</time>
      </trkpt>
      <trkpt lat="43.25723" lon="-0.42326">
        <ele>297.057</ele>
        <time>2010-09-19T06:49:05Z</time>
      </trkpt>
      <trkpt lat="43.25735" lon="-0.42338">
        <ele>295.413</ele>
        <time>2010-09-19T06:49:09Z</time>
      </trkpt>
      <trkpt lat="43.25762" lon="-0.42346">
        <ele>292.449</ele>
        <time>2010-09-19T06:49:14Z</time>
      </trkpt>
      <trkpt lat="43.25769" lon="-0.42351">
        <ele>289.607</ele>
        <time>2010-09-19T06:49:16Z</time>
      </trkpt>
      <trkpt lat="43.25768" lon="-0.42367">
        <ele>286.772</ele>
        <time>2010-09-19T06:49:19Z</time>
      </trkpt>
      <trkpt lat="43.25759" lon="-0.42397">
        <ele>281.542</ele>
        <time>2010-09-19T06:49:22Z</time>
      </trkpt>
      <trkpt lat="43.25741" lon="-0.42454">
        <ele>269.235</ele>
        <time>2010-09-19T06:49:27Z</time>
      </trkpt>
      <trkpt lat="43.25719" lon="-0.42488">
        <ele>264.969</ele>
        <time>2010-09-19T06:49:31Z</time>
      </trkpt>
      <trkpt lat="43.25702" lon="-0.42512">
        <ele>262.819</ele>
        <time>2010-09-19T06:49:35Z</time>
      </trkpt>
      <trkpt lat="43.25687" lon="-0.42532">
        <ele>260.955</ele>
        <time>2010-09-19T06:49:39Z</time>
      </trkpt>
      <trkpt lat="43.25668" lon="-0.42566">
        <ele>257.673</ele>
        <time>2010-09-19T06:49:44Z</time>
      </trkpt>
      <trkpt lat="43.25658" lon="-0.42582">
        <ele>254.575</ele>
        <time>2010-09-19T06:49:47Z</time>
      </trkpt>
      <trkpt lat="43.25645" lon="-0.42589">
        <ele>251.014</ele>
        <time>2010-09-19T06:49:51Z</time>
      </trkpt>
      <trkpt lat="43.25637" lon="-0.42593">
        <ele>249.334</ele>
        <time>2010-09-19T06:49:56Z</time>
      </trkpt>
      <trkpt lat="43.25638" lon="-0.42614">
        <ele>245.616</ele>
        <time>2010-09-19T06:50:00Z</time>
      </trkpt>
      <trkpt lat="43.25646" lon="-0.4263">
        <ele>240.631</ele>
        <time>2010-09-19T06:50:04Z</time>
      </trkpt>
      <trkpt lat="43.25663" lon="-0.4263">
        <ele>237.052</ele>
        <time>2010-09-19T06:50:07Z</time>
      </trkpt>
      <trkpt lat="43.25674" lon="-0.42625">
        <ele>234.75</ele>
        <time>2010-09-19T06:50:09Z</time>
      </trkpt>
      <trkpt lat="43.25685" lon="-0.42615">
        <ele>233.553</ele>
        <time>2010-09-19T06:50:11Z</time>
      </trkpt>
      <trkpt lat="43.25717" lon="-0.42593">
        <ele>229.79</ele>
        <time>2010-09-19T06:50:16Z</time>
      </trkpt>
      <trkpt lat="43.25742" lon="-0.42574">
        <ele>225.197</ele>
        <time>2010-09-19T06:50:20Z</time>
      </trkpt>
      <trkpt lat="43.2575" lon="-0.42575">
        <ele>224.437</ele>
        <time>2010-09-19T06:50:22Z</time>
      </trkpt>
      <trkpt lat="43.25753" lon="-0.42586">
        <ele>224.218</ele>
        <time>2010-09-19T06:50:25Z</time>
      </trkpt>
      <trkpt lat="43.25751" lon="-0.42592">
        <ele>223.687</ele>
        <time>2010-09-19T06:50:26Z</time>
      </trkpt>
      <trkpt lat="43.25734" lon="-0.42633">
        <ele>218.053</ele>
        <time>2010-09-19T06:50:31Z</time>
      </trkpt>
      <trkpt lat="43.25725" lon="-0.42652">
        <ele>214.629</ele>
        <time>2010-09-19T06:50:34Z</time>
      </trkpt>
      <trkpt lat="43.25713" lon="-0.42677">
        <ele>210.31</ele>
        <time>2010-09-19T06:50:38Z</time>
      </trkpt>
      <trkpt lat="43.25694" lon="-0.4271">
        <ele>202.658</ele>
        <time>2010-09-19T06:50:43Z</time>
      </trkpt>
      <trkpt lat="43.25676" lon="-0.42742">
        <ele>197.663</ele>
        <time>2010-09-19T06:50:47Z</time>
      </trkpt>
      <trkpt lat="43.25668" lon="-0.4275">
        <ele>195.984</ele>
        <time>2010-09-19T06:50:48Z</time>
      </trkpt>
      <trkpt lat="43.25657" lon="-0.42765">
        <ele>193.152</ele>
        <time>2010-09-19T06:50:50Z</time>
      </trkpt>
      <trkpt lat="43.25649" lon="-0.42787">
        <ele>190.298</ele>
        <time>2010-09-19T06:50:54Z</time>
      </trkpt>
      <trkpt lat="43.25659" lon="-0.42805">
        <ele>188.605</ele>
        <time>2010-09-19T06:50:58Z</time>
      </trkpt>
      <trkpt lat="43.25661" lon="-0.42809">
        <ele>188.03</ele>
        <time>2010-09-19T06:50:59Z</time>
      </trkpt>
      <trkpt lat="43.25671" lon="-0.42826">
        <ele>186.672</ele>
        <time>2010-09-19T06:51:04Z</time>
      </trkpt>
      <trkpt lat="43.25684" lon="-0.42847">
        <ele>185.335</ele>
        <time>2010-09-19T06:51:09Z</time>
      </trkpt>
      <trkpt lat="43.25693" lon="-0.42864">
        <ele>184.933</ele>
        <time>2010-09-19T06:51:15Z</time>
      </trkpt>
      <trkpt lat="43.25702" lon="-0.42876">
        <ele>184.415</ele>
        <time>2010-09-19T06:51:21Z</time>
      </trkpt>
      <trkpt lat="43.25709" lon="-0.42884">
        <ele>184.289</ele>
        <time>2010-09-19T06:51:25Z</time>
      </trkpt>
      <trkpt lat="43.25725" lon="-0.42901">
        <ele>184.233</ele>
        <time>2010-09-19T06:51:31Z</time>
      </trkpt>
      <trkpt lat="43.25752" lon="-0.42927">
        <ele>184.389</ele>
        <time>2010-09-19T06:51:38Z</time>
      </trkpt>
      <trkpt lat="43.25774" lon="-0.42946">
        <ele>183.897</ele>
        <time>2010-09-19T06:51:44Z</time>
      </trkpt>
      <trkpt lat="43.25784" lon="-0.42959">
        <ele>183.884</ele>
        <time>2010-09-19T06:51:49Z</time>
      </trkpt>
      <trkpt lat="43.25798" lon="-0.42976">
        <ele>183.724</ele>
        <time>2010-09-19T06:51:55Z</time>
      </trkpt>
      <trkpt lat="43.25818" lon="-0.42998">
        <ele>183.54</ele>
        <time>2010-09-19T06:52:02Z</time>
      </trkpt>
      <trkpt lat="43.25845" lon="-0.43025">
        <ele>182.949</ele>
        <time>2010-09-19T06:52:10Z</time>
      </trkpt>
      <trkpt lat="43.25867" lon="-0.43047">
        <ele>182.827</ele>
        <time>2010-09-19T06:52:16Z</time>
      </trkpt>
      <trkpt lat="43.25877" lon="-0.43071">
        <ele>182.904</ele>
        <time>2010-09-19T06:52:21Z</time>
      </trkpt>
      <trkpt lat="43.25886" lon="-0.43113">
        <ele>182.605</ele>
        <time>2010-09-19T06:52:29Z</time>
      </trkpt>
      <trkpt lat="43.25897" lon="-0.43116">
        <ele>182.397</ele>
        <time>2010-09-19T06:52:32Z</time>
      </trkpt>
      <trkpt lat="43.25914" lon="-0.43096">
        <ele>181.908</ele>
        <time>2010-09-19T06:52:38Z</time>
      </trkpt>
      <trkpt lat="43.25937" lon="-0.43075">
        <ele>181.72</ele>
        <time>2010-09-19T06:52:45Z</time>
      </trkpt>
      <trkpt lat="43.25951" lon="-0.4307">
        <ele>181.365</ele>
        <time>2010-09-19T06:52:49Z</time>
      </trkpt>
      <trkpt lat="43.25975" lon="-0.43082">
        <ele>181.702</ele>
        <time>2010-09-19T06:52:56Z</time>
      </trkpt>
      <trkpt lat="43.25985" lon="-0.43101">
        <ele>181.676</ele>
        <time>2010-09-19T06:53:01Z</time>
      </trkpt>
      <trkpt lat="43.25996" lon="-0.43132">
        <ele>181.404</ele>
        <time>2010-09-19T06:53:07Z</time>
      </trkpt>
      <trkpt lat="43.26006" lon="-0.43168">
        <ele>181.042</ele>
        <time>2010-09-19T06:53:14Z</time>
      </trkpt>
      <trkpt lat="43.26011" lon="-0.43198">
        <ele>180.818</ele>
        <time>2010-09-19T06:53:20Z</time>
      </trkpt>
      <trkpt lat="43.26017" lon="-0.4323">
        <ele>176.738</ele>
        <time>2010-09-19T06:53:26Z</time>
      </trkpt>
      <trkpt lat="43.26022" lon="-0.43261">
        <ele>179.439</ele>
        <time>2010-09-19T06:53:32Z</time>
      </trkpt>
      <trkpt lat="43.26025" lon="-0.43271">
        <ele>180.518</ele>
        <time>2010-09-19T06:53:34Z</time>
      </trkpt>
      <trkpt lat="43.26046" lon="-0.43317">
        <ele>180.458</ele>
        <time>2010-09-19T06:53:43Z</time>
      </trkpt>
      <trkpt lat="43.2604" lon="-0.43344">
        <ele>181.215</ele>
        <time>2010-09-19T06:53:49Z</time>
      </trkpt>
      <trkpt lat="43.26036" lon="-0.4336">
        <ele>181.579</ele>
        <time>2010-09-19T06:53:52Z</time>
      </trkpt>
      <trkpt lat="43.26029" lon="-0.43387">
        <ele>183.045</ele>
        <time>2010-09-19T06:53:57Z</time>
      </trkpt>
      <trkpt lat="43.26038" lon="-0.43401">
        <ele>184.164</ele>
        <time>2010-09-19T06:54:01Z</time>
      </trkpt>
      <trkpt lat="43.2607" lon="-0.43421">
        <ele>184.47</ele>
        <time>2010-09-19T06:54:08Z</time>
      </trkpt>
      <trkpt lat="43.26096" lon="-0.43436">
        <ele>184.777</ele>
        <time>2010-09-19T06:54:13Z</time>
      </trkpt>
      <trkpt lat="43.26136" lon="-0.43464">
        <ele>184.801</ele>
        <time>2010-09-19T06:54:20Z</time>
      </trkpt>
      <trkpt lat="43.26183" lon="-0.43498">
        <ele>186.2</ele>
        <time>2010-09-19T06:54:28Z</time>
      </trkpt>
      <trkpt lat="43.2623" lon="-0.43524">
        <ele>183.402</ele>
        <time>2010-09-19T06:54:35Z</time>
      </trkpt>
      <trkpt lat="43.26286" lon="-0.43551">
        <ele>182.589</ele>
        <time>2010-09-19T06:54:43Z</time>
      </trkpt>
      <trkpt lat="43.26342" lon="-0.4358">
        <ele>181.57</ele>
        <time>2010-09-19T06:54:51Z</time>
      </trkpt>
      <trkpt lat="43.26392" lon="-0.43607">
        <ele>181.055</ele>
        <time>2010-09-19T06:54:58Z</time>
      </trkpt>
      <trkpt lat="43.26443" lon="-0.43633">
        <ele>180.319</ele>
        <time>2010-09-19T06:55:05Z</time>
      </trkpt>
      <trkpt lat="43.26488" lon="-0.43652">
        <ele>180.681</ele>
        <time>2010-09-19T06:55:12Z</time>
      </trkpt>
      <trkpt lat="43.26538" lon="-0.43671">
        <ele>179.093</ele>
        <time>2010-09-19T06:55:19Z</time>
      </trkpt>
      <trkpt lat="43.26613" lon="-0.43692">
        <ele>177.46</ele>
        <time>2010-09-19T06:55:29Z</time>
      </trkpt>
      <trkpt lat="43.26664" lon="-0.43712">
        <ele>177.236</ele>
        <time>2010-09-19T06:55:36Z</time>
      </trkpt>
      <trkpt lat="43.26719" lon="-0.43741">
        <ele>176.921</ele>
        <time>2010-09-19T06:55:44Z</time>
      </trkpt>
      <trkpt lat="43.26777" lon="-0.4377">
        <ele>177.881</ele>
        <time>2010-09-19T06:55:53Z</time>
      </trkpt>
      <trkpt lat="43.26815" lon="-0.43788">
        <ele>178.536</ele>
        <time>2010-09-19T06:56:00Z</time>
      </trkpt>
      <trkpt lat="43.2682" lon="-0.4379">
        <ele>178.5</ele>
        <time>2010-09-19T06:56:01Z</time>
      </trkpt>
      <trkpt lat="43.26835" lon="-0.4381">
        <ele>178.814</ele>
        <time>2010-09-19T06:56:06Z</time>
      </trkpt>
      <trkpt lat="43.26853" lon="-0.43831">
        <ele>180.697</ele>
        <time>2010-09-19T06:56:13Z</time>
      </trkpt>
      <trkpt lat="43.2687" lon="-0.43844">
        <ele>182.751</ele>
        <time>2010-09-19T06:56:20Z</time>
      </trkpt>
      <trkpt lat="43.26886" lon="-0.43853">
        <ele>184.769</ele>
        <time>2010-09-19T06:56:26Z</time>
      </trkpt>
      <trkpt lat="43.26899" lon="-0.43867">
        <ele>186.993</ele>
        <time>2010-09-19T06:56:32Z</time>
      </trkpt>
      <trkpt lat="43.26903" lon="-0.43872">
        <ele>187.746</ele>
        <time>2010-09-19T06:56:34Z</time>
      </trkpt>
      <trkpt lat="43.2691" lon="-0.43889">
        <ele>190.025</ele>
        <time>2010-09-19T06:56:40Z</time>
      </trkpt>
      <trkpt lat="43.26911" lon="-0.43906">
        <ele>191.696</ele>
        <time>2010-09-19T06:56:47Z</time>
      </trkpt>
      <trkpt lat="43.26909" lon="-0.43923">
        <ele>194.194</ele>
        <time>2010-09-19T06:56:55Z</time>
      </trkpt>
      <trkpt lat="43.26906" lon="-0.43935">
        <ele>194.753</ele>
        <time>2010-09-19T06:57:01Z</time>
      </trkpt>
      <trkpt lat="43.26904" lon="-0.4395">
        <ele>194.692</ele>
        <time>2010-09-19T06:57:06Z</time>
      </trkpt>
      <trkpt lat="43.26899" lon="-0.43973">
        <ele>194.5</ele>
        <time>2010-09-19T06:57:11Z</time>
      </trkpt>
      <trkpt lat="43.26893" lon="-0.44008">
        <ele>194.207</ele>
        <time>2010-09-19T06:57:18Z</time>
      </trkpt>
      <trkpt lat="43.26896" lon="-0.44029">
        <ele>193.402</ele>
        <time>2010-09-19T06:57:22Z</time>
      </trkpt>
      <trkpt lat="43.26899" lon="-0.44047">
        <ele>192.078</ele>
        <time>2010-09-19T06:57:24Z</time>
      </trkpt>
      <trkpt lat="43.26905" lon="-0.44066">
        <ele>192.592</ele>
        <time>2010-09-19T06:57:28Z</time>
      </trkpt>
      <trkpt lat="43.26905" lon="-0.44069">
        <ele>193.001</ele>
        <time>2010-09-19T06:57:30Z</time>
      </trkpt>
      <trkpt lat="43.26904" lon="-0.44074">
        <ele>193.378</ele>
        <time>2010-09-19T06:57:35Z</time>
      </trkpt>
      <trkpt lat="43.26904" lon="-0.44079">
        <ele>194.086</ele>
        <time>2010-09-19T06:57:41Z</time>
      </trkpt>
      <trkpt lat="43.26903" lon="-0.44085">
        <ele>194.771</ele>
        <time>2010-09-19T06:57:47Z</time>
      </trkpt>
      <trkpt lat="43.26903" lon="-0.44092">
        <ele>194.808</ele>
        <time>2010-09-19T06:57:52Z</time>
      </trkpt>
      <trkpt lat="43.26902" lon="-0.44096">
        <ele>195.378</ele>
        <time>2010-09-19T06:57:55Z</time>
      </trkpt>
      <trkpt lat="43.269" lon="-0.44108">
        <ele>196.417</ele>
        <time>2010-09-19T06:58:03Z</time>
      </trkpt>
      <trkpt lat="43.269" lon="-0.4411">
        <ele>196.639</ele>
        <time>2010-09-19T06:58:05Z</time>
      </trkpt>
      <trkpt lat="43.269" lon="-0.44115">
        <ele>197.464</ele>
        <time>2010-09-19T06:58:09Z</time>
      </trkpt>
      <trkpt lat="43.26903" lon="-0.44125">
        <ele>199.022</ele>
        <time>2010-09-19T06:58:17Z</time>
      </trkpt>
      <trkpt lat="43.26904" lon="-0.44127">
        <ele>200.114</ele>
        <time>2010-09-19T06:58:24Z</time>
      </trkpt>
      <trkpt lat="43.26904" lon="-0.44125">
        <ele>200.618</ele>
        <time>2010-09-19T06:58:30Z</time>
      </trkpt>
      <trkpt lat="43.26905" lon="-0.44122">
        <ele>201.831</ele>
        <time>2010-09-19T06:58:36Z</time>
      </trkpt>
      <trkpt lat="43.26909" lon="-0.44117">
        <ele>203.384</ele>
        <time>2010-09-19T06:58:41Z</time>
      </trkpt>
      <trkpt lat="43.2691" lon="-0.44115">
        <ele>203.82</ele>
        <time>2010-09-19T06:58:43Z</time>
      </trkpt>
      <trkpt lat="43.26911" lon="-0.44112">
        <ele>204.371</ele>
        <time>2010-09-19T06:58:45Z</time>
      </trkpt>
      <trkpt lat="43.26916" lon="-0.44104">
        <ele>205.651</ele>
        <time>2010-09-19T06:58:49Z</time>
      </trkpt>
      <trkpt lat="43.26924" lon="-0.44093">
        <ele>207.59</ele>
        <time>2010-09-19T06:58:56Z</time>
      </trkpt>
      <trkpt lat="43.26928" lon="-0.44083">
        <ele>208.758</ele>
        <time>2010-09-19T06:59:01Z</time>
      </trkpt>
      <trkpt lat="43.26931" lon="-0.44076">
        <ele>209.941</ele>
        <time>2010-09-19T06:59:07Z</time>
      </trkpt>
      <trkpt lat="43.2694" lon="-0.44065">
        <ele>211.55</ele>
        <time>2010-09-19T06:59:16Z</time>
      </trkpt>
      <trkpt lat="43.26949" lon="-0.44057">
        <ele>212.53</ele>
        <time>2010-09-19T06:59:21Z</time>
      </trkpt>
      <trkpt lat="43.26958" lon="-0.44047">
        <ele>214.46</ele>
        <time>2010-09-19T06:59:29Z</time>
      </trkpt>
      <trkpt lat="43.26971" lon="-0.44037">
        <ele>216.181</ele>
        <time>2010-09-19T06:59:37Z</time>
      </trkpt>
      <trkpt lat="43.26981" lon="-0.44032">
        <ele>217.767</ele>
        <time>2010-09-19T06:59:44Z</time>
      </trkpt>
      <trkpt lat="43.26991" lon="-0.44034">
        <ele>219.14</ele>
        <time>2010-09-19T06:59:52Z</time>
      </trkpt>
      <trkpt lat="43.27001" lon="-0.44038">
        <ele>219.947</ele>
        <time>2010-09-19T06:59:58Z</time>
      </trkpt>
      <trkpt lat="43.27004" lon="-0.44047">
        <ele>221.456</ele>
        <time>2010-09-19T07:00:05Z</time>
      </trkpt>
      <trkpt lat="43.27002" lon="-0.44049">
        <ele>222.088</ele>
        <time>2010-09-19T07:00:07Z</time>
      </trkpt>
      <trkpt lat="43.2699" lon="-0.44057">
        <ele>224.733</ele>
        <time>2010-09-19T07:00:18Z</time>
      </trkpt>
      <trkpt lat="43.26983" lon="-0.44066">
        <ele>226.169</ele>
        <time>2010-09-19T07:00:25Z</time>
      </trkpt>
      <trkpt lat="43.26975" lon="-0.44082">
        <ele>227.746</ele>
        <time>2010-09-19T07:00:34Z</time>
      </trkpt>
      <trkpt lat="43.26963" lon="-0.44103">
        <ele>228.931</ele>
        <time>2010-09-19T07:00:45Z</time>
      </trkpt>
      <trkpt lat="43.26961" lon="-0.44114">
        <ele>229.799</ele>
        <time>2010-09-19T07:00:50Z</time>
      </trkpt>
      <trkpt lat="43.26955" lon="-0.4413">
        <ele>230.668</ele>
        <time>2010-09-19T07:00:57Z</time>
      </trkpt>
      <trkpt lat="43.26947" lon="-0.44149">
        <ele>229.745</ele>
        <time>2010-09-19T07:01:03Z</time>
      </trkpt>
      <trkpt lat="43.26945" lon="-0.44159">
        <ele>229.933</ele>
        <time>2010-09-19T07:01:08Z</time>
      </trkpt>
      <trkpt lat="43.26942" lon="-0.44167">
        <ele>230.375</ele>
        <time>2010-09-19T07:01:14Z</time>
      </trkpt>
      <trkpt lat="43.26941" lon="-0.44179">
        <ele>231.029</ele>
        <time>2010-09-19T07:01:20Z</time>
      </trkpt>
      <trkpt lat="43.26942" lon="-0.44194">
        <ele>232.389</ele>
        <time>2010-09-19T07:01:28Z</time>
      </trkpt>
      <trkpt lat="43.26943" lon="-0.44208">
        <ele>235.02</ele>
        <time>2010-09-19T07:01:35Z</time>
      </trkpt>
      <trkpt lat="43.26945" lon="-0.4422">
        <ele>236.603</ele>
        <time>2010-09-19T07:01:42Z</time>
      </trkpt>
      <trkpt lat="43.26948" lon="-0.44237">
        <ele>239.072</ele>
        <time>2010-09-19T07:01:52Z</time>
      </trkpt>
      <trkpt lat="43.2695" lon="-0.44253">
        <ele>241.575</ele>
        <time>2010-09-19T07:02:02Z</time>
      </trkpt>
      <trkpt lat="43.26945" lon="-0.44272">
        <ele>241.162</ele>
        <time>2010-09-19T07:02:10Z</time>
      </trkpt>
      <trkpt lat="43.26937" lon="-0.44297">
        <ele>241.844</ele>
        <time>2010-09-19T07:02:19Z</time>
      </trkpt>
      <trkpt lat="43.26932" lon="-0.44315">
        <ele>242.934</ele>
        <time>2010-09-19T07:02:27Z</time>
      </trkpt>
      <trkpt lat="43.26927" lon="-0.44336">
        <ele>244.225</ele>
        <time>2010-09-19T07:02:36Z</time>
      </trkpt>
      <trkpt lat="43.26922" lon="-0.44355">
        <ele>246.032</ele>
        <time>2010-09-19T07:02:45Z</time>
      </trkpt>
      <trkpt lat="43.26915" lon="-0.44376">
        <ele>248.902</ele>
        <time>2010-09-19T07:02:56Z</time>
      </trkpt>
      <trkpt lat="43.2691" lon="-0.4439">
        <ele>251.154</ele>
        <time>2010-09-19T07:03:04Z</time>
      </trkpt>
      <trkpt lat="43.26906" lon="-0.44402">
        <ele>253.086</ele>
        <time>2010-09-19T07:03:11Z</time>
      </trkpt>
      <trkpt lat="43.26902" lon="-0.44416">
        <ele>255.641</ele>
        <time>2010-09-19T07:03:20Z</time>
      </trkpt>
      <trkpt lat="43.26899" lon="-0.4443">
        <ele>257.634</ele>
        <time>2010-09-19T07:03:28Z</time>
      </trkpt>
      <trkpt lat="43.26898" lon="-0.44432">
        <ele>258.016</ele>
        <time>2010-09-19T07:03:29Z</time>
      </trkpt>
      <trkpt lat="43.26899" lon="-0.44439">
        <ele>259.056</ele>
        <time>2010-09-19T07:03:37Z</time>
      </trkpt>
      <trkpt lat="43.26899" lon="-0.44439">
        <ele>259.069</ele>
        <time>2010-09-19T07:03:53Z</time>
      </trkpt>
      <trkpt lat="43.26899" lon="-0.44439">
        <ele>259.083</ele>
        <time>2010-09-19T07:03:57Z</time>
      </trkpt>
      <trkpt lat="43.26899" lon="-0.44438">
        <ele>259.279</ele>
        <time>2010-09-19T07:04:00Z</time>
      </trkpt>
      <trkpt lat="43.26899" lon="-0.44438">
        <ele>259.116</ele>
        <time>2010-09-19T07:04:05Z</time>
      </trkpt>
      <trkpt lat="43.26899" lon="-0.44439">
        <ele>259.242</ele>
        <time>2010-09-19T07:04:12Z</time>
      </trkpt>
      <trkpt lat="43.26899" lon="-0.44439">
        <ele>259.677</ele>
        <time>2010-09-19T07:04:17Z</time>
      </trkpt>
      <trkpt lat="43.26899" lon="-0.44439">
        <ele>259.189</ele>
        <time>2010-09-19T07:04:23Z</time>
      </trkpt>
      <trkpt lat="43.26899" lon="-0.44439">
        <ele>259.277</ele>
        <time>2010-09-19T07:04:25Z</time>
      </trkpt>
      <trkpt lat="43.26899" lon="-0.44439">
        <ele>259.108</ele>
        <time>2010-09-19T07:04:28Z</time>
      </trkpt>
      <trkpt lat="43.26899" lon="-0.44439">
        <ele>259.287</ele>
        <time>2010-09-19T07:04:31Z</time>
      </trkpt>
      <trkpt lat="43.26899" lon="-0.44439">
        <ele>259.206</ele>
        <time>2010-09-19T07:04:32Z</time>
      </trkpt>
      <trkpt lat="43.26898" lon="-0.44439">
        <ele>258.427</ele>
        <time>2010-09-19T07:04:39Z</time>
      </trkpt>
      <trkpt lat="43.26899" lon="-0.44437">
        <ele>258.54</ele>
        <time>2010-09-19T07:05:46Z</time>
      </trkpt>
      <trkpt lat="43.26899" lon="-0.44437">
        <ele>258.586</ele>
        <time>2010-09-19T07:05:50Z</time>
      </trkpt>
      <trkpt lat="43.26899" lon="-0.44437">
        <ele>258.515</ele>
        <time>2010-09-19T07:05:58Z</time>
      </trkpt>
      <trkpt lat="43.26899" lon="-0.44437">
        <ele>258.577</ele>
        <time>2010-09-19T07:06:02Z</time>
      </trkpt>
      <trkpt lat="43.26899" lon="-0.44436">
        <ele>258.573</ele>
        <time>2010-09-19T07:06:09Z</time>
      </trkpt>
      <trkpt lat="43.26899" lon="-0.44436">
        <ele>258.584</ele>
        <time>2010-09-19T07:06:12Z</time>
      </trkpt>
      <trkpt lat="43.269" lon="-0.44436">
        <ele>259.453</ele>
        <time>2010-09-19T07:06:18Z</time>
      </trkpt>
      <trkpt lat="43.26904" lon="-0.44435">
        <ele>259.408</ele>
        <time>2010-09-19T07:06:26Z</time>
      </trkpt>
      <trkpt lat="43.26909" lon="-0.44433">
        <ele>259.668</ele>
        <time>2010-09-19T07:06:30Z</time>
      </trkpt>
      <trkpt lat="43.26919" lon="-0.44424">
        <ele>259.735</ele>
        <time>2010-09-19T07:06:38Z</time>
      </trkpt>
      <trkpt lat="43.2693" lon="-0.44415">
        <ele>259.91</ele>
        <time>2010-09-19T07:06:45Z</time>
      </trkpt>
      <trkpt lat="43.26945" lon="-0.44414">
        <ele>262.59</ele>
        <time>2010-09-19T07:06:53Z</time>
      </trkpt>
      <trkpt lat="43.26947" lon="-0.44413">
        <ele>262.88</ele>
        <time>2010-09-19T07:06:54Z</time>
      </trkpt>
      <trkpt lat="43.26959" lon="-0.44414">
        <ele>263.878</ele>
        <time>2010-09-19T07:07:02Z</time>
      </trkpt>
      <trkpt lat="43.26973" lon="-0.44411">
        <ele>264.681</ele>
        <time>2010-09-19T07:07:10Z</time>
      </trkpt>
      <trkpt lat="43.26984" lon="-0.44417">
        <ele>264.829</ele>
        <time>2010-09-19T07:07:15Z</time>
      </trkpt>
      <trkpt lat="43.26981" lon="-0.44429">
        <ele>264.122</ele>
        <time>2010-09-19T07:07:19Z</time>
      </trkpt>
      <trkpt lat="43.26976" lon="-0.44433">
        <ele>263.74</ele>
        <time>2010-09-19T07:07:21Z</time>
      </trkpt>
      <trkpt lat="43.26958" lon="-0.44459">
        <ele>263.001</ele>
        <time>2010-09-19T07:07:29Z</time>
      </trkpt>
      <trkpt lat="43.26936" lon="-0.44496">
        <ele>262.323</ele>
        <time>2010-09-19T07:07:38Z</time>
      </trkpt>
      <trkpt lat="43.26924" lon="-0.44513">
        <ele>262.336</ele>
        <time>2010-09-19T07:07:42Z</time>
      </trkpt>
      <trkpt lat="43.26906" lon="-0.44538">
        <ele>262.776</ele>
        <time>2010-09-19T07:07:49Z</time>
      </trkpt>
      <trkpt lat="43.26891" lon="-0.44556">
        <ele>261.87</ele>
        <time>2010-09-19T07:07:54Z</time>
      </trkpt>
      <trkpt lat="43.26884" lon="-0.44563">
        <ele>262.419</ele>
        <time>2010-09-19T07:07:56Z</time>
      </trkpt>
      <trkpt lat="43.26872" lon="-0.44563">
        <ele>263.127</ele>
        <time>2010-09-19T07:08:00Z</time>
      </trkpt>
      <trkpt lat="43.26854" lon="-0.44558">
        <ele>265.533</ele>
        <time>2010-09-19T07:08:07Z</time>
      </trkpt>
      <trkpt lat="43.26835" lon="-0.44559">
        <ele>267.88</ele>
        <time>2010-09-19T07:08:14Z</time>
      </trkpt>
      <trkpt lat="43.26816" lon="-0.4456">
        <ele>270.146</ele>
        <time>2010-09-19T07:08:21Z</time>
      </trkpt>
      <trkpt lat="43.26802" lon="-0.44565">
        <ele>271.469</ele>
        <time>2010-09-19T07:08:26Z</time>
      </trkpt>
      <trkpt lat="43.26788" lon="-0.44573">
        <ele>273.036</ele>
        <time>2010-09-19T07:08:31Z</time>
      </trkpt>
      <trkpt lat="43.26775" lon="-0.44581">
        <ele>274.323</ele>
        <time>2010-09-19T07:08:36Z</time>
      </trkpt>
      <trkpt lat="43.26755" lon="-0.44594">
        <ele>276.781</ele>
        <time>2010-09-19T07:08:44Z</time>
      </trkpt>
      <trkpt lat="43.26738" lon="-0.44603">
        <ele>278.742</ele>
        <time>2010-09-19T07:08:51Z</time>
      </trkpt>
      <trkpt lat="43.26713" lon="-0.44618">
        <ele>281.16</ele>
        <time>2010-09-19T07:09:02Z</time>
      </trkpt>
      <trkpt lat="43.26698" lon="-0.44624">
        <ele>282.564</ele>
        <time>2010-09-19T07:09:09Z</time>
      </trkpt>
      <trkpt lat="43.26681" lon="-0.44626">
        <ele>283.935</ele>
        <time>2010-09-19T07:09:16Z</time>
      </trkpt>
      <trkpt lat="43.26662" lon="-0.44622">
        <ele>286.493</ele>
        <time>2010-09-19T07:09:24Z</time>
      </trkpt>
      <trkpt lat="43.26643" lon="-0.44611">
        <ele>288.608</ele>
        <time>2010-09-19T07:09:33Z</time>
      </trkpt>
      <trkpt lat="43.26623" lon="-0.44598">
        <ele>290.492</ele>
        <time>2010-09-19T07:09:43Z</time>
      </trkpt>
      <trkpt lat="43.26606" lon="-0.44585">
        <ele>291.583</ele>
        <time>2010-09-19T07:09:51Z</time>
      </trkpt>
      <trkpt lat="43.26588" lon="-0.44571">
        <ele>292.949</ele>
        <time>2010-09-19T07:09:59Z</time>
      </trkpt>
      <trkpt lat="43.2656" lon="-0.4455">
        <ele>295.644</ele>
        <time>2010-09-19T07:10:12Z</time>
      </trkpt>
      <trkpt lat="43.26537" lon="-0.44532">
        <ele>297.356</ele>
        <time>2010-09-19T07:10:22Z</time>
      </trkpt>
      <trkpt lat="43.26515" lon="-0.44515">
        <ele>298.142</ele>
        <time>2010-09-19T07:10:30Z</time>
      </trkpt>
      <trkpt lat="43.26478" lon="-0.44481">
        <ele>299.546</ele>
        <time>2010-09-19T07:10:43Z</time>
      </trkpt>
      <trkpt lat="43.2644" lon="-0.44446">
        <ele>300.633</ele>
        <time>2010-09-19T07:10:55Z</time>
      </trkpt>
      <trkpt lat="43.2642" lon="-0.44429">
        <ele>300.453</ele>
        <time>2010-09-19T07:11:00Z</time>
      </trkpt>
      <trkpt lat="43.26392" lon="-0.44395">
        <ele>299.568</ele>
        <time>2010-09-19T07:11:06Z</time>
      </trkpt>
      <trkpt lat="43.26362" lon="-0.4437">
        <ele>298.05</ele>
        <time>2010-09-19T07:11:11Z</time>
      </trkpt>
      <trkpt lat="43.26354" lon="-0.44368">
        <ele>297.755</ele>
        <time>2010-09-19T07:11:12Z</time>
      </trkpt>
      <trkpt lat="43.2632" lon="-0.44362">
        <ele>295.835</ele>
        <time>2010-09-19T07:11:16Z</time>
      </trkpt>
      <trkpt lat="43.26258" lon="-0.44351">
        <ele>294.898</ele>
        <time>2010-09-19T07:11:24Z</time>
      </trkpt>
      <trkpt lat="43.26237" lon="-0.4435">
        <ele>295.562</ele>
        <time>2010-09-19T07:11:28Z</time>
      </trkpt>
      <trkpt lat="43.2623" lon="-0.44336">
        <ele>296.658</ele>
        <time>2010-09-19T07:11:32Z</time>
      </trkpt>
      <trkpt lat="43.26231" lon="-0.4433">
        <ele>297.676</ele>
        <time>2010-09-19T07:11:34Z</time>
      </trkpt>
      <trkpt lat="43.26237" lon="-0.44309">
        <ele>299.566</ele>
        <time>2010-09-19T07:11:40Z</time>
      </trkpt>
      <trkpt lat="43.26242" lon="-0.44287">
        <ele>299.615</ele>
        <time>2010-09-19T07:11:46Z</time>
      </trkpt>
      <trkpt lat="43.26246" lon="-0.44269">
        <ele>298.638</ele>
        <time>2010-09-19T07:11:50Z</time>
      </trkpt>
      <trkpt lat="43.26254" lon="-0.44227">
        <ele>292.769</ele>
        <time>2010-09-19T07:11:55Z</time>
      </trkpt>
      <trkpt lat="43.26256" lon="-0.44218">
        <ele>291.064</ele>
        <time>2010-09-19T07:11:56Z</time>
      </trkpt>
      <trkpt lat="43.26252" lon="-0.44178">
        <ele>286.85</ele>
        <time>2010-09-19T07:12:00Z</time>
      </trkpt>
      <trkpt lat="43.26246" lon="-0.44159">
        <ele>285.303</ele>
        <time>2010-09-19T07:12:02Z</time>
      </trkpt>
      <trkpt lat="43.26233" lon="-0.44105">
        <ele>279.423</ele>
        <time>2010-09-19T07:12:08Z</time>
      </trkpt>
      <trkpt lat="43.2622" lon="-0.44078">
        <ele>276.656</ele>
        <time>2010-09-19T07:12:13Z</time>
      </trkpt>
      <trkpt lat="43.26216" lon="-0.44054">
        <ele>274.639</ele>
        <time>2010-09-19T07:12:16Z</time>
      </trkpt>
      <trkpt lat="43.26216" lon="-0.44029">
        <ele>271.069</ele>
        <time>2010-09-19T07:12:18Z</time>
      </trkpt>
      <trkpt lat="43.26211" lon="-0.43956">
        <ele>262.687</ele>
        <time>2010-09-19T07:12:23Z</time>
      </trkpt>
      <trkpt lat="43.2621" lon="-0.4393">
        <ele>259.025</ele>
        <time>2010-09-19T07:12:25Z</time>
      </trkpt>
      <trkpt lat="43.26203" lon="-0.43879">
        <ele>251.602</ele>
        <time>2010-09-19T07:12:29Z</time>
      </trkpt>
      <trkpt lat="43.26184" lon="-0.43808">
        <ele>237.829</ele>
        <time>2010-09-19T07:12:35Z</time>
      </trkpt>
      <trkpt lat="43.26174" lon="-0.43763">
        <ele>227.592</ele>
        <time>2010-09-19T07:12:39Z</time>
      </trkpt>
      <trkpt lat="43.26164" lon="-0.43746">
        <ele>219.142</ele>
        <time>2010-09-19T07:12:42Z</time>
      </trkpt>
      <trkpt lat="43.26163" lon="-0.43744">
        <ele>217.665</ele>
        <time>2010-09-19T07:12:43Z</time>
      </trkpt>
      <trkpt lat="43.26162" lon="-0.43744">
        <ele>216.659</ele>
        <time>2010-09-19T07:12:45Z</time>
      </trkpt>
      <trkpt lat="43.26162" lon="-0.43745">
        <ele>216.491</ele>
        <time>2010-09-19T07:12:53Z</time>
      </trkpt>
      <trkpt lat="43.26157" lon="-0.43744">
        <ele>215.659</ele>
        <time>2010-09-19T07:12:59Z</time>
      </trkpt>
      <trkpt lat="43.26147" lon="-0.4375">
        <ele>214.227</ele>
        <time>2010-09-19T07:13:02Z</time>
      </trkpt>
      <trkpt lat="43.26136" lon="-0.43768">
        <ele>214.735</ele>
        <time>2010-09-19T07:13:07Z</time>
      </trkpt>
      <trkpt lat="43.26124" lon="-0.43791">
        <ele>215.954</ele>
        <time>2010-09-19T07:13:13Z</time>
      </trkpt>
      <trkpt lat="43.26122" lon="-0.43795">
        <ele>216.114</ele>
        <time>2010-09-19T07:13:14Z</time>
      </trkpt>
      <trkpt lat="43.26112" lon="-0.43824">
        <ele>216.76</ele>
        <time>2010-09-19T07:13:20Z</time>
      </trkpt>
      <trkpt lat="43.26106" lon="-0.43853">
        <ele>214.383</ele>
        <time>2010-09-19T07:13:24Z</time>
      </trkpt>
      <trkpt lat="43.26095" lon="-0.43869">
        <ele>212.333</ele>
        <time>2010-09-19T07:13:28Z</time>
      </trkpt>
      <trkpt lat="43.26092" lon="-0.43869">
        <ele>212.442</ele>
        <time>2010-09-19T07:13:29Z</time>
      </trkpt>
      <trkpt lat="43.26084" lon="-0.43869">
        <ele>214.066</ele>
        <time>2010-09-19T07:13:33Z</time>
      </trkpt>
      <trkpt lat="43.26078" lon="-0.43867">
        <ele>216.461</ele>
        <time>2010-09-19T07:13:37Z</time>
      </trkpt>
      <trkpt lat="43.26069" lon="-0.43866">
        <ele>218.779</ele>
        <time>2010-09-19T07:13:42Z</time>
      </trkpt>
      <trkpt lat="43.26059" lon="-0.4387">
        <ele>220.32</ele>
        <time>2010-09-19T07:13:50Z</time>
      </trkpt>
      <trkpt lat="43.26046" lon="-0.43877">
        <ele>220.413</ele>
        <time>2010-09-19T07:13:56Z</time>
      </trkpt>
      <trkpt lat="43.26043" lon="-0.43879">
        <ele>220.314</ele>
        <time>2010-09-19T07:13:57Z</time>
      </trkpt>
      <trkpt lat="43.26035" lon="-0.43883">
        <ele>219.602</ele>
        <time>2010-09-19T07:13:59Z</time>
      </trkpt>
      <trkpt lat="43.26024" lon="-0.43888">
        <ele>218.36</ele>
        <time>2010-09-19T07:14:01Z</time>
      </trkpt>
      <trkpt lat="43.26007" lon="-0.43898">
        <ele>213.727</ele>
        <time>2010-09-19T07:14:04Z</time>
      </trkpt>
      <trkpt lat="43.25988" lon="-0.43914">
        <ele>207.701</ele>
        <time>2010-09-19T07:14:09Z</time>
      </trkpt>
      <trkpt lat="43.25985" lon="-0.43915">
        <ele>206.916</ele>
        <time>2010-09-19T07:14:10Z</time>
      </trkpt>
      <trkpt lat="43.25976" lon="-0.43902">
        <ele>202.621</ele>
        <time>2010-09-19T07:14:15Z</time>
      </trkpt>
      <trkpt lat="43.25977" lon="-0.43895">
        <ele>201.524</ele>
        <time>2010-09-19T07:14:17Z</time>
      </trkpt>
      <trkpt lat="43.25984" lon="-0.43882">
        <ele>200.454</ele>
        <time>2010-09-19T07:14:21Z</time>
      </trkpt>
      <trkpt lat="43.26" lon="-0.43854">
        <ele>198.531</ele>
        <time>2010-09-19T07:14:27Z</time>
      </trkpt>
      <trkpt lat="43.26011" lon="-0.43838">
        <ele>196.824</ele>
        <time>2010-09-19T07:14:30Z</time>
      </trkpt>
      <trkpt lat="43.26018" lon="-0.43828">
        <ele>196.214</ele>
        <time>2010-09-19T07:14:32Z</time>
      </trkpt>
      <trkpt lat="43.26023" lon="-0.4382">
        <ele>196.436</ele>
        <time>2010-09-19T07:14:34Z</time>
      </trkpt>
      <trkpt lat="43.26038" lon="-0.43795">
        <ele>194.565</ele>
        <time>2010-09-19T07:14:39Z</time>
      </trkpt>
      <trkpt lat="43.26042" lon="-0.43764">
        <ele>193.444</ele>
        <time>2010-09-19T07:14:45Z</time>
      </trkpt>
      <trkpt lat="43.26042" lon="-0.43752">
        <ele>192.235</ele>
        <time>2010-09-19T07:14:49Z</time>
      </trkpt>
      <trkpt lat="43.26053" lon="-0.43738">
        <ele>192.733</ele>
        <time>2010-09-19T07:14:56Z</time>
      </trkpt>
      <trkpt lat="43.26057" lon="-0.43732">
        <ele>192.617</ele>
        <time>2010-09-19T07:14:59Z</time>
      </trkpt>
      <trkpt lat="43.26063" lon="-0.4372">
        <ele>193.589</ele>
        <time>2010-09-19T07:15:06Z</time>
      </trkpt>
      <trkpt lat="43.26071" lon="-0.43705">
        <ele>194.339</ele>
        <time>2010-09-19T07:15:14Z</time>
      </trkpt>
      <trkpt lat="43.26077" lon="-0.43692">
        <ele>194.434</ele>
        <time>2010-09-19T07:15:20Z</time>
      </trkpt>
      <trkpt lat="43.26083" lon="-0.43679">
        <ele>195.198</ele>
        <time>2010-09-19T07:15:28Z</time>
      </trkpt>
      <trkpt lat="43.26088" lon="-0.43667">
        <ele>196.35</ele>
        <time>2010-09-19T07:15:36Z</time>
      </trkpt>
      <trkpt lat="43.26092" lon="-0.43655">
        <ele>197.806</ele>
        <time>2010-09-19T07:15:44Z</time>
      </trkpt>
      <trkpt lat="43.26093" lon="-0.43651">
        <ele>198.654</ele>
        <time>2010-09-19T07:15:47Z</time>
      </trkpt>
      <trkpt lat="43.26098" lon="-0.43638">
        <ele>200.221</ele>
        <time>2010-09-19T07:15:56Z</time>
      </trkpt>
      <trkpt lat="43.26095" lon="-0.43635">
        <ele>201.211</ele>
        <time>2010-09-19T07:16:01Z</time>
      </trkpt>
      <trkpt lat="43.26093" lon="-0.43637">
        <ele>201.674</ele>
        <time>2010-09-19T07:16:04Z</time>
      </trkpt>
      <trkpt lat="43.26083" lon="-0.43646">
        <ele>203.358</ele>
        <time>2010-09-19T07:16:13Z</time>
      </trkpt>
      <trkpt lat="43.26074" lon="-0.43654">
        <ele>205.005</ele>
        <time>2010-09-19T07:16:21Z</time>
      </trkpt>
      <trkpt lat="43.26066" lon="-0.4366">
        <ele>206.13</ele>
        <time>2010-09-19T07:16:26Z</time>
      </trkpt>
      <trkpt lat="43.26055" lon="-0.43671">
        <ele>208.105</ele>
        <time>2010-09-19T07:16:34Z</time>
      </trkpt>
      <trkpt lat="43.26046" lon="-0.4368">
        <ele>209.962</ele>
        <time>2010-09-19T07:16:41Z</time>
      </trkpt>
      <trkpt lat="43.26039" lon="-0.43689">
        <ele>211.196</ele>
        <time>2010-09-19T07:16:46Z</time>
      </trkpt>
      <trkpt lat="43.2603" lon="-0.43684">
        <ele>213.357</ele>
        <time>2010-09-19T07:16:52Z</time>
      </trkpt>
      <trkpt lat="43.26031" lon="-0.43676">
        <ele>214.738</ele>
        <time>2010-09-19T07:16:56Z</time>
      </trkpt>
      <trkpt lat="43.26031" lon="-0.43669">
        <ele>215.702</ele>
        <time>2010-09-19T07:16:59Z</time>
      </trkpt>
      <trkpt lat="43.26028" lon="-0.43655">
        <ele>217.045</ele>
        <time>2010-09-19T07:17:05Z</time>
      </trkpt>
      <trkpt lat="43.26021" lon="-0.43642">
        <ele>218.052</ele>
        <time>2010-09-19T07:17:11Z</time>
      </trkpt>
      <trkpt lat="43.26009" lon="-0.43633">
        <ele>219.423</ele>
        <time>2010-09-19T07:17:19Z</time>
      </trkpt>
      <trkpt lat="43.26001" lon="-0.43637">
        <ele>220.761</ele>
        <time>2010-09-19T07:17:25Z</time>
      </trkpt>
      <trkpt lat="43.25989" lon="-0.43646">
        <ele>221.951</ele>
        <time>2010-09-19T07:17:34Z</time>
      </trkpt>
      <trkpt lat="43.25976" lon="-0.43651">
        <ele>223.898</ele>
        <time>2010-09-19T07:17:43Z</time>
      </trkpt>
      <trkpt lat="43.25965" lon="-0.43641">
        <ele>225.17</ele>
        <time>2010-09-19T07:17:51Z</time>
      </trkpt>
      <trkpt lat="43.2595" lon="-0.43629">
        <ele>226.729</ele>
        <time>2010-09-19T07:18:03Z</time>
      </trkpt>
      <trkpt lat="43.2594" lon="-0.4362">
        <ele>227.768</ele>
        <time>2010-09-19T07:18:12Z</time>
      </trkpt>
      <trkpt lat="43.2593" lon="-0.43613">
        <ele>228.802</ele>
        <time>2010-09-19T07:18:20Z</time>
      </trkpt>
      <trkpt lat="43.25918" lon="-0.43604">
        <ele>229.47</ele>
        <time>2010-09-19T07:18:29Z</time>
      </trkpt>
      <trkpt lat="43.25907" lon="-0.43595">
        <ele>230.063</ele>
        <time>2010-09-19T07:18:37Z</time>
      </trkpt>
      <trkpt lat="43.25896" lon="-0.43588">
        <ele>230.063</ele>
        <time>2010-09-19T07:18:43Z</time>
      </trkpt>
      <trkpt lat="43.25884" lon="-0.43579">
        <ele>230.002</ele>
        <time>2010-09-19T07:18:48Z</time>
      </trkpt>
      <trkpt lat="43.25858" lon="-0.4356">
        <ele>229.641</ele>
        <time>2010-09-19T07:18:57Z</time>
      </trkpt>
      <trkpt lat="43.25833" lon="-0.43543">
        <ele>228.581</ele>
        <time>2010-09-19T07:19:04Z</time>
      </trkpt>
      <trkpt lat="43.25801" lon="-0.43519">
        <ele>227.587</ele>
        <time>2010-09-19T07:19:13Z</time>
      </trkpt>
      <trkpt lat="43.25777" lon="-0.43502">
        <ele>227.043</ele>
        <time>2010-09-19T07:19:20Z</time>
      </trkpt>
      <trkpt lat="43.25758" lon="-0.43504">
        <ele>226.88</ele>
        <time>2010-09-19T07:19:25Z</time>
      </trkpt>
      <trkpt lat="43.25743" lon="-0.43503">
        <ele>227.292</ele>
        <time>2010-09-19T07:19:29Z</time>
      </trkpt>
      <trkpt lat="43.25723" lon="-0.43505">
        <ele>226.044</ele>
        <time>2010-09-19T07:19:33Z</time>
      </trkpt>
      <trkpt lat="43.25698" lon="-0.43515">
        <ele>223.998</ele>
        <time>2010-09-19T07:19:37Z</time>
      </trkpt>
      <trkpt lat="43.25672" lon="-0.43536">
        <ele>221.347</ele>
        <time>2010-09-19T07:19:41Z</time>
      </trkpt>
      <trkpt lat="43.25661" lon="-0.4355">
        <ele>220.245</ele>
        <time>2010-09-19T07:19:43Z</time>
      </trkpt>
      <trkpt lat="43.25643" lon="-0.43561">
        <ele>218.194</ele>
        <time>2010-09-19T07:19:47Z</time>
      </trkpt>
      <trkpt lat="43.25641" lon="-0.43565">
        <ele>218.326</ele>
        <time>2010-09-19T07:19:48Z</time>
      </trkpt>
      <trkpt lat="43.25641" lon="-0.43574">
        <ele>220.016</ele>
        <time>2010-09-19T07:19:52Z</time>
      </trkpt>
      <trkpt lat="43.2564" lon="-0.43575">
        <ele>220.228</ele>
        <time>2010-09-19T07:19:53Z</time>
      </trkpt>
      <trkpt lat="43.25636" lon="-0.43574">
        <ele>221.604</ele>
        <time>2010-09-19T07:19:59Z</time>
      </trkpt>
      <trkpt lat="43.25636" lon="-0.4356">
        <ele>223.265</ele>
        <time>2010-09-19T07:20:05Z</time>
      </trkpt>
      <trkpt lat="43.25637" lon="-0.43543">
        <ele>224.459</ele>
        <time>2010-09-19T07:20:12Z</time>
      </trkpt>
      <trkpt lat="43.25637" lon="-0.43527">
        <ele>225.989</ele>
        <time>2010-09-19T07:20:19Z</time>
      </trkpt>
      <trkpt lat="43.25637" lon="-0.43525">
        <ele>226.238</ele>
        <time>2010-09-19T07:20:20Z</time>
      </trkpt>
      <trkpt lat="43.25631" lon="-0.43518">
        <ele>227.69</ele>
        <time>2010-09-19T07:20:25Z</time>
      </trkpt>
      <trkpt lat="43.25628" lon="-0.43524">
        <ele>228.494</ele>
        <time>2010-09-19T07:20:28Z</time>
      </trkpt>
      <trkpt lat="43.25625" lon="-0.43541">
        <ele>230.203</ele>
        <time>2010-09-19T07:20:37Z</time>
      </trkpt>
      <trkpt lat="43.25622" lon="-0.43553">
        <ele>231.733</ele>
        <time>2010-09-19T07:20:44Z</time>
      </trkpt>
      <trkpt lat="43.25619" lon="-0.43564">
        <ele>232.987</ele>
        <time>2010-09-19T07:20:49Z</time>
      </trkpt>
      <trkpt lat="43.25614" lon="-0.43572">
        <ele>234.269</ele>
        <time>2010-09-19T07:20:54Z</time>
      </trkpt>
      <trkpt lat="43.25604" lon="-0.43566">
        <ele>236.301</ele>
        <time>2010-09-19T07:21:01Z</time>
      </trkpt>
      <trkpt lat="43.25592" lon="-0.43555">
        <ele>238</ele>
        <time>2010-09-19T07:21:11Z</time>
      </trkpt>
      <trkpt lat="43.25584" lon="-0.43561">
        <ele>239.559</ele>
        <time>2010-09-19T07:21:17Z</time>
      </trkpt>
      <trkpt lat="43.25579" lon="-0.43565">
        <ele>240.911</ele>
        <time>2010-09-19T07:21:23Z</time>
      </trkpt>
      <trkpt lat="43.25577" lon="-0.43567">
        <ele>241.158</ele>
        <time>2010-09-19T07:21:30Z</time>
      </trkpt>
      <trkpt lat="43.25572" lon="-0.43568">
        <ele>241.014</ele>
        <time>2010-09-19T07:21:41Z</time>
      </trkpt>
      <trkpt lat="43.2557" lon="-0.43568">
        <ele>240.794</ele>
        <time>2010-09-19T07:21:45Z</time>
      </trkpt>
      <trkpt lat="43.25568" lon="-0.4356">
        <ele>240.686</ele>
        <time>2010-09-19T07:21:53Z</time>
      </trkpt>
      <trkpt lat="43.25566" lon="-0.4356">
        <ele>240.389</ele>
        <time>2010-09-19T07:22:00Z</time>
      </trkpt>
      <trkpt lat="43.25562" lon="-0.43563">
        <ele>240.183</ele>
        <time>2010-09-19T07:22:13Z</time>
      </trkpt>
      <trkpt lat="43.25556" lon="-0.43561">
        <ele>240.234</ele>
        <time>2010-09-19T07:22:22Z</time>
      </trkpt>
      <trkpt lat="43.25551" lon="-0.43557">
        <ele>239.895</ele>
        <time>2010-09-19T07:22:31Z</time>
      </trkpt>
      <trkpt lat="43.25548" lon="-0.43554">
        <ele>239.996</ele>
        <time>2010-09-19T07:22:36Z</time>
      </trkpt>
      <trkpt lat="43.25547" lon="-0.43554">
        <ele>239.808</ele>
        <time>2010-09-19T07:22:40Z</time>
      </trkpt>
      <trkpt lat="43.25545" lon="-0.4355">
        <ele>239.818</ele>
        <time>2010-09-19T07:22:45Z</time>
      </trkpt>
      <trkpt lat="43.25546" lon="-0.43551">
        <ele>239.804</ele>
        <time>2010-09-19T07:22:49Z</time>
      </trkpt>
      <trkpt lat="43.25543" lon="-0.43549">
        <ele>239.756</ele>
        <time>2010-09-19T07:22:56Z</time>
      </trkpt>
      <trkpt lat="43.25543" lon="-0.43548">
        <ele>239.693</ele>
        <time>2010-09-19T07:23:06Z</time>
      </trkpt>
      <trkpt lat="43.25543" lon="-0.43548">
        <ele>239.584</ele>
        <time>2010-09-19T07:23:14Z</time>
      </trkpt>
      <trkpt lat="43.25546" lon="-0.43552">
        <ele>239.486</ele>
        <time>2010-09-19T07:23:30Z</time>
      </trkpt>
      <trkpt lat="43.25544" lon="-0.43557">
        <ele>239.098</ele>
        <time>2010-09-19T07:24:03Z</time>
      </trkpt>
      <trkpt lat="43.25545" lon="-0.43561">
        <ele>238.938</ele>
        <time>2010-09-19T07:24:21Z</time>
      </trkpt>
      <trkpt lat="43.25546" lon="-0.43562">
        <ele>238.964</ele>
        <time>2010-09-19T07:24:35Z</time>
      </trkpt>
      <trkpt lat="43.25542" lon="-0.43566">
        <ele>238.898</ele>
        <time>2010-09-19T07:24:45Z</time>
      </trkpt>
      <trkpt lat="43.25532" lon="-0.43575">
        <ele>238.682</ele>
        <time>2010-09-19T07:24:52Z</time>
      </trkpt>
      <trkpt lat="43.25519" lon="-0.4359">
        <ele>238.184</ele>
        <time>2010-09-19T07:24:59Z</time>
      </trkpt>
      <trkpt lat="43.25504" lon="-0.43603">
        <ele>238.012</ele>
        <time>2010-09-19T07:25:07Z</time>
      </trkpt>
      <trkpt lat="43.25491" lon="-0.43619">
        <ele>237.992</ele>
        <time>2010-09-19T07:25:15Z</time>
      </trkpt>
      <trkpt lat="43.2547" lon="-0.43637">
        <ele>238.568</ele>
        <time>2010-09-19T07:25:25Z</time>
      </trkpt>
      <trkpt lat="43.25449" lon="-0.43654">
        <ele>239.673</ele>
        <time>2010-09-19T07:25:35Z</time>
      </trkpt>
      <trkpt lat="43.25431" lon="-0.43669">
        <ele>239.47</ele>
        <time>2010-09-19T07:25:43Z</time>
      </trkpt>
      <trkpt lat="43.25426" lon="-0.43673">
        <ele>239.458</ele>
        <time>2010-09-19T07:25:47Z</time>
      </trkpt>
      <trkpt lat="43.25426" lon="-0.43674">
        <ele>239.318</ele>
        <time>2010-09-19T07:25:57Z</time>
      </trkpt>
      <trkpt lat="43.25427" lon="-0.43674">
        <ele>239.262</ele>
        <time>2010-09-19T07:26:00Z</time>
      </trkpt>
      <trkpt lat="43.25429" lon="-0.43677">
        <ele>239.786</ele>
        <time>2010-09-19T07:26:06Z</time>
      </trkpt>
      <trkpt lat="43.25429" lon="-0.43677">
        <ele>239.897</ele>
        <time>2010-09-19T07:26:25Z</time>
      </trkpt>
      <trkpt lat="43.2543" lon="-0.43681">
        <ele>240.478</ele>
        <time>2010-09-19T07:26:32Z</time>
      </trkpt>
      <trkpt lat="43.25432" lon="-0.43687">
        <ele>242.301</ele>
        <time>2010-09-19T07:26:38Z</time>
      </trkpt>
      <trkpt lat="43.25435" lon="-0.43693">
        <ele>243.706</ele>
        <time>2010-09-19T07:26:43Z</time>
      </trkpt>
      <trkpt lat="43.25438" lon="-0.43705">
        <ele>247.065</ele>
        <time>2010-09-19T07:26:54Z</time>
      </trkpt>
      <trkpt lat="43.25438" lon="-0.43707">
        <ele>247.305</ele>
        <time>2010-09-19T07:26:55Z</time>
      </trkpt>
      <trkpt lat="43.25437" lon="-0.43709">
        <ele>247.933</ele>
        <time>2010-09-19T07:26:58Z</time>
      </trkpt>
      <trkpt lat="43.25432" lon="-0.43713">
        <ele>247.881</ele>
        <time>2010-09-19T07:27:02Z</time>
      </trkpt>
      <trkpt lat="43.25416" lon="-0.43726">
        <ele>248.89</ele>
        <time>2010-09-19T07:27:11Z</time>
      </trkpt>
      <trkpt lat="43.254" lon="-0.43737">
        <ele>250.952</ele>
        <time>2010-09-19T07:27:21Z</time>
      </trkpt>
      <trkpt lat="43.25384" lon="-0.43748">
        <ele>252.528</ele>
        <time>2010-09-19T07:27:31Z</time>
      </trkpt>
      <trkpt lat="43.25373" lon="-0.43757">
        <ele>253.215</ele>
        <time>2010-09-19T07:27:38Z</time>
      </trkpt>
      <trkpt lat="43.25362" lon="-0.43768">
        <ele>253.895</ele>
        <time>2010-09-19T07:27:46Z</time>
      </trkpt>
      <trkpt lat="43.2535" lon="-0.43779">
        <ele>254.534</ele>
        <time>2010-09-19T07:27:54Z</time>
      </trkpt>
      <trkpt lat="43.25344" lon="-0.43793">
        <ele>255.228</ele>
        <time>2010-09-19T07:28:01Z</time>
      </trkpt>
      <trkpt lat="43.25336" lon="-0.43811">
        <ele>258.066</ele>
        <time>2010-09-19T07:28:10Z</time>
      </trkpt>
      <trkpt lat="43.25327" lon="-0.43825">
        <ele>259.329</ele>
        <time>2010-09-19T07:28:19Z</time>
      </trkpt>
      <trkpt lat="43.25318" lon="-0.43839">
        <ele>260.911</ele>
        <time>2010-09-19T07:28:28Z</time>
      </trkpt>
      <trkpt lat="43.25309" lon="-0.43852">
        <ele>262.567</ele>
        <time>2010-09-19T07:28:37Z</time>
      </trkpt>
      <trkpt lat="43.25298" lon="-0.43863">
        <ele>264.473</ele>
        <time>2010-09-19T07:28:45Z</time>
      </trkpt>
      <trkpt lat="43.2529" lon="-0.43874">
        <ele>266.561</ele>
        <time>2010-09-19T07:28:53Z</time>
      </trkpt>
      <trkpt lat="43.25279" lon="-0.43885">
        <ele>268.274</ele>
        <time>2010-09-19T07:29:03Z</time>
      </trkpt>
      <trkpt lat="43.25269" lon="-0.43897">
        <ele>269.089</ele>
        <time>2010-09-19T07:29:13Z</time>
      </trkpt>
      <trkpt lat="43.25257" lon="-0.43914">
        <ele>269.658</ele>
        <time>2010-09-19T07:29:24Z</time>
      </trkpt>
      <trkpt lat="43.25249" lon="-0.43926">
        <ele>269.706</ele>
        <time>2010-09-19T07:29:31Z</time>
      </trkpt>
      <trkpt lat="43.25234" lon="-0.43932">
        <ele>270.259</ele>
        <time>2010-09-19T07:29:39Z</time>
      </trkpt>
      <trkpt lat="43.2522" lon="-0.43924">
        <ele>270.866</ele>
        <time>2010-09-19T07:29:46Z</time>
      </trkpt>
      <trkpt lat="43.25202" lon="-0.43916">
        <ele>273.595</ele>
        <time>2010-09-19T07:29:55Z</time>
      </trkpt>
      <trkpt lat="43.25196" lon="-0.43917">
        <ele>274.857</ele>
        <time>2010-09-19T07:29:58Z</time>
      </trkpt>
      <trkpt lat="43.25193" lon="-0.43919">
        <ele>275.803</ele>
        <time>2010-09-19T07:30:00Z</time>
      </trkpt>
      <trkpt lat="43.25194" lon="-0.43927">
        <ele>277.257</ele>
        <time>2010-09-19T07:30:05Z</time>
      </trkpt>
      <trkpt lat="43.25209" lon="-0.43935">
        <ele>278.673</ele>
        <time>2010-09-19T07:30:16Z</time>
      </trkpt>
      <trkpt lat="43.25217" lon="-0.43948">
        <ele>279.44</ele>
        <time>2010-09-19T07:30:25Z</time>
      </trkpt>
      <trkpt lat="43.25223" lon="-0.4396">
        <ele>280.678</ele>
        <time>2010-09-19T07:30:34Z</time>
      </trkpt>
      <trkpt lat="43.25228" lon="-0.43969">
        <ele>281.68</ele>
        <time>2010-09-19T07:30:41Z</time>
      </trkpt>
      <trkpt lat="43.25236" lon="-0.43978">
        <ele>283.021</ele>
        <time>2010-09-19T07:30:48Z</time>
      </trkpt>
      <trkpt lat="43.25248" lon="-0.43977">
        <ele>284.238</ele>
        <time>2010-09-19T07:30:56Z</time>
      </trkpt>
      <trkpt lat="43.25252" lon="-0.43975">
        <ele>284.603</ele>
        <time>2010-09-19T07:30:59Z</time>
      </trkpt>
      <trkpt lat="43.25263" lon="-0.43966">
        <ele>285.581</ele>
        <time>2010-09-19T07:31:08Z</time>
      </trkpt>
      <trkpt lat="43.25273" lon="-0.43962">
        <ele>287.118</ele>
        <time>2010-09-19T07:31:16Z</time>
      </trkpt>
      <trkpt lat="43.25281" lon="-0.43966">
        <ele>289.535</ele>
        <time>2010-09-19T07:31:23Z</time>
      </trkpt>
      <trkpt lat="43.25281" lon="-0.43966">
        <ele>289.759</ele>
        <time>2010-09-19T07:31:24Z</time>
      </trkpt>
      <trkpt lat="43.25287" lon="-0.43968">
        <ele>290.937</ele>
        <time>2010-09-19T07:31:32Z</time>
      </trkpt>
      <trkpt lat="43.25293" lon="-0.43977">
        <ele>292.21</ele>
        <time>2010-09-19T07:31:42Z</time>
      </trkpt>
      <trkpt lat="43.25295" lon="-0.43984">
        <ele>293.047</ele>
        <time>2010-09-19T07:31:50Z</time>
      </trkpt>
      <trkpt lat="43.25295" lon="-0.43984">
        <ele>293.368</ele>
        <time>2010-09-19T07:32:05Z</time>
      </trkpt>
      <trkpt lat="43.25295" lon="-0.43986">
        <ele>293.736</ele>
        <time>2010-09-19T07:32:07Z</time>
      </trkpt>
      <trkpt lat="43.25292" lon="-0.43989">
        <ele>293.623</ele>
        <time>2010-09-19T07:32:11Z</time>
      </trkpt>
      <trkpt lat="43.25289" lon="-0.4399">
        <ele>294.021</ele>
        <time>2010-09-19T07:32:14Z</time>
      </trkpt>
      <trkpt lat="43.25279" lon="-0.44">
        <ele>295.082</ele>
        <time>2010-09-19T07:32:26Z</time>
      </trkpt>
      <trkpt lat="43.25272" lon="-0.44007">
        <ele>296.123</ele>
        <time>2010-09-19T07:32:34Z</time>
      </trkpt>
      <trkpt lat="43.25265" lon="-0.44016">
        <ele>297.386</ele>
        <time>2010-09-19T07:32:44Z</time>
      </trkpt>
      <trkpt lat="43.2526" lon="-0.44023">
        <ele>298.62</ele>
        <time>2010-09-19T07:32:52Z</time>
      </trkpt>
      <trkpt lat="43.25253" lon="-0.4403">
        <ele>300.281</ele>
        <time>2010-09-19T07:33:01Z</time>
      </trkpt>
      <trkpt lat="43.2525" lon="-0.44034">
        <ele>300.995</ele>
        <time>2010-09-19T07:33:05Z</time>
      </trkpt>
      <trkpt lat="43.25243" lon="-0.44041">
        <ele>302.84</ele>
        <time>2010-09-19T07:33:13Z</time>
      </trkpt>
      <trkpt lat="43.25242" lon="-0.44044">
        <ele>303.253</ele>
        <time>2010-09-19T07:33:19Z</time>
      </trkpt>
      <trkpt lat="43.25241" lon="-0.44045">
        <ele>302.806</ele>
        <time>2010-09-19T07:33:28Z</time>
      </trkpt>
      <trkpt lat="43.2524" lon="-0.44046">
        <ele>302.786</ele>
        <time>2010-09-19T07:33:44Z</time>
      </trkpt>
      <trkpt lat="43.25239" lon="-0.44046">
        <ele>302.802</ele>
        <time>2010-09-19T07:33:49Z</time>
      </trkpt>
      <trkpt lat="43.25239" lon="-0.44046">
        <ele>302.875</ele>
        <time>2010-09-19T07:33:54Z</time>
      </trkpt>
      <trkpt lat="43.25239" lon="-0.44046">
        <ele>302.938</ele>
        <time>2010-09-19T07:33:59Z</time>
      </trkpt>
      <trkpt lat="43.25237" lon="-0.44046">
        <ele>302.859</ele>
        <time>2010-09-19T07:34:08Z</time>
      </trkpt>
      <trkpt lat="43.25237" lon="-0.44046">
        <ele>302.952</ele>
        <time>2010-09-19T07:34:21Z</time>
      </trkpt>
      <trkpt lat="43.25237" lon="-0.44046">
        <ele>302.88</ele>
        <time>2010-09-19T07:34:57Z</time>
      </trkpt>
      <trkpt lat="43.25237" lon="-0.44046">
        <ele>302.835</ele>
        <time>2010-09-19T07:35:09Z</time>
      </trkpt>
      <trkpt lat="43.25237" lon="-0.44046">
        <ele>302.81</ele>
        <time>2010-09-19T07:35:25Z</time>
      </trkpt>
      <trkpt lat="43.25237" lon="-0.44046">
        <ele>302.83</ele>
        <time>2010-09-19T07:35:29Z</time>
      </trkpt>
      <trkpt lat="43.25237" lon="-0.44044">
        <ele>303.199</ele>
        <time>2010-09-19T07:35:32Z</time>
      </trkpt>
      <trkpt lat="43.25236" lon="-0.44044">
        <ele>303.452</ele>
        <time>2010-09-19T07:35:34Z</time>
      </trkpt>
      <trkpt lat="43.25237" lon="-0.44045">
        <ele>303.555</ele>
        <time>2010-09-19T07:35:46Z</time>
      </trkpt>
      <trkpt lat="43.25237" lon="-0.44045">
        <ele>303.576</ele>
        <time>2010-09-19T07:35:47Z</time>
      </trkpt>
      <trkpt lat="43.25231" lon="-0.4405">
        <ele>304.678</ele>
        <time>2010-09-19T07:35:53Z</time>
      </trkpt>
      <trkpt lat="43.25228" lon="-0.44051">
        <ele>305.351</ele>
        <time>2010-09-19T07:35:55Z</time>
      </trkpt>
      <trkpt lat="43.25216" lon="-0.44054">
        <ele>308.378</ele>
        <time>2010-09-19T07:36:06Z</time>
      </trkpt>
      <trkpt lat="43.25203" lon="-0.44058">
        <ele>310.929</ele>
        <time>2010-09-19T07:36:16Z</time>
      </trkpt>
      <trkpt lat="43.25195" lon="-0.44065">
        <ele>313.204</ele>
        <time>2010-09-19T07:36:23Z</time>
      </trkpt>
      <trkpt lat="43.25185" lon="-0.44075">
        <ele>315.57</ele>
        <time>2010-09-19T07:36:32Z</time>
      </trkpt>
      <trkpt lat="43.25175" lon="-0.44087">
        <ele>317.05</ele>
        <time>2010-09-19T07:36:41Z</time>
      </trkpt>
      <trkpt lat="43.25165" lon="-0.44099">
        <ele>317.391</ele>
        <time>2010-09-19T07:36:48Z</time>
      </trkpt>
      <trkpt lat="43.25157" lon="-0.44112">
        <ele>317.394</ele>
        <time>2010-09-19T07:36:54Z</time>
      </trkpt>
      <trkpt lat="43.25142" lon="-0.44132">
        <ele>316.27</ele>
        <time>2010-09-19T07:37:00Z</time>
      </trkpt>
      <trkpt lat="43.25137" lon="-0.44157">
        <ele>316.343</ele>
        <time>2010-09-19T07:37:05Z</time>
      </trkpt>
      <trkpt lat="43.25138" lon="-0.44161">
        <ele>316.458</ele>
        <time>2010-09-19T07:37:06Z</time>
      </trkpt>
      <trkpt lat="43.25143" lon="-0.44179">
        <ele>318.462</ele>
        <time>2010-09-19T07:37:12Z</time>
      </trkpt>
      <trkpt lat="43.25147" lon="-0.44206">
        <ele>320.68</ele>
        <time>2010-09-19T07:37:22Z</time>
      </trkpt>
      <trkpt lat="43.25146" lon="-0.44228">
        <ele>322.338</ele>
        <time>2010-09-19T07:37:31Z</time>
      </trkpt>
      <trkpt lat="43.25144" lon="-0.44248">
        <ele>324.273</ele>
        <time>2010-09-19T07:37:39Z</time>
      </trkpt>
      <trkpt lat="43.25138" lon="-0.44266">
        <ele>326.622</ele>
        <time>2010-09-19T07:37:46Z</time>
      </trkpt>
      <trkpt lat="43.2513" lon="-0.44282">
        <ele>328.828</ele>
        <time>2010-09-19T07:37:54Z</time>
      </trkpt>
      <trkpt lat="43.25122" lon="-0.44293">
        <ele>329.775</ele>
        <time>2010-09-19T07:38:02Z</time>
      </trkpt>
      <trkpt lat="43.25112" lon="-0.44309">
        <ele>331.25</ele>
        <time>2010-09-19T07:38:12Z</time>
      </trkpt>
      <trkpt lat="43.25104" lon="-0.44327">
        <ele>334.04</ele>
        <time>2010-09-19T07:38:23Z</time>
      </trkpt>
      <trkpt lat="43.25097" lon="-0.44343">
        <ele>336.909</ele>
        <time>2010-09-19T07:38:32Z</time>
      </trkpt>
      <trkpt lat="43.25089" lon="-0.44352">
        <ele>338.972</ele>
        <time>2010-09-19T07:38:39Z</time>
      </trkpt>
      <trkpt lat="43.25084" lon="-0.44361">
        <ele>339.294</ele>
        <time>2010-09-19T07:38:45Z</time>
      </trkpt>
      <trkpt lat="43.25069" lon="-0.44378">
        <ele>338.005</ele>
        <time>2010-09-19T07:38:52Z</time>
      </trkpt>
      <trkpt lat="43.25048" lon="-0.44406">
        <ele>333.131</ele>
        <time>2010-09-19T07:38:59Z</time>
      </trkpt>
      <trkpt lat="43.2504" lon="-0.44417">
        <ele>330.529</ele>
        <time>2010-09-19T07:39:03Z</time>
      </trkpt>
      <trkpt lat="43.25033" lon="-0.44419">
        <ele>329.559</ele>
        <time>2010-09-19T07:39:05Z</time>
      </trkpt>
      <trkpt lat="43.25021" lon="-0.44436">
        <ele>326.792</ele>
        <time>2010-09-19T07:39:10Z</time>
      </trkpt>
      <trkpt lat="43.25018" lon="-0.44453">
        <ele>325.11</ele>
        <time>2010-09-19T07:39:14Z</time>
      </trkpt>
      <trkpt lat="43.2501" lon="-0.44461">
        <ele>322.301</ele>
        <time>2010-09-19T07:39:18Z</time>
      </trkpt>
      <trkpt lat="43.25001" lon="-0.44474">
        <ele>320.727</ele>
        <time>2010-09-19T07:39:24Z</time>
      </trkpt>
      <trkpt lat="43.24995" lon="-0.44479">
        <ele>319.755</ele>
        <time>2010-09-19T07:39:29Z</time>
      </trkpt>
      <trkpt lat="43.24993" lon="-0.4448">
        <ele>319.673</ele>
        <time>2010-09-19T07:39:34Z</time>
      </trkpt>
      <trkpt lat="43.24992" lon="-0.4448">
        <ele>319.603</ele>
        <time>2010-09-19T07:39:35Z</time>
      </trkpt>
      <trkpt lat="43.24985" lon="-0.44483">
        <ele>318.261</ele>
        <time>2010-09-19T07:39:39Z</time>
      </trkpt>
      <trkpt lat="43.24978" lon="-0.44496">
        <ele>316.876</ele>
        <time>2010-09-19T07:39:42Z</time>
      </trkpt>
      <trkpt lat="43.24959" lon="-0.4453">
        <ele>312.449</ele>
        <time>2010-09-19T07:39:47Z</time>
      </trkpt>
      <trkpt lat="43.24946" lon="-0.44555">
        <ele>309.188</ele>
        <time>2010-09-19T07:39:50Z</time>
      </trkpt>
      <trkpt lat="43.24923" lon="-0.44578">
        <ele>304.447</ele>
        <time>2010-09-19T07:39:54Z</time>
      </trkpt>
      <trkpt lat="43.24911" lon="-0.44592">
        <ele>300.908</ele>
        <time>2010-09-19T07:39:56Z</time>
      </trkpt>
      <trkpt lat="43.24899" lon="-0.44607">
        <ele>296.859</ele>
        <time>2010-09-19T07:39:58Z</time>
      </trkpt>
      <trkpt lat="43.24874" lon="-0.44626">
        <ele>289.59</ele>
        <time>2010-09-19T07:40:02Z</time>
      </trkpt>
      <trkpt lat="43.24855" lon="-0.4465">
        <ele>284.454</ele>
        <time>2010-09-19T07:40:06Z</time>
      </trkpt>
      <trkpt lat="43.24839" lon="-0.44674">
        <ele>279.278</ele>
        <time>2010-09-19T07:40:10Z</time>
      </trkpt>
      <trkpt lat="43.24826" lon="-0.44682">
        <ele>276.276</ele>
        <time>2010-09-19T07:40:14Z</time>
      </trkpt>
      <trkpt lat="43.24823" lon="-0.44673">
        <ele>276.232</ele>
        <time>2010-09-19T07:40:17Z</time>
      </trkpt>
      <trkpt lat="43.24822" lon="-0.44649">
        <ele>277.388</ele>
        <time>2010-09-19T07:40:25Z</time>
      </trkpt>
      <trkpt lat="43.24819" lon="-0.4462">
        <ele>278.66</ele>
        <time>2010-09-19T07:40:34Z</time>
      </trkpt>
      <trkpt lat="43.24817" lon="-0.44597">
        <ele>279.728</ele>
        <time>2010-09-19T07:40:41Z</time>
      </trkpt>
      <trkpt lat="43.24816" lon="-0.44573">
        <ele>281.141</ele>
        <time>2010-09-19T07:40:49Z</time>
      </trkpt>
      <trkpt lat="43.24813" lon="-0.4455">
        <ele>282.803</ele>
        <time>2010-09-19T07:40:56Z</time>
      </trkpt>
      <trkpt lat="43.24807" lon="-0.44525">
        <ele>284.47</ele>
        <time>2010-09-19T07:41:04Z</time>
      </trkpt>
      <trkpt lat="43.24798" lon="-0.445">
        <ele>285.274</ele>
        <time>2010-09-19T07:41:12Z</time>
      </trkpt>
      <trkpt lat="43.24789" lon="-0.44479">
        <ele>286.003</ele>
        <time>2010-09-19T07:41:18Z</time>
      </trkpt>
      <trkpt lat="43.24776" lon="-0.44457">
        <ele>286.963</ele>
        <time>2010-09-19T07:41:25Z</time>
      </trkpt>
      <trkpt lat="43.24764" lon="-0.44436">
        <ele>287.985</ele>
        <time>2010-09-19T07:41:32Z</time>
      </trkpt>
      <trkpt lat="43.24753" lon="-0.44418">
        <ele>289.297</ele>
        <time>2010-09-19T07:41:39Z</time>
      </trkpt>
      <trkpt lat="43.2474" lon="-0.44401">
        <ele>290.548</ele>
        <time>2010-09-19T07:41:47Z</time>
      </trkpt>
      <trkpt lat="43.2473" lon="-0.44384">
        <ele>291.442</ele>
        <time>2010-09-19T07:41:54Z</time>
      </trkpt>
      <trkpt lat="43.24724" lon="-0.44368">
        <ele>292.826</ele>
        <time>2010-09-19T07:42:00Z</time>
      </trkpt>
      <trkpt lat="43.24719" lon="-0.44346">
        <ele>293.985</ele>
        <time>2010-09-19T07:42:09Z</time>
      </trkpt>
      <trkpt lat="43.2471" lon="-0.44324">
        <ele>295.497</ele>
        <time>2010-09-19T07:42:20Z</time>
      </trkpt>
      <trkpt lat="43.24701" lon="-0.44309">
        <ele>296.782</ele>
        <time>2010-09-19T07:42:29Z</time>
      </trkpt>
      <trkpt lat="43.24699" lon="-0.44305">
        <ele>297.15</ele>
        <time>2010-09-19T07:42:31Z</time>
      </trkpt>
      <trkpt lat="43.24695" lon="-0.44288">
        <ele>298.449</ele>
        <time>2010-09-19T07:42:39Z</time>
      </trkpt>
      <trkpt lat="43.24695" lon="-0.44272">
        <ele>300.543</ele>
        <time>2010-09-19T07:42:47Z</time>
      </trkpt>
      <trkpt lat="43.24696" lon="-0.4426">
        <ele>302.161</ele>
        <time>2010-09-19T07:42:54Z</time>
      </trkpt>
      <trkpt lat="43.24692" lon="-0.44244">
        <ele>304.302</ele>
        <time>2010-09-19T07:43:04Z</time>
      </trkpt>
      <trkpt lat="43.2469" lon="-0.44234">
        <ele>305.779</ele>
        <time>2010-09-19T07:43:11Z</time>
      </trkpt>
      <trkpt lat="43.24688" lon="-0.44223">
        <ele>306.788</ele>
        <time>2010-09-19T07:43:18Z</time>
      </trkpt>
      <trkpt lat="43.24686" lon="-0.44209">
        <ele>308.385</ele>
        <time>2010-09-19T07:43:27Z</time>
      </trkpt>
      <trkpt lat="43.24684" lon="-0.442">
        <ele>309.294</ele>
        <time>2010-09-19T07:43:33Z</time>
      </trkpt>
      <trkpt lat="43.24682" lon="-0.44194">
        <ele>310.091</ele>
        <time>2010-09-19T07:43:38Z</time>
      </trkpt>
      <trkpt lat="43.24678" lon="-0.44181">
        <ele>311.403</ele>
        <time>2010-09-19T07:43:47Z</time>
      </trkpt>
      <trkpt lat="43.24678" lon="-0.44171">
        <ele>312.554</ele>
        <time>2010-09-19T07:43:54Z</time>
      </trkpt>
      <trkpt lat="43.24681" lon="-0.44167">
        <ele>313.015</ele>
        <time>2010-09-19T07:43:57Z</time>
      </trkpt>
      <trkpt lat="43.2469" lon="-0.44171">
        <ele>314.869</ele>
        <time>2010-09-19T07:44:05Z</time>
      </trkpt>
      <trkpt lat="43.24699" lon="-0.44178">
        <ele>315.709</ele>
        <time>2010-09-19T07:44:13Z</time>
      </trkpt>
      <trkpt lat="43.2471" lon="-0.44185">
        <ele>316.808</ele>
        <time>2010-09-19T07:44:22Z</time>
      </trkpt>
      <trkpt lat="43.24724" lon="-0.44194">
        <ele>318.159</ele>
        <time>2010-09-19T07:44:33Z</time>
      </trkpt>
      <trkpt lat="43.24733" lon="-0.442">
        <ele>319.45</ele>
        <time>2010-09-19T07:44:41Z</time>
      </trkpt>
      <trkpt lat="43.24742" lon="-0.44205">
        <ele>320.785</ele>
        <time>2010-09-19T07:44:48Z</time>
      </trkpt>
      <trkpt lat="43.24754" lon="-0.44213">
        <ele>322.096</ele>
        <time>2010-09-19T07:44:57Z</time>
      </trkpt>
      <trkpt lat="43.24768" lon="-0.44215">
        <ele>324.067</ele>
        <time>2010-09-19T07:45:07Z</time>
      </trkpt>
      <trkpt lat="43.24782" lon="-0.44213">
        <ele>326.076</ele>
        <time>2010-09-19T07:45:18Z</time>
      </trkpt>
      <trkpt lat="43.24793" lon="-0.44212">
        <ele>326.952</ele>
        <time>2010-09-19T07:45:26Z</time>
      </trkpt>
      <trkpt lat="43.24806" lon="-0.4421">
        <ele>328.644</ele>
        <time>2010-09-19T07:45:36Z</time>
      </trkpt>
      <trkpt lat="43.24816" lon="-0.44209">
        <ele>330.169</ele>
        <time>2010-09-19T07:45:44Z</time>
      </trkpt>
      <trkpt lat="43.24828" lon="-0.4421">
        <ele>332.055</ele>
        <time>2010-09-19T07:45:55Z</time>
      </trkpt>
      <trkpt lat="43.24833" lon="-0.44212">
        <ele>332.748</ele>
        <time>2010-09-19T07:46:00Z</time>
      </trkpt>
      <trkpt lat="43.2484" lon="-0.44218">
        <ele>334.378</ele>
        <time>2010-09-19T07:46:08Z</time>
      </trkpt>
      <trkpt lat="43.24845" lon="-0.44228">
        <ele>335.397</ele>
        <time>2010-09-19T07:46:15Z</time>
      </trkpt>
      <trkpt lat="43.24851" lon="-0.4424">
        <ele>336.332</ele>
        <time>2010-09-19T07:46:24Z</time>
      </trkpt>
      <trkpt lat="43.24858" lon="-0.4425">
        <ele>337.265</ele>
        <time>2010-09-19T07:46:32Z</time>
      </trkpt>
      <trkpt lat="43.24861" lon="-0.44252">
        <ele>337.618</ele>
        <time>2010-09-19T07:46:35Z</time>
      </trkpt>
      <trkpt lat="43.2487" lon="-0.44254">
        <ele>338.825</ele>
        <time>2010-09-19T07:46:43Z</time>
      </trkpt>
      <trkpt lat="43.2488" lon="-0.44255">
        <ele>340.152</ele>
        <time>2010-09-19T07:46:52Z</time>
      </trkpt>
      <trkpt lat="43.24889" lon="-0.44255">
        <ele>341.776</ele>
        <time>2010-09-19T07:47:01Z</time>
      </trkpt>
      <trkpt lat="43.24897" lon="-0.44254">
        <ele>343.252</ele>
        <time>2010-09-19T07:47:10Z</time>
      </trkpt>
      <trkpt lat="43.24898" lon="-0.44256">
        <ele>343.202</ele>
        <time>2010-09-19T07:47:18Z</time>
      </trkpt>
      <trkpt lat="43.24899" lon="-0.44254">
        <ele>343.483</ele>
        <time>2010-09-19T07:47:30Z</time>
      </trkpt>
      <trkpt lat="43.24906" lon="-0.44246">
        <ele>344.656</ele>
        <time>2010-09-19T07:47:40Z</time>
      </trkpt>
      <trkpt lat="43.24911" lon="-0.44236">
        <ele>345.697</ele>
        <time>2010-09-19T07:47:49Z</time>
      </trkpt>
      <trkpt lat="43.24916" lon="-0.44228">
        <ele>346.941</ele>
        <time>2010-09-19T07:47:58Z</time>
      </trkpt>
      <trkpt lat="43.24919" lon="-0.4422">
        <ele>348.003</ele>
        <time>2010-09-19T07:48:06Z</time>
      </trkpt>
      <trkpt lat="43.24917" lon="-0.44214">
        <ele>348.693</ele>
        <time>2010-09-19T07:48:12Z</time>
      </trkpt>
      <trkpt lat="43.24917" lon="-0.44211">
        <ele>349.039</ele>
        <time>2010-09-19T07:48:14Z</time>
      </trkpt>
      <trkpt lat="43.24918" lon="-0.44207">
        <ele>349.409</ele>
        <time>2010-09-19T07:48:20Z</time>
      </trkpt>
      <trkpt lat="43.24918" lon="-0.44206">
        <ele>349.668</ele>
        <time>2010-09-19T07:48:24Z</time>
      </trkpt>
      <trkpt lat="43.24917" lon="-0.44192">
        <ele>350.866</ele>
        <time>2010-09-19T07:48:34Z</time>
      </trkpt>
      <trkpt lat="43.24919" lon="-0.44178">
        <ele>352.36</ele>
        <time>2010-09-19T07:48:44Z</time>
      </trkpt>
      <trkpt lat="43.24922" lon="-0.44166">
        <ele>353.086</ele>
        <time>2010-09-19T07:48:53Z</time>
      </trkpt>
      <trkpt lat="43.24922" lon="-0.44157">
        <ele>353.548</ele>
        <time>2010-09-19T07:49:00Z</time>
      </trkpt>
      <trkpt lat="43.24922" lon="-0.44141">
        <ele>354.241</ele>
        <time>2010-09-19T07:49:10Z</time>
      </trkpt>
      <trkpt lat="43.24924" lon="-0.44121">
        <ele>355.517</ele>
        <time>2010-09-19T07:49:23Z</time>
      </trkpt>
      <trkpt lat="43.24924" lon="-0.44117">
        <ele>355.943</ele>
        <time>2010-09-19T07:49:26Z</time>
      </trkpt>
      <trkpt lat="43.24924" lon="-0.44111">
        <ele>356.404</ele>
        <time>2010-09-19T07:49:32Z</time>
      </trkpt>
      <trkpt lat="43.24921" lon="-0.44102">
        <ele>356.833</ele>
        <time>2010-09-19T07:49:38Z</time>
      </trkpt>
      <trkpt lat="43.24914" lon="-0.44089">
        <ele>357.756</ele>
        <time>2010-09-19T07:49:46Z</time>
      </trkpt>
      <trkpt lat="43.24905" lon="-0.44071">
        <ele>358.907</ele>
        <time>2010-09-19T07:49:55Z</time>
      </trkpt>
      <trkpt lat="43.24895" lon="-0.44047">
        <ele>360.47</ele>
        <time>2010-09-19T07:50:06Z</time>
      </trkpt>
      <trkpt lat="43.24888" lon="-0.44029">
        <ele>361.608</ele>
        <time>2010-09-19T07:50:14Z</time>
      </trkpt>
      <trkpt lat="43.2488" lon="-0.44012">
        <ele>362.22</ele>
        <time>2010-09-19T07:50:22Z</time>
      </trkpt>
      <trkpt lat="43.24874" lon="-0.43999">
        <ele>362.761</ele>
        <time>2010-09-19T07:50:28Z</time>
      </trkpt>
      <trkpt lat="43.24866" lon="-0.43983">
        <ele>363.115</ele>
        <time>2010-09-19T07:50:35Z</time>
      </trkpt>
      <trkpt lat="43.2485" lon="-0.43957">
        <ele>362.902</ele>
        <time>2010-09-19T07:50:44Z</time>
      </trkpt>
      <trkpt lat="43.24835" lon="-0.43938">
        <ele>361.857</ele>
        <time>2010-09-19T07:50:49Z</time>
      </trkpt>
      <trkpt lat="43.24812" lon="-0.43911">
        <ele>360.131</ele>
        <time>2010-09-19T07:50:54Z</time>
      </trkpt>
      <trkpt lat="43.24776" lon="-0.43868">
        <ele>356.837</ele>
        <time>2010-09-19T07:51:00Z</time>
      </trkpt>
      <trkpt lat="43.24744" lon="-0.43828">
        <ele>354.551</ele>
        <time>2010-09-19T07:51:05Z</time>
      </trkpt>
      <trkpt lat="43.24735" lon="-0.43816">
        <ele>353.777</ele>
        <time>2010-09-19T07:51:07Z</time>
      </trkpt>
      <trkpt lat="43.2473" lon="-0.43796">
        <ele>353.453</ele>
        <time>2010-09-19T07:51:11Z</time>
      </trkpt>
      <trkpt lat="43.24733" lon="-0.43765">
        <ele>352.216</ele>
        <time>2010-09-19T07:51:16Z</time>
      </trkpt>
      <trkpt lat="43.24731" lon="-0.4372">
        <ele>349.305</ele>
        <time>2010-09-19T07:51:21Z</time>
      </trkpt>
      <trkpt lat="43.24729" lon="-0.43655">
        <ele>344.572</ele>
        <time>2010-09-19T07:51:26Z</time>
      </trkpt>
      <trkpt lat="43.24732" lon="-0.43591">
        <ele>340.142</ele>
        <time>2010-09-19T07:51:30Z</time>
      </trkpt>
      <trkpt lat="43.24737" lon="-0.43539">
        <ele>333.911</ele>
        <time>2010-09-19T07:51:34Z</time>
      </trkpt>
      <trkpt lat="43.24739" lon="-0.43528">
        <ele>332.259</ele>
        <time>2010-09-19T07:51:35Z</time>
      </trkpt>
      <trkpt lat="43.24737" lon="-0.43477">
        <ele>325.89</ele>
        <time>2010-09-19T07:51:40Z</time>
      </trkpt>
      <trkpt lat="43.24735" lon="-0.43438">
        <ele>321.203</ele>
        <time>2010-09-19T07:51:43Z</time>
      </trkpt>
      <trkpt lat="43.24728" lon="-0.43369">
        <ele>315.233</ele>
        <time>2010-09-19T07:51:48Z</time>
      </trkpt>
      <trkpt lat="43.24726" lon="-0.43357">
        <ele>313.5</ele>
        <time>2010-09-19T07:51:49Z</time>
      </trkpt>
      <trkpt lat="43.24713" lon="-0.43321">
        <ele>310.493</ele>
        <time>2010-09-19T07:51:53Z</time>
      </trkpt>
      <trkpt lat="43.2471" lon="-0.43314">
        <ele>310.675</ele>
        <time>2010-09-19T07:51:54Z</time>
      </trkpt>
      <trkpt lat="43.24701" lon="-0.43293">
        <ele>310.323</ele>
        <time>2010-09-19T07:51:59Z</time>
      </trkpt>
      <trkpt lat="43.24683" lon="-0.43263">
        <ele>308.136</ele>
        <time>2010-09-19T07:52:06Z</time>
      </trkpt>
      <trkpt lat="43.24671" lon="-0.43245">
        <ele>306.523</ele>
        <time>2010-09-19T07:52:09Z</time>
      </trkpt>
      <trkpt lat="43.24643" lon="-0.43198">
        <ele>302.247</ele>
        <time>2010-09-19T07:52:15Z</time>
      </trkpt>
      <trkpt lat="43.24627" lon="-0.43162">
        <ele>300.022</ele>
        <time>2010-09-19T07:52:19Z</time>
      </trkpt>
      <trkpt lat="43.24603" lon="-0.43098">
        <ele>295.991</ele>
        <time>2010-09-19T07:52:26Z</time>
      </trkpt>
      <trkpt lat="43.246" lon="-0.4309">
        <ele>295.466</ele>
        <time>2010-09-19T07:52:27Z</time>
      </trkpt>
      <trkpt lat="43.24586" lon="-0.43081">
        <ele>294.304</ele>
        <time>2010-09-19T07:52:31Z</time>
      </trkpt>
      <trkpt lat="43.24583" lon="-0.43082">
        <ele>293.827</ele>
        <time>2010-09-19T07:52:34Z</time>
      </trkpt>
      <trkpt lat="43.24583" lon="-0.43082">
        <ele>293.67</ele>
        <time>2010-09-19T07:52:39Z</time>
      </trkpt>
      <trkpt lat="43.24582" lon="-0.43083">
        <ele>293.69</ele>
        <time>2010-09-19T07:52:42Z</time>
      </trkpt>
      <trkpt lat="43.24573" lon="-0.43088">
        <ele>292.78</ele>
        <time>2010-09-19T07:52:47Z</time>
      </trkpt>
      <trkpt lat="43.24562" lon="-0.4308">
        <ele>291.237</ele>
        <time>2010-09-19T07:52:50Z</time>
      </trkpt>
      <trkpt lat="43.24555" lon="-0.43071">
        <ele>289.98</ele>
        <time>2010-09-19T07:52:52Z</time>
      </trkpt>
      <trkpt lat="43.24542" lon="-0.43053">
        <ele>288.554</ele>
        <time>2010-09-19T07:52:55Z</time>
      </trkpt>
      <trkpt lat="43.2451" lon="-0.43016">
        <ele>283.431</ele>
        <time>2010-09-19T07:53:00Z</time>
      </trkpt>
      <trkpt lat="43.24473" lon="-0.42966">
        <ele>279.681</ele>
        <time>2010-09-19T07:53:06Z</time>
      </trkpt>
      <trkpt lat="43.24446" lon="-0.42934">
        <ele>277.839</ele>
        <time>2010-09-19T07:53:11Z</time>
      </trkpt>
      <trkpt lat="43.24426" lon="-0.42911">
        <ele>276.259</ele>
        <time>2010-09-19T07:53:15Z</time>
      </trkpt>
      <trkpt lat="43.24412" lon="-0.42889">
        <ele>273.806</ele>
        <time>2010-09-19T07:53:20Z</time>
      </trkpt>
      <trkpt lat="43.24392" lon="-0.42882">
        <ele>271.017</ele>
        <time>2010-09-19T07:53:24Z</time>
      </trkpt>
      <trkpt lat="43.24382" lon="-0.4288">
        <ele>269.29</ele>
        <time>2010-09-19T07:53:26Z</time>
      </trkpt>
      <trkpt lat="43.24366" lon="-0.42865">
        <ele>265.584</ele>
        <time>2010-09-19T07:53:30Z</time>
      </trkpt>
      <trkpt lat="43.24362" lon="-0.42844">
        <ele>263.524</ele>
        <time>2010-09-19T07:53:34Z</time>
      </trkpt>
      <trkpt lat="43.24362" lon="-0.42839">
        <ele>263.277</ele>
        <time>2010-09-19T07:53:35Z</time>
      </trkpt>
      <trkpt lat="43.24367" lon="-0.42828">
        <ele>261.74</ele>
        <time>2010-09-19T07:53:38Z</time>
      </trkpt>
      <trkpt lat="43.24372" lon="-0.42826">
        <ele>261.32</ele>
        <time>2010-09-19T07:53:39Z</time>
      </trkpt>
      <trkpt lat="43.24389" lon="-0.42821">
        <ele>260.592</ele>
        <time>2010-09-19T07:53:45Z</time>
      </trkpt>
      <trkpt lat="43.24395" lon="-0.42812">
        <ele>258.476</ele>
        <time>2010-09-19T07:53:50Z</time>
      </trkpt>
      <trkpt lat="43.24396" lon="-0.42812">
        <ele>257.982</ele>
        <time>2010-09-19T07:53:54Z</time>
      </trkpt>
      <trkpt lat="43.244" lon="-0.42817">
        <ele>258.763</ele>
        <time>2010-09-19T07:53:59Z</time>
      </trkpt>
      <trkpt lat="43.244" lon="-0.4282">
        <ele>259.802</ele>
        <time>2010-09-19T07:54:03Z</time>
      </trkpt>
      <trkpt lat="43.24402" lon="-0.42824">
        <ele>260.662</ele>
        <time>2010-09-19T07:54:07Z</time>
      </trkpt>
      <trkpt lat="43.24403" lon="-0.42824">
        <ele>261.139</ele>
        <time>2010-09-19T07:54:09Z</time>
      </trkpt>
      <trkpt lat="43.24412" lon="-0.42824">
        <ele>260.86</ele>
        <time>2010-09-19T07:54:15Z</time>
      </trkpt>
      <trkpt lat="43.24425" lon="-0.42823">
        <ele>260.041</ele>
        <time>2010-09-19T07:54:20Z</time>
      </trkpt>
      <trkpt lat="43.24429" lon="-0.42822">
        <ele>259.863</ele>
        <time>2010-09-19T07:54:21Z</time>
      </trkpt>
      <trkpt lat="43.24451" lon="-0.42821">
        <ele>257.232</ele>
        <time>2010-09-19T07:54:25Z</time>
      </trkpt>
      <trkpt lat="43.24462" lon="-0.42829">
        <ele>256.587</ele>
        <time>2010-09-19T07:54:27Z</time>
      </trkpt>
      <trkpt lat="43.24498" lon="-0.42867">
        <ele>254.248</ele>
        <time>2010-09-19T07:54:34Z</time>
      </trkpt>
      <trkpt lat="43.24522" lon="-0.42893">
        <ele>252.04</ele>
        <time>2010-09-19T07:54:38Z</time>
      </trkpt>
      <trkpt lat="43.24529" lon="-0.42901">
        <ele>251.748</ele>
        <time>2010-09-19T07:54:39Z</time>
      </trkpt>
      <trkpt lat="43.24541" lon="-0.42916">
        <ele>250.174</ele>
        <time>2010-09-19T07:54:41Z</time>
      </trkpt>
      <trkpt lat="43.24558" lon="-0.42921">
        <ele>247.117</ele>
        <time>2010-09-19T07:54:44Z</time>
      </trkpt>
      <trkpt lat="43.24564" lon="-0.4291">
        <ele>244.608</ele>
        <time>2010-09-19T07:54:46Z</time>
      </trkpt>
      <trkpt lat="43.24566" lon="-0.42901">
        <ele>243.163</ele>
        <time>2010-09-19T07:54:47Z</time>
      </trkpt>
      <trkpt lat="43.24573" lon="-0.42861">
        <ele>237.749</ele>
        <time>2010-09-19T07:54:50Z</time>
      </trkpt>
      <trkpt lat="43.24598" lon="-0.42791">
        <ele>227.569</ele>
        <time>2010-09-19T07:54:55Z</time>
      </trkpt>
      <trkpt lat="43.24613" lon="-0.42748">
        <ele>220.394</ele>
        <time>2010-09-19T07:54:59Z</time>
      </trkpt>
      <trkpt lat="43.24615" lon="-0.4274">
        <ele>218.956</ele>
        <time>2010-09-19T07:55:00Z</time>
      </trkpt>
      <trkpt lat="43.24617" lon="-0.4272">
        <ele>217.078</ele>
        <time>2010-09-19T07:55:02Z</time>
      </trkpt>
      <trkpt lat="43.24633" lon="-0.42644">
        <ele>209.28</ele>
        <time>2010-09-19T07:55:08Z</time>
      </trkpt>
      <trkpt lat="43.24637" lon="-0.42616">
        <ele>205.244</ele>
        <time>2010-09-19T07:55:10Z</time>
      </trkpt>
      <trkpt lat="43.24648" lon="-0.42576">
        <ele>198.985</ele>
        <time>2010-09-19T07:55:14Z</time>
      </trkpt>
      <trkpt lat="43.2465" lon="-0.42562">
        <ele>196.656</ele>
        <time>2010-09-19T07:55:17Z</time>
      </trkpt>
      <trkpt lat="43.24639" lon="-0.42553">
        <ele>195.914</ele>
        <time>2010-09-19T07:55:21Z</time>
      </trkpt>
      <trkpt lat="43.24619" lon="-0.42548">
        <ele>195.763</ele>
        <time>2010-09-19T07:55:26Z</time>
      </trkpt>
      <trkpt lat="43.2458" lon="-0.42535">
        <ele>195.646</ele>
        <time>2010-09-19T07:55:34Z</time>
      </trkpt>
      <trkpt lat="43.2453" lon="-0.42517">
        <ele>195.899</ele>
        <time>2010-09-19T07:55:44Z</time>
      </trkpt>
      <trkpt lat="43.24478" lon="-0.42503">
        <ele>196.489</ele>
        <time>2010-09-19T07:55:54Z</time>
      </trkpt>
      <trkpt lat="43.24427" lon="-0.42486">
        <ele>196.89</ele>
        <time>2010-09-19T07:56:04Z</time>
      </trkpt>
      <trkpt lat="43.2438" lon="-0.42466">
        <ele>197.922</ele>
        <time>2010-09-19T07:56:14Z</time>
      </trkpt>
      <trkpt lat="43.24338" lon="-0.42446">
        <ele>199.105</ele>
        <time>2010-09-19T07:56:24Z</time>
      </trkpt>
      <trkpt lat="43.24315" lon="-0.42436">
        <ele>199.443</ele>
        <time>2010-09-19T07:56:30Z</time>
      </trkpt>
      <trkpt lat="43.24283" lon="-0.42419">
        <ele>200.39</ele>
        <time>2010-09-19T07:56:38Z</time>
      </trkpt>
      <trkpt lat="43.24245" lon="-0.42391">
        <ele>200.288</ele>
        <time>2010-09-19T07:56:47Z</time>
      </trkpt>
      <trkpt lat="43.2421" lon="-0.42355">
        <ele>200.311</ele>
        <time>2010-09-19T07:56:55Z</time>
      </trkpt>
      <trkpt lat="43.24181" lon="-0.42328">
        <ele>201.146</ele>
        <time>2010-09-19T07:57:02Z</time>
      </trkpt>
      <trkpt lat="43.24157" lon="-0.42306">
        <ele>201.179</ele>
        <time>2010-09-19T07:57:08Z</time>
      </trkpt>
      <trkpt lat="43.24117" lon="-0.42277">
        <ele>200.27</ele>
        <time>2010-09-19T07:57:16Z</time>
      </trkpt>
      <trkpt lat="43.24112" lon="-0.42274">
        <ele>200.234</ele>
        <time>2010-09-19T07:57:17Z</time>
      </trkpt>
      <trkpt lat="43.24076" lon="-0.42248">
        <ele>200.119</ele>
        <time>2010-09-19T07:57:25Z</time>
      </trkpt>
      <trkpt lat="43.24062" lon="-0.4224">
        <ele>199.896</ele>
        <time>2010-09-19T07:57:28Z</time>
      </trkpt>
      <trkpt lat="43.24028" lon="-0.42219">
        <ele>200.367</ele>
        <time>2010-09-19T07:57:36Z</time>
      </trkpt>
      <trkpt lat="43.24011" lon="-0.42214">
        <ele>200.379</ele>
        <time>2010-09-19T07:57:40Z</time>
      </trkpt>
      <trkpt lat="43.23987" lon="-0.42213">
        <ele>200.436</ele>
        <time>2010-09-19T07:57:46Z</time>
      </trkpt>
      <trkpt lat="43.23981" lon="-0.42198">
        <ele>200.632</ele>
        <time>2010-09-19T07:57:50Z</time>
      </trkpt>
      <trkpt lat="43.23982" lon="-0.42193">
        <ele>200.469</ele>
        <time>2010-09-19T07:57:51Z</time>
      </trkpt>
      <trkpt lat="43.23983" lon="-0.42182">
        <ele>200.383</ele>
        <time>2010-09-19T07:57:53Z</time>
      </trkpt>
      <trkpt lat="43.23985" lon="-0.42144">
        <ele>200.949</ele>
        <time>2010-09-19T07:58:00Z</time>
      </trkpt>
      <trkpt lat="43.23989" lon="-0.42118">
        <ele>201.451</ele>
        <time>2010-09-19T07:58:06Z</time>
      </trkpt>
      <trkpt lat="43.24002" lon="-0.4207">
        <ele>202.213</ele>
        <time>2010-09-19T07:58:16Z</time>
      </trkpt>
      <trkpt lat="43.24003" lon="-0.42047">
        <ele>202.761</ele>
        <time>2010-09-19T07:58:21Z</time>
      </trkpt>
      <trkpt lat="43.23996" lon="-0.4202">
        <ele>203.481</ele>
        <time>2010-09-19T07:58:27Z</time>
      </trkpt>
      <trkpt lat="43.23987" lon="-0.41997">
        <ele>204.997</ele>
        <time>2010-09-19T07:58:34Z</time>
      </trkpt>
      <trkpt lat="43.23986" lon="-0.41989">
        <ele>205.585</ele>
        <time>2010-09-19T07:58:37Z</time>
      </trkpt>
      <trkpt lat="43.23994" lon="-0.41978">
        <ele>206.986</ele>
        <time>2010-09-19T07:58:44Z</time>
      </trkpt>
      <trkpt lat="43.23999" lon="-0.41973">
        <ele>208.24</ele>
        <time>2010-09-19T07:58:50Z</time>
      </trkpt>
      <trkpt lat="43.24005" lon="-0.41968">
        <ele>209.902</ele>
        <time>2010-09-19T07:58:57Z</time>
      </trkpt>
      <trkpt lat="43.24012" lon="-0.4196">
        <ele>211.982</ele>
        <time>2010-09-19T07:59:05Z</time>
      </trkpt>
      <trkpt lat="43.24016" lon="-0.41956">
        <ele>213.195</ele>
        <time>2010-09-19T07:59:09Z</time>
      </trkpt>
      <trkpt lat="43.24021" lon="-0.41952">
        <ele>214.205</ele>
        <time>2010-09-19T07:59:14Z</time>
      </trkpt>
      <trkpt lat="43.24027" lon="-0.41945">
        <ele>215.77</ele>
        <time>2010-09-19T07:59:21Z</time>
      </trkpt>
      <trkpt lat="43.24032" lon="-0.41939">
        <ele>217.42</ele>
        <time>2010-09-19T07:59:28Z</time>
      </trkpt>
      <trkpt lat="43.24038" lon="-0.4193">
        <ele>218.836</ele>
        <time>2010-09-19T07:59:35Z</time>
      </trkpt>
      <trkpt lat="43.24046" lon="-0.41917">
        <ele>221.462</ele>
        <time>2010-09-19T07:59:44Z</time>
      </trkpt>
      <trkpt lat="43.24053" lon="-0.41908">
        <ele>222.669</ele>
        <time>2010-09-19T07:59:51Z</time>
      </trkpt>
      <trkpt lat="43.24055" lon="-0.41904">
        <ele>223.422</ele>
        <time>2010-09-19T07:59:54Z</time>
      </trkpt>
      <trkpt lat="43.24063" lon="-0.41895">
        <ele>224.792</ele>
        <time>2010-09-19T08:00:03Z</time>
      </trkpt>
      <trkpt lat="43.2407" lon="-0.41889">
        <ele>226.046</ele>
        <time>2010-09-19T08:00:11Z</time>
      </trkpt>
      <trkpt lat="43.24072" lon="-0.41888">
        <ele>226.636</ele>
        <time>2010-09-19T08:00:14Z</time>
      </trkpt>
      <trkpt lat="43.24075" lon="-0.41885">
        <ele>227.11</ele>
        <time>2010-09-19T08:00:20Z</time>
      </trkpt>
      <trkpt lat="43.24077" lon="-0.41883">
        <ele>227.367</ele>
        <time>2010-09-19T08:00:25Z</time>
      </trkpt>
      <trkpt lat="43.24083" lon="-0.41881">
        <ele>228.395</ele>
        <time>2010-09-19T08:00:31Z</time>
      </trkpt>
      <trkpt lat="43.24089" lon="-0.41878">
        <ele>229.474</ele>
        <time>2010-09-19T08:00:37Z</time>
      </trkpt>
      <trkpt lat="43.24099" lon="-0.41875">
        <ele>230.872</ele>
        <time>2010-09-19T08:00:46Z</time>
      </trkpt>
      <trkpt lat="43.24106" lon="-0.4187">
        <ele>232.028</ele>
        <time>2010-09-19T08:00:53Z</time>
      </trkpt>
      <trkpt lat="43.24114" lon="-0.41864">
        <ele>233.827</ele>
        <time>2010-09-19T08:01:03Z</time>
      </trkpt>
      <trkpt lat="43.2412" lon="-0.41859">
        <ele>235.648</ele>
        <time>2010-09-19T08:01:12Z</time>
      </trkpt>
      <trkpt lat="43.24124" lon="-0.41847">
        <ele>237.277</ele>
        <time>2010-09-19T08:01:21Z</time>
      </trkpt>
      <trkpt lat="43.24128" lon="-0.41838">
        <ele>238.837</ele>
        <time>2010-09-19T08:01:29Z</time>
      </trkpt>
      <trkpt lat="43.2413" lon="-0.41831">
        <ele>239.923</ele>
        <time>2010-09-19T08:01:38Z</time>
      </trkpt>
      <trkpt lat="43.24132" lon="-0.4182">
        <ele>241.666</ele>
        <time>2010-09-19T08:01:45Z</time>
      </trkpt>
      <trkpt lat="43.24139" lon="-0.41807">
        <ele>243.551</ele>
        <time>2010-09-19T08:01:53Z</time>
      </trkpt>
      <trkpt lat="43.24145" lon="-0.41798">
        <ele>245.072</ele>
        <time>2010-09-19T08:02:00Z</time>
      </trkpt>
      <trkpt lat="43.24146" lon="-0.41794">
        <ele>245.625</ele>
        <time>2010-09-19T08:02:05Z</time>
      </trkpt>
      <trkpt lat="43.24144" lon="-0.41792">
        <ele>246.507</ele>
        <time>2010-09-19T08:02:11Z</time>
      </trkpt>
      <trkpt lat="43.24143" lon="-0.41792">
        <ele>246.548</ele>
        <time>2010-09-19T08:02:12Z</time>
      </trkpt>
      <trkpt lat="43.24134" lon="-0.41798">
        <ele>248.396</ele>
        <time>2010-09-19T08:02:22Z</time>
      </trkpt>
      <trkpt lat="43.24127" lon="-0.41801">
        <ele>249.667</ele>
        <time>2010-09-19T08:02:30Z</time>
      </trkpt>
      <trkpt lat="43.2412" lon="-0.418">
        <ele>251.014</ele>
        <time>2010-09-19T08:02:37Z</time>
      </trkpt>
      <trkpt lat="43.24112" lon="-0.41797">
        <ele>252.666</ele>
        <time>2010-09-19T08:02:46Z</time>
      </trkpt>
      <trkpt lat="43.24102" lon="-0.4179">
        <ele>254.881</ele>
        <time>2010-09-19T08:02:58Z</time>
      </trkpt>
      <trkpt lat="43.24096" lon="-0.41785">
        <ele>256.391</ele>
        <time>2010-09-19T08:03:09Z</time>
      </trkpt>
      <trkpt lat="43.24093" lon="-0.41778">
        <ele>257.831</ele>
        <time>2010-09-19T08:03:17Z</time>
      </trkpt>
      <trkpt lat="43.24089" lon="-0.41767">
        <ele>259.508</ele>
        <time>2010-09-19T08:03:27Z</time>
      </trkpt>
      <trkpt lat="43.24085" lon="-0.41756">
        <ele>261.313</ele>
        <time>2010-09-19T08:03:36Z</time>
      </trkpt>
      <trkpt lat="43.24084" lon="-0.41743">
        <ele>262.673</ele>
        <time>2010-09-19T08:03:46Z</time>
      </trkpt>
      <trkpt lat="43.24085" lon="-0.41733">
        <ele>264.094</ele>
        <time>2010-09-19T08:03:54Z</time>
      </trkpt>
      <trkpt lat="43.24086" lon="-0.41732">
        <ele>264.308</ele>
        <time>2010-09-19T08:03:56Z</time>
      </trkpt>
      <trkpt lat="43.24092" lon="-0.41727">
        <ele>266.353</ele>
        <time>2010-09-19T08:04:06Z</time>
      </trkpt>
      <trkpt lat="43.24093" lon="-0.41727">
        <ele>266.461</ele>
        <time>2010-09-19T08:04:07Z</time>
      </trkpt>
      <trkpt lat="43.241" lon="-0.41726">
        <ele>268.139</ele>
        <time>2010-09-19T08:04:16Z</time>
      </trkpt>
      <trkpt lat="43.24105" lon="-0.41723">
        <ele>269.533</ele>
        <time>2010-09-19T08:04:24Z</time>
      </trkpt>
      <trkpt lat="43.24111" lon="-0.41718">
        <ele>271.221</ele>
        <time>2010-09-19T08:04:34Z</time>
      </trkpt>
      <trkpt lat="43.24113" lon="-0.41717">
        <ele>271.294</ele>
        <time>2010-09-19T08:04:36Z</time>
      </trkpt>
      <trkpt lat="43.24118" lon="-0.41709">
        <ele>272.93</ele>
        <time>2010-09-19T08:04:46Z</time>
      </trkpt>
      <trkpt lat="43.24123" lon="-0.41696">
        <ele>275.184</ele>
        <time>2010-09-19T08:04:59Z</time>
      </trkpt>
      <trkpt lat="43.24125" lon="-0.41686">
        <ele>276.79</ele>
        <time>2010-09-19T08:05:08Z</time>
      </trkpt>
      <trkpt lat="43.24127" lon="-0.41679">
        <ele>277.86</ele>
        <time>2010-09-19T08:05:15Z</time>
      </trkpt>
      <trkpt lat="43.24129" lon="-0.41669">
        <ele>279.652</ele>
        <time>2010-09-19T08:05:26Z</time>
      </trkpt>
      <trkpt lat="43.2413" lon="-0.41662">
        <ele>280.701</ele>
        <time>2010-09-19T08:05:34Z</time>
      </trkpt>
      <trkpt lat="43.24133" lon="-0.41653">
        <ele>282.102</ele>
        <time>2010-09-19T08:05:44Z</time>
      </trkpt>
      <trkpt lat="43.24136" lon="-0.41649">
        <ele>283.297</ele>
        <time>2010-09-19T08:05:51Z</time>
      </trkpt>
      <trkpt lat="43.24141" lon="-0.41641">
        <ele>284.959</ele>
        <time>2010-09-19T08:06:00Z</time>
      </trkpt>
      <trkpt lat="43.24145" lon="-0.41633">
        <ele>286.573</ele>
        <time>2010-09-19T08:06:08Z</time>
      </trkpt>
      <trkpt lat="43.24149" lon="-0.41624">
        <ele>287.779</ele>
        <time>2010-09-19T08:06:16Z</time>
      </trkpt>
      <trkpt lat="43.24153" lon="-0.41616">
        <ele>289.161</ele>
        <time>2010-09-19T08:06:24Z</time>
      </trkpt>
      <trkpt lat="43.2415" lon="-0.4161">
        <ele>290.003</ele>
        <time>2010-09-19T08:06:31Z</time>
      </trkpt>
      <trkpt lat="43.24151" lon="-0.41609">
        <ele>290.38</ele>
        <time>2010-09-19T08:06:41Z</time>
      </trkpt>
      <trkpt lat="43.2415" lon="-0.41609">
        <ele>290.269</ele>
        <time>2010-09-19T08:06:47Z</time>
      </trkpt>
      <trkpt lat="43.2415" lon="-0.4161">
        <ele>290.305</ele>
        <time>2010-09-19T08:07:09Z</time>
      </trkpt>
      <trkpt lat="43.2415" lon="-0.4161">
        <ele>290.563</ele>
        <time>2010-09-19T08:07:17Z</time>
      </trkpt>
      <trkpt lat="43.2415" lon="-0.41609">
        <ele>290.643</ele>
        <time>2010-09-19T08:07:25Z</time>
      </trkpt>
      <trkpt lat="43.24152" lon="-0.41607">
        <ele>290.683</ele>
        <time>2010-09-19T08:07:42Z</time>
      </trkpt>
      <trkpt lat="43.24153" lon="-0.41608">
        <ele>290.573</ele>
        <time>2010-09-19T08:08:01Z</time>
      </trkpt>
      <trkpt lat="43.2416" lon="-0.41605">
        <ele>291.048</ele>
        <time>2010-09-19T08:08:07Z</time>
      </trkpt>
      <trkpt lat="43.24161" lon="-0.41603">
        <ele>291.352</ele>
        <time>2010-09-19T08:08:08Z</time>
      </trkpt>
      <trkpt lat="43.24165" lon="-0.41592">
        <ele>293.187</ele>
        <time>2010-09-19T08:08:14Z</time>
      </trkpt>
      <trkpt lat="43.24169" lon="-0.41584">
        <ele>294.386</ele>
        <time>2010-09-19T08:08:19Z</time>
      </trkpt>
      <trkpt lat="43.24174" lon="-0.41574">
        <ele>295.991</ele>
        <time>2010-09-19T08:08:25Z</time>
      </trkpt>
      <trkpt lat="43.24178" lon="-0.41567">
        <ele>297.09</ele>
        <time>2010-09-19T08:08:30Z</time>
      </trkpt>
      <trkpt lat="43.24186" lon="-0.41554">
        <ele>299.602</ele>
        <time>2010-09-19T08:08:40Z</time>
      </trkpt>
      <trkpt lat="43.24194" lon="-0.41546">
        <ele>301.509</ele>
        <time>2010-09-19T08:08:47Z</time>
      </trkpt>
      <trkpt lat="43.24204" lon="-0.41541">
        <ele>302.523</ele>
        <time>2010-09-19T08:08:54Z</time>
      </trkpt>
      <trkpt lat="43.24219" lon="-0.41535">
        <ele>303.208</ele>
        <time>2010-09-19T08:09:02Z</time>
      </trkpt>
      <trkpt lat="43.24237" lon="-0.41532">
        <ele>304.482</ele>
        <time>2010-09-19T08:09:11Z</time>
      </trkpt>
      <trkpt lat="43.24248" lon="-0.41533">
        <ele>306.036</ele>
        <time>2010-09-19T08:09:17Z</time>
      </trkpt>
      <trkpt lat="43.24263" lon="-0.41537">
        <ele>308.758</ele>
        <time>2010-09-19T08:09:24Z</time>
      </trkpt>
      <trkpt lat="43.24277" lon="-0.41543">
        <ele>310.537</ele>
        <time>2010-09-19T08:09:30Z</time>
      </trkpt>
      <trkpt lat="43.2429" lon="-0.41536">
        <ele>311.546</ele>
        <time>2010-09-19T08:09:36Z</time>
      </trkpt>
      <trkpt lat="43.24294" lon="-0.41522">
        <ele>313.022</ele>
        <time>2010-09-19T08:09:42Z</time>
      </trkpt>
      <trkpt lat="43.24297" lon="-0.41506">
        <ele>314.484</ele>
        <time>2010-09-19T08:09:49Z</time>
      </trkpt>
      <trkpt lat="43.24298" lon="-0.41495">
        <ele>315.815</ele>
        <time>2010-09-19T08:09:55Z</time>
      </trkpt>
      <trkpt lat="43.24301" lon="-0.4148">
        <ele>317.552</ele>
        <time>2010-09-19T08:10:03Z</time>
      </trkpt>
      <trkpt lat="43.24303" lon="-0.41466">
        <ele>318.723</ele>
        <time>2010-09-19T08:10:10Z</time>
      </trkpt>
      <trkpt lat="43.24306" lon="-0.41449">
        <ele>320.425</ele>
        <time>2010-09-19T08:10:18Z</time>
      </trkpt>
      <trkpt lat="43.24309" lon="-0.41434">
        <ele>322.222</ele>
        <time>2010-09-19T08:10:26Z</time>
      </trkpt>
      <trkpt lat="43.2431" lon="-0.41421">
        <ele>323.63</ele>
        <time>2010-09-19T08:10:33Z</time>
      </trkpt>
      <trkpt lat="43.24313" lon="-0.41408">
        <ele>325.115</ele>
        <time>2010-09-19T08:10:40Z</time>
      </trkpt>
      <trkpt lat="43.24316" lon="-0.41393">
        <ele>327.135</ele>
        <time>2010-09-19T08:10:48Z</time>
      </trkpt>
      <trkpt lat="43.24319" lon="-0.41378">
        <ele>328.877</ele>
        <time>2010-09-19T08:10:56Z</time>
      </trkpt>
      <trkpt lat="43.2432" lon="-0.41367">
        <ele>330.359</ele>
        <time>2010-09-19T08:11:02Z</time>
      </trkpt>
      <trkpt lat="43.24324" lon="-0.41356">
        <ele>331.574</ele>
        <time>2010-09-19T08:11:08Z</time>
      </trkpt>
      <trkpt lat="43.24327" lon="-0.4134">
        <ele>333.528</ele>
        <time>2010-09-19T08:11:16Z</time>
      </trkpt>
      <trkpt lat="43.24328" lon="-0.41324">
        <ele>335.489</ele>
        <time>2010-09-19T08:11:24Z</time>
      </trkpt>
      <trkpt lat="43.2433" lon="-0.41305">
        <ele>337.501</ele>
        <time>2010-09-19T08:11:33Z</time>
      </trkpt>
      <trkpt lat="43.24334" lon="-0.41287">
        <ele>339.123</ele>
        <time>2010-09-19T08:11:41Z</time>
      </trkpt>
      <trkpt lat="43.24337" lon="-0.41271">
        <ele>340.718</ele>
        <time>2010-09-19T08:11:49Z</time>
      </trkpt>
      <trkpt lat="43.24338" lon="-0.41259">
        <ele>341.884</ele>
        <time>2010-09-19T08:11:55Z</time>
      </trkpt>
      <trkpt lat="43.24336" lon="-0.41245">
        <ele>343.273</ele>
        <time>2010-09-19T08:12:02Z</time>
      </trkpt>
      <trkpt lat="43.24336" lon="-0.41226">
        <ele>345.55</ele>
        <time>2010-09-19T08:12:12Z</time>
      </trkpt>
      <trkpt lat="43.24336" lon="-0.41207">
        <ele>346.919</ele>
        <time>2010-09-19T08:12:21Z</time>
      </trkpt>
      <trkpt lat="43.24333" lon="-0.41193">
        <ele>347.535</ele>
        <time>2010-09-19T08:12:28Z</time>
      </trkpt>
      <trkpt lat="43.24332" lon="-0.41182">
        <ele>347.716</ele>
        <time>2010-09-19T08:12:33Z</time>
      </trkpt>
      <trkpt lat="43.2432" lon="-0.41178">
        <ele>348.121</ele>
        <time>2010-09-19T08:12:40Z</time>
      </trkpt>
      <trkpt lat="43.24303" lon="-0.41181">
        <ele>348.365</ele>
        <time>2010-09-19T08:12:48Z</time>
      </trkpt>
      <trkpt lat="43.24284" lon="-0.41183">
        <ele>348.685</ele>
        <time>2010-09-19T08:12:56Z</time>
      </trkpt>
      <trkpt lat="43.24256" lon="-0.41182">
        <ele>349.902</ele>
        <time>2010-09-19T08:13:07Z</time>
      </trkpt>
      <trkpt lat="43.24235" lon="-0.41183">
        <ele>350.758</ele>
        <time>2010-09-19T08:13:15Z</time>
      </trkpt>
      <trkpt lat="43.24203" lon="-0.41181">
        <ele>352.576</ele>
        <time>2010-09-19T08:13:27Z</time>
      </trkpt>
      <trkpt lat="43.24182" lon="-0.41177">
        <ele>353.325</ele>
        <time>2010-09-19T08:13:35Z</time>
      </trkpt>
      <trkpt lat="43.24158" lon="-0.41167">
        <ele>352.828</ele>
        <time>2010-09-19T08:13:42Z</time>
      </trkpt>
      <trkpt lat="43.24132" lon="-0.41155">
        <ele>352.822</ele>
        <time>2010-09-19T08:13:49Z</time>
      </trkpt>
      <trkpt lat="43.24102" lon="-0.41144">
        <ele>353.105</ele>
        <time>2010-09-19T08:13:57Z</time>
      </trkpt>
      <trkpt lat="43.2407" lon="-0.41129">
        <ele>354.32</ele>
        <time>2010-09-19T08:14:07Z</time>
      </trkpt>
      <trkpt lat="43.24031" lon="-0.41111">
        <ele>355.203</ele>
        <time>2010-09-19T08:14:19Z</time>
      </trkpt>
      <trkpt lat="43.23998" lon="-0.41093">
        <ele>354.262</ele>
        <time>2010-09-19T08:14:27Z</time>
      </trkpt>
      <trkpt lat="43.23969" lon="-0.41079">
        <ele>354.028</ele>
        <time>2010-09-19T08:14:34Z</time>
      </trkpt>
      <trkpt lat="43.23934" lon="-0.41069">
        <ele>353.949</ele>
        <time>2010-09-19T08:14:42Z</time>
      </trkpt>
      <trkpt lat="43.23909" lon="-0.41065">
        <ele>354.46</ele>
        <time>2010-09-19T08:14:48Z</time>
      </trkpt>
      <trkpt lat="43.23877" lon="-0.41063">
        <ele>355.361</ele>
        <time>2010-09-19T08:14:57Z</time>
      </trkpt>
      <trkpt lat="43.2385" lon="-0.41065">
        <ele>356.311</ele>
        <time>2010-09-19T08:15:05Z</time>
      </trkpt>
      <trkpt lat="43.23844" lon="-0.41065">
        <ele>356.585</ele>
        <time>2010-09-19T08:15:07Z</time>
      </trkpt>
      <trkpt lat="43.23839" lon="-0.41055">
        <ele>357.191</ele>
        <time>2010-09-19T08:15:11Z</time>
      </trkpt>
      <trkpt lat="43.23837" lon="-0.4103">
        <ele>356.879</ele>
        <time>2010-09-19T08:15:16Z</time>
      </trkpt>
      <trkpt lat="43.23839" lon="-0.41009">
        <ele>356.651</ele>
        <time>2010-09-19T08:15:19Z</time>
      </trkpt>
      <trkpt lat="43.23854" lon="-0.40958">
        <ele>352.511</ele>
        <time>2010-09-19T08:15:24Z</time>
      </trkpt>
      <trkpt lat="43.23862" lon="-0.40932">
        <ele>348.715</ele>
        <time>2010-09-19T08:15:26Z</time>
      </trkpt>
      <trkpt lat="43.23876" lon="-0.40879">
        <ele>339.458</ele>
        <time>2010-09-19T08:15:30Z</time>
      </trkpt>
      <trkpt lat="43.23887" lon="-0.40845">
        <ele>333.818</ele>
        <time>2010-09-19T08:15:33Z</time>
      </trkpt>
      <trkpt lat="43.2389" lon="-0.40814">
        <ele>329.718</ele>
        <time>2010-09-19T08:15:36Z</time>
      </trkpt>
      <trkpt lat="43.23892" lon="-0.40784">
        <ele>326.013</ele>
        <time>2010-09-19T08:15:40Z</time>
      </trkpt>
      <trkpt lat="43.23887" lon="-0.40773">
        <ele>324.629</ele>
        <time>2010-09-19T08:15:42Z</time>
      </trkpt>
      <trkpt lat="43.2386" lon="-0.4072">
        <ele>315.168</ele>
        <time>2010-09-19T08:15:48Z</time>
      </trkpt>
      <trkpt lat="43.23837" lon="-0.40675">
        <ele>306.306</ele>
        <time>2010-09-19T08:15:52Z</time>
      </trkpt>
      <trkpt lat="43.23832" lon="-0.40664">
        <ele>305.143</ele>
        <time>2010-09-19T08:15:53Z</time>
      </trkpt>
      <trkpt lat="43.23812" lon="-0.40631">
        <ele>303.998</ele>
        <time>2010-09-19T08:15:57Z</time>
      </trkpt>
      <trkpt lat="43.238" lon="-0.40617">
        <ele>305.674</ele>
        <time>2010-09-19T08:16:02Z</time>
      </trkpt>
      <trkpt lat="43.2379" lon="-0.40605">
        <ele>307.555</ele>
        <time>2010-09-19T08:16:08Z</time>
      </trkpt>
      <trkpt lat="43.23787" lon="-0.406">
        <ele>308.477</ele>
        <time>2010-09-19T08:16:11Z</time>
      </trkpt>
      <trkpt lat="43.23778" lon="-0.40588">
        <ele>309.273</ele>
        <time>2010-09-19T08:16:17Z</time>
      </trkpt>
      <trkpt lat="43.2377" lon="-0.40577">
        <ele>310.074</ele>
        <time>2010-09-19T08:16:23Z</time>
      </trkpt>
      <trkpt lat="43.23759" lon="-0.40566">
        <ele>310.9</ele>
        <time>2010-09-19T08:16:30Z</time>
      </trkpt>
      <trkpt lat="43.23751" lon="-0.40561">
        <ele>311.947</ele>
        <time>2010-09-19T08:16:36Z</time>
      </trkpt>
      <trkpt lat="43.23739" lon="-0.40554">
        <ele>313.683</ele>
        <time>2010-09-19T08:16:44Z</time>
      </trkpt>
      <trkpt lat="43.23729" lon="-0.40541">
        <ele>315.296</ele>
        <time>2010-09-19T08:16:53Z</time>
      </trkpt>
      <trkpt lat="43.23719" lon="-0.40529">
        <ele>317.437</ele>
        <time>2010-09-19T08:17:03Z</time>
      </trkpt>
      <trkpt lat="43.23711" lon="-0.40517">
        <ele>319.111</ele>
        <time>2010-09-19T08:17:13Z</time>
      </trkpt>
      <trkpt lat="43.23704" lon="-0.40509">
        <ele>320.443</ele>
        <time>2010-09-19T08:17:21Z</time>
      </trkpt>
      <trkpt lat="43.23699" lon="-0.405">
        <ele>321.695</ele>
        <time>2010-09-19T08:17:29Z</time>
      </trkpt>
      <trkpt lat="43.23692" lon="-0.40489">
        <ele>323.018</ele>
        <time>2010-09-19T08:17:38Z</time>
      </trkpt>
      <trkpt lat="43.23685" lon="-0.40478">
        <ele>324.493</ele>
        <time>2010-09-19T08:17:48Z</time>
      </trkpt>
      <trkpt lat="43.23678" lon="-0.40465">
        <ele>326.232</ele>
        <time>2010-09-19T08:17:59Z</time>
      </trkpt>
      <trkpt lat="43.23675" lon="-0.40456">
        <ele>327.394</ele>
        <time>2010-09-19T08:18:06Z</time>
      </trkpt>
      <trkpt lat="43.23672" lon="-0.40448">
        <ele>328.344</ele>
        <time>2010-09-19T08:18:13Z</time>
      </trkpt>
      <trkpt lat="43.23667" lon="-0.40439">
        <ele>329.292</ele>
        <time>2010-09-19T08:18:21Z</time>
      </trkpt>
      <trkpt lat="43.2366" lon="-0.40428">
        <ele>330.925</ele>
        <time>2010-09-19T08:18:31Z</time>
      </trkpt>
      <trkpt lat="43.23653" lon="-0.40416">
        <ele>332.573</ele>
        <time>2010-09-19T08:18:40Z</time>
      </trkpt>
      <trkpt lat="43.23645" lon="-0.40405">
        <ele>334.865</ele>
        <time>2010-09-19T08:18:50Z</time>
      </trkpt>
      <trkpt lat="43.23637" lon="-0.40394">
        <ele>336.572</ele>
        <time>2010-09-19T08:19:00Z</time>
      </trkpt>
      <trkpt lat="43.23629" lon="-0.40385">
        <ele>338.025</ele>
        <time>2010-09-19T08:19:10Z</time>
      </trkpt>
      <trkpt lat="43.23624" lon="-0.40377">
        <ele>339.075</ele>
        <time>2010-09-19T08:19:17Z</time>
      </trkpt>
      <trkpt lat="43.23617" lon="-0.40367">
        <ele>340.585</ele>
        <time>2010-09-19T08:19:26Z</time>
      </trkpt>
      <trkpt lat="43.23616" lon="-0.40365">
        <ele>340.649</ele>
        <time>2010-09-19T08:19:28Z</time>
      </trkpt>
      <trkpt lat="43.23612" lon="-0.40359">
        <ele>341.349</ele>
        <time>2010-09-19T08:19:33Z</time>
      </trkpt>
      <trkpt lat="43.23601" lon="-0.40346">
        <ele>342.127</ele>
        <time>2010-09-19T08:19:44Z</time>
      </trkpt>
      <trkpt lat="43.23601" lon="-0.4034">
        <ele>342.389</ele>
        <time>2010-09-19T08:19:47Z</time>
      </trkpt>
      <trkpt lat="43.23611" lon="-0.40322">
        <ele>342.801</ele>
        <time>2010-09-19T08:19:54Z</time>
      </trkpt>
      <trkpt lat="43.23627" lon="-0.40292">
        <ele>343.338</ele>
        <time>2010-09-19T08:20:02Z</time>
      </trkpt>
      <trkpt lat="43.23637" lon="-0.40278">
        <ele>343.727</ele>
        <time>2010-09-19T08:20:06Z</time>
      </trkpt>
      <trkpt lat="43.23651" lon="-0.40263">
        <ele>343.899</ele>
        <time>2010-09-19T08:20:11Z</time>
      </trkpt>
      <trkpt lat="43.2368" lon="-0.40229">
        <ele>344.524</ele>
        <time>2010-09-19T08:20:21Z</time>
      </trkpt>
      <trkpt lat="43.23707" lon="-0.40196">
        <ele>344.826</ele>
        <time>2010-09-19T08:20:30Z</time>
      </trkpt>
      <trkpt lat="43.23732" lon="-0.40168">
        <ele>345.568</ele>
        <time>2010-09-19T08:20:38Z</time>
      </trkpt>
      <trkpt lat="43.23735" lon="-0.40167">
        <ele>345.679</ele>
        <time>2010-09-19T08:20:39Z</time>
      </trkpt>
      <trkpt lat="43.23749" lon="-0.40179">
        <ele>346.642</ele>
        <time>2010-09-19T08:20:44Z</time>
      </trkpt>
      <trkpt lat="43.23772" lon="-0.40221">
        <ele>347.578</ele>
        <time>2010-09-19T08:20:55Z</time>
      </trkpt>
      <trkpt lat="43.23791" lon="-0.40255">
        <ele>347.27</ele>
        <time>2010-09-19T08:21:02Z</time>
      </trkpt>
      <trkpt lat="43.23801" lon="-0.4027">
        <ele>347.05</ele>
        <time>2010-09-19T08:21:05Z</time>
      </trkpt>
      <trkpt lat="43.23807" lon="-0.40279">
        <ele>346.756</ele>
        <time>2010-09-19T08:21:07Z</time>
      </trkpt>
      <trkpt lat="43.23838" lon="-0.403">
        <ele>346.139</ele>
        <time>2010-09-19T08:21:14Z</time>
      </trkpt>
      <trkpt lat="43.23874" lon="-0.40319">
        <ele>344.02</ele>
        <time>2010-09-19T08:21:20Z</time>
      </trkpt>
      <trkpt lat="43.23914" lon="-0.40338">
        <ele>340.511</ele>
        <time>2010-09-19T08:21:25Z</time>
      </trkpt>
      <trkpt lat="43.23964" lon="-0.40357">
        <ele>336.299</ele>
        <time>2010-09-19T08:21:30Z</time>
      </trkpt>
      <trkpt lat="43.23995" lon="-0.40363">
        <ele>334.767</ele>
        <time>2010-09-19T08:21:33Z</time>
      </trkpt>
      <trkpt lat="43.2404" lon="-0.40361">
        <ele>333.893</ele>
        <time>2010-09-19T08:21:38Z</time>
      </trkpt>
      <trkpt lat="43.24102" lon="-0.40357">
        <ele>333.634</ele>
        <time>2010-09-19T08:21:46Z</time>
      </trkpt>
      <trkpt lat="43.24143" lon="-0.40354">
        <ele>333.641</ele>
        <time>2010-09-19T08:21:52Z</time>
      </trkpt>
      <trkpt lat="43.24184" lon="-0.40349">
        <ele>334.311</ele>
        <time>2010-09-19T08:21:59Z</time>
      </trkpt>
      <trkpt lat="43.24219" lon="-0.40346">
        <ele>335.148</ele>
        <time>2010-09-19T08:22:06Z</time>
      </trkpt>
      <trkpt lat="43.24261" lon="-0.40342">
        <ele>334.869</ele>
        <time>2010-09-19T08:22:14Z</time>
      </trkpt>
      <trkpt lat="43.24309" lon="-0.40334">
        <ele>334.881</ele>
        <time>2010-09-19T08:22:23Z</time>
      </trkpt>
      <trkpt lat="43.24336" lon="-0.40322">
        <ele>335.537</ele>
        <time>2010-09-19T08:22:29Z</time>
      </trkpt>
      <trkpt lat="43.24353" lon="-0.40322">
        <ele>336.004</ele>
        <time>2010-09-19T08:22:33Z</time>
      </trkpt>
      <trkpt lat="43.24394" lon="-0.40329">
        <ele>335.34</ele>
        <time>2010-09-19T08:22:41Z</time>
      </trkpt>
      <trkpt lat="43.244" lon="-0.4033">
        <ele>334.973</ele>
        <time>2010-09-19T08:22:42Z</time>
      </trkpt>
      <trkpt lat="43.24453" lon="-0.4033">
        <ele>332.254</ele>
        <time>2010-09-19T08:22:49Z</time>
      </trkpt>
      <trkpt lat="43.24507" lon="-0.40331">
        <ele>326.555</ele>
        <time>2010-09-19T08:22:55Z</time>
      </trkpt>
      <trkpt lat="43.24556" lon="-0.40328">
        <ele>321.043</ele>
        <time>2010-09-19T08:23:00Z</time>
      </trkpt>
      <trkpt lat="43.24585" lon="-0.40322">
        <ele>316.259</ele>
        <time>2010-09-19T08:23:03Z</time>
      </trkpt>
      <trkpt lat="43.24624" lon="-0.40321">
        <ele>309.062</ele>
        <time>2010-09-19T08:23:08Z</time>
      </trkpt>
      <trkpt lat="43.24641" lon="-0.40331">
        <ele>305.091</ele>
        <time>2010-09-19T08:23:12Z</time>
      </trkpt>
      <trkpt lat="43.24644" lon="-0.40333">
        <ele>304.849</ele>
        <time>2010-09-19T08:23:13Z</time>
      </trkpt>
      <trkpt lat="43.24656" lon="-0.40324">
        <ele>304.18</ele>
        <time>2010-09-19T08:23:17Z</time>
      </trkpt>
      <trkpt lat="43.2466" lon="-0.40319">
        <ele>303.773</ele>
        <time>2010-09-19T08:23:18Z</time>
      </trkpt>
      <trkpt lat="43.24671" lon="-0.40307">
        <ele>301.861</ele>
        <time>2010-09-19T08:23:21Z</time>
      </trkpt>
      <trkpt lat="43.24692" lon="-0.40303">
        <ele>297.931</ele>
        <time>2010-09-19T08:23:25Z</time>
      </trkpt>
      <trkpt lat="43.24709" lon="-0.40306">
        <ele>294.642</ele>
        <time>2010-09-19T08:23:28Z</time>
      </trkpt>
      <trkpt lat="43.24724" lon="-0.40325">
        <ele>290.614</ele>
        <time>2010-09-19T08:23:32Z</time>
      </trkpt>
      <trkpt lat="43.24723" lon="-0.40332">
        <ele>290.169</ele>
        <time>2010-09-19T08:23:33Z</time>
      </trkpt>
      <trkpt lat="43.24716" lon="-0.40361">
        <ele>289.031</ele>
        <time>2010-09-19T08:23:37Z</time>
      </trkpt>
      <trkpt lat="43.24704" lon="-0.40387">
        <ele>287.957</ele>
        <time>2010-09-19T08:23:41Z</time>
      </trkpt>
      <trkpt lat="43.2468" lon="-0.40419">
        <ele>286.579</ele>
        <time>2010-09-19T08:23:47Z</time>
      </trkpt>
      <trkpt lat="43.24664" lon="-0.40435">
        <ele>285.918</ele>
        <time>2010-09-19T08:23:50Z</time>
      </trkpt>
      <trkpt lat="43.24627" lon="-0.40467">
        <ele>283.984</ele>
        <time>2010-09-19T08:23:57Z</time>
      </trkpt>
      <trkpt lat="43.24604" lon="-0.40493">
        <ele>281.504</ele>
        <time>2010-09-19T08:24:01Z</time>
      </trkpt>
      <trkpt lat="43.24579" lon="-0.40529">
        <ele>278.667</ele>
        <time>2010-09-19T08:24:06Z</time>
      </trkpt>
      <trkpt lat="43.24573" lon="-0.40535">
        <ele>278.203</ele>
        <time>2010-09-19T08:24:07Z</time>
      </trkpt>
      <trkpt lat="43.24558" lon="-0.40559">
        <ele>276.751</ele>
        <time>2010-09-19T08:24:12Z</time>
      </trkpt>
      <trkpt lat="43.24548" lon="-0.40568">
        <ele>277.227</ele>
        <time>2010-09-19T08:24:16Z</time>
      </trkpt>
      <trkpt lat="43.24538" lon="-0.40578">
        <ele>276.652</ele>
        <time>2010-09-19T08:24:20Z</time>
      </trkpt>
      <trkpt lat="43.24534" lon="-0.40584">
        <ele>276.519</ele>
        <time>2010-09-19T08:24:22Z</time>
      </trkpt>
      <trkpt lat="43.24528" lon="-0.4059">
        <ele>276.502</ele>
        <time>2010-09-19T08:24:27Z</time>
      </trkpt>
      <trkpt lat="43.24522" lon="-0.40596">
        <ele>276.671</ele>
        <time>2010-09-19T08:24:33Z</time>
      </trkpt>
      <trkpt lat="43.24519" lon="-0.40596">
        <ele>276.643</ele>
        <time>2010-09-19T08:24:40Z</time>
      </trkpt>
      <trkpt lat="43.24517" lon="-0.40596">
        <ele>276.432</ele>
        <time>2010-09-19T08:24:51Z</time>
      </trkpt>
      <trkpt lat="43.24517" lon="-0.40602">
        <ele>276.813</ele>
        <time>2010-09-19T08:24:56Z</time>
      </trkpt>
      <trkpt lat="43.24519" lon="-0.40602">
        <ele>276.821</ele>
        <time>2010-09-19T08:24:57Z</time>
      </trkpt>
      <trkpt lat="43.24532" lon="-0.40596">
        <ele>276.915</ele>
        <time>2010-09-19T08:25:04Z</time>
      </trkpt>
      <trkpt lat="43.24547" lon="-0.40587">
        <ele>276.738</ele>
        <time>2010-09-19T08:25:10Z</time>
      </trkpt>
      <trkpt lat="43.24566" lon="-0.40571">
        <ele>275.783</ele>
        <time>2010-09-19T08:25:17Z</time>
      </trkpt>
      <trkpt lat="43.2458" lon="-0.40561">
        <ele>275.393</ele>
        <time>2010-09-19T08:25:22Z</time>
      </trkpt>
      <trkpt lat="43.24599" lon="-0.40544">
        <ele>274.672</ele>
        <time>2010-09-19T08:25:29Z</time>
      </trkpt>
      <trkpt lat="43.24621" lon="-0.40528">
        <ele>273.967</ele>
        <time>2010-09-19T08:25:36Z</time>
      </trkpt>
      <trkpt lat="43.24642" lon="-0.40515">
        <ele>273.326</ele>
        <time>2010-09-19T08:25:43Z</time>
      </trkpt>
      <trkpt lat="43.24646" lon="-0.40511">
        <ele>272.968</ele>
        <time>2010-09-19T08:25:49Z</time>
      </trkpt>
      <trkpt lat="43.24648" lon="-0.40508">
        <ele>272.941</ele>
        <time>2010-09-19T08:25:55Z</time>
      </trkpt>
      <trkpt lat="43.24652" lon="-0.40505">
        <ele>272.813</ele>
        <time>2010-09-19T08:26:00Z</time>
      </trkpt>
      <trkpt lat="43.24658" lon="-0.40497">
        <ele>272.537</ele>
        <time>2010-09-19T08:26:04Z</time>
      </trkpt>
      <trkpt lat="43.24673" lon="-0.40485">
        <ele>272.261</ele>
        <time>2010-09-19T08:26:10Z</time>
      </trkpt>
      <trkpt lat="43.2469" lon="-0.40468">
        <ele>271.787</ele>
        <time>2010-09-19T08:26:16Z</time>
      </trkpt>
      <trkpt lat="43.2471" lon="-0.40442">
        <ele>270.752</ele>
        <time>2010-09-19T08:26:23Z</time>
      </trkpt>
      <trkpt lat="43.24727" lon="-0.40418">
        <ele>270.078</ele>
        <time>2010-09-19T08:26:28Z</time>
      </trkpt>
      <trkpt lat="43.24741" lon="-0.40394">
        <ele>269.423</ele>
        <time>2010-09-19T08:26:33Z</time>
      </trkpt>
      <trkpt lat="43.2477" lon="-0.40366">
        <ele>268.068</ele>
        <time>2010-09-19T08:26:40Z</time>
      </trkpt>
      <trkpt lat="43.24792" lon="-0.40349">
        <ele>268.373</ele>
        <time>2010-09-19T08:26:46Z</time>
      </trkpt>
      <trkpt lat="43.24814" lon="-0.4034">
        <ele>269.01</ele>
        <time>2010-09-19T08:26:53Z</time>
      </trkpt>
      <trkpt lat="43.24828" lon="-0.4034">
        <ele>269.479</ele>
        <time>2010-09-19T08:26:58Z</time>
      </trkpt>
      <trkpt lat="43.24834" lon="-0.40353">
        <ele>269.901</ele>
        <time>2010-09-19T08:27:02Z</time>
      </trkpt>
      <trkpt lat="43.24835" lon="-0.40373">
        <ele>270.875</ele>
        <time>2010-09-19T08:27:09Z</time>
      </trkpt>
      <trkpt lat="43.24833" lon="-0.4039">
        <ele>271.813</ele>
        <time>2010-09-19T08:27:16Z</time>
      </trkpt>
      <trkpt lat="43.24836" lon="-0.40402">
        <ele>272.262</ele>
        <time>2010-09-19T08:27:22Z</time>
      </trkpt>
      <trkpt lat="43.24846" lon="-0.40413">
        <ele>273.751</ele>
        <time>2010-09-19T08:27:31Z</time>
      </trkpt>
      <trkpt lat="43.24857" lon="-0.40425">
        <ele>275.94</ele>
        <time>2010-09-19T08:27:40Z</time>
      </trkpt>
      <trkpt lat="43.24864" lon="-0.40432">
        <ele>278.107</ele>
        <time>2010-09-19T08:27:46Z</time>
      </trkpt>
      <trkpt lat="43.24871" lon="-0.40441">
        <ele>280.951</ele>
        <time>2010-09-19T08:27:53Z</time>
      </trkpt>
      <trkpt lat="43.2488" lon="-0.40448">
        <ele>283.575</ele>
        <time>2010-09-19T08:28:00Z</time>
      </trkpt>
      <trkpt lat="43.24888" lon="-0.40454">
        <ele>285.959</ele>
        <time>2010-09-19T08:28:07Z</time>
      </trkpt>
      <trkpt lat="43.24892" lon="-0.40459">
        <ele>287.395</ele>
        <time>2010-09-19T08:28:13Z</time>
      </trkpt>
      <trkpt lat="43.24902" lon="-0.40452">
        <ele>288.496</ele>
        <time>2010-09-19T08:28:22Z</time>
      </trkpt>
      <trkpt lat="43.24909" lon="-0.40449">
        <ele>288.691</ele>
        <time>2010-09-19T08:28:27Z</time>
      </trkpt>
      <trkpt lat="43.24918" lon="-0.40456">
        <ele>290.099</ele>
        <time>2010-09-19T08:28:35Z</time>
      </trkpt>
      <trkpt lat="43.24922" lon="-0.40467">
        <ele>291.577</ele>
        <time>2010-09-19T08:28:42Z</time>
      </trkpt>
      <trkpt lat="43.24922" lon="-0.40478">
        <ele>292.897</ele>
        <time>2010-09-19T08:28:49Z</time>
      </trkpt>
      <trkpt lat="43.24922" lon="-0.40496">
        <ele>295.348</ele>
        <time>2010-09-19T08:29:01Z</time>
      </trkpt>
      <trkpt lat="43.24922" lon="-0.40507">
        <ele>296.554</ele>
        <time>2010-09-19T08:29:08Z</time>
      </trkpt>
      <trkpt lat="43.24921" lon="-0.40516">
        <ele>297.485</ele>
        <time>2010-09-19T08:29:14Z</time>
      </trkpt>
      <trkpt lat="43.24921" lon="-0.40531">
        <ele>299.447</ele>
        <time>2010-09-19T08:29:24Z</time>
      </trkpt>
      <trkpt lat="43.24921" lon="-0.40543">
        <ele>300.82</ele>
        <time>2010-09-19T08:29:32Z</time>
      </trkpt>
      <trkpt lat="43.24922" lon="-0.40555">
        <ele>302.2</ele>
        <time>2010-09-19T08:29:40Z</time>
      </trkpt>
      <trkpt lat="43.2493" lon="-0.40559">
        <ele>303.787</ele>
        <time>2010-09-19T08:29:48Z</time>
      </trkpt>
      <trkpt lat="43.2494" lon="-0.40565">
        <ele>306.004</ele>
        <time>2010-09-19T08:29:58Z</time>
      </trkpt>
      <trkpt lat="43.24943" lon="-0.40576">
        <ele>307.243</ele>
        <time>2010-09-19T08:30:05Z</time>
      </trkpt>
      <trkpt lat="43.24947" lon="-0.40581">
        <ele>308.248</ele>
        <time>2010-09-19T08:30:10Z</time>
      </trkpt>
      <trkpt lat="43.24951" lon="-0.40594">
        <ele>310.41</ele>
        <time>2010-09-19T08:30:20Z</time>
      </trkpt>
      <trkpt lat="43.24955" lon="-0.40608">
        <ele>311.777</ele>
        <time>2010-09-19T08:30:30Z</time>
      </trkpt>
      <trkpt lat="43.24957" lon="-0.40613">
        <ele>312.539</ele>
        <time>2010-09-19T08:30:34Z</time>
      </trkpt>
      <trkpt lat="43.24967" lon="-0.40622">
        <ele>313.654</ele>
        <time>2010-09-19T08:30:44Z</time>
      </trkpt>
      <trkpt lat="43.24976" lon="-0.40631">
        <ele>314.27</ele>
        <time>2010-09-19T08:30:50Z</time>
      </trkpt>
      <trkpt lat="43.24984" lon="-0.40649">
        <ele>316.148</ele>
        <time>2010-09-19T08:31:00Z</time>
      </trkpt>
      <trkpt lat="43.24993" lon="-0.40668">
        <ele>317.383</ele>
        <time>2010-09-19T08:31:10Z</time>
      </trkpt>
      <trkpt lat="43.25002" lon="-0.40687">
        <ele>319.081</ele>
        <time>2010-09-19T08:31:21Z</time>
      </trkpt>
      <trkpt lat="43.25009" lon="-0.40707">
        <ele>320.181</ele>
        <time>2010-09-19T08:31:30Z</time>
      </trkpt>
      <trkpt lat="43.25014" lon="-0.40726">
        <ele>322.195</ele>
        <time>2010-09-19T08:31:39Z</time>
      </trkpt>
      <trkpt lat="43.25015" lon="-0.40729">
        <ele>322.83</ele>
        <time>2010-09-19T08:31:41Z</time>
      </trkpt>
      <trkpt lat="43.25024" lon="-0.4073">
        <ele>323.68</ele>
        <time>2010-09-19T08:31:47Z</time>
      </trkpt>
      <trkpt lat="43.25042" lon="-0.40733">
        <ele>323.117</ele>
        <time>2010-09-19T08:31:52Z</time>
      </trkpt>
      <trkpt lat="43.25073" lon="-0.40741">
        <ele>321.828</ele>
        <time>2010-09-19T08:31:58Z</time>
      </trkpt>
      <trkpt lat="43.25119" lon="-0.40754">
        <ele>318.852</ele>
        <time>2010-09-19T08:32:05Z</time>
      </trkpt>
      <trkpt lat="43.25171" lon="-0.40768">
        <ele>315.156</ele>
        <time>2010-09-19T08:32:11Z</time>
      </trkpt>
      <trkpt lat="43.25222" lon="-0.40783">
        <ele>312.646</ele>
        <time>2010-09-19T08:32:17Z</time>
      </trkpt>
      <trkpt lat="43.25248" lon="-0.40804">
        <ele>311.395</ele>
        <time>2010-09-19T08:32:21Z</time>
      </trkpt>
      <trkpt lat="43.25256" lon="-0.40822">
        <ele>310.521</ele>
        <time>2010-09-19T08:32:23Z</time>
      </trkpt>
      <trkpt lat="43.25275" lon="-0.4085">
        <ele>309.074</ele>
        <time>2010-09-19T08:32:28Z</time>
      </trkpt>
      <trkpt lat="43.253" lon="-0.40864">
        <ele>307.729</ele>
        <time>2010-09-19T08:32:32Z</time>
      </trkpt>
      <trkpt lat="43.25354" lon="-0.40892">
        <ele>304.838</ele>
        <time>2010-09-19T08:32:39Z</time>
      </trkpt>
      <trkpt lat="43.25393" lon="-0.40912">
        <ele>306.184</ele>
        <time>2010-09-19T08:32:45Z</time>
      </trkpt>
      <trkpt lat="43.25437" lon="-0.40936">
        <ele>305.679</ele>
        <time>2010-09-19T08:32:52Z</time>
      </trkpt>
      <trkpt lat="43.2545" lon="-0.40943">
        <ele>305.18</ele>
        <time>2010-09-19T08:32:54Z</time>
      </trkpt>
      <trkpt lat="43.25458" lon="-0.40958">
        <ele>303.566</ele>
        <time>2010-09-19T08:32:57Z</time>
      </trkpt>
      <trkpt lat="43.25457" lon="-0.40965">
        <ele>303.296</ele>
        <time>2010-09-19T08:32:58Z</time>
      </trkpt>
      <trkpt lat="43.25457" lon="-0.40987">
        <ele>301.425</ele>
        <time>2010-09-19T08:33:01Z</time>
      </trkpt>
      <trkpt lat="43.25465" lon="-0.40999">
        <ele>299.975</ele>
        <time>2010-09-19T08:33:03Z</time>
      </trkpt>
      <trkpt lat="43.25499" lon="-0.41041">
        <ele>295.983</ele>
        <time>2010-09-19T08:33:09Z</time>
      </trkpt>
      <trkpt lat="43.25541" lon="-0.41095">
        <ele>290.793</ele>
        <time>2010-09-19T08:33:15Z</time>
      </trkpt>
      <trkpt lat="43.25579" lon="-0.41144">
        <ele>284.405</ele>
        <time>2010-09-19T08:33:20Z</time>
      </trkpt>
      <trkpt lat="43.25602" lon="-0.41175">
        <ele>279.53</ele>
        <time>2010-09-19T08:33:24Z</time>
      </trkpt>
      <trkpt lat="43.25623" lon="-0.412">
        <ele>274.275</ele>
        <time>2010-09-19T08:33:29Z</time>
      </trkpt>
      <trkpt lat="43.25627" lon="-0.41202">
        <ele>272.285</ele>
        <time>2010-09-19T08:33:32Z</time>
      </trkpt>
      <trkpt lat="43.25627" lon="-0.41203">
        <ele>272.292</ele>
        <time>2010-09-19T08:33:47Z</time>
      </trkpt>
      <trkpt lat="43.2563" lon="-0.41203">
        <ele>272.337</ele>
        <time>2010-09-19T08:33:52Z</time>
      </trkpt>
      <trkpt lat="43.25635" lon="-0.41201">
        <ele>272.973</ele>
        <time>2010-09-19T08:34:01Z</time>
      </trkpt>
      <trkpt lat="43.25642" lon="-0.41197">
        <ele>274.4</ele>
        <time>2010-09-19T08:34:05Z</time>
      </trkpt>
      <trkpt lat="43.2565" lon="-0.41192">
        <ele>275.205</ele>
        <time>2010-09-19T08:34:10Z</time>
      </trkpt>
      <trkpt lat="43.25651" lon="-0.41191">
        <ele>275.379</ele>
        <time>2010-09-19T08:34:12Z</time>
      </trkpt>
      <trkpt lat="43.2566" lon="-0.41194">
        <ele>274.249</ele>
        <time>2010-09-19T08:34:17Z</time>
      </trkpt>
      <trkpt lat="43.25668" lon="-0.41187">
        <ele>273.443</ele>
        <time>2010-09-19T08:34:21Z</time>
      </trkpt>
      <trkpt lat="43.25677" lon="-0.41182">
        <ele>272.689</ele>
        <time>2010-09-19T08:34:25Z</time>
      </trkpt>
      <trkpt lat="43.25683" lon="-0.41176">
        <ele>270.722</ele>
        <time>2010-09-19T08:34:29Z</time>
      </trkpt>
      <trkpt lat="43.25692" lon="-0.41169">
        <ele>268.836</ele>
        <time>2010-09-19T08:34:32Z</time>
      </trkpt>
      <trkpt lat="43.25706" lon="-0.41175">
        <ele>263.785</ele>
        <time>2010-09-19T08:34:37Z</time>
      </trkpt>
      <trkpt lat="43.25712" lon="-0.41181">
        <ele>261.118</ele>
        <time>2010-09-19T08:34:39Z</time>
      </trkpt>
      <trkpt lat="43.25736" lon="-0.4118">
        <ele>254.786</ele>
        <time>2010-09-19T08:34:44Z</time>
      </trkpt>
      <trkpt lat="43.2575" lon="-0.41181">
        <ele>250.799</ele>
        <time>2010-09-19T08:34:47Z</time>
      </trkpt>
      <trkpt lat="43.25776" lon="-0.41179">
        <ele>243.687</ele>
        <time>2010-09-19T08:34:52Z</time>
      </trkpt>
      <trkpt lat="43.25788" lon="-0.41173">
        <ele>239.056</ele>
        <time>2010-09-19T08:34:57Z</time>
      </trkpt>
      <trkpt lat="43.25794" lon="-0.4117">
        <ele>237.297</ele>
        <time>2010-09-19T08:35:00Z</time>
      </trkpt>
      <trkpt lat="43.25798" lon="-0.41168">
        <ele>236.63</ele>
        <time>2010-09-19T08:35:02Z</time>
      </trkpt>
      <trkpt lat="43.25804" lon="-0.4116">
        <ele>235.392</ele>
        <time>2010-09-19T08:35:05Z</time>
      </trkpt>
      <trkpt lat="43.25813" lon="-0.41159">
        <ele>233.25</ele>
        <time>2010-09-19T08:35:08Z</time>
      </trkpt>
      <trkpt lat="43.25826" lon="-0.41154">
        <ele>231.892</ele>
        <time>2010-09-19T08:35:13Z</time>
      </trkpt>
      <trkpt lat="43.25827" lon="-0.41149">
        <ele>231.794</ele>
        <time>2010-09-19T08:35:14Z</time>
      </trkpt>
      <trkpt lat="43.25828" lon="-0.41105">
        <ele>231.492</ele>
        <time>2010-09-19T08:35:22Z</time>
      </trkpt>
      <trkpt lat="43.25828" lon="-0.41087">
        <ele>231.318</ele>
        <time>2010-09-19T08:35:25Z</time>
      </trkpt>
      <trkpt lat="43.25827" lon="-0.41076">
        <ele>231.214</ele>
        <time>2010-09-19T08:35:27Z</time>
      </trkpt>
      <trkpt lat="43.25821" lon="-0.41054">
        <ele>231.368</ele>
        <time>2010-09-19T08:35:31Z</time>
      </trkpt>
      <trkpt lat="43.25813" lon="-0.41039">
        <ele>231.041</ele>
        <time>2010-09-19T08:35:34Z</time>
      </trkpt>
      <trkpt lat="43.25804" lon="-0.41012">
        <ele>231.937</ele>
        <time>2010-09-19T08:35:40Z</time>
      </trkpt>
      <trkpt lat="43.25796" lon="-0.40984">
        <ele>233.193</ele>
        <time>2010-09-19T08:35:47Z</time>
      </trkpt>
      <trkpt lat="43.25793" lon="-0.40958">
        <ele>235.574</ele>
        <time>2010-09-19T08:35:55Z</time>
      </trkpt>
      <trkpt lat="43.25793" lon="-0.40949">
        <ele>236.406</ele>
        <time>2010-09-19T08:35:58Z</time>
      </trkpt>
      <trkpt lat="43.25789" lon="-0.40937">
        <ele>238.059</ele>
        <time>2010-09-19T08:36:03Z</time>
      </trkpt>
      <trkpt lat="43.25785" lon="-0.40919">
        <ele>240.864</ele>
        <time>2010-09-19T08:36:11Z</time>
      </trkpt>
      <trkpt lat="43.25782" lon="-0.40907">
        <ele>242.479</ele>
        <time>2010-09-19T08:36:16Z</time>
      </trkpt>
      <trkpt lat="43.25777" lon="-0.40889">
        <ele>244.98</ele>
        <time>2010-09-19T08:36:24Z</time>
      </trkpt>
      <trkpt lat="43.25773" lon="-0.40868">
        <ele>247.169</ele>
        <time>2010-09-19T08:36:34Z</time>
      </trkpt>
      <trkpt lat="43.25771" lon="-0.40851">
        <ele>249.169</ele>
        <time>2010-09-19T08:36:43Z</time>
      </trkpt>
      <trkpt lat="43.25766" lon="-0.40836">
        <ele>250.758</ele>
        <time>2010-09-19T08:36:51Z</time>
      </trkpt>
      <trkpt lat="43.25767" lon="-0.40825">
        <ele>252.114</ele>
        <time>2010-09-19T08:36:57Z</time>
      </trkpt>
      <trkpt lat="43.2577" lon="-0.4082">
        <ele>253.002</ele>
        <time>2010-09-19T08:37:01Z</time>
      </trkpt>
      <trkpt lat="43.25777" lon="-0.40819">
        <ele>254.445</ele>
        <time>2010-09-19T08:37:06Z</time>
      </trkpt>
      <trkpt lat="43.25787" lon="-0.4082">
        <ele>256.122</ele>
        <time>2010-09-19T08:37:13Z</time>
      </trkpt>
      <trkpt lat="43.25798" lon="-0.40823">
        <ele>258.002</ele>
        <time>2010-09-19T08:37:21Z</time>
      </trkpt>
      <trkpt lat="43.25807" lon="-0.40822">
        <ele>259.437</ele>
        <time>2010-09-19T08:37:28Z</time>
      </trkpt>
      <trkpt lat="43.25814" lon="-0.4081">
        <ele>261.525</ele>
        <time>2010-09-19T08:37:37Z</time>
      </trkpt>
      <trkpt lat="43.25815" lon="-0.40796">
        <ele>263.436</ele>
        <time>2010-09-19T08:37:45Z</time>
      </trkpt>
      <trkpt lat="43.25814" lon="-0.40781">
        <ele>264.867</ele>
        <time>2010-09-19T08:37:53Z</time>
      </trkpt>
      <trkpt lat="43.25814" lon="-0.40767">
        <ele>265.931</ele>
        <time>2010-09-19T08:38:01Z</time>
      </trkpt>
      <trkpt lat="43.25818" lon="-0.40752">
        <ele>267.365</ele>
        <time>2010-09-19T08:38:10Z</time>
      </trkpt>
      <trkpt lat="43.25828" lon="-0.40737">
        <ele>268.687</ele>
        <time>2010-09-19T08:38:20Z</time>
      </trkpt>
      <trkpt lat="43.25839" lon="-0.4072">
        <ele>270.217</ele>
        <time>2010-09-19T08:38:32Z</time>
      </trkpt>
      <trkpt lat="43.2585" lon="-0.40703">
        <ele>271.828</ele>
        <time>2010-09-19T08:38:43Z</time>
      </trkpt>
      <trkpt lat="43.25859" lon="-0.4069">
        <ele>273.082</ele>
        <time>2010-09-19T08:38:52Z</time>
      </trkpt>
      <trkpt lat="43.25869" lon="-0.40676">
        <ele>274.704</ele>
        <time>2010-09-19T08:39:02Z</time>
      </trkpt>
      <trkpt lat="43.25882" lon="-0.40663">
        <ele>276.78</ele>
        <time>2010-09-19T08:39:13Z</time>
      </trkpt>
      <trkpt lat="43.25889" lon="-0.40656">
        <ele>278.051</ele>
        <time>2010-09-19T08:39:19Z</time>
      </trkpt>
      <trkpt lat="43.259" lon="-0.40645">
        <ele>280.197</ele>
        <time>2010-09-19T08:39:29Z</time>
      </trkpt>
      <trkpt lat="43.25912" lon="-0.40634">
        <ele>282.545</ele>
        <time>2010-09-19T08:39:40Z</time>
      </trkpt>
      <trkpt lat="43.25923" lon="-0.40625">
        <ele>284.579</ele>
        <time>2010-09-19T08:39:49Z</time>
      </trkpt>
      <trkpt lat="43.25933" lon="-0.40618">
        <ele>286.494</ele>
        <time>2010-09-19T08:39:57Z</time>
      </trkpt>
      <trkpt lat="43.25942" lon="-0.4061">
        <ele>288.186</ele>
        <time>2010-09-19T08:40:05Z</time>
      </trkpt>
      <trkpt lat="43.2595" lon="-0.40605">
        <ele>289.588</ele>
        <time>2010-09-19T08:40:12Z</time>
      </trkpt>
      <trkpt lat="43.25959" lon="-0.406">
        <ele>291.522</ele>
        <time>2010-09-19T08:40:20Z</time>
      </trkpt>
      <trkpt lat="43.25968" lon="-0.40593">
        <ele>293.513</ele>
        <time>2010-09-19T08:40:29Z</time>
      </trkpt>
      <trkpt lat="43.25975" lon="-0.40592">
        <ele>294.599</ele>
        <time>2010-09-19T08:40:35Z</time>
      </trkpt>
      <trkpt lat="43.25986" lon="-0.40586">
        <ele>296.797</ele>
        <time>2010-09-19T08:40:45Z</time>
      </trkpt>
      <trkpt lat="43.25995" lon="-0.40581">
        <ele>298.301</ele>
        <time>2010-09-19T08:40:53Z</time>
      </trkpt>
      <trkpt lat="43.26004" lon="-0.40575">
        <ele>300.043</ele>
        <time>2010-09-19T08:41:01Z</time>
      </trkpt>
      <trkpt lat="43.26014" lon="-0.40569">
        <ele>302.051</ele>
        <time>2010-09-19T08:41:09Z</time>
      </trkpt>
      <trkpt lat="43.26023" lon="-0.4057">
        <ele>302.708</ele>
        <time>2010-09-19T08:41:16Z</time>
      </trkpt>
      <trkpt lat="43.26031" lon="-0.40574">
        <ele>302.571</ele>
        <time>2010-09-19T08:41:21Z</time>
      </trkpt>
      <trkpt lat="43.26045" lon="-0.4058">
        <ele>301.144</ele>
        <time>2010-09-19T08:41:27Z</time>
      </trkpt>
      <trkpt lat="43.26082" lon="-0.40576">
        <ele>296.287</ele>
        <time>2010-09-19T08:41:33Z</time>
      </trkpt>
      <trkpt lat="43.26089" lon="-0.40575">
        <ele>294.578</ele>
        <time>2010-09-19T08:41:34Z</time>
      </trkpt>
      <trkpt lat="43.26126" lon="-0.40569">
        <ele>287.137</ele>
        <time>2010-09-19T08:41:39Z</time>
      </trkpt>
      <trkpt lat="43.26167" lon="-0.4057">
        <ele>277.72</ele>
        <time>2010-09-19T08:41:44Z</time>
      </trkpt>
      <trkpt lat="43.26176" lon="-0.40569">
        <ele>274.402</ele>
        <time>2010-09-19T08:41:46Z</time>
      </trkpt>
      <trkpt lat="43.26181" lon="-0.4056">
        <ele>272.871</ele>
        <time>2010-09-19T08:41:49Z</time>
      </trkpt>
      <trkpt lat="43.26179" lon="-0.40551">
        <ele>273.444</ele>
        <time>2010-09-19T08:41:52Z</time>
      </trkpt>
      <trkpt lat="43.26173" lon="-0.40534">
        <ele>275.169</ele>
        <time>2010-09-19T08:41:59Z</time>
      </trkpt>
      <trkpt lat="43.26168" lon="-0.40514">
        <ele>277.31</ele>
        <time>2010-09-19T08:42:08Z</time>
      </trkpt>
      <trkpt lat="43.2617" lon="-0.40496">
        <ele>279.259</ele>
        <time>2010-09-19T08:42:17Z</time>
      </trkpt>
      <trkpt lat="43.26174" lon="-0.40485">
        <ele>280.478</ele>
        <time>2010-09-19T08:42:24Z</time>
      </trkpt>
      <trkpt lat="43.26183" lon="-0.40475">
        <ele>282.009</ele>
        <time>2010-09-19T08:42:32Z</time>
      </trkpt>
      <trkpt lat="43.26195" lon="-0.40465">
        <ele>283.297</ele>
        <time>2010-09-19T08:42:41Z</time>
      </trkpt>
      <trkpt lat="43.26204" lon="-0.40457">
        <ele>284.625</ele>
        <time>2010-09-19T08:42:49Z</time>
      </trkpt>
      <trkpt lat="43.2622" lon="-0.40449">
        <ele>286.799</ele>
        <time>2010-09-19T08:43:01Z</time>
      </trkpt>
      <trkpt lat="43.26226" lon="-0.40446">
        <ele>287.531</ele>
        <time>2010-09-19T08:43:06Z</time>
      </trkpt>
      <trkpt lat="43.26232" lon="-0.40451">
        <ele>288.867</ele>
        <time>2010-09-19T08:43:11Z</time>
      </trkpt>
      <trkpt lat="43.26243" lon="-0.40471">
        <ele>288.382</ele>
        <time>2010-09-19T08:43:18Z</time>
      </trkpt>
      <trkpt lat="43.26259" lon="-0.40503">
        <ele>287.573</ele>
        <time>2010-09-19T08:43:26Z</time>
      </trkpt>
      <trkpt lat="43.26279" lon="-0.40547">
        <ele>286.146</ele>
        <time>2010-09-19T08:43:35Z</time>
      </trkpt>
      <trkpt lat="43.26295" lon="-0.40584">
        <ele>284.623</ele>
        <time>2010-09-19T08:43:41Z</time>
      </trkpt>
      <trkpt lat="43.26308" lon="-0.40611">
        <ele>284.108</ele>
        <time>2010-09-19T08:43:46Z</time>
      </trkpt>
      <trkpt lat="43.26319" lon="-0.4063">
        <ele>283.461</ele>
        <time>2010-09-19T08:43:50Z</time>
      </trkpt>
      <trkpt lat="43.26328" lon="-0.40642">
        <ele>283.281</ele>
        <time>2010-09-19T08:43:53Z</time>
      </trkpt>
      <trkpt lat="43.26338" lon="-0.40638">
        <ele>283.626</ele>
        <time>2010-09-19T08:43:57Z</time>
      </trkpt>
      <trkpt lat="43.26352" lon="-0.40623">
        <ele>286.479</ele>
        <time>2010-09-19T08:44:04Z</time>
      </trkpt>
      <trkpt lat="43.26355" lon="-0.40622">
        <ele>286.982</ele>
        <time>2010-09-19T08:44:05Z</time>
      </trkpt>
      <trkpt lat="43.26363" lon="-0.40631">
        <ele>287.916</ele>
        <time>2010-09-19T08:44:10Z</time>
      </trkpt>
      <trkpt lat="43.26375" lon="-0.40652">
        <ele>287.36</ele>
        <time>2010-09-19T08:44:19Z</time>
      </trkpt>
      <trkpt lat="43.26375" lon="-0.40654">
        <ele>287.201</ele>
        <time>2010-09-19T08:44:20Z</time>
      </trkpt>
      <trkpt lat="43.26375" lon="-0.40657">
        <ele>286.48</ele>
        <time>2010-09-19T08:44:26Z</time>
      </trkpt>
      <trkpt lat="43.26375" lon="-0.40655">
        <ele>286.377</ele>
        <time>2010-09-19T08:45:26Z</time>
      </trkpt>
      <trkpt lat="43.26375" lon="-0.40655">
        <ele>286.33</ele>
        <time>2010-09-19T08:45:27Z</time>
      </trkpt>
      <trkpt lat="43.26375" lon="-0.40655">
        <ele>286.564</ele>
        <time>2010-09-19T08:45:40Z</time>
      </trkpt>
      <trkpt lat="43.26374" lon="-0.40655">
        <ele>286.742</ele>
        <time>2010-09-19T08:46:23Z</time>
      </trkpt>
      <trkpt lat="43.26374" lon="-0.40655">
        <ele>286.964</ele>
        <time>2010-09-19T08:47:02Z</time>
      </trkpt>
      <trkpt lat="43.26373" lon="-0.40655">
        <ele>287.173</ele>
        <time>2010-09-19T08:47:31Z</time>
      </trkpt>
      <trkpt lat="43.26374" lon="-0.40655">
        <ele>287.316</ele>
        <time>2010-09-19T08:48:27Z</time>
      </trkpt>
      <trkpt lat="43.26375" lon="-0.40653">
        <ele>288.468</ele>
        <time>2010-09-19T08:49:04Z</time>
      </trkpt>
      <trkpt lat="43.26375" lon="-0.40654">
        <ele>288.367</ele>
        <time>2010-09-19T08:49:13Z</time>
      </trkpt>
      <trkpt lat="43.26377" lon="-0.40649">
        <ele>288.551</ele>
        <time>2010-09-19T08:49:22Z</time>
      </trkpt>
      <trkpt lat="43.26378" lon="-0.40648">
        <ele>288.718</ele>
        <time>2010-09-19T08:49:24Z</time>
      </trkpt>
      <trkpt lat="43.26378" lon="-0.40647">
        <ele>288.669</ele>
        <time>2010-09-19T08:49:26Z</time>
      </trkpt>
      <trkpt lat="43.26379" lon="-0.40646">
        <ele>288.657</ele>
        <time>2010-09-19T08:49:27Z</time>
      </trkpt>
      <trkpt lat="43.2638" lon="-0.40646">
        <ele>288.76</ele>
        <time>2010-09-19T08:49:28Z</time>
      </trkpt>
      <trkpt lat="43.26381" lon="-0.40638">
        <ele>289.388</ele>
        <time>2010-09-19T08:49:35Z</time>
      </trkpt>
      <trkpt lat="43.26383" lon="-0.40633">
        <ele>289.451</ele>
        <time>2010-09-19T08:49:39Z</time>
      </trkpt>
      <trkpt lat="43.26383" lon="-0.40632">
        <ele>289.466</ele>
        <time>2010-09-19T08:49:40Z</time>
      </trkpt>
      <trkpt lat="43.26384" lon="-0.40615">
        <ele>289.965</ele>
        <time>2010-09-19T08:49:49Z</time>
      </trkpt>
      <trkpt lat="43.2638" lon="-0.40604">
        <ele>290.233</ele>
        <time>2010-09-19T08:49:54Z</time>
      </trkpt>
      <trkpt lat="43.26369" lon="-0.40584">
        <ele>291.263</ele>
        <time>2010-09-19T08:50:03Z</time>
      </trkpt>
      <trkpt lat="43.26357" lon="-0.40559">
        <ele>292.548</ele>
        <time>2010-09-19T08:50:13Z</time>
      </trkpt>
      <trkpt lat="43.26351" lon="-0.40535">
        <ele>293.19</ele>
        <time>2010-09-19T08:50:20Z</time>
      </trkpt>
      <trkpt lat="43.26343" lon="-0.40513">
        <ele>293.911</ele>
        <time>2010-09-19T08:50:27Z</time>
      </trkpt>
      <trkpt lat="43.26334" lon="-0.40492">
        <ele>294.96</ele>
        <time>2010-09-19T08:50:34Z</time>
      </trkpt>
      <trkpt lat="43.26317" lon="-0.40464">
        <ele>295.904</ele>
        <time>2010-09-19T08:50:42Z</time>
      </trkpt>
      <trkpt lat="43.26305" lon="-0.40429">
        <ele>297.5</ele>
        <time>2010-09-19T08:50:51Z</time>
      </trkpt>
      <trkpt lat="43.26292" lon="-0.40382">
        <ele>300.677</ele>
        <time>2010-09-19T08:51:04Z</time>
      </trkpt>
      <trkpt lat="43.26283" lon="-0.40345">
        <ele>303.226</ele>
        <time>2010-09-19T08:51:14Z</time>
      </trkpt>
      <trkpt lat="43.26277" lon="-0.40316">
        <ele>305.484</ele>
        <time>2010-09-19T08:51:22Z</time>
      </trkpt>
      <trkpt lat="43.26272" lon="-0.40287">
        <ele>307.197</ele>
        <time>2010-09-19T08:51:31Z</time>
      </trkpt>
      <trkpt lat="43.2627" lon="-0.40264">
        <ele>308.398</ele>
        <time>2010-09-19T08:51:39Z</time>
      </trkpt>
      <trkpt lat="43.26279" lon="-0.40249">
        <ele>308.051</ele>
        <time>2010-09-19T08:51:44Z</time>
      </trkpt>
      <trkpt lat="43.26296" lon="-0.40241">
        <ele>307.708</ele>
        <time>2010-09-19T08:51:49Z</time>
      </trkpt>
      <trkpt lat="43.26317" lon="-0.40228">
        <ele>307.512</ele>
        <time>2010-09-19T08:51:55Z</time>
      </trkpt>
      <trkpt lat="43.26334" lon="-0.40219">
        <ele>307.526</ele>
        <time>2010-09-19T08:52:00Z</time>
      </trkpt>
      <trkpt lat="43.26349" lon="-0.40211">
        <ele>307.463</ele>
        <time>2010-09-19T08:52:04Z</time>
      </trkpt>
      <trkpt lat="43.26375" lon="-0.402">
        <ele>307.997</ele>
        <time>2010-09-19T08:52:11Z</time>
      </trkpt>
      <trkpt lat="43.26408" lon="-0.40192">
        <ele>308.966</ele>
        <time>2010-09-19T08:52:20Z</time>
      </trkpt>
      <trkpt lat="43.2643" lon="-0.4019">
        <ele>309.484</ele>
        <time>2010-09-19T08:52:26Z</time>
      </trkpt>
      <trkpt lat="43.26456" lon="-0.40189">
        <ele>309.899</ele>
        <time>2010-09-19T08:52:33Z</time>
      </trkpt>
      <trkpt lat="43.26484" lon="-0.4019">
        <ele>309.798</ele>
        <time>2010-09-19T08:52:40Z</time>
      </trkpt>
      <trkpt lat="43.26513" lon="-0.40194">
        <ele>309.49</ele>
        <time>2010-09-19T08:52:47Z</time>
      </trkpt>
      <trkpt lat="43.26545" lon="-0.40199">
        <ele>309.97</ele>
        <time>2010-09-19T08:52:55Z</time>
      </trkpt>
      <trkpt lat="43.26577" lon="-0.402">
        <ele>310.942</ele>
        <time>2010-09-19T08:53:03Z</time>
      </trkpt>
      <trkpt lat="43.26608" lon="-0.40199">
        <ele>311.046</ele>
        <time>2010-09-19T08:53:11Z</time>
      </trkpt>
      <trkpt lat="43.26637" lon="-0.40199">
        <ele>309.744</ele>
        <time>2010-09-19T08:53:17Z</time>
      </trkpt>
      <trkpt lat="43.26665" lon="-0.40199">
        <ele>309.734</ele>
        <time>2010-09-19T08:53:23Z</time>
      </trkpt>
      <trkpt lat="43.26704" lon="-0.40199">
        <ele>309.598</ele>
        <time>2010-09-19T08:53:31Z</time>
      </trkpt>
      <trkpt lat="43.26723" lon="-0.40198">
        <ele>309.984</ele>
        <time>2010-09-19T08:53:35Z</time>
      </trkpt>
      <trkpt lat="43.26737" lon="-0.40191">
        <ele>310.6</ele>
        <time>2010-09-19T08:53:39Z</time>
      </trkpt>
      <trkpt lat="43.26751" lon="-0.40186">
        <ele>311.236</ele>
        <time>2010-09-19T08:53:43Z</time>
      </trkpt>
      <trkpt lat="43.26772" lon="-0.40185">
        <ele>312.499</ele>
        <time>2010-09-19T08:53:49Z</time>
      </trkpt>
      <trkpt lat="43.26783" lon="-0.4019">
        <ele>313.79</ele>
        <time>2010-09-19T08:53:52Z</time>
      </trkpt>
      <trkpt lat="43.26795" lon="-0.40201">
        <ele>315.181</ele>
        <time>2010-09-19T08:53:56Z</time>
      </trkpt>
      <trkpt lat="43.26807" lon="-0.40214">
        <ele>316.497</ele>
        <time>2010-09-19T08:54:00Z</time>
      </trkpt>
      <trkpt lat="43.2683" lon="-0.4024">
        <ele>317.484</ele>
        <time>2010-09-19T08:54:07Z</time>
      </trkpt>
      <trkpt lat="43.26864" lon="-0.40282">
        <ele>317.33</ele>
        <time>2010-09-19T08:54:17Z</time>
      </trkpt>
      <trkpt lat="43.26895" lon="-0.40316">
        <ele>317.09</ele>
        <time>2010-09-19T08:54:25Z</time>
      </trkpt>
      <trkpt lat="43.26903" lon="-0.40325">
        <ele>317.138</ele>
        <time>2010-09-19T08:54:27Z</time>
      </trkpt>
      <trkpt lat="43.2694" lon="-0.40363">
        <ele>317.111</ele>
        <time>2010-09-19T08:54:37Z</time>
      </trkpt>
      <trkpt lat="43.26969" lon="-0.40391">
        <ele>317.08</ele>
        <time>2010-09-19T08:54:45Z</time>
      </trkpt>
      <trkpt lat="43.27004" lon="-0.40417">
        <ele>317.87</ele>
        <time>2010-09-19T08:54:54Z</time>
      </trkpt>
      <trkpt lat="43.27015" lon="-0.40424">
        <ele>318.395</ele>
        <time>2010-09-19T08:54:57Z</time>
      </trkpt>
      <trkpt lat="43.2705" lon="-0.40436">
        <ele>319.954</ele>
        <time>2010-09-19T08:55:06Z</time>
      </trkpt>
      <trkpt lat="43.27077" lon="-0.40437">
        <ele>321.251</ele>
        <time>2010-09-19T08:55:13Z</time>
      </trkpt>
      <trkpt lat="43.27113" lon="-0.40431">
        <ele>322.701</ele>
        <time>2010-09-19T08:55:22Z</time>
      </trkpt>
      <trkpt lat="43.27146" lon="-0.40426">
        <ele>324.21</ele>
        <time>2010-09-19T08:55:31Z</time>
      </trkpt>
      <trkpt lat="43.27173" lon="-0.40419">
        <ele>325.675</ele>
        <time>2010-09-19T08:55:39Z</time>
      </trkpt>
      <trkpt lat="43.27196" lon="-0.40412">
        <ele>326.976</ele>
        <time>2010-09-19T08:55:46Z</time>
      </trkpt>
      <trkpt lat="43.27227" lon="-0.404">
        <ele>329.39</ele>
        <time>2010-09-19T08:55:56Z</time>
      </trkpt>
      <trkpt lat="43.27248" lon="-0.40395">
        <ele>331.204</ele>
        <time>2010-09-19T08:56:04Z</time>
      </trkpt>
      <trkpt lat="43.27259" lon="-0.40395">
        <ele>332.026</ele>
        <time>2010-09-19T08:56:09Z</time>
      </trkpt>
      <trkpt lat="43.27275" lon="-0.40401">
        <ele>331.466</ele>
        <time>2010-09-19T08:56:14Z</time>
      </trkpt>
      <trkpt lat="43.27303" lon="-0.40399">
        <ele>329.65</ele>
        <time>2010-09-19T08:56:19Z</time>
      </trkpt>
      <trkpt lat="43.27338" lon="-0.40392">
        <ele>327.234</ele>
        <time>2010-09-19T08:56:23Z</time>
      </trkpt>
      <trkpt lat="43.27386" lon="-0.40388">
        <ele>324.065</ele>
        <time>2010-09-19T08:56:28Z</time>
      </trkpt>
      <trkpt lat="43.2746" lon="-0.40389">
        <ele>318.739</ele>
        <time>2010-09-19T08:56:35Z</time>
      </trkpt>
      <trkpt lat="43.27504" lon="-0.40396">
        <ele>315.446</ele>
        <time>2010-09-19T08:56:39Z</time>
      </trkpt>
      <trkpt lat="43.27524" lon="-0.40402">
        <ele>313.233</ele>
        <time>2010-09-19T08:56:41Z</time>
      </trkpt>
      <trkpt lat="43.27557" lon="-0.40431">
        <ele>310.231</ele>
        <time>2010-09-19T08:56:45Z</time>
      </trkpt>
      <trkpt lat="43.27563" lon="-0.40442">
        <ele>309.44</ele>
        <time>2010-09-19T08:56:46Z</time>
      </trkpt>
      <trkpt lat="43.27575" lon="-0.40467">
        <ele>308.602</ele>
        <time>2010-09-19T08:56:48Z</time>
      </trkpt>
      <trkpt lat="43.27591" lon="-0.40501">
        <ele>308.684</ele>
        <time>2010-09-19T08:56:51Z</time>
      </trkpt>
      <trkpt lat="43.27611" lon="-0.40545">
        <ele>310.474</ele>
        <time>2010-09-19T08:56:56Z</time>
      </trkpt>
      <trkpt lat="43.2763" lon="-0.40578">
        <ele>311.82</ele>
        <time>2010-09-19T08:57:01Z</time>
      </trkpt>
      <trkpt lat="43.27644" lon="-0.40602">
        <ele>313.484</ele>
        <time>2010-09-19T08:57:06Z</time>
      </trkpt>
      <trkpt lat="43.27658" lon="-0.40618">
        <ele>314.95</ele>
        <time>2010-09-19T08:57:11Z</time>
      </trkpt>
      <trkpt lat="43.27681" lon="-0.40638">
        <ele>317.725</ele>
        <time>2010-09-19T08:57:19Z</time>
      </trkpt>
      <trkpt lat="43.27701" lon="-0.4066">
        <ele>319.779</ele>
        <time>2010-09-19T08:57:28Z</time>
      </trkpt>
      <trkpt lat="43.27715" lon="-0.40678">
        <ele>321.562</ele>
        <time>2010-09-19T08:57:35Z</time>
      </trkpt>
      <trkpt lat="43.27725" lon="-0.40692">
        <ele>323.148</ele>
        <time>2010-09-19T08:57:41Z</time>
      </trkpt>
      <trkpt lat="43.27723" lon="-0.40703">
        <ele>323.262</ele>
        <time>2010-09-19T08:57:45Z</time>
      </trkpt>
      <trkpt lat="43.27712" lon="-0.40724">
        <ele>320.19</ele>
        <time>2010-09-19T08:57:49Z</time>
      </trkpt>
      <trkpt lat="43.27697" lon="-0.40755">
        <ele>316.63</ele>
        <time>2010-09-19T08:57:52Z</time>
      </trkpt>
      <trkpt lat="43.2768" lon="-0.40796">
        <ele>309.385</ele>
        <time>2010-09-19T08:57:56Z</time>
      </trkpt>
      <trkpt lat="43.27659" lon="-0.40839">
        <ele>302.92</ele>
        <time>2010-09-19T08:58:00Z</time>
      </trkpt>
      <trkpt lat="43.27655" lon="-0.40852">
        <ele>300.476</ele>
        <time>2010-09-19T08:58:01Z</time>
      </trkpt>
      <trkpt lat="43.27645" lon="-0.40904">
        <ele>294.013</ele>
        <time>2010-09-19T08:58:05Z</time>
      </trkpt>
      <trkpt lat="43.27643" lon="-0.40957">
        <ele>288.777</ele>
        <time>2010-09-19T08:58:09Z</time>
      </trkpt>
      <trkpt lat="43.27644" lon="-0.41002">
        <ele>282.618</ele>
        <time>2010-09-19T08:58:13Z</time>
      </trkpt>
      <trkpt lat="43.27641" lon="-0.41031">
        <ele>279.434</ele>
        <time>2010-09-19T08:58:16Z</time>
      </trkpt>
      <trkpt lat="43.27636" lon="-0.41072">
        <ele>271.513</ele>
        <time>2010-09-19T08:58:21Z</time>
      </trkpt>
      <trkpt lat="43.27635" lon="-0.41083">
        <ele>268.603</ele>
        <time>2010-09-19T08:58:23Z</time>
      </trkpt>
      <trkpt lat="43.27639" lon="-0.41093">
        <ele>266.781</ele>
        <time>2010-09-19T08:58:26Z</time>
      </trkpt>
      <trkpt lat="43.27642" lon="-0.41096">
        <ele>266.066</ele>
        <time>2010-09-19T08:58:27Z</time>
      </trkpt>
      <trkpt lat="43.27654" lon="-0.41101">
        <ele>262.481</ele>
        <time>2010-09-19T08:58:32Z</time>
      </trkpt>
      <trkpt lat="43.27651" lon="-0.41113">
        <ele>258.624</ele>
        <time>2010-09-19T08:58:37Z</time>
      </trkpt>
      <trkpt lat="43.27641" lon="-0.41129">
        <ele>256.228</ele>
        <time>2010-09-19T08:58:39Z</time>
      </trkpt>
      <trkpt lat="43.27625" lon="-0.41152">
        <ele>250.276</ele>
        <time>2010-09-19T08:58:44Z</time>
      </trkpt>
      <trkpt lat="43.27611" lon="-0.41162">
        <ele>244.799</ele>
        <time>2010-09-19T08:58:49Z</time>
      </trkpt>
      <trkpt lat="43.27606" lon="-0.41167">
        <ele>242.61</ele>
        <time>2010-09-19T08:58:51Z</time>
      </trkpt>
      <trkpt lat="43.27593" lon="-0.41175">
        <ele>237.927</ele>
        <time>2010-09-19T08:58:56Z</time>
      </trkpt>
      <trkpt lat="43.27585" lon="-0.41163">
        <ele>234.048</ele>
        <time>2010-09-19T08:59:00Z</time>
      </trkpt>
      <trkpt lat="43.27579" lon="-0.4115">
        <ele>232.79</ele>
        <time>2010-09-19T08:59:02Z</time>
      </trkpt>
      <trkpt lat="43.27569" lon="-0.41135">
        <ele>230.365</ele>
        <time>2010-09-19T08:59:06Z</time>
      </trkpt>
      <trkpt lat="43.27564" lon="-0.41129">
        <ele>228.846</ele>
        <time>2010-09-19T08:59:08Z</time>
      </trkpt>
      <trkpt lat="43.27556" lon="-0.41134">
        <ele>227.658</ele>
        <time>2010-09-19T08:59:12Z</time>
      </trkpt>
      <trkpt lat="43.27556" lon="-0.4115">
        <ele>226.476</ele>
        <time>2010-09-19T08:59:15Z</time>
      </trkpt>
      <trkpt lat="43.27559" lon="-0.41171">
        <ele>225.259</ele>
        <time>2010-09-19T08:59:18Z</time>
      </trkpt>
      <trkpt lat="43.2756" lon="-0.41204">
        <ele>222.118</ele>
        <time>2010-09-19T08:59:23Z</time>
      </trkpt>
      <trkpt lat="43.2756" lon="-0.4121">
        <ele>221.821</ele>
        <time>2010-09-19T08:59:24Z</time>
      </trkpt>
      <trkpt lat="43.27558" lon="-0.41232">
        <ele>219.539</ele>
        <time>2010-09-19T08:59:29Z</time>
      </trkpt>
      <trkpt lat="43.27552" lon="-0.41242">
        <ele>219.392</ele>
        <time>2010-09-19T08:59:35Z</time>
      </trkpt>
      <trkpt lat="43.27545" lon="-0.41265">
        <ele>220.551</ele>
        <time>2010-09-19T08:59:41Z</time>
      </trkpt>
      <trkpt lat="43.27542" lon="-0.4127">
        <ele>220.447</ele>
        <time>2010-09-19T08:59:42Z</time>
      </trkpt>
      <trkpt lat="43.27533" lon="-0.41296">
        <ele>219.26</ele>
        <time>2010-09-19T08:59:46Z</time>
      </trkpt>
      <trkpt lat="43.27535" lon="-0.41328">
        <ele>218.104</ele>
        <time>2010-09-19T08:59:50Z</time>
      </trkpt>
      <trkpt lat="43.27543" lon="-0.41352">
        <ele>217.793</ele>
        <time>2010-09-19T08:59:53Z</time>
      </trkpt>
      <trkpt lat="43.27553" lon="-0.41375">
        <ele>216.881</ele>
        <time>2010-09-19T08:59:56Z</time>
      </trkpt>
      <trkpt lat="43.27566" lon="-0.41408">
        <ele>217.334</ele>
        <time>2010-09-19T09:00:01Z</time>
      </trkpt>
      <trkpt lat="43.27569" lon="-0.41423">
        <ele>215.997</ele>
        <time>2010-09-19T09:00:03Z</time>
      </trkpt>
      <trkpt lat="43.2758" lon="-0.41455">
        <ele>211.854</ele>
        <time>2010-09-19T09:00:07Z</time>
      </trkpt>
      <trkpt lat="43.27589" lon="-0.41478">
        <ele>209.463</ele>
        <time>2010-09-19T09:00:10Z</time>
      </trkpt>
      <trkpt lat="43.27599" lon="-0.41507">
        <ele>209.283</ele>
        <time>2010-09-19T09:00:14Z</time>
      </trkpt>
      <trkpt lat="43.27604" lon="-0.41544">
        <ele>207.496</ele>
        <time>2010-09-19T09:00:19Z</time>
      </trkpt>
      <trkpt lat="43.27605" lon="-0.41559">
        <ele>206.633</ele>
        <time>2010-09-19T09:00:21Z</time>
      </trkpt>
      <trkpt lat="43.27605" lon="-0.41567">
        <ele>206.044</ele>
        <time>2010-09-19T09:00:22Z</time>
      </trkpt>
      <trkpt lat="43.27608" lon="-0.41606">
        <ele>204.812</ele>
        <time>2010-09-19T09:00:27Z</time>
      </trkpt>
      <trkpt lat="43.2761" lon="-0.41638">
        <ele>203.543</ele>
        <time>2010-09-19T09:00:31Z</time>
      </trkpt>
      <trkpt lat="43.27623" lon="-0.41684">
        <ele>201.99</ele>
        <time>2010-09-19T09:00:37Z</time>
      </trkpt>
      <trkpt lat="43.27627" lon="-0.41692">
        <ele>201.75</ele>
        <time>2010-09-19T09:00:38Z</time>
      </trkpt>
      <trkpt lat="43.27625" lon="-0.41711">
        <ele>199.744</ele>
        <time>2010-09-19T09:00:42Z</time>
      </trkpt>
      <trkpt lat="43.27621" lon="-0.41717">
        <ele>199.202</ele>
        <time>2010-09-19T09:00:43Z</time>
      </trkpt>
      <trkpt lat="43.27614" lon="-0.4173">
        <ele>198.472</ele>
        <time>2010-09-19T09:00:45Z</time>
      </trkpt>
      <trkpt lat="43.27606" lon="-0.4176">
        <ele>197.026</ele>
        <time>2010-09-19T09:00:49Z</time>
      </trkpt>
      <trkpt lat="43.27594" lon="-0.41779">
        <ele>196.125</ele>
        <time>2010-09-19T09:00:53Z</time>
      </trkpt>
      <trkpt lat="43.27567" lon="-0.41801">
        <ele>195.3</ele>
        <time>2010-09-19T09:00:58Z</time>
      </trkpt>
      <trkpt lat="43.27554" lon="-0.41808">
        <ele>195.092</ele>
        <time>2010-09-19T09:01:01Z</time>
      </trkpt>
      <trkpt lat="43.27537" lon="-0.41821">
        <ele>195.324</ele>
        <time>2010-09-19T09:01:06Z</time>
      </trkpt>
      <trkpt lat="43.2753" lon="-0.41824">
        <ele>195.335</ele>
        <time>2010-09-19T09:01:08Z</time>
      </trkpt>
      <trkpt lat="43.27511" lon="-0.41831">
        <ele>196.324</ele>
        <time>2010-09-19T09:01:13Z</time>
      </trkpt>
      <trkpt lat="43.27498" lon="-0.41836">
        <ele>198.412</ele>
        <time>2010-09-19T09:01:19Z</time>
      </trkpt>
      <trkpt lat="43.27491" lon="-0.41836">
        <ele>200.296</ele>
        <time>2010-09-19T09:01:23Z</time>
      </trkpt>
      <trkpt lat="43.27487" lon="-0.41835">
        <ele>200.89</ele>
        <time>2010-09-19T09:01:25Z</time>
      </trkpt>
      <trkpt lat="43.27486" lon="-0.41835">
        <ele>201.245</ele>
        <time>2010-09-19T09:01:26Z</time>
      </trkpt>
      <trkpt lat="43.2748" lon="-0.41836">
        <ele>202.533</ele>
        <time>2010-09-19T09:01:30Z</time>
      </trkpt>
      <trkpt lat="43.2747" lon="-0.41834">
        <ele>204.437</ele>
        <time>2010-09-19T09:01:36Z</time>
      </trkpt>
      <trkpt lat="43.27457" lon="-0.4183">
        <ele>206.149</ele>
        <time>2010-09-19T09:01:42Z</time>
      </trkpt>
      <trkpt lat="43.27443" lon="-0.41829">
        <ele>207.281</ele>
        <time>2010-09-19T09:01:49Z</time>
      </trkpt>
      <trkpt lat="43.2743" lon="-0.41832">
        <ele>208.257</ele>
        <time>2010-09-19T09:01:56Z</time>
      </trkpt>
      <trkpt lat="43.27417" lon="-0.41837">
        <ele>209.615</ele>
        <time>2010-09-19T09:02:03Z</time>
      </trkpt>
      <trkpt lat="43.27407" lon="-0.41845">
        <ele>211.182</ele>
        <time>2010-09-19T09:02:10Z</time>
      </trkpt>
      <trkpt lat="43.27397" lon="-0.41855">
        <ele>213.1</ele>
        <time>2010-09-19T09:02:18Z</time>
      </trkpt>
      <trkpt lat="43.27391" lon="-0.41862">
        <ele>214.339</ele>
        <time>2010-09-19T09:02:24Z</time>
      </trkpt>
      <trkpt lat="43.27384" lon="-0.41871">
        <ele>216.444</ele>
        <time>2010-09-19T09:02:32Z</time>
      </trkpt>
      <trkpt lat="43.27374" lon="-0.41879">
        <ele>218.069</ele>
        <time>2010-09-19T09:02:39Z</time>
      </trkpt>
      <trkpt lat="43.27367" lon="-0.41887">
        <ele>219.683</ele>
        <time>2010-09-19T09:02:46Z</time>
      </trkpt>
      <trkpt lat="43.27365" lon="-0.41889">
        <ele>219.884</ele>
        <time>2010-09-19T09:02:48Z</time>
      </trkpt>
      <trkpt lat="43.27359" lon="-0.41892">
        <ele>220.799</ele>
        <time>2010-09-19T09:02:53Z</time>
      </trkpt>
      <trkpt lat="43.27352" lon="-0.41897">
        <ele>222.235</ele>
        <time>2010-09-19T09:03:00Z</time>
      </trkpt>
      <trkpt lat="43.27342" lon="-0.419">
        <ele>224.192</ele>
        <time>2010-09-19T09:03:08Z</time>
      </trkpt>
      <trkpt lat="43.2733" lon="-0.41901">
        <ele>225.945</ele>
        <time>2010-09-19T09:03:17Z</time>
      </trkpt>
      <trkpt lat="43.27321" lon="-0.41903">
        <ele>227.6</ele>
        <time>2010-09-19T09:03:25Z</time>
      </trkpt>
      <trkpt lat="43.27316" lon="-0.41904">
        <ele>228.476</ele>
        <time>2010-09-19T09:03:30Z</time>
      </trkpt>
      <trkpt lat="43.27307" lon="-0.41906">
        <ele>230.135</ele>
        <time>2010-09-19T09:03:39Z</time>
      </trkpt>
      <trkpt lat="43.27299" lon="-0.41908">
        <ele>231.665</ele>
        <time>2010-09-19T09:03:47Z</time>
      </trkpt>
      <trkpt lat="43.27288" lon="-0.41913">
        <ele>233.845</ele>
        <time>2010-09-19T09:03:58Z</time>
      </trkpt>
      <trkpt lat="43.27281" lon="-0.41916">
        <ele>235.437</ele>
        <time>2010-09-19T09:04:06Z</time>
      </trkpt>
      <trkpt lat="43.27271" lon="-0.41921">
        <ele>237.286</ele>
        <time>2010-09-19T09:04:16Z</time>
      </trkpt>
      <trkpt lat="43.27264" lon="-0.41924">
        <ele>238.951</ele>
        <time>2010-09-19T09:04:24Z</time>
      </trkpt>
      <trkpt lat="43.27263" lon="-0.41926">
        <ele>239.441</ele>
        <time>2010-09-19T09:04:34Z</time>
      </trkpt>
      <trkpt lat="43.27262" lon="-0.41927">
        <ele>239.834</ele>
        <time>2010-09-19T09:04:40Z</time>
      </trkpt>
      <trkpt lat="43.2726" lon="-0.41931">
        <ele>240.48</ele>
        <time>2010-09-19T09:04:49Z</time>
      </trkpt>
      <trkpt lat="43.27254" lon="-0.41936">
        <ele>242.257</ele>
        <time>2010-09-19T09:04:59Z</time>
      </trkpt>
      <trkpt lat="43.27249" lon="-0.41941">
        <ele>244.176</ele>
        <time>2010-09-19T09:05:09Z</time>
      </trkpt>
      <trkpt lat="43.27247" lon="-0.41946">
        <ele>245.356</ele>
        <time>2010-09-19T09:05:16Z</time>
      </trkpt>
      <trkpt lat="43.27245" lon="-0.41957">
        <ele>247.312</ele>
        <time>2010-09-19T09:05:26Z</time>
      </trkpt>
      <trkpt lat="43.27244" lon="-0.41965">
        <ele>248.58</ele>
        <time>2010-09-19T09:05:34Z</time>
      </trkpt>
      <trkpt lat="43.27241" lon="-0.41972">
        <ele>250.005</ele>
        <time>2010-09-19T09:05:43Z</time>
      </trkpt>
      <trkpt lat="43.2724" lon="-0.41977">
        <ele>251.185</ele>
        <time>2010-09-19T09:05:51Z</time>
      </trkpt>
      <trkpt lat="43.27237" lon="-0.4198">
        <ele>251.656</ele>
        <time>2010-09-19T09:05:56Z</time>
      </trkpt>
      <trkpt lat="43.2723" lon="-0.41985">
        <ele>252.9</ele>
        <time>2010-09-19T09:06:06Z</time>
      </trkpt>
      <trkpt lat="43.27224" lon="-0.41987">
        <ele>254.318</ele>
        <time>2010-09-19T09:06:15Z</time>
      </trkpt>
      <trkpt lat="43.27215" lon="-0.41991">
        <ele>255.973</ele>
        <time>2010-09-19T09:06:26Z</time>
      </trkpt>
      <trkpt lat="43.2721" lon="-0.41996">
        <ele>258.345</ele>
        <time>2010-09-19T09:06:36Z</time>
      </trkpt>
      <trkpt lat="43.27208" lon="-0.41998">
        <ele>259.042</ele>
        <time>2010-09-19T09:06:53Z</time>
      </trkpt>
      <trkpt lat="43.27207" lon="-0.42008">
        <ele>261.456</ele>
        <time>2010-09-19T09:07:11Z</time>
      </trkpt>
      <trkpt lat="43.27204" lon="-0.42015">
        <ele>262.869</ele>
        <time>2010-09-19T09:07:20Z</time>
      </trkpt>
      <trkpt lat="43.27203" lon="-0.42024">
        <ele>264.598</ele>
        <time>2010-09-19T09:07:28Z</time>
      </trkpt>
      <trkpt lat="43.27202" lon="-0.42029">
        <ele>265.155</ele>
        <time>2010-09-19T09:07:34Z</time>
      </trkpt>
      <trkpt lat="43.27202" lon="-0.42033">
        <ele>266.193</ele>
        <time>2010-09-19T09:07:41Z</time>
      </trkpt>
      <trkpt lat="43.27201" lon="-0.42038">
        <ele>266.768</ele>
        <time>2010-09-19T09:07:46Z</time>
      </trkpt>
      <trkpt lat="43.27201" lon="-0.42043">
        <ele>267.893</ele>
        <time>2010-09-19T09:07:53Z</time>
      </trkpt>
      <trkpt lat="43.272" lon="-0.42049">
        <ele>269.023</ele>
        <time>2010-09-19T09:08:00Z</time>
      </trkpt>
      <trkpt lat="43.272" lon="-0.42057">
        <ele>270.051</ele>
        <time>2010-09-19T09:08:07Z</time>
      </trkpt>
      <trkpt lat="43.272" lon="-0.42062">
        <ele>270.84</ele>
        <time>2010-09-19T09:08:13Z</time>
      </trkpt>
      <trkpt lat="43.27199" lon="-0.42068">
        <ele>271.566</ele>
        <time>2010-09-19T09:08:19Z</time>
      </trkpt>
      <trkpt lat="43.27197" lon="-0.42071">
        <ele>272.101</ele>
        <time>2010-09-19T09:08:25Z</time>
      </trkpt>
      <trkpt lat="43.27198" lon="-0.42077">
        <ele>272.493</ele>
        <time>2010-09-19T09:08:29Z</time>
      </trkpt>
      <trkpt lat="43.27198" lon="-0.42087">
        <ele>272.82</ele>
        <time>2010-09-19T09:08:36Z</time>
      </trkpt>
      <trkpt lat="43.272" lon="-0.42102">
        <ele>272.842</ele>
        <time>2010-09-19T09:08:43Z</time>
      </trkpt>
      <trkpt lat="43.27202" lon="-0.42105">
        <ele>272.815</ele>
        <time>2010-09-19T09:08:44Z</time>
      </trkpt>
      <trkpt lat="43.27208" lon="-0.42122">
        <ele>272.029</ele>
        <time>2010-09-19T09:08:48Z</time>
      </trkpt>
      <trkpt lat="43.27212" lon="-0.42135">
        <ele>271.275</ele>
        <time>2010-09-19T09:08:50Z</time>
      </trkpt>
      <trkpt lat="43.27218" lon="-0.42149">
        <ele>269.999</ele>
        <time>2010-09-19T09:08:52Z</time>
      </trkpt>
      <trkpt lat="43.27238" lon="-0.42185">
        <ele>265.56</ele>
        <time>2010-09-19T09:08:58Z</time>
      </trkpt>
      <trkpt lat="43.27242" lon="-0.42203">
        <ele>265.51</ele>
        <time>2010-09-19T09:09:02Z</time>
      </trkpt>
      <trkpt lat="43.27248" lon="-0.42217">
        <ele>267.448</ele>
        <time>2010-09-19T09:09:08Z</time>
      </trkpt>
      <trkpt lat="43.27253" lon="-0.42228">
        <ele>268.669</ele>
        <time>2010-09-19T09:09:13Z</time>
      </trkpt>
      <trkpt lat="43.27258" lon="-0.42247">
        <ele>270.516</ele>
        <time>2010-09-19T09:09:22Z</time>
      </trkpt>
      <trkpt lat="43.27261" lon="-0.42258">
        <ele>271.768</ele>
        <time>2010-09-19T09:09:28Z</time>
      </trkpt>
      <trkpt lat="43.27263" lon="-0.42267">
        <ele>273.485</ele>
        <time>2010-09-19T09:09:35Z</time>
      </trkpt>
      <trkpt lat="43.2727" lon="-0.42275">
        <ele>275.014</ele>
        <time>2010-09-19T09:09:42Z</time>
      </trkpt>
      <trkpt lat="43.27271" lon="-0.42287">
        <ele>276.625</ele>
        <time>2010-09-19T09:09:50Z</time>
      </trkpt>
      <trkpt lat="43.27272" lon="-0.42299">
        <ele>277.71</ele>
        <time>2010-09-19T09:09:57Z</time>
      </trkpt>
      <trkpt lat="43.27279" lon="-0.42312">
        <ele>278.786</ele>
        <time>2010-09-19T09:10:05Z</time>
      </trkpt>
      <trkpt lat="43.27289" lon="-0.42319">
        <ele>280.167</ele>
        <time>2010-09-19T09:10:13Z</time>
      </trkpt>
      <trkpt lat="43.273" lon="-0.42325">
        <ele>281.762</ele>
        <time>2010-09-19T09:10:21Z</time>
      </trkpt>
      <trkpt lat="43.2731" lon="-0.42329">
        <ele>282.89</ele>
        <time>2010-09-19T09:10:29Z</time>
      </trkpt>
      <trkpt lat="43.27314" lon="-0.42337">
        <ele>284.305</ele>
        <time>2010-09-19T09:10:36Z</time>
      </trkpt>
      <trkpt lat="43.27313" lon="-0.4234">
        <ele>285.203</ele>
        <time>2010-09-19T09:10:42Z</time>
      </trkpt>
      <trkpt lat="43.2731" lon="-0.42341">
        <ele>286.319</ele>
        <time>2010-09-19T09:10:47Z</time>
      </trkpt>
      <trkpt lat="43.27306" lon="-0.42343">
        <ele>287.94</ele>
        <time>2010-09-19T09:10:54Z</time>
      </trkpt>
      <trkpt lat="43.27302" lon="-0.42344">
        <ele>288.581</ele>
        <time>2010-09-19T09:10:58Z</time>
      </trkpt>
      <trkpt lat="43.273" lon="-0.42345">
        <ele>288.897</ele>
        <time>2010-09-19T09:11:00Z</time>
      </trkpt>
      <trkpt lat="43.27292" lon="-0.42345">
        <ele>289.776</ele>
        <time>2010-09-19T09:11:07Z</time>
      </trkpt>
      <trkpt lat="43.27282" lon="-0.42344">
        <ele>290.576</ele>
        <time>2010-09-19T09:11:15Z</time>
      </trkpt>
      <trkpt lat="43.27272" lon="-0.42342">
        <ele>291.842</ele>
        <time>2010-09-19T09:11:22Z</time>
      </trkpt>
      <trkpt lat="43.27265" lon="-0.4234">
        <ele>293.071</ele>
        <time>2010-09-19T09:11:29Z</time>
      </trkpt>
      <trkpt lat="43.27254" lon="-0.42334">
        <ele>294.477</ele>
        <time>2010-09-19T09:11:38Z</time>
      </trkpt>
      <trkpt lat="43.27248" lon="-0.42326">
        <ele>295.893</ele>
        <time>2010-09-19T09:11:45Z</time>
      </trkpt>
      <trkpt lat="43.27244" lon="-0.4232">
        <ele>297.028</ele>
        <time>2010-09-19T09:11:51Z</time>
      </trkpt>
      <trkpt lat="43.27235" lon="-0.42309">
        <ele>298.648</ele>
        <time>2010-09-19T09:11:58Z</time>
      </trkpt>
      <trkpt lat="43.27231" lon="-0.423">
        <ele>299.34</ele>
        <time>2010-09-19T09:12:05Z</time>
      </trkpt>
      <trkpt lat="43.27221" lon="-0.42286">
        <ele>300.047</ele>
        <time>2010-09-19T09:12:12Z</time>
      </trkpt>
      <trkpt lat="43.27217" lon="-0.42281">
        <ele>301.313</ele>
        <time>2010-09-19T09:12:17Z</time>
      </trkpt>
      <trkpt lat="43.27213" lon="-0.42274">
        <ele>302.884</ele>
        <time>2010-09-19T09:12:23Z</time>
      </trkpt>
      <trkpt lat="43.27209" lon="-0.4227">
        <ele>303.707</ele>
        <time>2010-09-19T09:12:26Z</time>
      </trkpt>
      <trkpt lat="43.27208" lon="-0.42265">
        <ele>304.106</ele>
        <time>2010-09-19T09:12:29Z</time>
      </trkpt>
      <trkpt lat="43.27204" lon="-0.42253">
        <ele>304.308</ele>
        <time>2010-09-19T09:12:35Z</time>
      </trkpt>
      <trkpt lat="43.27203" lon="-0.42251">
        <ele>304.316</ele>
        <time>2010-09-19T09:12:36Z</time>
      </trkpt>
      <trkpt lat="43.27193" lon="-0.42236">
        <ele>304.747</ele>
        <time>2010-09-19T09:12:43Z</time>
      </trkpt>
      <trkpt lat="43.27187" lon="-0.42223">
        <ele>305.07</ele>
        <time>2010-09-19T09:12:48Z</time>
      </trkpt>
      <trkpt lat="43.27181" lon="-0.42208">
        <ele>305.098</ele>
        <time>2010-09-19T09:12:53Z</time>
      </trkpt>
      <trkpt lat="43.27169" lon="-0.42203">
        <ele>305.954</ele>
        <time>2010-09-19T09:12:58Z</time>
      </trkpt>
      <trkpt lat="43.27156" lon="-0.42203">
        <ele>307.238</ele>
        <time>2010-09-19T09:13:05Z</time>
      </trkpt>
      <trkpt lat="43.27142" lon="-0.42208">
        <ele>308.12</ele>
        <time>2010-09-19T09:13:12Z</time>
      </trkpt>
      <trkpt lat="43.27131" lon="-0.42214">
        <ele>309.245</ele>
        <time>2010-09-19T09:13:19Z</time>
      </trkpt>
      <trkpt lat="43.2712" lon="-0.42221">
        <ele>310.37</ele>
        <time>2010-09-19T09:13:27Z</time>
      </trkpt>
      <trkpt lat="43.27107" lon="-0.42229">
        <ele>311.586</ele>
        <time>2010-09-19T09:13:36Z</time>
      </trkpt>
      <trkpt lat="43.27089" lon="-0.42235">
        <ele>312.516</ele>
        <time>2010-09-19T09:13:48Z</time>
      </trkpt>
      <trkpt lat="43.27076" lon="-0.42241">
        <ele>313.47</ele>
        <time>2010-09-19T09:13:58Z</time>
      </trkpt>
      <trkpt lat="43.27064" lon="-0.42243">
        <ele>313.934</ele>
        <time>2010-09-19T09:14:06Z</time>
      </trkpt>
      <trkpt lat="43.2705" lon="-0.42244">
        <ele>314.343</ele>
        <time>2010-09-19T09:14:15Z</time>
      </trkpt>
      <trkpt lat="43.27037" lon="-0.42243">
        <ele>314.297</ele>
        <time>2010-09-19T09:14:22Z</time>
      </trkpt>
      <trkpt lat="43.27022" lon="-0.42244">
        <ele>314.706</ele>
        <time>2010-09-19T09:14:28Z</time>
      </trkpt>
      <trkpt lat="43.27002" lon="-0.4225">
        <ele>314.916</ele>
        <time>2010-09-19T09:14:35Z</time>
      </trkpt>
      <trkpt lat="43.26987" lon="-0.42254">
        <ele>315.928</ele>
        <time>2010-09-19T09:14:41Z</time>
      </trkpt>
      <trkpt lat="43.26969" lon="-0.42249">
        <ele>315.542</ele>
        <time>2010-09-19T09:14:48Z</time>
      </trkpt>
      <trkpt lat="43.26955" lon="-0.42242">
        <ele>315.396</ele>
        <time>2010-09-19T09:14:54Z</time>
      </trkpt>
      <trkpt lat="43.26944" lon="-0.42236">
        <ele>315.373</ele>
        <time>2010-09-19T09:15:00Z</time>
      </trkpt>
      <trkpt lat="43.26941" lon="-0.42234">
        <ele>315.083</ele>
        <time>2010-09-19T09:15:04Z</time>
      </trkpt>
      <trkpt lat="43.26937" lon="-0.42233">
        <ele>315.723</ele>
        <time>2010-09-19T09:15:11Z</time>
      </trkpt>
      <trkpt lat="43.26934" lon="-0.42235">
        <ele>316.735</ele>
        <time>2010-09-19T09:15:15Z</time>
      </trkpt>
      <trkpt lat="43.26931" lon="-0.42238">
        <ele>318.494</ele>
        <time>2010-09-19T09:15:21Z</time>
      </trkpt>
      <trkpt lat="43.26929" lon="-0.42241">
        <ele>320.033</ele>
        <time>2010-09-19T09:15:27Z</time>
      </trkpt>
      <trkpt lat="43.26926" lon="-0.42244">
        <ele>321.141</ele>
        <time>2010-09-19T09:15:33Z</time>
      </trkpt>
      <trkpt lat="43.26922" lon="-0.42242">
        <ele>321.29</ele>
        <time>2010-09-19T09:15:38Z</time>
      </trkpt>
      <trkpt lat="43.26915" lon="-0.42234">
        <ele>321.43</ele>
        <time>2010-09-19T09:15:43Z</time>
      </trkpt>
      <trkpt lat="43.26901" lon="-0.42217">
        <ele>321.38</ele>
        <time>2010-09-19T09:15:49Z</time>
      </trkpt>
      <trkpt lat="43.26888" lon="-0.42196">
        <ele>321.66</ele>
        <time>2010-09-19T09:15:55Z</time>
      </trkpt>
      <trkpt lat="43.26881" lon="-0.42186">
        <ele>321.806</ele>
        <time>2010-09-19T09:15:58Z</time>
      </trkpt>
      <trkpt lat="43.26867" lon="-0.42183">
        <ele>323.092</ele>
        <time>2010-09-19T09:16:02Z</time>
      </trkpt>
      <trkpt lat="43.26865" lon="-0.42186">
        <ele>323.276</ele>
        <time>2010-09-19T09:16:03Z</time>
      </trkpt>
      <trkpt lat="43.2685" lon="-0.42205">
        <ele>323.674</ele>
        <time>2010-09-19T09:16:09Z</time>
      </trkpt>
      <trkpt lat="43.26843" lon="-0.42217">
        <ele>322.111</ele>
        <time>2010-09-19T09:16:12Z</time>
      </trkpt>
      <trkpt lat="43.26846" lon="-0.4223">
        <ele>320.434</ele>
        <time>2010-09-19T09:16:16Z</time>
      </trkpt>
      <trkpt lat="43.26871" lon="-0.42262">
        <ele>321.117</ele>
        <time>2010-09-19T09:16:25Z</time>
      </trkpt>
      <trkpt lat="43.26894" lon="-0.42292">
        <ele>321.86</ele>
        <time>2010-09-19T09:16:34Z</time>
      </trkpt>
      <trkpt lat="43.26908" lon="-0.42315">
        <ele>321.812</ele>
        <time>2010-09-19T09:16:40Z</time>
      </trkpt>
      <trkpt lat="43.2692" lon="-0.42326">
        <ele>321.565</ele>
        <time>2010-09-19T09:16:44Z</time>
      </trkpt>
      <trkpt lat="43.26936" lon="-0.42336">
        <ele>322.25</ele>
        <time>2010-09-19T09:16:50Z</time>
      </trkpt>
      <trkpt lat="43.26945" lon="-0.42334">
        <ele>323.063</ele>
        <time>2010-09-19T09:16:54Z</time>
      </trkpt>
      <trkpt lat="43.26949" lon="-0.42329">
        <ele>323.414</ele>
        <time>2010-09-19T09:16:56Z</time>
      </trkpt>
      <trkpt lat="43.26951" lon="-0.42324">
        <ele>323.814</ele>
        <time>2010-09-19T09:17:02Z</time>
      </trkpt>
      <trkpt lat="43.26951" lon="-0.42321">
        <ele>323.783</ele>
        <time>2010-09-19T09:17:09Z</time>
      </trkpt>
      <trkpt lat="43.26951" lon="-0.4232">
        <ele>324.311</ele>
        <time>2010-09-19T09:17:21Z</time>
      </trkpt>
      <trkpt lat="43.26952" lon="-0.42319">
        <ele>323.782</ele>
        <time>2010-09-19T09:17:32Z</time>
      </trkpt>
      <trkpt lat="43.26958" lon="-0.42319">
        <ele>323.901</ele>
        <time>2010-09-19T09:17:40Z</time>
      </trkpt>
      <trkpt lat="43.2696" lon="-0.42319">
        <ele>323.81</ele>
        <time>2010-09-19T09:18:03Z</time>
      </trkpt>
      <trkpt lat="43.26961" lon="-0.42319">
        <ele>324.005</ele>
        <time>2010-09-19T09:18:36Z</time>
      </trkpt>
      <trkpt lat="43.26959" lon="-0.42319">
        <ele>323.97</ele>
        <time>2010-09-19T09:19:00Z</time>
      </trkpt>
      <trkpt lat="43.26959" lon="-0.42319">
        <ele>324.276</ele>
        <time>2010-09-19T09:19:13Z</time>
      </trkpt>
      <trkpt lat="43.26961" lon="-0.42322">
        <ele>324.188</ele>
        <time>2010-09-19T09:19:22Z</time>
      </trkpt>
      <trkpt lat="43.2696" lon="-0.42324">
        <ele>324.314</ele>
        <time>2010-09-19T09:19:28Z</time>
      </trkpt>
      <trkpt lat="43.2696" lon="-0.42324">
        <ele>324.478</ele>
        <time>2010-09-19T09:19:33Z</time>
      </trkpt>
      <trkpt lat="43.2696" lon="-0.42325">
        <ele>324.51</ele>
        <time>2010-09-19T09:19:34Z</time>
      </trkpt>
      <trkpt lat="43.26955" lon="-0.4233">
        <ele>324.499</ele>
        <time>2010-09-19T09:19:41Z</time>
      </trkpt>
      <trkpt lat="43.26961" lon="-0.4232">
        <ele>324.193</ele>
        <time>2010-09-19T09:19:50Z</time>
      </trkpt>
      <trkpt lat="43.26963" lon="-0.42316">
        <ele>323.97</ele>
        <time>2010-09-19T09:19:56Z</time>
      </trkpt>
      <trkpt lat="43.26963" lon="-0.42316">
        <ele>323.993</ele>
        <time>2010-09-19T09:19:57Z</time>
      </trkpt>
      <trkpt lat="43.26966" lon="-0.42312">
        <ele>323.554</ele>
        <time>2010-09-19T09:20:03Z</time>
      </trkpt>
      <trkpt lat="43.26965" lon="-0.4231">
        <ele>323.449</ele>
        <time>2010-09-19T09:20:05Z</time>
      </trkpt>
      <trkpt lat="43.26965" lon="-0.4231">
        <ele>323.39</ele>
        <time>2010-09-19T09:20:08Z</time>
      </trkpt>
      <trkpt lat="43.26979" lon="-0.42305">
        <ele>323.157</ele>
        <time>2010-09-19T09:20:15Z</time>
      </trkpt>
      <trkpt lat="43.2698" lon="-0.42296">
        <ele>323.185</ele>
        <time>2010-09-19T09:20:36Z</time>
      </trkpt>
      <trkpt lat="43.26976" lon="-0.42294">
        <ele>322.95</ele>
        <time>2010-09-19T09:20:42Z</time>
      </trkpt>
      <trkpt lat="43.26983" lon="-0.4229">
        <ele>322.787</ele>
        <time>2010-09-19T09:20:47Z</time>
      </trkpt>
      <trkpt lat="43.26985" lon="-0.42291">
        <ele>322.714</ele>
        <time>2010-09-19T09:20:48Z</time>
      </trkpt>
      <trkpt lat="43.27" lon="-0.42299">
        <ele>322.897</ele>
        <time>2010-09-19T09:20:55Z</time>
      </trkpt>
      <trkpt lat="43.27016" lon="-0.42302">
        <ele>323.157</ele>
        <time>2010-09-19T09:21:01Z</time>
      </trkpt>
      <trkpt lat="43.2704" lon="-0.42309">
        <ele>323.221</ele>
        <time>2010-09-19T09:21:09Z</time>
      </trkpt>
      <trkpt lat="43.27069" lon="-0.4232">
        <ele>322.681</ele>
        <time>2010-09-19T09:21:17Z</time>
      </trkpt>
      <trkpt lat="43.27075" lon="-0.42323">
        <ele>322.145</ele>
        <time>2010-09-19T09:21:20Z</time>
      </trkpt>
      <trkpt lat="43.27086" lon="-0.42327">
        <ele>321.416</ele>
        <time>2010-09-19T09:21:26Z</time>
      </trkpt>
      <trkpt lat="43.27092" lon="-0.42331">
        <ele>320.83</ele>
        <time>2010-09-19T09:21:30Z</time>
      </trkpt>
      <trkpt lat="43.27109" lon="-0.42332">
        <ele>320.397</ele>
        <time>2010-09-19T09:21:34Z</time>
      </trkpt>
      <trkpt lat="43.27133" lon="-0.42338">
        <ele>319.315</ele>
        <time>2010-09-19T09:21:38Z</time>
      </trkpt>
      <trkpt lat="43.27173" lon="-0.42352">
        <ele>317.382</ele>
        <time>2010-09-19T09:21:46Z</time>
      </trkpt>
      <trkpt lat="43.27178" lon="-0.42355">
        <ele>317.209</ele>
        <time>2010-09-19T09:21:47Z</time>
      </trkpt>
      <trkpt lat="43.27199" lon="-0.42376">
        <ele>316.394</ele>
        <time>2010-09-19T09:21:52Z</time>
      </trkpt>
      <trkpt lat="43.27202" lon="-0.42381">
        <ele>316.227</ele>
        <time>2010-09-19T09:21:53Z</time>
      </trkpt>
      <trkpt lat="43.27229" lon="-0.42423">
        <ele>315.363</ele>
        <time>2010-09-19T09:22:00Z</time>
      </trkpt>
      <trkpt lat="43.27255" lon="-0.42454">
        <ele>315.079</ele>
        <time>2010-09-19T09:22:06Z</time>
      </trkpt>
      <trkpt lat="43.27264" lon="-0.42468">
        <ele>315.494</ele>
        <time>2010-09-19T09:22:10Z</time>
      </trkpt>
      <trkpt lat="43.27273" lon="-0.42483">
        <ele>315.629</ele>
        <time>2010-09-19T09:22:14Z</time>
      </trkpt>
      <trkpt lat="43.27291" lon="-0.42516">
        <ele>316.424</ele>
        <time>2010-09-19T09:22:21Z</time>
      </trkpt>
      <trkpt lat="43.27301" lon="-0.42534">
        <ele>316.836</ele>
        <time>2010-09-19T09:22:26Z</time>
      </trkpt>
      <trkpt lat="43.27316" lon="-0.42546">
        <ele>317.331</ele>
        <time>2010-09-19T09:22:31Z</time>
      </trkpt>
      <trkpt lat="43.2732" lon="-0.42546">
        <ele>317.396</ele>
        <time>2010-09-19T09:22:32Z</time>
      </trkpt>
      <trkpt lat="43.27351" lon="-0.42537">
        <ele>316.301</ele>
        <time>2010-09-19T09:22:38Z</time>
      </trkpt>
      <trkpt lat="43.27385" lon="-0.42527">
        <ele>314.275</ele>
        <time>2010-09-19T09:22:43Z</time>
      </trkpt>
      <trkpt lat="43.27393" lon="-0.42524">
        <ele>314.035</ele>
        <time>2010-09-19T09:22:44Z</time>
      </trkpt>
      <trkpt lat="43.27421" lon="-0.42526">
        <ele>312.807</ele>
        <time>2010-09-19T09:22:48Z</time>
      </trkpt>
      <trkpt lat="43.27427" lon="-0.42532">
        <ele>312.668</ele>
        <time>2010-09-19T09:22:49Z</time>
      </trkpt>
      <trkpt lat="43.27462" lon="-0.42571">
        <ele>311.43</ele>
        <time>2010-09-19T09:22:56Z</time>
      </trkpt>
      <trkpt lat="43.27484" lon="-0.42606">
        <ele>309.79</ele>
        <time>2010-09-19T09:23:01Z</time>
      </trkpt>
      <trkpt lat="43.27508" lon="-0.42649">
        <ele>305.448</ele>
        <time>2010-09-19T09:23:06Z</time>
      </trkpt>
      <trkpt lat="43.27536" lon="-0.42697">
        <ele>300.826</ele>
        <time>2010-09-19T09:23:11Z</time>
      </trkpt>
      <trkpt lat="43.27573" lon="-0.42769">
        <ele>294.819</ele>
        <time>2010-09-19T09:23:18Z</time>
      </trkpt>
      <trkpt lat="43.27579" lon="-0.4278">
        <ele>293.949</ele>
        <time>2010-09-19T09:23:19Z</time>
      </trkpt>
      <trkpt lat="43.27615" lon="-0.42815">
        <ele>290.355</ele>
        <time>2010-09-19T09:23:24Z</time>
      </trkpt>
      <trkpt lat="43.27638" lon="-0.42831">
        <ele>288.752</ele>
        <time>2010-09-19T09:23:27Z</time>
      </trkpt>
      <trkpt lat="43.27683" lon="-0.42871">
        <ele>286.572</ele>
        <time>2010-09-19T09:23:33Z</time>
      </trkpt>
      <trkpt lat="43.27733" lon="-0.42907">
        <ele>283.741</ele>
        <time>2010-09-19T09:23:39Z</time>
      </trkpt>
      <trkpt lat="43.27767" lon="-0.42925">
        <ele>282.241</ele>
        <time>2010-09-19T09:23:43Z</time>
      </trkpt>
      <trkpt lat="43.278" lon="-0.42957">
        <ele>280.983</ele>
        <time>2010-09-19T09:23:48Z</time>
      </trkpt>
      <trkpt lat="43.2783" lon="-0.42985">
        <ele>281.304</ele>
        <time>2010-09-19T09:23:53Z</time>
      </trkpt>
      <trkpt lat="43.27867" lon="-0.43004">
        <ele>282.177</ele>
        <time>2010-09-19T09:23:59Z</time>
      </trkpt>
      <trkpt lat="43.27905" lon="-0.43023">
        <ele>282.659</ele>
        <time>2010-09-19T09:24:06Z</time>
      </trkpt>
      <trkpt lat="43.27935" lon="-0.43046">
        <ele>282.517</ele>
        <time>2010-09-19T09:24:12Z</time>
      </trkpt>
      <trkpt lat="43.27976" lon="-0.43079">
        <ele>280.718</ele>
        <time>2010-09-19T09:24:20Z</time>
      </trkpt>
      <trkpt lat="43.28012" lon="-0.43115">
        <ele>278.475</ele>
        <time>2010-09-19T09:24:26Z</time>
      </trkpt>
      <trkpt lat="43.28054" lon="-0.4315">
        <ele>276.71</ele>
        <time>2010-09-19T09:24:33Z</time>
      </trkpt>
      <trkpt lat="43.28075" lon="-0.43163">
        <ele>274.887</ele>
        <time>2010-09-19T09:24:38Z</time>
      </trkpt>
      <trkpt lat="43.28077" lon="-0.43165">
        <ele>274.58</ele>
        <time>2010-09-19T09:24:39Z</time>
      </trkpt>
      <trkpt lat="43.28078" lon="-0.43171">
        <ele>274.336</ele>
        <time>2010-09-19T09:24:44Z</time>
      </trkpt>
      <trkpt lat="43.28076" lon="-0.43172">
        <ele>274.498</ele>
        <time>2010-09-19T09:24:48Z</time>
      </trkpt>
      <trkpt lat="43.28071" lon="-0.43178">
        <ele>275.31</ele>
        <time>2010-09-19T09:24:54Z</time>
      </trkpt>
      <trkpt lat="43.28064" lon="-0.43189">
        <ele>275.107</ele>
        <time>2010-09-19T09:24:57Z</time>
      </trkpt>
      <trkpt lat="43.28051" lon="-0.43224">
        <ele>272.281</ele>
        <time>2010-09-19T09:25:02Z</time>
      </trkpt>
      <trkpt lat="43.28041" lon="-0.43256">
        <ele>268.248</ele>
        <time>2010-09-19T09:25:06Z</time>
      </trkpt>
      <trkpt lat="43.28036" lon="-0.43282">
        <ele>263.983</ele>
        <time>2010-09-19T09:25:10Z</time>
      </trkpt>
      <trkpt lat="43.28023" lon="-0.43296">
        <ele>260.427</ele>
        <time>2010-09-19T09:25:14Z</time>
      </trkpt>
      <trkpt lat="43.2801" lon="-0.43298">
        <ele>259.339</ele>
        <time>2010-09-19T09:25:17Z</time>
      </trkpt>
      <trkpt lat="43.28001" lon="-0.43299">
        <ele>258.511</ele>
        <time>2010-09-19T09:25:19Z</time>
      </trkpt>
      <trkpt lat="43.27963" lon="-0.43308">
        <ele>252.069</ele>
        <time>2010-09-19T09:25:26Z</time>
      </trkpt>
      <trkpt lat="43.27939" lon="-0.433">
        <ele>248.533</ele>
        <time>2010-09-19T09:25:31Z</time>
      </trkpt>
      <trkpt lat="43.27929" lon="-0.43298">
        <ele>246.77</ele>
        <time>2010-09-19T09:25:34Z</time>
      </trkpt>
      <trkpt lat="43.27931" lon="-0.43309">
        <ele>245.366</ele>
        <time>2010-09-19T09:25:38Z</time>
      </trkpt>
      <trkpt lat="43.27934" lon="-0.43318">
        <ele>244.288</ele>
        <time>2010-09-19T09:25:40Z</time>
      </trkpt>
      <trkpt lat="43.27953" lon="-0.43354">
        <ele>237.193</ele>
        <time>2010-09-19T09:25:45Z</time>
      </trkpt>
      <trkpt lat="43.27961" lon="-0.43369">
        <ele>234.962</ele>
        <time>2010-09-19T09:25:47Z</time>
      </trkpt>
      <trkpt lat="43.27979" lon="-0.43404">
        <ele>228.763</ele>
        <time>2010-09-19T09:25:52Z</time>
      </trkpt>
      <trkpt lat="43.27981" lon="-0.43409">
        <ele>227.799</ele>
        <time>2010-09-19T09:25:53Z</time>
      </trkpt>
      <trkpt lat="43.27983" lon="-0.43415">
        <ele>225.973</ele>
        <time>2010-09-19T09:25:55Z</time>
      </trkpt>
      <trkpt lat="43.27966" lon="-0.43416">
        <ele>220.36</ele>
        <time>2010-09-19T09:25:59Z</time>
      </trkpt>
      <trkpt lat="43.27934" lon="-0.43414">
        <ele>211.67</ele>
        <time>2010-09-19T09:26:04Z</time>
      </trkpt>
      <trkpt lat="43.27928" lon="-0.43417">
        <ele>209.342</ele>
        <time>2010-09-19T09:26:06Z</time>
      </trkpt>
      <trkpt lat="43.27938" lon="-0.43442">
        <ele>204.906</ele>
        <time>2010-09-19T09:26:10Z</time>
      </trkpt>
      <trkpt lat="43.27943" lon="-0.4345">
        <ele>202.567</ele>
        <time>2010-09-19T09:26:11Z</time>
      </trkpt>
      <trkpt lat="43.27952" lon="-0.43466">
        <ele>197.886</ele>
        <time>2010-09-19T09:26:13Z</time>
      </trkpt>
      <trkpt lat="43.27964" lon="-0.43489">
        <ele>192.106</ele>
        <time>2010-09-19T09:26:17Z</time>
      </trkpt>
      <trkpt lat="43.27961" lon="-0.43489">
        <ele>189.816</ele>
        <time>2010-09-19T09:26:19Z</time>
      </trkpt>
      <trkpt lat="43.27944" lon="-0.43484">
        <ele>185.577</ele>
        <time>2010-09-19T09:26:24Z</time>
      </trkpt>
      <trkpt lat="43.27938" lon="-0.43484">
        <ele>184.926</ele>
        <time>2010-09-19T09:26:26Z</time>
      </trkpt>
      <trkpt lat="43.27927" lon="-0.4348">
        <ele>184.773</ele>
        <time>2010-09-19T09:26:30Z</time>
      </trkpt>
      <trkpt lat="43.27918" lon="-0.43471">
        <ele>185.459</ele>
        <time>2010-09-19T09:26:35Z</time>
      </trkpt>
      <trkpt lat="43.27915" lon="-0.43469">
        <ele>185.519</ele>
        <time>2010-09-19T09:26:36Z</time>
      </trkpt>
      <trkpt lat="43.27898" lon="-0.4346">
        <ele>186.06</ele>
        <time>2010-09-19T09:26:43Z</time>
      </trkpt>
      <trkpt lat="43.27884" lon="-0.43452">
        <ele>186.963</ele>
        <time>2010-09-19T09:26:49Z</time>
      </trkpt>
      <trkpt lat="43.27882" lon="-0.43449">
        <ele>187.499</ele>
        <time>2010-09-19T09:26:52Z</time>
      </trkpt>
      <trkpt lat="43.27879" lon="-0.43442">
        <ele>188.916</ele>
        <time>2010-09-19T09:26:58Z</time>
      </trkpt>
      <trkpt lat="43.27874" lon="-0.43437">
        <ele>190.04</ele>
        <time>2010-09-19T09:27:02Z</time>
      </trkpt>
      <trkpt lat="43.27861" lon="-0.4343">
        <ele>192.219</ele>
        <time>2010-09-19T09:27:09Z</time>
      </trkpt>
      <trkpt lat="43.27852" lon="-0.43421">
        <ele>193.805</ele>
        <time>2010-09-19T09:27:15Z</time>
      </trkpt>
      <trkpt lat="43.27848" lon="-0.43414">
        <ele>194.953</ele>
        <time>2010-09-19T09:27:20Z</time>
      </trkpt>
      <trkpt lat="43.27845" lon="-0.43414">
        <ele>195.089</ele>
        <time>2010-09-19T09:27:21Z</time>
      </trkpt>
      <trkpt lat="43.27844" lon="-0.43409">
        <ele>195.861</ele>
        <time>2010-09-19T09:27:24Z</time>
      </trkpt>
      <trkpt lat="43.27833" lon="-0.43405">
        <ele>197.072</ele>
        <time>2010-09-19T09:27:29Z</time>
      </trkpt>
      <trkpt lat="43.27815" lon="-0.43399">
        <ele>199.561</ele>
        <time>2010-09-19T09:27:37Z</time>
      </trkpt>
      <trkpt lat="43.27809" lon="-0.43397">
        <ele>200.73</ele>
        <time>2010-09-19T09:27:42Z</time>
      </trkpt>
      <trkpt lat="43.27805" lon="-0.43394">
        <ele>202.024</ele>
        <time>2010-09-19T09:27:47Z</time>
      </trkpt>
      <trkpt lat="43.27798" lon="-0.43391">
        <ele>203.595</ele>
        <time>2010-09-19T09:27:53Z</time>
      </trkpt>
      <trkpt lat="43.27796" lon="-0.43387">
        <ele>204.686</ele>
        <time>2010-09-19T09:27:58Z</time>
      </trkpt>
      <trkpt lat="43.27793" lon="-0.43386">
        <ele>205.657</ele>
        <time>2010-09-19T09:28:03Z</time>
      </trkpt>
      <trkpt lat="43.27786" lon="-0.43381">
        <ele>206.729</ele>
        <time>2010-09-19T09:28:09Z</time>
      </trkpt>
      <trkpt lat="43.27778" lon="-0.43373">
        <ele>207.755</ele>
        <time>2010-09-19T09:28:16Z</time>
      </trkpt>
      <trkpt lat="43.27767" lon="-0.43367">
        <ele>208.874</ele>
        <time>2010-09-19T09:28:23Z</time>
      </trkpt>
      <trkpt lat="43.27763" lon="-0.43365">
        <ele>209.731</ele>
        <time>2010-09-19T09:28:27Z</time>
      </trkpt>
      <trkpt lat="43.27761" lon="-0.43359">
        <ele>211.469</ele>
        <time>2010-09-19T09:28:35Z</time>
      </trkpt>
      <trkpt lat="43.27763" lon="-0.4336">
        <ele>211.97</ele>
        <time>2010-09-19T09:28:37Z</time>
      </trkpt>
      <trkpt lat="43.27764" lon="-0.43367">
        <ele>212.992</ele>
        <time>2010-09-19T09:28:43Z</time>
      </trkpt>
      <trkpt lat="43.27765" lon="-0.43371">
        <ele>213.273</ele>
        <time>2010-09-19T09:28:46Z</time>
      </trkpt>
      <trkpt lat="43.27771" lon="-0.43376">
        <ele>214.732</ele>
        <time>2010-09-19T09:28:53Z</time>
      </trkpt>
      <trkpt lat="43.27772" lon="-0.43377">
        <ele>214.935</ele>
        <time>2010-09-19T09:28:54Z</time>
      </trkpt>
      <trkpt lat="43.27778" lon="-0.43381">
        <ele>215.544</ele>
        <time>2010-09-19T09:28:58Z</time>
      </trkpt>
      <trkpt lat="43.27786" lon="-0.4339">
        <ele>216.994</ele>
        <time>2010-09-19T09:29:06Z</time>
      </trkpt>
      <trkpt lat="43.27792" lon="-0.43399">
        <ele>218.314</ele>
        <time>2010-09-19T09:29:13Z</time>
      </trkpt>
      <trkpt lat="43.27795" lon="-0.43406">
        <ele>219.432</ele>
        <time>2010-09-19T09:29:18Z</time>
      </trkpt>
      <trkpt lat="43.278" lon="-0.4341">
        <ele>220.636</ele>
        <time>2010-09-19T09:29:24Z</time>
      </trkpt>
      <trkpt lat="43.27793" lon="-0.43408">
        <ele>221.144</ele>
        <time>2010-09-19T09:29:28Z</time>
      </trkpt>
      <trkpt lat="43.27775" lon="-0.43403">
        <ele>222.709</ele>
        <time>2010-09-19T09:29:36Z</time>
      </trkpt>
      <trkpt lat="43.27765" lon="-0.434">
        <ele>224.117</ele>
        <time>2010-09-19T09:29:43Z</time>
      </trkpt>
      <trkpt lat="43.2776" lon="-0.43399">
        <ele>225.179</ele>
        <time>2010-09-19T09:29:48Z</time>
      </trkpt>
      <trkpt lat="43.27754" lon="-0.43398">
        <ele>226.601</ele>
        <time>2010-09-19T09:29:55Z</time>
      </trkpt>
      <trkpt lat="43.27745" lon="-0.43395">
        <ele>228.11</ele>
        <time>2010-09-19T09:30:04Z</time>
      </trkpt>
      <trkpt lat="43.27736" lon="-0.43391">
        <ele>229.756</ele>
        <time>2010-09-19T09:30:13Z</time>
      </trkpt>
      <trkpt lat="43.27732" lon="-0.43389">
        <ele>230.75</ele>
        <time>2010-09-19T09:30:19Z</time>
      </trkpt>
      <trkpt lat="43.27728" lon="-0.43383">
        <ele>232.512</ele>
        <time>2010-09-19T09:30:27Z</time>
      </trkpt>
      <trkpt lat="43.27723" lon="-0.43377">
        <ele>233.908</ele>
        <time>2010-09-19T09:30:34Z</time>
      </trkpt>
      <trkpt lat="43.27709" lon="-0.43371">
        <ele>235.312</ele>
        <time>2010-09-19T09:30:41Z</time>
      </trkpt>
      <trkpt lat="43.27703" lon="-0.43368">
        <ele>236.84</ele>
        <time>2010-09-19T09:30:48Z</time>
      </trkpt>
      <trkpt lat="43.27702" lon="-0.43368">
        <ele>237.148</ele>
        <time>2010-09-19T09:30:49Z</time>
      </trkpt>
      <trkpt lat="43.277" lon="-0.43372">
        <ele>237.925</ele>
        <time>2010-09-19T09:30:53Z</time>
      </trkpt>
      <trkpt lat="43.27702" lon="-0.43381">
        <ele>239.475</ele>
        <time>2010-09-19T09:31:00Z</time>
      </trkpt>
      <trkpt lat="43.27703" lon="-0.43383">
        <ele>240.012</ele>
        <time>2010-09-19T09:31:02Z</time>
      </trkpt>
      <trkpt lat="43.27708" lon="-0.43392">
        <ele>241.654</ele>
        <time>2010-09-19T09:31:10Z</time>
      </trkpt>
      <trkpt lat="43.27708" lon="-0.43398">
        <ele>242.642</ele>
        <time>2010-09-19T09:31:14Z</time>
      </trkpt>
      <trkpt lat="43.27711" lon="-0.43406">
        <ele>243.806</ele>
        <time>2010-09-19T09:31:20Z</time>
      </trkpt>
      <trkpt lat="43.27714" lon="-0.4341">
        <ele>244.428</ele>
        <time>2010-09-19T09:31:24Z</time>
      </trkpt>
      <trkpt lat="43.27717" lon="-0.43417">
        <ele>245.762</ele>
        <time>2010-09-19T09:31:31Z</time>
      </trkpt>
      <trkpt lat="43.2772" lon="-0.43421">
        <ele>246.312</ele>
        <time>2010-09-19T09:31:35Z</time>
      </trkpt>
      <trkpt lat="43.27726" lon="-0.43426">
        <ele>246.941</ele>
        <time>2010-09-19T09:31:40Z</time>
      </trkpt>
      <trkpt lat="43.27736" lon="-0.43435">
        <ele>247.873</ele>
        <time>2010-09-19T09:31:48Z</time>
      </trkpt>
      <trkpt lat="43.27744" lon="-0.43447">
        <ele>248.658</ele>
        <time>2010-09-19T09:31:54Z</time>
      </trkpt>
      <trkpt lat="43.27749" lon="-0.43453">
        <ele>248.646</ele>
        <time>2010-09-19T09:31:56Z</time>
      </trkpt>
      <trkpt lat="43.2776" lon="-0.43471">
        <ele>248.326</ele>
        <time>2010-09-19T09:32:01Z</time>
      </trkpt>
      <trkpt lat="43.27768" lon="-0.4348">
        <ele>247.794</ele>
        <time>2010-09-19T09:32:03Z</time>
      </trkpt>
      <trkpt lat="43.27791" lon="-0.43506">
        <ele>247.112</ele>
        <time>2010-09-19T09:32:09Z</time>
      </trkpt>
      <trkpt lat="43.27817" lon="-0.43537">
        <ele>246.994</ele>
        <time>2010-09-19T09:32:17Z</time>
      </trkpt>
      <trkpt lat="43.27824" lon="-0.43547">
        <ele>247.197</ele>
        <time>2010-09-19T09:32:21Z</time>
      </trkpt>
      <trkpt lat="43.27825" lon="-0.43548">
        <ele>246.895</ele>
        <time>2010-09-19T09:32:24Z</time>
      </trkpt>
      <trkpt lat="43.27828" lon="-0.43549">
        <ele>246.749</ele>
        <time>2010-09-19T09:32:31Z</time>
      </trkpt>
      <trkpt lat="43.27826" lon="-0.43549">
        <ele>246.598</ele>
        <time>2010-09-19T09:32:51Z</time>
      </trkpt>
      <trkpt lat="43.27826" lon="-0.4355">
        <ele>246.741</ele>
        <time>2010-09-19T09:33:06Z</time>
      </trkpt>
      <trkpt lat="43.27826" lon="-0.43553">
        <ele>246.79</ele>
        <time>2010-09-19T09:33:09Z</time>
      </trkpt>
      <trkpt lat="43.27821" lon="-0.43561">
        <ele>249.084</ele>
        <time>2010-09-19T09:33:15Z</time>
      </trkpt>
      <trkpt lat="43.27809" lon="-0.4356">
        <ele>250.672</ele>
        <time>2010-09-19T09:33:23Z</time>
      </trkpt>
      <trkpt lat="43.27799" lon="-0.43557">
        <ele>252.659</ele>
        <time>2010-09-19T09:33:30Z</time>
      </trkpt>
      <trkpt lat="43.27791" lon="-0.43553">
        <ele>254.656</ele>
        <time>2010-09-19T09:33:36Z</time>
      </trkpt>
      <trkpt lat="43.27782" lon="-0.43548">
        <ele>256.219</ele>
        <time>2010-09-19T09:33:45Z</time>
      </trkpt>
      <trkpt lat="43.27779" lon="-0.43547">
        <ele>256.559</ele>
        <time>2010-09-19T09:33:48Z</time>
      </trkpt>
      <trkpt lat="43.27774" lon="-0.43544">
        <ele>257.368</ele>
        <time>2010-09-19T09:33:54Z</time>
      </trkpt>
      <trkpt lat="43.27767" lon="-0.43543">
        <ele>258.499</ele>
        <time>2010-09-19T09:34:02Z</time>
      </trkpt>
      <trkpt lat="43.27759" lon="-0.4354">
        <ele>259.664</ele>
        <time>2010-09-19T09:34:10Z</time>
      </trkpt>
      <trkpt lat="43.27754" lon="-0.43538">
        <ele>260.608</ele>
        <time>2010-09-19T09:34:16Z</time>
      </trkpt>
      <trkpt lat="43.27746" lon="-0.43534">
        <ele>262.131</ele>
        <time>2010-09-19T09:34:25Z</time>
      </trkpt>
      <trkpt lat="43.27743" lon="-0.43533">
        <ele>262.482</ele>
        <time>2010-09-19T09:34:28Z</time>
      </trkpt>
      <trkpt lat="43.27738" lon="-0.43532">
        <ele>263.272</ele>
        <time>2010-09-19T09:34:31Z</time>
      </trkpt>
      <trkpt lat="43.27727" lon="-0.43527">
        <ele>264.296</ele>
        <time>2010-09-19T09:34:40Z</time>
      </trkpt>
      <trkpt lat="43.2772" lon="-0.43523">
        <ele>265.25</ele>
        <time>2010-09-19T09:34:47Z</time>
      </trkpt>
      <trkpt lat="43.27716" lon="-0.43519">
        <ele>266.072</ele>
        <time>2010-09-19T09:34:53Z</time>
      </trkpt>
      <trkpt lat="43.27713" lon="-0.43517">
        <ele>266.405</ele>
        <time>2010-09-19T09:34:57Z</time>
      </trkpt>
      <trkpt lat="43.2771" lon="-0.43512">
        <ele>267.321</ele>
        <time>2010-09-19T09:35:01Z</time>
      </trkpt>
      <trkpt lat="43.27705" lon="-0.43508">
        <ele>267.768</ele>
        <time>2010-09-19T09:35:05Z</time>
      </trkpt>
      <trkpt lat="43.27696" lon="-0.43501">
        <ele>269.196</ele>
        <time>2010-09-19T09:35:13Z</time>
      </trkpt>
      <trkpt lat="43.27687" lon="-0.43497">
        <ele>269.906</ele>
        <time>2010-09-19T09:35:19Z</time>
      </trkpt>
      <trkpt lat="43.27674" lon="-0.43495">
        <ele>271.057</ele>
        <time>2010-09-19T09:35:27Z</time>
      </trkpt>
      <trkpt lat="43.27668" lon="-0.43494">
        <ele>271.689</ele>
        <time>2010-09-19T09:35:31Z</time>
      </trkpt>
      <trkpt lat="43.2766" lon="-0.4349">
        <ele>272.586</ele>
        <time>2010-09-19T09:35:37Z</time>
      </trkpt>
      <trkpt lat="43.27658" lon="-0.4349">
        <ele>272.675</ele>
        <time>2010-09-19T09:35:38Z</time>
      </trkpt>
      <trkpt lat="43.2765" lon="-0.43486">
        <ele>273.428</ele>
        <time>2010-09-19T09:35:44Z</time>
      </trkpt>
      <trkpt lat="43.2764" lon="-0.43481">
        <ele>274.481</ele>
        <time>2010-09-19T09:35:51Z</time>
      </trkpt>
      <trkpt lat="43.27637" lon="-0.43479">
        <ele>274.815</ele>
        <time>2010-09-19T09:35:54Z</time>
      </trkpt>
      <trkpt lat="43.27628" lon="-0.43472">
        <ele>275.805</ele>
        <time>2010-09-19T09:36:00Z</time>
      </trkpt>
      <trkpt lat="43.27623" lon="-0.43467">
        <ele>276.126</ele>
        <time>2010-09-19T09:36:04Z</time>
      </trkpt>
      <trkpt lat="43.27612" lon="-0.43456">
        <ele>277.053</ele>
        <time>2010-09-19T09:36:12Z</time>
      </trkpt>
      <trkpt lat="43.27605" lon="-0.43449">
        <ele>277.712</ele>
        <time>2010-09-19T09:36:18Z</time>
      </trkpt>
      <trkpt lat="43.27603" lon="-0.43448">
        <ele>277.827</ele>
        <time>2010-09-19T09:36:19Z</time>
      </trkpt>
      <trkpt lat="43.27592" lon="-0.43438">
        <ele>278.862</ele>
        <time>2010-09-19T09:36:27Z</time>
      </trkpt>
      <trkpt lat="43.27583" lon="-0.43429">
        <ele>279.408</ele>
        <time>2010-09-19T09:36:33Z</time>
      </trkpt>
      <trkpt lat="43.2757" lon="-0.43414">
        <ele>280.371</ele>
        <time>2010-09-19T09:36:39Z</time>
      </trkpt>
      <trkpt lat="43.27561" lon="-0.43403">
        <ele>280.961</ele>
        <time>2010-09-19T09:36:44Z</time>
      </trkpt>
      <trkpt lat="43.27551" lon="-0.43398">
        <ele>282.469</ele>
        <time>2010-09-19T09:36:49Z</time>
      </trkpt>
      <trkpt lat="43.27542" lon="-0.43387">
        <ele>283.579</ele>
        <time>2010-09-19T09:36:55Z</time>
      </trkpt>
      <trkpt lat="43.27532" lon="-0.43376">
        <ele>284.44</ele>
        <time>2010-09-19T09:37:00Z</time>
      </trkpt>
      <trkpt lat="43.27525" lon="-0.43368">
        <ele>285.264</ele>
        <time>2010-09-19T09:37:06Z</time>
      </trkpt>
      <trkpt lat="43.27518" lon="-0.43358">
        <ele>286.44</ele>
        <time>2010-09-19T09:37:12Z</time>
      </trkpt>
      <trkpt lat="43.2751" lon="-0.43349">
        <ele>287.784</ele>
        <time>2010-09-19T09:37:18Z</time>
      </trkpt>
      <trkpt lat="43.27501" lon="-0.4334">
        <ele>289.322</ele>
        <time>2010-09-19T09:37:26Z</time>
      </trkpt>
      <trkpt lat="43.27497" lon="-0.43336">
        <ele>290.089</ele>
        <time>2010-09-19T09:37:30Z</time>
      </trkpt>
      <trkpt lat="43.27495" lon="-0.43335">
        <ele>290.378</ele>
        <time>2010-09-19T09:37:32Z</time>
      </trkpt>
      <trkpt lat="43.27487" lon="-0.4334">
        <ele>290.523</ele>
        <time>2010-09-19T09:37:38Z</time>
      </trkpt>
      <trkpt lat="43.2748" lon="-0.43338">
        <ele>290.137</ele>
        <time>2010-09-19T09:37:42Z</time>
      </trkpt>
      <trkpt lat="43.27478" lon="-0.43335">
        <ele>290.215</ele>
        <time>2010-09-19T09:37:43Z</time>
      </trkpt>
      <trkpt lat="43.27472" lon="-0.43316">
        <ele>291.022</ele>
        <time>2010-09-19T09:37:50Z</time>
      </trkpt>
      <trkpt lat="43.27468" lon="-0.43302">
        <ele>291.701</ele>
        <time>2010-09-19T09:37:56Z</time>
      </trkpt>
      <trkpt lat="43.27461" lon="-0.43289">
        <ele>292.11</ele>
        <time>2010-09-19T09:38:02Z</time>
      </trkpt>
      <trkpt lat="43.27453" lon="-0.43273">
        <ele>293.068</ele>
        <time>2010-09-19T09:38:09Z</time>
      </trkpt>
      <trkpt lat="43.27444" lon="-0.4325">
        <ele>294.495</ele>
        <time>2010-09-19T09:38:16Z</time>
      </trkpt>
      <trkpt lat="43.2743" lon="-0.43232">
        <ele>295.445</ele>
        <time>2010-09-19T09:38:23Z</time>
      </trkpt>
      <trkpt lat="43.27413" lon="-0.43216">
        <ele>296.181</ele>
        <time>2010-09-19T09:38:30Z</time>
      </trkpt>
      <trkpt lat="43.27397" lon="-0.43202">
        <ele>296.5</ele>
        <time>2010-09-19T09:38:36Z</time>
      </trkpt>
      <trkpt lat="43.27383" lon="-0.43192">
        <ele>295.84</ele>
        <time>2010-09-19T09:38:42Z</time>
      </trkpt>
      <trkpt lat="43.27377" lon="-0.43187">
        <ele>295.237</ele>
        <time>2010-09-19T09:38:44Z</time>
      </trkpt>
      <trkpt lat="43.27363" lon="-0.43172">
        <ele>293.913</ele>
        <time>2010-09-19T09:38:48Z</time>
      </trkpt>
      <trkpt lat="43.2736" lon="-0.43167">
        <ele>293.394</ele>
        <time>2010-09-19T09:38:49Z</time>
      </trkpt>
      <trkpt lat="43.27356" lon="-0.43158">
        <ele>292.529</ele>
        <time>2010-09-19T09:38:51Z</time>
      </trkpt>
      <trkpt lat="43.27356" lon="-0.43135">
        <ele>292.703</ele>
        <time>2010-09-19T09:38:56Z</time>
      </trkpt>
      <trkpt lat="43.27356" lon="-0.43102">
        <ele>293.647</ele>
        <time>2010-09-19T09:39:02Z</time>
      </trkpt>
      <trkpt lat="43.27356" lon="-0.43078">
        <ele>294.226</ele>
        <time>2010-09-19T09:39:06Z</time>
      </trkpt>
      <trkpt lat="43.27354" lon="-0.43048">
        <ele>294.464</ele>
        <time>2010-09-19T09:39:11Z</time>
      </trkpt>
      <trkpt lat="43.27354" lon="-0.4303">
        <ele>294.561</ele>
        <time>2010-09-19T09:39:14Z</time>
      </trkpt>
      <trkpt lat="43.27352" lon="-0.43002">
        <ele>294.363</ele>
        <time>2010-09-19T09:39:19Z</time>
      </trkpt>
      <trkpt lat="43.27351" lon="-0.42993">
        <ele>294.091</ele>
        <time>2010-09-19T09:39:21Z</time>
      </trkpt>
      <trkpt lat="43.2735" lon="-0.42962">
        <ele>294.088</ele>
        <time>2010-09-19T09:39:27Z</time>
      </trkpt>
      <trkpt lat="43.27342" lon="-0.42933">
        <ele>295.181</ele>
        <time>2010-09-19T09:39:33Z</time>
      </trkpt>
      <trkpt lat="43.27339" lon="-0.42912">
        <ele>296.42</ele>
        <time>2010-09-19T09:39:38Z</time>
      </trkpt>
      <trkpt lat="43.27335" lon="-0.4288">
        <ele>298.068</ele>
        <time>2010-09-19T09:39:47Z</time>
      </trkpt>
      <trkpt lat="43.27331" lon="-0.42864">
        <ele>298.561</ele>
        <time>2010-09-19T09:39:52Z</time>
      </trkpt>
      <trkpt lat="43.27322" lon="-0.42833">
        <ele>299.411</ele>
        <time>2010-09-19T09:40:01Z</time>
      </trkpt>
      <trkpt lat="43.27317" lon="-0.42818">
        <ele>299.84</ele>
        <time>2010-09-19T09:40:06Z</time>
      </trkpt>
      <trkpt lat="43.2731" lon="-0.42806">
        <ele>300.511</ele>
        <time>2010-09-19T09:40:11Z</time>
      </trkpt>
      <trkpt lat="43.27304" lon="-0.42795">
        <ele>301.413</ele>
        <time>2010-09-19T09:40:16Z</time>
      </trkpt>
      <trkpt lat="43.27297" lon="-0.42786">
        <ele>302.542</ele>
        <time>2010-09-19T09:40:21Z</time>
      </trkpt>
      <trkpt lat="43.27291" lon="-0.42769">
        <ele>305.212</ele>
        <time>2010-09-19T09:40:30Z</time>
      </trkpt>
      <trkpt lat="43.27287" lon="-0.42757">
        <ele>306.758</ele>
        <time>2010-09-19T09:40:38Z</time>
      </trkpt>
      <trkpt lat="43.27289" lon="-0.42746">
        <ele>308.28</ele>
        <time>2010-09-19T09:40:45Z</time>
      </trkpt>
      <trkpt lat="43.27291" lon="-0.42739">
        <ele>309.249</ele>
        <time>2010-09-19T09:40:50Z</time>
      </trkpt>
      <trkpt lat="43.27294" lon="-0.4273">
        <ele>310.934</ele>
        <time>2010-09-19T09:40:57Z</time>
      </trkpt>
      <trkpt lat="43.273" lon="-0.42718">
        <ele>312.696</ele>
        <time>2010-09-19T09:41:06Z</time>
      </trkpt>
      <trkpt lat="43.27303" lon="-0.42712">
        <ele>313.8</ele>
        <time>2010-09-19T09:41:11Z</time>
      </trkpt>
      <trkpt lat="43.27305" lon="-0.42709">
        <ele>314.57</ele>
        <time>2010-09-19T09:41:15Z</time>
      </trkpt>
      <trkpt lat="43.27308" lon="-0.42699">
        <ele>315.879</ele>
        <time>2010-09-19T09:41:22Z</time>
      </trkpt>
      <trkpt lat="43.27313" lon="-0.42695">
        <ele>316.663</ele>
        <time>2010-09-19T09:41:27Z</time>
      </trkpt>
      <trkpt lat="43.27319" lon="-0.4269">
        <ele>317.583</ele>
        <time>2010-09-19T09:41:34Z</time>
      </trkpt>
      <trkpt lat="43.27316" lon="-0.4268">
        <ele>318.694</ele>
        <time>2010-09-19T09:41:40Z</time>
      </trkpt>
      <trkpt lat="43.27315" lon="-0.42679">
        <ele>318.875</ele>
        <time>2010-09-19T09:41:41Z</time>
      </trkpt>
      <trkpt lat="43.27313" lon="-0.42676">
        <ele>318.882</ele>
        <time>2010-09-19T09:41:43Z</time>
      </trkpt>
      <trkpt lat="43.27305" lon="-0.42663">
        <ele>319.101</ele>
        <time>2010-09-19T09:41:50Z</time>
      </trkpt>
      <trkpt lat="43.27293" lon="-0.42636">
        <ele>319.137</ele>
        <time>2010-09-19T09:42:01Z</time>
      </trkpt>
      <trkpt lat="43.27282" lon="-0.42607">
        <ele>319.12</ele>
        <time>2010-09-19T09:42:11Z</time>
      </trkpt>
      <trkpt lat="43.27273" lon="-0.42589">
        <ele>318.339</ele>
        <time>2010-09-19T09:42:16Z</time>
      </trkpt>
      <trkpt lat="43.27257" lon="-0.42548">
        <ele>316.59</ele>
        <time>2010-09-19T09:42:24Z</time>
      </trkpt>
      <trkpt lat="43.27252" lon="-0.42536">
        <ele>316.306</ele>
        <time>2010-09-19T09:42:26Z</time>
      </trkpt>
      <trkpt lat="43.27241" lon="-0.42507">
        <ele>315.573</ele>
        <time>2010-09-19T09:42:32Z</time>
      </trkpt>
      <trkpt lat="43.27225" lon="-0.42476">
        <ele>315.581</ele>
        <time>2010-09-19T09:42:39Z</time>
      </trkpt>
      <trkpt lat="43.27206" lon="-0.42441">
        <ele>315.444</ele>
        <time>2010-09-19T09:42:48Z</time>
      </trkpt>
      <trkpt lat="43.27193" lon="-0.42423">
        <ele>315.721</ele>
        <time>2010-09-19T09:42:54Z</time>
      </trkpt>
      <trkpt lat="43.27186" lon="-0.42418">
        <ele>315.629</ele>
        <time>2010-09-19T09:42:56Z</time>
      </trkpt>
      <trkpt lat="43.27158" lon="-0.42412">
        <ele>314.208</ele>
        <time>2010-09-19T09:43:02Z</time>
      </trkpt>
      <trkpt lat="43.27135" lon="-0.42413">
        <ele>313.69</ele>
        <time>2010-09-19T09:43:07Z</time>
      </trkpt>
      <trkpt lat="43.27117" lon="-0.42416">
        <ele>314.61</ele>
        <time>2010-09-19T09:43:13Z</time>
      </trkpt>
      <trkpt lat="43.27106" lon="-0.42419">
        <ele>315.162</ele>
        <time>2010-09-19T09:43:18Z</time>
      </trkpt>
      <trkpt lat="43.27093" lon="-0.42438">
        <ele>314.827</ele>
        <time>2010-09-19T09:43:24Z</time>
      </trkpt>
      <trkpt lat="43.2707" lon="-0.42469">
        <ele>313.635</ele>
        <time>2010-09-19T09:43:32Z</time>
      </trkpt>
      <trkpt lat="43.27048" lon="-0.42501">
        <ele>313.021</ele>
        <time>2010-09-19T09:43:40Z</time>
      </trkpt>
      <trkpt lat="43.27034" lon="-0.42516">
        <ele>312.742</ele>
        <time>2010-09-19T09:43:46Z</time>
      </trkpt>
      <trkpt lat="43.27029" lon="-0.42525">
        <ele>312.392</ele>
        <time>2010-09-19T09:43:48Z</time>
      </trkpt>
      <trkpt lat="43.27019" lon="-0.42555">
        <ele>309.248</ele>
        <time>2010-09-19T09:43:52Z</time>
      </trkpt>
      <trkpt lat="43.27013" lon="-0.42582">
        <ele>303.291</ele>
        <time>2010-09-19T09:43:55Z</time>
      </trkpt>
      <trkpt lat="43.27" lon="-0.426">
        <ele>298.691</ele>
        <time>2010-09-19T09:43:59Z</time>
      </trkpt>
      <trkpt lat="43.2697" lon="-0.42608">
        <ele>292.717</ele>
        <time>2010-09-19T09:44:04Z</time>
      </trkpt>
      <trkpt lat="43.26953" lon="-0.42591">
        <ele>290.04</ele>
        <time>2010-09-19T09:44:07Z</time>
      </trkpt>
      <trkpt lat="43.26931" lon="-0.42564">
        <ele>286.702</ele>
        <time>2010-09-19T09:44:11Z</time>
      </trkpt>
      <trkpt lat="43.26919" lon="-0.42547">
        <ele>285.16</ele>
        <time>2010-09-19T09:44:14Z</time>
      </trkpt>
      <trkpt lat="43.26913" lon="-0.42535">
        <ele>284.452</ele>
        <time>2010-09-19T09:44:16Z</time>
      </trkpt>
      <trkpt lat="43.26903" lon="-0.42518">
        <ele>284.909</ele>
        <time>2010-09-19T09:44:20Z</time>
      </trkpt>
      <trkpt lat="43.26886" lon="-0.42504">
        <ele>285.936</ele>
        <time>2010-09-19T09:44:26Z</time>
      </trkpt>
      <trkpt lat="43.26871" lon="-0.42494">
        <ele>287.325</ele>
        <time>2010-09-19T09:44:32Z</time>
      </trkpt>
      <trkpt lat="43.26867" lon="-0.42493">
        <ele>287.735</ele>
        <time>2010-09-19T09:44:34Z</time>
      </trkpt>
      <trkpt lat="43.26856" lon="-0.42499">
        <ele>287.298</ele>
        <time>2010-09-19T09:44:38Z</time>
      </trkpt>
      <trkpt lat="43.2685" lon="-0.425">
        <ele>286.813</ele>
        <time>2010-09-19T09:44:39Z</time>
      </trkpt>
      <trkpt lat="43.26822" lon="-0.42497">
        <ele>281.737</ele>
        <time>2010-09-19T09:44:44Z</time>
      </trkpt>
      <trkpt lat="43.268" lon="-0.42482">
        <ele>278.622</ele>
        <time>2010-09-19T09:44:49Z</time>
      </trkpt>
      <trkpt lat="43.26788" lon="-0.42468">
        <ele>277.822</ele>
        <time>2010-09-19T09:44:53Z</time>
      </trkpt>
      <trkpt lat="43.26773" lon="-0.42453">
        <ele>274.997</ele>
        <time>2010-09-19T09:44:57Z</time>
      </trkpt>
      <trkpt lat="43.26756" lon="-0.42443">
        <ele>271.164</ele>
        <time>2010-09-19T09:45:01Z</time>
      </trkpt>
      <trkpt lat="43.26751" lon="-0.42454">
        <ele>268.675</ele>
        <time>2010-09-19T09:45:04Z</time>
      </trkpt>
      <trkpt lat="43.26755" lon="-0.4249">
        <ele>260.497</ele>
        <time>2010-09-19T09:45:10Z</time>
      </trkpt>
      <trkpt lat="43.26754" lon="-0.42525">
        <ele>252.09</ele>
        <time>2010-09-19T09:45:16Z</time>
      </trkpt>
      <trkpt lat="43.26747" lon="-0.42533">
        <ele>251.473</ele>
        <time>2010-09-19T09:45:18Z</time>
      </trkpt>
      <trkpt lat="43.26738" lon="-0.42546">
        <ele>252.432</ele>
        <time>2010-09-19T09:45:22Z</time>
      </trkpt>
      <trkpt lat="43.2674" lon="-0.42565">
        <ele>253.867</ele>
        <time>2010-09-19T09:45:28Z</time>
      </trkpt>
      <trkpt lat="43.26745" lon="-0.42581">
        <ele>254.716</ele>
        <time>2010-09-19T09:45:34Z</time>
      </trkpt>
      <trkpt lat="43.26745" lon="-0.426">
        <ele>255.652</ele>
        <time>2010-09-19T09:45:40Z</time>
      </trkpt>
      <trkpt lat="43.26745" lon="-0.42622">
        <ele>256.631</ele>
        <time>2010-09-19T09:45:48Z</time>
      </trkpt>
      <trkpt lat="43.26746" lon="-0.42638">
        <ele>257.476</ele>
        <time>2010-09-19T09:45:54Z</time>
      </trkpt>
      <trkpt lat="43.26744" lon="-0.42655">
        <ele>258.755</ele>
        <time>2010-09-19T09:46:01Z</time>
      </trkpt>
      <trkpt lat="43.26737" lon="-0.42678">
        <ele>260.131</ele>
        <time>2010-09-19T09:46:10Z</time>
      </trkpt>
      <trkpt lat="43.26728" lon="-0.42694">
        <ele>260.834</ele>
        <time>2010-09-19T09:46:17Z</time>
      </trkpt>
      <trkpt lat="43.26723" lon="-0.42713">
        <ele>261.517</ele>
        <time>2010-09-19T09:46:24Z</time>
      </trkpt>
      <trkpt lat="43.26728" lon="-0.4273">
        <ele>262.719</ele>
        <time>2010-09-19T09:46:31Z</time>
      </trkpt>
      <trkpt lat="43.26736" lon="-0.42748">
        <ele>264.006</ele>
        <time>2010-09-19T09:46:39Z</time>
      </trkpt>
      <trkpt lat="43.26743" lon="-0.4277">
        <ele>265.314</ele>
        <time>2010-09-19T09:46:48Z</time>
      </trkpt>
      <trkpt lat="43.26748" lon="-0.42793">
        <ele>266.603</ele>
        <time>2010-09-19T09:46:57Z</time>
      </trkpt>
      <trkpt lat="43.26751" lon="-0.42819">
        <ele>268.058</ele>
        <time>2010-09-19T09:47:07Z</time>
      </trkpt>
      <trkpt lat="43.26753" lon="-0.42839">
        <ele>269.229</ele>
        <time>2010-09-19T09:47:15Z</time>
      </trkpt>
      <trkpt lat="43.26756" lon="-0.42863">
        <ele>270.96</ele>
        <time>2010-09-19T09:47:24Z</time>
      </trkpt>
      <trkpt lat="43.2676" lon="-0.42884">
        <ele>271.919</ele>
        <time>2010-09-19T09:47:32Z</time>
      </trkpt>
      <trkpt lat="43.26763" lon="-0.42903">
        <ele>272.923</ele>
        <time>2010-09-19T09:47:39Z</time>
      </trkpt>
      <trkpt lat="43.26767" lon="-0.42928">
        <ele>274.368</ele>
        <time>2010-09-19T09:47:48Z</time>
      </trkpt>
      <trkpt lat="43.2677" lon="-0.4295">
        <ele>275.651</ele>
        <time>2010-09-19T09:47:56Z</time>
      </trkpt>
      <trkpt lat="43.26768" lon="-0.42963">
        <ele>276.87</ele>
        <time>2010-09-19T09:48:02Z</time>
      </trkpt>
      <trkpt lat="43.2677" lon="-0.42973">
        <ele>276.875</ele>
        <time>2010-09-19T09:48:06Z</time>
      </trkpt>
      <trkpt lat="43.26771" lon="-0.42983">
        <ele>276.346</ele>
        <time>2010-09-19T09:48:10Z</time>
      </trkpt>
      <trkpt lat="43.26778" lon="-0.43009">
        <ele>272.014</ele>
        <time>2010-09-19T09:48:16Z</time>
      </trkpt>
      <trkpt lat="43.26781" lon="-0.43013">
        <ele>271.357</ele>
        <time>2010-09-19T09:48:17Z</time>
      </trkpt>
      <trkpt lat="43.26808" lon="-0.43034">
        <ele>270.312</ele>
        <time>2010-09-19T09:48:21Z</time>
      </trkpt>
      <trkpt lat="43.26826" lon="-0.43047">
        <ele>271.225</ele>
        <time>2010-09-19T09:48:24Z</time>
      </trkpt>
      <trkpt lat="43.26844" lon="-0.43061">
        <ele>271.815</ele>
        <time>2010-09-19T09:48:29Z</time>
      </trkpt>
      <trkpt lat="43.26859" lon="-0.43087">
        <ele>271.249</ele>
        <time>2010-09-19T09:48:35Z</time>
      </trkpt>
      <trkpt lat="43.26872" lon="-0.43118">
        <ele>270.819</ele>
        <time>2010-09-19T09:48:42Z</time>
      </trkpt>
      <trkpt lat="43.26883" lon="-0.43152">
        <ele>270.026</ele>
        <time>2010-09-19T09:48:49Z</time>
      </trkpt>
      <trkpt lat="43.26892" lon="-0.43174">
        <ele>269.145</ele>
        <time>2010-09-19T09:48:53Z</time>
      </trkpt>
      <trkpt lat="43.26905" lon="-0.43199">
        <ele>267.972</ele>
        <time>2010-09-19T09:48:58Z</time>
      </trkpt>
      <trkpt lat="43.26917" lon="-0.43234">
        <ele>266.761</ele>
        <time>2010-09-19T09:49:05Z</time>
      </trkpt>
      <trkpt lat="43.26916" lon="-0.43249">
        <ele>266.664</ele>
        <time>2010-09-19T09:49:10Z</time>
      </trkpt>
      <trkpt lat="43.26909" lon="-0.43253">
        <ele>267.835</ele>
        <time>2010-09-19T09:49:15Z</time>
      </trkpt>
      <trkpt lat="43.26903" lon="-0.43254">
        <ele>268.651</ele>
        <time>2010-09-19T09:49:18Z</time>
      </trkpt>
      <trkpt lat="43.2689" lon="-0.43264">
        <ele>267.685</ele>
        <time>2010-09-19T09:49:24Z</time>
      </trkpt>
      <trkpt lat="43.26873" lon="-0.43269">
        <ele>265.911</ele>
        <time>2010-09-19T09:49:27Z</time>
      </trkpt>
      <trkpt lat="43.26846" lon="-0.43278">
        <ele>265.231</ele>
        <time>2010-09-19T09:49:32Z</time>
      </trkpt>
      <trkpt lat="43.26843" lon="-0.43278">
        <ele>265.104</ele>
        <time>2010-09-19T09:49:33Z</time>
      </trkpt>
      <trkpt lat="43.2683" lon="-0.43268">
        <ele>266.046</ele>
        <time>2010-09-19T09:49:38Z</time>
      </trkpt>
      <trkpt lat="43.2682" lon="-0.43262">
        <ele>267.57</ele>
        <time>2010-09-19T09:49:44Z</time>
      </trkpt>
      <trkpt lat="43.26816" lon="-0.43261">
        <ele>267.769</ele>
        <time>2010-09-19T09:49:46Z</time>
      </trkpt>
      <trkpt lat="43.26809" lon="-0.43254">
        <ele>268.229</ele>
        <time>2010-09-19T09:49:51Z</time>
      </trkpt>
      <trkpt lat="43.26801" lon="-0.43246">
        <ele>268.512</ele>
        <time>2010-09-19T09:49:57Z</time>
      </trkpt>
      <trkpt lat="43.26789" lon="-0.43236">
        <ele>269.644</ele>
        <time>2010-09-19T09:50:04Z</time>
      </trkpt>
      <trkpt lat="43.26781" lon="-0.43229">
        <ele>270.011</ele>
        <time>2010-09-19T09:50:09Z</time>
      </trkpt>
      <trkpt lat="43.26766" lon="-0.43219">
        <ele>270.398</ele>
        <time>2010-09-19T09:50:16Z</time>
      </trkpt>
      <trkpt lat="43.26755" lon="-0.43211">
        <ele>270.57</ele>
        <time>2010-09-19T09:50:21Z</time>
      </trkpt>
      <trkpt lat="43.26744" lon="-0.432">
        <ele>270.817</ele>
        <time>2010-09-19T09:50:26Z</time>
      </trkpt>
      <trkpt lat="43.26739" lon="-0.4319">
        <ele>271.642</ele>
        <time>2010-09-19T09:50:31Z</time>
      </trkpt>
      <trkpt lat="43.26733" lon="-0.43176">
        <ele>272.315</ele>
        <time>2010-09-19T09:50:37Z</time>
      </trkpt>
      <trkpt lat="43.26725" lon="-0.43155">
        <ele>273.637</ele>
        <time>2010-09-19T09:50:45Z</time>
      </trkpt>
      <trkpt lat="43.26723" lon="-0.4314">
        <ele>274.853</ele>
        <time>2010-09-19T09:50:52Z</time>
      </trkpt>
      <trkpt lat="43.26729" lon="-0.43126">
        <ele>276.413</ele>
        <time>2010-09-19T09:51:00Z</time>
      </trkpt>
      <trkpt lat="43.26738" lon="-0.43111">
        <ele>278.204</ele>
        <time>2010-09-19T09:51:10Z</time>
      </trkpt>
      <trkpt lat="43.26744" lon="-0.43102">
        <ele>279.006</ele>
        <time>2010-09-19T09:51:17Z</time>
      </trkpt>
      <trkpt lat="43.26747" lon="-0.43093">
        <ele>279.686</ele>
        <time>2010-09-19T09:51:23Z</time>
      </trkpt>
      <trkpt lat="43.26751" lon="-0.43081">
        <ele>280.67</ele>
        <time>2010-09-19T09:51:30Z</time>
      </trkpt>
      <trkpt lat="43.2675" lon="-0.43075">
        <ele>281.352</ele>
        <time>2010-09-19T09:51:34Z</time>
      </trkpt>
      <trkpt lat="43.26749" lon="-0.43057">
        <ele>282.246</ele>
        <time>2010-09-19T09:51:45Z</time>
      </trkpt>
      <trkpt lat="43.26748" lon="-0.43042">
        <ele>284.161</ele>
        <time>2010-09-19T09:51:53Z</time>
      </trkpt>
      <trkpt lat="43.26748" lon="-0.43034">
        <ele>286.085</ele>
        <time>2010-09-19T09:51:57Z</time>
      </trkpt>
      <trkpt lat="43.26748" lon="-0.43028">
        <ele>287.3</ele>
        <time>2010-09-19T09:52:01Z</time>
      </trkpt>
      <trkpt lat="43.26747" lon="-0.43016">
        <ele>288.044</ele>
        <time>2010-09-19T09:52:08Z</time>
      </trkpt>
      <trkpt lat="43.26747" lon="-0.43015">
        <ele>287.975</ele>
        <time>2010-09-19T09:52:09Z</time>
      </trkpt>
      <trkpt lat="43.26746" lon="-0.42995">
        <ele>289.115</ele>
        <time>2010-09-19T09:52:20Z</time>
      </trkpt>
      <trkpt lat="43.26739" lon="-0.42973">
        <ele>289.01</ele>
        <time>2010-09-19T09:52:28Z</time>
      </trkpt>
      <trkpt lat="43.26731" lon="-0.4295">
        <ele>289.866</ele>
        <time>2010-09-19T09:52:36Z</time>
      </trkpt>
      <trkpt lat="43.26721" lon="-0.42929">
        <ele>290.882</ele>
        <time>2010-09-19T09:52:44Z</time>
      </trkpt>
      <trkpt lat="43.26716" lon="-0.42909">
        <ele>291.375</ele>
        <time>2010-09-19T09:52:50Z</time>
      </trkpt>
      <trkpt lat="43.26709" lon="-0.42888">
        <ele>292.433</ele>
        <time>2010-09-19T09:52:56Z</time>
      </trkpt>
      <trkpt lat="43.26697" lon="-0.42858">
        <ele>293.719</ele>
        <time>2010-09-19T09:53:05Z</time>
      </trkpt>
      <trkpt lat="43.26686" lon="-0.4283">
        <ele>294.072</ele>
        <time>2010-09-19T09:53:14Z</time>
      </trkpt>
      <trkpt lat="43.26676" lon="-0.42802">
        <ele>294.341</ele>
        <time>2010-09-19T09:53:22Z</time>
      </trkpt>
      <trkpt lat="43.26664" lon="-0.42774">
        <ele>294.412</ele>
        <time>2010-09-19T09:53:29Z</time>
      </trkpt>
      <trkpt lat="43.26653" lon="-0.4275">
        <ele>294.61</ele>
        <time>2010-09-19T09:53:35Z</time>
      </trkpt>
      <trkpt lat="43.26647" lon="-0.42723">
        <ele>294.655</ele>
        <time>2010-09-19T09:53:42Z</time>
      </trkpt>
      <trkpt lat="43.2664" lon="-0.42704">
        <ele>295.056</ele>
        <time>2010-09-19T09:53:47Z</time>
      </trkpt>
      <trkpt lat="43.2663" lon="-0.42679">
        <ele>295.677</ele>
        <time>2010-09-19T09:53:55Z</time>
      </trkpt>
      <trkpt lat="43.26623" lon="-0.42659">
        <ele>295.281</ele>
        <time>2010-09-19T09:54:01Z</time>
      </trkpt>
      <trkpt lat="43.26618" lon="-0.42639">
        <ele>295.694</ele>
        <time>2010-09-19T09:54:07Z</time>
      </trkpt>
      <trkpt lat="43.26611" lon="-0.42622">
        <ele>296.468</ele>
        <time>2010-09-19T09:54:13Z</time>
      </trkpt>
      <trkpt lat="43.26602" lon="-0.42595">
        <ele>297.832</ele>
        <time>2010-09-19T09:54:22Z</time>
      </trkpt>
      <trkpt lat="43.26593" lon="-0.42567">
        <ele>299.606</ele>
        <time>2010-09-19T09:54:31Z</time>
      </trkpt>
      <trkpt lat="43.26582" lon="-0.42536">
        <ele>301.448</ele>
        <time>2010-09-19T09:54:41Z</time>
      </trkpt>
      <trkpt lat="43.26575" lon="-0.42514">
        <ele>302.913</ele>
        <time>2010-09-19T09:54:49Z</time>
      </trkpt>
      <trkpt lat="43.26567" lon="-0.42496">
        <ele>304.168</ele>
        <time>2010-09-19T09:54:57Z</time>
      </trkpt>
      <trkpt lat="43.26555" lon="-0.42474">
        <ele>305.651</ele>
        <time>2010-09-19T09:55:07Z</time>
      </trkpt>
      <trkpt lat="43.26547" lon="-0.42459">
        <ele>306.69</ele>
        <time>2010-09-19T09:55:15Z</time>
      </trkpt>
      <trkpt lat="43.26537" lon="-0.42442">
        <ele>308.043</ele>
        <time>2010-09-19T09:55:25Z</time>
      </trkpt>
      <trkpt lat="43.26543" lon="-0.42439">
        <ele>309.091</ele>
        <time>2010-09-19T09:55:30Z</time>
      </trkpt>
      <trkpt lat="43.26545" lon="-0.4244">
        <ele>309.289</ele>
        <time>2010-09-19T09:55:31Z</time>
      </trkpt>
      <trkpt lat="43.26558" lon="-0.42442">
        <ele>310.887</ele>
        <time>2010-09-19T09:55:39Z</time>
      </trkpt>
      <trkpt lat="43.26561" lon="-0.42442">
        <ele>310.852</ele>
        <time>2010-09-19T09:55:45Z</time>
      </trkpt>
      <trkpt lat="43.26562" lon="-0.42443">
        <ele>311.01</ele>
        <time>2010-09-19T09:55:56Z</time>
      </trkpt>
      <trkpt lat="43.2656" lon="-0.42441">
        <ele>310.961</ele>
        <time>2010-09-19T09:56:13Z</time>
      </trkpt>
      <trkpt lat="43.26556" lon="-0.42433">
        <ele>311.67</ele>
        <time>2010-09-19T09:56:20Z</time>
      </trkpt>
      <trkpt lat="43.26549" lon="-0.42426">
        <ele>312.168</ele>
        <time>2010-09-19T09:56:27Z</time>
      </trkpt>
      <trkpt lat="43.26547" lon="-0.42417">
        <ele>313.22</ele>
        <time>2010-09-19T09:56:33Z</time>
      </trkpt>
      <trkpt lat="43.26541" lon="-0.42403">
        <ele>315.612</ele>
        <time>2010-09-19T09:56:43Z</time>
      </trkpt>
      <trkpt lat="43.26536" lon="-0.42389">
        <ele>318.096</ele>
        <time>2010-09-19T09:56:54Z</time>
      </trkpt>
      <trkpt lat="43.26534" lon="-0.42381">
        <ele>319.414</ele>
        <time>2010-09-19T09:57:00Z</time>
      </trkpt>
      <trkpt lat="43.26531" lon="-0.42374">
        <ele>320.681</ele>
        <time>2010-09-19T09:57:06Z</time>
      </trkpt>
      <trkpt lat="43.26527" lon="-0.4236">
        <ele>322.73</ele>
        <time>2010-09-19T09:57:17Z</time>
      </trkpt>
      <trkpt lat="43.26523" lon="-0.42349">
        <ele>324.86</ele>
        <time>2010-09-19T09:57:27Z</time>
      </trkpt>
      <trkpt lat="43.26521" lon="-0.42339">
        <ele>326.42</ele>
        <time>2010-09-19T09:57:36Z</time>
      </trkpt>
      <trkpt lat="43.26518" lon="-0.42329">
        <ele>327.625</ele>
        <time>2010-09-19T09:57:44Z</time>
      </trkpt>
      <trkpt lat="43.26517" lon="-0.42321">
        <ele>328.949</ele>
        <time>2010-09-19T09:57:51Z</time>
      </trkpt>
      <trkpt lat="43.26514" lon="-0.42309">
        <ele>330.213</ele>
        <time>2010-09-19T09:58:00Z</time>
      </trkpt>
      <trkpt lat="43.2651" lon="-0.42293">
        <ele>332.179</ele>
        <time>2010-09-19T09:58:13Z</time>
      </trkpt>
      <trkpt lat="43.26508" lon="-0.42282">
        <ele>333.157</ele>
        <time>2010-09-19T09:58:21Z</time>
      </trkpt>
      <trkpt lat="43.26504" lon="-0.42269">
        <ele>334.321</ele>
        <time>2010-09-19T09:58:33Z</time>
      </trkpt>
      <trkpt lat="43.265" lon="-0.42259">
        <ele>334.797</ele>
        <time>2010-09-19T09:58:42Z</time>
      </trkpt>
      <trkpt lat="43.26493" lon="-0.42256">
        <ele>335.164</ele>
        <time>2010-09-19T09:58:51Z</time>
      </trkpt>
      <trkpt lat="43.26486" lon="-0.4226">
        <ele>335.3</ele>
        <time>2010-09-19T09:58:58Z</time>
      </trkpt>
      <trkpt lat="43.2648" lon="-0.42259">
        <ele>335.434</ele>
        <time>2010-09-19T09:59:03Z</time>
      </trkpt>
      <trkpt lat="43.26471" lon="-0.42264">
        <ele>335.535</ele>
        <time>2010-09-19T09:59:11Z</time>
      </trkpt>
      <trkpt lat="43.2646" lon="-0.42273">
        <ele>335.141</ele>
        <time>2010-09-19T09:59:17Z</time>
      </trkpt>
      <trkpt lat="43.26439" lon="-0.42291">
        <ele>334.566</ele>
        <time>2010-09-19T09:59:25Z</time>
      </trkpt>
      <trkpt lat="43.26422" lon="-0.42303">
        <ele>334.426</ele>
        <time>2010-09-19T09:59:31Z</time>
      </trkpt>
      <trkpt lat="43.26409" lon="-0.42314">
        <ele>334.533</ele>
        <time>2010-09-19T09:59:37Z</time>
      </trkpt>
      <trkpt lat="43.26396" lon="-0.42325">
        <ele>334.657</ele>
        <time>2010-09-19T09:59:44Z</time>
      </trkpt>
      <trkpt lat="43.2638" lon="-0.42337">
        <ele>335.066</ele>
        <time>2010-09-19T09:59:52Z</time>
      </trkpt>
      <trkpt lat="43.26365" lon="-0.42351">
        <ele>335.86</ele>
        <time>2010-09-19T10:00:00Z</time>
      </trkpt>
      <trkpt lat="43.2635" lon="-0.42358">
        <ele>336.761</ele>
        <time>2010-09-19T10:00:07Z</time>
      </trkpt>
      <trkpt lat="43.26337" lon="-0.42356">
        <ele>337.306</ele>
        <time>2010-09-19T10:00:14Z</time>
      </trkpt>
      <trkpt lat="43.26323" lon="-0.42347">
        <ele>336.994</ele>
        <time>2010-09-19T10:00:20Z</time>
      </trkpt>
      <trkpt lat="43.26309" lon="-0.42335">
        <ele>336.312</ele>
        <time>2010-09-19T10:00:24Z</time>
      </trkpt>
      <trkpt lat="43.26283" lon="-0.42314">
        <ele>334.147</ele>
        <time>2010-09-19T10:00:30Z</time>
      </trkpt>
      <trkpt lat="43.26269" lon="-0.42303">
        <ele>332.261</ele>
        <time>2010-09-19T10:00:34Z</time>
      </trkpt>
      <trkpt lat="43.26256" lon="-0.42296">
        <ele>330.747</ele>
        <time>2010-09-19T10:00:39Z</time>
      </trkpt>
      <trkpt lat="43.26236" lon="-0.42294">
        <ele>328.596</ele>
        <time>2010-09-19T10:00:45Z</time>
      </trkpt>
      <trkpt lat="43.26209" lon="-0.42289">
        <ele>326.355</ele>
        <time>2010-09-19T10:00:51Z</time>
      </trkpt>
      <trkpt lat="43.2619" lon="-0.42286">
        <ele>325.623</ele>
        <time>2010-09-19T10:00:55Z</time>
      </trkpt>
      <trkpt lat="43.26155" lon="-0.42283">
        <ele>324.545</ele>
        <time>2010-09-19T10:01:02Z</time>
      </trkpt>
      <trkpt lat="43.26133" lon="-0.4228">
        <ele>323.795</ele>
        <time>2010-09-19T10:01:06Z</time>
      </trkpt>
      <trkpt lat="43.2611" lon="-0.42264">
        <ele>323.362</ele>
        <time>2010-09-19T10:01:11Z</time>
      </trkpt>
      <trkpt lat="43.26094" lon="-0.42245">
        <ele>324.698</ele>
        <time>2010-09-19T10:01:17Z</time>
      </trkpt>
      <trkpt lat="43.26076" lon="-0.42221">
        <ele>326.431</ele>
        <time>2010-09-19T10:01:26Z</time>
      </trkpt>
      <trkpt lat="43.26063" lon="-0.42202">
        <ele>328.02</ele>
        <time>2010-09-19T10:01:33Z</time>
      </trkpt>
      <trkpt lat="43.26052" lon="-0.42189">
        <ele>328.857</ele>
        <time>2010-09-19T10:01:38Z</time>
      </trkpt>
      <trkpt lat="43.26042" lon="-0.42182">
        <ele>329.756</ele>
        <time>2010-09-19T10:01:43Z</time>
      </trkpt>
      <trkpt lat="43.2603" lon="-0.42182">
        <ele>330.296</ele>
        <time>2010-09-19T10:01:51Z</time>
      </trkpt>
      <trkpt lat="43.2603" lon="-0.42183">
        <ele>330.247</ele>
        <time>2010-09-19T10:02:00Z</time>
      </trkpt>
    </trkseg>
  </trk>
  <trk>
    <name><![CDATA[Cirque de Lescun]]></name>
    <trkseg>
      <trkpt lat="42.93405" lon="-0.6354">
        <ele>895</ele>
      </trkpt>
      <trkpt lat="42.93366" lon="-0.63703">
        <ele>898</ele>
      </trkpt>
      <trkpt lat="42.93334" lon="-0.63741">
        <ele>905</ele>
      </trkpt>
      <trkpt lat="42.93292" lon="-0.638">
        <ele>914</ele>
      </trkpt>
      <trkpt lat="42.93245" lon="-0.64021">
        <ele>916</ele>
      </trkpt>
      <trkpt lat="42.93277" lon="-0.64163">
        <ele>916</ele>
      </trkpt>
      <trkpt lat="42.93239" lon="-0.64308">
        <ele>936</ele>
      </trkpt>
      <trkpt lat="42.93163" lon="-0.64469">
        <ele>931</ele>
      </trkpt>
      <trkpt lat="42.93121" lon="-0.64599">
        <ele>907</ele>
      </trkpt>
      <trkpt lat="42.93119" lon="-0.64761">
        <ele>920</ele>
      </trkpt>
      <trkpt lat="42.93056" lon="-0.64932">
        <ele>940</ele>
      </trkpt>
      <trkpt lat="42.93014" lon="-0.65153">
        <ele>940</ele>
      </trkpt>
      <trkpt lat="42.92927" lon="-0.65362">
        <ele>944</ele>
      </trkpt>
      <trkpt lat="42.92935" lon="-0.65458">
        <ele>940</ele>
      </trkpt>
      <trkpt lat="42.92945" lon="-0.65577">
        <ele>928</ele>
      </trkpt>
      <trkpt lat="42.92973" lon="-0.65649">
        <ele>943</ele>
      </trkpt>
      <trkpt lat="42.92952" lon="-0.65672">
        <ele>935</ele>
      </trkpt>
      <trkpt lat="42.92927" lon="-0.65668">
        <ele>935</ele>
      </trkpt>
      <trkpt lat="42.92903" lon="-0.65587">
        <ele>928</ele>
      </trkpt>
      <trkpt lat="42.92869" lon="-0.65589">
        <ele>936</ele>
      </trkpt>
      <trkpt lat="42.92847" lon="-0.65639">
        <ele>941</ele>
      </trkpt>
      <trkpt lat="42.92739" lon="-0.65579">
        <ele>947</ele>
      </trkpt>
      <trkpt lat="42.92721" lon="-0.65492">
        <ele>939</ele>
      </trkpt>
      <trkpt lat="42.92667" lon="-0.65474">
        <ele>954</ele>
      </trkpt>
      <trkpt lat="42.92688" lon="-0.65619">
        <ele>964</ele>
      </trkpt>
      <trkpt lat="42.92679" lon="-0.65695">
        <ele>966</ele>
      </trkpt>
      <trkpt lat="42.92671" lon="-0.65756">
        <ele>969</ele>
      </trkpt>
      <trkpt lat="42.927" lon="-0.65916">
        <ele>970</ele>
      </trkpt>
      <trkpt lat="42.92786" lon="-0.66064">
        <ele>1006</ele>
      </trkpt>
      <trkpt lat="42.92903" lon="-0.66144">
        <ele>1014</ele>
      </trkpt>
      <trkpt lat="42.9299" lon="-0.66381">
        <ele>1052</ele>
      </trkpt>
      <trkpt lat="42.93122" lon="-0.66565">
        <ele>1075</ele>
      </trkpt>
      <trkpt lat="42.93161" lon="-0.66628">
        <ele>1065</ele>
      </trkpt>
      <trkpt lat="42.9319" lon="-0.66715">
        <ele>1094</ele>
      </trkpt>
      <trkpt lat="42.9326" lon="-0.66783">
        <ele>1057</ele>
      </trkpt>
      <trkpt lat="42.93325" lon="-0.66964">
        <ele>1102</ele>
      </trkpt>
      <trkpt lat="42.93376" lon="-0.66979">
        <ele>1066</ele>
      </trkpt>
      <trkpt lat="42.93453" lon="-0.67127">
        <ele>1129</ele>
      </trkpt>
      <trkpt lat="42.93544" lon="-0.67303">
        <ele>1112</ele>
      </trkpt>
      <trkpt lat="42.93656" lon="-0.6741">
        <ele>1106</ele>
      </trkpt>
      <trkpt lat="42.93712" lon="-0.67483">
        <ele>1086</ele>
      </trkpt>
      <trkpt lat="42.93712" lon="-0.67578">
        <ele>1104</ele>
      </trkpt>
      <trkpt lat="42.93795" lon="-0.67567">
        <ele>1095</ele>
      </trkpt>
      <trkpt lat="42.93868" lon="-0.67601">
        <ele>1095</ele>
      </trkpt>
      <trkpt lat="42.93914" lon="-0.67655">
        <ele>1091</ele>
      </trkpt>
      <trkpt lat="42.93944" lon="-0.67782">
        <ele>1098</ele>
      </trkpt>
      <trkpt lat="42.93968" lon="-0.67833">
        <ele>1088</ele>
      </trkpt>
      <trkpt lat="42.94007" lon="-0.67871">
        <ele>1088</ele>
      </trkpt>
      <trkpt lat="42.94" lon="-0.67801">
        <ele>1088</ele>
      </trkpt>
      <trkpt lat="42.94049" lon="-0.67739">
        <ele>1087</ele>
      </trkpt>
      <trkpt lat="42.94093" lon="-0.67689">
        <ele>1083</ele>
      </trkpt>
      <trkpt lat="42.94175" lon="-0.67648">
        <ele>1088</ele>
      </trkpt>
      <trkpt lat="42.94172" lon="-0.67599">
        <ele>1094</ele>
      </trkpt>
      <trkpt lat="42.94103" lon="-0.67555">
        <ele>1087</ele>
      </trkpt>
      <trkpt lat="42.94076" lon="-0.67493">
        <ele>1104</ele>
      </trkpt>
      <trkpt lat="42.94025" lon="-0.67459">
        <ele>1092</ele>
      </trkpt>
      <trkpt lat="42.94016" lon="-0.67376">
        <ele>1106</ele>
      </trkpt>
      <trkpt lat="42.93931" lon="-0.67305">
        <ele>1107</ele>
      </trkpt>
      <trkpt lat="42.93908" lon="-0.67236">
        <ele>1116</ele>
      </trkpt>
      <trkpt lat="42.93947" lon="-0.6722">
        <ele>1116</ele>
      </trkpt>
      <trkpt lat="42.94045" lon="-0.67249">
        <ele>1137</ele>
      </trkpt>
      <trkpt lat="42.94026" lon="-0.67181">
        <ele>1138</ele>
      </trkpt>
      <trkpt lat="42.94045" lon="-0.67151">
        <ele>1148</ele>
      </trkpt>
      <trkpt lat="42.94093" lon="-0.67139">
        <ele>1148</ele>
      </trkpt>
      <trkpt lat="42.94087" lon="-0.67019">
        <ele>1172</ele>
      </trkpt>
      <trkpt lat="42.94038" lon="-0.66919">
        <ele>1168</ele>
      </trkpt>
      <trkpt lat="42.94034" lon="-0.66845">
        <ele>1177</ele>
      </trkpt>
      <trkpt lat="42.9405" lon="-0.66818">
        <ele>1188</ele>
      </trkpt>
      <trkpt lat="42.94155" lon="-0.66851">
        <ele>1211</ele>
      </trkpt>
      <trkpt lat="42.94159" lon="-0.66787">
        <ele>1214</ele>
      </trkpt>
      <trkpt lat="42.94208" lon="-0.66707">
        <ele>1209</ele>
      </trkpt>
      <trkpt lat="42.94243" lon="-0.66596">
        <ele>1232</ele>
      </trkpt>
      <trkpt lat="42.94259" lon="-0.66594">
        <ele>1232</ele>
      </trkpt>
      <trkpt lat="42.94341" lon="-0.6661">
        <ele>1248</ele>
      </trkpt>
      <trkpt lat="42.9434" lon="-0.66659">
        <ele>1246</ele>
      </trkpt>
      <trkpt lat="42.9432" lon="-0.66728">
        <ele>1262</ele>
      </trkpt>
      <trkpt lat="42.9431" lon="-0.66829">
        <ele>1267</ele>
      </trkpt>
      <trkpt lat="42.94336" lon="-0.66873">
        <ele>1267</ele>
      </trkpt>
      <trkpt lat="42.94379" lon="-0.6686">
        <ele>1286</ele>
      </trkpt>
      <trkpt lat="42.94422" lon="-0.66871">
        <ele>1286</ele>
      </trkpt>
      <trkpt lat="42.9442" lon="-0.6692">
        <ele>1285</ele>
      </trkpt>
      <trkpt lat="42.94438" lon="-0.66921">
        <ele>1285</ele>
      </trkpt>
      <trkpt lat="42.94469" lon="-0.66862">
        <ele>1300</ele>
      </trkpt>
      <trkpt lat="42.9451" lon="-0.66842">
        <ele>1300</ele>
      </trkpt>
      <trkpt lat="42.94514" lon="-0.66858">
        <ele>1300</ele>
      </trkpt>
      <trkpt lat="42.94529" lon="-0.6688">
        <ele>1297</ele>
      </trkpt>
      <trkpt lat="42.94563" lon="-0.66866">
        <ele>1304</ele>
      </trkpt>
      <trkpt lat="42.94573" lon="-0.66846">
        <ele>1304</ele>
      </trkpt>
      <trkpt lat="42.94589" lon="-0.66822">
        <ele>1304</ele>
      </trkpt>
      <trkpt lat="42.94616" lon="-0.66839">
        <ele>1304</ele>
      </trkpt>
      <trkpt lat="42.94643" lon="-0.66831">
        <ele>1316</ele>
      </trkpt>
      <trkpt lat="42.94657" lon="-0.6681">
        <ele>1316</ele>
      </trkpt>
      <trkpt lat="42.94684" lon="-0.66812">
        <ele>1316</ele>
      </trkpt>
      <trkpt lat="42.94674" lon="-0.66765">
        <ele>1321</ele>
      </trkpt>
      <trkpt lat="42.94661" lon="-0.66737">
        <ele>1321</ele>
      </trkpt>
      <trkpt lat="42.94649" lon="-0.66715">
        <ele>1321</ele>
      </trkpt>
      <trkpt lat="42.9461" lon="-0.66725">
        <ele>1320</ele>
      </trkpt>
      <trkpt lat="42.94547" lon="-0.66719">
        <ele>1320</ele>
      </trkpt>
      <trkpt lat="42.9451" lon="-0.66695">
        <ele>1322</ele>
      </trkpt>
      <trkpt lat="42.94496" lon="-0.66615">
        <ele>1322</ele>
      </trkpt>
      <trkpt lat="42.9447" lon="-0.66507">
        <ele>1322</ele>
      </trkpt>
      <trkpt lat="42.94485" lon="-0.66443">
        <ele>1314</ele>
      </trkpt>
      <trkpt lat="42.9452" lon="-0.66415">
        <ele>1314</ele>
      </trkpt>
      <trkpt lat="42.94472" lon="-0.66372">
        <ele>1318</ele>
      </trkpt>
      <trkpt lat="42.94463" lon="-0.66295">
        <ele>1318</ele>
      </trkpt>
      <trkpt lat="42.94422" lon="-0.66284">
        <ele>1322</ele>
      </trkpt>
      <trkpt lat="42.94431" lon="-0.66226">
        <ele>1322</ele>
      </trkpt>
      <trkpt lat="42.94406" lon="-0.66164">
        <ele>1323</ele>
      </trkpt>
      <trkpt lat="42.94385" lon="-0.66092">
        <ele>1314</ele>
      </trkpt>
      <trkpt lat="42.94409" lon="-0.66051">
        <ele>1314</ele>
      </trkpt>
      <trkpt lat="42.94357" lon="-0.65987">
        <ele>1302</ele>
      </trkpt>
      <trkpt lat="42.94386" lon="-0.65982">
        <ele>1316</ele>
      </trkpt>
      <trkpt lat="42.94466" lon="-0.65996">
        <ele>1336</ele>
      </trkpt>
      <trkpt lat="42.94459" lon="-0.65928">
        <ele>1370</ele>
      </trkpt>
      <trkpt lat="42.94535" lon="-0.6596">
        <ele>1336</ele>
      </trkpt>
      <trkpt lat="42.94586" lon="-0.65996">
        <ele>1360</ele>
      </trkpt>
      <trkpt lat="42.94616" lon="-0.66049">
        <ele>1345</ele>
      </trkpt>
      <trkpt lat="42.94638" lon="-0.66124">
        <ele>1383</ele>
      </trkpt>
      <trkpt lat="42.94658" lon="-0.66122">
        <ele>1383</ele>
      </trkpt>
      <trkpt lat="42.94643" lon="-0.66032">
        <ele>1391</ele>
      </trkpt>
      <trkpt lat="42.94614" lon="-0.65954">
        <ele>1402</ele>
      </trkpt>
      <trkpt lat="42.94535" lon="-0.65883">
        <ele>1370</ele>
      </trkpt>
      <trkpt lat="42.94477" lon="-0.65843">
        <ele>1410</ele>
      </trkpt>
      <trkpt lat="42.94461" lon="-0.65797">
        <ele>1410</ele>
      </trkpt>
      <trkpt lat="42.94488" lon="-0.65709">
        <ele>1424</ele>
      </trkpt>
      <trkpt lat="42.94503" lon="-0.65655">
        <ele>1420</ele>
      </trkpt>
      <trkpt lat="42.9444" lon="-0.65502">
        <ele>1421</ele>
      </trkpt>
      <trkpt lat="42.9441" lon="-0.65448">
        <ele>1454</ele>
      </trkpt>
      <trkpt lat="42.94372" lon="-0.6544">
        <ele>1404</ele>
      </trkpt>
      <trkpt lat="42.9438" lon="-0.65376">
        <ele>1454</ele>
      </trkpt>
      <trkpt lat="42.9436" lon="-0.65293">
        <ele>1422</ele>
      </trkpt>
      <trkpt lat="42.94325" lon="-0.65175">
        <ele>1461</ele>
      </trkpt>
      <trkpt lat="42.94312" lon="-0.65079">
        <ele>1458</ele>
      </trkpt>
      <trkpt lat="42.94341" lon="-0.65087">
        <ele>1458</ele>
      </trkpt>
      <trkpt lat="42.94399" lon="-0.65127">
        <ele>1459</ele>
      </trkpt>
      <trkpt lat="42.94469" lon="-0.65182">
        <ele>1424</ele>
      </trkpt>
      <trkpt lat="42.94512" lon="-0.65249">
        <ele>1449</ele>
      </trkpt>
      <trkpt lat="42.94555" lon="-0.65327">
        <ele>1433</ele>
      </trkpt>
      <trkpt lat="42.94617" lon="-0.65352">
        <ele>1433</ele>
      </trkpt>
      <trkpt lat="42.94666" lon="-0.6537">
        <ele>1411</ele>
      </trkpt>
      <trkpt lat="42.94711" lon="-0.65372">
        <ele>1409</ele>
      </trkpt>
      <trkpt lat="42.94749" lon="-0.65383">
        <ele>1425</ele>
      </trkpt>
      <trkpt lat="42.94772" lon="-0.65369">
        <ele>1409</ele>
      </trkpt>
      <trkpt lat="42.94758" lon="-0.65286">
        <ele>1396</ele>
      </trkpt>
      <trkpt lat="42.94767" lon="-0.65207">
        <ele>1392</ele>
      </trkpt>
      <trkpt lat="42.94772" lon="-0.65118">
        <ele>1386</ele>
      </trkpt>
      <trkpt lat="42.94835" lon="-0.65119">
        <ele>1409</ele>
      </trkpt>
      <trkpt lat="42.94879" lon="-0.65069">
        <ele>1416</ele>
      </trkpt>
      <trkpt lat="42.94901" lon="-0.64987">
        <ele>1403</ele>
      </trkpt>
      <trkpt lat="42.94967" lon="-0.6504">
        <ele>1390</ele>
      </trkpt>
      <trkpt lat="42.9502" lon="-0.65082">
        <ele>1402</ele>
      </trkpt>
      <trkpt lat="42.95069" lon="-0.65115">
        <ele>1396</ele>
      </trkpt>
      <trkpt lat="42.95182" lon="-0.65176">
        <ele>1425</ele>
      </trkpt>
      <trkpt lat="42.95248" lon="-0.65198">
        <ele>1441</ele>
      </trkpt>
      <trkpt lat="42.9533" lon="-0.65236">
        <ele>1450</ele>
      </trkpt>
      <trkpt lat="42.95366" lon="-0.65241">
        <ele>1450</ele>
      </trkpt>
      <trkpt lat="42.95373" lon="-0.65097">
        <ele>1434</ele>
      </trkpt>
      <trkpt lat="42.95393" lon="-0.64994">
        <ele>1461</ele>
      </trkpt>
      <trkpt lat="42.95401" lon="-0.649">
        <ele>1450</ele>
      </trkpt>
      <trkpt lat="42.95429" lon="-0.64911">
        <ele>1450</ele>
      </trkpt>
      <trkpt lat="42.95493" lon="-0.64981">
        <ele>1469</ele>
      </trkpt>
      <trkpt lat="42.95625" lon="-0.65083">
        <ele>1473</ele>
      </trkpt>
      <trkpt lat="42.957" lon="-0.65111">
        <ele>1455</ele>
      </trkpt>
      <trkpt lat="42.95777" lon="-0.65094">
        <ele>1460</ele>
      </trkpt>
      <trkpt lat="42.95865" lon="-0.65013">
        <ele>1452</ele>
      </trkpt>
      <trkpt lat="42.95921" lon="-0.64936">
        <ele>1450</ele>
      </trkpt>
      <trkpt lat="42.95944" lon="-0.64907">
        <ele>1450</ele>
      </trkpt>
      <trkpt lat="42.95934" lon="-0.64726">
        <ele>1427</ele>
      </trkpt>
      <trkpt lat="42.95937" lon="-0.64536">
        <ele>1384</ele>
      </trkpt>
      <trkpt lat="42.9592" lon="-0.64407">
        <ele>1365</ele>
      </trkpt>
      <trkpt lat="42.95903" lon="-0.64207">
        <ele>1318</ele>
      </trkpt>
      <trkpt lat="42.95894" lon="-0.6405">
        <ele>1308</ele>
      </trkpt>
      <trkpt lat="42.95846" lon="-0.63922">
        <ele>1252</ele>
      </trkpt>
      <trkpt lat="42.95805" lon="-0.63865">
        <ele>1241</ele>
      </trkpt>
      <trkpt lat="42.95809" lon="-0.63706">
        <ele>1211</ele>
      </trkpt>
      <trkpt lat="42.95845" lon="-0.63644">
        <ele>1211</ele>
      </trkpt>
      <trkpt lat="42.95811" lon="-0.63541">
        <ele>1208</ele>
      </trkpt>
      <trkpt lat="42.95787" lon="-0.63457">
        <ele>1152</ele>
      </trkpt>
      <trkpt lat="42.95821" lon="-0.63367">
        <ele>1182</ele>
      </trkpt>
      <trkpt lat="42.9586" lon="-0.63314">
        <ele>1182</ele>
      </trkpt>
      <trkpt lat="42.95865" lon="-0.63238">
        <ele>1159</ele>
      </trkpt>
      <trkpt lat="42.95869" lon="-0.63183">
        <ele>1153</ele>
      </trkpt>
      <trkpt lat="42.95885" lon="-0.6316">
        <ele>1194</ele>
      </trkpt>
      <trkpt lat="42.95877" lon="-0.63122">
        <ele>1196</ele>
      </trkpt>
      <trkpt lat="42.95804" lon="-0.63091">
        <ele>1158</ele>
      </trkpt>
      <trkpt lat="42.95796" lon="-0.63036">
        <ele>1154</ele>
      </trkpt>
      <trkpt lat="42.95807" lon="-0.62963">
        <ele>1154</ele>
      </trkpt>
      <trkpt lat="42.95787" lon="-0.62888">
        <ele>1102</ele>
      </trkpt>
      <trkpt lat="42.95765" lon="-0.62851">
        <ele>1096</ele>
      </trkpt>
      <trkpt lat="42.95715" lon="-0.62793">
        <ele>1096</ele>
      </trkpt>
      <trkpt lat="42.95673" lon="-0.62766">
        <ele>1052</ele>
      </trkpt>
      <trkpt lat="42.95632" lon="-0.62703">
        <ele>1025</ele>
      </trkpt>
      <trkpt lat="42.95589" lon="-0.62664">
        <ele>1018</ele>
      </trkpt>
      <trkpt lat="42.95554" lon="-0.62598">
        <ele>995</ele>
      </trkpt>
      <trkpt lat="42.9552" lon="-0.62618">
        <ele>979</ele>
      </trkpt>
      <trkpt lat="42.9551" lon="-0.62593">
        <ele>979</ele>
      </trkpt>
      <trkpt lat="42.95491" lon="-0.62604">
        <ele>979</ele>
      </trkpt>
      <trkpt lat="42.95476" lon="-0.62576">
        <ele>979</ele>
      </trkpt>
      <trkpt lat="42.95453" lon="-0.62593">
        <ele>944</ele>
      </trkpt>
      <trkpt lat="42.95431" lon="-0.62598">
        <ele>944</ele>
      </trkpt>
      <trkpt lat="42.95425" lon="-0.62549">
        <ele>944</ele>
      </trkpt>
      <trkpt lat="42.95473" lon="-0.62468">
        <ele>952</ele>
      </trkpt>
      <trkpt lat="42.95512" lon="-0.62412">
        <ele>920</ele>
      </trkpt>
      <trkpt lat="42.95555" lon="-0.62405">
        <ele>916</ele>
      </trkpt>
      <trkpt lat="42.95542" lon="-0.62383">
        <ele>916</ele>
      </trkpt>
      <trkpt lat="42.95506" lon="-0.62384">
        <ele>920</ele>
      </trkpt>
      <trkpt lat="42.95379" lon="-0.62457">
        <ele>896</ele>
      </trkpt>
      <trkpt lat="42.95354" lon="-0.62456">
        <ele>869</ele>
      </trkpt>
      <trkpt lat="42.95346" lon="-0.62502">
        <ele>880</ele>
      </trkpt>
      <trkpt lat="42.95334" lon="-0.62614">
        <ele>893</ele>
      </trkpt>
      <trkpt lat="42.95374" lon="-0.62635">
        <ele>887</ele>
      </trkpt>
      <trkpt lat="42.95414" lon="-0.62716">
        <ele>923</ele>
      </trkpt>
      <trkpt lat="42.95425" lon="-0.62796">
        <ele>925</ele>
      </trkpt>
      <trkpt lat="42.954" lon="-0.62905">
        <ele>932</ele>
      </trkpt>
      <trkpt lat="42.95387" lon="-0.63045">
        <ele>937</ele>
      </trkpt>
      <trkpt lat="42.95414" lon="-0.632">
        <ele>941</ele>
      </trkpt>
      <trkpt lat="42.95365" lon="-0.63182">
        <ele>952</ele>
      </trkpt>
      <trkpt lat="42.9531" lon="-0.63136">
        <ele>952</ele>
      </trkpt>
      <trkpt lat="42.95247" lon="-0.63133">
        <ele>971</ele>
      </trkpt>
      <trkpt lat="42.95208" lon="-0.6318">
        <ele>976</ele>
      </trkpt>
      <trkpt lat="42.95122" lon="-0.63117">
        <ele>957</ele>
      </trkpt>
      <trkpt lat="42.95102" lon="-0.63101">
        <ele>957</ele>
      </trkpt>
      <trkpt lat="42.95084" lon="-0.63121">
        <ele>957</ele>
      </trkpt>
      <trkpt lat="42.95066" lon="-0.63197">
        <ele>976</ele>
      </trkpt>
      <trkpt lat="42.94992" lon="-0.63264">
        <ele>960</ele>
      </trkpt>
      <trkpt lat="42.94969" lon="-0.63302">
        <ele>998</ele>
      </trkpt>
      <trkpt lat="42.94889" lon="-0.63353">
        <ele>956</ele>
      </trkpt>
      <trkpt lat="42.94879" lon="-0.63383">
        <ele>981</ele>
      </trkpt>
      <trkpt lat="42.94871" lon="-0.63426">
        <ele>929</ele>
      </trkpt>
      <trkpt lat="42.94849" lon="-0.63489">
        <ele>955</ele>
      </trkpt>
      <trkpt lat="42.94843" lon="-0.63546">
        <ele>975</ele>
      </trkpt>
      <trkpt lat="42.94845" lon="-0.63611">
        <ele>975</ele>
      </trkpt>
      <trkpt lat="42.94824" lon="-0.63653">
        <ele>1000</ele>
      </trkpt>
      <trkpt lat="42.94782" lon="-0.63718">
        <ele>959</ele>
      </trkpt>
      <trkpt lat="42.94783" lon="-0.6377">
        <ele>959</ele>
      </trkpt>
      <trkpt lat="42.94783" lon="-0.63822">
        <ele>973</ele>
      </trkpt>
      <trkpt lat="42.94777" lon="-0.63892">
        <ele>995</ele>
      </trkpt>
      <trkpt lat="42.94749" lon="-0.63939">
        <ele>995</ele>
      </trkpt>
      <trkpt lat="42.94719" lon="-0.63953">
        <ele>995</ele>
      </trkpt>
      <trkpt lat="42.94692" lon="-0.63939">
        <ele>993</ele>
      </trkpt>
      <trkpt lat="42.94674" lon="-0.63807">
        <ele>962</ele>
      </trkpt>
      <trkpt lat="42.94675" lon="-0.63755">
        <ele>939</ele>
      </trkpt>
      <trkpt lat="42.94632" lon="-0.63673">
        <ele>923</ele>
      </trkpt>
      <trkpt lat="42.94613" lon="-0.63495">
        <ele>950</ele>
      </trkpt>
      <trkpt lat="42.94607" lon="-0.63384">
        <ele>950</ele>
      </trkpt>
      <trkpt lat="42.94585" lon="-0.6327">
        <ele>957</ele>
      </trkpt>
      <trkpt lat="42.94614" lon="-0.63204">
        <ele>966</ele>
      </trkpt>
      <trkpt lat="42.94608" lon="-0.63112">
        <ele>979</ele>
      </trkpt>
      <trkpt lat="42.94606" lon="-0.6302">
        <ele>981</ele>
      </trkpt>
      <trkpt lat="42.94538" lon="-0.62858">
        <ele>1014</ele>
      </trkpt>
      <trkpt lat="42.94519" lon="-0.62805">
        <ele>1014</ele>
      </trkpt>
      <trkpt lat="42.94525" lon="-0.62768">
        <ele>1005</ele>
      </trkpt>
      <trkpt lat="42.94479" lon="-0.62659">
        <ele>1001</ele>
      </trkpt>
      <trkpt lat="42.94483" lon="-0.62561">
        <ele>998</ele>
      </trkpt>
      <trkpt lat="42.94488" lon="-0.62464">
        <ele>1019</ele>
      </trkpt>
      <trkpt lat="42.94506" lon="-0.62413">
        <ele>1029</ele>
      </trkpt>
      <trkpt lat="42.94442" lon="-0.62425">
        <ele>1034</ele>
      </trkpt>
      <trkpt lat="42.944" lon="-0.62474">
        <ele>1057</ele>
      </trkpt>
      <trkpt lat="42.94342" lon="-0.62459">
        <ele>1027</ele>
      </trkpt>
      <trkpt lat="42.94316" lon="-0.62458">
        <ele>1006</ele>
      </trkpt>
      <trkpt lat="42.94287" lon="-0.62521">
        <ele>965</ele>
      </trkpt>
      <trkpt lat="42.94256" lon="-0.62592">
        <ele>991</ele>
      </trkpt>
      <trkpt lat="42.94212" lon="-0.62636">
        <ele>1023</ele>
      </trkpt>
      <trkpt lat="42.94148" lon="-0.62663">
        <ele>977</ele>
      </trkpt>
      <trkpt lat="42.94031" lon="-0.62673">
        <ele>934</ele>
      </trkpt>
      <trkpt lat="42.93972" lon="-0.62703">
        <ele>934</ele>
      </trkpt>
      <trkpt lat="42.93902" lon="-0.62691">
        <ele>914</ele>
      </trkpt>
      <trkpt lat="42.93834" lon="-0.62708">
        <ele>901</ele>
      </trkpt>
      <trkpt lat="42.93797" lon="-0.62759">
        <ele>947</ele>
      </trkpt>
      <trkpt lat="42.93737" lon="-0.62737">
        <ele>933</ele>
      </trkpt>
      <trkpt lat="42.93667" lon="-0.62764">
        <ele>914</ele>
      </trkpt>
      <trkpt lat="42.93597" lon="-0.62843">
        <ele>910</ele>
      </trkpt>
      <trkpt lat="42.93571" lon="-0.62885">
        <ele>921</ele>
      </trkpt>
      <trkpt lat="42.93587" lon="-0.62944">
        <ele>921</ele>
      </trkpt>
      <trkpt lat="42.93605" lon="-0.6303">
        <ele>907</ele>
      </trkpt>
      <trkpt lat="42.93604" lon="-0.63085">
        <ele>898</ele>
      </trkpt>
      <trkpt lat="42.9362" lon="-0.63156">
        <ele>896</ele>
      </trkpt>
      <trkpt lat="42.93568" lon="-0.63248">
        <ele>906</ele>
      </trkpt>
      <trkpt lat="42.93521" lon="-0.63301">
        <ele>904</ele>
      </trkpt>
      <trkpt lat="42.93486" lon="-0.63376">
        <ele>906</ele>
      </trkpt>
      <trkpt lat="42.93436" lon="-0.63468">
        <ele>895</ele>
      </trkpt>
    </trkseg>
  </trk>
  <trk>
    <name><![CDATA[Col de Barrancq]]></name>
    <trkseg>
      <trkpt lat="42.93544" lon="-0.66072">
        <ele>1069</ele>
      </trkpt>
      <trkpt lat="42.93576" lon="-0.66224">
        <ele>1060</ele>
      </trkpt>
      <trkpt lat="42.93655" lon="-0.66303">
        <ele>1073</ele>
      </trkpt>
      <trkpt lat="42.93667" lon="-0.66404">
        <ele>1071</ele>
      </trkpt>
      <trkpt lat="42.93717" lon="-0.66423">
        <ele>1094</ele>
      </trkpt>
      <trkpt lat="42.9367" lon="-0.66491">
        <ele>1081</ele>
      </trkpt>
      <trkpt lat="42.93695" lon="-0.66581">
        <ele>1083</ele>
      </trkpt>
      <trkpt lat="42.93681" lon="-0.66695">
        <ele>1085</ele>
      </trkpt>
      <trkpt lat="42.9371" lon="-0.66776">
        <ele>1108</ele>
      </trkpt>
      <trkpt lat="42.93714" lon="-0.66832">
        <ele>1107</ele>
      </trkpt>
      <trkpt lat="42.93695" lon="-0.66914">
        <ele>1096</ele>
      </trkpt>
      <trkpt lat="42.93704" lon="-0.66994">
        <ele>1092</ele>
      </trkpt>
      <trkpt lat="42.93743" lon="-0.67045">
        <ele>1099</ele>
      </trkpt>
      <trkpt lat="42.93802" lon="-0.67105">
        <ele>1112</ele>
      </trkpt>
      <trkpt lat="42.93833" lon="-0.67165">
        <ele>1110</ele>
      </trkpt>
      <trkpt lat="42.93935" lon="-0.67306">
        <ele>1107</ele>
      </trkpt>
      <trkpt lat="42.94003" lon="-0.67364">
        <ele>1117</ele>
      </trkpt>
      <trkpt lat="42.94031" lon="-0.67419">
        <ele>1106</ele>
      </trkpt>
      <trkpt lat="42.94029" lon="-0.67462">
        <ele>1092</ele>
      </trkpt>
      <trkpt lat="42.94096" lon="-0.67515">
        <ele>1104</ele>
      </trkpt>
      <trkpt lat="42.94112" lon="-0.67552">
        <ele>1087</ele>
      </trkpt>
      <trkpt lat="42.94117" lon="-0.67661">
        <ele>1083</ele>
      </trkpt>
      <trkpt lat="42.94095" lon="-0.67689">
        <ele>1083</ele>
      </trkpt>
      <trkpt lat="42.94104" lon="-0.67698">
        <ele>1083</ele>
      </trkpt>
      <trkpt lat="42.94093" lon="-0.6769">
        <ele>1083</ele>
      </trkpt>
      <trkpt lat="42.94066" lon="-0.67705">
        <ele>1083</ele>
      </trkpt>
      <trkpt lat="42.94048" lon="-0.6775">
        <ele>1087</ele>
      </trkpt>
      <trkpt lat="42.94008" lon="-0.67803">
        <ele>1088</ele>
      </trkpt>
      <trkpt lat="42.94006" lon="-0.67791">
        <ele>1085</ele>
      </trkpt>
      <trkpt lat="42.94028" lon="-0.67776">
        <ele>1085</ele>
      </trkpt>
      <trkpt lat="42.94007" lon="-0.67795">
        <ele>1088</ele>
      </trkpt>
      <trkpt lat="42.94005" lon="-0.67861">
        <ele>1088</ele>
      </trkpt>
      <trkpt lat="42.93984" lon="-0.67858">
        <ele>1088</ele>
      </trkpt>
      <trkpt lat="42.93964" lon="-0.67828">
        <ele>1088</ele>
      </trkpt>
      <trkpt lat="42.93913" lon="-0.67662">
        <ele>1091</ele>
      </trkpt>
      <trkpt lat="42.93889" lon="-0.67631">
        <ele>1091</ele>
      </trkpt>
      <trkpt lat="42.93857" lon="-0.67599">
        <ele>1095</ele>
      </trkpt>
      <trkpt lat="42.93789" lon="-0.67571">
        <ele>1104</ele>
      </trkpt>
      <trkpt lat="42.93722" lon="-0.67569">
        <ele>1104</ele>
      </trkpt>
      <trkpt lat="42.9372" lon="-0.67494">
        <ele>1086</ele>
      </trkpt>
      <trkpt lat="42.93691" lon="-0.67439">
        <ele>1106</ele>
      </trkpt>
      <trkpt lat="42.93579" lon="-0.67317">
        <ele>1112</ele>
      </trkpt>
      <trkpt lat="42.93437" lon="-0.67097">
        <ele>1094</ele>
      </trkpt>
      <trkpt lat="42.93375" lon="-0.66973">
        <ele>1066</ele>
      </trkpt>
      <trkpt lat="42.93338" lon="-0.66962">
        <ele>1102</ele>
      </trkpt>
      <trkpt lat="42.93306" lon="-0.66908">
        <ele>1069</ele>
      </trkpt>
      <trkpt lat="42.93273" lon="-0.66781">
        <ele>1057</ele>
      </trkpt>
      <trkpt lat="42.93203" lon="-0.66696">
        <ele>1065</ele>
      </trkpt>
      <trkpt lat="42.93178" lon="-0.66629">
        <ele>1065</ele>
      </trkpt>
      <trkpt lat="42.93101" lon="-0.66535">
        <ele>1048</ele>
      </trkpt>
      <trkpt lat="42.92989" lon="-0.66357">
        <ele>1027</ele>
      </trkpt>
      <trkpt lat="42.92901" lon="-0.66158">
        <ele>1014</ele>
      </trkpt>
      <trkpt lat="42.92811" lon="-0.66077">
        <ele>1005</ele>
      </trkpt>
      <trkpt lat="42.92787" lon="-0.66067">
        <ele>1006</ele>
      </trkpt>
      <trkpt lat="42.92745" lon="-0.65992">
        <ele>991</ele>
      </trkpt>
      <trkpt lat="42.92703" lon="-0.65896">
        <ele>970</ele>
      </trkpt>
      <trkpt lat="42.92679" lon="-0.65769">
        <ele>969</ele>
      </trkpt>
      <trkpt lat="42.92686" lon="-0.65653">
        <ele>966</ele>
      </trkpt>
      <trkpt lat="42.92654" lon="-0.65513">
        <ele>954</ele>
      </trkpt>
      <trkpt lat="42.92666" lon="-0.65484">
        <ele>954</ele>
      </trkpt>
      <trkpt lat="42.92667" lon="-0.65445">
        <ele>951</ele>
      </trkpt>
      <trkpt lat="42.92624" lon="-0.6533">
        <ele>944</ele>
      </trkpt>
      <trkpt lat="42.92632" lon="-0.65281">
        <ele>939</ele>
      </trkpt>
      <trkpt lat="42.92657" lon="-0.65246">
        <ele>939</ele>
      </trkpt>
      <trkpt lat="42.9262" lon="-0.65094">
        <ele>926</ele>
      </trkpt>
      <trkpt lat="42.92565" lon="-0.65059">
        <ele>926</ele>
      </trkpt>
      <trkpt lat="42.92541" lon="-0.6512">
        <ele>910</ele>
      </trkpt>
      <trkpt lat="42.92449" lon="-0.65235">
        <ele>899</ele>
      </trkpt>
      <trkpt lat="42.92415" lon="-0.65182">
        <ele>894</ele>
      </trkpt>
      <trkpt lat="42.92395" lon="-0.65181">
        <ele>894</ele>
      </trkpt>
      <trkpt lat="42.92374" lon="-0.6526">
        <ele>894</ele>
      </trkpt>
      <trkpt lat="42.92363" lon="-0.65262">
        <ele>894</ele>
      </trkpt>
      <trkpt lat="42.92345" lon="-0.65036">
        <ele>899</ele>
      </trkpt>
      <trkpt lat="42.92356" lon="-0.64952">
        <ele>902</ele>
      </trkpt>
      <trkpt lat="42.9238" lon="-0.64909">
        <ele>882</ele>
      </trkpt>
      <trkpt lat="42.9239" lon="-0.64851">
        <ele>885</ele>
      </trkpt>
      <trkpt lat="42.92361" lon="-0.64819">
        <ele>900</ele>
      </trkpt>
      <trkpt lat="42.92372" lon="-0.64635">
        <ele>895</ele>
      </trkpt>
      <trkpt lat="42.92456" lon="-0.64413">
        <ele>887</ele>
      </trkpt>
      <trkpt lat="42.92486" lon="-0.64291">
        <ele>885</ele>
      </trkpt>
      <trkpt lat="42.92539" lon="-0.64199">
        <ele>885</ele>
      </trkpt>
      <trkpt lat="42.92543" lon="-0.6411">
        <ele>872</ele>
      </trkpt>
      <trkpt lat="42.92517" lon="-0.64026">
        <ele>875</ele>
      </trkpt>
      <trkpt lat="42.92495" lon="-0.64007">
        <ele>875</ele>
      </trkpt>
      <trkpt lat="42.92452" lon="-0.64017">
        <ele>891</ele>
      </trkpt>
      <trkpt lat="42.92369" lon="-0.6405">
        <ele>907</ele>
      </trkpt>
      <trkpt lat="42.92339" lon="-0.64094">
        <ele>907</ele>
      </trkpt>
      <trkpt lat="42.92325" lon="-0.64088">
        <ele>907</ele>
      </trkpt>
      <trkpt lat="42.92349" lon="-0.63946">
        <ele>922</ele>
      </trkpt>
      <trkpt lat="42.92312" lon="-0.63949">
        <ele>922</ele>
      </trkpt>
      <trkpt lat="42.92317" lon="-0.63904">
        <ele>922</ele>
      </trkpt>
      <trkpt lat="42.92308" lon="-0.63859">
        <ele>926</ele>
      </trkpt>
      <trkpt lat="42.92291" lon="-0.63838">
        <ele>953</ele>
      </trkpt>
      <trkpt lat="42.9226" lon="-0.63858">
        <ele>953</ele>
      </trkpt>
      <trkpt lat="42.92256" lon="-0.63926">
        <ele>947</ele>
      </trkpt>
      <trkpt lat="42.92242" lon="-0.63926">
        <ele>947</ele>
      </trkpt>
      <trkpt lat="42.92228" lon="-0.63887">
        <ele>947</ele>
      </trkpt>
      <trkpt lat="42.9224" lon="-0.63917">
        <ele>947</ele>
      </trkpt>
      <trkpt lat="42.9223" lon="-0.63878">
        <ele>947</ele>
      </trkpt>
      <trkpt lat="42.92249" lon="-0.63797">
        <ele>953</ele>
      </trkpt>
      <trkpt lat="42.92235" lon="-0.63792">
        <ele>953</ele>
      </trkpt>
      <trkpt lat="42.92181" lon="-0.63928">
        <ele>980</ele>
      </trkpt>
      <trkpt lat="42.92014" lon="-0.64195">
        <ele>1008</ele>
      </trkpt>
      <trkpt lat="42.92006" lon="-0.64181">
        <ele>1008</ele>
      </trkpt>
      <trkpt lat="42.92024" lon="-0.64128">
        <ele>1008</ele>
      </trkpt>
      <trkpt lat="42.92032" lon="-0.6401">
        <ele>1028</ele>
      </trkpt>
      <trkpt lat="42.92088" lon="-0.63933">
        <ele>1015</ele>
      </trkpt>
      <trkpt lat="42.92135" lon="-0.63815">
        <ele>991</ele>
      </trkpt>
      <trkpt lat="42.92093" lon="-0.63916">
        <ele>1015</ele>
      </trkpt>
      <trkpt lat="42.92047" lon="-0.63991">
        <ele>999</ele>
      </trkpt>
      <trkpt lat="42.9203" lon="-0.64033">
        <ele>1028</ele>
      </trkpt>
      <trkpt lat="42.92032" lon="-0.64076">
        <ele>1015</ele>
      </trkpt>
      <trkpt lat="42.91995" lon="-0.64142">
        <ele>1008</ele>
      </trkpt>
      <trkpt lat="42.91926" lon="-0.64229">
        <ele>1020</ele>
      </trkpt>
      <trkpt lat="42.91818" lon="-0.64316">
        <ele>1038</ele>
      </trkpt>
      <trkpt lat="42.918" lon="-0.64386">
        <ele>1030</ele>
      </trkpt>
      <trkpt lat="42.9173" lon="-0.64387">
        <ele>1046</ele>
      </trkpt>
      <trkpt lat="42.91707" lon="-0.64349">
        <ele>1051</ele>
      </trkpt>
      <trkpt lat="42.91615" lon="-0.64337">
        <ele>1052</ele>
      </trkpt>
      <trkpt lat="42.91535" lon="-0.64302">
        <ele>1059</ele>
      </trkpt>
      <trkpt lat="42.91507" lon="-0.64304">
        <ele>1059</ele>
      </trkpt>
      <trkpt lat="42.91484" lon="-0.6432">
        <ele>1059</ele>
      </trkpt>
      <trkpt lat="42.91467" lon="-0.64287">
        <ele>1066</ele>
      </trkpt>
      <trkpt lat="42.9139" lon="-0.64312">
        <ele>1075</ele>
      </trkpt>
      <trkpt lat="42.91392" lon="-0.64264">
        <ele>1081</ele>
      </trkpt>
      <trkpt lat="42.91375" lon="-0.64263">
        <ele>1092</ele>
      </trkpt>
      <trkpt lat="42.91367" lon="-0.64245">
        <ele>1092</ele>
      </trkpt>
      <trkpt lat="42.91373" lon="-0.64242">
        <ele>1092</ele>
      </trkpt>
      <trkpt lat="42.91393" lon="-0.64287">
        <ele>1081</ele>
      </trkpt>
      <trkpt lat="42.91417" lon="-0.64298">
        <ele>1075</ele>
      </trkpt>
      <trkpt lat="42.91473" lon="-0.64289">
        <ele>1066</ele>
      </trkpt>
      <trkpt lat="42.91488" lon="-0.64321">
        <ele>1059</ele>
      </trkpt>
      <trkpt lat="42.91536" lon="-0.64301">
        <ele>1059</ele>
      </trkpt>
      <trkpt lat="42.91639" lon="-0.6434">
        <ele>1051</ele>
      </trkpt>
      <trkpt lat="42.91699" lon="-0.64346">
        <ele>1051</ele>
      </trkpt>
      <trkpt lat="42.91746" lon="-0.64388">
        <ele>1046</ele>
      </trkpt>
      <trkpt lat="42.91784" lon="-0.64388">
        <ele>1046</ele>
      </trkpt>
      <trkpt lat="42.91807" lon="-0.64368">
        <ele>1038</ele>
      </trkpt>
      <trkpt lat="42.91813" lon="-0.64316">
        <ele>1038</ele>
      </trkpt>
      <trkpt lat="42.91976" lon="-0.64168">
        <ele>1008</ele>
      </trkpt>
      <trkpt lat="42.92019" lon="-0.64084">
        <ele>1015</ele>
      </trkpt>
      <trkpt lat="42.92024" lon="-0.64033">
        <ele>1028</ele>
      </trkpt>
      <trkpt lat="42.92045" lon="-0.63979">
        <ele>999</ele>
      </trkpt>
      <trkpt lat="42.92088" lon="-0.63917">
        <ele>1015</ele>
      </trkpt>
      <trkpt lat="42.92166" lon="-0.63689">
        <ele>1008</ele>
      </trkpt>
      <trkpt lat="42.92199" lon="-0.63619">
        <ele>1022</ele>
      </trkpt>
      <trkpt lat="42.92231" lon="-0.63477">
        <ele>993</ele>
      </trkpt>
      <trkpt lat="42.92299" lon="-0.63276">
        <ele>996</ele>
      </trkpt>
      <trkpt lat="42.9238" lon="-0.63194">
        <ele>988</ele>
      </trkpt>
      <trkpt lat="42.92378" lon="-0.63071">
        <ele>1000</ele>
      </trkpt>
      <trkpt lat="42.92349" lon="-0.63021">
        <ele>1017</ele>
      </trkpt>
      <trkpt lat="42.92305" lon="-0.62992">
        <ele>1017</ele>
      </trkpt>
      <trkpt lat="42.92306" lon="-0.62969">
        <ele>1017</ele>
      </trkpt>
      <trkpt lat="42.92349" lon="-0.62895">
        <ele>1035</ele>
      </trkpt>
      <trkpt lat="42.92405" lon="-0.62843">
        <ele>1032</ele>
      </trkpt>
      <trkpt lat="42.92466" lon="-0.62722">
        <ele>994</ele>
      </trkpt>
      <trkpt lat="42.92545" lon="-0.62463">
        <ele>991</ele>
      </trkpt>
      <trkpt lat="42.92537" lon="-0.62431">
        <ele>1025</ele>
      </trkpt>
      <trkpt lat="42.92467" lon="-0.62412">
        <ele>1025</ele>
      </trkpt>
      <trkpt lat="42.9243" lon="-0.62428">
        <ele>1017</ele>
      </trkpt>
      <trkpt lat="42.9238" lon="-0.62508">
        <ele>1040</ele>
      </trkpt>
      <trkpt lat="42.92338" lon="-0.6252">
        <ele>1026</ele>
      </trkpt>
      <trkpt lat="42.92232" lon="-0.62496">
        <ele>1027</ele>
      </trkpt>
      <trkpt lat="42.92054" lon="-0.62586">
        <ele>1029</ele>
      </trkpt>
      <trkpt lat="42.91998" lon="-0.62537">
        <ele>1014</ele>
      </trkpt>
      <trkpt lat="42.91963" lon="-0.6246">
        <ele>1014</ele>
      </trkpt>
      <trkpt lat="42.91855" lon="-0.62291">
        <ele>1011</ele>
      </trkpt>
      <trkpt lat="42.91755" lon="-0.62274">
        <ele>1012</ele>
      </trkpt>
      <trkpt lat="42.91687" lon="-0.62288">
        <ele>1013</ele>
      </trkpt>
      <trkpt lat="42.91555" lon="-0.62271">
        <ele>1019</ele>
      </trkpt>
      <trkpt lat="42.91481" lon="-0.62276">
        <ele>1020</ele>
      </trkpt>
      <trkpt lat="42.91453" lon="-0.62248">
        <ele>1040</ele>
      </trkpt>
      <trkpt lat="42.9141" lon="-0.62105">
        <ele>996</ele>
      </trkpt>
      <trkpt lat="42.9134" lon="-0.6202">
        <ele>999</ele>
      </trkpt>
      <trkpt lat="42.91291" lon="-0.61994">
        <ele>1003</ele>
      </trkpt>
      <trkpt lat="42.91223" lon="-0.62018">
        <ele>1003</ele>
      </trkpt>
      <trkpt lat="42.91184" lon="-0.61983">
        <ele>1000</ele>
      </trkpt>
      <trkpt lat="42.9115" lon="-0.61863">
        <ele>1008</ele>
      </trkpt>
      <trkpt lat="42.91163" lon="-0.61834">
        <ele>1008</ele>
      </trkpt>
      <trkpt lat="42.91342" lon="-0.61687">
        <ele>1012</ele>
      </trkpt>
      <trkpt lat="42.91478" lon="-0.61507">
        <ele>1030</ele>
      </trkpt>
      <trkpt lat="42.91499" lon="-0.61492">
        <ele>1030</ele>
      </trkpt>
      <trkpt lat="42.91594" lon="-0.6149">
        <ele>1027</ele>
      </trkpt>
      <trkpt lat="42.91747" lon="-0.61314">
        <ele>1049</ele>
      </trkpt>
      <trkpt lat="42.91874" lon="-0.6121">
        <ele>1069</ele>
      </trkpt>
      <trkpt lat="42.91945" lon="-0.61175">
        <ele>1097</ele>
      </trkpt>
      <trkpt lat="42.92054" lon="-0.61178">
        <ele>1075</ele>
      </trkpt>
      <trkpt lat="42.92056" lon="-0.61169">
        <ele>1075</ele>
      </trkpt>
      <trkpt lat="42.91934" lon="-0.61125">
        <ele>1139</ele>
      </trkpt>
      <trkpt lat="42.9183" lon="-0.61144">
        <ele>1112</ele>
      </trkpt>
      <trkpt lat="42.91768" lon="-0.61133">
        <ele>1127</ele>
      </trkpt>
      <trkpt lat="42.91647" lon="-0.61211">
        <ele>1122</ele>
      </trkpt>
      <trkpt lat="42.91598" lon="-0.61284">
        <ele>1169</ele>
      </trkpt>
      <trkpt lat="42.91577" lon="-0.61278">
        <ele>1169</ele>
      </trkpt>
      <trkpt lat="42.91546" lon="-0.61232">
        <ele>1169</ele>
      </trkpt>
      <trkpt lat="42.9135" lon="-0.61033">
        <ele>1223</ele>
      </trkpt>
      <trkpt lat="42.91297" lon="-0.61022">
        <ele>1223</ele>
      </trkpt>
      <trkpt lat="42.91251" lon="-0.60997">
        <ele>1225</ele>
      </trkpt>
      <trkpt lat="42.91175" lon="-0.61111">
        <ele>1234</ele>
      </trkpt>
      <trkpt lat="42.91073" lon="-0.6115">
        <ele>1244</ele>
      </trkpt>
      <trkpt lat="42.9105" lon="-0.61206">
        <ele>1244</ele>
      </trkpt>
      <trkpt lat="42.91036" lon="-0.61205">
        <ele>1267</ele>
      </trkpt>
      <trkpt lat="42.91113" lon="-0.61032">
        <ele>1297</ele>
      </trkpt>
      <trkpt lat="42.91104" lon="-0.61019">
        <ele>1297</ele>
      </trkpt>
      <trkpt lat="42.91059" lon="-0.61076">
        <ele>1271</ele>
      </trkpt>
      <trkpt lat="42.9098" lon="-0.61109">
        <ele>1299</ele>
      </trkpt>
      <trkpt lat="42.90951" lon="-0.61101">
        <ele>1321</ele>
      </trkpt>
      <trkpt lat="42.9088" lon="-0.61127">
        <ele>1289</ele>
      </trkpt>
      <trkpt lat="42.90837" lon="-0.61158">
        <ele>1320</ele>
      </trkpt>
      <trkpt lat="42.90852" lon="-0.61146">
        <ele>1320</ele>
      </trkpt>
      <trkpt lat="42.90872" lon="-0.61082">
        <ele>1346</ele>
      </trkpt>
      <trkpt lat="42.9091" lon="-0.61068">
        <ele>1321</ele>
      </trkpt>
      <trkpt lat="42.90997" lon="-0.60995">
        <ele>1335</ele>
      </trkpt>
      <trkpt lat="42.91026" lon="-0.60951">
        <ele>1368</ele>
      </trkpt>
      <trkpt lat="42.91023" lon="-0.60937">
        <ele>1368</ele>
      </trkpt>
      <trkpt lat="42.90991" lon="-0.60979">
        <ele>1335</ele>
      </trkpt>
      <trkpt lat="42.90905" lon="-0.60994">
        <ele>1358</ele>
      </trkpt>
      <trkpt lat="42.90772" lon="-0.61062">
        <ele>1391</ele>
      </trkpt>
      <trkpt lat="42.90728" lon="-0.61117">
        <ele>1391</ele>
      </trkpt>
      <trkpt lat="42.90694" lon="-0.612">
        <ele>1406</ele>
      </trkpt>
      <trkpt lat="42.90658" lon="-0.61243">
        <ele>1393</ele>
      </trkpt>
      <trkpt lat="42.90588" lon="-0.61254">
        <ele>1413</ele>
      </trkpt>
      <trkpt lat="42.90612" lon="-0.61231">
        <ele>1413</ele>
      </trkpt>
      <trkpt lat="42.90627" lon="-0.61193">
        <ele>1406</ele>
      </trkpt>
      <trkpt lat="42.90643" lon="-0.61061">
        <ele>1427</ele>
      </trkpt>
      <trkpt lat="42.90677" lon="-0.60946">
        <ele>1468</ele>
      </trkpt>
      <trkpt lat="42.90711" lon="-0.60875">
        <ele>1473</ele>
      </trkpt>
      <trkpt lat="42.90758" lon="-0.60829">
        <ele>1473</ele>
      </trkpt>
      <trkpt lat="42.90784" lon="-0.60735">
        <ele>1486</ele>
      </trkpt>
      <trkpt lat="42.90777" lon="-0.60718">
        <ele>1486</ele>
      </trkpt>
      <trkpt lat="42.90774" lon="-0.60739">
        <ele>1486</ele>
      </trkpt>
      <trkpt lat="42.90756" lon="-0.60755">
        <ele>1486</ele>
      </trkpt>
      <trkpt lat="42.90665" lon="-0.60788">
        <ele>1500</ele>
      </trkpt>
      <trkpt lat="42.90667" lon="-0.60771">
        <ele>1500</ele>
      </trkpt>
      <trkpt lat="42.90739" lon="-0.60668">
        <ele>1507</ele>
      </trkpt>
      <trkpt lat="42.9074" lon="-0.60599">
        <ele>1522</ele>
      </trkpt>
      <trkpt lat="42.90781" lon="-0.60542">
        <ele>1522</ele>
      </trkpt>
      <trkpt lat="42.90917" lon="-0.60437">
        <ele>1559</ele>
      </trkpt>
      <trkpt lat="42.91023" lon="-0.60228">
        <ele>1583</ele>
      </trkpt>
      <trkpt lat="42.91089" lon="-0.60181">
        <ele>1598</ele>
      </trkpt>
      <trkpt lat="42.91252" lon="-0.60202">
        <ele>1627</ele>
      </trkpt>
      <trkpt lat="42.91325" lon="-0.60186">
        <ele>1630</ele>
      </trkpt>
      <trkpt lat="42.91378" lon="-0.60158">
        <ele>1632</ele>
      </trkpt>
      <trkpt lat="42.91472" lon="-0.60141">
        <ele>1636</ele>
      </trkpt>
      <trkpt lat="42.91518" lon="-0.60125">
        <ele>1652</ele>
      </trkpt>
      <trkpt lat="42.9152" lon="-0.60114">
        <ele>1652</ele>
      </trkpt>
      <trkpt lat="42.91518" lon="-0.60114">
        <ele>1652</ele>
      </trkpt>
      <trkpt lat="42.91527" lon="-0.60129">
        <ele>1636</ele>
      </trkpt>
      <trkpt lat="42.91583" lon="-0.60135">
        <ele>1637</ele>
      </trkpt>
      <trkpt lat="42.91603" lon="-0.60127">
        <ele>1637</ele>
      </trkpt>
      <trkpt lat="42.9164" lon="-0.60073">
        <ele>1644</ele>
      </trkpt>
      <trkpt lat="42.91678" lon="-0.59997">
        <ele>1664</ele>
      </trkpt>
      <trkpt lat="42.91659" lon="-0.60049">
        <ele>1644</ele>
      </trkpt>
      <trkpt lat="42.91612" lon="-0.6012">
        <ele>1656</ele>
      </trkpt>
      <trkpt lat="42.91589" lon="-0.60139">
        <ele>1637</ele>
      </trkpt>
      <trkpt lat="42.91548" lon="-0.60134">
        <ele>1637</ele>
      </trkpt>
      <trkpt lat="42.9151" lon="-0.60114">
        <ele>1652</ele>
      </trkpt>
      <trkpt lat="42.91527" lon="-0.60111">
        <ele>1652</ele>
      </trkpt>
      <trkpt lat="42.91452" lon="-0.59979">
        <ele>1648</ele>
      </trkpt>
      <trkpt lat="42.91343" lon="-0.60009">
        <ele>1632</ele>
      </trkpt>
      <trkpt lat="42.91286" lon="-0.59997">
        <ele>1639</ele>
      </trkpt>
      <trkpt lat="42.91245" lon="-0.59968">
        <ele>1639</ele>
      </trkpt>
      <trkpt lat="42.91204" lon="-0.59919">
        <ele>1621</ele>
      </trkpt>
      <trkpt lat="42.91142" lon="-0.59885">
        <ele>1621</ele>
      </trkpt>
      <trkpt lat="42.91074" lon="-0.59909">
        <ele>1606</ele>
      </trkpt>
      <trkpt lat="42.91034" lon="-0.59938">
        <ele>1590</ele>
      </trkpt>
      <trkpt lat="42.90972" lon="-0.59941">
        <ele>1590</ele>
      </trkpt>
      <trkpt lat="42.90947" lon="-0.59935">
        <ele>1588</ele>
      </trkpt>
      <trkpt lat="42.90906" lon="-0.59893">
        <ele>1588</ele>
      </trkpt>
      <trkpt lat="42.90786" lon="-0.59888">
        <ele>1557</ele>
      </trkpt>
      <trkpt lat="42.9076" lon="-0.59937">
        <ele>1557</ele>
      </trkpt>
      <trkpt lat="42.90746" lon="-0.5993">
        <ele>1557</ele>
      </trkpt>
      <trkpt lat="42.90733" lon="-0.59976">
        <ele>1588</ele>
      </trkpt>
      <trkpt lat="42.90571" lon="-0.60122">
        <ele>1579</ele>
      </trkpt>
      <trkpt lat="42.90547" lon="-0.60226">
        <ele>1607</ele>
      </trkpt>
      <trkpt lat="42.90456" lon="-0.60344">
        <ele>1595</ele>
      </trkpt>
      <trkpt lat="42.90443" lon="-0.60377">
        <ele>1607</ele>
      </trkpt>
      <trkpt lat="42.90416" lon="-0.6037">
        <ele>1595</ele>
      </trkpt>
      <trkpt lat="42.90351" lon="-0.60298">
        <ele>1588</ele>
      </trkpt>
      <trkpt lat="42.90329" lon="-0.60254">
        <ele>1570</ele>
      </trkpt>
      <trkpt lat="42.90283" lon="-0.60026">
        <ele>1527</ele>
      </trkpt>
      <trkpt lat="42.90296" lon="-0.59909">
        <ele>1507</ele>
      </trkpt>
      <trkpt lat="42.90288" lon="-0.59887">
        <ele>1509</ele>
      </trkpt>
      <trkpt lat="42.9027" lon="-0.59851">
        <ele>1500</ele>
      </trkpt>
      <trkpt lat="42.90239" lon="-0.59847">
        <ele>1500</ele>
      </trkpt>
      <trkpt lat="42.90141" lon="-0.5974">
        <ele>1481</ele>
      </trkpt>
      <trkpt lat="42.901" lon="-0.59613">
        <ele>1466</ele>
      </trkpt>
      <trkpt lat="42.90056" lon="-0.59547">
        <ele>1466</ele>
      </trkpt>
      <trkpt lat="42.90006" lon="-0.59518">
        <ele>1458</ele>
      </trkpt>
      <trkpt lat="42.90005" lon="-0.59439">
        <ele>1454</ele>
      </trkpt>
      <trkpt lat="42.90025" lon="-0.59384">
        <ele>1454</ele>
      </trkpt>
      <trkpt lat="42.90033" lon="-0.59267">
        <ele>1428</ele>
      </trkpt>
      <trkpt lat="42.90093" lon="-0.59221">
        <ele>1423</ele>
      </trkpt>
      <trkpt lat="42.9009" lon="-0.59184">
        <ele>1407</ele>
      </trkpt>
      <trkpt lat="42.90133" lon="-0.59153">
        <ele>1403</ele>
      </trkpt>
      <trkpt lat="42.90122" lon="-0.59086">
        <ele>1398</ele>
      </trkpt>
      <trkpt lat="42.90131" lon="-0.59082">
        <ele>1401</ele>
      </trkpt>
      <trkpt lat="42.90127" lon="-0.59084">
        <ele>1401</ele>
      </trkpt>
      <trkpt lat="42.90134" lon="-0.5916">
        <ele>1403</ele>
      </trkpt>
      <trkpt lat="42.90162" lon="-0.59226">
        <ele>1406</ele>
      </trkpt>
      <trkpt lat="42.90215" lon="-0.59308">
        <ele>1395</ele>
      </trkpt>
      <trkpt lat="42.9027" lon="-0.59336">
        <ele>1395</ele>
      </trkpt>
      <trkpt lat="42.90282" lon="-0.59353">
        <ele>1395</ele>
      </trkpt>
      <trkpt lat="42.90353" lon="-0.59348">
        <ele>1380</ele>
      </trkpt>
      <trkpt lat="42.90407" lon="-0.59436">
        <ele>1360</ele>
      </trkpt>
      <trkpt lat="42.90506" lon="-0.59522">
        <ele>1362</ele>
      </trkpt>
      <trkpt lat="42.90537" lon="-0.59521">
        <ele>1362</ele>
      </trkpt>
      <trkpt lat="42.90579" lon="-0.59495">
        <ele>1367</ele>
      </trkpt>
      <trkpt lat="42.9062" lon="-0.59488">
        <ele>1367</ele>
      </trkpt>
      <trkpt lat="42.9066" lon="-0.59499">
        <ele>1376</ele>
      </trkpt>
      <trkpt lat="42.90696" lon="-0.59478">
        <ele>1376</ele>
      </trkpt>
      <trkpt lat="42.90776" lon="-0.59462">
        <ele>1387</ele>
      </trkpt>
      <trkpt lat="42.90864" lon="-0.59347">
        <ele>1317</ele>
      </trkpt>
      <trkpt lat="42.90921" lon="-0.59289">
        <ele>1324</ele>
      </trkpt>
      <trkpt lat="42.91005" lon="-0.59238">
        <ele>1355</ele>
      </trkpt>
      <trkpt lat="42.91002" lon="-0.59224">
        <ele>1355</ele>
      </trkpt>
      <trkpt lat="42.91048" lon="-0.59229">
        <ele>1352</ele>
      </trkpt>
      <trkpt lat="42.91104" lon="-0.59292">
        <ele>1383</ele>
      </trkpt>
      <trkpt lat="42.91163" lon="-0.59301">
        <ele>1364</ele>
      </trkpt>
      <trkpt lat="42.91209" lon="-0.5919">
        <ele>1302</ele>
      </trkpt>
      <trkpt lat="42.91237" lon="-0.59173">
        <ele>1302</ele>
      </trkpt>
      <trkpt lat="42.91296" lon="-0.59181">
        <ele>1304</ele>
      </trkpt>
      <trkpt lat="42.91315" lon="-0.5909">
        <ele>1261</ele>
      </trkpt>
      <trkpt lat="42.91355" lon="-0.59005">
        <ele>1229</ele>
      </trkpt>
      <trkpt lat="42.91339" lon="-0.58992">
        <ele>1229</ele>
      </trkpt>
      <trkpt lat="42.91365" lon="-0.58978">
        <ele>1229</ele>
      </trkpt>
      <trkpt lat="42.91373" lon="-0.58953">
        <ele>1204</ele>
      </trkpt>
      <trkpt lat="42.91396" lon="-0.58943">
        <ele>1203</ele>
      </trkpt>
      <trkpt lat="42.91426" lon="-0.58956">
        <ele>1203</ele>
      </trkpt>
      <trkpt lat="42.91491" lon="-0.5902">
        <ele>1192</ele>
      </trkpt>
      <trkpt lat="42.91534" lon="-0.59047">
        <ele>1216</ele>
      </trkpt>
      <trkpt lat="42.91501" lon="-0.58899">
        <ele>1167</ele>
      </trkpt>
      <trkpt lat="42.91525" lon="-0.58907">
        <ele>1167</ele>
      </trkpt>
      <trkpt lat="42.91526" lon="-0.58907">
        <ele>1167</ele>
      </trkpt>
      <trkpt lat="42.9153" lon="-0.58901">
        <ele>1167</ele>
      </trkpt>
      <trkpt lat="42.91555" lon="-0.58933">
        <ele>1128</ele>
      </trkpt>
      <trkpt lat="42.91566" lon="-0.58925">
        <ele>1128</ele>
      </trkpt>
      <trkpt lat="42.91559" lon="-0.58906">
        <ele>1128</ele>
      </trkpt>
      <trkpt lat="42.91581" lon="-0.58902">
        <ele>1128</ele>
      </trkpt>
      <trkpt lat="42.9158" lon="-0.58887">
        <ele>1128</ele>
      </trkpt>
      <trkpt lat="42.91563" lon="-0.58785">
        <ele>1085</ele>
      </trkpt>
      <trkpt lat="42.91552" lon="-0.58771">
        <ele>1085</ele>
      </trkpt>
      <trkpt lat="42.91604" lon="-0.58803">
        <ele>1107</ele>
      </trkpt>
      <trkpt lat="42.91616" lon="-0.58784">
        <ele>1085</ele>
      </trkpt>
      <trkpt lat="42.91626" lon="-0.58796">
        <ele>1088</ele>
      </trkpt>
      <trkpt lat="42.91637" lon="-0.58763">
        <ele>1056</ele>
      </trkpt>
      <trkpt lat="42.91613" lon="-0.58708">
        <ele>1065</ele>
      </trkpt>
      <trkpt lat="42.91624" lon="-0.5871">
        <ele>1085</ele>
      </trkpt>
      <trkpt lat="42.9163" lon="-0.58693">
        <ele>1024</ele>
      </trkpt>
      <trkpt lat="42.91608" lon="-0.58653">
        <ele>1065</ele>
      </trkpt>
      <trkpt lat="42.91598" lon="-0.58599">
        <ele>1039</ele>
      </trkpt>
      <trkpt lat="42.916" lon="-0.58541">
        <ele>1005</ele>
      </trkpt>
      <trkpt lat="42.91574" lon="-0.5842">
        <ele>974</ele>
      </trkpt>
      <trkpt lat="42.91605" lon="-0.58431">
        <ele>974</ele>
      </trkpt>
      <trkpt lat="42.91705" lon="-0.58526">
        <ele>968</ele>
      </trkpt>
      <trkpt lat="42.91684" lon="-0.58449">
        <ele>939</ele>
      </trkpt>
      <trkpt lat="42.91703" lon="-0.58458">
        <ele>939</ele>
      </trkpt>
      <trkpt lat="42.91721" lon="-0.58422">
        <ele>924</ele>
      </trkpt>
      <trkpt lat="42.91725" lon="-0.5843">
        <ele>924</ele>
      </trkpt>
      <trkpt lat="42.91717" lon="-0.58415">
        <ele>924</ele>
      </trkpt>
      <trkpt lat="42.91724" lon="-0.58415">
        <ele>924</ele>
      </trkpt>
      <trkpt lat="42.91716" lon="-0.58351">
        <ele>897</ele>
      </trkpt>
      <trkpt lat="42.91665" lon="-0.58286">
        <ele>881</ele>
      </trkpt>
      <trkpt lat="42.9161" lon="-0.5818">
        <ele>879</ele>
      </trkpt>
      <trkpt lat="42.91543" lon="-0.5811">
        <ele>849</ele>
      </trkpt>
      <trkpt lat="42.91511" lon="-0.58016">
        <ele>845</ele>
      </trkpt>
      <trkpt lat="42.91455" lon="-0.57975">
        <ele>857</ele>
      </trkpt>
      <trkpt lat="42.91458" lon="-0.57923">
        <ele>836</ele>
      </trkpt>
      <trkpt lat="42.91361" lon="-0.57834">
        <ele>843</ele>
      </trkpt>
      <trkpt lat="42.91312" lon="-0.57768">
        <ele>830</ele>
      </trkpt>
      <trkpt lat="42.91231" lon="-0.57758">
        <ele>840</ele>
      </trkpt>
      <trkpt lat="42.91123" lon="-0.57834">
        <ele>816</ele>
      </trkpt>
      <trkpt lat="42.9108" lon="-0.57855">
        <ele>816</ele>
      </trkpt>
      <trkpt lat="42.90987" lon="-0.57968">
        <ele>848</ele>
      </trkpt>
      <trkpt lat="42.90918" lon="-0.57952">
        <ele>829</ele>
      </trkpt>
      <trkpt lat="42.90824" lon="-0.57958">
        <ele>825</ele>
      </trkpt>
      <trkpt lat="42.9075" lon="-0.58023">
        <ele>849</ele>
      </trkpt>
      <trkpt lat="42.90739" lon="-0.57988">
        <ele>849</ele>
      </trkpt>
      <trkpt lat="42.90753" lon="-0.58022">
        <ele>849</ele>
      </trkpt>
      <trkpt lat="42.90829" lon="-0.57955">
        <ele>825</ele>
      </trkpt>
      <trkpt lat="42.90899" lon="-0.5795">
        <ele>829</ele>
      </trkpt>
      <trkpt lat="42.90892" lon="-0.57935">
        <ele>829</ele>
      </trkpt>
      <trkpt lat="42.90876" lon="-0.57932">
        <ele>829</ele>
      </trkpt>
      <trkpt lat="42.90791" lon="-0.57945">
        <ele>830</ele>
      </trkpt>
      <trkpt lat="42.90764" lon="-0.57925">
        <ele>830</ele>
      </trkpt>
      <trkpt lat="42.908" lon="-0.57821">
        <ele>799</ele>
      </trkpt>
      <trkpt lat="42.9078" lon="-0.57783">
        <ele>783</ele>
      </trkpt>
      <trkpt lat="42.90819" lon="-0.57774">
        <ele>772</ele>
      </trkpt>
      <trkpt lat="42.908" lon="-0.5774">
        <ele>772</ele>
      </trkpt>
      <trkpt lat="42.90815" lon="-0.57697">
        <ele>746</ele>
      </trkpt>
      <trkpt lat="42.90792" lon="-0.57661">
        <ele>746</ele>
      </trkpt>
      <trkpt lat="42.90784" lon="-0.57573">
        <ele>732</ele>
      </trkpt>
      <trkpt lat="42.90803" lon="-0.57546">
        <ele>726</ele>
      </trkpt>
      <trkpt lat="42.90803" lon="-0.57529">
        <ele>703</ele>
      </trkpt>
      <trkpt lat="42.9085" lon="-0.57538">
        <ele>703</ele>
      </trkpt>
      <trkpt lat="42.90848" lon="-0.57516">
        <ele>703</ele>
      </trkpt>
      <trkpt lat="42.90873" lon="-0.57514">
        <ele>703</ele>
      </trkpt>
      <trkpt lat="42.9087" lon="-0.57487">
        <ele>703</ele>
      </trkpt>
      <trkpt lat="42.90879" lon="-0.57493">
        <ele>692</ele>
      </trkpt>
      <trkpt lat="42.90884" lon="-0.57473">
        <ele>692</ele>
      </trkpt>
      <trkpt lat="42.9088" lon="-0.57443">
        <ele>672</ele>
      </trkpt>
      <trkpt lat="42.90832" lon="-0.57387">
        <ele>678</ele>
      </trkpt>
      <trkpt lat="42.90831" lon="-0.5728">
        <ele>650</ele>
      </trkpt>
      <trkpt lat="42.90852" lon="-0.5727">
        <ele>650</ele>
      </trkpt>
      <trkpt lat="42.90856" lon="-0.57252">
        <ele>650</ele>
      </trkpt>
      <trkpt lat="42.90964" lon="-0.573">
        <ele>646</ele>
      </trkpt>
      <trkpt lat="42.90957" lon="-0.57307">
        <ele>660</ele>
      </trkpt>
      <trkpt lat="42.90995" lon="-0.57313">
        <ele>646</ele>
      </trkpt>
      <trkpt lat="42.91015" lon="-0.57266">
        <ele>631</ele>
      </trkpt>
      <trkpt lat="42.91031" lon="-0.57314">
        <ele>646</ele>
      </trkpt>
      <trkpt lat="42.91063" lon="-0.57238">
        <ele>621</ele>
      </trkpt>
      <trkpt lat="42.91098" lon="-0.57229">
        <ele>621</ele>
      </trkpt>
      <trkpt lat="42.91131" lon="-0.57234">
        <ele>603</ele>
      </trkpt>
      <trkpt lat="42.91144" lon="-0.57203">
        <ele>594</ele>
      </trkpt>
      <trkpt lat="42.91048" lon="-0.57139">
        <ele>602</ele>
      </trkpt>
      <trkpt lat="42.91045" lon="-0.57127">
        <ele>602</ele>
      </trkpt>
      <trkpt lat="42.91067" lon="-0.57044">
        <ele>596</ele>
      </trkpt>
      <trkpt lat="42.91084" lon="-0.5703">
        <ele>619</ele>
      </trkpt>
      <trkpt lat="42.9112" lon="-0.57043">
        <ele>596</ele>
      </trkpt>
      <trkpt lat="42.91097" lon="-0.57036">
        <ele>619</ele>
      </trkpt>
      <trkpt lat="42.9109" lon="-0.57026">
        <ele>619</ele>
      </trkpt>
      <trkpt lat="42.91101" lon="-0.57028">
        <ele>619</ele>
      </trkpt>
      <trkpt lat="42.91207" lon="-0.57108">
        <ele>597</ele>
      </trkpt>
      <trkpt lat="42.91215" lon="-0.57116">
        <ele>599</ele>
      </trkpt>
      <trkpt lat="42.91208" lon="-0.57121">
        <ele>597</ele>
      </trkpt>
      <trkpt lat="42.91217" lon="-0.571">
        <ele>599</ele>
      </trkpt>
      <trkpt lat="42.91223" lon="-0.57137">
        <ele>594</ele>
      </trkpt>
      <trkpt lat="42.91246" lon="-0.57166">
        <ele>594</ele>
      </trkpt>
      <trkpt lat="42.91325" lon="-0.57201">
        <ele>602</ele>
      </trkpt>
      <trkpt lat="42.91391" lon="-0.57266">
        <ele>623</ele>
      </trkpt>
      <trkpt lat="42.91423" lon="-0.57343">
        <ele>603</ele>
      </trkpt>
      <trkpt lat="42.9146" lon="-0.57382">
        <ele>594</ele>
      </trkpt>
      <trkpt lat="42.91533" lon="-0.57406">
        <ele>594</ele>
      </trkpt>
      <trkpt lat="42.91536" lon="-0.57429">
        <ele>594</ele>
      </trkpt>
      <trkpt lat="42.91531" lon="-0.5742">
        <ele>594</ele>
      </trkpt>
      <trkpt lat="42.91552" lon="-0.57417">
        <ele>596</ele>
      </trkpt>
      <trkpt lat="42.91621" lon="-0.57448">
        <ele>596</ele>
      </trkpt>
      <trkpt lat="42.91679" lon="-0.57457">
        <ele>618</ele>
      </trkpt>
      <trkpt lat="42.9176" lon="-0.57558">
        <ele>592</ele>
      </trkpt>
      <trkpt lat="42.91845" lon="-0.57639">
        <ele>582</ele>
      </trkpt>
      <trkpt lat="42.91915" lon="-0.57661">
        <ele>580</ele>
      </trkpt>
      <trkpt lat="42.92104" lon="-0.57763">
        <ele>576</ele>
      </trkpt>
      <trkpt lat="42.92178" lon="-0.57791">
        <ele>610</ele>
      </trkpt>
      <trkpt lat="42.92237" lon="-0.57838">
        <ele>603</ele>
      </trkpt>
      <trkpt lat="42.92355" lon="-0.57904">
        <ele>591</ele>
      </trkpt>
      <trkpt lat="42.92371" lon="-0.5795">
        <ele>591</ele>
      </trkpt>
      <trkpt lat="42.92407" lon="-0.57971">
        <ele>575</ele>
      </trkpt>
      <trkpt lat="42.92427" lon="-0.5797">
        <ele>575</ele>
      </trkpt>
      <trkpt lat="42.92436" lon="-0.58">
        <ele>575</ele>
      </trkpt>
      <trkpt lat="42.92567" lon="-0.58049">
        <ele>565</ele>
      </trkpt>
      <trkpt lat="42.92627" lon="-0.58083">
        <ele>555</ele>
      </trkpt>
      <trkpt lat="42.9267" lon="-0.58142">
        <ele>577</ele>
      </trkpt>
      <trkpt lat="42.92697" lon="-0.58131">
        <ele>577</ele>
      </trkpt>
      <trkpt lat="42.92769" lon="-0.58186">
        <ele>561</ele>
      </trkpt>
      <trkpt lat="42.92814" lon="-0.58186">
        <ele>551</ele>
      </trkpt>
      <trkpt lat="42.92926" lon="-0.58286">
        <ele>562</ele>
      </trkpt>
      <trkpt lat="42.92955" lon="-0.58291">
        <ele>562</ele>
      </trkpt>
      <trkpt lat="42.92982" lon="-0.58341">
        <ele>565</ele>
      </trkpt>
      <trkpt lat="42.93071" lon="-0.58453">
        <ele>561</ele>
      </trkpt>
      <trkpt lat="42.93122" lon="-0.585">
        <ele>594</ele>
      </trkpt>
      <trkpt lat="42.93135" lon="-0.58527">
        <ele>550</ele>
      </trkpt>
      <trkpt lat="42.93209" lon="-0.58571">
        <ele>542</ele>
      </trkpt>
      <trkpt lat="42.93262" lon="-0.58668">
        <ele>581</ele>
      </trkpt>
      <trkpt lat="42.93317" lon="-0.58673">
        <ele>545</ele>
      </trkpt>
      <trkpt lat="42.93322" lon="-0.58752">
        <ele>570</ele>
      </trkpt>
      <trkpt lat="42.93437" lon="-0.58765">
        <ele>547</ele>
      </trkpt>
      <trkpt lat="42.93444" lon="-0.58755">
        <ele>547</ele>
      </trkpt>
      <trkpt lat="42.93428" lon="-0.58745">
        <ele>547</ele>
      </trkpt>
      <trkpt lat="42.93474" lon="-0.58862">
        <ele>531</ele>
      </trkpt>
      <trkpt lat="42.9349" lon="-0.5897">
        <ele>575</ele>
      </trkpt>
      <trkpt lat="42.93526" lon="-0.59031">
        <ele>575</ele>
      </trkpt>
      <trkpt lat="42.93572" lon="-0.59045">
        <ele>547</ele>
      </trkpt>
      <trkpt lat="42.93592" lon="-0.59086">
        <ele>547</ele>
      </trkpt>
      <trkpt lat="42.93618" lon="-0.59104">
        <ele>547</ele>
      </trkpt>
      <trkpt lat="42.93638" lon="-0.591">
        <ele>519</ele>
      </trkpt>
      <trkpt lat="42.93607" lon="-0.59127">
        <ele>566</ele>
      </trkpt>
      <trkpt lat="42.93656" lon="-0.59098">
        <ele>519</ele>
      </trkpt>
      <trkpt lat="42.93641" lon="-0.59107">
        <ele>519</ele>
      </trkpt>
      <trkpt lat="42.93652" lon="-0.59102">
        <ele>519</ele>
      </trkpt>
      <trkpt lat="42.93602" lon="-0.59074">
        <ele>547</ele>
      </trkpt>
      <trkpt lat="42.93532" lon="-0.58933">
        <ele>547</ele>
      </trkpt>
      <trkpt lat="42.93471" lon="-0.58787">
        <ele>531</ele>
      </trkpt>
      <trkpt lat="42.9347" lon="-0.58744">
        <ele>531</ele>
      </trkpt>
      <trkpt lat="42.93486" lon="-0.58736">
        <ele>531</ele>
      </trkpt>
      <trkpt lat="42.93552" lon="-0.5886">
        <ele>527</ele>
      </trkpt>
      <trkpt lat="42.93703" lon="-0.59086">
        <ele>519</ele>
      </trkpt>
      <trkpt lat="42.93879" lon="-0.59416">
        <ele>556</ele>
      </trkpt>
      <trkpt lat="42.93917" lon="-0.5959">
        <ele>544</ele>
      </trkpt>
      <trkpt lat="42.93919" lon="-0.59686">
        <ele>532</ele>
      </trkpt>
      <trkpt lat="42.93892" lon="-0.59815">
        <ele>539</ele>
      </trkpt>
      <trkpt lat="42.93891" lon="-0.60055">
        <ele>511</ele>
      </trkpt>
      <trkpt lat="42.94002" lon="-0.60122">
        <ele>527</ele>
      </trkpt>
      <trkpt lat="42.94131" lon="-0.60377">
        <ele>507</ele>
      </trkpt>
      <trkpt lat="42.94181" lon="-0.60557">
        <ele>502</ele>
      </trkpt>
      <trkpt lat="42.94309" lon="-0.60769">
        <ele>523</ele>
      </trkpt>
      <trkpt lat="42.94487" lon="-0.60874">
        <ele>522</ele>
      </trkpt>
      <trkpt lat="42.9461" lon="-0.61012">
        <ele>505</ele>
      </trkpt>
      <trkpt lat="42.9468" lon="-0.6112">
        <ele>498</ele>
      </trkpt>
      <trkpt lat="42.94672" lon="-0.61155">
        <ele>488</ele>
      </trkpt>
      <trkpt lat="42.94683" lon="-0.61145">
        <ele>488</ele>
      </trkpt>
    </trkseg>
  </trk>
  <trk>
    <name><![CDATA[La rando des mousquetaires - Oloron-Sainte-Marie - Arette - 10125 - UtagawaVTT.com]]></name>
    <trkseg>
      <trkpt lat="43.19553" lon="-0.60014">
        <ele>231.915894</ele>
      </trkpt>
      <trkpt lat="43.19551" lon="-0.60041">
        <ele>231.175003</ele>
      </trkpt>
      <trkpt lat="43.19554" lon="-0.60053">
        <ele>230.90062</ele>
      </trkpt>
      <trkpt lat="43.19587" lon="-0.60088">
        <ele>230.832504</ele>
      </trkpt>
      <trkpt lat="43.19604" lon="-0.60113">
        <ele>230.824997</ele>
      </trkpt>
      <trkpt lat="43.1964" lon="-0.60207">
        <ele>230</ele>
      </trkpt>
      <trkpt lat="43.19658" lon="-0.60233">
        <ele>230.703979</ele>
      </trkpt>
      <trkpt lat="43.19757" lon="-0.60326">
        <ele>235.559998</ele>
      </trkpt>
      <trkpt lat="43.19765" lon="-0.60342">
        <ele>236.240005</ele>
      </trkpt>
      <trkpt lat="43.19769" lon="-0.6036">
        <ele>236.888123</ele>
      </trkpt>
      <trkpt lat="43.19771" lon="-0.60397">
        <ele>237.54187</ele>
      </trkpt>
      <trkpt lat="43.19779" lon="-0.6042">
        <ele>237.956696</ele>
      </trkpt>
      <trkpt lat="43.1978" lon="-0.60435">
        <ele>237.49794</ele>
      </trkpt>
      <trkpt lat="43.19758" lon="-0.60508">
        <ele>230.314056</ele>
      </trkpt>
      <trkpt lat="43.19751" lon="-0.60551">
        <ele>220.18428</ele>
      </trkpt>
      <trkpt lat="43.19758" lon="-0.60716">
        <ele>219.070206</ele>
      </trkpt>
      <trkpt lat="43.19763" lon="-0.60741">
        <ele>222.448029</ele>
      </trkpt>
      <trkpt lat="43.19781" lon="-0.60788">
        <ele>224.955902</ele>
      </trkpt>
      <trkpt lat="43.19833" lon="-0.60891">
        <ele>221.728806</ele>
      </trkpt>
      <trkpt lat="43.19846" lon="-0.60922">
        <ele>219.961502</ele>
      </trkpt>
      <trkpt lat="43.19856" lon="-0.60956">
        <ele>219.622498</ele>
      </trkpt>
      <trkpt lat="43.19905" lon="-0.61187">
        <ele>214.778</ele>
      </trkpt>
      <trkpt lat="43.19909" lon="-0.61232">
        <ele>214.292358</ele>
      </trkpt>
      <trkpt lat="43.19911" lon="-0.61358">
        <ele>218.859329</ele>
      </trkpt>
      <trkpt lat="43.19904" lon="-0.61395">
        <ele>220.672729</ele>
      </trkpt>
      <trkpt lat="43.19891" lon="-0.61426">
        <ele>223.104996</ele>
      </trkpt>
      <trkpt lat="43.19839" lon="-0.61519">
        <ele>227.714539</ele>
      </trkpt>
      <trkpt lat="43.19817" lon="-0.61561">
        <ele>226.869995</ele>
      </trkpt>
      <trkpt lat="43.1974" lon="-0.61756">
        <ele>223.244171</ele>
      </trkpt>
      <trkpt lat="43.19731" lon="-0.61789">
        <ele>223.154999</ele>
      </trkpt>
      <trkpt lat="43.19708" lon="-0.61836">
        <ele>223.681625</ele>
      </trkpt>
      <trkpt lat="43.19652" lon="-0.61975">
        <ele>225</ele>
      </trkpt>
      <trkpt lat="43.19609" lon="-0.6205">
        <ele>225.710007</ele>
      </trkpt>
      <trkpt lat="43.19527" lon="-0.62201">
        <ele>226.4375</ele>
      </trkpt>
      <trkpt lat="43.19526" lon="-0.62214">
        <ele>226.452499</ele>
      </trkpt>
      <trkpt lat="43.19533" lon="-0.62224">
        <ele>226.289993</ele>
      </trkpt>
      <trkpt lat="43.19634" lon="-0.62334">
        <ele>224.989273</ele>
      </trkpt>
      <trkpt lat="43.1975" lon="-0.62452">
        <ele>223.315002</ele>
      </trkpt>
      <trkpt lat="43.1985" lon="-0.62559">
        <ele>222.014999</ele>
      </trkpt>
      <trkpt lat="43.19859" lon="-0.62572">
        <ele>222</ele>
      </trkpt>
      <trkpt lat="43.19864" lon="-0.62588">
        <ele>222.165527</ele>
      </trkpt>
      <trkpt lat="43.19805" lon="-0.62767">
        <ele>223</ele>
      </trkpt>
      <trkpt lat="43.19766" lon="-0.62929">
        <ele>223</ele>
      </trkpt>
      <trkpt lat="43.19764" lon="-0.62948">
        <ele>223.120239</ele>
      </trkpt>
      <trkpt lat="43.19764" lon="-0.62966">
        <ele>223.32637</ele>
      </trkpt>
      <trkpt lat="43.19766" lon="-0.62984">
        <ele>223.4711</ele>
      </trkpt>
      <trkpt lat="43.19781" lon="-0.63016">
        <ele>223.285004</ele>
      </trkpt>
      <trkpt lat="43.19796" lon="-0.63044">
        <ele>223</ele>
      </trkpt>
      <trkpt lat="43.19816" lon="-0.63066">
        <ele>223</ele>
      </trkpt>
      <trkpt lat="43.19828" lon="-0.63075">
        <ele>223</ele>
      </trkpt>
      <trkpt lat="43.20021" lon="-0.63178">
        <ele>221.955002</ele>
      </trkpt>
      <trkpt lat="43.20043" lon="-0.63187">
        <ele>221.89151</ele>
      </trkpt>
      <trkpt lat="43.20046" lon="-0.632">
        <ele>222</ele>
      </trkpt>
      <trkpt lat="43.2004" lon="-0.63218">
        <ele>222</ele>
      </trkpt>
      <trkpt lat="43.20039" lon="-0.63268">
        <ele>222</ele>
      </trkpt>
      <trkpt lat="43.20041" lon="-0.6339">
        <ele>222.133118</ele>
      </trkpt>
      <trkpt lat="43.20031" lon="-0.63436">
        <ele>222.889374</ele>
      </trkpt>
      <trkpt lat="43.20026" lon="-0.63451">
        <ele>223</ele>
      </trkpt>
      <trkpt lat="43.19987" lon="-0.63516">
        <ele>223.306183</ele>
      </trkpt>
      <trkpt lat="43.1991" lon="-0.63655">
        <ele>226.551254</ele>
      </trkpt>
      <trkpt lat="43.19795" lon="-0.63841">
        <ele>225.690613</ele>
      </trkpt>
      <trkpt lat="43.19754" lon="-0.63925">
        <ele>223.628769</ele>
      </trkpt>
      <trkpt lat="43.19747" lon="-0.63937">
        <ele>223.378479</ele>
      </trkpt>
      <trkpt lat="43.19734" lon="-0.63931">
        <ele>223.197189</ele>
      </trkpt>
      <trkpt lat="43.19673" lon="-0.63858">
        <ele>223.939377</ele>
      </trkpt>
      <trkpt lat="43.19616" lon="-0.638">
        <ele>224.836868</ele>
      </trkpt>
      <trkpt lat="43.19508" lon="-0.63657">
        <ele>226</ele>
      </trkpt>
      <trkpt lat="43.1949" lon="-0.63641">
        <ele>226</ele>
      </trkpt>
      <trkpt lat="43.19479" lon="-0.6364">
        <ele>226</ele>
      </trkpt>
      <trkpt lat="43.19411" lon="-0.63745">
        <ele>225.589111</ele>
      </trkpt>
      <trkpt lat="43.19397" lon="-0.63772">
        <ele>225.424942</ele>
      </trkpt>
      <trkpt lat="43.19383" lon="-0.63816">
        <ele>225.25325</ele>
      </trkpt>
      <trkpt lat="43.19344" lon="-0.63904">
        <ele>225</ele>
      </trkpt>
      <trkpt lat="43.19317" lon="-0.63984">
        <ele>225.01033</ele>
      </trkpt>
      <trkpt lat="43.19265" lon="-0.6411">
        <ele>225.046783</ele>
      </trkpt>
      <trkpt lat="43.19223" lon="-0.64199">
        <ele>225</ele>
      </trkpt>
      <trkpt lat="43.19188" lon="-0.64284">
        <ele>224.878616</ele>
      </trkpt>
      <trkpt lat="43.19176" lon="-0.64318">
        <ele>224.941833</ele>
      </trkpt>
      <trkpt lat="43.19149" lon="-0.64415">
        <ele>224.205368</ele>
      </trkpt>
      <trkpt lat="43.19137" lon="-0.64446">
        <ele>223.97847</ele>
      </trkpt>
      <trkpt lat="43.19101" lon="-0.64515">
        <ele>224.36235</ele>
      </trkpt>
      <trkpt lat="43.19054" lon="-0.64619">
        <ele>224.981262</ele>
      </trkpt>
      <trkpt lat="43.19027" lon="-0.64671">
        <ele>224.147324</ele>
      </trkpt>
      <trkpt lat="43.19016" lon="-0.64676">
        <ele>223.8255</ele>
      </trkpt>
      <trkpt lat="43.18991" lon="-0.64651">
        <ele>223.998489</ele>
      </trkpt>
      <trkpt lat="43.18964" lon="-0.64618">
        <ele>224.473755</ele>
      </trkpt>
      <trkpt lat="43.18953" lon="-0.64614">
        <ele>224.324722</ele>
      </trkpt>
      <trkpt lat="43.18944" lon="-0.64623">
        <ele>223.862503</ele>
      </trkpt>
      <trkpt lat="43.18931" lon="-0.64653">
        <ele>222.580002</ele>
      </trkpt>
      <trkpt lat="43.18907" lon="-0.64695">
        <ele>220.550049</ele>
      </trkpt>
      <trkpt lat="43.18896" lon="-0.64701">
        <ele>220.172256</ele>
      </trkpt>
      <trkpt lat="43.1887" lon="-0.64699">
        <ele>219.847931</ele>
      </trkpt>
      <trkpt lat="43.18831" lon="-0.64704">
        <ele>219.652802</ele>
      </trkpt>
      <trkpt lat="43.18817" lon="-0.64709">
        <ele>219.798996</ele>
      </trkpt>
      <trkpt lat="43.18799" lon="-0.64718">
        <ele>220</ele>
      </trkpt>
      <trkpt lat="43.18772" lon="-0.64743">
        <ele>220</ele>
      </trkpt>
      <trkpt lat="43.18744" lon="-0.64789">
        <ele>219.998627</ele>
      </trkpt>
      <trkpt lat="43.18698" lon="-0.64851">
        <ele>218.628632</ele>
      </trkpt>
      <trkpt lat="43.18667" lon="-0.64897">
        <ele>215.558304</ele>
      </trkpt>
      <trkpt lat="43.18658" lon="-0.64924">
        <ele>214.326279</ele>
      </trkpt>
      <trkpt lat="43.18644" lon="-0.64943">
        <ele>213.8349</ele>
      </trkpt>
      <trkpt lat="43.18608" lon="-0.64974">
        <ele>214.122498</ele>
      </trkpt>
      <trkpt lat="43.18604" lon="-0.64988">
        <ele>214.357498</ele>
      </trkpt>
      <trkpt lat="43.18602" lon="-0.65015">
        <ele>214.793747</ele>
      </trkpt>
      <trkpt lat="43.18597" lon="-0.65029">
        <ele>215.086243</ele>
      </trkpt>
      <trkpt lat="43.18588" lon="-0.65033">
        <ele>215.311249</ele>
      </trkpt>
      <trkpt lat="43.18546" lon="-0.65039">
        <ele>215.303879</ele>
      </trkpt>
      <trkpt lat="43.18536" lon="-0.65038">
        <ele>215.092941</ele>
      </trkpt>
      <trkpt lat="43.18451" lon="-0.65011">
        <ele>216.931625</ele>
      </trkpt>
      <trkpt lat="43.18432" lon="-0.65001">
        <ele>217.935898</ele>
      </trkpt>
      <trkpt lat="43.18359" lon="-0.64946">
        <ele>217.313904</ele>
      </trkpt>
      <trkpt lat="43.18316" lon="-0.64924">
        <ele>218.506683</ele>
      </trkpt>
      <trkpt lat="43.18305" lon="-0.64913">
        <ele>218.120865</ele>
      </trkpt>
      <trkpt lat="43.18276" lon="-0.64911">
        <ele>218.756622</ele>
      </trkpt>
      <trkpt lat="43.18236" lon="-0.64924">
        <ele>219.570236</ele>
      </trkpt>
      <trkpt lat="43.18198" lon="-0.64947">
        <ele>219.830002</ele>
      </trkpt>
      <trkpt lat="43.18181" lon="-0.64961">
        <ele>219.947433</ele>
      </trkpt>
      <trkpt lat="43.18158" lon="-0.64987">
        <ele>219.441788</ele>
      </trkpt>
      <trkpt lat="43.18112" lon="-0.65021">
        <ele>218.705795</ele>
      </trkpt>
      <trkpt lat="43.18099" lon="-0.65028">
        <ele>218.630936</ele>
      </trkpt>
      <trkpt lat="43.18017" lon="-0.6504">
        <ele>218.075623</ele>
      </trkpt>
      <trkpt lat="43.17998" lon="-0.65048">
        <ele>218.548126</ele>
      </trkpt>
      <trkpt lat="43.17963" lon="-0.65081">
        <ele>219.3461</ele>
      </trkpt>
      <trkpt lat="43.1791" lon="-0.6512">
        <ele>217.18428</ele>
      </trkpt>
      <trkpt lat="43.1785" lon="-0.65136">
        <ele>218.407043</ele>
      </trkpt>
      <trkpt lat="43.17812" lon="-0.65159">
        <ele>218.280472</ele>
      </trkpt>
      <trkpt lat="43.17745" lon="-0.65208">
        <ele>219.266037</ele>
      </trkpt>
      <trkpt lat="43.17624" lon="-0.65306">
        <ele>222.383499</ele>
      </trkpt>
      <trkpt lat="43.17595" lon="-0.65321">
        <ele>224.02298</ele>
      </trkpt>
      <trkpt lat="43.17545" lon="-0.65335">
        <ele>226.540985</ele>
      </trkpt>
      <trkpt lat="43.17481" lon="-0.65341">
        <ele>228.830124</ele>
      </trkpt>
      <trkpt lat="43.17442" lon="-0.6533">
        <ele>224.40773</ele>
      </trkpt>
      <trkpt lat="43.17431" lon="-0.65329">
        <ele>223.591232</ele>
      </trkpt>
      <trkpt lat="43.17395" lon="-0.65344">
        <ele>222.691544</ele>
      </trkpt>
      <trkpt lat="43.17374" lon="-0.65358">
        <ele>222.613129</ele>
      </trkpt>
      <trkpt lat="43.17353" lon="-0.65388">
        <ele>222.83725</ele>
      </trkpt>
      <trkpt lat="43.17337" lon="-0.65404">
        <ele>223.324997</ele>
      </trkpt>
      <trkpt lat="43.17308" lon="-0.65449">
        <ele>226.711029</ele>
      </trkpt>
      <trkpt lat="43.17293" lon="-0.65465">
        <ele>226.803894</ele>
      </trkpt>
      <trkpt lat="43.17284" lon="-0.6549">
        <ele>227.953583</ele>
      </trkpt>
      <trkpt lat="43.17281" lon="-0.65516">
        <ele>229.867661</ele>
      </trkpt>
      <trkpt lat="43.17277" lon="-0.65533">
        <ele>230.899414</ele>
      </trkpt>
      <trkpt lat="43.17277" lon="-0.65549">
        <ele>232.475571</ele>
      </trkpt>
      <trkpt lat="43.17273" lon="-0.65593">
        <ele>234.575439</ele>
      </trkpt>
      <trkpt lat="43.17286" lon="-0.65652">
        <ele>236.370636</ele>
      </trkpt>
      <trkpt lat="43.17303" lon="-0.6569">
        <ele>237.193558</ele>
      </trkpt>
      <trkpt lat="43.17326" lon="-0.65721">
        <ele>237.587875</ele>
      </trkpt>
      <trkpt lat="43.17353" lon="-0.65749">
        <ele>237.673248</ele>
      </trkpt>
      <trkpt lat="43.17375" lon="-0.6578">
        <ele>237.558868</ele>
      </trkpt>
      <trkpt lat="43.17386" lon="-0.65802">
        <ele>237.133301</ele>
      </trkpt>
      <trkpt lat="43.174" lon="-0.65834">
        <ele>236.130112</ele>
      </trkpt>
      <trkpt lat="43.17445" lon="-0.65977">
        <ele>237.52272</ele>
      </trkpt>
      <trkpt lat="43.17464" lon="-0.66018">
        <ele>238.065628</ele>
      </trkpt>
      <trkpt lat="43.17499" lon="-0.66075">
        <ele>236.817978</ele>
      </trkpt>
      <trkpt lat="43.17505" lon="-0.6609">
        <ele>236.334381</ele>
      </trkpt>
      <trkpt lat="43.17511" lon="-0.66121">
        <ele>235.76358</ele>
      </trkpt>
      <trkpt lat="43.17514" lon="-0.6617">
        <ele>235.099823</ele>
      </trkpt>
      <trkpt lat="43.17525" lon="-0.6621">
        <ele>236.910934</ele>
      </trkpt>
      <trkpt lat="43.17524" lon="-0.66245">
        <ele>238.346252</ele>
      </trkpt>
      <trkpt lat="43.17528" lon="-0.66277">
        <ele>239.131638</ele>
      </trkpt>
      <trkpt lat="43.17538" lon="-0.66304">
        <ele>238.745285</ele>
      </trkpt>
      <trkpt lat="43.17583" lon="-0.66386">
        <ele>240.655502</ele>
      </trkpt>
      <trkpt lat="43.17604" lon="-0.66432">
        <ele>241.109375</ele>
      </trkpt>
      <trkpt lat="43.17636" lon="-0.66487">
        <ele>241.286743</ele>
      </trkpt>
      <trkpt lat="43.17658" lon="-0.66515">
        <ele>241.635452</ele>
      </trkpt>
      <trkpt lat="43.17695" lon="-0.66591">
        <ele>241.9711</ele>
      </trkpt>
      <trkpt lat="43.17721" lon="-0.66631">
        <ele>241.790558</ele>
      </trkpt>
      <trkpt lat="43.17757" lon="-0.66715">
        <ele>242.865204</ele>
      </trkpt>
      <trkpt lat="43.17782" lon="-0.66764">
        <ele>246.277344</ele>
      </trkpt>
      <trkpt lat="43.17798" lon="-0.66785">
        <ele>246.785156</ele>
      </trkpt>
      <trkpt lat="43.1784" lon="-0.66824">
        <ele>246.379303</ele>
      </trkpt>
      <trkpt lat="43.17883" lon="-0.66855">
        <ele>251.087494</ele>
      </trkpt>
      <trkpt lat="43.17908" lon="-0.66891">
        <ele>249.564484</ele>
      </trkpt>
      <trkpt lat="43.17941" lon="-0.66955">
        <ele>251.993027</ele>
      </trkpt>
      <trkpt lat="43.17995" lon="-0.67079">
        <ele>257.333893</ele>
      </trkpt>
      <trkpt lat="43.18014" lon="-0.67113">
        <ele>260.207489</ele>
      </trkpt>
      <trkpt lat="43.18017" lon="-0.67126">
        <ele>260.764435</ele>
      </trkpt>
      <trkpt lat="43.17973" lon="-0.67166">
        <ele>256.421509</ele>
      </trkpt>
      <trkpt lat="43.17965" lon="-0.67171">
        <ele>256.970093</ele>
      </trkpt>
      <trkpt lat="43.17945" lon="-0.67174">
        <ele>259.928894</ele>
      </trkpt>
      <trkpt lat="43.17926" lon="-0.67169">
        <ele>262.492493</ele>
      </trkpt>
      <trkpt lat="43.17869" lon="-0.67135">
        <ele>274.448059</ele>
      </trkpt>
      <trkpt lat="43.17858" lon="-0.67135">
        <ele>276.848267</ele>
      </trkpt>
      <trkpt lat="43.17848" lon="-0.6714">
        <ele>279.236237</ele>
      </trkpt>
      <trkpt lat="43.17833" lon="-0.67158">
        <ele>283.163849</ele>
      </trkpt>
      <trkpt lat="43.17823" lon="-0.67163">
        <ele>284.273804</ele>
      </trkpt>
      <trkpt lat="43.17815" lon="-0.67172">
        <ele>285.579041</ele>
      </trkpt>
      <trkpt lat="43.17806" lon="-0.67198">
        <ele>288.127136</ele>
      </trkpt>
      <trkpt lat="43.17802" lon="-0.67255">
        <ele>295.180634</ele>
      </trkpt>
      <trkpt lat="43.17793" lon="-0.67277">
        <ele>297.347534</ele>
      </trkpt>
      <trkpt lat="43.17802" lon="-0.6732">
        <ele>300.108856</ele>
      </trkpt>
      <trkpt lat="43.17808" lon="-0.67333">
        <ele>300.658081</ele>
      </trkpt>
      <trkpt lat="43.17828" lon="-0.67343">
        <ele>302.558868</ele>
      </trkpt>
      <trkpt lat="43.17844" lon="-0.67382">
        <ele>304.827789</ele>
      </trkpt>
      <trkpt lat="43.17846" lon="-0.67395">
        <ele>305.109406</ele>
      </trkpt>
      <trkpt lat="43.17866" lon="-0.67456">
        <ele>307.890625</ele>
      </trkpt>
      <trkpt lat="43.17878" lon="-0.67562">
        <ele>307.84198</ele>
      </trkpt>
      <trkpt lat="43.17879" lon="-0.67602">
        <ele>307.879974</ele>
      </trkpt>
      <trkpt lat="43.17863" lon="-0.6769">
        <ele>310.857239</ele>
      </trkpt>
      <trkpt lat="43.17858" lon="-0.67703">
        <ele>311.965942</ele>
      </trkpt>
      <trkpt lat="43.17855" lon="-0.67757">
        <ele>317.529999</ele>
      </trkpt>
      <trkpt lat="43.17848" lon="-0.67823">
        <ele>324.079437</ele>
      </trkpt>
      <trkpt lat="43.17832" lon="-0.67917">
        <ele>331.595215</ele>
      </trkpt>
      <trkpt lat="43.17833" lon="-0.6793">
        <ele>332.524963</ele>
      </trkpt>
      <trkpt lat="43.17838" lon="-0.67943">
        <ele>333.222321</ele>
      </trkpt>
      <trkpt lat="43.17836" lon="-0.67969">
        <ele>333.60257</ele>
      </trkpt>
      <trkpt lat="43.17838" lon="-0.67981">
        <ele>334.008911</ele>
      </trkpt>
      <trkpt lat="43.17836" lon="-0.67993">
        <ele>334.088623</ele>
      </trkpt>
      <trkpt lat="43.17839" lon="-0.68007">
        <ele>334.064178</ele>
      </trkpt>
      <trkpt lat="43.17855" lon="-0.68041">
        <ele>335.978149</ele>
      </trkpt>
      <trkpt lat="43.17859" lon="-0.68053">
        <ele>336.291046</ele>
      </trkpt>
      <trkpt lat="43.17859" lon="-0.6808">
        <ele>335.919342</ele>
      </trkpt>
      <trkpt lat="43.17847" lon="-0.68143">
        <ele>332.868164</ele>
      </trkpt>
      <trkpt lat="43.17842" lon="-0.68154">
        <ele>331.709656</ele>
      </trkpt>
      <trkpt lat="43.17813" lon="-0.68191">
        <ele>327.050262</ele>
      </trkpt>
      <trkpt lat="43.17803" lon="-0.68217">
        <ele>326.916962</ele>
      </trkpt>
      <trkpt lat="43.17802" lon="-0.68235">
        <ele>327.858215</ele>
      </trkpt>
      <trkpt lat="43.17806" lon="-0.68303">
        <ele>327.413239</ele>
      </trkpt>
      <trkpt lat="43.17805" lon="-0.68323">
        <ele>326.968262</ele>
      </trkpt>
      <trkpt lat="43.17801" lon="-0.68338">
        <ele>326.327393</ele>
      </trkpt>
      <trkpt lat="43.17795" lon="-0.68347">
        <ele>324.721405</ele>
      </trkpt>
      <trkpt lat="43.17756" lon="-0.68373">
        <ele>317.871887</ele>
      </trkpt>
      <trkpt lat="43.17724" lon="-0.684">
        <ele>312.785614</ele>
      </trkpt>
      <trkpt lat="43.17705" lon="-0.68425">
        <ele>313.22876</ele>
      </trkpt>
      <trkpt lat="43.17698" lon="-0.68443">
        <ele>312.09021</ele>
      </trkpt>
      <trkpt lat="43.17695" lon="-0.68462">
        <ele>311.826599</ele>
      </trkpt>
      <trkpt lat="43.17696" lon="-0.68502">
        <ele>310.15271</ele>
      </trkpt>
      <trkpt lat="43.17691" lon="-0.68529">
        <ele>306.467651</ele>
      </trkpt>
      <trkpt lat="43.17685" lon="-0.6854">
        <ele>304.125061</ele>
      </trkpt>
      <trkpt lat="43.17705" lon="-0.68639">
        <ele>304.265625</ele>
      </trkpt>
      <trkpt lat="43.17712" lon="-0.68688">
        <ele>302.494049</ele>
      </trkpt>
      <trkpt lat="43.17713" lon="-0.68717">
        <ele>302.640045</ele>
      </trkpt>
      <trkpt lat="43.17712" lon="-0.68734">
        <ele>303.764587</ele>
      </trkpt>
      <trkpt lat="43.17694" lon="-0.68784">
        <ele>312.472504</ele>
      </trkpt>
      <trkpt lat="43.17688" lon="-0.68795">
        <ele>313.503052</ele>
      </trkpt>
      <trkpt lat="43.1768" lon="-0.68801">
        <ele>313.630127</ele>
      </trkpt>
      <trkpt lat="43.17651" lon="-0.68815">
        <ele>313.551208</ele>
      </trkpt>
      <trkpt lat="43.17639" lon="-0.68839">
        <ele>315.578766</ele>
      </trkpt>
      <trkpt lat="43.1763" lon="-0.68879">
        <ele>317.709351</ele>
      </trkpt>
      <trkpt lat="43.17633" lon="-0.68904">
        <ele>320.952484</ele>
      </trkpt>
      <trkpt lat="43.17642" lon="-0.68911">
        <ele>323.383942</ele>
      </trkpt>
      <trkpt lat="43.17649" lon="-0.68901">
        <ele>324.005035</ele>
      </trkpt>
      <trkpt lat="43.17656" lon="-0.68875">
        <ele>322.84082</ele>
      </trkpt>
      <trkpt lat="43.17663" lon="-0.68865">
        <ele>322.47641</ele>
      </trkpt>
      <trkpt lat="43.17681" lon="-0.68856">
        <ele>322.5849</ele>
      </trkpt>
      <trkpt lat="43.17691" lon="-0.68857">
        <ele>323.061127</ele>
      </trkpt>
      <trkpt lat="43.177" lon="-0.68862">
        <ele>323.340546</ele>
      </trkpt>
      <trkpt lat="43.17715" lon="-0.68881">
        <ele>322.991943</ele>
      </trkpt>
      <trkpt lat="43.17721" lon="-0.68892">
        <ele>322.979004</ele>
      </trkpt>
      <trkpt lat="43.1773" lon="-0.68932">
        <ele>323.20813</ele>
      </trkpt>
      <trkpt lat="43.17733" lon="-0.6896">
        <ele>323.309998</ele>
      </trkpt>
      <trkpt lat="43.17729" lon="-0.68986">
        <ele>323.614105</ele>
      </trkpt>
      <trkpt lat="43.17702" lon="-0.69098">
        <ele>326.173035</ele>
      </trkpt>
      <trkpt lat="43.17679" lon="-0.69164">
        <ele>333.32608</ele>
      </trkpt>
      <trkpt lat="43.17672" lon="-0.6919">
        <ele>337.199799</ele>
      </trkpt>
      <trkpt lat="43.17684" lon="-0.69243">
        <ele>338.74881</ele>
      </trkpt>
      <trkpt lat="43.17692" lon="-0.69285">
        <ele>341.64682</ele>
      </trkpt>
      <trkpt lat="43.17705" lon="-0.6932">
        <ele>341.984894</ele>
      </trkpt>
      <trkpt lat="43.17707" lon="-0.69334">
        <ele>342.916016</ele>
      </trkpt>
      <trkpt lat="43.17704" lon="-0.6936">
        <ele>344.784485</ele>
      </trkpt>
      <trkpt lat="43.177" lon="-0.69372">
        <ele>345.912567</ele>
      </trkpt>
      <trkpt lat="43.17665" lon="-0.69436">
        <ele>352.51709</ele>
      </trkpt>
      <trkpt lat="43.17661" lon="-0.69448">
        <ele>352.784821</ele>
      </trkpt>
      <trkpt lat="43.1764" lon="-0.69479">
        <ele>357.395264</ele>
      </trkpt>
      <trkpt lat="43.17633" lon="-0.69505">
        <ele>359.55249</ele>
      </trkpt>
      <trkpt lat="43.17636" lon="-0.69533">
        <ele>357.958893</ele>
      </trkpt>
      <trkpt lat="43.17645" lon="-0.69558">
        <ele>353.929382</ele>
      </trkpt>
      <trkpt lat="43.17646" lon="-0.69572">
        <ele>353.163055</ele>
      </trkpt>
      <trkpt lat="43.17643" lon="-0.69587">
        <ele>354.11496</ele>
      </trkpt>
      <trkpt lat="43.17632" lon="-0.69611">
        <ele>357.248444</ele>
      </trkpt>
      <trkpt lat="43.17623" lon="-0.6962">
        <ele>361.41394</ele>
      </trkpt>
      <trkpt lat="43.17585" lon="-0.69672">
        <ele>376.492188</ele>
      </trkpt>
      <trkpt lat="43.17569" lon="-0.69706">
        <ele>381.026062</ele>
      </trkpt>
      <trkpt lat="43.17566" lon="-0.69722">
        <ele>382.902069</ele>
      </trkpt>
      <trkpt lat="43.17568" lon="-0.69742">
        <ele>382.691437</ele>
      </trkpt>
      <trkpt lat="43.17577" lon="-0.69768">
        <ele>381.076904</ele>
      </trkpt>
      <trkpt lat="43.17585" lon="-0.6978">
        <ele>380.104309</ele>
      </trkpt>
      <trkpt lat="43.17597" lon="-0.6978">
        <ele>377.506287</ele>
      </trkpt>
      <trkpt lat="43.17609" lon="-0.69786">
        <ele>375.662842</ele>
      </trkpt>
      <trkpt lat="43.17617" lon="-0.69798">
        <ele>376.155121</ele>
      </trkpt>
      <trkpt lat="43.17619" lon="-0.69813">
        <ele>378.730042</ele>
      </trkpt>
      <trkpt lat="43.17618" lon="-0.69866">
        <ele>390.388763</ele>
      </trkpt>
      <trkpt lat="43.17627" lon="-0.69879">
        <ele>391.837219</ele>
      </trkpt>
      <trkpt lat="43.17679" lon="-0.69883">
        <ele>386.53125</ele>
      </trkpt>
      <trkpt lat="43.17751" lon="-0.69863">
        <ele>376.869141</ele>
      </trkpt>
      <trkpt lat="43.1777" lon="-0.6987">
        <ele>378.047485</ele>
      </trkpt>
      <trkpt lat="43.17777" lon="-0.69877">
        <ele>378.868835</ele>
      </trkpt>
      <trkpt lat="43.17797" lon="-0.69912">
        <ele>380.650391</ele>
      </trkpt>
      <trkpt lat="43.17804" lon="-0.69956">
        <ele>379.356873</ele>
      </trkpt>
      <trkpt lat="43.17799" lon="-0.69971">
        <ele>379.2901</ele>
      </trkpt>
      <trkpt lat="43.17772" lon="-0.70038">
        <ele>376.526703</ele>
      </trkpt>
      <trkpt lat="43.1774" lon="-0.70101">
        <ele>373.737244</ele>
      </trkpt>
      <trkpt lat="43.17719" lon="-0.70135">
        <ele>373.424805</ele>
      </trkpt>
      <trkpt lat="43.17693" lon="-0.70208">
        <ele>371.605743</ele>
      </trkpt>
      <trkpt lat="43.1769" lon="-0.70224">
        <ele>373.911987</ele>
      </trkpt>
      <trkpt lat="43.17694" lon="-0.70241">
        <ele>371.921509</ele>
      </trkpt>
      <trkpt lat="43.17708" lon="-0.70277">
        <ele>368.176239</ele>
      </trkpt>
      <trkpt lat="43.17723" lon="-0.70294">
        <ele>363.869354</ele>
      </trkpt>
      <trkpt lat="43.17738" lon="-0.70313">
        <ele>361.307312</ele>
      </trkpt>
      <trkpt lat="43.17744" lon="-0.70323">
        <ele>361.703278</ele>
      </trkpt>
      <trkpt lat="43.17749" lon="-0.70351">
        <ele>365.610901</ele>
      </trkpt>
      <trkpt lat="43.1778" lon="-0.70438">
        <ele>371.504761</ele>
      </trkpt>
      <trkpt lat="43.1778" lon="-0.70451">
        <ele>373.752899</ele>
      </trkpt>
      <trkpt lat="43.17785" lon="-0.7048">
        <ele>374.01239</ele>
      </trkpt>
      <trkpt lat="43.17815" lon="-0.70535">
        <ele>370.717651</ele>
      </trkpt>
      <trkpt lat="43.17818" lon="-0.70548">
        <ele>370.433624</ele>
      </trkpt>
      <trkpt lat="43.17814" lon="-0.7056">
        <ele>370.905121</ele>
      </trkpt>
      <trkpt lat="43.17765" lon="-0.70571">
        <ele>375.768951</ele>
      </trkpt>
      <trkpt lat="43.17728" lon="-0.70595">
        <ele>377.129852</ele>
      </trkpt>
      <trkpt lat="43.17689" lon="-0.70608">
        <ele>382.699188</ele>
      </trkpt>
      <trkpt lat="43.17654" lon="-0.7063">
        <ele>389.747223</ele>
      </trkpt>
      <trkpt lat="43.17644" lon="-0.70654">
        <ele>389.036469</ele>
      </trkpt>
      <trkpt lat="43.17608" lon="-0.70698">
        <ele>397.947937</ele>
      </trkpt>
      <trkpt lat="43.17602" lon="-0.70708">
        <ele>399.583923</ele>
      </trkpt>
      <trkpt lat="43.176" lon="-0.70721">
        <ele>399.002655</ele>
      </trkpt>
      <trkpt lat="43.17584" lon="-0.70756">
        <ele>403.416931</ele>
      </trkpt>
      <trkpt lat="43.17565" lon="-0.70788">
        <ele>410.645294</ele>
      </trkpt>
      <trkpt lat="43.17562" lon="-0.70802">
        <ele>411.199066</ele>
      </trkpt>
      <trkpt lat="43.17555" lon="-0.70812">
        <ele>413.522919</ele>
      </trkpt>
      <trkpt lat="43.17541" lon="-0.70847">
        <ele>416.600006</ele>
      </trkpt>
      <trkpt lat="43.17538" lon="-0.70872">
        <ele>416.252106</ele>
      </trkpt>
      <trkpt lat="43.17526" lon="-0.70909">
        <ele>417.387207</ele>
      </trkpt>
      <trkpt lat="43.17503" lon="-0.70936">
        <ele>423.328888</ele>
      </trkpt>
      <trkpt lat="43.17486" lon="-0.7095">
        <ele>428.768127</ele>
      </trkpt>
      <trkpt lat="43.17433" lon="-0.7098">
        <ele>443.26001</ele>
      </trkpt>
      <trkpt lat="43.17403" lon="-0.71017">
        <ele>445.114807</ele>
      </trkpt>
      <trkpt lat="43.17394" lon="-0.71018">
        <ele>445.842072</ele>
      </trkpt>
      <trkpt lat="43.17386" lon="-0.71024">
        <ele>446.050293</ele>
      </trkpt>
      <trkpt lat="43.17362" lon="-0.71054">
        <ele>446.200012</ele>
      </trkpt>
      <trkpt lat="43.17348" lon="-0.71093">
        <ele>443.261261</ele>
      </trkpt>
      <trkpt lat="43.17335" lon="-0.71196">
        <ele>443.350739</ele>
      </trkpt>
      <trkpt lat="43.17336" lon="-0.71222">
        <ele>445.453064</ele>
      </trkpt>
      <trkpt lat="43.17344" lon="-0.71262">
        <ele>451.227844</ele>
      </trkpt>
      <trkpt lat="43.17337" lon="-0.71327">
        <ele>459.020905</ele>
      </trkpt>
      <trkpt lat="43.17336" lon="-0.71379">
        <ele>462.767517</ele>
      </trkpt>
      <trkpt lat="43.17313" lon="-0.71455">
        <ele>460.31073</ele>
      </trkpt>
      <trkpt lat="43.17286" lon="-0.71504">
        <ele>454.420593</ele>
      </trkpt>
      <trkpt lat="43.17283" lon="-0.7153">
        <ele>453.005249</ele>
      </trkpt>
      <trkpt lat="43.17267" lon="-0.7158">
        <ele>447.912964</ele>
      </trkpt>
      <trkpt lat="43.17261" lon="-0.7159">
        <ele>448.036652</ele>
      </trkpt>
      <trkpt lat="43.17248" lon="-0.71625">
        <ele>444.927063</ele>
      </trkpt>
      <trkpt lat="43.17233" lon="-0.71641">
        <ele>445.499908</ele>
      </trkpt>
      <trkpt lat="43.17223" lon="-0.71646">
        <ele>446.660858</ele>
      </trkpt>
      <trkpt lat="43.17182" lon="-0.71659">
        <ele>446.903931</ele>
      </trkpt>
      <trkpt lat="43.17138" lon="-0.71715">
        <ele>446.611298</ele>
      </trkpt>
      <trkpt lat="43.17117" lon="-0.71749">
        <ele>445.092896</ele>
      </trkpt>
      <trkpt lat="43.17097" lon="-0.71806">
        <ele>435.795166</ele>
      </trkpt>
      <trkpt lat="43.17086" lon="-0.7186">
        <ele>426.645386</ele>
      </trkpt>
      <trkpt lat="43.17078" lon="-0.71884">
        <ele>422.754089</ele>
      </trkpt>
      <trkpt lat="43.17076" lon="-0.71911">
        <ele>419.977692</ele>
      </trkpt>
      <trkpt lat="43.17068" lon="-0.7192">
        <ele>418.775391</ele>
      </trkpt>
      <trkpt lat="43.17059" lon="-0.71947">
        <ele>415.109894</ele>
      </trkpt>
      <trkpt lat="43.1705" lon="-0.71956">
        <ele>413.209778</ele>
      </trkpt>
      <trkpt lat="43.17047" lon="-0.71981">
        <ele>412.221863</ele>
      </trkpt>
      <trkpt lat="43.17029" lon="-0.72029">
        <ele>411.0979</ele>
      </trkpt>
      <trkpt lat="43.17022" lon="-0.72036">
        <ele>411.097412</ele>
      </trkpt>
      <trkpt lat="43.16996" lon="-0.72089">
        <ele>408.410156</ele>
      </trkpt>
      <trkpt lat="43.16946" lon="-0.72132">
        <ele>410.007904</ele>
      </trkpt>
      <trkpt lat="43.16919" lon="-0.72175">
        <ele>407.346497</ele>
      </trkpt>
      <trkpt lat="43.169" lon="-0.72187">
        <ele>404.792511</ele>
      </trkpt>
      <trkpt lat="43.16861" lon="-0.72224">
        <ele>396.375458</ele>
      </trkpt>
      <trkpt lat="43.1685" lon="-0.72231">
        <ele>394.269318</ele>
      </trkpt>
      <trkpt lat="43.16823" lon="-0.72256">
        <ele>387.225159</ele>
      </trkpt>
      <trkpt lat="43.16789" lon="-0.72314">
        <ele>375.877289</ele>
      </trkpt>
      <trkpt lat="43.16788" lon="-0.72328">
        <ele>374.82254</ele>
      </trkpt>
      <trkpt lat="43.16796" lon="-0.72367">
        <ele>374.090698</ele>
      </trkpt>
      <trkpt lat="43.16797" lon="-0.7238">
        <ele>372.204346</ele>
      </trkpt>
      <trkpt lat="43.16792" lon="-0.7239">
        <ele>369.866211</ele>
      </trkpt>
      <trkpt lat="43.16772" lon="-0.72398">
        <ele>363.927948</ele>
      </trkpt>
      <trkpt lat="43.16758" lon="-0.72418">
        <ele>358.393372</ele>
      </trkpt>
      <trkpt lat="43.16754" lon="-0.72448">
        <ele>351.017181</ele>
      </trkpt>
      <trkpt lat="43.16755" lon="-0.72476">
        <ele>343.928894</ele>
      </trkpt>
      <trkpt lat="43.16751" lon="-0.72488">
        <ele>340.483612</ele>
      </trkpt>
      <trkpt lat="43.16728" lon="-0.72531">
        <ele>325.838898</ele>
      </trkpt>
      <trkpt lat="43.16713" lon="-0.72546">
        <ele>321.886414</ele>
      </trkpt>
      <trkpt lat="43.16707" lon="-0.7256">
        <ele>319.564758</ele>
      </trkpt>
      <trkpt lat="43.16671" lon="-0.72609">
        <ele>312.723236</ele>
      </trkpt>
      <trkpt lat="43.16621" lon="-0.72631">
        <ele>309.935364</ele>
      </trkpt>
      <trkpt lat="43.16597" lon="-0.72638">
        <ele>309.338593</ele>
      </trkpt>
      <trkpt lat="43.16559" lon="-0.72639">
        <ele>309.050659</ele>
      </trkpt>
      <trkpt lat="43.16514" lon="-0.72646">
        <ele>308.973969</ele>
      </trkpt>
      <trkpt lat="43.16471" lon="-0.72637">
        <ele>307.817993</ele>
      </trkpt>
      <trkpt lat="43.16399" lon="-0.72656">
        <ele>304.616608</ele>
      </trkpt>
      <trkpt lat="43.16357" lon="-0.72639">
        <ele>303.191162</ele>
      </trkpt>
      <trkpt lat="43.16334" lon="-0.72639">
        <ele>302.645752</ele>
      </trkpt>
      <trkpt lat="43.16293" lon="-0.72656">
        <ele>302.409576</ele>
      </trkpt>
      <trkpt lat="43.16255" lon="-0.72694">
        <ele>303.920624</ele>
      </trkpt>
      <trkpt lat="43.16234" lon="-0.72708">
        <ele>304.396881</ele>
      </trkpt>
      <trkpt lat="43.16191" lon="-0.72742">
        <ele>303.386749</ele>
      </trkpt>
      <trkpt lat="43.16172" lon="-0.72751">
        <ele>304.720551</ele>
      </trkpt>
      <trkpt lat="43.16123" lon="-0.72786">
        <ele>308.212158</ele>
      </trkpt>
      <trkpt lat="43.16105" lon="-0.72793">
        <ele>310.179657</ele>
      </trkpt>
      <trkpt lat="43.16067" lon="-0.72791">
        <ele>315.266876</ele>
      </trkpt>
      <trkpt lat="43.15966" lon="-0.72801">
        <ele>330.034363</ele>
      </trkpt>
      <trkpt lat="43.15946" lon="-0.72797">
        <ele>334.912506</ele>
      </trkpt>
      <trkpt lat="43.15926" lon="-0.72789">
        <ele>340.024994</ele>
      </trkpt>
      <trkpt lat="43.15917" lon="-0.72782">
        <ele>342.111511</ele>
      </trkpt>
      <trkpt lat="43.15887" lon="-0.72747">
        <ele>348.02713</ele>
      </trkpt>
      <trkpt lat="43.15869" lon="-0.72739">
        <ele>348.656647</ele>
      </trkpt>
      <trkpt lat="43.15842" lon="-0.72748">
        <ele>351.524628</ele>
      </trkpt>
      <trkpt lat="43.15805" lon="-0.72748">
        <ele>353.778381</ele>
      </trkpt>
      <trkpt lat="43.15798" lon="-0.72756">
        <ele>355.210052</ele>
      </trkpt>
      <trkpt lat="43.15789" lon="-0.72758">
        <ele>356.3591</ele>
      </trkpt>
      <trkpt lat="43.15756" lon="-0.7278">
        <ele>361.252197</ele>
      </trkpt>
      <trkpt lat="43.15741" lon="-0.72794">
        <ele>365.067841</ele>
      </trkpt>
      <trkpt lat="43.15708" lon="-0.7284">
        <ele>370.348236</ele>
      </trkpt>
      <trkpt lat="43.15703" lon="-0.72849">
        <ele>372.41925</ele>
      </trkpt>
      <trkpt lat="43.15688" lon="-0.72883">
        <ele>380.546417</ele>
      </trkpt>
      <trkpt lat="43.15679" lon="-0.72891">
        <ele>382.176605</ele>
      </trkpt>
      <trkpt lat="43.1567" lon="-0.72895">
        <ele>383.451538</ele>
      </trkpt>
      <trkpt lat="43.15648" lon="-0.72896">
        <ele>383.360535</ele>
      </trkpt>
      <trkpt lat="43.15638" lon="-0.72894">
        <ele>381.185608</ele>
      </trkpt>
      <trkpt lat="43.15629" lon="-0.72897">
        <ele>381.718842</ele>
      </trkpt>
      <trkpt lat="43.1562" lon="-0.72904">
        <ele>384.054199</ele>
      </trkpt>
      <trkpt lat="43.15599" lon="-0.72933">
        <ele>392.328491</ele>
      </trkpt>
      <trkpt lat="43.15552" lon="-0.7295">
        <ele>393.429657</ele>
      </trkpt>
      <trkpt lat="43.15533" lon="-0.72948">
        <ele>392.213196</ele>
      </trkpt>
      <trkpt lat="43.15524" lon="-0.7295">
        <ele>392.984802</ele>
      </trkpt>
      <trkpt lat="43.15501" lon="-0.72972">
        <ele>401.42099</ele>
      </trkpt>
      <trkpt lat="43.15492" lon="-0.72976">
        <ele>403.350006</ele>
      </trkpt>
      <trkpt lat="43.15418" lon="-0.72992">
        <ele>417.275177</ele>
      </trkpt>
      <trkpt lat="43.1539" lon="-0.72979">
        <ele>419.921143</ele>
      </trkpt>
      <trkpt lat="43.15364" lon="-0.72964">
        <ele>423.542145</ele>
      </trkpt>
      <trkpt lat="43.15349" lon="-0.72948">
        <ele>425.153229</ele>
      </trkpt>
      <trkpt lat="43.15335" lon="-0.72915">
        <ele>423.348785</ele>
      </trkpt>
      <trkpt lat="43.15328" lon="-0.72907">
        <ele>424.031158</ele>
      </trkpt>
      <trkpt lat="43.15319" lon="-0.72912">
        <ele>427.593842</ele>
      </trkpt>
      <trkpt lat="43.15304" lon="-0.72927">
        <ele>434.463165</ele>
      </trkpt>
      <trkpt lat="43.153" lon="-0.72938">
        <ele>437.350769</ele>
      </trkpt>
      <trkpt lat="43.15302" lon="-0.72952">
        <ele>439.322021</ele>
      </trkpt>
      <trkpt lat="43.15291" lon="-0.72973">
        <ele>444.247375</ele>
      </trkpt>
      <trkpt lat="43.15283" lon="-0.72979">
        <ele>446.043762</ele>
      </trkpt>
      <trkpt lat="43.15256" lon="-0.72987">
        <ele>449.799988</ele>
      </trkpt>
      <trkpt lat="43.15248" lon="-0.72994">
        <ele>451.284363</ele>
      </trkpt>
      <trkpt lat="43.15239" lon="-0.72995">
        <ele>452.341248</ele>
      </trkpt>
      <trkpt lat="43.1523" lon="-0.72992">
        <ele>452.964996</ele>
      </trkpt>
      <trkpt lat="43.1521" lon="-0.72996">
        <ele>455.023743</ele>
      </trkpt>
      <trkpt lat="43.15173" lon="-0.72983">
        <ele>457.813477</ele>
      </trkpt>
      <trkpt lat="43.15135" lon="-0.72982">
        <ele>460.619446</ele>
      </trkpt>
      <trkpt lat="43.15126" lon="-0.72978">
        <ele>461.116516</ele>
      </trkpt>
      <trkpt lat="43.15121" lon="-0.72966">
        <ele>462.144653</ele>
      </trkpt>
      <trkpt lat="43.15073" lon="-0.72947">
        <ele>466.787994</ele>
      </trkpt>
      <trkpt lat="43.15053" lon="-0.72943">
        <ele>468.697113</ele>
      </trkpt>
      <trkpt lat="43.15034" lon="-0.72946">
        <ele>469.80011</ele>
      </trkpt>
      <trkpt lat="43.15014" lon="-0.72945">
        <ele>471.63678</ele>
      </trkpt>
      <trkpt lat="43.14977" lon="-0.72933">
        <ele>477.664978</ele>
      </trkpt>
      <trkpt lat="43.14959" lon="-0.72932">
        <ele>479.719208</ele>
      </trkpt>
      <trkpt lat="43.14912" lon="-0.72932">
        <ele>483.244354</ele>
      </trkpt>
      <trkpt lat="43.14873" lon="-0.72928">
        <ele>488.610626</ele>
      </trkpt>
      <trkpt lat="43.14843" lon="-0.72942">
        <ele>487.559143</ele>
      </trkpt>
      <trkpt lat="43.14794" lon="-0.72971">
        <ele>490.827423</ele>
      </trkpt>
      <trkpt lat="43.14784" lon="-0.72975">
        <ele>492.434998</ele>
      </trkpt>
      <trkpt lat="43.14766" lon="-0.7299">
        <ele>492.07666</ele>
      </trkpt>
      <trkpt lat="43.14758" lon="-0.73">
        <ele>493.936066</ele>
      </trkpt>
      <trkpt lat="43.14757" lon="-0.73013">
        <ele>496.68045</ele>
      </trkpt>
      <trkpt lat="43.14761" lon="-0.73026">
        <ele>497.052063</ele>
      </trkpt>
      <trkpt lat="43.14796" lon="-0.73076">
        <ele>498.309814</ele>
      </trkpt>
      <trkpt lat="43.14812" lon="-0.73113">
        <ele>503.492767</ele>
      </trkpt>
      <trkpt lat="43.14826" lon="-0.73164">
        <ele>507.701935</ele>
      </trkpt>
      <trkpt lat="43.14828" lon="-0.73194">
        <ele>508.998871</ele>
      </trkpt>
      <trkpt lat="43.14827" lon="-0.7321">
        <ele>508.304749</ele>
      </trkpt>
      <trkpt lat="43.14817" lon="-0.7325">
        <ele>506.392853</ele>
      </trkpt>
      <trkpt lat="43.14795" lon="-0.73284">
        <ele>502.44986</ele>
      </trkpt>
      <trkpt lat="43.14786" lon="-0.73293">
        <ele>501.549957</ele>
      </trkpt>
      <trkpt lat="43.14765" lon="-0.73306">
        <ele>499.801758</ele>
      </trkpt>
      <trkpt lat="43.14724" lon="-0.73323">
        <ele>498.5</ele>
      </trkpt>
      <trkpt lat="43.1468" lon="-0.73345">
        <ele>499.336761</ele>
      </trkpt>
      <trkpt lat="43.1467" lon="-0.73353">
        <ele>500.256989</ele>
      </trkpt>
      <trkpt lat="43.14663" lon="-0.73362">
        <ele>500.06839</ele>
      </trkpt>
      <trkpt lat="43.14656" lon="-0.73403">
        <ele>493.7724</ele>
      </trkpt>
      <trkpt lat="43.14651" lon="-0.73413">
        <ele>493.732788</ele>
      </trkpt>
      <trkpt lat="43.14631" lon="-0.73438">
        <ele>499.56955</ele>
      </trkpt>
      <trkpt lat="43.14592" lon="-0.73545">
        <ele>502.4776</ele>
      </trkpt>
      <trkpt lat="43.14585" lon="-0.73555">
        <ele>503.145477</ele>
      </trkpt>
      <trkpt lat="43.1454" lon="-0.73596">
        <ele>506.985504</ele>
      </trkpt>
      <trkpt lat="43.14468" lon="-0.73649">
        <ele>509.523041</ele>
      </trkpt>
      <trkpt lat="43.14441" lon="-0.73675">
        <ele>509.105011</ele>
      </trkpt>
      <trkpt lat="43.14367" lon="-0.73726">
        <ele>512.285583</ele>
      </trkpt>
      <trkpt lat="43.14302" lon="-0.73799">
        <ele>505.788788</ele>
      </trkpt>
      <trkpt lat="43.14288" lon="-0.73819">
        <ele>502.816254</ele>
      </trkpt>
      <trkpt lat="43.14276" lon="-0.73847">
        <ele>500.172668</ele>
      </trkpt>
      <trkpt lat="43.14262" lon="-0.73916">
        <ele>498.593079</ele>
      </trkpt>
      <trkpt lat="43.14263" lon="-0.73929">
        <ele>499.398865</ele>
      </trkpt>
      <trkpt lat="43.14271" lon="-0.73956">
        <ele>502.027313</ele>
      </trkpt>
      <trkpt lat="43.14278" lon="-0.73995">
        <ele>508.584534</ele>
      </trkpt>
      <trkpt lat="43.14294" lon="-0.74027">
        <ele>514.322388</ele>
      </trkpt>
      <trkpt lat="43.14335" lon="-0.74065">
        <ele>520.56842</ele>
      </trkpt>
      <trkpt lat="43.14353" lon="-0.74074">
        <ele>519.66394</ele>
      </trkpt>
      <trkpt lat="43.14394" lon="-0.74106">
        <ele>516.788757</ele>
      </trkpt>
      <trkpt lat="43.14399" lon="-0.74118">
        <ele>518.184998</ele>
      </trkpt>
      <trkpt lat="43.14397" lon="-0.74131">
        <ele>521.474976</ele>
      </trkpt>
      <trkpt lat="43.144" lon="-0.74144">
        <ele>523.487732</ele>
      </trkpt>
      <trkpt lat="43.14413" lon="-0.74166">
        <ele>521.029419</ele>
      </trkpt>
      <trkpt lat="43.14417" lon="-0.74206">
        <ele>524.530029</ele>
      </trkpt>
      <trkpt lat="43.14427" lon="-0.74229">
        <ele>523.029968</ele>
      </trkpt>
      <trkpt lat="43.1443" lon="-0.7427">
        <ele>526.48114</ele>
      </trkpt>
      <trkpt lat="43.14441" lon="-0.74306">
        <ele>527.290222</ele>
      </trkpt>
      <trkpt lat="43.14446" lon="-0.74331">
        <ele>530.975281</ele>
      </trkpt>
      <trkpt lat="43.14445" lon="-0.74357">
        <ele>540.640625</ele>
      </trkpt>
      <trkpt lat="43.14449" lon="-0.74368">
        <ele>544.45343</ele>
      </trkpt>
      <trkpt lat="43.14456" lon="-0.74362">
        <ele>540.844177</ele>
      </trkpt>
      <trkpt lat="43.14599" lon="-0.74368">
        <ele>540.229065</ele>
      </trkpt>
      <trkpt lat="43.1466" lon="-0.74358">
        <ele>542.480591</ele>
      </trkpt>
      <trkpt lat="43.14728" lon="-0.74338">
        <ele>541.962341</ele>
      </trkpt>
      <trkpt lat="43.14738" lon="-0.74338">
        <ele>541.898193</ele>
      </trkpt>
      <trkpt lat="43.14746" lon="-0.74343">
        <ele>543.484741</ele>
      </trkpt>
      <trkpt lat="43.14751" lon="-0.74353">
        <ele>545.932007</ele>
      </trkpt>
      <trkpt lat="43.14758" lon="-0.74392">
        <ele>552.41333</ele>
      </trkpt>
      <trkpt lat="43.14772" lon="-0.74449">
        <ele>550.951599</ele>
      </trkpt>
      <trkpt lat="43.14772" lon="-0.74464">
        <ele>551.191589</ele>
      </trkpt>
      <trkpt lat="43.14761" lon="-0.7449">
        <ele>552.047485</ele>
      </trkpt>
      <trkpt lat="43.14723" lon="-0.74508">
        <ele>560.359619</ele>
      </trkpt>
      <trkpt lat="43.14688" lon="-0.74527">
        <ele>566.590637</ele>
      </trkpt>
      <trkpt lat="43.14668" lon="-0.74534">
        <ele>568.359375</ele>
      </trkpt>
      <trkpt lat="43.14639" lon="-0.7454">
        <ele>571.75061</ele>
      </trkpt>
      <trkpt lat="43.14629" lon="-0.74536">
        <ele>574.275635</ele>
      </trkpt>
      <trkpt lat="43.14543" lon="-0.74557">
        <ele>576.509033</ele>
      </trkpt>
      <trkpt lat="43.14525" lon="-0.74559">
        <ele>576.363403</ele>
      </trkpt>
      <trkpt lat="43.14492" lon="-0.7455">
        <ele>578.763184</ele>
      </trkpt>
      <trkpt lat="43.14459" lon="-0.74546">
        <ele>581.978699</ele>
      </trkpt>
      <trkpt lat="43.1443" lon="-0.74551">
        <ele>585.123413</ele>
      </trkpt>
      <trkpt lat="43.14412" lon="-0.74561">
        <ele>586.439575</ele>
      </trkpt>
      <trkpt lat="43.14388" lon="-0.74587">
        <ele>586.834045</ele>
      </trkpt>
      <trkpt lat="43.14353" lon="-0.74614">
        <ele>590.16156</ele>
      </trkpt>
      <trkpt lat="43.14326" lon="-0.74641">
        <ele>591.780151</ele>
      </trkpt>
      <trkpt lat="43.14292" lon="-0.74683">
        <ele>590.765564</ele>
      </trkpt>
      <trkpt lat="43.14215" lon="-0.74788">
        <ele>579.990417</ele>
      </trkpt>
      <trkpt lat="43.14178" lon="-0.74833">
        <ele>577.667358</ele>
      </trkpt>
      <trkpt lat="43.14167" lon="-0.74852">
        <ele>576.432556</ele>
      </trkpt>
      <trkpt lat="43.14166" lon="-0.74875">
        <ele>574.423706</ele>
      </trkpt>
      <trkpt lat="43.14181" lon="-0.74914">
        <ele>570.585266</ele>
      </trkpt>
      <trkpt lat="43.14197" lon="-0.74944">
        <ele>566.317505</ele>
      </trkpt>
      <trkpt lat="43.14202" lon="-0.74962">
        <ele>565.08374</ele>
      </trkpt>
      <trkpt lat="43.14206" lon="-0.7501">
        <ele>562.093018</ele>
      </trkpt>
      <trkpt lat="43.14206" lon="-0.75072">
        <ele>554.798584</ele>
      </trkpt>
      <trkpt lat="43.14209" lon="-0.7509">
        <ele>551.972168</ele>
      </trkpt>
      <trkpt lat="43.14205" lon="-0.75104">
        <ele>550.566345</ele>
      </trkpt>
      <trkpt lat="43.14196" lon="-0.75107">
        <ele>551.502075</ele>
      </trkpt>
      <trkpt lat="43.1413" lon="-0.75097">
        <ele>551.647583</ele>
      </trkpt>
      <trkpt lat="43.14086" lon="-0.75101">
        <ele>549.811218</ele>
      </trkpt>
      <trkpt lat="43.14031" lon="-0.75113">
        <ele>545.11145</ele>
      </trkpt>
      <trkpt lat="43.14011" lon="-0.75122">
        <ele>542.826111</ele>
      </trkpt>
      <trkpt lat="43.13976" lon="-0.75147">
        <ele>536.564636</ele>
      </trkpt>
      <trkpt lat="43.13933" lon="-0.75193">
        <ele>528.212158</ele>
      </trkpt>
      <trkpt lat="43.13917" lon="-0.75215">
        <ele>525.733032</ele>
      </trkpt>
      <trkpt lat="43.13898" lon="-0.75255">
        <ele>520.394836</ele>
      </trkpt>
      <trkpt lat="43.13866" lon="-0.75347">
        <ele>508.786163</ele>
      </trkpt>
      <trkpt lat="43.13842" lon="-0.75396">
        <ele>504.517944</ele>
      </trkpt>
      <trkpt lat="43.13814" lon="-0.7544">
        <ele>502.441254</ele>
      </trkpt>
      <trkpt lat="43.13806" lon="-0.75449">
        <ele>502.019989</ele>
      </trkpt>
      <trkpt lat="43.13772" lon="-0.75469">
        <ele>501.962982</ele>
      </trkpt>
      <trkpt lat="43.13737" lon="-0.75473">
        <ele>499.421417</ele>
      </trkpt>
      <trkpt lat="43.13719" lon="-0.75468">
        <ele>496.914001</ele>
      </trkpt>
      <trkpt lat="43.137" lon="-0.75456">
        <ele>495.315308</ele>
      </trkpt>
      <trkpt lat="43.13678" lon="-0.75434">
        <ele>495.0112</ele>
      </trkpt>
      <trkpt lat="43.13663" lon="-0.75424">
        <ele>493.336975</ele>
      </trkpt>
      <trkpt lat="43.13645" lon="-0.75419">
        <ele>489.570343</ele>
      </trkpt>
      <trkpt lat="43.13625" lon="-0.75421">
        <ele>486.400085</ele>
      </trkpt>
      <trkpt lat="43.13583" lon="-0.75433">
        <ele>480.124268</ele>
      </trkpt>
      <trkpt lat="43.13534" lon="-0.75451">
        <ele>475.185944</ele>
      </trkpt>
      <trkpt lat="43.13515" lon="-0.75453">
        <ele>473.351257</ele>
      </trkpt>
      <trkpt lat="43.13447" lon="-0.75437">
        <ele>468.48761</ele>
      </trkpt>
      <trkpt lat="43.13425" lon="-0.75423">
        <ele>465.772675</ele>
      </trkpt>
      <trkpt lat="43.13414" lon="-0.75425">
        <ele>464.789368</ele>
      </trkpt>
      <trkpt lat="43.13399" lon="-0.75444">
        <ele>464.429565</ele>
      </trkpt>
      <trkpt lat="43.13351" lon="-0.75482">
        <ele>463.677094</ele>
      </trkpt>
      <trkpt lat="43.13336" lon="-0.75503">
        <ele>463.083252</ele>
      </trkpt>
      <trkpt lat="43.13323" lon="-0.75551">
        <ele>459.618469</ele>
      </trkpt>
      <trkpt lat="43.13308" lon="-0.75588">
        <ele>451.768341</ele>
      </trkpt>
      <trkpt lat="43.13286" lon="-0.75629">
        <ele>448.8125</ele>
      </trkpt>
      <trkpt lat="43.13257" lon="-0.75666">
        <ele>445.912506</ele>
      </trkpt>
      <trkpt lat="43.13247" lon="-0.75686">
        <ele>445.415619</ele>
      </trkpt>
      <trkpt lat="43.13245" lon="-0.75709">
        <ele>445.227264</ele>
      </trkpt>
      <trkpt lat="43.1325" lon="-0.75729">
        <ele>445.771149</ele>
      </trkpt>
      <trkpt lat="43.13263" lon="-0.75762">
        <ele>443.731995</ele>
      </trkpt>
      <trkpt lat="43.13264" lon="-0.75779">
        <ele>441.471283</ele>
      </trkpt>
      <trkpt lat="43.13213" lon="-0.75877">
        <ele>436.787598</ele>
      </trkpt>
      <trkpt lat="43.13162" lon="-0.75964">
        <ele>440.205078</ele>
      </trkpt>
      <trkpt lat="43.13147" lon="-0.75993">
        <ele>441.983368</ele>
      </trkpt>
      <trkpt lat="43.13131" lon="-0.76051">
        <ele>443.360321</ele>
      </trkpt>
      <trkpt lat="43.13119" lon="-0.76077">
        <ele>442.774841</ele>
      </trkpt>
      <trkpt lat="43.13105" lon="-0.76094">
        <ele>443.324432</ele>
      </trkpt>
      <trkpt lat="43.13061" lon="-0.76136">
        <ele>439.084106</ele>
      </trkpt>
      <trkpt lat="43.13047" lon="-0.76143">
        <ele>438.393066</ele>
      </trkpt>
      <trkpt lat="43.13033" lon="-0.76146">
        <ele>437.75705</ele>
      </trkpt>
      <trkpt lat="43.13012" lon="-0.76142">
        <ele>436.355408</ele>
      </trkpt>
      <trkpt lat="43.13006" lon="-0.76153">
        <ele>434.206665</ele>
      </trkpt>
      <trkpt lat="43.12989" lon="-0.76162">
        <ele>429.95697</ele>
      </trkpt>
      <trkpt lat="43.12971" lon="-0.76175">
        <ele>422.890533</ele>
      </trkpt>
      <trkpt lat="43.12962" lon="-0.76185">
        <ele>418.989258</ele>
      </trkpt>
      <trkpt lat="43.12958" lon="-0.76199">
        <ele>415.751373</ele>
      </trkpt>
      <trkpt lat="43.12936" lon="-0.76247">
        <ele>403.540802</ele>
      </trkpt>
      <trkpt lat="43.12973" lon="-0.76313">
        <ele>408.031555</ele>
      </trkpt>
      <trkpt lat="43.12998" lon="-0.76331">
        <ele>406.142181</ele>
      </trkpt>
      <trkpt lat="43.13001" lon="-0.76343">
        <ele>403.778748</ele>
      </trkpt>
      <trkpt lat="43.13007" lon="-0.76353">
        <ele>400.773651</ele>
      </trkpt>
      <trkpt lat="43.13018" lon="-0.76354">
        <ele>398.11026</ele>
      </trkpt>
      <trkpt lat="43.13018" lon="-0.76368">
        <ele>394.461884</ele>
      </trkpt>
      <trkpt lat="43.13007" lon="-0.7639">
        <ele>393.19165</ele>
      </trkpt>
      <trkpt lat="43.12991" lon="-0.76441">
        <ele>393.972961</ele>
      </trkpt>
      <trkpt lat="43.13001" lon="-0.76486">
        <ele>389.478485</ele>
      </trkpt>
      <trkpt lat="43.12999" lon="-0.76499">
        <ele>389.69223</ele>
      </trkpt>
      <trkpt lat="43.12975" lon="-0.76569">
        <ele>388.072998</ele>
      </trkpt>
      <trkpt lat="43.12961" lon="-0.76646">
        <ele>387.318817</ele>
      </trkpt>
      <trkpt lat="43.1296" lon="-0.76677">
        <ele>388.412323</ele>
      </trkpt>
      <trkpt lat="43.12965" lon="-0.76734">
        <ele>391.266479</ele>
      </trkpt>
      <trkpt lat="43.12972" lon="-0.76762">
        <ele>395.235779</ele>
      </trkpt>
      <trkpt lat="43.12969" lon="-0.76775">
        <ele>395.481354</ele>
      </trkpt>
      <trkpt lat="43.12921" lon="-0.76834">
        <ele>391.218658</ele>
      </trkpt>
      <trkpt lat="43.12915" lon="-0.76845">
        <ele>390.690979</ele>
      </trkpt>
      <trkpt lat="43.12896" lon="-0.76897">
        <ele>390.84314</ele>
      </trkpt>
      <trkpt lat="43.12841" lon="-0.76968">
        <ele>389.394592</ele>
      </trkpt>
      <trkpt lat="43.12802" lon="-0.76989">
        <ele>393.274109</ele>
      </trkpt>
      <trkpt lat="43.12773" lon="-0.76999">
        <ele>396.015503</ele>
      </trkpt>
      <trkpt lat="43.12719" lon="-0.77029">
        <ele>397.782532</ele>
      </trkpt>
      <trkpt lat="43.1269" lon="-0.77055">
        <ele>398.88031</ele>
      </trkpt>
      <trkpt lat="43.12661" lon="-0.77075">
        <ele>399.69931</ele>
      </trkpt>
      <trkpt lat="43.12635" lon="-0.77102">
        <ele>399.98056</ele>
      </trkpt>
      <trkpt lat="43.12581" lon="-0.77186">
        <ele>401.455719</ele>
      </trkpt>
      <trkpt lat="43.12558" lon="-0.7721">
        <ele>400.314606</ele>
      </trkpt>
      <trkpt lat="43.12545" lon="-0.77231">
        <ele>400.385986</ele>
      </trkpt>
      <trkpt lat="43.12535" lon="-0.77254">
        <ele>398.527496</ele>
      </trkpt>
      <trkpt lat="43.12522" lon="-0.77308">
        <ele>393.331207</ele>
      </trkpt>
      <trkpt lat="43.12509" lon="-0.77388">
        <ele>384.186829</ele>
      </trkpt>
      <trkpt lat="43.12505" lon="-0.774">
        <ele>382.910217</ele>
      </trkpt>
      <trkpt lat="43.12496" lon="-0.77402">
        <ele>381.657501</ele>
      </trkpt>
      <trkpt lat="43.12487" lon="-0.77398">
        <ele>380.876892</ele>
      </trkpt>
      <trkpt lat="43.12458" lon="-0.77352">
        <ele>378.718597</ele>
      </trkpt>
      <trkpt lat="43.12441" lon="-0.773">
        <ele>375.455017</ele>
      </trkpt>
      <trkpt lat="43.12442" lon="-0.77269">
        <ele>377.039886</ele>
      </trkpt>
      <trkpt lat="43.12451" lon="-0.77225">
        <ele>380.846405</ele>
      </trkpt>
      <trkpt lat="43.12452" lon="-0.77211">
        <ele>380.922211</ele>
      </trkpt>
      <trkpt lat="43.12448" lon="-0.77183">
        <ele>380.034698</ele>
      </trkpt>
      <trkpt lat="43.12437" lon="-0.77151">
        <ele>376.490082</ele>
      </trkpt>
      <trkpt lat="43.12431" lon="-0.77141">
        <ele>375.183014</ele>
      </trkpt>
      <trkpt lat="43.12426" lon="-0.77126">
        <ele>374.334778</ele>
      </trkpt>
      <trkpt lat="43.12411" lon="-0.77104">
        <ele>372.969604</ele>
      </trkpt>
      <trkpt lat="43.12342" lon="-0.77018">
        <ele>368.250549</ele>
      </trkpt>
      <trkpt lat="43.12329" lon="-0.76987">
        <ele>366.98999</ele>
      </trkpt>
      <trkpt lat="43.12303" lon="-0.76941">
        <ele>365.691345</ele>
      </trkpt>
      <trkpt lat="43.12266" lon="-0.76883">
        <ele>363.957825</ele>
      </trkpt>
      <trkpt lat="43.1224" lon="-0.76819">
        <ele>361.492249</ele>
      </trkpt>
      <trkpt lat="43.12204" lon="-0.76714">
        <ele>352.572083</ele>
      </trkpt>
      <trkpt lat="43.12194" lon="-0.76689">
        <ele>348.764313</ele>
      </trkpt>
      <trkpt lat="43.12167" lon="-0.76644">
        <ele>344.641998</ele>
      </trkpt>
      <trkpt lat="43.12165" lon="-0.76627">
        <ele>340.603302</ele>
      </trkpt>
      <trkpt lat="43.12154" lon="-0.766">
        <ele>334.783234</ele>
      </trkpt>
      <trkpt lat="43.12135" lon="-0.76539">
        <ele>325.559052</ele>
      </trkpt>
      <trkpt lat="43.12117" lon="-0.76516">
        <ele>322.263184</ele>
      </trkpt>
      <trkpt lat="43.12102" lon="-0.76509">
        <ele>320.524384</ele>
      </trkpt>
      <trkpt lat="43.12084" lon="-0.76507">
        <ele>319.239044</ele>
      </trkpt>
      <trkpt lat="43.12045" lon="-0.76513">
        <ele>316.257568</ele>
      </trkpt>
      <trkpt lat="43.12033" lon="-0.76502">
        <ele>315.383118</ele>
      </trkpt>
      <trkpt lat="43.12009" lon="-0.76472">
        <ele>314.360626</ele>
      </trkpt>
      <trkpt lat="43.11994" lon="-0.76461">
        <ele>313.958923</ele>
      </trkpt>
      <trkpt lat="43.11962" lon="-0.76453">
        <ele>313.08667</ele>
      </trkpt>
      <trkpt lat="43.11948" lon="-0.76444">
        <ele>312.640717</ele>
      </trkpt>
      <trkpt lat="43.11924" lon="-0.76421">
        <ele>311.886353</ele>
      </trkpt>
      <trkpt lat="43.1187" lon="-0.76354">
        <ele>310.13501</ele>
      </trkpt>
      <trkpt lat="43.11834" lon="-0.76295">
        <ele>308.27771</ele>
      </trkpt>
      <trkpt lat="43.11814" lon="-0.76273">
        <ele>306.379364</ele>
      </trkpt>
      <trkpt lat="43.11803" lon="-0.76267">
        <ele>305.235626</ele>
      </trkpt>
      <trkpt lat="43.1179" lon="-0.76265">
        <ele>304.095612</ele>
      </trkpt>
      <trkpt lat="43.11754" lon="-0.76278">
        <ele>301.331116</ele>
      </trkpt>
      <trkpt lat="43.11712" lon="-0.76277">
        <ele>300.128387</ele>
      </trkpt>
      <trkpt lat="43.11657" lon="-0.76265">
        <ele>302.310059</ele>
      </trkpt>
      <trkpt lat="43.11581" lon="-0.76262">
        <ele>306.684998</ele>
      </trkpt>
      <trkpt lat="43.11548" lon="-0.76251">
        <ele>308.159363</ele>
      </trkpt>
      <trkpt lat="43.11536" lon="-0.76245">
        <ele>308.889374</ele>
      </trkpt>
      <trkpt lat="43.11517" lon="-0.76224">
        <ele>309.84314</ele>
      </trkpt>
      <trkpt lat="43.11476" lon="-0.76149">
        <ele>312.462097</ele>
      </trkpt>
      <trkpt lat="43.11473" lon="-0.76137">
        <ele>312.546631</ele>
      </trkpt>
      <trkpt lat="43.11483" lon="-0.76069">
        <ele>310.790009</ele>
      </trkpt>
      <trkpt lat="43.11483" lon="-0.76037">
        <ele>308.757507</ele>
      </trkpt>
      <trkpt lat="43.11477" lon="-0.75988">
        <ele>306.075012</ele>
      </trkpt>
      <trkpt lat="43.11466" lon="-0.75954">
        <ele>304.772491</ele>
      </trkpt>
      <trkpt lat="43.11375" lon="-0.75741">
        <ele>301.873352</ele>
      </trkpt>
      <trkpt lat="43.11318" lon="-0.75545">
        <ele>300.851257</ele>
      </trkpt>
      <trkpt lat="43.11307" lon="-0.75493">
        <ele>302.533905</ele>
      </trkpt>
      <trkpt lat="43.113" lon="-0.75424">
        <ele>304.111511</ele>
      </trkpt>
      <trkpt lat="43.11297" lon="-0.75344">
        <ele>302.030853</ele>
      </trkpt>
      <trkpt lat="43.11294" lon="-0.75314">
        <ele>301.343048</ele>
      </trkpt>
      <trkpt lat="43.11281" lon="-0.75255">
        <ele>300.793762</ele>
      </trkpt>
      <trkpt lat="43.11279" lon="-0.75224">
        <ele>301.179993</ele>
      </trkpt>
      <trkpt lat="43.11283" lon="-0.75185">
        <ele>301.763367</ele>
      </trkpt>
      <trkpt lat="43.11279" lon="-0.75171">
        <ele>301.563751</ele>
      </trkpt>
      <trkpt lat="43.1127" lon="-0.7516">
        <ele>301.066742</ele>
      </trkpt>
      <trkpt lat="43.11266" lon="-0.75144">
        <ele>300.795685</ele>
      </trkpt>
      <trkpt lat="43.11267" lon="-0.75051">
        <ele>297.376587</ele>
      </trkpt>
      <trkpt lat="43.11263" lon="-0.74979">
        <ele>294.306244</ele>
      </trkpt>
      <trkpt lat="43.11256" lon="-0.74923">
        <ele>293.286133</ele>
      </trkpt>
      <trkpt lat="43.11225" lon="-0.74772">
        <ele>297.645874</ele>
      </trkpt>
      <trkpt lat="43.11222" lon="-0.74717">
        <ele>302.307678</ele>
      </trkpt>
      <trkpt lat="43.1123" lon="-0.74652">
        <ele>305.270386</ele>
      </trkpt>
      <trkpt lat="43.11295" lon="-0.7443">
        <ele>310.192688</ele>
      </trkpt>
      <trkpt lat="43.11316" lon="-0.74376">
        <ele>308.183441</ele>
      </trkpt>
      <trkpt lat="43.11364" lon="-0.74183">
        <ele>306.082947</ele>
      </trkpt>
      <trkpt lat="43.11367" lon="-0.74149">
        <ele>306.444763</ele>
      </trkpt>
      <trkpt lat="43.11363" lon="-0.74118">
        <ele>307.318237</ele>
      </trkpt>
      <trkpt lat="43.1135" lon="-0.74063">
        <ele>308.241943</ele>
      </trkpt>
      <trkpt lat="43.11344" lon="-0.74023">
        <ele>308.081879</ele>
      </trkpt>
      <trkpt lat="43.1133" lon="-0.73848">
        <ele>310.518555</ele>
      </trkpt>
      <trkpt lat="43.11331" lon="-0.73817">
        <ele>310.773529</ele>
      </trkpt>
      <trkpt lat="43.11341" lon="-0.73777">
        <ele>310.948059</ele>
      </trkpt>
      <trkpt lat="43.11342" lon="-0.73764">
        <ele>311.239777</ele>
      </trkpt>
      <trkpt lat="43.11337" lon="-0.73753">
        <ele>311.57431</ele>
      </trkpt>
      <trkpt lat="43.1127" lon="-0.7366">
        <ele>309.715515</ele>
      </trkpt>
      <trkpt lat="43.11242" lon="-0.73627">
        <ele>307.508759</ele>
      </trkpt>
      <trkpt lat="43.1122" lon="-0.73607">
        <ele>306.134491</ele>
      </trkpt>
      <trkpt lat="43.11209" lon="-0.73601">
        <ele>305.529541</ele>
      </trkpt>
      <trkpt lat="43.11181" lon="-0.73592">
        <ele>304.289581</ele>
      </trkpt>
      <trkpt lat="43.11107" lon="-0.73581">
        <ele>302.058136</ele>
      </trkpt>
      <trkpt lat="43.10891" lon="-0.73567">
        <ele>296.262512</ele>
      </trkpt>
      <trkpt lat="43.1087" lon="-0.73563">
        <ele>295.758759</ele>
      </trkpt>
      <trkpt lat="43.10759" lon="-0.73522">
        <ele>297.871246</ele>
      </trkpt>
      <trkpt lat="43.10729" lon="-0.73508">
        <ele>298.986176</ele>
      </trkpt>
      <trkpt lat="43.10648" lon="-0.73457">
        <ele>300.945313</ele>
      </trkpt>
      <trkpt lat="43.10607" lon="-0.73419">
        <ele>301.688507</ele>
      </trkpt>
      <trkpt lat="43.10579" lon="-0.73388">
        <ele>302.029053</ele>
      </trkpt>
      <trkpt lat="43.10496" lon="-0.73281">
        <ele>304.244659</ele>
      </trkpt>
      <trkpt lat="43.10447" lon="-0.73229">
        <ele>304.990051</ele>
      </trkpt>
      <trkpt lat="43.10405" lon="-0.73175">
        <ele>303.507507</ele>
      </trkpt>
      <trkpt lat="43.10346" lon="-0.73112">
        <ele>302.994965</ele>
      </trkpt>
      <trkpt lat="43.10328" lon="-0.73084">
        <ele>302.657135</ele>
      </trkpt>
      <trkpt lat="43.10258" lon="-0.72962">
        <ele>306.545654</ele>
      </trkpt>
      <trkpt lat="43.10246" lon="-0.72928">
        <ele>307.82843</ele>
      </trkpt>
      <trkpt lat="43.10215" lon="-0.72826">
        <ele>309.135773</ele>
      </trkpt>
      <trkpt lat="43.102" lon="-0.72797">
        <ele>309.034363</ele>
      </trkpt>
      <trkpt lat="43.10167" lon="-0.72746">
        <ele>308.935028</ele>
      </trkpt>
      <trkpt lat="43.10147" lon="-0.72705">
        <ele>308.503204</ele>
      </trkpt>
      <trkpt lat="43.10069" lon="-0.72527">
        <ele>307.989502</ele>
      </trkpt>
      <trkpt lat="43.10049" lon="-0.72469">
        <ele>307.381866</ele>
      </trkpt>
      <trkpt lat="43.10042" lon="-0.72457">
        <ele>307.351257</ele>
      </trkpt>
      <trkpt lat="43.1002" lon="-0.7243">
        <ele>308.071777</ele>
      </trkpt>
      <trkpt lat="43.1001" lon="-0.72428">
        <ele>308.505676</ele>
      </trkpt>
      <trkpt lat="43.10011" lon="-0.72442">
        <ele>308.565643</ele>
      </trkpt>
      <trkpt lat="43.10024" lon="-0.72503">
        <ele>308.975891</ele>
      </trkpt>
      <trkpt lat="43.1005" lon="-0.72597">
        <ele>310.712494</ele>
      </trkpt>
      <trkpt lat="43.1006" lon="-0.72657">
        <ele>311.291565</ele>
      </trkpt>
      <trkpt lat="43.10061" lon="-0.72688">
        <ele>311.442505</ele>
      </trkpt>
      <trkpt lat="43.10059" lon="-0.72702">
        <ele>311.475006</ele>
      </trkpt>
      <trkpt lat="43.1005" lon="-0.72728">
        <ele>311.657501</ele>
      </trkpt>
      <trkpt lat="43.10018" lon="-0.72787">
        <ele>312.441711</ele>
      </trkpt>
      <trkpt lat="43.09936" lon="-0.72961">
        <ele>313.288757</ele>
      </trkpt>
      <trkpt lat="43.09913" lon="-0.7299">
        <ele>314.584259</ele>
      </trkpt>
      <trkpt lat="43.09885" lon="-0.73012">
        <ele>315.434998</ele>
      </trkpt>
      <trkpt lat="43.09854" lon="-0.73024">
        <ele>315.441864</ele>
      </trkpt>
      <trkpt lat="43.09809" lon="-0.73037">
        <ele>316.023315</ele>
      </trkpt>
      <trkpt lat="43.09785" lon="-0.73039">
        <ele>316.254639</ele>
      </trkpt>
      <trkpt lat="43.09715" lon="-0.7303">
        <ele>315.931244</ele>
      </trkpt>
      <trkpt lat="43.09682" lon="-0.73013">
        <ele>315.924072</ele>
      </trkpt>
      <trkpt lat="43.09627" lon="-0.73025">
        <ele>317.770874</ele>
      </trkpt>
      <trkpt lat="43.09563" lon="-0.73073">
        <ele>319.184265</ele>
      </trkpt>
      <trkpt lat="43.09539" lon="-0.73085">
        <ele>317.930725</ele>
      </trkpt>
      <trkpt lat="43.09488" lon="-0.73131">
        <ele>316.308258</ele>
      </trkpt>
      <trkpt lat="43.09432" lon="-0.73178">
        <ele>315.478149</ele>
      </trkpt>
      <trkpt lat="43.09391" lon="-0.73242">
        <ele>313.331085</ele>
      </trkpt>
      <trkpt lat="43.09371" lon="-0.73271">
        <ele>314.362396</ele>
      </trkpt>
      <trkpt lat="43.09362" lon="-0.73276">
        <ele>314.370209</ele>
      </trkpt>
      <trkpt lat="43.09344" lon="-0.73281">
        <ele>313.306458</ele>
      </trkpt>
      <trkpt lat="43.09329" lon="-0.73296">
        <ele>313.205566</ele>
      </trkpt>
      <trkpt lat="43.0932" lon="-0.73301">
        <ele>313.1492</ele>
      </trkpt>
      <trkpt lat="43.0931" lon="-0.733">
        <ele>313.434113</ele>
      </trkpt>
      <trkpt lat="43.09298" lon="-0.73306">
        <ele>313.296448</ele>
      </trkpt>
      <trkpt lat="43.09291" lon="-0.73314">
        <ele>314.468262</ele>
      </trkpt>
      <trkpt lat="43.09258" lon="-0.73368">
        <ele>321.978394</ele>
      </trkpt>
      <trkpt lat="43.09242" lon="-0.73386">
        <ele>327.346436</ele>
      </trkpt>
      <trkpt lat="43.09232" lon="-0.73391">
        <ele>331.116852</ele>
      </trkpt>
      <trkpt lat="43.09191" lon="-0.73448">
        <ele>334.6521</ele>
      </trkpt>
      <trkpt lat="43.09154" lon="-0.73472">
        <ele>339.132019</ele>
      </trkpt>
      <trkpt lat="43.09135" lon="-0.73474">
        <ele>339.829895</ele>
      </trkpt>
      <trkpt lat="43.09126" lon="-0.73472">
        <ele>340.84964</ele>
      </trkpt>
      <trkpt lat="43.09126" lon="-0.73466">
        <ele>342.437958</ele>
      </trkpt>
      <trkpt lat="43.09133" lon="-0.73458">
        <ele>344.389526</ele>
      </trkpt>
      <trkpt lat="43.09159" lon="-0.73402">
        <ele>357.335785</ele>
      </trkpt>
      <trkpt lat="43.09168" lon="-0.73377">
        <ele>361.110901</ele>
      </trkpt>
      <trkpt lat="43.09171" lon="-0.73364">
        <ele>361.973114</ele>
      </trkpt>
      <trkpt lat="43.0917" lon="-0.73349">
        <ele>362.929382</ele>
      </trkpt>
      <trkpt lat="43.0915" lon="-0.73321">
        <ele>367.782471</ele>
      </trkpt>
      <trkpt lat="43.09139" lon="-0.733">
        <ele>367.818512</ele>
      </trkpt>
      <trkpt lat="43.09121" lon="-0.73287">
        <ele>368.543121</ele>
      </trkpt>
      <trkpt lat="43.09092" lon="-0.73276">
        <ele>369.879303</ele>
      </trkpt>
      <trkpt lat="43.09073" lon="-0.73273">
        <ele>372.654694</ele>
      </trkpt>
      <trkpt lat="43.09062" lon="-0.73266">
        <ele>376.223267</ele>
      </trkpt>
      <trkpt lat="43.09057" lon="-0.73252">
        <ele>376.698975</ele>
      </trkpt>
      <trkpt lat="43.09054" lon="-0.73215">
        <ele>379.402344</ele>
      </trkpt>
      <trkpt lat="43.09057" lon="-0.73203">
        <ele>378.552826</ele>
      </trkpt>
      <trkpt lat="43.09073" lon="-0.73172">
        <ele>372.72995</ele>
      </trkpt>
      <trkpt lat="43.09079" lon="-0.73148">
        <ele>375.663361</ele>
      </trkpt>
      <trkpt lat="43.09083" lon="-0.73109">
        <ele>384.334778</ele>
      </trkpt>
      <trkpt lat="43.09088" lon="-0.73096">
        <ele>385.700012</ele>
      </trkpt>
      <trkpt lat="43.09132" lon="-0.73066">
        <ele>382.787781</ele>
      </trkpt>
      <trkpt lat="43.09166" lon="-0.73034">
        <ele>387.102661</ele>
      </trkpt>
      <trkpt lat="43.09187" lon="-0.73007">
        <ele>389.267822</ele>
      </trkpt>
      <trkpt lat="43.09188" lon="-0.72993">
        <ele>390.434662</ele>
      </trkpt>
      <trkpt lat="43.09177" lon="-0.72971">
        <ele>394.438019</ele>
      </trkpt>
      <trkpt lat="43.09168" lon="-0.72935">
        <ele>397.892456</ele>
      </trkpt>
      <trkpt lat="43.09162" lon="-0.72926">
        <ele>398.476746</ele>
      </trkpt>
      <trkpt lat="43.09153" lon="-0.72923">
        <ele>399.876068</ele>
      </trkpt>
      <trkpt lat="43.09148" lon="-0.72935">
        <ele>401.487396</ele>
      </trkpt>
      <trkpt lat="43.09125" lon="-0.7296">
        <ele>403.453339</ele>
      </trkpt>
      <trkpt lat="43.09038" lon="-0.73081">
        <ele>403.031616</ele>
      </trkpt>
      <trkpt lat="43.09016" lon="-0.73132">
        <ele>402.076691</ele>
      </trkpt>
      <trkpt lat="43.08983" lon="-0.73193">
        <ele>404.428406</ele>
      </trkpt>
      <trkpt lat="43.08914" lon="-0.73306">
        <ele>410.162903</ele>
      </trkpt>
      <trkpt lat="43.08905" lon="-0.73311">
        <ele>411.545013</ele>
      </trkpt>
      <trkpt lat="43.08886" lon="-0.73303">
        <ele>415.622711</ele>
      </trkpt>
      <trkpt lat="43.08888" lon="-0.73318">
        <ele>415.039978</ele>
      </trkpt>
      <trkpt lat="43.08886" lon="-0.73332">
        <ele>415.227417</ele>
      </trkpt>
      <trkpt lat="43.0888" lon="-0.73345">
        <ele>416.645264</ele>
      </trkpt>
      <trkpt lat="43.08849" lon="-0.73388">
        <ele>419.985321</ele>
      </trkpt>
      <trkpt lat="43.08832" lon="-0.73402">
        <ele>422.296295</ele>
      </trkpt>
      <trkpt lat="43.08815" lon="-0.73423">
        <ele>422.054169</ele>
      </trkpt>
      <trkpt lat="43.08788" lon="-0.7344">
        <ele>423.100677</ele>
      </trkpt>
      <trkpt lat="43.08767" lon="-0.7347">
        <ele>421.134308</ele>
      </trkpt>
      <trkpt lat="43.08753" lon="-0.73489">
        <ele>420.08075</ele>
      </trkpt>
      <trkpt lat="43.08735" lon="-0.73506">
        <ele>421.783325</ele>
      </trkpt>
      <trkpt lat="43.0872" lon="-0.73528">
        <ele>421.993744</ele>
      </trkpt>
      <trkpt lat="43.08711" lon="-0.73554">
        <ele>422.384277</ele>
      </trkpt>
      <trkpt lat="43.08707" lon="-0.73585">
        <ele>420.53537</ele>
      </trkpt>
      <trkpt lat="43.08693" lon="-0.7363">
        <ele>417.957703</ele>
      </trkpt>
      <trkpt lat="43.08692" lon="-0.73646">
        <ele>415.572174</ele>
      </trkpt>
      <trkpt lat="43.08701" lon="-0.73688">
        <ele>412.714355</ele>
      </trkpt>
      <trkpt lat="43.08702" lon="-0.73705">
        <ele>413.49704</ele>
      </trkpt>
      <trkpt lat="43.08698" lon="-0.73722">
        <ele>413.219055</ele>
      </trkpt>
      <trkpt lat="43.08688" lon="-0.73735">
        <ele>412.385132</ele>
      </trkpt>
      <trkpt lat="43.08679" lon="-0.73741">
        <ele>412.788788</ele>
      </trkpt>
      <trkpt lat="43.08669" lon="-0.73744">
        <ele>414.137299</ele>
      </trkpt>
      <trkpt lat="43.08649" lon="-0.73743">
        <ele>417.614899</ele>
      </trkpt>
      <trkpt lat="43.0864" lon="-0.73751">
        <ele>417.17514</ele>
      </trkpt>
      <trkpt lat="43.08627" lon="-0.73769">
        <ele>417.101868</ele>
      </trkpt>
      <trkpt lat="43.08609" lon="-0.73783">
        <ele>419.745331</ele>
      </trkpt>
      <trkpt lat="43.08602" lon="-0.73794">
        <ele>420.092682</ele>
      </trkpt>
      <trkpt lat="43.08593" lon="-0.73821">
        <ele>420.874115</ele>
      </trkpt>
      <trkpt lat="43.08575" lon="-0.73854">
        <ele>428.25</ele>
      </trkpt>
      <trkpt lat="43.0857" lon="-0.73868">
        <ele>430.450012</ele>
      </trkpt>
      <trkpt lat="43.08567" lon="-0.73882">
        <ele>431.200012</ele>
      </trkpt>
      <trkpt lat="43.08569" lon="-0.73925">
        <ele>432.647278</ele>
      </trkpt>
      <trkpt lat="43.08565" lon="-0.7394">
        <ele>434.536804</ele>
      </trkpt>
      <trkpt lat="43.08557" lon="-0.73952">
        <ele>436.460754</ele>
      </trkpt>
      <trkpt lat="43.0852" lon="-0.7399">
        <ele>437.791565</ele>
      </trkpt>
      <trkpt lat="43.08511" lon="-0.74002">
        <ele>438.559753</ele>
      </trkpt>
      <trkpt lat="43.08504" lon="-0.74028">
        <ele>437.888</ele>
      </trkpt>
      <trkpt lat="43.08505" lon="-0.74056">
        <ele>436.409851</ele>
      </trkpt>
      <trkpt lat="43.08499" lon="-0.74084">
        <ele>435.944122</ele>
      </trkpt>
      <trkpt lat="43.08469" lon="-0.74141">
        <ele>441.625671</ele>
      </trkpt>
      <trkpt lat="43.08459" lon="-0.74166">
        <ele>445.391296</ele>
      </trkpt>
      <trkpt lat="43.08453" lon="-0.74206">
        <ele>448.828125</ele>
      </trkpt>
      <trkpt lat="43.08447" lon="-0.74219">
        <ele>450.106262</ele>
      </trkpt>
      <trkpt lat="43.08414" lon="-0.74254">
        <ele>456.967255</ele>
      </trkpt>
      <trkpt lat="43.08394" lon="-0.74281">
        <ele>457.792603</ele>
      </trkpt>
      <trkpt lat="43.08384" lon="-0.74307">
        <ele>459.338409</ele>
      </trkpt>
      <trkpt lat="43.0837" lon="-0.74329">
        <ele>459.998383</ele>
      </trkpt>
      <trkpt lat="43.08314" lon="-0.74385">
        <ele>461.469116</ele>
      </trkpt>
      <trkpt lat="43.08277" lon="-0.74436">
        <ele>463.993988</ele>
      </trkpt>
      <trkpt lat="43.08259" lon="-0.74453">
        <ele>462.051117</ele>
      </trkpt>
      <trkpt lat="43.08175" lon="-0.74511">
        <ele>460.807953</ele>
      </trkpt>
      <trkpt lat="43.08103" lon="-0.74574">
        <ele>462.959381</ele>
      </trkpt>
      <trkpt lat="43.08037" lon="-0.74634">
        <ele>463.510559</ele>
      </trkpt>
      <trkpt lat="43.08036" lon="-0.74608">
        <ele>465.154938</ele>
      </trkpt>
      <trkpt lat="43.08012" lon="-0.74583">
        <ele>464.172424</ele>
      </trkpt>
      <trkpt lat="43.08007" lon="-0.74572">
        <ele>463.120453</ele>
      </trkpt>
      <trkpt lat="43.07998" lon="-0.74521">
        <ele>455.065338</ele>
      </trkpt>
      <trkpt lat="43.08001" lon="-0.74493">
        <ele>451.244476</ele>
      </trkpt>
      <trkpt lat="43.08029" lon="-0.74441">
        <ele>446.314758</ele>
      </trkpt>
      <trkpt lat="43.08039" lon="-0.74406">
        <ele>442.249725</ele>
      </trkpt>
      <trkpt lat="43.08056" lon="-0.74267">
        <ele>444.322754</ele>
      </trkpt>
      <trkpt lat="43.08061" lon="-0.7419">
        <ele>443.022491</ele>
      </trkpt>
      <trkpt lat="43.08059" lon="-0.74175">
        <ele>442.424805</ele>
      </trkpt>
      <trkpt lat="43.08037" lon="-0.74123">
        <ele>441.013275</ele>
      </trkpt>
      <trkpt lat="43.08022" lon="-0.74102">
        <ele>440.357971</ele>
      </trkpt>
      <trkpt lat="43.08016" lon="-0.7409">
        <ele>438.399445</ele>
      </trkpt>
      <trkpt lat="43.08014" lon="-0.74075">
        <ele>435.351837</ele>
      </trkpt>
      <trkpt lat="43.08016" lon="-0.74061">
        <ele>434.05249</ele>
      </trkpt>
      <trkpt lat="43.08035" lon="-0.74007">
        <ele>426.5578</ele>
      </trkpt>
      <trkpt lat="43.08085" lon="-0.73906">
        <ele>413.234863</ele>
      </trkpt>
      <trkpt lat="43.08118" lon="-0.73848">
        <ele>409.826172</ele>
      </trkpt>
      <trkpt lat="43.08155" lon="-0.73764">
        <ele>404.060699</ele>
      </trkpt>
      <trkpt lat="43.08144" lon="-0.73771">
        <ele>401.66687</ele>
      </trkpt>
      <trkpt lat="43.08114" lon="-0.738">
        <ele>398.583923</ele>
      </trkpt>
      <trkpt lat="43.08036" lon="-0.73863">
        <ele>381.472656</ele>
      </trkpt>
      <trkpt lat="43.07973" lon="-0.73924">
        <ele>375.068237</ele>
      </trkpt>
      <trkpt lat="43.07941" lon="-0.73961">
        <ele>375.270111</ele>
      </trkpt>
      <trkpt lat="43.07889" lon="-0.74064">
        <ele>375.002136</ele>
      </trkpt>
      <trkpt lat="43.07876" lon="-0.74083">
        <ele>373.493256</ele>
      </trkpt>
      <trkpt lat="43.07836" lon="-0.7413">
        <ele>371.609039</ele>
      </trkpt>
      <trkpt lat="43.07761" lon="-0.74182">
        <ele>368.546509</ele>
      </trkpt>
      <trkpt lat="43.07749" lon="-0.74186">
        <ele>368.226654</ele>
      </trkpt>
      <trkpt lat="43.07715" lon="-0.74182">
        <ele>368.66626</ele>
      </trkpt>
      <trkpt lat="43.07752" lon="-0.74123">
        <ele>366.561829</ele>
      </trkpt>
      <trkpt lat="43.07772" lon="-0.74097">
        <ele>366.07605</ele>
      </trkpt>
      <trkpt lat="43.0778" lon="-0.7408">
        <ele>365.546265</ele>
      </trkpt>
      <trkpt lat="43.07794" lon="-0.74012">
        <ele>363.629974</ele>
      </trkpt>
      <trkpt lat="43.07797" lon="-0.73974">
        <ele>363.036255</ele>
      </trkpt>
      <trkpt lat="43.07795" lon="-0.73955">
        <ele>362.116241</ele>
      </trkpt>
      <trkpt lat="43.07787" lon="-0.73925">
        <ele>360.854675</ele>
      </trkpt>
      <trkpt lat="43.07786" lon="-0.73909">
        <ele>360.304199</ele>
      </trkpt>
      <trkpt lat="43.07794" lon="-0.73895">
        <ele>360.427185</ele>
      </trkpt>
      <trkpt lat="43.07872" lon="-0.73814">
        <ele>359.531921</ele>
      </trkpt>
      <trkpt lat="43.0788" lon="-0.73796">
        <ele>358.823517</ele>
      </trkpt>
      <trkpt lat="43.07895" lon="-0.73727">
        <ele>357.016266</ele>
      </trkpt>
      <trkpt lat="43.07902" lon="-0.73706">
        <ele>357.09314</ele>
      </trkpt>
      <trkpt lat="43.07921" lon="-0.7367">
        <ele>356.881866</ele>
      </trkpt>
      <trkpt lat="43.07933" lon="-0.73657">
        <ele>356.571259</ele>
      </trkpt>
      <trkpt lat="43.07961" lon="-0.73642">
        <ele>355.877655</ele>
      </trkpt>
      <trkpt lat="43.07974" lon="-0.73631">
        <ele>355.798431</ele>
      </trkpt>
      <trkpt lat="43.07985" lon="-0.73616">
        <ele>355.969788</ele>
      </trkpt>
      <trkpt lat="43.07999" lon="-0.73579">
        <ele>356.063751</ele>
      </trkpt>
      <trkpt lat="43.08026" lon="-0.73525">
        <ele>355.83313</ele>
      </trkpt>
      <trkpt lat="43.08042" lon="-0.73465">
        <ele>356.136475</ele>
      </trkpt>
      <trkpt lat="43.08058" lon="-0.73427">
        <ele>356.147156</ele>
      </trkpt>
      <trkpt lat="43.08081" lon="-0.73399">
        <ele>355.116913</ele>
      </trkpt>
      <trkpt lat="43.08121" lon="-0.7337">
        <ele>354.184662</ele>
      </trkpt>
      <trkpt lat="43.08142" lon="-0.73339">
        <ele>353.559052</ele>
      </trkpt>
      <trkpt lat="43.08215" lon="-0.73245">
        <ele>349.974243</ele>
      </trkpt>
      <trkpt lat="43.08224" lon="-0.7323">
        <ele>349.516876</ele>
      </trkpt>
      <trkpt lat="43.0823" lon="-0.73211">
        <ele>349.203125</ele>
      </trkpt>
      <trkpt lat="43.0824" lon="-0.73194">
        <ele>349.023438</ele>
      </trkpt>
      <trkpt lat="43.08265" lon="-0.7316">
        <ele>348.463226</ele>
      </trkpt>
      <trkpt lat="43.08294" lon="-0.73108">
        <ele>347.45929</ele>
      </trkpt>
      <trkpt lat="43.08311" lon="-0.7305">
        <ele>345.748352</ele>
      </trkpt>
      <trkpt lat="43.08328" lon="-0.7294">
        <ele>345.025757</ele>
      </trkpt>
      <trkpt lat="43.08351" lon="-0.72763">
        <ele>343.841736</ele>
      </trkpt>
      <trkpt lat="43.08359" lon="-0.72686">
        <ele>343.929993</ele>
      </trkpt>
      <trkpt lat="43.08373" lon="-0.72604">
        <ele>343.179993</ele>
      </trkpt>
      <trkpt lat="43.08376" lon="-0.7256">
        <ele>342.494995</ele>
      </trkpt>
      <trkpt lat="43.08373" lon="-0.72484">
        <ele>341.725739</ele>
      </trkpt>
      <trkpt lat="43.08374" lon="-0.72466">
        <ele>341.496246</ele>
      </trkpt>
      <trkpt lat="43.08394" lon="-0.7237">
        <ele>342.47998</ele>
      </trkpt>
      <trkpt lat="43.08402" lon="-0.72351">
        <ele>342.579987</ele>
      </trkpt>
      <trkpt lat="43.08415" lon="-0.72338">
        <ele>342.261261</ele>
      </trkpt>
      <trkpt lat="43.08443" lon="-0.72316">
        <ele>341.614838</ele>
      </trkpt>
      <trkpt lat="43.08458" lon="-0.72301">
        <ele>341.473206</ele>
      </trkpt>
      <trkpt lat="43.08504" lon="-0.72221">
        <ele>341.098755</ele>
      </trkpt>
      <trkpt lat="43.08525" lon="-0.72193">
        <ele>341.214996</ele>
      </trkpt>
      <trkpt lat="43.08542" lon="-0.72179">
        <ele>341.332489</ele>
      </trkpt>
      <trkpt lat="43.0856" lon="-0.72171">
        <ele>341.275635</ele>
      </trkpt>
      <trkpt lat="43.08618" lon="-0.72161">
        <ele>342.392517</ele>
      </trkpt>
      <trkpt lat="43.08636" lon="-0.72154">
        <ele>342.23999</ele>
      </trkpt>
      <trkpt lat="43.0868" lon="-0.7213">
        <ele>342.024109</ele>
      </trkpt>
      <trkpt lat="43.08763" lon="-0.7208">
        <ele>343.394989</ele>
      </trkpt>
      <trkpt lat="43.08793" lon="-0.72055">
        <ele>343.868744</ele>
      </trkpt>
      <trkpt lat="43.08874" lon="-0.71967">
        <ele>337.134369</ele>
      </trkpt>
      <trkpt lat="43.08989" lon="-0.71803">
        <ele>330.339325</ele>
      </trkpt>
      <trkpt lat="43.09022" lon="-0.71763">
        <ele>330.220001</ele>
      </trkpt>
      <trkpt lat="43.09119" lon="-0.71677">
        <ele>330.582764</ele>
      </trkpt>
      <trkpt lat="43.09148" lon="-0.71647">
        <ele>331</ele>
      </trkpt>
      <trkpt lat="43.09211" lon="-0.71573">
        <ele>331.341888</ele>
      </trkpt>
      <trkpt lat="43.09226" lon="-0.7156">
        <ele>331.826263</ele>
      </trkpt>
      <trkpt lat="43.09237" lon="-0.71542">
        <ele>332.358765</ele>
      </trkpt>
      <trkpt lat="43.09255" lon="-0.71482">
        <ele>332.983032</ele>
      </trkpt>
      <trkpt lat="43.09264" lon="-0.71466">
        <ele>333.133759</ele>
      </trkpt>
      <trkpt lat="43.09277" lon="-0.71458">
        <ele>333.278748</ele>
      </trkpt>
      <trkpt lat="43.09292" lon="-0.71455">
        <ele>333.336884</ele>
      </trkpt>
      <trkpt lat="43.09306" lon="-0.71457">
        <ele>333.323761</ele>
      </trkpt>
      <trkpt lat="43.09349" lon="-0.7147">
        <ele>333.14563</ele>
      </trkpt>
      <trkpt lat="43.09437" lon="-0.71507">
        <ele>330.11673</ele>
      </trkpt>
      <trkpt lat="43.0947" lon="-0.71508">
        <ele>329.757202</ele>
      </trkpt>
      <trkpt lat="43.09506" lon="-0.71523">
        <ele>329.159576</ele>
      </trkpt>
      <trkpt lat="43.09512" lon="-0.71509">
        <ele>329.453186</ele>
      </trkpt>
      <trkpt lat="43.09521" lon="-0.71438">
        <ele>333.235565</ele>
      </trkpt>
      <trkpt lat="43.09549" lon="-0.71436">
        <ele>337.738495</ele>
      </trkpt>
      <trkpt lat="43.09558" lon="-0.71441">
        <ele>338.797424</ele>
      </trkpt>
      <trkpt lat="43.09565" lon="-0.71451">
        <ele>338.70462</ele>
      </trkpt>
      <trkpt lat="43.09588" lon="-0.71501">
        <ele>332.89801</ele>
      </trkpt>
      <trkpt lat="43.09628" lon="-0.71517">
        <ele>332.905121</ele>
      </trkpt>
      <trkpt lat="43.09648" lon="-0.7152">
        <ele>335.041168</ele>
      </trkpt>
      <trkpt lat="43.09676" lon="-0.71531">
        <ele>335.831238</ele>
      </trkpt>
      <trkpt lat="43.0971" lon="-0.71555">
        <ele>335.260284</ele>
      </trkpt>
      <trkpt lat="43.09749" lon="-0.7157">
        <ele>343.935303</ele>
      </trkpt>
      <trkpt lat="43.09778" lon="-0.71573">
        <ele>346.831573</ele>
      </trkpt>
      <trkpt lat="43.09774" lon="-0.71562">
        <ele>349.947357</ele>
      </trkpt>
      <trkpt lat="43.09758" lon="-0.71548">
        <ele>350.352997</ele>
      </trkpt>
      <trkpt lat="43.09656" lon="-0.71438">
        <ele>364.953125</ele>
      </trkpt>
      <trkpt lat="43.09617" lon="-0.71389">
        <ele>370.404999</ele>
      </trkpt>
      <trkpt lat="43.09606" lon="-0.71367">
        <ele>372.506317</ele>
      </trkpt>
      <trkpt lat="43.09606" lon="-0.71355">
        <ele>371.481293</ele>
      </trkpt>
      <trkpt lat="43.09613" lon="-0.7133">
        <ele>372.891357</ele>
      </trkpt>
      <trkpt lat="43.09619" lon="-0.71319">
        <ele>374.727203</ele>
      </trkpt>
      <trkpt lat="43.09648" lon="-0.71297">
        <ele>376.415466</ele>
      </trkpt>
      <trkpt lat="43.09662" lon="-0.71276">
        <ele>375.320709</ele>
      </trkpt>
      <trkpt lat="43.09686" lon="-0.71216">
        <ele>378.074585</ele>
      </trkpt>
      <trkpt lat="43.09674" lon="-0.71134">
        <ele>381.371887</ele>
      </trkpt>
      <trkpt lat="43.09661" lon="-0.71096">
        <ele>379.24939</ele>
      </trkpt>
      <trkpt lat="43.09661" lon="-0.71081">
        <ele>380.408447</ele>
      </trkpt>
      <trkpt lat="43.09664" lon="-0.7107">
        <ele>382.488251</ele>
      </trkpt>
      <trkpt lat="43.09671" lon="-0.71057">
        <ele>383.409912</ele>
      </trkpt>
      <trkpt lat="43.09717" lon="-0.71035">
        <ele>388.922943</ele>
      </trkpt>
      <trkpt lat="43.09732" lon="-0.71019">
        <ele>391.874542</ele>
      </trkpt>
      <trkpt lat="43.09746" lon="-0.70982">
        <ele>398.615845</ele>
      </trkpt>
      <trkpt lat="43.09743" lon="-0.70957">
        <ele>400.25824</ele>
      </trkpt>
      <trkpt lat="43.09734" lon="-0.70934">
        <ele>400.617493</ele>
      </trkpt>
      <trkpt lat="43.09742" lon="-0.70925">
        <ele>403.607513</ele>
      </trkpt>
      <trkpt lat="43.09752" lon="-0.70928">
        <ele>405.727509</ele>
      </trkpt>
      <trkpt lat="43.09759" lon="-0.70934">
        <ele>406.857513</ele>
      </trkpt>
      <trkpt lat="43.0977" lon="-0.70933">
        <ele>409.660004</ele>
      </trkpt>
      <trkpt lat="43.09769" lon="-0.70919">
        <ele>411.162506</ele>
      </trkpt>
      <trkpt lat="43.09745" lon="-0.70863">
        <ele>411.335815</ele>
      </trkpt>
      <trkpt lat="43.09739" lon="-0.70837">
        <ele>411.720123</ele>
      </trkpt>
      <trkpt lat="43.09744" lon="-0.70773">
        <ele>420.20343</ele>
      </trkpt>
      <trkpt lat="43.09742" lon="-0.70743">
        <ele>421.810059</ele>
      </trkpt>
      <trkpt lat="43.09733" lon="-0.70704">
        <ele>422.843384</ele>
      </trkpt>
      <trkpt lat="43.09738" lon="-0.70693">
        <ele>423.636597</ele>
      </trkpt>
      <trkpt lat="43.09767" lon="-0.70688">
        <ele>426.091949</ele>
      </trkpt>
      <trkpt lat="43.09786" lon="-0.70681">
        <ele>427.615387</ele>
      </trkpt>
      <trkpt lat="43.09805" lon="-0.7067">
        <ele>428.956146</ele>
      </trkpt>
      <trkpt lat="43.09822" lon="-0.70651">
        <ele>429.911652</ele>
      </trkpt>
      <trkpt lat="43.0985" lon="-0.70635">
        <ele>429.045013</ele>
      </trkpt>
      <trkpt lat="43.09873" lon="-0.70597">
        <ele>427.127289</ele>
      </trkpt>
      <trkpt lat="43.09881" lon="-0.70587">
        <ele>426.085907</ele>
      </trkpt>
      <trkpt lat="43.09901" lon="-0.70573">
        <ele>424.611877</ele>
      </trkpt>
      <trkpt lat="43.09926" lon="-0.7055">
        <ele>424.111481</ele>
      </trkpt>
      <trkpt lat="43.09949" lon="-0.70521">
        <ele>425.29895</ele>
      </trkpt>
      <trkpt lat="43.09964" lon="-0.70496">
        <ele>427.331543</ele>
      </trkpt>
      <trkpt lat="43.09978" lon="-0.70461">
        <ele>429.905792</ele>
      </trkpt>
      <trkpt lat="43.09986" lon="-0.70433">
        <ele>432.50174</ele>
      </trkpt>
      <trkpt lat="43.09987" lon="-0.7042">
        <ele>433.838196</ele>
      </trkpt>
      <trkpt lat="43.09985" lon="-0.70406">
        <ele>435.250519</ele>
      </trkpt>
      <trkpt lat="43.09974" lon="-0.70386">
        <ele>437.505127</ele>
      </trkpt>
      <trkpt lat="43.09943" lon="-0.70354">
        <ele>439.952667</ele>
      </trkpt>
      <trkpt lat="43.09937" lon="-0.70344">
        <ele>440.604248</ele>
      </trkpt>
      <trkpt lat="43.09935" lon="-0.70332">
        <ele>439.88501</ele>
      </trkpt>
      <trkpt lat="43.09935" lon="-0.70319">
        <ele>439.309357</ele>
      </trkpt>
      <trkpt lat="43.09941" lon="-0.7031">
        <ele>439.699127</ele>
      </trkpt>
      <trkpt lat="43.09959" lon="-0.70297">
        <ele>442.358368</ele>
      </trkpt>
      <trkpt lat="43.09978" lon="-0.70291">
        <ele>445.234131</ele>
      </trkpt>
      <trkpt lat="43.09986" lon="-0.70286">
        <ele>446.058105</ele>
      </trkpt>
      <trkpt lat="43.10011" lon="-0.70262">
        <ele>445.52533</ele>
      </trkpt>
      <trkpt lat="43.10058" lon="-0.70234">
        <ele>454.118927</ele>
      </trkpt>
      <trkpt lat="43.10082" lon="-0.70209">
        <ele>458.815948</ele>
      </trkpt>
      <trkpt lat="43.10102" lon="-0.70179">
        <ele>464.021515</ele>
      </trkpt>
      <trkpt lat="43.10104" lon="-0.70165">
        <ele>465.483032</ele>
      </trkpt>
      <trkpt lat="43.10084" lon="-0.70103">
        <ele>467.702179</ele>
      </trkpt>
      <trkpt lat="43.1007" lon="-0.70038">
        <ele>470.262756</ele>
      </trkpt>
      <trkpt lat="43.10073" lon="-0.70026">
        <ele>468.364777</ele>
      </trkpt>
      <trkpt lat="43.1008" lon="-0.70018">
        <ele>467.853729</ele>
      </trkpt>
      <trkpt lat="43.10089" lon="-0.70014">
        <ele>468.417053</ele>
      </trkpt>
      <trkpt lat="43.10099" lon="-0.70017">
        <ele>470.623993</ele>
      </trkpt>
      <trkpt lat="43.10117" lon="-0.70047">
        <ele>480.740662</ele>
      </trkpt>
      <trkpt lat="43.10133" lon="-0.70064">
        <ele>481.560944</ele>
      </trkpt>
      <trkpt lat="43.10179" lon="-0.70086">
        <ele>487.686523</ele>
      </trkpt>
      <trkpt lat="43.102" lon="-0.70092">
        <ele>490.688202</ele>
      </trkpt>
      <trkpt lat="43.10218" lon="-0.70086">
        <ele>492.148895</ele>
      </trkpt>
      <trkpt lat="43.10234" lon="-0.70068">
        <ele>493.550323</ele>
      </trkpt>
      <trkpt lat="43.10243" lon="-0.70046">
        <ele>493.574554</ele>
      </trkpt>
      <trkpt lat="43.10267" lon="-0.70021">
        <ele>494.290649</ele>
      </trkpt>
      <trkpt lat="43.10291" lon="-0.69998">
        <ele>499.497925</ele>
      </trkpt>
      <trkpt lat="43.10303" lon="-0.69976">
        <ele>501.476227</ele>
      </trkpt>
      <trkpt lat="43.10313" lon="-0.69926">
        <ele>504.740356</ele>
      </trkpt>
      <trkpt lat="43.10328" lon="-0.69885">
        <ele>508.860718</ele>
      </trkpt>
      <trkpt lat="43.1033" lon="-0.69871">
        <ele>509.483948</ele>
      </trkpt>
      <trkpt lat="43.10331" lon="-0.69786">
        <ele>511.124542</ele>
      </trkpt>
      <trkpt lat="43.10335" lon="-0.6976">
        <ele>511.445282</ele>
      </trkpt>
      <trkpt lat="43.10339" lon="-0.69749">
        <ele>511.529083</ele>
      </trkpt>
      <trkpt lat="43.10346" lon="-0.69739">
        <ele>510.50769</ele>
      </trkpt>
      <trkpt lat="43.10357" lon="-0.69731">
        <ele>509.924316</ele>
      </trkpt>
      <trkpt lat="43.10386" lon="-0.69718">
        <ele>508.969299</ele>
      </trkpt>
      <trkpt lat="43.1041" lon="-0.69713">
        <ele>511.680267</ele>
      </trkpt>
      <trkpt lat="43.10421" lon="-0.69705">
        <ele>511.937073</ele>
      </trkpt>
      <trkpt lat="43.10459" lon="-0.69656">
        <ele>514.867493</ele>
      </trkpt>
      <trkpt lat="43.10476" lon="-0.69608">
        <ele>512.773926</ele>
      </trkpt>
      <trkpt lat="43.10493" lon="-0.69592">
        <ele>513.488586</ele>
      </trkpt>
      <trkpt lat="43.10502" lon="-0.6959">
        <ele>514.883057</ele>
      </trkpt>
      <trkpt lat="43.10532" lon="-0.69595">
        <ele>522.347473</ele>
      </trkpt>
      <trkpt lat="43.10561" lon="-0.69593">
        <ele>525.360596</ele>
      </trkpt>
      <trkpt lat="43.10598" lon="-0.69582">
        <ele>529.667053</ele>
      </trkpt>
      <trkpt lat="43.10605" lon="-0.69571">
        <ele>529.989197</ele>
      </trkpt>
      <trkpt lat="43.10619" lon="-0.69522">
        <ele>529.212769</ele>
      </trkpt>
      <trkpt lat="43.10625" lon="-0.69511">
        <ele>529.164246</ele>
      </trkpt>
      <trkpt lat="43.10633" lon="-0.69501">
        <ele>529.026855</ele>
      </trkpt>
      <trkpt lat="43.10651" lon="-0.6949">
        <ele>529.320251</ele>
      </trkpt>
      <trkpt lat="43.10672" lon="-0.69482">
        <ele>529.053101</ele>
      </trkpt>
      <trkpt lat="43.10685" lon="-0.69481">
        <ele>528.819397</ele>
      </trkpt>
      <trkpt lat="43.10777" lon="-0.69484">
        <ele>529.209106</ele>
      </trkpt>
      <trkpt lat="43.10811" lon="-0.69475">
        <ele>529.332336</ele>
      </trkpt>
      <trkpt lat="43.10818" lon="-0.69466">
        <ele>530.074829</ele>
      </trkpt>
      <trkpt lat="43.10821" lon="-0.69451">
        <ele>531.812622</ele>
      </trkpt>
      <trkpt lat="43.10823" lon="-0.69409">
        <ele>532.852478</ele>
      </trkpt>
      <trkpt lat="43.1083" lon="-0.6934">
        <ele>536.81012</ele>
      </trkpt>
      <trkpt lat="43.10858" lon="-0.69238">
        <ele>542.16687</ele>
      </trkpt>
      <trkpt lat="43.10854" lon="-0.69206">
        <ele>542.6875</ele>
      </trkpt>
      <trkpt lat="43.10855" lon="-0.69179">
        <ele>544.911865</ele>
      </trkpt>
      <trkpt lat="43.1087" lon="-0.69083">
        <ele>545.393494</ele>
      </trkpt>
      <trkpt lat="43.10872" lon="-0.69053">
        <ele>545.059509</ele>
      </trkpt>
      <trkpt lat="43.10868" lon="-0.68995">
        <ele>545.232361</ele>
      </trkpt>
      <trkpt lat="43.10875" lon="-0.68937">
        <ele>545.264404</ele>
      </trkpt>
      <trkpt lat="43.10884" lon="-0.68899">
        <ele>544.612488</ele>
      </trkpt>
      <trkpt lat="43.10883" lon="-0.68885">
        <ele>544.787476</ele>
      </trkpt>
      <trkpt lat="43.10873" lon="-0.68858">
        <ele>545.977417</ele>
      </trkpt>
      <trkpt lat="43.10857" lon="-0.68789">
        <ele>545.712524</ele>
      </trkpt>
      <trkpt lat="43.10855" lon="-0.68772">
        <ele>545.143738</ele>
      </trkpt>
      <trkpt lat="43.1086" lon="-0.68736">
        <ele>543.977966</ele>
      </trkpt>
      <trkpt lat="43.10871" lon="-0.68701">
        <ele>542.932739</ele>
      </trkpt>
      <trkpt lat="43.10904" lon="-0.68636">
        <ele>540.894775</ele>
      </trkpt>
      <trkpt lat="43.10926" lon="-0.68606">
        <ele>542.269043</ele>
      </trkpt>
      <trkpt lat="43.10945" lon="-0.68594">
        <ele>541.451904</ele>
      </trkpt>
      <trkpt lat="43.11005" lon="-0.68581">
        <ele>542.585876</ele>
      </trkpt>
      <trkpt lat="43.11023" lon="-0.68567">
        <ele>542.526611</ele>
      </trkpt>
      <trkpt lat="43.11028" lon="-0.68553">
        <ele>542.010437</ele>
      </trkpt>
      <trkpt lat="43.11039" lon="-0.68489">
        <ele>538.452759</ele>
      </trkpt>
      <trkpt lat="43.11069" lon="-0.68395">
        <ele>538.109375</ele>
      </trkpt>
      <trkpt lat="43.11074" lon="-0.68353">
        <ele>538.107483</ele>
      </trkpt>
      <trkpt lat="43.11074" lon="-0.6834">
        <ele>538.21759</ele>
      </trkpt>
      <trkpt lat="43.11062" lon="-0.68252">
        <ele>540.124268</ele>
      </trkpt>
      <trkpt lat="43.11064" lon="-0.68134">
        <ele>545.925049</ele>
      </trkpt>
      <trkpt lat="43.11071" lon="-0.68093">
        <ele>547.046631</ele>
      </trkpt>
      <trkpt lat="43.11086" lon="-0.68025">
        <ele>546.569336</ele>
      </trkpt>
      <trkpt lat="43.11123" lon="-0.67933">
        <ele>541.021606</ele>
      </trkpt>
      <trkpt lat="43.11124" lon="-0.67918">
        <ele>539.710388</ele>
      </trkpt>
      <trkpt lat="43.11108" lon="-0.67899">
        <ele>536.946655</ele>
      </trkpt>
      <trkpt lat="43.11101" lon="-0.67889">
        <ele>534.770386</ele>
      </trkpt>
      <trkpt lat="43.11097" lon="-0.67877">
        <ele>534.55365</ele>
      </trkpt>
      <trkpt lat="43.11075" lon="-0.67783">
        <ele>530.108459</ele>
      </trkpt>
      <trkpt lat="43.11073" lon="-0.67764">
        <ele>530.190979</ele>
      </trkpt>
      <trkpt lat="43.11079" lon="-0.67725">
        <ele>531.496155</ele>
      </trkpt>
      <trkpt lat="43.11072" lon="-0.67673">
        <ele>528.39502</ele>
      </trkpt>
      <trkpt lat="43.11073" lon="-0.67643">
        <ele>529.487671</ele>
      </trkpt>
      <trkpt lat="43.11068" lon="-0.67631">
        <ele>529.765259</ele>
      </trkpt>
      <trkpt lat="43.1106" lon="-0.6762">
        <ele>528.483154</ele>
      </trkpt>
      <trkpt lat="43.11019" lon="-0.67595">
        <ele>522.083557</ele>
      </trkpt>
      <trkpt lat="43.11002" lon="-0.6758">
        <ele>522.49762</ele>
      </trkpt>
      <trkpt lat="43.10966" lon="-0.67539">
        <ele>527.291687</ele>
      </trkpt>
      <trkpt lat="43.10911" lon="-0.67493">
        <ele>524.354675</ele>
      </trkpt>
      <trkpt lat="43.10899" lon="-0.6748">
        <ele>522.832031</ele>
      </trkpt>
      <trkpt lat="43.10889" lon="-0.67464">
        <ele>521.88385</ele>
      </trkpt>
      <trkpt lat="43.10865" lon="-0.6739">
        <ele>517.857117</ele>
      </trkpt>
      <trkpt lat="43.10852" lon="-0.67379">
        <ele>515.287903</ele>
      </trkpt>
      <trkpt lat="43.10836" lon="-0.67384">
        <ele>512.551636</ele>
      </trkpt>
      <trkpt lat="43.1079" lon="-0.67403">
        <ele>504.791443</ele>
      </trkpt>
      <trkpt lat="43.10747" lon="-0.67414">
        <ele>503.325165</ele>
      </trkpt>
      <trkpt lat="43.10697" lon="-0.67399">
        <ele>507.119202</ele>
      </trkpt>
      <trkpt lat="43.10658" lon="-0.67406">
        <ele>505.415436</ele>
      </trkpt>
      <trkpt lat="43.10632" lon="-0.67404">
        <ele>503.727509</ele>
      </trkpt>
      <trkpt lat="43.10597" lon="-0.67392">
        <ele>501.207489</ele>
      </trkpt>
      <trkpt lat="43.10583" lon="-0.67384">
        <ele>499.410004</ele>
      </trkpt>
      <trkpt lat="43.10572" lon="-0.67373">
        <ele>497.720001</ele>
      </trkpt>
      <trkpt lat="43.10535" lon="-0.67309">
        <ele>491.837494</ele>
      </trkpt>
      <trkpt lat="43.10517" lon="-0.67284">
        <ele>488.063141</ele>
      </trkpt>
      <trkpt lat="43.10503" lon="-0.67258">
        <ele>486.963654</ele>
      </trkpt>
      <trkpt lat="43.10502" lon="-0.67244">
        <ele>487.378113</ele>
      </trkpt>
      <trkpt lat="43.10506" lon="-0.6723">
        <ele>484.667297</ele>
      </trkpt>
      <trkpt lat="43.10516" lon="-0.67217">
        <ele>482.840027</ele>
      </trkpt>
      <trkpt lat="43.10629" lon="-0.67141">
        <ele>465.979828</ele>
      </trkpt>
      <trkpt lat="43.10662" lon="-0.67112">
        <ele>462.807495</ele>
      </trkpt>
      <trkpt lat="43.10672" lon="-0.67099">
        <ele>461.154999</ele>
      </trkpt>
      <trkpt lat="43.10679" lon="-0.67082">
        <ele>457.899994</ele>
      </trkpt>
      <trkpt lat="43.1068" lon="-0.67064">
        <ele>453.805298</ele>
      </trkpt>
      <trkpt lat="43.10675" lon="-0.67045">
        <ele>450.233765</ele>
      </trkpt>
      <trkpt lat="43.10652" lon="-0.67011">
        <ele>445.220337</ele>
      </trkpt>
      <trkpt lat="43.10647" lon="-0.66998">
        <ele>443.456482</ele>
      </trkpt>
      <trkpt lat="43.10647" lon="-0.66985">
        <ele>441.350922</ele>
      </trkpt>
      <trkpt lat="43.10659" lon="-0.66981">
        <ele>440.730469</ele>
      </trkpt>
      <trkpt lat="43.107" lon="-0.66986">
        <ele>440.515991</ele>
      </trkpt>
      <trkpt lat="43.10741" lon="-0.67001">
        <ele>437.970001</ele>
      </trkpt>
      <trkpt lat="43.10764" lon="-0.67012">
        <ele>435.202515</ele>
      </trkpt>
      <trkpt lat="43.10774" lon="-0.67025">
        <ele>435.743225</ele>
      </trkpt>
      <trkpt lat="43.10782" lon="-0.6704">
        <ele>437.437866</ele>
      </trkpt>
      <trkpt lat="43.10793" lon="-0.67046">
        <ele>437.144714</ele>
      </trkpt>
      <trkpt lat="43.10814" lon="-0.67044">
        <ele>433.803894</ele>
      </trkpt>
      <trkpt lat="43.10823" lon="-0.67056">
        <ele>435.306396</ele>
      </trkpt>
      <trkpt lat="43.10828" lon="-0.67071">
        <ele>439.154541</ele>
      </trkpt>
      <trkpt lat="43.10838" lon="-0.67075">
        <ele>439.970306</ele>
      </trkpt>
      <trkpt lat="43.10846" lon="-0.67067">
        <ele>438.144073</ele>
      </trkpt>
      <trkpt lat="43.10895" lon="-0.66999">
        <ele>424.492584</ele>
      </trkpt>
      <trkpt lat="43.10906" lon="-0.6699">
        <ele>422.742401</ele>
      </trkpt>
      <trkpt lat="43.10919" lon="-0.6699">
        <ele>423.292694</ele>
      </trkpt>
      <trkpt lat="43.10929" lon="-0.67002">
        <ele>425.786835</ele>
      </trkpt>
      <trkpt lat="43.10943" lon="-0.67036">
        <ele>432.650269</ele>
      </trkpt>
      <trkpt lat="43.10952" lon="-0.67049">
        <ele>433.863647</ele>
      </trkpt>
      <trkpt lat="43.10963" lon="-0.67047">
        <ele>432.194763</ele>
      </trkpt>
      <trkpt lat="43.10986" lon="-0.67019">
        <ele>425.705933</ele>
      </trkpt>
      <trkpt lat="43.10995" lon="-0.67014">
        <ele>423.990662</ele>
      </trkpt>
      <trkpt lat="43.11006" lon="-0.67014">
        <ele>423.411255</ele>
      </trkpt>
      <trkpt lat="43.11055" lon="-0.67039">
        <ele>432.604401</ele>
      </trkpt>
      <trkpt lat="43.11063" lon="-0.67027">
        <ele>430.672302</ele>
      </trkpt>
      <trkpt lat="43.11065" lon="-0.6701">
        <ele>429.615692</ele>
      </trkpt>
      <trkpt lat="43.11056" lon="-0.66986">
        <ele>424.340424</ele>
      </trkpt>
      <trkpt lat="43.11036" lon="-0.66892">
        <ele>416.549652</ele>
      </trkpt>
      <trkpt lat="43.11034" lon="-0.66857">
        <ele>414.136108</ele>
      </trkpt>
      <trkpt lat="43.11036" lon="-0.6684">
        <ele>414.524872</ele>
      </trkpt>
      <trkpt lat="43.11061" lon="-0.66765">
        <ele>417.204834</ele>
      </trkpt>
      <trkpt lat="43.1107" lon="-0.66754">
        <ele>416.670197</ele>
      </trkpt>
      <trkpt lat="43.1109" lon="-0.66748">
        <ele>417.283295</ele>
      </trkpt>
      <trkpt lat="43.11101" lon="-0.66752">
        <ele>419.099152</ele>
      </trkpt>
      <trkpt lat="43.11117" lon="-0.66768">
        <ele>419.627594</ele>
      </trkpt>
      <trkpt lat="43.11137" lon="-0.66803">
        <ele>423.662476</ele>
      </trkpt>
      <trkpt lat="43.11169" lon="-0.66895">
        <ele>435.64386</ele>
      </trkpt>
      <trkpt lat="43.11177" lon="-0.66904">
        <ele>434.803528</ele>
      </trkpt>
      <trkpt lat="43.11186" lon="-0.66898">
        <ele>430.664124</ele>
      </trkpt>
      <trkpt lat="43.11202" lon="-0.66879">
        <ele>425.921539</ele>
      </trkpt>
      <trkpt lat="43.11236" lon="-0.66829">
        <ele>421.532104</ele>
      </trkpt>
      <trkpt lat="43.11246" lon="-0.66806">
        <ele>423.894531</ele>
      </trkpt>
      <trkpt lat="43.11252" lon="-0.66779">
        <ele>424.566132</ele>
      </trkpt>
      <trkpt lat="43.11255" lon="-0.66732">
        <ele>423.22934</ele>
      </trkpt>
      <trkpt lat="43.11264" lon="-0.66677">
        <ele>424.445618</ele>
      </trkpt>
      <trkpt lat="43.11278" lon="-0.66633">
        <ele>422.279877</ele>
      </trkpt>
      <trkpt lat="43.11283" lon="-0.66623">
        <ele>422.562042</ele>
      </trkpt>
      <trkpt lat="43.11301" lon="-0.66602">
        <ele>423.908112</ele>
      </trkpt>
      <trkpt lat="43.11332" lon="-0.66573">
        <ele>423.299927</ele>
      </trkpt>
      <trkpt lat="43.11343" lon="-0.66566">
        <ele>423.714661</ele>
      </trkpt>
      <trkpt lat="43.11364" lon="-0.66561">
        <ele>426.436127</ele>
      </trkpt>
      <trkpt lat="43.11382" lon="-0.6655">
        <ele>426.267761</ele>
      </trkpt>
      <trkpt lat="43.11434" lon="-0.66506">
        <ele>425.928314</ele>
      </trkpt>
      <trkpt lat="43.11442" lon="-0.66503">
        <ele>426.850433</ele>
      </trkpt>
      <trkpt lat="43.11489" lon="-0.66497">
        <ele>434.961884</ele>
      </trkpt>
      <trkpt lat="43.11499" lon="-0.66499">
        <ele>437.26001</ele>
      </trkpt>
      <trkpt lat="43.11517" lon="-0.66508">
        <ele>444.019592</ele>
      </trkpt>
      <trkpt lat="43.11535" lon="-0.66508">
        <ele>443.714569</ele>
      </trkpt>
      <trkpt lat="43.11544" lon="-0.66511">
        <ele>445.202087</ele>
      </trkpt>
      <trkpt lat="43.1156" lon="-0.66526">
        <ele>452.035217</ele>
      </trkpt>
      <trkpt lat="43.11606" lon="-0.66546">
        <ele>454.798401</ele>
      </trkpt>
      <trkpt lat="43.11622" lon="-0.66561">
        <ele>459.946564</ele>
      </trkpt>
      <trkpt lat="43.11632" lon="-0.66563">
        <ele>459.794189</ele>
      </trkpt>
      <trkpt lat="43.11652" lon="-0.66558">
        <ele>456.098206</ele>
      </trkpt>
      <trkpt lat="43.11661" lon="-0.6656">
        <ele>456.235352</ele>
      </trkpt>
      <trkpt lat="43.1168" lon="-0.66577">
        <ele>460.370056</ele>
      </trkpt>
      <trkpt lat="43.11718" lon="-0.66601">
        <ele>463.759369</ele>
      </trkpt>
      <trkpt lat="43.11729" lon="-0.66601">
        <ele>462.586243</ele>
      </trkpt>
      <trkpt lat="43.11768" lon="-0.66577">
        <ele>454.560486</ele>
      </trkpt>
      <trkpt lat="43.11789" lon="-0.66557">
        <ele>453.597992</ele>
      </trkpt>
      <trkpt lat="43.11805" lon="-0.66534">
        <ele>451.268555</ele>
      </trkpt>
      <trkpt lat="43.11859" lon="-0.66489">
        <ele>449.358948</ele>
      </trkpt>
      <trkpt lat="43.11874" lon="-0.66469">
        <ele>449.583252</ele>
      </trkpt>
      <trkpt lat="43.11884" lon="-0.66442">
        <ele>446.296875</ele>
      </trkpt>
      <trkpt lat="43.11885" lon="-0.66426">
        <ele>444.919373</ele>
      </trkpt>
      <trkpt lat="43.11883" lon="-0.66409">
        <ele>445.589386</ele>
      </trkpt>
      <trkpt lat="43.11872" lon="-0.66371">
        <ele>451.347839</ele>
      </trkpt>
      <trkpt lat="43.11871" lon="-0.66327">
        <ele>450.930145</ele>
      </trkpt>
      <trkpt lat="43.11881" lon="-0.66274">
        <ele>447.946991</ele>
      </trkpt>
      <trkpt lat="43.11887" lon="-0.66257">
        <ele>449.644714</ele>
      </trkpt>
      <trkpt lat="43.11914" lon="-0.66225">
        <ele>444.569366</ele>
      </trkpt>
      <trkpt lat="43.1195" lon="-0.6617">
        <ele>451.922913</ele>
      </trkpt>
      <trkpt lat="43.11979" lon="-0.66132">
        <ele>452.773224</ele>
      </trkpt>
      <trkpt lat="43.12007" lon="-0.66088">
        <ele>458.136261</ele>
      </trkpt>
      <trkpt lat="43.12015" lon="-0.6608">
        <ele>458.38501</ele>
      </trkpt>
      <trkpt lat="43.12055" lon="-0.66064">
        <ele>453.20282</ele>
      </trkpt>
      <trkpt lat="43.12098" lon="-0.66039">
        <ele>455.86499</ele>
      </trkpt>
      <trkpt lat="43.12156" lon="-0.66015">
        <ele>461.933167</ele>
      </trkpt>
      <trkpt lat="43.12183" lon="-0.65995">
        <ele>466.540131</ele>
      </trkpt>
      <trkpt lat="43.12198" lon="-0.65975">
        <ele>469.481415</ele>
      </trkpt>
      <trkpt lat="43.12207" lon="-0.65948">
        <ele>472.195801</ele>
      </trkpt>
      <trkpt lat="43.12227" lon="-0.65914">
        <ele>470.439575</ele>
      </trkpt>
      <trkpt lat="43.12237" lon="-0.65884">
        <ele>466.794891</ele>
      </trkpt>
      <trkpt lat="43.12241" lon="-0.65868">
        <ele>465.435822</ele>
      </trkpt>
      <trkpt lat="43.1224" lon="-0.65852">
        <ele>464.899231</ele>
      </trkpt>
      <trkpt lat="43.12231" lon="-0.65812">
        <ele>465.75705</ele>
      </trkpt>
      <trkpt lat="43.12234" lon="-0.65793">
        <ele>464.429993</ele>
      </trkpt>
      <trkpt lat="43.12239" lon="-0.65782">
        <ele>463.201508</ele>
      </trkpt>
      <trkpt lat="43.12246" lon="-0.65773">
        <ele>461.02124</ele>
      </trkpt>
      <trkpt lat="43.1227" lon="-0.65766">
        <ele>454.006378</ele>
      </trkpt>
      <trkpt lat="43.12453" lon="-0.65747">
        <ele>442.620758</ele>
      </trkpt>
      <trkpt lat="43.12533" lon="-0.65748">
        <ele>442.161377</ele>
      </trkpt>
      <trkpt lat="43.12564" lon="-0.65741">
        <ele>443.354187</ele>
      </trkpt>
      <trkpt lat="43.12578" lon="-0.65734">
        <ele>442.934143</ele>
      </trkpt>
      <trkpt lat="43.12607" lon="-0.65705">
        <ele>442.530731</ele>
      </trkpt>
      <trkpt lat="43.1262" lon="-0.65685">
        <ele>441.039124</ele>
      </trkpt>
      <trkpt lat="43.12627" lon="-0.65666">
        <ele>439.786407</ele>
      </trkpt>
      <trkpt lat="43.12637" lon="-0.65627">
        <ele>436.815002</ele>
      </trkpt>
      <trkpt lat="43.12644" lon="-0.6557">
        <ele>428.63681</ele>
      </trkpt>
      <trkpt lat="43.12643" lon="-0.65549">
        <ele>425.816528</ele>
      </trkpt>
      <trkpt lat="43.12638" lon="-0.6553">
        <ele>425.040009</ele>
      </trkpt>
      <trkpt lat="43.1262" lon="-0.65505">
        <ele>427.317993</ele>
      </trkpt>
      <trkpt lat="43.126" lon="-0.65452">
        <ele>421.615601</ele>
      </trkpt>
      <trkpt lat="43.12588" lon="-0.65438">
        <ele>420.6492</ele>
      </trkpt>
      <trkpt lat="43.12556" lon="-0.65425">
        <ele>424.40741</ele>
      </trkpt>
      <trkpt lat="43.12543" lon="-0.65413">
        <ele>423.687775</ele>
      </trkpt>
      <trkpt lat="43.12536" lon="-0.65398">
        <ele>420.103973</ele>
      </trkpt>
      <trkpt lat="43.12531" lon="-0.65368">
        <ele>413.329285</ele>
      </trkpt>
      <trkpt lat="43.12523" lon="-0.65355">
        <ele>412.953003</ele>
      </trkpt>
      <trkpt lat="43.125" lon="-0.65334">
        <ele>417.312012</ele>
      </trkpt>
      <trkpt lat="43.12491" lon="-0.65298">
        <ele>414.209381</ele>
      </trkpt>
      <trkpt lat="43.12485" lon="-0.65284">
        <ele>414.675018</ele>
      </trkpt>
      <trkpt lat="43.1242" lon="-0.65208">
        <ele>423.289368</ele>
      </trkpt>
      <trkpt lat="43.12414" lon="-0.65194">
        <ele>422.270111</ele>
      </trkpt>
      <trkpt lat="43.12414" lon="-0.65181">
        <ele>421.773926</ele>
      </trkpt>
      <trkpt lat="43.12438" lon="-0.65173">
        <ele>411.618683</ele>
      </trkpt>
      <trkpt lat="43.12536" lon="-0.6516">
        <ele>378.33844</ele>
      </trkpt>
      <trkpt lat="43.12574" lon="-0.65152">
        <ele>371.920044</ele>
      </trkpt>
      <trkpt lat="43.12651" lon="-0.65122">
        <ele>369.523132</ele>
      </trkpt>
      <trkpt lat="43.12742" lon="-0.65083">
        <ele>370.580261</ele>
      </trkpt>
      <trkpt lat="43.12778" lon="-0.65076">
        <ele>366.521545</ele>
      </trkpt>
      <trkpt lat="43.1283" lon="-0.65056">
        <ele>361.49881</ele>
      </trkpt>
      <trkpt lat="43.12898" lon="-0.65012">
        <ele>355.703064</ele>
      </trkpt>
      <trkpt lat="43.12952" lon="-0.64967">
        <ele>355.653107</ele>
      </trkpt>
      <trkpt lat="43.12971" lon="-0.64949">
        <ele>355.529602</ele>
      </trkpt>
      <trkpt lat="43.13042" lon="-0.64867">
        <ele>347.988373</ele>
      </trkpt>
      <trkpt lat="43.13109" lon="-0.64799">
        <ele>329.565582</ele>
      </trkpt>
      <trkpt lat="43.13136" lon="-0.64776">
        <ele>322.59375</ele>
      </trkpt>
      <trkpt lat="43.13148" lon="-0.64763">
        <ele>319.591553</ele>
      </trkpt>
      <trkpt lat="43.13155" lon="-0.64747">
        <ele>317.876495</ele>
      </trkpt>
      <trkpt lat="43.13156" lon="-0.64733">
        <ele>317.453491</ele>
      </trkpt>
      <trkpt lat="43.13149" lon="-0.6472">
        <ele>318.152405</ele>
      </trkpt>
      <trkpt lat="43.13139" lon="-0.6471">
        <ele>319.281738</ele>
      </trkpt>
      <trkpt lat="43.13133" lon="-0.64697">
        <ele>319.667175</ele>
      </trkpt>
      <trkpt lat="43.13136" lon="-0.64683">
        <ele>318.507782</ele>
      </trkpt>
      <trkpt lat="43.13144" lon="-0.64673">
        <ele>317.014648</ele>
      </trkpt>
      <trkpt lat="43.1317" lon="-0.64664">
        <ele>314.099609</ele>
      </trkpt>
      <trkpt lat="43.13231" lon="-0.64663">
        <ele>307.792725</ele>
      </trkpt>
      <trkpt lat="43.13278" lon="-0.64653">
        <ele>303.411011</ele>
      </trkpt>
      <trkpt lat="43.13288" lon="-0.64648">
        <ele>302.908112</ele>
      </trkpt>
      <trkpt lat="43.13322" lon="-0.64617">
        <ele>300.929993</ele>
      </trkpt>
      <trkpt lat="43.13327" lon="-0.64573">
        <ele>300.75</ele>
      </trkpt>
      <trkpt lat="43.13327" lon="-0.6454">
        <ele>300.360382</ele>
      </trkpt>
      <trkpt lat="43.13332" lon="-0.64471">
        <ele>299.322449</ele>
      </trkpt>
      <trkpt lat="43.13357" lon="-0.64369">
        <ele>298.457153</ele>
      </trkpt>
      <trkpt lat="43.13361" lon="-0.64315">
        <ele>297.878479</ele>
      </trkpt>
      <trkpt lat="43.13356" lon="-0.64283">
        <ele>297.589935</ele>
      </trkpt>
      <trkpt lat="43.13358" lon="-0.64252">
        <ele>297.747833</ele>
      </trkpt>
      <trkpt lat="43.13363" lon="-0.64236">
        <ele>298.031494</ele>
      </trkpt>
      <trkpt lat="43.13379" lon="-0.64194">
        <ele>298.285645</ele>
      </trkpt>
      <trkpt lat="43.13415" lon="-0.64116">
        <ele>298.537506</ele>
      </trkpt>
      <trkpt lat="43.1342" lon="-0.64099">
        <ele>298.316193</ele>
      </trkpt>
      <trkpt lat="43.13432" lon="-0.64024">
        <ele>297.777466</ele>
      </trkpt>
      <trkpt lat="43.13439" lon="-0.64004">
        <ele>297.184998</ele>
      </trkpt>
      <trkpt lat="43.13449" lon="-0.63986">
        <ele>296.473755</ele>
      </trkpt>
      <trkpt lat="43.13461" lon="-0.63972">
        <ele>295.711884</ele>
      </trkpt>
      <trkpt lat="43.13475" lon="-0.63965">
        <ele>294.975189</ele>
      </trkpt>
      <trkpt lat="43.13526" lon="-0.6397">
        <ele>293.129456</ele>
      </trkpt>
      <trkpt lat="43.13551" lon="-0.63961">
        <ele>292.756012</ele>
      </trkpt>
      <trkpt lat="43.13573" lon="-0.63941">
        <ele>291.84375</ele>
      </trkpt>
      <trkpt lat="43.13587" lon="-0.63915">
        <ele>290.821259</ele>
      </trkpt>
      <trkpt lat="43.13591" lon="-0.639">
        <ele>290.249451</ele>
      </trkpt>
      <trkpt lat="43.13611" lon="-0.63744">
        <ele>281.56424</ele>
      </trkpt>
      <trkpt lat="43.1363" lon="-0.63649">
        <ele>282.003143</ele>
      </trkpt>
      <trkpt lat="43.13638" lon="-0.63622">
        <ele>282.236542</ele>
      </trkpt>
      <trkpt lat="43.13641" lon="-0.63607">
        <ele>282.409058</ele>
      </trkpt>
      <trkpt lat="43.13639" lon="-0.63561">
        <ele>281.704071</ele>
      </trkpt>
      <trkpt lat="43.13635" lon="-0.63533">
        <ele>281.47113</ele>
      </trkpt>
      <trkpt lat="43.13641" lon="-0.6349">
        <ele>279.978973</ele>
      </trkpt>
      <trkpt lat="43.13666" lon="-0.63425">
        <ele>279.531769</ele>
      </trkpt>
      <trkpt lat="43.13682" lon="-0.634">
        <ele>282.57605</ele>
      </trkpt>
      <trkpt lat="43.13711" lon="-0.63368">
        <ele>281.736481</ele>
      </trkpt>
      <trkpt lat="43.13745" lon="-0.63335">
        <ele>281.398834</ele>
      </trkpt>
      <trkpt lat="43.13819" lon="-0.63272">
        <ele>281.130615</ele>
      </trkpt>
      <trkpt lat="43.13829" lon="-0.63259">
        <ele>281.39563</ele>
      </trkpt>
      <trkpt lat="43.13846" lon="-0.63226">
        <ele>282.42804</ele>
      </trkpt>
      <trkpt lat="43.13858" lon="-0.63213">
        <ele>282.40863</ele>
      </trkpt>
      <trkpt lat="43.13884" lon="-0.63198">
        <ele>281.603485</ele>
      </trkpt>
      <trkpt lat="43.13928" lon="-0.63186">
        <ele>280.601532</ele>
      </trkpt>
      <trkpt lat="43.1395" lon="-0.63174">
        <ele>280.516479</ele>
      </trkpt>
      <trkpt lat="43.13997" lon="-0.63136">
        <ele>279.604523</ele>
      </trkpt>
      <trkpt lat="43.14036" lon="-0.63118">
        <ele>278.53064</ele>
      </trkpt>
      <trkpt lat="43.14061" lon="-0.63098">
        <ele>278.565186</ele>
      </trkpt>
      <trkpt lat="43.14074" lon="-0.63091">
        <ele>278.273834</ele>
      </trkpt>
      <trkpt lat="43.14115" lon="-0.6308">
        <ele>278.734985</ele>
      </trkpt>
      <trkpt lat="43.1416" lon="-0.63057">
        <ele>279.449677</ele>
      </trkpt>
      <trkpt lat="43.14174" lon="-0.63046">
        <ele>279.532135</ele>
      </trkpt>
      <trkpt lat="43.14198" lon="-0.63019">
        <ele>279.460663</ele>
      </trkpt>
      <trkpt lat="43.14209" lon="-0.63004">
        <ele>278.983124</ele>
      </trkpt>
      <trkpt lat="43.14216" lon="-0.62986">
        <ele>278.540009</ele>
      </trkpt>
      <trkpt lat="43.14228" lon="-0.62951">
        <ele>278</ele>
      </trkpt>
      <trkpt lat="43.14251" lon="-0.62867">
        <ele>278.513763</ele>
      </trkpt>
      <trkpt lat="43.14271" lon="-0.62842">
        <ele>278.888855</ele>
      </trkpt>
      <trkpt lat="43.14306" lon="-0.62821">
        <ele>278.607544</ele>
      </trkpt>
      <trkpt lat="43.14316" lon="-0.62811">
        <ele>278.451233</ele>
      </trkpt>
      <trkpt lat="43.14337" lon="-0.62776">
        <ele>278.230011</ele>
      </trkpt>
      <trkpt lat="43.1437" lon="-0.62742">
        <ele>278.198425</ele>
      </trkpt>
      <trkpt lat="43.1439" lon="-0.62711">
        <ele>279.579071</ele>
      </trkpt>
      <trkpt lat="43.14408" lon="-0.62692">
        <ele>280.956329</ele>
      </trkpt>
      <trkpt lat="43.14424" lon="-0.62666">
        <ele>281.341827</ele>
      </trkpt>
      <trkpt lat="43.14434" lon="-0.62635">
        <ele>283.5672</ele>
      </trkpt>
      <trkpt lat="43.14456" lon="-0.626">
        <ele>281.391052</ele>
      </trkpt>
      <trkpt lat="43.14467" lon="-0.62591">
        <ele>281.954193</ele>
      </trkpt>
      <trkpt lat="43.14508" lon="-0.62572">
        <ele>280.476074</ele>
      </trkpt>
      <trkpt lat="43.14636" lon="-0.62529">
        <ele>280.331268</ele>
      </trkpt>
      <trkpt lat="43.14653" lon="-0.62518">
        <ele>279.799591</ele>
      </trkpt>
      <trkpt lat="43.1466" lon="-0.6251">
        <ele>279.482422</ele>
      </trkpt>
      <trkpt lat="43.14666" lon="-0.625">
        <ele>279.178864</ele>
      </trkpt>
      <trkpt lat="43.1467" lon="-0.62477">
        <ele>278.789734</ele>
      </trkpt>
      <trkpt lat="43.14666" lon="-0.62453">
        <ele>278.720398</ele>
      </trkpt>
      <trkpt lat="43.14658" lon="-0.62431">
        <ele>278.642853</ele>
      </trkpt>
      <trkpt lat="43.14637" lon="-0.62392">
        <ele>279.035553</ele>
      </trkpt>
      <trkpt lat="43.14633" lon="-0.62369">
        <ele>279.009369</ele>
      </trkpt>
      <trkpt lat="43.14641" lon="-0.62351">
        <ele>278.753754</ele>
      </trkpt>
      <trkpt lat="43.14655" lon="-0.62349">
        <ele>278.590546</ele>
      </trkpt>
      <trkpt lat="43.14702" lon="-0.62375">
        <ele>277.647491</ele>
      </trkpt>
      <trkpt lat="43.14742" lon="-0.62389">
        <ele>277.237488</ele>
      </trkpt>
      <trkpt lat="43.14839" lon="-0.6243">
        <ele>278.133118</ele>
      </trkpt>
      <trkpt lat="43.14853" lon="-0.62434">
        <ele>278.073761</ele>
      </trkpt>
      <trkpt lat="43.14867" lon="-0.62433">
        <ele>278.034363</ele>
      </trkpt>
      <trkpt lat="43.14881" lon="-0.62427">
        <ele>277.841248</ele>
      </trkpt>
      <trkpt lat="43.14957" lon="-0.62355">
        <ele>276.442841</ele>
      </trkpt>
      <trkpt lat="43.14965" lon="-0.62339">
        <ele>276.420044</ele>
      </trkpt>
      <trkpt lat="43.14971" lon="-0.62304">
        <ele>276.392914</ele>
      </trkpt>
      <trkpt lat="43.1498" lon="-0.62291">
        <ele>276.267761</ele>
      </trkpt>
      <trkpt lat="43.14991" lon="-0.62289">
        <ele>276.210571</ele>
      </trkpt>
      <trkpt lat="43.15034" lon="-0.62303">
        <ele>275.293274</ele>
      </trkpt>
      <trkpt lat="43.15065" lon="-0.62308">
        <ele>274.760742</ele>
      </trkpt>
      <trkpt lat="43.15133" lon="-0.62302">
        <ele>274.812408</ele>
      </trkpt>
      <trkpt lat="43.15156" lon="-0.62295">
        <ele>274.301971</ele>
      </trkpt>
      <trkpt lat="43.15166" lon="-0.62289">
        <ele>274.089844</ele>
      </trkpt>
      <trkpt lat="43.15176" lon="-0.62278">
        <ele>274.186157</ele>
      </trkpt>
      <trkpt lat="43.1521" lon="-0.62219">
        <ele>277.184021</ele>
      </trkpt>
      <trkpt lat="43.15235" lon="-0.62181">
        <ele>277.717926</ele>
      </trkpt>
      <trkpt lat="43.15246" lon="-0.6217">
        <ele>277.405579</ele>
      </trkpt>
      <trkpt lat="43.1533" lon="-0.62107">
        <ele>266.586914</ele>
      </trkpt>
      <trkpt lat="43.15346" lon="-0.62099">
        <ele>264.072876</ele>
      </trkpt>
      <trkpt lat="43.15364" lon="-0.62096">
        <ele>261.713287</ele>
      </trkpt>
      <trkpt lat="43.15439" lon="-0.62093">
        <ele>261.392731</ele>
      </trkpt>
      <trkpt lat="43.15502" lon="-0.6208">
        <ele>261.256866</ele>
      </trkpt>
      <trkpt lat="43.15517" lon="-0.62074">
        <ele>261.894989</ele>
      </trkpt>
      <trkpt lat="43.15628" lon="-0.62005">
        <ele>263.310272</ele>
      </trkpt>
      <trkpt lat="43.15652" lon="-0.61995">
        <ele>262.329498</ele>
      </trkpt>
      <trkpt lat="43.15752" lon="-0.61941">
        <ele>263.530243</ele>
      </trkpt>
      <trkpt lat="43.15765" lon="-0.61931">
        <ele>263.81424</ele>
      </trkpt>
      <trkpt lat="43.15788" lon="-0.61904">
        <ele>266.07547</ele>
      </trkpt>
      <trkpt lat="43.15824" lon="-0.61847">
        <ele>265.877502</ele>
      </trkpt>
      <trkpt lat="43.15923" lon="-0.6173">
        <ele>264.616241</ele>
      </trkpt>
      <trkpt lat="43.15931" lon="-0.61718">
        <ele>264.731262</ele>
      </trkpt>
      <trkpt lat="43.15934" lon="-0.61705">
        <ele>265.017517</ele>
      </trkpt>
      <trkpt lat="43.15942" lon="-0.61697">
        <ele>264.943756</ele>
      </trkpt>
      <trkpt lat="43.15986" lon="-0.61713">
        <ele>262.127502</ele>
      </trkpt>
      <trkpt lat="43.16068" lon="-0.61765">
        <ele>258.269196</ele>
      </trkpt>
      <trkpt lat="43.16117" lon="-0.61805">
        <ele>257</ele>
      </trkpt>
      <trkpt lat="43.16157" lon="-0.61831">
        <ele>257</ele>
      </trkpt>
      <trkpt lat="43.16196" lon="-0.61867">
        <ele>256.884064</ele>
      </trkpt>
      <trkpt lat="43.1627" lon="-0.61915">
        <ele>256.70813</ele>
      </trkpt>
      <trkpt lat="43.16295" lon="-0.61927">
        <ele>256.776489</ele>
      </trkpt>
      <trkpt lat="43.16304" lon="-0.61918">
        <ele>256.908508</ele>
      </trkpt>
      <trkpt lat="43.16317" lon="-0.61869">
        <ele>256.5</ele>
      </trkpt>
      <trkpt lat="43.16325" lon="-0.61855">
        <ele>256.26062</ele>
      </trkpt>
      <trkpt lat="43.16336" lon="-0.61845">
        <ele>256.095001</ele>
      </trkpt>
      <trkpt lat="43.16401" lon="-0.61827">
        <ele>255.741257</ele>
      </trkpt>
      <trkpt lat="43.1643" lon="-0.6181">
        <ele>255.440002</ele>
      </trkpt>
      <trkpt lat="43.16468" lon="-0.61774">
        <ele>254.819382</ele>
      </trkpt>
      <trkpt lat="43.165" lon="-0.61731">
        <ele>254.098129</ele>
      </trkpt>
      <trkpt lat="43.16534" lon="-0.61693">
        <ele>253.447495</ele>
      </trkpt>
      <trkpt lat="43.16547" lon="-0.61682">
        <ele>253.265625</ele>
      </trkpt>
      <trkpt lat="43.16604" lon="-0.61655">
        <ele>252.778748</ele>
      </trkpt>
      <trkpt lat="43.16645" lon="-0.61632">
        <ele>252.365005</ele>
      </trkpt>
      <trkpt lat="43.16657" lon="-0.6162">
        <ele>252.151871</ele>
      </trkpt>
      <trkpt lat="43.16665" lon="-0.61603">
        <ele>251.876251</ele>
      </trkpt>
      <trkpt lat="43.16678" lon="-0.61565">
        <ele>251.254379</ele>
      </trkpt>
      <trkpt lat="43.16696" lon="-0.61505">
        <ele>251</ele>
      </trkpt>
      <trkpt lat="43.16717" lon="-0.61447">
        <ele>250.294373</ele>
      </trkpt>
      <trkpt lat="43.16726" lon="-0.61429">
        <ele>250</ele>
      </trkpt>
      <trkpt lat="43.16747" lon="-0.61398">
        <ele>250</ele>
      </trkpt>
      <trkpt lat="43.16772" lon="-0.61374">
        <ele>250</ele>
      </trkpt>
      <trkpt lat="43.16912" lon="-0.61273">
        <ele>249.114868</ele>
      </trkpt>
      <trkpt lat="43.1694" lon="-0.61249">
        <ele>249.064331</ele>
      </trkpt>
      <trkpt lat="43.17017" lon="-0.61168">
        <ele>249</ele>
      </trkpt>
      <trkpt lat="43.17054" lon="-0.61124">
        <ele>249.254379</ele>
      </trkpt>
      <trkpt lat="43.17146" lon="-0.61022">
        <ele>249.091873</ele>
      </trkpt>
      <trkpt lat="43.17185" lon="-0.60974">
        <ele>248.853806</ele>
      </trkpt>
      <trkpt lat="43.17271" lon="-0.60892">
        <ele>247.882767</ele>
      </trkpt>
      <trkpt lat="43.17373" lon="-0.6079">
        <ele>246.039993</ele>
      </trkpt>
      <trkpt lat="43.1739" lon="-0.60757">
        <ele>244.838745</ele>
      </trkpt>
      <trkpt lat="43.174" lon="-0.60749">
        <ele>244.336258</ele>
      </trkpt>
      <trkpt lat="43.17481" lon="-0.60719">
        <ele>241.405624</ele>
      </trkpt>
      <trkpt lat="43.17542" lon="-0.60677">
        <ele>239.654694</ele>
      </trkpt>
      <trkpt lat="43.17564" lon="-0.60666">
        <ele>239.612762</ele>
      </trkpt>
      <trkpt lat="43.17687" lon="-0.60632">
        <ele>236.943756</ele>
      </trkpt>
      <trkpt lat="43.17696" lon="-0.60627">
        <ele>236.524368</ele>
      </trkpt>
      <trkpt lat="43.17708" lon="-0.60614">
        <ele>235.324997</ele>
      </trkpt>
      <trkpt lat="43.17715" lon="-0.60602">
        <ele>234.262497</ele>
      </trkpt>
      <trkpt lat="43.17725" lon="-0.60595">
        <ele>233.300003</ele>
      </trkpt>
      <trkpt lat="43.17735" lon="-0.60595">
        <ele>232.837494</ele>
      </trkpt>
      <trkpt lat="43.17759" lon="-0.60606">
        <ele>232.115005</ele>
      </trkpt>
      <trkpt lat="43.17798" lon="-0.60629">
        <ele>230.882492</ele>
      </trkpt>
      <trkpt lat="43.17812" lon="-0.60631">
        <ele>229.952499</ele>
      </trkpt>
      <trkpt lat="43.17826" lon="-0.60625">
        <ele>228.637497</ele>
      </trkpt>
      <trkpt lat="43.1784" lon="-0.60624">
        <ele>227.574997</ele>
      </trkpt>
      <trkpt lat="43.1787" lon="-0.60633">
        <ele>226.024506</ele>
      </trkpt>
      <trkpt lat="43.17885" lon="-0.60641">
        <ele>225.246872</ele>
      </trkpt>
      <trkpt lat="43.17914" lon="-0.60666">
        <ele>223.704376</ele>
      </trkpt>
      <trkpt lat="43.18146" lon="-0.60768">
        <ele>215.253754</ele>
      </trkpt>
      <trkpt lat="43.18398" lon="-0.6087">
        <ele>217.491531</ele>
      </trkpt>
      <trkpt lat="43.18436" lon="-0.60882">
        <ele>217.826004</ele>
      </trkpt>
      <trkpt lat="43.18654" lon="-0.60981">
        <ele>215.963013</ele>
      </trkpt>
      <trkpt lat="43.18682" lon="-0.6099">
        <ele>215.813126</ele>
      </trkpt>
      <trkpt lat="43.18695" lon="-0.60997">
        <ele>216.008118</ele>
      </trkpt>
      <trkpt lat="43.18836" lon="-0.61097">
        <ele>217.088821</ele>
      </trkpt>
      <trkpt lat="43.18854" lon="-0.61106">
        <ele>217.047211</ele>
      </trkpt>
      <trkpt lat="43.18863" lon="-0.61104">
        <ele>217.212204</ele>
      </trkpt>
      <trkpt lat="43.1887" lon="-0.61092">
        <ele>217.486084</ele>
      </trkpt>
      <trkpt lat="43.18885" lon="-0.61044">
        <ele>218.078751</ele>
      </trkpt>
      <trkpt lat="43.18891" lon="-0.6103">
        <ele>218.30687</ele>
      </trkpt>
      <trkpt lat="43.19024" lon="-0.60874">
        <ele>219.969681</ele>
      </trkpt>
      <trkpt lat="43.19088" lon="-0.60804">
        <ele>219.137497</ele>
      </trkpt>
      <trkpt lat="43.1913" lon="-0.60766">
        <ele>220.552536</ele>
      </trkpt>
      <trkpt lat="43.19232" lon="-0.6069">
        <ele>222.749344</ele>
      </trkpt>
      <trkpt lat="43.19243" lon="-0.60642">
        <ele>221.81665</ele>
      </trkpt>
      <trkpt lat="43.19251" lon="-0.60628">
        <ele>220.490082</ele>
      </trkpt>
      <trkpt lat="43.19301" lon="-0.60556">
        <ele>220.778198</ele>
      </trkpt>
      <trkpt lat="43.1933" lon="-0.60478">
        <ele>228.705383</ele>
      </trkpt>
      <trkpt lat="43.19332" lon="-0.60462">
        <ele>229.888245</ele>
      </trkpt>
      <trkpt lat="43.19328" lon="-0.60433">
        <ele>231.258881</ele>
      </trkpt>
      <trkpt lat="43.19357" lon="-0.60373">
        <ele>236.698746</ele>
      </trkpt>
      <trkpt lat="43.19371" lon="-0.60335">
        <ele>241.199905</ele>
      </trkpt>
      <trkpt lat="43.19406" lon="-0.60281">
        <ele>251.588074</ele>
      </trkpt>
      <trkpt lat="43.19431" lon="-0.60234">
        <ele>250.19278</ele>
      </trkpt>
      <trkpt lat="43.19449" lon="-0.60215">
        <ele>246.03685</ele>
      </trkpt>
      <trkpt lat="43.19487" lon="-0.60136">
        <ele>233.536896</ele>
      </trkpt>
      <trkpt lat="43.19492" lon="-0.60085">
        <ele>232.087967</ele>
      </trkpt>
      <trkpt lat="43.19497" lon="-0.60057">
        <ele>232.212891</ele>
      </trkpt>
      <trkpt lat="43.19497" lon="-0.60029">
        <ele>232.538116</ele>
      </trkpt>
      <trkpt lat="43.19501" lon="-0.60018">
        <ele>232.633133</ele>
      </trkpt>
      <trkpt lat="43.19509" lon="-0.6001">
        <ele>232.601883</ele>
      </trkpt>
      <trkpt lat="43.1954" lon="-0.59999">
        <ele>232.457306</ele>
      </trkpt>
    </trkseg>
  </trk>
  <trk>
    <name><![CDATA[Monein - Le bois du Laring - 30313 - UtagawaVTT.com]]></name>
    <trkseg>
      <trkpt lat="43.28553" lon="-0.56581">
        <ele>167.393</ele>
      </trkpt>
      <trkpt lat="43.28554" lon="-0.56574">
        <ele>166.935</ele>
      </trkpt>
      <trkpt lat="43.28563" lon="-0.56563">
        <ele>165.87</ele>
      </trkpt>
      <trkpt lat="43.28553" lon="-0.56517">
        <ele>163.988</ele>
      </trkpt>
      <trkpt lat="43.28517" lon="-0.56507">
        <ele>164.413</ele>
      </trkpt>
      <trkpt lat="43.28495" lon="-0.56508">
        <ele>164.238</ele>
      </trkpt>
      <trkpt lat="43.28492" lon="-0.56506">
        <ele>164.109</ele>
      </trkpt>
      <trkpt lat="43.28492" lon="-0.56504">
        <ele>163.957</ele>
      </trkpt>
      <trkpt lat="43.28454" lon="-0.56487">
        <ele>162.239</ele>
      </trkpt>
      <trkpt lat="43.28357" lon="-0.5647">
        <ele>162.564</ele>
      </trkpt>
      <trkpt lat="43.28262" lon="-0.56451">
        <ele>161.508</ele>
      </trkpt>
      <trkpt lat="43.28174" lon="-0.56437">
        <ele>161.955</ele>
      </trkpt>
      <trkpt lat="43.2807" lon="-0.56424">
        <ele>163.45</ele>
      </trkpt>
      <trkpt lat="43.27979" lon="-0.56409">
        <ele>163.042</ele>
      </trkpt>
      <trkpt lat="43.27883" lon="-0.56386">
        <ele>162.911</ele>
      </trkpt>
      <trkpt lat="43.2777" lon="-0.56355">
        <ele>167.441</ele>
      </trkpt>
      <trkpt lat="43.27544" lon="-0.56297">
        <ele>171.743</ele>
      </trkpt>
      <trkpt lat="43.27416" lon="-0.56268">
        <ele>173.255</ele>
      </trkpt>
      <trkpt lat="43.27302" lon="-0.56259">
        <ele>173.513</ele>
      </trkpt>
      <trkpt lat="43.27225" lon="-0.56277">
        <ele>175.798</ele>
      </trkpt>
      <trkpt lat="43.2713" lon="-0.56251">
        <ele>177.639</ele>
      </trkpt>
      <trkpt lat="43.27015" lon="-0.56209">
        <ele>181.927</ele>
      </trkpt>
      <trkpt lat="43.26961" lon="-0.56188">
        <ele>182.283</ele>
      </trkpt>
      <trkpt lat="43.26944" lon="-0.56187">
        <ele>182.564</ele>
      </trkpt>
      <trkpt lat="43.26876" lon="-0.56219">
        <ele>184.315</ele>
      </trkpt>
      <trkpt lat="43.26683" lon="-0.56315">
        <ele>200.676</ele>
      </trkpt>
      <trkpt lat="43.26642" lon="-0.56365">
        <ele>199.445</ele>
      </trkpt>
      <trkpt lat="43.26617" lon="-0.56457">
        <ele>194.317</ele>
      </trkpt>
      <trkpt lat="43.26615" lon="-0.56458">
        <ele>194.501</ele>
      </trkpt>
      <trkpt lat="43.2661" lon="-0.56443">
        <ele>195.533</ele>
      </trkpt>
      <trkpt lat="43.26587" lon="-0.56384">
        <ele>197.276</ele>
      </trkpt>
      <trkpt lat="43.26534" lon="-0.56381">
        <ele>201.975</ele>
      </trkpt>
      <trkpt lat="43.26496" lon="-0.56404">
        <ele>207.382</ele>
      </trkpt>
      <trkpt lat="43.26473" lon="-0.5643">
        <ele>213.044</ele>
      </trkpt>
      <trkpt lat="43.26465" lon="-0.56436">
        <ele>214.811</ele>
      </trkpt>
      <trkpt lat="43.26424" lon="-0.56425">
        <ele>220.883</ele>
      </trkpt>
      <trkpt lat="43.26392" lon="-0.56408">
        <ele>222.738</ele>
      </trkpt>
      <trkpt lat="43.26359" lon="-0.56402">
        <ele>225.17</ele>
      </trkpt>
      <trkpt lat="43.26316" lon="-0.56408">
        <ele>227.921</ele>
      </trkpt>
      <trkpt lat="43.26297" lon="-0.56406">
        <ele>228.514</ele>
      </trkpt>
      <trkpt lat="43.26293" lon="-0.56402">
        <ele>228.103</ele>
      </trkpt>
      <trkpt lat="43.26265" lon="-0.56385">
        <ele>227.616</ele>
      </trkpt>
      <trkpt lat="43.26219" lon="-0.56388">
        <ele>233.93</ele>
      </trkpt>
      <trkpt lat="43.26196" lon="-0.56393">
        <ele>238.074</ele>
      </trkpt>
      <trkpt lat="43.26188" lon="-0.56398">
        <ele>240.282</ele>
      </trkpt>
      <trkpt lat="43.26167" lon="-0.56405">
        <ele>244.858</ele>
      </trkpt>
      <trkpt lat="43.26149" lon="-0.56417">
        <ele>249.563</ele>
      </trkpt>
      <trkpt lat="43.26129" lon="-0.56424">
        <ele>253.092</ele>
      </trkpt>
      <trkpt lat="43.26111" lon="-0.56433">
        <ele>256.047</ele>
      </trkpt>
      <trkpt lat="43.26092" lon="-0.56448">
        <ele>260.076</ele>
      </trkpt>
      <trkpt lat="43.26082" lon="-0.56464">
        <ele>263.737</ele>
      </trkpt>
      <trkpt lat="43.26057" lon="-0.56478">
        <ele>268.568</ele>
      </trkpt>
      <trkpt lat="43.26023" lon="-0.56472">
        <ele>271.366</ele>
      </trkpt>
      <trkpt lat="43.26009" lon="-0.56467">
        <ele>272.495</ele>
      </trkpt>
      <trkpt lat="43.2599" lon="-0.56459">
        <ele>273.412</ele>
      </trkpt>
      <trkpt lat="43.25975" lon="-0.56458">
        <ele>275.983</ele>
      </trkpt>
      <trkpt lat="43.25957" lon="-0.56454">
        <ele>277.862</ele>
      </trkpt>
      <trkpt lat="43.25939" lon="-0.56446">
        <ele>277.955</ele>
      </trkpt>
      <trkpt lat="43.2591" lon="-0.56437">
        <ele>278.549</ele>
      </trkpt>
      <trkpt lat="43.25882" lon="-0.56411">
        <ele>271.076</ele>
      </trkpt>
      <trkpt lat="43.25832" lon="-0.56411">
        <ele>264.769</ele>
      </trkpt>
      <trkpt lat="43.25804" lon="-0.56443">
        <ele>265.943</ele>
      </trkpt>
      <trkpt lat="43.25789" lon="-0.56492">
        <ele>272.997</ele>
      </trkpt>
      <trkpt lat="43.25783" lon="-0.56523">
        <ele>277.184</ele>
      </trkpt>
      <trkpt lat="43.25781" lon="-0.56528">
        <ele>277.495</ele>
      </trkpt>
      <trkpt lat="43.2577" lon="-0.56532">
        <ele>276.126</ele>
      </trkpt>
      <trkpt lat="43.25743" lon="-0.56526">
        <ele>274.865</ele>
      </trkpt>
      <trkpt lat="43.2567" lon="-0.56529">
        <ele>282.626</ele>
      </trkpt>
      <trkpt lat="43.25656" lon="-0.56521">
        <ele>284.613</ele>
      </trkpt>
      <trkpt lat="43.25648" lon="-0.56515">
        <ele>285.893</ele>
      </trkpt>
      <trkpt lat="43.2565" lon="-0.56508">
        <ele>285.001</ele>
      </trkpt>
      <trkpt lat="43.25647" lon="-0.56503">
        <ele>285.334</ele>
      </trkpt>
      <trkpt lat="43.25643" lon="-0.56499">
        <ele>286.185</ele>
      </trkpt>
      <trkpt lat="43.2563" lon="-0.56472">
        <ele>289.798</ele>
      </trkpt>
      <trkpt lat="43.25629" lon="-0.56463">
        <ele>290.836</ele>
      </trkpt>
      <trkpt lat="43.25619" lon="-0.56453">
        <ele>295</ele>
      </trkpt>
      <trkpt lat="43.25625" lon="-0.56443">
        <ele>292.928</ele>
      </trkpt>
      <trkpt lat="43.25626" lon="-0.56431">
        <ele>292.862</ele>
      </trkpt>
      <trkpt lat="43.25622" lon="-0.56427">
        <ele>294.111</ele>
      </trkpt>
      <trkpt lat="43.25622" lon="-0.56423">
        <ele>294.26</ele>
      </trkpt>
      <trkpt lat="43.25612" lon="-0.56409">
        <ele>297.341</ele>
      </trkpt>
      <trkpt lat="43.25607" lon="-0.56405">
        <ele>297.902</ele>
      </trkpt>
      <trkpt lat="43.25573" lon="-0.56385">
        <ele>300.648</ele>
      </trkpt>
      <trkpt lat="43.25554" lon="-0.56379">
        <ele>302.491</ele>
      </trkpt>
      <trkpt lat="43.25545" lon="-0.56375">
        <ele>303.107</ele>
      </trkpt>
      <trkpt lat="43.25473" lon="-0.56357">
        <ele>310.332</ele>
      </trkpt>
      <trkpt lat="43.25444" lon="-0.56361">
        <ele>314.447</ele>
      </trkpt>
      <trkpt lat="43.25388" lon="-0.5639">
        <ele>320.639</ele>
      </trkpt>
      <trkpt lat="43.25383" lon="-0.56383">
        <ele>320.19</ele>
      </trkpt>
      <trkpt lat="43.25381" lon="-0.56385">
        <ele>320.493</ele>
      </trkpt>
      <trkpt lat="43.25371" lon="-0.56385">
        <ele>320.757</ele>
      </trkpt>
      <trkpt lat="43.25338" lon="-0.56367">
        <ele>319.823</ele>
      </trkpt>
      <trkpt lat="43.2529" lon="-0.56357">
        <ele>320.552</ele>
      </trkpt>
      <trkpt lat="43.25255" lon="-0.56355">
        <ele>319.718</ele>
      </trkpt>
      <trkpt lat="43.2522" lon="-0.56355">
        <ele>319.386</ele>
      </trkpt>
      <trkpt lat="43.25203" lon="-0.56356">
        <ele>319.882</ele>
      </trkpt>
      <trkpt lat="43.2515" lon="-0.56323">
        <ele>319.251</ele>
      </trkpt>
      <trkpt lat="43.25137" lon="-0.56306">
        <ele>318.147</ele>
      </trkpt>
      <trkpt lat="43.25074" lon="-0.5628">
        <ele>320.618</ele>
      </trkpt>
      <trkpt lat="43.25041" lon="-0.56239">
        <ele>319.521</ele>
      </trkpt>
      <trkpt lat="43.25012" lon="-0.56207">
        <ele>318.164</ele>
      </trkpt>
      <trkpt lat="43.24989" lon="-0.56195">
        <ele>318.462</ele>
      </trkpt>
      <trkpt lat="43.24888" lon="-0.56148">
        <ele>316.159</ele>
      </trkpt>
      <trkpt lat="43.24867" lon="-0.56129">
        <ele>317.393</ele>
      </trkpt>
      <trkpt lat="43.24845" lon="-0.56076">
        <ele>314.723</ele>
      </trkpt>
      <trkpt lat="43.2481" lon="-0.56051">
        <ele>316.195</ele>
      </trkpt>
      <trkpt lat="43.24756" lon="-0.56041">
        <ele>316.235</ele>
      </trkpt>
      <trkpt lat="43.24682" lon="-0.56024">
        <ele>313.431</ele>
      </trkpt>
      <trkpt lat="43.24633" lon="-0.56008">
        <ele>315.469</ele>
      </trkpt>
      <trkpt lat="43.24586" lon="-0.55984">
        <ele>316.853</ele>
      </trkpt>
      <trkpt lat="43.24484" lon="-0.55971">
        <ele>312.961</ele>
      </trkpt>
      <trkpt lat="43.24449" lon="-0.55964">
        <ele>308.77</ele>
      </trkpt>
      <trkpt lat="43.24461" lon="-0.55964">
        <ele>309.742</ele>
      </trkpt>
      <trkpt lat="43.245" lon="-0.55925">
        <ele>304.495</ele>
      </trkpt>
      <trkpt lat="43.24559" lon="-0.55908">
        <ele>302.99</ele>
      </trkpt>
      <trkpt lat="43.24589" lon="-0.55895">
        <ele>300.889</ele>
      </trkpt>
      <trkpt lat="43.24636" lon="-0.55862">
        <ele>294.67</ele>
      </trkpt>
      <trkpt lat="43.24676" lon="-0.55841">
        <ele>288.429</ele>
      </trkpt>
      <trkpt lat="43.24683" lon="-0.55841">
        <ele>287.277</ele>
      </trkpt>
      <trkpt lat="43.24682" lon="-0.55783">
        <ele>279.709</ele>
      </trkpt>
      <trkpt lat="43.24672" lon="-0.5576">
        <ele>276.13</ele>
      </trkpt>
      <trkpt lat="43.24642" lon="-0.55749">
        <ele>269.298</ele>
      </trkpt>
      <trkpt lat="43.24614" lon="-0.55758">
        <ele>266.775</ele>
      </trkpt>
      <trkpt lat="43.24589" lon="-0.55783">
        <ele>270.465</ele>
      </trkpt>
      <trkpt lat="43.24568" lon="-0.55794">
        <ele>270.904</ele>
      </trkpt>
      <trkpt lat="43.24548" lon="-0.55776">
        <ele>261.969</ele>
      </trkpt>
      <trkpt lat="43.24554" lon="-0.5576">
        <ele>257.027</ele>
      </trkpt>
      <trkpt lat="43.24555" lon="-0.5576">
        <ele>257.162</ele>
      </trkpt>
      <trkpt lat="43.24568" lon="-0.55741">
        <ele>252.173</ele>
      </trkpt>
      <trkpt lat="43.24579" lon="-0.55732">
        <ele>251.854</ele>
      </trkpt>
      <trkpt lat="43.24602" lon="-0.55677">
        <ele>246.288</ele>
      </trkpt>
      <trkpt lat="43.24628" lon="-0.55636">
        <ele>239.403</ele>
      </trkpt>
      <trkpt lat="43.24651" lon="-0.55604">
        <ele>235.394</ele>
      </trkpt>
      <trkpt lat="43.24682" lon="-0.55569">
        <ele>228.528</ele>
      </trkpt>
      <trkpt lat="43.24694" lon="-0.55544">
        <ele>228.059</ele>
      </trkpt>
      <trkpt lat="43.24683" lon="-0.55523">
        <ele>228.634</ele>
      </trkpt>
      <trkpt lat="43.24671" lon="-0.55518">
        <ele>228.803</ele>
      </trkpt>
      <trkpt lat="43.24626" lon="-0.55523">
        <ele>229.895</ele>
      </trkpt>
      <trkpt lat="43.2454" lon="-0.55437">
        <ele>231.391</ele>
      </trkpt>
      <trkpt lat="43.2451" lon="-0.55382">
        <ele>234.119</ele>
      </trkpt>
      <trkpt lat="43.24506" lon="-0.55366">
        <ele>233.95</ele>
      </trkpt>
      <trkpt lat="43.24483" lon="-0.55333">
        <ele>235.86</ele>
      </trkpt>
      <trkpt lat="43.24481" lon="-0.55331">
        <ele>236.036</ele>
      </trkpt>
      <trkpt lat="43.24468" lon="-0.55315">
        <ele>236.543</ele>
      </trkpt>
      <trkpt lat="43.24454" lon="-0.55266">
        <ele>237.07</ele>
      </trkpt>
      <trkpt lat="43.24448" lon="-0.55211">
        <ele>237.989</ele>
      </trkpt>
      <trkpt lat="43.24439" lon="-0.55171">
        <ele>239.514</ele>
      </trkpt>
      <trkpt lat="43.24435" lon="-0.55141">
        <ele>241.108</ele>
      </trkpt>
      <trkpt lat="43.24432" lon="-0.55121">
        <ele>242.063</ele>
      </trkpt>
      <trkpt lat="43.24421" lon="-0.55097">
        <ele>243.768</ele>
      </trkpt>
      <trkpt lat="43.24411" lon="-0.55068">
        <ele>247.24</ele>
      </trkpt>
      <trkpt lat="43.24402" lon="-0.55052">
        <ele>250.162</ele>
      </trkpt>
      <trkpt lat="43.24395" lon="-0.55053">
        <ele>251.476</ele>
      </trkpt>
      <trkpt lat="43.24377" lon="-0.55064">
        <ele>253.194</ele>
      </trkpt>
      <trkpt lat="43.24347" lon="-0.55093">
        <ele>252.095</ele>
      </trkpt>
      <trkpt lat="43.24333" lon="-0.55125">
        <ele>249.903</ele>
      </trkpt>
      <trkpt lat="43.24312" lon="-0.55145">
        <ele>251.034</ele>
      </trkpt>
      <trkpt lat="43.24263" lon="-0.55147">
        <ele>256.963</ele>
      </trkpt>
      <trkpt lat="43.24257" lon="-0.55157">
        <ele>256.655</ele>
      </trkpt>
      <trkpt lat="43.2429" lon="-0.55217">
        <ele>246.26</ele>
      </trkpt>
      <trkpt lat="43.24244" lon="-0.55178">
        <ele>255.301</ele>
      </trkpt>
      <trkpt lat="43.24229" lon="-0.55278">
        <ele>249.469</ele>
      </trkpt>
      <trkpt lat="43.24205" lon="-0.55235">
        <ele>247.27</ele>
      </trkpt>
      <trkpt lat="43.24182" lon="-0.55245">
        <ele>248.675</ele>
      </trkpt>
      <trkpt lat="43.24172" lon="-0.55256">
        <ele>249.489</ele>
      </trkpt>
      <trkpt lat="43.24161" lon="-0.55261">
        <ele>250.07</ele>
      </trkpt>
      <trkpt lat="43.24137" lon="-0.55291">
        <ele>251.064</ele>
      </trkpt>
      <trkpt lat="43.24128" lon="-0.55295">
        <ele>251.761</ele>
      </trkpt>
      <trkpt lat="43.24122" lon="-0.55289">
        <ele>251.418</ele>
      </trkpt>
      <trkpt lat="43.24096" lon="-0.55269">
        <ele>252.33</ele>
      </trkpt>
      <trkpt lat="43.24097" lon="-0.5525">
        <ele>252.617</ele>
      </trkpt>
      <trkpt lat="43.24095" lon="-0.55243">
        <ele>252.789</ele>
      </trkpt>
      <trkpt lat="43.2407" lon="-0.55226">
        <ele>253.984</ele>
      </trkpt>
      <trkpt lat="43.24056" lon="-0.55214">
        <ele>257.151</ele>
      </trkpt>
      <trkpt lat="43.24037" lon="-0.55203">
        <ele>259.947</ele>
      </trkpt>
      <trkpt lat="43.24027" lon="-0.55195">
        <ele>261.527</ele>
      </trkpt>
      <trkpt lat="43.23995" lon="-0.55176">
        <ele>263.369</ele>
      </trkpt>
      <trkpt lat="43.23968" lon="-0.55143">
        <ele>267.331</ele>
      </trkpt>
      <trkpt lat="43.23965" lon="-0.55141">
        <ele>267.448</ele>
      </trkpt>
      <trkpt lat="43.23968" lon="-0.55134">
        <ele>269.379</ele>
      </trkpt>
      <trkpt lat="43.2402" lon="-0.55153">
        <ele>270.249</ele>
      </trkpt>
      <trkpt lat="43.24058" lon="-0.55157">
        <ele>272.217</ele>
      </trkpt>
      <trkpt lat="43.2409" lon="-0.55147">
        <ele>275.98</ele>
      </trkpt>
      <trkpt lat="43.24093" lon="-0.55137">
        <ele>278.508</ele>
      </trkpt>
      <trkpt lat="43.24088" lon="-0.55129">
        <ele>280.52</ele>
      </trkpt>
      <trkpt lat="43.24069" lon="-0.55118">
        <ele>282.652</ele>
      </trkpt>
      <trkpt lat="43.24061" lon="-0.55106">
        <ele>285.548</ele>
      </trkpt>
      <trkpt lat="43.24061" lon="-0.55104">
        <ele>286.159</ele>
      </trkpt>
      <trkpt lat="43.2401" lon="-0.55034">
        <ele>300.432</ele>
      </trkpt>
      <trkpt lat="43.23978" lon="-0.54999">
        <ele>300.648</ele>
      </trkpt>
      <trkpt lat="43.23976" lon="-0.54975">
        <ele>303.852</ele>
      </trkpt>
      <trkpt lat="43.23977" lon="-0.54954">
        <ele>305.387</ele>
      </trkpt>
      <trkpt lat="43.23979" lon="-0.54946">
        <ele>306.13</ele>
      </trkpt>
      <trkpt lat="43.23982" lon="-0.54939">
        <ele>306.72</ele>
      </trkpt>
      <trkpt lat="43.23985" lon="-0.54937">
        <ele>307.042</ele>
      </trkpt>
      <trkpt lat="43.23991" lon="-0.54943">
        <ele>307.109</ele>
      </trkpt>
      <trkpt lat="43.23999" lon="-0.54944">
        <ele>307.526</ele>
      </trkpt>
      <trkpt lat="43.23997" lon="-0.54936">
        <ele>307.774</ele>
      </trkpt>
      <trkpt lat="43.23994" lon="-0.54931">
        <ele>307.817</ele>
      </trkpt>
      <trkpt lat="43.2398" lon="-0.54872">
        <ele>308.372</ele>
      </trkpt>
      <trkpt lat="43.23981" lon="-0.54868">
        <ele>308.349</ele>
      </trkpt>
      <trkpt lat="43.23978" lon="-0.54835">
        <ele>307.749</ele>
      </trkpt>
      <trkpt lat="43.23975" lon="-0.54774">
        <ele>305.666</ele>
      </trkpt>
      <trkpt lat="43.23966" lon="-0.54718">
        <ele>305.958</ele>
      </trkpt>
      <trkpt lat="43.23955" lon="-0.54679">
        <ele>308.41</ele>
      </trkpt>
      <trkpt lat="43.23961" lon="-0.54658">
        <ele>308.683</ele>
      </trkpt>
      <trkpt lat="43.2396" lon="-0.54654">
        <ele>308.898</ele>
      </trkpt>
      <trkpt lat="43.23956" lon="-0.54644">
        <ele>309.867</ele>
      </trkpt>
      <trkpt lat="43.23931" lon="-0.54636">
        <ele>313.183</ele>
      </trkpt>
      <trkpt lat="43.23887" lon="-0.54615">
        <ele>318.46</ele>
      </trkpt>
      <trkpt lat="43.23849" lon="-0.54626">
        <ele>318.461</ele>
      </trkpt>
      <trkpt lat="43.23791" lon="-0.54598">
        <ele>320.832</ele>
      </trkpt>
      <trkpt lat="43.23779" lon="-0.54589">
        <ele>320.943</ele>
      </trkpt>
      <trkpt lat="43.23739" lon="-0.54571">
        <ele>321.353</ele>
      </trkpt>
      <trkpt lat="43.23698" lon="-0.54561">
        <ele>321.634</ele>
      </trkpt>
      <trkpt lat="43.23674" lon="-0.54551">
        <ele>322.344</ele>
      </trkpt>
      <trkpt lat="43.23638" lon="-0.54541">
        <ele>324.004</ele>
      </trkpt>
      <trkpt lat="43.23597" lon="-0.5454">
        <ele>325.35</ele>
      </trkpt>
      <trkpt lat="43.23548" lon="-0.54536">
        <ele>326.748</ele>
      </trkpt>
      <trkpt lat="43.23505" lon="-0.54535">
        <ele>327.781</ele>
      </trkpt>
      <trkpt lat="43.23469" lon="-0.5454">
        <ele>328.559</ele>
      </trkpt>
      <trkpt lat="43.23436" lon="-0.54549">
        <ele>329.719</ele>
      </trkpt>
      <trkpt lat="43.23421" lon="-0.54555">
        <ele>330.946</ele>
      </trkpt>
      <trkpt lat="43.23383" lon="-0.54581">
        <ele>334.708</ele>
      </trkpt>
      <trkpt lat="43.23367" lon="-0.5458">
        <ele>335.796</ele>
      </trkpt>
      <trkpt lat="43.23355" lon="-0.54573">
        <ele>336.432</ele>
      </trkpt>
      <trkpt lat="43.23317" lon="-0.54562">
        <ele>337.935</ele>
      </trkpt>
      <trkpt lat="43.23281" lon="-0.54576">
        <ele>339.519</ele>
      </trkpt>
      <trkpt lat="43.23249" lon="-0.54584">
        <ele>339.626</ele>
      </trkpt>
      <trkpt lat="43.23244" lon="-0.54586">
        <ele>339.769</ele>
      </trkpt>
      <trkpt lat="43.23211" lon="-0.54596">
        <ele>340.307</ele>
      </trkpt>
      <trkpt lat="43.23144" lon="-0.54552">
        <ele>338.957</ele>
      </trkpt>
      <trkpt lat="43.23103" lon="-0.54528">
        <ele>339.254</ele>
      </trkpt>
      <trkpt lat="43.23046" lon="-0.54481">
        <ele>339.587</ele>
      </trkpt>
      <trkpt lat="43.22967" lon="-0.54434">
        <ele>339.032</ele>
      </trkpt>
      <trkpt lat="43.22952" lon="-0.54434">
        <ele>339.097</ele>
      </trkpt>
      <trkpt lat="43.22932" lon="-0.54445">
        <ele>337.684</ele>
      </trkpt>
      <trkpt lat="43.22902" lon="-0.54472">
        <ele>338.316</ele>
      </trkpt>
      <trkpt lat="43.22894" lon="-0.54476">
        <ele>338.79</ele>
      </trkpt>
      <trkpt lat="43.22882" lon="-0.54479">
        <ele>338.878</ele>
      </trkpt>
      <trkpt lat="43.2286" lon="-0.54473">
        <ele>337.063</ele>
      </trkpt>
      <trkpt lat="43.22796" lon="-0.54412">
        <ele>334.087</ele>
      </trkpt>
      <trkpt lat="43.22789" lon="-0.54408">
        <ele>333.816</ele>
      </trkpt>
      <trkpt lat="43.22766" lon="-0.54402">
        <ele>334.003</ele>
      </trkpt>
      <trkpt lat="43.22705" lon="-0.544">
        <ele>333.467</ele>
      </trkpt>
      <trkpt lat="43.22672" lon="-0.54409">
        <ele>335.898</ele>
      </trkpt>
      <trkpt lat="43.22658" lon="-0.54415">
        <ele>337.261</ele>
      </trkpt>
      <trkpt lat="43.22632" lon="-0.54399">
        <ele>335.164</ele>
      </trkpt>
      <trkpt lat="43.2261" lon="-0.54362">
        <ele>331.353</ele>
      </trkpt>
      <trkpt lat="43.22614" lon="-0.54358">
        <ele>330.433</ele>
      </trkpt>
      <trkpt lat="43.22626" lon="-0.54373">
        <ele>331.532</ele>
      </trkpt>
      <trkpt lat="43.22659" lon="-0.54386">
        <ele>331.591</ele>
      </trkpt>
      <trkpt lat="43.22674" lon="-0.54364">
        <ele>325.984</ele>
      </trkpt>
      <trkpt lat="43.22695" lon="-0.54326">
        <ele>319.701</ele>
      </trkpt>
      <trkpt lat="43.22747" lon="-0.543">
        <ele>314.967</ele>
      </trkpt>
      <trkpt lat="43.22761" lon="-0.54309">
        <ele>316.306</ele>
      </trkpt>
      <trkpt lat="43.22793" lon="-0.54284">
        <ele>312.347</ele>
      </trkpt>
      <trkpt lat="43.22801" lon="-0.54235">
        <ele>306.33</ele>
      </trkpt>
      <trkpt lat="43.22823" lon="-0.54189">
        <ele>300.68</ele>
      </trkpt>
      <trkpt lat="43.22863" lon="-0.54173">
        <ele>298.771</ele>
      </trkpt>
      <trkpt lat="43.22913" lon="-0.5418">
        <ele>297.166</ele>
      </trkpt>
      <trkpt lat="43.22946" lon="-0.54169">
        <ele>297.135</ele>
      </trkpt>
      <trkpt lat="43.22967" lon="-0.54154">
        <ele>296.953</ele>
      </trkpt>
      <trkpt lat="43.23043" lon="-0.54144">
        <ele>294.33</ele>
      </trkpt>
      <trkpt lat="43.23074" lon="-0.5415">
        <ele>293.619</ele>
      </trkpt>
      <trkpt lat="43.23114" lon="-0.54135">
        <ele>290.16</ele>
      </trkpt>
      <trkpt lat="43.2314" lon="-0.54129">
        <ele>289.523</ele>
      </trkpt>
      <trkpt lat="43.23198" lon="-0.54129">
        <ele>289.555</ele>
      </trkpt>
      <trkpt lat="43.23231" lon="-0.54127">
        <ele>288.058</ele>
      </trkpt>
      <trkpt lat="43.23266" lon="-0.54127">
        <ele>286.738</ele>
      </trkpt>
      <trkpt lat="43.23286" lon="-0.54128">
        <ele>285.764</ele>
      </trkpt>
      <trkpt lat="43.23399" lon="-0.54165">
        <ele>281.221</ele>
      </trkpt>
      <trkpt lat="43.23473" lon="-0.54166">
        <ele>282.614</ele>
      </trkpt>
      <trkpt lat="43.23535" lon="-0.54145">
        <ele>280.788</ele>
      </trkpt>
      <trkpt lat="43.23534" lon="-0.54145">
        <ele>280.779</ele>
      </trkpt>
      <trkpt lat="43.23583" lon="-0.54132">
        <ele>280.019</ele>
      </trkpt>
      <trkpt lat="43.23599" lon="-0.54131">
        <ele>279.853</ele>
      </trkpt>
      <trkpt lat="43.23595" lon="-0.54099">
        <ele>277.053</ele>
      </trkpt>
      <trkpt lat="43.23635" lon="-0.54084">
        <ele>278.098</ele>
      </trkpt>
      <trkpt lat="43.23656" lon="-0.54086">
        <ele>277.974</ele>
      </trkpt>
      <trkpt lat="43.23665" lon="-0.54085">
        <ele>278.16</ele>
      </trkpt>
      <trkpt lat="43.23708" lon="-0.54077">
        <ele>278.956</ele>
      </trkpt>
      <trkpt lat="43.23737" lon="-0.54064">
        <ele>280.706</ele>
      </trkpt>
      <trkpt lat="43.23744" lon="-0.54055">
        <ele>282.286</ele>
      </trkpt>
      <trkpt lat="43.23747" lon="-0.54041">
        <ele>284.698</ele>
      </trkpt>
      <trkpt lat="43.2376" lon="-0.53951">
        <ele>294.889</ele>
      </trkpt>
      <trkpt lat="43.23795" lon="-0.53978">
        <ele>295.137</ele>
      </trkpt>
      <trkpt lat="43.23814" lon="-0.54004">
        <ele>292.846</ele>
      </trkpt>
      <trkpt lat="43.23839" lon="-0.54018">
        <ele>293.467</ele>
      </trkpt>
      <trkpt lat="43.23859" lon="-0.54022">
        <ele>295.413</ele>
      </trkpt>
      <trkpt lat="43.23916" lon="-0.54023">
        <ele>299.922</ele>
      </trkpt>
      <trkpt lat="43.2395" lon="-0.54018">
        <ele>300.459</ele>
      </trkpt>
      <trkpt lat="43.2396" lon="-0.54008">
        <ele>300.77</ele>
      </trkpt>
      <trkpt lat="43.23959" lon="-0.53949">
        <ele>306.156</ele>
      </trkpt>
      <trkpt lat="43.23958" lon="-0.53935">
        <ele>307.535</ele>
      </trkpt>
      <trkpt lat="43.23956" lon="-0.53892">
        <ele>310.94</ele>
      </trkpt>
      <trkpt lat="43.23951" lon="-0.53848">
        <ele>314.798</ele>
      </trkpt>
      <trkpt lat="43.23948" lon="-0.53813">
        <ele>317.241</ele>
      </trkpt>
      <trkpt lat="43.23943" lon="-0.53795">
        <ele>318.739</ele>
      </trkpt>
      <trkpt lat="43.23944" lon="-0.53791">
        <ele>318.917</ele>
      </trkpt>
      <trkpt lat="43.23969" lon="-0.5377">
        <ele>319.143</ele>
      </trkpt>
      <trkpt lat="43.23994" lon="-0.53752">
        <ele>320.566</ele>
      </trkpt>
      <trkpt lat="43.24014" lon="-0.53746">
        <ele>321.322</ele>
      </trkpt>
      <trkpt lat="43.24056" lon="-0.53751">
        <ele>322.77</ele>
      </trkpt>
      <trkpt lat="43.24083" lon="-0.5376">
        <ele>321.915</ele>
      </trkpt>
      <trkpt lat="43.24133" lon="-0.53784">
        <ele>321.934</ele>
      </trkpt>
      <trkpt lat="43.24145" lon="-0.53825">
        <ele>322.331</ele>
      </trkpt>
      <trkpt lat="43.24167" lon="-0.53886">
        <ele>320.761</ele>
      </trkpt>
      <trkpt lat="43.2419" lon="-0.53941">
        <ele>319.31</ele>
      </trkpt>
      <trkpt lat="43.24215" lon="-0.54038">
        <ele>312.314</ele>
      </trkpt>
      <trkpt lat="43.24226" lon="-0.54069">
        <ele>308.253</ele>
      </trkpt>
      <trkpt lat="43.24268" lon="-0.5411">
        <ele>305.19</ele>
      </trkpt>
      <trkpt lat="43.24316" lon="-0.54135">
        <ele>303.945</ele>
      </trkpt>
      <trkpt lat="43.24349" lon="-0.54147">
        <ele>300.844</ele>
      </trkpt>
      <trkpt lat="43.24382" lon="-0.54179">
        <ele>296.809</ele>
      </trkpt>
      <trkpt lat="43.24415" lon="-0.54218">
        <ele>294.95</ele>
      </trkpt>
      <trkpt lat="43.24473" lon="-0.54279">
        <ele>290.999</ele>
      </trkpt>
      <trkpt lat="43.24516" lon="-0.54333">
        <ele>287.513</ele>
      </trkpt>
      <trkpt lat="43.2453" lon="-0.54366">
        <ele>285.17</ele>
      </trkpt>
      <trkpt lat="43.24561" lon="-0.54417">
        <ele>283.819</ele>
      </trkpt>
      <trkpt lat="43.24592" lon="-0.54429">
        <ele>287.933</ele>
      </trkpt>
      <trkpt lat="43.24618" lon="-0.54431">
        <ele>292.221</ele>
      </trkpt>
      <trkpt lat="43.24665" lon="-0.54475">
        <ele>297.083</ele>
      </trkpt>
      <trkpt lat="43.24691" lon="-0.54512">
        <ele>298.5</ele>
      </trkpt>
      <trkpt lat="43.24706" lon="-0.5454">
        <ele>299.046</ele>
      </trkpt>
      <trkpt lat="43.24724" lon="-0.54566">
        <ele>299.692</ele>
      </trkpt>
      <trkpt lat="43.24736" lon="-0.54594">
        <ele>300.337</ele>
      </trkpt>
      <trkpt lat="43.24749" lon="-0.54628">
        <ele>300.207</ele>
      </trkpt>
      <trkpt lat="43.2476" lon="-0.54682">
        <ele>301.179</ele>
      </trkpt>
      <trkpt lat="43.24777" lon="-0.54725">
        <ele>302.977</ele>
      </trkpt>
      <trkpt lat="43.24775" lon="-0.54736">
        <ele>303.104</ele>
      </trkpt>
      <trkpt lat="43.24765" lon="-0.54769">
        <ele>303.565</ele>
      </trkpt>
      <trkpt lat="43.24755" lon="-0.54831">
        <ele>303.41</ele>
      </trkpt>
      <trkpt lat="43.24757" lon="-0.54875">
        <ele>303.452</ele>
      </trkpt>
      <trkpt lat="43.2476" lon="-0.54881">
        <ele>303.611</ele>
      </trkpt>
      <trkpt lat="43.24772" lon="-0.54923">
        <ele>305.005</ele>
      </trkpt>
      <trkpt lat="43.2477" lon="-0.5496">
        <ele>305.406</ele>
      </trkpt>
      <trkpt lat="43.24772" lon="-0.54972">
        <ele>305.41</ele>
      </trkpt>
      <trkpt lat="43.2478" lon="-0.55008">
        <ele>304.68</ele>
      </trkpt>
      <trkpt lat="43.24797" lon="-0.55048">
        <ele>302.09</ele>
      </trkpt>
      <trkpt lat="43.24814" lon="-0.55082">
        <ele>302.427</ele>
      </trkpt>
      <trkpt lat="43.24843" lon="-0.55129">
        <ele>299.756</ele>
      </trkpt>
      <trkpt lat="43.2488" lon="-0.55178">
        <ele>301.204</ele>
      </trkpt>
      <trkpt lat="43.24923" lon="-0.55204">
        <ele>302.287</ele>
      </trkpt>
      <trkpt lat="43.24969" lon="-0.55225">
        <ele>297.484</ele>
      </trkpt>
      <trkpt lat="43.24993" lon="-0.55239">
        <ele>294.863</ele>
      </trkpt>
      <trkpt lat="43.25037" lon="-0.55265">
        <ele>292.266</ele>
      </trkpt>
      <trkpt lat="43.25054" lon="-0.55281">
        <ele>290.13</ele>
      </trkpt>
      <trkpt lat="43.25061" lon="-0.55291">
        <ele>289.397</ele>
      </trkpt>
      <trkpt lat="43.25097" lon="-0.55336">
        <ele>294.062</ele>
      </trkpt>
      <trkpt lat="43.25137" lon="-0.55392">
        <ele>298.839</ele>
      </trkpt>
      <trkpt lat="43.25148" lon="-0.55414">
        <ele>299.547</ele>
      </trkpt>
      <trkpt lat="43.25172" lon="-0.55452">
        <ele>302.552</ele>
      </trkpt>
      <trkpt lat="43.25226" lon="-0.55502">
        <ele>305.053</ele>
      </trkpt>
      <trkpt lat="43.25244" lon="-0.55515">
        <ele>306.277</ele>
      </trkpt>
      <trkpt lat="43.25275" lon="-0.55531">
        <ele>307.839</ele>
      </trkpt>
      <trkpt lat="43.25306" lon="-0.55538">
        <ele>307.413</ele>
      </trkpt>
      <trkpt lat="43.25353" lon="-0.55545">
        <ele>305.579</ele>
      </trkpt>
      <trkpt lat="43.25386" lon="-0.5555">
        <ele>305.598</ele>
      </trkpt>
      <trkpt lat="43.25407" lon="-0.55568">
        <ele>306.275</ele>
      </trkpt>
      <trkpt lat="43.25452" lon="-0.5558">
        <ele>309.02</ele>
      </trkpt>
      <trkpt lat="43.25533" lon="-0.55605">
        <ele>310.755</ele>
      </trkpt>
      <trkpt lat="43.25575" lon="-0.5562">
        <ele>309.532</ele>
      </trkpt>
      <trkpt lat="43.25616" lon="-0.55616">
        <ele>308.053</ele>
      </trkpt>
      <trkpt lat="43.25635" lon="-0.55619">
        <ele>306.91</ele>
      </trkpt>
      <trkpt lat="43.25683" lon="-0.55637">
        <ele>304.254</ele>
      </trkpt>
      <trkpt lat="43.25715" lon="-0.55656">
        <ele>303.249</ele>
      </trkpt>
      <trkpt lat="43.25726" lon="-0.55666">
        <ele>303.339</ele>
      </trkpt>
      <trkpt lat="43.25757" lon="-0.55686">
        <ele>302.474</ele>
      </trkpt>
      <trkpt lat="43.25796" lon="-0.55697">
        <ele>300.574</ele>
      </trkpt>
      <trkpt lat="43.2583" lon="-0.55692">
        <ele>298.162</ele>
      </trkpt>
      <trkpt lat="43.25871" lon="-0.55713">
        <ele>293.682</ele>
      </trkpt>
      <trkpt lat="43.25882" lon="-0.55724">
        <ele>294.194</ele>
      </trkpt>
      <trkpt lat="43.25899" lon="-0.55739">
        <ele>292.819</ele>
      </trkpt>
      <trkpt lat="43.25941" lon="-0.55754">
        <ele>284.042</ele>
      </trkpt>
      <trkpt lat="43.25997" lon="-0.55793">
        <ele>273.794</ele>
      </trkpt>
      <trkpt lat="43.26022" lon="-0.55801">
        <ele>268.736</ele>
      </trkpt>
      <trkpt lat="43.26098" lon="-0.55814">
        <ele>248.575</ele>
      </trkpt>
      <trkpt lat="43.26118" lon="-0.5582">
        <ele>243.026</ele>
      </trkpt>
      <trkpt lat="43.26143" lon="-0.55829">
        <ele>236.083</ele>
      </trkpt>
      <trkpt lat="43.26198" lon="-0.55851">
        <ele>225.552</ele>
      </trkpt>
      <trkpt lat="43.26255" lon="-0.55883">
        <ele>220.345</ele>
      </trkpt>
      <trkpt lat="43.26276" lon="-0.55892">
        <ele>216.899</ele>
      </trkpt>
      <trkpt lat="43.26295" lon="-0.55899">
        <ele>211.657</ele>
      </trkpt>
      <trkpt lat="43.26311" lon="-0.55902">
        <ele>206.426</ele>
      </trkpt>
      <trkpt lat="43.26334" lon="-0.55921">
        <ele>201.64</ele>
      </trkpt>
      <trkpt lat="43.26348" lon="-0.55943">
        <ele>199.184</ele>
      </trkpt>
      <trkpt lat="43.26349" lon="-0.5597">
        <ele>198.91</ele>
      </trkpt>
      <trkpt lat="43.26349" lon="-0.55993">
        <ele>198.234</ele>
      </trkpt>
      <trkpt lat="43.26373" lon="-0.56017">
        <ele>191.462</ele>
      </trkpt>
      <trkpt lat="43.26384" lon="-0.56015">
        <ele>190.337</ele>
      </trkpt>
      <trkpt lat="43.26434" lon="-0.55992">
        <ele>185.419</ele>
      </trkpt>
      <trkpt lat="43.2644" lon="-0.55992">
        <ele>185.029</ele>
      </trkpt>
      <trkpt lat="43.26464" lon="-0.55973">
        <ele>183.693</ele>
      </trkpt>
      <trkpt lat="43.26489" lon="-0.55931">
        <ele>182.75</ele>
      </trkpt>
      <trkpt lat="43.26492" lon="-0.5592">
        <ele>182.625</ele>
      </trkpt>
      <trkpt lat="43.26495" lon="-0.55898">
        <ele>182.587</ele>
      </trkpt>
      <trkpt lat="43.26494" lon="-0.55882">
        <ele>183.013</ele>
      </trkpt>
      <trkpt lat="43.26477" lon="-0.5583">
        <ele>185.333</ele>
      </trkpt>
      <trkpt lat="43.26475" lon="-0.55795">
        <ele>186.354</ele>
      </trkpt>
      <trkpt lat="43.26487" lon="-0.55781">
        <ele>186.441</ele>
      </trkpt>
      <trkpt lat="43.26476" lon="-0.55763">
        <ele>187.071</ele>
      </trkpt>
      <trkpt lat="43.2646" lon="-0.55757">
        <ele>187.485</ele>
      </trkpt>
      <trkpt lat="43.26429" lon="-0.5573">
        <ele>188.158</ele>
      </trkpt>
      <trkpt lat="43.26391" lon="-0.55675">
        <ele>187.565</ele>
      </trkpt>
      <trkpt lat="43.26321" lon="-0.55609">
        <ele>187.62</ele>
      </trkpt>
      <trkpt lat="43.26299" lon="-0.55586">
        <ele>188.605</ele>
      </trkpt>
      <trkpt lat="43.26214" lon="-0.55532">
        <ele>192.393</ele>
      </trkpt>
      <trkpt lat="43.26204" lon="-0.55522">
        <ele>192.861</ele>
      </trkpt>
      <trkpt lat="43.26171" lon="-0.55498">
        <ele>193.723</ele>
      </trkpt>
      <trkpt lat="43.26149" lon="-0.55474">
        <ele>194.232</ele>
      </trkpt>
      <trkpt lat="43.26136" lon="-0.55456">
        <ele>194.449</ele>
      </trkpt>
      <trkpt lat="43.26087" lon="-0.55364">
        <ele>196.191</ele>
      </trkpt>
      <trkpt lat="43.26027" lon="-0.55289">
        <ele>194.065</ele>
      </trkpt>
      <trkpt lat="43.25987" lon="-0.55243">
        <ele>193.382</ele>
      </trkpt>
      <trkpt lat="43.25997" lon="-0.55179">
        <ele>203.221</ele>
      </trkpt>
      <trkpt lat="43.26004" lon="-0.55154">
        <ele>208.499</ele>
      </trkpt>
      <trkpt lat="43.26008" lon="-0.5512">
        <ele>215.997</ele>
      </trkpt>
      <trkpt lat="43.25998" lon="-0.55095">
        <ele>221.264</ele>
      </trkpt>
      <trkpt lat="43.2603" lon="-0.55072">
        <ele>227.025</ele>
      </trkpt>
      <trkpt lat="43.26025" lon="-0.55061">
        <ele>228.63</ele>
      </trkpt>
      <trkpt lat="43.26024" lon="-0.55036">
        <ele>232.307</ele>
      </trkpt>
      <trkpt lat="43.26023" lon="-0.55025">
        <ele>233.973</ele>
      </trkpt>
      <trkpt lat="43.26023" lon="-0.54989">
        <ele>237.474</ele>
      </trkpt>
      <trkpt lat="43.26018" lon="-0.54976">
        <ele>238.786</ele>
      </trkpt>
      <trkpt lat="43.26019" lon="-0.5497">
        <ele>239.369</ele>
      </trkpt>
      <trkpt lat="43.26016" lon="-0.54959">
        <ele>240.562</ele>
      </trkpt>
      <trkpt lat="43.26015" lon="-0.54945">
        <ele>242.434</ele>
      </trkpt>
      <trkpt lat="43.26017" lon="-0.54933">
        <ele>243.798</ele>
      </trkpt>
      <trkpt lat="43.26013" lon="-0.54916">
        <ele>246.535</ele>
      </trkpt>
      <trkpt lat="43.2601" lon="-0.5491">
        <ele>247.886</ele>
      </trkpt>
      <trkpt lat="43.26008" lon="-0.54904">
        <ele>249.074</ele>
      </trkpt>
      <trkpt lat="43.26007" lon="-0.54885">
        <ele>252.441</ele>
      </trkpt>
      <trkpt lat="43.26016" lon="-0.54878">
        <ele>252.925</ele>
      </trkpt>
      <trkpt lat="43.26024" lon="-0.54879">
        <ele>251.696</ele>
      </trkpt>
      <trkpt lat="43.26034" lon="-0.54879">
        <ele>250.728</ele>
      </trkpt>
      <trkpt lat="43.26033" lon="-0.54875">
        <ele>252.006</ele>
      </trkpt>
      <trkpt lat="43.26024" lon="-0.54849">
        <ele>259.301</ele>
      </trkpt>
      <trkpt lat="43.26017" lon="-0.54834">
        <ele>262.78</ele>
      </trkpt>
      <trkpt lat="43.26011" lon="-0.5483">
        <ele>263.142</ele>
      </trkpt>
      <trkpt lat="43.26004" lon="-0.54813">
        <ele>265.972</ele>
      </trkpt>
      <trkpt lat="43.26002" lon="-0.548">
        <ele>268.293</ele>
      </trkpt>
      <trkpt lat="43.25994" lon="-0.54786">
        <ele>270.685</ele>
      </trkpt>
      <trkpt lat="43.2599" lon="-0.54784">
        <ele>271.623</ele>
      </trkpt>
      <trkpt lat="43.25968" lon="-0.5477">
        <ele>276.694</ele>
      </trkpt>
      <trkpt lat="43.2596" lon="-0.54752">
        <ele>280.496</ele>
      </trkpt>
      <trkpt lat="43.25953" lon="-0.54735">
        <ele>283.3</ele>
      </trkpt>
      <trkpt lat="43.25949" lon="-0.54719">
        <ele>286.194</ele>
      </trkpt>
      <trkpt lat="43.25949" lon="-0.54716">
        <ele>286.503</ele>
      </trkpt>
      <trkpt lat="43.25944" lon="-0.54681">
        <ele>292.175</ele>
      </trkpt>
      <trkpt lat="43.25944" lon="-0.54658">
        <ele>295.211</ele>
      </trkpt>
      <trkpt lat="43.25942" lon="-0.54646">
        <ele>296.992</ele>
      </trkpt>
      <trkpt lat="43.25943" lon="-0.54632">
        <ele>298.686</ele>
      </trkpt>
      <trkpt lat="43.2594" lon="-0.54616">
        <ele>300.71</ele>
      </trkpt>
      <trkpt lat="43.25938" lon="-0.54607">
        <ele>301.718</ele>
      </trkpt>
      <trkpt lat="43.25938" lon="-0.54597">
        <ele>302.891</ele>
      </trkpt>
      <trkpt lat="43.25939" lon="-0.54583">
        <ele>304.405</ele>
      </trkpt>
      <trkpt lat="43.25949" lon="-0.54562">
        <ele>306.043</ele>
      </trkpt>
      <trkpt lat="43.25959" lon="-0.54547">
        <ele>307.646</ele>
      </trkpt>
      <trkpt lat="43.25962" lon="-0.54533">
        <ele>308.948</ele>
      </trkpt>
      <trkpt lat="43.25965" lon="-0.54527">
        <ele>309.46</ele>
      </trkpt>
      <trkpt lat="43.25967" lon="-0.54521">
        <ele>309.832</ele>
      </trkpt>
      <trkpt lat="43.25969" lon="-0.54517">
        <ele>309.78</ele>
      </trkpt>
      <trkpt lat="43.25962" lon="-0.54496">
        <ele>309.953</ele>
      </trkpt>
      <trkpt lat="43.25952" lon="-0.54484">
        <ele>309.566</ele>
      </trkpt>
      <trkpt lat="43.25933" lon="-0.54456">
        <ele>308.599</ele>
      </trkpt>
      <trkpt lat="43.25904" lon="-0.5443">
        <ele>305.279</ele>
      </trkpt>
      <trkpt lat="43.25886" lon="-0.54402">
        <ele>303.571</ele>
      </trkpt>
      <trkpt lat="43.25871" lon="-0.54382">
        <ele>302.81</ele>
      </trkpt>
      <trkpt lat="43.25858" lon="-0.54362">
        <ele>302.829</ele>
      </trkpt>
      <trkpt lat="43.2584" lon="-0.54329">
        <ele>303.427</ele>
      </trkpt>
      <trkpt lat="43.2581" lon="-0.54249">
        <ele>303.32</ele>
      </trkpt>
      <trkpt lat="43.25775" lon="-0.54185">
        <ele>304.185</ele>
      </trkpt>
      <trkpt lat="43.25741" lon="-0.54128">
        <ele>305.333</ele>
      </trkpt>
      <trkpt lat="43.2572" lon="-0.54072">
        <ele>304.529</ele>
      </trkpt>
      <trkpt lat="43.2571" lon="-0.54021">
        <ele>304.703</ele>
      </trkpt>
      <trkpt lat="43.257" lon="-0.5402">
        <ele>304.828</ele>
      </trkpt>
      <trkpt lat="43.25697" lon="-0.54024">
        <ele>304.633</ele>
      </trkpt>
      <trkpt lat="43.25677" lon="-0.54025">
        <ele>303.305</ele>
      </trkpt>
      <trkpt lat="43.25666" lon="-0.54021">
        <ele>302.51</ele>
      </trkpt>
      <trkpt lat="43.25622" lon="-0.53981">
        <ele>295.158</ele>
      </trkpt>
      <trkpt lat="43.25559" lon="-0.53982">
        <ele>286.784</ele>
      </trkpt>
      <trkpt lat="43.25491" lon="-0.53992">
        <ele>273.82</ele>
      </trkpt>
      <trkpt lat="43.25458" lon="-0.5406">
        <ele>266.837</ele>
      </trkpt>
      <trkpt lat="43.25444" lon="-0.5408">
        <ele>261.695</ele>
      </trkpt>
      <trkpt lat="43.25428" lon="-0.54106">
        <ele>254.646</ele>
      </trkpt>
      <trkpt lat="43.25421" lon="-0.54122">
        <ele>250.236</ele>
      </trkpt>
      <trkpt lat="43.25397" lon="-0.54158">
        <ele>238.699</ele>
      </trkpt>
      <trkpt lat="43.25401" lon="-0.54176">
        <ele>235.463</ele>
      </trkpt>
      <trkpt lat="43.25408" lon="-0.54187">
        <ele>233.79</ele>
      </trkpt>
      <trkpt lat="43.254" lon="-0.54205">
        <ele>229.39</ele>
      </trkpt>
      <trkpt lat="43.25391" lon="-0.54212">
        <ele>227.169</ele>
      </trkpt>
      <trkpt lat="43.25404" lon="-0.54236">
        <ele>223.975</ele>
      </trkpt>
      <trkpt lat="43.25411" lon="-0.54236">
        <ele>224.447</ele>
      </trkpt>
      <trkpt lat="43.25427" lon="-0.54232">
        <ele>226.738</ele>
      </trkpt>
      <trkpt lat="43.25437" lon="-0.54233">
        <ele>228.053</ele>
      </trkpt>
      <trkpt lat="43.25443" lon="-0.54246">
        <ele>226.786</ele>
      </trkpt>
      <trkpt lat="43.25442" lon="-0.54255">
        <ele>225.5</ele>
      </trkpt>
      <trkpt lat="43.25456" lon="-0.54277">
        <ele>227.277</ele>
      </trkpt>
      <trkpt lat="43.25455" lon="-0.54297">
        <ele>226.224</ele>
      </trkpt>
      <trkpt lat="43.25436" lon="-0.54304">
        <ele>221.74</ele>
      </trkpt>
      <trkpt lat="43.25403" lon="-0.54321">
        <ele>216.118</ele>
      </trkpt>
      <trkpt lat="43.25372" lon="-0.54386">
        <ele>205.133</ele>
      </trkpt>
      <trkpt lat="43.25366" lon="-0.54412">
        <ele>202.757</ele>
      </trkpt>
      <trkpt lat="43.25344" lon="-0.54386">
        <ele>202.435</ele>
      </trkpt>
      <trkpt lat="43.25204" lon="-0.54164">
        <ele>207.239</ele>
      </trkpt>
      <trkpt lat="43.25158" lon="-0.54094">
        <ele>212.684</ele>
      </trkpt>
      <trkpt lat="43.25104" lon="-0.54004">
        <ele>213.083</ele>
      </trkpt>
      <trkpt lat="43.25094" lon="-0.53987">
        <ele>212.629</ele>
      </trkpt>
      <trkpt lat="43.25013" lon="-0.53857">
        <ele>210.952</ele>
      </trkpt>
      <trkpt lat="43.24978" lon="-0.53808">
        <ele>209.724</ele>
      </trkpt>
      <trkpt lat="43.24971" lon="-0.53798">
        <ele>210.313</ele>
      </trkpt>
      <trkpt lat="43.2498" lon="-0.53763">
        <ele>213.621</ele>
      </trkpt>
      <trkpt lat="43.24989" lon="-0.53753">
        <ele>214.422</ele>
      </trkpt>
      <trkpt lat="43.24996" lon="-0.53733">
        <ele>217.578</ele>
      </trkpt>
      <trkpt lat="43.2501" lon="-0.53706">
        <ele>223.566</ele>
      </trkpt>
      <trkpt lat="43.25016" lon="-0.53697">
        <ele>225.262</ele>
      </trkpt>
      <trkpt lat="43.25027" lon="-0.53684">
        <ele>227.241</ele>
      </trkpt>
      <trkpt lat="43.25043" lon="-0.53678">
        <ele>228.97</ele>
      </trkpt>
      <trkpt lat="43.25069" lon="-0.53662">
        <ele>233.772</ele>
      </trkpt>
      <trkpt lat="43.25083" lon="-0.53645">
        <ele>235.368</ele>
      </trkpt>
      <trkpt lat="43.25086" lon="-0.5364">
        <ele>236.205</ele>
      </trkpt>
      <trkpt lat="43.25093" lon="-0.53634">
        <ele>237.988</ele>
      </trkpt>
      <trkpt lat="43.25098" lon="-0.53627">
        <ele>239.101</ele>
      </trkpt>
      <trkpt lat="43.25103" lon="-0.53622">
        <ele>240.222</ele>
      </trkpt>
      <trkpt lat="43.25107" lon="-0.5362">
        <ele>241.143</ele>
      </trkpt>
      <trkpt lat="43.25111" lon="-0.53629">
        <ele>243.015</ele>
      </trkpt>
      <trkpt lat="43.25114" lon="-0.53643">
        <ele>245.035</ele>
      </trkpt>
      <trkpt lat="43.25112" lon="-0.53671">
        <ele>246.907</ele>
      </trkpt>
      <trkpt lat="43.25112" lon="-0.53689">
        <ele>248.684</ele>
      </trkpt>
      <trkpt lat="43.25093" lon="-0.5372">
        <ele>243.755</ele>
      </trkpt>
      <trkpt lat="43.25092" lon="-0.53744">
        <ele>245.192</ele>
      </trkpt>
      <trkpt lat="43.25097" lon="-0.53767">
        <ele>245.149</ele>
      </trkpt>
      <trkpt lat="43.25108" lon="-0.53784">
        <ele>248.178</ele>
      </trkpt>
      <trkpt lat="43.25119" lon="-0.53792">
        <ele>251.798</ele>
      </trkpt>
      <trkpt lat="43.25131" lon="-0.53792">
        <ele>255.671</ele>
      </trkpt>
      <trkpt lat="43.25149" lon="-0.53799">
        <ele>260.386</ele>
      </trkpt>
      <trkpt lat="43.25183" lon="-0.53815">
        <ele>264.243</ele>
      </trkpt>
      <trkpt lat="43.25196" lon="-0.53807">
        <ele>266.646</ele>
      </trkpt>
      <trkpt lat="43.25206" lon="-0.53785">
        <ele>269.997</ele>
      </trkpt>
      <trkpt lat="43.25216" lon="-0.53766">
        <ele>273.015</ele>
      </trkpt>
      <trkpt lat="43.25222" lon="-0.53759">
        <ele>273.246</ele>
      </trkpt>
      <trkpt lat="43.25234" lon="-0.53726">
        <ele>275.121</ele>
      </trkpt>
      <trkpt lat="43.25234" lon="-0.53712">
        <ele>276.272</ele>
      </trkpt>
      <trkpt lat="43.25237" lon="-0.53676">
        <ele>278.722</ele>
      </trkpt>
      <trkpt lat="43.25244" lon="-0.5365">
        <ele>279.7</ele>
      </trkpt>
      <trkpt lat="43.25248" lon="-0.5364">
        <ele>280.176</ele>
      </trkpt>
      <trkpt lat="43.25248" lon="-0.53609">
        <ele>281.011</ele>
      </trkpt>
      <trkpt lat="43.25248" lon="-0.53596">
        <ele>281.049</ele>
      </trkpt>
      <trkpt lat="43.2525" lon="-0.53584">
        <ele>281.259</ele>
      </trkpt>
      <trkpt lat="43.2525" lon="-0.53574">
        <ele>281.302</ele>
      </trkpt>
      <trkpt lat="43.25252" lon="-0.53568">
        <ele>281.675</ele>
      </trkpt>
      <trkpt lat="43.25254" lon="-0.53547">
        <ele>282.181</ele>
      </trkpt>
      <trkpt lat="43.25262" lon="-0.53503">
        <ele>285.387</ele>
      </trkpt>
      <trkpt lat="43.25272" lon="-0.53464">
        <ele>290.994</ele>
      </trkpt>
      <trkpt lat="43.25276" lon="-0.53414">
        <ele>295.212</ele>
      </trkpt>
      <trkpt lat="43.25279" lon="-0.53396">
        <ele>296.609</ele>
      </trkpt>
      <trkpt lat="43.25282" lon="-0.53361">
        <ele>298.721</ele>
      </trkpt>
      <trkpt lat="43.25285" lon="-0.53341">
        <ele>299.897</ele>
      </trkpt>
      <trkpt lat="43.25291" lon="-0.5333">
        <ele>300.848</ele>
      </trkpt>
      <trkpt lat="43.25297" lon="-0.53324">
        <ele>301.56</ele>
      </trkpt>
      <trkpt lat="43.253" lon="-0.53318">
        <ele>302.179</ele>
      </trkpt>
      <trkpt lat="43.25328" lon="-0.5327">
        <ele>311.178</ele>
      </trkpt>
      <trkpt lat="43.2534" lon="-0.53259">
        <ele>313.731</ele>
      </trkpt>
      <trkpt lat="43.25367" lon="-0.53266">
        <ele>314.516</ele>
      </trkpt>
      <trkpt lat="43.25398" lon="-0.53267">
        <ele>315.416</ele>
      </trkpt>
      <trkpt lat="43.25427" lon="-0.53273">
        <ele>313.587</ele>
      </trkpt>
      <trkpt lat="43.25463" lon="-0.53254">
        <ele>313.474</ele>
      </trkpt>
      <trkpt lat="43.2553" lon="-0.53188">
        <ele>313.176</ele>
      </trkpt>
      <trkpt lat="43.25567" lon="-0.53143">
        <ele>314.903</ele>
      </trkpt>
      <trkpt lat="43.25576" lon="-0.53128">
        <ele>315.41</ele>
      </trkpt>
      <trkpt lat="43.25613" lon="-0.53115">
        <ele>312.398</ele>
      </trkpt>
      <trkpt lat="43.25614" lon="-0.53113">
        <ele>312.526</ele>
      </trkpt>
      <trkpt lat="43.2561" lon="-0.53108">
        <ele>313.432</ele>
      </trkpt>
      <trkpt lat="43.25573" lon="-0.53081">
        <ele>319.955</ele>
      </trkpt>
      <trkpt lat="43.25542" lon="-0.53071">
        <ele>321.659</ele>
      </trkpt>
      <trkpt lat="43.25503" lon="-0.5307">
        <ele>321.336</ele>
      </trkpt>
      <trkpt lat="43.25486" lon="-0.53069">
        <ele>321.578</ele>
      </trkpt>
      <trkpt lat="43.2543" lon="-0.53046">
        <ele>321.977</ele>
      </trkpt>
      <trkpt lat="43.25401" lon="-0.53017">
        <ele>322.195</ele>
      </trkpt>
      <trkpt lat="43.25357" lon="-0.52985">
        <ele>323.013</ele>
      </trkpt>
      <trkpt lat="43.25332" lon="-0.52943">
        <ele>325.359</ele>
      </trkpt>
      <trkpt lat="43.25309" lon="-0.52913">
        <ele>325.427</ele>
      </trkpt>
      <trkpt lat="43.25286" lon="-0.52892">
        <ele>326.793</ele>
      </trkpt>
      <trkpt lat="43.25264" lon="-0.52864">
        <ele>325.856</ele>
      </trkpt>
      <trkpt lat="43.25169" lon="-0.52731">
        <ele>322.014</ele>
      </trkpt>
      <trkpt lat="43.25147" lon="-0.52697">
        <ele>321.175</ele>
      </trkpt>
      <trkpt lat="43.25133" lon="-0.52668">
        <ele>320.025</ele>
      </trkpt>
      <trkpt lat="43.2513" lon="-0.52659">
        <ele>319.746</ele>
      </trkpt>
      <trkpt lat="43.25114" lon="-0.52595">
        <ele>317.484</ele>
      </trkpt>
      <trkpt lat="43.25108" lon="-0.52565">
        <ele>316.313</ele>
      </trkpt>
      <trkpt lat="43.25102" lon="-0.52545">
        <ele>316.56</ele>
      </trkpt>
      <trkpt lat="43.2508" lon="-0.52489">
        <ele>317.507</ele>
      </trkpt>
      <trkpt lat="43.25063" lon="-0.52459">
        <ele>318.983</ele>
      </trkpt>
      <trkpt lat="43.25006" lon="-0.52422">
        <ele>321.448</ele>
      </trkpt>
      <trkpt lat="43.24948" lon="-0.5239">
        <ele>320.038</ele>
      </trkpt>
      <trkpt lat="43.24908" lon="-0.52359">
        <ele>321.549</ele>
      </trkpt>
      <trkpt lat="43.24834" lon="-0.52316">
        <ele>327.438</ele>
      </trkpt>
      <trkpt lat="43.24813" lon="-0.52297">
        <ele>332.513</ele>
      </trkpt>
      <trkpt lat="43.24829" lon="-0.52235">
        <ele>330.507</ele>
      </trkpt>
      <trkpt lat="43.24876" lon="-0.52123">
        <ele>324.853</ele>
      </trkpt>
      <trkpt lat="43.24907" lon="-0.52055">
        <ele>315.651</ele>
      </trkpt>
      <trkpt lat="43.24925" lon="-0.51973">
        <ele>305.283</ele>
      </trkpt>
      <trkpt lat="43.24948" lon="-0.51846">
        <ele>292.377</ele>
      </trkpt>
      <trkpt lat="43.24996" lon="-0.51642">
        <ele>276.671</ele>
      </trkpt>
      <trkpt lat="43.2503" lon="-0.51473">
        <ele>265.663</ele>
      </trkpt>
      <trkpt lat="43.25051" lon="-0.51378">
        <ele>266.623</ele>
      </trkpt>
      <trkpt lat="43.25034" lon="-0.51337">
        <ele>269.817</ele>
      </trkpt>
      <trkpt lat="43.25039" lon="-0.51351">
        <ele>268.686</ele>
      </trkpt>
      <trkpt lat="43.25029" lon="-0.51326">
        <ele>271.758</ele>
      </trkpt>
      <trkpt lat="43.25012" lon="-0.51301">
        <ele>275.426</ele>
      </trkpt>
      <trkpt lat="43.25003" lon="-0.51295">
        <ele>276.419</ele>
      </trkpt>
      <trkpt lat="43.24999" lon="-0.5129">
        <ele>277.117</ele>
      </trkpt>
      <trkpt lat="43.24997" lon="-0.51283">
        <ele>278.133</ele>
      </trkpt>
      <trkpt lat="43.24996" lon="-0.51265">
        <ele>281.063</ele>
      </trkpt>
      <trkpt lat="43.24994" lon="-0.51255">
        <ele>283.133</ele>
      </trkpt>
      <trkpt lat="43.24991" lon="-0.51245">
        <ele>284.955</ele>
      </trkpt>
      <trkpt lat="43.24993" lon="-0.51238">
        <ele>286.38</ele>
      </trkpt>
      <trkpt lat="43.24991" lon="-0.51206">
        <ele>292.43</ele>
      </trkpt>
      <trkpt lat="43.24996" lon="-0.51177">
        <ele>297.648</ele>
      </trkpt>
      <trkpt lat="43.24995" lon="-0.51161">
        <ele>300.529</ele>
      </trkpt>
      <trkpt lat="43.24991" lon="-0.51149">
        <ele>302.311</ele>
      </trkpt>
      <trkpt lat="43.24984" lon="-0.51117">
        <ele>305.098</ele>
      </trkpt>
      <trkpt lat="43.24985" lon="-0.51096">
        <ele>306.892</ele>
      </trkpt>
      <trkpt lat="43.24984" lon="-0.51088">
        <ele>307.164</ele>
      </trkpt>
      <trkpt lat="43.24987" lon="-0.51072">
        <ele>306.517</ele>
      </trkpt>
      <trkpt lat="43.24991" lon="-0.51061">
        <ele>306.007</ele>
      </trkpt>
      <trkpt lat="43.24997" lon="-0.51048">
        <ele>305.351</ele>
      </trkpt>
      <trkpt lat="43.25005" lon="-0.51044">
        <ele>305.027</ele>
      </trkpt>
      <trkpt lat="43.25037" lon="-0.51064">
        <ele>303.941</ele>
      </trkpt>
      <trkpt lat="43.25053" lon="-0.51071">
        <ele>303.061</ele>
      </trkpt>
      <trkpt lat="43.25069" lon="-0.51087">
        <ele>304.255</ele>
      </trkpt>
      <trkpt lat="43.2512" lon="-0.5109">
        <ele>302.813</ele>
      </trkpt>
      <trkpt lat="43.25149" lon="-0.51088">
        <ele>302.842</ele>
      </trkpt>
      <trkpt lat="43.25183" lon="-0.51104">
        <ele>306.268</ele>
      </trkpt>
      <trkpt lat="43.25209" lon="-0.5111">
        <ele>305.256</ele>
      </trkpt>
      <trkpt lat="43.25248" lon="-0.51138">
        <ele>301.987</ele>
      </trkpt>
      <trkpt lat="43.25274" lon="-0.51161">
        <ele>302.345</ele>
      </trkpt>
      <trkpt lat="43.25292" lon="-0.51173">
        <ele>300.735</ele>
      </trkpt>
      <trkpt lat="43.253" lon="-0.51183">
        <ele>298.146</ele>
      </trkpt>
      <trkpt lat="43.25337" lon="-0.51217">
        <ele>292.913</ele>
      </trkpt>
      <trkpt lat="43.25344" lon="-0.51222">
        <ele>292.758</ele>
      </trkpt>
      <trkpt lat="43.25393" lon="-0.5125">
        <ele>288.954</ele>
      </trkpt>
      <trkpt lat="43.25415" lon="-0.5125">
        <ele>288.229</ele>
      </trkpt>
      <trkpt lat="43.25445" lon="-0.51255">
        <ele>288.225</ele>
      </trkpt>
      <trkpt lat="43.25477" lon="-0.51258">
        <ele>288.401</ele>
      </trkpt>
      <trkpt lat="43.25484" lon="-0.51263">
        <ele>288.133</ele>
      </trkpt>
      <trkpt lat="43.25516" lon="-0.51273">
        <ele>287.833</ele>
      </trkpt>
      <trkpt lat="43.25555" lon="-0.51282">
        <ele>287.174</ele>
      </trkpt>
      <trkpt lat="43.25605" lon="-0.51295">
        <ele>285.268</ele>
      </trkpt>
      <trkpt lat="43.25637" lon="-0.51301">
        <ele>284.434</ele>
      </trkpt>
      <trkpt lat="43.25678" lon="-0.51306">
        <ele>284.511</ele>
      </trkpt>
      <trkpt lat="43.25698" lon="-0.51294">
        <ele>283.043</ele>
      </trkpt>
      <trkpt lat="43.25729" lon="-0.51285">
        <ele>281.917</ele>
      </trkpt>
      <trkpt lat="43.25751" lon="-0.51276">
        <ele>280.729</ele>
      </trkpt>
      <trkpt lat="43.25795" lon="-0.51364">
        <ele>288.556</ele>
      </trkpt>
      <trkpt lat="43.25822" lon="-0.51389">
        <ele>288.241</ele>
      </trkpt>
      <trkpt lat="43.25837" lon="-0.51398">
        <ele>287.067</ele>
      </trkpt>
      <trkpt lat="43.25844" lon="-0.51402">
        <ele>286.55</ele>
      </trkpt>
      <trkpt lat="43.25856" lon="-0.51424">
        <ele>285.479</ele>
      </trkpt>
      <trkpt lat="43.25889" lon="-0.51451">
        <ele>280.692</ele>
      </trkpt>
      <trkpt lat="43.259" lon="-0.51468">
        <ele>280.026</ele>
      </trkpt>
      <trkpt lat="43.25928" lon="-0.51491">
        <ele>281.095</ele>
      </trkpt>
      <trkpt lat="43.25935" lon="-0.51498">
        <ele>282.098</ele>
      </trkpt>
      <trkpt lat="43.25982" lon="-0.51522">
        <ele>283.935</ele>
      </trkpt>
      <trkpt lat="43.26027" lon="-0.51533">
        <ele>285.23</ele>
      </trkpt>
      <trkpt lat="43.26034" lon="-0.51533">
        <ele>285.49</ele>
      </trkpt>
      <trkpt lat="43.26046" lon="-0.51531">
        <ele>285.596</ele>
      </trkpt>
      <trkpt lat="43.26026" lon="-0.51544">
        <ele>284.922</ele>
      </trkpt>
      <trkpt lat="43.26102" lon="-0.51484">
        <ele>279.751</ele>
      </trkpt>
      <trkpt lat="43.26108" lon="-0.51476">
        <ele>278.627</ele>
      </trkpt>
      <trkpt lat="43.26112" lon="-0.51468">
        <ele>277.68</ele>
      </trkpt>
      <trkpt lat="43.2612" lon="-0.51461">
        <ele>276.739</ele>
      </trkpt>
      <trkpt lat="43.26132" lon="-0.51455">
        <ele>275.794</ele>
      </trkpt>
      <trkpt lat="43.26143" lon="-0.51442">
        <ele>273.557</ele>
      </trkpt>
      <trkpt lat="43.26167" lon="-0.51429">
        <ele>271.706</ele>
      </trkpt>
      <trkpt lat="43.26177" lon="-0.51429">
        <ele>271.572</ele>
      </trkpt>
      <trkpt lat="43.26254" lon="-0.51434">
        <ele>259.589</ele>
      </trkpt>
      <trkpt lat="43.26298" lon="-0.51439">
        <ele>251.009</ele>
      </trkpt>
      <trkpt lat="43.26329" lon="-0.51441">
        <ele>244.375</ele>
      </trkpt>
      <trkpt lat="43.26367" lon="-0.51437">
        <ele>235.257</ele>
      </trkpt>
      <trkpt lat="43.26376" lon="-0.51435">
        <ele>232.314</ele>
      </trkpt>
      <trkpt lat="43.26438" lon="-0.5141">
        <ele>216.624</ele>
      </trkpt>
      <trkpt lat="43.26443" lon="-0.51414">
        <ele>215.108</ele>
      </trkpt>
      <trkpt lat="43.26459" lon="-0.51421">
        <ele>212.288</ele>
      </trkpt>
      <trkpt lat="43.26477" lon="-0.51415">
        <ele>208.246</ele>
      </trkpt>
      <trkpt lat="43.2649" lon="-0.51407">
        <ele>205.08</ele>
      </trkpt>
      <trkpt lat="43.26508" lon="-0.51389">
        <ele>202.636</ele>
      </trkpt>
      <trkpt lat="43.2652" lon="-0.51377">
        <ele>201.688</ele>
      </trkpt>
      <trkpt lat="43.26525" lon="-0.51377">
        <ele>201.36</ele>
      </trkpt>
      <trkpt lat="43.2655" lon="-0.51395">
        <ele>198.942</ele>
      </trkpt>
      <trkpt lat="43.26557" lon="-0.51399">
        <ele>198.409</ele>
      </trkpt>
      <trkpt lat="43.26564" lon="-0.51397">
        <ele>198.47</ele>
      </trkpt>
      <trkpt lat="43.26605" lon="-0.51407">
        <ele>195.564</ele>
      </trkpt>
      <trkpt lat="43.26641" lon="-0.51425">
        <ele>192.998</ele>
      </trkpt>
      <trkpt lat="43.26676" lon="-0.51447">
        <ele>193.835</ele>
      </trkpt>
      <trkpt lat="43.26713" lon="-0.51457">
        <ele>193.275</ele>
      </trkpt>
      <trkpt lat="43.26733" lon="-0.51454">
        <ele>191.393</ele>
      </trkpt>
      <trkpt lat="43.26772" lon="-0.51453">
        <ele>187.822</ele>
      </trkpt>
      <trkpt lat="43.26822" lon="-0.51431">
        <ele>181.692</ele>
      </trkpt>
      <trkpt lat="43.26848" lon="-0.51428">
        <ele>180.379</ele>
      </trkpt>
      <trkpt lat="43.26838" lon="-0.51429">
        <ele>180.62</ele>
      </trkpt>
      <trkpt lat="43.26838" lon="-0.51443">
        <ele>183.185</ele>
      </trkpt>
      <trkpt lat="43.26842" lon="-0.51487">
        <ele>191.696</ele>
      </trkpt>
      <trkpt lat="43.26837" lon="-0.51528">
        <ele>198.418</ele>
      </trkpt>
      <trkpt lat="43.26834" lon="-0.51563">
        <ele>203.448</ele>
      </trkpt>
      <trkpt lat="43.26834" lon="-0.51591">
        <ele>206.649</ele>
      </trkpt>
      <trkpt lat="43.26833" lon="-0.51612">
        <ele>208.766</ele>
      </trkpt>
      <trkpt lat="43.26832" lon="-0.51642">
        <ele>213.064</ele>
      </trkpt>
      <trkpt lat="43.26841" lon="-0.51669">
        <ele>217.897</ele>
      </trkpt>
      <trkpt lat="43.26841" lon="-0.51688">
        <ele>220.483</ele>
      </trkpt>
      <trkpt lat="43.26844" lon="-0.51716">
        <ele>224.174</ele>
      </trkpt>
      <trkpt lat="43.26852" lon="-0.51735">
        <ele>225.848</ele>
      </trkpt>
      <trkpt lat="43.26854" lon="-0.51744">
        <ele>226.536</ele>
      </trkpt>
      <trkpt lat="43.26852" lon="-0.5178">
        <ele>229.389</ele>
      </trkpt>
      <trkpt lat="43.26851" lon="-0.51802">
        <ele>231.213</ele>
      </trkpt>
      <trkpt lat="43.26817" lon="-0.51861">
        <ele>241.793</ele>
      </trkpt>
      <trkpt lat="43.26846" lon="-0.51828">
        <ele>234.845</ele>
      </trkpt>
      <trkpt lat="43.26839" lon="-0.51843">
        <ele>237.804</ele>
      </trkpt>
      <trkpt lat="43.26826" lon="-0.51851">
        <ele>239.889</ele>
      </trkpt>
      <trkpt lat="43.26817" lon="-0.51861">
        <ele>241.793</ele>
      </trkpt>
      <trkpt lat="43.26786" lon="-0.5191">
        <ele>251.966</ele>
      </trkpt>
      <trkpt lat="43.26766" lon="-0.51928">
        <ele>255.333</ele>
      </trkpt>
      <trkpt lat="43.26734" lon="-0.51945">
        <ele>258.899</ele>
      </trkpt>
      <trkpt lat="43.26717" lon="-0.51967">
        <ele>261.77</ele>
      </trkpt>
      <trkpt lat="43.26713" lon="-0.51965">
        <ele>261.729</ele>
      </trkpt>
      <trkpt lat="43.26716" lon="-0.51966">
        <ele>261.711</ele>
      </trkpt>
      <trkpt lat="43.26706" lon="-0.51982">
        <ele>262.723</ele>
      </trkpt>
      <trkpt lat="43.26708" lon="-0.51986">
        <ele>262.549</ele>
      </trkpt>
      <trkpt lat="43.26712" lon="-0.51991">
        <ele>262.339</ele>
      </trkpt>
      <trkpt lat="43.26734" lon="-0.52006">
        <ele>261.68</ele>
      </trkpt>
      <trkpt lat="43.26768" lon="-0.52043">
        <ele>260.742</ele>
      </trkpt>
      <trkpt lat="43.2679" lon="-0.52076">
        <ele>258.196</ele>
      </trkpt>
      <trkpt lat="43.26795" lon="-0.5208">
        <ele>257.998</ele>
      </trkpt>
      <trkpt lat="43.26799" lon="-0.52088">
        <ele>257.672</ele>
      </trkpt>
      <trkpt lat="43.26811" lon="-0.52093">
        <ele>258.102</ele>
      </trkpt>
      <trkpt lat="43.26821" lon="-0.52101">
        <ele>258.871</ele>
      </trkpt>
      <trkpt lat="43.26853" lon="-0.52118">
        <ele>258.09</ele>
      </trkpt>
      <trkpt lat="43.26877" lon="-0.52147">
        <ele>258.246</ele>
      </trkpt>
      <trkpt lat="43.26918" lon="-0.52172">
        <ele>258.981</ele>
      </trkpt>
      <trkpt lat="43.26973" lon="-0.52221">
        <ele>259.771</ele>
      </trkpt>
      <trkpt lat="43.26946" lon="-0.52263">
        <ele>256.09</ele>
      </trkpt>
      <trkpt lat="43.26935" lon="-0.52295">
        <ele>250.585</ele>
      </trkpt>
      <trkpt lat="43.26937" lon="-0.52315">
        <ele>246.844</ele>
      </trkpt>
      <trkpt lat="43.2694" lon="-0.52334">
        <ele>243.606</ele>
      </trkpt>
      <trkpt lat="43.26956" lon="-0.52379">
        <ele>236.965</ele>
      </trkpt>
      <trkpt lat="43.27019" lon="-0.52472">
        <ele>228.544</ele>
      </trkpt>
      <trkpt lat="43.2704" lon="-0.52517">
        <ele>224.29</ele>
      </trkpt>
      <trkpt lat="43.27051" lon="-0.5261">
        <ele>211.845</ele>
      </trkpt>
      <trkpt lat="43.27045" lon="-0.52697">
        <ele>210.51</ele>
      </trkpt>
      <trkpt lat="43.27049" lon="-0.52761">
        <ele>213.801</ele>
      </trkpt>
      <trkpt lat="43.27055" lon="-0.5282">
        <ele>216.382</ele>
      </trkpt>
      <trkpt lat="43.27054" lon="-0.52852">
        <ele>218.436</ele>
      </trkpt>
      <trkpt lat="43.27045" lon="-0.52887">
        <ele>221.209</ele>
      </trkpt>
      <trkpt lat="43.27035" lon="-0.52922">
        <ele>224.007</ele>
      </trkpt>
      <trkpt lat="43.27016" lon="-0.52976">
        <ele>232.81</ele>
      </trkpt>
      <trkpt lat="43.27011" lon="-0.52999">
        <ele>235.371</ele>
      </trkpt>
      <trkpt lat="43.27011" lon="-0.5301">
        <ele>236.307</ele>
      </trkpt>
      <trkpt lat="43.27014" lon="-0.5303">
        <ele>237.703</ele>
      </trkpt>
      <trkpt lat="43.27015" lon="-0.53064">
        <ele>240.98</ele>
      </trkpt>
      <trkpt lat="43.27007" lon="-0.53091">
        <ele>243.784</ele>
      </trkpt>
      <trkpt lat="43.27001" lon="-0.53106">
        <ele>245.777</ele>
      </trkpt>
      <trkpt lat="43.26985" lon="-0.53129">
        <ele>249.756</ele>
      </trkpt>
      <trkpt lat="43.26965" lon="-0.53151">
        <ele>254.573</ele>
      </trkpt>
      <trkpt lat="43.26947" lon="-0.53178">
        <ele>258.782</ele>
      </trkpt>
      <trkpt lat="43.26939" lon="-0.53197">
        <ele>261.273</ele>
      </trkpt>
      <trkpt lat="43.26937" lon="-0.53208">
        <ele>262.826</ele>
      </trkpt>
      <trkpt lat="43.26938" lon="-0.53214">
        <ele>263.509</ele>
      </trkpt>
      <trkpt lat="43.26953" lon="-0.53221">
        <ele>265.099</ele>
      </trkpt>
      <trkpt lat="43.26968" lon="-0.53222">
        <ele>265.647</ele>
      </trkpt>
      <trkpt lat="43.26968" lon="-0.53246">
        <ele>269.245</ele>
      </trkpt>
      <trkpt lat="43.26925" lon="-0.53315">
        <ele>281.179</ele>
      </trkpt>
      <trkpt lat="43.269" lon="-0.53347">
        <ele>287.092</ele>
      </trkpt>
      <trkpt lat="43.26859" lon="-0.53393">
        <ele>302.068</ele>
      </trkpt>
      <trkpt lat="43.26845" lon="-0.5341">
        <ele>303.65</ele>
      </trkpt>
      <trkpt lat="43.2681" lon="-0.53402">
        <ele>305.673</ele>
      </trkpt>
      <trkpt lat="43.26774" lon="-0.5339">
        <ele>307.734</ele>
      </trkpt>
      <trkpt lat="43.26749" lon="-0.53372">
        <ele>308.834</ele>
      </trkpt>
      <trkpt lat="43.26724" lon="-0.53355">
        <ele>310.484</ele>
      </trkpt>
      <trkpt lat="43.26697" lon="-0.53344">
        <ele>312.759</ele>
      </trkpt>
      <trkpt lat="43.2663" lon="-0.53326">
        <ele>318.215</ele>
      </trkpt>
      <trkpt lat="43.26589" lon="-0.53327">
        <ele>320.52</ele>
      </trkpt>
      <trkpt lat="43.26555" lon="-0.53336">
        <ele>320.085</ele>
      </trkpt>
      <trkpt lat="43.26497" lon="-0.53363">
        <ele>319.448</ele>
      </trkpt>
      <trkpt lat="43.26433" lon="-0.53395">
        <ele>319.308</ele>
      </trkpt>
      <trkpt lat="43.2639" lon="-0.53415">
        <ele>319.07</ele>
      </trkpt>
      <trkpt lat="43.2636" lon="-0.5343">
        <ele>319.665</ele>
      </trkpt>
      <trkpt lat="43.2634" lon="-0.53465">
        <ele>318.637</ele>
      </trkpt>
      <trkpt lat="43.26318" lon="-0.53515">
        <ele>317.093</ele>
      </trkpt>
      <trkpt lat="43.2629" lon="-0.53575">
        <ele>316.472</ele>
      </trkpt>
      <trkpt lat="43.26171" lon="-0.53833">
        <ele>306.965</ele>
      </trkpt>
      <trkpt lat="43.26193" lon="-0.53851">
        <ele>306.921</ele>
      </trkpt>
      <trkpt lat="43.26218" lon="-0.53866">
        <ele>307.042</ele>
      </trkpt>
      <trkpt lat="43.26285" lon="-0.53876">
        <ele>308.275</ele>
      </trkpt>
      <trkpt lat="43.26369" lon="-0.53855">
        <ele>314.663</ele>
      </trkpt>
      <trkpt lat="43.26411" lon="-0.53851">
        <ele>316.665</ele>
      </trkpt>
      <trkpt lat="43.26457" lon="-0.53878">
        <ele>320.481</ele>
      </trkpt>
      <trkpt lat="43.26503" lon="-0.53918">
        <ele>321.912</ele>
      </trkpt>
      <trkpt lat="43.26551" lon="-0.5399">
        <ele>324.586</ele>
      </trkpt>
      <trkpt lat="43.26582" lon="-0.54018">
        <ele>323.294</ele>
      </trkpt>
      <trkpt lat="43.26628" lon="-0.54045">
        <ele>320.651</ele>
      </trkpt>
      <trkpt lat="43.26647" lon="-0.54059">
        <ele>320.471</ele>
      </trkpt>
      <trkpt lat="43.26664" lon="-0.54077">
        <ele>319.427</ele>
      </trkpt>
      <trkpt lat="43.26685" lon="-0.54121">
        <ele>320.301</ele>
      </trkpt>
      <trkpt lat="43.26698" lon="-0.54162">
        <ele>320.745</ele>
      </trkpt>
      <trkpt lat="43.26707" lon="-0.54194">
        <ele>320.828</ele>
      </trkpt>
      <trkpt lat="43.2672" lon="-0.54267">
        <ele>324.398</ele>
      </trkpt>
      <trkpt lat="43.26747" lon="-0.54298">
        <ele>325.703</ele>
      </trkpt>
      <trkpt lat="43.26791" lon="-0.54316">
        <ele>325.567</ele>
      </trkpt>
      <trkpt lat="43.26918" lon="-0.54316">
        <ele>324.861</ele>
      </trkpt>
      <trkpt lat="43.27024" lon="-0.5433">
        <ele>320.26</ele>
      </trkpt>
      <trkpt lat="43.27145" lon="-0.54372">
        <ele>313.079</ele>
      </trkpt>
      <trkpt lat="43.27185" lon="-0.54398">
        <ele>311.261</ele>
      </trkpt>
      <trkpt lat="43.27201" lon="-0.54425">
        <ele>310.606</ele>
      </trkpt>
      <trkpt lat="43.27264" lon="-0.5457">
        <ele>307.295</ele>
      </trkpt>
      <trkpt lat="43.27295" lon="-0.54646">
        <ele>302.464</ele>
      </trkpt>
      <trkpt lat="43.27348" lon="-0.5469">
        <ele>297.161</ele>
      </trkpt>
      <trkpt lat="43.27398" lon="-0.54734">
        <ele>289.345</ele>
      </trkpt>
      <trkpt lat="43.27413" lon="-0.54754">
        <ele>284.99</ele>
      </trkpt>
      <trkpt lat="43.27454" lon="-0.54783">
        <ele>278.852</ele>
      </trkpt>
      <trkpt lat="43.27506" lon="-0.5479">
        <ele>275.813</ele>
      </trkpt>
      <trkpt lat="43.27578" lon="-0.54825">
        <ele>268.509</ele>
      </trkpt>
      <trkpt lat="43.27602" lon="-0.54845">
        <ele>264.366</ele>
      </trkpt>
      <trkpt lat="43.27626" lon="-0.54861">
        <ele>261.38</ele>
      </trkpt>
      <trkpt lat="43.27653" lon="-0.54899">
        <ele>253.591</ele>
      </trkpt>
      <trkpt lat="43.27696" lon="-0.54938">
        <ele>250.364</ele>
      </trkpt>
      <trkpt lat="43.27717" lon="-0.5495">
        <ele>250.623</ele>
      </trkpt>
      <trkpt lat="43.27747" lon="-0.54993">
        <ele>244.811</ele>
      </trkpt>
      <trkpt lat="43.27789" lon="-0.55045">
        <ele>233.357</ele>
      </trkpt>
      <trkpt lat="43.27825" lon="-0.55079">
        <ele>234.643</ele>
      </trkpt>
      <trkpt lat="43.27892" lon="-0.55134">
        <ele>232.399</ele>
      </trkpt>
      <trkpt lat="43.27924" lon="-0.55159">
        <ele>230.701</ele>
      </trkpt>
      <trkpt lat="43.27984" lon="-0.55198">
        <ele>228.934</ele>
      </trkpt>
      <trkpt lat="43.28066" lon="-0.55259">
        <ele>222.404</ele>
      </trkpt>
      <trkpt lat="43.28153" lon="-0.55312">
        <ele>216.859</ele>
      </trkpt>
      <trkpt lat="43.28186" lon="-0.55342">
        <ele>213.536</ele>
      </trkpt>
      <trkpt lat="43.28237" lon="-0.55358">
        <ele>210.885</ele>
      </trkpt>
      <trkpt lat="43.28339" lon="-0.55357">
        <ele>208.652</ele>
      </trkpt>
      <trkpt lat="43.28372" lon="-0.55361">
        <ele>206.838</ele>
      </trkpt>
      <trkpt lat="43.28412" lon="-0.55369">
        <ele>202.701</ele>
      </trkpt>
      <trkpt lat="43.2844" lon="-0.55368">
        <ele>201.886</ele>
      </trkpt>
      <trkpt lat="43.2852" lon="-0.55343">
        <ele>202.737</ele>
      </trkpt>
      <trkpt lat="43.28538" lon="-0.55338">
        <ele>201.308</ele>
      </trkpt>
      <trkpt lat="43.28582" lon="-0.55361">
        <ele>198.263</ele>
      </trkpt>
      <trkpt lat="43.28615" lon="-0.55362">
        <ele>195.919</ele>
      </trkpt>
      <trkpt lat="43.28703" lon="-0.55357">
        <ele>194.714</ele>
      </trkpt>
      <trkpt lat="43.28775" lon="-0.55368">
        <ele>196.652</ele>
      </trkpt>
      <trkpt lat="43.28835" lon="-0.5538">
        <ele>197.795</ele>
      </trkpt>
      <trkpt lat="43.28892" lon="-0.55404">
        <ele>198.837</ele>
      </trkpt>
      <trkpt lat="43.2901" lon="-0.55511">
        <ele>204.634</ele>
      </trkpt>
      <trkpt lat="43.29014" lon="-0.5554">
        <ele>207.576</ele>
      </trkpt>
      <trkpt lat="43.29023" lon="-0.55585">
        <ele>211.379</ele>
      </trkpt>
      <trkpt lat="43.29021" lon="-0.55638">
        <ele>216.543</ele>
      </trkpt>
      <trkpt lat="43.29017" lon="-0.55686">
        <ele>220.253</ele>
      </trkpt>
      <trkpt lat="43.29012" lon="-0.55708">
        <ele>221.653</ele>
      </trkpt>
      <trkpt lat="43.28993" lon="-0.55706">
        <ele>222.24</ele>
      </trkpt>
      <trkpt lat="43.28975" lon="-0.55707">
        <ele>223.22</ele>
      </trkpt>
      <trkpt lat="43.28949" lon="-0.55721">
        <ele>225.209</ele>
      </trkpt>
      <trkpt lat="43.28914" lon="-0.55726">
        <ele>227.68</ele>
      </trkpt>
      <trkpt lat="43.28887" lon="-0.55751">
        <ele>228.477</ele>
      </trkpt>
      <trkpt lat="43.28864" lon="-0.55795">
        <ele>226.755</ele>
      </trkpt>
      <trkpt lat="43.28839" lon="-0.55832">
        <ele>224.698</ele>
      </trkpt>
      <trkpt lat="43.2883" lon="-0.55846">
        <ele>223.049</ele>
      </trkpt>
      <trkpt lat="43.28827" lon="-0.55895">
        <ele>213.43</ele>
      </trkpt>
      <trkpt lat="43.28834" lon="-0.55919">
        <ele>208.952</ele>
      </trkpt>
      <trkpt lat="43.28829" lon="-0.55959">
        <ele>203.036</ele>
      </trkpt>
      <trkpt lat="43.28813" lon="-0.55952">
        <ele>204.205</ele>
      </trkpt>
      <trkpt lat="43.28794" lon="-0.5594">
        <ele>206.624</ele>
      </trkpt>
      <trkpt lat="43.28768" lon="-0.55945">
        <ele>205.171</ele>
      </trkpt>
      <trkpt lat="43.28752" lon="-0.55969">
        <ele>198.8</ele>
      </trkpt>
      <trkpt lat="43.28732" lon="-0.55996">
        <ele>193.679</ele>
      </trkpt>
      <trkpt lat="43.28693" lon="-0.56022">
        <ele>188.525</ele>
      </trkpt>
      <trkpt lat="43.28655" lon="-0.56027">
        <ele>189.421</ele>
      </trkpt>
      <trkpt lat="43.28623" lon="-0.56037">
        <ele>189.064</ele>
      </trkpt>
      <trkpt lat="43.28599" lon="-0.56053">
        <ele>184.371</ele>
      </trkpt>
      <trkpt lat="43.2855" lon="-0.5608">
        <ele>175.531</ele>
      </trkpt>
      <trkpt lat="43.28528" lon="-0.56088">
        <ele>173.16</ele>
      </trkpt>
      <trkpt lat="43.28524" lon="-0.56111">
        <ele>166.829</ele>
      </trkpt>
      <trkpt lat="43.28534" lon="-0.56147">
        <ele>158.852</ele>
      </trkpt>
      <trkpt lat="43.2854" lon="-0.5624">
        <ele>150.399</ele>
      </trkpt>
      <trkpt lat="43.28539" lon="-0.56281">
        <ele>151.883</ele>
      </trkpt>
      <trkpt lat="43.28525" lon="-0.56399">
        <ele>160.113</ele>
      </trkpt>
      <trkpt lat="43.28503" lon="-0.56491">
        <ele>163.557</ele>
      </trkpt>
      <trkpt lat="43.28515" lon="-0.565">
        <ele>164.099</ele>
      </trkpt>
      <trkpt lat="43.28536" lon="-0.56504">
        <ele>163.783</ele>
      </trkpt>
      <trkpt lat="43.28555" lon="-0.56525">
        <ele>164.331</ele>
      </trkpt>
      <trkpt lat="43.28565" lon="-0.56563">
        <ele>165.715</ele>
      </trkpt>
    </trkseg>
  </trk>
  <trk>
    <name><![CDATA[Petit tour en vallée de Josbaigt - 19729 - UtagawaVTT.com]]></name>
    <trkseg>
      <trkpt lat="43.25063" lon="-0.70565">
        <ele>179.988754</ele>
        <time>2018-10-26T13:52:08Z</time>
      </trkpt>
      <trkpt lat="43.25055" lon="-0.70571">
        <ele>179.923752</ele>
        <time>2018-10-26T13:53:19Z</time>
      </trkpt>
      <trkpt lat="43.25046" lon="-0.70573">
        <ele>180.037506</ele>
        <time>2018-10-26T13:53:42Z</time>
      </trkpt>
      <trkpt lat="43.25034" lon="-0.70594">
        <ele>179.534042</ele>
        <time>2018-10-26T13:53:50Z</time>
      </trkpt>
      <trkpt lat="43.25033" lon="-0.70616">
        <ele>178.14975</ele>
        <time>2018-10-26T13:53:55Z</time>
      </trkpt>
      <trkpt lat="43.25039" lon="-0.70665">
        <ele>175.570007</ele>
        <time>2018-10-26T13:54:04Z</time>
      </trkpt>
      <trkpt lat="43.25029" lon="-0.70682">
        <ele>175.024994</ele>
        <time>2018-10-26T13:54:08Z</time>
      </trkpt>
      <trkpt lat="43.25008" lon="-0.70704">
        <ele>174.230103</ele>
        <time>2018-10-26T13:54:13Z</time>
      </trkpt>
      <trkpt lat="43.24986" lon="-0.70733">
        <ele>174</ele>
        <time>2018-10-26T13:54:18Z</time>
      </trkpt>
      <trkpt lat="43.24965" lon="-0.70768">
        <ele>174.147507</ele>
        <time>2018-10-26T13:54:22Z</time>
      </trkpt>
      <trkpt lat="43.2494" lon="-0.70818">
        <ele>174.929123</ele>
        <time>2018-10-26T13:54:27Z</time>
      </trkpt>
      <trkpt lat="43.24895" lon="-0.70938">
        <ele>176</ele>
        <time>2018-10-26T13:54:45Z</time>
      </trkpt>
      <trkpt lat="43.24881" lon="-0.70967">
        <ele>175.973267</ele>
        <time>2018-10-26T13:54:50Z</time>
      </trkpt>
      <trkpt lat="43.24835" lon="-0.71036">
        <ele>175.95079</ele>
        <time>2018-10-26T13:55:02Z</time>
      </trkpt>
      <trkpt lat="43.24803" lon="-0.71104">
        <ele>175.743759</ele>
        <time>2018-10-26T13:55:12Z</time>
      </trkpt>
      <trkpt lat="43.24768" lon="-0.71187">
        <ele>176.946808</ele>
        <time>2018-10-26T13:55:24Z</time>
      </trkpt>
      <trkpt lat="43.24751" lon="-0.71245">
        <ele>177.879379</ele>
        <time>2018-10-26T13:55:32Z</time>
      </trkpt>
      <trkpt lat="43.24745" lon="-0.71317">
        <ele>179.492493</ele>
        <time>2018-10-26T13:55:41Z</time>
      </trkpt>
      <trkpt lat="43.24753" lon="-0.71333">
        <ele>180.470001</ele>
        <time>2018-10-26T13:55:45Z</time>
      </trkpt>
      <trkpt lat="43.2477" lon="-0.71335">
        <ele>180.874374</ele>
        <time>2018-10-26T13:55:49Z</time>
      </trkpt>
      <trkpt lat="43.24789" lon="-0.71346">
        <ele>181.350006</ele>
        <time>2018-10-26T13:55:54Z</time>
      </trkpt>
      <trkpt lat="43.24799" lon="-0.71365">
        <ele>182.29715</ele>
        <time>2018-10-26T13:55:58Z</time>
      </trkpt>
      <trkpt lat="43.24807" lon="-0.71386">
        <ele>183.597794</ele>
        <time>2018-10-26T13:56:02Z</time>
      </trkpt>
      <trkpt lat="43.24814" lon="-0.71433">
        <ele>187.367676</ele>
        <time>2018-10-26T13:56:11Z</time>
      </trkpt>
      <trkpt lat="43.24849" lon="-0.71504">
        <ele>192.773743</ele>
        <time>2018-10-26T13:56:28Z</time>
      </trkpt>
      <trkpt lat="43.24884" lon="-0.71538">
        <ele>195.162079</ele>
        <time>2018-10-26T13:56:38Z</time>
      </trkpt>
      <trkpt lat="43.24976" lon="-0.71589">
        <ele>199.231247</ele>
        <time>2018-10-26T13:56:54Z</time>
      </trkpt>
      <trkpt lat="43.24997" lon="-0.71606">
        <ele>199.582901</ele>
        <time>2018-10-26T13:56:58Z</time>
      </trkpt>
      <trkpt lat="43.25036" lon="-0.71648">
        <ele>201.004288</ele>
        <time>2018-10-26T13:57:06Z</time>
      </trkpt>
      <trkpt lat="43.25142" lon="-0.71774">
        <ele>200.690002</ele>
        <time>2018-10-26T13:57:28Z</time>
      </trkpt>
      <trkpt lat="43.2516" lon="-0.71799">
        <ele>199.907501</ele>
        <time>2018-10-26T13:57:32Z</time>
      </trkpt>
      <trkpt lat="43.25174" lon="-0.71832">
        <ele>198.550964</ele>
        <time>2018-10-26T13:57:36Z</time>
      </trkpt>
      <trkpt lat="43.25189" lon="-0.71858">
        <ele>197.257797</ele>
        <time>2018-10-26T13:57:40Z</time>
      </trkpt>
      <trkpt lat="43.25265" lon="-0.71955">
        <ele>194.008743</ele>
        <time>2018-10-26T13:57:57Z</time>
      </trkpt>
      <trkpt lat="43.25264" lon="-0.7199">
        <ele>193.847031</ele>
        <time>2018-10-26T13:58:02Z</time>
      </trkpt>
      <trkpt lat="43.25249" lon="-0.72017">
        <ele>194.045227</ele>
        <time>2018-10-26T13:58:06Z</time>
      </trkpt>
      <trkpt lat="43.25215" lon="-0.72065">
        <ele>195.408356</ele>
        <time>2018-10-26T13:58:14Z</time>
      </trkpt>
      <trkpt lat="43.25191" lon="-0.72092">
        <ele>197.401245</ele>
        <time>2018-10-26T13:58:19Z</time>
      </trkpt>
      <trkpt lat="43.25153" lon="-0.72127">
        <ele>201.188751</ele>
        <time>2018-10-26T13:58:27Z</time>
      </trkpt>
      <trkpt lat="43.25161" lon="-0.72152">
        <ele>201.307495</ele>
        <time>2018-10-26T13:58:32Z</time>
      </trkpt>
      <trkpt lat="43.2521" lon="-0.72209">
        <ele>199.425659</ele>
        <time>2018-10-26T13:58:42Z</time>
      </trkpt>
      <trkpt lat="43.25243" lon="-0.72254">
        <ele>197.914261</ele>
        <time>2018-10-26T13:58:50Z</time>
      </trkpt>
      <trkpt lat="43.25297" lon="-0.72295">
        <ele>196.181961</ele>
        <time>2018-10-26T13:59:00Z</time>
      </trkpt>
      <trkpt lat="43.25317" lon="-0.72316">
        <ele>196.02124</ele>
        <time>2018-10-26T13:59:04Z</time>
      </trkpt>
      <trkpt lat="43.25339" lon="-0.72334">
        <ele>196.076248</ele>
        <time>2018-10-26T13:59:08Z</time>
      </trkpt>
      <trkpt lat="43.25363" lon="-0.72358">
        <ele>196.677505</ele>
        <time>2018-10-26T13:59:13Z</time>
      </trkpt>
      <trkpt lat="43.25453" lon="-0.72429">
        <ele>198.319992</ele>
        <time>2018-10-26T13:59:30Z</time>
      </trkpt>
      <trkpt lat="43.25474" lon="-0.72439">
        <ele>198.357498</ele>
        <time>2018-10-26T13:59:34Z</time>
      </trkpt>
      <trkpt lat="43.25524" lon="-0.7247">
        <ele>199.268753</ele>
        <time>2018-10-26T13:59:43Z</time>
      </trkpt>
      <trkpt lat="43.25573" lon="-0.72489">
        <ele>199.798752</ele>
        <time>2018-10-26T13:59:52Z</time>
      </trkpt>
      <trkpt lat="43.25627" lon="-0.72529">
        <ele>200.994995</ele>
        <time>2018-10-26T14:00:02Z</time>
      </trkpt>
      <trkpt lat="43.25647" lon="-0.72538">
        <ele>200.982498</ele>
        <time>2018-10-26T14:00:06Z</time>
      </trkpt>
      <trkpt lat="43.25655" lon="-0.72553">
        <ele>201.048126</ele>
        <time>2018-10-26T14:00:10Z</time>
      </trkpt>
      <trkpt lat="43.25626" lon="-0.72638">
        <ele>202.203934</ele>
        <time>2018-10-26T14:00:22Z</time>
      </trkpt>
      <trkpt lat="43.25572" lon="-0.72765">
        <ele>203</ele>
        <time>2018-10-26T14:00:40Z</time>
      </trkpt>
      <trkpt lat="43.25571" lon="-0.72793">
        <ele>203</ele>
        <time>2018-10-26T14:00:44Z</time>
      </trkpt>
      <trkpt lat="43.25583" lon="-0.72817">
        <ele>203</ele>
        <time>2018-10-26T14:00:48Z</time>
      </trkpt>
      <trkpt lat="43.25573" lon="-0.72838">
        <ele>203</ele>
        <time>2018-10-26T14:00:52Z</time>
      </trkpt>
      <trkpt lat="43.25521" lon="-0.72896">
        <ele>202.009964</ele>
        <time>2018-10-26T14:01:05Z</time>
      </trkpt>
      <trkpt lat="43.25465" lon="-0.72912">
        <ele>197.251877</ele>
        <time>2018-10-26T14:01:14Z</time>
      </trkpt>
      <trkpt lat="43.25442" lon="-0.72935">
        <ele>194.195007</ele>
        <time>2018-10-26T14:01:18Z</time>
      </trkpt>
      <trkpt lat="43.25413" lon="-0.72978">
        <ele>189.712494</ele>
        <time>2018-10-26T14:01:30Z</time>
      </trkpt>
      <trkpt lat="43.25404" lon="-0.73011">
        <ele>186.961884</ele>
        <time>2018-10-26T14:01:35Z</time>
      </trkpt>
      <trkpt lat="43.25402" lon="-0.73054">
        <ele>183.378754</ele>
        <time>2018-10-26T14:01:40Z</time>
      </trkpt>
      <trkpt lat="43.25409" lon="-0.73111">
        <ele>180.518005</ele>
        <time>2018-10-26T14:01:49Z</time>
      </trkpt>
      <trkpt lat="43.25416" lon="-0.7314">
        <ele>179.60083</ele>
        <time>2018-10-26T14:01:54Z</time>
      </trkpt>
      <trkpt lat="43.25427" lon="-0.73164">
        <ele>179.470871</ele>
        <time>2018-10-26T14:01:58Z</time>
      </trkpt>
      <trkpt lat="43.25401" lon="-0.73174">
        <ele>178.400513</ele>
        <time>2018-10-26T14:02:07Z</time>
      </trkpt>
      <trkpt lat="43.25362" lon="-0.73215">
        <ele>179.151871</ele>
        <time>2018-10-26T14:03:11Z</time>
      </trkpt>
      <trkpt lat="43.25364" lon="-0.73237">
        <ele>179.462509</ele>
        <time>2018-10-26T14:06:26Z</time>
      </trkpt>
      <trkpt lat="43.2536" lon="-0.73265">
        <ele>180.493881</ele>
        <time>2018-10-26T14:06:36Z</time>
      </trkpt>
      <trkpt lat="43.25356" lon="-0.73278">
        <ele>181.399063</ele>
        <time>2018-10-26T14:06:40Z</time>
      </trkpt>
      <trkpt lat="43.25356" lon="-0.733">
        <ele>182.692001</ele>
        <time>2018-10-26T14:06:48Z</time>
      </trkpt>
      <trkpt lat="43.25354" lon="-0.73312">
        <ele>183.544266</ele>
        <time>2018-10-26T14:06:52Z</time>
      </trkpt>
      <trkpt lat="43.25336" lon="-0.73336">
        <ele>185.497635</ele>
        <time>2018-10-26T14:07:00Z</time>
      </trkpt>
      <trkpt lat="43.25294" lon="-0.73402">
        <ele>191.545288</ele>
        <time>2018-10-26T14:07:14Z</time>
      </trkpt>
      <trkpt lat="43.25225" lon="-0.73536">
        <ele>199.722198</ele>
        <time>2018-10-26T14:07:40Z</time>
      </trkpt>
      <trkpt lat="43.25207" lon="-0.7356">
        <ele>200.255005</ele>
        <time>2018-10-26T14:07:44Z</time>
      </trkpt>
      <trkpt lat="43.25147" lon="-0.73671">
        <ele>201.987473</ele>
        <time>2018-10-26T14:08:02Z</time>
      </trkpt>
      <trkpt lat="43.25114" lon="-0.73724">
        <ele>202</ele>
        <time>2018-10-26T14:08:11Z</time>
      </trkpt>
      <trkpt lat="43.25078" lon="-0.73805">
        <ele>203.261719</ele>
        <time>2018-10-26T14:08:23Z</time>
      </trkpt>
      <trkpt lat="43.25034" lon="-0.73941">
        <ele>208.443192</ele>
        <time>2018-10-26T14:08:42Z</time>
      </trkpt>
      <trkpt lat="43.25012" lon="-0.73992">
        <ele>212.626266</ele>
        <time>2018-10-26T14:08:51Z</time>
      </trkpt>
      <trkpt lat="43.25002" lon="-0.74019">
        <ele>214.376053</ele>
        <time>2018-10-26T14:08:55Z</time>
      </trkpt>
      <trkpt lat="43.24999" lon="-0.74048">
        <ele>215.600449</ele>
        <time>2018-10-26T14:08:59Z</time>
      </trkpt>
      <trkpt lat="43.24984" lon="-0.74111">
        <ele>219.112518</ele>
        <time>2018-10-26T14:09:08Z</time>
      </trkpt>
      <trkpt lat="43.24981" lon="-0.74139">
        <ele>219.793976</ele>
        <time>2018-10-26T14:09:12Z</time>
      </trkpt>
      <trkpt lat="43.24969" lon="-0.7416">
        <ele>221.983749</ele>
        <time>2018-10-26T14:09:16Z</time>
      </trkpt>
      <trkpt lat="43.24951" lon="-0.74219">
        <ele>222.800415</ele>
        <time>2018-10-26T14:09:24Z</time>
      </trkpt>
      <trkpt lat="43.24947" lon="-0.74241">
        <ele>222.736618</ele>
        <time>2018-10-26T14:09:28Z</time>
      </trkpt>
      <trkpt lat="43.2493" lon="-0.7431">
        <ele>223.740005</ele>
        <time>2018-10-26T14:09:38Z</time>
      </trkpt>
      <trkpt lat="43.24925" lon="-0.74341">
        <ele>224.117355</ele>
        <time>2018-10-26T14:09:42Z</time>
      </trkpt>
      <trkpt lat="43.24917" lon="-0.74371">
        <ele>225.165039</ele>
        <time>2018-10-26T14:09:46Z</time>
      </trkpt>
      <trkpt lat="43.24907" lon="-0.744">
        <ele>226.796249</ele>
        <time>2018-10-26T14:09:50Z</time>
      </trkpt>
      <trkpt lat="43.24894" lon="-0.74422">
        <ele>228.912506</ele>
        <time>2018-10-26T14:09:54Z</time>
      </trkpt>
      <trkpt lat="43.24876" lon="-0.74431">
        <ele>231.132507</ele>
        <time>2018-10-26T14:09:58Z</time>
      </trkpt>
      <trkpt lat="43.24851" lon="-0.74449">
        <ele>234.558105</ele>
        <time>2018-10-26T14:10:03Z</time>
      </trkpt>
      <trkpt lat="43.24831" lon="-0.74474">
        <ele>235.356186</ele>
        <time>2018-10-26T14:10:08Z</time>
      </trkpt>
      <trkpt lat="43.2479" lon="-0.74508">
        <ele>237.249176</ele>
        <time>2018-10-26T14:10:16Z</time>
      </trkpt>
      <trkpt lat="43.24763" lon="-0.74537">
        <ele>239.059586</ele>
        <time>2018-10-26T14:10:24Z</time>
      </trkpt>
      <trkpt lat="43.2472" lon="-0.74573">
        <ele>243.104095</ele>
        <time>2018-10-26T14:10:36Z</time>
      </trkpt>
      <trkpt lat="43.24705" lon="-0.74583">
        <ele>243.120682</ele>
        <time>2018-10-26T14:10:40Z</time>
      </trkpt>
      <trkpt lat="43.24676" lon="-0.74563">
        <ele>243.398743</ele>
        <time>2018-10-26T14:10:50Z</time>
      </trkpt>
      <trkpt lat="43.24666" lon="-0.74569">
        <ele>242.844711</ele>
        <time>2018-10-26T14:10:54Z</time>
      </trkpt>
      <trkpt lat="43.24629" lon="-0.74615">
        <ele>241.214294</ele>
        <time>2018-10-26T14:11:12Z</time>
      </trkpt>
      <trkpt lat="43.24615" lon="-0.74642">
        <ele>240.716888</ele>
        <time>2018-10-26T14:11:16Z</time>
      </trkpt>
      <trkpt lat="43.24611" lon="-0.74676">
        <ele>240.818512</ele>
        <time>2018-10-26T14:11:20Z</time>
      </trkpt>
      <trkpt lat="43.24615" lon="-0.74708">
        <ele>241.69223</ele>
        <time>2018-10-26T14:11:24Z</time>
      </trkpt>
      <trkpt lat="43.24596" lon="-0.7473">
        <ele>242.158859</ele>
        <time>2018-10-26T14:11:28Z</time>
      </trkpt>
      <trkpt lat="43.24573" lon="-0.74746">
        <ele>241.860001</ele>
        <time>2018-10-26T14:11:32Z</time>
      </trkpt>
      <trkpt lat="43.24549" lon="-0.74754">
        <ele>240.719055</ele>
        <time>2018-10-26T14:11:36Z</time>
      </trkpt>
      <trkpt lat="43.24522" lon="-0.74781">
        <ele>240.854996</ele>
        <time>2018-10-26T14:11:41Z</time>
      </trkpt>
      <trkpt lat="43.24506" lon="-0.74809">
        <ele>241.469742</ele>
        <time>2018-10-26T14:11:45Z</time>
      </trkpt>
      <trkpt lat="43.24457" lon="-0.74841">
        <ele>241.945221</ele>
        <time>2018-10-26T14:11:54Z</time>
      </trkpt>
      <trkpt lat="43.24435" lon="-0.7486">
        <ele>242.695007</ele>
        <time>2018-10-26T14:11:59Z</time>
      </trkpt>
      <trkpt lat="43.24413" lon="-0.74855">
        <ele>243.664993</ele>
        <time>2018-10-26T14:12:04Z</time>
      </trkpt>
      <trkpt lat="43.24404" lon="-0.74838">
        <ele>244.131409</ele>
        <time>2018-10-26T14:12:08Z</time>
      </trkpt>
      <trkpt lat="43.24377" lon="-0.74743">
        <ele>244.941406</ele>
        <time>2018-10-26T14:12:21Z</time>
      </trkpt>
      <trkpt lat="43.24356" lon="-0.74725">
        <ele>245.798752</ele>
        <time>2018-10-26T14:12:26Z</time>
      </trkpt>
      <trkpt lat="43.2433" lon="-0.74727">
        <ele>246.496246</ele>
        <time>2018-10-26T14:12:31Z</time>
      </trkpt>
      <trkpt lat="43.24308" lon="-0.74714">
        <ele>245.911987</ele>
        <time>2018-10-26T14:12:36Z</time>
      </trkpt>
      <trkpt lat="43.24288" lon="-0.74713">
        <ele>245.220673</ele>
        <time>2018-10-26T14:12:40Z</time>
      </trkpt>
      <trkpt lat="43.2425" lon="-0.7473">
        <ele>244.900009</ele>
        <time>2018-10-26T14:12:49Z</time>
      </trkpt>
      <trkpt lat="43.24229" lon="-0.74723">
        <ele>243.567505</ele>
        <time>2018-10-26T14:12:53Z</time>
      </trkpt>
      <trkpt lat="43.24209" lon="-0.74722">
        <ele>243.547501</ele>
        <time>2018-10-26T14:12:57Z</time>
      </trkpt>
      <trkpt lat="43.24184" lon="-0.74736">
        <ele>243.881989</ele>
        <time>2018-10-26T14:13:02Z</time>
      </trkpt>
      <trkpt lat="43.24171" lon="-0.74751">
        <ele>244.064804</ele>
        <time>2018-10-26T14:13:06Z</time>
      </trkpt>
      <trkpt lat="43.24178" lon="-0.74767">
        <ele>243.509521</ele>
        <time>2018-10-26T14:13:11Z</time>
      </trkpt>
      <trkpt lat="43.24198" lon="-0.74777">
        <ele>243.747803</ele>
        <time>2018-10-26T14:13:15Z</time>
      </trkpt>
      <trkpt lat="43.24216" lon="-0.74796">
        <ele>244.175217</ele>
        <time>2018-10-26T14:13:19Z</time>
      </trkpt>
      <trkpt lat="43.24231" lon="-0.7482">
        <ele>243.86467</ele>
        <time>2018-10-26T14:13:23Z</time>
      </trkpt>
      <trkpt lat="43.24238" lon="-0.74854">
        <ele>243.066254</ele>
        <time>2018-10-26T14:13:28Z</time>
      </trkpt>
      <trkpt lat="43.24247" lon="-0.74878">
        <ele>243.401871</ele>
        <time>2018-10-26T14:13:32Z</time>
      </trkpt>
      <trkpt lat="43.24241" lon="-0.74913">
        <ele>241.963043</ele>
        <time>2018-10-26T14:13:36Z</time>
      </trkpt>
      <trkpt lat="43.24211" lon="-0.75004">
        <ele>233.55957</ele>
        <time>2018-10-26T14:13:46Z</time>
      </trkpt>
      <trkpt lat="43.24207" lon="-0.75039">
        <ele>230.687607</ele>
        <time>2018-10-26T14:13:50Z</time>
      </trkpt>
      <trkpt lat="43.24191" lon="-0.75079">
        <ele>227.135086</ele>
        <time>2018-10-26T14:13:55Z</time>
      </trkpt>
      <trkpt lat="43.24149" lon="-0.7513">
        <ele>217.574524</ele>
        <time>2018-10-26T14:14:04Z</time>
      </trkpt>
      <trkpt lat="43.2413" lon="-0.75156">
        <ele>213.549942</ele>
        <time>2018-10-26T14:14:08Z</time>
      </trkpt>
      <trkpt lat="43.24106" lon="-0.75173">
        <ele>206.40712</ele>
        <time>2018-10-26T14:14:12Z</time>
      </trkpt>
      <trkpt lat="43.24099" lon="-0.75214">
        <ele>204.365494</ele>
        <time>2018-10-26T14:14:17Z</time>
      </trkpt>
      <trkpt lat="43.24073" lon="-0.75263">
        <ele>195.842346</ele>
        <time>2018-10-26T14:14:25Z</time>
      </trkpt>
      <trkpt lat="43.24063" lon="-0.75288">
        <ele>190.231567</ele>
        <time>2018-10-26T14:14:29Z</time>
      </trkpt>
      <trkpt lat="43.24062" lon="-0.75312">
        <ele>185.306931</ele>
        <time>2018-10-26T14:14:34Z</time>
      </trkpt>
      <trkpt lat="43.24067" lon="-0.75326">
        <ele>183.116013</ele>
        <time>2018-10-26T14:14:38Z</time>
      </trkpt>
      <trkpt lat="43.24096" lon="-0.75351">
        <ele>180.941666</ele>
        <time>2018-10-26T14:14:46Z</time>
      </trkpt>
      <trkpt lat="43.24111" lon="-0.75349">
        <ele>181.544815</ele>
        <time>2018-10-26T14:14:50Z</time>
      </trkpt>
      <trkpt lat="43.24117" lon="-0.7536">
        <ele>179.563156</ele>
        <time>2018-10-26T14:14:54Z</time>
      </trkpt>
      <trkpt lat="43.24106" lon="-0.75377">
        <ele>176.530289</ele>
        <time>2018-10-26T14:14:58Z</time>
      </trkpt>
      <trkpt lat="43.24059" lon="-0.75396">
        <ele>176.08606</ele>
        <time>2018-10-26T14:15:06Z</time>
      </trkpt>
      <trkpt lat="43.24047" lon="-0.75394">
        <ele>176.138397</ele>
        <time>2018-10-26T14:15:10Z</time>
      </trkpt>
      <trkpt lat="43.24032" lon="-0.75417">
        <ele>175.945862</ele>
        <time>2018-10-26T14:15:14Z</time>
      </trkpt>
      <trkpt lat="43.24036" lon="-0.7544">
        <ele>175.678909</ele>
        <time>2018-10-26T14:15:18Z</time>
      </trkpt>
      <trkpt lat="43.24031" lon="-0.75453">
        <ele>175.874451</ele>
        <time>2018-10-26T14:15:22Z</time>
      </trkpt>
      <trkpt lat="43.24037" lon="-0.75462">
        <ele>175.527206</ele>
        <time>2018-10-26T14:15:27Z</time>
      </trkpt>
      <trkpt lat="43.24048" lon="-0.7547">
        <ele>174.965515</ele>
        <time>2018-10-26T14:15:32Z</time>
      </trkpt>
      <trkpt lat="43.24059" lon="-0.75485">
        <ele>174.664093</ele>
        <time>2018-10-26T14:15:36Z</time>
      </trkpt>
      <trkpt lat="43.24047" lon="-0.755">
        <ele>175.665115</ele>
        <time>2018-10-26T14:15:41Z</time>
      </trkpt>
      <trkpt lat="43.2402" lon="-0.75522">
        <ele>177.251572</ele>
        <time>2018-10-26T14:15:58Z</time>
      </trkpt>
      <trkpt lat="43.24027" lon="-0.75524">
        <ele>177.152603</ele>
        <time>2018-10-26T14:16:03Z</time>
      </trkpt>
      <trkpt lat="43.24048" lon="-0.7552">
        <ele>176.090866</ele>
        <time>2018-10-26T14:16:07Z</time>
      </trkpt>
      <trkpt lat="43.24069" lon="-0.75531">
        <ele>175.606262</ele>
        <time>2018-10-26T14:16:12Z</time>
      </trkpt>
      <trkpt lat="43.24108" lon="-0.75559">
        <ele>174.285629</ele>
        <time>2018-10-26T14:16:20Z</time>
      </trkpt>
      <trkpt lat="43.24153" lon="-0.75526">
        <ele>169.622711</ele>
        <time>2018-10-26T14:16:30Z</time>
      </trkpt>
      <trkpt lat="43.2418" lon="-0.75516">
        <ele>168.406876</ele>
        <time>2018-10-26T14:16:38Z</time>
      </trkpt>
      <trkpt lat="43.24224" lon="-0.75519">
        <ele>167.764572</ele>
        <time>2018-10-26T14:16:47Z</time>
      </trkpt>
      <trkpt lat="43.2425" lon="-0.75533">
        <ele>168.202499</ele>
        <time>2018-10-26T14:16:52Z</time>
      </trkpt>
      <trkpt lat="43.24267" lon="-0.75559">
        <ele>170.544998</ele>
        <time>2018-10-26T14:16:56Z</time>
      </trkpt>
      <trkpt lat="43.2428" lon="-0.75562">
        <ele>171.264999</ele>
        <time>2018-10-26T14:17:00Z</time>
      </trkpt>
      <trkpt lat="43.24298" lon="-0.75554">
        <ele>171.532501</ele>
        <time>2018-10-26T14:17:05Z</time>
      </trkpt>
      <trkpt lat="43.2431" lon="-0.75562">
        <ele>172.850006</ele>
        <time>2018-10-26T14:17:09Z</time>
      </trkpt>
      <trkpt lat="43.24325" lon="-0.75563">
        <ele>173.850006</ele>
        <time>2018-10-26T14:17:13Z</time>
      </trkpt>
      <trkpt lat="43.24337" lon="-0.75553">
        <ele>173.979996</ele>
        <time>2018-10-26T14:17:18Z</time>
      </trkpt>
      <trkpt lat="43.2435" lon="-0.75553">
        <ele>174.727493</ele>
        <time>2018-10-26T14:17:23Z</time>
      </trkpt>
      <trkpt lat="43.24375" lon="-0.75584">
        <ele>178.425003</ele>
        <time>2018-10-26T14:17:36Z</time>
      </trkpt>
      <trkpt lat="43.24396" lon="-0.75568">
        <ele>178.805893</ele>
        <time>2018-10-26T14:17:45Z</time>
      </trkpt>
      <trkpt lat="43.24411" lon="-0.75561">
        <ele>179.516998</ele>
        <time>2018-10-26T14:17:49Z</time>
      </trkpt>
      <trkpt lat="43.24431" lon="-0.75556">
        <ele>180.798752</ele>
        <time>2018-10-26T14:17:54Z</time>
      </trkpt>
      <trkpt lat="43.24501" lon="-0.7559">
        <ele>185.480621</ele>
        <time>2018-10-26T14:18:08Z</time>
      </trkpt>
      <trkpt lat="43.24516" lon="-0.75608">
        <ele>186.951248</ele>
        <time>2018-10-26T14:18:12Z</time>
      </trkpt>
      <trkpt lat="43.2454" lon="-0.75629">
        <ele>188.172501</ele>
        <time>2018-10-26T14:18:16Z</time>
      </trkpt>
      <trkpt lat="43.24544" lon="-0.75658">
        <ele>189.247498</ele>
        <time>2018-10-26T14:18:20Z</time>
      </trkpt>
      <trkpt lat="43.2455" lon="-0.75685">
        <ele>190.200333</ele>
        <time>2018-10-26T14:18:24Z</time>
      </trkpt>
      <trkpt lat="43.2456" lon="-0.75714">
        <ele>191.410904</ele>
        <time>2018-10-26T14:18:28Z</time>
      </trkpt>
      <trkpt lat="43.24583" lon="-0.75731">
        <ele>192.463745</ele>
        <time>2018-10-26T14:18:32Z</time>
      </trkpt>
      <trkpt lat="43.24622" lon="-0.75769">
        <ele>195.1474</ele>
        <time>2018-10-26T14:18:41Z</time>
      </trkpt>
      <trkpt lat="43.2465" lon="-0.75804">
        <ele>198.371475</ele>
        <time>2018-10-26T14:18:50Z</time>
      </trkpt>
      <trkpt lat="43.24661" lon="-0.75815">
        <ele>199.192886</ele>
        <time>2018-10-26T14:18:54Z</time>
      </trkpt>
      <trkpt lat="43.24678" lon="-0.75822">
        <ele>200.032486</ele>
        <time>2018-10-26T14:18:58Z</time>
      </trkpt>
      <trkpt lat="43.24693" lon="-0.75836">
        <ele>201.332504</ele>
        <time>2018-10-26T14:19:02Z</time>
      </trkpt>
      <trkpt lat="43.24724" lon="-0.75882">
        <ele>203.24736</ele>
        <time>2018-10-26T14:19:10Z</time>
      </trkpt>
      <trkpt lat="43.2474" lon="-0.75901">
        <ele>203.231873</ele>
        <time>2018-10-26T14:19:14Z</time>
      </trkpt>
      <trkpt lat="43.24754" lon="-0.75922">
        <ele>202.632507</ele>
        <time>2018-10-26T14:19:19Z</time>
      </trkpt>
      <trkpt lat="43.24769" lon="-0.7596">
        <ele>202.126251</ele>
        <time>2018-10-26T14:19:27Z</time>
      </trkpt>
      <trkpt lat="43.24782" lon="-0.75985">
        <ele>201.324997</ele>
        <time>2018-10-26T14:19:32Z</time>
      </trkpt>
      <trkpt lat="43.24805" lon="-0.75993">
        <ele>198.848053</ele>
        <time>2018-10-26T14:19:37Z</time>
      </trkpt>
      <trkpt lat="43.24849" lon="-0.76049">
        <ele>191.768204</ele>
        <time>2018-10-26T14:19:46Z</time>
      </trkpt>
      <trkpt lat="43.24863" lon="-0.76073">
        <ele>188.543839</ele>
        <time>2018-10-26T14:19:50Z</time>
      </trkpt>
      <trkpt lat="43.24872" lon="-0.76095">
        <ele>185.236603</ele>
        <time>2018-10-26T14:19:54Z</time>
      </trkpt>
      <trkpt lat="43.24898" lon="-0.76131">
        <ele>176.776779</ele>
        <time>2018-10-26T14:20:02Z</time>
      </trkpt>
      <trkpt lat="43.24918" lon="-0.76149">
        <ele>171.04155</ele>
        <time>2018-10-26T14:20:13Z</time>
      </trkpt>
      <trkpt lat="43.24924" lon="-0.76168">
        <ele>168.668121</ele>
        <time>2018-10-26T14:20:18Z</time>
      </trkpt>
      <trkpt lat="43.24934" lon="-0.76184">
        <ele>164.891693</ele>
        <time>2018-10-26T14:20:22Z</time>
      </trkpt>
      <trkpt lat="43.24935" lon="-0.76199">
        <ele>163.94133</ele>
        <time>2018-10-26T14:20:26Z</time>
      </trkpt>
      <trkpt lat="43.24912" lon="-0.76246">
        <ele>167.003174</ele>
        <time>2018-10-26T14:20:35Z</time>
      </trkpt>
      <trkpt lat="43.24913" lon="-0.76264">
        <ele>164.734024</ele>
        <time>2018-10-26T14:20:39Z</time>
      </trkpt>
      <trkpt lat="43.24898" lon="-0.76295">
        <ele>163.180374</ele>
        <time>2018-10-26T14:20:44Z</time>
      </trkpt>
      <trkpt lat="43.24886" lon="-0.76316">
        <ele>166.582977</ele>
        <time>2018-10-26T14:20:48Z</time>
      </trkpt>
      <trkpt lat="43.24878" lon="-0.76342">
        <ele>167.789078</ele>
        <time>2018-10-26T14:20:53Z</time>
      </trkpt>
      <trkpt lat="43.2487" lon="-0.76361">
        <ele>168.451279</ele>
        <time>2018-10-26T14:20:58Z</time>
      </trkpt>
      <trkpt lat="43.2487" lon="-0.76373">
        <ele>168.869492</ele>
        <time>2018-10-26T14:21:03Z</time>
      </trkpt>
      <trkpt lat="43.24882" lon="-0.76367">
        <ele>166.287506</ele>
        <time>2018-10-26T14:21:08Z</time>
      </trkpt>
      <trkpt lat="43.24894" lon="-0.76355">
        <ele>163.58754</ele>
        <time>2018-10-26T14:21:12Z</time>
      </trkpt>
      <trkpt lat="43.24948" lon="-0.76316">
        <ele>162.159164</ele>
        <time>2018-10-26T14:21:26Z</time>
      </trkpt>
      <trkpt lat="43.24957" lon="-0.76301">
        <ele>160.972504</ele>
        <time>2018-10-26T14:21:30Z</time>
      </trkpt>
      <trkpt lat="43.24987" lon="-0.76306">
        <ele>161.736343</ele>
        <time>2018-10-26T14:21:34Z</time>
      </trkpt>
      <trkpt lat="43.25002" lon="-0.76323">
        <ele>161.700714</ele>
        <time>2018-10-26T14:21:38Z</time>
      </trkpt>
      <trkpt lat="43.25007" lon="-0.76348">
        <ele>162.130814</ele>
        <time>2018-10-26T14:21:42Z</time>
      </trkpt>
      <trkpt lat="43.25017" lon="-0.76375">
        <ele>161.691605</ele>
        <time>2018-10-26T14:21:46Z</time>
      </trkpt>
      <trkpt lat="43.25031" lon="-0.76438">
        <ele>160.6577</ele>
        <time>2018-10-26T14:21:55Z</time>
      </trkpt>
      <trkpt lat="43.25033" lon="-0.7646">
        <ele>160.116028</ele>
        <time>2018-10-26T14:22:00Z</time>
      </trkpt>
      <trkpt lat="43.2503" lon="-0.76475">
        <ele>160.651749</ele>
        <time>2018-10-26T14:22:04Z</time>
      </trkpt>
      <trkpt lat="43.25025" lon="-0.76482">
        <ele>161.817703</ele>
        <time>2018-10-26T14:22:08Z</time>
      </trkpt>
      <trkpt lat="43.25013" lon="-0.76515">
        <ele>165.336716</ele>
        <time>2018-10-26T14:22:16Z</time>
      </trkpt>
      <trkpt lat="43.25003" lon="-0.76524">
        <ele>168.512772</ele>
        <time>2018-10-26T14:22:20Z</time>
      </trkpt>
      <trkpt lat="43.24993" lon="-0.76521">
        <ele>171.091141</ele>
        <time>2018-10-26T14:22:24Z</time>
      </trkpt>
      <trkpt lat="43.2498" lon="-0.76509">
        <ele>174.049652</ele>
        <time>2018-10-26T14:22:29Z</time>
      </trkpt>
      <trkpt lat="43.24969" lon="-0.76463">
        <ele>174.121765</ele>
        <time>2018-10-26T14:22:38Z</time>
      </trkpt>
      <trkpt lat="43.2496" lon="-0.76451">
        <ele>175.094574</ele>
        <time>2018-10-26T14:22:42Z</time>
      </trkpt>
      <trkpt lat="43.24934" lon="-0.76448">
        <ele>178.583969</ele>
        <time>2018-10-26T14:22:50Z</time>
      </trkpt>
      <trkpt lat="43.24923" lon="-0.76457">
        <ele>180.231369</ele>
        <time>2018-10-26T14:22:54Z</time>
      </trkpt>
      <trkpt lat="43.24921" lon="-0.76472">
        <ele>182.3284</ele>
        <time>2018-10-26T14:22:58Z</time>
      </trkpt>
      <trkpt lat="43.24924" lon="-0.76492">
        <ele>184.556244</ele>
        <time>2018-10-26T14:23:03Z</time>
      </trkpt>
      <trkpt lat="43.24938" lon="-0.7654">
        <ele>188.122498</ele>
        <time>2018-10-26T14:23:12Z</time>
      </trkpt>
      <trkpt lat="43.24944" lon="-0.76569">
        <ele>190.905884</ele>
        <time>2018-10-26T14:23:17Z</time>
      </trkpt>
      <trkpt lat="43.24945" lon="-0.76592">
        <ele>194.408142</ele>
        <time>2018-10-26T14:23:21Z</time>
      </trkpt>
      <trkpt lat="43.24951" lon="-0.76612">
        <ele>195.439926</ele>
        <time>2018-10-26T14:23:25Z</time>
      </trkpt>
      <trkpt lat="43.24955" lon="-0.76638">
        <ele>196.932419</ele>
        <time>2018-10-26T14:23:29Z</time>
      </trkpt>
      <trkpt lat="43.24955" lon="-0.76664">
        <ele>199.458969</ele>
        <time>2018-10-26T14:23:33Z</time>
      </trkpt>
      <trkpt lat="43.2495" lon="-0.76722">
        <ele>202.659698</ele>
        <time>2018-10-26T14:23:42Z</time>
      </trkpt>
      <trkpt lat="43.24932" lon="-0.76799">
        <ele>204.890778</ele>
        <time>2018-10-26T14:23:54Z</time>
      </trkpt>
      <trkpt lat="43.24935" lon="-0.76835">
        <ele>202.406784</ele>
        <time>2018-10-26T14:23:59Z</time>
      </trkpt>
      <trkpt lat="43.24931" lon="-0.76859">
        <ele>202.096603</ele>
        <time>2018-10-26T14:24:03Z</time>
      </trkpt>
      <trkpt lat="43.24911" lon="-0.76917">
        <ele>203.555466</ele>
        <time>2018-10-26T14:24:12Z</time>
      </trkpt>
      <trkpt lat="43.24908" lon="-0.76944">
        <ele>205.126877</ele>
        <time>2018-10-26T14:24:16Z</time>
      </trkpt>
      <trkpt lat="43.24901" lon="-0.76971">
        <ele>207.273758</ele>
        <time>2018-10-26T14:24:20Z</time>
      </trkpt>
      <trkpt lat="43.24865" lon="-0.76986">
        <ele>209.829681</ele>
        <time>2018-10-26T14:24:25Z</time>
      </trkpt>
      <trkpt lat="43.24825" lon="-0.76992">
        <ele>207.996872</ele>
        <time>2018-10-26T14:24:29Z</time>
      </trkpt>
      <trkpt lat="43.24733" lon="-0.76959">
        <ele>195.100281</ele>
        <time>2018-10-26T14:24:38Z</time>
      </trkpt>
      <trkpt lat="43.24687" lon="-0.76956">
        <ele>186.997696</ele>
        <time>2018-10-26T14:24:42Z</time>
      </trkpt>
      <trkpt lat="43.24657" lon="-0.76969">
        <ele>182.574265</ele>
        <time>2018-10-26T14:24:46Z</time>
      </trkpt>
      <trkpt lat="43.24596" lon="-0.77044">
        <ele>192.560379</ele>
        <time>2018-10-26T14:24:58Z</time>
      </trkpt>
      <trkpt lat="43.24585" lon="-0.77055">
        <ele>194.754303</ele>
        <time>2018-10-26T14:25:02Z</time>
      </trkpt>
      <trkpt lat="43.2457" lon="-0.7708">
        <ele>197.308197</ele>
        <time>2018-10-26T14:25:10Z</time>
      </trkpt>
      <trkpt lat="43.24559" lon="-0.77091">
        <ele>198.135696</ele>
        <time>2018-10-26T14:25:14Z</time>
      </trkpt>
      <trkpt lat="43.24542" lon="-0.77101">
        <ele>199.051895</ele>
        <time>2018-10-26T14:25:19Z</time>
      </trkpt>
      <trkpt lat="43.24525" lon="-0.77092">
        <ele>201.779861</ele>
        <time>2018-10-26T14:25:24Z</time>
      </trkpt>
      <trkpt lat="43.24514" lon="-0.77077">
        <ele>203.759323</ele>
        <time>2018-10-26T14:25:32Z</time>
      </trkpt>
      <trkpt lat="43.245" lon="-0.77052">
        <ele>206.427505</ele>
        <time>2018-10-26T14:25:40Z</time>
      </trkpt>
      <trkpt lat="43.24488" lon="-0.77038">
        <ele>208.449646</ele>
        <time>2018-10-26T14:25:44Z</time>
      </trkpt>
      <trkpt lat="43.24474" lon="-0.77028">
        <ele>210.600845</ele>
        <time>2018-10-26T14:25:48Z</time>
      </trkpt>
      <trkpt lat="43.24457" lon="-0.77021">
        <ele>212.56192</ele>
        <time>2018-10-26T14:25:52Z</time>
      </trkpt>
      <trkpt lat="43.24439" lon="-0.77019">
        <ele>214.310623</ele>
        <time>2018-10-26T14:25:56Z</time>
      </trkpt>
      <trkpt lat="43.24429" lon="-0.77012">
        <ele>215.860779</ele>
        <time>2018-10-26T14:26:01Z</time>
      </trkpt>
      <trkpt lat="43.24431" lon="-0.77002">
        <ele>216.679306</ele>
        <time>2018-10-26T14:26:05Z</time>
      </trkpt>
      <trkpt lat="43.24446" lon="-0.76985">
        <ele>216.867905</ele>
        <time>2018-10-26T14:26:14Z</time>
      </trkpt>
      <trkpt lat="43.24448" lon="-0.76973">
        <ele>217.842575</ele>
        <time>2018-10-26T14:26:18Z</time>
      </trkpt>
      <trkpt lat="43.24463" lon="-0.76939">
        <ele>220.361816</ele>
        <time>2018-10-26T14:26:31Z</time>
      </trkpt>
      <trkpt lat="43.24473" lon="-0.76847">
        <ele>230.542694</ele>
        <time>2018-10-26T14:27:01Z</time>
      </trkpt>
      <trkpt lat="43.2448" lon="-0.76832">
        <ele>231.520004</ele>
        <time>2018-10-26T14:27:05Z</time>
      </trkpt>
      <trkpt lat="43.24486" lon="-0.76785">
        <ele>235.613632</ele>
        <time>2018-10-26T14:27:19Z</time>
      </trkpt>
      <trkpt lat="43.24474" lon="-0.76769">
        <ele>238.133743</ele>
        <time>2018-10-26T14:27:33Z</time>
      </trkpt>
      <trkpt lat="43.24465" lon="-0.76766">
        <ele>238.947495</ele>
        <time>2018-10-26T14:27:37Z</time>
      </trkpt>
      <trkpt lat="43.24459" lon="-0.76755">
        <ele>239.919998</ele>
        <time>2018-10-26T14:27:42Z</time>
      </trkpt>
      <trkpt lat="43.24464" lon="-0.76701">
        <ele>241.130081</ele>
        <time>2018-10-26T14:27:55Z</time>
      </trkpt>
      <trkpt lat="43.24457" lon="-0.76697">
        <ele>241.845963</ele>
        <time>2018-10-26T14:27:59Z</time>
      </trkpt>
      <trkpt lat="43.24455" lon="-0.76686">
        <ele>242.225266</ele>
        <time>2018-10-26T14:28:04Z</time>
      </trkpt>
      <trkpt lat="43.24461" lon="-0.7666">
        <ele>241.937912</ele>
        <time>2018-10-26T14:28:12Z</time>
      </trkpt>
      <trkpt lat="43.24464" lon="-0.76638">
        <ele>241.758301</ele>
        <time>2018-10-26T14:28:17Z</time>
      </trkpt>
      <trkpt lat="43.24468" lon="-0.76624">
        <ele>241.203232</ele>
        <time>2018-10-26T14:28:21Z</time>
      </trkpt>
      <trkpt lat="43.24473" lon="-0.7659">
        <ele>240.31546</ele>
        <time>2018-10-26T14:28:26Z</time>
      </trkpt>
      <trkpt lat="43.24486" lon="-0.76544">
        <ele>238.085617</ele>
        <time>2018-10-26T14:28:34Z</time>
      </trkpt>
      <trkpt lat="43.24487" lon="-0.76522">
        <ele>237.498825</ele>
        <time>2018-10-26T14:28:39Z</time>
      </trkpt>
      <trkpt lat="43.24481" lon="-0.76506">
        <ele>237.414063</ele>
        <time>2018-10-26T14:28:44Z</time>
      </trkpt>
      <trkpt lat="43.24481" lon="-0.76495">
        <ele>236.827515</ele>
        <time>2018-10-26T14:28:48Z</time>
      </trkpt>
      <trkpt lat="43.24484" lon="-0.76482">
        <ele>235.755478</ele>
        <time>2018-10-26T14:28:52Z</time>
      </trkpt>
      <trkpt lat="43.24485" lon="-0.76465">
        <ele>234.787125</ele>
        <time>2018-10-26T14:28:56Z</time>
      </trkpt>
      <trkpt lat="43.24494" lon="-0.76448">
        <ele>232.251465</ele>
        <time>2018-10-26T14:29:00Z</time>
      </trkpt>
      <trkpt lat="43.24501" lon="-0.76407">
        <ele>227.983414</ele>
        <time>2018-10-26T14:29:09Z</time>
      </trkpt>
      <trkpt lat="43.24477" lon="-0.76425">
        <ele>230.358978</ele>
        <time>2018-10-26T14:29:23Z</time>
      </trkpt>
      <trkpt lat="43.24469" lon="-0.76435">
        <ele>232.083893</ele>
        <time>2018-10-26T14:29:28Z</time>
      </trkpt>
      <trkpt lat="43.24458" lon="-0.76443">
        <ele>233.883347</ele>
        <time>2018-10-26T14:29:32Z</time>
      </trkpt>
      <trkpt lat="43.24442" lon="-0.76447">
        <ele>235.373123</ele>
        <time>2018-10-26T14:29:36Z</time>
      </trkpt>
      <trkpt lat="43.24429" lon="-0.76444">
        <ele>235.648743</ele>
        <time>2018-10-26T14:29:40Z</time>
      </trkpt>
      <trkpt lat="43.24414" lon="-0.76437">
        <ele>235.102493</ele>
        <time>2018-10-26T14:29:48Z</time>
      </trkpt>
      <trkpt lat="43.24397" lon="-0.76416">
        <ele>233.089386</ele>
        <time>2018-10-26T14:30:02Z</time>
      </trkpt>
      <trkpt lat="43.24394" lon="-0.76407">
        <ele>231.951996</ele>
        <time>2018-10-26T14:30:06Z</time>
      </trkpt>
      <trkpt lat="43.24381" lon="-0.76384">
        <ele>230.358749</ele>
        <time>2018-10-26T14:30:14Z</time>
      </trkpt>
      <trkpt lat="43.24375" lon="-0.76368">
        <ele>228.504379</ele>
        <time>2018-10-26T14:30:18Z</time>
      </trkpt>
      <trkpt lat="43.24363" lon="-0.76303">
        <ele>220.190308</ele>
        <time>2018-10-26T14:30:27Z</time>
      </trkpt>
      <trkpt lat="43.24342" lon="-0.76281">
        <ele>219.266586</ele>
        <time>2018-10-26T14:30:35Z</time>
      </trkpt>
      <trkpt lat="43.24333" lon="-0.76278">
        <ele>219.751266</ele>
        <time>2018-10-26T14:30:39Z</time>
      </trkpt>
      <trkpt lat="43.24324" lon="-0.76269">
        <ele>219.056808</ele>
        <time>2018-10-26T14:30:43Z</time>
      </trkpt>
      <trkpt lat="43.24314" lon="-0.76261">
        <ele>218.859131</ele>
        <time>2018-10-26T14:30:47Z</time>
      </trkpt>
      <trkpt lat="43.24297" lon="-0.76241">
        <ele>216.909317</ele>
        <time>2018-10-26T14:30:52Z</time>
      </trkpt>
      <trkpt lat="43.2427" lon="-0.76179">
        <ele>209.456818</ele>
        <time>2018-10-26T14:31:01Z</time>
      </trkpt>
      <trkpt lat="43.24258" lon="-0.76164">
        <ele>207.600021</ele>
        <time>2018-10-26T14:31:06Z</time>
      </trkpt>
      <trkpt lat="43.24256" lon="-0.76174">
        <ele>209.201416</ele>
        <time>2018-10-26T14:31:10Z</time>
      </trkpt>
      <trkpt lat="43.24247" lon="-0.76191">
        <ele>211.968781</ele>
        <time>2018-10-26T14:31:15Z</time>
      </trkpt>
      <trkpt lat="43.24238" lon="-0.76197">
        <ele>213.313065</ele>
        <time>2018-10-26T14:31:19Z</time>
      </trkpt>
      <trkpt lat="43.24229" lon="-0.76195">
        <ele>213.301956</ele>
        <time>2018-10-26T14:31:24Z</time>
      </trkpt>
      <trkpt lat="43.24191" lon="-0.762">
        <ele>214.392853</ele>
        <time>2018-10-26T14:31:36Z</time>
      </trkpt>
      <trkpt lat="43.24163" lon="-0.7621">
        <ele>214.502502</ele>
        <time>2018-10-26T14:31:44Z</time>
      </trkpt>
      <trkpt lat="43.24155" lon="-0.76196">
        <ele>211.87149</ele>
        <time>2018-10-26T14:31:48Z</time>
      </trkpt>
      <trkpt lat="43.24126" lon="-0.76132">
        <ele>201.398529</ele>
        <time>2018-10-26T14:32:02Z</time>
      </trkpt>
      <trkpt lat="43.24115" lon="-0.76082">
        <ele>197.109726</ele>
        <time>2018-10-26T14:32:10Z</time>
      </trkpt>
      <trkpt lat="43.24096" lon="-0.76083">
        <ele>197.672195</ele>
        <time>2018-10-26T14:32:15Z</time>
      </trkpt>
      <trkpt lat="43.24084" lon="-0.76093">
        <ele>198.618286</ele>
        <time>2018-10-26T14:32:20Z</time>
      </trkpt>
      <trkpt lat="43.24076" lon="-0.76103">
        <ele>199.367188</ele>
        <time>2018-10-26T14:32:24Z</time>
      </trkpt>
      <trkpt lat="43.24061" lon="-0.76105">
        <ele>199.512375</ele>
        <time>2018-10-26T14:32:28Z</time>
      </trkpt>
      <trkpt lat="43.2404" lon="-0.76102">
        <ele>199.458755</ele>
        <time>2018-10-26T14:32:32Z</time>
      </trkpt>
      <trkpt lat="43.23982" lon="-0.76067">
        <ele>197.249008</ele>
        <time>2018-10-26T14:32:45Z</time>
      </trkpt>
      <trkpt lat="43.23966" lon="-0.76049">
        <ele>196.040421</ele>
        <time>2018-10-26T14:32:50Z</time>
      </trkpt>
      <trkpt lat="43.23965" lon="-0.76037">
        <ele>195.378906</ele>
        <time>2018-10-26T14:32:54Z</time>
      </trkpt>
      <trkpt lat="43.23944" lon="-0.76011">
        <ele>193.704742</ele>
        <time>2018-10-26T14:33:03Z</time>
      </trkpt>
      <trkpt lat="43.23902" lon="-0.7598">
        <ele>191.099289</ele>
        <time>2018-10-26T14:33:17Z</time>
      </trkpt>
      <trkpt lat="43.23887" lon="-0.75961">
        <ele>189.883636</ele>
        <time>2018-10-26T14:33:21Z</time>
      </trkpt>
      <trkpt lat="43.23859" lon="-0.75946">
        <ele>188.697708</ele>
        <time>2018-10-26T14:33:29Z</time>
      </trkpt>
      <trkpt lat="43.23853" lon="-0.75939">
        <ele>188.400116</ele>
        <time>2018-10-26T14:33:36Z</time>
      </trkpt>
      <trkpt lat="43.23836" lon="-0.75939">
        <ele>188.040176</ele>
        <time>2018-10-26T14:33:41Z</time>
      </trkpt>
      <trkpt lat="43.23793" lon="-0.75922">
        <ele>186.601257</ele>
        <time>2018-10-26T14:33:50Z</time>
      </trkpt>
      <trkpt lat="43.23769" lon="-0.75907">
        <ele>185.366669</ele>
        <time>2018-10-26T14:33:54Z</time>
      </trkpt>
      <trkpt lat="43.23714" lon="-0.75849">
        <ele>182.468002</ele>
        <time>2018-10-26T14:34:03Z</time>
      </trkpt>
      <trkpt lat="43.2371" lon="-0.75823">
        <ele>181.495834</ele>
        <time>2018-10-26T14:34:07Z</time>
      </trkpt>
      <trkpt lat="43.2371" lon="-0.75795">
        <ele>180.544998</ele>
        <time>2018-10-26T14:34:12Z</time>
      </trkpt>
      <trkpt lat="43.23698" lon="-0.75777">
        <ele>180.057434</ele>
        <time>2018-10-26T14:34:16Z</time>
      </trkpt>
      <trkpt lat="43.23685" lon="-0.75738">
        <ele>179.206253</ele>
        <time>2018-10-26T14:34:21Z</time>
      </trkpt>
      <trkpt lat="43.23685" lon="-0.75694">
        <ele>177.818756</ele>
        <time>2018-10-26T14:34:26Z</time>
      </trkpt>
      <trkpt lat="43.2368" lon="-0.75644">
        <ele>176.339996</ele>
        <time>2018-10-26T14:34:31Z</time>
      </trkpt>
      <trkpt lat="43.23672" lon="-0.75618">
        <ele>175.69368</ele>
        <time>2018-10-26T14:34:35Z</time>
      </trkpt>
      <trkpt lat="43.23655" lon="-0.75603">
        <ele>175.554901</ele>
        <time>2018-10-26T14:34:39Z</time>
      </trkpt>
      <trkpt lat="43.2363" lon="-0.75572">
        <ele>174.636429</ele>
        <time>2018-10-26T14:34:43Z</time>
      </trkpt>
      <trkpt lat="43.23601" lon="-0.7555">
        <ele>174.900436</ele>
        <time>2018-10-26T14:34:48Z</time>
      </trkpt>
      <trkpt lat="43.23569" lon="-0.75537">
        <ele>176.41745</ele>
        <time>2018-10-26T14:34:53Z</time>
      </trkpt>
      <trkpt lat="43.23543" lon="-0.75485">
        <ele>177.194168</ele>
        <time>2018-10-26T14:35:02Z</time>
      </trkpt>
      <trkpt lat="43.23535" lon="-0.75478">
        <ele>177.24086</ele>
        <time>2018-10-26T14:35:07Z</time>
      </trkpt>
      <trkpt lat="43.23516" lon="-0.75471">
        <ele>177.070877</ele>
        <time>2018-10-26T14:35:16Z</time>
      </trkpt>
      <trkpt lat="43.23507" lon="-0.75482">
        <ele>176.975983</ele>
        <time>2018-10-26T14:35:21Z</time>
      </trkpt>
      <trkpt lat="43.23491" lon="-0.7553">
        <ele>177.607956</ele>
        <time>2018-10-26T14:35:30Z</time>
      </trkpt>
      <trkpt lat="43.23475" lon="-0.75554">
        <ele>178.290771</ele>
        <time>2018-10-26T14:35:35Z</time>
      </trkpt>
      <trkpt lat="43.2346" lon="-0.75567">
        <ele>178.694336</ele>
        <time>2018-10-26T14:35:40Z</time>
      </trkpt>
      <trkpt lat="43.23421" lon="-0.75569">
        <ele>179.154892</ele>
        <time>2018-10-26T14:35:49Z</time>
      </trkpt>
      <trkpt lat="43.23374" lon="-0.75568">
        <ele>179.375626</ele>
        <time>2018-10-26T14:35:59Z</time>
      </trkpt>
      <trkpt lat="43.23358" lon="-0.75574">
        <ele>179.486877</ele>
        <time>2018-10-26T14:36:03Z</time>
      </trkpt>
      <trkpt lat="43.2333" lon="-0.75628">
        <ele>179.749756</ele>
        <time>2018-10-26T14:36:16Z</time>
      </trkpt>
      <trkpt lat="43.23316" lon="-0.75631">
        <ele>179.598175</ele>
        <time>2018-10-26T14:36:21Z</time>
      </trkpt>
      <trkpt lat="43.23308" lon="-0.75617">
        <ele>179.291458</ele>
        <time>2018-10-26T14:36:26Z</time>
      </trkpt>
      <trkpt lat="43.23306" lon="-0.75596">
        <ele>179.022446</ele>
        <time>2018-10-26T14:36:31Z</time>
      </trkpt>
      <trkpt lat="43.23293" lon="-0.75557">
        <ele>179.1604</ele>
        <time>2018-10-26T14:36:40Z</time>
      </trkpt>
      <trkpt lat="43.23285" lon="-0.75508">
        <ele>179</ele>
        <time>2018-10-26T14:36:48Z</time>
      </trkpt>
      <trkpt lat="43.23285" lon="-0.75459">
        <ele>179</ele>
        <time>2018-10-26T14:36:57Z</time>
      </trkpt>
      <trkpt lat="43.23277" lon="-0.75422">
        <ele>179</ele>
        <time>2018-10-26T14:37:06Z</time>
      </trkpt>
      <trkpt lat="43.23271" lon="-0.75405">
        <ele>178.977875</ele>
        <time>2018-10-26T14:37:11Z</time>
      </trkpt>
      <trkpt lat="43.23254" lon="-0.75394">
        <ele>179.714508</ele>
        <time>2018-10-26T14:37:16Z</time>
      </trkpt>
      <trkpt lat="43.23242" lon="-0.75381">
        <ele>180.714127</ele>
        <time>2018-10-26T14:37:20Z</time>
      </trkpt>
      <trkpt lat="43.23237" lon="-0.75368">
        <ele>181.317429</ele>
        <time>2018-10-26T14:37:24Z</time>
      </trkpt>
      <trkpt lat="43.23222" lon="-0.75352">
        <ele>182.983749</ele>
        <time>2018-10-26T14:37:29Z</time>
      </trkpt>
      <trkpt lat="43.23208" lon="-0.75343">
        <ele>185.944534</ele>
        <time>2018-10-26T14:37:34Z</time>
      </trkpt>
      <trkpt lat="43.23202" lon="-0.75331">
        <ele>187.093109</ele>
        <time>2018-10-26T14:37:38Z</time>
      </trkpt>
      <trkpt lat="43.23201" lon="-0.75321">
        <ele>187.203003</ele>
        <time>2018-10-26T14:37:42Z</time>
      </trkpt>
      <trkpt lat="43.23203" lon="-0.75286">
        <ele>186.060745</ele>
        <time>2018-10-26T14:37:50Z</time>
      </trkpt>
      <trkpt lat="43.23193" lon="-0.75266">
        <ele>187.135895</ele>
        <time>2018-10-26T14:37:55Z</time>
      </trkpt>
      <trkpt lat="43.23179" lon="-0.75251">
        <ele>188.756973</ele>
        <time>2018-10-26T14:38:00Z</time>
      </trkpt>
      <trkpt lat="43.23152" lon="-0.75236">
        <ele>193.534576</ele>
        <time>2018-10-26T14:38:08Z</time>
      </trkpt>
      <trkpt lat="43.23141" lon="-0.75233">
        <ele>195.528564</ele>
        <time>2018-10-26T14:38:12Z</time>
      </trkpt>
      <trkpt lat="43.23135" lon="-0.75226">
        <ele>196.479675</ele>
        <time>2018-10-26T14:38:16Z</time>
      </trkpt>
      <trkpt lat="43.23132" lon="-0.75206">
        <ele>195.376251</ele>
        <time>2018-10-26T14:38:20Z</time>
      </trkpt>
      <trkpt lat="43.23135" lon="-0.75188">
        <ele>192.981155</ele>
        <time>2018-10-26T14:38:24Z</time>
      </trkpt>
      <trkpt lat="43.23133" lon="-0.75157">
        <ele>190.573013</ele>
        <time>2018-10-26T14:38:33Z</time>
      </trkpt>
      <trkpt lat="43.23127" lon="-0.75143">
        <ele>190.608536</ele>
        <time>2018-10-26T14:38:37Z</time>
      </trkpt>
      <trkpt lat="43.23117" lon="-0.75132">
        <ele>191.661255</ele>
        <time>2018-10-26T14:38:41Z</time>
      </trkpt>
      <trkpt lat="43.23083" lon="-0.75119">
        <ele>197.924942</ele>
        <time>2018-10-26T14:38:56Z</time>
      </trkpt>
      <trkpt lat="43.23052" lon="-0.75096">
        <ele>202.419586</ele>
        <time>2018-10-26T14:39:04Z</time>
      </trkpt>
      <trkpt lat="43.23031" lon="-0.75092">
        <ele>206.709793</ele>
        <time>2018-10-26T14:39:12Z</time>
      </trkpt>
      <trkpt lat="43.23023" lon="-0.75094">
        <ele>208.645081</ele>
        <time>2018-10-26T14:39:16Z</time>
      </trkpt>
      <trkpt lat="43.23012" lon="-0.75075">
        <ele>208.705124</ele>
        <time>2018-10-26T14:39:24Z</time>
      </trkpt>
      <trkpt lat="43.23001" lon="-0.75063">
        <ele>209.315979</ele>
        <time>2018-10-26T14:39:28Z</time>
      </trkpt>
      <trkpt lat="43.22971" lon="-0.75049">
        <ele>212.632797</ele>
        <time>2018-10-26T14:39:37Z</time>
      </trkpt>
      <trkpt lat="43.2296" lon="-0.75049">
        <ele>214.531036</ele>
        <time>2018-10-26T14:39:41Z</time>
      </trkpt>
      <trkpt lat="43.22932" lon="-0.75035">
        <ele>215.995728</ele>
        <time>2018-10-26T14:39:49Z</time>
      </trkpt>
      <trkpt lat="43.22913" lon="-0.7501">
        <ele>215.399292</ele>
        <time>2018-10-26T14:39:57Z</time>
      </trkpt>
      <trkpt lat="43.22902" lon="-0.74987">
        <ele>214.13147</ele>
        <time>2018-10-26T14:40:02Z</time>
      </trkpt>
      <trkpt lat="43.22889" lon="-0.74981">
        <ele>214.865326</ele>
        <time>2018-10-26T14:40:06Z</time>
      </trkpt>
      <trkpt lat="43.22863" lon="-0.74958">
        <ele>214.739594</ele>
        <time>2018-10-26T14:40:16Z</time>
      </trkpt>
      <trkpt lat="43.22849" lon="-0.74957">
        <ele>214.97435</ele>
        <time>2018-10-26T14:40:20Z</time>
      </trkpt>
      <trkpt lat="43.22826" lon="-0.74942">
        <ele>214.283234</ele>
        <time>2018-10-26T14:40:28Z</time>
      </trkpt>
      <trkpt lat="43.22807" lon="-0.74916">
        <ele>211.72998</ele>
        <time>2018-10-26T14:40:36Z</time>
      </trkpt>
      <trkpt lat="43.22799" lon="-0.74892">
        <ele>209.630005</ele>
        <time>2018-10-26T14:40:41Z</time>
      </trkpt>
      <trkpt lat="43.22784" lon="-0.74881">
        <ele>208.137604</ele>
        <time>2018-10-26T14:40:46Z</time>
      </trkpt>
      <trkpt lat="43.22762" lon="-0.74873">
        <ele>206.287857</ele>
        <time>2018-10-26T14:40:51Z</time>
      </trkpt>
      <trkpt lat="43.22749" lon="-0.74862">
        <ele>204.600418</ele>
        <time>2018-10-26T14:40:55Z</time>
      </trkpt>
      <trkpt lat="43.22724" lon="-0.74821">
        <ele>200.2444</ele>
        <time>2018-10-26T14:41:00Z</time>
      </trkpt>
      <trkpt lat="43.22679" lon="-0.74756">
        <ele>194.741837</ele>
        <time>2018-10-26T14:41:09Z</time>
      </trkpt>
      <trkpt lat="43.22672" lon="-0.74704">
        <ele>191.794998</ele>
        <time>2018-10-26T14:41:14Z</time>
      </trkpt>
      <trkpt lat="43.22676" lon="-0.74676">
        <ele>189.960007</ele>
        <time>2018-10-26T14:41:18Z</time>
      </trkpt>
      <trkpt lat="43.22692" lon="-0.74659">
        <ele>188.792496</ele>
        <time>2018-10-26T14:41:22Z</time>
      </trkpt>
      <trkpt lat="43.22686" lon="-0.74652">
        <ele>188.322495</ele>
        <time>2018-10-26T14:41:28Z</time>
      </trkpt>
      <trkpt lat="43.22674" lon="-0.74646">
        <ele>187.992493</ele>
        <time>2018-10-26T14:41:32Z</time>
      </trkpt>
      <trkpt lat="43.22608" lon="-0.74628">
        <ele>188.504379</ele>
        <time>2018-10-26T14:41:44Z</time>
      </trkpt>
      <trkpt lat="43.22584" lon="-0.74604">
        <ele>188.532501</ele>
        <time>2018-10-26T14:41:48Z</time>
      </trkpt>
      <trkpt lat="43.22558" lon="-0.74586">
        <ele>188.902496</ele>
        <time>2018-10-26T14:41:52Z</time>
      </trkpt>
      <trkpt lat="43.2253" lon="-0.74579">
        <ele>189.884384</ele>
        <time>2018-10-26T14:41:56Z</time>
      </trkpt>
      <trkpt lat="43.2251" lon="-0.74586">
        <ele>191.421402</ele>
        <time>2018-10-26T14:42:01Z</time>
      </trkpt>
      <trkpt lat="43.22488" lon="-0.74587">
        <ele>192.910217</ele>
        <time>2018-10-26T14:42:06Z</time>
      </trkpt>
      <trkpt lat="43.22471" lon="-0.7458">
        <ele>193.623871</ele>
        <time>2018-10-26T14:42:10Z</time>
      </trkpt>
      <trkpt lat="43.22451" lon="-0.74579">
        <ele>194.537689</ele>
        <time>2018-10-26T14:42:14Z</time>
      </trkpt>
      <trkpt lat="43.22414" lon="-0.74592">
        <ele>196.057495</ele>
        <time>2018-10-26T14:42:22Z</time>
      </trkpt>
      <trkpt lat="43.22399" lon="-0.74587">
        <ele>195.817505</ele>
        <time>2018-10-26T14:42:26Z</time>
      </trkpt>
      <trkpt lat="43.2238" lon="-0.74574">
        <ele>195.220459</ele>
        <time>2018-10-26T14:42:31Z</time>
      </trkpt>
      <trkpt lat="43.22361" lon="-0.74557">
        <ele>194.814377</ele>
        <time>2018-10-26T14:42:36Z</time>
      </trkpt>
      <trkpt lat="43.22324" lon="-0.7451">
        <ele>194.568344</ele>
        <time>2018-10-26T14:42:44Z</time>
      </trkpt>
      <trkpt lat="43.22303" lon="-0.7448">
        <ele>195.397171</ele>
        <time>2018-10-26T14:42:48Z</time>
      </trkpt>
      <trkpt lat="43.22284" lon="-0.74462">
        <ele>196.692657</ele>
        <time>2018-10-26T14:42:52Z</time>
      </trkpt>
      <trkpt lat="43.22277" lon="-0.7444">
        <ele>197.212204</ele>
        <time>2018-10-26T14:42:56Z</time>
      </trkpt>
      <trkpt lat="43.22265" lon="-0.74418">
        <ele>197.529999</ele>
        <time>2018-10-26T14:43:00Z</time>
      </trkpt>
      <trkpt lat="43.2225" lon="-0.74402">
        <ele>198.042175</ele>
        <time>2018-10-26T14:43:04Z</time>
      </trkpt>
      <trkpt lat="43.22235" lon="-0.74382">
        <ele>198.343597</ele>
        <time>2018-10-26T14:43:08Z</time>
      </trkpt>
      <trkpt lat="43.22225" lon="-0.74354">
        <ele>198.128265</ele>
        <time>2018-10-26T14:43:13Z</time>
      </trkpt>
      <trkpt lat="43.22223" lon="-0.74305">
        <ele>197.135498</ele>
        <time>2018-10-26T14:43:21Z</time>
      </trkpt>
      <trkpt lat="43.22213" lon="-0.74296">
        <ele>197.140961</ele>
        <time>2018-10-26T14:43:26Z</time>
      </trkpt>
      <trkpt lat="43.22205" lon="-0.74296">
        <ele>197.342392</ele>
        <time>2018-10-26T14:43:31Z</time>
      </trkpt>
      <trkpt lat="43.222" lon="-0.74307">
        <ele>197.666061</ele>
        <time>2018-10-26T14:43:36Z</time>
      </trkpt>
      <trkpt lat="43.22196" lon="-0.74332">
        <ele>198.865616</ele>
        <time>2018-10-26T14:43:45Z</time>
      </trkpt>
      <trkpt lat="43.22197" lon="-0.74341">
        <ele>199.190506</ele>
        <time>2018-10-26T14:43:49Z</time>
      </trkpt>
      <trkpt lat="43.22195" lon="-0.74361">
        <ele>200.248825</ele>
        <time>2018-10-26T14:43:54Z</time>
      </trkpt>
      <trkpt lat="43.22184" lon="-0.74399">
        <ele>204.7565</ele>
        <time>2018-10-26T14:44:06Z</time>
      </trkpt>
      <trkpt lat="43.22178" lon="-0.74408">
        <ele>206.73996</ele>
        <time>2018-10-26T14:44:10Z</time>
      </trkpt>
      <trkpt lat="43.22169" lon="-0.74416">
        <ele>209.332504</ele>
        <time>2018-10-26T14:44:15Z</time>
      </trkpt>
      <trkpt lat="43.22163" lon="-0.74412">
        <ele>209.920624</ele>
        <time>2018-10-26T14:44:20Z</time>
      </trkpt>
      <trkpt lat="43.22146" lon="-0.74412">
        <ele>212.778748</ele>
        <time>2018-10-26T14:44:28Z</time>
      </trkpt>
      <trkpt lat="43.22135" lon="-0.74417">
        <ele>215.193756</ele>
        <time>2018-10-26T14:44:33Z</time>
      </trkpt>
      <trkpt lat="43.22127" lon="-0.74418">
        <ele>216.595627</ele>
        <time>2018-10-26T14:44:38Z</time>
      </trkpt>
      <trkpt lat="43.22107" lon="-0.74438">
        <ele>221.05925</ele>
        <time>2018-10-26T14:44:50Z</time>
      </trkpt>
      <trkpt lat="43.22095" lon="-0.74437">
        <ele>221.979126</ele>
        <time>2018-10-26T14:44:54Z</time>
      </trkpt>
      <trkpt lat="43.2207" lon="-0.74427">
        <ele>223.587006</ele>
        <time>2018-10-26T14:45:02Z</time>
      </trkpt>
      <trkpt lat="43.22037" lon="-0.744">
        <ele>224.593124</ele>
        <time>2018-10-26T14:45:15Z</time>
      </trkpt>
      <trkpt lat="43.2203" lon="-0.74391">
        <ele>224.762253</ele>
        <time>2018-10-26T14:45:19Z</time>
      </trkpt>
      <trkpt lat="43.22006" lon="-0.74379">
        <ele>226.827133</ele>
        <time>2018-10-26T14:45:28Z</time>
      </trkpt>
      <trkpt lat="43.21976" lon="-0.74355">
        <ele>229.31633</ele>
        <time>2018-10-26T14:45:41Z</time>
      </trkpt>
      <trkpt lat="43.21964" lon="-0.7435">
        <ele>230.598831</ele>
        <time>2018-10-26T14:45:45Z</time>
      </trkpt>
      <trkpt lat="43.21953" lon="-0.7435">
        <ele>232.310165</ele>
        <time>2018-10-26T14:45:50Z</time>
      </trkpt>
      <trkpt lat="43.21931" lon="-0.74354">
        <ele>236.05571</ele>
        <time>2018-10-26T14:45:59Z</time>
      </trkpt>
      <trkpt lat="43.21922" lon="-0.74362">
        <ele>237.808594</ele>
        <time>2018-10-26T14:46:04Z</time>
      </trkpt>
      <trkpt lat="43.21912" lon="-0.74365">
        <ele>239.292801</ele>
        <time>2018-10-26T14:46:08Z</time>
      </trkpt>
      <trkpt lat="43.21904" lon="-0.7437">
        <ele>240.252197</ele>
        <time>2018-10-26T14:46:12Z</time>
      </trkpt>
      <trkpt lat="43.21878" lon="-0.74376">
        <ele>241.149323</ele>
        <time>2018-10-26T14:46:24Z</time>
      </trkpt>
      <trkpt lat="43.21863" lon="-0.74372">
        <ele>241.80043</ele>
        <time>2018-10-26T14:46:28Z</time>
      </trkpt>
      <trkpt lat="43.21851" lon="-0.74351">
        <ele>242.43454</ele>
        <time>2018-10-26T14:46:36Z</time>
      </trkpt>
      <trkpt lat="43.21851" lon="-0.74289">
        <ele>244.458405</ele>
        <time>2018-10-26T14:46:50Z</time>
      </trkpt>
      <trkpt lat="43.21855" lon="-0.74271">
        <ele>244.479202</ele>
        <time>2018-10-26T14:46:54Z</time>
      </trkpt>
      <trkpt lat="43.21855" lon="-0.74248">
        <ele>244.246429</ele>
        <time>2018-10-26T14:46:58Z</time>
      </trkpt>
      <trkpt lat="43.21844" lon="-0.74234">
        <ele>244.352936</ele>
        <time>2018-10-26T14:47:02Z</time>
      </trkpt>
      <trkpt lat="43.21824" lon="-0.74216">
        <ele>245.125381</ele>
        <time>2018-10-26T14:47:10Z</time>
      </trkpt>
      <trkpt lat="43.21818" lon="-0.742">
        <ele>245.887756</ele>
        <time>2018-10-26T14:47:14Z</time>
      </trkpt>
      <trkpt lat="43.21796" lon="-0.74097">
        <ele>246.882782</ele>
        <time>2018-10-26T14:47:38Z</time>
      </trkpt>
      <trkpt lat="43.2179" lon="-0.74082">
        <ele>247.889694</ele>
        <time>2018-10-26T14:47:42Z</time>
      </trkpt>
      <trkpt lat="43.21789" lon="-0.74068">
        <ele>248.705963</ele>
        <time>2018-10-26T14:47:46Z</time>
      </trkpt>
      <trkpt lat="43.21778" lon="-0.7402">
        <ele>254.594284</ele>
        <time>2018-10-26T14:47:58Z</time>
      </trkpt>
      <trkpt lat="43.21758" lon="-0.73957">
        <ele>263.583069</ele>
        <time>2018-10-26T14:48:21Z</time>
      </trkpt>
      <trkpt lat="43.21757" lon="-0.73946">
        <ele>264.33609</ele>
        <time>2018-10-26T14:48:25Z</time>
      </trkpt>
      <trkpt lat="43.2176" lon="-0.73933">
        <ele>264.271454</ele>
        <time>2018-10-26T14:48:30Z</time>
      </trkpt>
      <trkpt lat="43.21759" lon="-0.73922">
        <ele>265.332184</ele>
        <time>2018-10-26T14:48:34Z</time>
      </trkpt>
      <trkpt lat="43.21749" lon="-0.73902">
        <ele>268.973816</ele>
        <time>2018-10-26T14:48:45Z</time>
      </trkpt>
      <trkpt lat="43.21739" lon="-0.739">
        <ele>272.746307</ele>
        <time>2018-10-26T14:48:50Z</time>
      </trkpt>
      <trkpt lat="43.21725" lon="-0.73903">
        <ele>276.302338</ele>
        <time>2018-10-26T14:48:58Z</time>
      </trkpt>
      <trkpt lat="43.21694" lon="-0.739">
        <ele>282.959351</ele>
        <time>2018-10-26T14:49:12Z</time>
      </trkpt>
      <trkpt lat="43.2165" lon="-0.73915">
        <ele>287.220703</ele>
        <time>2018-10-26T14:49:30Z</time>
      </trkpt>
      <trkpt lat="43.21637" lon="-0.73925">
        <ele>286.528717</ele>
        <time>2018-10-26T14:49:35Z</time>
      </trkpt>
      <trkpt lat="43.21605" lon="-0.73937">
        <ele>285.999573</ele>
        <time>2018-10-26T14:49:40Z</time>
      </trkpt>
      <trkpt lat="43.21587" lon="-0.7394">
        <ele>285.489746</ele>
        <time>2018-10-26T14:49:45Z</time>
      </trkpt>
      <trkpt lat="43.21505" lon="-0.74019">
        <ele>273.157013</ele>
        <time>2018-10-26T14:50:02Z</time>
      </trkpt>
      <trkpt lat="43.21467" lon="-0.74041">
        <ele>268.926331</ele>
        <time>2018-10-26T14:50:10Z</time>
      </trkpt>
      <trkpt lat="43.21438" lon="-0.74045">
        <ele>267.449585</ele>
        <time>2018-10-26T14:50:18Z</time>
      </trkpt>
      <trkpt lat="43.21417" lon="-0.74041">
        <ele>266.76886</ele>
        <time>2018-10-26T14:50:28Z</time>
      </trkpt>
      <trkpt lat="43.21414" lon="-0.74031">
        <ele>266.58783</ele>
        <time>2018-10-26T14:52:35Z</time>
      </trkpt>
      <trkpt lat="43.21416" lon="-0.7402">
        <ele>266.638214</ele>
        <time>2018-10-26T14:52:47Z</time>
      </trkpt>
      <trkpt lat="43.21444" lon="-0.73956">
        <ele>269.141541</ele>
        <time>2018-10-26T14:53:05Z</time>
      </trkpt>
      <trkpt lat="43.21453" lon="-0.73944">
        <ele>271.447601</ele>
        <time>2018-10-26T14:53:09Z</time>
      </trkpt>
      <trkpt lat="43.21473" lon="-0.73886">
        <ele>278.322693</ele>
        <time>2018-10-26T14:53:23Z</time>
      </trkpt>
      <trkpt lat="43.2148" lon="-0.73852">
        <ele>281.018127</ele>
        <time>2018-10-26T14:53:31Z</time>
      </trkpt>
      <trkpt lat="43.21485" lon="-0.7384">
        <ele>281.480713</ele>
        <time>2018-10-26T14:53:35Z</time>
      </trkpt>
      <trkpt lat="43.21493" lon="-0.73829">
        <ele>281.169006</ele>
        <time>2018-10-26T14:53:39Z</time>
      </trkpt>
      <trkpt lat="43.21505" lon="-0.7382">
        <ele>281.700012</ele>
        <time>2018-10-26T14:53:44Z</time>
      </trkpt>
      <trkpt lat="43.21523" lon="-0.73812">
        <ele>283.052612</ele>
        <time>2018-10-26T14:53:49Z</time>
      </trkpt>
      <trkpt lat="43.21557" lon="-0.73791">
        <ele>284.996338</ele>
        <time>2018-10-26T14:53:58Z</time>
      </trkpt>
      <trkpt lat="43.21573" lon="-0.73773">
        <ele>285.556366</ele>
        <time>2018-10-26T14:54:02Z</time>
      </trkpt>
      <trkpt lat="43.21597" lon="-0.73719">
        <ele>285.84726</ele>
        <time>2018-10-26T14:54:11Z</time>
      </trkpt>
      <trkpt lat="43.21611" lon="-0.73654">
        <ele>285.476532</ele>
        <time>2018-10-26T14:54:21Z</time>
      </trkpt>
      <trkpt lat="43.21644" lon="-0.73612">
        <ele>285.444489</ele>
        <time>2018-10-26T14:54:30Z</time>
      </trkpt>
      <trkpt lat="43.2166" lon="-0.73557">
        <ele>284.23584</ele>
        <time>2018-10-26T14:54:38Z</time>
      </trkpt>
      <trkpt lat="43.21662" lon="-0.73493">
        <ele>282.90329</ele>
        <time>2018-10-26T14:54:46Z</time>
      </trkpt>
      <trkpt lat="43.21671" lon="-0.73421">
        <ele>282.421631</ele>
        <time>2018-10-26T14:54:56Z</time>
      </trkpt>
      <trkpt lat="43.21672" lon="-0.73299">
        <ele>281.320099</ele>
        <time>2018-10-26T14:55:08Z</time>
      </trkpt>
      <trkpt lat="43.21677" lon="-0.73257">
        <ele>280.526337</ele>
        <time>2018-10-26T14:55:12Z</time>
      </trkpt>
      <trkpt lat="43.21685" lon="-0.73221">
        <ele>280.886322</ele>
        <time>2018-10-26T14:55:16Z</time>
      </trkpt>
      <trkpt lat="43.21695" lon="-0.73193">
        <ele>282.191589</ele>
        <time>2018-10-26T14:55:20Z</time>
      </trkpt>
      <trkpt lat="43.21708" lon="-0.73169">
        <ele>283.875214</ele>
        <time>2018-10-26T14:55:24Z</time>
      </trkpt>
      <trkpt lat="43.21727" lon="-0.73148">
        <ele>284.88562</ele>
        <time>2018-10-26T14:55:29Z</time>
      </trkpt>
      <trkpt lat="43.21758" lon="-0.73123">
        <ele>285.981201</ele>
        <time>2018-10-26T14:55:38Z</time>
      </trkpt>
      <trkpt lat="43.21771" lon="-0.73122">
        <ele>285.999573</ele>
        <time>2018-10-26T14:55:42Z</time>
      </trkpt>
      <trkpt lat="43.21792" lon="-0.73117">
        <ele>285.975983</ele>
        <time>2018-10-26T14:55:47Z</time>
      </trkpt>
      <trkpt lat="43.21812" lon="-0.73106">
        <ele>286.061615</ele>
        <time>2018-10-26T14:55:51Z</time>
      </trkpt>
      <trkpt lat="43.2187" lon="-0.73067">
        <ele>286.991241</ele>
        <time>2018-10-26T14:56:08Z</time>
      </trkpt>
      <trkpt lat="43.21888" lon="-0.73044">
        <ele>286.257507</ele>
        <time>2018-10-26T14:56:16Z</time>
      </trkpt>
      <trkpt lat="43.21897" lon="-0.73027">
        <ele>285.659454</ele>
        <time>2018-10-26T14:56:21Z</time>
      </trkpt>
      <trkpt lat="43.21899" lon="-0.72994">
        <ele>284.657471</ele>
        <time>2018-10-26T14:56:29Z</time>
      </trkpt>
      <trkpt lat="43.21895" lon="-0.72974">
        <ele>284.491089</ele>
        <time>2018-10-26T14:56:34Z</time>
      </trkpt>
      <trkpt lat="43.21887" lon="-0.7297">
        <ele>284.550018</ele>
        <time>2018-10-26T14:56:38Z</time>
      </trkpt>
      <trkpt lat="43.21868" lon="-0.72974">
        <ele>284.817719</ele>
        <time>2018-10-26T14:57:00Z</time>
      </trkpt>
      <trkpt lat="43.21851" lon="-0.72992">
        <ele>284.999023</ele>
        <time>2018-10-26T14:57:10Z</time>
      </trkpt>
      <trkpt lat="43.21815" lon="-0.73038">
        <ele>285.426239</ele>
        <time>2018-10-26T14:57:19Z</time>
      </trkpt>
      <trkpt lat="43.21801" lon="-0.73045">
        <ele>285.339996</ele>
        <time>2018-10-26T14:57:23Z</time>
      </trkpt>
      <trkpt lat="43.21784" lon="-0.73044">
        <ele>284.957489</ele>
        <time>2018-10-26T14:57:27Z</time>
      </trkpt>
      <trkpt lat="43.21724" lon="-0.73049">
        <ele>283.91748</ele>
        <time>2018-10-26T14:57:36Z</time>
      </trkpt>
      <trkpt lat="43.21697" lon="-0.73047">
        <ele>282.263702</ele>
        <time>2018-10-26T14:57:41Z</time>
      </trkpt>
      <trkpt lat="43.21673" lon="-0.73035">
        <ele>280.503601</ele>
        <time>2018-10-26T14:57:45Z</time>
      </trkpt>
      <trkpt lat="43.21652" lon="-0.72981">
        <ele>280.424255</ele>
        <time>2018-10-26T14:57:54Z</time>
      </trkpt>
      <trkpt lat="43.21627" lon="-0.72959">
        <ele>280.507111</ele>
        <time>2018-10-26T14:57:59Z</time>
      </trkpt>
      <trkpt lat="43.21606" lon="-0.72934">
        <ele>280.766418</ele>
        <time>2018-10-26T14:58:04Z</time>
      </trkpt>
      <trkpt lat="43.21586" lon="-0.72921">
        <ele>280.370056</ele>
        <time>2018-10-26T14:58:08Z</time>
      </trkpt>
      <trkpt lat="43.21568" lon="-0.72902">
        <ele>278.583405</ele>
        <time>2018-10-26T14:58:13Z</time>
      </trkpt>
      <trkpt lat="43.21543" lon="-0.72867">
        <ele>277.90271</ele>
        <time>2018-10-26T14:58:22Z</time>
      </trkpt>
      <trkpt lat="43.21537" lon="-0.72854">
        <ele>276.91449</ele>
        <time>2018-10-26T14:58:26Z</time>
      </trkpt>
      <trkpt lat="43.21532" lon="-0.72835">
        <ele>275.256256</ele>
        <time>2018-10-26T14:58:30Z</time>
      </trkpt>
      <trkpt lat="43.21516" lon="-0.72824">
        <ele>275.685608</ele>
        <time>2018-10-26T14:58:34Z</time>
      </trkpt>
      <trkpt lat="43.21498" lon="-0.72798">
        <ele>276.548279</ele>
        <time>2018-10-26T14:58:38Z</time>
      </trkpt>
      <trkpt lat="43.21475" lon="-0.72773">
        <ele>273.936462</ele>
        <time>2018-10-26T14:58:43Z</time>
      </trkpt>
      <trkpt lat="43.21444" lon="-0.72743">
        <ele>274.118927</ele>
        <time>2018-10-26T14:58:52Z</time>
      </trkpt>
      <trkpt lat="43.21432" lon="-0.72737">
        <ele>274.001801</ele>
        <time>2018-10-26T14:58:56Z</time>
      </trkpt>
      <trkpt lat="43.21426" lon="-0.72727">
        <ele>273.25412</ele>
        <time>2018-10-26T14:59:00Z</time>
      </trkpt>
      <trkpt lat="43.21426" lon="-0.72708">
        <ele>271.520508</ele>
        <time>2018-10-26T14:59:05Z</time>
      </trkpt>
      <trkpt lat="43.21388" lon="-0.72644">
        <ele>269.851685</ele>
        <time>2018-10-26T14:59:19Z</time>
      </trkpt>
      <trkpt lat="43.21342" lon="-0.72552">
        <ele>266.519989</ele>
        <time>2018-10-26T14:59:35Z</time>
      </trkpt>
      <trkpt lat="43.2133" lon="-0.72524">
        <ele>265.080505</ele>
        <time>2018-10-26T14:59:39Z</time>
      </trkpt>
      <trkpt lat="43.21312" lon="-0.72502">
        <ele>264.957397</ele>
        <time>2018-10-26T14:59:43Z</time>
      </trkpt>
      <trkpt lat="43.21291" lon="-0.72491">
        <ele>266.953552</ele>
        <time>2018-10-26T14:59:47Z</time>
      </trkpt>
      <trkpt lat="43.21266" lon="-0.72484">
        <ele>268.797943</ele>
        <time>2018-10-26T14:59:52Z</time>
      </trkpt>
      <trkpt lat="43.21249" lon="-0.72475">
        <ele>268.938385</ele>
        <time>2018-10-26T14:59:56Z</time>
      </trkpt>
      <trkpt lat="43.21234" lon="-0.72471">
        <ele>269.389404</ele>
        <time>2018-10-26T15:00:00Z</time>
      </trkpt>
      <trkpt lat="43.21226" lon="-0.72461">
        <ele>268.77243</ele>
        <time>2018-10-26T15:00:05Z</time>
      </trkpt>
      <trkpt lat="43.21218" lon="-0.72435">
        <ele>268.172363</ele>
        <time>2018-10-26T15:00:14Z</time>
      </trkpt>
      <trkpt lat="43.21215" lon="-0.72418">
        <ele>268.067017</ele>
        <time>2018-10-26T15:00:18Z</time>
      </trkpt>
      <trkpt lat="43.21216" lon="-0.72401">
        <ele>267.030212</ele>
        <time>2018-10-26T15:00:22Z</time>
      </trkpt>
      <trkpt lat="43.21213" lon="-0.72384">
        <ele>266.407837</ele>
        <time>2018-10-26T15:00:26Z</time>
      </trkpt>
      <trkpt lat="43.21191" lon="-0.7236">
        <ele>268.27832</ele>
        <time>2018-10-26T15:00:40Z</time>
      </trkpt>
      <trkpt lat="43.21164" lon="-0.72353">
        <ele>268.718658</ele>
        <time>2018-10-26T15:00:54Z</time>
      </trkpt>
      <trkpt lat="43.21155" lon="-0.72357">
        <ele>268.959381</ele>
        <time>2018-10-26T15:00:58Z</time>
      </trkpt>
      <trkpt lat="43.21129" lon="-0.72344">
        <ele>268.068512</ele>
        <time>2018-10-26T15:01:06Z</time>
      </trkpt>
      <trkpt lat="43.21117" lon="-0.72345">
        <ele>267.968445</ele>
        <time>2018-10-26T15:01:10Z</time>
      </trkpt>
      <trkpt lat="43.21109" lon="-0.72343">
        <ele>267.637207</ele>
        <time>2018-10-26T15:01:17Z</time>
      </trkpt>
      <trkpt lat="43.21109" lon="-0.7232">
        <ele>266.127808</ele>
        <time>2018-10-26T15:01:27Z</time>
      </trkpt>
      <trkpt lat="43.21098" lon="-0.72292">
        <ele>264.265869</ele>
        <time>2018-10-26T15:01:36Z</time>
      </trkpt>
      <trkpt lat="43.21065" lon="-0.7225">
        <ele>262.733398</ele>
        <time>2018-10-26T15:01:49Z</time>
      </trkpt>
      <trkpt lat="43.2105" lon="-0.72244">
        <ele>263.138092</ele>
        <time>2018-10-26T15:01:54Z</time>
      </trkpt>
      <trkpt lat="43.21022" lon="-0.7224">
        <ele>264.179413</ele>
        <time>2018-10-26T15:02:09Z</time>
      </trkpt>
      <trkpt lat="43.21015" lon="-0.72246">
        <ele>264.385468</ele>
        <time>2018-10-26T15:02:18Z</time>
      </trkpt>
      <trkpt lat="43.21005" lon="-0.72265">
        <ele>264.396423</ele>
        <time>2018-10-26T15:02:28Z</time>
      </trkpt>
      <trkpt lat="43.20993" lon="-0.72262">
        <ele>264.103973</ele>
        <time>2018-10-26T15:02:33Z</time>
      </trkpt>
      <trkpt lat="43.20982" lon="-0.72253">
        <ele>264.050995</ele>
        <time>2018-10-26T15:02:37Z</time>
      </trkpt>
      <trkpt lat="43.20948" lon="-0.72209">
        <ele>264.078278</ele>
        <time>2018-10-26T15:02:47Z</time>
      </trkpt>
      <trkpt lat="43.20933" lon="-0.72197">
        <ele>263.680267</ele>
        <time>2018-10-26T15:02:51Z</time>
      </trkpt>
      <trkpt lat="43.20926" lon="-0.72178">
        <ele>263.256012</ele>
        <time>2018-10-26T15:02:55Z</time>
      </trkpt>
      <trkpt lat="43.20902" lon="-0.72163">
        <ele>262.866272</ele>
        <time>2018-10-26T15:03:03Z</time>
      </trkpt>
      <trkpt lat="43.20884" lon="-0.7216">
        <ele>262.545471</ele>
        <time>2018-10-26T15:03:08Z</time>
      </trkpt>
      <trkpt lat="43.20853" lon="-0.7214">
        <ele>256.174286</ele>
        <time>2018-10-26T15:03:17Z</time>
      </trkpt>
      <trkpt lat="43.20822" lon="-0.72133">
        <ele>251.422668</ele>
        <time>2018-10-26T15:03:22Z</time>
      </trkpt>
      <trkpt lat="43.20788" lon="-0.72134">
        <ele>247.152069</ele>
        <time>2018-10-26T15:03:31Z</time>
      </trkpt>
      <trkpt lat="43.20778" lon="-0.72139">
        <ele>246.224854</ele>
        <time>2018-10-26T15:03:35Z</time>
      </trkpt>
      <trkpt lat="43.20767" lon="-0.72152">
        <ele>244.718124</ele>
        <time>2018-10-26T15:03:40Z</time>
      </trkpt>
      <trkpt lat="43.20763" lon="-0.72166">
        <ele>243.136246</ele>
        <time>2018-10-26T15:03:44Z</time>
      </trkpt>
      <trkpt lat="43.20752" lon="-0.72177">
        <ele>240.6875</ele>
        <time>2018-10-26T15:03:48Z</time>
      </trkpt>
      <trkpt lat="43.20729" lon="-0.72181">
        <ele>237.545685</ele>
        <time>2018-10-26T15:03:52Z</time>
      </trkpt>
      <trkpt lat="43.20707" lon="-0.72195">
        <ele>233.913666</ele>
        <time>2018-10-26T15:03:57Z</time>
      </trkpt>
      <trkpt lat="43.20687" lon="-0.72212">
        <ele>230.220139</ele>
        <time>2018-10-26T15:04:01Z</time>
      </trkpt>
      <trkpt lat="43.20652" lon="-0.72224">
        <ele>225.471619</ele>
        <time>2018-10-26T15:04:06Z</time>
      </trkpt>
      <trkpt lat="43.20622" lon="-0.72251">
        <ele>221.869751</ele>
        <time>2018-10-26T15:04:11Z</time>
      </trkpt>
      <trkpt lat="43.20573" lon="-0.72282">
        <ele>214.996445</ele>
        <time>2018-10-26T15:04:19Z</time>
      </trkpt>
      <trkpt lat="43.20541" lon="-0.72311">
        <ele>210.357681</ele>
        <time>2018-10-26T15:04:24Z</time>
      </trkpt>
      <trkpt lat="43.20512" lon="-0.72329">
        <ele>206.816254</ele>
        <time>2018-10-26T15:04:28Z</time>
      </trkpt>
      <trkpt lat="43.20478" lon="-0.72337">
        <ele>203.473755</ele>
        <time>2018-10-26T15:04:33Z</time>
      </trkpt>
      <trkpt lat="43.2043" lon="-0.72309">
        <ele>198.77298</ele>
        <time>2018-10-26T15:04:42Z</time>
      </trkpt>
      <trkpt lat="43.20417" lon="-0.72312">
        <ele>198.029541</ele>
        <time>2018-10-26T15:04:47Z</time>
      </trkpt>
      <trkpt lat="43.20419" lon="-0.72327">
        <ele>197.9953</ele>
        <time>2018-10-26T15:04:51Z</time>
      </trkpt>
      <trkpt lat="43.20429" lon="-0.72364">
        <ele>198.099457</ele>
        <time>2018-10-26T15:05:00Z</time>
      </trkpt>
      <trkpt lat="43.20452" lon="-0.72406">
        <ele>199.288498</ele>
        <time>2018-10-26T15:05:09Z</time>
      </trkpt>
      <trkpt lat="43.20479" lon="-0.72447">
        <ele>200.125854</ele>
        <time>2018-10-26T15:05:17Z</time>
      </trkpt>
      <trkpt lat="43.20516" lon="-0.72488">
        <ele>199.926483</ele>
        <time>2018-10-26T15:05:26Z</time>
      </trkpt>
      <trkpt lat="43.20529" lon="-0.72513">
        <ele>200.570724</ele>
        <time>2018-10-26T15:05:30Z</time>
      </trkpt>
      <trkpt lat="43.20538" lon="-0.72545">
        <ele>200.679718</ele>
        <time>2018-10-26T15:05:34Z</time>
      </trkpt>
      <trkpt lat="43.2054" lon="-0.72584">
        <ele>199.923004</ele>
        <time>2018-10-26T15:05:39Z</time>
      </trkpt>
      <trkpt lat="43.20534" lon="-0.72638">
        <ele>200.123886</ele>
        <time>2018-10-26T15:05:47Z</time>
      </trkpt>
      <trkpt lat="43.20543" lon="-0.7266">
        <ele>200.736267</ele>
        <time>2018-10-26T15:05:52Z</time>
      </trkpt>
      <trkpt lat="43.20545" lon="-0.72732">
        <ele>204.652069</ele>
        <time>2018-10-26T15:06:10Z</time>
      </trkpt>
      <trkpt lat="43.20541" lon="-0.72766">
        <ele>207.315613</ele>
        <time>2018-10-26T15:06:19Z</time>
      </trkpt>
      <trkpt lat="43.20541" lon="-0.728">
        <ele>209.538345</ele>
        <time>2018-10-26T15:06:29Z</time>
      </trkpt>
      <trkpt lat="43.20537" lon="-0.7283">
        <ele>212.095993</ele>
        <time>2018-10-26T15:06:37Z</time>
      </trkpt>
      <trkpt lat="43.20535" lon="-0.72871">
        <ele>215.036728</ele>
        <time>2018-10-26T15:06:46Z</time>
      </trkpt>
      <trkpt lat="43.20536" lon="-0.72888">
        <ele>215.711868</ele>
        <time>2018-10-26T15:06:50Z</time>
      </trkpt>
      <trkpt lat="43.20552" lon="-0.72949">
        <ele>217.967499</ele>
        <time>2018-10-26T15:06:59Z</time>
      </trkpt>
      <trkpt lat="43.20563" lon="-0.73009">
        <ele>221.679306</ele>
        <time>2018-10-26T15:07:11Z</time>
      </trkpt>
      <trkpt lat="43.20571" lon="-0.73036">
        <ele>223.246964</ele>
        <time>2018-10-26T15:07:16Z</time>
      </trkpt>
      <trkpt lat="43.20573" lon="-0.73062">
        <ele>224.552429</ele>
        <time>2018-10-26T15:07:20Z</time>
      </trkpt>
      <trkpt lat="43.20568" lon="-0.73133">
        <ele>222.072662</ele>
        <time>2018-10-26T15:07:29Z</time>
      </trkpt>
      <trkpt lat="43.20576" lon="-0.732">
        <ele>218.720398</ele>
        <time>2018-10-26T15:07:37Z</time>
      </trkpt>
      <trkpt lat="43.20567" lon="-0.73271">
        <ele>213.444992</ele>
        <time>2018-10-26T15:07:45Z</time>
      </trkpt>
      <trkpt lat="43.20579" lon="-0.73324">
        <ele>211.552872</ele>
        <time>2018-10-26T15:07:50Z</time>
      </trkpt>
      <trkpt lat="43.20593" lon="-0.73363">
        <ele>209.931244</ele>
        <time>2018-10-26T15:07:54Z</time>
      </trkpt>
      <trkpt lat="43.20623" lon="-0.73412">
        <ele>208.699997</ele>
        <time>2018-10-26T15:07:59Z</time>
      </trkpt>
      <trkpt lat="43.20653" lon="-0.73443">
        <ele>207.949768</ele>
        <time>2018-10-26T15:08:03Z</time>
      </trkpt>
      <trkpt lat="43.20721" lon="-0.73476">
        <ele>207.043198</ele>
        <time>2018-10-26T15:08:11Z</time>
      </trkpt>
      <trkpt lat="43.20773" lon="-0.7352">
        <ele>207.499603</ele>
        <time>2018-10-26T15:08:20Z</time>
      </trkpt>
      <trkpt lat="43.20775" lon="-0.73548">
        <ele>209.1595</ele>
        <time>2018-10-26T15:08:25Z</time>
      </trkpt>
      <trkpt lat="43.20758" lon="-0.73558">
        <ele>211.486008</ele>
        <time>2018-10-26T15:08:29Z</time>
      </trkpt>
      <trkpt lat="43.20722" lon="-0.73566">
        <ele>216.142059</ele>
        <time>2018-10-26T15:08:38Z</time>
      </trkpt>
      <trkpt lat="43.20702" lon="-0.73577">
        <ele>219.213928</ele>
        <time>2018-10-26T15:08:43Z</time>
      </trkpt>
      <trkpt lat="43.20685" lon="-0.73579">
        <ele>219.861252</ele>
        <time>2018-10-26T15:08:47Z</time>
      </trkpt>
      <trkpt lat="43.20655" lon="-0.73597">
        <ele>222.563797</ele>
        <time>2018-10-26T15:08:56Z</time>
      </trkpt>
      <trkpt lat="43.20636" lon="-0.73604">
        <ele>223.452209</ele>
        <time>2018-10-26T15:09:01Z</time>
      </trkpt>
      <trkpt lat="43.20608" lon="-0.73631">
        <ele>224.59079</ele>
        <time>2018-10-26T15:09:10Z</time>
      </trkpt>
      <trkpt lat="43.20604" lon="-0.73652">
        <ele>224.424622</ele>
        <time>2018-10-26T15:09:14Z</time>
      </trkpt>
      <trkpt lat="43.20614" lon="-0.73674">
        <ele>225.515167</ele>
        <time>2018-10-26T15:09:18Z</time>
      </trkpt>
      <trkpt lat="43.20646" lon="-0.73694">
        <ele>228.101944</ele>
        <time>2018-10-26T15:09:28Z</time>
      </trkpt>
      <trkpt lat="43.20661" lon="-0.73691">
        <ele>229.619247</ele>
        <time>2018-10-26T15:09:32Z</time>
      </trkpt>
      <trkpt lat="43.2071" lon="-0.7367">
        <ele>234.874527</ele>
        <time>2018-10-26T15:09:46Z</time>
      </trkpt>
      <trkpt lat="43.20743" lon="-0.73663">
        <ele>237.012131</ele>
        <time>2018-10-26T15:09:55Z</time>
      </trkpt>
      <trkpt lat="43.20764" lon="-0.73673">
        <ele>239.056793</ele>
        <time>2018-10-26T15:10:00Z</time>
      </trkpt>
      <trkpt lat="43.20788" lon="-0.73703">
        <ele>240.997574</ele>
        <time>2018-10-26T15:10:08Z</time>
      </trkpt>
      <trkpt lat="43.20811" lon="-0.73758">
        <ele>240.730194</ele>
        <time>2018-10-26T15:10:20Z</time>
      </trkpt>
      <trkpt lat="43.20807" lon="-0.73797">
        <ele>241.955597</ele>
        <time>2018-10-26T15:10:25Z</time>
      </trkpt>
      <trkpt lat="43.20801" lon="-0.73825">
        <ele>242.903183</ele>
        <time>2018-10-26T15:10:29Z</time>
      </trkpt>
      <trkpt lat="43.20804" lon="-0.73857">
        <ele>243.631561</ele>
        <time>2018-10-26T15:10:33Z</time>
      </trkpt>
      <trkpt lat="43.20816" lon="-0.73893">
        <ele>244.401733</ele>
        <time>2018-10-26T15:10:37Z</time>
      </trkpt>
      <trkpt lat="43.20834" lon="-0.73923">
        <ele>245.646576</ele>
        <time>2018-10-26T15:10:41Z</time>
      </trkpt>
      <trkpt lat="43.20854" lon="-0.73931">
        <ele>246.249527</ele>
        <time>2018-10-26T15:10:45Z</time>
      </trkpt>
      <trkpt lat="43.20877" lon="-0.73934">
        <ele>246.864395</ele>
        <time>2018-10-26T15:10:50Z</time>
      </trkpt>
      <trkpt lat="43.20894" lon="-0.7394">
        <ele>246.790237</ele>
        <time>2018-10-26T15:10:54Z</time>
      </trkpt>
      <trkpt lat="43.20916" lon="-0.73957">
        <ele>247.015091</ele>
        <time>2018-10-26T15:10:59Z</time>
      </trkpt>
      <trkpt lat="43.20929" lon="-0.73977">
        <ele>247.617294</ele>
        <time>2018-10-26T15:11:03Z</time>
      </trkpt>
      <trkpt lat="43.20937" lon="-0.74007">
        <ele>248.650848</ele>
        <time>2018-10-26T15:11:07Z</time>
      </trkpt>
      <trkpt lat="43.20943" lon="-0.74045">
        <ele>250.15567</ele>
        <time>2018-10-26T15:11:12Z</time>
      </trkpt>
      <trkpt lat="43.20952" lon="-0.74081">
        <ele>251.408783</ele>
        <time>2018-10-26T15:11:17Z</time>
      </trkpt>
      <trkpt lat="43.20964" lon="-0.74104">
        <ele>252.587936</ele>
        <time>2018-10-26T15:11:21Z</time>
      </trkpt>
      <trkpt lat="43.20982" lon="-0.7412">
        <ele>254.640808</ele>
        <time>2018-10-26T15:11:25Z</time>
      </trkpt>
      <trkpt lat="43.21006" lon="-0.74126">
        <ele>257.571991</ele>
        <time>2018-10-26T15:11:30Z</time>
      </trkpt>
      <trkpt lat="43.21027" lon="-0.74124">
        <ele>258.742859</ele>
        <time>2018-10-26T15:11:34Z</time>
      </trkpt>
      <trkpt lat="43.21068" lon="-0.74136">
        <ele>260.888031</ele>
        <time>2018-10-26T15:11:43Z</time>
      </trkpt>
      <trkpt lat="43.2111" lon="-0.74166">
        <ele>261.430298</ele>
        <time>2018-10-26T15:11:52Z</time>
      </trkpt>
      <trkpt lat="43.21136" lon="-0.74165">
        <ele>261.092346</ele>
        <time>2018-10-26T15:11:57Z</time>
      </trkpt>
      <trkpt lat="43.21157" lon="-0.74159">
        <ele>260.865814</ele>
        <time>2018-10-26T15:12:01Z</time>
      </trkpt>
      <trkpt lat="43.21229" lon="-0.74122">
        <ele>261.587891</ele>
        <time>2018-10-26T15:12:19Z</time>
      </trkpt>
      <trkpt lat="43.21242" lon="-0.74117">
        <ele>261.917511</ele>
        <time>2018-10-26T15:12:23Z</time>
      </trkpt>
      <trkpt lat="43.2126" lon="-0.74116">
        <ele>262.565002</ele>
        <time>2018-10-26T15:12:28Z</time>
      </trkpt>
      <trkpt lat="43.21278" lon="-0.7412">
        <ele>263.617493</ele>
        <time>2018-10-26T15:12:33Z</time>
      </trkpt>
      <trkpt lat="43.21305" lon="-0.74133">
        <ele>265.582489</ele>
        <time>2018-10-26T15:12:41Z</time>
      </trkpt>
      <trkpt lat="43.2132" lon="-0.74137">
        <ele>266.372498</ele>
        <time>2018-10-26T15:12:45Z</time>
      </trkpt>
      <trkpt lat="43.21341" lon="-0.74131">
        <ele>266.652802</ele>
        <time>2018-10-26T15:12:50Z</time>
      </trkpt>
      <trkpt lat="43.21378" lon="-0.74094">
        <ele>266.222809</ele>
        <time>2018-10-26T15:12:58Z</time>
      </trkpt>
      <trkpt lat="43.21402" lon="-0.74066">
        <ele>265.827332</ele>
        <time>2018-10-26T15:13:02Z</time>
      </trkpt>
      <trkpt lat="43.2141" lon="-0.74034">
        <ele>266.203949</ele>
        <time>2018-10-26T15:13:06Z</time>
      </trkpt>
      <trkpt lat="43.21432" lon="-0.73982">
        <ele>267.06601</ele>
        <time>2018-10-26T15:13:15Z</time>
      </trkpt>
      <trkpt lat="43.21442" lon="-0.73966">
        <ele>268.70224</ele>
        <time>2018-10-26T15:13:19Z</time>
      </trkpt>
      <trkpt lat="43.21453" lon="-0.73943">
        <ele>271.27243</ele>
        <time>2018-10-26T15:13:24Z</time>
      </trkpt>
      <trkpt lat="43.2147" lon="-0.73867">
        <ele>278.986542</ele>
        <time>2018-10-26T15:13:37Z</time>
      </trkpt>
      <trkpt lat="43.21484" lon="-0.73836">
        <ele>280.839508</ele>
        <time>2018-10-26T15:13:45Z</time>
      </trkpt>
      <trkpt lat="43.21491" lon="-0.73827">
        <ele>280.568726</ele>
        <time>2018-10-26T15:13:49Z</time>
      </trkpt>
      <trkpt lat="43.21511" lon="-0.73814">
        <ele>282.145782</ele>
        <time>2018-10-26T15:13:58Z</time>
      </trkpt>
      <trkpt lat="43.2154" lon="-0.73803">
        <ele>283.980621</ele>
        <time>2018-10-26T15:14:06Z</time>
      </trkpt>
      <trkpt lat="43.21561" lon="-0.73786">
        <ele>285.107971</ele>
        <time>2018-10-26T15:14:11Z</time>
      </trkpt>
      <trkpt lat="43.21576" lon="-0.73767">
        <ele>285.567719</ele>
        <time>2018-10-26T15:14:15Z</time>
      </trkpt>
      <trkpt lat="43.2159" lon="-0.73738">
        <ele>285.740265</ele>
        <time>2018-10-26T15:14:20Z</time>
      </trkpt>
      <trkpt lat="43.21601" lon="-0.73705">
        <ele>286.049957</ele>
        <time>2018-10-26T15:14:25Z</time>
      </trkpt>
      <trkpt lat="43.21612" lon="-0.73649">
        <ele>285.28714</ele>
        <time>2018-10-26T15:14:33Z</time>
      </trkpt>
      <trkpt lat="43.21633" lon="-0.73633">
        <ele>285.450928</ele>
        <time>2018-10-26T15:14:37Z</time>
      </trkpt>
      <trkpt lat="43.21651" lon="-0.73611">
        <ele>285.865723</ele>
        <time>2018-10-26T15:14:41Z</time>
      </trkpt>
      <trkpt lat="43.21662" lon="-0.73545">
        <ele>283.81076</ele>
        <time>2018-10-26T15:14:49Z</time>
      </trkpt>
      <trkpt lat="43.21662" lon="-0.735">
        <ele>283.025513</ele>
        <time>2018-10-26T15:14:54Z</time>
      </trkpt>
      <trkpt lat="43.21665" lon="-0.73418">
        <ele>282.696991</ele>
        <time>2018-10-26T15:15:04Z</time>
      </trkpt>
      <trkpt lat="43.21669" lon="-0.73389">
        <ele>282.344055</ele>
        <time>2018-10-26T15:15:08Z</time>
      </trkpt>
      <trkpt lat="43.2167" lon="-0.73312">
        <ele>281.597595</ele>
        <time>2018-10-26T15:15:16Z</time>
      </trkpt>
      <trkpt lat="43.21674" lon="-0.73262">
        <ele>280.610016</ele>
        <time>2018-10-26T15:15:21Z</time>
      </trkpt>
      <trkpt lat="43.21684" lon="-0.73218">
        <ele>280.896759</ele>
        <time>2018-10-26T15:15:26Z</time>
      </trkpt>
      <trkpt lat="43.21694" lon="-0.73191">
        <ele>282.204803</ele>
        <time>2018-10-26T15:15:30Z</time>
      </trkpt>
      <trkpt lat="43.21726" lon="-0.73145">
        <ele>284.910004</ele>
        <time>2018-10-26T15:15:39Z</time>
      </trkpt>
      <trkpt lat="43.2174" lon="-0.73131">
        <ele>285.441254</ele>
        <time>2018-10-26T15:15:43Z</time>
      </trkpt>
      <trkpt lat="43.2176" lon="-0.73121">
        <ele>285.981781</ele>
        <time>2018-10-26T15:15:47Z</time>
      </trkpt>
      <trkpt lat="43.21806" lon="-0.73106">
        <ele>286.019012</ele>
        <time>2018-10-26T15:15:57Z</time>
      </trkpt>
      <trkpt lat="43.21861" lon="-0.73073">
        <ele>286.879364</ele>
        <time>2018-10-26T15:16:09Z</time>
      </trkpt>
      <trkpt lat="43.21879" lon="-0.73059">
        <ele>286.744995</ele>
        <time>2018-10-26T15:16:13Z</time>
      </trkpt>
      <trkpt lat="43.219" lon="-0.73036">
        <ele>285.910706</ele>
        <time>2018-10-26T15:16:22Z</time>
      </trkpt>
      <trkpt lat="43.21913" lon="-0.73032">
        <ele>285.585632</ele>
        <time>2018-10-26T15:16:26Z</time>
      </trkpt>
      <trkpt lat="43.21956" lon="-0.73037">
        <ele>284.789886</ele>
        <time>2018-10-26T15:16:34Z</time>
      </trkpt>
      <trkpt lat="43.21966" lon="-0.73034">
        <ele>284.272369</ele>
        <time>2018-10-26T15:16:38Z</time>
      </trkpt>
      <trkpt lat="43.2199" lon="-0.73044">
        <ele>283.785339</ele>
        <time>2018-10-26T15:16:43Z</time>
      </trkpt>
      <trkpt lat="43.22023" lon="-0.73065">
        <ele>282.941864</ele>
        <time>2018-10-26T15:16:48Z</time>
      </trkpt>
      <trkpt lat="43.22057" lon="-0.73096">
        <ele>279.48999</ele>
        <time>2018-10-26T15:16:56Z</time>
      </trkpt>
      <trkpt lat="43.22097" lon="-0.73109">
        <ele>277.828735</ele>
        <time>2018-10-26T15:17:05Z</time>
      </trkpt>
      <trkpt lat="43.22119" lon="-0.73126">
        <ele>275.870331</ele>
        <time>2018-10-26T15:17:09Z</time>
      </trkpt>
      <trkpt lat="43.22182" lon="-0.73125">
        <ele>274.059906</ele>
        <time>2018-10-26T15:17:18Z</time>
      </trkpt>
      <trkpt lat="43.222" lon="-0.7312">
        <ele>274.216095</ele>
        <time>2018-10-26T15:17:22Z</time>
      </trkpt>
      <trkpt lat="43.22228" lon="-0.73093">
        <ele>274.70282</ele>
        <time>2018-10-26T15:17:31Z</time>
      </trkpt>
      <trkpt lat="43.22235" lon="-0.73081">
        <ele>274.340179</ele>
        <time>2018-10-26T15:17:35Z</time>
      </trkpt>
      <trkpt lat="43.22258" lon="-0.73094">
        <ele>271.210632</ele>
        <time>2018-10-26T15:17:44Z</time>
      </trkpt>
      <trkpt lat="43.22305" lon="-0.73143">
        <ele>267.80249</ele>
        <time>2018-10-26T15:17:53Z</time>
      </trkpt>
      <trkpt lat="43.22332" lon="-0.7314">
        <ele>267.209991</ele>
        <time>2018-10-26T15:17:58Z</time>
      </trkpt>
      <trkpt lat="43.22383" lon="-0.73153">
        <ele>267</ele>
        <time>2018-10-26T15:18:07Z</time>
      </trkpt>
      <trkpt lat="43.22423" lon="-0.73156">
        <ele>267</ele>
        <time>2018-10-26T15:18:15Z</time>
      </trkpt>
      <trkpt lat="43.22447" lon="-0.73166">
        <ele>266.38501</ele>
        <time>2018-10-26T15:18:20Z</time>
      </trkpt>
      <trkpt lat="43.22474" lon="-0.7317">
        <ele>265.703735</ele>
        <time>2018-10-26T15:18:24Z</time>
      </trkpt>
      <trkpt lat="43.22511" lon="-0.73149">
        <ele>265.06604</ele>
        <time>2018-10-26T15:18:29Z</time>
      </trkpt>
      <trkpt lat="43.22548" lon="-0.73143">
        <ele>264.079376</ele>
        <time>2018-10-26T15:18:34Z</time>
      </trkpt>
      <trkpt lat="43.22582" lon="-0.73158">
        <ele>263.442993</ele>
        <time>2018-10-26T15:18:39Z</time>
      </trkpt>
      <trkpt lat="43.22606" lon="-0.7316">
        <ele>262.809418</ele>
        <time>2018-10-26T15:18:43Z</time>
      </trkpt>
      <trkpt lat="43.22627" lon="-0.73166">
        <ele>262.87619</ele>
        <time>2018-10-26T15:18:47Z</time>
      </trkpt>
      <trkpt lat="43.22669" lon="-0.73205">
        <ele>262.37442</ele>
        <time>2018-10-26T15:18:56Z</time>
      </trkpt>
      <trkpt lat="43.22695" lon="-0.7322">
        <ele>263.065704</ele>
        <time>2018-10-26T15:19:01Z</time>
      </trkpt>
      <trkpt lat="43.22735" lon="-0.73232">
        <ele>263.876862</ele>
        <time>2018-10-26T15:19:09Z</time>
      </trkpt>
      <trkpt lat="43.22752" lon="-0.73228">
        <ele>264.101624</ele>
        <time>2018-10-26T15:19:13Z</time>
      </trkpt>
      <trkpt lat="43.2277" lon="-0.73221">
        <ele>264.110779</ele>
        <time>2018-10-26T15:19:17Z</time>
      </trkpt>
      <trkpt lat="43.22825" lon="-0.73276">
        <ele>261.438141</ele>
        <time>2018-10-26T15:19:31Z</time>
      </trkpt>
      <trkpt lat="43.22824" lon="-0.73335">
        <ele>261.781311</ele>
        <time>2018-10-26T15:19:40Z</time>
      </trkpt>
      <trkpt lat="43.22831" lon="-0.73465">
        <ele>264.434998</ele>
        <time>2018-10-26T15:19:58Z</time>
      </trkpt>
      <trkpt lat="43.22819" lon="-0.73515">
        <ele>264.830902</ele>
        <time>2018-10-26T15:20:06Z</time>
      </trkpt>
      <trkpt lat="43.22829" lon="-0.73532">
        <ele>265.829376</ele>
        <time>2018-10-26T15:20:11Z</time>
      </trkpt>
      <trkpt lat="43.22832" lon="-0.7351">
        <ele>265.516266</ele>
        <time>2018-10-26T15:20:15Z</time>
      </trkpt>
      <trkpt lat="43.22842" lon="-0.73488">
        <ele>265.375</ele>
        <time>2018-10-26T15:20:20Z</time>
      </trkpt>
      <trkpt lat="43.22877" lon="-0.73483">
        <ele>265.788635</ele>
        <time>2018-10-26T15:20:28Z</time>
      </trkpt>
      <trkpt lat="43.22938" lon="-0.73468">
        <ele>264.431824</ele>
        <time>2018-10-26T15:20:37Z</time>
      </trkpt>
      <trkpt lat="43.22997" lon="-0.73458">
        <ele>262.352936</ele>
        <time>2018-10-26T15:20:42Z</time>
      </trkpt>
      <trkpt lat="43.23041" lon="-0.73487">
        <ele>257.418121</ele>
        <time>2018-10-26T15:20:46Z</time>
      </trkpt>
      <trkpt lat="43.23077" lon="-0.73548">
        <ele>249.342712</ele>
        <time>2018-10-26T15:20:51Z</time>
      </trkpt>
      <trkpt lat="43.23094" lon="-0.73605">
        <ele>248.216965</ele>
        <time>2018-10-26T15:20:55Z</time>
      </trkpt>
      <trkpt lat="43.23115" lon="-0.73656">
        <ele>247.717529</ele>
        <time>2018-10-26T15:20:59Z</time>
      </trkpt>
      <trkpt lat="43.23135" lon="-0.73697">
        <ele>247.832214</ele>
        <time>2018-10-26T15:21:03Z</time>
      </trkpt>
      <trkpt lat="43.23154" lon="-0.73726">
        <ele>247.036804</ele>
        <time>2018-10-26T15:21:08Z</time>
      </trkpt>
      <trkpt lat="43.23174" lon="-0.73746">
        <ele>246.939667</ele>
        <time>2018-10-26T15:21:13Z</time>
      </trkpt>
      <trkpt lat="43.23194" lon="-0.7374">
        <ele>245.757507</ele>
        <time>2018-10-26T15:21:17Z</time>
      </trkpt>
      <trkpt lat="43.23216" lon="-0.73714">
        <ele>243.921875</ele>
        <time>2018-10-26T15:21:21Z</time>
      </trkpt>
      <trkpt lat="43.2326" lon="-0.73679">
        <ele>241.584412</ele>
        <time>2018-10-26T15:21:26Z</time>
      </trkpt>
      <trkpt lat="43.23305" lon="-0.73667">
        <ele>241.084793</ele>
        <time>2018-10-26T15:21:30Z</time>
      </trkpt>
      <trkpt lat="43.2335" lon="-0.73666">
        <ele>240.699356</ele>
        <time>2018-10-26T15:21:34Z</time>
      </trkpt>
      <trkpt lat="43.23399" lon="-0.7369">
        <ele>238.680618</ele>
        <time>2018-10-26T15:21:39Z</time>
      </trkpt>
      <trkpt lat="43.23453" lon="-0.73685">
        <ele>236.029999</ele>
        <time>2018-10-26T15:21:44Z</time>
      </trkpt>
      <trkpt lat="43.23494" lon="-0.73671">
        <ele>234.352493</ele>
        <time>2018-10-26T15:21:48Z</time>
      </trkpt>
      <trkpt lat="43.23533" lon="-0.73666">
        <ele>231.632095</ele>
        <time>2018-10-26T15:21:52Z</time>
      </trkpt>
      <trkpt lat="43.23569" lon="-0.73655">
        <ele>228.561478</ele>
        <time>2018-10-26T15:21:56Z</time>
      </trkpt>
      <trkpt lat="43.236" lon="-0.73629">
        <ele>226.070007</ele>
        <time>2018-10-26T15:22:00Z</time>
      </trkpt>
      <trkpt lat="43.23627" lon="-0.73592">
        <ele>224.345001</ele>
        <time>2018-10-26T15:22:04Z</time>
      </trkpt>
      <trkpt lat="43.23657" lon="-0.73557">
        <ele>222.457932</ele>
        <time>2018-10-26T15:22:08Z</time>
      </trkpt>
      <trkpt lat="43.23713" lon="-0.73467">
        <ele>220.347504</ele>
        <time>2018-10-26T15:22:16Z</time>
      </trkpt>
      <trkpt lat="43.23747" lon="-0.73403">
        <ele>215.153122</ele>
        <time>2018-10-26T15:22:21Z</time>
      </trkpt>
      <trkpt lat="43.23793" lon="-0.73288">
        <ele>207.581863</ele>
        <time>2018-10-26T15:22:30Z</time>
      </trkpt>
      <trkpt lat="43.23824" lon="-0.73248">
        <ele>205.518753</ele>
        <time>2018-10-26T15:22:35Z</time>
      </trkpt>
      <trkpt lat="43.2385" lon="-0.73227">
        <ele>204.843597</ele>
        <time>2018-10-26T15:22:39Z</time>
      </trkpt>
      <trkpt lat="43.23872" lon="-0.73197">
        <ele>204.594009</ele>
        <time>2018-10-26T15:22:43Z</time>
      </trkpt>
      <trkpt lat="43.23923" lon="-0.73108">
        <ele>208.711243</ele>
        <time>2018-10-26T15:22:56Z</time>
      </trkpt>
      <trkpt lat="43.23949" lon="-0.7305">
        <ele>210.339493</ele>
        <time>2018-10-26T15:23:04Z</time>
      </trkpt>
      <trkpt lat="43.2397" lon="-0.73019">
        <ele>210.822495</ele>
        <time>2018-10-26T15:23:09Z</time>
      </trkpt>
      <trkpt lat="43.24008" lon="-0.72972">
        <ele>211.316818</ele>
        <time>2018-10-26T15:23:17Z</time>
      </trkpt>
      <trkpt lat="43.24059" lon="-0.72898">
        <ele>209.80249</ele>
        <time>2018-10-26T15:23:27Z</time>
      </trkpt>
      <trkpt lat="43.24079" lon="-0.72878">
        <ele>209.987503</ele>
        <time>2018-10-26T15:23:31Z</time>
      </trkpt>
      <trkpt lat="43.24131" lon="-0.72844">
        <ele>211.658752</ele>
        <time>2018-10-26T15:23:40Z</time>
      </trkpt>
      <trkpt lat="43.24145" lon="-0.72806">
        <ele>211.583755</ele>
        <time>2018-10-26T15:23:44Z</time>
      </trkpt>
      <trkpt lat="43.24153" lon="-0.72723">
        <ele>211.631241</ele>
        <time>2018-10-26T15:23:54Z</time>
      </trkpt>
      <trkpt lat="43.24176" lon="-0.72616">
        <ele>214.231247</ele>
        <time>2018-10-26T15:24:07Z</time>
      </trkpt>
      <trkpt lat="43.24183" lon="-0.72542">
        <ele>215.823746</ele>
        <time>2018-10-26T15:24:16Z</time>
      </trkpt>
      <trkpt lat="43.24184" lon="-0.7251">
        <ele>216.262451</ele>
        <time>2018-10-26T15:24:20Z</time>
      </trkpt>
      <trkpt lat="43.24191" lon="-0.72438">
        <ele>215.70256</ele>
        <time>2018-10-26T15:24:29Z</time>
      </trkpt>
      <trkpt lat="43.242" lon="-0.72403">
        <ele>215.075027</ele>
        <time>2018-10-26T15:24:33Z</time>
      </trkpt>
      <trkpt lat="43.24213" lon="-0.72364">
        <ele>213.175858</ele>
        <time>2018-10-26T15:24:37Z</time>
      </trkpt>
      <trkpt lat="43.2426" lon="-0.72257">
        <ele>202.964706</ele>
        <time>2018-10-26T15:24:47Z</time>
      </trkpt>
      <trkpt lat="43.24296" lon="-0.72203">
        <ele>199.46489</ele>
        <time>2018-10-26T15:24:52Z</time>
      </trkpt>
      <trkpt lat="43.24312" lon="-0.72143">
        <ele>202.585999</ele>
        <time>2018-10-26T15:24:57Z</time>
      </trkpt>
      <trkpt lat="43.24336" lon="-0.72072">
        <ele>206.985001</ele>
        <time>2018-10-26T15:25:06Z</time>
      </trkpt>
      <trkpt lat="43.2435" lon="-0.72039">
        <ele>207.838745</ele>
        <time>2018-10-26T15:25:11Z</time>
      </trkpt>
      <trkpt lat="43.2443" lon="-0.71878">
        <ele>205.798126</ele>
        <time>2018-10-26T15:25:34Z</time>
      </trkpt>
      <trkpt lat="43.245" lon="-0.71699">
        <ele>201.233124</ele>
        <time>2018-10-26T15:25:56Z</time>
      </trkpt>
      <trkpt lat="43.24551" lon="-0.71607">
        <ele>197.660004</ele>
        <time>2018-10-26T15:26:09Z</time>
      </trkpt>
      <trkpt lat="43.24574" lon="-0.71573">
        <ele>195.469376</ele>
        <time>2018-10-26T15:26:13Z</time>
      </trkpt>
      <trkpt lat="43.24617" lon="-0.71536">
        <ele>193.029358</ele>
        <time>2018-10-26T15:26:18Z</time>
      </trkpt>
      <trkpt lat="43.24684" lon="-0.71489">
        <ele>189.725052</ele>
        <time>2018-10-26T15:26:27Z</time>
      </trkpt>
      <trkpt lat="43.24708" lon="-0.71465">
        <ele>188.319885</ele>
        <time>2018-10-26T15:26:31Z</time>
      </trkpt>
      <trkpt lat="43.24741" lon="-0.71379">
        <ele>182.550003</ele>
        <time>2018-10-26T15:26:40Z</time>
      </trkpt>
      <trkpt lat="43.24745" lon="-0.71334">
        <ele>180.308746</ele>
        <time>2018-10-26T15:26:44Z</time>
      </trkpt>
      <trkpt lat="43.24745" lon="-0.71281">
        <ele>178.610764</ele>
        <time>2018-10-26T15:26:49Z</time>
      </trkpt>
      <trkpt lat="43.24748" lon="-0.71237">
        <ele>177.759995</ele>
        <time>2018-10-26T15:26:53Z</time>
      </trkpt>
      <trkpt lat="43.24759" lon="-0.71201">
        <ele>177.163757</ele>
        <time>2018-10-26T15:26:57Z</time>
      </trkpt>
      <trkpt lat="43.24803" lon="-0.7109">
        <ele>175.850266</ele>
        <time>2018-10-26T15:27:11Z</time>
      </trkpt>
      <trkpt lat="43.24836" lon="-0.71019">
        <ele>175.979889</ele>
        <time>2018-10-26T15:27:20Z</time>
      </trkpt>
      <trkpt lat="43.24856" lon="-0.70989">
        <ele>176</ele>
        <time>2018-10-26T15:27:24Z</time>
      </trkpt>
      <trkpt lat="43.2489" lon="-0.70946">
        <ele>176</ele>
        <time>2018-10-26T15:27:29Z</time>
      </trkpt>
      <trkpt lat="43.24914" lon="-0.70891">
        <ele>175.996078</ele>
        <time>2018-10-26T15:27:34Z</time>
      </trkpt>
      <trkpt lat="43.24944" lon="-0.70805">
        <ele>174.827362</ele>
        <time>2018-10-26T15:27:43Z</time>
      </trkpt>
      <trkpt lat="43.24976" lon="-0.7074">
        <ele>174</ele>
        <time>2018-10-26T15:27:53Z</time>
      </trkpt>
      <trkpt lat="43.25027" lon="-0.7068">
        <ele>175.088745</ele>
        <time>2018-10-26T15:28:05Z</time>
      </trkpt>
      <trkpt lat="43.25038" lon="-0.70649">
        <ele>176.164017</ele>
        <time>2018-10-26T15:28:10Z</time>
      </trkpt>
      <trkpt lat="43.25035" lon="-0.70621">
        <ele>177.866089</ele>
        <time>2018-10-26T15:28:14Z</time>
      </trkpt>
      <trkpt lat="43.25039" lon="-0.7059">
        <ele>179.638748</ele>
        <time>2018-10-26T15:28:18Z</time>
      </trkpt>
      <trkpt lat="43.25046" lon="-0.70571">
        <ele>180.130005</ele>
        <time>2018-10-26T15:28:22Z</time>
      </trkpt>
      <trkpt lat="43.25052" lon="-0.70568">
        <ele>180.095001</ele>
        <time>2018-10-26T15:28:44Z</time>
      </trkpt>
    </trkseg>
  </trk>
  <trk>
    <name><![CDATA[PIEMONT OSSALOIS REY]]></name>
    <trkseg>
      <trkpt lat="43.12704" lon="-0.44275">
        <ele>427.92</ele>
        <time>2015-10-24T11:12:57Z</time>
      </trkpt>
      <trkpt lat="43.12714" lon="-0.44279">
        <ele>426.96</ele>
        <time>2015-10-24T11:13:14Z</time>
      </trkpt>
      <trkpt lat="43.12716" lon="-0.44278">
        <ele>426.96</ele>
        <time>2015-10-24T11:13:15Z</time>
      </trkpt>
      <trkpt lat="43.12718" lon="-0.44278">
        <ele>426.48</ele>
        <time>2015-10-24T11:13:16Z</time>
      </trkpt>
      <trkpt lat="43.1272" lon="-0.4428">
        <ele>426.48</ele>
        <time>2015-10-24T11:13:17Z</time>
      </trkpt>
      <trkpt lat="43.1272" lon="-0.44284">
        <ele>426</ele>
        <time>2015-10-24T11:13:18Z</time>
      </trkpt>
      <trkpt lat="43.12723" lon="-0.44287">
        <ele>426</ele>
        <time>2015-10-24T11:13:19Z</time>
      </trkpt>
      <trkpt lat="43.12726" lon="-0.44289">
        <ele>426</ele>
        <time>2015-10-24T11:13:20Z</time>
      </trkpt>
      <trkpt lat="43.12753" lon="-0.44304">
        <ele>425.52</ele>
        <time>2015-10-24T11:13:26Z</time>
      </trkpt>
      <trkpt lat="43.12757" lon="-0.44306">
        <ele>425.04</ele>
        <time>2015-10-24T11:13:27Z</time>
      </trkpt>
      <trkpt lat="43.12806" lon="-0.44333">
        <ele>426</ele>
        <time>2015-10-24T11:13:39Z</time>
      </trkpt>
      <trkpt lat="43.12833" lon="-0.44345">
        <ele>425.52</ele>
        <time>2015-10-24T11:13:50Z</time>
      </trkpt>
      <trkpt lat="43.12849" lon="-0.4435">
        <ele>424.08</ele>
        <time>2015-10-24T11:13:54Z</time>
      </trkpt>
      <trkpt lat="43.12854" lon="-0.44352">
        <ele>423.6</ele>
        <time>2015-10-24T11:13:55Z</time>
      </trkpt>
      <trkpt lat="43.12859" lon="-0.44355">
        <ele>423.12</ele>
        <time>2015-10-24T11:13:56Z</time>
      </trkpt>
      <trkpt lat="43.12864" lon="-0.44358">
        <ele>422.16</ele>
        <time>2015-10-24T11:13:57Z</time>
      </trkpt>
      <trkpt lat="43.12869" lon="-0.4436">
        <ele>422.16</ele>
        <time>2015-10-24T11:13:58Z</time>
      </trkpt>
      <trkpt lat="43.12879" lon="-0.4437">
        <ele>420.23</ele>
        <time>2015-10-24T11:14:02Z</time>
      </trkpt>
      <trkpt lat="43.12882" lon="-0.4437">
        <ele>420.23</ele>
        <time>2015-10-24T11:14:03Z</time>
      </trkpt>
      <trkpt lat="43.1289" lon="-0.44371">
        <ele>420.23</ele>
        <time>2015-10-24T11:14:05Z</time>
      </trkpt>
      <trkpt lat="43.12927" lon="-0.44387">
        <ele>418.31</ele>
        <time>2015-10-24T11:14:14Z</time>
      </trkpt>
      <trkpt lat="43.12939" lon="-0.44399">
        <ele>417.83</ele>
        <time>2015-10-24T11:14:17Z</time>
      </trkpt>
      <trkpt lat="43.12957" lon="-0.44429">
        <ele>415.91</ele>
        <time>2015-10-24T11:14:25Z</time>
      </trkpt>
      <trkpt lat="43.12959" lon="-0.44433">
        <ele>415.43</ele>
        <time>2015-10-24T11:14:26Z</time>
      </trkpt>
      <trkpt lat="43.12962" lon="-0.44434">
        <ele>415.43</ele>
        <time>2015-10-24T11:14:27Z</time>
      </trkpt>
      <trkpt lat="43.12965" lon="-0.44431">
        <ele>414.47</ele>
        <time>2015-10-24T11:14:28Z</time>
      </trkpt>
      <trkpt lat="43.12967" lon="-0.44426">
        <ele>413.98</ele>
        <time>2015-10-24T11:14:29Z</time>
      </trkpt>
      <trkpt lat="43.12969" lon="-0.44419">
        <ele>413.5</ele>
        <time>2015-10-24T11:14:30Z</time>
      </trkpt>
      <trkpt lat="43.12972" lon="-0.44413">
        <ele>413.02</ele>
        <time>2015-10-24T11:14:31Z</time>
      </trkpt>
      <trkpt lat="43.12978" lon="-0.44409">
        <ele>412.06</ele>
        <time>2015-10-24T11:14:32Z</time>
      </trkpt>
      <trkpt lat="43.12984" lon="-0.44407">
        <ele>411.1</ele>
        <time>2015-10-24T11:14:33Z</time>
      </trkpt>
      <trkpt lat="43.12991" lon="-0.44407">
        <ele>410.14</ele>
        <time>2015-10-24T11:14:34Z</time>
      </trkpt>
      <trkpt lat="43.12998" lon="-0.44409">
        <ele>409.18</ele>
        <time>2015-10-24T11:14:35Z</time>
      </trkpt>
      <trkpt lat="43.13004" lon="-0.44413">
        <ele>408.7</ele>
        <time>2015-10-24T11:14:36Z</time>
      </trkpt>
      <trkpt lat="43.13011" lon="-0.44416">
        <ele>408.22</ele>
        <time>2015-10-24T11:14:37Z</time>
      </trkpt>
      <trkpt lat="43.13017" lon="-0.44419">
        <ele>408.22</ele>
        <time>2015-10-24T11:14:38Z</time>
      </trkpt>
      <trkpt lat="43.13102" lon="-0.44458">
        <ele>402.45</ele>
        <time>2015-10-24T11:14:50Z</time>
      </trkpt>
      <trkpt lat="43.1311" lon="-0.44462">
        <ele>401.97</ele>
        <time>2015-10-24T11:14:51Z</time>
      </trkpt>
      <trkpt lat="43.13117" lon="-0.44467">
        <ele>401.49</ele>
        <time>2015-10-24T11:14:52Z</time>
      </trkpt>
      <trkpt lat="43.13125" lon="-0.44472">
        <ele>401.49</ele>
        <time>2015-10-24T11:14:53Z</time>
      </trkpt>
      <trkpt lat="43.13133" lon="-0.44477">
        <ele>401.01</ele>
        <time>2015-10-24T11:14:54Z</time>
      </trkpt>
      <trkpt lat="43.13141" lon="-0.44481">
        <ele>400.53</ele>
        <time>2015-10-24T11:14:55Z</time>
      </trkpt>
      <trkpt lat="43.13149" lon="-0.44485">
        <ele>399.57</ele>
        <time>2015-10-24T11:14:56Z</time>
      </trkpt>
      <trkpt lat="43.13181" lon="-0.44502">
        <ele>397.16</ele>
        <time>2015-10-24T11:15:00Z</time>
      </trkpt>
      <trkpt lat="43.13188" lon="-0.44507">
        <ele>396.68</ele>
        <time>2015-10-24T11:15:01Z</time>
      </trkpt>
      <trkpt lat="43.13195" lon="-0.44513">
        <ele>396.2</ele>
        <time>2015-10-24T11:15:02Z</time>
      </trkpt>
      <trkpt lat="43.13226" lon="-0.44539">
        <ele>395.72</ele>
        <time>2015-10-24T11:15:07Z</time>
      </trkpt>
      <trkpt lat="43.13232" lon="-0.44542">
        <ele>395.72</ele>
        <time>2015-10-24T11:15:08Z</time>
      </trkpt>
      <trkpt lat="43.13239" lon="-0.44544">
        <ele>395.72</ele>
        <time>2015-10-24T11:15:09Z</time>
      </trkpt>
      <trkpt lat="43.13245" lon="-0.44545">
        <ele>395.72</ele>
        <time>2015-10-24T11:15:10Z</time>
      </trkpt>
      <trkpt lat="43.13251" lon="-0.44545">
        <ele>395.72</ele>
        <time>2015-10-24T11:15:11Z</time>
      </trkpt>
      <trkpt lat="43.13257" lon="-0.44544">
        <ele>395.72</ele>
        <time>2015-10-24T11:15:12Z</time>
      </trkpt>
      <trkpt lat="43.13268" lon="-0.44542">
        <ele>396.68</ele>
        <time>2015-10-24T11:15:14Z</time>
      </trkpt>
      <trkpt lat="43.13274" lon="-0.44542">
        <ele>396.68</ele>
        <time>2015-10-24T11:15:15Z</time>
      </trkpt>
      <trkpt lat="43.1331" lon="-0.44538">
        <ele>398.6</ele>
        <time>2015-10-24T11:15:25Z</time>
      </trkpt>
      <trkpt lat="43.13315" lon="-0.44538">
        <ele>398.6</ele>
        <time>2015-10-24T11:15:26Z</time>
      </trkpt>
      <trkpt lat="43.13327" lon="-0.44541">
        <ele>398.12</ele>
        <time>2015-10-24T11:15:28Z</time>
      </trkpt>
      <trkpt lat="43.13332" lon="-0.44545">
        <ele>398.12</ele>
        <time>2015-10-24T11:15:29Z</time>
      </trkpt>
      <trkpt lat="43.13337" lon="-0.4455">
        <ele>397.64</ele>
        <time>2015-10-24T11:15:30Z</time>
      </trkpt>
      <trkpt lat="43.13343" lon="-0.44552">
        <ele>397.16</ele>
        <time>2015-10-24T11:15:31Z</time>
      </trkpt>
      <trkpt lat="43.13349" lon="-0.44551">
        <ele>397.16</ele>
        <time>2015-10-24T11:15:32Z</time>
      </trkpt>
      <trkpt lat="43.13354" lon="-0.44547">
        <ele>396.68</ele>
        <time>2015-10-24T11:15:33Z</time>
      </trkpt>
      <trkpt lat="43.13358" lon="-0.44541">
        <ele>396.68</ele>
        <time>2015-10-24T11:15:34Z</time>
      </trkpt>
      <trkpt lat="43.1336" lon="-0.44534">
        <ele>396.68</ele>
        <time>2015-10-24T11:15:35Z</time>
      </trkpt>
      <trkpt lat="43.13364" lon="-0.44529">
        <ele>396.68</ele>
        <time>2015-10-24T11:15:36Z</time>
      </trkpt>
      <trkpt lat="43.13368" lon="-0.44527">
        <ele>396.68</ele>
        <time>2015-10-24T11:15:37Z</time>
      </trkpt>
      <trkpt lat="43.13373" lon="-0.44527">
        <ele>396.68</ele>
        <time>2015-10-24T11:15:38Z</time>
      </trkpt>
      <trkpt lat="43.13378" lon="-0.44529">
        <ele>397.16</ele>
        <time>2015-10-24T11:15:39Z</time>
      </trkpt>
      <trkpt lat="43.13387" lon="-0.44531">
        <ele>397.64</ele>
        <time>2015-10-24T11:15:41Z</time>
      </trkpt>
      <trkpt lat="43.13404" lon="-0.4453">
        <ele>398.6</ele>
        <time>2015-10-24T11:15:45Z</time>
      </trkpt>
      <trkpt lat="43.13413" lon="-0.44531">
        <ele>399.57</ele>
        <time>2015-10-24T11:15:47Z</time>
      </trkpt>
      <trkpt lat="43.13417" lon="-0.44532">
        <ele>399.57</ele>
        <time>2015-10-24T11:15:48Z</time>
      </trkpt>
      <trkpt lat="43.13421" lon="-0.44533">
        <ele>400.05</ele>
        <time>2015-10-24T11:15:49Z</time>
      </trkpt>
      <trkpt lat="43.13434" lon="-0.4454">
        <ele>399.57</ele>
        <time>2015-10-24T11:15:52Z</time>
      </trkpt>
      <trkpt lat="43.13474" lon="-0.44583">
        <ele>403.41</ele>
        <time>2015-10-24T11:16:05Z</time>
      </trkpt>
      <trkpt lat="43.13495" lon="-0.44604">
        <ele>406.29</ele>
        <time>2015-10-24T11:16:14Z</time>
      </trkpt>
      <trkpt lat="43.13515" lon="-0.44614">
        <ele>407.74</ele>
        <time>2015-10-24T11:16:21Z</time>
      </trkpt>
      <trkpt lat="43.13518" lon="-0.44616">
        <ele>408.22</ele>
        <time>2015-10-24T11:16:22Z</time>
      </trkpt>
      <trkpt lat="43.13548" lon="-0.44634">
        <ele>408.7</ele>
        <time>2015-10-24T11:16:33Z</time>
      </trkpt>
      <trkpt lat="43.13561" lon="-0.44638">
        <ele>408.22</ele>
        <time>2015-10-24T11:16:36Z</time>
      </trkpt>
      <trkpt lat="43.13597" lon="-0.4466">
        <ele>406.77</ele>
        <time>2015-10-24T11:16:43Z</time>
      </trkpt>
      <trkpt lat="43.13602" lon="-0.44662">
        <ele>406.29</ele>
        <time>2015-10-24T11:16:44Z</time>
      </trkpt>
      <trkpt lat="43.13608" lon="-0.44663">
        <ele>406.29</ele>
        <time>2015-10-24T11:16:45Z</time>
      </trkpt>
      <trkpt lat="43.13614" lon="-0.44662">
        <ele>405.81</ele>
        <time>2015-10-24T11:16:46Z</time>
      </trkpt>
      <trkpt lat="43.13621" lon="-0.44659">
        <ele>405.33</ele>
        <time>2015-10-24T11:16:47Z</time>
      </trkpt>
      <trkpt lat="43.13627" lon="-0.44655">
        <ele>404.85</ele>
        <time>2015-10-24T11:16:48Z</time>
      </trkpt>
      <trkpt lat="43.13633" lon="-0.44651">
        <ele>403.89</ele>
        <time>2015-10-24T11:16:49Z</time>
      </trkpt>
      <trkpt lat="43.13639" lon="-0.44647">
        <ele>403.41</ele>
        <time>2015-10-24T11:16:50Z</time>
      </trkpt>
      <trkpt lat="43.13644" lon="-0.44642">
        <ele>402.93</ele>
        <time>2015-10-24T11:16:51Z</time>
      </trkpt>
      <trkpt lat="43.13649" lon="-0.44637">
        <ele>401.97</ele>
        <time>2015-10-24T11:16:52Z</time>
      </trkpt>
      <trkpt lat="43.13653" lon="-0.44632">
        <ele>401.49</ele>
        <time>2015-10-24T11:16:53Z</time>
      </trkpt>
      <trkpt lat="43.13658" lon="-0.44628">
        <ele>401.01</ele>
        <time>2015-10-24T11:16:54Z</time>
      </trkpt>
      <trkpt lat="43.13663" lon="-0.44625">
        <ele>400.53</ele>
        <time>2015-10-24T11:16:55Z</time>
      </trkpt>
      <trkpt lat="43.13668" lon="-0.44623">
        <ele>400.53</ele>
        <time>2015-10-24T11:16:56Z</time>
      </trkpt>
      <trkpt lat="43.13673" lon="-0.44621">
        <ele>400.05</ele>
        <time>2015-10-24T11:16:57Z</time>
      </trkpt>
      <trkpt lat="43.13688" lon="-0.44616">
        <ele>400.53</ele>
        <time>2015-10-24T11:17:00Z</time>
      </trkpt>
      <trkpt lat="43.13693" lon="-0.44614">
        <ele>400.53</ele>
        <time>2015-10-24T11:17:01Z</time>
      </trkpt>
      <trkpt lat="43.1371" lon="-0.44603">
        <ele>400.05</ele>
        <time>2015-10-24T11:17:05Z</time>
      </trkpt>
      <trkpt lat="43.13719" lon="-0.44597">
        <ele>399.57</ele>
        <time>2015-10-24T11:17:07Z</time>
      </trkpt>
      <trkpt lat="43.13745" lon="-0.44586">
        <ele>398.12</ele>
        <time>2015-10-24T11:17:13Z</time>
      </trkpt>
      <trkpt lat="43.13784" lon="-0.44585">
        <ele>398.6</ele>
        <time>2015-10-24T11:17:24Z</time>
      </trkpt>
      <trkpt lat="43.13802" lon="-0.44596">
        <ele>400.05</ele>
        <time>2015-10-24T11:17:32Z</time>
      </trkpt>
      <trkpt lat="43.13803" lon="-0.44598">
        <ele>400.53</ele>
        <time>2015-10-24T11:17:33Z</time>
      </trkpt>
      <trkpt lat="43.13805" lon="-0.446">
        <ele>401.01</ele>
        <time>2015-10-24T11:17:34Z</time>
      </trkpt>
      <trkpt lat="43.13821" lon="-0.4461">
        <ele>403.41</ele>
        <time>2015-10-24T11:17:44Z</time>
      </trkpt>
      <trkpt lat="43.13823" lon="-0.44609">
        <ele>403.41</ele>
        <time>2015-10-24T11:17:45Z</time>
      </trkpt>
      <trkpt lat="43.13825" lon="-0.44607">
        <ele>403.89</ele>
        <time>2015-10-24T11:17:46Z</time>
      </trkpt>
      <trkpt lat="43.13827" lon="-0.44605">
        <ele>404.37</ele>
        <time>2015-10-24T11:17:47Z</time>
      </trkpt>
      <trkpt lat="43.13829" lon="-0.44604">
        <ele>405.33</ele>
        <time>2015-10-24T11:17:48Z</time>
      </trkpt>
      <trkpt lat="43.1383" lon="-0.44603">
        <ele>405.81</ele>
        <time>2015-10-24T11:17:49Z</time>
      </trkpt>
      <trkpt lat="43.13832" lon="-0.44601">
        <ele>406.29</ele>
        <time>2015-10-24T11:17:50Z</time>
      </trkpt>
      <trkpt lat="43.13834" lon="-0.446">
        <ele>406.29</ele>
        <time>2015-10-24T11:17:51Z</time>
      </trkpt>
      <trkpt lat="43.13836" lon="-0.44598">
        <ele>406.77</ele>
        <time>2015-10-24T11:17:52Z</time>
      </trkpt>
      <trkpt lat="43.13846" lon="-0.44594">
        <ele>406.77</ele>
        <time>2015-10-24T11:17:55Z</time>
      </trkpt>
      <trkpt lat="43.13859" lon="-0.44591">
        <ele>406.29</ele>
        <time>2015-10-24T11:17:58Z</time>
      </trkpt>
      <trkpt lat="43.13868" lon="-0.44592">
        <ele>406.29</ele>
        <time>2015-10-24T11:18:00Z</time>
      </trkpt>
      <trkpt lat="43.13873" lon="-0.4459">
        <ele>406.29</ele>
        <time>2015-10-24T11:18:01Z</time>
      </trkpt>
      <trkpt lat="43.13877" lon="-0.44588">
        <ele>405.81</ele>
        <time>2015-10-24T11:18:02Z</time>
      </trkpt>
      <trkpt lat="43.13881" lon="-0.44584">
        <ele>405.81</ele>
        <time>2015-10-24T11:18:03Z</time>
      </trkpt>
      <trkpt lat="43.13885" lon="-0.4458">
        <ele>405.81</ele>
        <time>2015-10-24T11:18:04Z</time>
      </trkpt>
      <trkpt lat="43.1391" lon="-0.44558">
        <ele>405.33</ele>
        <time>2015-10-24T11:18:10Z</time>
      </trkpt>
      <trkpt lat="43.13916" lon="-0.44555">
        <ele>405.33</ele>
        <time>2015-10-24T11:18:11Z</time>
      </trkpt>
      <trkpt lat="43.13945" lon="-0.44543">
        <ele>404.85</ele>
        <time>2015-10-24T11:18:16Z</time>
      </trkpt>
      <trkpt lat="43.13965" lon="-0.44537">
        <ele>404.37</ele>
        <time>2015-10-24T11:18:19Z</time>
      </trkpt>
      <trkpt lat="43.13971" lon="-0.44534">
        <ele>403.89</ele>
        <time>2015-10-24T11:18:20Z</time>
      </trkpt>
      <trkpt lat="43.13978" lon="-0.44532">
        <ele>403.89</ele>
        <time>2015-10-24T11:18:21Z</time>
      </trkpt>
      <trkpt lat="43.14015" lon="-0.44521">
        <ele>403.41</ele>
        <time>2015-10-24T11:18:27Z</time>
      </trkpt>
      <trkpt lat="43.14021" lon="-0.44517">
        <ele>402.93</ele>
        <time>2015-10-24T11:18:28Z</time>
      </trkpt>
      <trkpt lat="43.14039" lon="-0.44502">
        <ele>401.97</ele>
        <time>2015-10-24T11:18:31Z</time>
      </trkpt>
      <trkpt lat="43.14044" lon="-0.44496">
        <ele>401.49</ele>
        <time>2015-10-24T11:18:32Z</time>
      </trkpt>
      <trkpt lat="43.14075" lon="-0.44455">
        <ele>399.08</ele>
        <time>2015-10-24T11:18:38Z</time>
      </trkpt>
      <trkpt lat="43.1408" lon="-0.44446">
        <ele>398.6</ele>
        <time>2015-10-24T11:18:39Z</time>
      </trkpt>
      <trkpt lat="43.14094" lon="-0.44419">
        <ele>397.16</ele>
        <time>2015-10-24T11:18:42Z</time>
      </trkpt>
      <trkpt lat="43.14099" lon="-0.44411">
        <ele>396.68</ele>
        <time>2015-10-24T11:18:43Z</time>
      </trkpt>
      <trkpt lat="43.14121" lon="-0.44381">
        <ele>396.68</ele>
        <time>2015-10-24T11:18:48Z</time>
      </trkpt>
      <trkpt lat="43.14129" lon="-0.44366">
        <ele>397.64</ele>
        <time>2015-10-24T11:18:51Z</time>
      </trkpt>
      <trkpt lat="43.14137" lon="-0.44344">
        <ele>399.08</ele>
        <time>2015-10-24T11:18:55Z</time>
      </trkpt>
      <trkpt lat="43.14139" lon="-0.44339">
        <ele>399.08</ele>
        <time>2015-10-24T11:18:56Z</time>
      </trkpt>
      <trkpt lat="43.14141" lon="-0.44334">
        <ele>399.57</ele>
        <time>2015-10-24T11:18:57Z</time>
      </trkpt>
      <trkpt lat="43.14143" lon="-0.44329">
        <ele>400.05</ele>
        <time>2015-10-24T11:18:58Z</time>
      </trkpt>
      <trkpt lat="43.14145" lon="-0.44325">
        <ele>400.53</ele>
        <time>2015-10-24T11:18:59Z</time>
      </trkpt>
      <trkpt lat="43.14146" lon="-0.44321">
        <ele>400.53</ele>
        <time>2015-10-24T11:19:00Z</time>
      </trkpt>
      <trkpt lat="43.14162" lon="-0.44255">
        <ele>404.37</ele>
        <time>2015-10-24T11:19:14Z</time>
      </trkpt>
      <trkpt lat="43.14183" lon="-0.4419">
        <ele>405.33</ele>
        <time>2015-10-24T11:19:28Z</time>
      </trkpt>
      <trkpt lat="43.14209" lon="-0.44127">
        <ele>405.33</ele>
        <time>2015-10-24T11:19:40Z</time>
      </trkpt>
      <trkpt lat="43.14222" lon="-0.44101">
        <ele>405.33</ele>
        <time>2015-10-24T11:19:45Z</time>
      </trkpt>
      <trkpt lat="43.14247" lon="-0.44044">
        <ele>409.18</ele>
        <time>2015-10-24T11:19:59Z</time>
      </trkpt>
      <trkpt lat="43.14257" lon="-0.44021">
        <ele>408.22</ele>
        <time>2015-10-24T11:20:04Z</time>
      </trkpt>
      <trkpt lat="43.1426" lon="-0.44015">
        <ele>408.22</ele>
        <time>2015-10-24T11:20:05Z</time>
      </trkpt>
      <trkpt lat="43.14262" lon="-0.4401">
        <ele>408.22</ele>
        <time>2015-10-24T11:20:06Z</time>
      </trkpt>
      <trkpt lat="43.14274" lon="-0.43959">
        <ele>407.74</ele>
        <time>2015-10-24T11:20:14Z</time>
      </trkpt>
      <trkpt lat="43.14275" lon="-0.43952">
        <ele>407.74</ele>
        <time>2015-10-24T11:20:15Z</time>
      </trkpt>
      <trkpt lat="43.14276" lon="-0.43946">
        <ele>407.26</ele>
        <time>2015-10-24T11:20:16Z</time>
      </trkpt>
      <trkpt lat="43.14279" lon="-0.43934">
        <ele>406.77</ele>
        <time>2015-10-24T11:20:18Z</time>
      </trkpt>
      <trkpt lat="43.14285" lon="-0.43844">
        <ele>406.29</ele>
        <time>2015-10-24T11:20:33Z</time>
      </trkpt>
      <trkpt lat="43.14298" lon="-0.43776">
        <ele>406.77</ele>
        <time>2015-10-24T11:20:45Z</time>
      </trkpt>
      <trkpt lat="43.143" lon="-0.43771">
        <ele>406.77</ele>
        <time>2015-10-24T11:20:46Z</time>
      </trkpt>
      <trkpt lat="43.14302" lon="-0.43765">
        <ele>406.77</ele>
        <time>2015-10-24T11:20:47Z</time>
      </trkpt>
      <trkpt lat="43.14306" lon="-0.43747">
        <ele>406.29</ele>
        <time>2015-10-24T11:20:50Z</time>
      </trkpt>
      <trkpt lat="43.14308" lon="-0.43741">
        <ele>406.29</ele>
        <time>2015-10-24T11:20:51Z</time>
      </trkpt>
      <trkpt lat="43.14309" lon="-0.43736">
        <ele>406.29</ele>
        <time>2015-10-24T11:20:52Z</time>
      </trkpt>
      <trkpt lat="43.1431" lon="-0.4373">
        <ele>406.29</ele>
        <time>2015-10-24T11:20:53Z</time>
      </trkpt>
      <trkpt lat="43.14311" lon="-0.43725">
        <ele>405.81</ele>
        <time>2015-10-24T11:20:54Z</time>
      </trkpt>
      <trkpt lat="43.14313" lon="-0.43719">
        <ele>405.81</ele>
        <time>2015-10-24T11:20:55Z</time>
      </trkpt>
      <trkpt lat="43.14315" lon="-0.43707">
        <ele>405.81</ele>
        <time>2015-10-24T11:20:57Z</time>
      </trkpt>
      <trkpt lat="43.14315" lon="-0.43701">
        <ele>405.33</ele>
        <time>2015-10-24T11:20:58Z</time>
      </trkpt>
      <trkpt lat="43.14315" lon="-0.43694">
        <ele>405.33</ele>
        <time>2015-10-24T11:20:59Z</time>
      </trkpt>
      <trkpt lat="43.14313" lon="-0.4369">
        <ele>405.33</ele>
        <time>2015-10-24T11:21:00Z</time>
      </trkpt>
      <trkpt lat="43.1431" lon="-0.43689">
        <ele>404.85</ele>
        <time>2015-10-24T11:21:01Z</time>
      </trkpt>
      <trkpt lat="43.14306" lon="-0.43689">
        <ele>404.85</ele>
        <time>2015-10-24T11:21:02Z</time>
      </trkpt>
      <trkpt lat="43.14283" lon="-0.43683">
        <ele>405.33</ele>
        <time>2015-10-24T11:21:09Z</time>
      </trkpt>
      <trkpt lat="43.14281" lon="-0.43679">
        <ele>405.81</ele>
        <time>2015-10-24T11:21:10Z</time>
      </trkpt>
      <trkpt lat="43.14281" lon="-0.43675">
        <ele>405.33</ele>
        <time>2015-10-24T11:21:11Z</time>
      </trkpt>
      <trkpt lat="43.1429" lon="-0.43603">
        <ele>403.89</ele>
        <time>2015-10-24T11:21:23Z</time>
      </trkpt>
      <trkpt lat="43.14291" lon="-0.43597">
        <ele>403.41</ele>
        <time>2015-10-24T11:21:24Z</time>
      </trkpt>
      <trkpt lat="43.14301" lon="-0.43547">
        <ele>404.37</ele>
        <time>2015-10-24T11:21:34Z</time>
      </trkpt>
      <trkpt lat="43.14317" lon="-0.43501">
        <ele>402.93</ele>
        <time>2015-10-24T11:21:46Z</time>
      </trkpt>
      <trkpt lat="43.14324" lon="-0.43487">
        <ele>403.41</ele>
        <time>2015-10-24T11:21:51Z</time>
      </trkpt>
      <trkpt lat="43.14327" lon="-0.43486">
        <ele>403.89</ele>
        <time>2015-10-24T11:21:52Z</time>
      </trkpt>
      <trkpt lat="43.14329" lon="-0.43486">
        <ele>403.89</ele>
        <time>2015-10-24T11:21:53Z</time>
      </trkpt>
      <trkpt lat="43.14331" lon="-0.43486">
        <ele>403.89</ele>
        <time>2015-10-24T11:21:54Z</time>
      </trkpt>
      <trkpt lat="43.14333" lon="-0.43485">
        <ele>403.89</ele>
        <time>2015-10-24T11:21:55Z</time>
      </trkpt>
      <trkpt lat="43.14335" lon="-0.43484">
        <ele>403.89</ele>
        <time>2015-10-24T11:21:56Z</time>
      </trkpt>
      <trkpt lat="43.14337" lon="-0.43483">
        <ele>403.41</ele>
        <time>2015-10-24T11:21:57Z</time>
      </trkpt>
      <trkpt lat="43.14339" lon="-0.43481">
        <ele>402.93</ele>
        <time>2015-10-24T11:21:58Z</time>
      </trkpt>
      <trkpt lat="43.14361" lon="-0.4345">
        <ele>406.77</ele>
        <time>2015-10-24T11:22:10Z</time>
      </trkpt>
      <trkpt lat="43.1436" lon="-0.43414">
        <ele>414.47</ele>
        <time>2015-10-24T11:22:21Z</time>
      </trkpt>
      <trkpt lat="43.14352" lon="-0.43379">
        <ele>417.83</ele>
        <time>2015-10-24T11:22:33Z</time>
      </trkpt>
      <trkpt lat="43.14336" lon="-0.43338">
        <ele>421.68</ele>
        <time>2015-10-24T11:22:48Z</time>
      </trkpt>
      <trkpt lat="43.14328" lon="-0.4332">
        <ele>423.12</ele>
        <time>2015-10-24T11:22:55Z</time>
      </trkpt>
      <trkpt lat="43.14328" lon="-0.43316">
        <ele>423.12</ele>
        <time>2015-10-24T11:22:56Z</time>
      </trkpt>
      <trkpt lat="43.14333" lon="-0.43253">
        <ele>423.12</ele>
        <time>2015-10-24T11:23:11Z</time>
      </trkpt>
      <trkpt lat="43.14335" lon="-0.43243">
        <ele>422.64</ele>
        <time>2015-10-24T11:23:13Z</time>
      </trkpt>
      <trkpt lat="43.14336" lon="-0.43238">
        <ele>422.16</ele>
        <time>2015-10-24T11:23:14Z</time>
      </trkpt>
      <trkpt lat="43.14337" lon="-0.43231">
        <ele>421.19</ele>
        <time>2015-10-24T11:23:15Z</time>
      </trkpt>
      <trkpt lat="43.14337" lon="-0.43224">
        <ele>420.71</ele>
        <time>2015-10-24T11:23:16Z</time>
      </trkpt>
      <trkpt lat="43.14337" lon="-0.43215">
        <ele>419.75</ele>
        <time>2015-10-24T11:23:17Z</time>
      </trkpt>
      <trkpt lat="43.14333" lon="-0.43174">
        <ele>417.35</ele>
        <time>2015-10-24T11:23:21Z</time>
      </trkpt>
      <trkpt lat="43.1433" lon="-0.43155">
        <ele>415.91</ele>
        <time>2015-10-24T11:23:23Z</time>
      </trkpt>
      <trkpt lat="43.14332" lon="-0.43146">
        <ele>415.43</ele>
        <time>2015-10-24T11:23:24Z</time>
      </trkpt>
      <trkpt lat="43.14358" lon="-0.43093">
        <ele>410.62</ele>
        <time>2015-10-24T11:23:30Z</time>
      </trkpt>
      <trkpt lat="43.14364" lon="-0.43086">
        <ele>410.14</ele>
        <time>2015-10-24T11:23:31Z</time>
      </trkpt>
      <trkpt lat="43.1437" lon="-0.43083">
        <ele>409.66</ele>
        <time>2015-10-24T11:23:32Z</time>
      </trkpt>
      <trkpt lat="43.14378" lon="-0.43082">
        <ele>409.18</ele>
        <time>2015-10-24T11:23:33Z</time>
      </trkpt>
      <trkpt lat="43.14384" lon="-0.43084">
        <ele>409.18</ele>
        <time>2015-10-24T11:23:34Z</time>
      </trkpt>
      <trkpt lat="43.14391" lon="-0.43088">
        <ele>408.7</ele>
        <time>2015-10-24T11:23:35Z</time>
      </trkpt>
      <trkpt lat="43.14397" lon="-0.43093">
        <ele>408.7</ele>
        <time>2015-10-24T11:23:36Z</time>
      </trkpt>
      <trkpt lat="43.14402" lon="-0.43098">
        <ele>408.22</ele>
        <time>2015-10-24T11:23:37Z</time>
      </trkpt>
      <trkpt lat="43.14406" lon="-0.43104">
        <ele>408.22</ele>
        <time>2015-10-24T11:23:38Z</time>
      </trkpt>
      <trkpt lat="43.14409" lon="-0.43111">
        <ele>408.22</ele>
        <time>2015-10-24T11:23:39Z</time>
      </trkpt>
      <trkpt lat="43.14413" lon="-0.43118">
        <ele>408.22</ele>
        <time>2015-10-24T11:23:40Z</time>
      </trkpt>
      <trkpt lat="43.14417" lon="-0.43124">
        <ele>408.22</ele>
        <time>2015-10-24T11:23:41Z</time>
      </trkpt>
      <trkpt lat="43.1442" lon="-0.43131">
        <ele>408.22</ele>
        <time>2015-10-24T11:23:42Z</time>
      </trkpt>
      <trkpt lat="43.14432" lon="-0.43161">
        <ele>407.74</ele>
        <time>2015-10-24T11:23:46Z</time>
      </trkpt>
      <trkpt lat="43.1444" lon="-0.43183">
        <ele>406.29</ele>
        <time>2015-10-24T11:23:49Z</time>
      </trkpt>
      <trkpt lat="43.14446" lon="-0.43208">
        <ele>405.33</ele>
        <time>2015-10-24T11:23:52Z</time>
      </trkpt>
      <trkpt lat="43.14449" lon="-0.43215">
        <ele>405.33</ele>
        <time>2015-10-24T11:23:53Z</time>
      </trkpt>
      <trkpt lat="43.14491" lon="-0.43307">
        <ele>401.97</ele>
        <time>2015-10-24T11:24:05Z</time>
      </trkpt>
      <trkpt lat="43.1451" lon="-0.43343">
        <ele>399.57</ele>
        <time>2015-10-24T11:24:11Z</time>
      </trkpt>
      <trkpt lat="43.14513" lon="-0.43343">
        <ele>399.57</ele>
        <time>2015-10-24T11:24:12Z</time>
      </trkpt>
      <trkpt lat="43.14514" lon="-0.43341">
        <ele>399.08</ele>
        <time>2015-10-24T11:24:13Z</time>
      </trkpt>
      <trkpt lat="43.14516" lon="-0.43338">
        <ele>399.57</ele>
        <time>2015-10-24T11:24:14Z</time>
      </trkpt>
      <trkpt lat="43.14517" lon="-0.43336">
        <ele>399.57</ele>
        <time>2015-10-24T11:24:15Z</time>
      </trkpt>
      <trkpt lat="43.14519" lon="-0.43334">
        <ele>400.05</ele>
        <time>2015-10-24T11:24:16Z</time>
      </trkpt>
      <trkpt lat="43.1452" lon="-0.43331">
        <ele>400.53</ele>
        <time>2015-10-24T11:24:17Z</time>
      </trkpt>
      <trkpt lat="43.14521" lon="-0.43329">
        <ele>401.49</ele>
        <time>2015-10-24T11:24:18Z</time>
      </trkpt>
      <trkpt lat="43.14528" lon="-0.43318">
        <ele>404.85</ele>
        <time>2015-10-24T11:24:23Z</time>
      </trkpt>
      <trkpt lat="43.14529" lon="-0.43317">
        <ele>405.33</ele>
        <time>2015-10-24T11:24:24Z</time>
      </trkpt>
      <trkpt lat="43.14531" lon="-0.43315">
        <ele>405.81</ele>
        <time>2015-10-24T11:24:25Z</time>
      </trkpt>
      <trkpt lat="43.14548" lon="-0.4329">
        <ele>409.18</ele>
        <time>2015-10-24T11:24:38Z</time>
      </trkpt>
      <trkpt lat="43.14564" lon="-0.43266">
        <ele>410.62</ele>
        <time>2015-10-24T11:24:51Z</time>
      </trkpt>
      <trkpt lat="43.14578" lon="-0.43232">
        <ele>407.26</ele>
        <time>2015-10-24T11:25:02Z</time>
      </trkpt>
      <trkpt lat="43.14577" lon="-0.43208">
        <ele>406.77</ele>
        <time>2015-10-24T11:25:06Z</time>
      </trkpt>
      <trkpt lat="43.14576" lon="-0.43201">
        <ele>406.29</ele>
        <time>2015-10-24T11:25:07Z</time>
      </trkpt>
      <trkpt lat="43.14576" lon="-0.43193">
        <ele>406.29</ele>
        <time>2015-10-24T11:25:08Z</time>
      </trkpt>
      <trkpt lat="43.14578" lon="-0.43185">
        <ele>405.81</ele>
        <time>2015-10-24T11:25:09Z</time>
      </trkpt>
      <trkpt lat="43.14579" lon="-0.43177">
        <ele>405.33</ele>
        <time>2015-10-24T11:25:10Z</time>
      </trkpt>
      <trkpt lat="43.14582" lon="-0.43169">
        <ele>404.85</ele>
        <time>2015-10-24T11:25:11Z</time>
      </trkpt>
      <trkpt lat="43.14591" lon="-0.43137">
        <ele>403.41</ele>
        <time>2015-10-24T11:25:15Z</time>
      </trkpt>
      <trkpt lat="43.14593" lon="-0.43127">
        <ele>402.93</ele>
        <time>2015-10-24T11:25:16Z</time>
      </trkpt>
      <trkpt lat="43.146" lon="-0.431">
        <ele>401.49</ele>
        <time>2015-10-24T11:25:19Z</time>
      </trkpt>
      <trkpt lat="43.14605" lon="-0.43094">
        <ele>400.53</ele>
        <time>2015-10-24T11:25:20Z</time>
      </trkpt>
      <trkpt lat="43.1461" lon="-0.4309">
        <ele>400.05</ele>
        <time>2015-10-24T11:25:21Z</time>
      </trkpt>
      <trkpt lat="43.14631" lon="-0.43073">
        <ele>398.12</ele>
        <time>2015-10-24T11:25:28Z</time>
      </trkpt>
      <trkpt lat="43.14631" lon="-0.43035">
        <ele>396.2</ele>
        <time>2015-10-24T11:25:37Z</time>
      </trkpt>
      <trkpt lat="43.14615" lon="-0.42952">
        <ele>393.32</ele>
        <time>2015-10-24T11:25:50Z</time>
      </trkpt>
      <trkpt lat="43.14605" lon="-0.42907">
        <ele>390.91</ele>
        <time>2015-10-24T11:25:55Z</time>
      </trkpt>
      <trkpt lat="43.14601" lon="-0.42888">
        <ele>390.43</ele>
        <time>2015-10-24T11:25:57Z</time>
      </trkpt>
      <trkpt lat="43.146" lon="-0.42879">
        <ele>389.95</ele>
        <time>2015-10-24T11:25:58Z</time>
      </trkpt>
      <trkpt lat="43.14594" lon="-0.42848">
        <ele>386.59</ele>
        <time>2015-10-24T11:26:01Z</time>
      </trkpt>
      <trkpt lat="43.1459" lon="-0.42837">
        <ele>385.63</ele>
        <time>2015-10-24T11:26:02Z</time>
      </trkpt>
      <trkpt lat="43.14586" lon="-0.42826">
        <ele>384.66</ele>
        <time>2015-10-24T11:26:03Z</time>
      </trkpt>
      <trkpt lat="43.14582" lon="-0.42816">
        <ele>383.7</ele>
        <time>2015-10-24T11:26:04Z</time>
      </trkpt>
      <trkpt lat="43.14578" lon="-0.42809">
        <ele>382.74</ele>
        <time>2015-10-24T11:26:05Z</time>
      </trkpt>
      <trkpt lat="43.14575" lon="-0.42805">
        <ele>381.78</ele>
        <time>2015-10-24T11:26:06Z</time>
      </trkpt>
      <trkpt lat="43.14568" lon="-0.42794">
        <ele>380.34</ele>
        <time>2015-10-24T11:26:09Z</time>
      </trkpt>
      <trkpt lat="43.14568" lon="-0.4279">
        <ele>379.86</ele>
        <time>2015-10-24T11:26:10Z</time>
      </trkpt>
      <trkpt lat="43.14567" lon="-0.42784">
        <ele>378.9</ele>
        <time>2015-10-24T11:26:11Z</time>
      </trkpt>
      <trkpt lat="43.14563" lon="-0.42771">
        <ele>376.49</ele>
        <time>2015-10-24T11:26:13Z</time>
      </trkpt>
      <trkpt lat="43.14561" lon="-0.42765">
        <ele>375.53</ele>
        <time>2015-10-24T11:26:14Z</time>
      </trkpt>
      <trkpt lat="43.1455" lon="-0.42742">
        <ele>366.88</ele>
        <time>2015-10-24T11:26:21Z</time>
      </trkpt>
      <trkpt lat="43.14549" lon="-0.4274">
        <ele>366.4</ele>
        <time>2015-10-24T11:26:24Z</time>
      </trkpt>
      <trkpt lat="43.14549" lon="-0.42734">
        <ele>365.44</ele>
        <time>2015-10-24T11:26:29Z</time>
      </trkpt>
      <trkpt lat="43.14548" lon="-0.42718">
        <ele>365.92</ele>
        <time>2015-10-24T11:26:42Z</time>
      </trkpt>
      <trkpt lat="43.14534" lon="-0.4269">
        <ele>370.24</ele>
        <time>2015-10-24T11:26:54Z</time>
      </trkpt>
      <trkpt lat="43.1451" lon="-0.42647">
        <ele>374.57</ele>
        <time>2015-10-24T11:27:10Z</time>
      </trkpt>
      <trkpt lat="43.14501" lon="-0.4263">
        <ele>376.49</ele>
        <time>2015-10-24T11:27:17Z</time>
      </trkpt>
      <trkpt lat="43.14488" lon="-0.42578">
        <ele>380.34</ele>
        <time>2015-10-24T11:27:32Z</time>
      </trkpt>
      <trkpt lat="43.14479" lon="-0.42539">
        <ele>382.26</ele>
        <time>2015-10-24T11:27:44Z</time>
      </trkpt>
      <trkpt lat="43.14476" lon="-0.42528">
        <ele>383.22</ele>
        <time>2015-10-24T11:27:48Z</time>
      </trkpt>
      <trkpt lat="43.1445" lon="-0.42507">
        <ele>386.11</ele>
        <time>2015-10-24T11:28:01Z</time>
      </trkpt>
      <trkpt lat="43.14424" lon="-0.42481">
        <ele>387.55</ele>
        <time>2015-10-24T11:28:13Z</time>
      </trkpt>
      <trkpt lat="43.14392" lon="-0.42449">
        <ele>389.47</ele>
        <time>2015-10-24T11:28:27Z</time>
      </trkpt>
      <trkpt lat="43.14377" lon="-0.42414">
        <ele>389.95</ele>
        <time>2015-10-24T11:28:39Z</time>
      </trkpt>
      <trkpt lat="43.14358" lon="-0.42378">
        <ele>390.91</ele>
        <time>2015-10-24T11:28:51Z</time>
      </trkpt>
      <trkpt lat="43.14323" lon="-0.42361">
        <ele>392.36</ele>
        <time>2015-10-24T11:29:02Z</time>
      </trkpt>
      <trkpt lat="43.14298" lon="-0.42348">
        <ele>392.36</ele>
        <time>2015-10-24T11:29:09Z</time>
      </trkpt>
      <trkpt lat="43.14268" lon="-0.4233">
        <ele>391.39</ele>
        <time>2015-10-24T11:29:18Z</time>
      </trkpt>
      <trkpt lat="43.14263" lon="-0.42333">
        <ele>390.91</ele>
        <time>2015-10-24T11:29:19Z</time>
      </trkpt>
      <trkpt lat="43.14258" lon="-0.42338">
        <ele>390.43</ele>
        <time>2015-10-24T11:29:20Z</time>
      </trkpt>
      <trkpt lat="43.1422" lon="-0.42372">
        <ele>388.51</ele>
        <time>2015-10-24T11:29:26Z</time>
      </trkpt>
      <trkpt lat="43.14213" lon="-0.42375">
        <ele>388.03</ele>
        <time>2015-10-24T11:29:27Z</time>
      </trkpt>
      <trkpt lat="43.14206" lon="-0.42376">
        <ele>387.55</ele>
        <time>2015-10-24T11:29:28Z</time>
      </trkpt>
      <trkpt lat="43.142" lon="-0.42376">
        <ele>387.07</ele>
        <time>2015-10-24T11:29:29Z</time>
      </trkpt>
      <trkpt lat="43.14194" lon="-0.42375">
        <ele>387.07</ele>
        <time>2015-10-24T11:29:30Z</time>
      </trkpt>
      <trkpt lat="43.14188" lon="-0.42373">
        <ele>387.07</ele>
        <time>2015-10-24T11:29:31Z</time>
      </trkpt>
      <trkpt lat="43.14173" lon="-0.4237">
        <ele>387.07</ele>
        <time>2015-10-24T11:29:34Z</time>
      </trkpt>
      <trkpt lat="43.14168" lon="-0.42369">
        <ele>387.07</ele>
        <time>2015-10-24T11:29:35Z</time>
      </trkpt>
      <trkpt lat="43.14163" lon="-0.42368">
        <ele>387.07</ele>
        <time>2015-10-24T11:29:36Z</time>
      </trkpt>
      <trkpt lat="43.14158" lon="-0.42365">
        <ele>387.55</ele>
        <time>2015-10-24T11:29:37Z</time>
      </trkpt>
      <trkpt lat="43.14153" lon="-0.42363">
        <ele>387.55</ele>
        <time>2015-10-24T11:29:38Z</time>
      </trkpt>
      <trkpt lat="43.14144" lon="-0.42358">
        <ele>387.55</ele>
        <time>2015-10-24T11:29:40Z</time>
      </trkpt>
      <trkpt lat="43.14139" lon="-0.42357">
        <ele>387.55</ele>
        <time>2015-10-24T11:29:41Z</time>
      </trkpt>
      <trkpt lat="43.14134" lon="-0.42355">
        <ele>387.55</ele>
        <time>2015-10-24T11:29:42Z</time>
      </trkpt>
      <trkpt lat="43.14131" lon="-0.42354">
        <ele>387.07</ele>
        <time>2015-10-24T11:29:43Z</time>
      </trkpt>
      <trkpt lat="43.14129" lon="-0.42352">
        <ele>387.07</ele>
        <time>2015-10-24T11:29:44Z</time>
      </trkpt>
      <trkpt lat="43.14103" lon="-0.42333">
        <ele>380.82</ele>
        <time>2015-10-24T11:29:55Z</time>
      </trkpt>
      <trkpt lat="43.14089" lon="-0.42322">
        <ele>377.94</ele>
        <time>2015-10-24T11:30:02Z</time>
      </trkpt>
      <trkpt lat="43.14073" lon="-0.42323">
        <ele>375.53</ele>
        <time>2015-10-24T11:30:08Z</time>
      </trkpt>
      <trkpt lat="43.14056" lon="-0.42326">
        <ele>373.61</ele>
        <time>2015-10-24T11:30:15Z</time>
      </trkpt>
      <trkpt lat="43.14043" lon="-0.4233">
        <ele>375.05</ele>
        <time>2015-10-24T11:30:22Z</time>
      </trkpt>
      <trkpt lat="43.14023" lon="-0.4233">
        <ele>376.01</ele>
        <time>2015-10-24T11:30:29Z</time>
      </trkpt>
      <trkpt lat="43.14008" lon="-0.42331">
        <ele>376.97</ele>
        <time>2015-10-24T11:30:35Z</time>
      </trkpt>
      <trkpt lat="43.14004" lon="-0.42331">
        <ele>376.49</ele>
        <time>2015-10-24T11:30:37Z</time>
      </trkpt>
      <trkpt lat="43.13991" lon="-0.42325">
        <ele>378.42</ele>
        <time>2015-10-24T11:30:43Z</time>
      </trkpt>
      <trkpt lat="43.13959" lon="-0.42327">
        <ele>381.78</ele>
        <time>2015-10-24T11:30:54Z</time>
      </trkpt>
      <trkpt lat="43.1394" lon="-0.42331">
        <ele>383.7</ele>
        <time>2015-10-24T11:31:02Z</time>
      </trkpt>
      <trkpt lat="43.1392" lon="-0.42329">
        <ele>383.22</ele>
        <time>2015-10-24T11:31:11Z</time>
      </trkpt>
      <trkpt lat="43.13916" lon="-0.42333">
        <ele>383.22</ele>
        <time>2015-10-24T11:31:15Z</time>
      </trkpt>
      <trkpt lat="43.13906" lon="-0.4233">
        <ele>383.22</ele>
        <time>2015-10-24T11:31:20Z</time>
      </trkpt>
      <trkpt lat="43.13877" lon="-0.42327">
        <ele>380.34</ele>
        <time>2015-10-24T11:31:32Z</time>
      </trkpt>
      <trkpt lat="43.1386" lon="-0.42331">
        <ele>382.74</ele>
        <time>2015-10-24T11:31:37Z</time>
      </trkpt>
      <trkpt lat="43.1385" lon="-0.42333">
        <ele>386.59</ele>
        <time>2015-10-24T11:31:40Z</time>
      </trkpt>
      <trkpt lat="43.13837" lon="-0.42333">
        <ele>389.47</ele>
        <time>2015-10-24T11:31:46Z</time>
      </trkpt>
      <trkpt lat="43.13812" lon="-0.42328">
        <ele>394.28</ele>
        <time>2015-10-24T11:31:57Z</time>
      </trkpt>
      <trkpt lat="43.13792" lon="-0.42318">
        <ele>398.12</ele>
        <time>2015-10-24T11:32:09Z</time>
      </trkpt>
      <trkpt lat="43.13774" lon="-0.42306">
        <ele>398.6</ele>
        <time>2015-10-24T11:32:18Z</time>
      </trkpt>
      <trkpt lat="43.13771" lon="-0.42305">
        <ele>398.6</ele>
        <time>2015-10-24T11:32:20Z</time>
      </trkpt>
      <trkpt lat="43.13769" lon="-0.42301">
        <ele>398.6</ele>
        <time>2015-10-24T11:32:22Z</time>
      </trkpt>
      <trkpt lat="43.13761" lon="-0.4229">
        <ele>398.6</ele>
        <time>2015-10-24T11:32:29Z</time>
      </trkpt>
      <trkpt lat="43.13756" lon="-0.42281">
        <ele>398.12</ele>
        <time>2015-10-24T11:32:34Z</time>
      </trkpt>
      <trkpt lat="43.13748" lon="-0.4227">
        <ele>397.64</ele>
        <time>2015-10-24T11:32:41Z</time>
      </trkpt>
      <trkpt lat="43.1374" lon="-0.42258">
        <ele>397.16</ele>
        <time>2015-10-24T11:32:49Z</time>
      </trkpt>
      <trkpt lat="43.13735" lon="-0.42255">
        <ele>397.16</ele>
        <time>2015-10-24T11:32:52Z</time>
      </trkpt>
      <trkpt lat="43.13709" lon="-0.42249">
        <ele>397.64</ele>
        <time>2015-10-24T11:33:04Z</time>
      </trkpt>
      <trkpt lat="43.13691" lon="-0.42252">
        <ele>399.08</ele>
        <time>2015-10-24T11:33:10Z</time>
      </trkpt>
      <trkpt lat="43.13682" lon="-0.42253">
        <ele>401.01</ele>
        <time>2015-10-24T11:33:13Z</time>
      </trkpt>
      <trkpt lat="43.13672" lon="-0.42254">
        <ele>402.45</ele>
        <time>2015-10-24T11:33:17Z</time>
      </trkpt>
      <trkpt lat="43.1365" lon="-0.42251">
        <ele>402.93</ele>
        <time>2015-10-24T11:33:29Z</time>
      </trkpt>
      <trkpt lat="43.1364" lon="-0.42248">
        <ele>398.6</ele>
        <time>2015-10-24T11:33:35Z</time>
      </trkpt>
      <trkpt lat="43.13628" lon="-0.42238">
        <ele>394.28</ele>
        <time>2015-10-24T11:33:44Z</time>
      </trkpt>
      <trkpt lat="43.13627" lon="-0.42238">
        <ele>394.28</ele>
        <time>2015-10-24T11:33:45Z</time>
      </trkpt>
      <trkpt lat="43.13624" lon="-0.42239">
        <ele>394.76</ele>
        <time>2015-10-24T11:33:46Z</time>
      </trkpt>
      <trkpt lat="43.13599" lon="-0.42221">
        <ele>400.53</ele>
        <time>2015-10-24T11:33:59Z</time>
      </trkpt>
      <trkpt lat="43.13587" lon="-0.42211">
        <ele>401.01</ele>
        <time>2015-10-24T11:34:06Z</time>
      </trkpt>
      <trkpt lat="43.13578" lon="-0.42202">
        <ele>400.05</ele>
        <time>2015-10-24T11:34:11Z</time>
      </trkpt>
      <trkpt lat="43.13574" lon="-0.42196">
        <ele>400.05</ele>
        <time>2015-10-24T11:34:14Z</time>
      </trkpt>
      <trkpt lat="43.13565" lon="-0.42182">
        <ele>406.77</ele>
        <time>2015-10-24T11:34:26Z</time>
      </trkpt>
      <trkpt lat="43.13565" lon="-0.42181">
        <ele>408.7</ele>
        <time>2015-10-24T11:34:35Z</time>
      </trkpt>
      <trkpt lat="43.13567" lon="-0.4218">
        <ele>409.66</ele>
        <time>2015-10-24T11:34:38Z</time>
      </trkpt>
      <trkpt lat="43.1357" lon="-0.42178">
        <ele>411.58</ele>
        <time>2015-10-24T11:34:41Z</time>
      </trkpt>
      <trkpt lat="43.1358" lon="-0.42175">
        <ele>418.79</ele>
        <time>2015-10-24T11:34:52Z</time>
      </trkpt>
      <trkpt lat="43.13589" lon="-0.42175">
        <ele>423.12</ele>
        <time>2015-10-24T11:35:02Z</time>
      </trkpt>
      <trkpt lat="43.136" lon="-0.4217">
        <ele>426.48</ele>
        <time>2015-10-24T11:35:13Z</time>
      </trkpt>
      <trkpt lat="43.13607" lon="-0.42167">
        <ele>427.44</ele>
        <time>2015-10-24T11:35:21Z</time>
      </trkpt>
      <trkpt lat="43.13615" lon="-0.42164">
        <ele>428.89</ele>
        <time>2015-10-24T11:35:28Z</time>
      </trkpt>
      <trkpt lat="43.13623" lon="-0.42161">
        <ele>430.81</ele>
        <time>2015-10-24T11:35:38Z</time>
      </trkpt>
      <trkpt lat="43.13633" lon="-0.42162">
        <ele>435.13</ele>
        <time>2015-10-24T11:35:51Z</time>
      </trkpt>
      <trkpt lat="43.13637" lon="-0.42163">
        <ele>437.54</ele>
        <time>2015-10-24T11:35:57Z</time>
      </trkpt>
      <trkpt lat="43.13647" lon="-0.42156">
        <ele>442.34</ele>
        <time>2015-10-24T11:36:11Z</time>
      </trkpt>
      <trkpt lat="43.13648" lon="-0.4215">
        <ele>445.71</ele>
        <time>2015-10-24T11:36:23Z</time>
      </trkpt>
      <trkpt lat="43.13649" lon="-0.42144">
        <ele>447.15</ele>
        <time>2015-10-24T11:36:28Z</time>
      </trkpt>
      <trkpt lat="43.13654" lon="-0.42135">
        <ele>448.59</ele>
        <time>2015-10-24T11:36:33Z</time>
      </trkpt>
      <trkpt lat="43.13659" lon="-0.42128">
        <ele>449.07</ele>
        <time>2015-10-24T11:36:37Z</time>
      </trkpt>
      <trkpt lat="43.13667" lon="-0.42107">
        <ele>448.59</ele>
        <time>2015-10-24T11:36:50Z</time>
      </trkpt>
      <trkpt lat="43.1368" lon="-0.42096">
        <ele>448.11</ele>
        <time>2015-10-24T11:37:02Z</time>
      </trkpt>
      <trkpt lat="43.1369" lon="-0.42096">
        <ele>448.59</ele>
        <time>2015-10-24T11:37:10Z</time>
      </trkpt>
      <trkpt lat="43.13702" lon="-0.42099">
        <ele>451</ele>
        <time>2015-10-24T11:37:23Z</time>
      </trkpt>
      <trkpt lat="43.1372" lon="-0.42097">
        <ele>454.84</ele>
        <time>2015-10-24T11:37:37Z</time>
      </trkpt>
      <trkpt lat="43.13734" lon="-0.42091">
        <ele>458.21</ele>
        <time>2015-10-24T11:37:50Z</time>
      </trkpt>
      <trkpt lat="43.13753" lon="-0.42093">
        <ele>461.57</ele>
        <time>2015-10-24T11:38:04Z</time>
      </trkpt>
      <trkpt lat="43.13757" lon="-0.42094">
        <ele>461.57</ele>
        <time>2015-10-24T11:38:07Z</time>
      </trkpt>
      <trkpt lat="43.13767" lon="-0.42099">
        <ele>462.05</ele>
        <time>2015-10-24T11:38:12Z</time>
      </trkpt>
      <trkpt lat="43.13787" lon="-0.42083">
        <ele>463.01</ele>
        <time>2015-10-24T11:38:22Z</time>
      </trkpt>
      <trkpt lat="43.1381" lon="-0.42052">
        <ele>463.01</ele>
        <time>2015-10-24T11:38:36Z</time>
      </trkpt>
      <trkpt lat="43.13823" lon="-0.42023">
        <ele>463.01</ele>
        <time>2015-10-24T11:38:48Z</time>
      </trkpt>
      <trkpt lat="43.13839" lon="-0.41977">
        <ele>463.01</ele>
        <time>2015-10-24T11:39:04Z</time>
      </trkpt>
      <trkpt lat="43.13843" lon="-0.41965">
        <ele>463.49</ele>
        <time>2015-10-24T11:39:08Z</time>
      </trkpt>
      <trkpt lat="43.1385" lon="-0.41925">
        <ele>466.86</ele>
        <time>2015-10-24T11:39:21Z</time>
      </trkpt>
      <trkpt lat="43.13857" lon="-0.4188">
        <ele>468.3</ele>
        <time>2015-10-24T11:39:34Z</time>
      </trkpt>
      <trkpt lat="43.13858" lon="-0.41838">
        <ele>466.86</ele>
        <time>2015-10-24T11:39:47Z</time>
      </trkpt>
      <trkpt lat="43.1386" lon="-0.41826">
        <ele>465.9</ele>
        <time>2015-10-24T11:39:50Z</time>
      </trkpt>
      <trkpt lat="43.13858" lon="-0.41783">
        <ele>463.01</ele>
        <time>2015-10-24T11:39:56Z</time>
      </trkpt>
      <trkpt lat="43.13859" lon="-0.41762">
        <ele>461.57</ele>
        <time>2015-10-24T11:39:59Z</time>
      </trkpt>
      <trkpt lat="43.13861" lon="-0.41755">
        <ele>461.09</ele>
        <time>2015-10-24T11:40:00Z</time>
      </trkpt>
      <trkpt lat="43.13865" lon="-0.41751">
        <ele>461.09</ele>
        <time>2015-10-24T11:40:01Z</time>
      </trkpt>
      <trkpt lat="43.13873" lon="-0.41746">
        <ele>460.61</ele>
        <time>2015-10-24T11:40:03Z</time>
      </trkpt>
      <trkpt lat="43.13883" lon="-0.41742">
        <ele>460.13</ele>
        <time>2015-10-24T11:40:05Z</time>
      </trkpt>
      <trkpt lat="43.13886" lon="-0.41739">
        <ele>460.13</ele>
        <time>2015-10-24T11:40:06Z</time>
      </trkpt>
      <trkpt lat="43.13895" lon="-0.41722">
        <ele>459.65</ele>
        <time>2015-10-24T11:40:13Z</time>
      </trkpt>
      <trkpt lat="43.139" lon="-0.41705">
        <ele>458.69</ele>
        <time>2015-10-24T11:40:19Z</time>
      </trkpt>
      <trkpt lat="43.139" lon="-0.41702">
        <ele>458.69</ele>
        <time>2015-10-24T11:40:20Z</time>
      </trkpt>
      <trkpt lat="43.13901" lon="-0.41698">
        <ele>458.21</ele>
        <time>2015-10-24T11:40:21Z</time>
      </trkpt>
      <trkpt lat="43.13901" lon="-0.41695">
        <ele>458.21</ele>
        <time>2015-10-24T11:40:22Z</time>
      </trkpt>
      <trkpt lat="43.13901" lon="-0.41692">
        <ele>458.21</ele>
        <time>2015-10-24T11:40:23Z</time>
      </trkpt>
      <trkpt lat="43.13901" lon="-0.41688">
        <ele>458.69</ele>
        <time>2015-10-24T11:40:24Z</time>
      </trkpt>
      <trkpt lat="43.13911" lon="-0.41642">
        <ele>460.13</ele>
        <time>2015-10-24T11:40:37Z</time>
      </trkpt>
      <trkpt lat="43.13917" lon="-0.41608">
        <ele>462.53</ele>
        <time>2015-10-24T11:40:47Z</time>
      </trkpt>
      <trkpt lat="43.13909" lon="-0.4158">
        <ele>467.82</ele>
        <time>2015-10-24T11:40:59Z</time>
      </trkpt>
      <trkpt lat="43.13901" lon="-0.41555">
        <ele>470.7</ele>
        <time>2015-10-24T11:41:11Z</time>
      </trkpt>
      <trkpt lat="43.13893" lon="-0.41528">
        <ele>473.59</ele>
        <time>2015-10-24T11:41:23Z</time>
      </trkpt>
      <trkpt lat="43.13891" lon="-0.41527">
        <ele>473.59</ele>
        <time>2015-10-24T11:41:24Z</time>
      </trkpt>
      <trkpt lat="43.13889" lon="-0.41526">
        <ele>474.07</ele>
        <time>2015-10-24T11:41:25Z</time>
      </trkpt>
      <trkpt lat="43.13887" lon="-0.41526">
        <ele>474.07</ele>
        <time>2015-10-24T11:41:26Z</time>
      </trkpt>
      <trkpt lat="43.13885" lon="-0.41526">
        <ele>474.55</ele>
        <time>2015-10-24T11:41:27Z</time>
      </trkpt>
      <trkpt lat="43.13848" lon="-0.41528">
        <ele>476.95</ele>
        <time>2015-10-24T11:41:43Z</time>
      </trkpt>
      <trkpt lat="43.13807" lon="-0.41521">
        <ele>478.39</ele>
        <time>2015-10-24T11:41:58Z</time>
      </trkpt>
      <trkpt lat="43.13762" lon="-0.41522">
        <ele>481.28</ele>
        <time>2015-10-24T11:42:13Z</time>
      </trkpt>
      <trkpt lat="43.13719" lon="-0.4153">
        <ele>485.12</ele>
        <time>2015-10-24T11:42:27Z</time>
      </trkpt>
      <trkpt lat="43.13684" lon="-0.41535">
        <ele>485.6</ele>
        <time>2015-10-24T11:42:38Z</time>
      </trkpt>
      <trkpt lat="43.13651" lon="-0.41534">
        <ele>488.01</ele>
        <time>2015-10-24T11:42:47Z</time>
      </trkpt>
      <trkpt lat="43.1361" lon="-0.41533">
        <ele>492.33</ele>
        <time>2015-10-24T11:42:59Z</time>
      </trkpt>
      <trkpt lat="43.13573" lon="-0.41532">
        <ele>497.14</ele>
        <time>2015-10-24T11:43:11Z</time>
      </trkpt>
      <trkpt lat="43.13532" lon="-0.41533">
        <ele>498.58</ele>
        <time>2015-10-24T11:43:23Z</time>
      </trkpt>
      <trkpt lat="43.13492" lon="-0.41545">
        <ele>499.06</ele>
        <time>2015-10-24T11:43:33Z</time>
      </trkpt>
      <trkpt lat="43.13488" lon="-0.41546">
        <ele>499.06</ele>
        <time>2015-10-24T11:43:34Z</time>
      </trkpt>
      <trkpt lat="43.13465" lon="-0.41548">
        <ele>497.62</ele>
        <time>2015-10-24T11:43:39Z</time>
      </trkpt>
      <trkpt lat="43.13456" lon="-0.41548">
        <ele>498.1</ele>
        <time>2015-10-24T11:43:41Z</time>
      </trkpt>
      <trkpt lat="43.13451" lon="-0.41548">
        <ele>498.1</ele>
        <time>2015-10-24T11:43:42Z</time>
      </trkpt>
      <trkpt lat="43.13447" lon="-0.41548">
        <ele>498.1</ele>
        <time>2015-10-24T11:43:43Z</time>
      </trkpt>
      <trkpt lat="43.13442" lon="-0.41548">
        <ele>497.62</ele>
        <time>2015-10-24T11:43:44Z</time>
      </trkpt>
      <trkpt lat="43.13438" lon="-0.41548">
        <ele>497.62</ele>
        <time>2015-10-24T11:43:45Z</time>
      </trkpt>
      <trkpt lat="43.13433" lon="-0.41548">
        <ele>497.14</ele>
        <time>2015-10-24T11:43:46Z</time>
      </trkpt>
      <trkpt lat="43.13394" lon="-0.41541">
        <ele>493.77</ele>
        <time>2015-10-24T11:43:53Z</time>
      </trkpt>
      <trkpt lat="43.13388" lon="-0.41539">
        <ele>493.77</ele>
        <time>2015-10-24T11:43:54Z</time>
      </trkpt>
      <trkpt lat="43.13382" lon="-0.41536">
        <ele>493.29</ele>
        <time>2015-10-24T11:43:55Z</time>
      </trkpt>
      <trkpt lat="43.13366" lon="-0.41531">
        <ele>492.81</ele>
        <time>2015-10-24T11:43:58Z</time>
      </trkpt>
      <trkpt lat="43.13356" lon="-0.41527">
        <ele>492.33</ele>
        <time>2015-10-24T11:44:00Z</time>
      </trkpt>
      <trkpt lat="43.13346" lon="-0.41525">
        <ele>491.85</ele>
        <time>2015-10-24T11:44:02Z</time>
      </trkpt>
      <trkpt lat="43.13312" lon="-0.4152">
        <ele>493.29</ele>
        <time>2015-10-24T11:44:09Z</time>
      </trkpt>
      <trkpt lat="43.13271" lon="-0.41514">
        <ele>495.22</ele>
        <time>2015-10-24T11:44:20Z</time>
      </trkpt>
      <trkpt lat="43.13232" lon="-0.41525">
        <ele>496.66</ele>
        <time>2015-10-24T11:44:31Z</time>
      </trkpt>
      <trkpt lat="43.13191" lon="-0.4153">
        <ele>500.02</ele>
        <time>2015-10-24T11:44:42Z</time>
      </trkpt>
      <trkpt lat="43.13151" lon="-0.41537">
        <ele>501.95</ele>
        <time>2015-10-24T11:44:53Z</time>
      </trkpt>
      <trkpt lat="43.13111" lon="-0.41539">
        <ele>502.43</ele>
        <time>2015-10-24T11:45:04Z</time>
      </trkpt>
      <trkpt lat="43.13067" lon="-0.41541">
        <ele>503.87</ele>
        <time>2015-10-24T11:45:17Z</time>
      </trkpt>
      <trkpt lat="43.13006" lon="-0.41549">
        <ele>504.35</ele>
        <time>2015-10-24T11:45:34Z</time>
      </trkpt>
      <trkpt lat="43.12953" lon="-0.41554">
        <ele>505.79</ele>
        <time>2015-10-24T11:45:48Z</time>
      </trkpt>
      <trkpt lat="43.12912" lon="-0.41553">
        <ele>507.23</ele>
        <time>2015-10-24T11:46:00Z</time>
      </trkpt>
      <trkpt lat="43.12864" lon="-0.41537">
        <ele>507.71</ele>
        <time>2015-10-24T11:46:13Z</time>
      </trkpt>
      <trkpt lat="43.1286" lon="-0.41535">
        <ele>507.71</ele>
        <time>2015-10-24T11:46:14Z</time>
      </trkpt>
      <trkpt lat="43.12852" lon="-0.41531">
        <ele>507.71</ele>
        <time>2015-10-24T11:46:16Z</time>
      </trkpt>
      <trkpt lat="43.12839" lon="-0.41527">
        <ele>507.23</ele>
        <time>2015-10-24T11:46:19Z</time>
      </trkpt>
      <trkpt lat="43.12818" lon="-0.4152">
        <ele>506.75</ele>
        <time>2015-10-24T11:46:24Z</time>
      </trkpt>
      <trkpt lat="43.12816" lon="-0.41516">
        <ele>506.75</ele>
        <time>2015-10-24T11:46:25Z</time>
      </trkpt>
      <trkpt lat="43.12814" lon="-0.41512">
        <ele>506.27</ele>
        <time>2015-10-24T11:46:26Z</time>
      </trkpt>
      <trkpt lat="43.1281" lon="-0.4151">
        <ele>505.79</ele>
        <time>2015-10-24T11:46:27Z</time>
      </trkpt>
      <trkpt lat="43.12807" lon="-0.41508">
        <ele>505.79</ele>
        <time>2015-10-24T11:46:28Z</time>
      </trkpt>
      <trkpt lat="43.12803" lon="-0.41508">
        <ele>505.31</ele>
        <time>2015-10-24T11:46:29Z</time>
      </trkpt>
      <trkpt lat="43.12785" lon="-0.41503">
        <ele>503.39</ele>
        <time>2015-10-24T11:46:33Z</time>
      </trkpt>
      <trkpt lat="43.12775" lon="-0.41501">
        <ele>503.39</ele>
        <time>2015-10-24T11:46:35Z</time>
      </trkpt>
      <trkpt lat="43.12771" lon="-0.41501">
        <ele>503.39</ele>
        <time>2015-10-24T11:46:36Z</time>
      </trkpt>
      <trkpt lat="43.1273" lon="-0.41492">
        <ele>504.83</ele>
        <time>2015-10-24T11:46:47Z</time>
      </trkpt>
      <trkpt lat="43.12726" lon="-0.41492">
        <ele>504.83</ele>
        <time>2015-10-24T11:46:48Z</time>
      </trkpt>
      <trkpt lat="43.12722" lon="-0.41491">
        <ele>504.83</ele>
        <time>2015-10-24T11:46:49Z</time>
      </trkpt>
      <trkpt lat="43.12718" lon="-0.4149">
        <ele>504.83</ele>
        <time>2015-10-24T11:46:50Z</time>
      </trkpt>
      <trkpt lat="43.1266" lon="-0.41481">
        <ele>508.67</ele>
        <time>2015-10-24T11:47:06Z</time>
      </trkpt>
      <trkpt lat="43.12658" lon="-0.4148">
        <ele>508.67</ele>
        <time>2015-10-24T11:47:07Z</time>
      </trkpt>
      <trkpt lat="43.12656" lon="-0.41477">
        <ele>509.16</ele>
        <time>2015-10-24T11:47:08Z</time>
      </trkpt>
      <trkpt lat="43.12654" lon="-0.41474">
        <ele>509.64</ele>
        <time>2015-10-24T11:47:09Z</time>
      </trkpt>
      <trkpt lat="43.12652" lon="-0.41472">
        <ele>509.64</ele>
        <time>2015-10-24T11:47:10Z</time>
      </trkpt>
      <trkpt lat="43.12649" lon="-0.4147">
        <ele>509.64</ele>
        <time>2015-10-24T11:47:11Z</time>
      </trkpt>
      <trkpt lat="43.12646" lon="-0.41469">
        <ele>509.64</ele>
        <time>2015-10-24T11:47:12Z</time>
      </trkpt>
      <trkpt lat="43.12643" lon="-0.41468">
        <ele>510.12</ele>
        <time>2015-10-24T11:47:13Z</time>
      </trkpt>
      <trkpt lat="43.12641" lon="-0.41468">
        <ele>510.12</ele>
        <time>2015-10-24T11:47:14Z</time>
      </trkpt>
      <trkpt lat="43.12607" lon="-0.41465">
        <ele>512.52</ele>
        <time>2015-10-24T11:47:27Z</time>
      </trkpt>
      <trkpt lat="43.12585" lon="-0.41466">
        <ele>514.44</ele>
        <time>2015-10-24T11:47:38Z</time>
      </trkpt>
      <trkpt lat="43.12558" lon="-0.41474">
        <ele>518.77</ele>
        <time>2015-10-24T11:47:53Z</time>
      </trkpt>
      <trkpt lat="43.12534" lon="-0.41468">
        <ele>522.61</ele>
        <time>2015-10-24T11:48:08Z</time>
      </trkpt>
      <trkpt lat="43.12515" lon="-0.41459">
        <ele>525.02</ele>
        <time>2015-10-24T11:48:20Z</time>
      </trkpt>
      <trkpt lat="43.12498" lon="-0.41443">
        <ele>526.46</ele>
        <time>2015-10-24T11:48:32Z</time>
      </trkpt>
      <trkpt lat="43.12496" lon="-0.41436">
        <ele>526.94</ele>
        <time>2015-10-24T11:48:37Z</time>
      </trkpt>
      <trkpt lat="43.12475" lon="-0.41405">
        <ele>523.58</ele>
        <time>2015-10-24T11:48:53Z</time>
      </trkpt>
      <trkpt lat="43.12458" lon="-0.41386">
        <ele>525.98</ele>
        <time>2015-10-24T11:49:04Z</time>
      </trkpt>
      <trkpt lat="43.12447" lon="-0.41374">
        <ele>527.42</ele>
        <time>2015-10-24T11:49:12Z</time>
      </trkpt>
      <trkpt lat="43.12443" lon="-0.4137">
        <ele>527.42</ele>
        <time>2015-10-24T11:49:16Z</time>
      </trkpt>
      <trkpt lat="43.12426" lon="-0.41374">
        <ele>527.42</ele>
        <time>2015-10-24T11:49:26Z</time>
      </trkpt>
      <trkpt lat="43.12413" lon="-0.41387">
        <ele>536.07</ele>
        <time>2015-10-24T11:49:39Z</time>
      </trkpt>
      <trkpt lat="43.12404" lon="-0.41401">
        <ele>542.8</ele>
        <time>2015-10-24T11:49:53Z</time>
      </trkpt>
      <trkpt lat="43.12392" lon="-0.41415">
        <ele>548.09</ele>
        <time>2015-10-24T11:50:06Z</time>
      </trkpt>
      <trkpt lat="43.12374" lon="-0.41421">
        <ele>548.09</ele>
        <time>2015-10-24T11:50:22Z</time>
      </trkpt>
      <trkpt lat="43.12365" lon="-0.41421">
        <ele>547.13</ele>
        <time>2015-10-24T11:50:27Z</time>
      </trkpt>
      <trkpt lat="43.12337" lon="-0.41414">
        <ele>544.24</ele>
        <time>2015-10-24T11:50:37Z</time>
      </trkpt>
      <trkpt lat="43.12332" lon="-0.41411">
        <ele>543.76</ele>
        <time>2015-10-24T11:50:39Z</time>
      </trkpt>
      <trkpt lat="43.12309" lon="-0.41408">
        <ele>542.32</ele>
        <time>2015-10-24T11:50:48Z</time>
      </trkpt>
      <trkpt lat="43.12276" lon="-0.41403">
        <ele>544.72</ele>
        <time>2015-10-24T11:51:02Z</time>
      </trkpt>
      <trkpt lat="43.12269" lon="-0.41404">
        <ele>545.69</ele>
        <time>2015-10-24T11:51:05Z</time>
      </trkpt>
      <trkpt lat="43.12253" lon="-0.41405">
        <ele>548.09</ele>
        <time>2015-10-24T11:51:11Z</time>
      </trkpt>
      <trkpt lat="43.12224" lon="-0.41411">
        <ele>549.53</ele>
        <time>2015-10-24T11:51:22Z</time>
      </trkpt>
      <trkpt lat="43.12194" lon="-0.41408">
        <ele>548.09</ele>
        <time>2015-10-24T11:51:32Z</time>
      </trkpt>
      <trkpt lat="43.12179" lon="-0.41401">
        <ele>545.69</ele>
        <time>2015-10-24T11:51:36Z</time>
      </trkpt>
      <trkpt lat="43.12163" lon="-0.41395">
        <ele>542.8</ele>
        <time>2015-10-24T11:51:39Z</time>
      </trkpt>
      <trkpt lat="43.12131" lon="-0.41403">
        <ele>537.99</ele>
        <time>2015-10-24T11:51:45Z</time>
      </trkpt>
      <trkpt lat="43.12128" lon="-0.41403">
        <ele>536.55</ele>
        <time>2015-10-24T11:51:47Z</time>
      </trkpt>
      <trkpt lat="43.12104" lon="-0.414">
        <ele>533.67</ele>
        <time>2015-10-24T11:51:54Z</time>
      </trkpt>
      <trkpt lat="43.12083" lon="-0.41392">
        <ele>532.71</ele>
        <time>2015-10-24T11:52:06Z</time>
      </trkpt>
      <trkpt lat="43.1208" lon="-0.41388">
        <ele>535.11</ele>
        <time>2015-10-24T11:52:10Z</time>
      </trkpt>
      <trkpt lat="43.12069" lon="-0.41372">
        <ele>540.4</ele>
        <time>2015-10-24T11:52:22Z</time>
      </trkpt>
      <trkpt lat="43.12059" lon="-0.41359">
        <ele>547.13</ele>
        <time>2015-10-24T11:52:34Z</time>
      </trkpt>
      <trkpt lat="43.12049" lon="-0.41343">
        <ele>549.53</ele>
        <time>2015-10-24T11:52:44Z</time>
      </trkpt>
      <trkpt lat="43.12043" lon="-0.41329">
        <ele>550.01</ele>
        <time>2015-10-24T11:52:49Z</time>
      </trkpt>
      <trkpt lat="43.12032" lon="-0.41316">
        <ele>553.86</ele>
        <time>2015-10-24T11:52:57Z</time>
      </trkpt>
      <trkpt lat="43.12029" lon="-0.41313">
        <ele>554.82</ele>
        <time>2015-10-24T11:52:59Z</time>
      </trkpt>
      <trkpt lat="43.12014" lon="-0.41313">
        <ele>559.62</ele>
        <time>2015-10-24T11:53:11Z</time>
      </trkpt>
      <trkpt lat="43.12012" lon="-0.41313">
        <ele>560.11</ele>
        <time>2015-10-24T11:53:12Z</time>
      </trkpt>
      <trkpt lat="43.12004" lon="-0.41312">
        <ele>560.59</ele>
        <time>2015-10-24T11:53:16Z</time>
      </trkpt>
      <trkpt lat="43.11969" lon="-0.41297">
        <ele>559.14</ele>
        <time>2015-10-24T11:53:28Z</time>
      </trkpt>
      <trkpt lat="43.11959" lon="-0.41289">
        <ele>559.14</ele>
        <time>2015-10-24T11:53:32Z</time>
      </trkpt>
      <trkpt lat="43.11931" lon="-0.41265">
        <ele>557.7</ele>
        <time>2015-10-24T11:53:42Z</time>
      </trkpt>
      <trkpt lat="43.11902" lon="-0.41246">
        <ele>557.22</ele>
        <time>2015-10-24T11:53:53Z</time>
      </trkpt>
      <trkpt lat="43.11889" lon="-0.41242">
        <ele>557.7</ele>
        <time>2015-10-24T11:53:57Z</time>
      </trkpt>
      <trkpt lat="43.11868" lon="-0.41205">
        <ele>560.11</ele>
        <time>2015-10-24T11:54:09Z</time>
      </trkpt>
      <trkpt lat="43.11863" lon="-0.41191">
        <ele>559.14</ele>
        <time>2015-10-24T11:54:15Z</time>
      </trkpt>
      <trkpt lat="43.11854" lon="-0.41167">
        <ele>554.34</ele>
        <time>2015-10-24T11:54:20Z</time>
      </trkpt>
      <trkpt lat="43.11844" lon="-0.41122">
        <ele>543.28</ele>
        <time>2015-10-24T11:54:30Z</time>
      </trkpt>
      <trkpt lat="43.11841" lon="-0.41105">
        <ele>538.96</ele>
        <time>2015-10-24T11:54:34Z</time>
      </trkpt>
      <trkpt lat="43.11839" lon="-0.41095">
        <ele>536.55</ele>
        <time>2015-10-24T11:54:36Z</time>
      </trkpt>
      <trkpt lat="43.11843" lon="-0.41079">
        <ele>530.3</ele>
        <time>2015-10-24T11:54:40Z</time>
      </trkpt>
      <trkpt lat="43.1184" lon="-0.4106">
        <ele>528.38</ele>
        <time>2015-10-24T11:54:43Z</time>
      </trkpt>
      <trkpt lat="43.11837" lon="-0.41056">
        <ele>527.9</ele>
        <time>2015-10-24T11:54:44Z</time>
      </trkpt>
      <trkpt lat="43.11831" lon="-0.41055">
        <ele>527.9</ele>
        <time>2015-10-24T11:54:45Z</time>
      </trkpt>
      <trkpt lat="43.11825" lon="-0.41056">
        <ele>526.94</ele>
        <time>2015-10-24T11:54:46Z</time>
      </trkpt>
      <trkpt lat="43.11818" lon="-0.41059">
        <ele>525.98</ele>
        <time>2015-10-24T11:54:47Z</time>
      </trkpt>
      <trkpt lat="43.11812" lon="-0.41063">
        <ele>525.5</ele>
        <time>2015-10-24T11:54:48Z</time>
      </trkpt>
      <trkpt lat="43.11751" lon="-0.41107">
        <ele>518.29</ele>
        <time>2015-10-24T11:54:56Z</time>
      </trkpt>
      <trkpt lat="43.11743" lon="-0.41111">
        <ele>517.33</ele>
        <time>2015-10-24T11:54:57Z</time>
      </trkpt>
      <trkpt lat="43.11692" lon="-0.41135">
        <ele>511.56</ele>
        <time>2015-10-24T11:55:03Z</time>
      </trkpt>
      <trkpt lat="43.11674" lon="-0.41142">
        <ele>509.16</ele>
        <time>2015-10-24T11:55:06Z</time>
      </trkpt>
      <trkpt lat="43.1167" lon="-0.41146">
        <ele>508.19</ele>
        <time>2015-10-24T11:55:07Z</time>
      </trkpt>
      <trkpt lat="43.11665" lon="-0.41151">
        <ele>507.23</ele>
        <time>2015-10-24T11:55:08Z</time>
      </trkpt>
      <trkpt lat="43.1166" lon="-0.41156">
        <ele>506.27</ele>
        <time>2015-10-24T11:55:09Z</time>
      </trkpt>
      <trkpt lat="43.11653" lon="-0.4116">
        <ele>504.83</ele>
        <time>2015-10-24T11:55:10Z</time>
      </trkpt>
      <trkpt lat="43.11644" lon="-0.41163">
        <ele>503.87</ele>
        <time>2015-10-24T11:55:11Z</time>
      </trkpt>
      <trkpt lat="43.11634" lon="-0.41166">
        <ele>502.43</ele>
        <time>2015-10-24T11:55:12Z</time>
      </trkpt>
      <trkpt lat="43.11559" lon="-0.41183">
        <ele>490.41</ele>
        <time>2015-10-24T11:55:19Z</time>
      </trkpt>
      <trkpt lat="43.11501" lon="-0.41193">
        <ele>481.28</ele>
        <time>2015-10-24T11:55:24Z</time>
      </trkpt>
      <trkpt lat="43.11492" lon="-0.41196">
        <ele>479.84</ele>
        <time>2015-10-24T11:55:25Z</time>
      </trkpt>
      <trkpt lat="43.11483" lon="-0.41197">
        <ele>478.87</ele>
        <time>2015-10-24T11:55:26Z</time>
      </trkpt>
      <trkpt lat="43.11474" lon="-0.41194">
        <ele>477.43</ele>
        <time>2015-10-24T11:55:27Z</time>
      </trkpt>
      <trkpt lat="43.11465" lon="-0.41187">
        <ele>476.47</ele>
        <time>2015-10-24T11:55:28Z</time>
      </trkpt>
      <trkpt lat="43.11458" lon="-0.41178">
        <ele>475.03</ele>
        <time>2015-10-24T11:55:29Z</time>
      </trkpt>
      <trkpt lat="43.11451" lon="-0.41168">
        <ele>474.07</ele>
        <time>2015-10-24T11:55:30Z</time>
      </trkpt>
      <trkpt lat="43.11445" lon="-0.41158">
        <ele>473.11</ele>
        <time>2015-10-24T11:55:31Z</time>
      </trkpt>
      <trkpt lat="43.11434" lon="-0.41141">
        <ele>471.66</ele>
        <time>2015-10-24T11:55:33Z</time>
      </trkpt>
      <trkpt lat="43.11428" lon="-0.41135">
        <ele>471.18</ele>
        <time>2015-10-24T11:55:34Z</time>
      </trkpt>
      <trkpt lat="43.11421" lon="-0.41131">
        <ele>470.7</ele>
        <time>2015-10-24T11:55:35Z</time>
      </trkpt>
      <trkpt lat="43.11413" lon="-0.4113">
        <ele>470.22</ele>
        <time>2015-10-24T11:55:36Z</time>
      </trkpt>
      <trkpt lat="43.11405" lon="-0.4113">
        <ele>469.74</ele>
        <time>2015-10-24T11:55:37Z</time>
      </trkpt>
      <trkpt lat="43.11395" lon="-0.4113">
        <ele>469.26</ele>
        <time>2015-10-24T11:55:38Z</time>
      </trkpt>
      <trkpt lat="43.11359" lon="-0.41129">
        <ele>466.38</ele>
        <time>2015-10-24T11:55:42Z</time>
      </trkpt>
      <trkpt lat="43.11351" lon="-0.41133">
        <ele>465.9</ele>
        <time>2015-10-24T11:55:43Z</time>
      </trkpt>
      <trkpt lat="43.11334" lon="-0.41146">
        <ele>465.42</ele>
        <time>2015-10-24T11:55:46Z</time>
      </trkpt>
      <trkpt lat="43.11319" lon="-0.41156">
        <ele>465.9</ele>
        <time>2015-10-24T11:55:53Z</time>
      </trkpt>
      <trkpt lat="43.11316" lon="-0.41155">
        <ele>468.78</ele>
        <time>2015-10-24T11:56:20Z</time>
      </trkpt>
      <trkpt lat="43.11314" lon="-0.41154">
        <ele>468.78</ele>
        <time>2015-10-24T11:56:21Z</time>
      </trkpt>
      <trkpt lat="43.11312" lon="-0.41153">
        <ele>468.78</ele>
        <time>2015-10-24T11:56:22Z</time>
      </trkpt>
      <trkpt lat="43.11309" lon="-0.4115">
        <ele>468.78</ele>
        <time>2015-10-24T11:56:23Z</time>
      </trkpt>
      <trkpt lat="43.11307" lon="-0.41147">
        <ele>469.26</ele>
        <time>2015-10-24T11:56:24Z</time>
      </trkpt>
      <trkpt lat="43.11305" lon="-0.41144">
        <ele>468.78</ele>
        <time>2015-10-24T11:56:25Z</time>
      </trkpt>
      <trkpt lat="43.11304" lon="-0.41139">
        <ele>468.78</ele>
        <time>2015-10-24T11:56:26Z</time>
      </trkpt>
      <trkpt lat="43.11302" lon="-0.41136">
        <ele>468.78</ele>
        <time>2015-10-24T11:56:27Z</time>
      </trkpt>
      <trkpt lat="43.11299" lon="-0.41133">
        <ele>469.26</ele>
        <time>2015-10-24T11:56:28Z</time>
      </trkpt>
      <trkpt lat="43.11296" lon="-0.4113">
        <ele>469.26</ele>
        <time>2015-10-24T11:56:29Z</time>
      </trkpt>
      <trkpt lat="43.11278" lon="-0.41119">
        <ele>470.22</ele>
        <time>2015-10-24T11:56:34Z</time>
      </trkpt>
      <trkpt lat="43.11254" lon="-0.41104">
        <ele>471.66</ele>
        <time>2015-10-24T11:56:41Z</time>
      </trkpt>
      <trkpt lat="43.1125" lon="-0.41103">
        <ele>471.66</ele>
        <time>2015-10-24T11:56:42Z</time>
      </trkpt>
      <trkpt lat="43.11207" lon="-0.41089">
        <ele>476.95</ele>
        <time>2015-10-24T11:56:56Z</time>
      </trkpt>
      <trkpt lat="43.11179" lon="-0.41083">
        <ele>479.84</ele>
        <time>2015-10-24T11:57:07Z</time>
      </trkpt>
      <trkpt lat="43.11143" lon="-0.41076">
        <ele>483.2</ele>
        <time>2015-10-24T11:57:20Z</time>
      </trkpt>
      <trkpt lat="43.11098" lon="-0.41068">
        <ele>486.08</ele>
        <time>2015-10-24T11:57:36Z</time>
      </trkpt>
      <trkpt lat="43.1105" lon="-0.41073">
        <ele>488.01</ele>
        <time>2015-10-24T11:57:51Z</time>
      </trkpt>
      <trkpt lat="43.11021" lon="-0.41081">
        <ele>489.93</ele>
        <time>2015-10-24T11:58:02Z</time>
      </trkpt>
      <trkpt lat="43.10994" lon="-0.4108">
        <ele>488.49</ele>
        <time>2015-10-24T11:58:13Z</time>
      </trkpt>
      <trkpt lat="43.10993" lon="-0.4108">
        <ele>488.49</ele>
        <time>2015-10-24T11:58:22Z</time>
      </trkpt>
      <trkpt lat="43.10991" lon="-0.41082">
        <ele>486.56</ele>
        <time>2015-10-24T11:58:26Z</time>
      </trkpt>
      <trkpt lat="43.10984" lon="-0.41081">
        <ele>482.24</ele>
        <time>2015-10-24T11:58:36Z</time>
      </trkpt>
      <trkpt lat="43.1096" lon="-0.41081">
        <ele>479.35</ele>
        <time>2015-10-24T11:58:43Z</time>
      </trkpt>
      <trkpt lat="43.10956" lon="-0.41078">
        <ele>478.87</ele>
        <time>2015-10-24T11:58:44Z</time>
      </trkpt>
      <trkpt lat="43.10953" lon="-0.41076">
        <ele>477.91</ele>
        <time>2015-10-24T11:58:45Z</time>
      </trkpt>
      <trkpt lat="43.1095" lon="-0.41074">
        <ele>477.43</ele>
        <time>2015-10-24T11:58:46Z</time>
      </trkpt>
      <trkpt lat="43.10946" lon="-0.41073">
        <ele>476.95</ele>
        <time>2015-10-24T11:58:47Z</time>
      </trkpt>
      <trkpt lat="43.10943" lon="-0.41073">
        <ele>476.47</ele>
        <time>2015-10-24T11:58:48Z</time>
      </trkpt>
      <trkpt lat="43.10939" lon="-0.41072">
        <ele>475.99</ele>
        <time>2015-10-24T11:58:49Z</time>
      </trkpt>
      <trkpt lat="43.10934" lon="-0.4107">
        <ele>475.51</ele>
        <time>2015-10-24T11:58:50Z</time>
      </trkpt>
      <trkpt lat="43.10929" lon="-0.41068">
        <ele>475.03</ele>
        <time>2015-10-24T11:58:51Z</time>
      </trkpt>
      <trkpt lat="43.1092" lon="-0.41065">
        <ele>474.55</ele>
        <time>2015-10-24T11:58:53Z</time>
      </trkpt>
      <trkpt lat="43.10915" lon="-0.41066">
        <ele>474.55</ele>
        <time>2015-10-24T11:58:54Z</time>
      </trkpt>
      <trkpt lat="43.10911" lon="-0.41067">
        <ele>474.55</ele>
        <time>2015-10-24T11:58:55Z</time>
      </trkpt>
      <trkpt lat="43.10907" lon="-0.41069">
        <ele>474.07</ele>
        <time>2015-10-24T11:58:56Z</time>
      </trkpt>
      <trkpt lat="43.10903" lon="-0.41071">
        <ele>474.07</ele>
        <time>2015-10-24T11:58:57Z</time>
      </trkpt>
      <trkpt lat="43.10889" lon="-0.41081">
        <ele>473.11</ele>
        <time>2015-10-24T11:59:01Z</time>
      </trkpt>
      <trkpt lat="43.10885" lon="-0.41085">
        <ele>473.11</ele>
        <time>2015-10-24T11:59:02Z</time>
      </trkpt>
      <trkpt lat="43.10881" lon="-0.4109">
        <ele>472.63</ele>
        <time>2015-10-24T11:59:03Z</time>
      </trkpt>
      <trkpt lat="43.10877" lon="-0.41093">
        <ele>472.14</ele>
        <time>2015-10-24T11:59:04Z</time>
      </trkpt>
      <trkpt lat="43.10874" lon="-0.41095">
        <ele>471.66</ele>
        <time>2015-10-24T11:59:05Z</time>
      </trkpt>
      <trkpt lat="43.10871" lon="-0.41097">
        <ele>471.18</ele>
        <time>2015-10-24T11:59:06Z</time>
      </trkpt>
      <trkpt lat="43.10869" lon="-0.41099">
        <ele>470.22</ele>
        <time>2015-10-24T11:59:07Z</time>
      </trkpt>
      <trkpt lat="43.10865" lon="-0.41105">
        <ele>468.78</ele>
        <time>2015-10-24T11:59:09Z</time>
      </trkpt>
      <trkpt lat="43.1084" lon="-0.4112">
        <ele>460.61</ele>
        <time>2015-10-24T11:59:18Z</time>
      </trkpt>
      <trkpt lat="43.10828" lon="-0.41127">
        <ele>457.72</ele>
        <time>2015-10-24T11:59:21Z</time>
      </trkpt>
      <trkpt lat="43.10824" lon="-0.41131">
        <ele>457.24</ele>
        <time>2015-10-24T11:59:22Z</time>
      </trkpt>
      <trkpt lat="43.1082" lon="-0.41135">
        <ele>456.28</ele>
        <time>2015-10-24T11:59:23Z</time>
      </trkpt>
      <trkpt lat="43.10815" lon="-0.41138">
        <ele>455.32</ele>
        <time>2015-10-24T11:59:24Z</time>
      </trkpt>
      <trkpt lat="43.10811" lon="-0.41141">
        <ele>454.36</ele>
        <time>2015-10-24T11:59:25Z</time>
      </trkpt>
      <trkpt lat="43.10806" lon="-0.41143">
        <ele>453.4</ele>
        <time>2015-10-24T11:59:26Z</time>
      </trkpt>
      <trkpt lat="43.10802" lon="-0.41144">
        <ele>452.44</ele>
        <time>2015-10-24T11:59:27Z</time>
      </trkpt>
      <trkpt lat="43.10796" lon="-0.41143">
        <ele>451.96</ele>
        <time>2015-10-24T11:59:28Z</time>
      </trkpt>
      <trkpt lat="43.1079" lon="-0.41145">
        <ele>451.48</ele>
        <time>2015-10-24T11:59:29Z</time>
      </trkpt>
      <trkpt lat="43.10785" lon="-0.41148">
        <ele>451</ele>
        <time>2015-10-24T11:59:30Z</time>
      </trkpt>
      <trkpt lat="43.10776" lon="-0.41157">
        <ele>451.96</ele>
        <time>2015-10-24T11:59:35Z</time>
      </trkpt>
      <trkpt lat="43.10774" lon="-0.4116">
        <ele>452.44</ele>
        <time>2015-10-24T11:59:36Z</time>
      </trkpt>
      <trkpt lat="43.10772" lon="-0.41163">
        <ele>453.4</ele>
        <time>2015-10-24T11:59:37Z</time>
      </trkpt>
      <trkpt lat="43.1077" lon="-0.41166">
        <ele>453.4</ele>
        <time>2015-10-24T11:59:38Z</time>
      </trkpt>
      <trkpt lat="43.10768" lon="-0.41168">
        <ele>453.88</ele>
        <time>2015-10-24T11:59:39Z</time>
      </trkpt>
      <trkpt lat="43.10765" lon="-0.41169">
        <ele>454.84</ele>
        <time>2015-10-24T11:59:40Z</time>
      </trkpt>
      <trkpt lat="43.10762" lon="-0.41169">
        <ele>455.8</ele>
        <time>2015-10-24T11:59:41Z</time>
      </trkpt>
      <trkpt lat="43.1076" lon="-0.41169">
        <ele>456.76</ele>
        <time>2015-10-24T11:59:42Z</time>
      </trkpt>
      <trkpt lat="43.10758" lon="-0.41168">
        <ele>457.24</ele>
        <time>2015-10-24T11:59:43Z</time>
      </trkpt>
      <trkpt lat="43.10755" lon="-0.41167">
        <ele>457.72</ele>
        <time>2015-10-24T11:59:44Z</time>
      </trkpt>
      <trkpt lat="43.10752" lon="-0.41167">
        <ele>457.72</ele>
        <time>2015-10-24T11:59:45Z</time>
      </trkpt>
      <trkpt lat="43.10729" lon="-0.41159">
        <ele>458.21</ele>
        <time>2015-10-24T11:59:52Z</time>
      </trkpt>
      <trkpt lat="43.10705" lon="-0.41161">
        <ele>457.24</ele>
        <time>2015-10-24T11:59:57Z</time>
      </trkpt>
      <trkpt lat="43.10672" lon="-0.41184">
        <ele>457.24</ele>
        <time>2015-10-24T12:00:08Z</time>
      </trkpt>
      <trkpt lat="43.10661" lon="-0.41188">
        <ele>456.76</ele>
        <time>2015-10-24T12:00:11Z</time>
      </trkpt>
      <trkpt lat="43.10641" lon="-0.412">
        <ele>454.84</ele>
        <time>2015-10-24T12:00:19Z</time>
      </trkpt>
      <trkpt lat="43.10639" lon="-0.41205">
        <ele>456.76</ele>
        <time>2015-10-24T12:00:31Z</time>
      </trkpt>
      <trkpt lat="43.10623" lon="-0.41192">
        <ele>459.17</ele>
        <time>2015-10-24T12:00:42Z</time>
      </trkpt>
      <trkpt lat="43.10608" lon="-0.41175">
        <ele>461.57</ele>
        <time>2015-10-24T12:00:53Z</time>
      </trkpt>
      <trkpt lat="43.10588" lon="-0.41148">
        <ele>462.53</ele>
        <time>2015-10-24T12:01:05Z</time>
      </trkpt>
      <trkpt lat="43.10586" lon="-0.41148">
        <ele>462.53</ele>
        <time>2015-10-24T12:01:06Z</time>
      </trkpt>
      <trkpt lat="43.1058" lon="-0.41147">
        <ele>463.97</ele>
        <time>2015-10-24T12:01:10Z</time>
      </trkpt>
      <trkpt lat="43.10578" lon="-0.41145">
        <ele>464.45</ele>
        <time>2015-10-24T12:01:12Z</time>
      </trkpt>
      <trkpt lat="43.10559" lon="-0.41139">
        <ele>467.82</ele>
        <time>2015-10-24T12:01:24Z</time>
      </trkpt>
      <trkpt lat="43.10545" lon="-0.41118">
        <ele>470.22</ele>
        <time>2015-10-24T12:01:38Z</time>
      </trkpt>
      <trkpt lat="43.10539" lon="-0.41107">
        <ele>470.7</ele>
        <time>2015-10-24T12:01:44Z</time>
      </trkpt>
      <trkpt lat="43.10533" lon="-0.41102">
        <ele>471.66</ele>
        <time>2015-10-24T12:01:49Z</time>
      </trkpt>
      <trkpt lat="43.10524" lon="-0.411">
        <ele>471.66</ele>
        <time>2015-10-24T12:01:54Z</time>
      </trkpt>
      <trkpt lat="43.1051" lon="-0.4109">
        <ele>473.11</ele>
        <time>2015-10-24T12:02:03Z</time>
      </trkpt>
      <trkpt lat="43.10505" lon="-0.41088">
        <ele>474.07</ele>
        <time>2015-10-24T12:02:06Z</time>
      </trkpt>
      <trkpt lat="43.10493" lon="-0.41079">
        <ele>476.95</ele>
        <time>2015-10-24T12:02:15Z</time>
      </trkpt>
      <trkpt lat="43.10486" lon="-0.41075">
        <ele>478.39</ele>
        <time>2015-10-24T12:02:25Z</time>
      </trkpt>
      <trkpt lat="43.10482" lon="-0.41075">
        <ele>479.35</ele>
        <time>2015-10-24T12:02:29Z</time>
      </trkpt>
      <trkpt lat="43.10475" lon="-0.4108">
        <ele>479.84</ele>
        <time>2015-10-24T12:02:38Z</time>
      </trkpt>
      <trkpt lat="43.10463" lon="-0.41087">
        <ele>481.28</ele>
        <time>2015-10-24T12:02:47Z</time>
      </trkpt>
      <trkpt lat="43.10453" lon="-0.41095">
        <ele>483.2</ele>
        <time>2015-10-24T12:02:57Z</time>
      </trkpt>
      <trkpt lat="43.1045" lon="-0.41097">
        <ele>483.2</ele>
        <time>2015-10-24T12:02:59Z</time>
      </trkpt>
      <trkpt lat="43.10443" lon="-0.41103">
        <ele>484.16</ele>
        <time>2015-10-24T12:03:07Z</time>
      </trkpt>
      <trkpt lat="43.10427" lon="-0.41108">
        <ele>482.24</ele>
        <time>2015-10-24T12:03:14Z</time>
      </trkpt>
      <trkpt lat="43.10399" lon="-0.4112">
        <ele>478.39</ele>
        <time>2015-10-24T12:03:24Z</time>
      </trkpt>
      <trkpt lat="43.10377" lon="-0.4113">
        <ele>476.95</ele>
        <time>2015-10-24T12:03:34Z</time>
      </trkpt>
      <trkpt lat="43.10352" lon="-0.41143">
        <ele>474.55</ele>
        <time>2015-10-24T12:03:44Z</time>
      </trkpt>
      <trkpt lat="43.10339" lon="-0.4115">
        <ele>473.59</ele>
        <time>2015-10-24T12:03:49Z</time>
      </trkpt>
      <trkpt lat="43.10318" lon="-0.41162">
        <ele>475.51</ele>
        <time>2015-10-24T12:04:00Z</time>
      </trkpt>
      <trkpt lat="43.10307" lon="-0.4117">
        <ele>478.87</ele>
        <time>2015-10-24T12:04:11Z</time>
      </trkpt>
      <trkpt lat="43.10301" lon="-0.41168">
        <ele>479.84</ele>
        <time>2015-10-24T12:04:19Z</time>
      </trkpt>
      <trkpt lat="43.10299" lon="-0.41163">
        <ele>481.76</ele>
        <time>2015-10-24T12:04:32Z</time>
      </trkpt>
      <trkpt lat="43.10295" lon="-0.41161">
        <ele>483.68</ele>
        <time>2015-10-24T12:04:43Z</time>
      </trkpt>
      <trkpt lat="43.10287" lon="-0.41153">
        <ele>485.12</ele>
        <time>2015-10-24T12:04:53Z</time>
      </trkpt>
      <trkpt lat="43.1028" lon="-0.41151">
        <ele>487.05</ele>
        <time>2015-10-24T12:05:05Z</time>
      </trkpt>
      <trkpt lat="43.10272" lon="-0.41145">
        <ele>486.56</ele>
        <time>2015-10-24T12:05:16Z</time>
      </trkpt>
      <trkpt lat="43.10271" lon="-0.41143">
        <ele>487.05</ele>
        <time>2015-10-24T12:05:25Z</time>
      </trkpt>
      <trkpt lat="43.10266" lon="-0.41137">
        <ele>487.05</ele>
        <time>2015-10-24T12:05:37Z</time>
      </trkpt>
      <trkpt lat="43.10265" lon="-0.41136">
        <ele>488.01</ele>
        <time>2015-10-24T12:06:00Z</time>
      </trkpt>
      <trkpt lat="43.10264" lon="-0.41135">
        <ele>488.49</ele>
        <time>2015-10-24T12:06:06Z</time>
      </trkpt>
      <trkpt lat="43.10261" lon="-0.41132">
        <ele>488.49</ele>
        <time>2015-10-24T12:06:16Z</time>
      </trkpt>
      <trkpt lat="43.10263" lon="-0.41131">
        <ele>489.93</ele>
        <time>2015-10-24T12:06:25Z</time>
      </trkpt>
      <trkpt lat="43.10268" lon="-0.41119">
        <ele>495.22</ele>
        <time>2015-10-24T12:06:36Z</time>
      </trkpt>
      <trkpt lat="43.10269" lon="-0.41114">
        <ele>496.66</ele>
        <time>2015-10-24T12:06:39Z</time>
      </trkpt>
      <trkpt lat="43.10268" lon="-0.41101">
        <ele>499.54</ele>
        <time>2015-10-24T12:06:47Z</time>
      </trkpt>
      <trkpt lat="43.10262" lon="-0.41093">
        <ele>500.5</ele>
        <time>2015-10-24T12:06:54Z</time>
      </trkpt>
      <trkpt lat="43.10256" lon="-0.41086">
        <ele>501.46</ele>
        <time>2015-10-24T12:07:00Z</time>
      </trkpt>
      <trkpt lat="43.10256" lon="-0.41071">
        <ele>500.5</ele>
        <time>2015-10-24T12:07:07Z</time>
      </trkpt>
      <trkpt lat="43.10258" lon="-0.41047">
        <ele>500.5</ele>
        <time>2015-10-24T12:07:16Z</time>
      </trkpt>
      <trkpt lat="43.10249" lon="-0.41013">
        <ele>498.58</ele>
        <time>2015-10-24T12:07:25Z</time>
      </trkpt>
      <trkpt lat="43.10249" lon="-0.41008">
        <ele>499.06</ele>
        <time>2015-10-24T12:07:27Z</time>
      </trkpt>
      <trkpt lat="43.10248" lon="-0.41">
        <ele>501.46</ele>
        <time>2015-10-24T12:07:31Z</time>
      </trkpt>
      <trkpt lat="43.10245" lon="-0.40994">
        <ele>503.39</ele>
        <time>2015-10-24T12:07:35Z</time>
      </trkpt>
      <trkpt lat="43.1024" lon="-0.40974">
        <ele>505.31</ele>
        <time>2015-10-24T12:07:44Z</time>
      </trkpt>
      <trkpt lat="43.10236" lon="-0.40939">
        <ele>505.31</ele>
        <time>2015-10-24T12:07:56Z</time>
      </trkpt>
      <trkpt lat="43.10235" lon="-0.40933">
        <ele>505.31</ele>
        <time>2015-10-24T12:07:59Z</time>
      </trkpt>
      <trkpt lat="43.10233" lon="-0.4093">
        <ele>505.31</ele>
        <time>2015-10-24T12:08:01Z</time>
      </trkpt>
      <trkpt lat="43.1023" lon="-0.40918">
        <ele>505.31</ele>
        <time>2015-10-24T12:08:08Z</time>
      </trkpt>
      <trkpt lat="43.10225" lon="-0.40908">
        <ele>506.75</ele>
        <time>2015-10-24T12:08:14Z</time>
      </trkpt>
      <trkpt lat="43.10222" lon="-0.40903">
        <ele>507.71</ele>
        <time>2015-10-24T12:08:18Z</time>
      </trkpt>
      <trkpt lat="43.10217" lon="-0.40888">
        <ele>509.16</ele>
        <time>2015-10-24T12:08:28Z</time>
      </trkpt>
      <trkpt lat="43.10211" lon="-0.40882">
        <ele>509.16</ele>
        <time>2015-10-24T12:08:34Z</time>
      </trkpt>
      <trkpt lat="43.10208" lon="-0.40881">
        <ele>509.16</ele>
        <time>2015-10-24T12:08:36Z</time>
      </trkpt>
      <trkpt lat="43.10205" lon="-0.40873">
        <ele>508.67</ele>
        <time>2015-10-24T12:08:41Z</time>
      </trkpt>
      <trkpt lat="43.10197" lon="-0.4086">
        <ele>507.71</ele>
        <time>2015-10-24T12:08:50Z</time>
      </trkpt>
      <trkpt lat="43.10195" lon="-0.40855">
        <ele>508.19</ele>
        <time>2015-10-24T12:08:53Z</time>
      </trkpt>
      <trkpt lat="43.10195" lon="-0.40845">
        <ele>508.67</ele>
        <time>2015-10-24T12:08:58Z</time>
      </trkpt>
      <trkpt lat="43.10191" lon="-0.4082">
        <ele>508.19</ele>
        <time>2015-10-24T12:09:11Z</time>
      </trkpt>
      <trkpt lat="43.10189" lon="-0.40799">
        <ele>510.12</ele>
        <time>2015-10-24T12:09:20Z</time>
      </trkpt>
      <trkpt lat="43.10188" lon="-0.40794">
        <ele>510.6</ele>
        <time>2015-10-24T12:09:22Z</time>
      </trkpt>
      <trkpt lat="43.10186" lon="-0.40786">
        <ele>511.08</ele>
        <time>2015-10-24T12:09:26Z</time>
      </trkpt>
      <trkpt lat="43.10182" lon="-0.4077">
        <ele>511.08</ele>
        <time>2015-10-24T12:09:32Z</time>
      </trkpt>
      <trkpt lat="43.10172" lon="-0.40738">
        <ele>510.6</ele>
        <time>2015-10-24T12:09:42Z</time>
      </trkpt>
      <trkpt lat="43.1016" lon="-0.40698">
        <ele>512.04</ele>
        <time>2015-10-24T12:09:53Z</time>
      </trkpt>
      <trkpt lat="43.10149" lon="-0.40667">
        <ele>513.48</ele>
        <time>2015-10-24T12:10:03Z</time>
      </trkpt>
      <trkpt lat="43.10148" lon="-0.40661">
        <ele>513.96</ele>
        <time>2015-10-24T12:10:05Z</time>
      </trkpt>
      <trkpt lat="43.10144" lon="-0.40642">
        <ele>517.81</ele>
        <time>2015-10-24T12:10:13Z</time>
      </trkpt>
      <trkpt lat="43.10133" lon="-0.40627">
        <ele>521.65</ele>
        <time>2015-10-24T12:10:22Z</time>
      </trkpt>
      <trkpt lat="43.10122" lon="-0.40596">
        <ele>523.58</ele>
        <time>2015-10-24T12:10:35Z</time>
      </trkpt>
      <trkpt lat="43.10121" lon="-0.40594">
        <ele>523.58</ele>
        <time>2015-10-24T12:10:36Z</time>
      </trkpt>
      <trkpt lat="43.10119" lon="-0.40586">
        <ele>524.54</ele>
        <time>2015-10-24T12:10:44Z</time>
      </trkpt>
      <trkpt lat="43.10121" lon="-0.40583">
        <ele>525.02</ele>
        <time>2015-10-24T12:11:07Z</time>
      </trkpt>
      <trkpt lat="43.1012" lon="-0.40583">
        <ele>525.98</ele>
        <time>2015-10-24T12:11:21Z</time>
      </trkpt>
      <trkpt lat="43.10119" lon="-0.40586">
        <ele>525.5</ele>
        <time>2015-10-24T12:11:28Z</time>
      </trkpt>
      <trkpt lat="43.1012" lon="-0.40596">
        <ele>524.06</ele>
        <time>2015-10-24T12:11:33Z</time>
      </trkpt>
      <trkpt lat="43.10112" lon="-0.40626">
        <ele>522.13</ele>
        <time>2015-10-24T12:11:43Z</time>
      </trkpt>
      <trkpt lat="43.101" lon="-0.4063">
        <ele>521.17</ele>
        <time>2015-10-24T12:11:48Z</time>
      </trkpt>
      <trkpt lat="43.10093" lon="-0.40627">
        <ele>519.73</ele>
        <time>2015-10-24T12:11:50Z</time>
      </trkpt>
      <trkpt lat="43.1008" lon="-0.40618">
        <ele>518.29</ele>
        <time>2015-10-24T12:11:53Z</time>
      </trkpt>
      <trkpt lat="43.10062" lon="-0.40604">
        <ele>516.85</ele>
        <time>2015-10-24T12:11:59Z</time>
      </trkpt>
      <trkpt lat="43.10061" lon="-0.40605">
        <ele>516.37</ele>
        <time>2015-10-24T12:12:00Z</time>
      </trkpt>
      <trkpt lat="43.10059" lon="-0.40608">
        <ele>515.4</ele>
        <time>2015-10-24T12:12:02Z</time>
      </trkpt>
      <trkpt lat="43.1006" lon="-0.40607">
        <ele>514.92</ele>
        <time>2015-10-24T12:12:03Z</time>
      </trkpt>
      <trkpt lat="43.10043" lon="-0.40632">
        <ele>512.04</ele>
        <time>2015-10-24T12:12:11Z</time>
      </trkpt>
      <trkpt lat="43.10039" lon="-0.40636">
        <ele>511.56</ele>
        <time>2015-10-24T12:12:12Z</time>
      </trkpt>
      <trkpt lat="43.10029" lon="-0.40656">
        <ele>511.08</ele>
        <time>2015-10-24T12:12:17Z</time>
      </trkpt>
      <trkpt lat="43.10025" lon="-0.40679">
        <ele>510.12</ele>
        <time>2015-10-24T12:12:27Z</time>
      </trkpt>
      <trkpt lat="43.10027" lon="-0.40681">
        <ele>510.12</ele>
        <time>2015-10-24T12:12:30Z</time>
      </trkpt>
      <trkpt lat="43.10033" lon="-0.4072">
        <ele>508.67</ele>
        <time>2015-10-24T12:12:38Z</time>
      </trkpt>
      <trkpt lat="43.10032" lon="-0.40732">
        <ele>508.19</ele>
        <time>2015-10-24T12:12:41Z</time>
      </trkpt>
      <trkpt lat="43.10032" lon="-0.40743">
        <ele>508.67</ele>
        <time>2015-10-24T12:12:45Z</time>
      </trkpt>
      <trkpt lat="43.10016" lon="-0.40773">
        <ele>502.91</ele>
        <time>2015-10-24T12:12:54Z</time>
      </trkpt>
      <trkpt lat="43.1001" lon="-0.4079">
        <ele>499.54</ele>
        <time>2015-10-24T12:13:01Z</time>
      </trkpt>
      <trkpt lat="43.10008" lon="-0.40793">
        <ele>498.58</ele>
        <time>2015-10-24T12:13:03Z</time>
      </trkpt>
      <trkpt lat="43.10004" lon="-0.40813">
        <ele>494.74</ele>
        <time>2015-10-24T12:13:09Z</time>
      </trkpt>
      <trkpt lat="43.09995" lon="-0.40834">
        <ele>490.89</ele>
        <time>2015-10-24T12:13:14Z</time>
      </trkpt>
      <trkpt lat="43.09983" lon="-0.40859">
        <ele>487.53</ele>
        <time>2015-10-24T12:13:20Z</time>
      </trkpt>
      <trkpt lat="43.09995" lon="-0.40882">
        <ele>485.6</ele>
        <time>2015-10-24T12:13:29Z</time>
      </trkpt>
      <trkpt lat="43.09994" lon="-0.409">
        <ele>482.24</ele>
        <time>2015-10-24T12:13:36Z</time>
      </trkpt>
      <trkpt lat="43.09988" lon="-0.40916">
        <ele>476.95</ele>
        <time>2015-10-24T12:13:42Z</time>
      </trkpt>
      <trkpt lat="43.09985" lon="-0.40923">
        <ele>474.55</ele>
        <time>2015-10-24T12:13:45Z</time>
      </trkpt>
      <trkpt lat="43.09966" lon="-0.40934">
        <ele>463.49</ele>
        <time>2015-10-24T12:13:56Z</time>
      </trkpt>
      <trkpt lat="43.09961" lon="-0.40935">
        <ele>460.61</ele>
        <time>2015-10-24T12:13:58Z</time>
      </trkpt>
      <trkpt lat="43.09943" lon="-0.40922">
        <ele>454.84</ele>
        <time>2015-10-24T12:14:07Z</time>
      </trkpt>
      <trkpt lat="43.09942" lon="-0.40919">
        <ele>454.36</ele>
        <time>2015-10-24T12:14:08Z</time>
      </trkpt>
      <trkpt lat="43.09937" lon="-0.40907">
        <ele>453.4</ele>
        <time>2015-10-24T12:14:12Z</time>
      </trkpt>
      <trkpt lat="43.09925" lon="-0.40859">
        <ele>460.13</ele>
        <time>2015-10-24T12:14:25Z</time>
      </trkpt>
      <trkpt lat="43.09933" lon="-0.40808">
        <ele>471.66</ele>
        <time>2015-10-24T12:14:38Z</time>
      </trkpt>
      <trkpt lat="43.0994" lon="-0.40754">
        <ele>477.91</ele>
        <time>2015-10-24T12:14:53Z</time>
      </trkpt>
      <trkpt lat="43.09936" lon="-0.40725">
        <ele>479.84</ele>
        <time>2015-10-24T12:15:01Z</time>
      </trkpt>
      <trkpt lat="43.09914" lon="-0.40687">
        <ele>482.72</ele>
        <time>2015-10-24T12:15:15Z</time>
      </trkpt>
      <trkpt lat="43.09892" lon="-0.40651">
        <ele>484.64</ele>
        <time>2015-10-24T12:15:28Z</time>
      </trkpt>
      <trkpt lat="43.09883" lon="-0.40614">
        <ele>487.05</ele>
        <time>2015-10-24T12:15:40Z</time>
      </trkpt>
      <trkpt lat="43.09883" lon="-0.40566">
        <ele>488.97</ele>
        <time>2015-10-24T12:15:53Z</time>
      </trkpt>
      <trkpt lat="43.09868" lon="-0.40536">
        <ele>490.89</ele>
        <time>2015-10-24T12:16:03Z</time>
      </trkpt>
      <trkpt lat="43.09837" lon="-0.40517">
        <ele>494.26</ele>
        <time>2015-10-24T12:16:17Z</time>
      </trkpt>
      <trkpt lat="43.09829" lon="-0.40509">
        <ele>495.7</ele>
        <time>2015-10-24T12:16:21Z</time>
      </trkpt>
      <trkpt lat="43.09815" lon="-0.40475">
        <ele>497.62</ele>
        <time>2015-10-24T12:16:33Z</time>
      </trkpt>
      <trkpt lat="43.09818" lon="-0.40445">
        <ele>496.18</ele>
        <time>2015-10-24T12:16:42Z</time>
      </trkpt>
      <trkpt lat="43.0981" lon="-0.40421">
        <ele>495.7</ele>
        <time>2015-10-24T12:16:49Z</time>
      </trkpt>
      <trkpt lat="43.09808" lon="-0.40416">
        <ele>495.22</ele>
        <time>2015-10-24T12:16:50Z</time>
      </trkpt>
      <trkpt lat="43.09805" lon="-0.40411">
        <ele>495.22</ele>
        <time>2015-10-24T12:16:51Z</time>
      </trkpt>
      <trkpt lat="43.098" lon="-0.40407">
        <ele>494.74</ele>
        <time>2015-10-24T12:16:52Z</time>
      </trkpt>
      <trkpt lat="43.09766" lon="-0.40417">
        <ele>493.77</ele>
        <time>2015-10-24T12:16:58Z</time>
      </trkpt>
      <trkpt lat="43.09761" lon="-0.40423">
        <ele>493.29</ele>
        <time>2015-10-24T12:16:59Z</time>
      </trkpt>
      <trkpt lat="43.09745" lon="-0.40442">
        <ele>492.33</ele>
        <time>2015-10-24T12:17:02Z</time>
      </trkpt>
      <trkpt lat="43.09728" lon="-0.40451">
        <ele>491.85</ele>
        <time>2015-10-24T12:17:05Z</time>
      </trkpt>
      <trkpt lat="43.09691" lon="-0.40453">
        <ele>489.93</ele>
        <time>2015-10-24T12:17:12Z</time>
      </trkpt>
      <trkpt lat="43.09679" lon="-0.40437">
        <ele>488.97</ele>
        <time>2015-10-24T12:17:15Z</time>
      </trkpt>
      <trkpt lat="43.09671" lon="-0.40428">
        <ele>488.97</ele>
        <time>2015-10-24T12:17:17Z</time>
      </trkpt>
      <trkpt lat="43.09654" lon="-0.40415">
        <ele>488.01</ele>
        <time>2015-10-24T12:17:21Z</time>
      </trkpt>
      <trkpt lat="43.0963" lon="-0.40415">
        <ele>486.08</ele>
        <time>2015-10-24T12:17:27Z</time>
      </trkpt>
      <trkpt lat="43.09612" lon="-0.40409">
        <ele>486.08</ele>
        <time>2015-10-24T12:17:31Z</time>
      </trkpt>
      <trkpt lat="43.0959" lon="-0.40378">
        <ele>485.12</ele>
        <time>2015-10-24T12:17:40Z</time>
      </trkpt>
      <trkpt lat="43.09585" lon="-0.40362">
        <ele>483.68</ele>
        <time>2015-10-24T12:17:44Z</time>
      </trkpt>
      <trkpt lat="43.09576" lon="-0.40342">
        <ele>482.24</ele>
        <time>2015-10-24T12:17:50Z</time>
      </trkpt>
      <trkpt lat="43.09563" lon="-0.40316">
        <ele>480.32</ele>
        <time>2015-10-24T12:17:57Z</time>
      </trkpt>
      <trkpt lat="43.09554" lon="-0.40303">
        <ele>479.35</ele>
        <time>2015-10-24T12:18:01Z</time>
      </trkpt>
      <trkpt lat="43.09543" lon="-0.4029">
        <ele>477.91</ele>
        <time>2015-10-24T12:18:04Z</time>
      </trkpt>
      <trkpt lat="43.09526" lon="-0.40277">
        <ele>476.47</ele>
        <time>2015-10-24T12:18:09Z</time>
      </trkpt>
      <trkpt lat="43.09498" lon="-0.4026">
        <ele>477.43</ele>
        <time>2015-10-24T12:18:18Z</time>
      </trkpt>
      <trkpt lat="43.09489" lon="-0.40251">
        <ele>477.43</ele>
        <time>2015-10-24T12:18:21Z</time>
      </trkpt>
      <trkpt lat="43.09479" lon="-0.40236">
        <ele>476.95</ele>
        <time>2015-10-24T12:18:24Z</time>
      </trkpt>
      <trkpt lat="43.09471" lon="-0.40225">
        <ele>476.95</ele>
        <time>2015-10-24T12:18:26Z</time>
      </trkpt>
      <trkpt lat="43.09456" lon="-0.40208">
        <ele>476.47</ele>
        <time>2015-10-24T12:18:30Z</time>
      </trkpt>
      <trkpt lat="43.09433" lon="-0.40225">
        <ele>475.03</ele>
        <time>2015-10-24T12:18:38Z</time>
      </trkpt>
      <trkpt lat="43.09419" lon="-0.40248">
        <ele>474.55</ele>
        <time>2015-10-24T12:18:48Z</time>
      </trkpt>
      <trkpt lat="43.09418" lon="-0.4025">
        <ele>474.55</ele>
        <time>2015-10-24T12:18:49Z</time>
      </trkpt>
      <trkpt lat="43.09414" lon="-0.40256">
        <ele>475.99</ele>
        <time>2015-10-24T12:18:53Z</time>
      </trkpt>
      <trkpt lat="43.09408" lon="-0.40258">
        <ele>477.43</ele>
        <time>2015-10-24T12:18:57Z</time>
      </trkpt>
      <trkpt lat="43.09405" lon="-0.4026">
        <ele>478.87</ele>
        <time>2015-10-24T12:18:59Z</time>
      </trkpt>
      <trkpt lat="43.09395" lon="-0.40264">
        <ele>483.2</ele>
        <time>2015-10-24T12:19:05Z</time>
      </trkpt>
      <trkpt lat="43.09388" lon="-0.40264">
        <ele>484.64</ele>
        <time>2015-10-24T12:19:12Z</time>
      </trkpt>
      <trkpt lat="43.09381" lon="-0.40266">
        <ele>486.08</ele>
        <time>2015-10-24T12:19:21Z</time>
      </trkpt>
      <trkpt lat="43.09373" lon="-0.40263">
        <ele>491.37</ele>
        <time>2015-10-24T12:19:33Z</time>
      </trkpt>
      <trkpt lat="43.09367" lon="-0.40261">
        <ele>495.22</ele>
        <time>2015-10-24T12:19:42Z</time>
      </trkpt>
      <trkpt lat="43.09354" lon="-0.40259">
        <ele>498.1</ele>
        <time>2015-10-24T12:19:50Z</time>
      </trkpt>
      <trkpt lat="43.09352" lon="-0.40259">
        <ele>498.58</ele>
        <time>2015-10-24T12:19:52Z</time>
      </trkpt>
      <trkpt lat="43.09348" lon="-0.4026">
        <ele>499.54</ele>
        <time>2015-10-24T12:19:55Z</time>
      </trkpt>
      <trkpt lat="43.09338" lon="-0.40274">
        <ele>499.54</ele>
        <time>2015-10-24T12:20:09Z</time>
      </trkpt>
      <trkpt lat="43.09334" lon="-0.40279">
        <ele>498.58</ele>
        <time>2015-10-24T12:20:14Z</time>
      </trkpt>
      <trkpt lat="43.09319" lon="-0.40293">
        <ele>499.06</ele>
        <time>2015-10-24T12:20:28Z</time>
      </trkpt>
      <trkpt lat="43.09314" lon="-0.40287">
        <ele>496.66</ele>
        <time>2015-10-24T12:20:39Z</time>
      </trkpt>
      <trkpt lat="43.09305" lon="-0.40282">
        <ele>496.66</ele>
        <time>2015-10-24T12:20:45Z</time>
      </trkpt>
      <trkpt lat="43.09287" lon="-0.40256">
        <ele>493.77</ele>
        <time>2015-10-24T12:20:54Z</time>
      </trkpt>
      <trkpt lat="43.09264" lon="-0.40237">
        <ele>492.81</ele>
        <time>2015-10-24T12:21:05Z</time>
      </trkpt>
      <trkpt lat="43.09246" lon="-0.40217">
        <ele>495.7</ele>
        <time>2015-10-24T12:21:16Z</time>
      </trkpt>
      <trkpt lat="43.09242" lon="-0.40206">
        <ele>495.7</ele>
        <time>2015-10-24T12:21:20Z</time>
      </trkpt>
      <trkpt lat="43.0921" lon="-0.4018">
        <ele>494.74</ele>
        <time>2015-10-24T12:21:31Z</time>
      </trkpt>
      <trkpt lat="43.09197" lon="-0.40161">
        <ele>492.81</ele>
        <time>2015-10-24T12:21:38Z</time>
      </trkpt>
      <trkpt lat="43.09193" lon="-0.4016">
        <ele>492.33</ele>
        <time>2015-10-24T12:21:39Z</time>
      </trkpt>
      <trkpt lat="43.09188" lon="-0.4016">
        <ele>491.85</ele>
        <time>2015-10-24T12:21:40Z</time>
      </trkpt>
      <trkpt lat="43.09184" lon="-0.40159">
        <ele>491.37</ele>
        <time>2015-10-24T12:21:41Z</time>
      </trkpt>
      <trkpt lat="43.09174" lon="-0.40156">
        <ele>490.41</ele>
        <time>2015-10-24T12:21:43Z</time>
      </trkpt>
      <trkpt lat="43.09163" lon="-0.40154">
        <ele>489.93</ele>
        <time>2015-10-24T12:21:45Z</time>
      </trkpt>
      <trkpt lat="43.09136" lon="-0.40145">
        <ele>484.64</ele>
        <time>2015-10-24T12:21:52Z</time>
      </trkpt>
      <trkpt lat="43.09115" lon="-0.40149">
        <ele>480.8</ele>
        <time>2015-10-24T12:21:58Z</time>
      </trkpt>
      <trkpt lat="43.09115" lon="-0.40153">
        <ele>480.8</ele>
        <time>2015-10-24T12:21:59Z</time>
      </trkpt>
      <trkpt lat="43.09115" lon="-0.40158">
        <ele>480.32</ele>
        <time>2015-10-24T12:22:00Z</time>
      </trkpt>
      <trkpt lat="43.09116" lon="-0.40184">
        <ele>478.39</ele>
        <time>2015-10-24T12:22:05Z</time>
      </trkpt>
      <trkpt lat="43.09113" lon="-0.40237">
        <ele>476.47</ele>
        <time>2015-10-24T12:22:13Z</time>
      </trkpt>
      <trkpt lat="43.09113" lon="-0.40243">
        <ele>476.47</ele>
        <time>2015-10-24T12:22:14Z</time>
      </trkpt>
      <trkpt lat="43.09112" lon="-0.40249">
        <ele>476.95</ele>
        <time>2015-10-24T12:22:15Z</time>
      </trkpt>
      <trkpt lat="43.09112" lon="-0.40255">
        <ele>476.95</ele>
        <time>2015-10-24T12:22:16Z</time>
      </trkpt>
      <trkpt lat="43.09112" lon="-0.4026">
        <ele>476.95</ele>
        <time>2015-10-24T12:22:17Z</time>
      </trkpt>
      <trkpt lat="43.09112" lon="-0.40266">
        <ele>476.95</ele>
        <time>2015-10-24T12:22:18Z</time>
      </trkpt>
      <trkpt lat="43.09112" lon="-0.40272">
        <ele>476.47</ele>
        <time>2015-10-24T12:22:19Z</time>
      </trkpt>
      <trkpt lat="43.09112" lon="-0.40283">
        <ele>476.95</ele>
        <time>2015-10-24T12:22:21Z</time>
      </trkpt>
      <trkpt lat="43.09111" lon="-0.40288">
        <ele>476.47</ele>
        <time>2015-10-24T12:22:22Z</time>
      </trkpt>
      <trkpt lat="43.09106" lon="-0.40318">
        <ele>476.47</ele>
        <time>2015-10-24T12:22:27Z</time>
      </trkpt>
      <trkpt lat="43.09104" lon="-0.40323">
        <ele>476.47</ele>
        <time>2015-10-24T12:22:28Z</time>
      </trkpt>
      <trkpt lat="43.09088" lon="-0.40357">
        <ele>477.91</ele>
        <time>2015-10-24T12:22:37Z</time>
      </trkpt>
      <trkpt lat="43.09087" lon="-0.4036">
        <ele>477.91</ele>
        <time>2015-10-24T12:22:38Z</time>
      </trkpt>
      <trkpt lat="43.09065" lon="-0.40397">
        <ele>479.84</ele>
        <time>2015-10-24T12:22:51Z</time>
      </trkpt>
      <trkpt lat="43.0905" lon="-0.40418">
        <ele>483.2</ele>
        <time>2015-10-24T12:23:01Z</time>
      </trkpt>
      <trkpt lat="43.09048" lon="-0.40419">
        <ele>483.2</ele>
        <time>2015-10-24T12:23:02Z</time>
      </trkpt>
      <trkpt lat="43.09046" lon="-0.40421">
        <ele>483.68</ele>
        <time>2015-10-24T12:23:03Z</time>
      </trkpt>
      <trkpt lat="43.09036" lon="-0.40425">
        <ele>486.56</ele>
        <time>2015-10-24T12:23:09Z</time>
      </trkpt>
      <trkpt lat="43.09035" lon="-0.40425">
        <ele>486.56</ele>
        <time>2015-10-24T12:23:10Z</time>
      </trkpt>
      <trkpt lat="43.09034" lon="-0.40425">
        <ele>487.05</ele>
        <time>2015-10-24T12:23:11Z</time>
      </trkpt>
      <trkpt lat="43.09024" lon="-0.4043">
        <ele>488.01</ele>
        <time>2015-10-24T12:23:18Z</time>
      </trkpt>
      <trkpt lat="43.09022" lon="-0.40429">
        <ele>488.49</ele>
        <time>2015-10-24T12:23:19Z</time>
      </trkpt>
      <trkpt lat="43.09021" lon="-0.40428">
        <ele>488.97</ele>
        <time>2015-10-24T12:23:20Z</time>
      </trkpt>
      <trkpt lat="43.09005" lon="-0.40411">
        <ele>492.81</ele>
        <time>2015-10-24T12:23:34Z</time>
      </trkpt>
      <trkpt lat="43.09001" lon="-0.4041">
        <ele>493.29</ele>
        <time>2015-10-24T12:23:37Z</time>
      </trkpt>
      <trkpt lat="43.08997" lon="-0.40414">
        <ele>494.26</ele>
        <time>2015-10-24T12:23:41Z</time>
      </trkpt>
      <trkpt lat="43.08998" lon="-0.40425">
        <ele>496.18</ele>
        <time>2015-10-24T12:23:46Z</time>
      </trkpt>
      <trkpt lat="43.08995" lon="-0.40431">
        <ele>496.66</ele>
        <time>2015-10-24T12:23:50Z</time>
      </trkpt>
      <trkpt lat="43.08989" lon="-0.40439">
        <ele>497.62</ele>
        <time>2015-10-24T12:23:57Z</time>
      </trkpt>
      <trkpt lat="43.08984" lon="-0.40447">
        <ele>499.06</ele>
        <time>2015-10-24T12:24:01Z</time>
      </trkpt>
      <trkpt lat="43.08979" lon="-0.40457">
        <ele>501.46</ele>
        <time>2015-10-24T12:24:06Z</time>
      </trkpt>
      <trkpt lat="43.08978" lon="-0.40461">
        <ele>501.95</ele>
        <time>2015-10-24T12:24:08Z</time>
      </trkpt>
      <trkpt lat="43.08972" lon="-0.4048">
        <ele>502.43</ele>
        <time>2015-10-24T12:24:17Z</time>
      </trkpt>
      <trkpt lat="43.08973" lon="-0.40525">
        <ele>501.95</ele>
        <time>2015-10-24T12:24:30Z</time>
      </trkpt>
      <trkpt lat="43.08953" lon="-0.4057">
        <ele>501.95</ele>
        <time>2015-10-24T12:24:41Z</time>
      </trkpt>
      <trkpt lat="43.08927" lon="-0.40623">
        <ele>501.46</ele>
        <time>2015-10-24T12:24:53Z</time>
      </trkpt>
      <trkpt lat="43.08916" lon="-0.40655">
        <ele>501.95</ele>
        <time>2015-10-24T12:25:00Z</time>
      </trkpt>
      <trkpt lat="43.08914" lon="-0.40661">
        <ele>501.95</ele>
        <time>2015-10-24T12:25:01Z</time>
      </trkpt>
      <trkpt lat="43.08913" lon="-0.40667">
        <ele>502.43</ele>
        <time>2015-10-24T12:25:02Z</time>
      </trkpt>
      <trkpt lat="43.08912" lon="-0.40674">
        <ele>502.91</ele>
        <time>2015-10-24T12:25:03Z</time>
      </trkpt>
      <trkpt lat="43.08911" lon="-0.4068">
        <ele>502.91</ele>
        <time>2015-10-24T12:25:04Z</time>
      </trkpt>
      <trkpt lat="43.08909" lon="-0.40694">
        <ele>502.91</ele>
        <time>2015-10-24T12:25:06Z</time>
      </trkpt>
      <trkpt lat="43.08906" lon="-0.40699">
        <ele>502.43</ele>
        <time>2015-10-24T12:25:07Z</time>
      </trkpt>
      <trkpt lat="43.08904" lon="-0.40703">
        <ele>502.43</ele>
        <time>2015-10-24T12:25:08Z</time>
      </trkpt>
      <trkpt lat="43.08901" lon="-0.40706">
        <ele>501.95</ele>
        <time>2015-10-24T12:25:09Z</time>
      </trkpt>
      <trkpt lat="43.08898" lon="-0.40707">
        <ele>501.46</ele>
        <time>2015-10-24T12:25:10Z</time>
      </trkpt>
      <trkpt lat="43.08895" lon="-0.40707">
        <ele>501.46</ele>
        <time>2015-10-24T12:25:11Z</time>
      </trkpt>
      <trkpt lat="43.08891" lon="-0.40706">
        <ele>500.98</ele>
        <time>2015-10-24T12:25:12Z</time>
      </trkpt>
      <trkpt lat="43.08889" lon="-0.40702">
        <ele>500.98</ele>
        <time>2015-10-24T12:25:13Z</time>
      </trkpt>
      <trkpt lat="43.08887" lon="-0.40698">
        <ele>500.5</ele>
        <time>2015-10-24T12:25:14Z</time>
      </trkpt>
      <trkpt lat="43.08886" lon="-0.40693">
        <ele>500.5</ele>
        <time>2015-10-24T12:25:15Z</time>
      </trkpt>
      <trkpt lat="43.08881" lon="-0.40677">
        <ele>500.02</ele>
        <time>2015-10-24T12:25:18Z</time>
      </trkpt>
      <trkpt lat="43.08878" lon="-0.40665">
        <ele>499.54</ele>
        <time>2015-10-24T12:25:20Z</time>
      </trkpt>
      <trkpt lat="43.08877" lon="-0.40659">
        <ele>499.54</ele>
        <time>2015-10-24T12:25:21Z</time>
      </trkpt>
      <trkpt lat="43.08874" lon="-0.40646">
        <ele>498.58</ele>
        <time>2015-10-24T12:25:23Z</time>
      </trkpt>
      <trkpt lat="43.08857" lon="-0.40564">
        <ele>496.18</ele>
        <time>2015-10-24T12:25:33Z</time>
      </trkpt>
      <trkpt lat="43.08852" lon="-0.40536">
        <ele>495.22</ele>
        <time>2015-10-24T12:25:36Z</time>
      </trkpt>
      <trkpt lat="43.08833" lon="-0.4039">
        <ele>488.49</ele>
        <time>2015-10-24T12:25:48Z</time>
      </trkpt>
      <trkpt lat="43.08823" lon="-0.40289">
        <ele>487.05</ele>
        <time>2015-10-24T12:25:57Z</time>
      </trkpt>
      <trkpt lat="43.08823" lon="-0.40279">
        <ele>487.05</ele>
        <time>2015-10-24T12:25:58Z</time>
      </trkpt>
      <trkpt lat="43.08836" lon="-0.40152">
        <ele>482.24</ele>
        <time>2015-10-24T12:26:09Z</time>
      </trkpt>
      <trkpt lat="43.08842" lon="-0.39976">
        <ele>474.07</ele>
        <time>2015-10-24T12:26:21Z</time>
      </trkpt>
      <trkpt lat="43.08834" lon="-0.39902">
        <ele>469.74</ele>
        <time>2015-10-24T12:26:26Z</time>
      </trkpt>
      <trkpt lat="43.08817" lon="-0.39846">
        <ele>465.9</ele>
        <time>2015-10-24T12:26:30Z</time>
      </trkpt>
      <trkpt lat="43.08815" lon="-0.39833">
        <ele>465.42</ele>
        <time>2015-10-24T12:26:31Z</time>
      </trkpt>
      <trkpt lat="43.08812" lon="-0.39789">
        <ele>463.01</ele>
        <time>2015-10-24T12:26:35Z</time>
      </trkpt>
      <trkpt lat="43.08813" lon="-0.3978">
        <ele>462.53</ele>
        <time>2015-10-24T12:26:36Z</time>
      </trkpt>
      <trkpt lat="43.08818" lon="-0.39733">
        <ele>461.57</ele>
        <time>2015-10-24T12:26:42Z</time>
      </trkpt>
      <trkpt lat="43.0882" lon="-0.39705">
        <ele>461.57</ele>
        <time>2015-10-24T12:26:46Z</time>
      </trkpt>
      <trkpt lat="43.08821" lon="-0.39698">
        <ele>461.57</ele>
        <time>2015-10-24T12:26:47Z</time>
      </trkpt>
      <trkpt lat="43.08821" lon="-0.39693">
        <ele>461.57</ele>
        <time>2015-10-24T12:26:48Z</time>
      </trkpt>
      <trkpt lat="43.08821" lon="-0.39686">
        <ele>461.57</ele>
        <time>2015-10-24T12:26:49Z</time>
      </trkpt>
      <trkpt lat="43.08821" lon="-0.3968">
        <ele>462.05</ele>
        <time>2015-10-24T12:26:50Z</time>
      </trkpt>
      <trkpt lat="43.08821" lon="-0.39674">
        <ele>462.05</ele>
        <time>2015-10-24T12:26:51Z</time>
      </trkpt>
      <trkpt lat="43.08819" lon="-0.39622">
        <ele>466.38</ele>
        <time>2015-10-24T12:27:02Z</time>
      </trkpt>
      <trkpt lat="43.0882" lon="-0.39601">
        <ele>467.34</ele>
        <time>2015-10-24T12:27:07Z</time>
      </trkpt>
      <trkpt lat="43.0882" lon="-0.39598">
        <ele>467.34</ele>
        <time>2015-10-24T12:27:08Z</time>
      </trkpt>
      <trkpt lat="43.0882" lon="-0.39594">
        <ele>467.82</ele>
        <time>2015-10-24T12:27:09Z</time>
      </trkpt>
      <trkpt lat="43.0882" lon="-0.39591">
        <ele>467.82</ele>
        <time>2015-10-24T12:27:10Z</time>
      </trkpt>
      <trkpt lat="43.08819" lon="-0.39588">
        <ele>467.82</ele>
        <time>2015-10-24T12:27:11Z</time>
      </trkpt>
      <trkpt lat="43.08816" lon="-0.39569">
        <ele>469.74</ele>
        <time>2015-10-24T12:27:16Z</time>
      </trkpt>
      <trkpt lat="43.08815" lon="-0.39565">
        <ele>469.74</ele>
        <time>2015-10-24T12:27:17Z</time>
      </trkpt>
      <trkpt lat="43.08818" lon="-0.39516">
        <ele>472.63</ele>
        <time>2015-10-24T12:27:30Z</time>
      </trkpt>
      <trkpt lat="43.08822" lon="-0.3946">
        <ele>476.95</ele>
        <time>2015-10-24T12:27:45Z</time>
      </trkpt>
      <trkpt lat="43.0882" lon="-0.39422">
        <ele>481.28</ele>
        <time>2015-10-24T12:27:56Z</time>
      </trkpt>
      <trkpt lat="43.0882" lon="-0.3942">
        <ele>481.76</ele>
        <time>2015-10-24T12:27:57Z</time>
      </trkpt>
      <trkpt lat="43.0882" lon="-0.39408">
        <ele>483.68</ele>
        <time>2015-10-24T12:28:01Z</time>
      </trkpt>
      <trkpt lat="43.08819" lon="-0.39373">
        <ele>487.05</ele>
        <time>2015-10-24T12:28:12Z</time>
      </trkpt>
      <trkpt lat="43.08815" lon="-0.39341">
        <ele>488.97</ele>
        <time>2015-10-24T12:28:23Z</time>
      </trkpt>
      <trkpt lat="43.08817" lon="-0.39306">
        <ele>490.41</ele>
        <time>2015-10-24T12:28:35Z</time>
      </trkpt>
      <trkpt lat="43.08824" lon="-0.39277">
        <ele>490.89</ele>
        <time>2015-10-24T12:28:45Z</time>
      </trkpt>
      <trkpt lat="43.08824" lon="-0.39275">
        <ele>490.89</ele>
        <time>2015-10-24T12:28:46Z</time>
      </trkpt>
      <trkpt lat="43.08825" lon="-0.39255">
        <ele>491.85</ele>
        <time>2015-10-24T12:28:54Z</time>
      </trkpt>
      <trkpt lat="43.08825" lon="-0.39252">
        <ele>491.85</ele>
        <time>2015-10-24T12:28:55Z</time>
      </trkpt>
      <trkpt lat="43.08825" lon="-0.39249">
        <ele>492.33</ele>
        <time>2015-10-24T12:28:56Z</time>
      </trkpt>
      <trkpt lat="43.08825" lon="-0.39247">
        <ele>492.33</ele>
        <time>2015-10-24T12:28:57Z</time>
      </trkpt>
      <trkpt lat="43.08826" lon="-0.39244">
        <ele>492.81</ele>
        <time>2015-10-24T12:28:58Z</time>
      </trkpt>
      <trkpt lat="43.08825" lon="-0.3921">
        <ele>494.74</ele>
        <time>2015-10-24T12:29:11Z</time>
      </trkpt>
      <trkpt lat="43.08823" lon="-0.39206">
        <ele>494.26</ele>
        <time>2015-10-24T12:29:13Z</time>
      </trkpt>
      <trkpt lat="43.08823" lon="-0.39202">
        <ele>494.26</ele>
        <time>2015-10-24T12:29:14Z</time>
      </trkpt>
      <trkpt lat="43.08822" lon="-0.39199">
        <ele>494.26</ele>
        <time>2015-10-24T12:29:15Z</time>
      </trkpt>
      <trkpt lat="43.08822" lon="-0.39196">
        <ele>494.26</ele>
        <time>2015-10-24T12:29:16Z</time>
      </trkpt>
      <trkpt lat="43.08822" lon="-0.39194">
        <ele>494.26</ele>
        <time>2015-10-24T12:29:17Z</time>
      </trkpt>
      <trkpt lat="43.08821" lon="-0.39152">
        <ele>498.58</ele>
        <time>2015-10-24T12:29:30Z</time>
      </trkpt>
      <trkpt lat="43.08823" lon="-0.39131">
        <ele>500.02</ele>
        <time>2015-10-24T12:29:37Z</time>
      </trkpt>
      <trkpt lat="43.08828" lon="-0.39095">
        <ele>503.87</ele>
        <time>2015-10-24T12:29:49Z</time>
      </trkpt>
      <trkpt lat="43.08832" lon="-0.39057">
        <ele>505.31</ele>
        <time>2015-10-24T12:30:02Z</time>
      </trkpt>
      <trkpt lat="43.08834" lon="-0.39025">
        <ele>507.23</ele>
        <time>2015-10-24T12:30:13Z</time>
      </trkpt>
      <trkpt lat="43.08834" lon="-0.38989">
        <ele>508.67</ele>
        <time>2015-10-24T12:30:26Z</time>
      </trkpt>
      <trkpt lat="43.08833" lon="-0.38987">
        <ele>508.67</ele>
        <time>2015-10-24T12:30:27Z</time>
      </trkpt>
      <trkpt lat="43.08834" lon="-0.3896">
        <ele>512.04</ele>
        <time>2015-10-24T12:30:37Z</time>
      </trkpt>
      <trkpt lat="43.08839" lon="-0.3894">
        <ele>514.44</ele>
        <time>2015-10-24T12:30:45Z</time>
      </trkpt>
      <trkpt lat="43.08838" lon="-0.38938">
        <ele>514.44</ele>
        <time>2015-10-24T12:30:46Z</time>
      </trkpt>
      <trkpt lat="43.08838" lon="-0.38935">
        <ele>514.92</ele>
        <time>2015-10-24T12:30:47Z</time>
      </trkpt>
      <trkpt lat="43.08837" lon="-0.38933">
        <ele>514.92</ele>
        <time>2015-10-24T12:30:48Z</time>
      </trkpt>
      <trkpt lat="43.08838" lon="-0.3893">
        <ele>514.92</ele>
        <time>2015-10-24T12:30:49Z</time>
      </trkpt>
      <trkpt lat="43.08838" lon="-0.38921">
        <ele>515.88</ele>
        <time>2015-10-24T12:30:53Z</time>
      </trkpt>
      <trkpt lat="43.08838" lon="-0.38919">
        <ele>516.37</ele>
        <time>2015-10-24T12:30:54Z</time>
      </trkpt>
      <trkpt lat="43.08838" lon="-0.38916">
        <ele>516.85</ele>
        <time>2015-10-24T12:30:55Z</time>
      </trkpt>
      <trkpt lat="43.08838" lon="-0.38914">
        <ele>517.33</ele>
        <time>2015-10-24T12:30:56Z</time>
      </trkpt>
      <trkpt lat="43.08838" lon="-0.38911">
        <ele>517.81</ele>
        <time>2015-10-24T12:30:57Z</time>
      </trkpt>
      <trkpt lat="43.08842" lon="-0.3888">
        <ele>519.73</ele>
        <time>2015-10-24T12:31:09Z</time>
      </trkpt>
      <trkpt lat="43.08842" lon="-0.38878">
        <ele>520.21</ele>
        <time>2015-10-24T12:31:10Z</time>
      </trkpt>
      <trkpt lat="43.08842" lon="-0.38849">
        <ele>522.13</ele>
        <time>2015-10-24T12:31:20Z</time>
      </trkpt>
      <trkpt lat="43.08841" lon="-0.38816">
        <ele>525.02</ele>
        <time>2015-10-24T12:31:30Z</time>
      </trkpt>
      <trkpt lat="43.08838" lon="-0.38778">
        <ele>529.34</ele>
        <time>2015-10-24T12:31:41Z</time>
      </trkpt>
      <trkpt lat="43.08838" lon="-0.38741">
        <ele>535.11</ele>
        <time>2015-10-24T12:31:51Z</time>
      </trkpt>
      <trkpt lat="43.08836" lon="-0.38704">
        <ele>539.44</ele>
        <time>2015-10-24T12:32:01Z</time>
      </trkpt>
      <trkpt lat="43.08836" lon="-0.38665">
        <ele>540.4</ele>
        <time>2015-10-24T12:32:11Z</time>
      </trkpt>
      <trkpt lat="43.08835" lon="-0.38656">
        <ele>541.36</ele>
        <time>2015-10-24T12:32:14Z</time>
      </trkpt>
      <trkpt lat="43.08835" lon="-0.38652">
        <ele>541.36</ele>
        <time>2015-10-24T12:32:15Z</time>
      </trkpt>
      <trkpt lat="43.08834" lon="-0.38612">
        <ele>541.84</ele>
        <time>2015-10-24T12:32:26Z</time>
      </trkpt>
      <trkpt lat="43.08833" lon="-0.38608">
        <ele>541.84</ele>
        <time>2015-10-24T12:32:27Z</time>
      </trkpt>
      <trkpt lat="43.08833" lon="-0.38605">
        <ele>541.84</ele>
        <time>2015-10-24T12:32:28Z</time>
      </trkpt>
      <trkpt lat="43.08833" lon="-0.38602">
        <ele>541.84</ele>
        <time>2015-10-24T12:32:29Z</time>
      </trkpt>
      <trkpt lat="43.08833" lon="-0.38599">
        <ele>541.36</ele>
        <time>2015-10-24T12:32:30Z</time>
      </trkpt>
      <trkpt lat="43.08833" lon="-0.38596">
        <ele>541.36</ele>
        <time>2015-10-24T12:32:31Z</time>
      </trkpt>
      <trkpt lat="43.08833" lon="-0.38593">
        <ele>540.88</ele>
        <time>2015-10-24T12:32:32Z</time>
      </trkpt>
      <trkpt lat="43.08834" lon="-0.3859">
        <ele>540.88</ele>
        <time>2015-10-24T12:32:33Z</time>
      </trkpt>
      <trkpt lat="43.08835" lon="-0.38587">
        <ele>540.88</ele>
        <time>2015-10-24T12:32:34Z</time>
      </trkpt>
      <trkpt lat="43.08834" lon="-0.38583">
        <ele>540.4</ele>
        <time>2015-10-24T12:32:35Z</time>
      </trkpt>
      <trkpt lat="43.08834" lon="-0.3858">
        <ele>539.92</ele>
        <time>2015-10-24T12:32:36Z</time>
      </trkpt>
      <trkpt lat="43.08833" lon="-0.3856">
        <ele>538.48</ele>
        <time>2015-10-24T12:32:42Z</time>
      </trkpt>
      <trkpt lat="43.08833" lon="-0.38557">
        <ele>538.48</ele>
        <time>2015-10-24T12:32:43Z</time>
      </trkpt>
      <trkpt lat="43.0883" lon="-0.38524">
        <ele>539.44</ele>
        <time>2015-10-24T12:32:56Z</time>
      </trkpt>
      <trkpt lat="43.08826" lon="-0.3849">
        <ele>537.03</ele>
        <time>2015-10-24T12:33:10Z</time>
      </trkpt>
      <trkpt lat="43.0882" lon="-0.38463">
        <ele>541.36</ele>
        <time>2015-10-24T12:33:22Z</time>
      </trkpt>
      <trkpt lat="43.08817" lon="-0.38457">
        <ele>542.32</ele>
        <time>2015-10-24T12:33:25Z</time>
      </trkpt>
      <trkpt lat="43.08806" lon="-0.38427">
        <ele>544.72</ele>
        <time>2015-10-24T12:33:38Z</time>
      </trkpt>
      <trkpt lat="43.08804" lon="-0.38406">
        <ele>547.13</ele>
        <time>2015-10-24T12:33:46Z</time>
      </trkpt>
      <trkpt lat="43.08804" lon="-0.38404">
        <ele>547.13</ele>
        <time>2015-10-24T12:33:47Z</time>
      </trkpt>
      <trkpt lat="43.08804" lon="-0.38401">
        <ele>547.61</ele>
        <time>2015-10-24T12:33:48Z</time>
      </trkpt>
      <trkpt lat="43.08804" lon="-0.38398">
        <ele>548.09</ele>
        <time>2015-10-24T12:33:49Z</time>
      </trkpt>
      <trkpt lat="43.08804" lon="-0.38396">
        <ele>548.09</ele>
        <time>2015-10-24T12:33:50Z</time>
      </trkpt>
      <trkpt lat="43.08804" lon="-0.38393">
        <ele>548.09</ele>
        <time>2015-10-24T12:33:51Z</time>
      </trkpt>
      <trkpt lat="43.08804" lon="-0.3838">
        <ele>548.09</ele>
        <time>2015-10-24T12:33:56Z</time>
      </trkpt>
      <trkpt lat="43.08804" lon="-0.38374">
        <ele>549.05</ele>
        <time>2015-10-24T12:33:58Z</time>
      </trkpt>
      <trkpt lat="43.08804" lon="-0.38372">
        <ele>549.05</ele>
        <time>2015-10-24T12:33:59Z</time>
      </trkpt>
      <trkpt lat="43.08804" lon="-0.38369">
        <ele>549.53</ele>
        <time>2015-10-24T12:34:00Z</time>
      </trkpt>
      <trkpt lat="43.08805" lon="-0.38367">
        <ele>550.01</ele>
        <time>2015-10-24T12:34:01Z</time>
      </trkpt>
      <trkpt lat="43.08805" lon="-0.38365">
        <ele>550.01</ele>
        <time>2015-10-24T12:34:02Z</time>
      </trkpt>
      <trkpt lat="43.08806" lon="-0.38337">
        <ele>552.9</ele>
        <time>2015-10-24T12:34:13Z</time>
      </trkpt>
      <trkpt lat="43.08806" lon="-0.38334">
        <ele>552.9</ele>
        <time>2015-10-24T12:34:14Z</time>
      </trkpt>
      <trkpt lat="43.08804" lon="-0.3831">
        <ele>555.78</ele>
        <time>2015-10-24T12:34:23Z</time>
      </trkpt>
      <trkpt lat="43.08804" lon="-0.38307">
        <ele>555.78</ele>
        <time>2015-10-24T12:34:24Z</time>
      </trkpt>
      <trkpt lat="43.08803" lon="-0.38294">
        <ele>557.22</ele>
        <time>2015-10-24T12:34:29Z</time>
      </trkpt>
      <trkpt lat="43.08799" lon="-0.38264">
        <ele>558.66</ele>
        <time>2015-10-24T12:34:41Z</time>
      </trkpt>
      <trkpt lat="43.088" lon="-0.38239">
        <ele>562.99</ele>
        <time>2015-10-24T12:34:51Z</time>
      </trkpt>
      <trkpt lat="43.08799" lon="-0.38236">
        <ele>562.99</ele>
        <time>2015-10-24T12:34:52Z</time>
      </trkpt>
      <trkpt lat="43.08799" lon="-0.38234">
        <ele>563.47</ele>
        <time>2015-10-24T12:34:53Z</time>
      </trkpt>
      <trkpt lat="43.088" lon="-0.38231">
        <ele>563.47</ele>
        <time>2015-10-24T12:34:54Z</time>
      </trkpt>
      <trkpt lat="43.088" lon="-0.38229">
        <ele>563.95</ele>
        <time>2015-10-24T12:34:55Z</time>
      </trkpt>
      <trkpt lat="43.08799" lon="-0.38227">
        <ele>563.47</ele>
        <time>2015-10-24T12:34:56Z</time>
      </trkpt>
      <trkpt lat="43.08799" lon="-0.38226">
        <ele>563.47</ele>
        <time>2015-10-24T12:34:57Z</time>
      </trkpt>
      <trkpt lat="43.088" lon="-0.38223">
        <ele>563.95</ele>
        <time>2015-10-24T12:34:58Z</time>
      </trkpt>
      <trkpt lat="43.088" lon="-0.38221">
        <ele>563.95</ele>
        <time>2015-10-24T12:34:59Z</time>
      </trkpt>
      <trkpt lat="43.088" lon="-0.38218">
        <ele>564.43</ele>
        <time>2015-10-24T12:35:00Z</time>
      </trkpt>
      <trkpt lat="43.088" lon="-0.38215">
        <ele>564.43</ele>
        <time>2015-10-24T12:35:01Z</time>
      </trkpt>
      <trkpt lat="43.088" lon="-0.38213">
        <ele>564.43</ele>
        <time>2015-10-24T12:35:02Z</time>
      </trkpt>
      <trkpt lat="43.088" lon="-0.38211">
        <ele>564.43</ele>
        <time>2015-10-24T12:35:03Z</time>
      </trkpt>
      <trkpt lat="43.08799" lon="-0.38209">
        <ele>564.91</ele>
        <time>2015-10-24T12:35:04Z</time>
      </trkpt>
      <trkpt lat="43.08799" lon="-0.38206">
        <ele>564.91</ele>
        <time>2015-10-24T12:35:05Z</time>
      </trkpt>
      <trkpt lat="43.08799" lon="-0.38203">
        <ele>565.39</ele>
        <time>2015-10-24T12:35:06Z</time>
      </trkpt>
      <trkpt lat="43.08799" lon="-0.382">
        <ele>565.39</ele>
        <time>2015-10-24T12:35:07Z</time>
      </trkpt>
      <trkpt lat="43.08798" lon="-0.38198">
        <ele>565.87</ele>
        <time>2015-10-24T12:35:08Z</time>
      </trkpt>
      <trkpt lat="43.08798" lon="-0.38195">
        <ele>565.87</ele>
        <time>2015-10-24T12:35:09Z</time>
      </trkpt>
      <trkpt lat="43.08799" lon="-0.38192">
        <ele>565.87</ele>
        <time>2015-10-24T12:35:10Z</time>
      </trkpt>
      <trkpt lat="43.08799" lon="-0.3819">
        <ele>565.87</ele>
        <time>2015-10-24T12:35:11Z</time>
      </trkpt>
      <trkpt lat="43.08799" lon="-0.38187">
        <ele>566.35</ele>
        <time>2015-10-24T12:35:12Z</time>
      </trkpt>
      <trkpt lat="43.08799" lon="-0.38184">
        <ele>566.35</ele>
        <time>2015-10-24T12:35:13Z</time>
      </trkpt>
      <trkpt lat="43.08799" lon="-0.38181">
        <ele>566.83</ele>
        <time>2015-10-24T12:35:14Z</time>
      </trkpt>
      <trkpt lat="43.08799" lon="-0.38178">
        <ele>567.32</ele>
        <time>2015-10-24T12:35:15Z</time>
      </trkpt>
      <trkpt lat="43.08799" lon="-0.38176">
        <ele>567.8</ele>
        <time>2015-10-24T12:35:16Z</time>
      </trkpt>
      <trkpt lat="43.08799" lon="-0.38173">
        <ele>567.8</ele>
        <time>2015-10-24T12:35:17Z</time>
      </trkpt>
      <trkpt lat="43.08799" lon="-0.3817">
        <ele>568.28</ele>
        <time>2015-10-24T12:35:18Z</time>
      </trkpt>
      <trkpt lat="43.088" lon="-0.38167">
        <ele>568.28</ele>
        <time>2015-10-24T12:35:19Z</time>
      </trkpt>
      <trkpt lat="43.08799" lon="-0.38165">
        <ele>568.76</ele>
        <time>2015-10-24T12:35:20Z</time>
      </trkpt>
      <trkpt lat="43.08798" lon="-0.38162">
        <ele>568.76</ele>
        <time>2015-10-24T12:35:21Z</time>
      </trkpt>
      <trkpt lat="43.08798" lon="-0.38159">
        <ele>568.76</ele>
        <time>2015-10-24T12:35:22Z</time>
      </trkpt>
      <trkpt lat="43.08798" lon="-0.38157">
        <ele>568.76</ele>
        <time>2015-10-24T12:35:23Z</time>
      </trkpt>
      <trkpt lat="43.08797" lon="-0.38154">
        <ele>569.24</ele>
        <time>2015-10-24T12:35:24Z</time>
      </trkpt>
      <trkpt lat="43.08797" lon="-0.38134">
        <ele>571.16</ele>
        <time>2015-10-24T12:35:32Z</time>
      </trkpt>
      <trkpt lat="43.08797" lon="-0.38132">
        <ele>571.16</ele>
        <time>2015-10-24T12:35:33Z</time>
      </trkpt>
      <trkpt lat="43.08797" lon="-0.3813">
        <ele>571.64</ele>
        <time>2015-10-24T12:35:34Z</time>
      </trkpt>
      <trkpt lat="43.08796" lon="-0.38102">
        <ele>573.56</ele>
        <time>2015-10-24T12:35:45Z</time>
      </trkpt>
      <trkpt lat="43.08795" lon="-0.381">
        <ele>573.56</ele>
        <time>2015-10-24T12:35:46Z</time>
      </trkpt>
      <trkpt lat="43.08795" lon="-0.38097">
        <ele>573.56</ele>
        <time>2015-10-24T12:35:47Z</time>
      </trkpt>
      <trkpt lat="43.08794" lon="-0.38095">
        <ele>573.56</ele>
        <time>2015-10-24T12:35:48Z</time>
      </trkpt>
      <trkpt lat="43.08794" lon="-0.38092">
        <ele>573.56</ele>
        <time>2015-10-24T12:35:49Z</time>
      </trkpt>
      <trkpt lat="43.08794" lon="-0.3809">
        <ele>573.56</ele>
        <time>2015-10-24T12:35:50Z</time>
      </trkpt>
      <trkpt lat="43.08795" lon="-0.38088">
        <ele>573.08</ele>
        <time>2015-10-24T12:35:51Z</time>
      </trkpt>
      <trkpt lat="43.08795" lon="-0.38086">
        <ele>573.08</ele>
        <time>2015-10-24T12:35:52Z</time>
      </trkpt>
      <trkpt lat="43.08795" lon="-0.38084">
        <ele>573.08</ele>
        <time>2015-10-24T12:35:53Z</time>
      </trkpt>
      <trkpt lat="43.08795" lon="-0.38081">
        <ele>573.08</ele>
        <time>2015-10-24T12:35:54Z</time>
      </trkpt>
      <trkpt lat="43.08795" lon="-0.38079">
        <ele>573.08</ele>
        <time>2015-10-24T12:35:55Z</time>
      </trkpt>
      <trkpt lat="43.08795" lon="-0.38076">
        <ele>573.08</ele>
        <time>2015-10-24T12:35:56Z</time>
      </trkpt>
      <trkpt lat="43.08796" lon="-0.38043">
        <ele>574.53</ele>
        <time>2015-10-24T12:36:08Z</time>
      </trkpt>
      <trkpt lat="43.08796" lon="-0.38015">
        <ele>575.49</ele>
        <time>2015-10-24T12:36:19Z</time>
      </trkpt>
      <trkpt lat="43.08796" lon="-0.38012">
        <ele>575.49</ele>
        <time>2015-10-24T12:36:20Z</time>
      </trkpt>
      <trkpt lat="43.08796" lon="-0.3801">
        <ele>575.49</ele>
        <time>2015-10-24T12:36:21Z</time>
      </trkpt>
      <trkpt lat="43.08797" lon="-0.38007">
        <ele>575.49</ele>
        <time>2015-10-24T12:36:22Z</time>
      </trkpt>
      <trkpt lat="43.08796" lon="-0.38004">
        <ele>575.49</ele>
        <time>2015-10-24T12:36:23Z</time>
      </trkpt>
      <trkpt lat="43.08796" lon="-0.38002">
        <ele>575.49</ele>
        <time>2015-10-24T12:36:24Z</time>
      </trkpt>
      <trkpt lat="43.08795" lon="-0.38">
        <ele>575.01</ele>
        <time>2015-10-24T12:36:25Z</time>
      </trkpt>
      <trkpt lat="43.08795" lon="-0.37997">
        <ele>574.53</ele>
        <time>2015-10-24T12:36:26Z</time>
      </trkpt>
      <trkpt lat="43.08795" lon="-0.37995">
        <ele>574.53</ele>
        <time>2015-10-24T12:36:27Z</time>
      </trkpt>
      <trkpt lat="43.08795" lon="-0.37992">
        <ele>575.01</ele>
        <time>2015-10-24T12:36:28Z</time>
      </trkpt>
      <trkpt lat="43.08791" lon="-0.37964">
        <ele>576.45</ele>
        <time>2015-10-24T12:36:39Z</time>
      </trkpt>
      <trkpt lat="43.08791" lon="-0.37961">
        <ele>577.41</ele>
        <time>2015-10-24T12:36:40Z</time>
      </trkpt>
      <trkpt lat="43.08791" lon="-0.37958">
        <ele>577.89</ele>
        <time>2015-10-24T12:36:41Z</time>
      </trkpt>
      <trkpt lat="43.08791" lon="-0.37956">
        <ele>578.85</ele>
        <time>2015-10-24T12:36:42Z</time>
      </trkpt>
      <trkpt lat="43.0879" lon="-0.3795">
        <ele>580.77</ele>
        <time>2015-10-24T12:36:45Z</time>
      </trkpt>
      <trkpt lat="43.0879" lon="-0.37947">
        <ele>581.73</ele>
        <time>2015-10-24T12:36:46Z</time>
      </trkpt>
      <trkpt lat="43.0879" lon="-0.37945">
        <ele>582.22</ele>
        <time>2015-10-24T12:36:47Z</time>
      </trkpt>
      <trkpt lat="43.08791" lon="-0.37943">
        <ele>582.7</ele>
        <time>2015-10-24T12:36:48Z</time>
      </trkpt>
      <trkpt lat="43.08791" lon="-0.37941">
        <ele>583.18</ele>
        <time>2015-10-24T12:36:49Z</time>
      </trkpt>
      <trkpt lat="43.08791" lon="-0.37938">
        <ele>583.66</ele>
        <time>2015-10-24T12:36:50Z</time>
      </trkpt>
      <trkpt lat="43.08791" lon="-0.37935">
        <ele>583.66</ele>
        <time>2015-10-24T12:36:51Z</time>
      </trkpt>
      <trkpt lat="43.08791" lon="-0.37932">
        <ele>583.66</ele>
        <time>2015-10-24T12:36:52Z</time>
      </trkpt>
      <trkpt lat="43.08791" lon="-0.37929">
        <ele>584.14</ele>
        <time>2015-10-24T12:36:53Z</time>
      </trkpt>
      <trkpt lat="43.08793" lon="-0.37895">
        <ele>587.5</ele>
        <time>2015-10-24T12:37:05Z</time>
      </trkpt>
      <trkpt lat="43.08787" lon="-0.37865">
        <ele>590.39</ele>
        <time>2015-10-24T12:37:17Z</time>
      </trkpt>
      <trkpt lat="43.08774" lon="-0.37834">
        <ele>592.79</ele>
        <time>2015-10-24T12:37:30Z</time>
      </trkpt>
      <trkpt lat="43.08758" lon="-0.37804">
        <ele>597.12</ele>
        <time>2015-10-24T12:37:44Z</time>
      </trkpt>
      <trkpt lat="43.08755" lon="-0.37797">
        <ele>599.04</ele>
        <time>2015-10-24T12:37:47Z</time>
      </trkpt>
      <trkpt lat="43.08755" lon="-0.37794">
        <ele>599.52</ele>
        <time>2015-10-24T12:37:48Z</time>
      </trkpt>
      <trkpt lat="43.08755" lon="-0.37792">
        <ele>600</ele>
        <time>2015-10-24T12:37:49Z</time>
      </trkpt>
      <trkpt lat="43.08755" lon="-0.37789">
        <ele>600.48</ele>
        <time>2015-10-24T12:37:50Z</time>
      </trkpt>
      <trkpt lat="43.08755" lon="-0.37786">
        <ele>600.48</ele>
        <time>2015-10-24T12:37:51Z</time>
      </trkpt>
      <trkpt lat="43.08755" lon="-0.37784">
        <ele>600.48</ele>
        <time>2015-10-24T12:37:52Z</time>
      </trkpt>
      <trkpt lat="43.08756" lon="-0.37782">
        <ele>600.48</ele>
        <time>2015-10-24T12:37:53Z</time>
      </trkpt>
      <trkpt lat="43.08758" lon="-0.37768">
        <ele>602.88</ele>
        <time>2015-10-24T12:37:59Z</time>
      </trkpt>
      <trkpt lat="43.08759" lon="-0.37766">
        <ele>603.36</ele>
        <time>2015-10-24T12:38:00Z</time>
      </trkpt>
      <trkpt lat="43.0876" lon="-0.37763">
        <ele>603.36</ele>
        <time>2015-10-24T12:38:01Z</time>
      </trkpt>
      <trkpt lat="43.08761" lon="-0.37761">
        <ele>603.36</ele>
        <time>2015-10-24T12:38:02Z</time>
      </trkpt>
      <trkpt lat="43.08761" lon="-0.37759">
        <ele>603.85</ele>
        <time>2015-10-24T12:38:03Z</time>
      </trkpt>
      <trkpt lat="43.08761" lon="-0.37756">
        <ele>603.85</ele>
        <time>2015-10-24T12:38:04Z</time>
      </trkpt>
      <trkpt lat="43.08761" lon="-0.37754">
        <ele>604.33</ele>
        <time>2015-10-24T12:38:05Z</time>
      </trkpt>
      <trkpt lat="43.08761" lon="-0.37752">
        <ele>604.33</ele>
        <time>2015-10-24T12:38:06Z</time>
      </trkpt>
      <trkpt lat="43.08761" lon="-0.3775">
        <ele>604.33</ele>
        <time>2015-10-24T12:38:07Z</time>
      </trkpt>
      <trkpt lat="43.08763" lon="-0.37733">
        <ele>606.25</ele>
        <time>2015-10-24T12:38:15Z</time>
      </trkpt>
      <trkpt lat="43.08762" lon="-0.37731">
        <ele>606.25</ele>
        <time>2015-10-24T12:38:16Z</time>
      </trkpt>
      <trkpt lat="43.08762" lon="-0.37729">
        <ele>606.25</ele>
        <time>2015-10-24T12:38:17Z</time>
      </trkpt>
      <trkpt lat="43.08762" lon="-0.37727">
        <ele>606.25</ele>
        <time>2015-10-24T12:38:18Z</time>
      </trkpt>
      <trkpt lat="43.08762" lon="-0.37725">
        <ele>606.73</ele>
        <time>2015-10-24T12:38:19Z</time>
      </trkpt>
      <trkpt lat="43.08769" lon="-0.37698">
        <ele>608.17</ele>
        <time>2015-10-24T12:38:31Z</time>
      </trkpt>
      <trkpt lat="43.08769" lon="-0.37695">
        <ele>608.65</ele>
        <time>2015-10-24T12:38:32Z</time>
      </trkpt>
      <trkpt lat="43.08769" lon="-0.37681">
        <ele>609.13</ele>
        <time>2015-10-24T12:38:38Z</time>
      </trkpt>
      <trkpt lat="43.0877" lon="-0.37678">
        <ele>609.13</ele>
        <time>2015-10-24T12:38:39Z</time>
      </trkpt>
      <trkpt lat="43.0877" lon="-0.37676">
        <ele>609.13</ele>
        <time>2015-10-24T12:38:40Z</time>
      </trkpt>
      <trkpt lat="43.08771" lon="-0.37673">
        <ele>609.13</ele>
        <time>2015-10-24T12:38:41Z</time>
      </trkpt>
      <trkpt lat="43.08771" lon="-0.37671">
        <ele>609.13</ele>
        <time>2015-10-24T12:38:42Z</time>
      </trkpt>
      <trkpt lat="43.08772" lon="-0.37668">
        <ele>609.13</ele>
        <time>2015-10-24T12:38:43Z</time>
      </trkpt>
      <trkpt lat="43.08772" lon="-0.37666">
        <ele>609.13</ele>
        <time>2015-10-24T12:38:44Z</time>
      </trkpt>
      <trkpt lat="43.08772" lon="-0.37663">
        <ele>609.13</ele>
        <time>2015-10-24T12:38:45Z</time>
      </trkpt>
      <trkpt lat="43.08771" lon="-0.3766">
        <ele>609.13</ele>
        <time>2015-10-24T12:38:46Z</time>
      </trkpt>
      <trkpt lat="43.08771" lon="-0.37658">
        <ele>609.13</ele>
        <time>2015-10-24T12:38:47Z</time>
      </trkpt>
      <trkpt lat="43.08771" lon="-0.37656">
        <ele>609.13</ele>
        <time>2015-10-24T12:38:48Z</time>
      </trkpt>
      <trkpt lat="43.08771" lon="-0.37653">
        <ele>608.65</ele>
        <time>2015-10-24T12:38:49Z</time>
      </trkpt>
      <trkpt lat="43.08772" lon="-0.3765">
        <ele>609.13</ele>
        <time>2015-10-24T12:38:50Z</time>
      </trkpt>
      <trkpt lat="43.08772" lon="-0.37648">
        <ele>608.65</ele>
        <time>2015-10-24T12:38:51Z</time>
      </trkpt>
      <trkpt lat="43.08774" lon="-0.37626">
        <ele>610.09</ele>
        <time>2015-10-24T12:39:00Z</time>
      </trkpt>
      <trkpt lat="43.08774" lon="-0.37624">
        <ele>609.61</ele>
        <time>2015-10-24T12:39:01Z</time>
      </trkpt>
      <trkpt lat="43.08774" lon="-0.37622">
        <ele>609.61</ele>
        <time>2015-10-24T12:39:02Z</time>
      </trkpt>
      <trkpt lat="43.08773" lon="-0.37619">
        <ele>610.09</ele>
        <time>2015-10-24T12:39:03Z</time>
      </trkpt>
      <trkpt lat="43.08773" lon="-0.37617">
        <ele>610.57</ele>
        <time>2015-10-24T12:39:04Z</time>
      </trkpt>
      <trkpt lat="43.08773" lon="-0.37609">
        <ele>610.57</ele>
        <time>2015-10-24T12:39:07Z</time>
      </trkpt>
      <trkpt lat="43.08774" lon="-0.37607">
        <ele>610.57</ele>
        <time>2015-10-24T12:39:08Z</time>
      </trkpt>
      <trkpt lat="43.08777" lon="-0.37576">
        <ele>612.5</ele>
        <time>2015-10-24T12:39:21Z</time>
      </trkpt>
      <trkpt lat="43.08776" lon="-0.37545">
        <ele>612.02</ele>
        <time>2015-10-24T12:39:34Z</time>
      </trkpt>
      <trkpt lat="43.0878" lon="-0.37518">
        <ele>612.02</ele>
        <time>2015-10-24T12:39:45Z</time>
      </trkpt>
      <trkpt lat="43.08784" lon="-0.37483">
        <ele>613.46</ele>
        <time>2015-10-24T12:39:59Z</time>
      </trkpt>
      <trkpt lat="43.08784" lon="-0.37474">
        <ele>613.46</ele>
        <time>2015-10-24T12:40:03Z</time>
      </trkpt>
      <trkpt lat="43.08784" lon="-0.37472">
        <ele>613.46</ele>
        <time>2015-10-24T12:40:04Z</time>
      </trkpt>
      <trkpt lat="43.08784" lon="-0.3747">
        <ele>613.94</ele>
        <time>2015-10-24T12:40:05Z</time>
      </trkpt>
      <trkpt lat="43.08783" lon="-0.37468">
        <ele>614.42</ele>
        <time>2015-10-24T12:40:06Z</time>
      </trkpt>
      <trkpt lat="43.08783" lon="-0.37466">
        <ele>614.42</ele>
        <time>2015-10-24T12:40:07Z</time>
      </trkpt>
      <trkpt lat="43.08783" lon="-0.37464">
        <ele>615.38</ele>
        <time>2015-10-24T12:40:08Z</time>
      </trkpt>
      <trkpt lat="43.08782" lon="-0.37461">
        <ele>616.34</ele>
        <time>2015-10-24T12:40:09Z</time>
      </trkpt>
      <trkpt lat="43.08782" lon="-0.37452">
        <ele>617.78</ele>
        <time>2015-10-24T12:40:13Z</time>
      </trkpt>
      <trkpt lat="43.08782" lon="-0.37451">
        <ele>617.78</ele>
        <time>2015-10-24T12:40:14Z</time>
      </trkpt>
      <trkpt lat="43.08782" lon="-0.37448">
        <ele>618.26</ele>
        <time>2015-10-24T12:40:15Z</time>
      </trkpt>
      <trkpt lat="43.08783" lon="-0.37446">
        <ele>618.75</ele>
        <time>2015-10-24T12:40:16Z</time>
      </trkpt>
      <trkpt lat="43.08783" lon="-0.37443">
        <ele>619.23</ele>
        <time>2015-10-24T12:40:17Z</time>
      </trkpt>
      <trkpt lat="43.08783" lon="-0.3741">
        <ele>619.23</ele>
        <time>2015-10-24T12:40:30Z</time>
      </trkpt>
      <trkpt lat="43.08782" lon="-0.37381">
        <ele>618.75</ele>
        <time>2015-10-24T12:40:43Z</time>
      </trkpt>
      <trkpt lat="43.08782" lon="-0.37378">
        <ele>619.23</ele>
        <time>2015-10-24T12:40:44Z</time>
      </trkpt>
      <trkpt lat="43.08782" lon="-0.37376">
        <ele>619.23</ele>
        <time>2015-10-24T12:40:45Z</time>
      </trkpt>
      <trkpt lat="43.08781" lon="-0.37374">
        <ele>619.71</ele>
        <time>2015-10-24T12:40:46Z</time>
      </trkpt>
      <trkpt lat="43.0878" lon="-0.37371">
        <ele>619.71</ele>
        <time>2015-10-24T12:40:47Z</time>
      </trkpt>
      <trkpt lat="43.08779" lon="-0.37368">
        <ele>620.19</ele>
        <time>2015-10-24T12:40:48Z</time>
      </trkpt>
      <trkpt lat="43.08779" lon="-0.37366">
        <ele>620.19</ele>
        <time>2015-10-24T12:40:49Z</time>
      </trkpt>
      <trkpt lat="43.08778" lon="-0.37363">
        <ele>620.67</ele>
        <time>2015-10-24T12:40:50Z</time>
      </trkpt>
      <trkpt lat="43.08778" lon="-0.37361">
        <ele>620.67</ele>
        <time>2015-10-24T12:40:51Z</time>
      </trkpt>
      <trkpt lat="43.08778" lon="-0.37359">
        <ele>621.15</ele>
        <time>2015-10-24T12:40:52Z</time>
      </trkpt>
      <trkpt lat="43.08778" lon="-0.37356">
        <ele>621.15</ele>
        <time>2015-10-24T12:40:53Z</time>
      </trkpt>
      <trkpt lat="43.08779" lon="-0.37354">
        <ele>621.15</ele>
        <time>2015-10-24T12:40:54Z</time>
      </trkpt>
      <trkpt lat="43.08779" lon="-0.37351">
        <ele>621.63</ele>
        <time>2015-10-24T12:40:55Z</time>
      </trkpt>
      <trkpt lat="43.08778" lon="-0.37349">
        <ele>622.11</ele>
        <time>2015-10-24T12:40:56Z</time>
      </trkpt>
      <trkpt lat="43.08778" lon="-0.37346">
        <ele>623.07</ele>
        <time>2015-10-24T12:40:57Z</time>
      </trkpt>
      <trkpt lat="43.08778" lon="-0.37343">
        <ele>623.55</ele>
        <time>2015-10-24T12:40:58Z</time>
      </trkpt>
      <trkpt lat="43.08778" lon="-0.3734">
        <ele>624.51</ele>
        <time>2015-10-24T12:40:59Z</time>
      </trkpt>
      <trkpt lat="43.08779" lon="-0.37325">
        <ele>626.44</ele>
        <time>2015-10-24T12:41:05Z</time>
      </trkpt>
      <trkpt lat="43.08779" lon="-0.37322">
        <ele>626.92</ele>
        <time>2015-10-24T12:41:06Z</time>
      </trkpt>
      <trkpt lat="43.08778" lon="-0.3732">
        <ele>626.92</ele>
        <time>2015-10-24T12:41:07Z</time>
      </trkpt>
      <trkpt lat="43.08777" lon="-0.37318">
        <ele>626.92</ele>
        <time>2015-10-24T12:41:08Z</time>
      </trkpt>
      <trkpt lat="43.08777" lon="-0.37316">
        <ele>626.92</ele>
        <time>2015-10-24T12:41:09Z</time>
      </trkpt>
      <trkpt lat="43.08777" lon="-0.37314">
        <ele>626.92</ele>
        <time>2015-10-24T12:41:10Z</time>
      </trkpt>
      <trkpt lat="43.08776" lon="-0.37311">
        <ele>626.92</ele>
        <time>2015-10-24T12:41:11Z</time>
      </trkpt>
      <trkpt lat="43.08776" lon="-0.37309">
        <ele>627.88</ele>
        <time>2015-10-24T12:41:12Z</time>
      </trkpt>
      <trkpt lat="43.08776" lon="-0.37306">
        <ele>627.88</ele>
        <time>2015-10-24T12:41:13Z</time>
      </trkpt>
      <trkpt lat="43.08775" lon="-0.37294">
        <ele>629.8</ele>
        <time>2015-10-24T12:41:18Z</time>
      </trkpt>
      <trkpt lat="43.08775" lon="-0.37287">
        <ele>630.76</ele>
        <time>2015-10-24T12:41:21Z</time>
      </trkpt>
      <trkpt lat="43.08774" lon="-0.37284">
        <ele>631.72</ele>
        <time>2015-10-24T12:41:22Z</time>
      </trkpt>
      <trkpt lat="43.08774" lon="-0.37281">
        <ele>632.2</ele>
        <time>2015-10-24T12:41:23Z</time>
      </trkpt>
      <trkpt lat="43.08774" lon="-0.37279">
        <ele>632.68</ele>
        <time>2015-10-24T12:41:24Z</time>
      </trkpt>
      <trkpt lat="43.08774" lon="-0.37276">
        <ele>633.17</ele>
        <time>2015-10-24T12:41:25Z</time>
      </trkpt>
      <trkpt lat="43.08773" lon="-0.37274">
        <ele>633.65</ele>
        <time>2015-10-24T12:41:26Z</time>
      </trkpt>
      <trkpt lat="43.08769" lon="-0.37247">
        <ele>634.61</ele>
        <time>2015-10-24T12:41:39Z</time>
      </trkpt>
      <trkpt lat="43.08769" lon="-0.37245">
        <ele>634.61</ele>
        <time>2015-10-24T12:41:40Z</time>
      </trkpt>
      <trkpt lat="43.08769" lon="-0.37242">
        <ele>634.61</ele>
        <time>2015-10-24T12:41:41Z</time>
      </trkpt>
      <trkpt lat="43.08769" lon="-0.37239">
        <ele>635.09</ele>
        <time>2015-10-24T12:41:42Z</time>
      </trkpt>
      <trkpt lat="43.08769" lon="-0.37237">
        <ele>635.57</ele>
        <time>2015-10-24T12:41:43Z</time>
      </trkpt>
      <trkpt lat="43.08766" lon="-0.37208">
        <ele>639.41</ele>
        <time>2015-10-24T12:41:55Z</time>
      </trkpt>
      <trkpt lat="43.08766" lon="-0.37194">
        <ele>641.82</ele>
        <time>2015-10-24T12:42:00Z</time>
      </trkpt>
      <trkpt lat="43.08766" lon="-0.37192">
        <ele>642.78</ele>
        <time>2015-10-24T12:42:01Z</time>
      </trkpt>
      <trkpt lat="43.08766" lon="-0.37189">
        <ele>643.74</ele>
        <time>2015-10-24T12:42:02Z</time>
      </trkpt>
      <trkpt lat="43.08766" lon="-0.37181">
        <ele>646.14</ele>
        <time>2015-10-24T12:42:05Z</time>
      </trkpt>
      <trkpt lat="43.08767" lon="-0.37179">
        <ele>647.1</ele>
        <time>2015-10-24T12:42:06Z</time>
      </trkpt>
      <trkpt lat="43.08767" lon="-0.37176">
        <ele>647.59</ele>
        <time>2015-10-24T12:42:07Z</time>
      </trkpt>
      <trkpt lat="43.08767" lon="-0.37173">
        <ele>648.55</ele>
        <time>2015-10-24T12:42:08Z</time>
      </trkpt>
      <trkpt lat="43.08767" lon="-0.3717">
        <ele>649.03</ele>
        <time>2015-10-24T12:42:09Z</time>
      </trkpt>
      <trkpt lat="43.08768" lon="-0.37168">
        <ele>649.51</ele>
        <time>2015-10-24T12:42:10Z</time>
      </trkpt>
      <trkpt lat="43.08768" lon="-0.37165">
        <ele>649.99</ele>
        <time>2015-10-24T12:42:11Z</time>
      </trkpt>
      <trkpt lat="43.08768" lon="-0.37163">
        <ele>650.47</ele>
        <time>2015-10-24T12:42:12Z</time>
      </trkpt>
      <trkpt lat="43.08768" lon="-0.37161">
        <ele>650.47</ele>
        <time>2015-10-24T12:42:13Z</time>
      </trkpt>
      <trkpt lat="43.08768" lon="-0.37158">
        <ele>650.95</ele>
        <time>2015-10-24T12:42:14Z</time>
      </trkpt>
      <trkpt lat="43.08768" lon="-0.37156">
        <ele>650.95</ele>
        <time>2015-10-24T12:42:15Z</time>
      </trkpt>
      <trkpt lat="43.08769" lon="-0.37154">
        <ele>651.43</ele>
        <time>2015-10-24T12:42:16Z</time>
      </trkpt>
      <trkpt lat="43.0877" lon="-0.37151">
        <ele>651.43</ele>
        <time>2015-10-24T12:42:17Z</time>
      </trkpt>
      <trkpt lat="43.08771" lon="-0.37123">
        <ele>650.47</ele>
        <time>2015-10-24T12:42:29Z</time>
      </trkpt>
      <trkpt lat="43.08773" lon="-0.37105">
        <ele>649.03</ele>
        <time>2015-10-24T12:42:36Z</time>
      </trkpt>
      <trkpt lat="43.08772" lon="-0.37102">
        <ele>649.03</ele>
        <time>2015-10-24T12:42:37Z</time>
      </trkpt>
      <trkpt lat="43.08772" lon="-0.371">
        <ele>648.55</ele>
        <time>2015-10-24T12:42:38Z</time>
      </trkpt>
      <trkpt lat="43.08772" lon="-0.37098">
        <ele>648.55</ele>
        <time>2015-10-24T12:42:39Z</time>
      </trkpt>
      <trkpt lat="43.08771" lon="-0.37096">
        <ele>648.55</ele>
        <time>2015-10-24T12:42:40Z</time>
      </trkpt>
      <trkpt lat="43.08771" lon="-0.37094">
        <ele>648.07</ele>
        <time>2015-10-24T12:42:41Z</time>
      </trkpt>
      <trkpt lat="43.08771" lon="-0.37092">
        <ele>648.07</ele>
        <time>2015-10-24T12:42:42Z</time>
      </trkpt>
      <trkpt lat="43.08771" lon="-0.3709">
        <ele>648.07</ele>
        <time>2015-10-24T12:42:43Z</time>
      </trkpt>
      <trkpt lat="43.08771" lon="-0.37088">
        <ele>648.07</ele>
        <time>2015-10-24T12:42:44Z</time>
      </trkpt>
      <trkpt lat="43.08776" lon="-0.3706">
        <ele>649.03</ele>
        <time>2015-10-24T12:42:55Z</time>
      </trkpt>
      <trkpt lat="43.08778" lon="-0.37036">
        <ele>649.51</ele>
        <time>2015-10-24T12:43:04Z</time>
      </trkpt>
      <trkpt lat="43.08777" lon="-0.37036">
        <ele>649.51</ele>
        <time>2015-10-24T12:43:05Z</time>
      </trkpt>
      <trkpt lat="43.08775" lon="-0.37036">
        <ele>649.51</ele>
        <time>2015-10-24T12:43:06Z</time>
      </trkpt>
      <trkpt lat="43.08774" lon="-0.37038">
        <ele>649.51</ele>
        <time>2015-10-24T12:43:07Z</time>
      </trkpt>
      <trkpt lat="43.08774" lon="-0.3704">
        <ele>649.99</ele>
        <time>2015-10-24T12:43:08Z</time>
      </trkpt>
      <trkpt lat="43.08769" lon="-0.37054">
        <ele>651.91</ele>
        <time>2015-10-24T12:43:15Z</time>
      </trkpt>
      <trkpt lat="43.08768" lon="-0.37056">
        <ele>652.39</ele>
        <time>2015-10-24T12:43:16Z</time>
      </trkpt>
      <trkpt lat="43.08768" lon="-0.37058">
        <ele>652.87</ele>
        <time>2015-10-24T12:43:17Z</time>
      </trkpt>
      <trkpt lat="43.08767" lon="-0.37062">
        <ele>653.35</ele>
        <time>2015-10-24T12:43:19Z</time>
      </trkpt>
      <trkpt lat="43.08767" lon="-0.37064">
        <ele>653.83</ele>
        <time>2015-10-24T12:43:20Z</time>
      </trkpt>
      <trkpt lat="43.08766" lon="-0.37067">
        <ele>654.31</ele>
        <time>2015-10-24T12:43:21Z</time>
      </trkpt>
      <trkpt lat="43.08765" lon="-0.37073">
        <ele>655.76</ele>
        <time>2015-10-24T12:43:24Z</time>
      </trkpt>
      <trkpt lat="43.08765" lon="-0.37075">
        <ele>655.76</ele>
        <time>2015-10-24T12:43:25Z</time>
      </trkpt>
      <trkpt lat="43.08764" lon="-0.37077">
        <ele>656.24</ele>
        <time>2015-10-24T12:43:26Z</time>
      </trkpt>
      <trkpt lat="43.08758" lon="-0.37105">
        <ele>658.16</ele>
        <time>2015-10-24T12:43:38Z</time>
      </trkpt>
      <trkpt lat="43.08749" lon="-0.37129">
        <ele>659.6</ele>
        <time>2015-10-24T12:43:49Z</time>
      </trkpt>
      <trkpt lat="43.08739" lon="-0.37152">
        <ele>663.45</ele>
        <time>2015-10-24T12:43:59Z</time>
      </trkpt>
      <trkpt lat="43.08735" lon="-0.37161">
        <ele>664.89</ele>
        <time>2015-10-24T12:44:03Z</time>
      </trkpt>
      <trkpt lat="43.08734" lon="-0.37163">
        <ele>665.37</ele>
        <time>2015-10-24T12:44:04Z</time>
      </trkpt>
      <trkpt lat="43.08733" lon="-0.37165">
        <ele>665.37</ele>
        <time>2015-10-24T12:44:05Z</time>
      </trkpt>
      <trkpt lat="43.08728" lon="-0.37172">
        <ele>666.81</ele>
        <time>2015-10-24T12:44:10Z</time>
      </trkpt>
      <trkpt lat="43.08726" lon="-0.37176">
        <ele>666.81</ele>
        <time>2015-10-24T12:44:12Z</time>
      </trkpt>
      <trkpt lat="43.08726" lon="-0.37178">
        <ele>666.81</ele>
        <time>2015-10-24T12:44:13Z</time>
      </trkpt>
      <trkpt lat="43.08726" lon="-0.37183">
        <ele>666.81</ele>
        <time>2015-10-24T12:44:15Z</time>
      </trkpt>
      <trkpt lat="43.08725" lon="-0.37185">
        <ele>666.81</ele>
        <time>2015-10-24T12:44:16Z</time>
      </trkpt>
      <trkpt lat="43.08724" lon="-0.37187">
        <ele>666.81</ele>
        <time>2015-10-24T12:44:17Z</time>
      </trkpt>
      <trkpt lat="43.08723" lon="-0.37189">
        <ele>666.81</ele>
        <time>2015-10-24T12:44:18Z</time>
      </trkpt>
      <trkpt lat="43.08723" lon="-0.37192">
        <ele>666.33</ele>
        <time>2015-10-24T12:44:19Z</time>
      </trkpt>
      <trkpt lat="43.08723" lon="-0.37193">
        <ele>666.81</ele>
        <time>2015-10-24T12:44:20Z</time>
      </trkpt>
      <trkpt lat="43.08722" lon="-0.37195">
        <ele>666.33</ele>
        <time>2015-10-24T12:44:21Z</time>
      </trkpt>
      <trkpt lat="43.08722" lon="-0.37197">
        <ele>666.33</ele>
        <time>2015-10-24T12:44:22Z</time>
      </trkpt>
      <trkpt lat="43.08721" lon="-0.372">
        <ele>665.85</ele>
        <time>2015-10-24T12:44:23Z</time>
      </trkpt>
      <trkpt lat="43.08721" lon="-0.37202">
        <ele>665.85</ele>
        <time>2015-10-24T12:44:24Z</time>
      </trkpt>
      <trkpt lat="43.0872" lon="-0.37204">
        <ele>665.37</ele>
        <time>2015-10-24T12:44:25Z</time>
      </trkpt>
      <trkpt lat="43.0872" lon="-0.37206">
        <ele>665.37</ele>
        <time>2015-10-24T12:44:26Z</time>
      </trkpt>
      <trkpt lat="43.08719" lon="-0.37208">
        <ele>665.85</ele>
        <time>2015-10-24T12:44:27Z</time>
      </trkpt>
      <trkpt lat="43.08719" lon="-0.37209">
        <ele>665.85</ele>
        <time>2015-10-24T12:44:28Z</time>
      </trkpt>
      <trkpt lat="43.08719" lon="-0.37212">
        <ele>666.33</ele>
        <time>2015-10-24T12:44:29Z</time>
      </trkpt>
      <trkpt lat="43.08719" lon="-0.37214">
        <ele>666.81</ele>
        <time>2015-10-24T12:44:30Z</time>
      </trkpt>
      <trkpt lat="43.08718" lon="-0.37216">
        <ele>666.81</ele>
        <time>2015-10-24T12:44:31Z</time>
      </trkpt>
      <trkpt lat="43.08717" lon="-0.37218">
        <ele>666.81</ele>
        <time>2015-10-24T12:44:32Z</time>
      </trkpt>
      <trkpt lat="43.08713" lon="-0.37241">
        <ele>670.66</ele>
        <time>2015-10-24T12:44:43Z</time>
      </trkpt>
      <trkpt lat="43.08714" lon="-0.37252">
        <ele>670.66</ele>
        <time>2015-10-24T12:44:48Z</time>
      </trkpt>
      <trkpt lat="43.08712" lon="-0.37264">
        <ele>671.62</ele>
        <time>2015-10-24T12:44:54Z</time>
      </trkpt>
      <trkpt lat="43.08712" lon="-0.37293">
        <ele>673.54</ele>
        <time>2015-10-24T12:45:08Z</time>
      </trkpt>
      <trkpt lat="43.08708" lon="-0.37315">
        <ele>674.5</ele>
        <time>2015-10-24T12:45:19Z</time>
      </trkpt>
      <trkpt lat="43.08708" lon="-0.37318">
        <ele>674.98</ele>
        <time>2015-10-24T12:45:20Z</time>
      </trkpt>
      <trkpt lat="43.08708" lon="-0.3733">
        <ele>675.94</ele>
        <time>2015-10-24T12:45:26Z</time>
      </trkpt>
      <trkpt lat="43.087" lon="-0.37356">
        <ele>677.87</ele>
        <time>2015-10-24T12:45:39Z</time>
      </trkpt>
      <trkpt lat="43.08696" lon="-0.37382">
        <ele>682.19</ele>
        <time>2015-10-24T12:45:52Z</time>
      </trkpt>
      <trkpt lat="43.08695" lon="-0.37385">
        <ele>682.19</ele>
        <time>2015-10-24T12:45:53Z</time>
      </trkpt>
      <trkpt lat="43.08691" lon="-0.37415">
        <ele>686.04</ele>
        <time>2015-10-24T12:46:07Z</time>
      </trkpt>
      <trkpt lat="43.08688" lon="-0.37439">
        <ele>688.92</ele>
        <time>2015-10-24T12:46:18Z</time>
      </trkpt>
      <trkpt lat="43.08687" lon="-0.37444">
        <ele>689.4</ele>
        <time>2015-10-24T12:46:21Z</time>
      </trkpt>
      <trkpt lat="43.08682" lon="-0.37474">
        <ele>692.77</ele>
        <time>2015-10-24T12:46:35Z</time>
      </trkpt>
      <trkpt lat="43.08677" lon="-0.37491">
        <ele>691.81</ele>
        <time>2015-10-24T12:46:43Z</time>
      </trkpt>
      <trkpt lat="43.08673" lon="-0.375">
        <ele>692.29</ele>
        <time>2015-10-24T12:46:47Z</time>
      </trkpt>
      <trkpt lat="43.08668" lon="-0.37507">
        <ele>693.25</ele>
        <time>2015-10-24T12:46:52Z</time>
      </trkpt>
      <trkpt lat="43.08659" lon="-0.37531">
        <ele>693.73</ele>
        <time>2015-10-24T12:47:05Z</time>
      </trkpt>
      <trkpt lat="43.08657" lon="-0.37545">
        <ele>693.73</ele>
        <time>2015-10-24T12:47:12Z</time>
      </trkpt>
      <trkpt lat="43.08656" lon="-0.37549">
        <ele>694.21</ele>
        <time>2015-10-24T12:47:14Z</time>
      </trkpt>
      <trkpt lat="43.08651" lon="-0.37557">
        <ele>694.21</ele>
        <time>2015-10-24T12:47:19Z</time>
      </trkpt>
      <trkpt lat="43.08642" lon="-0.37582">
        <ele>696.13</ele>
        <time>2015-10-24T12:47:33Z</time>
      </trkpt>
      <trkpt lat="43.08641" lon="-0.37587">
        <ele>697.57</ele>
        <time>2015-10-24T12:47:36Z</time>
      </trkpt>
      <trkpt lat="43.08639" lon="-0.37596">
        <ele>699.98</ele>
        <time>2015-10-24T12:47:41Z</time>
      </trkpt>
      <trkpt lat="43.0863" lon="-0.37617">
        <ele>703.34</ele>
        <time>2015-10-24T12:47:53Z</time>
      </trkpt>
      <trkpt lat="43.08621" lon="-0.37635">
        <ele>705.75</ele>
        <time>2015-10-24T12:48:04Z</time>
      </trkpt>
      <trkpt lat="43.08619" lon="-0.37639">
        <ele>706.23</ele>
        <time>2015-10-24T12:48:06Z</time>
      </trkpt>
      <trkpt lat="43.08611" lon="-0.3765">
        <ele>706.23</ele>
        <time>2015-10-24T12:48:13Z</time>
      </trkpt>
      <trkpt lat="43.08608" lon="-0.37654">
        <ele>706.71</ele>
        <time>2015-10-24T12:48:16Z</time>
      </trkpt>
      <trkpt lat="43.08599" lon="-0.3767">
        <ele>707.67</ele>
        <time>2015-10-24T12:48:25Z</time>
      </trkpt>
      <trkpt lat="43.08596" lon="-0.37673">
        <ele>708.15</ele>
        <time>2015-10-24T12:48:27Z</time>
      </trkpt>
      <trkpt lat="43.08591" lon="-0.37681">
        <ele>711.03</ele>
        <time>2015-10-24T12:48:32Z</time>
      </trkpt>
      <trkpt lat="43.08581" lon="-0.37696">
        <ele>714.88</ele>
        <time>2015-10-24T12:48:41Z</time>
      </trkpt>
      <trkpt lat="43.08579" lon="-0.37699">
        <ele>714.88</ele>
        <time>2015-10-24T12:48:43Z</time>
      </trkpt>
      <trkpt lat="43.08567" lon="-0.37717">
        <ele>718.24</ele>
        <time>2015-10-24T12:48:55Z</time>
      </trkpt>
      <trkpt lat="43.08562" lon="-0.37724">
        <ele>719.2</ele>
        <time>2015-10-24T12:49:01Z</time>
      </trkpt>
      <trkpt lat="43.08558" lon="-0.37744">
        <ele>722.57</ele>
        <time>2015-10-24T12:49:10Z</time>
      </trkpt>
      <trkpt lat="43.08561" lon="-0.37766">
        <ele>723.05</ele>
        <time>2015-10-24T12:49:23Z</time>
      </trkpt>
      <trkpt lat="43.0856" lon="-0.3777">
        <ele>723.05</ele>
        <time>2015-10-24T12:49:25Z</time>
      </trkpt>
      <trkpt lat="43.0856" lon="-0.37773">
        <ele>722.57</ele>
        <time>2015-10-24T12:49:27Z</time>
      </trkpt>
      <trkpt lat="43.08557" lon="-0.37785">
        <ele>719.68</ele>
        <time>2015-10-24T12:49:33Z</time>
      </trkpt>
      <trkpt lat="43.08554" lon="-0.37797">
        <ele>719.2</ele>
        <time>2015-10-24T12:49:39Z</time>
      </trkpt>
      <trkpt lat="43.08553" lon="-0.37812">
        <ele>719.68</ele>
        <time>2015-10-24T12:49:47Z</time>
      </trkpt>
      <trkpt lat="43.08551" lon="-0.37836">
        <ele>722.57</ele>
        <time>2015-10-24T12:49:59Z</time>
      </trkpt>
      <trkpt lat="43.0855" lon="-0.3785">
        <ele>723.53</ele>
        <time>2015-10-24T12:50:06Z</time>
      </trkpt>
      <trkpt lat="43.08546" lon="-0.37873">
        <ele>725.93</ele>
        <time>2015-10-24T12:50:19Z</time>
      </trkpt>
      <trkpt lat="43.0854" lon="-0.37895">
        <ele>727.37</ele>
        <time>2015-10-24T12:50:30Z</time>
      </trkpt>
      <trkpt lat="43.08533" lon="-0.37915">
        <ele>728.34</ele>
        <time>2015-10-24T12:50:40Z</time>
      </trkpt>
      <trkpt lat="43.0853" lon="-0.37921">
        <ele>728.82</ele>
        <time>2015-10-24T12:50:43Z</time>
      </trkpt>
      <trkpt lat="43.08517" lon="-0.37948">
        <ele>733.14</ele>
        <time>2015-10-24T12:50:59Z</time>
      </trkpt>
      <trkpt lat="43.08512" lon="-0.37967">
        <ele>737.47</ele>
        <time>2015-10-24T12:51:09Z</time>
      </trkpt>
      <trkpt lat="43.08506" lon="-0.37988">
        <ele>741.79</ele>
        <time>2015-10-24T12:51:22Z</time>
      </trkpt>
      <trkpt lat="43.085" lon="-0.38003">
        <ele>741.79</ele>
        <time>2015-10-24T12:51:30Z</time>
      </trkpt>
      <trkpt lat="43.08493" lon="-0.38025">
        <ele>741.31</ele>
        <time>2015-10-24T12:51:41Z</time>
      </trkpt>
      <trkpt lat="43.08487" lon="-0.38042">
        <ele>741.79</ele>
        <time>2015-10-24T12:51:49Z</time>
      </trkpt>
      <trkpt lat="43.08485" lon="-0.38051">
        <ele>742.28</ele>
        <time>2015-10-24T12:51:54Z</time>
      </trkpt>
      <trkpt lat="43.08479" lon="-0.38079">
        <ele>739.87</ele>
        <time>2015-10-24T12:52:07Z</time>
      </trkpt>
      <trkpt lat="43.08473" lon="-0.3813">
        <ele>737.95</ele>
        <time>2015-10-24T12:52:19Z</time>
      </trkpt>
      <trkpt lat="43.0847" lon="-0.38164">
        <ele>736.51</ele>
        <time>2015-10-24T12:52:29Z</time>
      </trkpt>
      <trkpt lat="43.0847" lon="-0.38168">
        <ele>736.03</ele>
        <time>2015-10-24T12:52:30Z</time>
      </trkpt>
      <trkpt lat="43.08475" lon="-0.38191">
        <ele>732.18</ele>
        <time>2015-10-24T12:52:35Z</time>
      </trkpt>
      <trkpt lat="43.08472" lon="-0.38198">
        <ele>729.78</ele>
        <time>2015-10-24T12:52:39Z</time>
      </trkpt>
      <trkpt lat="43.08468" lon="-0.3819">
        <ele>729.78</ele>
        <time>2015-10-24T12:52:46Z</time>
      </trkpt>
      <trkpt lat="43.08468" lon="-0.38181">
        <ele>730.26</ele>
        <time>2015-10-24T12:52:52Z</time>
      </trkpt>
      <trkpt lat="43.08466" lon="-0.38172">
        <ele>733.62</ele>
        <time>2015-10-24T12:53:00Z</time>
      </trkpt>
      <trkpt lat="43.08462" lon="-0.38161">
        <ele>737.47</ele>
        <time>2015-10-24T12:53:09Z</time>
      </trkpt>
      <trkpt lat="43.08461" lon="-0.38154">
        <ele>738.91</ele>
        <time>2015-10-24T12:53:13Z</time>
      </trkpt>
      <trkpt lat="43.0846" lon="-0.38147">
        <ele>740.35</ele>
        <time>2015-10-24T12:53:18Z</time>
      </trkpt>
      <trkpt lat="43.08457" lon="-0.38128">
        <ele>743.72</ele>
        <time>2015-10-24T12:53:32Z</time>
      </trkpt>
      <trkpt lat="43.08456" lon="-0.38127">
        <ele>743.72</ele>
        <time>2015-10-24T12:53:33Z</time>
      </trkpt>
      <trkpt lat="43.08454" lon="-0.3811">
        <ele>745.16</ele>
        <time>2015-10-24T12:53:46Z</time>
      </trkpt>
      <trkpt lat="43.08453" lon="-0.38105">
        <ele>745.16</ele>
        <time>2015-10-24T12:53:50Z</time>
      </trkpt>
      <trkpt lat="43.08454" lon="-0.38085">
        <ele>750.45</ele>
        <time>2015-10-24T12:54:03Z</time>
      </trkpt>
      <trkpt lat="43.08451" lon="-0.38081">
        <ele>751.89</ele>
        <time>2015-10-24T12:54:08Z</time>
      </trkpt>
      <trkpt lat="43.0845" lon="-0.38087">
        <ele>752.37</ele>
        <time>2015-10-24T12:54:12Z</time>
      </trkpt>
      <trkpt lat="43.0845" lon="-0.38092">
        <ele>753.33</ele>
        <time>2015-10-24T12:54:16Z</time>
      </trkpt>
      <trkpt lat="43.08448" lon="-0.38097">
        <ele>754.77</ele>
        <time>2015-10-24T12:54:20Z</time>
      </trkpt>
      <trkpt lat="43.08446" lon="-0.38105">
        <ele>756.21</ele>
        <time>2015-10-24T12:54:25Z</time>
      </trkpt>
      <trkpt lat="43.08446" lon="-0.38108">
        <ele>756.69</ele>
        <time>2015-10-24T12:54:27Z</time>
      </trkpt>
      <trkpt lat="43.08443" lon="-0.38113">
        <ele>757.66</ele>
        <time>2015-10-24T12:54:31Z</time>
      </trkpt>
      <trkpt lat="43.0844" lon="-0.38126">
        <ele>757.66</ele>
        <time>2015-10-24T12:54:41Z</time>
      </trkpt>
      <trkpt lat="43.08437" lon="-0.38146">
        <ele>760.06</ele>
        <time>2015-10-24T12:54:54Z</time>
      </trkpt>
      <trkpt lat="43.08438" lon="-0.3816">
        <ele>762.46</ele>
        <time>2015-10-24T12:55:04Z</time>
      </trkpt>
      <trkpt lat="43.08437" lon="-0.38174">
        <ele>765.83</ele>
        <time>2015-10-24T12:55:14Z</time>
      </trkpt>
      <trkpt lat="43.08433" lon="-0.38186">
        <ele>768.71</ele>
        <time>2015-10-24T12:55:23Z</time>
      </trkpt>
      <trkpt lat="43.08429" lon="-0.38204">
        <ele>771.6</ele>
        <time>2015-10-24T12:55:36Z</time>
      </trkpt>
      <trkpt lat="43.08428" lon="-0.38214">
        <ele>773.04</ele>
        <time>2015-10-24T12:55:43Z</time>
      </trkpt>
      <trkpt lat="43.08427" lon="-0.38222">
        <ele>773.52</ele>
        <time>2015-10-24T12:55:47Z</time>
      </trkpt>
      <trkpt lat="43.08425" lon="-0.38227">
        <ele>773.04</ele>
        <time>2015-10-24T12:55:50Z</time>
      </trkpt>
      <trkpt lat="43.08424" lon="-0.38232">
        <ele>773.04</ele>
        <time>2015-10-24T12:55:54Z</time>
      </trkpt>
      <trkpt lat="43.08422" lon="-0.38241">
        <ele>773.52</ele>
        <time>2015-10-24T12:55:59Z</time>
      </trkpt>
      <trkpt lat="43.08417" lon="-0.38256">
        <ele>773.52</ele>
        <time>2015-10-24T12:56:09Z</time>
      </trkpt>
      <trkpt lat="43.08416" lon="-0.3826">
        <ele>774.48</ele>
        <time>2015-10-24T12:56:12Z</time>
      </trkpt>
      <trkpt lat="43.08412" lon="-0.38273">
        <ele>775.92</ele>
        <time>2015-10-24T12:56:20Z</time>
      </trkpt>
      <trkpt lat="43.08407" lon="-0.38279">
        <ele>776.4</ele>
        <time>2015-10-24T12:56:26Z</time>
      </trkpt>
      <trkpt lat="43.08406" lon="-0.38282">
        <ele>776.4</ele>
        <time>2015-10-24T12:56:28Z</time>
      </trkpt>
      <trkpt lat="43.08401" lon="-0.38298">
        <ele>778.81</ele>
        <time>2015-10-24T12:56:40Z</time>
      </trkpt>
      <trkpt lat="43.08397" lon="-0.38313">
        <ele>781.69</ele>
        <time>2015-10-24T12:56:52Z</time>
      </trkpt>
      <trkpt lat="43.08392" lon="-0.38328">
        <ele>786.98</ele>
        <time>2015-10-24T12:57:04Z</time>
      </trkpt>
      <trkpt lat="43.08386" lon="-0.3834">
        <ele>787.94</ele>
        <time>2015-10-24T12:57:13Z</time>
      </trkpt>
      <trkpt lat="43.08381" lon="-0.38352">
        <ele>788.9</ele>
        <time>2015-10-24T12:57:23Z</time>
      </trkpt>
      <trkpt lat="43.0838" lon="-0.38354">
        <ele>788.9</ele>
        <time>2015-10-24T12:57:25Z</time>
      </trkpt>
      <trkpt lat="43.08379" lon="-0.38357">
        <ele>789.38</ele>
        <time>2015-10-24T12:57:27Z</time>
      </trkpt>
      <trkpt lat="43.08376" lon="-0.3836">
        <ele>789.86</ele>
        <time>2015-10-24T12:57:31Z</time>
      </trkpt>
      <trkpt lat="43.08372" lon="-0.38375">
        <ele>790.82</ele>
        <time>2015-10-24T12:57:41Z</time>
      </trkpt>
      <trkpt lat="43.08368" lon="-0.38386">
        <ele>792.74</ele>
        <time>2015-10-24T12:57:49Z</time>
      </trkpt>
      <trkpt lat="43.08357" lon="-0.38401">
        <ele>793.71</ele>
        <time>2015-10-24T12:58:01Z</time>
      </trkpt>
      <trkpt lat="43.08357" lon="-0.38402">
        <ele>794.19</ele>
        <time>2015-10-24T12:58:02Z</time>
      </trkpt>
      <trkpt lat="43.08354" lon="-0.38406">
        <ele>794.19</ele>
        <time>2015-10-24T12:58:05Z</time>
      </trkpt>
      <trkpt lat="43.08353" lon="-0.3841">
        <ele>794.19</ele>
        <time>2015-10-24T12:58:08Z</time>
      </trkpt>
      <trkpt lat="43.08349" lon="-0.38415">
        <ele>795.15</ele>
        <time>2015-10-24T12:58:12Z</time>
      </trkpt>
      <trkpt lat="43.08347" lon="-0.38419">
        <ele>795.15</ele>
        <time>2015-10-24T12:58:15Z</time>
      </trkpt>
      <trkpt lat="43.08345" lon="-0.38423">
        <ele>796.11</ele>
        <time>2015-10-24T12:58:18Z</time>
      </trkpt>
      <trkpt lat="43.08341" lon="-0.38436">
        <ele>798.03</ele>
        <time>2015-10-24T12:58:28Z</time>
      </trkpt>
      <trkpt lat="43.0834" lon="-0.38443">
        <ele>799.47</ele>
        <time>2015-10-24T12:58:33Z</time>
      </trkpt>
      <trkpt lat="43.08337" lon="-0.38454">
        <ele>800.92</ele>
        <time>2015-10-24T12:58:43Z</time>
      </trkpt>
      <trkpt lat="43.08333" lon="-0.38464">
        <ele>801.88</ele>
        <time>2015-10-24T12:58:52Z</time>
      </trkpt>
      <trkpt lat="43.08332" lon="-0.38467">
        <ele>802.84</ele>
        <time>2015-10-24T12:58:54Z</time>
      </trkpt>
      <trkpt lat="43.0833" lon="-0.38475">
        <ele>803.32</ele>
        <time>2015-10-24T12:58:59Z</time>
      </trkpt>
      <trkpt lat="43.08325" lon="-0.38482">
        <ele>804.28</ele>
        <time>2015-10-24T12:59:05Z</time>
      </trkpt>
      <trkpt lat="43.08321" lon="-0.38496">
        <ele>806.68</ele>
        <time>2015-10-24T12:59:15Z</time>
      </trkpt>
      <trkpt lat="43.08318" lon="-0.38501">
        <ele>807.64</ele>
        <time>2015-10-24T12:59:19Z</time>
      </trkpt>
      <trkpt lat="43.08316" lon="-0.38505">
        <ele>808.61</ele>
        <time>2015-10-24T12:59:22Z</time>
      </trkpt>
      <trkpt lat="43.08311" lon="-0.38519">
        <ele>811.49</ele>
        <time>2015-10-24T12:59:32Z</time>
      </trkpt>
      <trkpt lat="43.08307" lon="-0.38525">
        <ele>812.93</ele>
        <time>2015-10-24T12:59:38Z</time>
      </trkpt>
      <trkpt lat="43.08302" lon="-0.38537">
        <ele>814.85</ele>
        <time>2015-10-24T12:59:47Z</time>
      </trkpt>
      <trkpt lat="43.08294" lon="-0.38555">
        <ele>815.82</ele>
        <time>2015-10-24T13:00:00Z</time>
      </trkpt>
      <trkpt lat="43.08291" lon="-0.38562">
        <ele>817.26</ele>
        <time>2015-10-24T13:00:05Z</time>
      </trkpt>
      <trkpt lat="43.08287" lon="-0.38566">
        <ele>817.26</ele>
        <time>2015-10-24T13:00:10Z</time>
      </trkpt>
      <trkpt lat="43.08286" lon="-0.38573">
        <ele>818.22</ele>
        <time>2015-10-24T13:00:14Z</time>
      </trkpt>
      <trkpt lat="43.08285" lon="-0.38576">
        <ele>818.22</ele>
        <time>2015-10-24T13:00:17Z</time>
      </trkpt>
      <trkpt lat="43.08282" lon="-0.38584">
        <ele>818.7</ele>
        <time>2015-10-24T13:00:24Z</time>
      </trkpt>
      <trkpt lat="43.08281" lon="-0.38592">
        <ele>819.18</ele>
        <time>2015-10-24T13:00:37Z</time>
      </trkpt>
      <trkpt lat="43.08279" lon="-0.38603">
        <ele>821.58</ele>
        <time>2015-10-24T13:00:58Z</time>
      </trkpt>
      <trkpt lat="43.08275" lon="-0.38614">
        <ele>823.51</ele>
        <time>2015-10-24T13:01:08Z</time>
      </trkpt>
      <trkpt lat="43.0827" lon="-0.38633">
        <ele>825.43</ele>
        <time>2015-10-24T13:01:20Z</time>
      </trkpt>
      <trkpt lat="43.08269" lon="-0.38638">
        <ele>825.43</ele>
        <time>2015-10-24T13:01:23Z</time>
      </trkpt>
      <trkpt lat="43.08269" lon="-0.38649">
        <ele>825.91</ele>
        <time>2015-10-24T13:01:30Z</time>
      </trkpt>
      <trkpt lat="43.08267" lon="-0.38655">
        <ele>826.87</ele>
        <time>2015-10-24T13:01:33Z</time>
      </trkpt>
      <trkpt lat="43.08269" lon="-0.38675">
        <ele>830.24</ele>
        <time>2015-10-24T13:01:45Z</time>
      </trkpt>
      <trkpt lat="43.08269" lon="-0.38686">
        <ele>834.08</ele>
        <time>2015-10-24T13:01:54Z</time>
      </trkpt>
      <trkpt lat="43.08271" lon="-0.38706">
        <ele>836</ele>
        <time>2015-10-24T13:02:07Z</time>
      </trkpt>
      <trkpt lat="43.08272" lon="-0.38725">
        <ele>835.04</ele>
        <time>2015-10-24T13:02:19Z</time>
      </trkpt>
      <trkpt lat="43.08271" lon="-0.38727">
        <ele>835.52</ele>
        <time>2015-10-24T13:02:21Z</time>
      </trkpt>
      <trkpt lat="43.08272" lon="-0.3874">
        <ele>837.93</ele>
        <time>2015-10-24T13:02:30Z</time>
      </trkpt>
      <trkpt lat="43.08272" lon="-0.38745">
        <ele>838.89</ele>
        <time>2015-10-24T13:02:33Z</time>
      </trkpt>
      <trkpt lat="43.0827" lon="-0.3876">
        <ele>839.85</ele>
        <time>2015-10-24T13:02:44Z</time>
      </trkpt>
      <trkpt lat="43.08268" lon="-0.38775">
        <ele>840.33</ele>
        <time>2015-10-24T13:02:54Z</time>
      </trkpt>
      <trkpt lat="43.08267" lon="-0.38779">
        <ele>840.33</ele>
        <time>2015-10-24T13:02:57Z</time>
      </trkpt>
      <trkpt lat="43.08265" lon="-0.38794">
        <ele>842.25</ele>
        <time>2015-10-24T13:03:09Z</time>
      </trkpt>
      <trkpt lat="43.08262" lon="-0.38799">
        <ele>843.21</ele>
        <time>2015-10-24T13:03:14Z</time>
      </trkpt>
      <trkpt lat="43.08262" lon="-0.38814">
        <ele>847.54</ele>
        <time>2015-10-24T13:03:24Z</time>
      </trkpt>
      <trkpt lat="43.08262" lon="-0.38815">
        <ele>848.02</ele>
        <time>2015-10-24T13:03:25Z</time>
      </trkpt>
      <trkpt lat="43.08259" lon="-0.38821">
        <ele>848.98</ele>
        <time>2015-10-24T13:03:29Z</time>
      </trkpt>
      <trkpt lat="43.08257" lon="-0.3883">
        <ele>850.9</ele>
        <time>2015-10-24T13:03:34Z</time>
      </trkpt>
      <trkpt lat="43.08255" lon="-0.38845">
        <ele>852.35</ele>
        <time>2015-10-24T13:03:44Z</time>
      </trkpt>
      <trkpt lat="43.08252" lon="-0.38861">
        <ele>852.35</ele>
        <time>2015-10-24T13:03:55Z</time>
      </trkpt>
      <trkpt lat="43.08255" lon="-0.38875">
        <ele>853.31</ele>
        <time>2015-10-24T13:04:03Z</time>
      </trkpt>
      <trkpt lat="43.08255" lon="-0.38878">
        <ele>854.27</ele>
        <time>2015-10-24T13:04:05Z</time>
      </trkpt>
      <trkpt lat="43.08262" lon="-0.38905">
        <ele>857.63</ele>
        <time>2015-10-24T13:04:19Z</time>
      </trkpt>
      <trkpt lat="43.08263" lon="-0.38917">
        <ele>858.11</ele>
        <time>2015-10-24T13:04:26Z</time>
      </trkpt>
      <trkpt lat="43.08264" lon="-0.38923">
        <ele>857.63</ele>
        <time>2015-10-24T13:04:29Z</time>
      </trkpt>
      <trkpt lat="43.08262" lon="-0.38942">
        <ele>858.11</ele>
        <time>2015-10-24T13:04:39Z</time>
      </trkpt>
      <trkpt lat="43.0826" lon="-0.38957">
        <ele>859.08</ele>
        <time>2015-10-24T13:04:47Z</time>
      </trkpt>
      <trkpt lat="43.08258" lon="-0.38971">
        <ele>860.04</ele>
        <time>2015-10-24T13:04:56Z</time>
      </trkpt>
      <trkpt lat="43.08258" lon="-0.38983">
        <ele>861</ele>
        <time>2015-10-24T13:05:04Z</time>
      </trkpt>
      <trkpt lat="43.08257" lon="-0.38997">
        <ele>861.96</ele>
        <time>2015-10-24T13:05:13Z</time>
      </trkpt>
      <trkpt lat="43.08255" lon="-0.39014">
        <ele>861.96</ele>
        <time>2015-10-24T13:05:23Z</time>
      </trkpt>
      <trkpt lat="43.08255" lon="-0.39019">
        <ele>861.96</ele>
        <time>2015-10-24T13:05:26Z</time>
      </trkpt>
      <trkpt lat="43.08253" lon="-0.39025">
        <ele>861.96</ele>
        <time>2015-10-24T13:05:30Z</time>
      </trkpt>
      <trkpt lat="43.08253" lon="-0.39028">
        <ele>862.92</ele>
        <time>2015-10-24T13:05:32Z</time>
      </trkpt>
      <trkpt lat="43.08253" lon="-0.39045">
        <ele>865.8</ele>
        <time>2015-10-24T13:05:43Z</time>
      </trkpt>
      <trkpt lat="43.08253" lon="-0.39059">
        <ele>870.13</ele>
        <time>2015-10-24T13:05:53Z</time>
      </trkpt>
      <trkpt lat="43.08255" lon="-0.39066">
        <ele>871.09</ele>
        <time>2015-10-24T13:05:58Z</time>
      </trkpt>
      <trkpt lat="43.08256" lon="-0.3907">
        <ele>871.09</ele>
        <time>2015-10-24T13:06:01Z</time>
      </trkpt>
      <trkpt lat="43.08258" lon="-0.39083">
        <ele>871.57</ele>
        <time>2015-10-24T13:06:10Z</time>
      </trkpt>
      <trkpt lat="43.08258" lon="-0.3909">
        <ele>873.5</ele>
        <time>2015-10-24T13:06:15Z</time>
      </trkpt>
      <trkpt lat="43.08259" lon="-0.39102">
        <ele>875.42</ele>
        <time>2015-10-24T13:06:24Z</time>
      </trkpt>
      <trkpt lat="43.08258" lon="-0.39121">
        <ele>878.3</ele>
        <time>2015-10-24T13:06:37Z</time>
      </trkpt>
      <trkpt lat="43.08259" lon="-0.39138">
        <ele>881.67</ele>
        <time>2015-10-24T13:06:49Z</time>
      </trkpt>
      <trkpt lat="43.08259" lon="-0.3914">
        <ele>881.67</ele>
        <time>2015-10-24T13:06:50Z</time>
      </trkpt>
      <trkpt lat="43.08259" lon="-0.39143">
        <ele>882.15</ele>
        <time>2015-10-24T13:06:52Z</time>
      </trkpt>
      <trkpt lat="43.08257" lon="-0.39164">
        <ele>882.63</ele>
        <time>2015-10-24T13:07:06Z</time>
      </trkpt>
      <trkpt lat="43.08258" lon="-0.3917">
        <ele>883.11</ele>
        <time>2015-10-24T13:07:11Z</time>
      </trkpt>
      <trkpt lat="43.08256" lon="-0.3918">
        <ele>884.55</ele>
        <time>2015-10-24T13:07:18Z</time>
      </trkpt>
      <trkpt lat="43.08257" lon="-0.39185">
        <ele>885.51</ele>
        <time>2015-10-24T13:07:21Z</time>
      </trkpt>
      <trkpt lat="43.08257" lon="-0.39191">
        <ele>887.43</ele>
        <time>2015-10-24T13:07:26Z</time>
      </trkpt>
      <trkpt lat="43.08258" lon="-0.39197">
        <ele>888.88</ele>
        <time>2015-10-24T13:07:30Z</time>
      </trkpt>
      <trkpt lat="43.08257" lon="-0.392">
        <ele>888.88</ele>
        <time>2015-10-24T13:07:32Z</time>
      </trkpt>
      <trkpt lat="43.08255" lon="-0.39211">
        <ele>889.36</ele>
        <time>2015-10-24T13:07:40Z</time>
      </trkpt>
      <trkpt lat="43.08258" lon="-0.39232">
        <ele>888.4</ele>
        <time>2015-10-24T13:07:52Z</time>
      </trkpt>
      <trkpt lat="43.08261" lon="-0.3924">
        <ele>889.36</ele>
        <time>2015-10-24T13:07:58Z</time>
      </trkpt>
      <trkpt lat="43.08268" lon="-0.39262">
        <ele>889.36</ele>
        <time>2015-10-24T13:08:12Z</time>
      </trkpt>
      <trkpt lat="43.08268" lon="-0.39277">
        <ele>891.28</ele>
        <time>2015-10-24T13:08:20Z</time>
      </trkpt>
      <trkpt lat="43.08267" lon="-0.39295">
        <ele>891.28</ele>
        <time>2015-10-24T13:08:31Z</time>
      </trkpt>
      <trkpt lat="43.08268" lon="-0.39305">
        <ele>892.72</ele>
        <time>2015-10-24T13:08:36Z</time>
      </trkpt>
      <trkpt lat="43.08268" lon="-0.39308">
        <ele>892.72</ele>
        <time>2015-10-24T13:08:38Z</time>
      </trkpt>
      <trkpt lat="43.08264" lon="-0.39331">
        <ele>894.64</ele>
        <time>2015-10-24T13:08:50Z</time>
      </trkpt>
      <trkpt lat="43.0826" lon="-0.39339">
        <ele>894.16</ele>
        <time>2015-10-24T13:08:55Z</time>
      </trkpt>
      <trkpt lat="43.08257" lon="-0.39352">
        <ele>895.12</ele>
        <time>2015-10-24T13:09:03Z</time>
      </trkpt>
      <trkpt lat="43.0825" lon="-0.3937">
        <ele>896.57</ele>
        <time>2015-10-24T13:09:15Z</time>
      </trkpt>
      <trkpt lat="43.08248" lon="-0.39374">
        <ele>895.61</ele>
        <time>2015-10-24T13:09:17Z</time>
      </trkpt>
      <trkpt lat="43.08243" lon="-0.39395">
        <ele>893.68</ele>
        <time>2015-10-24T13:09:27Z</time>
      </trkpt>
      <trkpt lat="43.08233" lon="-0.39432">
        <ele>893.2</ele>
        <time>2015-10-24T13:09:37Z</time>
      </trkpt>
      <trkpt lat="43.08231" lon="-0.39437">
        <ele>892.72</ele>
        <time>2015-10-24T13:09:38Z</time>
      </trkpt>
      <trkpt lat="43.08229" lon="-0.39443">
        <ele>892.24</ele>
        <time>2015-10-24T13:09:39Z</time>
      </trkpt>
      <trkpt lat="43.08228" lon="-0.39449">
        <ele>892.24</ele>
        <time>2015-10-24T13:09:40Z</time>
      </trkpt>
      <trkpt lat="43.08226" lon="-0.39456">
        <ele>891.76</ele>
        <time>2015-10-24T13:09:41Z</time>
      </trkpt>
      <trkpt lat="43.08224" lon="-0.39463">
        <ele>891.76</ele>
        <time>2015-10-24T13:09:42Z</time>
      </trkpt>
      <trkpt lat="43.08222" lon="-0.39471">
        <ele>891.28</ele>
        <time>2015-10-24T13:09:43Z</time>
      </trkpt>
      <trkpt lat="43.08219" lon="-0.39479">
        <ele>891.28</ele>
        <time>2015-10-24T13:09:44Z</time>
      </trkpt>
      <trkpt lat="43.08209" lon="-0.39518">
        <ele>888.4</ele>
        <time>2015-10-24T13:09:49Z</time>
      </trkpt>
      <trkpt lat="43.08206" lon="-0.39525">
        <ele>887.91</ele>
        <time>2015-10-24T13:09:50Z</time>
      </trkpt>
      <trkpt lat="43.08201" lon="-0.39539">
        <ele>886.95</ele>
        <time>2015-10-24T13:09:52Z</time>
      </trkpt>
      <trkpt lat="43.08198" lon="-0.39545">
        <ele>885.99</ele>
        <time>2015-10-24T13:09:53Z</time>
      </trkpt>
      <trkpt lat="43.08196" lon="-0.39551">
        <ele>885.51</ele>
        <time>2015-10-24T13:09:54Z</time>
      </trkpt>
      <trkpt lat="43.08193" lon="-0.39555">
        <ele>885.51</ele>
        <time>2015-10-24T13:09:55Z</time>
      </trkpt>
      <trkpt lat="43.08192" lon="-0.3956">
        <ele>885.03</ele>
        <time>2015-10-24T13:09:56Z</time>
      </trkpt>
      <trkpt lat="43.0819" lon="-0.39566">
        <ele>884.55</ele>
        <time>2015-10-24T13:09:57Z</time>
      </trkpt>
      <trkpt lat="43.08188" lon="-0.39572">
        <ele>884.07</ele>
        <time>2015-10-24T13:09:58Z</time>
      </trkpt>
      <trkpt lat="43.08186" lon="-0.39579">
        <ele>884.07</ele>
        <time>2015-10-24T13:09:59Z</time>
      </trkpt>
      <trkpt lat="43.08179" lon="-0.39608">
        <ele>882.15</ele>
        <time>2015-10-24T13:10:04Z</time>
      </trkpt>
      <trkpt lat="43.08176" lon="-0.3962">
        <ele>881.19</ele>
        <time>2015-10-24T13:10:06Z</time>
      </trkpt>
      <trkpt lat="43.08174" lon="-0.39625">
        <ele>880.71</ele>
        <time>2015-10-24T13:10:07Z</time>
      </trkpt>
      <trkpt lat="43.08174" lon="-0.39629">
        <ele>880.22</ele>
        <time>2015-10-24T13:10:08Z</time>
      </trkpt>
      <trkpt lat="43.08173" lon="-0.39633">
        <ele>879.74</ele>
        <time>2015-10-24T13:10:09Z</time>
      </trkpt>
      <trkpt lat="43.08172" lon="-0.39637">
        <ele>879.74</ele>
        <time>2015-10-24T13:10:10Z</time>
      </trkpt>
      <trkpt lat="43.08171" lon="-0.39642">
        <ele>878.78</ele>
        <time>2015-10-24T13:10:11Z</time>
      </trkpt>
      <trkpt lat="43.08169" lon="-0.39649">
        <ele>875.42</ele>
        <time>2015-10-24T13:10:16Z</time>
      </trkpt>
      <trkpt lat="43.08169" lon="-0.39651">
        <ele>874.46</ele>
        <time>2015-10-24T13:10:17Z</time>
      </trkpt>
      <trkpt lat="43.08171" lon="-0.39685">
        <ele>869.17</ele>
        <time>2015-10-24T13:10:24Z</time>
      </trkpt>
      <trkpt lat="43.08172" lon="-0.39691">
        <ele>868.21</ele>
        <time>2015-10-24T13:10:25Z</time>
      </trkpt>
      <trkpt lat="43.08172" lon="-0.39703">
        <ele>867.25</ele>
        <time>2015-10-24T13:10:27Z</time>
      </trkpt>
      <trkpt lat="43.08171" lon="-0.39707">
        <ele>866.77</ele>
        <time>2015-10-24T13:10:28Z</time>
      </trkpt>
      <trkpt lat="43.08168" lon="-0.39719">
        <ele>867.73</ele>
        <time>2015-10-24T13:10:32Z</time>
      </trkpt>
      <trkpt lat="43.08168" lon="-0.39721">
        <ele>868.21</ele>
        <time>2015-10-24T13:10:33Z</time>
      </trkpt>
      <trkpt lat="43.08167" lon="-0.39724">
        <ele>868.69</ele>
        <time>2015-10-24T13:10:34Z</time>
      </trkpt>
      <trkpt lat="43.08167" lon="-0.39726">
        <ele>869.17</ele>
        <time>2015-10-24T13:10:35Z</time>
      </trkpt>
      <trkpt lat="43.08167" lon="-0.39729">
        <ele>869.65</ele>
        <time>2015-10-24T13:10:36Z</time>
      </trkpt>
      <trkpt lat="43.08167" lon="-0.39732">
        <ele>870.13</ele>
        <time>2015-10-24T13:10:37Z</time>
      </trkpt>
      <trkpt lat="43.08167" lon="-0.39735">
        <ele>870.61</ele>
        <time>2015-10-24T13:10:38Z</time>
      </trkpt>
      <trkpt lat="43.08168" lon="-0.39738">
        <ele>871.09</ele>
        <time>2015-10-24T13:10:39Z</time>
      </trkpt>
      <trkpt lat="43.08169" lon="-0.3974">
        <ele>871.57</ele>
        <time>2015-10-24T13:10:40Z</time>
      </trkpt>
      <trkpt lat="43.08169" lon="-0.39742">
        <ele>872.05</ele>
        <time>2015-10-24T13:10:41Z</time>
      </trkpt>
      <trkpt lat="43.08169" lon="-0.39744">
        <ele>872.05</ele>
        <time>2015-10-24T13:10:53Z</time>
      </trkpt>
      <trkpt lat="43.08169" lon="-0.39745">
        <ele>874.94</ele>
        <time>2015-10-24T13:11:07Z</time>
      </trkpt>
      <trkpt lat="43.08169" lon="-0.39747">
        <ele>873.98</ele>
        <time>2015-10-24T13:11:21Z</time>
      </trkpt>
      <trkpt lat="43.08171" lon="-0.39748">
        <ele>874.46</ele>
        <time>2015-10-24T13:11:40Z</time>
      </trkpt>
      <trkpt lat="43.08174" lon="-0.39777">
        <ele>872.05</ele>
        <time>2015-10-24T13:11:49Z</time>
      </trkpt>
      <trkpt lat="43.08174" lon="-0.39783">
        <ele>871.09</ele>
        <time>2015-10-24T13:11:51Z</time>
      </trkpt>
      <trkpt lat="43.08175" lon="-0.39787">
        <ele>870.61</ele>
        <time>2015-10-24T13:11:52Z</time>
      </trkpt>
      <trkpt lat="43.08176" lon="-0.3979">
        <ele>870.13</ele>
        <time>2015-10-24T13:11:53Z</time>
      </trkpt>
      <trkpt lat="43.08176" lon="-0.39813">
        <ele>868.69</ele>
        <time>2015-10-24T13:12:02Z</time>
      </trkpt>
      <trkpt lat="43.08175" lon="-0.39812">
        <ele>867.73</ele>
        <time>2015-10-24T13:12:22Z</time>
      </trkpt>
      <trkpt lat="43.08174" lon="-0.39813">
        <ele>865.8</ele>
        <time>2015-10-24T13:12:39Z</time>
      </trkpt>
      <trkpt lat="43.08174" lon="-0.39812">
        <ele>865.32</ele>
        <time>2015-10-24T13:12:47Z</time>
      </trkpt>
      <trkpt lat="43.08175" lon="-0.39814">
        <ele>863.88</ele>
        <time>2015-10-24T13:12:58Z</time>
      </trkpt>
      <trkpt lat="43.08175" lon="-0.39814">
        <ele>863.88</ele>
        <time>2015-10-24T13:13:10Z</time>
      </trkpt>
      <trkpt lat="43.08173" lon="-0.39813">
        <ele>863.4</ele>
        <time>2015-10-24T13:13:20Z</time>
      </trkpt>
      <trkpt lat="43.08173" lon="-0.39815">
        <ele>864.84</ele>
        <time>2015-10-24T13:13:35Z</time>
      </trkpt>
      <trkpt lat="43.08173" lon="-0.39818">
        <ele>864.36</ele>
        <time>2015-10-24T13:13:36Z</time>
      </trkpt>
      <trkpt lat="43.08173" lon="-0.39821">
        <ele>863.88</ele>
        <time>2015-10-24T13:13:37Z</time>
      </trkpt>
      <trkpt lat="43.08173" lon="-0.39824">
        <ele>862.92</ele>
        <time>2015-10-24T13:13:38Z</time>
      </trkpt>
      <trkpt lat="43.08174" lon="-0.39827">
        <ele>861.96</ele>
        <time>2015-10-24T13:13:39Z</time>
      </trkpt>
      <trkpt lat="43.08174" lon="-0.3983">
        <ele>861</ele>
        <time>2015-10-24T13:13:40Z</time>
      </trkpt>
      <trkpt lat="43.08173" lon="-0.39834">
        <ele>860.04</ele>
        <time>2015-10-24T13:13:41Z</time>
      </trkpt>
      <trkpt lat="43.08172" lon="-0.39845">
        <ele>857.63</ele>
        <time>2015-10-24T13:13:43Z</time>
      </trkpt>
      <trkpt lat="43.08173" lon="-0.39852">
        <ele>856.67</ele>
        <time>2015-10-24T13:13:44Z</time>
      </trkpt>
      <trkpt lat="43.08172" lon="-0.39859">
        <ele>855.71</ele>
        <time>2015-10-24T13:13:45Z</time>
      </trkpt>
      <trkpt lat="43.08171" lon="-0.39864">
        <ele>854.75</ele>
        <time>2015-10-24T13:13:46Z</time>
      </trkpt>
      <trkpt lat="43.0817" lon="-0.39869">
        <ele>853.31</ele>
        <time>2015-10-24T13:13:47Z</time>
      </trkpt>
      <trkpt lat="43.08166" lon="-0.39898">
        <ele>847.54</ele>
        <time>2015-10-24T13:13:53Z</time>
      </trkpt>
      <trkpt lat="43.08164" lon="-0.39902">
        <ele>847.06</ele>
        <time>2015-10-24T13:13:54Z</time>
      </trkpt>
      <trkpt lat="43.08161" lon="-0.39938">
        <ele>838.41</ele>
        <time>2015-10-24T13:14:03Z</time>
      </trkpt>
      <trkpt lat="43.0816" lon="-0.3994">
        <ele>837.45</ele>
        <time>2015-10-24T13:14:04Z</time>
      </trkpt>
      <trkpt lat="43.0815" lon="-0.39971">
        <ele>835.04</ele>
        <time>2015-10-24T13:14:16Z</time>
      </trkpt>
      <trkpt lat="43.0815" lon="-0.39975">
        <ele>835.04</ele>
        <time>2015-10-24T13:14:18Z</time>
      </trkpt>
      <trkpt lat="43.08148" lon="-0.39977">
        <ele>835.04</ele>
        <time>2015-10-24T13:14:20Z</time>
      </trkpt>
      <trkpt lat="43.08146" lon="-0.39979">
        <ele>835.52</ele>
        <time>2015-10-24T13:14:21Z</time>
      </trkpt>
      <trkpt lat="43.08145" lon="-0.39982">
        <ele>835.52</ele>
        <time>2015-10-24T13:14:22Z</time>
      </trkpt>
      <trkpt lat="43.08143" lon="-0.39985">
        <ele>835.52</ele>
        <time>2015-10-24T13:14:23Z</time>
      </trkpt>
      <trkpt lat="43.08142" lon="-0.3999">
        <ele>835.52</ele>
        <time>2015-10-24T13:14:24Z</time>
      </trkpt>
      <trkpt lat="43.08142" lon="-0.39996">
        <ele>835.52</ele>
        <time>2015-10-24T13:14:25Z</time>
      </trkpt>
      <trkpt lat="43.0814" lon="-0.40018">
        <ele>835.04</ele>
        <time>2015-10-24T13:14:29Z</time>
      </trkpt>
      <trkpt lat="43.08141" lon="-0.40024">
        <ele>835.04</ele>
        <time>2015-10-24T13:14:30Z</time>
      </trkpt>
      <trkpt lat="43.08142" lon="-0.40032">
        <ele>835.04</ele>
        <time>2015-10-24T13:14:31Z</time>
      </trkpt>
      <trkpt lat="43.08143" lon="-0.4004">
        <ele>834.56</ele>
        <time>2015-10-24T13:14:32Z</time>
      </trkpt>
      <trkpt lat="43.08143" lon="-0.40048">
        <ele>834.56</ele>
        <time>2015-10-24T13:14:33Z</time>
      </trkpt>
      <trkpt lat="43.08147" lon="-0.40078">
        <ele>833.12</ele>
        <time>2015-10-24T13:14:37Z</time>
      </trkpt>
      <trkpt lat="43.08149" lon="-0.40092">
        <ele>833.12</ele>
        <time>2015-10-24T13:14:39Z</time>
      </trkpt>
      <trkpt lat="43.08154" lon="-0.40122">
        <ele>833.6</ele>
        <time>2015-10-24T13:14:43Z</time>
      </trkpt>
      <trkpt lat="43.08157" lon="-0.40129">
        <ele>834.08</ele>
        <time>2015-10-24T13:14:44Z</time>
      </trkpt>
      <trkpt lat="43.08162" lon="-0.40143">
        <ele>834.08</ele>
        <time>2015-10-24T13:14:46Z</time>
      </trkpt>
      <trkpt lat="43.08167" lon="-0.40164">
        <ele>834.08</ele>
        <time>2015-10-24T13:14:50Z</time>
      </trkpt>
      <trkpt lat="43.08176" lon="-0.40157">
        <ele>833.6</ele>
        <time>2015-10-24T13:14:54Z</time>
      </trkpt>
      <trkpt lat="43.08183" lon="-0.40156">
        <ele>830.24</ele>
        <time>2015-10-24T13:15:01Z</time>
      </trkpt>
      <trkpt lat="43.08205" lon="-0.40209">
        <ele>821.58</ele>
        <time>2015-10-24T13:15:11Z</time>
      </trkpt>
      <trkpt lat="43.08205" lon="-0.40213">
        <ele>821.1</ele>
        <time>2015-10-24T13:15:12Z</time>
      </trkpt>
      <trkpt lat="43.08217" lon="-0.40216">
        <ele>816.78</ele>
        <time>2015-10-24T13:15:19Z</time>
      </trkpt>
      <trkpt lat="43.0822" lon="-0.40236">
        <ele>812.93</ele>
        <time>2015-10-24T13:15:25Z</time>
      </trkpt>
      <trkpt lat="43.0824" lon="-0.40234">
        <ele>808.61</ele>
        <time>2015-10-24T13:15:33Z</time>
      </trkpt>
      <trkpt lat="43.08247" lon="-0.40249">
        <ele>807.64</ele>
        <time>2015-10-24T13:15:40Z</time>
      </trkpt>
      <trkpt lat="43.08243" lon="-0.40264">
        <ele>807.16</ele>
        <time>2015-10-24T13:15:44Z</time>
      </trkpt>
      <trkpt lat="43.08244" lon="-0.40267">
        <ele>806.68</ele>
        <time>2015-10-24T13:15:47Z</time>
      </trkpt>
      <trkpt lat="43.08247" lon="-0.40278">
        <ele>805.72</ele>
        <time>2015-10-24T13:15:51Z</time>
      </trkpt>
      <trkpt lat="43.08242" lon="-0.40291">
        <ele>804.76</ele>
        <time>2015-10-24T13:15:54Z</time>
      </trkpt>
      <trkpt lat="43.0821" lon="-0.40327">
        <ele>798.99</ele>
        <time>2015-10-24T13:16:02Z</time>
      </trkpt>
      <trkpt lat="43.08186" lon="-0.40347">
        <ele>790.82</ele>
        <time>2015-10-24T13:16:12Z</time>
      </trkpt>
      <trkpt lat="43.08181" lon="-0.40349">
        <ele>789.38</ele>
        <time>2015-10-24T13:16:14Z</time>
      </trkpt>
      <trkpt lat="43.0817" lon="-0.4035">
        <ele>784.57</ele>
        <time>2015-10-24T13:16:21Z</time>
      </trkpt>
      <trkpt lat="43.08174" lon="-0.40357">
        <ele>782.65</ele>
        <time>2015-10-24T13:16:25Z</time>
      </trkpt>
      <trkpt lat="43.08174" lon="-0.40363">
        <ele>779.77</ele>
        <time>2015-10-24T13:16:36Z</time>
      </trkpt>
      <trkpt lat="43.08179" lon="-0.40367">
        <ele>778.32</ele>
        <time>2015-10-24T13:16:51Z</time>
      </trkpt>
      <trkpt lat="43.08186" lon="-0.40373">
        <ele>775.92</ele>
        <time>2015-10-24T13:16:56Z</time>
      </trkpt>
      <trkpt lat="43.08185" lon="-0.40376">
        <ele>774.48</ele>
        <time>2015-10-24T13:16:59Z</time>
      </trkpt>
      <trkpt lat="43.08181" lon="-0.40378">
        <ele>773.04</ele>
        <time>2015-10-24T13:17:02Z</time>
      </trkpt>
      <trkpt lat="43.08178" lon="-0.4038">
        <ele>772.56</ele>
        <time>2015-10-24T13:17:05Z</time>
      </trkpt>
      <trkpt lat="43.08193" lon="-0.40392">
        <ele>771.6</ele>
        <time>2015-10-24T13:17:14Z</time>
      </trkpt>
      <trkpt lat="43.08218" lon="-0.40414">
        <ele>765.83</ele>
        <time>2015-10-24T13:17:24Z</time>
      </trkpt>
      <trkpt lat="43.08209" lon="-0.40423">
        <ele>759.58</ele>
        <time>2015-10-24T13:17:30Z</time>
      </trkpt>
      <trkpt lat="43.08202" lon="-0.40426">
        <ele>757.66</ele>
        <time>2015-10-24T13:17:32Z</time>
      </trkpt>
      <trkpt lat="43.08195" lon="-0.40428">
        <ele>754.77</ele>
        <time>2015-10-24T13:17:38Z</time>
      </trkpt>
      <trkpt lat="43.08209" lon="-0.40438">
        <ele>752.37</ele>
        <time>2015-10-24T13:17:45Z</time>
      </trkpt>
      <trkpt lat="43.08212" lon="-0.40444">
        <ele>750.93</ele>
        <time>2015-10-24T13:17:51Z</time>
      </trkpt>
      <trkpt lat="43.08208" lon="-0.40446">
        <ele>749.49</ele>
        <time>2015-10-24T13:17:53Z</time>
      </trkpt>
      <trkpt lat="43.08192" lon="-0.40453">
        <ele>748.04</ele>
        <time>2015-10-24T13:17:58Z</time>
      </trkpt>
      <trkpt lat="43.08188" lon="-0.40454">
        <ele>747.56</ele>
        <time>2015-10-24T13:18:00Z</time>
      </trkpt>
      <trkpt lat="43.08192" lon="-0.40463">
        <ele>744.68</ele>
        <time>2015-10-24T13:18:07Z</time>
      </trkpt>
      <trkpt lat="43.08207" lon="-0.40479">
        <ele>740.35</ele>
        <time>2015-10-24T13:18:16Z</time>
      </trkpt>
      <trkpt lat="43.08192" lon="-0.40489">
        <ele>734.1</ele>
        <time>2015-10-24T13:18:24Z</time>
      </trkpt>
      <trkpt lat="43.08191" lon="-0.40489">
        <ele>733.62</ele>
        <time>2015-10-24T13:18:25Z</time>
      </trkpt>
      <trkpt lat="43.0821" lon="-0.40509">
        <ele>731.7</ele>
        <time>2015-10-24T13:18:32Z</time>
      </trkpt>
      <trkpt lat="43.08215" lon="-0.40511">
        <ele>731.7</ele>
        <time>2015-10-24T13:18:33Z</time>
      </trkpt>
      <trkpt lat="43.08229" lon="-0.40519">
        <ele>730.74</ele>
        <time>2015-10-24T13:18:38Z</time>
      </trkpt>
      <trkpt lat="43.08222" lon="-0.40525">
        <ele>729.78</ele>
        <time>2015-10-24T13:18:43Z</time>
      </trkpt>
      <trkpt lat="43.08211" lon="-0.40529">
        <ele>728.34</ele>
        <time>2015-10-24T13:18:48Z</time>
      </trkpt>
      <trkpt lat="43.08217" lon="-0.40537">
        <ele>723.53</ele>
        <time>2015-10-24T13:18:56Z</time>
      </trkpt>
      <trkpt lat="43.08216" lon="-0.40538">
        <ele>721.13</ele>
        <time>2015-10-24T13:18:59Z</time>
      </trkpt>
      <trkpt lat="43.08203" lon="-0.40546">
        <ele>719.2</ele>
        <time>2015-10-24T13:19:04Z</time>
      </trkpt>
      <trkpt lat="43.08199" lon="-0.40552">
        <ele>718.24</ele>
        <time>2015-10-24T13:19:08Z</time>
      </trkpt>
      <trkpt lat="43.08211" lon="-0.4057">
        <ele>708.15</ele>
        <time>2015-10-24T13:19:17Z</time>
      </trkpt>
      <trkpt lat="43.08211" lon="-0.40573">
        <ele>706.71</ele>
        <time>2015-10-24T13:19:19Z</time>
      </trkpt>
      <trkpt lat="43.08203" lon="-0.40576">
        <ele>702.86</ele>
        <time>2015-10-24T13:19:23Z</time>
      </trkpt>
      <trkpt lat="43.08189" lon="-0.40583">
        <ele>700.46</ele>
        <time>2015-10-24T13:19:27Z</time>
      </trkpt>
      <trkpt lat="43.08177" lon="-0.40586">
        <ele>698.05</ele>
        <time>2015-10-24T13:19:32Z</time>
      </trkpt>
      <trkpt lat="43.08185" lon="-0.40597">
        <ele>693.25</ele>
        <time>2015-10-24T13:19:37Z</time>
      </trkpt>
      <trkpt lat="43.08198" lon="-0.40611">
        <ele>689.4</ele>
        <time>2015-10-24T13:19:42Z</time>
      </trkpt>
      <trkpt lat="43.08218" lon="-0.40629">
        <ele>682.19</ele>
        <time>2015-10-24T13:19:50Z</time>
      </trkpt>
      <trkpt lat="43.08221" lon="-0.40637">
        <ele>677.39</ele>
        <time>2015-10-24T13:19:57Z</time>
      </trkpt>
      <trkpt lat="43.08206" lon="-0.40644">
        <ele>674.5</ele>
        <time>2015-10-24T13:20:04Z</time>
      </trkpt>
      <trkpt lat="43.08186" lon="-0.40659">
        <ele>669.7</ele>
        <time>2015-10-24T13:20:16Z</time>
      </trkpt>
      <trkpt lat="43.08166" lon="-0.40664">
        <ele>668.73</ele>
        <time>2015-10-24T13:20:24Z</time>
      </trkpt>
      <trkpt lat="43.08184" lon="-0.40685">
        <ele>666.81</ele>
        <time>2015-10-24T13:20:32Z</time>
      </trkpt>
      <trkpt lat="43.082" lon="-0.40699">
        <ele>665.37</ele>
        <time>2015-10-24T13:20:38Z</time>
      </trkpt>
      <trkpt lat="43.08187" lon="-0.40705">
        <ele>661.04</ele>
        <time>2015-10-24T13:20:46Z</time>
      </trkpt>
      <trkpt lat="43.08182" lon="-0.40707">
        <ele>659.6</ele>
        <time>2015-10-24T13:20:49Z</time>
      </trkpt>
      <trkpt lat="43.08181" lon="-0.40708">
        <ele>659.12</ele>
        <time>2015-10-24T13:20:51Z</time>
      </trkpt>
      <trkpt lat="43.08194" lon="-0.40725">
        <ele>652.39</ele>
        <time>2015-10-24T13:21:02Z</time>
      </trkpt>
      <trkpt lat="43.08218" lon="-0.40754">
        <ele>648.55</ele>
        <time>2015-10-24T13:21:12Z</time>
      </trkpt>
      <trkpt lat="43.08224" lon="-0.40772">
        <ele>642.78</ele>
        <time>2015-10-24T13:21:20Z</time>
      </trkpt>
      <trkpt lat="43.08224" lon="-0.40774">
        <ele>642.78</ele>
        <time>2015-10-24T13:21:22Z</time>
      </trkpt>
      <trkpt lat="43.0822" lon="-0.40774">
        <ele>642.3</ele>
        <time>2015-10-24T13:21:24Z</time>
      </trkpt>
      <trkpt lat="43.08217" lon="-0.40773">
        <ele>642.3</ele>
        <time>2015-10-24T13:21:25Z</time>
      </trkpt>
      <trkpt lat="43.08204" lon="-0.4077">
        <ele>641.82</ele>
        <time>2015-10-24T13:21:28Z</time>
      </trkpt>
      <trkpt lat="43.08199" lon="-0.4077">
        <ele>641.82</ele>
        <time>2015-10-24T13:21:29Z</time>
      </trkpt>
      <trkpt lat="43.08195" lon="-0.4077">
        <ele>641.82</ele>
        <time>2015-10-24T13:21:30Z</time>
      </trkpt>
      <trkpt lat="43.08185" lon="-0.40776">
        <ele>639.41</ele>
        <time>2015-10-24T13:21:37Z</time>
      </trkpt>
      <trkpt lat="43.08176" lon="-0.40794">
        <ele>638.93</ele>
        <time>2015-10-24T13:21:44Z</time>
      </trkpt>
      <trkpt lat="43.08179" lon="-0.40806">
        <ele>638.93</ele>
        <time>2015-10-24T13:21:47Z</time>
      </trkpt>
      <trkpt lat="43.08179" lon="-0.40813">
        <ele>639.41</ele>
        <time>2015-10-24T13:21:48Z</time>
      </trkpt>
      <trkpt lat="43.08179" lon="-0.40819">
        <ele>639.41</ele>
        <time>2015-10-24T13:21:49Z</time>
      </trkpt>
      <trkpt lat="43.08177" lon="-0.40825">
        <ele>639.41</ele>
        <time>2015-10-24T13:21:50Z</time>
      </trkpt>
      <trkpt lat="43.08174" lon="-0.40831">
        <ele>639.41</ele>
        <time>2015-10-24T13:21:51Z</time>
      </trkpt>
      <trkpt lat="43.08171" lon="-0.40837">
        <ele>639.41</ele>
        <time>2015-10-24T13:21:52Z</time>
      </trkpt>
      <trkpt lat="43.08165" lon="-0.40858">
        <ele>634.13</ele>
        <time>2015-10-24T13:21:57Z</time>
      </trkpt>
      <trkpt lat="43.08166" lon="-0.4086">
        <ele>633.17</ele>
        <time>2015-10-24T13:21:58Z</time>
      </trkpt>
      <trkpt lat="43.08168" lon="-0.40862">
        <ele>632.2</ele>
        <time>2015-10-24T13:21:59Z</time>
      </trkpt>
      <trkpt lat="43.08171" lon="-0.40862">
        <ele>631.72</ele>
        <time>2015-10-24T13:22:00Z</time>
      </trkpt>
      <trkpt lat="43.08174" lon="-0.40864">
        <ele>630.76</ele>
        <time>2015-10-24T13:22:01Z</time>
      </trkpt>
      <trkpt lat="43.08178" lon="-0.40868">
        <ele>629.32</ele>
        <time>2015-10-24T13:22:02Z</time>
      </trkpt>
      <trkpt lat="43.08196" lon="-0.40886">
        <ele>617.78</ele>
        <time>2015-10-24T13:22:08Z</time>
      </trkpt>
      <trkpt lat="43.08206" lon="-0.40905">
        <ele>601.44</ele>
        <time>2015-10-24T13:22:16Z</time>
      </trkpt>
      <trkpt lat="43.08215" lon="-0.40905">
        <ele>595.19</ele>
        <time>2015-10-24T13:22:20Z</time>
      </trkpt>
      <trkpt lat="43.08213" lon="-0.4091">
        <ele>592.79</ele>
        <time>2015-10-24T13:22:22Z</time>
      </trkpt>
      <trkpt lat="43.0822" lon="-0.40919">
        <ele>587.02</ele>
        <time>2015-10-24T13:22:26Z</time>
      </trkpt>
      <trkpt lat="43.08225" lon="-0.40925">
        <ele>584.14</ele>
        <time>2015-10-24T13:22:28Z</time>
      </trkpt>
      <trkpt lat="43.08229" lon="-0.40941">
        <ele>580.77</ele>
        <time>2015-10-24T13:22:31Z</time>
      </trkpt>
      <trkpt lat="43.08229" lon="-0.40948">
        <ele>579.33</ele>
        <time>2015-10-24T13:22:32Z</time>
      </trkpt>
      <trkpt lat="43.08228" lon="-0.40963">
        <ele>576.45</ele>
        <time>2015-10-24T13:22:34Z</time>
      </trkpt>
      <trkpt lat="43.08226" lon="-0.4097">
        <ele>575.01</ele>
        <time>2015-10-24T13:22:35Z</time>
      </trkpt>
      <trkpt lat="43.08222" lon="-0.40982">
        <ele>571.16</ele>
        <time>2015-10-24T13:22:38Z</time>
      </trkpt>
      <trkpt lat="43.08224" lon="-0.40984">
        <ele>569.72</ele>
        <time>2015-10-24T13:22:39Z</time>
      </trkpt>
      <trkpt lat="43.08226" lon="-0.40986">
        <ele>568.28</ele>
        <time>2015-10-24T13:22:40Z</time>
      </trkpt>
      <trkpt lat="43.08228" lon="-0.40988">
        <ele>566.83</ele>
        <time>2015-10-24T13:22:41Z</time>
      </trkpt>
      <trkpt lat="43.0823" lon="-0.40991">
        <ele>565.39</ele>
        <time>2015-10-24T13:22:42Z</time>
      </trkpt>
      <trkpt lat="43.08229" lon="-0.40995">
        <ele>564.43</ele>
        <time>2015-10-24T13:22:43Z</time>
      </trkpt>
      <trkpt lat="43.08229" lon="-0.40999">
        <ele>562.99</ele>
        <time>2015-10-24T13:22:44Z</time>
      </trkpt>
      <trkpt lat="43.08225" lon="-0.41019">
        <ele>557.22</ele>
        <time>2015-10-24T13:22:50Z</time>
      </trkpt>
      <trkpt lat="43.08226" lon="-0.41025">
        <ele>556.26</ele>
        <time>2015-10-24T13:22:51Z</time>
      </trkpt>
      <trkpt lat="43.08227" lon="-0.41032">
        <ele>554.34</ele>
        <time>2015-10-24T13:22:52Z</time>
      </trkpt>
      <trkpt lat="43.08228" lon="-0.41039">
        <ele>552.9</ele>
        <time>2015-10-24T13:22:53Z</time>
      </trkpt>
      <trkpt lat="43.0823" lon="-0.41044">
        <ele>550.49</ele>
        <time>2015-10-24T13:22:54Z</time>
      </trkpt>
      <trkpt lat="43.08233" lon="-0.41049">
        <ele>549.05</ele>
        <time>2015-10-24T13:22:55Z</time>
      </trkpt>
      <trkpt lat="43.08236" lon="-0.41065">
        <ele>544.72</ele>
        <time>2015-10-24T13:22:58Z</time>
      </trkpt>
      <trkpt lat="43.08236" lon="-0.41071">
        <ele>543.76</ele>
        <time>2015-10-24T13:22:59Z</time>
      </trkpt>
      <trkpt lat="43.08234" lon="-0.41078">
        <ele>542.8</ele>
        <time>2015-10-24T13:23:00Z</time>
      </trkpt>
      <trkpt lat="43.08232" lon="-0.41084">
        <ele>541.36</ele>
        <time>2015-10-24T13:23:01Z</time>
      </trkpt>
      <trkpt lat="43.08229" lon="-0.41089">
        <ele>540.4</ele>
        <time>2015-10-24T13:23:02Z</time>
      </trkpt>
      <trkpt lat="43.08226" lon="-0.41093">
        <ele>538.96</ele>
        <time>2015-10-24T13:23:03Z</time>
      </trkpt>
      <trkpt lat="43.08223" lon="-0.41096">
        <ele>537.99</ele>
        <time>2015-10-24T13:23:04Z</time>
      </trkpt>
      <trkpt lat="43.08221" lon="-0.41098">
        <ele>536.55</ele>
        <time>2015-10-24T13:23:05Z</time>
      </trkpt>
      <trkpt lat="43.08221" lon="-0.41101">
        <ele>535.59</ele>
        <time>2015-10-24T13:23:06Z</time>
      </trkpt>
      <trkpt lat="43.08222" lon="-0.41105">
        <ele>534.15</ele>
        <time>2015-10-24T13:23:07Z</time>
      </trkpt>
      <trkpt lat="43.08223" lon="-0.41109">
        <ele>532.71</ele>
        <time>2015-10-24T13:23:08Z</time>
      </trkpt>
      <trkpt lat="43.08227" lon="-0.41113">
        <ele>531.27</ele>
        <time>2015-10-24T13:23:09Z</time>
      </trkpt>
      <trkpt lat="43.08231" lon="-0.41116">
        <ele>530.3</ele>
        <time>2015-10-24T13:23:10Z</time>
      </trkpt>
      <trkpt lat="43.08236" lon="-0.41118">
        <ele>528.86</ele>
        <time>2015-10-24T13:23:11Z</time>
      </trkpt>
      <trkpt lat="43.08241" lon="-0.41118">
        <ele>528.38</ele>
        <time>2015-10-24T13:23:12Z</time>
      </trkpt>
      <trkpt lat="43.08246" lon="-0.41118">
        <ele>527.42</ele>
        <time>2015-10-24T13:23:13Z</time>
      </trkpt>
      <trkpt lat="43.0825" lon="-0.41118">
        <ele>526.94</ele>
        <time>2015-10-24T13:23:14Z</time>
      </trkpt>
      <trkpt lat="43.08254" lon="-0.4112">
        <ele>525.98</ele>
        <time>2015-10-24T13:23:15Z</time>
      </trkpt>
      <trkpt lat="43.08257" lon="-0.41124">
        <ele>525.02</ele>
        <time>2015-10-24T13:23:16Z</time>
      </trkpt>
      <trkpt lat="43.08259" lon="-0.41129">
        <ele>524.54</ele>
        <time>2015-10-24T13:23:17Z</time>
      </trkpt>
      <trkpt lat="43.08262" lon="-0.41139">
        <ele>523.09</ele>
        <time>2015-10-24T13:23:19Z</time>
      </trkpt>
      <trkpt lat="43.08261" lon="-0.41146">
        <ele>522.13</ele>
        <time>2015-10-24T13:23:20Z</time>
      </trkpt>
      <trkpt lat="43.08258" lon="-0.41153">
        <ele>521.65</ele>
        <time>2015-10-24T13:23:21Z</time>
      </trkpt>
      <trkpt lat="43.08254" lon="-0.4116">
        <ele>521.17</ele>
        <time>2015-10-24T13:23:22Z</time>
      </trkpt>
      <trkpt lat="43.08251" lon="-0.41165">
        <ele>520.69</ele>
        <time>2015-10-24T13:23:23Z</time>
      </trkpt>
      <trkpt lat="43.08248" lon="-0.41171">
        <ele>520.21</ele>
        <time>2015-10-24T13:23:24Z</time>
      </trkpt>
      <trkpt lat="43.08248" lon="-0.41176">
        <ele>519.25</ele>
        <time>2015-10-24T13:23:25Z</time>
      </trkpt>
      <trkpt lat="43.0825" lon="-0.4118">
        <ele>518.77</ele>
        <time>2015-10-24T13:23:26Z</time>
      </trkpt>
      <trkpt lat="43.08253" lon="-0.41183">
        <ele>518.29</ele>
        <time>2015-10-24T13:23:27Z</time>
      </trkpt>
      <trkpt lat="43.08258" lon="-0.41185">
        <ele>517.33</ele>
        <time>2015-10-24T13:23:28Z</time>
      </trkpt>
      <trkpt lat="43.08263" lon="-0.41186">
        <ele>516.37</ele>
        <time>2015-10-24T13:23:29Z</time>
      </trkpt>
      <trkpt lat="43.08268" lon="-0.41187">
        <ele>515.88</ele>
        <time>2015-10-24T13:23:30Z</time>
      </trkpt>
      <trkpt lat="43.08272" lon="-0.41188">
        <ele>514.92</ele>
        <time>2015-10-24T13:23:31Z</time>
      </trkpt>
      <trkpt lat="43.08275" lon="-0.4119">
        <ele>513.96</ele>
        <time>2015-10-24T13:23:32Z</time>
      </trkpt>
      <trkpt lat="43.08277" lon="-0.41194">
        <ele>512.52</ele>
        <time>2015-10-24T13:23:33Z</time>
      </trkpt>
      <trkpt lat="43.08277" lon="-0.412">
        <ele>511.56</ele>
        <time>2015-10-24T13:23:34Z</time>
      </trkpt>
      <trkpt lat="43.08276" lon="-0.41206">
        <ele>510.6</ele>
        <time>2015-10-24T13:23:35Z</time>
      </trkpt>
      <trkpt lat="43.08274" lon="-0.41267">
        <ele>501.46</ele>
        <time>2015-10-24T13:23:41Z</time>
      </trkpt>
      <trkpt lat="43.08276" lon="-0.41279">
        <ele>500.02</ele>
        <time>2015-10-24T13:23:42Z</time>
      </trkpt>
      <trkpt lat="43.0828" lon="-0.41301">
        <ele>496.66</ele>
        <time>2015-10-24T13:23:44Z</time>
      </trkpt>
      <trkpt lat="43.08283" lon="-0.41311">
        <ele>494.74</ele>
        <time>2015-10-24T13:23:45Z</time>
      </trkpt>
      <trkpt lat="43.08287" lon="-0.41319">
        <ele>492.81</ele>
        <time>2015-10-24T13:23:46Z</time>
      </trkpt>
      <trkpt lat="43.08289" lon="-0.41326">
        <ele>491.37</ele>
        <time>2015-10-24T13:23:47Z</time>
      </trkpt>
      <trkpt lat="43.0829" lon="-0.41333">
        <ele>489.93</ele>
        <time>2015-10-24T13:23:48Z</time>
      </trkpt>
      <trkpt lat="43.0829" lon="-0.41339">
        <ele>488.49</ele>
        <time>2015-10-24T13:23:49Z</time>
      </trkpt>
      <trkpt lat="43.08288" lon="-0.41345">
        <ele>487.05</ele>
        <time>2015-10-24T13:23:50Z</time>
      </trkpt>
      <trkpt lat="43.08285" lon="-0.41351">
        <ele>485.12</ele>
        <time>2015-10-24T13:23:51Z</time>
      </trkpt>
      <trkpt lat="43.08281" lon="-0.41353">
        <ele>483.68</ele>
        <time>2015-10-24T13:23:52Z</time>
      </trkpt>
      <trkpt lat="43.08278" lon="-0.41352">
        <ele>481.76</ele>
        <time>2015-10-24T13:23:53Z</time>
      </trkpt>
      <trkpt lat="43.08274" lon="-0.41348">
        <ele>480.8</ele>
        <time>2015-10-24T13:23:54Z</time>
      </trkpt>
      <trkpt lat="43.0827" lon="-0.41345">
        <ele>480.32</ele>
        <time>2015-10-24T13:23:55Z</time>
      </trkpt>
      <trkpt lat="43.08267" lon="-0.41344">
        <ele>479.35</ele>
        <time>2015-10-24T13:23:56Z</time>
      </trkpt>
      <trkpt lat="43.08262" lon="-0.41347">
        <ele>478.87</ele>
        <time>2015-10-24T13:23:57Z</time>
      </trkpt>
      <trkpt lat="43.08259" lon="-0.41352">
        <ele>478.39</ele>
        <time>2015-10-24T13:23:58Z</time>
      </trkpt>
      <trkpt lat="43.08257" lon="-0.41359">
        <ele>477.91</ele>
        <time>2015-10-24T13:23:59Z</time>
      </trkpt>
      <trkpt lat="43.08258" lon="-0.41366">
        <ele>477.43</ele>
        <time>2015-10-24T13:24:00Z</time>
      </trkpt>
      <trkpt lat="43.0826" lon="-0.41373">
        <ele>476.47</ele>
        <time>2015-10-24T13:24:01Z</time>
      </trkpt>
      <trkpt lat="43.08264" lon="-0.4138">
        <ele>475.99</ele>
        <time>2015-10-24T13:24:02Z</time>
      </trkpt>
      <trkpt lat="43.08276" lon="-0.41407">
        <ele>474.07</ele>
        <time>2015-10-24T13:24:05Z</time>
      </trkpt>
      <trkpt lat="43.08282" lon="-0.41416">
        <ele>473.59</ele>
        <time>2015-10-24T13:24:06Z</time>
      </trkpt>
      <trkpt lat="43.08288" lon="-0.41423">
        <ele>473.11</ele>
        <time>2015-10-24T13:24:07Z</time>
      </trkpt>
      <trkpt lat="43.08294" lon="-0.41429">
        <ele>472.14</ele>
        <time>2015-10-24T13:24:08Z</time>
      </trkpt>
      <trkpt lat="43.083" lon="-0.41435">
        <ele>471.66</ele>
        <time>2015-10-24T13:24:09Z</time>
      </trkpt>
      <trkpt lat="43.08305" lon="-0.4144">
        <ele>470.7</ele>
        <time>2015-10-24T13:24:10Z</time>
      </trkpt>
      <trkpt lat="43.08315" lon="-0.41453">
        <ele>468.78</ele>
        <time>2015-10-24T13:24:12Z</time>
      </trkpt>
      <trkpt lat="43.08321" lon="-0.41457">
        <ele>467.34</ele>
        <time>2015-10-24T13:24:13Z</time>
      </trkpt>
      <trkpt lat="43.08328" lon="-0.4146">
        <ele>466.38</ele>
        <time>2015-10-24T13:24:14Z</time>
      </trkpt>
      <trkpt lat="43.08335" lon="-0.41463">
        <ele>464.93</ele>
        <time>2015-10-24T13:24:15Z</time>
      </trkpt>
      <trkpt lat="43.08342" lon="-0.41467">
        <ele>464.45</ele>
        <time>2015-10-24T13:24:16Z</time>
      </trkpt>
      <trkpt lat="43.08349" lon="-0.41473">
        <ele>463.01</ele>
        <time>2015-10-24T13:24:17Z</time>
      </trkpt>
      <trkpt lat="43.08355" lon="-0.4148">
        <ele>462.53</ele>
        <time>2015-10-24T13:24:18Z</time>
      </trkpt>
      <trkpt lat="43.08368" lon="-0.41497">
        <ele>460.61</ele>
        <time>2015-10-24T13:24:20Z</time>
      </trkpt>
      <trkpt lat="43.08374" lon="-0.41508">
        <ele>459.65</ele>
        <time>2015-10-24T13:24:21Z</time>
      </trkpt>
      <trkpt lat="43.08378" lon="-0.41519">
        <ele>458.21</ele>
        <time>2015-10-24T13:24:22Z</time>
      </trkpt>
      <trkpt lat="43.08383" lon="-0.41529">
        <ele>456.76</ele>
        <time>2015-10-24T13:24:23Z</time>
      </trkpt>
      <trkpt lat="43.08387" lon="-0.41538">
        <ele>455.8</ele>
        <time>2015-10-24T13:24:24Z</time>
      </trkpt>
      <trkpt lat="43.08392" lon="-0.41547">
        <ele>454.36</ele>
        <time>2015-10-24T13:24:25Z</time>
      </trkpt>
      <trkpt lat="43.08396" lon="-0.41557">
        <ele>452.92</ele>
        <time>2015-10-24T13:24:26Z</time>
      </trkpt>
      <trkpt lat="43.08399" lon="-0.41567">
        <ele>451.48</ele>
        <time>2015-10-24T13:24:27Z</time>
      </trkpt>
      <trkpt lat="43.08403" lon="-0.41579">
        <ele>450.52</ele>
        <time>2015-10-24T13:24:28Z</time>
      </trkpt>
      <trkpt lat="43.08412" lon="-0.41603">
        <ele>447.63</ele>
        <time>2015-10-24T13:24:30Z</time>
      </trkpt>
      <trkpt lat="43.08417" lon="-0.41614">
        <ele>446.19</ele>
        <time>2015-10-24T13:24:31Z</time>
      </trkpt>
      <trkpt lat="43.08423" lon="-0.41623">
        <ele>444.75</ele>
        <time>2015-10-24T13:24:32Z</time>
      </trkpt>
      <trkpt lat="43.08431" lon="-0.41631">
        <ele>443.79</ele>
        <time>2015-10-24T13:24:33Z</time>
      </trkpt>
      <trkpt lat="43.08439" lon="-0.41638">
        <ele>442.34</ele>
        <time>2015-10-24T13:24:34Z</time>
      </trkpt>
      <trkpt lat="43.08484" lon="-0.41683">
        <ele>435.13</ele>
        <time>2015-10-24T13:24:42Z</time>
      </trkpt>
      <trkpt lat="43.08506" lon="-0.41706">
        <ele>432.73</ele>
        <time>2015-10-24T13:24:47Z</time>
      </trkpt>
      <trkpt lat="43.0851" lon="-0.41712">
        <ele>432.73</ele>
        <time>2015-10-24T13:24:48Z</time>
      </trkpt>
      <trkpt lat="43.08513" lon="-0.41719">
        <ele>432.73</ele>
        <time>2015-10-24T13:24:49Z</time>
      </trkpt>
      <trkpt lat="43.08514" lon="-0.41727">
        <ele>433.21</ele>
        <time>2015-10-24T13:24:50Z</time>
      </trkpt>
      <trkpt lat="43.08514" lon="-0.41734">
        <ele>434.17</ele>
        <time>2015-10-24T13:24:51Z</time>
      </trkpt>
      <trkpt lat="43.08513" lon="-0.41741">
        <ele>434.65</ele>
        <time>2015-10-24T13:24:52Z</time>
      </trkpt>
      <trkpt lat="43.08514" lon="-0.41772">
        <ele>434.65</ele>
        <time>2015-10-24T13:24:58Z</time>
      </trkpt>
      <trkpt lat="43.08517" lon="-0.41773">
        <ele>434.65</ele>
        <time>2015-10-24T13:24:59Z</time>
      </trkpt>
      <trkpt lat="43.08551" lon="-0.41792">
        <ele>432.73</ele>
        <time>2015-10-24T13:25:10Z</time>
      </trkpt>
      <trkpt lat="43.08554" lon="-0.41795">
        <ele>432.73</ele>
        <time>2015-10-24T13:25:11Z</time>
      </trkpt>
      <trkpt lat="43.08558" lon="-0.41798">
        <ele>432.73</ele>
        <time>2015-10-24T13:25:12Z</time>
      </trkpt>
      <trkpt lat="43.08561" lon="-0.418">
        <ele>433.21</ele>
        <time>2015-10-24T13:25:13Z</time>
      </trkpt>
      <trkpt lat="43.08565" lon="-0.41801">
        <ele>432.73</ele>
        <time>2015-10-24T13:25:14Z</time>
      </trkpt>
      <trkpt lat="43.0857" lon="-0.41803">
        <ele>432.73</ele>
        <time>2015-10-24T13:25:15Z</time>
      </trkpt>
      <trkpt lat="43.08579" lon="-0.41804">
        <ele>432.25</ele>
        <time>2015-10-24T13:25:17Z</time>
      </trkpt>
      <trkpt lat="43.08583" lon="-0.41804">
        <ele>432.25</ele>
        <time>2015-10-24T13:25:18Z</time>
      </trkpt>
      <trkpt lat="43.08598" lon="-0.41802">
        <ele>431.77</ele>
        <time>2015-10-24T13:25:21Z</time>
      </trkpt>
      <trkpt lat="43.08607" lon="-0.41799">
        <ele>431.29</ele>
        <time>2015-10-24T13:25:23Z</time>
      </trkpt>
      <trkpt lat="43.08616" lon="-0.41798">
        <ele>430.81</ele>
        <time>2015-10-24T13:25:25Z</time>
      </trkpt>
      <trkpt lat="43.0862" lon="-0.41798">
        <ele>430.81</ele>
        <time>2015-10-24T13:25:26Z</time>
      </trkpt>
      <trkpt lat="43.08648" lon="-0.41798">
        <ele>429.37</ele>
        <time>2015-10-24T13:25:34Z</time>
      </trkpt>
      <trkpt lat="43.08649" lon="-0.418">
        <ele>428.89</ele>
        <time>2015-10-24T13:25:35Z</time>
      </trkpt>
      <trkpt lat="43.08651" lon="-0.41803">
        <ele>428.89</ele>
        <time>2015-10-24T13:25:36Z</time>
      </trkpt>
      <trkpt lat="43.08652" lon="-0.41807">
        <ele>428.89</ele>
        <time>2015-10-24T13:25:37Z</time>
      </trkpt>
      <trkpt lat="43.08653" lon="-0.41812">
        <ele>428.4</ele>
        <time>2015-10-24T13:25:38Z</time>
      </trkpt>
      <trkpt lat="43.08653" lon="-0.41817">
        <ele>428.4</ele>
        <time>2015-10-24T13:25:39Z</time>
      </trkpt>
      <trkpt lat="43.08653" lon="-0.41822">
        <ele>428.4</ele>
        <time>2015-10-24T13:25:40Z</time>
      </trkpt>
      <trkpt lat="43.08652" lon="-0.41827">
        <ele>427.92</ele>
        <time>2015-10-24T13:25:41Z</time>
      </trkpt>
      <trkpt lat="43.0865" lon="-0.41843">
        <ele>427.92</ele>
        <time>2015-10-24T13:25:44Z</time>
      </trkpt>
      <trkpt lat="43.08646" lon="-0.41868">
        <ele>427.44</ele>
        <time>2015-10-24T13:25:48Z</time>
      </trkpt>
      <trkpt lat="43.08645" lon="-0.41881">
        <ele>426.48</ele>
        <time>2015-10-24T13:25:50Z</time>
      </trkpt>
      <trkpt lat="43.08644" lon="-0.41888">
        <ele>426.48</ele>
        <time>2015-10-24T13:25:51Z</time>
      </trkpt>
      <trkpt lat="43.08643" lon="-0.41895">
        <ele>426.48</ele>
        <time>2015-10-24T13:25:52Z</time>
      </trkpt>
      <trkpt lat="43.08642" lon="-0.41901">
        <ele>426.48</ele>
        <time>2015-10-24T13:25:53Z</time>
      </trkpt>
      <trkpt lat="43.08641" lon="-0.41907">
        <ele>426.48</ele>
        <time>2015-10-24T13:25:54Z</time>
      </trkpt>
      <trkpt lat="43.08641" lon="-0.41913">
        <ele>426.48</ele>
        <time>2015-10-24T13:25:55Z</time>
      </trkpt>
      <trkpt lat="43.08633" lon="-0.4196">
        <ele>424.56</ele>
        <time>2015-10-24T13:26:02Z</time>
      </trkpt>
      <trkpt lat="43.08631" lon="-0.41967">
        <ele>424.08</ele>
        <time>2015-10-24T13:26:03Z</time>
      </trkpt>
      <trkpt lat="43.0863" lon="-0.41974">
        <ele>423.6</ele>
        <time>2015-10-24T13:26:04Z</time>
      </trkpt>
      <trkpt lat="43.08623" lon="-0.42012">
        <ele>423.12</ele>
        <time>2015-10-24T13:26:09Z</time>
      </trkpt>
      <trkpt lat="43.08623" lon="-0.4202">
        <ele>422.64</ele>
        <time>2015-10-24T13:26:10Z</time>
      </trkpt>
      <trkpt lat="43.08623" lon="-0.42027">
        <ele>422.64</ele>
        <time>2015-10-24T13:26:11Z</time>
      </trkpt>
      <trkpt lat="43.08624" lon="-0.42034">
        <ele>422.64</ele>
        <time>2015-10-24T13:26:12Z</time>
      </trkpt>
      <trkpt lat="43.08625" lon="-0.42041">
        <ele>422.64</ele>
        <time>2015-10-24T13:26:13Z</time>
      </trkpt>
      <trkpt lat="43.08631" lon="-0.4207">
        <ele>423.12</ele>
        <time>2015-10-24T13:26:17Z</time>
      </trkpt>
      <trkpt lat="43.08632" lon="-0.42077">
        <ele>423.6</ele>
        <time>2015-10-24T13:26:18Z</time>
      </trkpt>
      <trkpt lat="43.08636" lon="-0.42115">
        <ele>425.52</ele>
        <time>2015-10-24T13:26:27Z</time>
      </trkpt>
      <trkpt lat="43.08635" lon="-0.4212">
        <ele>425.52</ele>
        <time>2015-10-24T13:26:28Z</time>
      </trkpt>
      <trkpt lat="43.08632" lon="-0.42123">
        <ele>425.52</ele>
        <time>2015-10-24T13:26:29Z</time>
      </trkpt>
      <trkpt lat="43.08629" lon="-0.42126">
        <ele>425.52</ele>
        <time>2015-10-24T13:26:30Z</time>
      </trkpt>
      <trkpt lat="43.08627" lon="-0.4213">
        <ele>425.52</ele>
        <time>2015-10-24T13:26:31Z</time>
      </trkpt>
      <trkpt lat="43.08626" lon="-0.42134">
        <ele>424.56</ele>
        <time>2015-10-24T13:26:32Z</time>
      </trkpt>
      <trkpt lat="43.08623" lon="-0.42137">
        <ele>424.56</ele>
        <time>2015-10-24T13:26:33Z</time>
      </trkpt>
      <trkpt lat="43.08602" lon="-0.42182">
        <ele>422.16</ele>
        <time>2015-10-24T13:26:43Z</time>
      </trkpt>
      <trkpt lat="43.08593" lon="-0.42203">
        <ele>421.68</ele>
        <time>2015-10-24T13:26:47Z</time>
      </trkpt>
      <trkpt lat="43.08591" lon="-0.42209">
        <ele>421.19</ele>
        <time>2015-10-24T13:26:48Z</time>
      </trkpt>
      <trkpt lat="43.0859" lon="-0.42216">
        <ele>421.19</ele>
        <time>2015-10-24T13:26:49Z</time>
      </trkpt>
      <trkpt lat="43.08591" lon="-0.42224">
        <ele>420.71</ele>
        <time>2015-10-24T13:26:50Z</time>
      </trkpt>
      <trkpt lat="43.08593" lon="-0.4223">
        <ele>420.71</ele>
        <time>2015-10-24T13:26:51Z</time>
      </trkpt>
      <trkpt lat="43.08596" lon="-0.42235">
        <ele>420.71</ele>
        <time>2015-10-24T13:26:52Z</time>
      </trkpt>
      <trkpt lat="43.08601" lon="-0.42237">
        <ele>420.71</ele>
        <time>2015-10-24T13:26:53Z</time>
      </trkpt>
      <trkpt lat="43.08604" lon="-0.42235">
        <ele>420.71</ele>
        <time>2015-10-24T13:26:54Z</time>
      </trkpt>
      <trkpt lat="43.08606" lon="-0.42231">
        <ele>420.71</ele>
        <time>2015-10-24T13:26:55Z</time>
      </trkpt>
      <trkpt lat="43.08608" lon="-0.42226">
        <ele>420.71</ele>
        <time>2015-10-24T13:26:56Z</time>
      </trkpt>
      <trkpt lat="43.08609" lon="-0.42224">
        <ele>420.71</ele>
        <time>2015-10-24T13:26:57Z</time>
      </trkpt>
      <trkpt lat="43.08611" lon="-0.42224">
        <ele>420.71</ele>
        <time>2015-10-24T13:26:59Z</time>
      </trkpt>
      <trkpt lat="43.08635" lon="-0.42241">
        <ele>423.6</ele>
        <time>2015-10-24T13:27:09Z</time>
      </trkpt>
      <trkpt lat="43.08657" lon="-0.42264">
        <ele>426.48</ele>
        <time>2015-10-24T13:27:16Z</time>
      </trkpt>
      <trkpt lat="43.0866" lon="-0.42268">
        <ele>427.44</ele>
        <time>2015-10-24T13:27:17Z</time>
      </trkpt>
      <trkpt lat="43.08682" lon="-0.42288">
        <ele>431.29</ele>
        <time>2015-10-24T13:27:23Z</time>
      </trkpt>
      <trkpt lat="43.08708" lon="-0.42305">
        <ele>433.21</ele>
        <time>2015-10-24T13:27:30Z</time>
      </trkpt>
      <trkpt lat="43.08712" lon="-0.42309">
        <ele>433.69</ele>
        <time>2015-10-24T13:27:31Z</time>
      </trkpt>
      <trkpt lat="43.08715" lon="-0.42312">
        <ele>434.17</ele>
        <time>2015-10-24T13:27:32Z</time>
      </trkpt>
      <trkpt lat="43.08719" lon="-0.42316">
        <ele>434.65</ele>
        <time>2015-10-24T13:27:33Z</time>
      </trkpt>
      <trkpt lat="43.08722" lon="-0.42319">
        <ele>435.13</ele>
        <time>2015-10-24T13:27:34Z</time>
      </trkpt>
      <trkpt lat="43.08725" lon="-0.42322">
        <ele>435.61</ele>
        <time>2015-10-24T13:27:35Z</time>
      </trkpt>
      <trkpt lat="43.08756" lon="-0.42351">
        <ele>438.02</ele>
        <time>2015-10-24T13:27:44Z</time>
      </trkpt>
      <trkpt lat="43.08799" lon="-0.42397">
        <ele>440.42</ele>
        <time>2015-10-24T13:27:57Z</time>
      </trkpt>
      <trkpt lat="43.08805" lon="-0.42405">
        <ele>440.42</ele>
        <time>2015-10-24T13:27:59Z</time>
      </trkpt>
      <trkpt lat="43.08809" lon="-0.42409">
        <ele>440.42</ele>
        <time>2015-10-24T13:28:00Z</time>
      </trkpt>
      <trkpt lat="43.08841" lon="-0.42448">
        <ele>441.38</ele>
        <time>2015-10-24T13:28:11Z</time>
      </trkpt>
      <trkpt lat="43.08874" lon="-0.42481">
        <ele>441.86</ele>
        <time>2015-10-24T13:28:22Z</time>
      </trkpt>
      <trkpt lat="43.08875" lon="-0.42481">
        <ele>439.94</ele>
        <time>2015-10-24T13:28:33Z</time>
      </trkpt>
      <trkpt lat="43.08876" lon="-0.42481">
        <ele>438.98</ele>
        <time>2015-10-24T13:28:37Z</time>
      </trkpt>
      <trkpt lat="43.08877" lon="-0.42482">
        <ele>438.98</ele>
        <time>2015-10-24T13:28:38Z</time>
      </trkpt>
      <trkpt lat="43.08907" lon="-0.42498">
        <ele>436.1</ele>
        <time>2015-10-24T13:28:48Z</time>
      </trkpt>
      <trkpt lat="43.08911" lon="-0.425">
        <ele>435.61</ele>
        <time>2015-10-24T13:28:49Z</time>
      </trkpt>
      <trkpt lat="43.08915" lon="-0.42504">
        <ele>434.65</ele>
        <time>2015-10-24T13:28:50Z</time>
      </trkpt>
      <trkpt lat="43.08919" lon="-0.42507">
        <ele>434.17</ele>
        <time>2015-10-24T13:28:51Z</time>
      </trkpt>
      <trkpt lat="43.08923" lon="-0.42508">
        <ele>433.21</ele>
        <time>2015-10-24T13:28:52Z</time>
      </trkpt>
      <trkpt lat="43.08928" lon="-0.42509">
        <ele>432.73</ele>
        <time>2015-10-24T13:28:53Z</time>
      </trkpt>
      <trkpt lat="43.08932" lon="-0.4251">
        <ele>431.77</ele>
        <time>2015-10-24T13:28:54Z</time>
      </trkpt>
      <trkpt lat="43.08936" lon="-0.42512">
        <ele>431.29</ele>
        <time>2015-10-24T13:28:55Z</time>
      </trkpt>
      <trkpt lat="43.0894" lon="-0.42513">
        <ele>430.81</ele>
        <time>2015-10-24T13:28:56Z</time>
      </trkpt>
      <trkpt lat="43.08944" lon="-0.42513">
        <ele>430.33</ele>
        <time>2015-10-24T13:28:57Z</time>
      </trkpt>
      <trkpt lat="43.08948" lon="-0.42514">
        <ele>430.33</ele>
        <time>2015-10-24T13:28:58Z</time>
      </trkpt>
      <trkpt lat="43.0895" lon="-0.42514">
        <ele>429.85</ele>
        <time>2015-10-24T13:28:59Z</time>
      </trkpt>
      <trkpt lat="43.08953" lon="-0.42515">
        <ele>428.89</ele>
        <time>2015-10-24T13:29:00Z</time>
      </trkpt>
      <trkpt lat="43.08956" lon="-0.42516">
        <ele>427.92</ele>
        <time>2015-10-24T13:29:01Z</time>
      </trkpt>
      <trkpt lat="43.08958" lon="-0.42516">
        <ele>427.44</ele>
        <time>2015-10-24T13:29:02Z</time>
      </trkpt>
      <trkpt lat="43.0896" lon="-0.42517">
        <ele>426.96</ele>
        <time>2015-10-24T13:29:03Z</time>
      </trkpt>
      <trkpt lat="43.08976" lon="-0.42518">
        <ele>427.44</ele>
        <time>2015-10-24T13:29:09Z</time>
      </trkpt>
      <trkpt lat="43.08978" lon="-0.42519">
        <ele>427.92</ele>
        <time>2015-10-24T13:29:10Z</time>
      </trkpt>
      <trkpt lat="43.08979" lon="-0.42521">
        <ele>427.92</ele>
        <time>2015-10-24T13:29:11Z</time>
      </trkpt>
      <trkpt lat="43.08982" lon="-0.42521">
        <ele>427.92</ele>
        <time>2015-10-24T13:29:12Z</time>
      </trkpt>
      <trkpt lat="43.08985" lon="-0.42522">
        <ele>427.92</ele>
        <time>2015-10-24T13:29:13Z</time>
      </trkpt>
      <trkpt lat="43.08987" lon="-0.42522">
        <ele>427.92</ele>
        <time>2015-10-24T13:29:14Z</time>
      </trkpt>
      <trkpt lat="43.09023" lon="-0.42527">
        <ele>429.85</ele>
        <time>2015-10-24T13:29:24Z</time>
      </trkpt>
      <trkpt lat="43.09069" lon="-0.42538">
        <ele>427.92</ele>
        <time>2015-10-24T13:29:36Z</time>
      </trkpt>
      <trkpt lat="43.09084" lon="-0.42551">
        <ele>428.89</ele>
        <time>2015-10-24T13:29:42Z</time>
      </trkpt>
      <trkpt lat="43.09086" lon="-0.42549">
        <ele>429.37</ele>
        <time>2015-10-24T13:29:43Z</time>
      </trkpt>
      <trkpt lat="43.09087" lon="-0.42546">
        <ele>429.37</ele>
        <time>2015-10-24T13:29:44Z</time>
      </trkpt>
      <trkpt lat="43.09089" lon="-0.42542">
        <ele>429.37</ele>
        <time>2015-10-24T13:29:45Z</time>
      </trkpt>
      <trkpt lat="43.09091" lon="-0.42538">
        <ele>429.37</ele>
        <time>2015-10-24T13:29:46Z</time>
      </trkpt>
      <trkpt lat="43.09093" lon="-0.42534">
        <ele>429.37</ele>
        <time>2015-10-24T13:29:47Z</time>
      </trkpt>
      <trkpt lat="43.09096" lon="-0.42531">
        <ele>429.85</ele>
        <time>2015-10-24T13:29:48Z</time>
      </trkpt>
      <trkpt lat="43.091" lon="-0.42528">
        <ele>429.85</ele>
        <time>2015-10-24T13:29:49Z</time>
      </trkpt>
      <trkpt lat="43.09104" lon="-0.42527">
        <ele>430.33</ele>
        <time>2015-10-24T13:29:50Z</time>
      </trkpt>
      <trkpt lat="43.09112" lon="-0.42523">
        <ele>430.33</ele>
        <time>2015-10-24T13:29:52Z</time>
      </trkpt>
      <trkpt lat="43.09114" lon="-0.42519">
        <ele>430.33</ele>
        <time>2015-10-24T13:29:53Z</time>
      </trkpt>
      <trkpt lat="43.09116" lon="-0.42515">
        <ele>430.33</ele>
        <time>2015-10-24T13:29:54Z</time>
      </trkpt>
      <trkpt lat="43.0912" lon="-0.42507">
        <ele>427.92</ele>
        <time>2015-10-24T13:29:56Z</time>
      </trkpt>
      <trkpt lat="43.09123" lon="-0.42502">
        <ele>427.92</ele>
        <time>2015-10-24T13:29:57Z</time>
      </trkpt>
      <trkpt lat="43.09126" lon="-0.42498">
        <ele>427.44</ele>
        <time>2015-10-24T13:29:58Z</time>
      </trkpt>
      <trkpt lat="43.09147" lon="-0.42481">
        <ele>423.6</ele>
        <time>2015-10-24T13:30:03Z</time>
      </trkpt>
      <trkpt lat="43.09151" lon="-0.42477">
        <ele>423.12</ele>
        <time>2015-10-24T13:30:04Z</time>
      </trkpt>
      <trkpt lat="43.09154" lon="-0.42473">
        <ele>422.64</ele>
        <time>2015-10-24T13:30:05Z</time>
      </trkpt>
      <trkpt lat="43.09158" lon="-0.42469">
        <ele>422.16</ele>
        <time>2015-10-24T13:30:06Z</time>
      </trkpt>
      <trkpt lat="43.09163" lon="-0.42464">
        <ele>421.68</ele>
        <time>2015-10-24T13:30:07Z</time>
      </trkpt>
      <trkpt lat="43.09175" lon="-0.42451">
        <ele>421.19</ele>
        <time>2015-10-24T13:30:10Z</time>
      </trkpt>
      <trkpt lat="43.09179" lon="-0.42446">
        <ele>420.71</ele>
        <time>2015-10-24T13:30:11Z</time>
      </trkpt>
      <trkpt lat="43.09184" lon="-0.42443">
        <ele>420.71</ele>
        <time>2015-10-24T13:30:12Z</time>
      </trkpt>
      <trkpt lat="43.09196" lon="-0.42433">
        <ele>420.23</ele>
        <time>2015-10-24T13:30:15Z</time>
      </trkpt>
      <trkpt lat="43.092" lon="-0.42429">
        <ele>419.75</ele>
        <time>2015-10-24T13:30:16Z</time>
      </trkpt>
      <trkpt lat="43.09204" lon="-0.42424">
        <ele>419.27</ele>
        <time>2015-10-24T13:30:17Z</time>
      </trkpt>
      <trkpt lat="43.09227" lon="-0.42406">
        <ele>417.35</ele>
        <time>2015-10-24T13:30:22Z</time>
      </trkpt>
      <trkpt lat="43.09231" lon="-0.42403">
        <ele>417.35</ele>
        <time>2015-10-24T13:30:23Z</time>
      </trkpt>
      <trkpt lat="43.09236" lon="-0.424">
        <ele>416.87</ele>
        <time>2015-10-24T13:30:24Z</time>
      </trkpt>
      <trkpt lat="43.09248" lon="-0.42394">
        <ele>415.91</ele>
        <time>2015-10-24T13:30:27Z</time>
      </trkpt>
      <trkpt lat="43.0925" lon="-0.42394">
        <ele>415.43</ele>
        <time>2015-10-24T13:30:28Z</time>
      </trkpt>
      <trkpt lat="43.09252" lon="-0.42395">
        <ele>414.95</ele>
        <time>2015-10-24T13:30:30Z</time>
      </trkpt>
      <trkpt lat="43.09254" lon="-0.42395">
        <ele>414.47</ele>
        <time>2015-10-24T13:30:31Z</time>
      </trkpt>
      <trkpt lat="43.09256" lon="-0.42395">
        <ele>414.47</ele>
        <time>2015-10-24T13:30:32Z</time>
      </trkpt>
      <trkpt lat="43.09259" lon="-0.42395">
        <ele>414.47</ele>
        <time>2015-10-24T13:30:33Z</time>
      </trkpt>
      <trkpt lat="43.09262" lon="-0.42395">
        <ele>414.47</ele>
        <time>2015-10-24T13:30:34Z</time>
      </trkpt>
      <trkpt lat="43.09266" lon="-0.42394">
        <ele>414.95</ele>
        <time>2015-10-24T13:30:35Z</time>
      </trkpt>
      <trkpt lat="43.09269" lon="-0.42394">
        <ele>415.43</ele>
        <time>2015-10-24T13:30:36Z</time>
      </trkpt>
      <trkpt lat="43.09273" lon="-0.42394">
        <ele>415.43</ele>
        <time>2015-10-24T13:30:37Z</time>
      </trkpt>
      <trkpt lat="43.09289" lon="-0.42396">
        <ele>414.95</ele>
        <time>2015-10-24T13:30:41Z</time>
      </trkpt>
      <trkpt lat="43.09293" lon="-0.42395">
        <ele>414.95</ele>
        <time>2015-10-24T13:30:42Z</time>
      </trkpt>
      <trkpt lat="43.09297" lon="-0.42394">
        <ele>414.95</ele>
        <time>2015-10-24T13:30:43Z</time>
      </trkpt>
      <trkpt lat="43.09301" lon="-0.42392">
        <ele>414.95</ele>
        <time>2015-10-24T13:30:44Z</time>
      </trkpt>
      <trkpt lat="43.09305" lon="-0.42391">
        <ele>414.95</ele>
        <time>2015-10-24T13:30:45Z</time>
      </trkpt>
      <trkpt lat="43.0931" lon="-0.42391">
        <ele>415.43</ele>
        <time>2015-10-24T13:30:46Z</time>
      </trkpt>
      <trkpt lat="43.09327" lon="-0.42389">
        <ele>414.95</ele>
        <time>2015-10-24T13:30:50Z</time>
      </trkpt>
      <trkpt lat="43.09331" lon="-0.42389">
        <ele>414.95</ele>
        <time>2015-10-24T13:30:51Z</time>
      </trkpt>
      <trkpt lat="43.09348" lon="-0.42387">
        <ele>415.43</ele>
        <time>2015-10-24T13:30:55Z</time>
      </trkpt>
      <trkpt lat="43.09353" lon="-0.42387">
        <ele>415.43</ele>
        <time>2015-10-24T13:30:56Z</time>
      </trkpt>
      <trkpt lat="43.09357" lon="-0.42388">
        <ele>415.43</ele>
        <time>2015-10-24T13:30:57Z</time>
      </trkpt>
      <trkpt lat="43.09361" lon="-0.42389">
        <ele>415.91</ele>
        <time>2015-10-24T13:30:58Z</time>
      </trkpt>
      <trkpt lat="43.09366" lon="-0.42389">
        <ele>415.91</ele>
        <time>2015-10-24T13:30:59Z</time>
      </trkpt>
      <trkpt lat="43.0937" lon="-0.4239">
        <ele>415.91</ele>
        <time>2015-10-24T13:31:00Z</time>
      </trkpt>
      <trkpt lat="43.09393" lon="-0.4239">
        <ele>415.91</ele>
        <time>2015-10-24T13:31:05Z</time>
      </trkpt>
      <trkpt lat="43.09407" lon="-0.42393">
        <ele>416.39</ele>
        <time>2015-10-24T13:31:08Z</time>
      </trkpt>
      <trkpt lat="43.09412" lon="-0.42394">
        <ele>415.91</ele>
        <time>2015-10-24T13:31:09Z</time>
      </trkpt>
      <trkpt lat="43.09449" lon="-0.42401">
        <ele>414.95</ele>
        <time>2015-10-24T13:31:17Z</time>
      </trkpt>
      <trkpt lat="43.09453" lon="-0.42403">
        <ele>414.95</ele>
        <time>2015-10-24T13:31:18Z</time>
      </trkpt>
      <trkpt lat="43.09457" lon="-0.42405">
        <ele>414.95</ele>
        <time>2015-10-24T13:31:19Z</time>
      </trkpt>
      <trkpt lat="43.0946" lon="-0.42409">
        <ele>414.95</ele>
        <time>2015-10-24T13:31:20Z</time>
      </trkpt>
      <trkpt lat="43.09464" lon="-0.42412">
        <ele>414.95</ele>
        <time>2015-10-24T13:31:21Z</time>
      </trkpt>
      <trkpt lat="43.09468" lon="-0.42415">
        <ele>415.43</ele>
        <time>2015-10-24T13:31:22Z</time>
      </trkpt>
      <trkpt lat="43.09472" lon="-0.42418">
        <ele>415.43</ele>
        <time>2015-10-24T13:31:23Z</time>
      </trkpt>
      <trkpt lat="43.09477" lon="-0.4242">
        <ele>415.43</ele>
        <time>2015-10-24T13:31:24Z</time>
      </trkpt>
      <trkpt lat="43.09504" lon="-0.42431">
        <ele>416.39</ele>
        <time>2015-10-24T13:31:30Z</time>
      </trkpt>
      <trkpt lat="43.09522" lon="-0.42437">
        <ele>414.95</ele>
        <time>2015-10-24T13:31:34Z</time>
      </trkpt>
      <trkpt lat="43.09526" lon="-0.42439">
        <ele>414.47</ele>
        <time>2015-10-24T13:31:35Z</time>
      </trkpt>
      <trkpt lat="43.0953" lon="-0.4244">
        <ele>414.47</ele>
        <time>2015-10-24T13:31:36Z</time>
      </trkpt>
      <trkpt lat="43.09535" lon="-0.42441">
        <ele>414.95</ele>
        <time>2015-10-24T13:31:37Z</time>
      </trkpt>
      <trkpt lat="43.0954" lon="-0.42442">
        <ele>414.95</ele>
        <time>2015-10-24T13:31:38Z</time>
      </trkpt>
      <trkpt lat="43.09544" lon="-0.42443">
        <ele>415.43</ele>
        <time>2015-10-24T13:31:39Z</time>
      </trkpt>
      <trkpt lat="43.09548" lon="-0.42444">
        <ele>415.91</ele>
        <time>2015-10-24T13:31:40Z</time>
      </trkpt>
      <trkpt lat="43.09553" lon="-0.42445">
        <ele>415.91</ele>
        <time>2015-10-24T13:31:41Z</time>
      </trkpt>
      <trkpt lat="43.09557" lon="-0.42445">
        <ele>416.39</ele>
        <time>2015-10-24T13:31:42Z</time>
      </trkpt>
      <trkpt lat="43.09561" lon="-0.42445">
        <ele>416.87</ele>
        <time>2015-10-24T13:31:43Z</time>
      </trkpt>
      <trkpt lat="43.09587" lon="-0.4244">
        <ele>419.27</ele>
        <time>2015-10-24T13:31:49Z</time>
      </trkpt>
      <trkpt lat="43.09592" lon="-0.42439">
        <ele>419.75</ele>
        <time>2015-10-24T13:31:50Z</time>
      </trkpt>
      <trkpt lat="43.09596" lon="-0.42438">
        <ele>420.23</ele>
        <time>2015-10-24T13:31:51Z</time>
      </trkpt>
      <trkpt lat="43.096" lon="-0.42438">
        <ele>420.71</ele>
        <time>2015-10-24T13:31:52Z</time>
      </trkpt>
      <trkpt lat="43.09604" lon="-0.42436">
        <ele>421.19</ele>
        <time>2015-10-24T13:31:53Z</time>
      </trkpt>
      <trkpt lat="43.09608" lon="-0.42434">
        <ele>421.68</ele>
        <time>2015-10-24T13:31:54Z</time>
      </trkpt>
      <trkpt lat="43.09612" lon="-0.42432">
        <ele>422.16</ele>
        <time>2015-10-24T13:31:55Z</time>
      </trkpt>
      <trkpt lat="43.09615" lon="-0.4243">
        <ele>422.64</ele>
        <time>2015-10-24T13:31:56Z</time>
      </trkpt>
      <trkpt lat="43.09618" lon="-0.42429">
        <ele>423.6</ele>
        <time>2015-10-24T13:31:57Z</time>
      </trkpt>
      <trkpt lat="43.0962" lon="-0.42428">
        <ele>424.08</ele>
        <time>2015-10-24T13:31:58Z</time>
      </trkpt>
      <trkpt lat="43.09634" lon="-0.42419">
        <ele>426.96</ele>
        <time>2015-10-24T13:32:04Z</time>
      </trkpt>
      <trkpt lat="43.09635" lon="-0.42421">
        <ele>427.92</ele>
        <time>2015-10-24T13:32:05Z</time>
      </trkpt>
      <trkpt lat="43.09636" lon="-0.42422">
        <ele>426.48</ele>
        <time>2015-10-24T13:32:06Z</time>
      </trkpt>
      <trkpt lat="43.09637" lon="-0.42423">
        <ele>426</ele>
        <time>2015-10-24T13:32:07Z</time>
      </trkpt>
      <trkpt lat="43.09638" lon="-0.42425">
        <ele>426.48</ele>
        <time>2015-10-24T13:32:08Z</time>
      </trkpt>
      <trkpt lat="43.09641" lon="-0.42432">
        <ele>428.4</ele>
        <time>2015-10-24T13:32:12Z</time>
      </trkpt>
      <trkpt lat="43.09645" lon="-0.42437">
        <ele>431.29</ele>
        <time>2015-10-24T13:32:17Z</time>
      </trkpt>
      <trkpt lat="43.09657" lon="-0.4247">
        <ele>440.9</ele>
        <time>2015-10-24T13:32:30Z</time>
      </trkpt>
      <trkpt lat="43.09661" lon="-0.42494">
        <ele>450.03</ele>
        <time>2015-10-24T13:32:40Z</time>
      </trkpt>
      <trkpt lat="43.09662" lon="-0.42516">
        <ele>457.24</ele>
        <time>2015-10-24T13:32:49Z</time>
      </trkpt>
      <trkpt lat="43.09663" lon="-0.42522">
        <ele>459.17</ele>
        <time>2015-10-24T13:32:51Z</time>
      </trkpt>
      <trkpt lat="43.09666" lon="-0.42527">
        <ele>460.61</ele>
        <time>2015-10-24T13:32:53Z</time>
      </trkpt>
      <trkpt lat="43.09696" lon="-0.42548">
        <ele>469.74</ele>
        <time>2015-10-24T13:33:05Z</time>
      </trkpt>
      <trkpt lat="43.09703" lon="-0.42566">
        <ele>471.18</ele>
        <time>2015-10-24T13:33:09Z</time>
      </trkpt>
      <trkpt lat="43.09737" lon="-0.42605">
        <ele>469.26</ele>
        <time>2015-10-24T13:33:18Z</time>
      </trkpt>
      <trkpt lat="43.09744" lon="-0.42613">
        <ele>468.78</ele>
        <time>2015-10-24T13:33:21Z</time>
      </trkpt>
      <trkpt lat="43.09749" lon="-0.4262">
        <ele>468.3</ele>
        <time>2015-10-24T13:33:23Z</time>
      </trkpt>
      <trkpt lat="43.09783" lon="-0.42673">
        <ele>474.07</ele>
        <time>2015-10-24T13:33:35Z</time>
      </trkpt>
      <trkpt lat="43.09785" lon="-0.42675">
        <ele>474.55</ele>
        <time>2015-10-24T13:33:36Z</time>
      </trkpt>
      <trkpt lat="43.09788" lon="-0.42676">
        <ele>475.51</ele>
        <time>2015-10-24T13:33:37Z</time>
      </trkpt>
      <trkpt lat="43.0979" lon="-0.42677">
        <ele>476.47</ele>
        <time>2015-10-24T13:33:38Z</time>
      </trkpt>
      <trkpt lat="43.09791" lon="-0.42679">
        <ele>477.43</ele>
        <time>2015-10-24T13:33:39Z</time>
      </trkpt>
      <trkpt lat="43.09793" lon="-0.42681">
        <ele>477.91</ele>
        <time>2015-10-24T13:33:40Z</time>
      </trkpt>
      <trkpt lat="43.09821" lon="-0.42709">
        <ele>484.16</ele>
        <time>2015-10-24T13:33:49Z</time>
      </trkpt>
      <trkpt lat="43.09824" lon="-0.42714">
        <ele>484.16</ele>
        <time>2015-10-24T13:33:50Z</time>
      </trkpt>
      <trkpt lat="43.09826" lon="-0.42719">
        <ele>484.16</ele>
        <time>2015-10-24T13:33:51Z</time>
      </trkpt>
      <trkpt lat="43.09848" lon="-0.42762">
        <ele>477.91</ele>
        <time>2015-10-24T13:34:02Z</time>
      </trkpt>
      <trkpt lat="43.0985" lon="-0.42765">
        <ele>477.43</ele>
        <time>2015-10-24T13:34:03Z</time>
      </trkpt>
      <trkpt lat="43.09861" lon="-0.42781">
        <ele>476.47</ele>
        <time>2015-10-24T13:34:11Z</time>
      </trkpt>
      <trkpt lat="43.09861" lon="-0.42783">
        <ele>476.95</ele>
        <time>2015-10-24T13:34:12Z</time>
      </trkpt>
      <trkpt lat="43.09866" lon="-0.428">
        <ele>475.51</ele>
        <time>2015-10-24T13:34:19Z</time>
      </trkpt>
      <trkpt lat="43.09867" lon="-0.42801">
        <ele>476.47</ele>
        <time>2015-10-24T13:34:21Z</time>
      </trkpt>
      <trkpt lat="43.09868" lon="-0.42802">
        <ele>475.99</ele>
        <time>2015-10-24T13:34:22Z</time>
      </trkpt>
      <trkpt lat="43.09871" lon="-0.42803">
        <ele>475.03</ele>
        <time>2015-10-24T13:34:25Z</time>
      </trkpt>
      <trkpt lat="43.09878" lon="-0.42801">
        <ele>474.55</ele>
        <time>2015-10-24T13:34:31Z</time>
      </trkpt>
      <trkpt lat="43.09884" lon="-0.42804">
        <ele>473.11</ele>
        <time>2015-10-24T13:34:35Z</time>
      </trkpt>
      <trkpt lat="43.09885" lon="-0.42805">
        <ele>473.11</ele>
        <time>2015-10-24T13:34:36Z</time>
      </trkpt>
      <trkpt lat="43.09887" lon="-0.42805">
        <ele>473.59</ele>
        <time>2015-10-24T13:34:37Z</time>
      </trkpt>
      <trkpt lat="43.09907" lon="-0.42807">
        <ele>469.26</ele>
        <time>2015-10-24T13:34:48Z</time>
      </trkpt>
      <trkpt lat="43.0991" lon="-0.42806">
        <ele>468.3</ele>
        <time>2015-10-24T13:34:49Z</time>
      </trkpt>
      <trkpt lat="43.09912" lon="-0.42806">
        <ele>467.82</ele>
        <time>2015-10-24T13:34:50Z</time>
      </trkpt>
      <trkpt lat="43.09913" lon="-0.42807">
        <ele>467.34</ele>
        <time>2015-10-24T13:34:51Z</time>
      </trkpt>
      <trkpt lat="43.09915" lon="-0.42806">
        <ele>466.38</ele>
        <time>2015-10-24T13:34:52Z</time>
      </trkpt>
      <trkpt lat="43.09918" lon="-0.42806">
        <ele>465.9</ele>
        <time>2015-10-24T13:34:53Z</time>
      </trkpt>
      <trkpt lat="43.09921" lon="-0.42806">
        <ele>465.42</ele>
        <time>2015-10-24T13:34:54Z</time>
      </trkpt>
      <trkpt lat="43.09924" lon="-0.42806">
        <ele>464.45</ele>
        <time>2015-10-24T13:34:55Z</time>
      </trkpt>
      <trkpt lat="43.09927" lon="-0.42805">
        <ele>463.49</ele>
        <time>2015-10-24T13:34:56Z</time>
      </trkpt>
      <trkpt lat="43.0993" lon="-0.42805">
        <ele>462.05</ele>
        <time>2015-10-24T13:34:57Z</time>
      </trkpt>
      <trkpt lat="43.09933" lon="-0.42806">
        <ele>461.09</ele>
        <time>2015-10-24T13:34:58Z</time>
      </trkpt>
      <trkpt lat="43.09936" lon="-0.42807">
        <ele>460.13</ele>
        <time>2015-10-24T13:34:59Z</time>
      </trkpt>
      <trkpt lat="43.09952" lon="-0.42814">
        <ele>457.72</ele>
        <time>2015-10-24T13:35:05Z</time>
      </trkpt>
      <trkpt lat="43.09955" lon="-0.42816">
        <ele>457.24</ele>
        <time>2015-10-24T13:35:06Z</time>
      </trkpt>
      <trkpt lat="43.09957" lon="-0.42818">
        <ele>456.76</ele>
        <time>2015-10-24T13:35:07Z</time>
      </trkpt>
      <trkpt lat="43.09959" lon="-0.42819">
        <ele>456.28</ele>
        <time>2015-10-24T13:35:08Z</time>
      </trkpt>
      <trkpt lat="43.09962" lon="-0.42821">
        <ele>456.28</ele>
        <time>2015-10-24T13:35:09Z</time>
      </trkpt>
      <trkpt lat="43.09964" lon="-0.42823">
        <ele>455.8</ele>
        <time>2015-10-24T13:35:10Z</time>
      </trkpt>
      <trkpt lat="43.09966" lon="-0.42826">
        <ele>455.8</ele>
        <time>2015-10-24T13:35:11Z</time>
      </trkpt>
      <trkpt lat="43.09988" lon="-0.42843">
        <ele>455.8</ele>
        <time>2015-10-24T13:35:17Z</time>
      </trkpt>
      <trkpt lat="43.09992" lon="-0.42847">
        <ele>456.28</ele>
        <time>2015-10-24T13:35:18Z</time>
      </trkpt>
      <trkpt lat="43.09996" lon="-0.42851">
        <ele>456.28</ele>
        <time>2015-10-24T13:35:19Z</time>
      </trkpt>
      <trkpt lat="43.1" lon="-0.42854">
        <ele>456.28</ele>
        <time>2015-10-24T13:35:20Z</time>
      </trkpt>
      <trkpt lat="43.10002" lon="-0.42859">
        <ele>456.76</ele>
        <time>2015-10-24T13:35:21Z</time>
      </trkpt>
      <trkpt lat="43.10003" lon="-0.42864">
        <ele>457.24</ele>
        <time>2015-10-24T13:35:22Z</time>
      </trkpt>
      <trkpt lat="43.10003" lon="-0.42869">
        <ele>457.24</ele>
        <time>2015-10-24T13:35:23Z</time>
      </trkpt>
      <trkpt lat="43.10002" lon="-0.42873">
        <ele>457.24</ele>
        <time>2015-10-24T13:35:24Z</time>
      </trkpt>
      <trkpt lat="43.1" lon="-0.42876">
        <ele>457.24</ele>
        <time>2015-10-24T13:35:25Z</time>
      </trkpt>
      <trkpt lat="43.10003" lon="-0.42901">
        <ele>434.65</ele>
        <time>2015-10-24T13:35:31Z</time>
      </trkpt>
      <trkpt lat="43.09999" lon="-0.42913">
        <ele>431.77</ele>
        <time>2015-10-24T13:35:33Z</time>
      </trkpt>
      <trkpt lat="43.09995" lon="-0.42927">
        <ele>427.92</ele>
        <time>2015-10-24T13:35:35Z</time>
      </trkpt>
      <trkpt lat="43.09981" lon="-0.42965">
        <ele>421.19</ele>
        <time>2015-10-24T13:35:43Z</time>
      </trkpt>
      <trkpt lat="43.09979" lon="-0.42968">
        <ele>421.19</ele>
        <time>2015-10-24T13:35:44Z</time>
      </trkpt>
      <trkpt lat="43.09977" lon="-0.4297">
        <ele>420.71</ele>
        <time>2015-10-24T13:35:45Z</time>
      </trkpt>
      <trkpt lat="43.09948" lon="-0.42997">
        <ele>418.31</ele>
        <time>2015-10-24T13:35:56Z</time>
      </trkpt>
      <trkpt lat="43.09937" lon="-0.43013">
        <ele>417.83</ele>
        <time>2015-10-24T13:36:00Z</time>
      </trkpt>
      <trkpt lat="43.09936" lon="-0.43019">
        <ele>417.83</ele>
        <time>2015-10-24T13:36:01Z</time>
      </trkpt>
      <trkpt lat="43.09935" lon="-0.43025">
        <ele>417.35</ele>
        <time>2015-10-24T13:36:02Z</time>
      </trkpt>
      <trkpt lat="43.09935" lon="-0.43033">
        <ele>416.87</ele>
        <time>2015-10-24T13:36:03Z</time>
      </trkpt>
      <trkpt lat="43.09936" lon="-0.43041">
        <ele>416.87</ele>
        <time>2015-10-24T13:36:04Z</time>
      </trkpt>
      <trkpt lat="43.09938" lon="-0.4305">
        <ele>416.39</ele>
        <time>2015-10-24T13:36:05Z</time>
      </trkpt>
      <trkpt lat="43.09942" lon="-0.43057">
        <ele>415.91</ele>
        <time>2015-10-24T13:36:06Z</time>
      </trkpt>
      <trkpt lat="43.09947" lon="-0.43062">
        <ele>415.91</ele>
        <time>2015-10-24T13:36:07Z</time>
      </trkpt>
      <trkpt lat="43.09953" lon="-0.43065">
        <ele>415.43</ele>
        <time>2015-10-24T13:36:08Z</time>
      </trkpt>
      <trkpt lat="43.09958" lon="-0.43066">
        <ele>414.95</ele>
        <time>2015-10-24T13:36:09Z</time>
      </trkpt>
      <trkpt lat="43.09963" lon="-0.43068">
        <ele>414.95</ele>
        <time>2015-10-24T13:36:10Z</time>
      </trkpt>
      <trkpt lat="43.09973" lon="-0.43073">
        <ele>414.95</ele>
        <time>2015-10-24T13:36:12Z</time>
      </trkpt>
      <trkpt lat="43.09977" lon="-0.43078">
        <ele>414.47</ele>
        <time>2015-10-24T13:36:13Z</time>
      </trkpt>
      <trkpt lat="43.09979" lon="-0.43084">
        <ele>414.47</ele>
        <time>2015-10-24T13:36:14Z</time>
      </trkpt>
      <trkpt lat="43.09982" lon="-0.4309">
        <ele>414.47</ele>
        <time>2015-10-24T13:36:15Z</time>
      </trkpt>
      <trkpt lat="43.09983" lon="-0.43096">
        <ele>414.47</ele>
        <time>2015-10-24T13:36:16Z</time>
      </trkpt>
      <trkpt lat="43.09985" lon="-0.43102">
        <ele>413.98</ele>
        <time>2015-10-24T13:36:17Z</time>
      </trkpt>
      <trkpt lat="43.09988" lon="-0.43107">
        <ele>413.98</ele>
        <time>2015-10-24T13:36:18Z</time>
      </trkpt>
      <trkpt lat="43.09991" lon="-0.43112">
        <ele>413.98</ele>
        <time>2015-10-24T13:36:19Z</time>
      </trkpt>
      <trkpt lat="43.09994" lon="-0.43117">
        <ele>413.98</ele>
        <time>2015-10-24T13:36:20Z</time>
      </trkpt>
      <trkpt lat="43.09996" lon="-0.43122">
        <ele>413.98</ele>
        <time>2015-10-24T13:36:21Z</time>
      </trkpt>
      <trkpt lat="43.09997" lon="-0.43128">
        <ele>413.98</ele>
        <time>2015-10-24T13:36:22Z</time>
      </trkpt>
      <trkpt lat="43.09999" lon="-0.43134">
        <ele>413.98</ele>
        <time>2015-10-24T13:36:23Z</time>
      </trkpt>
      <trkpt lat="43.10001" lon="-0.43139">
        <ele>413.98</ele>
        <time>2015-10-24T13:36:24Z</time>
      </trkpt>
      <trkpt lat="43.10009" lon="-0.4318">
        <ele>414.95</ele>
        <time>2015-10-24T13:36:34Z</time>
      </trkpt>
      <trkpt lat="43.10007" lon="-0.43182">
        <ele>415.43</ele>
        <time>2015-10-24T13:36:35Z</time>
      </trkpt>
      <trkpt lat="43.10003" lon="-0.43218">
        <ele>415.91</ele>
        <time>2015-10-24T13:36:46Z</time>
      </trkpt>
      <trkpt lat="43.10001" lon="-0.43229">
        <ele>415.43</ele>
        <time>2015-10-24T13:36:48Z</time>
      </trkpt>
      <trkpt lat="43.10001" lon="-0.43236">
        <ele>414.95</ele>
        <time>2015-10-24T13:36:49Z</time>
      </trkpt>
      <trkpt lat="43.1" lon="-0.43243">
        <ele>414.47</ele>
        <time>2015-10-24T13:36:50Z</time>
      </trkpt>
      <trkpt lat="43.09999" lon="-0.43249">
        <ele>413.98</ele>
        <time>2015-10-24T13:36:51Z</time>
      </trkpt>
      <trkpt lat="43.1" lon="-0.43255">
        <ele>413.5</ele>
        <time>2015-10-24T13:36:52Z</time>
      </trkpt>
      <trkpt lat="43.10003" lon="-0.43259">
        <ele>413.5</ele>
        <time>2015-10-24T13:36:53Z</time>
      </trkpt>
      <trkpt lat="43.10007" lon="-0.43262">
        <ele>413.02</ele>
        <time>2015-10-24T13:36:54Z</time>
      </trkpt>
      <trkpt lat="43.10011" lon="-0.43264">
        <ele>413.02</ele>
        <time>2015-10-24T13:36:55Z</time>
      </trkpt>
      <trkpt lat="43.10015" lon="-0.43265">
        <ele>412.54</ele>
        <time>2015-10-24T13:36:56Z</time>
      </trkpt>
      <trkpt lat="43.10055" lon="-0.4329">
        <ele>412.06</ele>
        <time>2015-10-24T13:37:08Z</time>
      </trkpt>
      <trkpt lat="43.10063" lon="-0.43296">
        <ele>412.06</ele>
        <time>2015-10-24T13:37:10Z</time>
      </trkpt>
      <trkpt lat="43.10067" lon="-0.433">
        <ele>412.06</ele>
        <time>2015-10-24T13:37:11Z</time>
      </trkpt>
      <trkpt lat="43.10073" lon="-0.43309">
        <ele>411.58</ele>
        <time>2015-10-24T13:37:13Z</time>
      </trkpt>
      <trkpt lat="43.10076" lon="-0.43315">
        <ele>411.58</ele>
        <time>2015-10-24T13:37:14Z</time>
      </trkpt>
      <trkpt lat="43.10081" lon="-0.43326">
        <ele>411.58</ele>
        <time>2015-10-24T13:37:16Z</time>
      </trkpt>
      <trkpt lat="43.1009" lon="-0.43343">
        <ele>411.58</ele>
        <time>2015-10-24T13:37:19Z</time>
      </trkpt>
      <trkpt lat="43.10094" lon="-0.43355">
        <ele>411.58</ele>
        <time>2015-10-24T13:37:21Z</time>
      </trkpt>
      <trkpt lat="43.10095" lon="-0.43361">
        <ele>412.06</ele>
        <time>2015-10-24T13:37:22Z</time>
      </trkpt>
      <trkpt lat="43.10095" lon="-0.43368">
        <ele>412.06</ele>
        <time>2015-10-24T13:37:23Z</time>
      </trkpt>
      <trkpt lat="43.10095" lon="-0.43382">
        <ele>412.06</ele>
        <time>2015-10-24T13:37:25Z</time>
      </trkpt>
      <trkpt lat="43.10096" lon="-0.43389">
        <ele>412.06</ele>
        <time>2015-10-24T13:37:26Z</time>
      </trkpt>
      <trkpt lat="43.10098" lon="-0.43395">
        <ele>412.06</ele>
        <time>2015-10-24T13:37:27Z</time>
      </trkpt>
      <trkpt lat="43.101" lon="-0.43401">
        <ele>412.06</ele>
        <time>2015-10-24T13:37:28Z</time>
      </trkpt>
      <trkpt lat="43.10104" lon="-0.43407">
        <ele>412.06</ele>
        <time>2015-10-24T13:37:29Z</time>
      </trkpt>
      <trkpt lat="43.10107" lon="-0.43412">
        <ele>412.06</ele>
        <time>2015-10-24T13:37:30Z</time>
      </trkpt>
      <trkpt lat="43.10111" lon="-0.43416">
        <ele>412.06</ele>
        <time>2015-10-24T13:37:31Z</time>
      </trkpt>
      <trkpt lat="43.10115" lon="-0.43419">
        <ele>411.58</ele>
        <time>2015-10-24T13:37:32Z</time>
      </trkpt>
      <trkpt lat="43.1012" lon="-0.43423">
        <ele>411.58</ele>
        <time>2015-10-24T13:37:33Z</time>
      </trkpt>
      <trkpt lat="43.10124" lon="-0.43425">
        <ele>411.58</ele>
        <time>2015-10-24T13:37:34Z</time>
      </trkpt>
      <trkpt lat="43.10129" lon="-0.43427">
        <ele>411.58</ele>
        <time>2015-10-24T13:37:35Z</time>
      </trkpt>
      <trkpt lat="43.10133" lon="-0.43429">
        <ele>411.1</ele>
        <time>2015-10-24T13:37:36Z</time>
      </trkpt>
      <trkpt lat="43.10138" lon="-0.43432">
        <ele>411.1</ele>
        <time>2015-10-24T13:37:37Z</time>
      </trkpt>
      <trkpt lat="43.10143" lon="-0.43434">
        <ele>411.1</ele>
        <time>2015-10-24T13:37:38Z</time>
      </trkpt>
      <trkpt lat="43.10147" lon="-0.43437">
        <ele>411.1</ele>
        <time>2015-10-24T13:37:39Z</time>
      </trkpt>
      <trkpt lat="43.10152" lon="-0.43439">
        <ele>410.62</ele>
        <time>2015-10-24T13:37:40Z</time>
      </trkpt>
      <trkpt lat="43.10166" lon="-0.43449">
        <ele>411.1</ele>
        <time>2015-10-24T13:37:43Z</time>
      </trkpt>
      <trkpt lat="43.10171" lon="-0.43452">
        <ele>411.1</ele>
        <time>2015-10-24T13:37:44Z</time>
      </trkpt>
      <trkpt lat="43.10176" lon="-0.43455">
        <ele>411.1</ele>
        <time>2015-10-24T13:37:45Z</time>
      </trkpt>
      <trkpt lat="43.10211" lon="-0.43471">
        <ele>411.1</ele>
        <time>2015-10-24T13:37:52Z</time>
      </trkpt>
      <trkpt lat="43.10263" lon="-0.43483">
        <ele>411.1</ele>
        <time>2015-10-24T13:38:02Z</time>
      </trkpt>
      <trkpt lat="43.10268" lon="-0.43484">
        <ele>411.1</ele>
        <time>2015-10-24T13:38:03Z</time>
      </trkpt>
      <trkpt lat="43.10273" lon="-0.43485">
        <ele>411.1</ele>
        <time>2015-10-24T13:38:04Z</time>
      </trkpt>
      <trkpt lat="43.10299" lon="-0.43488">
        <ele>411.58</ele>
        <time>2015-10-24T13:38:09Z</time>
      </trkpt>
      <trkpt lat="43.10313" lon="-0.43491">
        <ele>411.1</ele>
        <time>2015-10-24T13:38:12Z</time>
      </trkpt>
      <trkpt lat="43.10318" lon="-0.43492">
        <ele>411.1</ele>
        <time>2015-10-24T13:38:13Z</time>
      </trkpt>
      <trkpt lat="43.10374" lon="-0.43515">
        <ele>409.66</ele>
        <time>2015-10-24T13:38:24Z</time>
      </trkpt>
      <trkpt lat="43.1038" lon="-0.43517">
        <ele>409.66</ele>
        <time>2015-10-24T13:38:25Z</time>
      </trkpt>
      <trkpt lat="43.1039" lon="-0.4352">
        <ele>409.66</ele>
        <time>2015-10-24T13:38:27Z</time>
      </trkpt>
      <trkpt lat="43.10395" lon="-0.43522">
        <ele>409.66</ele>
        <time>2015-10-24T13:38:28Z</time>
      </trkpt>
      <trkpt lat="43.10464" lon="-0.43535">
        <ele>410.62</ele>
        <time>2015-10-24T13:38:42Z</time>
      </trkpt>
      <trkpt lat="43.10468" lon="-0.43533">
        <ele>410.14</ele>
        <time>2015-10-24T13:38:43Z</time>
      </trkpt>
      <trkpt lat="43.10473" lon="-0.43533">
        <ele>410.14</ele>
        <time>2015-10-24T13:38:44Z</time>
      </trkpt>
      <trkpt lat="43.10476" lon="-0.43532">
        <ele>409.66</ele>
        <time>2015-10-24T13:38:45Z</time>
      </trkpt>
      <trkpt lat="43.10476" lon="-0.43533">
        <ele>408.7</ele>
        <time>2015-10-24T13:38:52Z</time>
      </trkpt>
      <trkpt lat="43.10476" lon="-0.43533">
        <ele>408.7</ele>
        <time>2015-10-24T13:39:08Z</time>
      </trkpt>
      <trkpt lat="43.10476" lon="-0.43534">
        <ele>409.18</ele>
        <time>2015-10-24T13:39:26Z</time>
      </trkpt>
      <trkpt lat="43.10476" lon="-0.43534">
        <ele>409.66</ele>
        <time>2015-10-24T13:39:44Z</time>
      </trkpt>
      <trkpt lat="43.10477" lon="-0.43535">
        <ele>410.14</ele>
        <time>2015-10-24T13:39:57Z</time>
      </trkpt>
      <trkpt lat="43.10476" lon="-0.43534">
        <ele>410.62</ele>
        <time>2015-10-24T13:40:09Z</time>
      </trkpt>
      <trkpt lat="43.10476" lon="-0.43534">
        <ele>411.58</ele>
        <time>2015-10-24T13:40:26Z</time>
      </trkpt>
      <trkpt lat="43.10476" lon="-0.43535">
        <ele>412.06</ele>
        <time>2015-10-24T13:40:43Z</time>
      </trkpt>
      <trkpt lat="43.10475" lon="-0.43534">
        <ele>412.54</ele>
        <time>2015-10-24T13:41:01Z</time>
      </trkpt>
      <trkpt lat="43.10477" lon="-0.43534">
        <ele>413.98</ele>
        <time>2015-10-24T13:41:07Z</time>
      </trkpt>
      <trkpt lat="43.10478" lon="-0.43535">
        <ele>413.98</ele>
        <time>2015-10-24T13:41:08Z</time>
      </trkpt>
      <trkpt lat="43.10479" lon="-0.43536">
        <ele>414.47</ele>
        <time>2015-10-24T13:41:09Z</time>
      </trkpt>
      <trkpt lat="43.10481" lon="-0.43538">
        <ele>414.95</ele>
        <time>2015-10-24T13:41:10Z</time>
      </trkpt>
      <trkpt lat="43.10483" lon="-0.4354">
        <ele>414.95</ele>
        <time>2015-10-24T13:41:11Z</time>
      </trkpt>
      <trkpt lat="43.10485" lon="-0.43541">
        <ele>415.43</ele>
        <time>2015-10-24T13:41:12Z</time>
      </trkpt>
      <trkpt lat="43.10489" lon="-0.43542">
        <ele>415.43</ele>
        <time>2015-10-24T13:41:13Z</time>
      </trkpt>
      <trkpt lat="43.10492" lon="-0.43542">
        <ele>415.43</ele>
        <time>2015-10-24T13:41:14Z</time>
      </trkpt>
      <trkpt lat="43.10534" lon="-0.4355">
        <ele>416.87</ele>
        <time>2015-10-24T13:41:25Z</time>
      </trkpt>
      <trkpt lat="43.10558" lon="-0.43554">
        <ele>416.39</ele>
        <time>2015-10-24T13:41:30Z</time>
      </trkpt>
      <trkpt lat="43.10637" lon="-0.43566">
        <ele>416.87</ele>
        <time>2015-10-24T13:41:46Z</time>
      </trkpt>
      <trkpt lat="43.10704" lon="-0.43554">
        <ele>418.31</ele>
        <time>2015-10-24T13:42:01Z</time>
      </trkpt>
      <trkpt lat="43.10726" lon="-0.43546">
        <ele>417.35</ele>
        <time>2015-10-24T13:42:06Z</time>
      </trkpt>
      <trkpt lat="43.10784" lon="-0.43534">
        <ele>417.83</ele>
        <time>2015-10-24T13:42:17Z</time>
      </trkpt>
      <trkpt lat="43.10805" lon="-0.43528">
        <ele>417.35</ele>
        <time>2015-10-24T13:42:21Z</time>
      </trkpt>
      <trkpt lat="43.10892" lon="-0.43546">
        <ele>414.95</ele>
        <time>2015-10-24T13:42:36Z</time>
      </trkpt>
      <trkpt lat="43.10984" lon="-0.43578">
        <ele>411.1</ele>
        <time>2015-10-24T13:42:49Z</time>
      </trkpt>
      <trkpt lat="43.10992" lon="-0.43583">
        <ele>410.62</ele>
        <time>2015-10-24T13:42:50Z</time>
      </trkpt>
      <trkpt lat="43.10998" lon="-0.43591">
        <ele>409.66</ele>
        <time>2015-10-24T13:42:51Z</time>
      </trkpt>
      <trkpt lat="43.11004" lon="-0.43601">
        <ele>408.7</ele>
        <time>2015-10-24T13:42:52Z</time>
      </trkpt>
      <trkpt lat="43.11008" lon="-0.43612">
        <ele>408.22</ele>
        <time>2015-10-24T13:42:53Z</time>
      </trkpt>
      <trkpt lat="43.1101" lon="-0.43625">
        <ele>407.26</ele>
        <time>2015-10-24T13:42:54Z</time>
      </trkpt>
      <trkpt lat="43.11012" lon="-0.43639">
        <ele>406.29</ele>
        <time>2015-10-24T13:42:55Z</time>
      </trkpt>
      <trkpt lat="43.11015" lon="-0.43667">
        <ele>404.37</ele>
        <time>2015-10-24T13:42:57Z</time>
      </trkpt>
      <trkpt lat="43.1102" lon="-0.4368">
        <ele>403.89</ele>
        <time>2015-10-24T13:42:58Z</time>
      </trkpt>
      <trkpt lat="43.11025" lon="-0.43692">
        <ele>402.93</ele>
        <time>2015-10-24T13:42:59Z</time>
      </trkpt>
      <trkpt lat="43.11032" lon="-0.43703">
        <ele>402.45</ele>
        <time>2015-10-24T13:43:00Z</time>
      </trkpt>
      <trkpt lat="43.11038" lon="-0.43713">
        <ele>401.97</ele>
        <time>2015-10-24T13:43:01Z</time>
      </trkpt>
      <trkpt lat="43.11052" lon="-0.43731">
        <ele>401.01</ele>
        <time>2015-10-24T13:43:03Z</time>
      </trkpt>
      <trkpt lat="43.11059" lon="-0.43737">
        <ele>400.53</ele>
        <time>2015-10-24T13:43:04Z</time>
      </trkpt>
      <trkpt lat="43.11066" lon="-0.43741">
        <ele>400.05</ele>
        <time>2015-10-24T13:43:05Z</time>
      </trkpt>
      <trkpt lat="43.11077" lon="-0.43747">
        <ele>399.57</ele>
        <time>2015-10-24T13:43:07Z</time>
      </trkpt>
      <trkpt lat="43.1108" lon="-0.4375">
        <ele>399.08</ele>
        <time>2015-10-24T13:43:08Z</time>
      </trkpt>
      <trkpt lat="43.11081" lon="-0.4376">
        <ele>398.12</ele>
        <time>2015-10-24T13:43:15Z</time>
      </trkpt>
      <trkpt lat="43.11082" lon="-0.4376">
        <ele>398.12</ele>
        <time>2015-10-24T13:43:26Z</time>
      </trkpt>
      <trkpt lat="43.11082" lon="-0.43761">
        <ele>397.16</ele>
        <time>2015-10-24T13:43:53Z</time>
      </trkpt>
      <trkpt lat="43.11082" lon="-0.4376">
        <ele>396.68</ele>
        <time>2015-10-24T13:44:21Z</time>
      </trkpt>
      <trkpt lat="43.11082" lon="-0.43759">
        <ele>396.2</ele>
        <time>2015-10-24T13:44:41Z</time>
      </trkpt>
      <trkpt lat="43.11082" lon="-0.4376">
        <ele>396.2</ele>
        <time>2015-10-24T13:44:45Z</time>
      </trkpt>
      <trkpt lat="43.11064" lon="-0.43757">
        <ele>396.68</ele>
        <time>2015-10-24T13:44:52Z</time>
      </trkpt>
      <trkpt lat="43.1106" lon="-0.43756">
        <ele>396.2</ele>
        <time>2015-10-24T13:44:53Z</time>
      </trkpt>
      <trkpt lat="43.11055" lon="-0.43756">
        <ele>395.72</ele>
        <time>2015-10-24T13:44:54Z</time>
      </trkpt>
      <trkpt lat="43.11051" lon="-0.43758">
        <ele>395.72</ele>
        <time>2015-10-24T13:44:55Z</time>
      </trkpt>
      <trkpt lat="43.11047" lon="-0.43761">
        <ele>395.24</ele>
        <time>2015-10-24T13:44:56Z</time>
      </trkpt>
      <trkpt lat="43.11043" lon="-0.43764">
        <ele>395.24</ele>
        <time>2015-10-24T13:44:57Z</time>
      </trkpt>
      <trkpt lat="43.11039" lon="-0.43768">
        <ele>395.24</ele>
        <time>2015-10-24T13:44:58Z</time>
      </trkpt>
      <trkpt lat="43.11034" lon="-0.4377">
        <ele>395.24</ele>
        <time>2015-10-24T13:44:59Z</time>
      </trkpt>
      <trkpt lat="43.11031" lon="-0.43774">
        <ele>395.24</ele>
        <time>2015-10-24T13:45:00Z</time>
      </trkpt>
      <trkpt lat="43.11027" lon="-0.43778">
        <ele>395.24</ele>
        <time>2015-10-24T13:45:01Z</time>
      </trkpt>
      <trkpt lat="43.11023" lon="-0.43783">
        <ele>395.24</ele>
        <time>2015-10-24T13:45:02Z</time>
      </trkpt>
      <trkpt lat="43.1102" lon="-0.43788">
        <ele>395.24</ele>
        <time>2015-10-24T13:45:03Z</time>
      </trkpt>
      <trkpt lat="43.11017" lon="-0.43793">
        <ele>395.24</ele>
        <time>2015-10-24T13:45:04Z</time>
      </trkpt>
      <trkpt lat="43.10989" lon="-0.43845">
        <ele>398.6</ele>
        <time>2015-10-24T13:45:16Z</time>
      </trkpt>
      <trkpt lat="43.10982" lon="-0.43855">
        <ele>400.53</ele>
        <time>2015-10-24T13:45:21Z</time>
      </trkpt>
      <trkpt lat="43.10981" lon="-0.43858">
        <ele>401.01</ele>
        <time>2015-10-24T13:45:22Z</time>
      </trkpt>
      <trkpt lat="43.10981" lon="-0.43861">
        <ele>401.49</ele>
        <time>2015-10-24T13:45:23Z</time>
      </trkpt>
      <trkpt lat="43.1098" lon="-0.43863">
        <ele>401.49</ele>
        <time>2015-10-24T13:45:24Z</time>
      </trkpt>
      <trkpt lat="43.1098" lon="-0.43865">
        <ele>401.97</ele>
        <time>2015-10-24T13:45:25Z</time>
      </trkpt>
      <trkpt lat="43.10979" lon="-0.43867">
        <ele>402.45</ele>
        <time>2015-10-24T13:45:26Z</time>
      </trkpt>
      <trkpt lat="43.10979" lon="-0.43869">
        <ele>402.93</ele>
        <time>2015-10-24T13:45:27Z</time>
      </trkpt>
      <trkpt lat="43.10978" lon="-0.4387">
        <ele>403.41</ele>
        <time>2015-10-24T13:45:28Z</time>
      </trkpt>
      <trkpt lat="43.10976" lon="-0.43871">
        <ele>403.89</ele>
        <time>2015-10-24T13:45:29Z</time>
      </trkpt>
      <trkpt lat="43.10974" lon="-0.43871">
        <ele>404.37</ele>
        <time>2015-10-24T13:45:30Z</time>
      </trkpt>
      <trkpt lat="43.10972" lon="-0.43873">
        <ele>404.85</ele>
        <time>2015-10-24T13:45:31Z</time>
      </trkpt>
      <trkpt lat="43.10972" lon="-0.43875">
        <ele>405.81</ele>
        <time>2015-10-24T13:45:32Z</time>
      </trkpt>
      <trkpt lat="43.10971" lon="-0.43877">
        <ele>406.29</ele>
        <time>2015-10-24T13:45:33Z</time>
      </trkpt>
      <trkpt lat="43.1097" lon="-0.43879">
        <ele>406.77</ele>
        <time>2015-10-24T13:45:34Z</time>
      </trkpt>
      <trkpt lat="43.10969" lon="-0.43881">
        <ele>407.26</ele>
        <time>2015-10-24T13:45:35Z</time>
      </trkpt>
      <trkpt lat="43.10968" lon="-0.43883">
        <ele>407.74</ele>
        <time>2015-10-24T13:45:36Z</time>
      </trkpt>
      <trkpt lat="43.10966" lon="-0.43887">
        <ele>408.7</ele>
        <time>2015-10-24T13:45:38Z</time>
      </trkpt>
      <trkpt lat="43.10966" lon="-0.43889">
        <ele>409.66</ele>
        <time>2015-10-24T13:45:39Z</time>
      </trkpt>
      <trkpt lat="43.10965" lon="-0.43891">
        <ele>410.14</ele>
        <time>2015-10-24T13:45:40Z</time>
      </trkpt>
      <trkpt lat="43.10964" lon="-0.43893">
        <ele>410.14</ele>
        <time>2015-10-24T13:45:41Z</time>
      </trkpt>
      <trkpt lat="43.10964" lon="-0.43896">
        <ele>410.62</ele>
        <time>2015-10-24T13:45:42Z</time>
      </trkpt>
      <trkpt lat="43.10964" lon="-0.43898">
        <ele>411.1</ele>
        <time>2015-10-24T13:45:43Z</time>
      </trkpt>
      <trkpt lat="43.10963" lon="-0.4391">
        <ele>412.54</ele>
        <time>2015-10-24T13:45:47Z</time>
      </trkpt>
      <trkpt lat="43.10963" lon="-0.43913">
        <ele>412.06</ele>
        <time>2015-10-24T13:45:48Z</time>
      </trkpt>
      <trkpt lat="43.10964" lon="-0.43916">
        <ele>412.06</ele>
        <time>2015-10-24T13:45:49Z</time>
      </trkpt>
      <trkpt lat="43.10964" lon="-0.43918">
        <ele>411.58</ele>
        <time>2015-10-24T13:45:50Z</time>
      </trkpt>
      <trkpt lat="43.10964" lon="-0.43922">
        <ele>412.06</ele>
        <time>2015-10-24T13:45:51Z</time>
      </trkpt>
      <trkpt lat="43.1097" lon="-0.43965">
        <ele>412.54</ele>
        <time>2015-10-24T13:46:05Z</time>
      </trkpt>
      <trkpt lat="43.10976" lon="-0.44005">
        <ele>415.43</ele>
        <time>2015-10-24T13:46:19Z</time>
      </trkpt>
      <trkpt lat="43.10977" lon="-0.44045">
        <ele>422.16</ele>
        <time>2015-10-24T13:46:33Z</time>
      </trkpt>
      <trkpt lat="43.10977" lon="-0.44074">
        <ele>426</ele>
        <time>2015-10-24T13:46:43Z</time>
      </trkpt>
      <trkpt lat="43.10981" lon="-0.44098">
        <ele>428.89</ele>
        <time>2015-10-24T13:46:54Z</time>
      </trkpt>
      <trkpt lat="43.10981" lon="-0.44101">
        <ele>428.89</ele>
        <time>2015-10-24T13:46:55Z</time>
      </trkpt>
      <trkpt lat="43.10981" lon="-0.44104">
        <ele>428.89</ele>
        <time>2015-10-24T13:46:56Z</time>
      </trkpt>
      <trkpt lat="43.1098" lon="-0.44107">
        <ele>429.37</ele>
        <time>2015-10-24T13:46:57Z</time>
      </trkpt>
      <trkpt lat="43.1098" lon="-0.44109">
        <ele>429.37</ele>
        <time>2015-10-24T13:46:58Z</time>
      </trkpt>
      <trkpt lat="43.1098" lon="-0.44138">
        <ele>429.85</ele>
        <time>2015-10-24T13:47:12Z</time>
      </trkpt>
      <trkpt lat="43.1098" lon="-0.44142">
        <ele>429.85</ele>
        <time>2015-10-24T13:47:14Z</time>
      </trkpt>
      <trkpt lat="43.10979" lon="-0.44144">
        <ele>429.85</ele>
        <time>2015-10-24T13:47:15Z</time>
      </trkpt>
      <trkpt lat="43.10978" lon="-0.44145">
        <ele>429.85</ele>
        <time>2015-10-24T13:47:16Z</time>
      </trkpt>
      <trkpt lat="43.10978" lon="-0.44147">
        <ele>429.85</ele>
        <time>2015-10-24T13:47:17Z</time>
      </trkpt>
      <trkpt lat="43.10979" lon="-0.44153">
        <ele>430.33</ele>
        <time>2015-10-24T13:47:21Z</time>
      </trkpt>
      <trkpt lat="43.10979" lon="-0.44154">
        <ele>430.33</ele>
        <time>2015-10-24T13:47:22Z</time>
      </trkpt>
      <trkpt lat="43.10979" lon="-0.44156">
        <ele>430.33</ele>
        <time>2015-10-24T13:47:23Z</time>
      </trkpt>
      <trkpt lat="43.10982" lon="-0.44176">
        <ele>431.29</ele>
        <time>2015-10-24T13:47:34Z</time>
      </trkpt>
      <trkpt lat="43.10982" lon="-0.44179">
        <ele>431.77</ele>
        <time>2015-10-24T13:47:36Z</time>
      </trkpt>
      <trkpt lat="43.10986" lon="-0.44196">
        <ele>433.69</ele>
        <time>2015-10-24T13:47:48Z</time>
      </trkpt>
      <trkpt lat="43.10989" lon="-0.44203">
        <ele>435.13</ele>
        <time>2015-10-24T13:47:54Z</time>
      </trkpt>
      <trkpt lat="43.10994" lon="-0.44213">
        <ele>438.5</ele>
        <time>2015-10-24T13:48:06Z</time>
      </trkpt>
      <trkpt lat="43.11004" lon="-0.44221">
        <ele>443.31</ele>
        <time>2015-10-24T13:48:19Z</time>
      </trkpt>
      <trkpt lat="43.11012" lon="-0.44227">
        <ele>447.15</ele>
        <time>2015-10-24T13:48:29Z</time>
      </trkpt>
      <trkpt lat="43.11015" lon="-0.44232">
        <ele>447.63</ele>
        <time>2015-10-24T13:48:37Z</time>
      </trkpt>
      <trkpt lat="43.11022" lon="-0.44239">
        <ele>450.52</ele>
        <time>2015-10-24T13:48:48Z</time>
      </trkpt>
      <trkpt lat="43.11029" lon="-0.44246">
        <ele>452.44</ele>
        <time>2015-10-24T13:48:58Z</time>
      </trkpt>
      <trkpt lat="43.1103" lon="-0.44247">
        <ele>452.92</ele>
        <time>2015-10-24T13:48:59Z</time>
      </trkpt>
      <trkpt lat="43.11036" lon="-0.44252">
        <ele>453.4</ele>
        <time>2015-10-24T13:49:10Z</time>
      </trkpt>
      <trkpt lat="43.11041" lon="-0.4425">
        <ele>453.4</ele>
        <time>2015-10-24T13:49:21Z</time>
      </trkpt>
      <trkpt lat="43.11056" lon="-0.44258">
        <ele>455.32</ele>
        <time>2015-10-24T13:49:34Z</time>
      </trkpt>
      <trkpt lat="43.11058" lon="-0.44261">
        <ele>456.28</ele>
        <time>2015-10-24T13:49:37Z</time>
      </trkpt>
      <trkpt lat="43.1107" lon="-0.44266">
        <ele>460.13</ele>
        <time>2015-10-24T13:49:49Z</time>
      </trkpt>
      <trkpt lat="43.1108" lon="-0.44282">
        <ele>463.97</ele>
        <time>2015-10-24T13:50:02Z</time>
      </trkpt>
      <trkpt lat="43.11083" lon="-0.44287">
        <ele>464.93</ele>
        <time>2015-10-24T13:50:05Z</time>
      </trkpt>
      <trkpt lat="43.11098" lon="-0.4431">
        <ele>466.38</ele>
        <time>2015-10-24T13:50:16Z</time>
      </trkpt>
      <trkpt lat="43.11118" lon="-0.44341">
        <ele>465.42</ele>
        <time>2015-10-24T13:50:27Z</time>
      </trkpt>
      <trkpt lat="43.11122" lon="-0.44345">
        <ele>464.93</ele>
        <time>2015-10-24T13:50:28Z</time>
      </trkpt>
      <trkpt lat="43.11126" lon="-0.44348">
        <ele>464.93</ele>
        <time>2015-10-24T13:50:29Z</time>
      </trkpt>
      <trkpt lat="43.1113" lon="-0.44352">
        <ele>463.97</ele>
        <time>2015-10-24T13:50:30Z</time>
      </trkpt>
      <trkpt lat="43.11133" lon="-0.44356">
        <ele>463.49</ele>
        <time>2015-10-24T13:50:31Z</time>
      </trkpt>
      <trkpt lat="43.11137" lon="-0.44361">
        <ele>462.53</ele>
        <time>2015-10-24T13:50:32Z</time>
      </trkpt>
      <trkpt lat="43.1114" lon="-0.44365">
        <ele>462.05</ele>
        <time>2015-10-24T13:50:33Z</time>
      </trkpt>
      <trkpt lat="43.11141" lon="-0.4437">
        <ele>462.05</ele>
        <time>2015-10-24T13:50:34Z</time>
      </trkpt>
      <trkpt lat="43.11142" lon="-0.44374">
        <ele>461.57</ele>
        <time>2015-10-24T13:50:35Z</time>
      </trkpt>
      <trkpt lat="43.11144" lon="-0.44382">
        <ele>459.65</ele>
        <time>2015-10-24T13:50:44Z</time>
      </trkpt>
      <trkpt lat="43.11148" lon="-0.44399">
        <ele>459.17</ele>
        <time>2015-10-24T13:50:54Z</time>
      </trkpt>
      <trkpt lat="43.11149" lon="-0.44402">
        <ele>459.17</ele>
        <time>2015-10-24T13:50:55Z</time>
      </trkpt>
      <trkpt lat="43.1115" lon="-0.44407">
        <ele>459.65</ele>
        <time>2015-10-24T13:50:57Z</time>
      </trkpt>
      <trkpt lat="43.11154" lon="-0.44423">
        <ele>461.57</ele>
        <time>2015-10-24T13:51:04Z</time>
      </trkpt>
      <trkpt lat="43.11156" lon="-0.44428">
        <ele>462.05</ele>
        <time>2015-10-24T13:51:06Z</time>
      </trkpt>
      <trkpt lat="43.1116" lon="-0.44443">
        <ele>463.49</ele>
        <time>2015-10-24T13:51:11Z</time>
      </trkpt>
      <trkpt lat="43.11171" lon="-0.44488">
        <ele>465.9</ele>
        <time>2015-10-24T13:51:25Z</time>
      </trkpt>
      <trkpt lat="43.11171" lon="-0.44517">
        <ele>471.18</ele>
        <time>2015-10-24T13:51:36Z</time>
      </trkpt>
      <trkpt lat="43.1118" lon="-0.44553">
        <ele>475.03</ele>
        <time>2015-10-24T13:51:47Z</time>
      </trkpt>
      <trkpt lat="43.11192" lon="-0.44614">
        <ele>473.59</ele>
        <time>2015-10-24T13:51:59Z</time>
      </trkpt>
      <trkpt lat="43.11191" lon="-0.44623">
        <ele>471.66</ele>
        <time>2015-10-24T13:52:07Z</time>
      </trkpt>
      <trkpt lat="43.11191" lon="-0.44632">
        <ele>472.14</ele>
        <time>2015-10-24T13:52:15Z</time>
      </trkpt>
      <trkpt lat="43.11191" lon="-0.44647">
        <ele>472.63</ele>
        <time>2015-10-24T13:52:22Z</time>
      </trkpt>
      <trkpt lat="43.1119" lon="-0.44658">
        <ele>473.11</ele>
        <time>2015-10-24T13:52:27Z</time>
      </trkpt>
      <trkpt lat="43.11187" lon="-0.4467">
        <ele>475.03</ele>
        <time>2015-10-24T13:52:32Z</time>
      </trkpt>
      <trkpt lat="43.1119" lon="-0.44719">
        <ele>475.99</ele>
        <time>2015-10-24T13:52:43Z</time>
      </trkpt>
      <trkpt lat="43.11198" lon="-0.44791">
        <ele>475.51</ele>
        <time>2015-10-24T13:52:54Z</time>
      </trkpt>
      <trkpt lat="43.11207" lon="-0.44823">
        <ele>471.18</ele>
        <time>2015-10-24T13:53:04Z</time>
      </trkpt>
      <trkpt lat="43.11208" lon="-0.44835">
        <ele>470.22</ele>
        <time>2015-10-24T13:53:08Z</time>
      </trkpt>
      <trkpt lat="43.1121" lon="-0.44877">
        <ele>473.11</ele>
        <time>2015-10-24T13:53:20Z</time>
      </trkpt>
      <trkpt lat="43.11212" lon="-0.44893">
        <ele>474.55</ele>
        <time>2015-10-24T13:53:25Z</time>
      </trkpt>
      <trkpt lat="43.11223" lon="-0.44929">
        <ele>473.11</ele>
        <time>2015-10-24T13:53:35Z</time>
      </trkpt>
      <trkpt lat="43.11235" lon="-0.44952">
        <ele>472.63</ele>
        <time>2015-10-24T13:53:45Z</time>
      </trkpt>
      <trkpt lat="43.11247" lon="-0.44975">
        <ele>474.07</ele>
        <time>2015-10-24T13:53:58Z</time>
      </trkpt>
      <trkpt lat="43.11254" lon="-0.44995">
        <ele>474.55</ele>
        <time>2015-10-24T13:54:09Z</time>
      </trkpt>
      <trkpt lat="43.11277" lon="-0.45006">
        <ele>476.47</ele>
        <time>2015-10-24T13:54:20Z</time>
      </trkpt>
      <trkpt lat="43.11281" lon="-0.45007">
        <ele>476.95</ele>
        <time>2015-10-24T13:54:22Z</time>
      </trkpt>
      <trkpt lat="43.11298" lon="-0.45015">
        <ele>472.14</ele>
        <time>2015-10-24T13:54:34Z</time>
      </trkpt>
      <trkpt lat="43.11311" lon="-0.45015">
        <ele>471.66</ele>
        <time>2015-10-24T13:54:46Z</time>
      </trkpt>
      <trkpt lat="43.1132" lon="-0.45007">
        <ele>473.59</ele>
        <time>2015-10-24T13:54:59Z</time>
      </trkpt>
      <trkpt lat="43.1132" lon="-0.45007">
        <ele>473.59</ele>
        <time>2015-10-24T13:55:02Z</time>
      </trkpt>
      <trkpt lat="43.11328" lon="-0.44989">
        <ele>473.11</ele>
        <time>2015-10-24T13:55:15Z</time>
      </trkpt>
      <trkpt lat="43.11338" lon="-0.44976">
        <ele>471.66</ele>
        <time>2015-10-24T13:55:27Z</time>
      </trkpt>
      <trkpt lat="43.11351" lon="-0.44963">
        <ele>472.63</ele>
        <time>2015-10-24T13:55:41Z</time>
      </trkpt>
      <trkpt lat="43.11359" lon="-0.44956">
        <ele>474.07</ele>
        <time>2015-10-24T13:55:54Z</time>
      </trkpt>
      <trkpt lat="43.11364" lon="-0.44948">
        <ele>477.91</ele>
        <time>2015-10-24T13:56:04Z</time>
      </trkpt>
      <trkpt lat="43.11366" lon="-0.44935">
        <ele>481.28</ele>
        <time>2015-10-24T13:56:17Z</time>
      </trkpt>
      <trkpt lat="43.11365" lon="-0.44923">
        <ele>482.72</ele>
        <time>2015-10-24T13:56:30Z</time>
      </trkpt>
      <trkpt lat="43.11366" lon="-0.44913">
        <ele>485.12</ele>
        <time>2015-10-24T13:56:44Z</time>
      </trkpt>
      <trkpt lat="43.11369" lon="-0.44903">
        <ele>487.05</ele>
        <time>2015-10-24T13:56:57Z</time>
      </trkpt>
      <trkpt lat="43.11374" lon="-0.44893">
        <ele>488.49</ele>
        <time>2015-10-24T13:57:12Z</time>
      </trkpt>
      <trkpt lat="43.11376" lon="-0.44886">
        <ele>490.89</ele>
        <time>2015-10-24T13:57:23Z</time>
      </trkpt>
      <trkpt lat="43.11379" lon="-0.44876">
        <ele>494.74</ele>
        <time>2015-10-24T13:57:37Z</time>
      </trkpt>
      <trkpt lat="43.11379" lon="-0.4487">
        <ele>497.14</ele>
        <time>2015-10-24T13:57:45Z</time>
      </trkpt>
      <trkpt lat="43.11383" lon="-0.44869">
        <ele>499.06</ele>
        <time>2015-10-24T13:57:57Z</time>
      </trkpt>
      <trkpt lat="43.11383" lon="-0.4487">
        <ele>499.06</ele>
        <time>2015-10-24T13:58:01Z</time>
      </trkpt>
      <trkpt lat="43.11392" lon="-0.44876">
        <ele>501.95</ele>
        <time>2015-10-24T13:58:11Z</time>
      </trkpt>
      <trkpt lat="43.11404" lon="-0.4489">
        <ele>507.71</ele>
        <time>2015-10-24T13:58:27Z</time>
      </trkpt>
      <trkpt lat="43.11406" lon="-0.44893">
        <ele>508.67</ele>
        <time>2015-10-24T13:58:30Z</time>
      </trkpt>
      <trkpt lat="43.11419" lon="-0.44896">
        <ele>511.08</ele>
        <time>2015-10-24T13:58:44Z</time>
      </trkpt>
      <trkpt lat="43.11432" lon="-0.44896">
        <ele>512.52</ele>
        <time>2015-10-24T13:58:57Z</time>
      </trkpt>
      <trkpt lat="43.11437" lon="-0.44898">
        <ele>515.4</ele>
        <time>2015-10-24T13:59:06Z</time>
      </trkpt>
      <trkpt lat="43.11445" lon="-0.44896">
        <ele>519.25</ele>
        <time>2015-10-24T13:59:16Z</time>
      </trkpt>
      <trkpt lat="43.11451" lon="-0.44897">
        <ele>523.09</ele>
        <time>2015-10-24T13:59:28Z</time>
      </trkpt>
      <trkpt lat="43.11456" lon="-0.44903">
        <ele>526.94</ele>
        <time>2015-10-24T13:59:38Z</time>
      </trkpt>
      <trkpt lat="43.11464" lon="-0.44904">
        <ele>532.71</ele>
        <time>2015-10-24T13:59:52Z</time>
      </trkpt>
      <trkpt lat="43.1147" lon="-0.44904">
        <ele>536.07</ele>
        <time>2015-10-24T14:00:03Z</time>
      </trkpt>
      <trkpt lat="43.11477" lon="-0.44905">
        <ele>537.51</ele>
        <time>2015-10-24T14:00:15Z</time>
      </trkpt>
      <trkpt lat="43.11478" lon="-0.44905">
        <ele>537.51</ele>
        <time>2015-10-24T14:00:16Z</time>
      </trkpt>
      <trkpt lat="43.11486" lon="-0.44909">
        <ele>539.44</ele>
        <time>2015-10-24T14:00:27Z</time>
      </trkpt>
      <trkpt lat="43.11488" lon="-0.44908">
        <ele>539.92</ele>
        <time>2015-10-24T14:00:30Z</time>
      </trkpt>
      <trkpt lat="43.11531" lon="-0.44903">
        <ele>533.67</ele>
        <time>2015-10-24T14:00:42Z</time>
      </trkpt>
      <trkpt lat="43.11563" lon="-0.44893">
        <ele>525.5</ele>
        <time>2015-10-24T14:00:51Z</time>
      </trkpt>
      <trkpt lat="43.11568" lon="-0.44893">
        <ele>525.02</ele>
        <time>2015-10-24T14:00:52Z</time>
      </trkpt>
      <trkpt lat="43.11605" lon="-0.44886">
        <ele>521.17</ele>
        <time>2015-10-24T14:01:02Z</time>
      </trkpt>
      <trkpt lat="43.11627" lon="-0.44894">
        <ele>517.81</ele>
        <time>2015-10-24T14:01:07Z</time>
      </trkpt>
      <trkpt lat="43.11633" lon="-0.44897">
        <ele>517.33</ele>
        <time>2015-10-24T14:01:08Z</time>
      </trkpt>
      <trkpt lat="43.11639" lon="-0.44898">
        <ele>516.85</ele>
        <time>2015-10-24T14:01:09Z</time>
      </trkpt>
      <trkpt lat="43.11645" lon="-0.44898">
        <ele>516.37</ele>
        <time>2015-10-24T14:01:10Z</time>
      </trkpt>
      <trkpt lat="43.11651" lon="-0.44898">
        <ele>515.88</ele>
        <time>2015-10-24T14:01:11Z</time>
      </trkpt>
      <trkpt lat="43.1167" lon="-0.449">
        <ele>514.44</ele>
        <time>2015-10-24T14:01:15Z</time>
      </trkpt>
      <trkpt lat="43.11675" lon="-0.44899">
        <ele>513.48</ele>
        <time>2015-10-24T14:01:16Z</time>
      </trkpt>
      <trkpt lat="43.11712" lon="-0.44897">
        <ele>509.16</ele>
        <time>2015-10-24T14:01:22Z</time>
      </trkpt>
      <trkpt lat="43.1178" lon="-0.44914">
        <ele>502.91</ele>
        <time>2015-10-24T14:01:32Z</time>
      </trkpt>
      <trkpt lat="43.11794" lon="-0.44921">
        <ele>501.95</ele>
        <time>2015-10-24T14:01:34Z</time>
      </trkpt>
      <trkpt lat="43.118" lon="-0.44926">
        <ele>501.95</ele>
        <time>2015-10-24T14:01:35Z</time>
      </trkpt>
      <trkpt lat="43.11804" lon="-0.44933">
        <ele>501.46</ele>
        <time>2015-10-24T14:01:36Z</time>
      </trkpt>
      <trkpt lat="43.11807" lon="-0.4494">
        <ele>501.46</ele>
        <time>2015-10-24T14:01:37Z</time>
      </trkpt>
      <trkpt lat="43.11809" lon="-0.44948">
        <ele>500.98</ele>
        <time>2015-10-24T14:01:38Z</time>
      </trkpt>
      <trkpt lat="43.11809" lon="-0.44956">
        <ele>500.5</ele>
        <time>2015-10-24T14:01:39Z</time>
      </trkpt>
      <trkpt lat="43.11812" lon="-0.44971">
        <ele>499.54</ele>
        <time>2015-10-24T14:01:41Z</time>
      </trkpt>
      <trkpt lat="43.11816" lon="-0.44977">
        <ele>499.06</ele>
        <time>2015-10-24T14:01:42Z</time>
      </trkpt>
      <trkpt lat="43.11821" lon="-0.44981">
        <ele>498.58</ele>
        <time>2015-10-24T14:01:43Z</time>
      </trkpt>
      <trkpt lat="43.11826" lon="-0.44983">
        <ele>498.58</ele>
        <time>2015-10-24T14:01:44Z</time>
      </trkpt>
      <trkpt lat="43.11832" lon="-0.44983">
        <ele>498.1</ele>
        <time>2015-10-24T14:01:45Z</time>
      </trkpt>
      <trkpt lat="43.11838" lon="-0.44982">
        <ele>498.1</ele>
        <time>2015-10-24T14:01:46Z</time>
      </trkpt>
      <trkpt lat="43.11843" lon="-0.44982">
        <ele>498.1</ele>
        <time>2015-10-24T14:01:47Z</time>
      </trkpt>
      <trkpt lat="43.11848" lon="-0.44982">
        <ele>498.1</ele>
        <time>2015-10-24T14:01:48Z</time>
      </trkpt>
      <trkpt lat="43.11853" lon="-0.44983">
        <ele>498.1</ele>
        <time>2015-10-24T14:01:49Z</time>
      </trkpt>
      <trkpt lat="43.11857" lon="-0.44985">
        <ele>497.62</ele>
        <time>2015-10-24T14:01:50Z</time>
      </trkpt>
      <trkpt lat="43.11861" lon="-0.44987">
        <ele>497.62</ele>
        <time>2015-10-24T14:01:51Z</time>
      </trkpt>
      <trkpt lat="43.11865" lon="-0.44989">
        <ele>497.14</ele>
        <time>2015-10-24T14:01:52Z</time>
      </trkpt>
      <trkpt lat="43.11868" lon="-0.44992">
        <ele>496.66</ele>
        <time>2015-10-24T14:01:53Z</time>
      </trkpt>
      <trkpt lat="43.11872" lon="-0.44994">
        <ele>496.18</ele>
        <time>2015-10-24T14:01:54Z</time>
      </trkpt>
      <trkpt lat="43.11876" lon="-0.44995">
        <ele>495.7</ele>
        <time>2015-10-24T14:01:55Z</time>
      </trkpt>
      <trkpt lat="43.1188" lon="-0.44995">
        <ele>495.7</ele>
        <time>2015-10-24T14:01:56Z</time>
      </trkpt>
      <trkpt lat="43.11882" lon="-0.44992">
        <ele>495.22</ele>
        <time>2015-10-24T14:01:57Z</time>
      </trkpt>
      <trkpt lat="43.11884" lon="-0.44989">
        <ele>495.22</ele>
        <time>2015-10-24T14:01:58Z</time>
      </trkpt>
      <trkpt lat="43.11893" lon="-0.44947">
        <ele>498.58</ele>
        <time>2015-10-24T14:02:09Z</time>
      </trkpt>
      <trkpt lat="43.1189" lon="-0.44926">
        <ele>499.06</ele>
        <time>2015-10-24T14:02:14Z</time>
      </trkpt>
      <trkpt lat="43.1189" lon="-0.4492">
        <ele>499.06</ele>
        <time>2015-10-24T14:02:15Z</time>
      </trkpt>
      <trkpt lat="43.11896" lon="-0.4488">
        <ele>500.5</ele>
        <time>2015-10-24T14:02:25Z</time>
      </trkpt>
      <trkpt lat="43.11904" lon="-0.44836">
        <ele>499.54</ele>
        <time>2015-10-24T14:02:35Z</time>
      </trkpt>
      <trkpt lat="43.11919" lon="-0.44797">
        <ele>500.5</ele>
        <time>2015-10-24T14:02:47Z</time>
      </trkpt>
      <trkpt lat="43.1194" lon="-0.44778">
        <ele>501.46</ele>
        <time>2015-10-24T14:02:58Z</time>
      </trkpt>
      <trkpt lat="43.11953" lon="-0.44746">
        <ele>501.46</ele>
        <time>2015-10-24T14:03:09Z</time>
      </trkpt>
      <trkpt lat="43.11947" lon="-0.44725">
        <ele>503.39</ele>
        <time>2015-10-24T14:03:21Z</time>
      </trkpt>
      <trkpt lat="43.11945" lon="-0.4472">
        <ele>503.39</ele>
        <time>2015-10-24T14:03:26Z</time>
      </trkpt>
      <trkpt lat="43.11944" lon="-0.44717">
        <ele>503.39</ele>
        <time>2015-10-24T14:03:28Z</time>
      </trkpt>
      <trkpt lat="43.11944" lon="-0.44715">
        <ele>503.39</ele>
        <time>2015-10-24T14:03:29Z</time>
      </trkpt>
      <trkpt lat="43.11943" lon="-0.44713">
        <ele>503.39</ele>
        <time>2015-10-24T14:03:30Z</time>
      </trkpt>
      <trkpt lat="43.11943" lon="-0.44712">
        <ele>503.39</ele>
        <time>2015-10-24T14:03:31Z</time>
      </trkpt>
      <trkpt lat="43.11942" lon="-0.44711">
        <ele>503.39</ele>
        <time>2015-10-24T14:03:32Z</time>
      </trkpt>
      <trkpt lat="43.11941" lon="-0.44709">
        <ele>503.39</ele>
        <time>2015-10-24T14:03:33Z</time>
      </trkpt>
      <trkpt lat="43.11941" lon="-0.44708">
        <ele>503.39</ele>
        <time>2015-10-24T14:03:34Z</time>
      </trkpt>
      <trkpt lat="43.11933" lon="-0.44691">
        <ele>507.23</ele>
        <time>2015-10-24T14:03:46Z</time>
      </trkpt>
      <trkpt lat="43.11925" lon="-0.44674">
        <ele>507.71</ele>
        <time>2015-10-24T14:03:50Z</time>
      </trkpt>
      <trkpt lat="43.11922" lon="-0.4467">
        <ele>507.71</ele>
        <time>2015-10-24T14:03:51Z</time>
      </trkpt>
      <trkpt lat="43.1191" lon="-0.44636">
        <ele>509.64</ele>
        <time>2015-10-24T14:04:00Z</time>
      </trkpt>
      <trkpt lat="43.11899" lon="-0.44604">
        <ele>514.44</ele>
        <time>2015-10-24T14:04:14Z</time>
      </trkpt>
      <trkpt lat="43.11894" lon="-0.44569">
        <ele>513.96</ele>
        <time>2015-10-24T14:04:25Z</time>
      </trkpt>
      <trkpt lat="43.11892" lon="-0.44525">
        <ele>510.12</ele>
        <time>2015-10-24T14:04:30Z</time>
      </trkpt>
      <trkpt lat="43.11894" lon="-0.44518">
        <ele>509.16</ele>
        <time>2015-10-24T14:04:31Z</time>
      </trkpt>
      <trkpt lat="43.11897" lon="-0.44512">
        <ele>508.67</ele>
        <time>2015-10-24T14:04:32Z</time>
      </trkpt>
      <trkpt lat="43.11902" lon="-0.44509">
        <ele>508.19</ele>
        <time>2015-10-24T14:04:33Z</time>
      </trkpt>
      <trkpt lat="43.11906" lon="-0.44509">
        <ele>507.71</ele>
        <time>2015-10-24T14:04:34Z</time>
      </trkpt>
      <trkpt lat="43.11911" lon="-0.44509">
        <ele>507.23</ele>
        <time>2015-10-24T14:04:35Z</time>
      </trkpt>
      <trkpt lat="43.11916" lon="-0.4451">
        <ele>506.75</ele>
        <time>2015-10-24T14:04:36Z</time>
      </trkpt>
      <trkpt lat="43.11922" lon="-0.44511">
        <ele>506.27</ele>
        <time>2015-10-24T14:04:37Z</time>
      </trkpt>
      <trkpt lat="43.11927" lon="-0.44513">
        <ele>505.79</ele>
        <time>2015-10-24T14:04:38Z</time>
      </trkpt>
      <trkpt lat="43.11965" lon="-0.44523">
        <ele>503.39</ele>
        <time>2015-10-24T14:04:44Z</time>
      </trkpt>
      <trkpt lat="43.12007" lon="-0.44525">
        <ele>500.98</ele>
        <time>2015-10-24T14:04:50Z</time>
      </trkpt>
      <trkpt lat="43.12014" lon="-0.44524">
        <ele>500.02</ele>
        <time>2015-10-24T14:04:51Z</time>
      </trkpt>
      <trkpt lat="43.1203" lon="-0.44521">
        <ele>499.54</ele>
        <time>2015-10-24T14:04:53Z</time>
      </trkpt>
      <trkpt lat="43.12037" lon="-0.44521">
        <ele>499.54</ele>
        <time>2015-10-24T14:04:54Z</time>
      </trkpt>
      <trkpt lat="43.12045" lon="-0.44522">
        <ele>499.06</ele>
        <time>2015-10-24T14:04:55Z</time>
      </trkpt>
      <trkpt lat="43.12074" lon="-0.4453">
        <ele>499.06</ele>
        <time>2015-10-24T14:04:59Z</time>
      </trkpt>
      <trkpt lat="43.12109" lon="-0.44538">
        <ele>498.58</ele>
        <time>2015-10-24T14:05:04Z</time>
      </trkpt>
      <trkpt lat="43.12115" lon="-0.44541">
        <ele>498.58</ele>
        <time>2015-10-24T14:05:05Z</time>
      </trkpt>
      <trkpt lat="43.12122" lon="-0.44543">
        <ele>498.1</ele>
        <time>2015-10-24T14:05:06Z</time>
      </trkpt>
      <trkpt lat="43.12172" lon="-0.44545">
        <ele>497.14</ele>
        <time>2015-10-24T14:05:13Z</time>
      </trkpt>
      <trkpt lat="43.1218" lon="-0.44546">
        <ele>497.14</ele>
        <time>2015-10-24T14:05:14Z</time>
      </trkpt>
      <trkpt lat="43.12196" lon="-0.44549">
        <ele>497.14</ele>
        <time>2015-10-24T14:05:16Z</time>
      </trkpt>
      <trkpt lat="43.12202" lon="-0.44552">
        <ele>496.66</ele>
        <time>2015-10-24T14:05:17Z</time>
      </trkpt>
      <trkpt lat="43.12207" lon="-0.44554">
        <ele>496.66</ele>
        <time>2015-10-24T14:05:18Z</time>
      </trkpt>
      <trkpt lat="43.1222" lon="-0.44557">
        <ele>496.18</ele>
        <time>2015-10-24T14:05:20Z</time>
      </trkpt>
      <trkpt lat="43.12226" lon="-0.44558">
        <ele>495.7</ele>
        <time>2015-10-24T14:05:21Z</time>
      </trkpt>
      <trkpt lat="43.12232" lon="-0.44559">
        <ele>495.22</ele>
        <time>2015-10-24T14:05:22Z</time>
      </trkpt>
      <trkpt lat="43.12237" lon="-0.44562">
        <ele>494.74</ele>
        <time>2015-10-24T14:05:23Z</time>
      </trkpt>
      <trkpt lat="43.1224" lon="-0.44567">
        <ele>494.26</ele>
        <time>2015-10-24T14:05:24Z</time>
      </trkpt>
      <trkpt lat="43.12243" lon="-0.44573">
        <ele>494.26</ele>
        <time>2015-10-24T14:05:25Z</time>
      </trkpt>
      <trkpt lat="43.12244" lon="-0.44578">
        <ele>493.77</ele>
        <time>2015-10-24T14:05:26Z</time>
      </trkpt>
      <trkpt lat="43.12242" lon="-0.44589">
        <ele>493.77</ele>
        <time>2015-10-24T14:05:29Z</time>
      </trkpt>
      <trkpt lat="43.12236" lon="-0.44609">
        <ele>495.22</ele>
        <time>2015-10-24T14:05:33Z</time>
      </trkpt>
      <trkpt lat="43.1224" lon="-0.44616">
        <ele>495.22</ele>
        <time>2015-10-24T14:05:34Z</time>
      </trkpt>
      <trkpt lat="43.12244" lon="-0.44623">
        <ele>495.22</ele>
        <time>2015-10-24T14:05:35Z</time>
      </trkpt>
      <trkpt lat="43.1225" lon="-0.4463">
        <ele>494.74</ele>
        <time>2015-10-24T14:05:36Z</time>
      </trkpt>
      <trkpt lat="43.12261" lon="-0.44645">
        <ele>494.26</ele>
        <time>2015-10-24T14:05:38Z</time>
      </trkpt>
      <trkpt lat="43.12265" lon="-0.44652">
        <ele>493.77</ele>
        <time>2015-10-24T14:05:39Z</time>
      </trkpt>
      <trkpt lat="43.12269" lon="-0.44659">
        <ele>493.77</ele>
        <time>2015-10-24T14:05:40Z</time>
      </trkpt>
      <trkpt lat="43.12274" lon="-0.44665">
        <ele>493.29</ele>
        <time>2015-10-24T14:05:41Z</time>
      </trkpt>
      <trkpt lat="43.12278" lon="-0.44671">
        <ele>492.81</ele>
        <time>2015-10-24T14:05:42Z</time>
      </trkpt>
      <trkpt lat="43.12283" lon="-0.44676">
        <ele>492.33</ele>
        <time>2015-10-24T14:05:43Z</time>
      </trkpt>
      <trkpt lat="43.12289" lon="-0.44679">
        <ele>491.37</ele>
        <time>2015-10-24T14:05:44Z</time>
      </trkpt>
      <trkpt lat="43.12295" lon="-0.4468">
        <ele>490.89</ele>
        <time>2015-10-24T14:05:45Z</time>
      </trkpt>
      <trkpt lat="43.12302" lon="-0.44683">
        <ele>488.97</ele>
        <time>2015-10-24T14:05:46Z</time>
      </trkpt>
      <trkpt lat="43.12308" lon="-0.44686">
        <ele>487.05</ele>
        <time>2015-10-24T14:05:47Z</time>
      </trkpt>
      <trkpt lat="43.12313" lon="-0.44692">
        <ele>486.08</ele>
        <time>2015-10-24T14:05:48Z</time>
      </trkpt>
      <trkpt lat="43.12317" lon="-0.447">
        <ele>485.6</ele>
        <time>2015-10-24T14:05:49Z</time>
      </trkpt>
      <trkpt lat="43.12322" lon="-0.44708">
        <ele>484.64</ele>
        <time>2015-10-24T14:05:50Z</time>
      </trkpt>
      <trkpt lat="43.1234" lon="-0.44743">
        <ele>481.28</ele>
        <time>2015-10-24T14:05:54Z</time>
      </trkpt>
      <trkpt lat="43.12345" lon="-0.44748">
        <ele>480.8</ele>
        <time>2015-10-24T14:05:55Z</time>
      </trkpt>
      <trkpt lat="43.1235" lon="-0.44751">
        <ele>479.84</ele>
        <time>2015-10-24T14:05:56Z</time>
      </trkpt>
      <trkpt lat="43.12369" lon="-0.44759">
        <ele>477.43</ele>
        <time>2015-10-24T14:05:59Z</time>
      </trkpt>
      <trkpt lat="43.12376" lon="-0.44763">
        <ele>477.43</ele>
        <time>2015-10-24T14:06:00Z</time>
      </trkpt>
      <trkpt lat="43.12389" lon="-0.44772">
        <ele>476.47</ele>
        <time>2015-10-24T14:06:02Z</time>
      </trkpt>
      <trkpt lat="43.12403" lon="-0.44779">
        <ele>475.99</ele>
        <time>2015-10-24T14:06:04Z</time>
      </trkpt>
      <trkpt lat="43.12408" lon="-0.44781">
        <ele>475.51</ele>
        <time>2015-10-24T14:06:05Z</time>
      </trkpt>
      <trkpt lat="43.12412" lon="-0.4478">
        <ele>474.55</ele>
        <time>2015-10-24T14:06:06Z</time>
      </trkpt>
      <trkpt lat="43.12421" lon="-0.44777">
        <ele>472.63</ele>
        <time>2015-10-24T14:06:08Z</time>
      </trkpt>
      <trkpt lat="43.12427" lon="-0.44776">
        <ele>471.66</ele>
        <time>2015-10-24T14:06:09Z</time>
      </trkpt>
      <trkpt lat="43.12433" lon="-0.44776">
        <ele>471.18</ele>
        <time>2015-10-24T14:06:10Z</time>
      </trkpt>
      <trkpt lat="43.1244" lon="-0.44777">
        <ele>469.74</ele>
        <time>2015-10-24T14:06:11Z</time>
      </trkpt>
      <trkpt lat="43.12447" lon="-0.44777">
        <ele>468.78</ele>
        <time>2015-10-24T14:06:12Z</time>
      </trkpt>
      <trkpt lat="43.12455" lon="-0.44776">
        <ele>467.82</ele>
        <time>2015-10-24T14:06:13Z</time>
      </trkpt>
      <trkpt lat="43.12461" lon="-0.44777">
        <ele>467.82</ele>
        <time>2015-10-24T14:06:14Z</time>
      </trkpt>
      <trkpt lat="43.12466" lon="-0.4478">
        <ele>467.34</ele>
        <time>2015-10-24T14:06:15Z</time>
      </trkpt>
      <trkpt lat="43.12472" lon="-0.44782">
        <ele>466.86</ele>
        <time>2015-10-24T14:06:16Z</time>
      </trkpt>
      <trkpt lat="43.12476" lon="-0.44781">
        <ele>466.86</ele>
        <time>2015-10-24T14:06:17Z</time>
      </trkpt>
      <trkpt lat="43.1248" lon="-0.44781">
        <ele>466.38</ele>
        <time>2015-10-24T14:06:18Z</time>
      </trkpt>
      <trkpt lat="43.12499" lon="-0.4477">
        <ele>463.49</ele>
        <time>2015-10-24T14:06:23Z</time>
      </trkpt>
      <trkpt lat="43.12503" lon="-0.44767">
        <ele>463.49</ele>
        <time>2015-10-24T14:06:24Z</time>
      </trkpt>
      <trkpt lat="43.12507" lon="-0.44765">
        <ele>463.01</ele>
        <time>2015-10-24T14:06:25Z</time>
      </trkpt>
      <trkpt lat="43.12532" lon="-0.44749">
        <ele>460.13</ele>
        <time>2015-10-24T14:06:35Z</time>
      </trkpt>
      <trkpt lat="43.12553" lon="-0.44748">
        <ele>459.17</ele>
        <time>2015-10-24T14:06:41Z</time>
      </trkpt>
      <trkpt lat="43.12557" lon="-0.44749">
        <ele>459.17</ele>
        <time>2015-10-24T14:06:42Z</time>
      </trkpt>
      <trkpt lat="43.12562" lon="-0.44749">
        <ele>459.17</ele>
        <time>2015-10-24T14:06:43Z</time>
      </trkpt>
      <trkpt lat="43.12566" lon="-0.4475">
        <ele>459.17</ele>
        <time>2015-10-24T14:06:44Z</time>
      </trkpt>
      <trkpt lat="43.12571" lon="-0.44752">
        <ele>458.69</ele>
        <time>2015-10-24T14:06:45Z</time>
      </trkpt>
      <trkpt lat="43.12576" lon="-0.44755">
        <ele>458.21</ele>
        <time>2015-10-24T14:06:46Z</time>
      </trkpt>
      <trkpt lat="43.12582" lon="-0.44757">
        <ele>457.72</ele>
        <time>2015-10-24T14:06:47Z</time>
      </trkpt>
      <trkpt lat="43.12587" lon="-0.44761">
        <ele>456.76</ele>
        <time>2015-10-24T14:06:48Z</time>
      </trkpt>
      <trkpt lat="43.12591" lon="-0.44765">
        <ele>456.28</ele>
        <time>2015-10-24T14:06:49Z</time>
      </trkpt>
      <trkpt lat="43.12594" lon="-0.44769">
        <ele>455.8</ele>
        <time>2015-10-24T14:06:50Z</time>
      </trkpt>
      <trkpt lat="43.12599" lon="-0.44773">
        <ele>455.8</ele>
        <time>2015-10-24T14:06:51Z</time>
      </trkpt>
      <trkpt lat="43.12603" lon="-0.44773">
        <ele>455.32</ele>
        <time>2015-10-24T14:06:52Z</time>
      </trkpt>
      <trkpt lat="43.12607" lon="-0.44769">
        <ele>454.84</ele>
        <time>2015-10-24T14:06:53Z</time>
      </trkpt>
      <trkpt lat="43.1261" lon="-0.44764">
        <ele>454.36</ele>
        <time>2015-10-24T14:06:54Z</time>
      </trkpt>
      <trkpt lat="43.12612" lon="-0.44757">
        <ele>454.36</ele>
        <time>2015-10-24T14:06:55Z</time>
      </trkpt>
      <trkpt lat="43.12616" lon="-0.44741">
        <ele>453.4</ele>
        <time>2015-10-24T14:06:57Z</time>
      </trkpt>
      <trkpt lat="43.12617" lon="-0.44732">
        <ele>452.92</ele>
        <time>2015-10-24T14:06:58Z</time>
      </trkpt>
      <trkpt lat="43.1262" lon="-0.44678">
        <ele>442.34</ele>
        <time>2015-10-24T14:07:04Z</time>
      </trkpt>
      <trkpt lat="43.12619" lon="-0.4467">
        <ele>440.9</ele>
        <time>2015-10-24T14:07:05Z</time>
      </trkpt>
      <trkpt lat="43.12617" lon="-0.44664">
        <ele>439.94</ele>
        <time>2015-10-24T14:07:06Z</time>
      </trkpt>
      <trkpt lat="43.12616" lon="-0.44659">
        <ele>438.98</ele>
        <time>2015-10-24T14:07:07Z</time>
      </trkpt>
      <trkpt lat="43.12615" lon="-0.44656">
        <ele>438.5</ele>
        <time>2015-10-24T14:07:08Z</time>
      </trkpt>
      <trkpt lat="43.12614" lon="-0.44651">
        <ele>436.58</ele>
        <time>2015-10-24T14:07:14Z</time>
      </trkpt>
      <trkpt lat="43.12613" lon="-0.44645">
        <ele>436.58</ele>
        <time>2015-10-24T14:07:19Z</time>
      </trkpt>
      <trkpt lat="43.12614" lon="-0.4464">
        <ele>438.02</ele>
        <time>2015-10-24T14:07:24Z</time>
      </trkpt>
      <trkpt lat="43.12615" lon="-0.44638">
        <ele>438.02</ele>
        <time>2015-10-24T14:07:25Z</time>
      </trkpt>
      <trkpt lat="43.12614" lon="-0.44636">
        <ele>438.98</ele>
        <time>2015-10-24T14:07:31Z</time>
      </trkpt>
      <trkpt lat="43.12614" lon="-0.44635">
        <ele>439.46</ele>
        <time>2015-10-24T14:07:32Z</time>
      </trkpt>
      <trkpt lat="43.12613" lon="-0.44633">
        <ele>439.94</ele>
        <time>2015-10-24T14:07:33Z</time>
      </trkpt>
      <trkpt lat="43.12605" lon="-0.44612">
        <ele>443.79</ele>
        <time>2015-10-24T14:07:42Z</time>
      </trkpt>
      <trkpt lat="43.12603" lon="-0.44603">
        <ele>445.71</ele>
        <time>2015-10-24T14:07:46Z</time>
      </trkpt>
      <trkpt lat="43.12602" lon="-0.44601">
        <ele>445.71</ele>
        <time>2015-10-24T14:07:47Z</time>
      </trkpt>
      <trkpt lat="43.12602" lon="-0.44599">
        <ele>446.19</ele>
        <time>2015-10-24T14:07:48Z</time>
      </trkpt>
      <trkpt lat="43.126" lon="-0.44585">
        <ele>449.55</ele>
        <time>2015-10-24T14:07:53Z</time>
      </trkpt>
      <trkpt lat="43.126" lon="-0.44583">
        <ele>450.03</ele>
        <time>2015-10-24T14:07:54Z</time>
      </trkpt>
      <trkpt lat="43.12599" lon="-0.44581">
        <ele>450.52</ele>
        <time>2015-10-24T14:07:55Z</time>
      </trkpt>
      <trkpt lat="43.12599" lon="-0.44579">
        <ele>450.52</ele>
        <time>2015-10-24T14:07:56Z</time>
      </trkpt>
      <trkpt lat="43.12597" lon="-0.44562">
        <ele>452.92</ele>
        <time>2015-10-24T14:08:08Z</time>
      </trkpt>
      <trkpt lat="43.12599" lon="-0.44553">
        <ele>454.36</ele>
        <time>2015-10-24T14:08:19Z</time>
      </trkpt>
      <trkpt lat="43.12602" lon="-0.44546">
        <ele>456.76</ele>
        <time>2015-10-24T14:08:30Z</time>
      </trkpt>
      <trkpt lat="43.12606" lon="-0.44531">
        <ele>459.65</ele>
        <time>2015-10-24T14:08:41Z</time>
      </trkpt>
      <trkpt lat="43.12608" lon="-0.44517">
        <ele>464.45</ele>
        <time>2015-10-24T14:08:54Z</time>
      </trkpt>
      <trkpt lat="43.1261" lon="-0.44513">
        <ele>462.53</ele>
        <time>2015-10-24T14:09:00Z</time>
      </trkpt>
      <trkpt lat="43.1261" lon="-0.44507">
        <ele>462.53</ele>
        <time>2015-10-24T14:09:03Z</time>
      </trkpt>
      <trkpt lat="43.12609" lon="-0.44502">
        <ele>461.09</ele>
        <time>2015-10-24T14:09:07Z</time>
      </trkpt>
      <trkpt lat="43.12609" lon="-0.44501">
        <ele>460.61</ele>
        <time>2015-10-24T14:09:08Z</time>
      </trkpt>
      <trkpt lat="43.12609" lon="-0.445">
        <ele>460.61</ele>
        <time>2015-10-24T14:09:09Z</time>
      </trkpt>
      <trkpt lat="43.12625" lon="-0.44495">
        <ele>461.57</ele>
        <time>2015-10-24T14:09:20Z</time>
      </trkpt>
      <trkpt lat="43.12635" lon="-0.44499">
        <ele>462.53</ele>
        <time>2015-10-24T14:09:23Z</time>
      </trkpt>
      <trkpt lat="43.12651" lon="-0.44508">
        <ele>462.53</ele>
        <time>2015-10-24T14:09:27Z</time>
      </trkpt>
      <trkpt lat="43.12671" lon="-0.4452">
        <ele>462.53</ele>
        <time>2015-10-24T14:09:31Z</time>
      </trkpt>
      <trkpt lat="43.12714" lon="-0.4455">
        <ele>459.65</ele>
        <time>2015-10-24T14:09:39Z</time>
      </trkpt>
      <trkpt lat="43.12781" lon="-0.44598">
        <ele>451.96</ele>
        <time>2015-10-24T14:09:50Z</time>
      </trkpt>
      <trkpt lat="43.12802" lon="-0.44612">
        <ele>448.59</ele>
        <time>2015-10-24T14:09:54Z</time>
      </trkpt>
      <trkpt lat="43.12815" lon="-0.44626">
        <ele>445.71</ele>
        <time>2015-10-24T14:09:57Z</time>
      </trkpt>
      <trkpt lat="43.12867" lon="-0.44646">
        <ele>436.1</ele>
        <time>2015-10-24T14:10:08Z</time>
      </trkpt>
      <trkpt lat="43.12871" lon="-0.44647">
        <ele>434.65</ele>
        <time>2015-10-24T14:10:09Z</time>
      </trkpt>
      <trkpt lat="43.12875" lon="-0.44648">
        <ele>433.69</ele>
        <time>2015-10-24T14:10:10Z</time>
      </trkpt>
      <trkpt lat="43.12879" lon="-0.44647">
        <ele>432.73</ele>
        <time>2015-10-24T14:10:11Z</time>
      </trkpt>
      <trkpt lat="43.12882" lon="-0.44644">
        <ele>431.77</ele>
        <time>2015-10-24T14:10:12Z</time>
      </trkpt>
      <trkpt lat="43.12885" lon="-0.44637">
        <ele>430.81</ele>
        <time>2015-10-24T14:10:14Z</time>
      </trkpt>
      <trkpt lat="43.12902" lon="-0.44601">
        <ele>423.12</ele>
        <time>2015-10-24T14:10:28Z</time>
      </trkpt>
      <trkpt lat="43.12922" lon="-0.44584">
        <ele>423.12</ele>
        <time>2015-10-24T14:10:40Z</time>
      </trkpt>
      <trkpt lat="43.12943" lon="-0.44571">
        <ele>421.68</ele>
        <time>2015-10-24T14:10:47Z</time>
      </trkpt>
      <trkpt lat="43.12956" lon="-0.44536">
        <ele>421.19</ele>
        <time>2015-10-24T14:10:56Z</time>
      </trkpt>
      <trkpt lat="43.12959" lon="-0.44473">
        <ele>421.68</ele>
        <time>2015-10-24T14:11:11Z</time>
      </trkpt>
      <trkpt lat="43.12939" lon="-0.44413">
        <ele>423.12</ele>
        <time>2015-10-24T14:11:26Z</time>
      </trkpt>
      <trkpt lat="43.12901" lon="-0.44385">
        <ele>425.52</ele>
        <time>2015-10-24T14:11:42Z</time>
      </trkpt>
      <trkpt lat="43.12867" lon="-0.44381">
        <ele>427.44</ele>
        <time>2015-10-24T14:11:56Z</time>
      </trkpt>
      <trkpt lat="43.12827" lon="-0.44382">
        <ele>429.85</ele>
        <time>2015-10-24T14:12:09Z</time>
      </trkpt>
      <trkpt lat="43.12781" lon="-0.44373">
        <ele>430.33</ele>
        <time>2015-10-24T14:12:24Z</time>
      </trkpt>
      <trkpt lat="43.1276" lon="-0.44357">
        <ele>429.37</ele>
        <time>2015-10-24T14:12:31Z</time>
      </trkpt>
      <trkpt lat="43.12753" lon="-0.4435">
        <ele>428.4</ele>
        <time>2015-10-24T14:12:33Z</time>
      </trkpt>
      <trkpt lat="43.12694" lon="-0.44302">
        <ele>427.44</ele>
        <time>2015-10-24T14:12:49Z</time>
      </trkpt>
      <trkpt lat="43.1269" lon="-0.44297">
        <ele>427.44</ele>
        <time>2015-10-24T14:12:51Z</time>
      </trkpt>
      <trkpt lat="43.1269" lon="-0.44293">
        <ele>427.44</ele>
        <time>2015-10-24T14:12:52Z</time>
      </trkpt>
      <trkpt lat="43.12691" lon="-0.44289">
        <ele>427.44</ele>
        <time>2015-10-24T14:12:53Z</time>
      </trkpt>
      <trkpt lat="43.12694" lon="-0.44286">
        <ele>427.44</ele>
        <time>2015-10-24T14:12:54Z</time>
      </trkpt>
      <trkpt lat="43.12697" lon="-0.44284">
        <ele>427.44</ele>
        <time>2015-10-24T14:12:55Z</time>
      </trkpt>
      <trkpt lat="43.127" lon="-0.44283">
        <ele>426.96</ele>
        <time>2015-10-24T14:12:56Z</time>
      </trkpt>
      <trkpt lat="43.12702" lon="-0.44283">
        <ele>426.96</ele>
        <time>2015-10-24T14:12:57Z</time>
      </trkpt>
      <trkpt lat="43.12705" lon="-0.44282">
        <ele>426.96</ele>
        <time>2015-10-24T14:12:58Z</time>
      </trkpt>
      <trkpt lat="43.12708" lon="-0.4428">
        <ele>426.96</ele>
        <time>2015-10-24T14:12:59Z</time>
      </trkpt>
      <trkpt lat="43.12709" lon="-0.44279">
        <ele>426.96</ele>
        <time>2015-10-24T14:13:00Z</time>
      </trkpt>
      <trkpt lat="43.12711" lon="-0.44278">
        <ele>426.96</ele>
        <time>2015-10-24T14:13:01Z</time>
      </trkpt>
      <trkpt lat="43.12713" lon="-0.44279">
        <ele>427.44</ele>
        <time>2015-10-24T14:13:02Z</time>
      </trkpt>
      <trkpt lat="43.12722" lon="-0.44281">
        <ele>427.44</ele>
        <time>2015-10-24T14:13:06Z</time>
      </trkpt>
      <trkpt lat="43.12722" lon="-0.44281">
        <ele>427.92</ele>
        <time>2015-10-24T14:13:16Z</time>
      </trkpt>
      <trkpt lat="43.12723" lon="-0.4428">
        <ele>426.96</ele>
        <time>2015-10-24T14:13:27Z</time>
      </trkpt>
      <trkpt lat="43.12723" lon="-0.4428">
        <ele>426.96</ele>
        <time>2015-10-24T14:13:46Z</time>
      </trkpt>
      <trkpt lat="43.12722" lon="-0.44281">
        <ele>427.44</ele>
        <time>2015-10-24T14:14:13Z</time>
      </trkpt>
      <trkpt lat="43.12722" lon="-0.44283">
        <ele>428.4</ele>
        <time>2015-10-24T14:14:46Z</time>
      </trkpt>
    </trkseg>
  </trk>
  <trk>
    <name><![CDATA[Pirait Bouhaben]]></name>
    <trkseg>
      <trkpt lat="42.97318" lon="-0.6201">
        <ele>434</ele>
      </trkpt>
      <trkpt lat="42.97323" lon="-0.62013">
        <ele>434</ele>
      </trkpt>
      <trkpt lat="42.97358" lon="-0.62077">
        <ele>444</ele>
      </trkpt>
      <trkpt lat="42.97388" lon="-0.62109">
        <ele>440</ele>
      </trkpt>
      <trkpt lat="42.97415" lon="-0.6213">
        <ele>448</ele>
      </trkpt>
      <trkpt lat="42.97417" lon="-0.62155">
        <ele>448</ele>
      </trkpt>
      <trkpt lat="42.97419" lon="-0.6216">
        <ele>448</ele>
      </trkpt>
      <trkpt lat="42.97435" lon="-0.62179">
        <ele>448</ele>
      </trkpt>
      <trkpt lat="42.97459" lon="-0.62188">
        <ele>445</ele>
      </trkpt>
      <trkpt lat="42.97492" lon="-0.62216">
        <ele>455</ele>
      </trkpt>
      <trkpt lat="42.97538" lon="-0.62242">
        <ele>455</ele>
      </trkpt>
      <trkpt lat="42.97546" lon="-0.62252">
        <ele>450</ele>
      </trkpt>
      <trkpt lat="42.97543" lon="-0.62289">
        <ele>450</ele>
      </trkpt>
      <trkpt lat="42.97553" lon="-0.62286">
        <ele>450</ele>
      </trkpt>
      <trkpt lat="42.97554" lon="-0.62288">
        <ele>450</ele>
      </trkpt>
      <trkpt lat="42.97546" lon="-0.6229">
        <ele>450</ele>
      </trkpt>
      <trkpt lat="42.9754" lon="-0.62296">
        <ele>467</ele>
      </trkpt>
      <trkpt lat="42.97546" lon="-0.62299">
        <ele>456</ele>
      </trkpt>
      <trkpt lat="42.97544" lon="-0.62302">
        <ele>456</ele>
      </trkpt>
      <trkpt lat="42.97535" lon="-0.6235">
        <ele>467</ele>
      </trkpt>
      <trkpt lat="42.97533" lon="-0.62382">
        <ele>479</ele>
      </trkpt>
      <trkpt lat="42.97559" lon="-0.62431">
        <ele>463</ele>
      </trkpt>
      <trkpt lat="42.97571" lon="-0.62485">
        <ele>475</ele>
      </trkpt>
      <trkpt lat="42.97589" lon="-0.62529">
        <ele>475</ele>
      </trkpt>
      <trkpt lat="42.97606" lon="-0.62548">
        <ele>504</ele>
      </trkpt>
      <trkpt lat="42.97653" lon="-0.62589">
        <ele>478</ele>
      </trkpt>
      <trkpt lat="42.97682" lon="-0.62632">
        <ele>508</ele>
      </trkpt>
      <trkpt lat="42.97719" lon="-0.62705">
        <ele>480</ele>
      </trkpt>
      <trkpt lat="42.97721" lon="-0.62718">
        <ele>500</ele>
      </trkpt>
      <trkpt lat="42.97727" lon="-0.62732">
        <ele>500</ele>
      </trkpt>
      <trkpt lat="42.97733" lon="-0.62739">
        <ele>500</ele>
      </trkpt>
      <trkpt lat="42.97732" lon="-0.62746">
        <ele>500</ele>
      </trkpt>
      <trkpt lat="42.97734" lon="-0.62756">
        <ele>500</ele>
      </trkpt>
      <trkpt lat="42.97741" lon="-0.62773">
        <ele>500</ele>
      </trkpt>
      <trkpt lat="42.97753" lon="-0.62791">
        <ele>500</ele>
      </trkpt>
      <trkpt lat="42.9776" lon="-0.62806">
        <ele>524</ele>
      </trkpt>
      <trkpt lat="42.97757" lon="-0.62811">
        <ele>524</ele>
      </trkpt>
      <trkpt lat="42.97794" lon="-0.62827">
        <ele>509</ele>
      </trkpt>
      <trkpt lat="42.97856" lon="-0.62828">
        <ele>509</ele>
      </trkpt>
      <trkpt lat="42.97894" lon="-0.62807">
        <ele>514</ele>
      </trkpt>
      <trkpt lat="42.97934" lon="-0.62817">
        <ele>514</ele>
      </trkpt>
      <trkpt lat="42.97969" lon="-0.62829">
        <ele>515</ele>
      </trkpt>
      <trkpt lat="42.97972" lon="-0.62835">
        <ele>515</ele>
      </trkpt>
      <trkpt lat="42.97972" lon="-0.62884">
        <ele>523</ele>
      </trkpt>
      <trkpt lat="42.97994" lon="-0.62984">
        <ele>532</ele>
      </trkpt>
      <trkpt lat="42.98009" lon="-0.63035">
        <ele>532</ele>
      </trkpt>
      <trkpt lat="42.98024" lon="-0.63077">
        <ele>543</ele>
      </trkpt>
      <trkpt lat="42.98045" lon="-0.63104">
        <ele>538</ele>
      </trkpt>
      <trkpt lat="42.98069" lon="-0.63125">
        <ele>545</ele>
      </trkpt>
      <trkpt lat="42.98093" lon="-0.63154">
        <ele>545</ele>
      </trkpt>
      <trkpt lat="42.98114" lon="-0.632">
        <ele>545</ele>
      </trkpt>
      <trkpt lat="42.98146" lon="-0.63301">
        <ele>547</ele>
      </trkpt>
      <trkpt lat="42.98157" lon="-0.63353">
        <ele>547</ele>
      </trkpt>
      <trkpt lat="42.98177" lon="-0.63415">
        <ele>556</ele>
      </trkpt>
      <trkpt lat="42.98203" lon="-0.63455">
        <ele>556</ele>
      </trkpt>
      <trkpt lat="42.98313" lon="-0.63579">
        <ele>551</ele>
      </trkpt>
      <trkpt lat="42.98345" lon="-0.63624">
        <ele>551</ele>
      </trkpt>
      <trkpt lat="42.98378" lon="-0.63678">
        <ele>570</ele>
      </trkpt>
      <trkpt lat="42.98407" lon="-0.63738">
        <ele>566</ele>
      </trkpt>
      <trkpt lat="42.98435" lon="-0.63803">
        <ele>571</ele>
      </trkpt>
      <trkpt lat="42.98452" lon="-0.63874">
        <ele>571</ele>
      </trkpt>
      <trkpt lat="42.9847" lon="-0.63938">
        <ele>591</ele>
      </trkpt>
      <trkpt lat="42.9849" lon="-0.63993">
        <ele>580</ele>
      </trkpt>
      <trkpt lat="42.98507" lon="-0.64055">
        <ele>578</ele>
      </trkpt>
      <trkpt lat="42.98531" lon="-0.64126">
        <ele>582</ele>
      </trkpt>
      <trkpt lat="42.98562" lon="-0.64259">
        <ele>601</ele>
      </trkpt>
      <trkpt lat="42.98581" lon="-0.64322">
        <ele>589</ele>
      </trkpt>
      <trkpt lat="42.98617" lon="-0.64523">
        <ele>596</ele>
      </trkpt>
      <trkpt lat="42.98633" lon="-0.64594">
        <ele>601</ele>
      </trkpt>
      <trkpt lat="42.98644" lon="-0.64712">
        <ele>610</ele>
      </trkpt>
      <trkpt lat="42.98647" lon="-0.64777">
        <ele>610</ele>
      </trkpt>
      <trkpt lat="42.98639" lon="-0.64845">
        <ele>615</ele>
      </trkpt>
      <trkpt lat="42.98627" lon="-0.64875">
        <ele>615</ele>
      </trkpt>
      <trkpt lat="42.9861" lon="-0.64896">
        <ele>615</ele>
      </trkpt>
      <trkpt lat="42.98577" lon="-0.64927">
        <ele>615</ele>
      </trkpt>
      <trkpt lat="42.98555" lon="-0.64954">
        <ele>615</ele>
      </trkpt>
      <trkpt lat="42.98519" lon="-0.64986">
        <ele>653</ele>
      </trkpt>
      <trkpt lat="42.98506" lon="-0.65027">
        <ele>653</ele>
      </trkpt>
      <trkpt lat="42.98513" lon="-0.65063">
        <ele>658</ele>
      </trkpt>
      <trkpt lat="42.98541" lon="-0.65107">
        <ele>658</ele>
      </trkpt>
      <trkpt lat="42.98544" lon="-0.65149">
        <ele>643</ele>
      </trkpt>
      <trkpt lat="42.98539" lon="-0.65189">
        <ele>671</ele>
      </trkpt>
      <trkpt lat="42.98549" lon="-0.65238">
        <ele>650</ele>
      </trkpt>
      <trkpt lat="42.98568" lon="-0.65272">
        <ele>650</ele>
      </trkpt>
      <trkpt lat="42.98568" lon="-0.65289">
        <ele>650</ele>
      </trkpt>
      <trkpt lat="42.98574" lon="-0.65333">
        <ele>665</ele>
      </trkpt>
      <trkpt lat="42.98573" lon="-0.65348">
        <ele>665</ele>
      </trkpt>
      <trkpt lat="42.98585" lon="-0.65383">
        <ele>673</ele>
      </trkpt>
      <trkpt lat="42.98604" lon="-0.65417">
        <ele>673</ele>
      </trkpt>
      <trkpt lat="42.98602" lon="-0.65426">
        <ele>673</ele>
      </trkpt>
      <trkpt lat="42.98618" lon="-0.65456">
        <ele>673</ele>
      </trkpt>
      <trkpt lat="42.9863" lon="-0.65491">
        <ele>679</ele>
      </trkpt>
      <trkpt lat="42.98645" lon="-0.65515">
        <ele>679</ele>
      </trkpt>
      <trkpt lat="42.98649" lon="-0.65513">
        <ele>679</ele>
      </trkpt>
      <trkpt lat="42.98648" lon="-0.65504">
        <ele>679</ele>
      </trkpt>
      <trkpt lat="42.98645" lon="-0.65501">
        <ele>679</ele>
      </trkpt>
      <trkpt lat="42.98637" lon="-0.65476">
        <ele>679</ele>
      </trkpt>
      <trkpt lat="42.98644" lon="-0.65444">
        <ele>690</ele>
      </trkpt>
      <trkpt lat="42.98637" lon="-0.65401">
        <ele>690</ele>
      </trkpt>
      <trkpt lat="42.98611" lon="-0.65368">
        <ele>665</ele>
      </trkpt>
      <trkpt lat="42.98619" lon="-0.65336">
        <ele>665</ele>
      </trkpt>
      <trkpt lat="42.98641" lon="-0.653">
        <ele>701</ele>
      </trkpt>
      <trkpt lat="42.98657" lon="-0.65262">
        <ele>697</ele>
      </trkpt>
      <trkpt lat="42.98661" lon="-0.65169">
        <ele>690</ele>
      </trkpt>
      <trkpt lat="42.9869" lon="-0.6513">
        <ele>690</ele>
      </trkpt>
      <trkpt lat="42.98695" lon="-0.65141">
        <ele>690</ele>
      </trkpt>
      <trkpt lat="42.98692" lon="-0.65144">
        <ele>690</ele>
      </trkpt>
      <trkpt lat="42.98692" lon="-0.65147">
        <ele>690</ele>
      </trkpt>
      <trkpt lat="42.98675" lon="-0.65173">
        <ele>690</ele>
      </trkpt>
      <trkpt lat="42.98672" lon="-0.65188">
        <ele>690</ele>
      </trkpt>
      <trkpt lat="42.98678" lon="-0.65227">
        <ele>697</ele>
      </trkpt>
      <trkpt lat="42.98682" lon="-0.65283">
        <ele>697</ele>
      </trkpt>
      <trkpt lat="42.98673" lon="-0.6533">
        <ele>701</ele>
      </trkpt>
      <trkpt lat="42.98677" lon="-0.65375">
        <ele>701</ele>
      </trkpt>
      <trkpt lat="42.98695" lon="-0.65415">
        <ele>690</ele>
      </trkpt>
      <trkpt lat="42.9872" lon="-0.6546">
        <ele>705</ele>
      </trkpt>
      <trkpt lat="42.98755" lon="-0.65476">
        <ele>705</ele>
      </trkpt>
      <trkpt lat="42.98788" lon="-0.65481">
        <ele>705</ele>
      </trkpt>
      <trkpt lat="42.98823" lon="-0.65515">
        <ele>744</ele>
      </trkpt>
      <trkpt lat="42.98852" lon="-0.65537">
        <ele>744</ele>
      </trkpt>
      <trkpt lat="42.98855" lon="-0.65544">
        <ele>726</ele>
      </trkpt>
      <trkpt lat="42.98856" lon="-0.6559">
        <ele>726</ele>
      </trkpt>
      <trkpt lat="42.98864" lon="-0.6564">
        <ele>721</ele>
      </trkpt>
      <trkpt lat="42.98876" lon="-0.6568">
        <ele>768</ele>
      </trkpt>
      <trkpt lat="42.98891" lon="-0.65716">
        <ele>747</ele>
      </trkpt>
      <trkpt lat="42.98917" lon="-0.65732">
        <ele>747</ele>
      </trkpt>
      <trkpt lat="42.98951" lon="-0.65761">
        <ele>747</ele>
      </trkpt>
      <trkpt lat="42.98994" lon="-0.65813">
        <ele>752</ele>
      </trkpt>
      <trkpt lat="42.99027" lon="-0.65824">
        <ele>752</ele>
      </trkpt>
      <trkpt lat="42.99061" lon="-0.65843">
        <ele>782</ele>
      </trkpt>
      <trkpt lat="42.99088" lon="-0.65882">
        <ele>758</ele>
      </trkpt>
      <trkpt lat="42.9911" lon="-0.65926">
        <ele>758</ele>
      </trkpt>
      <trkpt lat="42.99146" lon="-0.6594">
        <ele>778</ele>
      </trkpt>
      <trkpt lat="42.99192" lon="-0.65935">
        <ele>778</ele>
      </trkpt>
      <trkpt lat="42.9923" lon="-0.65934">
        <ele>791</ele>
      </trkpt>
      <trkpt lat="42.99261" lon="-0.65939">
        <ele>791</ele>
      </trkpt>
      <trkpt lat="42.99259" lon="-0.65965">
        <ele>800</ele>
      </trkpt>
      <trkpt lat="42.99241" lon="-0.65992">
        <ele>800</ele>
      </trkpt>
      <trkpt lat="42.99208" lon="-0.66019">
        <ele>778</ele>
      </trkpt>
      <trkpt lat="42.99179" lon="-0.66071">
        <ele>788</ele>
      </trkpt>
      <trkpt lat="42.99176" lon="-0.66083">
        <ele>788</ele>
      </trkpt>
      <trkpt lat="42.99195" lon="-0.66183">
        <ele>782</ele>
      </trkpt>
      <trkpt lat="42.99205" lon="-0.66224">
        <ele>783</ele>
      </trkpt>
      <trkpt lat="42.99217" lon="-0.66241">
        <ele>812</ele>
      </trkpt>
      <trkpt lat="42.99228" lon="-0.66251">
        <ele>812</ele>
      </trkpt>
      <trkpt lat="42.99238" lon="-0.66255">
        <ele>812</ele>
      </trkpt>
      <trkpt lat="42.9927" lon="-0.66277">
        <ele>812</ele>
      </trkpt>
      <trkpt lat="42.99321" lon="-0.66352">
        <ele>827</ele>
      </trkpt>
      <trkpt lat="42.99343" lon="-0.66391">
        <ele>812</ele>
      </trkpt>
      <trkpt lat="42.99366" lon="-0.66426">
        <ele>812</ele>
      </trkpt>
      <trkpt lat="42.99401" lon="-0.66442">
        <ele>837</ele>
      </trkpt>
      <trkpt lat="42.99451" lon="-0.66446">
        <ele>837</ele>
      </trkpt>
      <trkpt lat="42.99483" lon="-0.6644">
        <ele>840</ele>
      </trkpt>
      <trkpt lat="42.99521" lon="-0.66426">
        <ele>840</ele>
      </trkpt>
      <trkpt lat="42.99565" lon="-0.66421">
        <ele>839</ele>
      </trkpt>
      <trkpt lat="42.99617" lon="-0.66422">
        <ele>839</ele>
      </trkpt>
      <trkpt lat="42.9966" lon="-0.66409">
        <ele>844</ele>
      </trkpt>
      <trkpt lat="42.997" lon="-0.66409">
        <ele>844</ele>
      </trkpt>
      <trkpt lat="42.99753" lon="-0.66394">
        <ele>853</ele>
      </trkpt>
      <trkpt lat="42.9979" lon="-0.66361">
        <ele>871</ele>
      </trkpt>
      <trkpt lat="42.99911" lon="-0.66239">
        <ele>873</ele>
      </trkpt>
      <trkpt lat="42.99934" lon="-0.66251">
        <ele>873</ele>
      </trkpt>
      <trkpt lat="42.99934" lon="-0.66286">
        <ele>873</ele>
      </trkpt>
      <trkpt lat="42.99907" lon="-0.66328">
        <ele>889</ele>
      </trkpt>
      <trkpt lat="42.99903" lon="-0.6634">
        <ele>889</ele>
      </trkpt>
      <trkpt lat="42.99886" lon="-0.66374">
        <ele>889</ele>
      </trkpt>
      <trkpt lat="42.99844" lon="-0.66448">
        <ele>876</ele>
      </trkpt>
      <trkpt lat="42.99785" lon="-0.66522">
        <ele>874</ele>
      </trkpt>
      <trkpt lat="42.99772" lon="-0.66549">
        <ele>885</ele>
      </trkpt>
      <trkpt lat="42.99778" lon="-0.66566">
        <ele>885</ele>
      </trkpt>
      <trkpt lat="42.99802" lon="-0.66578">
        <ele>898</ele>
      </trkpt>
      <trkpt lat="42.9983" lon="-0.66585">
        <ele>898</ele>
      </trkpt>
      <trkpt lat="42.99856" lon="-0.66588">
        <ele>898</ele>
      </trkpt>
      <trkpt lat="42.99892" lon="-0.66599">
        <ele>925</ele>
      </trkpt>
      <trkpt lat="42.99938" lon="-0.66634">
        <ele>897</ele>
      </trkpt>
      <trkpt lat="42.99977" lon="-0.66656">
        <ele>934</ele>
      </trkpt>
      <trkpt lat="43.00014" lon="-0.66695">
        <ele>934</ele>
      </trkpt>
      <trkpt lat="43.00046" lon="-0.6674">
        <ele>950</ele>
      </trkpt>
      <trkpt lat="43.00079" lon="-0.66776">
        <ele>950</ele>
      </trkpt>
      <trkpt lat="43.00107" lon="-0.66802">
        <ele>929</ele>
      </trkpt>
      <trkpt lat="43.00137" lon="-0.66819">
        <ele>942</ele>
      </trkpt>
      <trkpt lat="43.00166" lon="-0.66801">
        <ele>942</ele>
      </trkpt>
      <trkpt lat="43.00197" lon="-0.66759">
        <ele>966</ele>
      </trkpt>
      <trkpt lat="43.00228" lon="-0.66744">
        <ele>968</ele>
      </trkpt>
      <trkpt lat="43.00254" lon="-0.66746">
        <ele>968</ele>
      </trkpt>
      <trkpt lat="43.00289" lon="-0.66758">
        <ele>968</ele>
      </trkpt>
      <trkpt lat="43.00348" lon="-0.66761">
        <ele>979</ele>
      </trkpt>
      <trkpt lat="43.00422" lon="-0.66783">
        <ele>994</ele>
      </trkpt>
      <trkpt lat="43.00459" lon="-0.66805">
        <ele>1003</ele>
      </trkpt>
      <trkpt lat="43.00465" lon="-0.66804">
        <ele>1003</ele>
      </trkpt>
      <trkpt lat="43.0049" lon="-0.66822">
        <ele>1003</ele>
      </trkpt>
      <trkpt lat="43.00495" lon="-0.66862">
        <ele>1003</ele>
      </trkpt>
      <trkpt lat="43.0048" lon="-0.66893">
        <ele>1013</ele>
      </trkpt>
      <trkpt lat="43.00465" lon="-0.66946">
        <ele>1013</ele>
      </trkpt>
      <trkpt lat="43.00458" lon="-0.66996">
        <ele>1009</ele>
      </trkpt>
      <trkpt lat="43.00447" lon="-0.67037">
        <ele>1009</ele>
      </trkpt>
      <trkpt lat="43.0043" lon="-0.67083">
        <ele>1019</ele>
      </trkpt>
      <trkpt lat="43.00434" lon="-0.67086">
        <ele>1019</ele>
      </trkpt>
      <trkpt lat="43.00453" lon="-0.67058">
        <ele>1019</ele>
      </trkpt>
      <trkpt lat="43.00452" lon="-0.6706">
        <ele>1019</ele>
      </trkpt>
      <trkpt lat="43.00456" lon="-0.67051">
        <ele>1019</ele>
      </trkpt>
      <trkpt lat="43.0046" lon="-0.6705">
        <ele>1043</ele>
      </trkpt>
      <trkpt lat="43.00484" lon="-0.67006">
        <ele>1026</ele>
      </trkpt>
      <trkpt lat="43.00481" lon="-0.66965">
        <ele>1026</ele>
      </trkpt>
      <trkpt lat="43.00482" lon="-0.66957">
        <ele>1013</ele>
      </trkpt>
      <trkpt lat="43.0048" lon="-0.66953">
        <ele>1013</ele>
      </trkpt>
      <trkpt lat="43.00496" lon="-0.6691">
        <ele>1013</ele>
      </trkpt>
      <trkpt lat="43.00532" lon="-0.66876">
        <ele>1013</ele>
      </trkpt>
      <trkpt lat="43.00547" lon="-0.66824">
        <ele>1038</ele>
      </trkpt>
      <trkpt lat="43.00545" lon="-0.66806">
        <ele>1038</ele>
      </trkpt>
      <trkpt lat="43.00489" lon="-0.66763">
        <ele>1021</ele>
      </trkpt>
      <trkpt lat="43.00428" lon="-0.66695">
        <ele>1016</ele>
      </trkpt>
      <trkpt lat="43.00368" lon="-0.66618">
        <ele>1012</ele>
      </trkpt>
      <trkpt lat="43.00368" lon="-0.66563">
        <ele>1012</ele>
      </trkpt>
      <trkpt lat="43.004" lon="-0.66506">
        <ele>1024</ele>
      </trkpt>
      <trkpt lat="43.00407" lon="-0.66481">
        <ele>1024</ele>
      </trkpt>
      <trkpt lat="43.00441" lon="-0.66413">
        <ele>1006</ele>
      </trkpt>
      <trkpt lat="43.00474" lon="-0.66375">
        <ele>1018</ele>
      </trkpt>
      <trkpt lat="43.00494" lon="-0.66312">
        <ele>1018</ele>
      </trkpt>
      <trkpt lat="43.00512" lon="-0.66278">
        <ele>1000</ele>
      </trkpt>
      <trkpt lat="43.00522" lon="-0.66225">
        <ele>1000</ele>
      </trkpt>
      <trkpt lat="43.00521" lon="-0.66197">
        <ele>996</ele>
      </trkpt>
      <trkpt lat="43.00499" lon="-0.66099">
        <ele>1001</ele>
      </trkpt>
      <trkpt lat="43.00503" lon="-0.66045">
        <ele>1001</ele>
      </trkpt>
      <trkpt lat="43.00509" lon="-0.66028">
        <ele>1000</ele>
      </trkpt>
      <trkpt lat="43.00513" lon="-0.65987">
        <ele>1000</ele>
      </trkpt>
      <trkpt lat="43.00513" lon="-0.65955">
        <ele>1005</ele>
      </trkpt>
      <trkpt lat="43.00494" lon="-0.65872">
        <ele>1013</ele>
      </trkpt>
      <trkpt lat="43.00489" lon="-0.65858">
        <ele>1013</ele>
      </trkpt>
      <trkpt lat="43.0049" lon="-0.65854">
        <ele>1013</ele>
      </trkpt>
      <trkpt lat="43.00493" lon="-0.65858">
        <ele>1013</ele>
      </trkpt>
      <trkpt lat="43.00488" lon="-0.65851">
        <ele>1013</ele>
      </trkpt>
      <trkpt lat="43.00489" lon="-0.65844">
        <ele>1013</ele>
      </trkpt>
      <trkpt lat="43.00489" lon="-0.65847">
        <ele>1013</ele>
      </trkpt>
      <trkpt lat="43.00487" lon="-0.65841">
        <ele>1013</ele>
      </trkpt>
      <trkpt lat="43.00463" lon="-0.65812">
        <ele>1013</ele>
      </trkpt>
      <trkpt lat="43.00438" lon="-0.65799">
        <ele>1004</ele>
      </trkpt>
      <trkpt lat="43.00407" lon="-0.65772">
        <ele>1016</ele>
      </trkpt>
      <trkpt lat="43.00395" lon="-0.65744">
        <ele>1016</ele>
      </trkpt>
      <trkpt lat="43.00362" lon="-0.65681">
        <ele>1008</ele>
      </trkpt>
      <trkpt lat="43.00333" lon="-0.65658">
        <ele>1008</ele>
      </trkpt>
      <trkpt lat="43.00275" lon="-0.65637">
        <ele>1009</ele>
      </trkpt>
      <trkpt lat="43.00201" lon="-0.65583">
        <ele>1015</ele>
      </trkpt>
      <trkpt lat="43.00164" lon="-0.65561">
        <ele>1015</ele>
      </trkpt>
      <trkpt lat="43.00137" lon="-0.65536">
        <ele>1017</ele>
      </trkpt>
      <trkpt lat="43.00107" lon="-0.65523">
        <ele>1022</ele>
      </trkpt>
      <trkpt lat="43.00099" lon="-0.65514">
        <ele>1022</ele>
      </trkpt>
      <trkpt lat="43.00087" lon="-0.65482">
        <ele>1022</ele>
      </trkpt>
      <trkpt lat="43.0008" lon="-0.65457">
        <ele>1031</ele>
      </trkpt>
      <trkpt lat="43.00068" lon="-0.65438">
        <ele>1031</ele>
      </trkpt>
      <trkpt lat="43.00061" lon="-0.65412">
        <ele>1031</ele>
      </trkpt>
      <trkpt lat="43.00059" lon="-0.65367">
        <ele>1027</ele>
      </trkpt>
      <trkpt lat="43.00052" lon="-0.65346">
        <ele>1027</ele>
      </trkpt>
      <trkpt lat="43.00028" lon="-0.65328">
        <ele>1054</ele>
      </trkpt>
      <trkpt lat="42.99962" lon="-0.65295">
        <ele>1054</ele>
      </trkpt>
      <trkpt lat="42.99934" lon="-0.65267">
        <ele>1054</ele>
      </trkpt>
      <trkpt lat="42.99897" lon="-0.65212">
        <ele>1054</ele>
      </trkpt>
      <trkpt lat="42.99863" lon="-0.65186">
        <ele>1060</ele>
      </trkpt>
      <trkpt lat="42.99839" lon="-0.65179">
        <ele>1060</ele>
      </trkpt>
      <trkpt lat="42.9983" lon="-0.65181">
        <ele>1060</ele>
      </trkpt>
      <trkpt lat="42.99821" lon="-0.65188">
        <ele>1060</ele>
      </trkpt>
      <trkpt lat="42.99762" lon="-0.65208">
        <ele>1074</ele>
      </trkpt>
      <trkpt lat="42.99718" lon="-0.65212">
        <ele>1062</ele>
      </trkpt>
      <trkpt lat="42.99706" lon="-0.65211">
        <ele>1069</ele>
      </trkpt>
      <trkpt lat="42.99656" lon="-0.65193">
        <ele>1072</ele>
      </trkpt>
      <trkpt lat="42.9965" lon="-0.65193">
        <ele>1072</ele>
      </trkpt>
      <trkpt lat="42.99652" lon="-0.65198">
        <ele>1072</ele>
      </trkpt>
      <trkpt lat="42.99652" lon="-0.65187">
        <ele>1072</ele>
      </trkpt>
      <trkpt lat="42.99648" lon="-0.65176">
        <ele>1072</ele>
      </trkpt>
      <trkpt lat="42.99635" lon="-0.65069">
        <ele>1072</ele>
      </trkpt>
      <trkpt lat="42.99625" lon="-0.65024">
        <ele>1078</ele>
      </trkpt>
      <trkpt lat="42.99586" lon="-0.64923">
        <ele>1048</ele>
      </trkpt>
      <trkpt lat="42.9955" lon="-0.64845">
        <ele>1056</ele>
      </trkpt>
      <trkpt lat="42.99539" lon="-0.64815">
        <ele>1012</ele>
      </trkpt>
      <trkpt lat="42.99536" lon="-0.64798">
        <ele>1012</ele>
      </trkpt>
      <trkpt lat="42.99537" lon="-0.64781">
        <ele>1004</ele>
      </trkpt>
      <trkpt lat="42.99546" lon="-0.64763">
        <ele>1046</ele>
      </trkpt>
      <trkpt lat="42.99539" lon="-0.64693">
        <ele>994</ele>
      </trkpt>
      <trkpt lat="42.99517" lon="-0.6466">
        <ele>994</ele>
      </trkpt>
      <trkpt lat="42.99507" lon="-0.64602">
        <ele>998</ele>
      </trkpt>
      <trkpt lat="42.99493" lon="-0.64574">
        <ele>998</ele>
      </trkpt>
      <trkpt lat="42.99437" lon="-0.64501">
        <ele>966</ele>
      </trkpt>
      <trkpt lat="42.99424" lon="-0.64477">
        <ele>966</ele>
      </trkpt>
      <trkpt lat="42.99406" lon="-0.64419">
        <ele>988</ele>
      </trkpt>
      <trkpt lat="42.99387" lon="-0.6438">
        <ele>988</ele>
      </trkpt>
      <trkpt lat="42.99358" lon="-0.64331">
        <ele>950</ele>
      </trkpt>
      <trkpt lat="42.99346" lon="-0.64286">
        <ele>958</ele>
      </trkpt>
      <trkpt lat="42.99346" lon="-0.64237">
        <ele>958</ele>
      </trkpt>
      <trkpt lat="42.99355" lon="-0.642">
        <ele>951</ele>
      </trkpt>
      <trkpt lat="42.99379" lon="-0.64161">
        <ele>997</ele>
      </trkpt>
      <trkpt lat="42.99382" lon="-0.64152">
        <ele>997</ele>
      </trkpt>
      <trkpt lat="42.99378" lon="-0.64136">
        <ele>997</ele>
      </trkpt>
      <trkpt lat="42.99379" lon="-0.64101">
        <ele>989</ele>
      </trkpt>
      <trkpt lat="42.99348" lon="-0.64062">
        <ele>954</ele>
      </trkpt>
      <trkpt lat="42.99327" lon="-0.64018">
        <ele>970</ele>
      </trkpt>
      <trkpt lat="42.9932" lon="-0.63968">
        <ele>970</ele>
      </trkpt>
      <trkpt lat="42.99326" lon="-0.63942">
        <ele>974</ele>
      </trkpt>
      <trkpt lat="42.99324" lon="-0.63903">
        <ele>974</ele>
      </trkpt>
      <trkpt lat="42.99306" lon="-0.63861">
        <ele>973</ele>
      </trkpt>
      <trkpt lat="42.99282" lon="-0.6382">
        <ele>964</ele>
      </trkpt>
      <trkpt lat="42.9928" lon="-0.6381">
        <ele>964</ele>
      </trkpt>
      <trkpt lat="42.99282" lon="-0.63774">
        <ele>961</ele>
      </trkpt>
      <trkpt lat="42.99282" lon="-0.63776">
        <ele>961</ele>
      </trkpt>
      <trkpt lat="42.99229" lon="-0.63745">
        <ele>961</ele>
      </trkpt>
      <trkpt lat="42.9921" lon="-0.63739">
        <ele>961</ele>
      </trkpt>
      <trkpt lat="42.992" lon="-0.63725">
        <ele>939</ele>
      </trkpt>
      <trkpt lat="42.99194" lon="-0.63712">
        <ele>939</ele>
      </trkpt>
      <trkpt lat="42.99184" lon="-0.63658">
        <ele>940</ele>
      </trkpt>
      <trkpt lat="42.99188" lon="-0.63558">
        <ele>939</ele>
      </trkpt>
      <trkpt lat="42.99212" lon="-0.63525">
        <ele>934</ele>
      </trkpt>
      <trkpt lat="42.99221" lon="-0.63522">
        <ele>934</ele>
      </trkpt>
      <trkpt lat="42.99245" lon="-0.635">
        <ele>934</ele>
      </trkpt>
      <trkpt lat="42.99304" lon="-0.63464">
        <ele>919</ele>
      </trkpt>
      <trkpt lat="42.99341" lon="-0.63465">
        <ele>919</ele>
      </trkpt>
      <trkpt lat="42.99338" lon="-0.63454">
        <ele>911</ele>
      </trkpt>
      <trkpt lat="42.99324" lon="-0.63445">
        <ele>911</ele>
      </trkpt>
      <trkpt lat="42.99308" lon="-0.63424">
        <ele>911</ele>
      </trkpt>
      <trkpt lat="42.99283" lon="-0.63404">
        <ele>916</ele>
      </trkpt>
      <trkpt lat="42.99204" lon="-0.63379">
        <ele>908</ele>
      </trkpt>
      <trkpt lat="42.99171" lon="-0.63378">
        <ele>908</ele>
      </trkpt>
      <trkpt lat="42.99078" lon="-0.63412">
        <ele>889</ele>
      </trkpt>
      <trkpt lat="42.99037" lon="-0.63436">
        <ele>867</ele>
      </trkpt>
      <trkpt lat="42.99026" lon="-0.63446">
        <ele>867</ele>
      </trkpt>
      <trkpt lat="42.99006" lon="-0.63424">
        <ele>867</ele>
      </trkpt>
      <trkpt lat="42.98987" lon="-0.63419">
        <ele>867</ele>
      </trkpt>
      <trkpt lat="42.98966" lon="-0.63443">
        <ele>867</ele>
      </trkpt>
      <trkpt lat="42.98955" lon="-0.63464">
        <ele>839</ele>
      </trkpt>
      <trkpt lat="42.98941" lon="-0.63436">
        <ele>839</ele>
      </trkpt>
      <trkpt lat="42.98945" lon="-0.63376">
        <ele>839</ele>
      </trkpt>
      <trkpt lat="42.98953" lon="-0.63338">
        <ele>824</ele>
      </trkpt>
      <trkpt lat="42.98928" lon="-0.63349">
        <ele>824</ele>
      </trkpt>
      <trkpt lat="42.98911" lon="-0.63361">
        <ele>824</ele>
      </trkpt>
      <trkpt lat="42.98891" lon="-0.63384">
        <ele>839</ele>
      </trkpt>
      <trkpt lat="42.98871" lon="-0.63401">
        <ele>805</ele>
      </trkpt>
      <trkpt lat="42.98868" lon="-0.63371">
        <ele>798</ele>
      </trkpt>
      <trkpt lat="42.98872" lon="-0.63323">
        <ele>798</ele>
      </trkpt>
      <trkpt lat="42.989" lon="-0.63281">
        <ele>804</ele>
      </trkpt>
      <trkpt lat="42.98897" lon="-0.63269">
        <ele>804</ele>
      </trkpt>
      <trkpt lat="42.98876" lon="-0.63283">
        <ele>804</ele>
      </trkpt>
      <trkpt lat="42.98872" lon="-0.63269">
        <ele>776</ele>
      </trkpt>
      <trkpt lat="42.98883" lon="-0.63231">
        <ele>804</ele>
      </trkpt>
      <trkpt lat="42.9888" lon="-0.63214">
        <ele>804</ele>
      </trkpt>
      <trkpt lat="42.98889" lon="-0.63182">
        <ele>792</ele>
      </trkpt>
      <trkpt lat="42.98883" lon="-0.63174">
        <ele>792</ele>
      </trkpt>
      <trkpt lat="42.98851" lon="-0.63168">
        <ele>770</ele>
      </trkpt>
      <trkpt lat="42.98829" lon="-0.63171">
        <ele>770</ele>
      </trkpt>
      <trkpt lat="42.98781" lon="-0.6316">
        <ele>756</ele>
      </trkpt>
      <trkpt lat="42.98725" lon="-0.63151">
        <ele>756</ele>
      </trkpt>
      <trkpt lat="42.98718" lon="-0.63155">
        <ele>756</ele>
      </trkpt>
      <trkpt lat="42.98724" lon="-0.63163">
        <ele>756</ele>
      </trkpt>
      <trkpt lat="42.98779" lon="-0.63187">
        <ele>756</ele>
      </trkpt>
      <trkpt lat="42.98784" lon="-0.63202">
        <ele>756</ele>
      </trkpt>
      <trkpt lat="42.98769" lon="-0.63226">
        <ele>754</ele>
      </trkpt>
      <trkpt lat="42.98749" lon="-0.63238">
        <ele>754</ele>
      </trkpt>
      <trkpt lat="42.9873" lon="-0.63242">
        <ele>754</ele>
      </trkpt>
      <trkpt lat="42.9867" lon="-0.63276">
        <ele>731</ele>
      </trkpt>
      <trkpt lat="42.98656" lon="-0.63277">
        <ele>731</ele>
      </trkpt>
      <trkpt lat="42.98644" lon="-0.63288">
        <ele>731</ele>
      </trkpt>
      <trkpt lat="42.98643" lon="-0.63301">
        <ele>744</ele>
      </trkpt>
      <trkpt lat="42.9864" lon="-0.63309">
        <ele>744</ele>
      </trkpt>
      <trkpt lat="42.9864" lon="-0.63318">
        <ele>744</ele>
      </trkpt>
      <trkpt lat="42.9863" lon="-0.63304">
        <ele>744</ele>
      </trkpt>
      <trkpt lat="42.98627" lon="-0.6326">
        <ele>731</ele>
      </trkpt>
      <trkpt lat="42.98647" lon="-0.63235">
        <ele>731</ele>
      </trkpt>
      <trkpt lat="42.98647" lon="-0.6322">
        <ele>731</ele>
      </trkpt>
      <trkpt lat="42.98623" lon="-0.63184">
        <ele>697</ele>
      </trkpt>
      <trkpt lat="42.98603" lon="-0.63166">
        <ele>697</ele>
      </trkpt>
      <trkpt lat="42.98592" lon="-0.63153">
        <ele>697</ele>
      </trkpt>
      <trkpt lat="42.98568" lon="-0.6311">
        <ele>723</ele>
      </trkpt>
      <trkpt lat="42.98539" lon="-0.63078">
        <ele>692</ele>
      </trkpt>
      <trkpt lat="42.98484" lon="-0.63028">
        <ele>701</ele>
      </trkpt>
      <trkpt lat="42.98474" lon="-0.63">
        <ele>701</ele>
      </trkpt>
      <trkpt lat="42.98531" lon="-0.62937">
        <ele>676</ele>
      </trkpt>
      <trkpt lat="42.98543" lon="-0.62908">
        <ele>709</ele>
      </trkpt>
      <trkpt lat="42.98546" lon="-0.62884">
        <ele>709</ele>
      </trkpt>
      <trkpt lat="42.98568" lon="-0.62836">
        <ele>685</ele>
      </trkpt>
      <trkpt lat="42.98574" lon="-0.62815">
        <ele>685</ele>
      </trkpt>
      <trkpt lat="42.98575" lon="-0.62799">
        <ele>685</ele>
      </trkpt>
      <trkpt lat="42.98573" lon="-0.62729">
        <ele>659</ele>
      </trkpt>
      <trkpt lat="42.98571" lon="-0.62717">
        <ele>659</ele>
      </trkpt>
      <trkpt lat="42.98573" lon="-0.627">
        <ele>624</ele>
      </trkpt>
      <trkpt lat="42.98561" lon="-0.62675">
        <ele>624</ele>
      </trkpt>
      <trkpt lat="42.98563" lon="-0.62666">
        <ele>624</ele>
      </trkpt>
      <trkpt lat="42.98547" lon="-0.62659">
        <ele>624</ele>
      </trkpt>
      <trkpt lat="42.98533" lon="-0.6267">
        <ele>596</ele>
      </trkpt>
      <trkpt lat="42.98526" lon="-0.62679">
        <ele>596</ele>
      </trkpt>
      <trkpt lat="42.98519" lon="-0.62697">
        <ele>596</ele>
      </trkpt>
      <trkpt lat="42.98514" lon="-0.62646">
        <ele>596</ele>
      </trkpt>
      <trkpt lat="42.9852" lon="-0.6259">
        <ele>571</ele>
      </trkpt>
      <trkpt lat="42.98513" lon="-0.62584">
        <ele>571</ele>
      </trkpt>
      <trkpt lat="42.98498" lon="-0.62608">
        <ele>571</ele>
      </trkpt>
      <trkpt lat="42.98492" lon="-0.62628">
        <ele>596</ele>
      </trkpt>
      <trkpt lat="42.9849" lon="-0.62592">
        <ele>571</ele>
      </trkpt>
      <trkpt lat="42.98507" lon="-0.62548">
        <ele>571</ele>
      </trkpt>
      <trkpt lat="42.98525" lon="-0.62544">
        <ele>571</ele>
      </trkpt>
      <trkpt lat="42.98567" lon="-0.62552">
        <ele>594</ele>
      </trkpt>
      <trkpt lat="42.98586" lon="-0.6254">
        <ele>554</ele>
      </trkpt>
      <trkpt lat="42.98616" lon="-0.6253">
        <ele>554</ele>
      </trkpt>
      <trkpt lat="42.98646" lon="-0.62528">
        <ele>568</ele>
      </trkpt>
      <trkpt lat="42.98655" lon="-0.62523">
        <ele>568</ele>
      </trkpt>
      <trkpt lat="42.98672" lon="-0.62498">
        <ele>568</ele>
      </trkpt>
      <trkpt lat="42.98682" lon="-0.62496">
        <ele>568</ele>
      </trkpt>
      <trkpt lat="42.98707" lon="-0.62504">
        <ele>568</ele>
      </trkpt>
      <trkpt lat="42.98721" lon="-0.62499">
        <ele>577</ele>
      </trkpt>
      <trkpt lat="42.98741" lon="-0.62479">
        <ele>577</ele>
      </trkpt>
      <trkpt lat="42.9874" lon="-0.62432">
        <ele>560</ele>
      </trkpt>
      <trkpt lat="42.98724" lon="-0.6236">
        <ele>542</ele>
      </trkpt>
      <trkpt lat="42.98725" lon="-0.62317">
        <ele>542</ele>
      </trkpt>
      <trkpt lat="42.98729" lon="-0.62281">
        <ele>520</ele>
      </trkpt>
      <trkpt lat="42.98713" lon="-0.62257">
        <ele>520</ele>
      </trkpt>
      <trkpt lat="42.98675" lon="-0.62184">
        <ele>486</ele>
      </trkpt>
      <trkpt lat="42.9866" lon="-0.62167">
        <ele>486</ele>
      </trkpt>
      <trkpt lat="42.98648" lon="-0.62122">
        <ele>471</ele>
      </trkpt>
      <trkpt lat="42.98647" lon="-0.62096">
        <ele>471</ele>
      </trkpt>
      <trkpt lat="42.98623" lon="-0.61976">
        <ele>450</ele>
      </trkpt>
      <trkpt lat="42.98624" lon="-0.61939">
        <ele>438</ele>
      </trkpt>
      <trkpt lat="42.9861" lon="-0.61867">
        <ele>437</ele>
      </trkpt>
      <trkpt lat="42.98587" lon="-0.61856">
        <ele>437</ele>
      </trkpt>
      <trkpt lat="42.98582" lon="-0.61847">
        <ele>437</ele>
      </trkpt>
      <trkpt lat="42.98582" lon="-0.61842">
        <ele>437</ele>
      </trkpt>
      <trkpt lat="42.98585" lon="-0.61841">
        <ele>437</ele>
      </trkpt>
      <trkpt lat="42.98594" lon="-0.61806">
        <ele>437</ele>
      </trkpt>
      <trkpt lat="42.98588" lon="-0.61794">
        <ele>437</ele>
      </trkpt>
      <trkpt lat="42.98581" lon="-0.61788">
        <ele>438</ele>
      </trkpt>
      <trkpt lat="42.98577" lon="-0.61793">
        <ele>437</ele>
      </trkpt>
      <trkpt lat="42.98576" lon="-0.61801">
        <ele>437</ele>
      </trkpt>
      <trkpt lat="42.98574" lon="-0.61797">
        <ele>437</ele>
      </trkpt>
      <trkpt lat="42.98577" lon="-0.61796">
        <ele>437</ele>
      </trkpt>
      <trkpt lat="42.98589" lon="-0.6176">
        <ele>438</ele>
      </trkpt>
      <trkpt lat="42.98575" lon="-0.61744">
        <ele>438</ele>
      </trkpt>
      <trkpt lat="42.98513" lon="-0.61747">
        <ele>441</ele>
      </trkpt>
      <trkpt lat="42.98395" lon="-0.61702">
        <ele>431</ele>
      </trkpt>
      <trkpt lat="42.98317" lon="-0.61691">
        <ele>431</ele>
      </trkpt>
      <trkpt lat="42.98225" lon="-0.61671">
        <ele>429</ele>
      </trkpt>
      <trkpt lat="42.98156" lon="-0.61696">
        <ele>425</ele>
      </trkpt>
      <trkpt lat="42.98136" lon="-0.61716">
        <ele>437</ele>
      </trkpt>
      <trkpt lat="42.98046" lon="-0.6178">
        <ele>434</ele>
      </trkpt>
      <trkpt lat="42.98029" lon="-0.61797">
        <ele>439</ele>
      </trkpt>
      <trkpt lat="42.97947" lon="-0.61858">
        <ele>433</ele>
      </trkpt>
      <trkpt lat="42.97846" lon="-0.61924">
        <ele>435</ele>
      </trkpt>
      <trkpt lat="42.97783" lon="-0.61923">
        <ele>429</ele>
      </trkpt>
      <trkpt lat="42.97754" lon="-0.61927">
        <ele>429</ele>
      </trkpt>
      <trkpt lat="42.97725" lon="-0.61938">
        <ele>429</ele>
      </trkpt>
      <trkpt lat="42.97656" lon="-0.61976">
        <ele>433</ele>
      </trkpt>
      <trkpt lat="42.97599" lon="-0.62041">
        <ele>434</ele>
      </trkpt>
      <trkpt lat="42.97548" lon="-0.62119">
        <ele>435</ele>
      </trkpt>
      <trkpt lat="42.97491" lon="-0.62134">
        <ele>445</ele>
      </trkpt>
      <trkpt lat="42.97442" lon="-0.62135">
        <ele>448</ele>
      </trkpt>
      <trkpt lat="42.9741" lon="-0.62127">
        <ele>448</ele>
      </trkpt>
      <trkpt lat="42.97364" lon="-0.62094">
        <ele>444</ele>
      </trkpt>
      <trkpt lat="42.97326" lon="-0.6202">
        <ele>434</ele>
      </trkpt>
      <trkpt lat="42.97325" lon="-0.62005">
        <ele>434</ele>
      </trkpt>
      <trkpt lat="42.97371" lon="-0.6195">
        <ele>435</ele>
      </trkpt>
      <trkpt lat="42.97368" lon="-0.61934">
        <ele>435</ele>
      </trkpt>
      <trkpt lat="42.97304" lon="-0.61889">
        <ele>435</ele>
      </trkpt>
      <trkpt lat="42.97267" lon="-0.6183">
        <ele>436</ele>
      </trkpt>
      <trkpt lat="42.97197" lon="-0.61776">
        <ele>438</ele>
      </trkpt>
      <trkpt lat="42.9716" lon="-0.61723">
        <ele>438</ele>
      </trkpt>
      <trkpt lat="42.97131" lon="-0.61689">
        <ele>434</ele>
      </trkpt>
      <trkpt lat="42.97066" lon="-0.61632">
        <ele>437</ele>
      </trkpt>
      <trkpt lat="42.96983" lon="-0.61582">
        <ele>439</ele>
      </trkpt>
      <trkpt lat="42.96879" lon="-0.6153">
        <ele>441</ele>
      </trkpt>
      <trkpt lat="42.96712" lon="-0.61427">
        <ele>442</ele>
      </trkpt>
      <trkpt lat="42.9665" lon="-0.61399">
        <ele>446</ele>
      </trkpt>
      <trkpt lat="42.96595" lon="-0.61346">
        <ele>450</ele>
      </trkpt>
      <trkpt lat="42.96554" lon="-0.61276">
        <ele>447</ele>
      </trkpt>
      <trkpt lat="42.96515" lon="-0.61198">
        <ele>452</ele>
      </trkpt>
      <trkpt lat="42.96466" lon="-0.61147">
        <ele>452</ele>
      </trkpt>
      <trkpt lat="42.96388" lon="-0.61108">
        <ele>454</ele>
      </trkpt>
      <trkpt lat="42.96331" lon="-0.61086">
        <ele>463</ele>
      </trkpt>
      <trkpt lat="42.96315" lon="-0.6106">
        <ele>463</ele>
      </trkpt>
      <trkpt lat="42.96298" lon="-0.61039">
        <ele>462</ele>
      </trkpt>
      <trkpt lat="42.96285" lon="-0.61005">
        <ele>474</ele>
      </trkpt>
      <trkpt lat="42.96286" lon="-0.61001">
        <ele>474</ele>
      </trkpt>
      <trkpt lat="42.96295" lon="-0.60996">
        <ele>462</ele>
      </trkpt>
      <trkpt lat="42.96418" lon="-0.60975">
        <ele>460</ele>
      </trkpt>
      <trkpt lat="42.96468" lon="-0.60954">
        <ele>478</ele>
      </trkpt>
      <trkpt lat="42.96487" lon="-0.60941">
        <ele>478</ele>
      </trkpt>
      <trkpt lat="42.96537" lon="-0.60935">
        <ele>478</ele>
      </trkpt>
      <trkpt lat="42.96546" lon="-0.60937">
        <ele>468</ele>
      </trkpt>
      <trkpt lat="42.96579" lon="-0.6093">
        <ele>468</ele>
      </trkpt>
      <trkpt lat="42.966" lon="-0.60916">
        <ele>468</ele>
      </trkpt>
      <trkpt lat="42.96633" lon="-0.60885">
        <ele>462</ele>
      </trkpt>
      <trkpt lat="42.96658" lon="-0.60877">
        <ele>462</ele>
      </trkpt>
      <trkpt lat="42.96671" lon="-0.6087">
        <ele>475</ele>
      </trkpt>
      <trkpt lat="42.96703" lon="-0.60831">
        <ele>475</ele>
      </trkpt>
      <trkpt lat="42.96744" lon="-0.60787">
        <ele>467</ele>
      </trkpt>
      <trkpt lat="42.96762" lon="-0.60773">
        <ele>467</ele>
      </trkpt>
      <trkpt lat="42.96776" lon="-0.60756">
        <ele>467</ele>
      </trkpt>
      <trkpt lat="42.9681" lon="-0.60725">
        <ele>451</ele>
      </trkpt>
      <trkpt lat="42.96823" lon="-0.60708">
        <ele>455</ele>
      </trkpt>
      <trkpt lat="42.9691" lon="-0.60628">
        <ele>447</ele>
      </trkpt>
      <trkpt lat="42.96935" lon="-0.6061">
        <ele>451</ele>
      </trkpt>
      <trkpt lat="42.96957" lon="-0.606">
        <ele>451</ele>
      </trkpt>
      <trkpt lat="42.96988" lon="-0.60597">
        <ele>447</ele>
      </trkpt>
      <trkpt lat="42.97047" lon="-0.60579">
        <ele>445</ele>
      </trkpt>
      <trkpt lat="42.97128" lon="-0.60543">
        <ele>446</ele>
      </trkpt>
      <trkpt lat="42.97182" lon="-0.60526">
        <ele>449</ele>
      </trkpt>
      <trkpt lat="42.97236" lon="-0.60504">
        <ele>449</ele>
      </trkpt>
      <trkpt lat="42.97277" lon="-0.60469">
        <ele>449</ele>
      </trkpt>
      <trkpt lat="42.97324" lon="-0.6042">
        <ele>454</ele>
      </trkpt>
      <trkpt lat="42.97373" lon="-0.60377">
        <ele>454</ele>
      </trkpt>
      <trkpt lat="42.97375" lon="-0.60358">
        <ele>452</ele>
      </trkpt>
      <trkpt lat="42.97352" lon="-0.60204">
        <ele>461</ele>
      </trkpt>
      <trkpt lat="42.97354" lon="-0.60172">
        <ele>461</ele>
      </trkpt>
      <trkpt lat="42.9736" lon="-0.60126">
        <ele>461</ele>
      </trkpt>
      <trkpt lat="42.97364" lon="-0.60057">
        <ele>462</ele>
      </trkpt>
      <trkpt lat="42.97378" lon="-0.60038">
        <ele>467</ele>
      </trkpt>
      <trkpt lat="42.97411" lon="-0.60014">
        <ele>467</ele>
      </trkpt>
      <trkpt lat="42.97411" lon="-0.60005">
        <ele>467</ele>
      </trkpt>
      <trkpt lat="42.97399" lon="-0.59978">
        <ele>467</ele>
      </trkpt>
      <trkpt lat="42.97398" lon="-0.59946">
        <ele>472</ele>
      </trkpt>
      <trkpt lat="42.97404" lon="-0.59932">
        <ele>472</ele>
      </trkpt>
      <trkpt lat="42.97409" lon="-0.59904">
        <ele>472</ele>
      </trkpt>
      <trkpt lat="42.97401" lon="-0.59843">
        <ele>477</ele>
      </trkpt>
      <trkpt lat="42.97372" lon="-0.59802">
        <ele>474</ele>
      </trkpt>
      <trkpt lat="42.97373" lon="-0.59767">
        <ele>479</ele>
      </trkpt>
      <trkpt lat="42.97386" lon="-0.59706">
        <ele>498</ele>
      </trkpt>
      <trkpt lat="42.97394" lon="-0.59692">
        <ele>498</ele>
      </trkpt>
      <trkpt lat="42.97392" lon="-0.59662">
        <ele>498</ele>
      </trkpt>
      <trkpt lat="42.97388" lon="-0.59658">
        <ele>498</ele>
      </trkpt>
      <trkpt lat="42.97388" lon="-0.59653">
        <ele>498</ele>
      </trkpt>
      <trkpt lat="42.97379" lon="-0.59642">
        <ele>498</ele>
      </trkpt>
      <trkpt lat="42.9738" lon="-0.59644">
        <ele>498</ele>
      </trkpt>
      <trkpt lat="42.97381" lon="-0.59642">
        <ele>498</ele>
      </trkpt>
      <trkpt lat="42.97368" lon="-0.59623">
        <ele>496</ele>
      </trkpt>
      <trkpt lat="42.97372" lon="-0.59579">
        <ele>496</ele>
      </trkpt>
      <trkpt lat="42.97378" lon="-0.59541">
        <ele>515</ele>
      </trkpt>
      <trkpt lat="42.97379" lon="-0.59504">
        <ele>515</ele>
      </trkpt>
      <trkpt lat="42.97376" lon="-0.59491">
        <ele>515</ele>
      </trkpt>
      <trkpt lat="42.97375" lon="-0.59452">
        <ele>524</ele>
      </trkpt>
      <trkpt lat="42.97382" lon="-0.59416">
        <ele>524</ele>
      </trkpt>
      <trkpt lat="42.97408" lon="-0.5939">
        <ele>524</ele>
      </trkpt>
      <trkpt lat="42.97423" lon="-0.59379">
        <ele>524</ele>
      </trkpt>
      <trkpt lat="42.97453" lon="-0.5935">
        <ele>532</ele>
      </trkpt>
      <trkpt lat="42.9748" lon="-0.59304">
        <ele>526</ele>
      </trkpt>
      <trkpt lat="42.97504" lon="-0.59251">
        <ele>533</ele>
      </trkpt>
      <trkpt lat="42.97524" lon="-0.59199">
        <ele>538</ele>
      </trkpt>
      <trkpt lat="42.97521" lon="-0.59083">
        <ele>539</ele>
      </trkpt>
      <trkpt lat="42.97541" lon="-0.59068">
        <ele>539</ele>
      </trkpt>
      <trkpt lat="42.97543" lon="-0.59062">
        <ele>543</ele>
      </trkpt>
      <trkpt lat="42.9754" lon="-0.59048">
        <ele>539</ele>
      </trkpt>
      <trkpt lat="42.97519" lon="-0.59036">
        <ele>552</ele>
      </trkpt>
      <trkpt lat="42.97517" lon="-0.59037">
        <ele>552</ele>
      </trkpt>
      <trkpt lat="42.97513" lon="-0.59034">
        <ele>552</ele>
      </trkpt>
      <trkpt lat="42.97489" lon="-0.59029">
        <ele>552</ele>
      </trkpt>
      <trkpt lat="42.97442" lon="-0.59005">
        <ele>551</ele>
      </trkpt>
      <trkpt lat="42.97433" lon="-0.58997">
        <ele>551</ele>
      </trkpt>
      <trkpt lat="42.97421" lon="-0.58973">
        <ele>551</ele>
      </trkpt>
      <trkpt lat="42.97412" lon="-0.58933">
        <ele>558</ele>
      </trkpt>
      <trkpt lat="42.9741" lon="-0.58907">
        <ele>558</ele>
      </trkpt>
      <trkpt lat="42.97416" lon="-0.58899">
        <ele>558</ele>
      </trkpt>
      <trkpt lat="42.97442" lon="-0.58903">
        <ele>558</ele>
      </trkpt>
      <trkpt lat="42.97466" lon="-0.58903">
        <ele>564</ele>
      </trkpt>
      <trkpt lat="42.97523" lon="-0.58911">
        <ele>564</ele>
      </trkpt>
      <trkpt lat="42.97573" lon="-0.58961">
        <ele>559</ele>
      </trkpt>
      <trkpt lat="42.9757" lon="-0.58944">
        <ele>576</ele>
      </trkpt>
      <trkpt lat="42.97552" lon="-0.5892">
        <ele>576</ele>
      </trkpt>
      <trkpt lat="42.97552" lon="-0.58916">
        <ele>576</ele>
      </trkpt>
      <trkpt lat="42.97525" lon="-0.58881">
        <ele>564</ele>
      </trkpt>
      <trkpt lat="42.97455" lon="-0.5885">
        <ele>574</ele>
      </trkpt>
      <trkpt lat="42.9746" lon="-0.58839">
        <ele>583</ele>
      </trkpt>
      <trkpt lat="42.97501" lon="-0.58837">
        <ele>583</ele>
      </trkpt>
      <trkpt lat="42.97544" lon="-0.58842">
        <ele>595</ele>
      </trkpt>
      <trkpt lat="42.97583" lon="-0.58858">
        <ele>595</ele>
      </trkpt>
      <trkpt lat="42.97587" lon="-0.58856">
        <ele>595</ele>
      </trkpt>
      <trkpt lat="42.97589" lon="-0.58849">
        <ele>595</ele>
      </trkpt>
      <trkpt lat="42.97588" lon="-0.58843">
        <ele>595</ele>
      </trkpt>
      <trkpt lat="42.97567" lon="-0.58819">
        <ele>595</ele>
      </trkpt>
      <trkpt lat="42.97511" lon="-0.58746">
        <ele>601</ele>
      </trkpt>
      <trkpt lat="42.97494" lon="-0.58718">
        <ele>601</ele>
      </trkpt>
      <trkpt lat="42.97472" lon="-0.58667">
        <ele>620</ele>
      </trkpt>
      <trkpt lat="42.97442" lon="-0.58619">
        <ele>609</ele>
      </trkpt>
      <trkpt lat="42.97426" lon="-0.58576">
        <ele>609</ele>
      </trkpt>
      <trkpt lat="42.97445" lon="-0.58544">
        <ele>609</ele>
      </trkpt>
      <trkpt lat="42.97466" lon="-0.58519">
        <ele>640</ele>
      </trkpt>
      <trkpt lat="42.97491" lon="-0.58478">
        <ele>640</ele>
      </trkpt>
      <trkpt lat="42.97488" lon="-0.58442">
        <ele>648</ele>
      </trkpt>
      <trkpt lat="42.9748" lon="-0.58407">
        <ele>648</ele>
      </trkpt>
      <trkpt lat="42.97478" lon="-0.58405">
        <ele>648</ele>
      </trkpt>
      <trkpt lat="42.97476" lon="-0.58395">
        <ele>648</ele>
      </trkpt>
      <trkpt lat="42.97463" lon="-0.58371">
        <ele>668</ele>
      </trkpt>
      <trkpt lat="42.97453" lon="-0.58343">
        <ele>628</ele>
      </trkpt>
      <trkpt lat="42.97461" lon="-0.58302">
        <ele>668</ele>
      </trkpt>
      <trkpt lat="42.97461" lon="-0.5824">
        <ele>676</ele>
      </trkpt>
      <trkpt lat="42.97464" lon="-0.58227">
        <ele>676</ele>
      </trkpt>
      <trkpt lat="42.97487" lon="-0.58186">
        <ele>677</ele>
      </trkpt>
      <trkpt lat="42.9749" lon="-0.58177">
        <ele>677</ele>
      </trkpt>
      <trkpt lat="42.97491" lon="-0.58165">
        <ele>677</ele>
      </trkpt>
      <trkpt lat="42.97487" lon="-0.58151">
        <ele>677</ele>
      </trkpt>
      <trkpt lat="42.97487" lon="-0.58139">
        <ele>677</ele>
      </trkpt>
      <trkpt lat="42.97485" lon="-0.58138">
        <ele>677</ele>
      </trkpt>
      <trkpt lat="42.97482" lon="-0.58128">
        <ele>677</ele>
      </trkpt>
      <trkpt lat="42.97482" lon="-0.58109">
        <ele>689</ele>
      </trkpt>
      <trkpt lat="42.97486" lon="-0.58092">
        <ele>689</ele>
      </trkpt>
      <trkpt lat="42.97486" lon="-0.58059">
        <ele>689</ele>
      </trkpt>
      <trkpt lat="42.9747" lon="-0.58027">
        <ele>709</ele>
      </trkpt>
      <trkpt lat="42.9744" lon="-0.57993">
        <ele>674</ele>
      </trkpt>
      <trkpt lat="42.9741" lon="-0.57945">
        <ele>696</ele>
      </trkpt>
      <trkpt lat="42.97387" lon="-0.57914">
        <ele>696</ele>
      </trkpt>
      <trkpt lat="42.97356" lon="-0.57884">
        <ele>681</ele>
      </trkpt>
      <trkpt lat="42.97326" lon="-0.57864">
        <ele>695</ele>
      </trkpt>
      <trkpt lat="42.97308" lon="-0.57849">
        <ele>695</ele>
      </trkpt>
      <trkpt lat="42.97313" lon="-0.57833">
        <ele>695</ele>
      </trkpt>
      <trkpt lat="42.97316" lon="-0.57811">
        <ele>695</ele>
      </trkpt>
      <trkpt lat="42.97315" lon="-0.57792">
        <ele>695</ele>
      </trkpt>
      <trkpt lat="42.973" lon="-0.5774">
        <ele>704</ele>
      </trkpt>
      <trkpt lat="42.97264" lon="-0.57711">
        <ele>693</ele>
      </trkpt>
      <trkpt lat="42.97247" lon="-0.57701">
        <ele>712</ele>
      </trkpt>
      <trkpt lat="42.97243" lon="-0.57701">
        <ele>712</ele>
      </trkpt>
      <trkpt lat="42.97245" lon="-0.57698">
        <ele>712</ele>
      </trkpt>
      <trkpt lat="42.97243" lon="-0.57692">
        <ele>712</ele>
      </trkpt>
      <trkpt lat="42.9724" lon="-0.57692">
        <ele>712</ele>
      </trkpt>
      <trkpt lat="42.97193" lon="-0.5764">
        <ele>705</ele>
      </trkpt>
      <trkpt lat="42.97165" lon="-0.576">
        <ele>720</ele>
      </trkpt>
      <trkpt lat="42.97178" lon="-0.57574">
        <ele>720</ele>
      </trkpt>
      <trkpt lat="42.97211" lon="-0.57553">
        <ele>725</ele>
      </trkpt>
      <trkpt lat="42.97229" lon="-0.57521">
        <ele>730</ele>
      </trkpt>
      <trkpt lat="42.97233" lon="-0.57503">
        <ele>730</ele>
      </trkpt>
      <trkpt lat="42.97225" lon="-0.57465">
        <ele>730</ele>
      </trkpt>
      <trkpt lat="42.972" lon="-0.57473">
        <ele>734</ele>
      </trkpt>
      <trkpt lat="42.9717" lon="-0.57492">
        <ele>734</ele>
      </trkpt>
      <trkpt lat="42.97156" lon="-0.57495">
        <ele>734</ele>
      </trkpt>
      <trkpt lat="42.97132" lon="-0.57487">
        <ele>734</ele>
      </trkpt>
      <trkpt lat="42.97128" lon="-0.57481">
        <ele>734</ele>
      </trkpt>
      <trkpt lat="42.97124" lon="-0.57449">
        <ele>741</ele>
      </trkpt>
      <trkpt lat="42.97125" lon="-0.57444">
        <ele>741</ele>
      </trkpt>
      <trkpt lat="42.97116" lon="-0.57395">
        <ele>741</ele>
      </trkpt>
      <trkpt lat="42.97119" lon="-0.57386">
        <ele>741</ele>
      </trkpt>
      <trkpt lat="42.97128" lon="-0.57376">
        <ele>756</ele>
      </trkpt>
      <trkpt lat="42.97177" lon="-0.57385">
        <ele>756</ele>
      </trkpt>
      <trkpt lat="42.97185" lon="-0.57375">
        <ele>756</ele>
      </trkpt>
      <trkpt lat="42.97183" lon="-0.57367">
        <ele>780</ele>
      </trkpt>
      <trkpt lat="42.97177" lon="-0.57363">
        <ele>780</ele>
      </trkpt>
      <trkpt lat="42.97172" lon="-0.57364">
        <ele>780</ele>
      </trkpt>
      <trkpt lat="42.97164" lon="-0.57358">
        <ele>780</ele>
      </trkpt>
      <trkpt lat="42.97147" lon="-0.57327">
        <ele>780</ele>
      </trkpt>
      <trkpt lat="42.97147" lon="-0.57321">
        <ele>780</ele>
      </trkpt>
      <trkpt lat="42.97144" lon="-0.57319">
        <ele>780</ele>
      </trkpt>
      <trkpt lat="42.97131" lon="-0.57283">
        <ele>795</ele>
      </trkpt>
      <trkpt lat="42.9713" lon="-0.57275">
        <ele>795</ele>
      </trkpt>
      <trkpt lat="42.97121" lon="-0.57259">
        <ele>775</ele>
      </trkpt>
      <trkpt lat="42.97122" lon="-0.5725">
        <ele>775</ele>
      </trkpt>
      <trkpt lat="42.97117" lon="-0.57228">
        <ele>775</ele>
      </trkpt>
      <trkpt lat="42.97115" lon="-0.57201">
        <ele>785</ele>
      </trkpt>
      <trkpt lat="42.97111" lon="-0.57181">
        <ele>785</ele>
      </trkpt>
      <trkpt lat="42.97121" lon="-0.57148">
        <ele>785</ele>
      </trkpt>
      <trkpt lat="42.97122" lon="-0.57114">
        <ele>792</ele>
      </trkpt>
      <trkpt lat="42.97109" lon="-0.57093">
        <ele>792</ele>
      </trkpt>
      <trkpt lat="42.97117" lon="-0.57081">
        <ele>792</ele>
      </trkpt>
      <trkpt lat="42.97139" lon="-0.57094">
        <ele>806</ele>
      </trkpt>
      <trkpt lat="42.97154" lon="-0.57094">
        <ele>806</ele>
      </trkpt>
      <trkpt lat="42.97172" lon="-0.57086">
        <ele>806</ele>
      </trkpt>
      <trkpt lat="42.97194" lon="-0.5708">
        <ele>806</ele>
      </trkpt>
      <trkpt lat="42.97207" lon="-0.5708">
        <ele>806</ele>
      </trkpt>
      <trkpt lat="42.97212" lon="-0.57072">
        <ele>812</ele>
      </trkpt>
      <trkpt lat="42.97208" lon="-0.57065">
        <ele>806</ele>
      </trkpt>
      <trkpt lat="42.97191" lon="-0.57068">
        <ele>806</ele>
      </trkpt>
      <trkpt lat="42.97181" lon="-0.57067">
        <ele>806</ele>
      </trkpt>
      <trkpt lat="42.97175" lon="-0.57062">
        <ele>806</ele>
      </trkpt>
      <trkpt lat="42.97173" lon="-0.57042">
        <ele>806</ele>
      </trkpt>
      <trkpt lat="42.97176" lon="-0.5703">
        <ele>814</ele>
      </trkpt>
      <trkpt lat="42.97189" lon="-0.57016">
        <ele>814</ele>
      </trkpt>
      <trkpt lat="42.97207" lon="-0.57011">
        <ele>814</ele>
      </trkpt>
      <trkpt lat="42.97225" lon="-0.57013">
        <ele>821</ele>
      </trkpt>
      <trkpt lat="42.97254" lon="-0.57028">
        <ele>821</ele>
      </trkpt>
      <trkpt lat="42.97275" lon="-0.57034">
        <ele>821</ele>
      </trkpt>
      <trkpt lat="42.97283" lon="-0.57027">
        <ele>821</ele>
      </trkpt>
      <trkpt lat="42.97295" lon="-0.56947">
        <ele>856</ele>
      </trkpt>
      <trkpt lat="42.9729" lon="-0.56912">
        <ele>822</ele>
      </trkpt>
      <trkpt lat="42.97291" lon="-0.56863">
        <ele>824</ele>
      </trkpt>
      <trkpt lat="42.97281" lon="-0.56809">
        <ele>824</ele>
      </trkpt>
      <trkpt lat="42.97276" lon="-0.56791">
        <ele>845</ele>
      </trkpt>
      <trkpt lat="42.97272" lon="-0.56785">
        <ele>845</ele>
      </trkpt>
      <trkpt lat="42.97265" lon="-0.5678">
        <ele>845</ele>
      </trkpt>
      <trkpt lat="42.9725" lon="-0.56775">
        <ele>845</ele>
      </trkpt>
      <trkpt lat="42.9723" lon="-0.5676">
        <ele>845</ele>
      </trkpt>
      <trkpt lat="42.97215" lon="-0.56714">
        <ele>845</ele>
      </trkpt>
      <trkpt lat="42.97217" lon="-0.56667">
        <ele>865</ele>
      </trkpt>
      <trkpt lat="42.97215" lon="-0.56647">
        <ele>865</ele>
      </trkpt>
      <trkpt lat="42.97205" lon="-0.56613">
        <ele>852</ele>
      </trkpt>
      <trkpt lat="42.97195" lon="-0.566">
        <ele>852</ele>
      </trkpt>
      <trkpt lat="42.97141" lon="-0.56564">
        <ele>852</ele>
      </trkpt>
      <trkpt lat="42.97134" lon="-0.56556">
        <ele>852</ele>
      </trkpt>
      <trkpt lat="42.97135" lon="-0.56553">
        <ele>852</ele>
      </trkpt>
      <trkpt lat="42.97139" lon="-0.56551">
        <ele>852</ele>
      </trkpt>
      <trkpt lat="42.97162" lon="-0.5656">
        <ele>852</ele>
      </trkpt>
      <trkpt lat="42.97184" lon="-0.56574">
        <ele>852</ele>
      </trkpt>
      <trkpt lat="42.97214" lon="-0.56587">
        <ele>887</ele>
      </trkpt>
      <trkpt lat="42.97238" lon="-0.56612">
        <ele>887</ele>
      </trkpt>
      <trkpt lat="42.97257" lon="-0.56646">
        <ele>865</ele>
      </trkpt>
      <trkpt lat="42.97263" lon="-0.56663">
        <ele>865</ele>
      </trkpt>
      <trkpt lat="42.97288" lon="-0.56714">
        <ele>845</ele>
      </trkpt>
      <trkpt lat="42.97312" lon="-0.56739">
        <ele>887</ele>
      </trkpt>
      <trkpt lat="42.97357" lon="-0.56774">
        <ele>887</ele>
      </trkpt>
      <trkpt lat="42.97365" lon="-0.56794">
        <ele>868</ele>
      </trkpt>
      <trkpt lat="42.97366" lon="-0.56834">
        <ele>868</ele>
      </trkpt>
      <trkpt lat="42.97382" lon="-0.56924">
        <ele>920</ele>
      </trkpt>
      <trkpt lat="42.9739" lon="-0.5695">
        <ele>920</ele>
      </trkpt>
      <trkpt lat="42.97396" lon="-0.56959">
        <ele>889</ele>
      </trkpt>
      <trkpt lat="42.97421" lon="-0.56978">
        <ele>889</ele>
      </trkpt>
      <trkpt lat="42.97453" lon="-0.57014">
        <ele>889</ele>
      </trkpt>
      <trkpt lat="42.97463" lon="-0.57018">
        <ele>944</ele>
      </trkpt>
      <trkpt lat="42.97483" lon="-0.57019">
        <ele>944</ele>
      </trkpt>
      <trkpt lat="42.97486" lon="-0.57024">
        <ele>944</ele>
      </trkpt>
      <trkpt lat="42.9749" lon="-0.57026">
        <ele>944</ele>
      </trkpt>
      <trkpt lat="42.97498" lon="-0.5704">
        <ele>944</ele>
      </trkpt>
      <trkpt lat="42.9751" lon="-0.57077">
        <ele>904</ele>
      </trkpt>
      <trkpt lat="42.97528" lon="-0.57101">
        <ele>904</ele>
      </trkpt>
      <trkpt lat="42.9755" lon="-0.57115">
        <ele>958</ele>
      </trkpt>
      <trkpt lat="42.97568" lon="-0.57139">
        <ele>940</ele>
      </trkpt>
      <trkpt lat="42.97572" lon="-0.57158">
        <ele>940</ele>
      </trkpt>
      <trkpt lat="42.97574" lon="-0.57197">
        <ele>940</ele>
      </trkpt>
      <trkpt lat="42.97572" lon="-0.57219">
        <ele>938</ele>
      </trkpt>
      <trkpt lat="42.97565" lon="-0.57257">
        <ele>938</ele>
      </trkpt>
      <trkpt lat="42.97569" lon="-0.57284">
        <ele>938</ele>
      </trkpt>
      <trkpt lat="42.9758" lon="-0.57318">
        <ele>939</ele>
      </trkpt>
      <trkpt lat="42.97586" lon="-0.5733">
        <ele>939</ele>
      </trkpt>
      <trkpt lat="42.97587" lon="-0.57338">
        <ele>939</ele>
      </trkpt>
      <trkpt lat="42.97592" lon="-0.57351">
        <ele>939</ele>
      </trkpt>
      <trkpt lat="42.97595" lon="-0.57369">
        <ele>939</ele>
      </trkpt>
      <trkpt lat="42.97598" lon="-0.57424">
        <ele>935</ele>
      </trkpt>
      <trkpt lat="42.97603" lon="-0.57457">
        <ele>935</ele>
      </trkpt>
      <trkpt lat="42.97604" lon="-0.57482">
        <ele>923</ele>
      </trkpt>
      <trkpt lat="42.97615" lon="-0.57511">
        <ele>923</ele>
      </trkpt>
      <trkpt lat="42.97642" lon="-0.57524">
        <ele>980</ele>
      </trkpt>
      <trkpt lat="42.97689" lon="-0.57575">
        <ele>946</ele>
      </trkpt>
      <trkpt lat="42.97693" lon="-0.57576">
        <ele>946</ele>
      </trkpt>
      <trkpt lat="42.9771" lon="-0.57605">
        <ele>1008</ele>
      </trkpt>
      <trkpt lat="42.97717" lon="-0.57623">
        <ele>1008</ele>
      </trkpt>
      <trkpt lat="42.97732" lon="-0.57646">
        <ele>971</ele>
      </trkpt>
      <trkpt lat="42.97752" lon="-0.57669">
        <ele>971</ele>
      </trkpt>
      <trkpt lat="42.97779" lon="-0.57685">
        <ele>971</ele>
      </trkpt>
      <trkpt lat="42.9779" lon="-0.57698">
        <ele>971</ele>
      </trkpt>
      <trkpt lat="42.97813" lon="-0.57714">
        <ele>971</ele>
      </trkpt>
      <trkpt lat="42.97843" lon="-0.57718">
        <ele>971</ele>
      </trkpt>
      <trkpt lat="42.97875" lon="-0.57728">
        <ele>971</ele>
      </trkpt>
      <trkpt lat="42.97901" lon="-0.57747">
        <ele>1007</ele>
      </trkpt>
      <trkpt lat="42.97917" lon="-0.57771">
        <ele>1007</ele>
      </trkpt>
      <trkpt lat="42.9793" lon="-0.57833">
        <ele>987</ele>
      </trkpt>
      <trkpt lat="42.97937" lon="-0.57854">
        <ele>987</ele>
      </trkpt>
      <trkpt lat="42.97951" lon="-0.57872">
        <ele>987</ele>
      </trkpt>
      <trkpt lat="42.97963" lon="-0.57882">
        <ele>1003</ele>
      </trkpt>
      <trkpt lat="42.97975" lon="-0.57879">
        <ele>1003</ele>
      </trkpt>
      <trkpt lat="42.97982" lon="-0.57871">
        <ele>1009</ele>
      </trkpt>
      <trkpt lat="42.98007" lon="-0.57822">
        <ele>1009</ele>
      </trkpt>
      <trkpt lat="42.98011" lon="-0.57808">
        <ele>1009</ele>
      </trkpt>
      <trkpt lat="42.98007" lon="-0.57797">
        <ele>1009</ele>
      </trkpt>
      <trkpt lat="42.98002" lon="-0.57793">
        <ele>1009</ele>
      </trkpt>
      <trkpt lat="42.97991" lon="-0.57791">
        <ele>1025</ele>
      </trkpt>
      <trkpt lat="42.97968" lon="-0.57793">
        <ele>1009</ele>
      </trkpt>
      <trkpt lat="42.97956" lon="-0.57782">
        <ele>1007</ele>
      </trkpt>
      <trkpt lat="42.97956" lon="-0.57776">
        <ele>1007</ele>
      </trkpt>
      <trkpt lat="42.97961" lon="-0.57769">
        <ele>1025</ele>
      </trkpt>
      <trkpt lat="42.97974" lon="-0.57763">
        <ele>1025</ele>
      </trkpt>
      <trkpt lat="42.98013" lon="-0.57759">
        <ele>1025</ele>
      </trkpt>
      <trkpt lat="42.9801" lon="-0.57757">
        <ele>1025</ele>
      </trkpt>
      <trkpt lat="42.98011" lon="-0.57759">
        <ele>1025</ele>
      </trkpt>
      <trkpt lat="42.9801" lon="-0.57757">
        <ele>1025</ele>
      </trkpt>
      <trkpt lat="42.98017" lon="-0.57751">
        <ele>1025</ele>
      </trkpt>
      <trkpt lat="42.98049" lon="-0.57698">
        <ele>1037</ele>
      </trkpt>
      <trkpt lat="42.98059" lon="-0.57673">
        <ele>1037</ele>
      </trkpt>
      <trkpt lat="42.98077" lon="-0.57654">
        <ele>1037</ele>
      </trkpt>
      <trkpt lat="42.9811" lon="-0.57657">
        <ele>1037</ele>
      </trkpt>
      <trkpt lat="42.98135" lon="-0.57652">
        <ele>1018</ele>
      </trkpt>
      <trkpt lat="42.98144" lon="-0.57639">
        <ele>1018</ele>
      </trkpt>
      <trkpt lat="42.98145" lon="-0.57628">
        <ele>1018</ele>
      </trkpt>
      <trkpt lat="42.98143" lon="-0.57612">
        <ele>1038</ele>
      </trkpt>
      <trkpt lat="42.98141" lon="-0.57609">
        <ele>1038</ele>
      </trkpt>
      <trkpt lat="42.98138" lon="-0.57569">
        <ele>1038</ele>
      </trkpt>
      <trkpt lat="42.98134" lon="-0.57552">
        <ele>1038</ele>
      </trkpt>
      <trkpt lat="42.98132" lon="-0.57531">
        <ele>1064</ele>
      </trkpt>
      <trkpt lat="42.98133" lon="-0.57518">
        <ele>1064</ele>
      </trkpt>
      <trkpt lat="42.98154" lon="-0.57489">
        <ele>1064</ele>
      </trkpt>
      <trkpt lat="42.98174" lon="-0.57468">
        <ele>1064</ele>
      </trkpt>
      <trkpt lat="42.98188" lon="-0.57464">
        <ele>1064</ele>
      </trkpt>
      <trkpt lat="42.9825" lon="-0.57471">
        <ele>1044</ele>
      </trkpt>
      <trkpt lat="42.98278" lon="-0.57462">
        <ele>1044</ele>
      </trkpt>
      <trkpt lat="42.98329" lon="-0.57456">
        <ele>1087</ele>
      </trkpt>
      <trkpt lat="42.98357" lon="-0.57457">
        <ele>1087</ele>
      </trkpt>
      <trkpt lat="42.98377" lon="-0.57427">
        <ele>1059</ele>
      </trkpt>
      <trkpt lat="42.98379" lon="-0.57409">
        <ele>1059</ele>
      </trkpt>
      <trkpt lat="42.9839" lon="-0.57371">
        <ele>1072</ele>
      </trkpt>
      <trkpt lat="42.9839" lon="-0.57327">
        <ele>1072</ele>
      </trkpt>
      <trkpt lat="42.98398" lon="-0.5731">
        <ele>1072</ele>
      </trkpt>
      <trkpt lat="42.98418" lon="-0.57288">
        <ele>1098</ele>
      </trkpt>
      <trkpt lat="42.98459" lon="-0.57271">
        <ele>1064</ele>
      </trkpt>
      <trkpt lat="42.98489" lon="-0.57234">
        <ele>1064</ele>
      </trkpt>
      <trkpt lat="42.98502" lon="-0.57181">
        <ele>1083</ele>
      </trkpt>
      <trkpt lat="42.98542" lon="-0.57104">
        <ele>1055</ele>
      </trkpt>
      <trkpt lat="42.98571" lon="-0.57063">
        <ele>1055</ele>
      </trkpt>
      <trkpt lat="42.98572" lon="-0.57065">
        <ele>1055</ele>
      </trkpt>
      <trkpt lat="42.98641" lon="-0.57029">
        <ele>1041</ele>
      </trkpt>
      <trkpt lat="42.9864" lon="-0.57005">
        <ele>1041</ele>
      </trkpt>
      <trkpt lat="42.98622" lon="-0.57001">
        <ele>1067</ele>
      </trkpt>
      <trkpt lat="42.98603" lon="-0.56983">
        <ele>1067</ele>
      </trkpt>
      <trkpt lat="42.98563" lon="-0.56911">
        <ele>1053</ele>
      </trkpt>
      <trkpt lat="42.98548" lon="-0.56892">
        <ele>1053</ele>
      </trkpt>
      <trkpt lat="42.9854" lon="-0.56833">
        <ele>1077</ele>
      </trkpt>
      <trkpt lat="42.98546" lon="-0.56815">
        <ele>1040</ele>
      </trkpt>
      <trkpt lat="42.98552" lon="-0.56767">
        <ele>1036</ele>
      </trkpt>
      <trkpt lat="42.98543" lon="-0.56697">
        <ele>1025</ele>
      </trkpt>
      <trkpt lat="42.98531" lon="-0.56643">
        <ele>1061</ele>
      </trkpt>
      <trkpt lat="42.98519" lon="-0.5661">
        <ele>1045</ele>
      </trkpt>
      <trkpt lat="42.98482" lon="-0.56522">
        <ele>1023</ele>
      </trkpt>
      <trkpt lat="42.98468" lon="-0.56496">
        <ele>1023</ele>
      </trkpt>
      <trkpt lat="42.9845" lon="-0.56474">
        <ele>1048</ele>
      </trkpt>
      <trkpt lat="42.98347" lon="-0.56376">
        <ele>1037</ele>
      </trkpt>
      <trkpt lat="42.9835" lon="-0.56369">
        <ele>1005</ele>
      </trkpt>
      <trkpt lat="42.98402" lon="-0.56405">
        <ele>1015</ele>
      </trkpt>
      <trkpt lat="42.98496" lon="-0.56464">
        <ele>1023</ele>
      </trkpt>
      <trkpt lat="42.98596" lon="-0.56552">
        <ele>1011</ele>
      </trkpt>
      <trkpt lat="42.98624" lon="-0.5657">
        <ele>1011</ele>
      </trkpt>
      <trkpt lat="42.98647" lon="-0.5659">
        <ele>983</ele>
      </trkpt>
      <trkpt lat="42.98672" lon="-0.56625">
        <ele>993</ele>
      </trkpt>
      <trkpt lat="42.98682" lon="-0.56661">
        <ele>993</ele>
      </trkpt>
      <trkpt lat="42.98681" lon="-0.56691">
        <ele>993</ele>
      </trkpt>
      <trkpt lat="42.98678" lon="-0.56713">
        <ele>995</ele>
      </trkpt>
      <trkpt lat="42.98682" lon="-0.5679">
        <ele>995</ele>
      </trkpt>
      <trkpt lat="42.98709" lon="-0.56798">
        <ele>986</ele>
      </trkpt>
      <trkpt lat="42.98766" lon="-0.56755">
        <ele>966</ele>
      </trkpt>
      <trkpt lat="42.98802" lon="-0.56742">
        <ele>952</ele>
      </trkpt>
      <trkpt lat="42.98839" lon="-0.56742">
        <ele>952</ele>
      </trkpt>
      <trkpt lat="42.98873" lon="-0.56768">
        <ele>952</ele>
      </trkpt>
      <trkpt lat="42.98924" lon="-0.56813">
        <ele>943</ele>
      </trkpt>
      <trkpt lat="42.98923" lon="-0.5682">
        <ele>943</ele>
      </trkpt>
      <trkpt lat="42.98925" lon="-0.56848">
        <ele>943</ele>
      </trkpt>
      <trkpt lat="42.98934" lon="-0.56845">
        <ele>943</ele>
      </trkpt>
      <trkpt lat="42.98937" lon="-0.56818">
        <ele>943</ele>
      </trkpt>
      <trkpt lat="42.98925" lon="-0.56785">
        <ele>918</ele>
      </trkpt>
      <trkpt lat="42.98898" lon="-0.56745">
        <ele>918</ele>
      </trkpt>
      <trkpt lat="42.98884" lon="-0.56704">
        <ele>883</ele>
      </trkpt>
      <trkpt lat="42.98864" lon="-0.56668">
        <ele>923</ele>
      </trkpt>
      <trkpt lat="42.98855" lon="-0.56658">
        <ele>923</ele>
      </trkpt>
      <trkpt lat="42.98862" lon="-0.5666">
        <ele>923</ele>
      </trkpt>
      <trkpt lat="42.98885" lon="-0.56678">
        <ele>883</ele>
      </trkpt>
      <trkpt lat="42.98905" lon="-0.56709">
        <ele>918</ele>
      </trkpt>
      <trkpt lat="42.98942" lon="-0.56749">
        <ele>918</ele>
      </trkpt>
      <trkpt lat="42.98953" lon="-0.56756">
        <ele>918</ele>
      </trkpt>
      <trkpt lat="42.98992" lon="-0.56767">
        <ele>883</ele>
      </trkpt>
      <trkpt lat="42.99003" lon="-0.56775">
        <ele>883</ele>
      </trkpt>
      <trkpt lat="42.99034" lon="-0.56851">
        <ele>900</ele>
      </trkpt>
      <trkpt lat="42.99039" lon="-0.56872">
        <ele>900</ele>
      </trkpt>
      <trkpt lat="42.99028" lon="-0.56958">
        <ele>893</ele>
      </trkpt>
      <trkpt lat="42.99034" lon="-0.57014">
        <ele>878</ele>
      </trkpt>
      <trkpt lat="42.99031" lon="-0.57055">
        <ele>871</ele>
      </trkpt>
      <trkpt lat="42.99037" lon="-0.57072">
        <ele>871</ele>
      </trkpt>
      <trkpt lat="42.99069" lon="-0.57092">
        <ele>822</ele>
      </trkpt>
      <trkpt lat="42.99086" lon="-0.57145">
        <ele>820</ele>
      </trkpt>
      <trkpt lat="42.99075" lon="-0.57177">
        <ele>820</ele>
      </trkpt>
      <trkpt lat="42.99095" lon="-0.57241">
        <ele>808</ele>
      </trkpt>
      <trkpt lat="42.99115" lon="-0.57253">
        <ele>808</ele>
      </trkpt>
      <trkpt lat="42.99115" lon="-0.57311">
        <ele>792</ele>
      </trkpt>
      <trkpt lat="42.99126" lon="-0.57313">
        <ele>759</ele>
      </trkpt>
      <trkpt lat="42.99131" lon="-0.57319">
        <ele>759</ele>
      </trkpt>
      <trkpt lat="42.99145" lon="-0.57323">
        <ele>759</ele>
      </trkpt>
      <trkpt lat="42.99152" lon="-0.57339">
        <ele>759</ele>
      </trkpt>
      <trkpt lat="42.99141" lon="-0.57369">
        <ele>759</ele>
      </trkpt>
      <trkpt lat="42.99141" lon="-0.57383">
        <ele>734</ele>
      </trkpt>
      <trkpt lat="42.99149" lon="-0.57397">
        <ele>734</ele>
      </trkpt>
      <trkpt lat="42.99157" lon="-0.57405">
        <ele>734</ele>
      </trkpt>
      <trkpt lat="42.99151" lon="-0.57421">
        <ele>734</ele>
      </trkpt>
      <trkpt lat="42.99145" lon="-0.57427">
        <ele>734</ele>
      </trkpt>
      <trkpt lat="42.99133" lon="-0.57463">
        <ele>705</ele>
      </trkpt>
      <trkpt lat="42.99114" lon="-0.57481">
        <ele>737</ele>
      </trkpt>
      <trkpt lat="42.99122" lon="-0.57487">
        <ele>737</ele>
      </trkpt>
      <trkpt lat="42.99152" lon="-0.57483">
        <ele>705</ele>
      </trkpt>
      <trkpt lat="42.99152" lon="-0.57506">
        <ele>705</ele>
      </trkpt>
      <trkpt lat="42.99136" lon="-0.57511">
        <ele>705</ele>
      </trkpt>
      <trkpt lat="42.99127" lon="-0.5751">
        <ele>705</ele>
      </trkpt>
      <trkpt lat="42.99099" lon="-0.57545">
        <ele>731</ele>
      </trkpt>
      <trkpt lat="42.99099" lon="-0.57552">
        <ele>731</ele>
      </trkpt>
      <trkpt lat="42.99121" lon="-0.57575">
        <ele>731</ele>
      </trkpt>
      <trkpt lat="42.99136" lon="-0.57583">
        <ele>691</ele>
      </trkpt>
      <trkpt lat="42.99171" lon="-0.57612">
        <ele>691</ele>
      </trkpt>
      <trkpt lat="42.99212" lon="-0.57659">
        <ele>662</ele>
      </trkpt>
      <trkpt lat="42.99219" lon="-0.577">
        <ele>662</ele>
      </trkpt>
      <trkpt lat="42.99204" lon="-0.57739">
        <ele>720</ele>
      </trkpt>
      <trkpt lat="42.99213" lon="-0.57773">
        <ele>682</ele>
      </trkpt>
      <trkpt lat="42.99228" lon="-0.57794">
        <ele>692</ele>
      </trkpt>
      <trkpt lat="42.99236" lon="-0.57829">
        <ele>692</ele>
      </trkpt>
      <trkpt lat="42.9924" lon="-0.57862">
        <ele>692</ele>
      </trkpt>
      <trkpt lat="42.99239" lon="-0.57917">
        <ele>697</ele>
      </trkpt>
      <trkpt lat="42.99249" lon="-0.57957">
        <ele>697</ele>
      </trkpt>
      <trkpt lat="42.99255" lon="-0.57992">
        <ele>693</ele>
      </trkpt>
      <trkpt lat="42.99256" lon="-0.58014">
        <ele>693</ele>
      </trkpt>
      <trkpt lat="42.99241" lon="-0.58071">
        <ele>677</ele>
      </trkpt>
      <trkpt lat="42.99214" lon="-0.58147">
        <ele>665</ele>
      </trkpt>
      <trkpt lat="42.99215" lon="-0.58196">
        <ele>665</ele>
      </trkpt>
      <trkpt lat="42.99226" lon="-0.58242">
        <ele>657</ele>
      </trkpt>
      <trkpt lat="42.99222" lon="-0.58287">
        <ele>657</ele>
      </trkpt>
      <trkpt lat="42.99229" lon="-0.58342">
        <ele>658</ele>
      </trkpt>
      <trkpt lat="42.99227" lon="-0.58352">
        <ele>658</ele>
      </trkpt>
      <trkpt lat="42.99238" lon="-0.58404">
        <ele>651</ele>
      </trkpt>
      <trkpt lat="42.9923" lon="-0.58425">
        <ele>651</ele>
      </trkpt>
      <trkpt lat="42.9924" lon="-0.5849">
        <ele>657</ele>
      </trkpt>
      <trkpt lat="42.9926" lon="-0.5854">
        <ele>657</ele>
      </trkpt>
      <trkpt lat="42.99263" lon="-0.58569">
        <ele>643</ele>
      </trkpt>
      <trkpt lat="42.99266" lon="-0.58573">
        <ele>643</ele>
      </trkpt>
      <trkpt lat="42.99261" lon="-0.58586">
        <ele>643</ele>
      </trkpt>
      <trkpt lat="42.99245" lon="-0.58607">
        <ele>643</ele>
      </trkpt>
      <trkpt lat="42.99229" lon="-0.58623">
        <ele>643</ele>
      </trkpt>
      <trkpt lat="42.99203" lon="-0.58658">
        <ele>630</ele>
      </trkpt>
      <trkpt lat="42.99192" lon="-0.58667">
        <ele>630</ele>
      </trkpt>
      <trkpt lat="42.99195" lon="-0.58677">
        <ele>630</ele>
      </trkpt>
      <trkpt lat="42.992" lon="-0.5868">
        <ele>630</ele>
      </trkpt>
      <trkpt lat="42.99202" lon="-0.58687">
        <ele>630</ele>
      </trkpt>
      <trkpt lat="42.99184" lon="-0.587">
        <ele>630</ele>
      </trkpt>
      <trkpt lat="42.99169" lon="-0.58722">
        <ele>594</ele>
      </trkpt>
      <trkpt lat="42.99182" lon="-0.58736">
        <ele>594</ele>
      </trkpt>
      <trkpt lat="42.99179" lon="-0.58748">
        <ele>594</ele>
      </trkpt>
      <trkpt lat="42.99157" lon="-0.58776">
        <ele>594</ele>
      </trkpt>
      <trkpt lat="42.99136" lon="-0.58817">
        <ele>567</ele>
      </trkpt>
      <trkpt lat="42.99123" lon="-0.58838">
        <ele>582</ele>
      </trkpt>
      <trkpt lat="42.99066" lon="-0.58879">
        <ele>560</ele>
      </trkpt>
      <trkpt lat="42.99039" lon="-0.58906">
        <ele>574</ele>
      </trkpt>
      <trkpt lat="42.99071" lon="-0.58913">
        <ele>560</ele>
      </trkpt>
      <trkpt lat="42.99104" lon="-0.58949">
        <ele>560</ele>
      </trkpt>
      <trkpt lat="42.99144" lon="-0.58986">
        <ele>537</ele>
      </trkpt>
      <trkpt lat="42.99205" lon="-0.59023">
        <ele>537</ele>
      </trkpt>
      <trkpt lat="42.99238" lon="-0.59051">
        <ele>518</ele>
      </trkpt>
      <trkpt lat="42.99261" lon="-0.59065">
        <ele>518</ele>
      </trkpt>
      <trkpt lat="42.99264" lon="-0.59093">
        <ele>518</ele>
      </trkpt>
      <trkpt lat="42.99281" lon="-0.59115">
        <ele>518</ele>
      </trkpt>
      <trkpt lat="42.99289" lon="-0.59121">
        <ele>518</ele>
      </trkpt>
      <trkpt lat="42.99323" lon="-0.59177">
        <ele>508</ele>
      </trkpt>
      <trkpt lat="42.99346" lon="-0.59192">
        <ele>508</ele>
      </trkpt>
      <trkpt lat="42.99381" lon="-0.59226">
        <ele>483</ele>
      </trkpt>
      <trkpt lat="42.99401" lon="-0.59241">
        <ele>483</ele>
      </trkpt>
      <trkpt lat="42.99452" lon="-0.59251">
        <ele>483</ele>
      </trkpt>
      <trkpt lat="42.99485" lon="-0.5925">
        <ele>462</ele>
      </trkpt>
      <trkpt lat="42.99503" lon="-0.59246">
        <ele>462</ele>
      </trkpt>
      <trkpt lat="42.99512" lon="-0.59251">
        <ele>462</ele>
      </trkpt>
      <trkpt lat="42.99527" lon="-0.59277">
        <ele>462</ele>
      </trkpt>
      <trkpt lat="42.99548" lon="-0.59282">
        <ele>435</ele>
      </trkpt>
      <trkpt lat="42.99555" lon="-0.59295">
        <ele>435</ele>
      </trkpt>
      <trkpt lat="42.99576" lon="-0.59366">
        <ele>435</ele>
      </trkpt>
      <trkpt lat="42.99613" lon="-0.5946">
        <ele>428</ele>
      </trkpt>
      <trkpt lat="42.99628" lon="-0.59525">
        <ele>423</ele>
      </trkpt>
      <trkpt lat="42.99628" lon="-0.59561">
        <ele>422</ele>
      </trkpt>
      <trkpt lat="42.99644" lon="-0.59654">
        <ele>423</ele>
      </trkpt>
      <trkpt lat="42.99669" lon="-0.59703">
        <ele>423</ele>
      </trkpt>
      <trkpt lat="42.99696" lon="-0.59827">
        <ele>420</ele>
      </trkpt>
      <trkpt lat="42.99721" lon="-0.59964">
        <ele>418</ele>
      </trkpt>
      <trkpt lat="42.99704" lon="-0.59986">
        <ele>419</ele>
      </trkpt>
      <trkpt lat="42.99604" lon="-0.59987">
        <ele>419</ele>
      </trkpt>
      <trkpt lat="42.99524" lon="-0.60016">
        <ele>422</ele>
      </trkpt>
      <trkpt lat="42.99365" lon="-0.6001">
        <ele>430</ele>
      </trkpt>
      <trkpt lat="42.99294" lon="-0.59975">
        <ele>430</ele>
      </trkpt>
      <trkpt lat="42.99256" lon="-0.59965">
        <ele>433</ele>
      </trkpt>
      <trkpt lat="42.9921" lon="-0.59948">
        <ele>446</ele>
      </trkpt>
      <trkpt lat="42.99182" lon="-0.59945">
        <ele>447</ele>
      </trkpt>
      <trkpt lat="42.9918" lon="-0.59947">
        <ele>447</ele>
      </trkpt>
      <trkpt lat="42.99183" lon="-0.59951">
        <ele>447</ele>
      </trkpt>
      <trkpt lat="42.99185" lon="-0.59948">
        <ele>447</ele>
      </trkpt>
      <trkpt lat="42.99184" lon="-0.59945">
        <ele>447</ele>
      </trkpt>
    </trkseg>
  </trk>
  <trk>
    <name><![CDATA[Raid Béarn des 3 Vallées - Oloron - Escot  (Etape1/3) - 5908 - UtagawaVTT.com]]></name>
    <trkseg>
      <trkpt lat="43.17152" lon="-0.60534">
        <ele>242.665863</ele>
      </trkpt>
      <trkpt lat="43.17255" lon="-0.60603">
        <ele>241.991211</ele>
      </trkpt>
      <trkpt lat="43.17269" lon="-0.60616">
        <ele>241.660568</ele>
      </trkpt>
      <trkpt lat="43.17291" lon="-0.60657">
        <ele>242.022827</ele>
      </trkpt>
      <trkpt lat="43.17417" lon="-0.60738">
        <ele>243.597183</ele>
      </trkpt>
      <trkpt lat="43.17397" lon="-0.60753">
        <ele>244.533905</ele>
      </trkpt>
      <trkpt lat="43.17382" lon="-0.60785">
        <ele>245.915405</ele>
      </trkpt>
      <trkpt lat="43.17364" lon="-0.60804">
        <ele>246.285294</ele>
      </trkpt>
      <trkpt lat="43.17376" lon="-0.60783">
        <ele>245.872314</ele>
      </trkpt>
      <trkpt lat="43.17407" lon="-0.60784">
        <ele>245.310806</ele>
      </trkpt>
      <trkpt lat="43.17774" lon="-0.60969">
        <ele>243.108109</ele>
      </trkpt>
      <trkpt lat="43.17958" lon="-0.61062">
        <ele>242.959656</ele>
      </trkpt>
      <trkpt lat="43.18012" lon="-0.6108">
        <ele>243.382309</ele>
      </trkpt>
      <trkpt lat="43.18019" lon="-0.6109">
        <ele>243.602127</ele>
      </trkpt>
      <trkpt lat="43.18005" lon="-0.61135">
        <ele>244</ele>
      </trkpt>
      <trkpt lat="43.17959" lon="-0.61344">
        <ele>244.926743</ele>
      </trkpt>
      <trkpt lat="43.17962" lon="-0.6139">
        <ele>245.319748</ele>
      </trkpt>
      <trkpt lat="43.17941" lon="-0.61418">
        <ele>245.793106</ele>
      </trkpt>
      <trkpt lat="43.17933" lon="-0.61443">
        <ele>246.214233</ele>
      </trkpt>
      <trkpt lat="43.17945" lon="-0.61569">
        <ele>248</ele>
      </trkpt>
      <trkpt lat="43.17977" lon="-0.6164">
        <ele>248.098831</ele>
      </trkpt>
      <trkpt lat="43.18001" lon="-0.61658">
        <ele>247.702972</ele>
      </trkpt>
      <trkpt lat="43.18005" lon="-0.6167">
        <ele>247.602264</ele>
      </trkpt>
      <trkpt lat="43.18002" lon="-0.6169">
        <ele>247.730103</ele>
      </trkpt>
      <trkpt lat="43.17994" lon="-0.61697">
        <ele>247.895523</ele>
      </trkpt>
      <trkpt lat="43.17967" lon="-0.61693">
        <ele>248.446884</ele>
      </trkpt>
      <trkpt lat="43.17939" lon="-0.61703">
        <ele>249</ele>
      </trkpt>
      <trkpt lat="43.17939" lon="-0.6172">
        <ele>249</ele>
      </trkpt>
      <trkpt lat="43.17933" lon="-0.61707">
        <ele>249</ele>
      </trkpt>
      <trkpt lat="43.17938" lon="-0.61694">
        <ele>249</ele>
      </trkpt>
      <trkpt lat="43.17967" lon="-0.6168">
        <ele>248.454651</ele>
      </trkpt>
      <trkpt lat="43.17987" lon="-0.61659">
        <ele>248.006577</ele>
      </trkpt>
      <trkpt lat="43.17997" lon="-0.61664">
        <ele>247.792984</ele>
      </trkpt>
      <trkpt lat="43.18004" lon="-0.61685">
        <ele>247.653442</ele>
      </trkpt>
      <trkpt lat="43.18062" lon="-0.61828">
        <ele>247.527649</ele>
      </trkpt>
      <trkpt lat="43.1813" lon="-0.61934">
        <ele>247.675949</ele>
      </trkpt>
      <trkpt lat="43.18168" lon="-0.61964">
        <ele>246.632996</ele>
      </trkpt>
      <trkpt lat="43.18171" lon="-0.61988">
        <ele>246.470245</ele>
      </trkpt>
      <trkpt lat="43.18158" lon="-0.62007">
        <ele>247.001602</ele>
      </trkpt>
      <trkpt lat="43.18095" lon="-0.62027">
        <ele>248.381577</ele>
      </trkpt>
      <trkpt lat="43.17969" lon="-0.62141">
        <ele>251</ele>
      </trkpt>
      <trkpt lat="43.17921" lon="-0.62206">
        <ele>251.050034</ele>
      </trkpt>
      <trkpt lat="43.17866" lon="-0.6232">
        <ele>250.624191</ele>
      </trkpt>
      <trkpt lat="43.17784" lon="-0.6247">
        <ele>251.092484</ele>
      </trkpt>
      <trkpt lat="43.17753" lon="-0.62556">
        <ele>252.677979</ele>
      </trkpt>
      <trkpt lat="43.17654" lon="-0.62677">
        <ele>256.330536</ele>
      </trkpt>
      <trkpt lat="43.17572" lon="-0.62727">
        <ele>259.836884</ele>
      </trkpt>
      <trkpt lat="43.17507" lon="-0.62737">
        <ele>264.039307</ele>
      </trkpt>
      <trkpt lat="43.17357" lon="-0.6279">
        <ele>278.378174</ele>
      </trkpt>
      <trkpt lat="43.17126" lon="-0.6284">
        <ele>284.895081</ele>
      </trkpt>
      <trkpt lat="43.16981" lon="-0.62831">
        <ele>282.970673</ele>
      </trkpt>
      <trkpt lat="43.16925" lon="-0.62834">
        <ele>283.043793</ele>
      </trkpt>
      <trkpt lat="43.16884" lon="-0.62858">
        <ele>283.500092</ele>
      </trkpt>
      <trkpt lat="43.16825" lon="-0.62909">
        <ele>290.886841</ele>
      </trkpt>
      <trkpt lat="43.16818" lon="-0.62926">
        <ele>292.74472</ele>
      </trkpt>
      <trkpt lat="43.1682" lon="-0.62938">
        <ele>292.746094</ele>
      </trkpt>
      <trkpt lat="43.16891" lon="-0.63118">
        <ele>287.380829</ele>
      </trkpt>
      <trkpt lat="43.16909" lon="-0.63137">
        <ele>285.06601</ele>
      </trkpt>
      <trkpt lat="43.16942" lon="-0.63132">
        <ele>281.912354</ele>
      </trkpt>
      <trkpt lat="43.16952" lon="-0.6314">
        <ele>280.909149</ele>
      </trkpt>
      <trkpt lat="43.17086" lon="-0.63353">
        <ele>264.77121</ele>
      </trkpt>
      <trkpt lat="43.17106" lon="-0.63394">
        <ele>259.784088</ele>
      </trkpt>
      <trkpt lat="43.17195" lon="-0.63535">
        <ele>239.895966</ele>
      </trkpt>
      <trkpt lat="43.17205" lon="-0.63721">
        <ele>241.53273</ele>
      </trkpt>
      <trkpt lat="43.17209" lon="-0.63738">
        <ele>240.608047</ele>
      </trkpt>
      <trkpt lat="43.17253" lon="-0.63818">
        <ele>236.484726</ele>
      </trkpt>
      <trkpt lat="43.17292" lon="-0.63892">
        <ele>239.039825</ele>
      </trkpt>
      <trkpt lat="43.17341" lon="-0.63958">
        <ele>238.82312</ele>
      </trkpt>
      <trkpt lat="43.17414" lon="-0.64037">
        <ele>236.382065</ele>
      </trkpt>
      <trkpt lat="43.1749" lon="-0.64142">
        <ele>236.284805</ele>
      </trkpt>
      <trkpt lat="43.17487" lon="-0.64149">
        <ele>236.388641</ele>
      </trkpt>
      <trkpt lat="43.17453" lon="-0.64167">
        <ele>237.332138</ele>
      </trkpt>
      <trkpt lat="43.17467" lon="-0.64152">
        <ele>236.803192</ele>
      </trkpt>
      <trkpt lat="43.1749" lon="-0.64146">
        <ele>236.313644</ele>
      </trkpt>
      <trkpt lat="43.17496" lon="-0.64151">
        <ele>236.272293</ele>
      </trkpt>
      <trkpt lat="43.1749" lon="-0.64229">
        <ele>234.642609</ele>
      </trkpt>
      <trkpt lat="43.17467" lon="-0.64318">
        <ele>230.342865</ele>
      </trkpt>
      <trkpt lat="43.17447" lon="-0.64344">
        <ele>229.314987</ele>
      </trkpt>
      <trkpt lat="43.17407" lon="-0.64338">
        <ele>230.877655</ele>
      </trkpt>
      <trkpt lat="43.17392" lon="-0.64367">
        <ele>229.69133</ele>
      </trkpt>
      <trkpt lat="43.17372" lon="-0.64398">
        <ele>228.629272</ele>
      </trkpt>
      <trkpt lat="43.1736" lon="-0.64404">
        <ele>228.56926</ele>
      </trkpt>
      <trkpt lat="43.17339" lon="-0.64436">
        <ele>227.868774</ele>
      </trkpt>
      <trkpt lat="43.17306" lon="-0.64466">
        <ele>227.518234</ele>
      </trkpt>
      <trkpt lat="43.17257" lon="-0.64567">
        <ele>224.195023</ele>
      </trkpt>
      <trkpt lat="43.17237" lon="-0.64573">
        <ele>224.401352</ele>
      </trkpt>
      <trkpt lat="43.17203" lon="-0.64553">
        <ele>225.467148</ele>
      </trkpt>
      <trkpt lat="43.17167" lon="-0.64564">
        <ele>225.81723</ele>
      </trkpt>
      <trkpt lat="43.17121" lon="-0.64559">
        <ele>227.451706</ele>
      </trkpt>
      <trkpt lat="43.17075" lon="-0.64582">
        <ele>227.429062</ele>
      </trkpt>
      <trkpt lat="43.17044" lon="-0.6461">
        <ele>227.339996</ele>
      </trkpt>
      <trkpt lat="43.17039" lon="-0.64618">
        <ele>227.27684</ele>
      </trkpt>
      <trkpt lat="43.17035" lon="-0.64625">
        <ele>227.220001</ele>
      </trkpt>
      <trkpt lat="43.17009" lon="-0.64635">
        <ele>227.963013</ele>
      </trkpt>
      <trkpt lat="43.16978" lon="-0.64626">
        <ele>228.961426</ele>
      </trkpt>
      <trkpt lat="43.16944" lon="-0.64658">
        <ele>229.222336</ele>
      </trkpt>
      <trkpt lat="43.16909" lon="-0.64696">
        <ele>229.181091</ele>
      </trkpt>
      <trkpt lat="43.16833" lon="-0.64639">
        <ele>233.674072</ele>
      </trkpt>
      <trkpt lat="43.16802" lon="-0.6466">
        <ele>235.110809</ele>
      </trkpt>
      <trkpt lat="43.16752" lon="-0.64666">
        <ele>239.857712</ele>
      </trkpt>
      <trkpt lat="43.16773" lon="-0.64663">
        <ele>237.545837</ele>
      </trkpt>
      <trkpt lat="43.16787" lon="-0.64669">
        <ele>236.22319</ele>
      </trkpt>
      <trkpt lat="43.1678" lon="-0.64709">
        <ele>236.291733</ele>
      </trkpt>
      <trkpt lat="43.16707" lon="-0.64828">
        <ele>237.585342</ele>
      </trkpt>
      <trkpt lat="43.16698" lon="-0.64847">
        <ele>237.190628</ele>
      </trkpt>
      <trkpt lat="43.16697" lon="-0.64869">
        <ele>236.16507</ele>
      </trkpt>
      <trkpt lat="43.16663" lon="-0.64905">
        <ele>235.718994</ele>
      </trkpt>
      <trkpt lat="43.16641" lon="-0.64923">
        <ele>235.147141</ele>
      </trkpt>
      <trkpt lat="43.16624" lon="-0.64932">
        <ele>235.135544</ele>
      </trkpt>
      <trkpt lat="43.16582" lon="-0.64905">
        <ele>237.198227</ele>
      </trkpt>
      <trkpt lat="43.16556" lon="-0.6487">
        <ele>238.064941</ele>
      </trkpt>
      <trkpt lat="43.16537" lon="-0.64823">
        <ele>238.129013</ele>
      </trkpt>
      <trkpt lat="43.16524" lon="-0.6481">
        <ele>238.126236</ele>
      </trkpt>
      <trkpt lat="43.16514" lon="-0.64806">
        <ele>238.139084</ele>
      </trkpt>
      <trkpt lat="43.16512" lon="-0.64832">
        <ele>238.505402</ele>
      </trkpt>
      <trkpt lat="43.16514" lon="-0.64911">
        <ele>240.135544</ele>
      </trkpt>
      <trkpt lat="43.16547" lon="-0.6498">
        <ele>237.991638</ele>
      </trkpt>
      <trkpt lat="43.16547" lon="-0.65002">
        <ele>237.026443</ele>
      </trkpt>
      <trkpt lat="43.16689" lon="-0.65115">
        <ele>230</ele>
      </trkpt>
      <trkpt lat="43.16687" lon="-0.65124">
        <ele>230</ele>
      </trkpt>
      <trkpt lat="43.16618" lon="-0.65106">
        <ele>231.408722</ele>
      </trkpt>
      <trkpt lat="43.16576" lon="-0.65101">
        <ele>232.203812</ele>
      </trkpt>
      <trkpt lat="43.16549" lon="-0.65113">
        <ele>231.865631</ele>
      </trkpt>
      <trkpt lat="43.16481" lon="-0.65185">
        <ele>233.419342</ele>
      </trkpt>
      <trkpt lat="43.16468" lon="-0.65205">
        <ele>234.542389</ele>
      </trkpt>
      <trkpt lat="43.16457" lon="-0.65273">
        <ele>235.479507</ele>
      </trkpt>
      <trkpt lat="43.16439" lon="-0.65308">
        <ele>237.353424</ele>
      </trkpt>
      <trkpt lat="43.16419" lon="-0.65329">
        <ele>240.268875</ele>
      </trkpt>
      <trkpt lat="43.16382" lon="-0.65375">
        <ele>247.425049</ele>
      </trkpt>
      <trkpt lat="43.16371" lon="-0.6538">
        <ele>250.358322</ele>
      </trkpt>
      <trkpt lat="43.16333" lon="-0.65403">
        <ele>259.587372</ele>
      </trkpt>
      <trkpt lat="43.16285" lon="-0.65417">
        <ele>265.759003</ele>
      </trkpt>
      <trkpt lat="43.1623" lon="-0.65461">
        <ele>268</ele>
      </trkpt>
      <trkpt lat="43.16206" lon="-0.65468">
        <ele>267.160706</ele>
      </trkpt>
      <trkpt lat="43.16181" lon="-0.65471">
        <ele>265.458099</ele>
      </trkpt>
      <trkpt lat="43.16176" lon="-0.65501">
        <ele>265.159302</ele>
      </trkpt>
      <trkpt lat="43.16174" lon="-0.65557">
        <ele>264.514069</ele>
      </trkpt>
      <trkpt lat="43.16193" lon="-0.65598">
        <ele>265.155121</ele>
      </trkpt>
      <trkpt lat="43.1618" lon="-0.65634">
        <ele>263.785858</ele>
      </trkpt>
      <trkpt lat="43.1615" lon="-0.65641">
        <ele>261.224182</ele>
      </trkpt>
      <trkpt lat="43.16094" lon="-0.65671">
        <ele>256.46106</ele>
      </trkpt>
      <trkpt lat="43.16047" lon="-0.65671">
        <ele>252.555435</ele>
      </trkpt>
      <trkpt lat="43.16016" lon="-0.65668">
        <ele>250.709045</ele>
      </trkpt>
      <trkpt lat="43.15991" lon="-0.65679">
        <ele>249.890625</ele>
      </trkpt>
      <trkpt lat="43.15961" lon="-0.65628">
        <ele>247.091415</ele>
      </trkpt>
      <trkpt lat="43.15939" lon="-0.65581">
        <ele>242.406754</ele>
      </trkpt>
      <trkpt lat="43.15923" lon="-0.65538">
        <ele>239.893494</ele>
      </trkpt>
      <trkpt lat="43.15907" lon="-0.65525">
        <ele>238.87677</ele>
      </trkpt>
      <trkpt lat="43.15892" lon="-0.6553">
        <ele>239.88356</ele>
      </trkpt>
      <trkpt lat="43.15854" lon="-0.6557">
        <ele>237.626999</ele>
      </trkpt>
      <trkpt lat="43.15773" lon="-0.65625">
        <ele>239.932953</ele>
      </trkpt>
      <trkpt lat="43.15651" lon="-0.65639">
        <ele>242.763992</ele>
      </trkpt>
      <trkpt lat="43.15589" lon="-0.65664">
        <ele>242.298737</ele>
      </trkpt>
      <trkpt lat="43.15574" lon="-0.6568">
        <ele>243.234848</ele>
      </trkpt>
      <trkpt lat="43.15537" lon="-0.65732">
        <ele>241.124832</ele>
      </trkpt>
      <trkpt lat="43.15527" lon="-0.65798">
        <ele>243.108658</ele>
      </trkpt>
      <trkpt lat="43.15503" lon="-0.65829">
        <ele>246.588074</ele>
      </trkpt>
      <trkpt lat="43.15479" lon="-0.65902">
        <ele>253.805359</ele>
      </trkpt>
      <trkpt lat="43.15458" lon="-0.65944">
        <ele>258.147003</ele>
      </trkpt>
      <trkpt lat="43.1545" lon="-0.6598">
        <ele>256.169098</ele>
      </trkpt>
      <trkpt lat="43.15448" lon="-0.65986">
        <ele>255.997772</ele>
      </trkpt>
      <trkpt lat="43.15407" lon="-0.66047">
        <ele>260.074554</ele>
      </trkpt>
      <trkpt lat="43.154" lon="-0.66075">
        <ele>258.359589</ele>
      </trkpt>
      <trkpt lat="43.15403" lon="-0.6609">
        <ele>256.113007</ele>
      </trkpt>
      <trkpt lat="43.15359" lon="-0.66115">
        <ele>263.434082</ele>
      </trkpt>
      <trkpt lat="43.15338" lon="-0.66139">
        <ele>264.463165</ele>
      </trkpt>
      <trkpt lat="43.15277" lon="-0.6617">
        <ele>274.583466</ele>
      </trkpt>
      <trkpt lat="43.15218" lon="-0.66184">
        <ele>282.238647</ele>
      </trkpt>
      <trkpt lat="43.15184" lon="-0.66177">
        <ele>291.043335</ele>
      </trkpt>
      <trkpt lat="43.15168" lon="-0.66154">
        <ele>299.87381</ele>
      </trkpt>
      <trkpt lat="43.15188" lon="-0.66132">
        <ele>303.768738</ele>
      </trkpt>
      <trkpt lat="43.15239" lon="-0.66075">
        <ele>316.241364</ele>
      </trkpt>
      <trkpt lat="43.15252" lon="-0.66041">
        <ele>322.671783</ele>
      </trkpt>
      <trkpt lat="43.15249" lon="-0.66029">
        <ele>325.705109</ele>
      </trkpt>
      <trkpt lat="43.1519" lon="-0.66034">
        <ele>327.414307</ele>
      </trkpt>
      <trkpt lat="43.15154" lon="-0.65999">
        <ele>333.478729</ele>
      </trkpt>
      <trkpt lat="43.15145" lon="-0.6598">
        <ele>335.93924</ele>
      </trkpt>
      <trkpt lat="43.15111" lon="-0.65954">
        <ele>346.979889</ele>
      </trkpt>
      <trkpt lat="43.15092" lon="-0.65894">
        <ele>356.61203</ele>
      </trkpt>
      <trkpt lat="43.15087" lon="-0.65893">
        <ele>358.714722</ele>
      </trkpt>
      <trkpt lat="43.15084" lon="-0.65905">
        <ele>359.546539</ele>
      </trkpt>
      <trkpt lat="43.15073" lon="-0.65954">
        <ele>358.977966</ele>
      </trkpt>
      <trkpt lat="43.15031" lon="-0.66012">
        <ele>360.661865</ele>
      </trkpt>
      <trkpt lat="43.14954" lon="-0.66099">
        <ele>360.097046</ele>
      </trkpt>
      <trkpt lat="43.14904" lon="-0.66146">
        <ele>359.115814</ele>
      </trkpt>
      <trkpt lat="43.1478" lon="-0.66232">
        <ele>371.694489</ele>
      </trkpt>
      <trkpt lat="43.14768" lon="-0.66253">
        <ele>370.023132</ele>
      </trkpt>
      <trkpt lat="43.14753" lon="-0.66282">
        <ele>367.498352</ele>
      </trkpt>
      <trkpt lat="43.14702" lon="-0.6634">
        <ele>381.642639</ele>
      </trkpt>
      <trkpt lat="43.14677" lon="-0.66381">
        <ele>387.818909</ele>
      </trkpt>
      <trkpt lat="43.14667" lon="-0.66426">
        <ele>386.349579</ele>
      </trkpt>
      <trkpt lat="43.14646" lon="-0.66489">
        <ele>385.445648</ele>
      </trkpt>
      <trkpt lat="43.14629" lon="-0.66545">
        <ele>389.53653</ele>
      </trkpt>
      <trkpt lat="43.14665" lon="-0.66598">
        <ele>376.559235</ele>
      </trkpt>
      <trkpt lat="43.14655" lon="-0.66685">
        <ele>390.903961</ele>
      </trkpt>
      <trkpt lat="43.14663" lon="-0.66746">
        <ele>390.207458</ele>
      </trkpt>
      <trkpt lat="43.14677" lon="-0.66791">
        <ele>392.127716</ele>
      </trkpt>
      <trkpt lat="43.14704" lon="-0.66811">
        <ele>392.868652</ele>
      </trkpt>
      <trkpt lat="43.14728" lon="-0.6682">
        <ele>398.612701</ele>
      </trkpt>
      <trkpt lat="43.14792" lon="-0.668">
        <ele>400.26825</ele>
      </trkpt>
      <trkpt lat="43.14818" lon="-0.66811">
        <ele>403.170563</ele>
      </trkpt>
      <trkpt lat="43.14828" lon="-0.66825">
        <ele>406.178986</ele>
      </trkpt>
      <trkpt lat="43.14838" lon="-0.66871">
        <ele>410.869263</ele>
      </trkpt>
      <trkpt lat="43.14831" lon="-0.6692">
        <ele>412.99704</ele>
      </trkpt>
      <trkpt lat="43.14813" lon="-0.66969">
        <ele>410.829651</ele>
      </trkpt>
      <trkpt lat="43.1479" lon="-0.67005">
        <ele>411.815948</ele>
      </trkpt>
      <trkpt lat="43.14764" lon="-0.67027">
        <ele>411.38559</ele>
      </trkpt>
      <trkpt lat="43.14695" lon="-0.67029">
        <ele>411.260223</ele>
      </trkpt>
      <trkpt lat="43.14659" lon="-0.67">
        <ele>415.242767</ele>
      </trkpt>
      <trkpt lat="43.14626" lon="-0.66963">
        <ele>423.651154</ele>
      </trkpt>
      <trkpt lat="43.14595" lon="-0.66949">
        <ele>427.881561</ele>
      </trkpt>
      <trkpt lat="43.14575" lon="-0.66917">
        <ele>433.272034</ele>
      </trkpt>
      <trkpt lat="43.1455" lon="-0.66894">
        <ele>438.422333</ele>
      </trkpt>
      <trkpt lat="43.14538" lon="-0.66866">
        <ele>442.13443</ele>
      </trkpt>
      <trkpt lat="43.14541" lon="-0.66849">
        <ele>442.372864</ele>
      </trkpt>
      <trkpt lat="43.1453" lon="-0.66741">
        <ele>448.423462</ele>
      </trkpt>
      <trkpt lat="43.14512" lon="-0.66659">
        <ele>454.157074</ele>
      </trkpt>
      <trkpt lat="43.14505" lon="-0.66628">
        <ele>456.227264</ele>
      </trkpt>
      <trkpt lat="43.14507" lon="-0.66618">
        <ele>455.334167</ele>
      </trkpt>
      <trkpt lat="43.14468" lon="-0.66542">
        <ele>473.562195</ele>
      </trkpt>
      <trkpt lat="43.14465" lon="-0.66516">
        <ele>476.427429</ele>
      </trkpt>
      <trkpt lat="43.1445" lon="-0.66477">
        <ele>485.072571</ele>
      </trkpt>
      <trkpt lat="43.14459" lon="-0.66452">
        <ele>481.934601</ele>
      </trkpt>
      <trkpt lat="43.1446" lon="-0.66429">
        <ele>481.990479</ele>
      </trkpt>
      <trkpt lat="43.14463" lon="-0.66396">
        <ele>480.051727</ele>
      </trkpt>
      <trkpt lat="43.14452" lon="-0.66364">
        <ele>479.815369</ele>
      </trkpt>
      <trkpt lat="43.14467" lon="-0.66301">
        <ele>465.342926</ele>
      </trkpt>
      <trkpt lat="43.14475" lon="-0.66289">
        <ele>463.250183</ele>
      </trkpt>
      <trkpt lat="43.14488" lon="-0.66276">
        <ele>462.087555</ele>
      </trkpt>
      <trkpt lat="43.14497" lon="-0.66244">
        <ele>456.706573</ele>
      </trkpt>
      <trkpt lat="43.14543" lon="-0.66163">
        <ele>447.917603</ele>
      </trkpt>
      <trkpt lat="43.14573" lon="-0.66117">
        <ele>442.132111</ele>
      </trkpt>
      <trkpt lat="43.14647" lon="-0.66035">
        <ele>432.167389</ele>
      </trkpt>
      <trkpt lat="43.14687" lon="-0.66008">
        <ele>427.093384</ele>
      </trkpt>
      <trkpt lat="43.14723" lon="-0.65973">
        <ele>420.792114</ele>
      </trkpt>
      <trkpt lat="43.14782" lon="-0.65952">
        <ele>418.416779</ele>
      </trkpt>
      <trkpt lat="43.14821" lon="-0.65925">
        <ele>415.722382</ele>
      </trkpt>
      <trkpt lat="43.14861" lon="-0.65866">
        <ele>409.641815</ele>
      </trkpt>
      <trkpt lat="43.14902" lon="-0.65825">
        <ele>407.081696</ele>
      </trkpt>
      <trkpt lat="43.14922" lon="-0.65791">
        <ele>403.979126</ele>
      </trkpt>
      <trkpt lat="43.14977" lon="-0.65724">
        <ele>402.952545</ele>
      </trkpt>
      <trkpt lat="43.14984" lon="-0.65691">
        <ele>401.386261</ele>
      </trkpt>
      <trkpt lat="43.14998" lon="-0.65656">
        <ele>400.567627</ele>
      </trkpt>
      <trkpt lat="43.14995" lon="-0.65647">
        <ele>399.420593</ele>
      </trkpt>
      <trkpt lat="43.14997" lon="-0.65603">
        <ele>395.272858</ele>
      </trkpt>
      <trkpt lat="43.1499" lon="-0.65589">
        <ele>391.257538</ele>
      </trkpt>
      <trkpt lat="43.14996" lon="-0.6555">
        <ele>387.585052</ele>
      </trkpt>
      <trkpt lat="43.14994" lon="-0.65527">
        <ele>383.145416</ele>
      </trkpt>
      <trkpt lat="43.14997" lon="-0.65526">
        <ele>384.658081</ele>
      </trkpt>
      <trkpt lat="43.1501" lon="-0.65503">
        <ele>384.512878</ele>
      </trkpt>
      <trkpt lat="43.15009" lon="-0.65469">
        <ele>379.579712</ele>
      </trkpt>
      <trkpt lat="43.15019" lon="-0.65442">
        <ele>375.929993</ele>
      </trkpt>
      <trkpt lat="43.15041" lon="-0.65409">
        <ele>375.206299</ele>
      </trkpt>
      <trkpt lat="43.15087" lon="-0.65371">
        <ele>373.649475</ele>
      </trkpt>
      <trkpt lat="43.15098" lon="-0.65353">
        <ele>372.25058</ele>
      </trkpt>
      <trkpt lat="43.15118" lon="-0.65325">
        <ele>372.051483</ele>
      </trkpt>
      <trkpt lat="43.15161" lon="-0.65282">
        <ele>375.72937</ele>
      </trkpt>
      <trkpt lat="43.15167" lon="-0.65269">
        <ele>375.89505</ele>
      </trkpt>
      <trkpt lat="43.15163" lon="-0.65256">
        <ele>374.075806</ele>
      </trkpt>
      <trkpt lat="43.15169" lon="-0.65204">
        <ele>369.983337</ele>
      </trkpt>
      <trkpt lat="43.15185" lon="-0.65177">
        <ele>369.492035</ele>
      </trkpt>
      <trkpt lat="43.15193" lon="-0.65148">
        <ele>365.80426</ele>
      </trkpt>
      <trkpt lat="43.15208" lon="-0.65124">
        <ele>362.103729</ele>
      </trkpt>
      <trkpt lat="43.15226" lon="-0.65116">
        <ele>362.215485</ele>
      </trkpt>
      <trkpt lat="43.1526" lon="-0.65076">
        <ele>360.180634</ele>
      </trkpt>
      <trkpt lat="43.15286" lon="-0.65013">
        <ele>361.63385</ele>
      </trkpt>
      <trkpt lat="43.15292" lon="-0.64852">
        <ele>368.254883</ele>
      </trkpt>
      <trkpt lat="43.15283" lon="-0.64817">
        <ele>368.025146</ele>
      </trkpt>
      <trkpt lat="43.15283" lon="-0.64798">
        <ele>369.477295</ele>
      </trkpt>
      <trkpt lat="43.1529" lon="-0.64731">
        <ele>373.095917</ele>
      </trkpt>
      <trkpt lat="43.15299" lon="-0.64716">
        <ele>375.560974</ele>
      </trkpt>
      <trkpt lat="43.1536" lon="-0.64603">
        <ele>388.581299</ele>
      </trkpt>
      <trkpt lat="43.15389" lon="-0.64525">
        <ele>399.891937</ele>
      </trkpt>
      <trkpt lat="43.15404" lon="-0.64505">
        <ele>400.906586</ele>
      </trkpt>
      <trkpt lat="43.15469" lon="-0.6438">
        <ele>397.523804</ele>
      </trkpt>
      <trkpt lat="43.15489" lon="-0.64363">
        <ele>395.594757</ele>
      </trkpt>
      <trkpt lat="43.15488" lon="-0.64339">
        <ele>392.543427</ele>
      </trkpt>
      <trkpt lat="43.155" lon="-0.64319">
        <ele>388.939148</ele>
      </trkpt>
      <trkpt lat="43.15512" lon="-0.64304">
        <ele>386.494659</ele>
      </trkpt>
      <trkpt lat="43.15588" lon="-0.64269">
        <ele>375.750885</ele>
      </trkpt>
      <trkpt lat="43.15626" lon="-0.64264">
        <ele>370.012054</ele>
      </trkpt>
      <trkpt lat="43.15657" lon="-0.6424">
        <ele>367.050598</ele>
      </trkpt>
      <trkpt lat="43.15688" lon="-0.64234">
        <ele>369.005585</ele>
      </trkpt>
      <trkpt lat="43.15762" lon="-0.64202">
        <ele>381.199127</ele>
      </trkpt>
      <trkpt lat="43.15781" lon="-0.64188">
        <ele>379.76236</ele>
      </trkpt>
      <trkpt lat="43.15808" lon="-0.64153">
        <ele>382.961731</ele>
      </trkpt>
      <trkpt lat="43.15828" lon="-0.64127">
        <ele>380.4487</ele>
      </trkpt>
      <trkpt lat="43.15861" lon="-0.6406">
        <ele>386.553009</ele>
      </trkpt>
      <trkpt lat="43.15887" lon="-0.63971">
        <ele>397.146332</ele>
      </trkpt>
      <trkpt lat="43.1591" lon="-0.6392">
        <ele>404.636841</ele>
      </trkpt>
      <trkpt lat="43.15921" lon="-0.63888">
        <ele>406.960449</ele>
      </trkpt>
      <trkpt lat="43.15922" lon="-0.63853">
        <ele>409.222595</ele>
      </trkpt>
      <trkpt lat="43.15947" lon="-0.63774">
        <ele>420.481628</ele>
      </trkpt>
      <trkpt lat="43.15946" lon="-0.63763">
        <ele>422.553497</ele>
      </trkpt>
      <trkpt lat="43.15924" lon="-0.63757">
        <ele>419.869049</ele>
      </trkpt>
      <trkpt lat="43.159" lon="-0.63683">
        <ele>421.259216</ele>
      </trkpt>
      <trkpt lat="43.15905" lon="-0.63571">
        <ele>421.646851</ele>
      </trkpt>
      <trkpt lat="43.15896" lon="-0.6355">
        <ele>417.573273</ele>
      </trkpt>
      <trkpt lat="43.15869" lon="-0.63521">
        <ele>409.335083</ele>
      </trkpt>
      <trkpt lat="43.15837" lon="-0.63506">
        <ele>403.433929</ele>
      </trkpt>
      <trkpt lat="43.15831" lon="-0.63497">
        <ele>402.335205</ele>
      </trkpt>
      <trkpt lat="43.15806" lon="-0.63495">
        <ele>398.277618</ele>
      </trkpt>
      <trkpt lat="43.15757" lon="-0.63379">
        <ele>379.167053</ele>
      </trkpt>
      <trkpt lat="43.15714" lon="-0.63373">
        <ele>375.590729</ele>
      </trkpt>
      <trkpt lat="43.15711" lon="-0.63353">
        <ele>374.352264</ele>
      </trkpt>
      <trkpt lat="43.15705" lon="-0.63295">
        <ele>371.850494</ele>
      </trkpt>
      <trkpt lat="43.15723" lon="-0.63205">
        <ele>370.104553</ele>
      </trkpt>
      <trkpt lat="43.1575" lon="-0.63165">
        <ele>368.783325</ele>
      </trkpt>
      <trkpt lat="43.15752" lon="-0.63153">
        <ele>367.534607</ele>
      </trkpt>
      <trkpt lat="43.15754" lon="-0.63148">
        <ele>366.750793</ele>
      </trkpt>
      <trkpt lat="43.15757" lon="-0.63141">
        <ele>365.697632</ele>
      </trkpt>
      <trkpt lat="43.15752" lon="-0.63128">
        <ele>364.221252</ele>
      </trkpt>
      <trkpt lat="43.15761" lon="-0.63051">
        <ele>350.70694</ele>
      </trkpt>
      <trkpt lat="43.15772" lon="-0.6303">
        <ele>348.590973</ele>
      </trkpt>
      <trkpt lat="43.15787" lon="-0.62987">
        <ele>344.098999</ele>
      </trkpt>
      <trkpt lat="43.15773" lon="-0.62982">
        <ele>337.795258</ele>
      </trkpt>
      <trkpt lat="43.15764" lon="-0.62989">
        <ele>336.338745</ele>
      </trkpt>
      <trkpt lat="43.15735" lon="-0.62967">
        <ele>322.648041</ele>
      </trkpt>
      <trkpt lat="43.15735" lon="-0.6295">
        <ele>319.82785</ele>
      </trkpt>
      <trkpt lat="43.15698" lon="-0.62923">
        <ele>305.761505</ele>
      </trkpt>
      <trkpt lat="43.15655" lon="-0.62905">
        <ele>295.24234</ele>
      </trkpt>
      <trkpt lat="43.15637" lon="-0.62875">
        <ele>291.271362</ele>
      </trkpt>
      <trkpt lat="43.1562" lon="-0.62901">
        <ele>291.736572</ele>
      </trkpt>
      <trkpt lat="43.15562" lon="-0.62945">
        <ele>294.908508</ele>
      </trkpt>
      <trkpt lat="43.15538" lon="-0.62973">
        <ele>295.425446</ele>
      </trkpt>
      <trkpt lat="43.15502" lon="-0.63047">
        <ele>303.385529</ele>
      </trkpt>
      <trkpt lat="43.15443" lon="-0.63096">
        <ele>303.717316</ele>
      </trkpt>
      <trkpt lat="43.15403" lon="-0.63116">
        <ele>302.363159</ele>
      </trkpt>
      <trkpt lat="43.15369" lon="-0.63121">
        <ele>299.779236</ele>
      </trkpt>
      <trkpt lat="43.15351" lon="-0.63113">
        <ele>297.9534</ele>
      </trkpt>
      <trkpt lat="43.15336" lon="-0.63117">
        <ele>296.543854</ele>
      </trkpt>
      <trkpt lat="43.15362" lon="-0.63124">
        <ele>299.237</ele>
      </trkpt>
      <trkpt lat="43.15373" lon="-0.63121">
        <ele>300.210968</ele>
      </trkpt>
      <trkpt lat="43.15375" lon="-0.63103">
        <ele>299.889099</ele>
      </trkpt>
      <trkpt lat="43.15396" lon="-0.63076">
        <ele>299.916351</ele>
      </trkpt>
      <trkpt lat="43.15405" lon="-0.63047">
        <ele>296.356873</ele>
      </trkpt>
      <trkpt lat="43.15418" lon="-0.63014">
        <ele>291.206421</ele>
      </trkpt>
      <trkpt lat="43.15428" lon="-0.62969">
        <ele>284.845856</ele>
      </trkpt>
      <trkpt lat="43.15407" lon="-0.62891">
        <ele>280.81308</ele>
      </trkpt>
      <trkpt lat="43.15405" lon="-0.62861">
        <ele>280.293335</ele>
      </trkpt>
      <trkpt lat="43.15407" lon="-0.62838">
        <ele>279.737</ele>
      </trkpt>
      <trkpt lat="43.15409" lon="-0.62822">
        <ele>279.5047</ele>
      </trkpt>
      <trkpt lat="43.1542" lon="-0.62806">
        <ele>279.209808</ele>
      </trkpt>
      <trkpt lat="43.15444" lon="-0.62785">
        <ele>279.014587</ele>
      </trkpt>
      <trkpt lat="43.15451" lon="-0.62732">
        <ele>278.283356</ele>
      </trkpt>
      <trkpt lat="43.15446" lon="-0.62706">
        <ele>277.706726</ele>
      </trkpt>
      <trkpt lat="43.15453" lon="-0.62664">
        <ele>276.136047</ele>
      </trkpt>
      <trkpt lat="43.15457" lon="-0.62606">
        <ele>273.602142</ele>
      </trkpt>
      <trkpt lat="43.15461" lon="-0.62589">
        <ele>272.866241</ele>
      </trkpt>
      <trkpt lat="43.15467" lon="-0.62572">
        <ele>272.334198</ele>
      </trkpt>
      <trkpt lat="43.15489" lon="-0.62539">
        <ele>271.206635</ele>
      </trkpt>
      <trkpt lat="43.15485" lon="-0.62497">
        <ele>269.861267</ele>
      </trkpt>
      <trkpt lat="43.15503" lon="-0.62348">
        <ele>265.968292</ele>
      </trkpt>
      <trkpt lat="43.15513" lon="-0.62283">
        <ele>263.793549</ele>
      </trkpt>
      <trkpt lat="43.15526" lon="-0.62249">
        <ele>262.311737</ele>
      </trkpt>
      <trkpt lat="43.15581" lon="-0.62218">
        <ele>260.181152</ele>
      </trkpt>
      <trkpt lat="43.15625" lon="-0.62208">
        <ele>259.827789</ele>
      </trkpt>
      <trkpt lat="43.15657" lon="-0.6221">
        <ele>260.021606</ele>
      </trkpt>
      <trkpt lat="43.15668" lon="-0.622">
        <ele>259.151031</ele>
      </trkpt>
      <trkpt lat="43.15705" lon="-0.6219">
        <ele>258.615692</ele>
      </trkpt>
      <trkpt lat="43.1575" lon="-0.62187">
        <ele>259.72641</ele>
      </trkpt>
      <trkpt lat="43.15794" lon="-0.62175">
        <ele>259.796204</ele>
      </trkpt>
      <trkpt lat="43.15794" lon="-0.62149">
        <ele>258.739746</ele>
      </trkpt>
      <trkpt lat="43.15803" lon="-0.62133">
        <ele>258.213776</ele>
      </trkpt>
      <trkpt lat="43.15765" lon="-0.62013">
        <ele>255.843399</ele>
      </trkpt>
      <trkpt lat="43.1575" lon="-0.61968">
        <ele>260.127289</ele>
      </trkpt>
      <trkpt lat="43.15752" lon="-0.61956">
        <ele>261.616913</ele>
      </trkpt>
      <trkpt lat="43.15785" lon="-0.61927">
        <ele>262.364502</ele>
      </trkpt>
      <trkpt lat="43.15815" lon="-0.61888">
        <ele>263.003784</ele>
      </trkpt>
      <trkpt lat="43.15834" lon="-0.6185">
        <ele>263.982635</ele>
      </trkpt>
      <trkpt lat="43.15825" lon="-0.61852">
        <ele>264.98642</ele>
      </trkpt>
      <trkpt lat="43.15778" lon="-0.61913">
        <ele>266.016693</ele>
      </trkpt>
      <trkpt lat="43.15754" lon="-0.61922">
        <ele>266.871368</ele>
      </trkpt>
      <trkpt lat="43.15682" lon="-0.61914">
        <ele>276.51062</ele>
      </trkpt>
      <trkpt lat="43.15601" lon="-0.61915">
        <ele>283.074707</ele>
      </trkpt>
      <trkpt lat="43.15585" lon="-0.61912">
        <ele>285.269958</ele>
      </trkpt>
      <trkpt lat="43.15565" lon="-0.61896">
        <ele>289.666565</ele>
      </trkpt>
      <trkpt lat="43.15519" lon="-0.61847">
        <ele>299.21167</ele>
      </trkpt>
      <trkpt lat="43.15482" lon="-0.61826">
        <ele>301.781708</ele>
      </trkpt>
      <trkpt lat="43.15439" lon="-0.61819">
        <ele>303.723724</ele>
      </trkpt>
      <trkpt lat="43.15387" lon="-0.61824">
        <ele>303.217529</ele>
      </trkpt>
      <trkpt lat="43.15284" lon="-0.6182">
        <ele>300.774017</ele>
      </trkpt>
      <trkpt lat="43.15187" lon="-0.61793">
        <ele>303.778076</ele>
      </trkpt>
      <trkpt lat="43.15084" lon="-0.61704">
        <ele>303.117615</ele>
      </trkpt>
      <trkpt lat="43.14922" lon="-0.61598">
        <ele>309.207825</ele>
      </trkpt>
      <trkpt lat="43.14917" lon="-0.61594">
        <ele>309.194275</ele>
      </trkpt>
      <trkpt lat="43.14868" lon="-0.61626">
        <ele>306.542328</ele>
      </trkpt>
      <trkpt lat="43.1487" lon="-0.61548">
        <ele>310.964905</ele>
      </trkpt>
      <trkpt lat="43.14892" lon="-0.6151">
        <ele>312.456177</ele>
      </trkpt>
      <trkpt lat="43.14888" lon="-0.61476">
        <ele>314.202545</ele>
      </trkpt>
      <trkpt lat="43.14875" lon="-0.61439">
        <ele>316.204315</ele>
      </trkpt>
      <trkpt lat="43.14841" lon="-0.61434">
        <ele>317.926239</ele>
      </trkpt>
      <trkpt lat="43.1478" lon="-0.61471">
        <ele>322.265869</ele>
      </trkpt>
      <trkpt lat="43.14758" lon="-0.61494">
        <ele>323.837952</ele>
      </trkpt>
      <trkpt lat="43.14683" lon="-0.61549">
        <ele>329.579742</ele>
      </trkpt>
      <trkpt lat="43.14632" lon="-0.61558">
        <ele>332.16098</ele>
      </trkpt>
      <trkpt lat="43.14476" lon="-0.61555">
        <ele>339.91272</ele>
      </trkpt>
      <trkpt lat="43.1443" lon="-0.61632">
        <ele>345.994049</ele>
      </trkpt>
      <trkpt lat="43.14364" lon="-0.6169">
        <ele>356.239746</ele>
      </trkpt>
      <trkpt lat="43.14327" lon="-0.6171">
        <ele>358.900787</ele>
      </trkpt>
      <trkpt lat="43.14267" lon="-0.61708">
        <ele>362.462128</ele>
      </trkpt>
      <trkpt lat="43.14158" lon="-0.61666">
        <ele>369.191986</ele>
      </trkpt>
      <trkpt lat="43.14135" lon="-0.61663">
        <ele>372.619324</ele>
      </trkpt>
      <trkpt lat="43.14114" lon="-0.6167">
        <ele>375.345184</ele>
      </trkpt>
      <trkpt lat="43.14091" lon="-0.61689">
        <ele>379.741119</ele>
      </trkpt>
      <trkpt lat="43.13995" lon="-0.61801">
        <ele>389.960815</ele>
      </trkpt>
      <trkpt lat="43.13961" lon="-0.61827">
        <ele>391.428223</ele>
      </trkpt>
      <trkpt lat="43.13932" lon="-0.61835">
        <ele>393.309845</ele>
      </trkpt>
      <trkpt lat="43.13924" lon="-0.61873">
        <ele>391.06488</ele>
      </trkpt>
      <trkpt lat="43.13901" lon="-0.61929">
        <ele>389.874023</ele>
      </trkpt>
      <trkpt lat="43.139" lon="-0.61931">
        <ele>389.869568</ele>
      </trkpt>
      <trkpt lat="43.13896" lon="-0.61945">
        <ele>389.878357</ele>
      </trkpt>
      <trkpt lat="43.13867" lon="-0.62031">
        <ele>391.817322</ele>
      </trkpt>
      <trkpt lat="43.13841" lon="-0.6211">
        <ele>401.935547</ele>
      </trkpt>
      <trkpt lat="43.13802" lon="-0.62213">
        <ele>415.438202</ele>
      </trkpt>
      <trkpt lat="43.13787" lon="-0.62266">
        <ele>421.559204</ele>
      </trkpt>
      <trkpt lat="43.13768" lon="-0.62316">
        <ele>421.262207</ele>
      </trkpt>
      <trkpt lat="43.13752" lon="-0.62338">
        <ele>420.930634</ele>
      </trkpt>
      <trkpt lat="43.13737" lon="-0.62346">
        <ele>420.723175</ele>
      </trkpt>
      <trkpt lat="43.13735" lon="-0.62362">
        <ele>420.130554</ele>
      </trkpt>
      <trkpt lat="43.13695" lon="-0.62437">
        <ele>419.107483</ele>
      </trkpt>
      <trkpt lat="43.1368" lon="-0.62476">
        <ele>417.931427</ele>
      </trkpt>
      <trkpt lat="43.13644" lon="-0.62652">
        <ele>419.917877</ele>
      </trkpt>
      <trkpt lat="43.1365" lon="-0.62661">
        <ele>419.053925</ele>
      </trkpt>
      <trkpt lat="43.13616" lon="-0.62622">
        <ele>413.112579</ele>
      </trkpt>
      <trkpt lat="43.13644" lon="-0.62651">
        <ele>419.744263</ele>
      </trkpt>
      <trkpt lat="43.13638" lon="-0.6265">
        <ele>418.397156</ele>
      </trkpt>
      <trkpt lat="43.13674" lon="-0.62708">
        <ele>411.292023</ele>
      </trkpt>
      <trkpt lat="43.13638" lon="-0.62782">
        <ele>395.673492</ele>
      </trkpt>
      <trkpt lat="43.1361" lon="-0.6285">
        <ele>375.307831</ele>
      </trkpt>
      <trkpt lat="43.1358" lon="-0.62872">
        <ele>371.06543</ele>
      </trkpt>
      <trkpt lat="43.13576" lon="-0.62915">
        <ele>362.554352</ele>
      </trkpt>
      <trkpt lat="43.13562" lon="-0.62946">
        <ele>360.120483</ele>
      </trkpt>
      <trkpt lat="43.13563" lon="-0.62983">
        <ele>354.724213</ele>
      </trkpt>
      <trkpt lat="43.13554" lon="-0.63042">
        <ele>354.972382</ele>
      </trkpt>
      <trkpt lat="43.13559" lon="-0.63083">
        <ele>351.670593</ele>
      </trkpt>
      <trkpt lat="43.13559" lon="-0.63096">
        <ele>351.205841</ele>
      </trkpt>
      <trkpt lat="43.13562" lon="-0.63147">
        <ele>349.669983</ele>
      </trkpt>
      <trkpt lat="43.13558" lon="-0.63182">
        <ele>350.718536</ele>
      </trkpt>
      <trkpt lat="43.13575" lon="-0.63238">
        <ele>339.578522</ele>
      </trkpt>
      <trkpt lat="43.13589" lon="-0.63268">
        <ele>328.691833</ele>
      </trkpt>
      <trkpt lat="43.13593" lon="-0.63278">
        <ele>325.952698</ele>
      </trkpt>
      <trkpt lat="43.13597" lon="-0.63298">
        <ele>321.533142</ele>
      </trkpt>
      <trkpt lat="43.13613" lon="-0.63312">
        <ele>314.385529</ele>
      </trkpt>
      <trkpt lat="43.13634" lon="-0.63367">
        <ele>301.107544</ele>
      </trkpt>
      <trkpt lat="43.13651" lon="-0.63382">
        <ele>292.575531</ele>
      </trkpt>
      <trkpt lat="43.13661" lon="-0.63386">
        <ele>288.726563</ele>
      </trkpt>
      <trkpt lat="43.13668" lon="-0.6338">
        <ele>288.11203</ele>
      </trkpt>
      <trkpt lat="43.13678" lon="-0.63386">
        <ele>285.390594</ele>
      </trkpt>
      <trkpt lat="43.13657" lon="-0.63413">
        <ele>283.84317</ele>
      </trkpt>
      <trkpt lat="43.1363" lon="-0.63471">
        <ele>281.813202</ele>
      </trkpt>
      <trkpt lat="43.13621" lon="-0.63505">
        <ele>281.895111</ele>
      </trkpt>
      <trkpt lat="43.13628" lon="-0.63542">
        <ele>282.348358</ele>
      </trkpt>
      <trkpt lat="43.13623" lon="-0.63508">
        <ele>281.764954</ele>
      </trkpt>
      <trkpt lat="43.13637" lon="-0.63485">
        <ele>280.120148</ele>
      </trkpt>
      <trkpt lat="43.1365" lon="-0.63494">
        <ele>279.363953</ele>
      </trkpt>
      <trkpt lat="43.1366" lon="-0.63526">
        <ele>279.196594</ele>
      </trkpt>
      <trkpt lat="43.13664" lon="-0.63555">
        <ele>279.233612</ele>
      </trkpt>
      <trkpt lat="43.1366" lon="-0.63615">
        <ele>280.344238</ele>
      </trkpt>
      <trkpt lat="43.13648" lon="-0.63641">
        <ele>281.059479</ele>
      </trkpt>
      <trkpt lat="43.13645" lon="-0.63671">
        <ele>280.835663</ele>
      </trkpt>
      <trkpt lat="43.13659" lon="-0.63715">
        <ele>282.366943</ele>
      </trkpt>
      <trkpt lat="43.13656" lon="-0.63753">
        <ele>284.055725</ele>
      </trkpt>
      <trkpt lat="43.13636" lon="-0.63794">
        <ele>285.510254</ele>
      </trkpt>
      <trkpt lat="43.13635" lon="-0.63809">
        <ele>286.55542</ele>
      </trkpt>
      <trkpt lat="43.13627" lon="-0.63843">
        <ele>288.657043</ele>
      </trkpt>
      <trkpt lat="43.13615" lon="-0.63847">
        <ele>288.141083</ele>
      </trkpt>
      <trkpt lat="43.13609" lon="-0.63871">
        <ele>289.143768</ele>
      </trkpt>
      <trkpt lat="43.13612" lon="-0.63901">
        <ele>290.691193</ele>
      </trkpt>
      <trkpt lat="43.13571" lon="-0.63957">
        <ele>292.582336</ele>
      </trkpt>
      <trkpt lat="43.13571" lon="-0.63996">
        <ele>294.427368</ele>
      </trkpt>
      <trkpt lat="43.13574" lon="-0.64024">
        <ele>295.714783</ele>
      </trkpt>
      <trkpt lat="43.13557" lon="-0.64025">
        <ele>295.713898</ele>
      </trkpt>
      <trkpt lat="43.13544" lon="-0.64037">
        <ele>295.887695</ele>
      </trkpt>
      <trkpt lat="43.13544" lon="-0.64085">
        <ele>297.47641</ele>
      </trkpt>
      <trkpt lat="43.13546" lon="-0.64173">
        <ele>299.200348</ele>
      </trkpt>
      <trkpt lat="43.13533" lon="-0.64259">
        <ele>299.278473</ele>
      </trkpt>
      <trkpt lat="43.13548" lon="-0.64303">
        <ele>299.521027</ele>
      </trkpt>
      <trkpt lat="43.13568" lon="-0.64339">
        <ele>300.00116</ele>
      </trkpt>
      <trkpt lat="43.13572" lon="-0.64374">
        <ele>300.660248</ele>
      </trkpt>
      <trkpt lat="43.13554" lon="-0.64511">
        <ele>306.483337</ele>
      </trkpt>
      <trkpt lat="43.13552" lon="-0.64559">
        <ele>310.542969</ele>
      </trkpt>
      <trkpt lat="43.13558" lon="-0.64627">
        <ele>316.809082</ele>
      </trkpt>
      <trkpt lat="43.13566" lon="-0.64673">
        <ele>320.412292</ele>
      </trkpt>
      <trkpt lat="43.13621" lon="-0.64741">
        <ele>320.456024</ele>
      </trkpt>
      <trkpt lat="43.1364" lon="-0.64805">
        <ele>312.187958</ele>
      </trkpt>
      <trkpt lat="43.1368" lon="-0.6488">
        <ele>306.013885</ele>
      </trkpt>
      <trkpt lat="43.13678" lon="-0.64915">
        <ele>304.774506</ele>
      </trkpt>
      <trkpt lat="43.13667" lon="-0.64935">
        <ele>304.606934</ele>
      </trkpt>
      <trkpt lat="43.13658" lon="-0.64952">
        <ele>305.150055</ele>
      </trkpt>
      <trkpt lat="43.13667" lon="-0.64997">
        <ele>309.714661</ele>
      </trkpt>
      <trkpt lat="43.13659" lon="-0.65016">
        <ele>311.950287</ele>
      </trkpt>
      <trkpt lat="43.13647" lon="-0.65121">
        <ele>325.25293</ele>
      </trkpt>
      <trkpt lat="43.13609" lon="-0.65149">
        <ele>326.306549</ele>
      </trkpt>
      <trkpt lat="43.13557" lon="-0.65218">
        <ele>326.739471</ele>
      </trkpt>
      <trkpt lat="43.13537" lon="-0.65261">
        <ele>327.79248</ele>
      </trkpt>
      <trkpt lat="43.13526" lon="-0.65287">
        <ele>327.515961</ele>
      </trkpt>
      <trkpt lat="43.13522" lon="-0.65412">
        <ele>323.627808</ele>
      </trkpt>
      <trkpt lat="43.1351" lon="-0.6546">
        <ele>320.196259</ele>
      </trkpt>
      <trkpt lat="43.13492" lon="-0.65481">
        <ele>318.717346</ele>
      </trkpt>
      <trkpt lat="43.13443" lon="-0.65487">
        <ele>315.967926</ele>
      </trkpt>
      <trkpt lat="43.13407" lon="-0.65507">
        <ele>313.642883</ele>
      </trkpt>
      <trkpt lat="43.13363" lon="-0.65494">
        <ele>312.108063</ele>
      </trkpt>
      <trkpt lat="43.13339" lon="-0.65496">
        <ele>312.389587</ele>
      </trkpt>
      <trkpt lat="43.13288" lon="-0.65529">
        <ele>314.462891</ele>
      </trkpt>
      <trkpt lat="43.13281" lon="-0.65545">
        <ele>315.172119</ele>
      </trkpt>
      <trkpt lat="43.13273" lon="-0.65624">
        <ele>315.777405</ele>
      </trkpt>
      <trkpt lat="43.13259" lon="-0.65659">
        <ele>313.487793</ele>
      </trkpt>
      <trkpt lat="43.13268" lon="-0.65742">
        <ele>311.961792</ele>
      </trkpt>
      <trkpt lat="43.13295" lon="-0.65829">
        <ele>312.614685</ele>
      </trkpt>
      <trkpt lat="43.13315" lon="-0.65869">
        <ele>313.946655</ele>
      </trkpt>
      <trkpt lat="43.13383" lon="-0.65966">
        <ele>318.81369</ele>
      </trkpt>
      <trkpt lat="43.13398" lon="-0.65998">
        <ele>319.820374</ele>
      </trkpt>
      <trkpt lat="43.134" lon="-0.66043">
        <ele>320.273407</ele>
      </trkpt>
      <trkpt lat="43.13382" lon="-0.66088">
        <ele>320.918457</ele>
      </trkpt>
      <trkpt lat="43.13374" lon="-0.66152">
        <ele>324.654541</ele>
      </trkpt>
      <trkpt lat="43.13363" lon="-0.66186">
        <ele>327.825928</ele>
      </trkpt>
      <trkpt lat="43.13345" lon="-0.66213">
        <ele>331.679932</ele>
      </trkpt>
      <trkpt lat="43.13309" lon="-0.66248">
        <ele>337.513855</ele>
      </trkpt>
      <trkpt lat="43.13292" lon="-0.66275">
        <ele>340.292267</ele>
      </trkpt>
      <trkpt lat="43.13282" lon="-0.6634">
        <ele>346.358307</ele>
      </trkpt>
      <trkpt lat="43.13284" lon="-0.66414">
        <ele>355.542847</ele>
      </trkpt>
      <trkpt lat="43.13256" lon="-0.66487">
        <ele>361.544708</ele>
      </trkpt>
      <trkpt lat="43.13262" lon="-0.66499">
        <ele>363.237549</ele>
      </trkpt>
      <trkpt lat="43.13282" lon="-0.66503">
        <ele>365.377289</ele>
      </trkpt>
      <trkpt lat="43.13341" lon="-0.66541">
        <ele>374.378235</ele>
      </trkpt>
      <trkpt lat="43.13357" lon="-0.66558">
        <ele>377.3396</ele>
      </trkpt>
      <trkpt lat="43.13372" lon="-0.66619">
        <ele>384.965057</ele>
      </trkpt>
      <trkpt lat="43.13372" lon="-0.66659">
        <ele>388.531097</ele>
      </trkpt>
      <trkpt lat="43.13367" lon="-0.66671">
        <ele>388.935303</ele>
      </trkpt>
      <trkpt lat="43.1328" lon="-0.66778">
        <ele>384.769623</ele>
      </trkpt>
      <trkpt lat="43.13221" lon="-0.66911">
        <ele>391.900604</ele>
      </trkpt>
      <trkpt lat="43.13173" lon="-0.66985">
        <ele>392.902618</ele>
      </trkpt>
      <trkpt lat="43.13135" lon="-0.6707">
        <ele>397.464386</ele>
      </trkpt>
      <trkpt lat="43.13098" lon="-0.67132">
        <ele>392.092285</ele>
      </trkpt>
      <trkpt lat="43.13071" lon="-0.67252">
        <ele>386.182404</ele>
      </trkpt>
      <trkpt lat="43.13038" lon="-0.67358">
        <ele>379.559082</ele>
      </trkpt>
      <trkpt lat="43.13027" lon="-0.67377">
        <ele>379.751923</ele>
      </trkpt>
      <trkpt lat="43.1299" lon="-0.67424">
        <ele>380.525635</ele>
      </trkpt>
      <trkpt lat="43.12957" lon="-0.6748">
        <ele>378.537659</ele>
      </trkpt>
      <trkpt lat="43.12954" lon="-0.67515">
        <ele>376.82254</ele>
      </trkpt>
      <trkpt lat="43.12962" lon="-0.67553">
        <ele>377.241272</ele>
      </trkpt>
      <trkpt lat="43.12983" lon="-0.67563">
        <ele>371.670471</ele>
      </trkpt>
      <trkpt lat="43.13005" lon="-0.67611">
        <ele>368.885529</ele>
      </trkpt>
      <trkpt lat="43.13025" lon="-0.67639">
        <ele>364.75354</ele>
      </trkpt>
      <trkpt lat="43.13036" lon="-0.67693">
        <ele>366.593567</ele>
      </trkpt>
      <trkpt lat="43.13066" lon="-0.67772">
        <ele>356.280182</ele>
      </trkpt>
      <trkpt lat="43.1305" lon="-0.67821">
        <ele>354.704742</ele>
      </trkpt>
      <trkpt lat="43.13051" lon="-0.67842">
        <ele>355.526215</ele>
      </trkpt>
      <trkpt lat="43.13073" lon="-0.67851">
        <ele>349.232819</ele>
      </trkpt>
      <trkpt lat="43.13127" lon="-0.67898">
        <ele>341.842102</ele>
      </trkpt>
      <trkpt lat="43.13162" lon="-0.67949">
        <ele>342.869568</ele>
      </trkpt>
      <trkpt lat="43.13155" lon="-0.68117">
        <ele>334.361816</ele>
      </trkpt>
      <trkpt lat="43.13131" lon="-0.6813">
        <ele>338.13031</ele>
      </trkpt>
      <trkpt lat="43.13122" lon="-0.68128">
        <ele>340.822815</ele>
      </trkpt>
      <trkpt lat="43.13092" lon="-0.68091">
        <ele>353.386505</ele>
      </trkpt>
      <trkpt lat="43.13087" lon="-0.68071">
        <ele>357.74765</ele>
      </trkpt>
      <trkpt lat="43.13081" lon="-0.68068">
        <ele>360.247833</ele>
      </trkpt>
      <trkpt lat="43.13069" lon="-0.68118">
        <ele>358.484375</ele>
      </trkpt>
      <trkpt lat="43.13064" lon="-0.68156">
        <ele>356.583984</ele>
      </trkpt>
      <trkpt lat="43.13056" lon="-0.68171">
        <ele>358.741058</ele>
      </trkpt>
      <trkpt lat="43.1308" lon="-0.68262">
        <ele>348.5448</ele>
      </trkpt>
      <trkpt lat="43.1308" lon="-0.68284">
        <ele>348.842316</ele>
      </trkpt>
      <trkpt lat="43.1307" lon="-0.68296">
        <ele>351.604156</ele>
      </trkpt>
      <trkpt lat="43.13041" lon="-0.68333">
        <ele>357.648163</ele>
      </trkpt>
      <trkpt lat="43.13018" lon="-0.68428">
        <ele>355.145355</ele>
      </trkpt>
      <trkpt lat="43.13015" lon="-0.68435">
        <ele>356.455048</ele>
      </trkpt>
      <trkpt lat="43.13028" lon="-0.68576">
        <ele>361.068726</ele>
      </trkpt>
      <trkpt lat="43.13091" lon="-0.6862">
        <ele>359.977783</ele>
      </trkpt>
      <trkpt lat="43.13128" lon="-0.68663">
        <ele>360.839935</ele>
      </trkpt>
      <trkpt lat="43.13144" lon="-0.68712">
        <ele>358.301178</ele>
      </trkpt>
      <trkpt lat="43.13127" lon="-0.68776">
        <ele>356.540283</ele>
      </trkpt>
      <trkpt lat="43.13123" lon="-0.68771">
        <ele>358.73465</ele>
      </trkpt>
      <trkpt lat="43.13121" lon="-0.68717">
        <ele>365.938782</ele>
      </trkpt>
      <trkpt lat="43.13104" lon="-0.68694">
        <ele>369.837769</ele>
      </trkpt>
      <trkpt lat="43.13092" lon="-0.68691">
        <ele>372.628265</ele>
      </trkpt>
      <trkpt lat="43.13092" lon="-0.68714">
        <ele>374.030334</ele>
      </trkpt>
      <trkpt lat="43.13075" lon="-0.68745">
        <ele>377.468445</ele>
      </trkpt>
      <trkpt lat="43.12997" lon="-0.68828">
        <ele>390.166779</ele>
      </trkpt>
      <trkpt lat="43.12958" lon="-0.6885">
        <ele>394.895966</ele>
      </trkpt>
      <trkpt lat="43.12896" lon="-0.68838">
        <ele>407.358032</ele>
      </trkpt>
      <trkpt lat="43.1285" lon="-0.6884">
        <ele>407.277435</ele>
      </trkpt>
      <trkpt lat="43.12825" lon="-0.68826">
        <ele>406.06076</ele>
      </trkpt>
      <trkpt lat="43.12796" lon="-0.68771">
        <ele>410.537628</ele>
      </trkpt>
      <trkpt lat="43.12778" lon="-0.68763">
        <ele>411.132477</ele>
      </trkpt>
      <trkpt lat="43.12725" lon="-0.68761">
        <ele>410.321777</ele>
      </trkpt>
      <trkpt lat="43.12629" lon="-0.68687">
        <ele>422.501892</ele>
      </trkpt>
      <trkpt lat="43.12622" lon="-0.68656">
        <ele>421.273468</ele>
      </trkpt>
      <trkpt lat="43.12622" lon="-0.68601">
        <ele>424.694153</ele>
      </trkpt>
      <trkpt lat="43.12611" lon="-0.68572">
        <ele>423.521637</ele>
      </trkpt>
      <trkpt lat="43.12489" lon="-0.68537">
        <ele>419.523438</ele>
      </trkpt>
      <trkpt lat="43.12438" lon="-0.68509">
        <ele>416.358032</ele>
      </trkpt>
      <trkpt lat="43.12367" lon="-0.68426">
        <ele>412.490234</ele>
      </trkpt>
      <trkpt lat="43.12343" lon="-0.68372">
        <ele>415.787109</ele>
      </trkpt>
      <trkpt lat="43.12337" lon="-0.68323">
        <ele>425.660309</ele>
      </trkpt>
      <trkpt lat="43.12332" lon="-0.68305">
        <ele>427.801086</ele>
      </trkpt>
      <trkpt lat="43.12322" lon="-0.68327">
        <ele>420.719177</ele>
      </trkpt>
      <trkpt lat="43.12276" lon="-0.68381">
        <ele>418.552673</ele>
      </trkpt>
      <trkpt lat="43.1224" lon="-0.68397">
        <ele>423.158173</ele>
      </trkpt>
      <trkpt lat="43.12205" lon="-0.68382">
        <ele>428.263062</ele>
      </trkpt>
      <trkpt lat="43.12183" lon="-0.68353">
        <ele>434.512085</ele>
      </trkpt>
      <trkpt lat="43.12161" lon="-0.68302">
        <ele>439.376892</ele>
      </trkpt>
      <trkpt lat="43.12143" lon="-0.68206">
        <ele>451.371399</ele>
      </trkpt>
      <trkpt lat="43.12117" lon="-0.68175">
        <ele>451.945251</ele>
      </trkpt>
      <trkpt lat="43.12095" lon="-0.68095">
        <ele>466.723083</ele>
      </trkpt>
      <trkpt lat="43.12065" lon="-0.68045">
        <ele>472.589844</ele>
      </trkpt>
      <trkpt lat="43.12057" lon="-0.68038">
        <ele>472.843231</ele>
      </trkpt>
      <trkpt lat="43.12019" lon="-0.68024">
        <ele>476.739868</ele>
      </trkpt>
      <trkpt lat="43.11995" lon="-0.67998">
        <ele>483.48645</ele>
      </trkpt>
      <trkpt lat="43.11983" lon="-0.67976">
        <ele>488.423279</ele>
      </trkpt>
      <trkpt lat="43.11961" lon="-0.67925">
        <ele>495.906952</ele>
      </trkpt>
      <trkpt lat="43.11949" lon="-0.67868">
        <ele>499.927155</ele>
      </trkpt>
      <trkpt lat="43.11948" lon="-0.67833">
        <ele>499.61731</ele>
      </trkpt>
      <trkpt lat="43.11971" lon="-0.67744">
        <ele>504.221863</ele>
      </trkpt>
      <trkpt lat="43.11968" lon="-0.67702">
        <ele>505.330383</ele>
      </trkpt>
      <trkpt lat="43.11957" lon="-0.67666">
        <ele>507.385864</ele>
      </trkpt>
      <trkpt lat="43.11934" lon="-0.6762">
        <ele>510.573822</ele>
      </trkpt>
      <trkpt lat="43.11915" lon="-0.67585">
        <ele>514.897156</ele>
      </trkpt>
      <trkpt lat="43.11887" lon="-0.67554">
        <ele>518.56311</ele>
      </trkpt>
      <trkpt lat="43.11852" lon="-0.67537">
        <ele>521.406738</ele>
      </trkpt>
      <trkpt lat="43.11821" lon="-0.67527">
        <ele>524.48645</ele>
      </trkpt>
      <trkpt lat="43.11717" lon="-0.67524">
        <ele>530.037109</ele>
      </trkpt>
      <trkpt lat="43.11689" lon="-0.67508">
        <ele>532.34259</ele>
      </trkpt>
      <trkpt lat="43.11647" lon="-0.67452">
        <ele>537.565125</ele>
      </trkpt>
      <trkpt lat="43.11589" lon="-0.67394">
        <ele>534.826721</ele>
      </trkpt>
      <trkpt lat="43.11562" lon="-0.67371">
        <ele>536.52478</ele>
      </trkpt>
      <trkpt lat="43.11523" lon="-0.67356">
        <ele>539.068359</ele>
      </trkpt>
      <trkpt lat="43.1145" lon="-0.67366">
        <ele>542.864014</ele>
      </trkpt>
      <trkpt lat="43.11358" lon="-0.67417">
        <ele>547.530823</ele>
      </trkpt>
      <trkpt lat="43.11317" lon="-0.67451">
        <ele>551.212646</ele>
      </trkpt>
      <trkpt lat="43.11277" lon="-0.67496">
        <ele>556.26178</ele>
      </trkpt>
      <trkpt lat="43.11245" lon="-0.67573">
        <ele>556.109741</ele>
      </trkpt>
      <trkpt lat="43.11198" lon="-0.67655">
        <ele>560.360413</ele>
      </trkpt>
      <trkpt lat="43.11196" lon="-0.67782">
        <ele>550.986389</ele>
      </trkpt>
      <trkpt lat="43.11189" lon="-0.67814">
        <ele>547.358459</ele>
      </trkpt>
      <trkpt lat="43.11095" lon="-0.67977">
        <ele>545.083984</ele>
      </trkpt>
      <trkpt lat="43.11061" lon="-0.68058">
        <ele>546.525391</ele>
      </trkpt>
      <trkpt lat="43.11049" lon="-0.68148">
        <ele>543.103821</ele>
      </trkpt>
      <trkpt lat="43.11042" lon="-0.68238">
        <ele>537.204956</ele>
      </trkpt>
      <trkpt lat="43.11051" lon="-0.68283">
        <ele>538.105896</ele>
      </trkpt>
      <trkpt lat="43.11053" lon="-0.68347">
        <ele>538.856445</ele>
      </trkpt>
      <trkpt lat="43.11034" lon="-0.68408">
        <ele>534.789368</ele>
      </trkpt>
      <trkpt lat="43.10999" lon="-0.68505">
        <ele>534.692444</ele>
      </trkpt>
      <trkpt lat="43.10945" lon="-0.68541">
        <ele>535.697388</ele>
      </trkpt>
      <trkpt lat="43.10911" lon="-0.68577">
        <ele>541.720459</ele>
      </trkpt>
      <trkpt lat="43.10869" lon="-0.68643">
        <ele>544.004517</ele>
      </trkpt>
      <trkpt lat="43.10848" lon="-0.68723">
        <ele>543.688416</ele>
      </trkpt>
      <trkpt lat="43.10864" lon="-0.68816">
        <ele>546.285461</ele>
      </trkpt>
      <trkpt lat="43.10885" lon="-0.6889">
        <ele>544.563477</ele>
      </trkpt>
      <trkpt lat="43.10883" lon="-0.68913">
        <ele>544.74646</ele>
      </trkpt>
      <trkpt lat="43.10869" lon="-0.68992">
        <ele>545.160034</ele>
      </trkpt>
      <trkpt lat="43.10871" lon="-0.69047">
        <ele>545.057556</ele>
      </trkpt>
      <trkpt lat="43.1086" lon="-0.69156">
        <ele>545.999756</ele>
      </trkpt>
      <trkpt lat="43.10857" lon="-0.69226">
        <ele>541.568176</ele>
      </trkpt>
      <trkpt lat="43.10869" lon="-0.69334">
        <ele>548.722046</ele>
      </trkpt>
      <trkpt lat="43.10865" lon="-0.69341">
        <ele>548.805603</ele>
      </trkpt>
      <trkpt lat="43.10861" lon="-0.69239">
        <ele>542.66803</ele>
      </trkpt>
      <trkpt lat="43.10843" lon="-0.69169">
        <ele>542.829468</ele>
      </trkpt>
      <trkpt lat="43.10833" lon="-0.69032">
        <ele>545.775513</ele>
      </trkpt>
      <trkpt lat="43.10827" lon="-0.6902">
        <ele>545.463501</ele>
      </trkpt>
      <trkpt lat="43.10698" lon="-0.68925">
        <ele>526.531494</ele>
      </trkpt>
      <trkpt lat="43.10671" lon="-0.68898">
        <ele>522.088684</ele>
      </trkpt>
      <trkpt lat="43.10647" lon="-0.68861">
        <ele>516.045715</ele>
      </trkpt>
      <trkpt lat="43.10599" lon="-0.68891">
        <ele>503.042664</ele>
      </trkpt>
      <trkpt lat="43.10551" lon="-0.68885">
        <ele>493.127991</ele>
      </trkpt>
      <trkpt lat="43.10519" lon="-0.68862">
        <ele>489.521942</ele>
      </trkpt>
      <trkpt lat="43.10497" lon="-0.68804">
        <ele>481.685577</ele>
      </trkpt>
      <trkpt lat="43.10463" lon="-0.68762">
        <ele>474.458313</ele>
      </trkpt>
      <trkpt lat="43.10386" lon="-0.68709">
        <ele>457.336365</ele>
      </trkpt>
      <trkpt lat="43.1034" lon="-0.68686">
        <ele>449.467468</ele>
      </trkpt>
      <trkpt lat="43.10306" lon="-0.68648">
        <ele>445.936798</ele>
      </trkpt>
      <trkpt lat="43.1029" lon="-0.68567">
        <ele>433.955505</ele>
      </trkpt>
      <trkpt lat="43.10287" lon="-0.68507">
        <ele>423.312103</ele>
      </trkpt>
      <trkpt lat="43.10262" lon="-0.6847">
        <ele>420.560944</ele>
      </trkpt>
      <trkpt lat="43.10232" lon="-0.68421">
        <ele>416.550232</ele>
      </trkpt>
      <trkpt lat="43.10223" lon="-0.68417">
        <ele>416.163483</ele>
      </trkpt>
      <trkpt lat="43.1016" lon="-0.68462">
        <ele>415.816956</ele>
      </trkpt>
      <trkpt lat="43.10098" lon="-0.68477">
        <ele>413.521362</ele>
      </trkpt>
      <trkpt lat="43.10072" lon="-0.6847">
        <ele>410.749481</ele>
      </trkpt>
      <trkpt lat="43.09943" lon="-0.68429">
        <ele>406.11261</ele>
      </trkpt>
      <trkpt lat="43.09943" lon="-0.68419">
        <ele>406.733398</ele>
      </trkpt>
      <trkpt lat="43.09947" lon="-0.68433">
        <ele>405.912964</ele>
      </trkpt>
      <trkpt lat="43.09962" lon="-0.68431">
        <ele>406.032959</ele>
      </trkpt>
      <trkpt lat="43.10013" lon="-0.68443">
        <ele>406.424133</ele>
      </trkpt>
      <trkpt lat="43.09993" lon="-0.68366">
        <ele>404.188202</ele>
      </trkpt>
      <trkpt lat="43.09978" lon="-0.68224">
        <ele>399.384766</ele>
      </trkpt>
      <trkpt lat="43.0993" lon="-0.68179">
        <ele>392.733276</ele>
      </trkpt>
      <trkpt lat="43.09887" lon="-0.6817">
        <ele>393.140411</ele>
      </trkpt>
      <trkpt lat="43.09874" lon="-0.6816">
        <ele>390.686279</ele>
      </trkpt>
      <trkpt lat="43.09832" lon="-0.68101">
        <ele>377.942047</ele>
      </trkpt>
      <trkpt lat="43.09816" lon="-0.68098">
        <ele>380.808167</ele>
      </trkpt>
      <trkpt lat="43.09794" lon="-0.6808">
        <ele>379.413635</ele>
      </trkpt>
      <trkpt lat="43.0979" lon="-0.68079">
        <ele>379.68277</ele>
      </trkpt>
      <trkpt lat="43.09737" lon="-0.68048">
        <ele>378.770966</ele>
      </trkpt>
      <trkpt lat="43.09668" lon="-0.68016">
        <ele>367.5802</ele>
      </trkpt>
      <trkpt lat="43.09653" lon="-0.68024">
        <ele>365.615692</ele>
      </trkpt>
      <trkpt lat="43.09621" lon="-0.68073">
        <ele>363.886444</ele>
      </trkpt>
      <trkpt lat="43.09587" lon="-0.68094">
        <ele>359.40036</ele>
      </trkpt>
      <trkpt lat="43.09555" lon="-0.68099">
        <ele>355.230621</ele>
      </trkpt>
      <trkpt lat="43.09552" lon="-0.68087">
        <ele>354.2966</ele>
      </trkpt>
      <trkpt lat="43.0958" lon="-0.67358">
        <ele>340.004669</ele>
      </trkpt>
      <trkpt lat="43.09584" lon="-0.67277">
        <ele>342.600067</ele>
      </trkpt>
      <trkpt lat="43.09593" lon="-0.67243">
        <ele>342.098053</ele>
      </trkpt>
      <trkpt lat="43.096" lon="-0.67228">
        <ele>340.387146</ele>
      </trkpt>
      <trkpt lat="43.0967" lon="-0.67153">
        <ele>342.165161</ele>
      </trkpt>
      <trkpt lat="43.09673" lon="-0.6704">
        <ele>352.531952</ele>
      </trkpt>
      <trkpt lat="43.09687" lon="-0.66979">
        <ele>354.208588</ele>
      </trkpt>
      <trkpt lat="43.09719" lon="-0.66896">
        <ele>355.121216</ele>
      </trkpt>
      <trkpt lat="43.09775" lon="-0.66785">
        <ele>347.701172</ele>
      </trkpt>
      <trkpt lat="43.09938" lon="-0.66542">
        <ele>343.96463</ele>
      </trkpt>
      <trkpt lat="43.10048" lon="-0.66326">
        <ele>330.347778</ele>
      </trkpt>
      <trkpt lat="43.10089" lon="-0.66253">
        <ele>330.318024</ele>
      </trkpt>
      <trkpt lat="43.10117" lon="-0.66217">
        <ele>328.679535</ele>
      </trkpt>
      <trkpt lat="43.10116" lon="-0.6614">
        <ele>325.385284</ele>
      </trkpt>
      <trkpt lat="43.101" lon="-0.66077">
        <ele>323.560333</ele>
      </trkpt>
      <trkpt lat="43.10097" lon="-0.66071">
        <ele>323.383911</ele>
      </trkpt>
      <trkpt lat="43.10093" lon="-0.66075">
        <ele>323.366913</ele>
      </trkpt>
      <trkpt lat="43.10096" lon="-0.66084">
        <ele>323.58374</ele>
      </trkpt>
      <trkpt lat="43.10086" lon="-0.66085">
        <ele>323.340179</ele>
      </trkpt>
      <trkpt lat="43.10035" lon="-0.6606">
        <ele>319.418243</ele>
      </trkpt>
      <trkpt lat="43.10027" lon="-0.6605">
        <ele>318.249054</ele>
      </trkpt>
      <trkpt lat="43.10022" lon="-0.65969">
        <ele>313.722839</ele>
      </trkpt>
      <trkpt lat="43.10011" lon="-0.65945">
        <ele>311.929993</ele>
      </trkpt>
      <trkpt lat="43.09994" lon="-0.65932">
        <ele>310.852966</ele>
      </trkpt>
      <trkpt lat="43.09986" lon="-0.65913">
        <ele>310.275879</ele>
      </trkpt>
      <trkpt lat="43.09976" lon="-0.65774">
        <ele>313.833008</ele>
      </trkpt>
      <trkpt lat="43.09954" lon="-0.6574">
        <ele>317.905884</ele>
      </trkpt>
      <trkpt lat="43.09941" lon="-0.65737">
        <ele>318.997253</ele>
      </trkpt>
      <trkpt lat="43.09911" lon="-0.6576">
        <ele>318.950317</ele>
      </trkpt>
      <trkpt lat="43.09889" lon="-0.65767">
        <ele>319.620331</ele>
      </trkpt>
      <trkpt lat="43.09851" lon="-0.65752">
        <ele>325.940857</ele>
      </trkpt>
      <trkpt lat="43.09804" lon="-0.65756">
        <ele>335.288269</ele>
      </trkpt>
      <trkpt lat="43.09701" lon="-0.6577">
        <ele>344.907196</ele>
      </trkpt>
      <trkpt lat="43.0969" lon="-0.65766">
        <ele>346.727936</ele>
      </trkpt>
      <trkpt lat="43.09674" lon="-0.6574">
        <ele>361.221344</ele>
      </trkpt>
      <trkpt lat="43.09641" lon="-0.6578">
        <ele>346.367981</ele>
      </trkpt>
      <trkpt lat="43.09618" lon="-0.65797">
        <ele>346.470703</ele>
      </trkpt>
      <trkpt lat="43.09592" lon="-0.658">
        <ele>350.910065</ele>
      </trkpt>
      <trkpt lat="43.09526" lon="-0.65869">
        <ele>365.901886</ele>
      </trkpt>
      <trkpt lat="43.09473" lon="-0.65903">
        <ele>367.491211</ele>
      </trkpt>
      <trkpt lat="43.09439" lon="-0.65919">
        <ele>378.764343</ele>
      </trkpt>
      <trkpt lat="43.0939" lon="-0.65929">
        <ele>387.965851</ele>
      </trkpt>
      <trkpt lat="43.09326" lon="-0.65905">
        <ele>386.834045</ele>
      </trkpt>
      <trkpt lat="43.09308" lon="-0.6589">
        <ele>386.911865</ele>
      </trkpt>
      <trkpt lat="43.09193" lon="-0.65868">
        <ele>403.917664</ele>
      </trkpt>
      <trkpt lat="43.0916" lon="-0.65892">
        <ele>405.575104</ele>
      </trkpt>
      <trkpt lat="43.09076" lon="-0.65959">
        <ele>424.81485</ele>
      </trkpt>
      <trkpt lat="43.09032" lon="-0.65977">
        <ele>431.725128</ele>
      </trkpt>
      <trkpt lat="43.08998" lon="-0.6598">
        <ele>438.01004</ele>
      </trkpt>
      <trkpt lat="43.08995" lon="-0.65999">
        <ele>439.293182</ele>
      </trkpt>
      <trkpt lat="43.08984" lon="-0.66004">
        <ele>441.146606</ele>
      </trkpt>
      <trkpt lat="43.08951" lon="-0.65972">
        <ele>447.301208</ele>
      </trkpt>
      <trkpt lat="43.08932" lon="-0.65964">
        <ele>451.151001</ele>
      </trkpt>
      <trkpt lat="43.08909" lon="-0.65997">
        <ele>454.944641</ele>
      </trkpt>
      <trkpt lat="43.08875" lon="-0.66022">
        <ele>458.251465</ele>
      </trkpt>
      <trkpt lat="43.08853" lon="-0.66023">
        <ele>459.559052</ele>
      </trkpt>
      <trkpt lat="43.08849" lon="-0.66013">
        <ele>460.081299</ele>
      </trkpt>
      <trkpt lat="43.08853" lon="-0.65908">
        <ele>462.977936</ele>
      </trkpt>
      <trkpt lat="43.08869" lon="-0.65772">
        <ele>467.974884</ele>
      </trkpt>
      <trkpt lat="43.08863" lon="-0.65716">
        <ele>474.483643</ele>
      </trkpt>
      <trkpt lat="43.08864" lon="-0.65639">
        <ele>485.565552</ele>
      </trkpt>
      <trkpt lat="43.08856" lon="-0.65602">
        <ele>490.957031</ele>
      </trkpt>
      <trkpt lat="43.08872" lon="-0.6555">
        <ele>497.881409</ele>
      </trkpt>
      <trkpt lat="43.08888" lon="-0.65535">
        <ele>499.562012</ele>
      </trkpt>
      <trkpt lat="43.08891" lon="-0.65525">
        <ele>500.682648</ele>
      </trkpt>
      <trkpt lat="43.08871" lon="-0.65489">
        <ele>505.648621</ele>
      </trkpt>
      <trkpt lat="43.08804" lon="-0.6542">
        <ele>518.682678</ele>
      </trkpt>
      <trkpt lat="43.08735" lon="-0.65323">
        <ele>533.497375</ele>
      </trkpt>
      <trkpt lat="43.08629" lon="-0.65203">
        <ele>549.886658</ele>
      </trkpt>
      <trkpt lat="43.08488" lon="-0.65107">
        <ele>554.791748</ele>
      </trkpt>
      <trkpt lat="43.08403" lon="-0.64978">
        <ele>564.253784</ele>
      </trkpt>
      <trkpt lat="43.08236" lon="-0.64671">
        <ele>591.578613</ele>
      </trkpt>
      <trkpt lat="43.08203" lon="-0.64605">
        <ele>604.144653</ele>
      </trkpt>
      <trkpt lat="43.08124" lon="-0.64523">
        <ele>614.853577</ele>
      </trkpt>
      <trkpt lat="43.08049" lon="-0.64462">
        <ele>617.804749</ele>
      </trkpt>
      <trkpt lat="43.07931" lon="-0.64268">
        <ele>635.28717</ele>
      </trkpt>
      <trkpt lat="43.07878" lon="-0.64207">
        <ele>636.489624</ele>
      </trkpt>
      <trkpt lat="43.07875" lon="-0.6419">
        <ele>637.11908</ele>
      </trkpt>
      <trkpt lat="43.07889" lon="-0.64141">
        <ele>639.502258</ele>
      </trkpt>
      <trkpt lat="43.07916" lon="-0.641">
        <ele>645.165527</ele>
      </trkpt>
      <trkpt lat="43.07939" lon="-0.64036">
        <ele>646.368774</ele>
      </trkpt>
      <trkpt lat="43.07947" lon="-0.64037">
        <ele>649.839905</ele>
      </trkpt>
      <trkpt lat="43.07958" lon="-0.64112">
        <ele>659.671265</ele>
      </trkpt>
      <trkpt lat="43.07965" lon="-0.64114">
        <ele>662.026306</ele>
      </trkpt>
      <trkpt lat="43.07973" lon="-0.64094">
        <ele>664.094055</ele>
      </trkpt>
      <trkpt lat="43.08025" lon="-0.64005">
        <ele>677.04834</ele>
      </trkpt>
      <trkpt lat="43.08073" lon="-0.63912">
        <ele>687.645752</ele>
      </trkpt>
      <trkpt lat="43.08101" lon="-0.63818">
        <ele>690.075012</ele>
      </trkpt>
      <trkpt lat="43.08144" lon="-0.63754">
        <ele>696.264954</ele>
      </trkpt>
      <trkpt lat="43.0818" lon="-0.63653">
        <ele>703.646301</ele>
      </trkpt>
      <trkpt lat="43.0818" lon="-0.63609">
        <ele>702.222351</ele>
      </trkpt>
      <trkpt lat="43.08165" lon="-0.63551">
        <ele>696.192261</ele>
      </trkpt>
      <trkpt lat="43.08167" lon="-0.63529">
        <ele>695.83252</ele>
      </trkpt>
      <trkpt lat="43.08166" lon="-0.63391">
        <ele>683.84729</ele>
      </trkpt>
      <trkpt lat="43.08178" lon="-0.63369">
        <ele>685.112793</ele>
      </trkpt>
      <trkpt lat="43.08189" lon="-0.63356">
        <ele>686.54425</ele>
      </trkpt>
      <trkpt lat="43.08166" lon="-0.63375">
        <ele>682.026733</ele>
      </trkpt>
      <trkpt lat="43.08163" lon="-0.63366">
        <ele>680.077759</ele>
      </trkpt>
      <trkpt lat="43.08162" lon="-0.6333">
        <ele>675.841003</ele>
      </trkpt>
      <trkpt lat="43.08169" lon="-0.6329">
        <ele>672.59314</ele>
      </trkpt>
      <trkpt lat="43.08185" lon="-0.63261">
        <ele>674.464844</ele>
      </trkpt>
      <trkpt lat="43.08224" lon="-0.63222">
        <ele>680.275452</ele>
      </trkpt>
      <trkpt lat="43.08268" lon="-0.63191">
        <ele>684.162109</ele>
      </trkpt>
      <trkpt lat="43.08296" lon="-0.63158">
        <ele>683.620361</ele>
      </trkpt>
      <trkpt lat="43.08311" lon="-0.63036">
        <ele>676.629639</ele>
      </trkpt>
      <trkpt lat="43.0831" lon="-0.62966">
        <ele>662.330505</ele>
      </trkpt>
      <trkpt lat="43.08317" lon="-0.62935">
        <ele>655.795776</ele>
      </trkpt>
      <trkpt lat="43.08327" lon="-0.62921">
        <ele>653.096008</ele>
      </trkpt>
      <trkpt lat="43.084" lon="-0.62902">
        <ele>639.237854</ele>
      </trkpt>
      <trkpt lat="43.08408" lon="-0.62889">
        <ele>638.251404</ele>
      </trkpt>
      <trkpt lat="43.08405" lon="-0.62856">
        <ele>639.320313</ele>
      </trkpt>
      <trkpt lat="43.08409" lon="-0.62832">
        <ele>639.056702</ele>
      </trkpt>
      <trkpt lat="43.08426" lon="-0.62794">
        <ele>637.520142</ele>
      </trkpt>
      <trkpt lat="43.08384" lon="-0.62755">
        <ele>629.691284</ele>
      </trkpt>
      <trkpt lat="43.08378" lon="-0.62735">
        <ele>625.440979</ele>
      </trkpt>
      <trkpt lat="43.08403" lon="-0.62674">
        <ele>611.996521</ele>
      </trkpt>
      <trkpt lat="43.08417" lon="-0.62652">
        <ele>606.191711</ele>
      </trkpt>
      <trkpt lat="43.08434" lon="-0.62641">
        <ele>603.242004</ele>
      </trkpt>
      <trkpt lat="43.08447" lon="-0.62607">
        <ele>601.980164</ele>
      </trkpt>
      <trkpt lat="43.08475" lon="-0.62568">
        <ele>598.828735</ele>
      </trkpt>
      <trkpt lat="43.08506" lon="-0.62508">
        <ele>591.209106</ele>
      </trkpt>
      <trkpt lat="43.08516" lon="-0.62478">
        <ele>587.544128</ele>
      </trkpt>
      <trkpt lat="43.08534" lon="-0.6238">
        <ele>577.616638</ele>
      </trkpt>
      <trkpt lat="43.08534" lon="-0.62334">
        <ele>574.735962</ele>
      </trkpt>
      <trkpt lat="43.08523" lon="-0.62282">
        <ele>573.733582</ele>
      </trkpt>
      <trkpt lat="43.08495" lon="-0.62222">
        <ele>575.536438</ele>
      </trkpt>
      <trkpt lat="43.08445" lon="-0.6215">
        <ele>574.37439</ele>
      </trkpt>
      <trkpt lat="43.08402" lon="-0.62124">
        <ele>567.460388</ele>
      </trkpt>
      <trkpt lat="43.08361" lon="-0.62154">
        <ele>562.162964</ele>
      </trkpt>
      <trkpt lat="43.08327" lon="-0.62203">
        <ele>559.279785</ele>
      </trkpt>
      <trkpt lat="43.08292" lon="-0.62276">
        <ele>556.731262</ele>
      </trkpt>
      <trkpt lat="43.08291" lon="-0.62284">
        <ele>557.076965</ele>
      </trkpt>
      <trkpt lat="43.08298" lon="-0.62286">
        <ele>559.941101</ele>
      </trkpt>
      <trkpt lat="43.08291" lon="-0.62273">
        <ele>555.859558</ele>
      </trkpt>
      <trkpt lat="43.08258" lon="-0.62379">
        <ele>550.872925</ele>
      </trkpt>
      <trkpt lat="43.08225" lon="-0.62473">
        <ele>547.404968</ele>
      </trkpt>
      <trkpt lat="43.08219" lon="-0.62472">
        <ele>544.716797</ele>
      </trkpt>
      <trkpt lat="43.08197" lon="-0.62406">
        <ele>525.389038</ele>
      </trkpt>
      <trkpt lat="43.08171" lon="-0.62442">
        <ele>520.768738</ele>
      </trkpt>
      <trkpt lat="43.0816" lon="-0.62468">
        <ele>520.412537</ele>
      </trkpt>
      <trkpt lat="43.0811" lon="-0.62512">
        <ele>504.419983</ele>
      </trkpt>
      <trkpt lat="43.08088" lon="-0.6257">
        <ele>502.289124</ele>
      </trkpt>
      <trkpt lat="43.08092" lon="-0.62515">
        <ele>494.9664</ele>
      </trkpt>
      <trkpt lat="43.08101" lon="-0.62486">
        <ele>494.680969</ele>
      </trkpt>
      <trkpt lat="43.08078" lon="-0.62517">
        <ele>487.718842</ele>
      </trkpt>
      <trkpt lat="43.08065" lon="-0.62556">
        <ele>486.667786</ele>
      </trkpt>
      <trkpt lat="43.0804" lon="-0.62591">
        <ele>478.131165</ele>
      </trkpt>
      <trkpt lat="43.08012" lon="-0.62662">
        <ele>474.806061</ele>
      </trkpt>
      <trkpt lat="43.07993" lon="-0.6269">
        <ele>469.430756</ele>
      </trkpt>
      <trkpt lat="43.07987" lon="-0.62719">
        <ele>472.171204</ele>
      </trkpt>
      <trkpt lat="43.07957" lon="-0.62747">
        <ele>465.202454</ele>
      </trkpt>
      <trkpt lat="43.07935" lon="-0.62788">
        <ele>462.41507</ele>
      </trkpt>
      <trkpt lat="43.07885" lon="-0.62841">
        <ele>452.561554</ele>
      </trkpt>
      <trkpt lat="43.07847" lon="-0.6291">
        <ele>469.445343</ele>
      </trkpt>
      <trkpt lat="43.07851" lon="-0.629">
        <ele>468.02951</ele>
      </trkpt>
      <trkpt lat="43.07844" lon="-0.62865">
        <ele>468.756317</ele>
      </trkpt>
      <trkpt lat="43.07868" lon="-0.62735">
        <ele>453.579987</ele>
      </trkpt>
      <trkpt lat="43.07869" lon="-0.62725">
        <ele>452.260498</ele>
      </trkpt>
      <trkpt lat="43.07871" lon="-0.62673">
        <ele>447.781342</ele>
      </trkpt>
      <trkpt lat="43.07879" lon="-0.62636">
        <ele>444.694366</ele>
      </trkpt>
      <trkpt lat="43.0788" lon="-0.62579">
        <ele>442.865601</ele>
      </trkpt>
      <trkpt lat="43.07877" lon="-0.62532">
        <ele>442.961487</ele>
      </trkpt>
      <trkpt lat="43.07899" lon="-0.62452">
        <ele>429.143402</ele>
      </trkpt>
      <trkpt lat="43.07904" lon="-0.62416">
        <ele>425.419159</ele>
      </trkpt>
      <trkpt lat="43.07901" lon="-0.62389">
        <ele>425.876831</ele>
      </trkpt>
      <trkpt lat="43.07908" lon="-0.62334">
        <ele>419.151337</ele>
      </trkpt>
      <trkpt lat="43.0791" lon="-0.62186">
        <ele>415.818817</ele>
      </trkpt>
      <trkpt lat="43.0795" lon="-0.62051">
        <ele>389.465729</ele>
      </trkpt>
      <trkpt lat="43.0795" lon="-0.61998">
        <ele>387.941345</ele>
      </trkpt>
      <trkpt lat="43.07962" lon="-0.61921">
        <ele>384.089874</ele>
      </trkpt>
      <trkpt lat="43.0801" lon="-0.61771">
        <ele>361.020111</ele>
      </trkpt>
      <trkpt lat="43.08015" lon="-0.61744">
        <ele>360.334564</ele>
      </trkpt>
      <trkpt lat="43.08007" lon="-0.61719">
        <ele>359.981018</ele>
      </trkpt>
      <trkpt lat="43.08012" lon="-0.61701">
        <ele>361.198273</ele>
      </trkpt>
      <trkpt lat="43.08075" lon="-0.61578">
        <ele>351.383453</ele>
      </trkpt>
      <trkpt lat="43.08086" lon="-0.61537">
        <ele>339.287262</ele>
      </trkpt>
      <trkpt lat="43.08131" lon="-0.61481">
        <ele>333.071075</ele>
      </trkpt>
      <trkpt lat="43.08136" lon="-0.61454">
        <ele>331.885071</ele>
      </trkpt>
      <trkpt lat="43.08127" lon="-0.61372">
        <ele>329.448578</ele>
      </trkpt>
      <trkpt lat="43.08081" lon="-0.61307">
        <ele>332.675568</ele>
      </trkpt>
      <trkpt lat="43.07937" lon="-0.61219">
        <ele>325.987915</ele>
      </trkpt>
      <trkpt lat="43.07844" lon="-0.61213">
        <ele>324.334442</ele>
      </trkpt>
      <trkpt lat="43.07766" lon="-0.61174">
        <ele>323.794952</ele>
      </trkpt>
      <trkpt lat="43.07716" lon="-0.61128">
        <ele>324.466095</ele>
      </trkpt>
      <trkpt lat="43.07435" lon="-0.6084">
        <ele>320.439484</ele>
      </trkpt>
      <trkpt lat="43.07225" lon="-0.607">
        <ele>329.55954</ele>
      </trkpt>
      <trkpt lat="43.07193" lon="-0.60648">
        <ele>325.188202</ele>
      </trkpt>
      <trkpt lat="43.07196" lon="-0.60642">
        <ele>322.879486</ele>
      </trkpt>
      <trkpt lat="43.07189" lon="-0.60621">
        <ele>328.207458</ele>
      </trkpt>
      <trkpt lat="43.07196" lon="-0.60615">
        <ele>332.044922</ele>
      </trkpt>
      <trkpt lat="43.07308" lon="-0.6061">
        <ele>335.632599</ele>
      </trkpt>
      <trkpt lat="43.07359" lon="-0.60622">
        <ele>336.92334</ele>
      </trkpt>
      <trkpt lat="43.07475" lon="-0.60686">
        <ele>332.951172</ele>
      </trkpt>
      <trkpt lat="43.07513" lon="-0.60667">
        <ele>336.919037</ele>
      </trkpt>
      <trkpt lat="43.07529" lon="-0.60621">
        <ele>342.643433</ele>
      </trkpt>
      <trkpt lat="43.07549" lon="-0.60554">
        <ele>345.031464</ele>
      </trkpt>
      <trkpt lat="43.07579" lon="-0.60521">
        <ele>339.20343</ele>
      </trkpt>
      <trkpt lat="43.07602" lon="-0.60519">
        <ele>333.982269</ele>
      </trkpt>
      <trkpt lat="43.07631" lon="-0.60542">
        <ele>330.316681</ele>
      </trkpt>
      <trkpt lat="43.07653" lon="-0.60589">
        <ele>334.426788</ele>
      </trkpt>
      <trkpt lat="43.07633" lon="-0.60614">
        <ele>331.070435</ele>
      </trkpt>
      <trkpt lat="43.07656" lon="-0.60597">
        <ele>335.135529</ele>
      </trkpt>
      <trkpt lat="43.07662" lon="-0.60602">
        <ele>336.069122</ele>
      </trkpt>
      <trkpt lat="43.07669" lon="-0.60597">
        <ele>337.508179</ele>
      </trkpt>
      <trkpt lat="43.07688" lon="-0.60495">
        <ele>341.137177</ele>
      </trkpt>
      <trkpt lat="43.07684" lon="-0.60424">
        <ele>335.435669</ele>
      </trkpt>
      <trkpt lat="43.07691" lon="-0.60308">
        <ele>334.06842</ele>
      </trkpt>
      <trkpt lat="43.07688" lon="-0.60255">
        <ele>332.552429</ele>
      </trkpt>
      <trkpt lat="43.07703" lon="-0.60088">
        <ele>339.733795</ele>
      </trkpt>
      <trkpt lat="43.07688" lon="-0.59982">
        <ele>341.551392</ele>
      </trkpt>
      <trkpt lat="43.07702" lon="-0.59924">
        <ele>339.271088</ele>
      </trkpt>
      <trkpt lat="43.07719" lon="-0.59878">
        <ele>345.068115</ele>
      </trkpt>
      <trkpt lat="43.07721" lon="-0.59827">
        <ele>347.790314</ele>
      </trkpt>
      <trkpt lat="43.0771" lon="-0.59728">
        <ele>356.996948</ele>
      </trkpt>
      <trkpt lat="43.07732" lon="-0.59684">
        <ele>355.183502</ele>
      </trkpt>
      <trkpt lat="43.07761" lon="-0.59652">
        <ele>352.443695</ele>
      </trkpt>
      <trkpt lat="43.07783" lon="-0.59609">
        <ele>356.482971</ele>
      </trkpt>
      <trkpt lat="43.07796" lon="-0.59555">
        <ele>357.272186</ele>
      </trkpt>
      <trkpt lat="43.07796" lon="-0.5951">
        <ele>358.830597</ele>
      </trkpt>
      <trkpt lat="43.07788" lon="-0.59465">
        <ele>361.692139</ele>
      </trkpt>
      <trkpt lat="43.07799" lon="-0.59419">
        <ele>358.756561</ele>
      </trkpt>
      <trkpt lat="43.07838" lon="-0.59348">
        <ele>366.514954</ele>
      </trkpt>
      <trkpt lat="43.07839" lon="-0.59261">
        <ele>366.172882</ele>
      </trkpt>
      <trkpt lat="43.07832" lon="-0.59008">
        <ele>384.8461</ele>
      </trkpt>
      <trkpt lat="43.07836" lon="-0.58965">
        <ele>385.355957</ele>
      </trkpt>
      <trkpt lat="43.07851" lon="-0.58924">
        <ele>382.236938</ele>
      </trkpt>
      <trkpt lat="43.07853" lon="-0.58887">
        <ele>380.404053</ele>
      </trkpt>
      <trkpt lat="43.07846" lon="-0.58838">
        <ele>381.690796</ele>
      </trkpt>
      <trkpt lat="43.07859" lon="-0.58788">
        <ele>378.617188</ele>
      </trkpt>
      <trkpt lat="43.07887" lon="-0.58721">
        <ele>387.653076</ele>
      </trkpt>
      <trkpt lat="43.07891" lon="-0.58625">
        <ele>391.286194</ele>
      </trkpt>
      <trkpt lat="43.0791" lon="-0.58581">
        <ele>390.377197</ele>
      </trkpt>
      <trkpt lat="43.07912" lon="-0.58529">
        <ele>388.730743</ele>
      </trkpt>
      <trkpt lat="43.07888" lon="-0.58362">
        <ele>394.610168</ele>
      </trkpt>
      <trkpt lat="43.079" lon="-0.58244">
        <ele>407.108154</ele>
      </trkpt>
      <trkpt lat="43.07917" lon="-0.58173">
        <ele>416.996185</ele>
      </trkpt>
      <trkpt lat="43.07947" lon="-0.58079">
        <ele>441.441101</ele>
      </trkpt>
      <trkpt lat="43.07953" lon="-0.57979">
        <ele>447.132477</ele>
      </trkpt>
      <trkpt lat="43.07942" lon="-0.57933">
        <ele>436.375854</ele>
      </trkpt>
      <trkpt lat="43.07952" lon="-0.57895">
        <ele>436.813782</ele>
      </trkpt>
      <trkpt lat="43.0797" lon="-0.57864">
        <ele>431.953766</ele>
      </trkpt>
      <trkpt lat="43.07975" lon="-0.57846">
        <ele>429.55545</ele>
      </trkpt>
      <trkpt lat="43.07996" lon="-0.57817">
        <ele>435.114014</ele>
      </trkpt>
      <trkpt lat="43.08016" lon="-0.57811">
        <ele>438.885406</ele>
      </trkpt>
      <trkpt lat="43.08037" lon="-0.57837">
        <ele>432.915771</ele>
      </trkpt>
      <trkpt lat="43.08044" lon="-0.57893">
        <ele>436.333679</ele>
      </trkpt>
      <trkpt lat="43.08076" lon="-0.57898">
        <ele>437.494293</ele>
      </trkpt>
      <trkpt lat="43.08109" lon="-0.57885">
        <ele>440.653259</ele>
      </trkpt>
      <trkpt lat="43.08114" lon="-0.57842">
        <ele>437.492889</ele>
      </trkpt>
      <trkpt lat="43.0811" lon="-0.57796">
        <ele>437.382385</ele>
      </trkpt>
      <trkpt lat="43.08116" lon="-0.57709">
        <ele>437.493958</ele>
      </trkpt>
      <trkpt lat="43.08113" lon="-0.57675">
        <ele>438.589172</ele>
      </trkpt>
      <trkpt lat="43.08103" lon="-0.57628">
        <ele>443.339996</ele>
      </trkpt>
      <trkpt lat="43.0807" lon="-0.57563">
        <ele>443.059357</ele>
      </trkpt>
      <trkpt lat="43.08061" lon="-0.57522">
        <ele>449.842285</ele>
      </trkpt>
      <trkpt lat="43.08085" lon="-0.57419">
        <ele>451.598389</ele>
      </trkpt>
      <trkpt lat="43.08099" lon="-0.57385">
        <ele>458.596283</ele>
      </trkpt>
      <trkpt lat="43.08121" lon="-0.57352">
        <ele>465.755981</ele>
      </trkpt>
      <trkpt lat="43.0813" lon="-0.57323">
        <ele>463.579651</ele>
      </trkpt>
      <trkpt lat="43.08136" lon="-0.57218">
        <ele>464.391449</ele>
      </trkpt>
      <trkpt lat="43.08124" lon="-0.57168">
        <ele>468.327057</ele>
      </trkpt>
      <trkpt lat="43.0811" lon="-0.57123">
        <ele>470.663788</ele>
      </trkpt>
      <trkpt lat="43.0807" lon="-0.57046">
        <ele>473.699402</ele>
      </trkpt>
      <trkpt lat="43.08069" lon="-0.5688">
        <ele>479.299408</ele>
      </trkpt>
      <trkpt lat="43.08034" lon="-0.56765">
        <ele>480.607635</ele>
      </trkpt>
      <trkpt lat="43.08043" lon="-0.56674">
        <ele>484.399719</ele>
      </trkpt>
      <trkpt lat="43.08055" lon="-0.5661">
        <ele>485.067413</ele>
      </trkpt>
      <trkpt lat="43.08053" lon="-0.56529">
        <ele>491.146667</ele>
      </trkpt>
      <trkpt lat="43.08032" lon="-0.56475">
        <ele>496.846313</ele>
      </trkpt>
      <trkpt lat="43.08015" lon="-0.56391">
        <ele>504.556152</ele>
      </trkpt>
      <trkpt lat="43.0799" lon="-0.5635">
        <ele>510.689972</ele>
      </trkpt>
      <trkpt lat="43.07964" lon="-0.56341">
        <ele>513.273926</ele>
      </trkpt>
      <trkpt lat="43.0789" lon="-0.56345">
        <ele>518.304138</ele>
      </trkpt>
      <trkpt lat="43.07854" lon="-0.56309">
        <ele>515.766418</ele>
      </trkpt>
      <trkpt lat="43.07841" lon="-0.56261">
        <ele>515.288025</ele>
      </trkpt>
      <trkpt lat="43.07848" lon="-0.56198">
        <ele>516.11792</ele>
      </trkpt>
      <trkpt lat="43.0784" lon="-0.56119">
        <ele>517.078003</ele>
      </trkpt>
      <trkpt lat="43.07821" lon="-0.56059">
        <ele>518.758301</ele>
      </trkpt>
      <trkpt lat="43.07756" lon="-0.55949">
        <ele>518.72406</ele>
      </trkpt>
      <trkpt lat="43.07711" lon="-0.5578">
        <ele>524.061584</ele>
      </trkpt>
      <trkpt lat="43.07722" lon="-0.5573">
        <ele>531.165955</ele>
      </trkpt>
      <trkpt lat="43.07722" lon="-0.55686">
        <ele>535.811035</ele>
      </trkpt>
      <trkpt lat="43.07699" lon="-0.55633">
        <ele>535.191406</ele>
      </trkpt>
      <trkpt lat="43.07673" lon="-0.55521">
        <ele>543.164429</ele>
      </trkpt>
      <trkpt lat="43.07627" lon="-0.55369">
        <ele>555.925537</ele>
      </trkpt>
      <trkpt lat="43.07573" lon="-0.55299">
        <ele>559.965881</ele>
      </trkpt>
      <trkpt lat="43.07557" lon="-0.55254">
        <ele>557.166504</ele>
      </trkpt>
      <trkpt lat="43.07549" lon="-0.55211">
        <ele>556.904236</ele>
      </trkpt>
      <trkpt lat="43.07574" lon="-0.55118">
        <ele>567.389771</ele>
      </trkpt>
      <trkpt lat="43.0755" lon="-0.55063">
        <ele>567.179199</ele>
      </trkpt>
      <trkpt lat="43.07539" lon="-0.55026">
        <ele>572.047668</ele>
      </trkpt>
      <trkpt lat="43.07515" lon="-0.54865">
        <ele>585.51239</ele>
      </trkpt>
      <trkpt lat="43.07495" lon="-0.54683">
        <ele>601.98999</ele>
      </trkpt>
      <trkpt lat="43.07483" lon="-0.54557">
        <ele>611.38678</ele>
      </trkpt>
      <trkpt lat="43.07486" lon="-0.54516">
        <ele>613.800781</ele>
      </trkpt>
      <trkpt lat="43.07504" lon="-0.54461">
        <ele>613.185486</ele>
      </trkpt>
      <trkpt lat="43.07521" lon="-0.54383">
        <ele>614.050842</ele>
      </trkpt>
      <trkpt lat="43.07517" lon="-0.54368">
        <ele>615.165955</ele>
      </trkpt>
      <trkpt lat="43.075" lon="-0.54342">
        <ele>617.755249</ele>
      </trkpt>
      <trkpt lat="43.07496" lon="-0.54304">
        <ele>620.016052</ele>
      </trkpt>
    </trkseg>
  </trk>
  <trk>
    <name><![CDATA[Raid dans le Béarn - J1]]></name>
    <trkseg>
      <trkpt lat="43.17152" lon="-0.60534">
        <ele>242</ele>
      </trkpt>
      <trkpt lat="43.17255" lon="-0.60603">
        <ele>240</ele>
      </trkpt>
      <trkpt lat="43.17269" lon="-0.60615">
        <ele>240</ele>
      </trkpt>
      <trkpt lat="43.17281" lon="-0.60646">
        <ele>246</ele>
      </trkpt>
      <trkpt lat="43.1729" lon="-0.60657">
        <ele>246</ele>
      </trkpt>
      <trkpt lat="43.17417" lon="-0.60738">
        <ele>245</ele>
      </trkpt>
      <trkpt lat="43.17417" lon="-0.60742">
        <ele>245</ele>
      </trkpt>
      <trkpt lat="43.174" lon="-0.60748">
        <ele>245</ele>
      </trkpt>
      <trkpt lat="43.17396" lon="-0.60752">
        <ele>245</ele>
      </trkpt>
      <trkpt lat="43.17381" lon="-0.60784">
        <ele>245</ele>
      </trkpt>
      <trkpt lat="43.17363" lon="-0.60804">
        <ele>249</ele>
      </trkpt>
      <trkpt lat="43.17361" lon="-0.60801">
        <ele>249</ele>
      </trkpt>
      <trkpt lat="43.17376" lon="-0.60783">
        <ele>245</ele>
      </trkpt>
      <trkpt lat="43.17406" lon="-0.60784">
        <ele>245</ele>
      </trkpt>
      <trkpt lat="43.17601" lon="-0.60879">
        <ele>248</ele>
      </trkpt>
      <trkpt lat="43.17774" lon="-0.60968">
        <ele>243</ele>
      </trkpt>
      <trkpt lat="43.17906" lon="-0.61032">
        <ele>239</ele>
      </trkpt>
      <trkpt lat="43.17958" lon="-0.61061">
        <ele>244</ele>
      </trkpt>
      <trkpt lat="43.18012" lon="-0.6108">
        <ele>240</ele>
      </trkpt>
      <trkpt lat="43.18016" lon="-0.61084">
        <ele>240</ele>
      </trkpt>
      <trkpt lat="43.18019" lon="-0.61096">
        <ele>240</ele>
      </trkpt>
      <trkpt lat="43.18018" lon="-0.61103">
        <ele>240</ele>
      </trkpt>
      <trkpt lat="43.18007" lon="-0.61128">
        <ele>242</ele>
      </trkpt>
      <trkpt lat="43.17984" lon="-0.61242">
        <ele>242</ele>
      </trkpt>
      <trkpt lat="43.1797" lon="-0.61288">
        <ele>242</ele>
      </trkpt>
      <trkpt lat="43.17958" lon="-0.6135">
        <ele>241</ele>
      </trkpt>
      <trkpt lat="43.17958" lon="-0.61363">
        <ele>241</ele>
      </trkpt>
      <trkpt lat="43.17961" lon="-0.61376">
        <ele>243</ele>
      </trkpt>
      <trkpt lat="43.17961" lon="-0.61389">
        <ele>243</ele>
      </trkpt>
      <trkpt lat="43.17959" lon="-0.61395">
        <ele>243</ele>
      </trkpt>
      <trkpt lat="43.1794" lon="-0.61417">
        <ele>241</ele>
      </trkpt>
      <trkpt lat="43.17935" lon="-0.61429">
        <ele>241</ele>
      </trkpt>
      <trkpt lat="43.17932" lon="-0.61457">
        <ele>241</ele>
      </trkpt>
      <trkpt lat="43.17945" lon="-0.61569">
        <ele>240</ele>
      </trkpt>
      <trkpt lat="43.17976" lon="-0.6164">
        <ele>240</ele>
      </trkpt>
      <trkpt lat="43.17984" lon="-0.61647">
        <ele>240</ele>
      </trkpt>
      <trkpt lat="43.17997" lon="-0.61653">
        <ele>240</ele>
      </trkpt>
      <trkpt lat="43.18001" lon="-0.61658">
        <ele>240</ele>
      </trkpt>
      <trkpt lat="43.18005" lon="-0.6167">
        <ele>240</ele>
      </trkpt>
      <trkpt lat="43.18004" lon="-0.61683">
        <ele>240</ele>
      </trkpt>
      <trkpt lat="43.17993" lon="-0.61697">
        <ele>240</ele>
      </trkpt>
      <trkpt lat="43.17962" lon="-0.61693">
        <ele>240</ele>
      </trkpt>
      <trkpt lat="43.17938" lon="-0.61703">
        <ele>240</ele>
      </trkpt>
      <trkpt lat="43.17938" lon="-0.6172">
        <ele>241</ele>
      </trkpt>
      <trkpt lat="43.17935" lon="-0.61717">
        <ele>241</ele>
      </trkpt>
      <trkpt lat="43.17933" lon="-0.61699">
        <ele>240</ele>
      </trkpt>
      <trkpt lat="43.17937" lon="-0.61693">
        <ele>240</ele>
      </trkpt>
      <trkpt lat="43.17971" lon="-0.61676">
        <ele>240</ele>
      </trkpt>
      <trkpt lat="43.17974" lon="-0.6167">
        <ele>240</ele>
      </trkpt>
      <trkpt lat="43.17987" lon="-0.61658">
        <ele>240</ele>
      </trkpt>
      <trkpt lat="43.17997" lon="-0.61663">
        <ele>240</ele>
      </trkpt>
      <trkpt lat="43.1801" lon="-0.61708">
        <ele>240</ele>
      </trkpt>
      <trkpt lat="43.18061" lon="-0.61827">
        <ele>241</ele>
      </trkpt>
      <trkpt lat="43.18129" lon="-0.61933">
        <ele>237</ele>
      </trkpt>
      <trkpt lat="43.18145" lon="-0.61948">
        <ele>237</ele>
      </trkpt>
      <trkpt lat="43.18162" lon="-0.61958">
        <ele>237</ele>
      </trkpt>
      <trkpt lat="43.18167" lon="-0.61964">
        <ele>239</ele>
      </trkpt>
      <trkpt lat="43.18172" lon="-0.61979">
        <ele>239</ele>
      </trkpt>
      <trkpt lat="43.18165" lon="-0.62001">
        <ele>239</ele>
      </trkpt>
      <trkpt lat="43.18158" lon="-0.62006">
        <ele>239</ele>
      </trkpt>
      <trkpt lat="43.18145" lon="-0.62007">
        <ele>239</ele>
      </trkpt>
      <trkpt lat="43.18095" lon="-0.62027">
        <ele>241</ele>
      </trkpt>
      <trkpt lat="43.18003" lon="-0.62115">
        <ele>239</ele>
      </trkpt>
      <trkpt lat="43.17972" lon="-0.62137">
        <ele>238</ele>
      </trkpt>
      <trkpt lat="43.17921" lon="-0.62206">
        <ele>241</ele>
      </trkpt>
      <trkpt lat="43.17866" lon="-0.62319">
        <ele>242</ele>
      </trkpt>
      <trkpt lat="43.17784" lon="-0.6247">
        <ele>242</ele>
      </trkpt>
      <trkpt lat="43.1776" lon="-0.6253">
        <ele>242</ele>
      </trkpt>
      <trkpt lat="43.17758" lon="-0.62545">
        <ele>243</ele>
      </trkpt>
      <trkpt lat="43.17752" lon="-0.62556">
        <ele>243</ele>
      </trkpt>
      <trkpt lat="43.17654" lon="-0.62676">
        <ele>245</ele>
      </trkpt>
      <trkpt lat="43.17613" lon="-0.62698">
        <ele>248</ele>
      </trkpt>
      <trkpt lat="43.1759" lon="-0.62718">
        <ele>257</ele>
      </trkpt>
      <trkpt lat="43.17573" lon="-0.62727">
        <ele>257</ele>
      </trkpt>
      <trkpt lat="43.17555" lon="-0.62728">
        <ele>257</ele>
      </trkpt>
      <trkpt lat="43.17544" lon="-0.62733">
        <ele>257</ele>
      </trkpt>
      <trkpt lat="43.17522" lon="-0.62733">
        <ele>269</ele>
      </trkpt>
      <trkpt lat="43.17461" lon="-0.62751">
        <ele>269</ele>
      </trkpt>
      <trkpt lat="43.17387" lon="-0.62782">
        <ele>274</ele>
      </trkpt>
      <trkpt lat="43.17126" lon="-0.6284">
        <ele>283</ele>
      </trkpt>
      <trkpt lat="43.17083" lon="-0.62841">
        <ele>285</ele>
      </trkpt>
      <trkpt lat="43.1698" lon="-0.6283">
        <ele>284</ele>
      </trkpt>
      <trkpt lat="43.16925" lon="-0.62833">
        <ele>293</ele>
      </trkpt>
      <trkpt lat="43.16884" lon="-0.62858">
        <ele>293</ele>
      </trkpt>
      <trkpt lat="43.16825" lon="-0.62908">
        <ele>296</ele>
      </trkpt>
      <trkpt lat="43.16818" lon="-0.62926">
        <ele>296</ele>
      </trkpt>
      <trkpt lat="43.16819" lon="-0.62938">
        <ele>296</ele>
      </trkpt>
      <trkpt lat="43.16885" lon="-0.6311">
        <ele>281</ele>
      </trkpt>
      <trkpt lat="43.16895" lon="-0.63124">
        <ele>281</ele>
      </trkpt>
      <trkpt lat="43.16909" lon="-0.63137">
        <ele>283</ele>
      </trkpt>
      <trkpt lat="43.16914" lon="-0.63138">
        <ele>283</ele>
      </trkpt>
      <trkpt lat="43.1693" lon="-0.63132">
        <ele>283</ele>
      </trkpt>
      <trkpt lat="43.16942" lon="-0.63131">
        <ele>283</ele>
      </trkpt>
      <trkpt lat="43.16952" lon="-0.63139">
        <ele>283</ele>
      </trkpt>
      <trkpt lat="43.17047" lon="-0.63289">
        <ele>274</ele>
      </trkpt>
      <trkpt lat="43.17094" lon="-0.63368">
        <ele>272</ele>
      </trkpt>
      <trkpt lat="43.17105" lon="-0.63394">
        <ele>265</ele>
      </trkpt>
      <trkpt lat="43.17194" lon="-0.63534">
        <ele>253</ele>
      </trkpt>
      <trkpt lat="43.17205" lon="-0.63721">
        <ele>265</ele>
      </trkpt>
      <trkpt lat="43.17208" lon="-0.63737">
        <ele>265</ele>
      </trkpt>
      <trkpt lat="43.17243" lon="-0.63794">
        <ele>248</ele>
      </trkpt>
      <trkpt lat="43.17259" lon="-0.63831">
        <ele>248</ele>
      </trkpt>
      <trkpt lat="43.17291" lon="-0.63892">
        <ele>256</ele>
      </trkpt>
      <trkpt lat="43.17319" lon="-0.63925">
        <ele>238</ele>
      </trkpt>
      <trkpt lat="43.1734" lon="-0.63957">
        <ele>238</ele>
      </trkpt>
      <trkpt lat="43.17414" lon="-0.64037">
        <ele>236</ele>
      </trkpt>
      <trkpt lat="43.1749" lon="-0.64141">
        <ele>234</ele>
      </trkpt>
      <trkpt lat="43.17489" lon="-0.64147">
        <ele>234</ele>
      </trkpt>
      <trkpt lat="43.17456" lon="-0.64166">
        <ele>238</ele>
      </trkpt>
      <trkpt lat="43.17447" lon="-0.64168">
        <ele>238</ele>
      </trkpt>
      <trkpt lat="43.17466" lon="-0.64152">
        <ele>234</ele>
      </trkpt>
      <trkpt lat="43.1749" lon="-0.64145">
        <ele>234</ele>
      </trkpt>
      <trkpt lat="43.17495" lon="-0.6415">
        <ele>234</ele>
      </trkpt>
      <trkpt lat="43.17489" lon="-0.64228">
        <ele>236</ele>
      </trkpt>
      <trkpt lat="43.17472" lon="-0.64284">
        <ele>236</ele>
      </trkpt>
      <trkpt lat="43.17472" lon="-0.64301">
        <ele>232</ele>
      </trkpt>
      <trkpt lat="43.17467" lon="-0.64317">
        <ele>232</ele>
      </trkpt>
      <trkpt lat="43.17447" lon="-0.64343">
        <ele>240</ele>
      </trkpt>
      <trkpt lat="43.17406" lon="-0.64337">
        <ele>240</ele>
      </trkpt>
      <trkpt lat="43.17392" lon="-0.64366">
        <ele>240</ele>
      </trkpt>
      <trkpt lat="43.17368" lon="-0.64401">
        <ele>238</ele>
      </trkpt>
      <trkpt lat="43.17359" lon="-0.64403">
        <ele>238</ele>
      </trkpt>
      <trkpt lat="43.17358" lon="-0.64408">
        <ele>238</ele>
      </trkpt>
      <trkpt lat="43.17338" lon="-0.64435">
        <ele>238</ele>
      </trkpt>
      <trkpt lat="43.17323" lon="-0.64445">
        <ele>238</ele>
      </trkpt>
      <trkpt lat="43.17305" lon="-0.64466">
        <ele>238</ele>
      </trkpt>
      <trkpt lat="43.17306" lon="-0.64468">
        <ele>238</ele>
      </trkpt>
      <trkpt lat="43.17281" lon="-0.64512">
        <ele>238</ele>
      </trkpt>
      <trkpt lat="43.17256" lon="-0.64567">
        <ele>236</ele>
      </trkpt>
      <trkpt lat="43.17237" lon="-0.64572">
        <ele>236</ele>
      </trkpt>
      <trkpt lat="43.17203" lon="-0.64552">
        <ele>236</ele>
      </trkpt>
      <trkpt lat="43.17178" lon="-0.64557">
        <ele>236</ele>
      </trkpt>
      <trkpt lat="43.17166" lon="-0.64563">
        <ele>236</ele>
      </trkpt>
      <trkpt lat="43.17134" lon="-0.64557">
        <ele>236</ele>
      </trkpt>
      <trkpt lat="43.17121" lon="-0.64558">
        <ele>235</ele>
      </trkpt>
      <trkpt lat="43.17115" lon="-0.64564">
        <ele>235</ele>
      </trkpt>
      <trkpt lat="43.17081" lon="-0.64582">
        <ele>235</ele>
      </trkpt>
      <trkpt lat="43.17075" lon="-0.64581">
        <ele>235</ele>
      </trkpt>
      <trkpt lat="43.17065" lon="-0.64588">
        <ele>235</ele>
      </trkpt>
      <trkpt lat="43.1705" lon="-0.64607">
        <ele>235</ele>
      </trkpt>
      <trkpt lat="43.17043" lon="-0.64609">
        <ele>235</ele>
      </trkpt>
      <trkpt lat="43.17034" lon="-0.64625">
        <ele>239</ele>
      </trkpt>
      <trkpt lat="43.17009" lon="-0.64634">
        <ele>241</ele>
      </trkpt>
      <trkpt lat="43.17001" lon="-0.64633">
        <ele>241</ele>
      </trkpt>
      <trkpt lat="43.16993" lon="-0.64626">
        <ele>241</ele>
      </trkpt>
      <trkpt lat="43.16978" lon="-0.64626">
        <ele>241</ele>
      </trkpt>
      <trkpt lat="43.16977" lon="-0.64629">
        <ele>241</ele>
      </trkpt>
      <trkpt lat="43.16963" lon="-0.64636">
        <ele>241</ele>
      </trkpt>
      <trkpt lat="43.16909" lon="-0.64695">
        <ele>242</ele>
      </trkpt>
      <trkpt lat="43.16838" lon="-0.6464">
        <ele>241</ele>
      </trkpt>
      <trkpt lat="43.16832" lon="-0.64638">
        <ele>241</ele>
      </trkpt>
      <trkpt lat="43.16815" lon="-0.64646">
        <ele>241</ele>
      </trkpt>
      <trkpt lat="43.16801" lon="-0.64659">
        <ele>241</ele>
      </trkpt>
      <trkpt lat="43.16779" lon="-0.64658">
        <ele>248</ele>
      </trkpt>
      <trkpt lat="43.16762" lon="-0.64661">
        <ele>248</ele>
      </trkpt>
      <trkpt lat="43.16749" lon="-0.64668">
        <ele>248</ele>
      </trkpt>
      <trkpt lat="43.16764" lon="-0.64661">
        <ele>248</ele>
      </trkpt>
      <trkpt lat="43.16785" lon="-0.64665">
        <ele>248</ele>
      </trkpt>
      <trkpt lat="43.16787" lon="-0.64669">
        <ele>248</ele>
      </trkpt>
      <trkpt lat="43.16785" lon="-0.64689">
        <ele>248</ele>
      </trkpt>
      <trkpt lat="43.16779" lon="-0.64708">
        <ele>248</ele>
      </trkpt>
      <trkpt lat="43.16743" lon="-0.64773">
        <ele>246</ele>
      </trkpt>
      <trkpt lat="43.16706" lon="-0.64827">
        <ele>250</ele>
      </trkpt>
      <trkpt lat="43.16698" lon="-0.64846">
        <ele>250</ele>
      </trkpt>
      <trkpt lat="43.16696" lon="-0.64869">
        <ele>250</ele>
      </trkpt>
      <trkpt lat="43.16678" lon="-0.64882">
        <ele>240</ele>
      </trkpt>
      <trkpt lat="43.16663" lon="-0.64904">
        <ele>240</ele>
      </trkpt>
      <trkpt lat="43.1664" lon="-0.64922">
        <ele>240</ele>
      </trkpt>
      <trkpt lat="43.16624" lon="-0.64931">
        <ele>244</ele>
      </trkpt>
      <trkpt lat="43.16589" lon="-0.64911">
        <ele>244</ele>
      </trkpt>
      <trkpt lat="43.16581" lon="-0.64904">
        <ele>244</ele>
      </trkpt>
      <trkpt lat="43.16555" lon="-0.64869">
        <ele>248</ele>
      </trkpt>
      <trkpt lat="43.16537" lon="-0.64822">
        <ele>246</ele>
      </trkpt>
      <trkpt lat="43.16524" lon="-0.64809">
        <ele>246</ele>
      </trkpt>
      <trkpt lat="43.16513" lon="-0.64806">
        <ele>246</ele>
      </trkpt>
      <trkpt lat="43.16514" lon="-0.64911">
        <ele>253</ele>
      </trkpt>
      <trkpt lat="43.16534" lon="-0.64957">
        <ele>253</ele>
      </trkpt>
      <trkpt lat="43.16547" lon="-0.64979">
        <ele>240</ele>
      </trkpt>
      <trkpt lat="43.16546" lon="-0.65002">
        <ele>240</ele>
      </trkpt>
      <trkpt lat="43.16618" lon="-0.65055">
        <ele>240</ele>
      </trkpt>
      <trkpt lat="43.16635" lon="-0.65074">
        <ele>241</ele>
      </trkpt>
      <trkpt lat="43.16647" lon="-0.65079">
        <ele>241</ele>
      </trkpt>
      <trkpt lat="43.16688" lon="-0.65114">
        <ele>241</ele>
      </trkpt>
      <trkpt lat="43.16687" lon="-0.65123">
        <ele>241</ele>
      </trkpt>
      <trkpt lat="43.16659" lon="-0.65114">
        <ele>241</ele>
      </trkpt>
      <trkpt lat="43.16576" lon="-0.65101">
        <ele>240</ele>
      </trkpt>
      <trkpt lat="43.16548" lon="-0.65113">
        <ele>240</ele>
      </trkpt>
      <trkpt lat="43.16536" lon="-0.65123">
        <ele>240</ele>
      </trkpt>
      <trkpt lat="43.16535" lon="-0.65127">
        <ele>240</ele>
      </trkpt>
      <trkpt lat="43.1648" lon="-0.65184">
        <ele>240</ele>
      </trkpt>
      <trkpt lat="43.16468" lon="-0.65205">
        <ele>240</ele>
      </trkpt>
      <trkpt lat="43.16457" lon="-0.65272">
        <ele>250</ele>
      </trkpt>
      <trkpt lat="43.16438" lon="-0.65308">
        <ele>252</ele>
      </trkpt>
      <trkpt lat="43.1642" lon="-0.65326">
        <ele>252</ele>
      </trkpt>
      <trkpt lat="43.16381" lon="-0.65375">
        <ele>252</ele>
      </trkpt>
      <trkpt lat="43.1636" lon="-0.65383">
        <ele>267</ele>
      </trkpt>
      <trkpt lat="43.1635" lon="-0.65393">
        <ele>267</ele>
      </trkpt>
      <trkpt lat="43.16315" lon="-0.65409">
        <ele>267</ele>
      </trkpt>
      <trkpt lat="43.16284" lon="-0.65417">
        <ele>276</ele>
      </trkpt>
      <trkpt lat="43.16264" lon="-0.65437">
        <ele>276</ele>
      </trkpt>
      <trkpt lat="43.16224" lon="-0.65464">
        <ele>275</ele>
      </trkpt>
      <trkpt lat="43.16206" lon="-0.65468">
        <ele>277</ele>
      </trkpt>
      <trkpt lat="43.16193" lon="-0.65467">
        <ele>277</ele>
      </trkpt>
      <trkpt lat="43.1618" lon="-0.65471">
        <ele>277</ele>
      </trkpt>
      <trkpt lat="43.16175" lon="-0.655">
        <ele>277</ele>
      </trkpt>
      <trkpt lat="43.16174" lon="-0.65556">
        <ele>276</ele>
      </trkpt>
      <trkpt lat="43.16192" lon="-0.65598">
        <ele>276</ele>
      </trkpt>
      <trkpt lat="43.1618" lon="-0.65634">
        <ele>274</ele>
      </trkpt>
      <trkpt lat="43.16149" lon="-0.6564">
        <ele>274</ele>
      </trkpt>
      <trkpt lat="43.16119" lon="-0.6566">
        <ele>263</ele>
      </trkpt>
      <trkpt lat="43.16094" lon="-0.6567">
        <ele>263</ele>
      </trkpt>
      <trkpt lat="43.16046" lon="-0.65671">
        <ele>263</ele>
      </trkpt>
      <trkpt lat="43.16016" lon="-0.65667">
        <ele>255</ele>
      </trkpt>
      <trkpt lat="43.15998" lon="-0.6568">
        <ele>255</ele>
      </trkpt>
      <trkpt lat="43.1599" lon="-0.65679">
        <ele>255</ele>
      </trkpt>
      <trkpt lat="43.15973" lon="-0.65653">
        <ele>255</ele>
      </trkpt>
      <trkpt lat="43.1596" lon="-0.65628">
        <ele>255</ele>
      </trkpt>
      <trkpt lat="43.15954" lon="-0.65604">
        <ele>256</ele>
      </trkpt>
      <trkpt lat="43.15938" lon="-0.65581">
        <ele>256</ele>
      </trkpt>
      <trkpt lat="43.15927" lon="-0.65553">
        <ele>256</ele>
      </trkpt>
      <trkpt lat="43.15923" lon="-0.65537">
        <ele>256</ele>
      </trkpt>
      <trkpt lat="43.15906" lon="-0.65525">
        <ele>256</ele>
      </trkpt>
      <trkpt lat="43.15898" lon="-0.65525">
        <ele>256</ele>
      </trkpt>
      <trkpt lat="43.15878" lon="-0.65539">
        <ele>256</ele>
      </trkpt>
      <trkpt lat="43.15853" lon="-0.6557">
        <ele>260</ele>
      </trkpt>
      <trkpt lat="43.15818" lon="-0.65597">
        <ele>260</ele>
      </trkpt>
      <trkpt lat="43.15772" lon="-0.65624">
        <ele>267</ele>
      </trkpt>
      <trkpt lat="43.15728" lon="-0.65625">
        <ele>267</ele>
      </trkpt>
      <trkpt lat="43.15671" lon="-0.65638">
        <ele>256</ele>
      </trkpt>
      <trkpt lat="43.15649" lon="-0.65638">
        <ele>256</ele>
      </trkpt>
      <trkpt lat="43.15624" lon="-0.65651">
        <ele>262</ele>
      </trkpt>
      <trkpt lat="43.15588" lon="-0.65664">
        <ele>262</ele>
      </trkpt>
      <trkpt lat="43.15573" lon="-0.6568">
        <ele>262</ele>
      </trkpt>
      <trkpt lat="43.15539" lon="-0.65725">
        <ele>262</ele>
      </trkpt>
      <trkpt lat="43.15533" lon="-0.65744">
        <ele>262</ele>
      </trkpt>
      <trkpt lat="43.15534" lon="-0.65764">
        <ele>262</ele>
      </trkpt>
      <trkpt lat="43.15526" lon="-0.65798">
        <ele>261</ele>
      </trkpt>
      <trkpt lat="43.15503" lon="-0.65828">
        <ele>261</ele>
      </trkpt>
      <trkpt lat="43.1549" lon="-0.65873">
        <ele>261</ele>
      </trkpt>
      <trkpt lat="43.15479" lon="-0.65902">
        <ele>261</ele>
      </trkpt>
      <trkpt lat="43.15458" lon="-0.65943">
        <ele>286</ele>
      </trkpt>
      <trkpt lat="43.15448" lon="-0.65986">
        <ele>278</ele>
      </trkpt>
      <trkpt lat="43.15415" lon="-0.66031">
        <ele>278</ele>
      </trkpt>
      <trkpt lat="43.15403" lon="-0.66059">
        <ele>269</ele>
      </trkpt>
      <trkpt lat="43.154" lon="-0.66075">
        <ele>269</ele>
      </trkpt>
      <trkpt lat="43.15401" lon="-0.66088">
        <ele>269</ele>
      </trkpt>
      <trkpt lat="43.15403" lon="-0.66089">
        <ele>269</ele>
      </trkpt>
      <trkpt lat="43.15374" lon="-0.6611">
        <ele>297</ele>
      </trkpt>
      <trkpt lat="43.15359" lon="-0.66115">
        <ele>297</ele>
      </trkpt>
      <trkpt lat="43.15338" lon="-0.66138">
        <ele>279</ele>
      </trkpt>
      <trkpt lat="43.15276" lon="-0.6617">
        <ele>293</ele>
      </trkpt>
      <trkpt lat="43.15217" lon="-0.66183">
        <ele>293</ele>
      </trkpt>
      <trkpt lat="43.15189" lon="-0.66179">
        <ele>307</ele>
      </trkpt>
      <trkpt lat="43.15179" lon="-0.66172">
        <ele>307</ele>
      </trkpt>
      <trkpt lat="43.15168" lon="-0.66154">
        <ele>307</ele>
      </trkpt>
      <trkpt lat="43.15182" lon="-0.66143">
        <ele>307</ele>
      </trkpt>
      <trkpt lat="43.15187" lon="-0.66132">
        <ele>307</ele>
      </trkpt>
      <trkpt lat="43.15191" lon="-0.6613">
        <ele>307</ele>
      </trkpt>
      <trkpt lat="43.15239" lon="-0.66075">
        <ele>315</ele>
      </trkpt>
      <trkpt lat="43.15249" lon="-0.66052">
        <ele>315</ele>
      </trkpt>
      <trkpt lat="43.15251" lon="-0.6604">
        <ele>325</ele>
      </trkpt>
      <trkpt lat="43.15249" lon="-0.66028">
        <ele>325</ele>
      </trkpt>
      <trkpt lat="43.15242" lon="-0.66027">
        <ele>325</ele>
      </trkpt>
      <trkpt lat="43.15203" lon="-0.66035">
        <ele>339</ele>
      </trkpt>
      <trkpt lat="43.1519" lon="-0.66033">
        <ele>339</ele>
      </trkpt>
      <trkpt lat="43.15159" lon="-0.66008">
        <ele>339</ele>
      </trkpt>
      <trkpt lat="43.15152" lon="-0.65994">
        <ele>339</ele>
      </trkpt>
      <trkpt lat="43.15152" lon="-0.65989">
        <ele>339</ele>
      </trkpt>
      <trkpt lat="43.15145" lon="-0.6598">
        <ele>339</ele>
      </trkpt>
      <trkpt lat="43.15128" lon="-0.65971">
        <ele>339</ele>
      </trkpt>
      <trkpt lat="43.1511" lon="-0.65953">
        <ele>369</ele>
      </trkpt>
      <trkpt lat="43.15091" lon="-0.65894">
        <ele>369</ele>
      </trkpt>
      <trkpt lat="43.15087" lon="-0.65892">
        <ele>369</ele>
      </trkpt>
      <trkpt lat="43.15073" lon="-0.65953">
        <ele>369</ele>
      </trkpt>
      <trkpt lat="43.1503" lon="-0.66012">
        <ele>385</ele>
      </trkpt>
      <trkpt lat="43.15005" lon="-0.66037">
        <ele>385</ele>
      </trkpt>
      <trkpt lat="43.14953" lon="-0.66099">
        <ele>395</ele>
      </trkpt>
      <trkpt lat="43.14903" lon="-0.66146">
        <ele>368</ele>
      </trkpt>
      <trkpt lat="43.1481" lon="-0.66208">
        <ele>388</ele>
      </trkpt>
      <trkpt lat="43.1478" lon="-0.66231">
        <ele>394</ele>
      </trkpt>
      <trkpt lat="43.14753" lon="-0.66281">
        <ele>394</ele>
      </trkpt>
      <trkpt lat="43.14709" lon="-0.66327">
        <ele>374</ele>
      </trkpt>
      <trkpt lat="43.14701" lon="-0.66339">
        <ele>412</ele>
      </trkpt>
      <trkpt lat="43.14698" lon="-0.66348">
        <ele>412</ele>
      </trkpt>
      <trkpt lat="43.14679" lon="-0.66373">
        <ele>412</ele>
      </trkpt>
      <trkpt lat="43.1467" lon="-0.66402">
        <ele>400</ele>
      </trkpt>
      <trkpt lat="43.1467" lon="-0.66417">
        <ele>400</ele>
      </trkpt>
      <trkpt lat="43.14667" lon="-0.66422">
        <ele>400</ele>
      </trkpt>
      <trkpt lat="43.14662" lon="-0.66446">
        <ele>400</ele>
      </trkpt>
      <trkpt lat="43.14648" lon="-0.66487">
        <ele>391</ele>
      </trkpt>
      <trkpt lat="43.14631" lon="-0.66525">
        <ele>391</ele>
      </trkpt>
      <trkpt lat="43.14629" lon="-0.66544">
        <ele>394</ele>
      </trkpt>
      <trkpt lat="43.14664" lon="-0.66598">
        <ele>394</ele>
      </trkpt>
      <trkpt lat="43.14656" lon="-0.66682">
        <ele>397</ele>
      </trkpt>
      <trkpt lat="43.14654" lon="-0.66685">
        <ele>397</ele>
      </trkpt>
      <trkpt lat="43.14658" lon="-0.66704">
        <ele>397</ele>
      </trkpt>
      <trkpt lat="43.14662" lon="-0.66746">
        <ele>408</ele>
      </trkpt>
      <trkpt lat="43.14677" lon="-0.6679">
        <ele>408</ele>
      </trkpt>
      <trkpt lat="43.14703" lon="-0.6681">
        <ele>426</ele>
      </trkpt>
      <trkpt lat="43.14728" lon="-0.6682">
        <ele>420</ele>
      </trkpt>
      <trkpt lat="43.14736" lon="-0.66814">
        <ele>420</ele>
      </trkpt>
      <trkpt lat="43.14767" lon="-0.66804">
        <ele>420</ele>
      </trkpt>
      <trkpt lat="43.14797" lon="-0.668">
        <ele>413</ele>
      </trkpt>
      <trkpt lat="43.1482" lon="-0.66813">
        <ele>413</ele>
      </trkpt>
      <trkpt lat="43.14826" lon="-0.66821">
        <ele>413</ele>
      </trkpt>
      <trkpt lat="43.14838" lon="-0.66871">
        <ele>413</ele>
      </trkpt>
      <trkpt lat="43.14835" lon="-0.66911">
        <ele>416</ele>
      </trkpt>
      <trkpt lat="43.14812" lon="-0.66969">
        <ele>412</ele>
      </trkpt>
      <trkpt lat="43.14789" lon="-0.67004">
        <ele>421</ele>
      </trkpt>
      <trkpt lat="43.14764" lon="-0.67026">
        <ele>421</ele>
      </trkpt>
      <trkpt lat="43.14757" lon="-0.67025">
        <ele>421</ele>
      </trkpt>
      <trkpt lat="43.14749" lon="-0.67028">
        <ele>421</ele>
      </trkpt>
      <trkpt lat="43.14694" lon="-0.67028">
        <ele>426</ele>
      </trkpt>
      <trkpt lat="43.14685" lon="-0.67023">
        <ele>426</ele>
      </trkpt>
      <trkpt lat="43.14659" lon="-0.67">
        <ele>426</ele>
      </trkpt>
      <trkpt lat="43.14626" lon="-0.66963">
        <ele>426</ele>
      </trkpt>
      <trkpt lat="43.14595" lon="-0.66949">
        <ele>439</ele>
      </trkpt>
      <trkpt lat="43.14574" lon="-0.66916">
        <ele>439</ele>
      </trkpt>
      <trkpt lat="43.14549" lon="-0.66893">
        <ele>439</ele>
      </trkpt>
      <trkpt lat="43.1454" lon="-0.66879">
        <ele>447</ele>
      </trkpt>
      <trkpt lat="43.14537" lon="-0.66865">
        <ele>457</ele>
      </trkpt>
      <trkpt lat="43.1454" lon="-0.66849">
        <ele>457</ele>
      </trkpt>
      <trkpt lat="43.14537" lon="-0.66801">
        <ele>457</ele>
      </trkpt>
      <trkpt lat="43.14532" lon="-0.66781">
        <ele>468</ele>
      </trkpt>
      <trkpt lat="43.1453" lon="-0.66741">
        <ele>468</ele>
      </trkpt>
      <trkpt lat="43.14525" lon="-0.66728">
        <ele>468</ele>
      </trkpt>
      <trkpt lat="43.14523" lon="-0.66707">
        <ele>471</ele>
      </trkpt>
      <trkpt lat="43.14514" lon="-0.66678">
        <ele>471</ele>
      </trkpt>
      <trkpt lat="43.14514" lon="-0.66668">
        <ele>471</ele>
      </trkpt>
      <trkpt lat="43.14504" lon="-0.66627">
        <ele>471</ele>
      </trkpt>
      <trkpt lat="43.14507" lon="-0.66618">
        <ele>471</ele>
      </trkpt>
      <trkpt lat="43.14468" lon="-0.66542">
        <ele>471</ele>
      </trkpt>
      <trkpt lat="43.14465" lon="-0.66515">
        <ele>474</ele>
      </trkpt>
      <trkpt lat="43.1445" lon="-0.66477">
        <ele>504</ele>
      </trkpt>
      <trkpt lat="43.14458" lon="-0.66452">
        <ele>498</ele>
      </trkpt>
      <trkpt lat="43.14463" lon="-0.66396">
        <ele>477</ele>
      </trkpt>
      <trkpt lat="43.14461" lon="-0.6638">
        <ele>477</ele>
      </trkpt>
      <trkpt lat="43.14453" lon="-0.6637">
        <ele>479</ele>
      </trkpt>
      <trkpt lat="43.14452" lon="-0.66364">
        <ele>479</ele>
      </trkpt>
      <trkpt lat="43.14457" lon="-0.66337">
        <ele>479</ele>
      </trkpt>
      <trkpt lat="43.14469" lon="-0.66296">
        <ele>478</ele>
      </trkpt>
      <trkpt lat="43.14488" lon="-0.66275">
        <ele>469</ele>
      </trkpt>
      <trkpt lat="43.14492" lon="-0.66267">
        <ele>469</ele>
      </trkpt>
      <trkpt lat="43.14493" lon="-0.66251">
        <ele>469</ele>
      </trkpt>
      <trkpt lat="43.14579" lon="-0.66104">
        <ele>445</ele>
      </trkpt>
      <trkpt lat="43.14594" lon="-0.66087">
        <ele>445</ele>
      </trkpt>
      <trkpt lat="43.14605" lon="-0.66081">
        <ele>445</ele>
      </trkpt>
      <trkpt lat="43.1461" lon="-0.6607">
        <ele>445</ele>
      </trkpt>
      <trkpt lat="43.14646" lon="-0.66034">
        <ele>426</ele>
      </trkpt>
      <trkpt lat="43.14682" lon="-0.66011">
        <ele>426</ele>
      </trkpt>
      <trkpt lat="43.1471" lon="-0.65987">
        <ele>440</ele>
      </trkpt>
      <trkpt lat="43.14722" lon="-0.65973">
        <ele>440</ele>
      </trkpt>
      <trkpt lat="43.1473" lon="-0.65968">
        <ele>440</ele>
      </trkpt>
      <trkpt lat="43.14754" lon="-0.65961">
        <ele>440</ele>
      </trkpt>
      <trkpt lat="43.14763" lon="-0.65961">
        <ele>440</ele>
      </trkpt>
      <trkpt lat="43.14782" lon="-0.65952">
        <ele>419</ele>
      </trkpt>
      <trkpt lat="43.14804" lon="-0.65934">
        <ele>433</ele>
      </trkpt>
      <trkpt lat="43.1482" lon="-0.65925">
        <ele>433</ele>
      </trkpt>
      <trkpt lat="43.1483" lon="-0.65914">
        <ele>433</ele>
      </trkpt>
      <trkpt lat="43.1486" lon="-0.65866">
        <ele>409</ele>
      </trkpt>
      <trkpt lat="43.14879" lon="-0.65845">
        <ele>423</ele>
      </trkpt>
      <trkpt lat="43.14894" lon="-0.65833">
        <ele>423</ele>
      </trkpt>
      <trkpt lat="43.14904" lon="-0.65821">
        <ele>423</ele>
      </trkpt>
      <trkpt lat="43.1491" lon="-0.65808">
        <ele>423</ele>
      </trkpt>
      <trkpt lat="43.14944" lon="-0.65761">
        <ele>402</ele>
      </trkpt>
      <trkpt lat="43.14949" lon="-0.65758">
        <ele>402</ele>
      </trkpt>
      <trkpt lat="43.14974" lon="-0.65727">
        <ele>406</ele>
      </trkpt>
      <trkpt lat="43.14979" lon="-0.65715">
        <ele>406</ele>
      </trkpt>
      <trkpt lat="43.14981" lon="-0.65698">
        <ele>400</ele>
      </trkpt>
      <trkpt lat="43.14998" lon="-0.65656">
        <ele>400</ele>
      </trkpt>
      <trkpt lat="43.14995" lon="-0.6565">
        <ele>400</ele>
      </trkpt>
      <trkpt lat="43.14992" lon="-0.65629">
        <ele>400</ele>
      </trkpt>
      <trkpt lat="43.14997" lon="-0.65618">
        <ele>392</ele>
      </trkpt>
      <trkpt lat="43.14997" lon="-0.65603">
        <ele>392</ele>
      </trkpt>
      <trkpt lat="43.14989" lon="-0.65588">
        <ele>392</ele>
      </trkpt>
      <trkpt lat="43.14991" lon="-0.65566">
        <ele>392</ele>
      </trkpt>
      <trkpt lat="43.14996" lon="-0.65549">
        <ele>392</ele>
      </trkpt>
      <trkpt lat="43.14996" lon="-0.65539">
        <ele>384</ele>
      </trkpt>
      <trkpt lat="43.14993" lon="-0.65527">
        <ele>384</ele>
      </trkpt>
      <trkpt lat="43.15002" lon="-0.65519">
        <ele>384</ele>
      </trkpt>
      <trkpt lat="43.1501" lon="-0.65502">
        <ele>384</ele>
      </trkpt>
      <trkpt lat="43.1501" lon="-0.65479">
        <ele>384</ele>
      </trkpt>
      <trkpt lat="43.15008" lon="-0.65469">
        <ele>384</ele>
      </trkpt>
      <trkpt lat="43.15018" lon="-0.65442">
        <ele>374</ele>
      </trkpt>
      <trkpt lat="43.15041" lon="-0.65409">
        <ele>374</ele>
      </trkpt>
      <trkpt lat="43.15066" lon="-0.65385">
        <ele>379</ele>
      </trkpt>
      <trkpt lat="43.15087" lon="-0.6537">
        <ele>374</ele>
      </trkpt>
      <trkpt lat="43.1509" lon="-0.65362">
        <ele>374</ele>
      </trkpt>
      <trkpt lat="43.15115" lon="-0.65332">
        <ele>374</ele>
      </trkpt>
      <trkpt lat="43.15118" lon="-0.65325">
        <ele>374</ele>
      </trkpt>
      <trkpt lat="43.15142" lon="-0.65308">
        <ele>379</ele>
      </trkpt>
      <trkpt lat="43.15154" lon="-0.65295">
        <ele>379</ele>
      </trkpt>
      <trkpt lat="43.15166" lon="-0.65269">
        <ele>379</ele>
      </trkpt>
      <trkpt lat="43.15163" lon="-0.65256">
        <ele>379</ele>
      </trkpt>
      <trkpt lat="43.15168" lon="-0.65237">
        <ele>379</ele>
      </trkpt>
      <trkpt lat="43.15166" lon="-0.65227">
        <ele>379</ele>
      </trkpt>
      <trkpt lat="43.15169" lon="-0.65203">
        <ele>372</ele>
      </trkpt>
      <trkpt lat="43.15185" lon="-0.65177">
        <ele>372</ele>
      </trkpt>
      <trkpt lat="43.15189" lon="-0.65158">
        <ele>372</ele>
      </trkpt>
      <trkpt lat="43.15191" lon="-0.65156">
        <ele>372</ele>
      </trkpt>
      <trkpt lat="43.15192" lon="-0.65147">
        <ele>372</ele>
      </trkpt>
      <trkpt lat="43.15202" lon="-0.65135">
        <ele>372</ele>
      </trkpt>
      <trkpt lat="43.15208" lon="-0.65123">
        <ele>358</ele>
      </trkpt>
      <trkpt lat="43.15226" lon="-0.65115">
        <ele>360</ele>
      </trkpt>
      <trkpt lat="43.1526" lon="-0.65075">
        <ele>360</ele>
      </trkpt>
      <trkpt lat="43.15271" lon="-0.65041">
        <ele>355</ele>
      </trkpt>
      <trkpt lat="43.15279" lon="-0.65031">
        <ele>355</ele>
      </trkpt>
      <trkpt lat="43.15282" lon="-0.65017">
        <ele>355</ele>
      </trkpt>
      <trkpt lat="43.15285" lon="-0.65012">
        <ele>355</ele>
      </trkpt>
      <trkpt lat="43.15288" lon="-0.64991">
        <ele>355</ele>
      </trkpt>
      <trkpt lat="43.15288" lon="-0.64931">
        <ele>357</ele>
      </trkpt>
      <trkpt lat="43.15291" lon="-0.64909">
        <ele>357</ele>
      </trkpt>
      <trkpt lat="43.1529" lon="-0.64884">
        <ele>357</ele>
      </trkpt>
      <trkpt lat="43.15292" lon="-0.64852">
        <ele>373</ele>
      </trkpt>
      <trkpt lat="43.15289" lon="-0.64832">
        <ele>361</ele>
      </trkpt>
      <trkpt lat="43.15282" lon="-0.64816">
        <ele>361</ele>
      </trkpt>
      <trkpt lat="43.1529" lon="-0.64731">
        <ele>361</ele>
      </trkpt>
      <trkpt lat="43.15313" lon="-0.64692">
        <ele>386</ele>
      </trkpt>
      <trkpt lat="43.15337" lon="-0.6464">
        <ele>386</ele>
      </trkpt>
      <trkpt lat="43.15359" lon="-0.64602">
        <ele>387</ele>
      </trkpt>
      <trkpt lat="43.15389" lon="-0.64524">
        <ele>402</ele>
      </trkpt>
      <trkpt lat="43.15404" lon="-0.64504">
        <ele>402</ele>
      </trkpt>
      <trkpt lat="43.15407" lon="-0.64494">
        <ele>402</ele>
      </trkpt>
      <trkpt lat="43.15455" lon="-0.64412">
        <ele>396</ele>
      </trkpt>
      <trkpt lat="43.15469" lon="-0.6438">
        <ele>400</ele>
      </trkpt>
      <trkpt lat="43.15488" lon="-0.64363">
        <ele>397</ele>
      </trkpt>
      <trkpt lat="43.15488" lon="-0.64339">
        <ele>397</ele>
      </trkpt>
      <trkpt lat="43.15499" lon="-0.64319">
        <ele>397</ele>
      </trkpt>
      <trkpt lat="43.15512" lon="-0.64303">
        <ele>397</ele>
      </trkpt>
      <trkpt lat="43.15566" lon="-0.64282">
        <ele>380</ele>
      </trkpt>
      <trkpt lat="43.15583" lon="-0.64271">
        <ele>380</ele>
      </trkpt>
      <trkpt lat="43.15605" lon="-0.64263">
        <ele>380</ele>
      </trkpt>
      <trkpt lat="43.15618" lon="-0.64262">
        <ele>380</ele>
      </trkpt>
      <trkpt lat="43.15623" lon="-0.64265">
        <ele>380</ele>
      </trkpt>
      <trkpt lat="43.15657" lon="-0.6424">
        <ele>377</ele>
      </trkpt>
      <trkpt lat="43.15675" lon="-0.64234">
        <ele>377</ele>
      </trkpt>
      <trkpt lat="43.15684" lon="-0.64235">
        <ele>377</ele>
      </trkpt>
      <trkpt lat="43.15744" lon="-0.64213">
        <ele>377</ele>
      </trkpt>
      <trkpt lat="43.15781" lon="-0.64188">
        <ele>374</ele>
      </trkpt>
      <trkpt lat="43.15805" lon="-0.64154">
        <ele>385</ele>
      </trkpt>
      <trkpt lat="43.15816" lon="-0.64144">
        <ele>385</ele>
      </trkpt>
      <trkpt lat="43.15844" lon="-0.64095">
        <ele>390</ele>
      </trkpt>
      <trkpt lat="43.15848" lon="-0.64081">
        <ele>390</ele>
      </trkpt>
      <trkpt lat="43.1586" lon="-0.6406">
        <ele>390</ele>
      </trkpt>
      <trkpt lat="43.15874" lon="-0.64018">
        <ele>385</ele>
      </trkpt>
      <trkpt lat="43.15886" lon="-0.63971">
        <ele>410</ele>
      </trkpt>
      <trkpt lat="43.15896" lon="-0.63951">
        <ele>412</ele>
      </trkpt>
      <trkpt lat="43.15921" lon="-0.63887">
        <ele>412</ele>
      </trkpt>
      <trkpt lat="43.15921" lon="-0.63853">
        <ele>417</ele>
      </trkpt>
      <trkpt lat="43.15935" lon="-0.6381">
        <ele>417</ele>
      </trkpt>
      <trkpt lat="43.15938" lon="-0.63794">
        <ele>417</ele>
      </trkpt>
      <trkpt lat="43.15947" lon="-0.63769">
        <ele>426</ele>
      </trkpt>
      <trkpt lat="43.15946" lon="-0.63762">
        <ele>426</ele>
      </trkpt>
      <trkpt lat="43.15938" lon="-0.63757">
        <ele>426</ele>
      </trkpt>
      <trkpt lat="43.15924" lon="-0.63757">
        <ele>426</ele>
      </trkpt>
      <trkpt lat="43.15916" lon="-0.63742">
        <ele>426</ele>
      </trkpt>
      <trkpt lat="43.15899" lon="-0.63682">
        <ele>433</ele>
      </trkpt>
      <trkpt lat="43.15899" lon="-0.63645">
        <ele>433</ele>
      </trkpt>
      <trkpt lat="43.15905" lon="-0.63589">
        <ele>430</ele>
      </trkpt>
      <trkpt lat="43.15902" lon="-0.63582">
        <ele>430</ele>
      </trkpt>
      <trkpt lat="43.15904" lon="-0.6357">
        <ele>430</ele>
      </trkpt>
      <trkpt lat="43.15898" lon="-0.63553">
        <ele>430</ele>
      </trkpt>
      <trkpt lat="43.15877" lon="-0.63534">
        <ele>415</ele>
      </trkpt>
      <trkpt lat="43.15868" lon="-0.6352">
        <ele>407</ele>
      </trkpt>
      <trkpt lat="43.1586" lon="-0.63513">
        <ele>407</ele>
      </trkpt>
      <trkpt lat="43.15844" lon="-0.6351">
        <ele>407</ele>
      </trkpt>
      <trkpt lat="43.15837" lon="-0.63505">
        <ele>407</ele>
      </trkpt>
      <trkpt lat="43.15831" lon="-0.63496">
        <ele>407</ele>
      </trkpt>
      <trkpt lat="43.15805" lon="-0.63495">
        <ele>407</ele>
      </trkpt>
      <trkpt lat="43.15785" lon="-0.63452">
        <ele>393</ele>
      </trkpt>
      <trkpt lat="43.15757" lon="-0.63378">
        <ele>393</ele>
      </trkpt>
      <trkpt lat="43.15737" lon="-0.63374">
        <ele>390</ele>
      </trkpt>
      <trkpt lat="43.15718" lon="-0.63375">
        <ele>393</ele>
      </trkpt>
      <trkpt lat="43.15711" lon="-0.63368">
        <ele>390</ele>
      </trkpt>
      <trkpt lat="43.15711" lon="-0.63352">
        <ele>390</ele>
      </trkpt>
      <trkpt lat="43.15705" lon="-0.63325">
        <ele>368</ele>
      </trkpt>
      <trkpt lat="43.15704" lon="-0.63303">
        <ele>368</ele>
      </trkpt>
      <trkpt lat="43.15725" lon="-0.63199">
        <ele>377</ele>
      </trkpt>
      <trkpt lat="43.15736" lon="-0.6318">
        <ele>377</ele>
      </trkpt>
      <trkpt lat="43.1575" lon="-0.63165">
        <ele>377</ele>
      </trkpt>
      <trkpt lat="43.15757" lon="-0.6314">
        <ele>377</ele>
      </trkpt>
      <trkpt lat="43.15752" lon="-0.63128">
        <ele>377</ele>
      </trkpt>
      <trkpt lat="43.15757" lon="-0.63107">
        <ele>360</ele>
      </trkpt>
      <trkpt lat="43.15756" lon="-0.63093">
        <ele>360</ele>
      </trkpt>
      <trkpt lat="43.1576" lon="-0.63083">
        <ele>360</ele>
      </trkpt>
      <trkpt lat="43.15758" lon="-0.63074">
        <ele>360</ele>
      </trkpt>
      <trkpt lat="43.15762" lon="-0.63058">
        <ele>360</ele>
      </trkpt>
      <trkpt lat="43.1576" lon="-0.6305">
        <ele>360</ele>
      </trkpt>
      <trkpt lat="43.15766" lon="-0.63045">
        <ele>360</ele>
      </trkpt>
      <trkpt lat="43.15786" lon="-0.62987">
        <ele>342</ele>
      </trkpt>
      <trkpt lat="43.15779" lon="-0.62983">
        <ele>342</ele>
      </trkpt>
      <trkpt lat="43.15769" lon="-0.62982">
        <ele>342</ele>
      </trkpt>
      <trkpt lat="43.15763" lon="-0.62989">
        <ele>342</ele>
      </trkpt>
      <trkpt lat="43.15739" lon="-0.62974">
        <ele>342</ele>
      </trkpt>
      <trkpt lat="43.15734" lon="-0.62964">
        <ele>342</ele>
      </trkpt>
      <trkpt lat="43.15734" lon="-0.62949">
        <ele>326</ele>
      </trkpt>
      <trkpt lat="43.1571" lon="-0.6293">
        <ele>326</ele>
      </trkpt>
      <trkpt lat="43.15654" lon="-0.62905">
        <ele>303</ele>
      </trkpt>
      <trkpt lat="43.15638" lon="-0.62876">
        <ele>303</ele>
      </trkpt>
      <trkpt lat="43.15634" lon="-0.62876">
        <ele>303</ele>
      </trkpt>
      <trkpt lat="43.15619" lon="-0.62901">
        <ele>297</ele>
      </trkpt>
      <trkpt lat="43.15593" lon="-0.62924">
        <ele>297</ele>
      </trkpt>
      <trkpt lat="43.15562" lon="-0.62945">
        <ele>297</ele>
      </trkpt>
      <trkpt lat="43.15537" lon="-0.62972">
        <ele>299</ele>
      </trkpt>
      <trkpt lat="43.15502" lon="-0.63047">
        <ele>313</ele>
      </trkpt>
      <trkpt lat="43.15481" lon="-0.63067">
        <ele>313</ele>
      </trkpt>
      <trkpt lat="43.15443" lon="-0.63096">
        <ele>306</ele>
      </trkpt>
      <trkpt lat="43.15402" lon="-0.63116">
        <ele>306</ele>
      </trkpt>
      <trkpt lat="43.1539" lon="-0.63115">
        <ele>306</ele>
      </trkpt>
      <trkpt lat="43.15368" lon="-0.63121">
        <ele>293</ele>
      </trkpt>
      <trkpt lat="43.15347" lon="-0.63112">
        <ele>293</ele>
      </trkpt>
      <trkpt lat="43.15337" lon="-0.6312">
        <ele>293</ele>
      </trkpt>
      <trkpt lat="43.15335" lon="-0.63116">
        <ele>293</ele>
      </trkpt>
      <trkpt lat="43.15351" lon="-0.63117">
        <ele>293</ele>
      </trkpt>
      <trkpt lat="43.15359" lon="-0.63123">
        <ele>293</ele>
      </trkpt>
      <trkpt lat="43.15367" lon="-0.63125">
        <ele>296</ele>
      </trkpt>
      <trkpt lat="43.15373" lon="-0.63121">
        <ele>293</ele>
      </trkpt>
      <trkpt lat="43.15375" lon="-0.63102">
        <ele>306</ele>
      </trkpt>
      <trkpt lat="43.15396" lon="-0.63076">
        <ele>306</ele>
      </trkpt>
      <trkpt lat="43.15399" lon="-0.63055">
        <ele>306</ele>
      </trkpt>
      <trkpt lat="43.15417" lon="-0.63023">
        <ele>298</ele>
      </trkpt>
      <trkpt lat="43.15427" lon="-0.62969">
        <ele>298</ele>
      </trkpt>
      <trkpt lat="43.15422" lon="-0.62959">
        <ele>298</ele>
      </trkpt>
      <trkpt lat="43.15415" lon="-0.62915">
        <ele>291</ele>
      </trkpt>
      <trkpt lat="43.1541" lon="-0.62906">
        <ele>291</ele>
      </trkpt>
      <trkpt lat="43.15407" lon="-0.6289">
        <ele>291</ele>
      </trkpt>
      <trkpt lat="43.15409" lon="-0.62873">
        <ele>286</ele>
      </trkpt>
      <trkpt lat="43.15405" lon="-0.6286">
        <ele>286</ele>
      </trkpt>
      <trkpt lat="43.15406" lon="-0.62837">
        <ele>286</ele>
      </trkpt>
      <trkpt lat="43.15409" lon="-0.62821">
        <ele>286</ele>
      </trkpt>
      <trkpt lat="43.15431" lon="-0.6279">
        <ele>282</ele>
      </trkpt>
      <trkpt lat="43.15443" lon="-0.62784">
        <ele>282</ele>
      </trkpt>
      <trkpt lat="43.15448" lon="-0.62769">
        <ele>282</ele>
      </trkpt>
      <trkpt lat="43.15447" lon="-0.62758">
        <ele>282</ele>
      </trkpt>
      <trkpt lat="43.1545" lon="-0.62732">
        <ele>282</ele>
      </trkpt>
      <trkpt lat="43.15444" lon="-0.62693">
        <ele>276</ele>
      </trkpt>
      <trkpt lat="43.15453" lon="-0.62663">
        <ele>276</ele>
      </trkpt>
      <trkpt lat="43.15451" lon="-0.62659">
        <ele>276</ele>
      </trkpt>
      <trkpt lat="43.15457" lon="-0.62621">
        <ele>276</ele>
      </trkpt>
      <trkpt lat="43.15456" lon="-0.62606">
        <ele>276</ele>
      </trkpt>
      <trkpt lat="43.15462" lon="-0.62577">
        <ele>271</ele>
      </trkpt>
      <trkpt lat="43.1548" lon="-0.62559">
        <ele>271</ele>
      </trkpt>
      <trkpt lat="43.15488" lon="-0.62539">
        <ele>272</ele>
      </trkpt>
      <trkpt lat="43.15485" lon="-0.62497">
        <ele>272</ele>
      </trkpt>
      <trkpt lat="43.15496" lon="-0.62413">
        <ele>270</ele>
      </trkpt>
      <trkpt lat="43.15502" lon="-0.62348">
        <ele>267</ele>
      </trkpt>
      <trkpt lat="43.15506" lon="-0.6234">
        <ele>267</ele>
      </trkpt>
      <trkpt lat="43.15505" lon="-0.62331">
        <ele>267</ele>
      </trkpt>
      <trkpt lat="43.15511" lon="-0.62311">
        <ele>267</ele>
      </trkpt>
      <trkpt lat="43.15512" lon="-0.62282">
        <ele>265</ele>
      </trkpt>
      <trkpt lat="43.15525" lon="-0.62249">
        <ele>265</ele>
      </trkpt>
      <trkpt lat="43.1553" lon="-0.62243">
        <ele>265</ele>
      </trkpt>
      <trkpt lat="43.1558" lon="-0.62217">
        <ele>265</ele>
      </trkpt>
      <trkpt lat="43.15587" lon="-0.62218">
        <ele>265</ele>
      </trkpt>
      <trkpt lat="43.15614" lon="-0.62213">
        <ele>265</ele>
      </trkpt>
      <trkpt lat="43.15625" lon="-0.62207">
        <ele>262</ele>
      </trkpt>
      <trkpt lat="43.15657" lon="-0.6221">
        <ele>264</ele>
      </trkpt>
      <trkpt lat="43.15668" lon="-0.62199">
        <ele>262</ele>
      </trkpt>
      <trkpt lat="43.15705" lon="-0.6219">
        <ele>262</ele>
      </trkpt>
      <trkpt lat="43.15747" lon="-0.62189">
        <ele>261</ele>
      </trkpt>
      <trkpt lat="43.15793" lon="-0.62174">
        <ele>262</ele>
      </trkpt>
      <trkpt lat="43.15796" lon="-0.62164">
        <ele>262</ele>
      </trkpt>
      <trkpt lat="43.15794" lon="-0.62148">
        <ele>262</ele>
      </trkpt>
      <trkpt lat="43.15801" lon="-0.62141">
        <ele>262</ele>
      </trkpt>
      <trkpt lat="43.15802" lon="-0.62133">
        <ele>262</ele>
      </trkpt>
      <trkpt lat="43.1579" lon="-0.62087">
        <ele>261</ele>
      </trkpt>
      <trkpt lat="43.15749" lon="-0.61967">
        <ele>264</ele>
      </trkpt>
      <trkpt lat="43.15754" lon="-0.6195">
        <ele>274</ele>
      </trkpt>
      <trkpt lat="43.15784" lon="-0.61927">
        <ele>274</ele>
      </trkpt>
      <trkpt lat="43.15814" lon="-0.61887">
        <ele>262</ele>
      </trkpt>
      <trkpt lat="43.15834" lon="-0.61849">
        <ele>267</ele>
      </trkpt>
      <trkpt lat="43.15824" lon="-0.61851">
        <ele>267</ele>
      </trkpt>
      <trkpt lat="43.15799" lon="-0.61891">
        <ele>262</ele>
      </trkpt>
      <trkpt lat="43.15777" lon="-0.61913">
        <ele>274</ele>
      </trkpt>
      <trkpt lat="43.15753" lon="-0.61922">
        <ele>274</ele>
      </trkpt>
      <trkpt lat="43.15702" lon="-0.61915">
        <ele>281</ele>
      </trkpt>
      <trkpt lat="43.15584" lon="-0.61912">
        <ele>287</ele>
      </trkpt>
      <trkpt lat="43.15564" lon="-0.61896">
        <ele>287</ele>
      </trkpt>
      <trkpt lat="43.15542" lon="-0.61869">
        <ele>293</ele>
      </trkpt>
      <trkpt lat="43.15519" lon="-0.61847">
        <ele>295</ele>
      </trkpt>
      <trkpt lat="43.15481" lon="-0.61826">
        <ele>295</ele>
      </trkpt>
      <trkpt lat="43.15438" lon="-0.61819">
        <ele>295</ele>
      </trkpt>
      <trkpt lat="43.15387" lon="-0.61824">
        <ele>295</ele>
      </trkpt>
      <trkpt lat="43.15284" lon="-0.6182">
        <ele>296</ele>
      </trkpt>
      <trkpt lat="43.15186" lon="-0.61792">
        <ele>296</ele>
      </trkpt>
      <trkpt lat="43.15141" lon="-0.61756">
        <ele>298</ele>
      </trkpt>
      <trkpt lat="43.15116" lon="-0.6173">
        <ele>300</ele>
      </trkpt>
      <trkpt lat="43.15083" lon="-0.61703">
        <ele>303</ele>
      </trkpt>
      <trkpt lat="43.15048" lon="-0.61684">
        <ele>303</ele>
      </trkpt>
      <trkpt lat="43.14917" lon="-0.61594">
        <ele>313</ele>
      </trkpt>
      <trkpt lat="43.14893" lon="-0.61608">
        <ele>313</ele>
      </trkpt>
      <trkpt lat="43.14869" lon="-0.61627">
        <ele>308</ele>
      </trkpt>
      <trkpt lat="43.14867" lon="-0.61623">
        <ele>319</ele>
      </trkpt>
      <trkpt lat="43.14869" lon="-0.61548">
        <ele>319</ele>
      </trkpt>
      <trkpt lat="43.14892" lon="-0.6151">
        <ele>320</ele>
      </trkpt>
      <trkpt lat="43.14888" lon="-0.61475">
        <ele>320</ele>
      </trkpt>
      <trkpt lat="43.14874" lon="-0.61439">
        <ele>328</ele>
      </trkpt>
      <trkpt lat="43.1485" lon="-0.61431">
        <ele>328</ele>
      </trkpt>
      <trkpt lat="43.14836" lon="-0.61434">
        <ele>328</ele>
      </trkpt>
      <trkpt lat="43.14784" lon="-0.61467">
        <ele>331</ele>
      </trkpt>
      <trkpt lat="43.14758" lon="-0.61494">
        <ele>331</ele>
      </trkpt>
      <trkpt lat="43.14681" lon="-0.61549">
        <ele>333</ele>
      </trkpt>
      <trkpt lat="43.14633" lon="-0.61557">
        <ele>333</ele>
      </trkpt>
      <trkpt lat="43.1449" lon="-0.61551">
        <ele>339</ele>
      </trkpt>
      <trkpt lat="43.14474" lon="-0.61556">
        <ele>339</ele>
      </trkpt>
      <trkpt lat="43.14456" lon="-0.61583">
        <ele>355</ele>
      </trkpt>
      <trkpt lat="43.14455" lon="-0.61589">
        <ele>355</ele>
      </trkpt>
      <trkpt lat="43.14437" lon="-0.61624">
        <ele>355</ele>
      </trkpt>
      <trkpt lat="43.14432" lon="-0.61626">
        <ele>350</ele>
      </trkpt>
      <trkpt lat="43.14429" lon="-0.61632">
        <ele>350</ele>
      </trkpt>
      <trkpt lat="43.14404" lon="-0.61655">
        <ele>350</ele>
      </trkpt>
      <trkpt lat="43.14381" lon="-0.61672">
        <ele>350</ele>
      </trkpt>
      <trkpt lat="43.14364" lon="-0.61689">
        <ele>364</ele>
      </trkpt>
      <trkpt lat="43.14323" lon="-0.61711">
        <ele>354</ele>
      </trkpt>
      <trkpt lat="43.14303" lon="-0.61713">
        <ele>354</ele>
      </trkpt>
      <trkpt lat="43.14266" lon="-0.61708">
        <ele>371</ele>
      </trkpt>
      <trkpt lat="43.14213" lon="-0.61689">
        <ele>371</ele>
      </trkpt>
      <trkpt lat="43.14157" lon="-0.61665">
        <ele>376</ele>
      </trkpt>
      <trkpt lat="43.14126" lon="-0.61664">
        <ele>376</ele>
      </trkpt>
      <trkpt lat="43.14104" lon="-0.61673">
        <ele>391</ele>
      </trkpt>
      <trkpt lat="43.14022" lon="-0.61767">
        <ele>399</ele>
      </trkpt>
      <trkpt lat="43.14014" lon="-0.61773">
        <ele>399</ele>
      </trkpt>
      <trkpt lat="43.14001" lon="-0.61797">
        <ele>389</ele>
      </trkpt>
      <trkpt lat="43.13989" lon="-0.61803">
        <ele>389</ele>
      </trkpt>
      <trkpt lat="43.13966" lon="-0.61824">
        <ele>389</ele>
      </trkpt>
      <trkpt lat="43.13956" lon="-0.6183">
        <ele>392</ele>
      </trkpt>
      <trkpt lat="43.13931" lon="-0.61833">
        <ele>392</ele>
      </trkpt>
      <trkpt lat="43.13924" lon="-0.61873">
        <ele>392</ele>
      </trkpt>
      <trkpt lat="43.13913" lon="-0.61891">
        <ele>391</ele>
      </trkpt>
      <trkpt lat="43.13904" lon="-0.61914">
        <ele>391</ele>
      </trkpt>
      <trkpt lat="43.139" lon="-0.61934">
        <ele>391</ele>
      </trkpt>
      <trkpt lat="43.1386" lon="-0.62048">
        <ele>394</ele>
      </trkpt>
      <trkpt lat="43.13853" lon="-0.62075">
        <ele>394</ele>
      </trkpt>
      <trkpt lat="43.13814" lon="-0.62187">
        <ele>408</ele>
      </trkpt>
      <trkpt lat="43.13801" lon="-0.62215">
        <ele>420</ele>
      </trkpt>
      <trkpt lat="43.13781" lon="-0.62281">
        <ele>415</ele>
      </trkpt>
      <trkpt lat="43.13768" lon="-0.62315">
        <ele>426</ele>
      </trkpt>
      <trkpt lat="43.13752" lon="-0.62337">
        <ele>426</ele>
      </trkpt>
      <trkpt lat="43.1374" lon="-0.62341">
        <ele>426</ele>
      </trkpt>
      <trkpt lat="43.13736" lon="-0.62346">
        <ele>426</ele>
      </trkpt>
      <trkpt lat="43.13735" lon="-0.62361">
        <ele>426</ele>
      </trkpt>
      <trkpt lat="43.13694" lon="-0.62437">
        <ele>417</ele>
      </trkpt>
      <trkpt lat="43.13679" lon="-0.62476">
        <ele>416</ele>
      </trkpt>
      <trkpt lat="43.13651" lon="-0.62626">
        <ele>420</ele>
      </trkpt>
      <trkpt lat="43.13644" lon="-0.62651">
        <ele>420</ele>
      </trkpt>
      <trkpt lat="43.1365" lon="-0.62661">
        <ele>420</ele>
      </trkpt>
      <trkpt lat="43.13616" lon="-0.62621">
        <ele>398</ele>
      </trkpt>
      <trkpt lat="43.13643" lon="-0.6265">
        <ele>420</ele>
      </trkpt>
      <trkpt lat="43.13638" lon="-0.62649">
        <ele>420</ele>
      </trkpt>
      <trkpt lat="43.13644" lon="-0.62659">
        <ele>420</ele>
      </trkpt>
      <trkpt lat="43.13652" lon="-0.62666">
        <ele>420</ele>
      </trkpt>
      <trkpt lat="43.13662" lon="-0.62682">
        <ele>420</ele>
      </trkpt>
      <trkpt lat="43.13665" lon="-0.62693">
        <ele>420</ele>
      </trkpt>
      <trkpt lat="43.13674" lon="-0.62708">
        <ele>420</ele>
      </trkpt>
      <trkpt lat="43.13668" lon="-0.62726">
        <ele>409</ele>
      </trkpt>
      <trkpt lat="43.13658" lon="-0.62741">
        <ele>409</ele>
      </trkpt>
      <trkpt lat="43.13648" lon="-0.62765">
        <ele>409</ele>
      </trkpt>
      <trkpt lat="43.13637" lon="-0.62781">
        <ele>409</ele>
      </trkpt>
      <trkpt lat="43.13622" lon="-0.6281">
        <ele>383</ele>
      </trkpt>
      <trkpt lat="43.1362" lon="-0.62823">
        <ele>383</ele>
      </trkpt>
      <trkpt lat="43.1361" lon="-0.62849">
        <ele>383</ele>
      </trkpt>
      <trkpt lat="43.1358" lon="-0.62871">
        <ele>383</ele>
      </trkpt>
      <trkpt lat="43.13576" lon="-0.62915">
        <ele>368</ele>
      </trkpt>
      <trkpt lat="43.13561" lon="-0.62946">
        <ele>368</ele>
      </trkpt>
      <trkpt lat="43.13563" lon="-0.62983">
        <ele>356</ele>
      </trkpt>
      <trkpt lat="43.13553" lon="-0.63042">
        <ele>350</ele>
      </trkpt>
      <trkpt lat="43.13558" lon="-0.63083">
        <ele>350</ele>
      </trkpt>
      <trkpt lat="43.13562" lon="-0.63147">
        <ele>346</ele>
      </trkpt>
      <trkpt lat="43.1356" lon="-0.63176">
        <ele>346</ele>
      </trkpt>
      <trkpt lat="43.13558" lon="-0.63181">
        <ele>346</ele>
      </trkpt>
      <trkpt lat="43.13566" lon="-0.63201">
        <ele>346</ele>
      </trkpt>
      <trkpt lat="43.13574" lon="-0.63238">
        <ele>339</ele>
      </trkpt>
      <trkpt lat="43.13578" lon="-0.63244">
        <ele>339</ele>
      </trkpt>
      <trkpt lat="43.1358" lon="-0.63256">
        <ele>339</ele>
      </trkpt>
      <trkpt lat="43.13589" lon="-0.63268">
        <ele>339</ele>
      </trkpt>
      <trkpt lat="43.13597" lon="-0.63292">
        <ele>325</ele>
      </trkpt>
      <trkpt lat="43.13596" lon="-0.63298">
        <ele>325</ele>
      </trkpt>
      <trkpt lat="43.13613" lon="-0.63312">
        <ele>325</ele>
      </trkpt>
      <trkpt lat="43.13634" lon="-0.63367">
        <ele>300</ele>
      </trkpt>
      <trkpt lat="43.13644" lon="-0.6338">
        <ele>291</ele>
      </trkpt>
      <trkpt lat="43.13661" lon="-0.63386">
        <ele>291</ele>
      </trkpt>
      <trkpt lat="43.13668" lon="-0.63379">
        <ele>291</ele>
      </trkpt>
      <trkpt lat="43.13678" lon="-0.63383">
        <ele>291</ele>
      </trkpt>
      <trkpt lat="43.13657" lon="-0.63413">
        <ele>291</ele>
      </trkpt>
      <trkpt lat="43.1363" lon="-0.63471">
        <ele>284</ele>
      </trkpt>
      <trkpt lat="43.1362" lon="-0.63504">
        <ele>294</ele>
      </trkpt>
      <trkpt lat="43.13623" lon="-0.63518">
        <ele>294</ele>
      </trkpt>
      <trkpt lat="43.13622" lon="-0.63525">
        <ele>294</ele>
      </trkpt>
      <trkpt lat="43.13628" lon="-0.63544">
        <ele>286</ele>
      </trkpt>
      <trkpt lat="43.13625" lon="-0.63539">
        <ele>294</ele>
      </trkpt>
      <trkpt lat="43.13625" lon="-0.63532">
        <ele>294</ele>
      </trkpt>
      <trkpt lat="43.13623" lon="-0.63529">
        <ele>294</ele>
      </trkpt>
      <trkpt lat="43.13623" lon="-0.63508">
        <ele>294</ele>
      </trkpt>
      <trkpt lat="43.13629" lon="-0.63491">
        <ele>284</ele>
      </trkpt>
      <trkpt lat="43.13636" lon="-0.63485">
        <ele>284</ele>
      </trkpt>
      <trkpt lat="43.13647" lon="-0.63494">
        <ele>284</ele>
      </trkpt>
      <trkpt lat="43.1365" lon="-0.63493">
        <ele>284</ele>
      </trkpt>
      <trkpt lat="43.13655" lon="-0.63504">
        <ele>284</ele>
      </trkpt>
      <trkpt lat="43.13664" lon="-0.63554">
        <ele>286</ele>
      </trkpt>
      <trkpt lat="43.13661" lon="-0.63559">
        <ele>286</ele>
      </trkpt>
      <trkpt lat="43.13659" lon="-0.63614">
        <ele>286</ele>
      </trkpt>
      <trkpt lat="43.13657" lon="-0.63622">
        <ele>286</ele>
      </trkpt>
      <trkpt lat="43.13647" lon="-0.63641">
        <ele>285</ele>
      </trkpt>
      <trkpt lat="43.13645" lon="-0.63677">
        <ele>285</ele>
      </trkpt>
      <trkpt lat="43.13659" lon="-0.63715">
        <ele>289</ele>
      </trkpt>
      <trkpt lat="43.13655" lon="-0.63741">
        <ele>289</ele>
      </trkpt>
      <trkpt lat="43.13656" lon="-0.63752">
        <ele>289</ele>
      </trkpt>
      <trkpt lat="43.13636" lon="-0.63794">
        <ele>289</ele>
      </trkpt>
      <trkpt lat="43.13633" lon="-0.63826">
        <ele>289</ele>
      </trkpt>
      <trkpt lat="43.13627" lon="-0.63843">
        <ele>289</ele>
      </trkpt>
      <trkpt lat="43.13614" lon="-0.63847">
        <ele>289</ele>
      </trkpt>
      <trkpt lat="43.13609" lon="-0.63871">
        <ele>289</ele>
      </trkpt>
      <trkpt lat="43.13611" lon="-0.63901">
        <ele>290</ele>
      </trkpt>
      <trkpt lat="43.13585" lon="-0.6394">
        <ele>290</ele>
      </trkpt>
      <trkpt lat="43.1357" lon="-0.63956">
        <ele>290</ele>
      </trkpt>
      <trkpt lat="43.13574" lon="-0.6397">
        <ele>294</ele>
      </trkpt>
      <trkpt lat="43.1357" lon="-0.63995">
        <ele>294</ele>
      </trkpt>
      <trkpt lat="43.13575" lon="-0.64008">
        <ele>294</ele>
      </trkpt>
      <trkpt lat="43.13574" lon="-0.64023">
        <ele>294</ele>
      </trkpt>
      <trkpt lat="43.13557" lon="-0.64025">
        <ele>294</ele>
      </trkpt>
      <trkpt lat="43.13549" lon="-0.64034">
        <ele>294</ele>
      </trkpt>
      <trkpt lat="43.13544" lon="-0.64036">
        <ele>294</ele>
      </trkpt>
      <trkpt lat="43.13546" lon="-0.64054">
        <ele>299</ele>
      </trkpt>
      <trkpt lat="43.13542" lon="-0.64066">
        <ele>299</ele>
      </trkpt>
      <trkpt lat="43.13544" lon="-0.64075">
        <ele>299</ele>
      </trkpt>
      <trkpt lat="43.13543" lon="-0.64085">
        <ele>299</ele>
      </trkpt>
      <trkpt lat="43.13546" lon="-0.64098">
        <ele>299</ele>
      </trkpt>
      <trkpt lat="43.13547" lon="-0.64142">
        <ele>300</ele>
      </trkpt>
      <trkpt lat="43.13545" lon="-0.64173">
        <ele>300</ele>
      </trkpt>
      <trkpt lat="43.13533" lon="-0.64259">
        <ele>299</ele>
      </trkpt>
      <trkpt lat="43.13547" lon="-0.64303">
        <ele>302</ele>
      </trkpt>
      <trkpt lat="43.13567" lon="-0.64339">
        <ele>302</ele>
      </trkpt>
      <trkpt lat="43.13571" lon="-0.64374">
        <ele>302</ele>
      </trkpt>
      <trkpt lat="43.13565" lon="-0.64462">
        <ele>307</ele>
      </trkpt>
      <trkpt lat="43.13554" lon="-0.6451">
        <ele>307</ele>
      </trkpt>
      <trkpt lat="43.13551" lon="-0.64559">
        <ele>312</ele>
      </trkpt>
      <trkpt lat="43.1356" lon="-0.64649">
        <ele>318</ele>
      </trkpt>
      <trkpt lat="43.13566" lon="-0.64672">
        <ele>318</ele>
      </trkpt>
      <trkpt lat="43.13575" lon="-0.6469">
        <ele>318</ele>
      </trkpt>
      <trkpt lat="43.1362" lon="-0.64741">
        <ele>316</ele>
      </trkpt>
      <trkpt lat="43.13628" lon="-0.64759">
        <ele>321</ele>
      </trkpt>
      <trkpt lat="43.1364" lon="-0.64804">
        <ele>313</ele>
      </trkpt>
      <trkpt lat="43.13662" lon="-0.64845">
        <ele>313</ele>
      </trkpt>
      <trkpt lat="43.13669" lon="-0.64852">
        <ele>313</ele>
      </trkpt>
      <trkpt lat="43.1368" lon="-0.6488">
        <ele>308</ele>
      </trkpt>
      <trkpt lat="43.13676" lon="-0.64906">
        <ele>308</ele>
      </trkpt>
      <trkpt lat="43.13678" lon="-0.64914">
        <ele>308</ele>
      </trkpt>
      <trkpt lat="43.13666" lon="-0.64935">
        <ele>308</ele>
      </trkpt>
      <trkpt lat="43.1366" lon="-0.6494">
        <ele>308</ele>
      </trkpt>
      <trkpt lat="43.13658" lon="-0.64968">
        <ele>311</ele>
      </trkpt>
      <trkpt lat="43.13666" lon="-0.64996">
        <ele>311</ele>
      </trkpt>
      <trkpt lat="43.13658" lon="-0.65016">
        <ele>311</ele>
      </trkpt>
      <trkpt lat="43.13647" lon="-0.65121">
        <ele>315</ele>
      </trkpt>
      <trkpt lat="43.13644" lon="-0.65126">
        <ele>330</ele>
      </trkpt>
      <trkpt lat="43.1362" lon="-0.65139">
        <ele>320</ele>
      </trkpt>
      <trkpt lat="43.13609" lon="-0.65149">
        <ele>320</ele>
      </trkpt>
      <trkpt lat="43.13557" lon="-0.65217">
        <ele>333</ele>
      </trkpt>
      <trkpt lat="43.13525" lon="-0.65287">
        <ele>322</ele>
      </trkpt>
      <trkpt lat="43.13521" lon="-0.65342">
        <ele>326</ele>
      </trkpt>
      <trkpt lat="43.13524" lon="-0.65366">
        <ele>326</ele>
      </trkpt>
      <trkpt lat="43.13523" lon="-0.65402">
        <ele>324</ele>
      </trkpt>
      <trkpt lat="43.13512" lon="-0.6545">
        <ele>324</ele>
      </trkpt>
      <trkpt lat="43.13506" lon="-0.65467">
        <ele>323</ele>
      </trkpt>
      <trkpt lat="43.13497" lon="-0.65478">
        <ele>323</ele>
      </trkpt>
      <trkpt lat="43.13481" lon="-0.65484">
        <ele>323</ele>
      </trkpt>
      <trkpt lat="43.13443" lon="-0.65487">
        <ele>314</ele>
      </trkpt>
      <trkpt lat="43.13407" lon="-0.65507">
        <ele>314</ele>
      </trkpt>
      <trkpt lat="43.13357" lon="-0.65493">
        <ele>314</ele>
      </trkpt>
      <trkpt lat="43.13338" lon="-0.65495">
        <ele>314</ele>
      </trkpt>
      <trkpt lat="43.13311" lon="-0.65513">
        <ele>314</ele>
      </trkpt>
      <trkpt lat="43.13291" lon="-0.65522">
        <ele>314</ele>
      </trkpt>
      <trkpt lat="43.13281" lon="-0.65545">
        <ele>315</ele>
      </trkpt>
      <trkpt lat="43.13272" lon="-0.65623">
        <ele>315</ele>
      </trkpt>
      <trkpt lat="43.13258" lon="-0.65665">
        <ele>313</ele>
      </trkpt>
      <trkpt lat="43.13267" lon="-0.65742">
        <ele>313</ele>
      </trkpt>
      <trkpt lat="43.13295" lon="-0.65828">
        <ele>319</ele>
      </trkpt>
      <trkpt lat="43.13314" lon="-0.65868">
        <ele>319</ele>
      </trkpt>
      <trkpt lat="43.13335" lon="-0.65902">
        <ele>319</ele>
      </trkpt>
      <trkpt lat="43.13383" lon="-0.65966">
        <ele>330</ele>
      </trkpt>
      <trkpt lat="43.13398" lon="-0.65997">
        <ele>330</ele>
      </trkpt>
      <trkpt lat="43.13399" lon="-0.66042">
        <ele>325</ele>
      </trkpt>
      <trkpt lat="43.13382" lon="-0.66087">
        <ele>325</ele>
      </trkpt>
      <trkpt lat="43.13373" lon="-0.66151">
        <ele>328</ele>
      </trkpt>
      <trkpt lat="43.13362" lon="-0.66185">
        <ele>328</ele>
      </trkpt>
      <trkpt lat="43.13344" lon="-0.66212">
        <ele>334</ele>
      </trkpt>
      <trkpt lat="43.13308" lon="-0.66247">
        <ele>334</ele>
      </trkpt>
      <trkpt lat="43.13292" lon="-0.66275">
        <ele>334</ele>
      </trkpt>
      <trkpt lat="43.13282" lon="-0.6632">
        <ele>345</ele>
      </trkpt>
      <trkpt lat="43.13281" lon="-0.6634">
        <ele>345</ele>
      </trkpt>
      <trkpt lat="43.13284" lon="-0.66388">
        <ele>352</ele>
      </trkpt>
      <trkpt lat="43.13283" lon="-0.66413">
        <ele>352</ele>
      </trkpt>
      <trkpt lat="43.13275" lon="-0.66442">
        <ele>352</ele>
      </trkpt>
      <trkpt lat="43.13261" lon="-0.66467">
        <ele>359</ele>
      </trkpt>
      <trkpt lat="43.13256" lon="-0.66491">
        <ele>359</ele>
      </trkpt>
      <trkpt lat="43.13262" lon="-0.66499">
        <ele>359</ele>
      </trkpt>
      <trkpt lat="43.13281" lon="-0.66503">
        <ele>359</ele>
      </trkpt>
      <trkpt lat="43.13303" lon="-0.6652">
        <ele>371</ele>
      </trkpt>
      <trkpt lat="43.1334" lon="-0.6654">
        <ele>371</ele>
      </trkpt>
      <trkpt lat="43.13357" lon="-0.66558">
        <ele>375</ele>
      </trkpt>
      <trkpt lat="43.13372" lon="-0.66619">
        <ele>375</ele>
      </trkpt>
      <trkpt lat="43.13371" lon="-0.66659">
        <ele>378</ele>
      </trkpt>
      <trkpt lat="43.13366" lon="-0.6667">
        <ele>378</ele>
      </trkpt>
      <trkpt lat="43.13347" lon="-0.66697">
        <ele>378</ele>
      </trkpt>
      <trkpt lat="43.13313" lon="-0.66735">
        <ele>398</ele>
      </trkpt>
      <trkpt lat="43.13279" lon="-0.66778">
        <ele>369</ele>
      </trkpt>
      <trkpt lat="43.1324" lon="-0.66862">
        <ele>385</ele>
      </trkpt>
      <trkpt lat="43.13221" lon="-0.6691">
        <ele>404</ele>
      </trkpt>
      <trkpt lat="43.13173" lon="-0.66985">
        <ele>392</ele>
      </trkpt>
      <trkpt lat="43.13156" lon="-0.67025">
        <ele>392</ele>
      </trkpt>
      <trkpt lat="43.13134" lon="-0.67069">
        <ele>411</ele>
      </trkpt>
      <trkpt lat="43.13106" lon="-0.67112">
        <ele>374</ele>
      </trkpt>
      <trkpt lat="43.13094" lon="-0.67142">
        <ele>381</ele>
      </trkpt>
      <trkpt lat="43.13071" lon="-0.67252">
        <ele>385</ele>
      </trkpt>
      <trkpt lat="43.13052" lon="-0.67304">
        <ele>383</ele>
      </trkpt>
      <trkpt lat="43.13041" lon="-0.67345">
        <ele>379</ele>
      </trkpt>
      <trkpt lat="43.13032" lon="-0.67368">
        <ele>379</ele>
      </trkpt>
      <trkpt lat="43.1299" lon="-0.67424">
        <ele>374</ele>
      </trkpt>
      <trkpt lat="43.12986" lon="-0.67436">
        <ele>374</ele>
      </trkpt>
      <trkpt lat="43.12953" lon="-0.67487">
        <ele>386</ele>
      </trkpt>
      <trkpt lat="43.12952" lon="-0.67496">
        <ele>386</ele>
      </trkpt>
      <trkpt lat="43.1296" lon="-0.67549">
        <ele>366</ele>
      </trkpt>
      <trkpt lat="43.12963" lon="-0.67554">
        <ele>366</ele>
      </trkpt>
      <trkpt lat="43.12968" lon="-0.67554">
        <ele>366</ele>
      </trkpt>
      <trkpt lat="43.12982" lon="-0.67562">
        <ele>366</ele>
      </trkpt>
      <trkpt lat="43.12997" lon="-0.67592">
        <ele>366</ele>
      </trkpt>
      <trkpt lat="43.13004" lon="-0.67611">
        <ele>366</ele>
      </trkpt>
      <trkpt lat="43.13022" lon="-0.67635">
        <ele>374</ele>
      </trkpt>
      <trkpt lat="43.13026" lon="-0.67645">
        <ele>374</ele>
      </trkpt>
      <trkpt lat="43.1304" lon="-0.67711">
        <ele>381</ele>
      </trkpt>
      <trkpt lat="43.13063" lon="-0.67757">
        <ele>352</ele>
      </trkpt>
      <trkpt lat="43.13065" lon="-0.67777">
        <ele>352</ele>
      </trkpt>
      <trkpt lat="43.13049" lon="-0.67821">
        <ele>346</ele>
      </trkpt>
      <trkpt lat="43.13048" lon="-0.67829">
        <ele>346</ele>
      </trkpt>
      <trkpt lat="43.13051" lon="-0.67841">
        <ele>346</ele>
      </trkpt>
      <trkpt lat="43.13073" lon="-0.67851">
        <ele>346</ele>
      </trkpt>
      <trkpt lat="43.13127" lon="-0.67898">
        <ele>335</ele>
      </trkpt>
      <trkpt lat="43.13161" lon="-0.67948">
        <ele>335</ele>
      </trkpt>
      <trkpt lat="43.13163" lon="-0.67967">
        <ele>339</ele>
      </trkpt>
      <trkpt lat="43.13161" lon="-0.68018">
        <ele>339</ele>
      </trkpt>
      <trkpt lat="43.13158" lon="-0.68037">
        <ele>339</ele>
      </trkpt>
      <trkpt lat="43.13155" lon="-0.68117">
        <ele>334</ele>
      </trkpt>
      <trkpt lat="43.13152" lon="-0.68121">
        <ele>334</ele>
      </trkpt>
      <trkpt lat="43.13131" lon="-0.6813">
        <ele>332</ele>
      </trkpt>
      <trkpt lat="43.13121" lon="-0.68128">
        <ele>354</ele>
      </trkpt>
      <trkpt lat="43.13092" lon="-0.68091">
        <ele>356</ele>
      </trkpt>
      <trkpt lat="43.13087" lon="-0.68071">
        <ele>356</ele>
      </trkpt>
      <trkpt lat="43.13081" lon="-0.68067">
        <ele>356</ele>
      </trkpt>
      <trkpt lat="43.13076" lon="-0.68095">
        <ele>356</ele>
      </trkpt>
      <trkpt lat="43.13066" lon="-0.68122">
        <ele>356</ele>
      </trkpt>
      <trkpt lat="43.13063" lon="-0.68156">
        <ele>354</ele>
      </trkpt>
      <trkpt lat="43.13055" lon="-0.6817">
        <ele>354</ele>
      </trkpt>
      <trkpt lat="43.13059" lon="-0.68179">
        <ele>354</ele>
      </trkpt>
      <trkpt lat="43.1308" lon="-0.68262">
        <ele>352</ele>
      </trkpt>
      <trkpt lat="43.13079" lon="-0.68284">
        <ele>352</ele>
      </trkpt>
      <trkpt lat="43.1304" lon="-0.68332">
        <ele>372</ele>
      </trkpt>
      <trkpt lat="43.13026" lon="-0.68404">
        <ele>366</ele>
      </trkpt>
      <trkpt lat="43.13014" lon="-0.68435">
        <ele>366</ele>
      </trkpt>
      <trkpt lat="43.13023" lon="-0.68552">
        <ele>371</ele>
      </trkpt>
      <trkpt lat="43.13027" lon="-0.68575">
        <ele>371</ele>
      </trkpt>
      <trkpt lat="43.13062" lon="-0.68603">
        <ele>347</ele>
      </trkpt>
      <trkpt lat="43.1309" lon="-0.68619">
        <ele>347</ele>
      </trkpt>
      <trkpt lat="43.13128" lon="-0.68663">
        <ele>344</ele>
      </trkpt>
      <trkpt lat="43.13144" lon="-0.68712">
        <ele>347</ele>
      </trkpt>
      <trkpt lat="43.1314" lon="-0.68735">
        <ele>347</ele>
      </trkpt>
      <trkpt lat="43.13127" lon="-0.68776">
        <ele>347</ele>
      </trkpt>
      <trkpt lat="43.13125" lon="-0.68777">
        <ele>371</ele>
      </trkpt>
      <trkpt lat="43.13122" lon="-0.68773">
        <ele>371</ele>
      </trkpt>
      <trkpt lat="43.13124" lon="-0.68729">
        <ele>371</ele>
      </trkpt>
      <trkpt lat="43.1312" lon="-0.68717">
        <ele>371</ele>
      </trkpt>
      <trkpt lat="43.13104" lon="-0.68694">
        <ele>365</ele>
      </trkpt>
      <trkpt lat="43.13092" lon="-0.68689">
        <ele>365</ele>
      </trkpt>
      <trkpt lat="43.13092" lon="-0.68713">
        <ele>371</ele>
      </trkpt>
      <trkpt lat="43.13074" lon="-0.68744">
        <ele>371</ele>
      </trkpt>
      <trkpt lat="43.13033" lon="-0.68791">
        <ele>398</ele>
      </trkpt>
      <trkpt lat="43.12997" lon="-0.68828">
        <ele>382</ele>
      </trkpt>
      <trkpt lat="43.12976" lon="-0.68841">
        <ele>382</ele>
      </trkpt>
      <trkpt lat="43.12957" lon="-0.68849">
        <ele>399</ele>
      </trkpt>
      <trkpt lat="43.12941" lon="-0.6885">
        <ele>399</ele>
      </trkpt>
      <trkpt lat="43.1292" lon="-0.68842">
        <ele>399</ele>
      </trkpt>
      <trkpt lat="43.1289" lon="-0.68836">
        <ele>399</ele>
      </trkpt>
      <trkpt lat="43.12872" lon="-0.6884">
        <ele>402</ele>
      </trkpt>
      <trkpt lat="43.1285" lon="-0.68839">
        <ele>402</ele>
      </trkpt>
      <trkpt lat="43.12824" lon="-0.68826">
        <ele>402</ele>
      </trkpt>
      <trkpt lat="43.12817" lon="-0.68808">
        <ele>402</ele>
      </trkpt>
      <trkpt lat="43.12796" lon="-0.6877">
        <ele>423</ele>
      </trkpt>
      <trkpt lat="43.12778" lon="-0.68762">
        <ele>413</ele>
      </trkpt>
      <trkpt lat="43.12756" lon="-0.68764">
        <ele>413</ele>
      </trkpt>
      <trkpt lat="43.12725" lon="-0.68761">
        <ele>413</ele>
      </trkpt>
      <trkpt lat="43.12699" lon="-0.68744">
        <ele>414</ele>
      </trkpt>
      <trkpt lat="43.12628" lon="-0.68686">
        <ele>429</ele>
      </trkpt>
      <trkpt lat="43.12621" lon="-0.68656">
        <ele>411</ele>
      </trkpt>
      <trkpt lat="43.12623" lon="-0.68608">
        <ele>416</ele>
      </trkpt>
      <trkpt lat="43.12615" lon="-0.68578">
        <ele>416</ele>
      </trkpt>
      <trkpt lat="43.1261" lon="-0.68571">
        <ele>416</ele>
      </trkpt>
      <trkpt lat="43.12585" lon="-0.6856">
        <ele>416</ele>
      </trkpt>
      <trkpt lat="43.12489" lon="-0.68537">
        <ele>427</ele>
      </trkpt>
      <trkpt lat="43.12452" lon="-0.6852">
        <ele>410</ele>
      </trkpt>
      <trkpt lat="43.12438" lon="-0.68509">
        <ele>410</ele>
      </trkpt>
      <trkpt lat="43.12367" lon="-0.68426">
        <ele>411</ele>
      </trkpt>
      <trkpt lat="43.12342" lon="-0.68371">
        <ele>429</ele>
      </trkpt>
      <trkpt lat="43.12332" lon="-0.68305">
        <ele>429</ele>
      </trkpt>
      <trkpt lat="43.12328" lon="-0.68309">
        <ele>429</ele>
      </trkpt>
      <trkpt lat="43.12321" lon="-0.68327">
        <ele>429</ele>
      </trkpt>
      <trkpt lat="43.12307" lon="-0.68342">
        <ele>429</ele>
      </trkpt>
      <trkpt lat="43.12302" lon="-0.68352">
        <ele>429</ele>
      </trkpt>
      <trkpt lat="43.12275" lon="-0.68381">
        <ele>422</ele>
      </trkpt>
      <trkpt lat="43.1224" lon="-0.68397">
        <ele>422</ele>
      </trkpt>
      <trkpt lat="43.12205" lon="-0.68382">
        <ele>419</ele>
      </trkpt>
      <trkpt lat="43.12192" lon="-0.68367">
        <ele>434</ele>
      </trkpt>
      <trkpt lat="43.1217" lon="-0.6833">
        <ele>434</ele>
      </trkpt>
      <trkpt lat="43.12159" lon="-0.68294">
        <ele>434</ele>
      </trkpt>
      <trkpt lat="43.1215" lon="-0.68229">
        <ele>448</ele>
      </trkpt>
      <trkpt lat="43.12142" lon="-0.68206">
        <ele>467</ele>
      </trkpt>
      <trkpt lat="43.12117" lon="-0.68174">
        <ele>444</ele>
      </trkpt>
      <trkpt lat="43.12109" lon="-0.68148">
        <ele>444</ele>
      </trkpt>
      <trkpt lat="43.12104" lon="-0.68118">
        <ele>464</ele>
      </trkpt>
      <trkpt lat="43.12094" lon="-0.68092">
        <ele>464</ele>
      </trkpt>
      <trkpt lat="43.1208" lon="-0.68072">
        <ele>464</ele>
      </trkpt>
      <trkpt lat="43.1207" lon="-0.68051">
        <ele>464</ele>
      </trkpt>
      <trkpt lat="43.12057" lon="-0.68037">
        <ele>488</ele>
      </trkpt>
      <trkpt lat="43.12036" lon="-0.68036">
        <ele>479</ele>
      </trkpt>
      <trkpt lat="43.12006" lon="-0.68013">
        <ele>479</ele>
      </trkpt>
      <trkpt lat="43.11993" lon="-0.67997">
        <ele>479</ele>
      </trkpt>
      <trkpt lat="43.11977" lon="-0.67967">
        <ele>479</ele>
      </trkpt>
      <trkpt lat="43.1196" lon="-0.67925">
        <ele>500</ele>
      </trkpt>
      <trkpt lat="43.11949" lon="-0.67867">
        <ele>487</ele>
      </trkpt>
      <trkpt lat="43.11948" lon="-0.67833">
        <ele>487</ele>
      </trkpt>
      <trkpt lat="43.11956" lon="-0.67791">
        <ele>487</ele>
      </trkpt>
      <trkpt lat="43.11971" lon="-0.67744">
        <ele>516</ele>
      </trkpt>
      <trkpt lat="43.11967" lon="-0.67701">
        <ele>516</ele>
      </trkpt>
      <trkpt lat="43.11957" lon="-0.67666">
        <ele>502</ele>
      </trkpt>
      <trkpt lat="43.11915" lon="-0.67585">
        <ele>516</ele>
      </trkpt>
      <trkpt lat="43.11887" lon="-0.67553">
        <ele>516</ele>
      </trkpt>
      <trkpt lat="43.11821" lon="-0.67527">
        <ele>525</ele>
      </trkpt>
      <trkpt lat="43.11784" lon="-0.67525">
        <ele>533</ele>
      </trkpt>
      <trkpt lat="43.11745" lon="-0.67528">
        <ele>533</ele>
      </trkpt>
      <trkpt lat="43.11717" lon="-0.67524">
        <ele>533</ele>
      </trkpt>
      <trkpt lat="43.11689" lon="-0.67507">
        <ele>526</ele>
      </trkpt>
      <trkpt lat="43.11647" lon="-0.67452">
        <ele>546</ele>
      </trkpt>
      <trkpt lat="43.11619" lon="-0.67421">
        <ele>528</ele>
      </trkpt>
      <trkpt lat="43.11561" lon="-0.67371">
        <ele>547</ele>
      </trkpt>
      <trkpt lat="43.11522" lon="-0.67356">
        <ele>548</ele>
      </trkpt>
      <trkpt lat="43.11485" lon="-0.67357">
        <ele>548</ele>
      </trkpt>
      <trkpt lat="43.1145" lon="-0.67365">
        <ele>557</ele>
      </trkpt>
      <trkpt lat="43.11409" lon="-0.67384">
        <ele>534</ele>
      </trkpt>
      <trkpt lat="43.11357" lon="-0.67417">
        <ele>557</ele>
      </trkpt>
      <trkpt lat="43.11316" lon="-0.67451">
        <ele>557</ele>
      </trkpt>
      <trkpt lat="43.11276" lon="-0.67496">
        <ele>578</ele>
      </trkpt>
      <trkpt lat="43.11264" lon="-0.67518">
        <ele>578</ele>
      </trkpt>
      <trkpt lat="43.11244" lon="-0.67573">
        <ele>562</ele>
      </trkpt>
      <trkpt lat="43.11219" lon="-0.67613">
        <ele>562</ele>
      </trkpt>
      <trkpt lat="43.11197" lon="-0.67655">
        <ele>559</ele>
      </trkpt>
      <trkpt lat="43.11196" lon="-0.67781">
        <ele>555</ele>
      </trkpt>
      <trkpt lat="43.11188" lon="-0.67813">
        <ele>548</ele>
      </trkpt>
      <trkpt lat="43.11172" lon="-0.67848">
        <ele>548</ele>
      </trkpt>
      <trkpt lat="43.11095" lon="-0.67977">
        <ele>540</ele>
      </trkpt>
      <trkpt lat="43.11079" lon="-0.68019">
        <ele>540</ele>
      </trkpt>
      <trkpt lat="43.11061" lon="-0.68057">
        <ele>542</ele>
      </trkpt>
      <trkpt lat="43.11042" lon="-0.68203">
        <ele>537</ele>
      </trkpt>
      <trkpt lat="43.11042" lon="-0.68238">
        <ele>534</ele>
      </trkpt>
      <trkpt lat="43.11051" lon="-0.68282">
        <ele>534</ele>
      </trkpt>
      <trkpt lat="43.11053" lon="-0.68347">
        <ele>536</ele>
      </trkpt>
      <trkpt lat="43.1104" lon="-0.68377">
        <ele>525</ele>
      </trkpt>
      <trkpt lat="43.11035" lon="-0.68397">
        <ele>525</ele>
      </trkpt>
      <trkpt lat="43.11035" lon="-0.68407">
        <ele>525</ele>
      </trkpt>
      <trkpt lat="43.10998" lon="-0.68505">
        <ele>533</ele>
      </trkpt>
      <trkpt lat="43.10976" lon="-0.68522">
        <ele>533</ele>
      </trkpt>
      <trkpt lat="43.10945" lon="-0.68541">
        <ele>520</ele>
      </trkpt>
      <trkpt lat="43.10895" lon="-0.68596">
        <ele>540</ele>
      </trkpt>
      <trkpt lat="43.10871" lon="-0.68637">
        <ele>539</ele>
      </trkpt>
      <trkpt lat="43.10847" lon="-0.68722">
        <ele>543</ele>
      </trkpt>
      <trkpt lat="43.10851" lon="-0.68737">
        <ele>543</ele>
      </trkpt>
      <trkpt lat="43.10863" lon="-0.68815">
        <ele>546</ele>
      </trkpt>
      <trkpt lat="43.10873" lon="-0.68854">
        <ele>546</ele>
      </trkpt>
      <trkpt lat="43.10885" lon="-0.68889">
        <ele>534</ele>
      </trkpt>
      <trkpt lat="43.10884" lon="-0.68904">
        <ele>534</ele>
      </trkpt>
      <trkpt lat="43.10868" lon="-0.68991">
        <ele>543</ele>
      </trkpt>
      <trkpt lat="43.10871" lon="-0.69047">
        <ele>545</ele>
      </trkpt>
      <trkpt lat="43.10868" lon="-0.691">
        <ele>545</ele>
      </trkpt>
      <trkpt lat="43.10859" lon="-0.69163">
        <ele>535</ele>
      </trkpt>
      <trkpt lat="43.10857" lon="-0.69226">
        <ele>533</ele>
      </trkpt>
      <trkpt lat="43.1086" lon="-0.69237">
        <ele>533</ele>
      </trkpt>
      <trkpt lat="43.10868" lon="-0.69333">
        <ele>536</ele>
      </trkpt>
      <trkpt lat="43.10865" lon="-0.69341">
        <ele>536</ele>
      </trkpt>
      <trkpt lat="43.10864" lon="-0.69336">
        <ele>536</ele>
      </trkpt>
      <trkpt lat="43.10866" lon="-0.69331">
        <ele>536</ele>
      </trkpt>
      <trkpt lat="43.10863" lon="-0.69263">
        <ele>533</ele>
      </trkpt>
      <trkpt lat="43.1086" lon="-0.69238">
        <ele>533</ele>
      </trkpt>
      <trkpt lat="43.10842" lon="-0.69168">
        <ele>535</ele>
      </trkpt>
      <trkpt lat="43.10833" lon="-0.69065">
        <ele>545</ele>
      </trkpt>
      <trkpt lat="43.10833" lon="-0.69031">
        <ele>543</ele>
      </trkpt>
      <trkpt lat="43.10831" lon="-0.69023">
        <ele>543</ele>
      </trkpt>
      <trkpt lat="43.10755" lon="-0.68969">
        <ele>535</ele>
      </trkpt>
      <trkpt lat="43.10723" lon="-0.68942">
        <ele>539</ele>
      </trkpt>
      <trkpt lat="43.10697" lon="-0.68925">
        <ele>519</ele>
      </trkpt>
      <trkpt lat="43.1067" lon="-0.68898">
        <ele>519</ele>
      </trkpt>
      <trkpt lat="43.10655" lon="-0.68878">
        <ele>519</ele>
      </trkpt>
      <trkpt lat="43.10649" lon="-0.68863">
        <ele>518</ele>
      </trkpt>
      <trkpt lat="43.10646" lon="-0.68861">
        <ele>518</ele>
      </trkpt>
      <trkpt lat="43.10639" lon="-0.68864">
        <ele>518</ele>
      </trkpt>
      <trkpt lat="43.10626" lon="-0.68877">
        <ele>519</ele>
      </trkpt>
      <trkpt lat="43.10599" lon="-0.68891">
        <ele>498</ele>
      </trkpt>
      <trkpt lat="43.10569" lon="-0.6889">
        <ele>498</ele>
      </trkpt>
      <trkpt lat="43.1055" lon="-0.68885">
        <ele>498</ele>
      </trkpt>
      <trkpt lat="43.10519" lon="-0.68861">
        <ele>485</ele>
      </trkpt>
      <trkpt lat="43.10514" lon="-0.68854">
        <ele>485</ele>
      </trkpt>
      <trkpt lat="43.105" lon="-0.68812">
        <ele>485</ele>
      </trkpt>
      <trkpt lat="43.10481" lon="-0.68779">
        <ele>472</ele>
      </trkpt>
      <trkpt lat="43.10469" lon="-0.68766">
        <ele>472</ele>
      </trkpt>
      <trkpt lat="43.10403" lon="-0.68719">
        <ele>466</ele>
      </trkpt>
      <trkpt lat="43.10328" lon="-0.68677">
        <ele>450</ele>
      </trkpt>
      <trkpt lat="43.10313" lon="-0.68661">
        <ele>450</ele>
      </trkpt>
      <trkpt lat="43.10306" lon="-0.68647">
        <ele>450</ele>
      </trkpt>
      <trkpt lat="43.10296" lon="-0.68589">
        <ele>438</ele>
      </trkpt>
      <trkpt lat="43.1029" lon="-0.68567">
        <ele>438</ele>
      </trkpt>
      <trkpt lat="43.10287" lon="-0.68538">
        <ele>426</ele>
      </trkpt>
      <trkpt lat="43.10288" lon="-0.68515">
        <ele>426</ele>
      </trkpt>
      <trkpt lat="43.10281" lon="-0.68492">
        <ele>426</ele>
      </trkpt>
      <trkpt lat="43.10261" lon="-0.68469">
        <ele>426</ele>
      </trkpt>
      <trkpt lat="43.10232" lon="-0.6842">
        <ele>415</ele>
      </trkpt>
      <trkpt lat="43.10223" lon="-0.68416">
        <ele>415</ele>
      </trkpt>
      <trkpt lat="43.10214" lon="-0.68421">
        <ele>415</ele>
      </trkpt>
      <trkpt lat="43.10174" lon="-0.68455">
        <ele>413</ele>
      </trkpt>
      <trkpt lat="43.1016" lon="-0.68462">
        <ele>422</ele>
      </trkpt>
      <trkpt lat="43.10098" lon="-0.68476">
        <ele>414</ele>
      </trkpt>
      <trkpt lat="43.10067" lon="-0.68469">
        <ele>414</ele>
      </trkpt>
      <trkpt lat="43.09975" lon="-0.68435">
        <ele>404</ele>
      </trkpt>
      <trkpt lat="43.09943" lon="-0.68429">
        <ele>404</ele>
      </trkpt>
      <trkpt lat="43.09942" lon="-0.68419">
        <ele>404</ele>
      </trkpt>
      <trkpt lat="43.09946" lon="-0.68432">
        <ele>404</ele>
      </trkpt>
      <trkpt lat="43.09964" lon="-0.6843">
        <ele>404</ele>
      </trkpt>
      <trkpt lat="43.10012" lon="-0.68444">
        <ele>404</ele>
      </trkpt>
      <trkpt lat="43.10013" lon="-0.68442">
        <ele>404</ele>
      </trkpt>
      <trkpt lat="43.1" lon="-0.68398">
        <ele>404</ele>
      </trkpt>
      <trkpt lat="43.09993" lon="-0.68365">
        <ele>396</ele>
      </trkpt>
      <trkpt lat="43.09988" lon="-0.68328">
        <ele>396</ele>
      </trkpt>
      <trkpt lat="43.09987" lon="-0.68288">
        <ele>393</ele>
      </trkpt>
      <trkpt lat="43.09983" lon="-0.68245">
        <ele>393</ele>
      </trkpt>
      <trkpt lat="43.09978" lon="-0.68224">
        <ele>393</ele>
      </trkpt>
      <trkpt lat="43.09949" lon="-0.68191">
        <ele>386</ele>
      </trkpt>
      <trkpt lat="43.0993" lon="-0.68178">
        <ele>386</ele>
      </trkpt>
      <trkpt lat="43.09908" lon="-0.6817">
        <ele>386</ele>
      </trkpt>
      <trkpt lat="43.09891" lon="-0.68171">
        <ele>386</ele>
      </trkpt>
      <trkpt lat="43.0988" lon="-0.68166">
        <ele>386</ele>
      </trkpt>
      <trkpt lat="43.09851" lon="-0.68123">
        <ele>373</ele>
      </trkpt>
      <trkpt lat="43.09832" lon="-0.68101">
        <ele>373</ele>
      </trkpt>
      <trkpt lat="43.09816" lon="-0.68097">
        <ele>373</ele>
      </trkpt>
      <trkpt lat="43.09805" lon="-0.68086">
        <ele>373</ele>
      </trkpt>
      <trkpt lat="43.09779" lon="-0.68074">
        <ele>385</ele>
      </trkpt>
      <trkpt lat="43.09761" lon="-0.6806">
        <ele>385</ele>
      </trkpt>
      <trkpt lat="43.09725" lon="-0.68043">
        <ele>385</ele>
      </trkpt>
      <trkpt lat="43.09703" lon="-0.68037">
        <ele>365</ele>
      </trkpt>
      <trkpt lat="43.09679" lon="-0.68019">
        <ele>365</ele>
      </trkpt>
      <trkpt lat="43.09667" lon="-0.68015">
        <ele>365</ele>
      </trkpt>
      <trkpt lat="43.09653" lon="-0.68023">
        <ele>365</ele>
      </trkpt>
      <trkpt lat="43.09645" lon="-0.68034">
        <ele>365</ele>
      </trkpt>
      <trkpt lat="43.09631" lon="-0.68063">
        <ele>380</ele>
      </trkpt>
      <trkpt lat="43.09621" lon="-0.68073">
        <ele>360</ele>
      </trkpt>
      <trkpt lat="43.09591" lon="-0.68091">
        <ele>360</ele>
      </trkpt>
      <trkpt lat="43.09575" lon="-0.68097">
        <ele>360</ele>
      </trkpt>
      <trkpt lat="43.09556" lon="-0.68099">
        <ele>360</ele>
      </trkpt>
      <trkpt lat="43.09551" lon="-0.68086">
        <ele>360</ele>
      </trkpt>
      <trkpt lat="43.09558" lon="-0.67969">
        <ele>349</ele>
      </trkpt>
      <trkpt lat="43.09583" lon="-0.67284">
        <ele>351</ele>
      </trkpt>
      <trkpt lat="43.09592" lon="-0.67243">
        <ele>351</ele>
      </trkpt>
      <trkpt lat="43.096" lon="-0.67228">
        <ele>351</ele>
      </trkpt>
      <trkpt lat="43.09638" lon="-0.6719">
        <ele>335</ele>
      </trkpt>
      <trkpt lat="43.0967" lon="-0.67152">
        <ele>335</ele>
      </trkpt>
      <trkpt lat="43.09678" lon="-0.67102">
        <ele>338</ele>
      </trkpt>
      <trkpt lat="43.09672" lon="-0.67039">
        <ele>341</ele>
      </trkpt>
      <trkpt lat="43.09687" lon="-0.66979">
        <ele>341</ele>
      </trkpt>
      <trkpt lat="43.09719" lon="-0.66896">
        <ele>336</ele>
      </trkpt>
      <trkpt lat="43.09774" lon="-0.66785">
        <ele>326</ele>
      </trkpt>
      <trkpt lat="43.0984" lon="-0.66683">
        <ele>333</ele>
      </trkpt>
      <trkpt lat="43.09938" lon="-0.66541">
        <ele>330</ele>
      </trkpt>
      <trkpt lat="43.09989" lon="-0.66449">
        <ele>329</ele>
      </trkpt>
      <trkpt lat="43.10048" lon="-0.66326">
        <ele>333</ele>
      </trkpt>
      <trkpt lat="43.10089" lon="-0.66252">
        <ele>331</ele>
      </trkpt>
      <trkpt lat="43.10116" lon="-0.66216">
        <ele>331</ele>
      </trkpt>
      <trkpt lat="43.10114" lon="-0.66132">
        <ele>328</ele>
      </trkpt>
      <trkpt lat="43.101" lon="-0.66076">
        <ele>323</ele>
      </trkpt>
      <trkpt lat="43.10096" lon="-0.6607">
        <ele>323</ele>
      </trkpt>
      <trkpt lat="43.10092" lon="-0.66074">
        <ele>323</ele>
      </trkpt>
      <trkpt lat="43.10093" lon="-0.66076">
        <ele>323</ele>
      </trkpt>
      <trkpt lat="43.10093" lon="-0.66072">
        <ele>323</ele>
      </trkpt>
      <trkpt lat="43.10095" lon="-0.66073">
        <ele>323</ele>
      </trkpt>
      <trkpt lat="43.10095" lon="-0.66084">
        <ele>323</ele>
      </trkpt>
      <trkpt lat="43.1009" lon="-0.66087">
        <ele>323</ele>
      </trkpt>
      <trkpt lat="43.10052" lon="-0.66064">
        <ele>323</ele>
      </trkpt>
      <trkpt lat="43.10035" lon="-0.6606">
        <ele>313</ele>
      </trkpt>
      <trkpt lat="43.1003" lon="-0.66056">
        <ele>313</ele>
      </trkpt>
      <trkpt lat="43.10027" lon="-0.66049">
        <ele>313</ele>
      </trkpt>
      <trkpt lat="43.10023" lon="-0.6602">
        <ele>308</ele>
      </trkpt>
      <trkpt lat="43.10022" lon="-0.65969">
        <ele>308</ele>
      </trkpt>
      <trkpt lat="43.10015" lon="-0.65951">
        <ele>304</ele>
      </trkpt>
      <trkpt lat="43.10005" lon="-0.6594">
        <ele>304</ele>
      </trkpt>
      <trkpt lat="43.09993" lon="-0.65932">
        <ele>304</ele>
      </trkpt>
      <trkpt lat="43.09989" lon="-0.65926">
        <ele>304</ele>
      </trkpt>
      <trkpt lat="43.09985" lon="-0.65907">
        <ele>304</ele>
      </trkpt>
      <trkpt lat="43.09976" lon="-0.65774">
        <ele>305</ele>
      </trkpt>
      <trkpt lat="43.09961" lon="-0.65749">
        <ele>305</ele>
      </trkpt>
      <trkpt lat="43.0996" lon="-0.65744">
        <ele>305</ele>
      </trkpt>
      <trkpt lat="43.09956" lon="-0.6574">
        <ele>314</ele>
      </trkpt>
      <trkpt lat="43.09941" lon="-0.65737">
        <ele>314</ele>
      </trkpt>
      <trkpt lat="43.0993" lon="-0.65743">
        <ele>314</ele>
      </trkpt>
      <trkpt lat="43.09911" lon="-0.6576">
        <ele>314</ele>
      </trkpt>
      <trkpt lat="43.09888" lon="-0.65767">
        <ele>314</ele>
      </trkpt>
      <trkpt lat="43.09869" lon="-0.65762">
        <ele>329</ele>
      </trkpt>
      <trkpt lat="43.09851" lon="-0.65752">
        <ele>329</ele>
      </trkpt>
      <trkpt lat="43.0983" lon="-0.65751">
        <ele>329</ele>
      </trkpt>
      <trkpt lat="43.09804" lon="-0.65756">
        <ele>329</ele>
      </trkpt>
      <trkpt lat="43.09721" lon="-0.65763">
        <ele>345</ele>
      </trkpt>
      <trkpt lat="43.09715" lon="-0.65767">
        <ele>345</ele>
      </trkpt>
      <trkpt lat="43.09701" lon="-0.65769">
        <ele>356</ele>
      </trkpt>
      <trkpt lat="43.09689" lon="-0.65766">
        <ele>356</ele>
      </trkpt>
      <trkpt lat="43.09679" lon="-0.6574">
        <ele>356</ele>
      </trkpt>
      <trkpt lat="43.09674" lon="-0.65739">
        <ele>356</ele>
      </trkpt>
      <trkpt lat="43.09657" lon="-0.65754">
        <ele>356</ele>
      </trkpt>
      <trkpt lat="43.0964" lon="-0.65779">
        <ele>356</ele>
      </trkpt>
      <trkpt lat="43.09618" lon="-0.65796">
        <ele>357</ele>
      </trkpt>
      <trkpt lat="43.09592" lon="-0.658">
        <ele>357</ele>
      </trkpt>
      <trkpt lat="43.09585" lon="-0.65804">
        <ele>357</ele>
      </trkpt>
      <trkpt lat="43.09584" lon="-0.65809">
        <ele>357</ele>
      </trkpt>
      <trkpt lat="43.09564" lon="-0.65823">
        <ele>357</ele>
      </trkpt>
      <trkpt lat="43.09525" lon="-0.65869">
        <ele>373</ele>
      </trkpt>
      <trkpt lat="43.09507" lon="-0.65874">
        <ele>373</ele>
      </trkpt>
      <trkpt lat="43.09482" lon="-0.6589">
        <ele>381</ele>
      </trkpt>
      <trkpt lat="43.09473" lon="-0.65903">
        <ele>381</ele>
      </trkpt>
      <trkpt lat="43.09452" lon="-0.65914">
        <ele>388</ele>
      </trkpt>
      <trkpt lat="43.09425" lon="-0.65923">
        <ele>388</ele>
      </trkpt>
      <trkpt lat="43.09408" lon="-0.65925">
        <ele>388</ele>
      </trkpt>
      <trkpt lat="43.09404" lon="-0.65928">
        <ele>388</ele>
      </trkpt>
      <trkpt lat="43.09389" lon="-0.65929">
        <ele>388</ele>
      </trkpt>
      <trkpt lat="43.09326" lon="-0.65905">
        <ele>397</ele>
      </trkpt>
      <trkpt lat="43.09307" lon="-0.65889">
        <ele>397</ele>
      </trkpt>
      <trkpt lat="43.09287" lon="-0.65883">
        <ele>416</ele>
      </trkpt>
      <trkpt lat="43.09255" lon="-0.65883">
        <ele>416</ele>
      </trkpt>
      <trkpt lat="43.09239" lon="-0.65875">
        <ele>407</ele>
      </trkpt>
      <trkpt lat="43.09227" lon="-0.65876">
        <ele>416</ele>
      </trkpt>
      <trkpt lat="43.09192" lon="-0.65867">
        <ele>415</ele>
      </trkpt>
      <trkpt lat="43.09173" lon="-0.65878">
        <ele>419</ele>
      </trkpt>
      <trkpt lat="43.09153" lon="-0.65901">
        <ele>419</ele>
      </trkpt>
      <trkpt lat="43.09121" lon="-0.65921">
        <ele>420</ele>
      </trkpt>
      <trkpt lat="43.09087" lon="-0.65952">
        <ele>420</ele>
      </trkpt>
      <trkpt lat="43.09076" lon="-0.65959">
        <ele>428</ele>
      </trkpt>
      <trkpt lat="43.09031" lon="-0.65977">
        <ele>432</ele>
      </trkpt>
      <trkpt lat="43.08998" lon="-0.6598">
        <ele>432</ele>
      </trkpt>
      <trkpt lat="43.08994" lon="-0.65999">
        <ele>432</ele>
      </trkpt>
      <trkpt lat="43.08984" lon="-0.66003">
        <ele>432</ele>
      </trkpt>
      <trkpt lat="43.08947" lon="-0.65967">
        <ele>448</ele>
      </trkpt>
      <trkpt lat="43.08931" lon="-0.65963">
        <ele>448</ele>
      </trkpt>
      <trkpt lat="43.08913" lon="-0.65991">
        <ele>448</ele>
      </trkpt>
      <trkpt lat="43.08884" lon="-0.66018">
        <ele>448</ele>
      </trkpt>
      <trkpt lat="43.08863" lon="-0.66025">
        <ele>454</ele>
      </trkpt>
      <trkpt lat="43.08853" lon="-0.66023">
        <ele>454</ele>
      </trkpt>
      <trkpt lat="43.08849" lon="-0.66013">
        <ele>454</ele>
      </trkpt>
      <trkpt lat="43.0885" lon="-0.6595">
        <ele>455</ele>
      </trkpt>
      <trkpt lat="43.08853" lon="-0.65907">
        <ele>455</ele>
      </trkpt>
      <trkpt lat="43.08869" lon="-0.65771">
        <ele>467</ele>
      </trkpt>
      <trkpt lat="43.08865" lon="-0.65747">
        <ele>467</ele>
      </trkpt>
      <trkpt lat="43.08863" lon="-0.65697">
        <ele>477</ele>
      </trkpt>
      <trkpt lat="43.08865" lon="-0.65682">
        <ele>477</ele>
      </trkpt>
      <trkpt lat="43.08863" lon="-0.65639">
        <ele>477</ele>
      </trkpt>
      <trkpt lat="43.08859" lon="-0.65611">
        <ele>483</ele>
      </trkpt>
      <trkpt lat="43.08855" lon="-0.65602">
        <ele>483</ele>
      </trkpt>
      <trkpt lat="43.08861" lon="-0.65573">
        <ele>483</ele>
      </trkpt>
      <trkpt lat="43.08872" lon="-0.65549">
        <ele>483</ele>
      </trkpt>
      <trkpt lat="43.08888" lon="-0.65535">
        <ele>494</ele>
      </trkpt>
      <trkpt lat="43.0889" lon="-0.65524">
        <ele>494</ele>
      </trkpt>
      <trkpt lat="43.08881" lon="-0.65503">
        <ele>494</ele>
      </trkpt>
      <trkpt lat="43.08859" lon="-0.65476">
        <ele>498</ele>
      </trkpt>
      <trkpt lat="43.08837" lon="-0.65457">
        <ele>517</ele>
      </trkpt>
      <trkpt lat="43.08803" lon="-0.6542">
        <ele>517</ele>
      </trkpt>
      <trkpt lat="43.08735" lon="-0.65322">
        <ele>531</ele>
      </trkpt>
      <trkpt lat="43.08702" lon="-0.65285">
        <ele>539</ele>
      </trkpt>
      <trkpt lat="43.08684" lon="-0.6526">
        <ele>539</ele>
      </trkpt>
      <trkpt lat="43.08628" lon="-0.65203">
        <ele>562</ele>
      </trkpt>
      <trkpt lat="43.08567" lon="-0.65157">
        <ele>550</ele>
      </trkpt>
      <trkpt lat="43.08488" lon="-0.65106">
        <ele>560</ele>
      </trkpt>
      <trkpt lat="43.08463" lon="-0.65067">
        <ele>560</ele>
      </trkpt>
      <trkpt lat="43.08432" lon="-0.65025">
        <ele>559</ele>
      </trkpt>
      <trkpt lat="43.08402" lon="-0.64978">
        <ele>559</ele>
      </trkpt>
      <trkpt lat="43.08383" lon="-0.64939">
        <ele>586</ele>
      </trkpt>
      <trkpt lat="43.08335" lon="-0.64856">
        <ele>576</ele>
      </trkpt>
      <trkpt lat="43.08289" lon="-0.6476">
        <ele>572</ele>
      </trkpt>
      <trkpt lat="43.08262" lon="-0.64712">
        <ele>572</ele>
      </trkpt>
      <trkpt lat="43.08253" lon="-0.64701">
        <ele>599</ele>
      </trkpt>
      <trkpt lat="43.08235" lon="-0.64671">
        <ele>599</ele>
      </trkpt>
      <trkpt lat="43.08202" lon="-0.64605">
        <ele>602</ele>
      </trkpt>
      <trkpt lat="43.08124" lon="-0.64522">
        <ele>615</ele>
      </trkpt>
      <trkpt lat="43.08075" lon="-0.64486">
        <ele>615</ele>
      </trkpt>
      <trkpt lat="43.08049" lon="-0.64462">
        <ele>615</ele>
      </trkpt>
      <trkpt lat="43.07989" lon="-0.64367">
        <ele>638</ele>
      </trkpt>
      <trkpt lat="43.07975" lon="-0.6434">
        <ele>638</ele>
      </trkpt>
      <trkpt lat="43.07931" lon="-0.64267">
        <ele>636</ele>
      </trkpt>
      <trkpt lat="43.07893" lon="-0.64227">
        <ele>636</ele>
      </trkpt>
      <trkpt lat="43.07875" lon="-0.64203">
        <ele>639</ele>
      </trkpt>
      <trkpt lat="43.07874" lon="-0.64198">
        <ele>630</ele>
      </trkpt>
      <trkpt lat="43.07877" lon="-0.64188">
        <ele>639</ele>
      </trkpt>
      <trkpt lat="43.07877" lon="-0.6419">
        <ele>639</ele>
      </trkpt>
      <trkpt lat="43.07875" lon="-0.64189">
        <ele>639</ele>
      </trkpt>
      <trkpt lat="43.07888" lon="-0.6414">
        <ele>639</ele>
      </trkpt>
      <trkpt lat="43.07916" lon="-0.64097">
        <ele>639</ele>
      </trkpt>
      <trkpt lat="43.07938" lon="-0.64035">
        <ele>633</ele>
      </trkpt>
      <trkpt lat="43.07947" lon="-0.64037">
        <ele>633</ele>
      </trkpt>
      <trkpt lat="43.07954" lon="-0.64077">
        <ele>639</ele>
      </trkpt>
      <trkpt lat="43.07957" lon="-0.64112">
        <ele>639</ele>
      </trkpt>
      <trkpt lat="43.07961" lon="-0.64115">
        <ele>669</ele>
      </trkpt>
      <trkpt lat="43.07965" lon="-0.64114">
        <ele>669</ele>
      </trkpt>
      <trkpt lat="43.07997" lon="-0.64042">
        <ele>669</ele>
      </trkpt>
      <trkpt lat="43.08025" lon="-0.64004">
        <ele>663</ele>
      </trkpt>
      <trkpt lat="43.08054" lon="-0.63941">
        <ele>693</ele>
      </trkpt>
      <trkpt lat="43.08073" lon="-0.63912">
        <ele>693</ele>
      </trkpt>
      <trkpt lat="43.08101" lon="-0.63818">
        <ele>682</ele>
      </trkpt>
      <trkpt lat="43.08124" lon="-0.63789">
        <ele>668</ele>
      </trkpt>
      <trkpt lat="43.08144" lon="-0.63754">
        <ele>700</ele>
      </trkpt>
      <trkpt lat="43.08181" lon="-0.63647">
        <ele>691</ele>
      </trkpt>
      <trkpt lat="43.08179" lon="-0.63594">
        <ele>693</ele>
      </trkpt>
      <trkpt lat="43.0817" lon="-0.63558">
        <ele>693</ele>
      </trkpt>
      <trkpt lat="43.08165" lon="-0.63551">
        <ele>693</ele>
      </trkpt>
      <trkpt lat="43.08165" lon="-0.63391">
        <ele>685</ele>
      </trkpt>
      <trkpt lat="43.08171" lon="-0.63377">
        <ele>685</ele>
      </trkpt>
      <trkpt lat="43.08189" lon="-0.63355">
        <ele>677</ele>
      </trkpt>
      <trkpt lat="43.08165" lon="-0.63374">
        <ele>677</ele>
      </trkpt>
      <trkpt lat="43.08163" lon="-0.63371">
        <ele>677</ele>
      </trkpt>
      <trkpt lat="43.08161" lon="-0.63342">
        <ele>677</ele>
      </trkpt>
      <trkpt lat="43.08171" lon="-0.63281">
        <ele>668</ele>
      </trkpt>
      <trkpt lat="43.08184" lon="-0.6326">
        <ele>668</ele>
      </trkpt>
      <trkpt lat="43.08224" lon="-0.63222">
        <ele>682</ele>
      </trkpt>
      <trkpt lat="43.08266" lon="-0.63192">
        <ele>680</ele>
      </trkpt>
      <trkpt lat="43.08294" lon="-0.63165">
        <ele>688</ele>
      </trkpt>
      <trkpt lat="43.08303" lon="-0.6308">
        <ele>682</ele>
      </trkpt>
      <trkpt lat="43.08311" lon="-0.63035">
        <ele>670</ele>
      </trkpt>
      <trkpt lat="43.08309" lon="-0.62966">
        <ele>670</ele>
      </trkpt>
      <trkpt lat="43.08317" lon="-0.62935">
        <ele>655</ele>
      </trkpt>
      <trkpt lat="43.08327" lon="-0.62921">
        <ele>655</ele>
      </trkpt>
      <trkpt lat="43.08343" lon="-0.62913">
        <ele>655</ele>
      </trkpt>
      <trkpt lat="43.08357" lon="-0.62912">
        <ele>655</ele>
      </trkpt>
      <trkpt lat="43.08364" lon="-0.62907">
        <ele>655</ele>
      </trkpt>
      <trkpt lat="43.08383" lon="-0.62902">
        <ele>643</ele>
      </trkpt>
      <trkpt lat="43.08398" lon="-0.62903">
        <ele>643</ele>
      </trkpt>
      <trkpt lat="43.08408" lon="-0.62889">
        <ele>643</ele>
      </trkpt>
      <trkpt lat="43.08405" lon="-0.62846">
        <ele>638</ele>
      </trkpt>
      <trkpt lat="43.08409" lon="-0.62832">
        <ele>638</ele>
      </trkpt>
      <trkpt lat="43.08424" lon="-0.62806">
        <ele>638</ele>
      </trkpt>
      <trkpt lat="43.08425" lon="-0.62793">
        <ele>638</ele>
      </trkpt>
      <trkpt lat="43.08417" lon="-0.62781">
        <ele>628</ele>
      </trkpt>
      <trkpt lat="43.08384" lon="-0.62755">
        <ele>628</ele>
      </trkpt>
      <trkpt lat="43.08378" lon="-0.62735">
        <ele>628</ele>
      </trkpt>
      <trkpt lat="43.0839" lon="-0.62715">
        <ele>628</ele>
      </trkpt>
      <trkpt lat="43.08402" lon="-0.62674">
        <ele>611</ele>
      </trkpt>
      <trkpt lat="43.08411" lon="-0.62658">
        <ele>611</ele>
      </trkpt>
      <trkpt lat="43.0843" lon="-0.62645">
        <ele>611</ele>
      </trkpt>
      <trkpt lat="43.08438" lon="-0.62632">
        <ele>611</ele>
      </trkpt>
      <trkpt lat="43.08446" lon="-0.62606">
        <ele>604</ele>
      </trkpt>
      <trkpt lat="43.08475" lon="-0.62567">
        <ele>593</ele>
      </trkpt>
      <trkpt lat="43.08488" lon="-0.62537">
        <ele>594</ele>
      </trkpt>
      <trkpt lat="43.08506" lon="-0.62508">
        <ele>594</ele>
      </trkpt>
      <trkpt lat="43.08514" lon="-0.62484">
        <ele>594</ele>
      </trkpt>
      <trkpt lat="43.08532" lon="-0.62405">
        <ele>592</ele>
      </trkpt>
      <trkpt lat="43.08534" lon="-0.62342">
        <ele>587</ele>
      </trkpt>
      <trkpt lat="43.08523" lon="-0.62282">
        <ele>575</ele>
      </trkpt>
      <trkpt lat="43.08509" lon="-0.62249">
        <ele>575</ele>
      </trkpt>
      <trkpt lat="43.08494" lon="-0.62221">
        <ele>575</ele>
      </trkpt>
      <trkpt lat="43.08444" lon="-0.6215">
        <ele>570</ele>
      </trkpt>
      <trkpt lat="43.08415" lon="-0.62128">
        <ele>570</ele>
      </trkpt>
      <trkpt lat="43.08406" lon="-0.62124">
        <ele>564</ele>
      </trkpt>
      <trkpt lat="43.08393" lon="-0.62125">
        <ele>564</ele>
      </trkpt>
      <trkpt lat="43.0836" lon="-0.62153">
        <ele>554</ele>
      </trkpt>
      <trkpt lat="43.08327" lon="-0.62203">
        <ele>554</ele>
      </trkpt>
      <trkpt lat="43.08292" lon="-0.62276">
        <ele>566</ele>
      </trkpt>
      <trkpt lat="43.08291" lon="-0.62283">
        <ele>539</ele>
      </trkpt>
      <trkpt lat="43.08297" lon="-0.62286">
        <ele>566</ele>
      </trkpt>
      <trkpt lat="43.08293" lon="-0.62273">
        <ele>566</ele>
      </trkpt>
      <trkpt lat="43.08291" lon="-0.62272">
        <ele>539</ele>
      </trkpt>
      <trkpt lat="43.08271" lon="-0.62324">
        <ele>547</ele>
      </trkpt>
      <trkpt lat="43.08258" lon="-0.62379">
        <ele>555</ele>
      </trkpt>
      <trkpt lat="43.08223" lon="-0.62474">
        <ele>566</ele>
      </trkpt>
      <trkpt lat="43.0822" lon="-0.62474">
        <ele>566</ele>
      </trkpt>
      <trkpt lat="43.08197" lon="-0.62406">
        <ele>519</ele>
      </trkpt>
      <trkpt lat="43.08194" lon="-0.62407">
        <ele>519</ele>
      </trkpt>
      <trkpt lat="43.08168" lon="-0.62446">
        <ele>519</ele>
      </trkpt>
      <trkpt lat="43.08163" lon="-0.62463">
        <ele>533</ele>
      </trkpt>
      <trkpt lat="43.0811" lon="-0.62511">
        <ele>491</ele>
      </trkpt>
      <trkpt lat="43.08104" lon="-0.62523">
        <ele>491</ele>
      </trkpt>
      <trkpt lat="43.08091" lon="-0.62564">
        <ele>507</ele>
      </trkpt>
      <trkpt lat="43.08085" lon="-0.62574">
        <ele>507</ele>
      </trkpt>
      <trkpt lat="43.08089" lon="-0.62555">
        <ele>507</ele>
      </trkpt>
      <trkpt lat="43.08089" lon="-0.62537">
        <ele>491</ele>
      </trkpt>
      <trkpt lat="43.08093" lon="-0.62509">
        <ele>491</ele>
      </trkpt>
      <trkpt lat="43.081" lon="-0.62494">
        <ele>491</ele>
      </trkpt>
      <trkpt lat="43.08101" lon="-0.62486">
        <ele>491</ele>
      </trkpt>
      <trkpt lat="43.08099" lon="-0.62484">
        <ele>491</ele>
      </trkpt>
      <trkpt lat="43.08095" lon="-0.62487">
        <ele>491</ele>
      </trkpt>
      <trkpt lat="43.08078" lon="-0.62516">
        <ele>491</ele>
      </trkpt>
      <trkpt lat="43.08068" lon="-0.6255">
        <ele>507</ele>
      </trkpt>
      <trkpt lat="43.08039" lon="-0.62591">
        <ele>462</ele>
      </trkpt>
      <trkpt lat="43.08011" lon="-0.62662">
        <ele>475</ele>
      </trkpt>
      <trkpt lat="43.07992" lon="-0.62689">
        <ele>475</ele>
      </trkpt>
      <trkpt lat="43.0799" lon="-0.62709">
        <ele>493</ele>
      </trkpt>
      <trkpt lat="43.07987" lon="-0.62718">
        <ele>493</ele>
      </trkpt>
      <trkpt lat="43.07952" lon="-0.62753">
        <ele>461</ele>
      </trkpt>
      <trkpt lat="43.07935" lon="-0.62787">
        <ele>461</ele>
      </trkpt>
      <trkpt lat="43.07885" lon="-0.62841">
        <ele>475</ele>
      </trkpt>
      <trkpt lat="43.07864" lon="-0.62875">
        <ele>476</ele>
      </trkpt>
      <trkpt lat="43.07848" lon="-0.62911">
        <ele>476</ele>
      </trkpt>
      <trkpt lat="43.07846" lon="-0.6291">
        <ele>476</ele>
      </trkpt>
      <trkpt lat="43.0785" lon="-0.62904">
        <ele>476</ele>
      </trkpt>
      <trkpt lat="43.07844" lon="-0.62877">
        <ele>476</ele>
      </trkpt>
      <trkpt lat="43.07844" lon="-0.62859">
        <ele>472</ele>
      </trkpt>
      <trkpt lat="43.07858" lon="-0.62777">
        <ele>477</ele>
      </trkpt>
      <trkpt lat="43.07866" lon="-0.62755">
        <ele>477</ele>
      </trkpt>
      <trkpt lat="43.0787" lon="-0.62672">
        <ele>478</ele>
      </trkpt>
      <trkpt lat="43.07878" lon="-0.62636">
        <ele>449</ele>
      </trkpt>
      <trkpt lat="43.07879" lon="-0.62578">
        <ele>438</ele>
      </trkpt>
      <trkpt lat="43.07875" lon="-0.62561">
        <ele>438</ele>
      </trkpt>
      <trkpt lat="43.07874" lon="-0.62546">
        <ele>475</ele>
      </trkpt>
      <trkpt lat="43.07876" lon="-0.62531">
        <ele>435</ele>
      </trkpt>
      <trkpt lat="43.07898" lon="-0.62452">
        <ele>429</ele>
      </trkpt>
      <trkpt lat="43.07903" lon="-0.62415">
        <ele>429</ele>
      </trkpt>
      <trkpt lat="43.079" lon="-0.62389">
        <ele>429</ele>
      </trkpt>
      <trkpt lat="43.07908" lon="-0.62334">
        <ele>421</ele>
      </trkpt>
      <trkpt lat="43.07906" lon="-0.62307">
        <ele>421</ele>
      </trkpt>
      <trkpt lat="43.07907" lon="-0.62244">
        <ele>413</ele>
      </trkpt>
      <trkpt lat="43.07909" lon="-0.62225">
        <ele>413</ele>
      </trkpt>
      <trkpt lat="43.07909" lon="-0.62185">
        <ele>412</ele>
      </trkpt>
      <trkpt lat="43.07918" lon="-0.62145">
        <ele>412</ele>
      </trkpt>
      <trkpt lat="43.07927" lon="-0.62116">
        <ele>413</ele>
      </trkpt>
      <trkpt lat="43.07942" lon="-0.6208">
        <ele>413</ele>
      </trkpt>
      <trkpt lat="43.07952" lon="-0.62041">
        <ele>412</ele>
      </trkpt>
      <trkpt lat="43.0795" lon="-0.61998">
        <ele>412</ele>
      </trkpt>
      <trkpt lat="43.07955" lon="-0.61951">
        <ele>413</ele>
      </trkpt>
      <trkpt lat="43.07964" lon="-0.61912">
        <ele>379</ele>
      </trkpt>
      <trkpt lat="43.07978" lon="-0.61865">
        <ele>374</ele>
      </trkpt>
      <trkpt lat="43.0799" lon="-0.61833">
        <ele>374</ele>
      </trkpt>
      <trkpt lat="43.07994" lon="-0.61813">
        <ele>374</ele>
      </trkpt>
      <trkpt lat="43.0801" lon="-0.6177">
        <ele>372</ele>
      </trkpt>
      <trkpt lat="43.08014" lon="-0.61743">
        <ele>372</ele>
      </trkpt>
      <trkpt lat="43.0801" lon="-0.61735">
        <ele>372</ele>
      </trkpt>
      <trkpt lat="43.08007" lon="-0.61718">
        <ele>372</ele>
      </trkpt>
      <trkpt lat="43.08017" lon="-0.61687">
        <ele>375</ele>
      </trkpt>
      <trkpt lat="43.08033" lon="-0.61653">
        <ele>375</ele>
      </trkpt>
      <trkpt lat="43.08075" lon="-0.61578">
        <ele>357</ele>
      </trkpt>
      <trkpt lat="43.08086" lon="-0.61537">
        <ele>346</ele>
      </trkpt>
      <trkpt lat="43.08102" lon="-0.61511">
        <ele>346</ele>
      </trkpt>
      <trkpt lat="43.08128" lon="-0.61487">
        <ele>340</ele>
      </trkpt>
      <trkpt lat="43.08133" lon="-0.61473">
        <ele>340</ele>
      </trkpt>
      <trkpt lat="43.08136" lon="-0.61454">
        <ele>320</ele>
      </trkpt>
      <trkpt lat="43.08131" lon="-0.61394">
        <ele>320</ele>
      </trkpt>
      <trkpt lat="43.08127" lon="-0.61371">
        <ele>315</ele>
      </trkpt>
      <trkpt lat="43.08081" lon="-0.61306">
        <ele>322</ele>
      </trkpt>
      <trkpt lat="43.07983" lon="-0.6125">
        <ele>318</ele>
      </trkpt>
      <trkpt lat="43.07936" lon="-0.61218">
        <ele>325</ele>
      </trkpt>
      <trkpt lat="43.0792" lon="-0.61213">
        <ele>325</ele>
      </trkpt>
      <trkpt lat="43.07843" lon="-0.61213">
        <ele>330</ele>
      </trkpt>
      <trkpt lat="43.07766" lon="-0.61174">
        <ele>320</ele>
      </trkpt>
      <trkpt lat="43.07715" lon="-0.61127">
        <ele>320</ele>
      </trkpt>
      <trkpt lat="43.07628" lon="-0.61029">
        <ele>311</ele>
      </trkpt>
      <trkpt lat="43.07565" lon="-0.6097">
        <ele>322</ele>
      </trkpt>
      <trkpt lat="43.075" lon="-0.60901">
        <ele>322</ele>
      </trkpt>
      <trkpt lat="43.07434" lon="-0.6084">
        <ele>321</ele>
      </trkpt>
      <trkpt lat="43.07361" lon="-0.60789">
        <ele>313</ele>
      </trkpt>
      <trkpt lat="43.07224" lon="-0.607">
        <ele>320</ele>
      </trkpt>
      <trkpt lat="43.07192" lon="-0.60648">
        <ele>330</ele>
      </trkpt>
      <trkpt lat="43.07196" lon="-0.60641">
        <ele>330</ele>
      </trkpt>
      <trkpt lat="43.07189" lon="-0.60621">
        <ele>326</ele>
      </trkpt>
      <trkpt lat="43.07192" lon="-0.60617">
        <ele>326</ele>
      </trkpt>
      <trkpt lat="43.07203" lon="-0.60614">
        <ele>326</ele>
      </trkpt>
      <trkpt lat="43.07308" lon="-0.6061">
        <ele>349</ele>
      </trkpt>
      <trkpt lat="43.07358" lon="-0.60621">
        <ele>349</ele>
      </trkpt>
      <trkpt lat="43.07416" lon="-0.60655">
        <ele>325</ele>
      </trkpt>
      <trkpt lat="43.07475" lon="-0.60685">
        <ele>330</ele>
      </trkpt>
      <trkpt lat="43.07513" lon="-0.60667">
        <ele>330</ele>
      </trkpt>
      <trkpt lat="43.07529" lon="-0.60621">
        <ele>359</ele>
      </trkpt>
      <trkpt lat="43.07547" lon="-0.60558">
        <ele>329</ele>
      </trkpt>
      <trkpt lat="43.07558" lon="-0.60541">
        <ele>338</ele>
      </trkpt>
      <trkpt lat="43.07586" lon="-0.60517">
        <ele>338</ele>
      </trkpt>
      <trkpt lat="43.07602" lon="-0.60518">
        <ele>338</ele>
      </trkpt>
      <trkpt lat="43.07635" lon="-0.60546">
        <ele>332</ele>
      </trkpt>
      <trkpt lat="43.0765" lon="-0.60576">
        <ele>332</ele>
      </trkpt>
      <trkpt lat="43.07651" lon="-0.60593">
        <ele>332</ele>
      </trkpt>
      <trkpt lat="43.07635" lon="-0.60614">
        <ele>332</ele>
      </trkpt>
      <trkpt lat="43.07629" lon="-0.60616">
        <ele>332</ele>
      </trkpt>
      <trkpt lat="43.07656" lon="-0.60597">
        <ele>332</ele>
      </trkpt>
      <trkpt lat="43.07661" lon="-0.60602">
        <ele>332</ele>
      </trkpt>
      <trkpt lat="43.07667" lon="-0.60601">
        <ele>332</ele>
      </trkpt>
      <trkpt lat="43.07671" lon="-0.60593">
        <ele>332</ele>
      </trkpt>
      <trkpt lat="43.07672" lon="-0.60571">
        <ele>332</ele>
      </trkpt>
      <trkpt lat="43.07687" lon="-0.60494">
        <ele>334</ele>
      </trkpt>
      <trkpt lat="43.07684" lon="-0.60424">
        <ele>336</ele>
      </trkpt>
      <trkpt lat="43.07685" lon="-0.60374">
        <ele>336</ele>
      </trkpt>
      <trkpt lat="43.07691" lon="-0.60307">
        <ele>336</ele>
      </trkpt>
      <trkpt lat="43.07688" lon="-0.60255">
        <ele>337</ele>
      </trkpt>
      <trkpt lat="43.07692" lon="-0.60177">
        <ele>340</ele>
      </trkpt>
      <trkpt lat="43.07702" lon="-0.60088">
        <ele>351</ele>
      </trkpt>
      <trkpt lat="43.07688" lon="-0.59981">
        <ele>351</ele>
      </trkpt>
      <trkpt lat="43.07702" lon="-0.59923">
        <ele>353</ele>
      </trkpt>
      <trkpt lat="43.07719" lon="-0.59877">
        <ele>355</ele>
      </trkpt>
      <trkpt lat="43.0772" lon="-0.59826">
        <ele>353</ele>
      </trkpt>
      <trkpt lat="43.07713" lon="-0.59775">
        <ele>352</ele>
      </trkpt>
      <trkpt lat="43.07709" lon="-0.59727">
        <ele>352</ele>
      </trkpt>
      <trkpt lat="43.07731" lon="-0.59684">
        <ele>350</ele>
      </trkpt>
      <trkpt lat="43.0776" lon="-0.59652">
        <ele>350</ele>
      </trkpt>
      <trkpt lat="43.07782" lon="-0.59609">
        <ele>355</ele>
      </trkpt>
      <trkpt lat="43.07795" lon="-0.59555">
        <ele>380</ele>
      </trkpt>
      <trkpt lat="43.07796" lon="-0.5951">
        <ele>378</ele>
      </trkpt>
      <trkpt lat="43.07787" lon="-0.59464">
        <ele>362</ele>
      </trkpt>
      <trkpt lat="43.07798" lon="-0.59418">
        <ele>375</ele>
      </trkpt>
      <trkpt lat="43.07817" lon="-0.59388">
        <ele>375</ele>
      </trkpt>
      <trkpt lat="43.07838" lon="-0.59347">
        <ele>365</ele>
      </trkpt>
      <trkpt lat="43.07841" lon="-0.59308">
        <ele>365</ele>
      </trkpt>
      <trkpt lat="43.07837" lon="-0.59245">
        <ele>366</ele>
      </trkpt>
      <trkpt lat="43.07837" lon="-0.59201">
        <ele>370</ele>
      </trkpt>
      <trkpt lat="43.07833" lon="-0.59156">
        <ele>370</ele>
      </trkpt>
      <trkpt lat="43.07836" lon="-0.59127">
        <ele>370</ele>
      </trkpt>
      <trkpt lat="43.07833" lon="-0.59089">
        <ele>373</ele>
      </trkpt>
      <trkpt lat="43.07832" lon="-0.59008">
        <ele>376</ele>
      </trkpt>
      <trkpt lat="43.07836" lon="-0.58965">
        <ele>376</ele>
      </trkpt>
      <trkpt lat="43.07839" lon="-0.58961">
        <ele>376</ele>
      </trkpt>
      <trkpt lat="43.0785" lon="-0.58924">
        <ele>378</ele>
      </trkpt>
      <trkpt lat="43.07852" lon="-0.58887">
        <ele>378</ele>
      </trkpt>
      <trkpt lat="43.07845" lon="-0.58834">
        <ele>380</ele>
      </trkpt>
      <trkpt lat="43.07849" lon="-0.58817">
        <ele>380</ele>
      </trkpt>
      <trkpt lat="43.07856" lon="-0.58806">
        <ele>380</ele>
      </trkpt>
      <trkpt lat="43.0786" lon="-0.58783">
        <ele>386</ele>
      </trkpt>
      <trkpt lat="43.07883" lon="-0.58739">
        <ele>406</ele>
      </trkpt>
      <trkpt lat="43.07886" lon="-0.58721">
        <ele>406</ele>
      </trkpt>
      <trkpt lat="43.07887" lon="-0.58675">
        <ele>399</ele>
      </trkpt>
      <trkpt lat="43.07891" lon="-0.58624">
        <ele>397</ele>
      </trkpt>
      <trkpt lat="43.0791" lon="-0.58581">
        <ele>397</ele>
      </trkpt>
      <trkpt lat="43.07912" lon="-0.58529">
        <ele>399</ele>
      </trkpt>
      <trkpt lat="43.07904" lon="-0.58461">
        <ele>399</ele>
      </trkpt>
      <trkpt lat="43.07894" lon="-0.58409">
        <ele>406</ele>
      </trkpt>
      <trkpt lat="43.07888" lon="-0.58362">
        <ele>418</ele>
      </trkpt>
      <trkpt lat="43.07899" lon="-0.58243">
        <ele>425</ele>
      </trkpt>
      <trkpt lat="43.07905" lon="-0.58218">
        <ele>425</ele>
      </trkpt>
      <trkpt lat="43.07904" lon="-0.58214">
        <ele>425</ele>
      </trkpt>
      <trkpt lat="43.07917" lon="-0.58172">
        <ele>423</ele>
      </trkpt>
      <trkpt lat="43.07938" lon="-0.58119">
        <ele>423</ele>
      </trkpt>
      <trkpt lat="43.07946" lon="-0.58079">
        <ele>423</ele>
      </trkpt>
      <trkpt lat="43.07953" lon="-0.57979">
        <ele>429</ele>
      </trkpt>
      <trkpt lat="43.07941" lon="-0.57933">
        <ele>429</ele>
      </trkpt>
      <trkpt lat="43.07952" lon="-0.57895">
        <ele>429</ele>
      </trkpt>
      <trkpt lat="43.0797" lon="-0.57864">
        <ele>434</ele>
      </trkpt>
      <trkpt lat="43.07974" lon="-0.57846">
        <ele>434</ele>
      </trkpt>
      <trkpt lat="43.07995" lon="-0.57816">
        <ele>434</ele>
      </trkpt>
      <trkpt lat="43.08015" lon="-0.57811">
        <ele>434</ele>
      </trkpt>
      <trkpt lat="43.08036" lon="-0.57837">
        <ele>434</ele>
      </trkpt>
      <trkpt lat="43.08039" lon="-0.57851">
        <ele>434</ele>
      </trkpt>
      <trkpt lat="43.0804" lon="-0.57881">
        <ele>450</ele>
      </trkpt>
      <trkpt lat="43.08044" lon="-0.57893">
        <ele>448</ele>
      </trkpt>
      <trkpt lat="43.08076" lon="-0.57897">
        <ele>448</ele>
      </trkpt>
      <trkpt lat="43.08109" lon="-0.57884">
        <ele>448</ele>
      </trkpt>
      <trkpt lat="43.08114" lon="-0.57842">
        <ele>434</ele>
      </trkpt>
      <trkpt lat="43.08109" lon="-0.57796">
        <ele>434</ele>
      </trkpt>
      <trkpt lat="43.08116" lon="-0.57709">
        <ele>436</ele>
      </trkpt>
      <trkpt lat="43.08113" lon="-0.57674">
        <ele>439</ele>
      </trkpt>
      <trkpt lat="43.08103" lon="-0.57628">
        <ele>439</ele>
      </trkpt>
      <trkpt lat="43.0807" lon="-0.57563">
        <ele>448</ele>
      </trkpt>
      <trkpt lat="43.0806" lon="-0.57522">
        <ele>456</ele>
      </trkpt>
      <trkpt lat="43.08072" lon="-0.57462">
        <ele>456</ele>
      </trkpt>
      <trkpt lat="43.08085" lon="-0.57419">
        <ele>460</ele>
      </trkpt>
      <trkpt lat="43.08099" lon="-0.57385">
        <ele>460</ele>
      </trkpt>
      <trkpt lat="43.08121" lon="-0.57351">
        <ele>460</ele>
      </trkpt>
      <trkpt lat="43.08129" lon="-0.57322">
        <ele>470</ele>
      </trkpt>
      <trkpt lat="43.08129" lon="-0.57277">
        <ele>463</ele>
      </trkpt>
      <trkpt lat="43.08135" lon="-0.57217">
        <ele>463</ele>
      </trkpt>
      <trkpt lat="43.0811" lon="-0.57123">
        <ele>466</ele>
      </trkpt>
      <trkpt lat="43.08092" lon="-0.57095">
        <ele>466</ele>
      </trkpt>
      <trkpt lat="43.08091" lon="-0.57087">
        <ele>466</ele>
      </trkpt>
      <trkpt lat="43.0807" lon="-0.57046">
        <ele>466</ele>
      </trkpt>
      <trkpt lat="43.08066" lon="-0.56991">
        <ele>470</ele>
      </trkpt>
      <trkpt lat="43.08071" lon="-0.56935">
        <ele>475</ele>
      </trkpt>
      <trkpt lat="43.08069" lon="-0.5688">
        <ele>475</ele>
      </trkpt>
      <trkpt lat="43.08044" lon="-0.56803">
        <ele>486</ele>
      </trkpt>
      <trkpt lat="43.08034" lon="-0.56765">
        <ele>489</ele>
      </trkpt>
      <trkpt lat="43.08043" lon="-0.56673">
        <ele>493</ele>
      </trkpt>
      <trkpt lat="43.08055" lon="-0.5661">
        <ele>495</ele>
      </trkpt>
      <trkpt lat="43.08053" lon="-0.56529">
        <ele>499</ele>
      </trkpt>
      <trkpt lat="43.08032" lon="-0.56475">
        <ele>503</ele>
      </trkpt>
      <trkpt lat="43.08015" lon="-0.56391">
        <ele>496</ele>
      </trkpt>
      <trkpt lat="43.07989" lon="-0.56349">
        <ele>495</ele>
      </trkpt>
      <trkpt lat="43.07964" lon="-0.5634">
        <ele>495</ele>
      </trkpt>
      <trkpt lat="43.07953" lon="-0.56344">
        <ele>513</ele>
      </trkpt>
      <trkpt lat="43.07889" lon="-0.56345">
        <ele>513</ele>
      </trkpt>
      <trkpt lat="43.07853" lon="-0.56308">
        <ele>530</ele>
      </trkpt>
      <trkpt lat="43.07841" lon="-0.56261">
        <ele>515</ele>
      </trkpt>
      <trkpt lat="43.07847" lon="-0.56198">
        <ele>521</ele>
      </trkpt>
      <trkpt lat="43.0784" lon="-0.56119">
        <ele>530</ele>
      </trkpt>
      <trkpt lat="43.0782" lon="-0.56059">
        <ele>530</ele>
      </trkpt>
      <trkpt lat="43.07795" lon="-0.56009">
        <ele>547</ele>
      </trkpt>
      <trkpt lat="43.07755" lon="-0.55948">
        <ele>531</ele>
      </trkpt>
      <trkpt lat="43.07722" lon="-0.55833">
        <ele>542</ele>
      </trkpt>
      <trkpt lat="43.0771" lon="-0.5578">
        <ele>552</ele>
      </trkpt>
      <trkpt lat="43.07722" lon="-0.55729">
        <ele>552</ele>
      </trkpt>
      <trkpt lat="43.07722" lon="-0.55686">
        <ele>564</ele>
      </trkpt>
      <trkpt lat="43.07698" lon="-0.55632">
        <ele>551</ele>
      </trkpt>
      <trkpt lat="43.07672" lon="-0.55521">
        <ele>550</ele>
      </trkpt>
      <trkpt lat="43.07642" lon="-0.55411">
        <ele>559</ele>
      </trkpt>
      <trkpt lat="43.07626" lon="-0.55368">
        <ele>580</ele>
      </trkpt>
      <trkpt lat="43.07573" lon="-0.55299">
        <ele>563</ele>
      </trkpt>
      <trkpt lat="43.07556" lon="-0.55254">
        <ele>559</ele>
      </trkpt>
      <trkpt lat="43.07548" lon="-0.5521">
        <ele>559</ele>
      </trkpt>
      <trkpt lat="43.07559" lon="-0.55158">
        <ele>571</ele>
      </trkpt>
      <trkpt lat="43.07573" lon="-0.55117">
        <ele>586</ele>
      </trkpt>
      <trkpt lat="43.07552" lon="-0.55073">
        <ele>586</ele>
      </trkpt>
      <trkpt lat="43.07539" lon="-0.55025">
        <ele>587</ele>
      </trkpt>
      <trkpt lat="43.07534" lon="-0.54986">
        <ele>587</ele>
      </trkpt>
      <trkpt lat="43.07525" lon="-0.5494">
        <ele>594</ele>
      </trkpt>
      <trkpt lat="43.07505" lon="-0.5479">
        <ele>612</ele>
      </trkpt>
      <trkpt lat="43.07492" lon="-0.54645">
        <ele>612</ele>
      </trkpt>
      <trkpt lat="43.07482" lon="-0.54557">
        <ele>612</ele>
      </trkpt>
      <trkpt lat="43.07485" lon="-0.54515">
        <ele>612</ele>
      </trkpt>
      <trkpt lat="43.07504" lon="-0.54461">
        <ele>612</ele>
      </trkpt>
      <trkpt lat="43.0752" lon="-0.54383">
        <ele>620</ele>
      </trkpt>
      <trkpt lat="43.07516" lon="-0.54367">
        <ele>623</ele>
      </trkpt>
      <trkpt lat="43.0751" lon="-0.54361">
        <ele>623</ele>
      </trkpt>
      <trkpt lat="43.075" lon="-0.54341">
        <ele>623</ele>
      </trkpt>
      <trkpt lat="43.07497" lon="-0.54304">
        <ele>623</ele>
      </trkpt>
      <trkpt lat="43.07495" lon="-0.54304">
        <ele>623</ele>
      </trkpt>
    </trkseg>
  </trk>
  <trk>
    <name><![CDATA[Raid dans le Béarn J3]]></name>
    <trkseg>
      <trkpt lat="43.06112" lon="-0.4477">
        <ele>655</ele>
      </trkpt>
      <trkpt lat="43.06108" lon="-0.44746">
        <ele>655</ele>
      </trkpt>
      <trkpt lat="43.06099" lon="-0.44746">
        <ele>655</ele>
      </trkpt>
      <trkpt lat="43.06062" lon="-0.44775">
        <ele>655</ele>
      </trkpt>
      <trkpt lat="43.06049" lon="-0.44824">
        <ele>664</ele>
      </trkpt>
      <trkpt lat="43.06036" lon="-0.44833">
        <ele>660</ele>
      </trkpt>
      <trkpt lat="43.06026" lon="-0.44828">
        <ele>660</ele>
      </trkpt>
      <trkpt lat="43.06003" lon="-0.44801">
        <ele>660</ele>
      </trkpt>
      <trkpt lat="43.05914" lon="-0.44823">
        <ele>661</ele>
      </trkpt>
      <trkpt lat="43.05902" lon="-0.44862">
        <ele>661</ele>
      </trkpt>
      <trkpt lat="43.05886" lon="-0.44873">
        <ele>661</ele>
      </trkpt>
      <trkpt lat="43.05851" lon="-0.44821">
        <ele>663</ele>
      </trkpt>
      <trkpt lat="43.05817" lon="-0.44795">
        <ele>663</ele>
      </trkpt>
      <trkpt lat="43.05781" lon="-0.44777">
        <ele>651</ele>
      </trkpt>
      <trkpt lat="43.05754" lon="-0.44757">
        <ele>651</ele>
      </trkpt>
      <trkpt lat="43.05696" lon="-0.44742">
        <ele>645</ele>
      </trkpt>
      <trkpt lat="43.05663" lon="-0.44716">
        <ele>645</ele>
      </trkpt>
      <trkpt lat="43.05643" lon="-0.44709">
        <ele>645</ele>
      </trkpt>
      <trkpt lat="43.05636" lon="-0.44712">
        <ele>645</ele>
      </trkpt>
      <trkpt lat="43.05631" lon="-0.44598">
        <ele>619</ele>
      </trkpt>
      <trkpt lat="43.05612" lon="-0.44554">
        <ele>594</ele>
      </trkpt>
      <trkpt lat="43.05593" lon="-0.4453">
        <ele>599</ele>
      </trkpt>
      <trkpt lat="43.05578" lon="-0.44502">
        <ele>599</ele>
      </trkpt>
      <trkpt lat="43.0557" lon="-0.44474">
        <ele>599</ele>
      </trkpt>
      <trkpt lat="43.05573" lon="-0.44426">
        <ele>584</ele>
      </trkpt>
      <trkpt lat="43.05588" lon="-0.4439">
        <ele>584</ele>
      </trkpt>
      <trkpt lat="43.05643" lon="-0.44343">
        <ele>572</ele>
      </trkpt>
      <trkpt lat="43.05657" lon="-0.44306">
        <ele>572</ele>
      </trkpt>
      <trkpt lat="43.05658" lon="-0.44286">
        <ele>550</ele>
      </trkpt>
      <trkpt lat="43.05685" lon="-0.44211">
        <ele>550</ele>
      </trkpt>
      <trkpt lat="43.05695" lon="-0.44134">
        <ele>525</ele>
      </trkpt>
      <trkpt lat="43.05711" lon="-0.44088">
        <ele>528</ele>
      </trkpt>
      <trkpt lat="43.05715" lon="-0.44036">
        <ele>509</ele>
      </trkpt>
      <trkpt lat="43.05706" lon="-0.43994">
        <ele>497</ele>
      </trkpt>
      <trkpt lat="43.05675" lon="-0.43939">
        <ele>495</ele>
      </trkpt>
      <trkpt lat="43.05674" lon="-0.43938">
        <ele>495</ele>
      </trkpt>
      <trkpt lat="43.05667" lon="-0.43902">
        <ele>495</ele>
      </trkpt>
      <trkpt lat="43.05665" lon="-0.43869">
        <ele>487</ele>
      </trkpt>
      <trkpt lat="43.05644" lon="-0.4374">
        <ele>480</ele>
      </trkpt>
      <trkpt lat="43.05624" lon="-0.43687">
        <ele>476</ele>
      </trkpt>
      <trkpt lat="43.05596" lon="-0.43661">
        <ele>476</ele>
      </trkpt>
      <trkpt lat="43.05581" lon="-0.436">
        <ele>471</ele>
      </trkpt>
      <trkpt lat="43.05583" lon="-0.43502">
        <ele>467</ele>
      </trkpt>
      <trkpt lat="43.05579" lon="-0.43488">
        <ele>467</ele>
      </trkpt>
      <trkpt lat="43.05559" lon="-0.43465">
        <ele>467</ele>
      </trkpt>
      <trkpt lat="43.05552" lon="-0.43441">
        <ele>464</ele>
      </trkpt>
      <trkpt lat="43.05549" lon="-0.43244">
        <ele>458</ele>
      </trkpt>
      <trkpt lat="43.0554" lon="-0.43228">
        <ele>458</ele>
      </trkpt>
      <trkpt lat="43.05539" lon="-0.43176">
        <ele>456</ele>
      </trkpt>
      <trkpt lat="43.05545" lon="-0.43144">
        <ele>456</ele>
      </trkpt>
      <trkpt lat="43.05541" lon="-0.43132">
        <ele>456</ele>
      </trkpt>
      <trkpt lat="43.05529" lon="-0.43132">
        <ele>456</ele>
      </trkpt>
      <trkpt lat="43.05518" lon="-0.43139">
        <ele>456</ele>
      </trkpt>
      <trkpt lat="43.05448" lon="-0.4313">
        <ele>454</ele>
      </trkpt>
      <trkpt lat="43.05437" lon="-0.43134">
        <ele>454</ele>
      </trkpt>
      <trkpt lat="43.05338" lon="-0.43105">
        <ele>451</ele>
      </trkpt>
      <trkpt lat="43.05301" lon="-0.43101">
        <ele>451</ele>
      </trkpt>
      <trkpt lat="43.04842" lon="-0.42977">
        <ele>446</ele>
      </trkpt>
      <trkpt lat="43.04724" lon="-0.42936">
        <ele>441</ele>
      </trkpt>
      <trkpt lat="43.04679" lon="-0.42912">
        <ele>443</ele>
      </trkpt>
      <trkpt lat="43.04627" lon="-0.42876">
        <ele>443</ele>
      </trkpt>
      <trkpt lat="43.04533" lon="-0.4279">
        <ele>442</ele>
      </trkpt>
      <trkpt lat="43.04316" lon="-0.42634">
        <ele>443</ele>
      </trkpt>
      <trkpt lat="43.04182" lon="-0.42568">
        <ele>444</ele>
      </trkpt>
      <trkpt lat="43.03917" lon="-0.42485">
        <ele>449</ele>
      </trkpt>
      <trkpt lat="43.03867" lon="-0.42464">
        <ele>450</ele>
      </trkpt>
      <trkpt lat="43.03738" lon="-0.42396">
        <ele>450</ele>
      </trkpt>
      <trkpt lat="43.03693" lon="-0.4236">
        <ele>452</ele>
      </trkpt>
      <trkpt lat="43.03691" lon="-0.42334">
        <ele>452</ele>
      </trkpt>
      <trkpt lat="43.03715" lon="-0.42292">
        <ele>449</ele>
      </trkpt>
      <trkpt lat="43.03726" lon="-0.42193">
        <ele>444</ele>
      </trkpt>
      <trkpt lat="43.03718" lon="-0.42158">
        <ele>444</ele>
      </trkpt>
      <trkpt lat="43.03604" lon="-0.42073">
        <ele>448</ele>
      </trkpt>
      <trkpt lat="43.03582" lon="-0.42047">
        <ele>448</ele>
      </trkpt>
      <trkpt lat="43.03573" lon="-0.4202">
        <ele>449</ele>
      </trkpt>
      <trkpt lat="43.03546" lon="-0.41844">
        <ele>451</ele>
      </trkpt>
      <trkpt lat="43.03551" lon="-0.41837">
        <ele>451</ele>
      </trkpt>
      <trkpt lat="43.03638" lon="-0.4182">
        <ele>450</ele>
      </trkpt>
      <trkpt lat="43.03676" lon="-0.418">
        <ele>450</ele>
      </trkpt>
      <trkpt lat="43.03735" lon="-0.41781">
        <ele>457</ele>
      </trkpt>
      <trkpt lat="43.03833" lon="-0.41728">
        <ele>452</ele>
      </trkpt>
      <trkpt lat="43.03934" lon="-0.41719">
        <ele>452</ele>
      </trkpt>
      <trkpt lat="43.04023" lon="-0.41745">
        <ele>452</ele>
      </trkpt>
      <trkpt lat="43.04088" lon="-0.4178">
        <ele>458</ele>
      </trkpt>
      <trkpt lat="43.04147" lon="-0.41791">
        <ele>458</ele>
      </trkpt>
      <trkpt lat="43.04199" lon="-0.4185">
        <ele>444</ele>
      </trkpt>
      <trkpt lat="43.04225" lon="-0.41864">
        <ele>447</ele>
      </trkpt>
      <trkpt lat="43.04287" lon="-0.41843">
        <ele>447</ele>
      </trkpt>
      <trkpt lat="43.04338" lon="-0.41817">
        <ele>450</ele>
      </trkpt>
      <trkpt lat="43.04464" lon="-0.41803">
        <ele>445</ele>
      </trkpt>
      <trkpt lat="43.04523" lon="-0.41778">
        <ele>479</ele>
      </trkpt>
      <trkpt lat="43.0454" lon="-0.41779">
        <ele>479</ele>
      </trkpt>
      <trkpt lat="43.0457" lon="-0.41794">
        <ele>447</ele>
      </trkpt>
      <trkpt lat="43.04592" lon="-0.41813">
        <ele>447</ele>
      </trkpt>
      <trkpt lat="43.04625" lon="-0.41864">
        <ele>447</ele>
      </trkpt>
      <trkpt lat="43.0469" lon="-0.4191">
        <ele>444</ele>
      </trkpt>
      <trkpt lat="43.04729" lon="-0.41926">
        <ele>457</ele>
      </trkpt>
      <trkpt lat="43.0478" lon="-0.41932">
        <ele>457</ele>
      </trkpt>
      <trkpt lat="43.0485" lon="-0.41952">
        <ele>467</ele>
      </trkpt>
      <trkpt lat="43.04925" lon="-0.42014">
        <ele>459</ele>
      </trkpt>
      <trkpt lat="43.05032" lon="-0.42052">
        <ele>438</ele>
      </trkpt>
      <trkpt lat="43.05064" lon="-0.42058">
        <ele>441</ele>
      </trkpt>
      <trkpt lat="43.05098" lon="-0.42051">
        <ele>441</ele>
      </trkpt>
      <trkpt lat="43.0513" lon="-0.42054">
        <ele>440</ele>
      </trkpt>
      <trkpt lat="43.05165" lon="-0.42069">
        <ele>440</ele>
      </trkpt>
      <trkpt lat="43.05303" lon="-0.42153">
        <ele>439</ele>
      </trkpt>
      <trkpt lat="43.0534" lon="-0.42168">
        <ele>439</ele>
      </trkpt>
      <trkpt lat="43.05367" lon="-0.42167">
        <ele>439</ele>
      </trkpt>
      <trkpt lat="43.05474" lon="-0.42143">
        <ele>437</ele>
      </trkpt>
      <trkpt lat="43.05504" lon="-0.42121">
        <ele>442</ele>
      </trkpt>
      <trkpt lat="43.05549" lon="-0.42068">
        <ele>438</ele>
      </trkpt>
      <trkpt lat="43.05613" lon="-0.42011">
        <ele>449</ele>
      </trkpt>
      <trkpt lat="43.05679" lon="-0.41978">
        <ele>439</ele>
      </trkpt>
      <trkpt lat="43.05775" lon="-0.41943">
        <ele>450</ele>
      </trkpt>
      <trkpt lat="43.05855" lon="-0.41926">
        <ele>441</ele>
      </trkpt>
      <trkpt lat="43.05878" lon="-0.41907">
        <ele>432</ele>
      </trkpt>
      <trkpt lat="43.05894" lon="-0.41885">
        <ele>432</ele>
      </trkpt>
      <trkpt lat="43.0592" lon="-0.41868">
        <ele>438</ele>
      </trkpt>
      <trkpt lat="43.05993" lon="-0.41897">
        <ele>431</ele>
      </trkpt>
      <trkpt lat="43.06022" lon="-0.41895">
        <ele>431</ele>
      </trkpt>
      <trkpt lat="43.06063" lon="-0.41876">
        <ele>432</ele>
      </trkpt>
      <trkpt lat="43.06114" lon="-0.41864">
        <ele>431</ele>
      </trkpt>
      <trkpt lat="43.06133" lon="-0.4185">
        <ele>429</ele>
      </trkpt>
      <trkpt lat="43.06238" lon="-0.41717">
        <ele>431</ele>
      </trkpt>
      <trkpt lat="43.06265" lon="-0.41708">
        <ele>432</ele>
      </trkpt>
      <trkpt lat="43.06318" lon="-0.41708">
        <ele>431</ele>
      </trkpt>
      <trkpt lat="43.06383" lon="-0.4166">
        <ele>431</ele>
      </trkpt>
      <trkpt lat="43.06421" lon="-0.4164">
        <ele>431</ele>
      </trkpt>
      <trkpt lat="43.06529" lon="-0.41622">
        <ele>433</ele>
      </trkpt>
      <trkpt lat="43.06552" lon="-0.41625">
        <ele>431</ele>
      </trkpt>
      <trkpt lat="43.0672" lon="-0.41604">
        <ele>427</ele>
      </trkpt>
      <trkpt lat="43.06745" lon="-0.41584">
        <ele>427</ele>
      </trkpt>
      <trkpt lat="43.0676" lon="-0.41565">
        <ele>427</ele>
      </trkpt>
      <trkpt lat="43.06775" lon="-0.41533">
        <ele>435</ele>
      </trkpt>
      <trkpt lat="43.06773" lon="-0.41527">
        <ele>435</ele>
      </trkpt>
      <trkpt lat="43.06765" lon="-0.41524">
        <ele>435</ele>
      </trkpt>
      <trkpt lat="43.06769" lon="-0.41521">
        <ele>435</ele>
      </trkpt>
      <trkpt lat="43.06766" lon="-0.4151">
        <ele>435</ele>
      </trkpt>
      <trkpt lat="43.06731" lon="-0.41467">
        <ele>435</ele>
      </trkpt>
      <trkpt lat="43.06682" lon="-0.41424">
        <ele>434</ele>
      </trkpt>
      <trkpt lat="43.06643" lon="-0.41407">
        <ele>434</ele>
      </trkpt>
      <trkpt lat="43.06628" lon="-0.41394">
        <ele>434</ele>
      </trkpt>
      <trkpt lat="43.06614" lon="-0.41307">
        <ele>439</ele>
      </trkpt>
      <trkpt lat="43.06582" lon="-0.41196">
        <ele>450</ele>
      </trkpt>
      <trkpt lat="43.06567" lon="-0.41082">
        <ele>454</ele>
      </trkpt>
      <trkpt lat="43.06551" lon="-0.41041">
        <ele>467</ele>
      </trkpt>
      <trkpt lat="43.06516" lon="-0.40996">
        <ele>458</ele>
      </trkpt>
      <trkpt lat="43.06506" lon="-0.40953">
        <ele>471</ele>
      </trkpt>
      <trkpt lat="43.06503" lon="-0.40914">
        <ele>471</ele>
      </trkpt>
      <trkpt lat="43.06475" lon="-0.40837">
        <ele>487</ele>
      </trkpt>
      <trkpt lat="43.06467" lon="-0.40777">
        <ele>498</ele>
      </trkpt>
      <trkpt lat="43.06445" lon="-0.40741">
        <ele>480</ele>
      </trkpt>
      <trkpt lat="43.06448" lon="-0.40714">
        <ele>480</ele>
      </trkpt>
      <trkpt lat="43.06459" lon="-0.40684">
        <ele>506</ele>
      </trkpt>
      <trkpt lat="43.0644" lon="-0.4065">
        <ele>488</ele>
      </trkpt>
      <trkpt lat="43.06419" lon="-0.40583">
        <ele>497</ele>
      </trkpt>
      <trkpt lat="43.064" lon="-0.4056">
        <ele>497</ele>
      </trkpt>
      <trkpt lat="43.06389" lon="-0.40565">
        <ele>497</ele>
      </trkpt>
      <trkpt lat="43.0637" lon="-0.40629">
        <ele>495</ele>
      </trkpt>
      <trkpt lat="43.06354" lon="-0.4064">
        <ele>495</ele>
      </trkpt>
      <trkpt lat="43.06313" lon="-0.40636">
        <ele>495</ele>
      </trkpt>
      <trkpt lat="43.06286" lon="-0.4065">
        <ele>511</ele>
      </trkpt>
      <trkpt lat="43.06275" lon="-0.40649">
        <ele>511</ele>
      </trkpt>
      <trkpt lat="43.06269" lon="-0.40638">
        <ele>511</ele>
      </trkpt>
      <trkpt lat="43.06281" lon="-0.40603">
        <ele>529</ele>
      </trkpt>
      <trkpt lat="43.06278" lon="-0.40594">
        <ele>529</ele>
      </trkpt>
      <trkpt lat="43.06267" lon="-0.40589">
        <ele>529</ele>
      </trkpt>
      <trkpt lat="43.0625" lon="-0.40592">
        <ele>529</ele>
      </trkpt>
      <trkpt lat="43.06213" lon="-0.40628">
        <ele>511</ele>
      </trkpt>
      <trkpt lat="43.06185" lon="-0.40664">
        <ele>548</ele>
      </trkpt>
      <trkpt lat="43.06181" lon="-0.4066">
        <ele>548</ele>
      </trkpt>
      <trkpt lat="43.0619" lon="-0.40636">
        <ele>548</ele>
      </trkpt>
      <trkpt lat="43.06203" lon="-0.40551">
        <ele>559</ele>
      </trkpt>
      <trkpt lat="43.06214" lon="-0.40516">
        <ele>547</ele>
      </trkpt>
      <trkpt lat="43.06226" lon="-0.40443">
        <ele>568</ele>
      </trkpt>
      <trkpt lat="43.06261" lon="-0.4038">
        <ele>568</ele>
      </trkpt>
      <trkpt lat="43.06285" lon="-0.40318">
        <ele>585</ele>
      </trkpt>
      <trkpt lat="43.06279" lon="-0.40311">
        <ele>585</ele>
      </trkpt>
      <trkpt lat="43.06258" lon="-0.40327">
        <ele>585</ele>
      </trkpt>
      <trkpt lat="43.06214" lon="-0.40331">
        <ele>585</ele>
      </trkpt>
      <trkpt lat="43.06192" lon="-0.40354">
        <ele>620</ele>
      </trkpt>
      <trkpt lat="43.06185" lon="-0.40352">
        <ele>620</ele>
      </trkpt>
      <trkpt lat="43.06206" lon="-0.40282">
        <ele>625</ele>
      </trkpt>
      <trkpt lat="43.0621" lon="-0.40254">
        <ele>598</ele>
      </trkpt>
      <trkpt lat="43.06239" lon="-0.40186">
        <ele>610</ele>
      </trkpt>
      <trkpt lat="43.06247" lon="-0.40134">
        <ele>610</ele>
      </trkpt>
      <trkpt lat="43.06234" lon="-0.40126">
        <ele>610</ele>
      </trkpt>
      <trkpt lat="43.0617" lon="-0.40179">
        <ele>633</ele>
      </trkpt>
      <trkpt lat="43.06157" lon="-0.40198">
        <ele>633</ele>
      </trkpt>
      <trkpt lat="43.06149" lon="-0.40193">
        <ele>633</ele>
      </trkpt>
      <trkpt lat="43.06157" lon="-0.40151">
        <ele>633</ele>
      </trkpt>
      <trkpt lat="43.06162" lon="-0.40089">
        <ele>646</ele>
      </trkpt>
      <trkpt lat="43.06173" lon="-0.4006">
        <ele>646</ele>
      </trkpt>
      <trkpt lat="43.06176" lon="-0.40015">
        <ele>653</ele>
      </trkpt>
      <trkpt lat="43.06172" lon="-0.39998">
        <ele>653</ele>
      </trkpt>
      <trkpt lat="43.06179" lon="-0.39925">
        <ele>664</ele>
      </trkpt>
      <trkpt lat="43.06174" lon="-0.39899">
        <ele>664</ele>
      </trkpt>
      <trkpt lat="43.06128" lon="-0.39852">
        <ele>669</ele>
      </trkpt>
      <trkpt lat="43.06135" lon="-0.39837">
        <ele>669</ele>
      </trkpt>
      <trkpt lat="43.06186" lon="-0.39823">
        <ele>669</ele>
      </trkpt>
      <trkpt lat="43.06195" lon="-0.39805">
        <ele>669</ele>
      </trkpt>
      <trkpt lat="43.06204" lon="-0.39731">
        <ele>687</ele>
      </trkpt>
      <trkpt lat="43.06221" lon="-0.39694">
        <ele>670</ele>
      </trkpt>
      <trkpt lat="43.06239" lon="-0.39632">
        <ele>670</ele>
      </trkpt>
      <trkpt lat="43.06259" lon="-0.39582">
        <ele>684</ele>
      </trkpt>
      <trkpt lat="43.06269" lon="-0.39537">
        <ele>694</ele>
      </trkpt>
      <trkpt lat="43.06264" lon="-0.39534">
        <ele>694</ele>
      </trkpt>
      <trkpt lat="43.06187" lon="-0.39608">
        <ele>715</ele>
      </trkpt>
      <trkpt lat="43.06089" lon="-0.39779">
        <ele>720</ele>
      </trkpt>
      <trkpt lat="43.06083" lon="-0.39777">
        <ele>720</ele>
      </trkpt>
      <trkpt lat="43.06098" lon="-0.39747">
        <ele>720</ele>
      </trkpt>
      <trkpt lat="43.06105" lon="-0.39671">
        <ele>736</ele>
      </trkpt>
      <trkpt lat="43.06115" lon="-0.39657">
        <ele>736</ele>
      </trkpt>
      <trkpt lat="43.0611" lon="-0.39648">
        <ele>736</ele>
      </trkpt>
      <trkpt lat="43.06112" lon="-0.39613">
        <ele>748</ele>
      </trkpt>
      <trkpt lat="43.06124" lon="-0.39565">
        <ele>748</ele>
      </trkpt>
      <trkpt lat="43.06118" lon="-0.39552">
        <ele>748</ele>
      </trkpt>
      <trkpt lat="43.06129" lon="-0.3952">
        <ele>728</ele>
      </trkpt>
      <trkpt lat="43.0614" lon="-0.3951">
        <ele>728</ele>
      </trkpt>
      <trkpt lat="43.06137" lon="-0.39431">
        <ele>739</ele>
      </trkpt>
      <trkpt lat="43.06164" lon="-0.39361">
        <ele>757</ele>
      </trkpt>
      <trkpt lat="43.06161" lon="-0.39355">
        <ele>757</ele>
      </trkpt>
      <trkpt lat="43.06172" lon="-0.39339">
        <ele>757</ele>
      </trkpt>
      <trkpt lat="43.06191" lon="-0.39265">
        <ele>774</ele>
      </trkpt>
      <trkpt lat="43.06217" lon="-0.39225">
        <ele>751</ele>
      </trkpt>
      <trkpt lat="43.06245" lon="-0.39164">
        <ele>767</ele>
      </trkpt>
      <trkpt lat="43.06256" lon="-0.39152">
        <ele>767</ele>
      </trkpt>
      <trkpt lat="43.06257" lon="-0.39139">
        <ele>767</ele>
      </trkpt>
      <trkpt lat="43.06242" lon="-0.39146">
        <ele>767</ele>
      </trkpt>
      <trkpt lat="43.062" lon="-0.39144">
        <ele>787</ele>
      </trkpt>
      <trkpt lat="43.06052" lon="-0.3922">
        <ele>793</ele>
      </trkpt>
      <trkpt lat="43.06036" lon="-0.39215">
        <ele>819</ele>
      </trkpt>
      <trkpt lat="43.06021" lon="-0.3915">
        <ele>820</ele>
      </trkpt>
      <trkpt lat="43.06026" lon="-0.39126">
        <ele>820</ele>
      </trkpt>
      <trkpt lat="43.06023" lon="-0.3901">
        <ele>830</ele>
      </trkpt>
      <trkpt lat="43.06032" lon="-0.38959">
        <ele>830</ele>
      </trkpt>
      <trkpt lat="43.06034" lon="-0.38915">
        <ele>844</ele>
      </trkpt>
      <trkpt lat="43.06042" lon="-0.38887">
        <ele>824</ele>
      </trkpt>
      <trkpt lat="43.06106" lon="-0.38793">
        <ele>841</ele>
      </trkpt>
      <trkpt lat="43.06162" lon="-0.38742">
        <ele>854</ele>
      </trkpt>
      <trkpt lat="43.06165" lon="-0.3872">
        <ele>854</ele>
      </trkpt>
      <trkpt lat="43.06133" lon="-0.38669">
        <ele>859</ele>
      </trkpt>
      <trkpt lat="43.06103" lon="-0.38637">
        <ele>869</ele>
      </trkpt>
      <trkpt lat="43.06086" lon="-0.38634">
        <ele>869</ele>
      </trkpt>
      <trkpt lat="43.06061" lon="-0.38639">
        <ele>869</ele>
      </trkpt>
      <trkpt lat="43.06044" lon="-0.38635">
        <ele>869</ele>
      </trkpt>
      <trkpt lat="43.06036" lon="-0.38627">
        <ele>863</ele>
      </trkpt>
      <trkpt lat="43.06029" lon="-0.38635">
        <ele>863</ele>
      </trkpt>
      <trkpt lat="43.06045" lon="-0.38638">
        <ele>869</ele>
      </trkpt>
      <trkpt lat="43.06053" lon="-0.3862">
        <ele>860</ele>
      </trkpt>
      <trkpt lat="43.06081" lon="-0.38592">
        <ele>860</ele>
      </trkpt>
      <trkpt lat="43.06181" lon="-0.3841">
        <ele>866</ele>
      </trkpt>
      <trkpt lat="43.06204" lon="-0.3838">
        <ele>866</ele>
      </trkpt>
      <trkpt lat="43.06235" lon="-0.38351">
        <ele>868</ele>
      </trkpt>
      <trkpt lat="43.06245" lon="-0.38336">
        <ele>868</ele>
      </trkpt>
      <trkpt lat="43.06245" lon="-0.38282">
        <ele>868</ele>
      </trkpt>
      <trkpt lat="43.06229" lon="-0.38251">
        <ele>868</ele>
      </trkpt>
      <trkpt lat="43.0622" lon="-0.3822">
        <ele>868</ele>
      </trkpt>
      <trkpt lat="43.06214" lon="-0.38161">
        <ele>868</ele>
      </trkpt>
      <trkpt lat="43.06207" lon="-0.38142">
        <ele>865</ele>
      </trkpt>
      <trkpt lat="43.06205" lon="-0.38109">
        <ele>866</ele>
      </trkpt>
      <trkpt lat="43.06207" lon="-0.38084">
        <ele>866</ele>
      </trkpt>
      <trkpt lat="43.06216" lon="-0.38064">
        <ele>867</ele>
      </trkpt>
      <trkpt lat="43.06276" lon="-0.37997">
        <ele>868</ele>
      </trkpt>
      <trkpt lat="43.06311" lon="-0.38009">
        <ele>870</ele>
      </trkpt>
      <trkpt lat="43.06318" lon="-0.38005">
        <ele>870</ele>
      </trkpt>
      <trkpt lat="43.06271" lon="-0.37772">
        <ele>888</ele>
      </trkpt>
      <trkpt lat="43.0628" lon="-0.37704">
        <ele>900</ele>
      </trkpt>
      <trkpt lat="43.06307" lon="-0.37576">
        <ele>895</ele>
      </trkpt>
      <trkpt lat="43.06335" lon="-0.37516">
        <ele>914</ele>
      </trkpt>
      <trkpt lat="43.06423" lon="-0.37386">
        <ele>918</ele>
      </trkpt>
      <trkpt lat="43.06463" lon="-0.37291">
        <ele>943</ele>
      </trkpt>
      <trkpt lat="43.06479" lon="-0.37264">
        <ele>943</ele>
      </trkpt>
      <trkpt lat="43.06478" lon="-0.37244">
        <ele>943</ele>
      </trkpt>
      <trkpt lat="43.06492" lon="-0.37214">
        <ele>943</ele>
      </trkpt>
      <trkpt lat="43.06503" lon="-0.37167">
        <ele>959</ele>
      </trkpt>
      <trkpt lat="43.06523" lon="-0.37126">
        <ele>959</ele>
      </trkpt>
      <trkpt lat="43.06583" lon="-0.37063">
        <ele>952</ele>
      </trkpt>
      <trkpt lat="43.06597" lon="-0.3704">
        <ele>971</ele>
      </trkpt>
      <trkpt lat="43.06648" lon="-0.36985">
        <ele>952</ele>
      </trkpt>
      <trkpt lat="43.06672" lon="-0.36945">
        <ele>976</ele>
      </trkpt>
      <trkpt lat="43.06716" lon="-0.36894">
        <ele>950</ele>
      </trkpt>
      <trkpt lat="43.06739" lon="-0.36856">
        <ele>973</ele>
      </trkpt>
      <trkpt lat="43.0674" lon="-0.36847">
        <ele>973</ele>
      </trkpt>
      <trkpt lat="43.06779" lon="-0.36797">
        <ele>973</ele>
      </trkpt>
      <trkpt lat="43.0685" lon="-0.36731">
        <ele>974</ele>
      </trkpt>
      <trkpt lat="43.06867" lon="-0.36699">
        <ele>987</ele>
      </trkpt>
      <trkpt lat="43.06875" lon="-0.36668">
        <ele>987</ele>
      </trkpt>
      <trkpt lat="43.06867" lon="-0.36614">
        <ele>983</ele>
      </trkpt>
      <trkpt lat="43.06823" lon="-0.36527">
        <ele>985</ele>
      </trkpt>
      <trkpt lat="43.06772" lon="-0.36467">
        <ele>980</ele>
      </trkpt>
      <trkpt lat="43.0673" lon="-0.36402">
        <ele>983</ele>
      </trkpt>
      <trkpt lat="43.06716" lon="-0.36391">
        <ele>983</ele>
      </trkpt>
      <trkpt lat="43.06691" lon="-0.36388">
        <ele>981</ele>
      </trkpt>
      <trkpt lat="43.06575" lon="-0.36428">
        <ele>988</ele>
      </trkpt>
      <trkpt lat="43.06518" lon="-0.36456">
        <ele>1005</ele>
      </trkpt>
      <trkpt lat="43.06352" lon="-0.36509">
        <ele>1005</ele>
      </trkpt>
      <trkpt lat="43.06211" lon="-0.36584">
        <ele>992</ele>
      </trkpt>
      <trkpt lat="43.06159" lon="-0.366">
        <ele>1003</ele>
      </trkpt>
      <trkpt lat="43.06129" lon="-0.366">
        <ele>1003</ele>
      </trkpt>
      <trkpt lat="43.06096" lon="-0.3661">
        <ele>1012</ele>
      </trkpt>
      <trkpt lat="43.06061" lon="-0.36601">
        <ele>1012</ele>
      </trkpt>
      <trkpt lat="43.05925" lon="-0.36604">
        <ele>1017</ele>
      </trkpt>
      <trkpt lat="43.05907" lon="-0.36596">
        <ele>1017</ele>
      </trkpt>
      <trkpt lat="43.05886" lon="-0.36572">
        <ele>1017</ele>
      </trkpt>
      <trkpt lat="43.05869" lon="-0.36518">
        <ele>1011</ele>
      </trkpt>
      <trkpt lat="43.05866" lon="-0.36411">
        <ele>1019</ele>
      </trkpt>
      <trkpt lat="43.05847" lon="-0.36341">
        <ele>1028</ele>
      </trkpt>
      <trkpt lat="43.05817" lon="-0.36269">
        <ele>1037</ele>
      </trkpt>
      <trkpt lat="43.05811" lon="-0.36179">
        <ele>1044</ele>
      </trkpt>
      <trkpt lat="43.0578" lon="-0.36098">
        <ele>1040</ele>
      </trkpt>
      <trkpt lat="43.05736" lon="-0.3604">
        <ele>1056</ele>
      </trkpt>
      <trkpt lat="43.05711" lon="-0.35985">
        <ele>1056</ele>
      </trkpt>
      <trkpt lat="43.05687" lon="-0.35897">
        <ele>1068</ele>
      </trkpt>
      <trkpt lat="43.05661" lon="-0.35864">
        <ele>1075</ele>
      </trkpt>
      <trkpt lat="43.05645" lon="-0.35857">
        <ele>1075</ele>
      </trkpt>
      <trkpt lat="43.05633" lon="-0.35864">
        <ele>1075</ele>
      </trkpt>
      <trkpt lat="43.05627" lon="-0.35883">
        <ele>1068</ele>
      </trkpt>
      <trkpt lat="43.05629" lon="-0.35903">
        <ele>1068</ele>
      </trkpt>
      <trkpt lat="43.05636" lon="-0.35918">
        <ele>1068</ele>
      </trkpt>
      <trkpt lat="43.05635" lon="-0.35981">
        <ele>1068</ele>
      </trkpt>
      <trkpt lat="43.05647" lon="-0.36035">
        <ele>1068</ele>
      </trkpt>
      <trkpt lat="43.05636" lon="-0.36071">
        <ele>1072</ele>
      </trkpt>
      <trkpt lat="43.05635" lon="-0.36103">
        <ele>1072</ele>
      </trkpt>
      <trkpt lat="43.05645" lon="-0.36166">
        <ele>1080</ele>
      </trkpt>
      <trkpt lat="43.05641" lon="-0.36251">
        <ele>1082</ele>
      </trkpt>
      <trkpt lat="43.05614" lon="-0.36349">
        <ele>1124</ele>
      </trkpt>
      <trkpt lat="43.05598" lon="-0.36457">
        <ele>1117</ele>
      </trkpt>
      <trkpt lat="43.05573" lon="-0.36492">
        <ele>1102</ele>
      </trkpt>
      <trkpt lat="43.0554" lon="-0.36513">
        <ele>1122</ele>
      </trkpt>
      <trkpt lat="43.05471" lon="-0.36531">
        <ele>1122</ele>
      </trkpt>
      <trkpt lat="43.05442" lon="-0.36551">
        <ele>1099</ele>
      </trkpt>
      <trkpt lat="43.0543" lon="-0.36551">
        <ele>1099</ele>
      </trkpt>
      <trkpt lat="43.0538" lon="-0.36515">
        <ele>1129</ele>
      </trkpt>
      <trkpt lat="43.05313" lon="-0.36475">
        <ele>1108</ele>
      </trkpt>
      <trkpt lat="43.05167" lon="-0.36473">
        <ele>1088</ele>
      </trkpt>
      <trkpt lat="43.05136" lon="-0.3648">
        <ele>1088</ele>
      </trkpt>
      <trkpt lat="43.0503" lon="-0.36548">
        <ele>1075</ele>
      </trkpt>
      <trkpt lat="43.04976" lon="-0.36569">
        <ele>1075</ele>
      </trkpt>
      <trkpt lat="43.04952" lon="-0.36596">
        <ele>1075</ele>
      </trkpt>
      <trkpt lat="43.04957" lon="-0.36623">
        <ele>1075</ele>
      </trkpt>
      <trkpt lat="43.04988" lon="-0.36657">
        <ele>1074</ele>
      </trkpt>
      <trkpt lat="43.04881" lon="-0.36632">
        <ele>1075</ele>
      </trkpt>
      <trkpt lat="43.04824" lon="-0.36593">
        <ele>1088</ele>
      </trkpt>
      <trkpt lat="43.04749" lon="-0.36563">
        <ele>1101</ele>
      </trkpt>
      <trkpt lat="43.04679" lon="-0.36558">
        <ele>1114</ele>
      </trkpt>
      <trkpt lat="43.04616" lon="-0.36533">
        <ele>1112</ele>
      </trkpt>
      <trkpt lat="43.04574" lon="-0.36503">
        <ele>1112</ele>
      </trkpt>
      <trkpt lat="43.04526" lon="-0.36457">
        <ele>1118</ele>
      </trkpt>
      <trkpt lat="43.04496" lon="-0.36437">
        <ele>1118</ele>
      </trkpt>
      <trkpt lat="43.04489" lon="-0.36427">
        <ele>1118</ele>
      </trkpt>
      <trkpt lat="43.04482" lon="-0.36396">
        <ele>1118</ele>
      </trkpt>
      <trkpt lat="43.04467" lon="-0.36381">
        <ele>1118</ele>
      </trkpt>
      <trkpt lat="43.04457" lon="-0.36385">
        <ele>1123</ele>
      </trkpt>
      <trkpt lat="43.04399" lon="-0.36507">
        <ele>1142</ele>
      </trkpt>
      <trkpt lat="43.04369" lon="-0.36508">
        <ele>1155</ele>
      </trkpt>
      <trkpt lat="43.04318" lon="-0.36479">
        <ele>1155</ele>
      </trkpt>
      <trkpt lat="43.04294" lon="-0.36485">
        <ele>1155</ele>
      </trkpt>
      <trkpt lat="43.04268" lon="-0.36478">
        <ele>1186</ele>
      </trkpt>
      <trkpt lat="43.04191" lon="-0.36405">
        <ele>1209</ele>
      </trkpt>
      <trkpt lat="43.04174" lon="-0.36377">
        <ele>1209</ele>
      </trkpt>
      <trkpt lat="43.04171" lon="-0.36359">
        <ele>1194</ele>
      </trkpt>
      <trkpt lat="43.04175" lon="-0.36326">
        <ele>1194</ele>
      </trkpt>
      <trkpt lat="43.04199" lon="-0.36276">
        <ele>1201</ele>
      </trkpt>
      <trkpt lat="43.04198" lon="-0.36222">
        <ele>1201</ele>
      </trkpt>
      <trkpt lat="43.04204" lon="-0.36204">
        <ele>1205</ele>
      </trkpt>
      <trkpt lat="43.04204" lon="-0.36185">
        <ele>1205</ele>
      </trkpt>
      <trkpt lat="43.04146" lon="-0.36146">
        <ele>1205</ele>
      </trkpt>
      <trkpt lat="43.04046" lon="-0.36131">
        <ele>1222</ele>
      </trkpt>
      <trkpt lat="43.0396" lon="-0.36096">
        <ele>1237</ele>
      </trkpt>
      <trkpt lat="43.03923" lon="-0.36098">
        <ele>1245</ele>
      </trkpt>
      <trkpt lat="43.03897" lon="-0.36089">
        <ele>1245</ele>
      </trkpt>
      <trkpt lat="43.03832" lon="-0.36033">
        <ele>1268</ele>
      </trkpt>
      <trkpt lat="43.03809" lon="-0.3602">
        <ele>1268</ele>
      </trkpt>
      <trkpt lat="43.03776" lon="-0.36021">
        <ele>1270</ele>
      </trkpt>
      <trkpt lat="43.03702" lon="-0.36006">
        <ele>1288</ele>
      </trkpt>
      <trkpt lat="43.03689" lon="-0.36017">
        <ele>1288</ele>
      </trkpt>
      <trkpt lat="43.03678" lon="-0.36049">
        <ele>1283</ele>
      </trkpt>
      <trkpt lat="43.03678" lon="-0.36067">
        <ele>1283</ele>
      </trkpt>
      <trkpt lat="43.03693" lon="-0.3614">
        <ele>1299</ele>
      </trkpt>
      <trkpt lat="43.03707" lon="-0.36171">
        <ele>1299</ele>
      </trkpt>
      <trkpt lat="43.0372" lon="-0.36185">
        <ele>1268</ele>
      </trkpt>
      <trkpt lat="43.03763" lon="-0.36211">
        <ele>1295</ele>
      </trkpt>
      <trkpt lat="43.03798" lon="-0.36223">
        <ele>1284</ele>
      </trkpt>
      <trkpt lat="43.03804" lon="-0.36232">
        <ele>1284</ele>
      </trkpt>
      <trkpt lat="43.038" lon="-0.36246">
        <ele>1284</ele>
      </trkpt>
      <trkpt lat="43.03782" lon="-0.36248">
        <ele>1295</ele>
      </trkpt>
      <trkpt lat="43.03702" lon="-0.3623">
        <ele>1324</ele>
      </trkpt>
      <trkpt lat="43.03679" lon="-0.36215">
        <ele>1324</ele>
      </trkpt>
      <trkpt lat="43.03663" lon="-0.36188">
        <ele>1299</ele>
      </trkpt>
      <trkpt lat="43.0363" lon="-0.36162">
        <ele>1299</ele>
      </trkpt>
      <trkpt lat="43.03621" lon="-0.36148">
        <ele>1339</ele>
      </trkpt>
      <trkpt lat="43.03625" lon="-0.36121">
        <ele>1283</ele>
      </trkpt>
      <trkpt lat="43.03622" lon="-0.36108">
        <ele>1329</ele>
      </trkpt>
      <trkpt lat="43.03583" lon="-0.36044">
        <ele>1329</ele>
      </trkpt>
      <trkpt lat="43.03577" lon="-0.36008">
        <ele>1327</ele>
      </trkpt>
      <trkpt lat="43.03589" lon="-0.35967">
        <ele>1327</ele>
      </trkpt>
      <trkpt lat="43.03588" lon="-0.35926">
        <ele>1326</ele>
      </trkpt>
      <trkpt lat="43.03606" lon="-0.35898">
        <ele>1326</ele>
      </trkpt>
      <trkpt lat="43.03608" lon="-0.35884">
        <ele>1326</ele>
      </trkpt>
      <trkpt lat="43.03585" lon="-0.3586">
        <ele>1330</ele>
      </trkpt>
      <trkpt lat="43.03588" lon="-0.35856">
        <ele>1330</ele>
      </trkpt>
      <trkpt lat="43.03592" lon="-0.35877">
        <ele>1326</ele>
      </trkpt>
      <trkpt lat="43.03589" lon="-0.35863">
        <ele>1330</ele>
      </trkpt>
      <trkpt lat="43.03589" lon="-0.35871">
        <ele>1330</ele>
      </trkpt>
      <trkpt lat="43.03594" lon="-0.35874">
        <ele>1330</ele>
      </trkpt>
      <trkpt lat="43.03591" lon="-0.35872">
        <ele>1330</ele>
      </trkpt>
      <trkpt lat="43.03597" lon="-0.35876">
        <ele>1326</ele>
      </trkpt>
      <trkpt lat="43.03593" lon="-0.35878">
        <ele>1326</ele>
      </trkpt>
      <trkpt lat="43.03592" lon="-0.3586">
        <ele>1330</ele>
      </trkpt>
      <trkpt lat="43.03601" lon="-0.35846">
        <ele>1330</ele>
      </trkpt>
      <trkpt lat="43.03625" lon="-0.35827">
        <ele>1332</ele>
      </trkpt>
      <trkpt lat="43.03631" lon="-0.35808">
        <ele>1332</ele>
      </trkpt>
      <trkpt lat="43.0363" lon="-0.3577">
        <ele>1348</ele>
      </trkpt>
      <trkpt lat="43.03623" lon="-0.3574">
        <ele>1339</ele>
      </trkpt>
      <trkpt lat="43.03597" lon="-0.35691">
        <ele>1352</ele>
      </trkpt>
      <trkpt lat="43.03549" lon="-0.35669">
        <ele>1352</ele>
      </trkpt>
      <trkpt lat="43.03534" lon="-0.35671">
        <ele>1366</ele>
      </trkpt>
      <trkpt lat="43.03519" lon="-0.35689">
        <ele>1366</ele>
      </trkpt>
      <trkpt lat="43.03529" lon="-0.35696">
        <ele>1366</ele>
      </trkpt>
      <trkpt lat="43.0351" lon="-0.35681">
        <ele>1366</ele>
      </trkpt>
      <trkpt lat="43.03519" lon="-0.35686">
        <ele>1366</ele>
      </trkpt>
      <trkpt lat="43.03514" lon="-0.35684">
        <ele>1366</ele>
      </trkpt>
      <trkpt lat="43.03482" lon="-0.35724">
        <ele>1351</ele>
      </trkpt>
      <trkpt lat="43.03458" lon="-0.35784">
        <ele>1384</ele>
      </trkpt>
      <trkpt lat="43.03469" lon="-0.3581">
        <ele>1348</ele>
      </trkpt>
      <trkpt lat="43.03464" lon="-0.35825">
        <ele>1348</ele>
      </trkpt>
      <trkpt lat="43.03453" lon="-0.35823">
        <ele>1383</ele>
      </trkpt>
      <trkpt lat="43.03443" lon="-0.35807">
        <ele>1383</ele>
      </trkpt>
      <trkpt lat="43.03447" lon="-0.3576">
        <ele>1384</ele>
      </trkpt>
      <trkpt lat="43.03461" lon="-0.35719">
        <ele>1351</ele>
      </trkpt>
      <trkpt lat="43.03471" lon="-0.35658">
        <ele>1366</ele>
      </trkpt>
      <trkpt lat="43.03471" lon="-0.35635">
        <ele>1366</ele>
      </trkpt>
      <trkpt lat="43.03497" lon="-0.35556">
        <ele>1378</ele>
      </trkpt>
      <trkpt lat="43.03519" lon="-0.35511">
        <ele>1391</ele>
      </trkpt>
      <trkpt lat="43.03519" lon="-0.35458">
        <ele>1398</ele>
      </trkpt>
      <trkpt lat="43.03538" lon="-0.35405">
        <ele>1398</ele>
      </trkpt>
      <trkpt lat="43.03563" lon="-0.35378">
        <ele>1396</ele>
      </trkpt>
      <trkpt lat="43.03571" lon="-0.3531">
        <ele>1405</ele>
      </trkpt>
      <trkpt lat="43.03567" lon="-0.35233">
        <ele>1410</ele>
      </trkpt>
      <trkpt lat="43.0357" lon="-0.35195">
        <ele>1418</ele>
      </trkpt>
      <trkpt lat="43.03602" lon="-0.35065">
        <ele>1428</ele>
      </trkpt>
      <trkpt lat="43.0361" lon="-0.3501">
        <ele>1437</ele>
      </trkpt>
      <trkpt lat="43.03641" lon="-0.34919">
        <ele>1449</ele>
      </trkpt>
      <trkpt lat="43.03632" lon="-0.3491">
        <ele>1449</ele>
      </trkpt>
      <trkpt lat="43.03557" lon="-0.35008">
        <ele>1437</ele>
      </trkpt>
      <trkpt lat="43.03521" lon="-0.35044">
        <ele>1442</ele>
      </trkpt>
      <trkpt lat="43.03516" lon="-0.35037">
        <ele>1456</ele>
      </trkpt>
      <trkpt lat="43.03546" lon="-0.34954">
        <ele>1447</ele>
      </trkpt>
      <trkpt lat="43.03558" lon="-0.34832">
        <ele>1457</ele>
      </trkpt>
      <trkpt lat="43.03566" lon="-0.34807">
        <ele>1457</ele>
      </trkpt>
      <trkpt lat="43.0357" lon="-0.34766">
        <ele>1466</ele>
      </trkpt>
      <trkpt lat="43.03579" lon="-0.34734">
        <ele>1466</ele>
      </trkpt>
      <trkpt lat="43.03603" lon="-0.34689">
        <ele>1477</ele>
      </trkpt>
      <trkpt lat="43.03618" lon="-0.34638">
        <ele>1477</ele>
      </trkpt>
      <trkpt lat="43.03601" lon="-0.34586">
        <ele>1489</ele>
      </trkpt>
      <trkpt lat="43.03586" lon="-0.34488">
        <ele>1494</ele>
      </trkpt>
      <trkpt lat="43.03598" lon="-0.34386">
        <ele>1497</ele>
      </trkpt>
      <trkpt lat="43.03597" lon="-0.34336">
        <ele>1501</ele>
      </trkpt>
      <trkpt lat="43.03588" lon="-0.34293">
        <ele>1501</ele>
      </trkpt>
      <trkpt lat="43.03588" lon="-0.34208">
        <ele>1508</ele>
      </trkpt>
      <trkpt lat="43.03602" lon="-0.34138">
        <ele>1508</ele>
      </trkpt>
      <trkpt lat="43.03594" lon="-0.3413">
        <ele>1508</ele>
      </trkpt>
      <trkpt lat="43.03603" lon="-0.34132">
        <ele>1508</ele>
      </trkpt>
      <trkpt lat="43.03619" lon="-0.34088">
        <ele>1508</ele>
      </trkpt>
      <trkpt lat="43.03626" lon="-0.34047">
        <ele>1509</ele>
      </trkpt>
      <trkpt lat="43.03633" lon="-0.33897">
        <ele>1509</ele>
      </trkpt>
      <trkpt lat="43.03622" lon="-0.33829">
        <ele>1508</ele>
      </trkpt>
      <trkpt lat="43.03631" lon="-0.33918">
        <ele>1509</ele>
      </trkpt>
      <trkpt lat="43.03619" lon="-0.34076">
        <ele>1508</ele>
      </trkpt>
      <trkpt lat="43.03611" lon="-0.34107">
        <ele>1508</ele>
      </trkpt>
      <trkpt lat="43.03589" lon="-0.34137">
        <ele>1508</ele>
      </trkpt>
      <trkpt lat="43.03529" lon="-0.34262">
        <ele>1510</ele>
      </trkpt>
      <trkpt lat="43.0351" lon="-0.34323">
        <ele>1506</ele>
      </trkpt>
      <trkpt lat="43.0346" lon="-0.34431">
        <ele>1505</ele>
      </trkpt>
      <trkpt lat="43.03421" lon="-0.34497">
        <ele>1513</ele>
      </trkpt>
      <trkpt lat="43.03421" lon="-0.34523">
        <ele>1513</ele>
      </trkpt>
      <trkpt lat="43.03412" lon="-0.34519">
        <ele>1513</ele>
      </trkpt>
      <trkpt lat="43.03413" lon="-0.3454">
        <ele>1513</ele>
      </trkpt>
      <trkpt lat="43.03384" lon="-0.34622">
        <ele>1506</ele>
      </trkpt>
      <trkpt lat="43.0336" lon="-0.34714">
        <ele>1519</ele>
      </trkpt>
      <trkpt lat="43.03326" lon="-0.34788">
        <ele>1519</ele>
      </trkpt>
      <trkpt lat="43.03297" lon="-0.34876">
        <ele>1507</ele>
      </trkpt>
      <trkpt lat="43.03287" lon="-0.35045">
        <ele>1529</ele>
      </trkpt>
      <trkpt lat="43.03274" lon="-0.35115">
        <ele>1529</ele>
      </trkpt>
      <trkpt lat="43.03259" lon="-0.35155">
        <ele>1519</ele>
      </trkpt>
      <trkpt lat="43.03182" lon="-0.35287">
        <ele>1538</ele>
      </trkpt>
      <trkpt lat="43.03161" lon="-0.3531">
        <ele>1520</ele>
      </trkpt>
      <trkpt lat="43.03121" lon="-0.35389">
        <ele>1549</ele>
      </trkpt>
      <trkpt lat="43.03118" lon="-0.35415">
        <ele>1549</ele>
      </trkpt>
      <trkpt lat="43.03067" lon="-0.35538">
        <ele>1535</ele>
      </trkpt>
      <trkpt lat="43.03068" lon="-0.35562">
        <ele>1522</ele>
      </trkpt>
      <trkpt lat="43.03019" lon="-0.35717">
        <ele>1553</ele>
      </trkpt>
      <trkpt lat="43.03015" lon="-0.3577">
        <ele>1553</ele>
      </trkpt>
      <trkpt lat="43.03007" lon="-0.35801">
        <ele>1554</ele>
      </trkpt>
      <trkpt lat="43.0301" lon="-0.35814">
        <ele>1554</ele>
      </trkpt>
      <trkpt lat="43.03006" lon="-0.35919">
        <ele>1564</ele>
      </trkpt>
      <trkpt lat="43.03011" lon="-0.36">
        <ele>1571</ele>
      </trkpt>
      <trkpt lat="43.03008" lon="-0.36013">
        <ele>1571</ele>
      </trkpt>
      <trkpt lat="43.03024" lon="-0.36078">
        <ele>1583</ele>
      </trkpt>
      <trkpt lat="43.03018" lon="-0.36129">
        <ele>1584</ele>
      </trkpt>
      <trkpt lat="43.0301" lon="-0.36153">
        <ele>1584</ele>
      </trkpt>
      <trkpt lat="43.03003" lon="-0.36157">
        <ele>1584</ele>
      </trkpt>
      <trkpt lat="43.03016" lon="-0.36221">
        <ele>1597</ele>
      </trkpt>
      <trkpt lat="43.03026" lon="-0.36244">
        <ele>1597</ele>
      </trkpt>
      <trkpt lat="43.03037" lon="-0.36248">
        <ele>1597</ele>
      </trkpt>
      <trkpt lat="43.03032" lon="-0.36256">
        <ele>1597</ele>
      </trkpt>
      <trkpt lat="43.0304" lon="-0.36264">
        <ele>1597</ele>
      </trkpt>
      <trkpt lat="43.03031" lon="-0.36304">
        <ele>1602</ele>
      </trkpt>
      <trkpt lat="43.03027" lon="-0.36306">
        <ele>1602</ele>
      </trkpt>
      <trkpt lat="43.02998" lon="-0.36406">
        <ele>1604</ele>
      </trkpt>
      <trkpt lat="43.02996" lon="-0.3643">
        <ele>1604</ele>
      </trkpt>
      <trkpt lat="43.0297" lon="-0.365">
        <ele>1595</ele>
      </trkpt>
      <trkpt lat="43.02968" lon="-0.36545">
        <ele>1585</ele>
      </trkpt>
      <trkpt lat="43.02975" lon="-0.36601">
        <ele>1585</ele>
      </trkpt>
      <trkpt lat="43.02989" lon="-0.36634">
        <ele>1589</ele>
      </trkpt>
      <trkpt lat="43.03009" lon="-0.36659">
        <ele>1589</ele>
      </trkpt>
      <trkpt lat="43.03016" lon="-0.36686">
        <ele>1589</ele>
      </trkpt>
      <trkpt lat="43.03027" lon="-0.36703">
        <ele>1589</ele>
      </trkpt>
      <trkpt lat="43.03063" lon="-0.36715">
        <ele>1591</ele>
      </trkpt>
      <trkpt lat="43.03082" lon="-0.36711">
        <ele>1591</ele>
      </trkpt>
      <trkpt lat="43.03136" lon="-0.36774">
        <ele>1565</ele>
      </trkpt>
      <trkpt lat="43.03191" lon="-0.36862">
        <ele>1579</ele>
      </trkpt>
      <trkpt lat="43.03199" lon="-0.36896">
        <ele>1595</ele>
      </trkpt>
      <trkpt lat="43.03229" lon="-0.36916">
        <ele>1565</ele>
      </trkpt>
      <trkpt lat="43.03243" lon="-0.36938">
        <ele>1565</ele>
      </trkpt>
      <trkpt lat="43.03266" lon="-0.36996">
        <ele>1577</ele>
      </trkpt>
      <trkpt lat="43.0327" lon="-0.37018">
        <ele>1577</ele>
      </trkpt>
      <trkpt lat="43.03264" lon="-0.37029">
        <ele>1577</ele>
      </trkpt>
      <trkpt lat="43.03256" lon="-0.37021">
        <ele>1577</ele>
      </trkpt>
      <trkpt lat="43.03264" lon="-0.37054">
        <ele>1568</ele>
      </trkpt>
      <trkpt lat="43.03275" lon="-0.37058">
        <ele>1568</ele>
      </trkpt>
      <trkpt lat="43.03307" lon="-0.37088">
        <ele>1545</ele>
      </trkpt>
      <trkpt lat="43.03323" lon="-0.37093">
        <ele>1545</ele>
      </trkpt>
      <trkpt lat="43.03348" lon="-0.37116">
        <ele>1545</ele>
      </trkpt>
      <trkpt lat="43.03387" lon="-0.37181">
        <ele>1521</ele>
      </trkpt>
      <trkpt lat="43.03412" lon="-0.37239">
        <ele>1511</ele>
      </trkpt>
      <trkpt lat="43.03417" lon="-0.37296">
        <ele>1496</ele>
      </trkpt>
      <trkpt lat="43.03429" lon="-0.37341">
        <ele>1496</ele>
      </trkpt>
      <trkpt lat="43.03429" lon="-0.37354">
        <ele>1496</ele>
      </trkpt>
      <trkpt lat="43.0339" lon="-0.37429">
        <ele>1476</ele>
      </trkpt>
      <trkpt lat="43.03342" lon="-0.37482">
        <ele>1464</ele>
      </trkpt>
      <trkpt lat="43.03327" lon="-0.37508">
        <ele>1464</ele>
      </trkpt>
      <trkpt lat="43.03264" lon="-0.37592">
        <ele>1457</ele>
      </trkpt>
      <trkpt lat="43.0323" lon="-0.37667">
        <ele>1441</ele>
      </trkpt>
      <trkpt lat="43.03219" lon="-0.37712">
        <ele>1425</ele>
      </trkpt>
      <trkpt lat="43.03219" lon="-0.37751">
        <ele>1425</ele>
      </trkpt>
      <trkpt lat="43.0323" lon="-0.37784">
        <ele>1425</ele>
      </trkpt>
      <trkpt lat="43.03244" lon="-0.37802">
        <ele>1426</ele>
      </trkpt>
      <trkpt lat="43.03279" lon="-0.37795">
        <ele>1426</ele>
      </trkpt>
      <trkpt lat="43.03306" lon="-0.37799">
        <ele>1410</ele>
      </trkpt>
      <trkpt lat="43.03348" lon="-0.37795">
        <ele>1410</ele>
      </trkpt>
      <trkpt lat="43.03466" lon="-0.37817">
        <ele>1372</ele>
      </trkpt>
      <trkpt lat="43.03505" lon="-0.37848">
        <ele>1372</ele>
      </trkpt>
      <trkpt lat="43.03562" lon="-0.37927">
        <ele>1356</ele>
      </trkpt>
      <trkpt lat="43.036" lon="-0.38017">
        <ele>1357</ele>
      </trkpt>
      <trkpt lat="43.03646" lon="-0.38151">
        <ele>1343</ele>
      </trkpt>
      <trkpt lat="43.0366" lon="-0.38207">
        <ele>1343</ele>
      </trkpt>
      <trkpt lat="43.03714" lon="-0.38289">
        <ele>1338</ele>
      </trkpt>
      <trkpt lat="43.03736" lon="-0.38353">
        <ele>1340</ele>
      </trkpt>
      <trkpt lat="43.03776" lon="-0.38436">
        <ele>1344</ele>
      </trkpt>
      <trkpt lat="43.03774" lon="-0.38426">
        <ele>1344</ele>
      </trkpt>
      <trkpt lat="43.03863" lon="-0.38598">
        <ele>1320</ele>
      </trkpt>
      <trkpt lat="43.03872" lon="-0.38636">
        <ele>1310</ele>
      </trkpt>
      <trkpt lat="43.03867" lon="-0.38679">
        <ele>1310</ele>
      </trkpt>
      <trkpt lat="43.03873" lon="-0.38831">
        <ele>1302</ele>
      </trkpt>
      <trkpt lat="43.03911" lon="-0.38908">
        <ele>1279</ele>
      </trkpt>
      <trkpt lat="43.03972" lon="-0.38988">
        <ele>1254</ele>
      </trkpt>
      <trkpt lat="43.04019" lon="-0.38992">
        <ele>1254</ele>
      </trkpt>
      <trkpt lat="43.04041" lon="-0.39017">
        <ele>1254</ele>
      </trkpt>
      <trkpt lat="43.04112" lon="-0.39169">
        <ele>1219</ele>
      </trkpt>
      <trkpt lat="43.04149" lon="-0.39283">
        <ele>1201</ele>
      </trkpt>
      <trkpt lat="43.04169" lon="-0.39421">
        <ele>1183</ele>
      </trkpt>
      <trkpt lat="43.04192" lon="-0.39526">
        <ele>1180</ele>
      </trkpt>
      <trkpt lat="43.04207" lon="-0.39572">
        <ele>1183</ele>
      </trkpt>
      <trkpt lat="43.04172" lon="-0.39642">
        <ele>1164</ele>
      </trkpt>
      <trkpt lat="43.04062" lon="-0.39739">
        <ele>1144</ele>
      </trkpt>
      <trkpt lat="43.04011" lon="-0.39806">
        <ele>1141</ele>
      </trkpt>
      <trkpt lat="43.03921" lon="-0.39961">
        <ele>1150</ele>
      </trkpt>
      <trkpt lat="43.03928" lon="-0.39968">
        <ele>1150</ele>
      </trkpt>
      <trkpt lat="43.03927" lon="-0.39986">
        <ele>1150</ele>
      </trkpt>
      <trkpt lat="43.03921" lon="-0.39982">
        <ele>1150</ele>
      </trkpt>
      <trkpt lat="43.03931" lon="-0.3999">
        <ele>1150</ele>
      </trkpt>
      <trkpt lat="43.03934" lon="-0.40001">
        <ele>1150</ele>
      </trkpt>
      <trkpt lat="43.03996" lon="-0.40023">
        <ele>1103</ele>
      </trkpt>
      <trkpt lat="43.04019" lon="-0.40021">
        <ele>1103</ele>
      </trkpt>
      <trkpt lat="43.04036" lon="-0.40028">
        <ele>1103</ele>
      </trkpt>
      <trkpt lat="43.04034" lon="-0.4004">
        <ele>1103</ele>
      </trkpt>
      <trkpt lat="43.0408" lon="-0.4007">
        <ele>1090</ele>
      </trkpt>
      <trkpt lat="43.04117" lon="-0.40073">
        <ele>1090</ele>
      </trkpt>
      <trkpt lat="43.04178" lon="-0.40058">
        <ele>1076</ele>
      </trkpt>
      <trkpt lat="43.0422" lon="-0.40061">
        <ele>1062</ele>
      </trkpt>
      <trkpt lat="43.04384" lon="-0.40145">
        <ele>1044</ele>
      </trkpt>
      <trkpt lat="43.04458" lon="-0.40217">
        <ele>1079</ele>
      </trkpt>
      <trkpt lat="43.04575" lon="-0.40278">
        <ele>1041</ele>
      </trkpt>
      <trkpt lat="43.04617" lon="-0.40287">
        <ele>1041</ele>
      </trkpt>
      <trkpt lat="43.04684" lon="-0.40316">
        <ele>1067</ele>
      </trkpt>
      <trkpt lat="43.04714" lon="-0.40337">
        <ele>1054</ele>
      </trkpt>
      <trkpt lat="43.04745" lon="-0.40369">
        <ele>1054</ele>
      </trkpt>
      <trkpt lat="43.04784" lon="-0.40393">
        <ele>1070</ele>
      </trkpt>
      <trkpt lat="43.04838" lon="-0.40436">
        <ele>1064</ele>
      </trkpt>
      <trkpt lat="43.04908" lon="-0.40418">
        <ele>1066</ele>
      </trkpt>
      <trkpt lat="43.04949" lon="-0.40433">
        <ele>1066</ele>
      </trkpt>
      <trkpt lat="43.04975" lon="-0.40437">
        <ele>1060</ele>
      </trkpt>
      <trkpt lat="43.05014" lon="-0.40457">
        <ele>1060</ele>
      </trkpt>
      <trkpt lat="43.05033" lon="-0.40456">
        <ele>1060</ele>
      </trkpt>
      <trkpt lat="43.0508" lon="-0.40478">
        <ele>1059</ele>
      </trkpt>
      <trkpt lat="43.05128" lon="-0.40519">
        <ele>1047</ele>
      </trkpt>
      <trkpt lat="43.05173" lon="-0.40546">
        <ele>1046</ele>
      </trkpt>
      <trkpt lat="43.05176" lon="-0.40555">
        <ele>1046</ele>
      </trkpt>
      <trkpt lat="43.05137" lon="-0.40571">
        <ele>1046</ele>
      </trkpt>
      <trkpt lat="43.05064" lon="-0.40589">
        <ele>1050</ele>
      </trkpt>
      <trkpt lat="43.05" lon="-0.40593">
        <ele>1047</ele>
      </trkpt>
      <trkpt lat="43.04961" lon="-0.40588">
        <ele>1047</ele>
      </trkpt>
      <trkpt lat="43.04924" lon="-0.40594">
        <ele>1046</ele>
      </trkpt>
      <trkpt lat="43.04854" lon="-0.4062">
        <ele>1046</ele>
      </trkpt>
      <trkpt lat="43.04836" lon="-0.40646">
        <ele>1033</ele>
      </trkpt>
      <trkpt lat="43.04818" lon="-0.40689">
        <ele>1033</ele>
      </trkpt>
      <trkpt lat="43.0482" lon="-0.40723">
        <ele>1015</ele>
      </trkpt>
      <trkpt lat="43.04835" lon="-0.40721">
        <ele>1015</ele>
      </trkpt>
      <trkpt lat="43.0485" lon="-0.40739">
        <ele>1015</ele>
      </trkpt>
      <trkpt lat="43.04904" lon="-0.40775">
        <ele>1010</ele>
      </trkpt>
      <trkpt lat="43.04967" lon="-0.40791">
        <ele>1009</ele>
      </trkpt>
      <trkpt lat="43.05001" lon="-0.40824">
        <ele>984</ele>
      </trkpt>
      <trkpt lat="43.05052" lon="-0.40853">
        <ele>996</ele>
      </trkpt>
      <trkpt lat="43.05235" lon="-0.40903">
        <ele>994</ele>
      </trkpt>
      <trkpt lat="43.05289" lon="-0.40937">
        <ele>994</ele>
      </trkpt>
      <trkpt lat="43.05296" lon="-0.40936">
        <ele>1001</ele>
      </trkpt>
      <trkpt lat="43.05299" lon="-0.40941">
        <ele>1001</ele>
      </trkpt>
      <trkpt lat="43.05296" lon="-0.40946">
        <ele>1001</ele>
      </trkpt>
      <trkpt lat="43.05312" lon="-0.40998">
        <ele>990</ele>
      </trkpt>
      <trkpt lat="43.05313" lon="-0.41025">
        <ele>990</ele>
      </trkpt>
      <trkpt lat="43.05306" lon="-0.41036">
        <ele>990</ele>
      </trkpt>
      <trkpt lat="43.05282" lon="-0.41048">
        <ele>945</ele>
      </trkpt>
      <trkpt lat="43.05249" lon="-0.41048">
        <ele>945</ele>
      </trkpt>
      <trkpt lat="43.05235" lon="-0.41057">
        <ele>945</ele>
      </trkpt>
      <trkpt lat="43.05232" lon="-0.41052">
        <ele>945</ele>
      </trkpt>
      <trkpt lat="43.0515" lon="-0.41022">
        <ele>956</ele>
      </trkpt>
      <trkpt lat="43.05145" lon="-0.41025">
        <ele>956</ele>
      </trkpt>
      <trkpt lat="43.05156" lon="-0.41049">
        <ele>929</ele>
      </trkpt>
      <trkpt lat="43.0515" lon="-0.41051">
        <ele>929</ele>
      </trkpt>
      <trkpt lat="43.05144" lon="-0.41068">
        <ele>929</ele>
      </trkpt>
      <trkpt lat="43.0513" lon="-0.41068">
        <ele>929</ele>
      </trkpt>
      <trkpt lat="43.05132" lon="-0.41083">
        <ele>929</ele>
      </trkpt>
      <trkpt lat="43.05098" lon="-0.41083">
        <ele>905</ele>
      </trkpt>
      <trkpt lat="43.05067" lon="-0.41072">
        <ele>905</ele>
      </trkpt>
      <trkpt lat="43.05044" lon="-0.41085">
        <ele>905</ele>
      </trkpt>
      <trkpt lat="43.05014" lon="-0.41119">
        <ele>887</ele>
      </trkpt>
      <trkpt lat="43.05011" lon="-0.41128">
        <ele>863</ele>
      </trkpt>
      <trkpt lat="43.04982" lon="-0.4113">
        <ele>863</ele>
      </trkpt>
      <trkpt lat="43.04957" lon="-0.41143">
        <ele>866</ele>
      </trkpt>
      <trkpt lat="43.04954" lon="-0.41157">
        <ele>866</ele>
      </trkpt>
      <trkpt lat="43.04955" lon="-0.4115">
        <ele>866</ele>
      </trkpt>
      <trkpt lat="43.05011" lon="-0.41196">
        <ele>863</ele>
      </trkpt>
      <trkpt lat="43.05026" lon="-0.41224">
        <ele>837</ele>
      </trkpt>
      <trkpt lat="43.05047" lon="-0.41239">
        <ele>858</ele>
      </trkpt>
      <trkpt lat="43.05033" lon="-0.41233">
        <ele>837</ele>
      </trkpt>
      <trkpt lat="43.05045" lon="-0.41236">
        <ele>858</ele>
      </trkpt>
      <trkpt lat="43.05042" lon="-0.41237">
        <ele>858</ele>
      </trkpt>
      <trkpt lat="43.05045" lon="-0.41242">
        <ele>858</ele>
      </trkpt>
      <trkpt lat="43.05031" lon="-0.41243">
        <ele>837</ele>
      </trkpt>
      <trkpt lat="43.05037" lon="-0.41325">
        <ele>813</ele>
      </trkpt>
      <trkpt lat="43.05028" lon="-0.41359">
        <ele>813</ele>
      </trkpt>
      <trkpt lat="43.05017" lon="-0.41341">
        <ele>813</ele>
      </trkpt>
      <trkpt lat="43.05006" lon="-0.41334">
        <ele>813</ele>
      </trkpt>
      <trkpt lat="43.05007" lon="-0.4133">
        <ele>813</ele>
      </trkpt>
      <trkpt lat="43.04998" lon="-0.41325">
        <ele>813</ele>
      </trkpt>
      <trkpt lat="43.05002" lon="-0.41324">
        <ele>813</ele>
      </trkpt>
      <trkpt lat="43.04996" lon="-0.41332">
        <ele>813</ele>
      </trkpt>
      <trkpt lat="43.0499" lon="-0.41329">
        <ele>813</ele>
      </trkpt>
      <trkpt lat="43.04986" lon="-0.41312">
        <ele>813</ele>
      </trkpt>
      <trkpt lat="43.04974" lon="-0.41307">
        <ele>813</ele>
      </trkpt>
      <trkpt lat="43.04927" lon="-0.41316">
        <ele>790</ele>
      </trkpt>
      <trkpt lat="43.04899" lon="-0.41302">
        <ele>790</ele>
      </trkpt>
      <trkpt lat="43.04882" lon="-0.41309">
        <ele>790</ele>
      </trkpt>
      <trkpt lat="43.04865" lon="-0.41304">
        <ele>769</ele>
      </trkpt>
      <trkpt lat="43.04845" lon="-0.41322">
        <ele>769</ele>
      </trkpt>
      <trkpt lat="43.04813" lon="-0.41331">
        <ele>769</ele>
      </trkpt>
      <trkpt lat="43.04786" lon="-0.41321">
        <ele>747</ele>
      </trkpt>
      <trkpt lat="43.04731" lon="-0.41336">
        <ele>747</ele>
      </trkpt>
      <trkpt lat="43.04724" lon="-0.4133">
        <ele>747</ele>
      </trkpt>
      <trkpt lat="43.04664" lon="-0.41325">
        <ele>721</ele>
      </trkpt>
      <trkpt lat="43.046" lon="-0.4124">
        <ele>718</ele>
      </trkpt>
      <trkpt lat="43.04564" lon="-0.41226">
        <ele>718</ele>
      </trkpt>
      <trkpt lat="43.04557" lon="-0.41213">
        <ele>718</ele>
      </trkpt>
      <trkpt lat="43.04542" lon="-0.41209">
        <ele>718</ele>
      </trkpt>
      <trkpt lat="43.04478" lon="-0.41226">
        <ele>702</ele>
      </trkpt>
      <trkpt lat="43.04446" lon="-0.4126">
        <ele>705</ele>
      </trkpt>
      <trkpt lat="43.04422" lon="-0.41267">
        <ele>705</ele>
      </trkpt>
      <trkpt lat="43.04401" lon="-0.41264">
        <ele>705</ele>
      </trkpt>
      <trkpt lat="43.04318" lon="-0.41306">
        <ele>670</ele>
      </trkpt>
      <trkpt lat="43.04257" lon="-0.41304">
        <ele>664</ele>
      </trkpt>
      <trkpt lat="43.04229" lon="-0.41295">
        <ele>664</ele>
      </trkpt>
      <trkpt lat="43.04184" lon="-0.41295">
        <ele>647</ele>
      </trkpt>
      <trkpt lat="43.04174" lon="-0.41289">
        <ele>697</ele>
      </trkpt>
      <trkpt lat="43.04172" lon="-0.41295">
        <ele>647</ele>
      </trkpt>
      <trkpt lat="43.04181" lon="-0.41304">
        <ele>647</ele>
      </trkpt>
      <trkpt lat="43.04211" lon="-0.41311">
        <ele>664</ele>
      </trkpt>
      <trkpt lat="43.04265" lon="-0.41356">
        <ele>664</ele>
      </trkpt>
      <trkpt lat="43.04339" lon="-0.41373">
        <ele>670</ele>
      </trkpt>
      <trkpt lat="43.04377" lon="-0.41365">
        <ele>663</ele>
      </trkpt>
      <trkpt lat="43.04411" lon="-0.41385">
        <ele>627</ele>
      </trkpt>
      <trkpt lat="43.04454" lon="-0.41368">
        <ele>663</ele>
      </trkpt>
      <trkpt lat="43.04465" lon="-0.41351">
        <ele>664</ele>
      </trkpt>
      <trkpt lat="43.04483" lon="-0.41343">
        <ele>664</ele>
      </trkpt>
      <trkpt lat="43.04482" lon="-0.41333">
        <ele>664</ele>
      </trkpt>
      <trkpt lat="43.04505" lon="-0.4133">
        <ele>664</ele>
      </trkpt>
      <trkpt lat="43.0451" lon="-0.41339">
        <ele>664</ele>
      </trkpt>
      <trkpt lat="43.04504" lon="-0.41379">
        <ele>628</ele>
      </trkpt>
      <trkpt lat="43.04515" lon="-0.41414">
        <ele>628</ele>
      </trkpt>
      <trkpt lat="43.04534" lon="-0.41445">
        <ele>628</ele>
      </trkpt>
      <trkpt lat="43.04523" lon="-0.41443">
        <ele>628</ele>
      </trkpt>
      <trkpt lat="43.0453" lon="-0.4145">
        <ele>628</ele>
      </trkpt>
      <trkpt lat="43.04525" lon="-0.41455">
        <ele>628</ele>
      </trkpt>
      <trkpt lat="43.04526" lon="-0.41462">
        <ele>584</ele>
      </trkpt>
      <trkpt lat="43.04552" lon="-0.4147">
        <ele>602</ele>
      </trkpt>
      <trkpt lat="43.04552" lon="-0.41481">
        <ele>602</ele>
      </trkpt>
      <trkpt lat="43.04539" lon="-0.41483">
        <ele>584</ele>
      </trkpt>
      <trkpt lat="43.04545" lon="-0.41485">
        <ele>602</ele>
      </trkpt>
      <trkpt lat="43.04543" lon="-0.41491">
        <ele>602</ele>
      </trkpt>
      <trkpt lat="43.04524" lon="-0.41502">
        <ele>584</ele>
      </trkpt>
      <trkpt lat="43.04543" lon="-0.41516">
        <ele>602</ele>
      </trkpt>
      <trkpt lat="43.0454" lon="-0.41525">
        <ele>584</ele>
      </trkpt>
      <trkpt lat="43.04522" lon="-0.41527">
        <ele>584</ele>
      </trkpt>
      <trkpt lat="43.04459" lon="-0.41562">
        <ele>532</ele>
      </trkpt>
      <trkpt lat="43.0445" lon="-0.4156">
        <ele>536</ele>
      </trkpt>
      <trkpt lat="43.04444" lon="-0.41568">
        <ele>536</ele>
      </trkpt>
      <trkpt lat="43.04439" lon="-0.41562">
        <ele>536</ele>
      </trkpt>
      <trkpt lat="43.04427" lon="-0.41575">
        <ele>536</ele>
      </trkpt>
      <trkpt lat="43.04412" lon="-0.41572">
        <ele>536</ele>
      </trkpt>
      <trkpt lat="43.04414" lon="-0.41577">
        <ele>536</ele>
      </trkpt>
      <trkpt lat="43.0433" lon="-0.41633">
        <ele>503</ele>
      </trkpt>
      <trkpt lat="43.04258" lon="-0.41635">
        <ele>496</ele>
      </trkpt>
      <trkpt lat="43.0413" lon="-0.41626">
        <ele>490</ele>
      </trkpt>
      <trkpt lat="43.04095" lon="-0.41635">
        <ele>489</ele>
      </trkpt>
      <trkpt lat="43.04094" lon="-0.41641">
        <ele>489</ele>
      </trkpt>
      <trkpt lat="43.04089" lon="-0.41638">
        <ele>489</ele>
      </trkpt>
      <trkpt lat="43.04076" lon="-0.41643">
        <ele>489</ele>
      </trkpt>
      <trkpt lat="43.04047" lon="-0.41642">
        <ele>489</ele>
      </trkpt>
      <trkpt lat="43.03987" lon="-0.41653">
        <ele>480</ele>
      </trkpt>
      <trkpt lat="43.03914" lon="-0.41656">
        <ele>473</ele>
      </trkpt>
      <trkpt lat="43.0381" lon="-0.41678">
        <ele>471</ele>
      </trkpt>
      <trkpt lat="43.03763" lon="-0.4168">
        <ele>482</ele>
      </trkpt>
      <trkpt lat="43.03738" lon="-0.41698">
        <ele>482</ele>
      </trkpt>
      <trkpt lat="43.03712" lon="-0.41709">
        <ele>457</ele>
      </trkpt>
      <trkpt lat="43.03683" lon="-0.41748">
        <ele>462</ele>
      </trkpt>
      <trkpt lat="43.03569" lon="-0.41824">
        <ele>451</ele>
      </trkpt>
    </trkseg>
  </trk>
  <trk>
    <name><![CDATA[Raid des 3 vallées - Etape 3/3 Bedous-Oloron]]></name>
    <trkseg>
      <trkpt lat="42.99446" lon="-0.60278">
        <ele>411</ele>
      </trkpt>
      <trkpt lat="42.99445" lon="-0.60278">
        <ele>411</ele>
      </trkpt>
      <trkpt lat="42.99477" lon="-0.60257">
        <ele>410</ele>
      </trkpt>
      <trkpt lat="42.99565" lon="-0.60277">
        <ele>412</ele>
      </trkpt>
      <trkpt lat="42.996" lon="-0.60243">
        <ele>412</ele>
      </trkpt>
      <trkpt lat="42.99692" lon="-0.60154">
        <ele>418</ele>
      </trkpt>
      <trkpt lat="42.9969" lon="-0.60145">
        <ele>418</ele>
      </trkpt>
      <trkpt lat="42.9966" lon="-0.60079">
        <ele>418</ele>
      </trkpt>
      <trkpt lat="42.99656" lon="-0.60052">
        <ele>418</ele>
      </trkpt>
      <trkpt lat="42.99657" lon="-0.59986">
        <ele>419</ele>
      </trkpt>
      <trkpt lat="42.99716" lon="-0.59967">
        <ele>418</ele>
      </trkpt>
      <trkpt lat="42.99689" lon="-0.59809">
        <ele>420</ele>
      </trkpt>
      <trkpt lat="42.99623" lon="-0.59506">
        <ele>428</ele>
      </trkpt>
      <trkpt lat="42.99592" lon="-0.59503">
        <ele>428</ele>
      </trkpt>
      <trkpt lat="42.99533" lon="-0.59456">
        <ele>452</ele>
      </trkpt>
      <trkpt lat="42.99226" lon="-0.59348">
        <ele>476</ele>
      </trkpt>
      <trkpt lat="42.99124" lon="-0.59338">
        <ele>477</ele>
      </trkpt>
      <trkpt lat="42.99007" lon="-0.59338">
        <ele>485</ele>
      </trkpt>
      <trkpt lat="42.98508" lon="-0.5953">
        <ele>474</ele>
      </trkpt>
      <trkpt lat="42.98493" lon="-0.59525">
        <ele>474</ele>
      </trkpt>
      <trkpt lat="42.9821" lon="-0.59481">
        <ele>480</ele>
      </trkpt>
      <trkpt lat="42.98162" lon="-0.59445">
        <ele>499</ele>
      </trkpt>
      <trkpt lat="42.97995" lon="-0.59346">
        <ele>505</ele>
      </trkpt>
      <trkpt lat="42.97988" lon="-0.5934">
        <ele>505</ele>
      </trkpt>
      <trkpt lat="42.97941" lon="-0.59288">
        <ele>510</ele>
      </trkpt>
      <trkpt lat="42.97871" lon="-0.59141">
        <ele>524</ele>
      </trkpt>
      <trkpt lat="42.97865" lon="-0.59135">
        <ele>524</ele>
      </trkpt>
      <trkpt lat="42.9766" lon="-0.59167">
        <ele>533</ele>
      </trkpt>
      <trkpt lat="42.9765" lon="-0.59179">
        <ele>533</ele>
      </trkpt>
      <trkpt lat="42.97609" lon="-0.59231">
        <ele>530</ele>
      </trkpt>
      <trkpt lat="42.97581" lon="-0.59271">
        <ele>530</ele>
      </trkpt>
      <trkpt lat="42.97493" lon="-0.59561">
        <ele>528</ele>
      </trkpt>
      <trkpt lat="42.97488" lon="-0.59568">
        <ele>528</ele>
      </trkpt>
      <trkpt lat="42.97476" lon="-0.59568">
        <ele>528</ele>
      </trkpt>
      <trkpt lat="42.97464" lon="-0.59398">
        <ele>528</ele>
      </trkpt>
      <trkpt lat="42.97451" lon="-0.59368">
        <ele>532</ele>
      </trkpt>
      <trkpt lat="42.97435" lon="-0.5937">
        <ele>532</ele>
      </trkpt>
      <trkpt lat="42.97374" lon="-0.59427">
        <ele>514</ele>
      </trkpt>
      <trkpt lat="42.97367" lon="-0.59427">
        <ele>514</ele>
      </trkpt>
      <trkpt lat="42.97364" lon="-0.59423">
        <ele>514</ele>
      </trkpt>
      <trkpt lat="42.97352" lon="-0.59357">
        <ele>522</ele>
      </trkpt>
      <trkpt lat="42.97394" lon="-0.59305">
        <ele>532</ele>
      </trkpt>
      <trkpt lat="42.97398" lon="-0.59259">
        <ele>540</ele>
      </trkpt>
      <trkpt lat="42.97372" lon="-0.59047">
        <ele>541</ele>
      </trkpt>
      <trkpt lat="42.97345" lon="-0.58962">
        <ele>551</ele>
      </trkpt>
      <trkpt lat="42.97245" lon="-0.5874">
        <ele>569</ele>
      </trkpt>
      <trkpt lat="42.97225" lon="-0.58728">
        <ele>569</ele>
      </trkpt>
      <trkpt lat="42.97218" lon="-0.58729">
        <ele>569</ele>
      </trkpt>
      <trkpt lat="42.97178" lon="-0.58816">
        <ele>568</ele>
      </trkpt>
      <trkpt lat="42.97169" lon="-0.58817">
        <ele>568</ele>
      </trkpt>
      <trkpt lat="42.97114" lon="-0.58602">
        <ele>587</ele>
      </trkpt>
      <trkpt lat="42.97079" lon="-0.58573">
        <ele>587</ele>
      </trkpt>
      <trkpt lat="42.97012" lon="-0.58582">
        <ele>610</ele>
      </trkpt>
      <trkpt lat="42.96945" lon="-0.58688">
        <ele>636</ele>
      </trkpt>
      <trkpt lat="42.9694" lon="-0.58684">
        <ele>636</ele>
      </trkpt>
      <trkpt lat="42.96933" lon="-0.58673">
        <ele>636</ele>
      </trkpt>
      <trkpt lat="42.96937" lon="-0.5862">
        <ele>642</ele>
      </trkpt>
      <trkpt lat="42.96983" lon="-0.58543">
        <ele>610</ele>
      </trkpt>
      <trkpt lat="42.96984" lon="-0.58529">
        <ele>619</ele>
      </trkpt>
      <trkpt lat="42.96951" lon="-0.58368">
        <ele>654</ele>
      </trkpt>
      <trkpt lat="42.96865" lon="-0.5821">
        <ele>674</ele>
      </trkpt>
      <trkpt lat="42.96865" lon="-0.58203">
        <ele>687</ele>
      </trkpt>
      <trkpt lat="42.9688" lon="-0.58177">
        <ele>654</ele>
      </trkpt>
      <trkpt lat="42.96914" lon="-0.58136">
        <ele>654</ele>
      </trkpt>
      <trkpt lat="42.96895" lon="-0.58026">
        <ele>676</ele>
      </trkpt>
      <trkpt lat="42.96933" lon="-0.57904">
        <ele>686</ele>
      </trkpt>
      <trkpt lat="42.96915" lon="-0.57794">
        <ele>690</ele>
      </trkpt>
      <trkpt lat="42.96836" lon="-0.57648">
        <ele>685</ele>
      </trkpt>
      <trkpt lat="42.96781" lon="-0.57366">
        <ele>709</ele>
      </trkpt>
      <trkpt lat="42.96669" lon="-0.57168">
        <ele>733</ele>
      </trkpt>
      <trkpt lat="42.96648" lon="-0.57076">
        <ele>732</ele>
      </trkpt>
      <trkpt lat="42.96621" lon="-0.56806">
        <ele>733</ele>
      </trkpt>
      <trkpt lat="42.96663" lon="-0.56467">
        <ele>733</ele>
      </trkpt>
      <trkpt lat="42.96656" lon="-0.56416">
        <ele>737</ele>
      </trkpt>
      <trkpt lat="42.96654" lon="-0.56373">
        <ele>743</ele>
      </trkpt>
      <trkpt lat="42.96579" lon="-0.56266">
        <ele>745</ele>
      </trkpt>
      <trkpt lat="42.96509" lon="-0.56208">
        <ele>752</ele>
      </trkpt>
      <trkpt lat="42.96506" lon="-0.56198">
        <ele>752</ele>
      </trkpt>
      <trkpt lat="42.96483" lon="-0.56147">
        <ele>752</ele>
      </trkpt>
      <trkpt lat="42.96503" lon="-0.56019">
        <ele>782</ele>
      </trkpt>
      <trkpt lat="42.96507" lon="-0.56018">
        <ele>782</ele>
      </trkpt>
      <trkpt lat="42.96536" lon="-0.56024">
        <ele>782</ele>
      </trkpt>
      <trkpt lat="42.96645" lon="-0.55999">
        <ele>797</ele>
      </trkpt>
      <trkpt lat="42.96674" lon="-0.56009">
        <ele>797</ele>
      </trkpt>
      <trkpt lat="42.96909" lon="-0.56173">
        <ele>821</ele>
      </trkpt>
      <trkpt lat="42.96956" lon="-0.56225">
        <ele>796</ele>
      </trkpt>
      <trkpt lat="42.97039" lon="-0.56455">
        <ele>814</ele>
      </trkpt>
      <trkpt lat="42.97041" lon="-0.56456">
        <ele>814</ele>
      </trkpt>
      <trkpt lat="42.97072" lon="-0.56502">
        <ele>847</ele>
      </trkpt>
      <trkpt lat="42.97216" lon="-0.56603">
        <ele>887</ele>
      </trkpt>
      <trkpt lat="42.97239" lon="-0.56634">
        <ele>865</ele>
      </trkpt>
      <trkpt lat="42.9728" lon="-0.5671">
        <ele>845</ele>
      </trkpt>
      <trkpt lat="42.97355" lon="-0.5679">
        <ele>887</ele>
      </trkpt>
      <trkpt lat="42.97386" lon="-0.56949">
        <ele>920</ele>
      </trkpt>
      <trkpt lat="42.97395" lon="-0.56963">
        <ele>889</ele>
      </trkpt>
      <trkpt lat="42.97434" lon="-0.56999">
        <ele>889</ele>
      </trkpt>
      <trkpt lat="42.97552" lon="-0.57124">
        <ele>958</ele>
      </trkpt>
      <trkpt lat="42.97566" lon="-0.57162">
        <ele>940</ele>
      </trkpt>
      <trkpt lat="42.97564" lon="-0.57276">
        <ele>938</ele>
      </trkpt>
      <trkpt lat="42.97608" lon="-0.57502">
        <ele>923</ele>
      </trkpt>
      <trkpt lat="42.9762" lon="-0.57514">
        <ele>923</ele>
      </trkpt>
      <trkpt lat="42.97792" lon="-0.57709">
        <ele>971</ele>
      </trkpt>
      <trkpt lat="42.97892" lon="-0.57746">
        <ele>1007</ele>
      </trkpt>
      <trkpt lat="42.97956" lon="-0.5788">
        <ele>980</ele>
      </trkpt>
      <trkpt lat="42.97983" lon="-0.57861">
        <ele>1009</ele>
      </trkpt>
      <trkpt lat="42.97958" lon="-0.57771">
        <ele>1007</ele>
      </trkpt>
      <trkpt lat="42.97979" lon="-0.57764">
        <ele>1025</ele>
      </trkpt>
      <trkpt lat="42.97993" lon="-0.57762">
        <ele>1025</ele>
      </trkpt>
      <trkpt lat="42.98138" lon="-0.57653">
        <ele>1018</ele>
      </trkpt>
      <trkpt lat="42.98145" lon="-0.57631">
        <ele>1018</ele>
      </trkpt>
      <trkpt lat="42.98131" lon="-0.57544">
        <ele>1038</ele>
      </trkpt>
      <trkpt lat="42.98135" lon="-0.57529">
        <ele>1064</ele>
      </trkpt>
      <trkpt lat="42.98174" lon="-0.57482">
        <ele>1064</ele>
      </trkpt>
      <trkpt lat="42.9833" lon="-0.57466">
        <ele>1049</ele>
      </trkpt>
      <trkpt lat="42.98375" lon="-0.5744">
        <ele>1087</ele>
      </trkpt>
      <trkpt lat="42.98379" lon="-0.57417">
        <ele>1059</ele>
      </trkpt>
      <trkpt lat="42.98392" lon="-0.5735">
        <ele>1072</ele>
      </trkpt>
      <trkpt lat="42.98595" lon="-0.57038">
        <ele>1067</ele>
      </trkpt>
      <trkpt lat="42.98597" lon="-0.57017">
        <ele>1067</ele>
      </trkpt>
      <trkpt lat="42.9849" lon="-0.56909">
        <ele>1085</ele>
      </trkpt>
      <trkpt lat="42.98487" lon="-0.56901">
        <ele>1085</ele>
      </trkpt>
      <trkpt lat="42.98468" lon="-0.56862">
        <ele>1077</ele>
      </trkpt>
      <trkpt lat="42.98451" lon="-0.56742">
        <ele>1109</ele>
      </trkpt>
      <trkpt lat="42.98392" lon="-0.56632">
        <ele>1093</ele>
      </trkpt>
      <trkpt lat="42.98336" lon="-0.5657">
        <ele>1102</ele>
      </trkpt>
      <trkpt lat="42.98293" lon="-0.56552">
        <ele>1102</ele>
      </trkpt>
      <trkpt lat="42.98239" lon="-0.56562">
        <ele>1112</ele>
      </trkpt>
      <trkpt lat="42.98025" lon="-0.56742">
        <ele>1147</ele>
      </trkpt>
      <trkpt lat="42.98022" lon="-0.5674">
        <ele>1147</ele>
      </trkpt>
      <trkpt lat="42.98006" lon="-0.56721">
        <ele>1147</ele>
      </trkpt>
      <trkpt lat="42.98002" lon="-0.567">
        <ele>1143</ele>
      </trkpt>
      <trkpt lat="42.97988" lon="-0.56577">
        <ele>1141</ele>
      </trkpt>
      <trkpt lat="42.97955" lon="-0.56469">
        <ele>1168</ele>
      </trkpt>
      <trkpt lat="42.97896" lon="-0.56402">
        <ele>1150</ele>
      </trkpt>
      <trkpt lat="42.97897" lon="-0.56417">
        <ele>1150</ele>
      </trkpt>
      <trkpt lat="42.97935" lon="-0.56492">
        <ele>1168</ele>
      </trkpt>
      <trkpt lat="42.97938" lon="-0.56516">
        <ele>1168</ele>
      </trkpt>
      <trkpt lat="42.97944" lon="-0.56633">
        <ele>1177</ele>
      </trkpt>
      <trkpt lat="42.9788" lon="-0.56942">
        <ele>1174</ele>
      </trkpt>
      <trkpt lat="42.97875" lon="-0.56945">
        <ele>1176</ele>
      </trkpt>
      <trkpt lat="42.97871" lon="-0.56918">
        <ele>1176</ele>
      </trkpt>
      <trkpt lat="42.97894" lon="-0.56633">
        <ele>1177</ele>
      </trkpt>
      <trkpt lat="42.97894" lon="-0.56629">
        <ele>1177</ele>
      </trkpt>
      <trkpt lat="42.97883" lon="-0.56576">
        <ele>1178</ele>
      </trkpt>
      <trkpt lat="42.97851" lon="-0.56516">
        <ele>1191</ele>
      </trkpt>
      <trkpt lat="42.97825" lon="-0.56488">
        <ele>1191</ele>
      </trkpt>
      <trkpt lat="42.97698" lon="-0.56412">
        <ele>1180</ele>
      </trkpt>
      <trkpt lat="42.97605" lon="-0.5633">
        <ele>1166</ele>
      </trkpt>
      <trkpt lat="42.97593" lon="-0.56311">
        <ele>1166</ele>
      </trkpt>
      <trkpt lat="42.97555" lon="-0.56229">
        <ele>1172</ele>
      </trkpt>
      <trkpt lat="42.97487" lon="-0.55783">
        <ele>1180</ele>
      </trkpt>
      <trkpt lat="42.9748" lon="-0.55715">
        <ele>1180</ele>
      </trkpt>
      <trkpt lat="42.97501" lon="-0.55666">
        <ele>1186</ele>
      </trkpt>
      <trkpt lat="42.9758" lon="-0.55649">
        <ele>1185</ele>
      </trkpt>
      <trkpt lat="42.97905" lon="-0.55628">
        <ele>1215</ele>
      </trkpt>
      <trkpt lat="42.97953" lon="-0.55611">
        <ele>1245</ele>
      </trkpt>
      <trkpt lat="42.98072" lon="-0.55556">
        <ele>1238</ele>
      </trkpt>
      <trkpt lat="42.98079" lon="-0.55549">
        <ele>1238</ele>
      </trkpt>
      <trkpt lat="42.98122" lon="-0.55488">
        <ele>1269</ele>
      </trkpt>
      <trkpt lat="42.98127" lon="-0.55471">
        <ele>1241</ele>
      </trkpt>
      <trkpt lat="42.9817" lon="-0.55334">
        <ele>1285</ele>
      </trkpt>
      <trkpt lat="42.98187" lon="-0.55308">
        <ele>1285</ele>
      </trkpt>
      <trkpt lat="42.98288" lon="-0.55219">
        <ele>1274</ele>
      </trkpt>
      <trkpt lat="42.98291" lon="-0.55219">
        <ele>1274</ele>
      </trkpt>
      <trkpt lat="42.98308" lon="-0.55228">
        <ele>1257</ele>
      </trkpt>
      <trkpt lat="42.98373" lon="-0.55246">
        <ele>1257</ele>
      </trkpt>
      <trkpt lat="42.98424" lon="-0.55281">
        <ele>1275</ele>
      </trkpt>
      <trkpt lat="42.985" lon="-0.55408">
        <ele>1241</ele>
      </trkpt>
      <trkpt lat="42.98507" lon="-0.55432">
        <ele>1241</ele>
      </trkpt>
      <trkpt lat="42.98534" lon="-0.55797">
        <ele>1119</ele>
      </trkpt>
      <trkpt lat="42.98538" lon="-0.55806">
        <ele>1119</ele>
      </trkpt>
      <trkpt lat="42.98559" lon="-0.55825">
        <ele>1127</ele>
      </trkpt>
      <trkpt lat="42.98584" lon="-0.55814">
        <ele>1127</ele>
      </trkpt>
      <trkpt lat="42.98699" lon="-0.55601">
        <ele>1106</ele>
      </trkpt>
      <trkpt lat="42.98714" lon="-0.55497">
        <ele>1069</ele>
      </trkpt>
      <trkpt lat="42.98824" lon="-0.55307">
        <ele>1027</ele>
      </trkpt>
      <trkpt lat="42.98823" lon="-0.55314">
        <ele>1027</ele>
      </trkpt>
      <trkpt lat="42.98832" lon="-0.55347">
        <ele>1027</ele>
      </trkpt>
      <trkpt lat="42.9884" lon="-0.55406">
        <ele>1013</ele>
      </trkpt>
      <trkpt lat="42.98988" lon="-0.55752">
        <ele>921</ele>
      </trkpt>
      <trkpt lat="42.9899" lon="-0.55768">
        <ele>921</ele>
      </trkpt>
      <trkpt lat="42.99013" lon="-0.55886">
        <ele>909</ele>
      </trkpt>
      <trkpt lat="42.99012" lon="-0.55896">
        <ele>909</ele>
      </trkpt>
      <trkpt lat="42.98981" lon="-0.55984">
        <ele>896</ele>
      </trkpt>
      <trkpt lat="42.98976" lon="-0.55985">
        <ele>896</ele>
      </trkpt>
      <trkpt lat="42.98974" lon="-0.55979">
        <ele>896</ele>
      </trkpt>
      <trkpt lat="42.98967" lon="-0.55902">
        <ele>909</ele>
      </trkpt>
      <trkpt lat="42.98962" lon="-0.55904">
        <ele>909</ele>
      </trkpt>
      <trkpt lat="42.98954" lon="-0.55926">
        <ele>956</ele>
      </trkpt>
      <trkpt lat="42.98917" lon="-0.55995">
        <ele>941</ele>
      </trkpt>
      <trkpt lat="42.98847" lon="-0.56055">
        <ele>962</ele>
      </trkpt>
      <trkpt lat="42.98806" lon="-0.56123">
        <ele>962</ele>
      </trkpt>
      <trkpt lat="42.98842" lon="-0.56207">
        <ele>952</ele>
      </trkpt>
      <trkpt lat="42.98834" lon="-0.56225">
        <ele>928</ele>
      </trkpt>
      <trkpt lat="42.9881" lon="-0.56232">
        <ele>928</ele>
      </trkpt>
      <trkpt lat="42.98651" lon="-0.5627">
        <ele>941</ele>
      </trkpt>
      <trkpt lat="42.98478" lon="-0.56241">
        <ele>944</ele>
      </trkpt>
      <trkpt lat="42.98476" lon="-0.56245">
        <ele>944</ele>
      </trkpt>
      <trkpt lat="42.9848" lon="-0.56258">
        <ele>944</ele>
      </trkpt>
      <trkpt lat="42.98707" lon="-0.56339">
        <ele>925</ele>
      </trkpt>
      <trkpt lat="42.9872" lon="-0.56359">
        <ele>910</ele>
      </trkpt>
      <trkpt lat="42.98842" lon="-0.56652">
        <ele>923</ele>
      </trkpt>
      <trkpt lat="42.98848" lon="-0.56655">
        <ele>923</ele>
      </trkpt>
      <trkpt lat="42.98877" lon="-0.56668">
        <ele>883</ele>
      </trkpt>
      <trkpt lat="42.99019" lon="-0.56796">
        <ele>900</ele>
      </trkpt>
      <trkpt lat="42.99028" lon="-0.56814">
        <ele>900</ele>
      </trkpt>
      <trkpt lat="42.99043" lon="-0.56839">
        <ele>853</ele>
      </trkpt>
      <trkpt lat="42.99051" lon="-0.56882">
        <ele>843</ele>
      </trkpt>
      <trkpt lat="42.99045" lon="-0.5707">
        <ele>822</ele>
      </trkpt>
      <trkpt lat="42.99062" lon="-0.57081">
        <ele>822</ele>
      </trkpt>
      <trkpt lat="42.99154" lon="-0.57335">
        <ele>759</ele>
      </trkpt>
      <trkpt lat="42.99153" lon="-0.5735">
        <ele>759</ele>
      </trkpt>
      <trkpt lat="42.99121" lon="-0.57487">
        <ele>737</ele>
      </trkpt>
      <trkpt lat="42.99123" lon="-0.57488">
        <ele>737</ele>
      </trkpt>
      <trkpt lat="42.99147" lon="-0.57492">
        <ele>705</ele>
      </trkpt>
      <trkpt lat="42.99158" lon="-0.57498">
        <ele>705</ele>
      </trkpt>
      <trkpt lat="42.99111" lon="-0.57542">
        <ele>731</ele>
      </trkpt>
      <trkpt lat="42.99131" lon="-0.57578">
        <ele>691</ele>
      </trkpt>
      <trkpt lat="42.992" lon="-0.57644">
        <ele>708</ele>
      </trkpt>
      <trkpt lat="42.9922" lon="-0.57678">
        <ele>662</ele>
      </trkpt>
      <trkpt lat="42.99203" lon="-0.57739">
        <ele>720</ele>
      </trkpt>
      <trkpt lat="42.99253" lon="-0.57984">
        <ele>693</ele>
      </trkpt>
      <trkpt lat="42.99267" lon="-0.58581">
        <ele>643</ele>
      </trkpt>
      <trkpt lat="42.99266" lon="-0.58585">
        <ele>643</ele>
      </trkpt>
      <trkpt lat="42.99248" lon="-0.5861">
        <ele>643</ele>
      </trkpt>
      <trkpt lat="42.99193" lon="-0.58672">
        <ele>630</ele>
      </trkpt>
      <trkpt lat="42.99128" lon="-0.58835">
        <ele>567</ele>
      </trkpt>
      <trkpt lat="42.99041" lon="-0.58907">
        <ele>574</ele>
      </trkpt>
      <trkpt lat="42.99054" lon="-0.58911">
        <ele>560</ele>
      </trkpt>
      <trkpt lat="42.99077" lon="-0.58924">
        <ele>560</ele>
      </trkpt>
      <trkpt lat="42.99138" lon="-0.58983">
        <ele>537</ele>
      </trkpt>
      <trkpt lat="42.99263" lon="-0.59068">
        <ele>518</ele>
      </trkpt>
      <trkpt lat="42.99373" lon="-0.59223">
        <ele>492</ele>
      </trkpt>
      <trkpt lat="42.99389" lon="-0.59236">
        <ele>483</ele>
      </trkpt>
      <trkpt lat="42.99401" lon="-0.59244">
        <ele>483</ele>
      </trkpt>
      <trkpt lat="42.99509" lon="-0.59254">
        <ele>462</ele>
      </trkpt>
      <trkpt lat="42.99511" lon="-0.59257">
        <ele>462</ele>
      </trkpt>
      <trkpt lat="42.99544" lon="-0.59282">
        <ele>435</ele>
      </trkpt>
      <trkpt lat="42.99562" lon="-0.5931">
        <ele>435</ele>
      </trkpt>
      <trkpt lat="42.99605" lon="-0.59443">
        <ele>432</ele>
      </trkpt>
      <trkpt lat="42.99614" lon="-0.59454">
        <ele>432</ele>
      </trkpt>
      <trkpt lat="42.99683" lon="-0.5944">
        <ele>427</ele>
      </trkpt>
      <trkpt lat="42.99695" lon="-0.59446">
        <ele>427</ele>
      </trkpt>
      <trkpt lat="42.99835" lon="-0.59661">
        <ele>428</ele>
      </trkpt>
      <trkpt lat="42.99846" lon="-0.59691">
        <ele>428</ele>
      </trkpt>
      <trkpt lat="42.99826" lon="-0.59855">
        <ele>419</ele>
      </trkpt>
      <trkpt lat="42.99825" lon="-0.60158">
        <ele>413</ele>
      </trkpt>
      <trkpt lat="42.99828" lon="-0.60193">
        <ele>413</ele>
      </trkpt>
      <trkpt lat="42.99852" lon="-0.60244">
        <ele>412</ele>
      </trkpt>
      <trkpt lat="42.99921" lon="-0.6035">
        <ele>405</ele>
      </trkpt>
      <trkpt lat="42.9996" lon="-0.60498">
        <ele>411</ele>
      </trkpt>
      <trkpt lat="42.99951" lon="-0.60534">
        <ele>407</ele>
      </trkpt>
      <trkpt lat="42.99751" lon="-0.6092">
        <ele>417</ele>
      </trkpt>
      <trkpt lat="42.99765" lon="-0.60957">
        <ele>417</ele>
      </trkpt>
      <trkpt lat="42.99798" lon="-0.6096">
        <ele>435</ele>
      </trkpt>
      <trkpt lat="42.99896" lon="-0.60884">
        <ele>424</ele>
      </trkpt>
      <trkpt lat="43.00158" lon="-0.60827">
        <ele>422</ele>
      </trkpt>
      <trkpt lat="43.00549" lon="-0.60556">
        <ele>427</ele>
      </trkpt>
      <trkpt lat="43.00575" lon="-0.60556">
        <ele>427</ele>
      </trkpt>
      <trkpt lat="43.00643" lon="-0.60544">
        <ele>434</ele>
      </trkpt>
      <trkpt lat="43.00695" lon="-0.60546">
        <ele>434</ele>
      </trkpt>
      <trkpt lat="43.00826" lon="-0.60659">
        <ele>434</ele>
      </trkpt>
      <trkpt lat="43.0084" lon="-0.6066">
        <ele>434</ele>
      </trkpt>
      <trkpt lat="43.00878" lon="-0.60676">
        <ele>421</ele>
      </trkpt>
      <trkpt lat="43.01173" lon="-0.60532">
        <ele>389</ele>
      </trkpt>
      <trkpt lat="43.01229" lon="-0.60515">
        <ele>386</ele>
      </trkpt>
      <trkpt lat="43.01372" lon="-0.60544">
        <ele>404</ele>
      </trkpt>
      <trkpt lat="43.01515" lon="-0.60653">
        <ele>407</ele>
      </trkpt>
      <trkpt lat="43.01531" lon="-0.60656">
        <ele>407</ele>
      </trkpt>
      <trkpt lat="43.01548" lon="-0.60652">
        <ele>414</ele>
      </trkpt>
      <trkpt lat="43.01711" lon="-0.60583">
        <ele>407</ele>
      </trkpt>
      <trkpt lat="43.0189" lon="-0.60457">
        <ele>388</ele>
      </trkpt>
      <trkpt lat="43.02197" lon="-0.60334">
        <ele>395</ele>
      </trkpt>
      <trkpt lat="43.02265" lon="-0.60318">
        <ele>402</ele>
      </trkpt>
      <trkpt lat="43.02362" lon="-0.6031">
        <ele>404</ele>
      </trkpt>
      <trkpt lat="43.0244" lon="-0.60294">
        <ele>417</ele>
      </trkpt>
      <trkpt lat="43.02501" lon="-0.60362">
        <ele>411</ele>
      </trkpt>
      <trkpt lat="43.02514" lon="-0.6036">
        <ele>411</ele>
      </trkpt>
      <trkpt lat="43.02874" lon="-0.604">
        <ele>404</ele>
      </trkpt>
      <trkpt lat="43.02917" lon="-0.60422">
        <ele>386</ele>
      </trkpt>
      <trkpt lat="43.03015" lon="-0.60498">
        <ele>401</ele>
      </trkpt>
      <trkpt lat="43.03635" lon="-0.60682">
        <ele>374</ele>
      </trkpt>
      <trkpt lat="43.03642" lon="-0.6069">
        <ele>374</ele>
      </trkpt>
      <trkpt lat="43.03653" lon="-0.60701">
        <ele>374</ele>
      </trkpt>
      <trkpt lat="43.03666" lon="-0.60875">
        <ele>394</ele>
      </trkpt>
      <trkpt lat="43.03645" lon="-0.61031">
        <ele>395</ele>
      </trkpt>
      <trkpt lat="43.03679" lon="-0.61332">
        <ele>418</ele>
      </trkpt>
      <trkpt lat="43.03634" lon="-0.61584">
        <ele>439</ele>
      </trkpt>
      <trkpt lat="43.03653" lon="-0.61591">
        <ele>439</ele>
      </trkpt>
      <trkpt lat="43.03672" lon="-0.61554">
        <ele>439</ele>
      </trkpt>
      <trkpt lat="43.03823" lon="-0.61058">
        <ele>476</ele>
      </trkpt>
      <trkpt lat="43.03831" lon="-0.60966">
        <ele>467</ele>
      </trkpt>
      <trkpt lat="43.03854" lon="-0.60949">
        <ele>458</ele>
      </trkpt>
      <trkpt lat="43.03989" lon="-0.61031">
        <ele>505</ele>
      </trkpt>
      <trkpt lat="43.0399" lon="-0.61026">
        <ele>505</ele>
      </trkpt>
      <trkpt lat="43.03982" lon="-0.60989">
        <ele>505</ele>
      </trkpt>
      <trkpt lat="43.03936" lon="-0.6085">
        <ele>493</ele>
      </trkpt>
      <trkpt lat="43.03937" lon="-0.6084">
        <ele>493</ele>
      </trkpt>
      <trkpt lat="43.0395" lon="-0.60811">
        <ele>493</ele>
      </trkpt>
      <trkpt lat="43.04005" lon="-0.60767">
        <ele>507</ele>
      </trkpt>
      <trkpt lat="43.04191" lon="-0.60759">
        <ele>530</ele>
      </trkpt>
      <trkpt lat="43.04228" lon="-0.6077">
        <ele>528</ele>
      </trkpt>
      <trkpt lat="43.04241" lon="-0.60868">
        <ele>544</ele>
      </trkpt>
      <trkpt lat="43.04179" lon="-0.60983">
        <ele>558</ele>
      </trkpt>
      <trkpt lat="43.04151" lon="-0.61142">
        <ele>574</ele>
      </trkpt>
      <trkpt lat="43.04145" lon="-0.61467">
        <ele>622</ele>
      </trkpt>
      <trkpt lat="43.04127" lon="-0.61491">
        <ele>622</ele>
      </trkpt>
      <trkpt lat="43.04096" lon="-0.61493">
        <ele>607</ele>
      </trkpt>
      <trkpt lat="43.04015" lon="-0.61525">
        <ele>604</ele>
      </trkpt>
      <trkpt lat="43.03993" lon="-0.61541">
        <ele>604</ele>
      </trkpt>
      <trkpt lat="43.0397" lon="-0.61574">
        <ele>629</ele>
      </trkpt>
      <trkpt lat="43.03907" lon="-0.6191">
        <ele>655</ele>
      </trkpt>
      <trkpt lat="43.03907" lon="-0.61919">
        <ele>655</ele>
      </trkpt>
      <trkpt lat="43.03909" lon="-0.61957">
        <ele>655</ele>
      </trkpt>
      <trkpt lat="43.0398" lon="-0.62155">
        <ele>691</ele>
      </trkpt>
      <trkpt lat="43.0398" lon="-0.6216">
        <ele>691</ele>
      </trkpt>
      <trkpt lat="43.03976" lon="-0.62189">
        <ele>691</ele>
      </trkpt>
      <trkpt lat="43.03865" lon="-0.62268">
        <ele>660</ele>
      </trkpt>
      <trkpt lat="43.03873" lon="-0.62276">
        <ele>660</ele>
      </trkpt>
      <trkpt lat="43.039" lon="-0.62248">
        <ele>690</ele>
      </trkpt>
      <trkpt lat="43.03997" lon="-0.6225">
        <ele>708</ele>
      </trkpt>
      <trkpt lat="43.04006" lon="-0.62241">
        <ele>708</ele>
      </trkpt>
      <trkpt lat="43.04011" lon="-0.62236">
        <ele>708</ele>
      </trkpt>
      <trkpt lat="43.04026" lon="-0.62184">
        <ele>691</ele>
      </trkpt>
      <trkpt lat="43.04017" lon="-0.62014">
        <ele>703</ele>
      </trkpt>
      <trkpt lat="43.04037" lon="-0.61929">
        <ele>698</ele>
      </trkpt>
      <trkpt lat="43.04097" lon="-0.61836">
        <ele>713</ele>
      </trkpt>
      <trkpt lat="43.04156" lon="-0.618">
        <ele>728</ele>
      </trkpt>
      <trkpt lat="43.04329" lon="-0.61719">
        <ele>733</ele>
      </trkpt>
      <trkpt lat="43.04331" lon="-0.61719">
        <ele>733</ele>
      </trkpt>
      <trkpt lat="43.04345" lon="-0.61732">
        <ele>733</ele>
      </trkpt>
      <trkpt lat="43.04397" lon="-0.61826">
        <ele>755</ele>
      </trkpt>
      <trkpt lat="43.04419" lon="-0.61842">
        <ele>755</ele>
      </trkpt>
      <trkpt lat="43.0459" lon="-0.61847">
        <ele>743</ele>
      </trkpt>
      <trkpt lat="43.04641" lon="-0.61884">
        <ele>750</ele>
      </trkpt>
      <trkpt lat="43.04709" lon="-0.62015">
        <ele>734</ele>
      </trkpt>
      <trkpt lat="43.04753" lon="-0.62195">
        <ele>770</ele>
      </trkpt>
      <trkpt lat="43.04758" lon="-0.62257">
        <ele>774</ele>
      </trkpt>
      <trkpt lat="43.04727" lon="-0.62202">
        <ele>770</ele>
      </trkpt>
      <trkpt lat="43.04701" lon="-0.62253">
        <ele>803</ele>
      </trkpt>
      <trkpt lat="43.04692" lon="-0.62228">
        <ele>803</ele>
      </trkpt>
      <trkpt lat="43.04685" lon="-0.62216">
        <ele>803</ele>
      </trkpt>
      <trkpt lat="43.04653" lon="-0.62191">
        <ele>800</ele>
      </trkpt>
      <trkpt lat="43.04586" lon="-0.62064">
        <ele>814</ele>
      </trkpt>
      <trkpt lat="43.04564" lon="-0.62045">
        <ele>814</ele>
      </trkpt>
      <trkpt lat="43.04407" lon="-0.61992">
        <ele>808</ele>
      </trkpt>
      <trkpt lat="43.04388" lon="-0.61992">
        <ele>808</ele>
      </trkpt>
      <trkpt lat="43.04213" lon="-0.62067">
        <ele>809</ele>
      </trkpt>
      <trkpt lat="43.04207" lon="-0.62076">
        <ele>790</ele>
      </trkpt>
      <trkpt lat="43.04171" lon="-0.62209">
        <ele>796</ele>
      </trkpt>
      <trkpt lat="43.04186" lon="-0.62405">
        <ele>779</ele>
      </trkpt>
      <trkpt lat="43.04204" lon="-0.62489">
        <ele>768</ele>
      </trkpt>
      <trkpt lat="43.04249" lon="-0.62602">
        <ele>785</ele>
      </trkpt>
      <trkpt lat="43.04359" lon="-0.62734">
        <ele>780</ele>
      </trkpt>
      <trkpt lat="43.04379" lon="-0.62768">
        <ele>826</ele>
      </trkpt>
      <trkpt lat="43.04511" lon="-0.63133">
        <ele>836</ele>
      </trkpt>
      <trkpt lat="43.04519" lon="-0.63147">
        <ele>836</ele>
      </trkpt>
      <trkpt lat="43.04525" lon="-0.63152">
        <ele>836</ele>
      </trkpt>
      <trkpt lat="43.04523" lon="-0.62871">
        <ele>866</ele>
      </trkpt>
      <trkpt lat="43.04529" lon="-0.62861">
        <ele>866</ele>
      </trkpt>
      <trkpt lat="43.04552" lon="-0.62722">
        <ele>914</ele>
      </trkpt>
      <trkpt lat="43.04557" lon="-0.62713">
        <ele>914</ele>
      </trkpt>
      <trkpt lat="43.04572" lon="-0.62697">
        <ele>909</ele>
      </trkpt>
      <trkpt lat="43.04744" lon="-0.62852">
        <ele>904</ele>
      </trkpt>
      <trkpt lat="43.04774" lon="-0.62868">
        <ele>904</ele>
      </trkpt>
      <trkpt lat="43.04846" lon="-0.62906">
        <ele>918</ele>
      </trkpt>
      <trkpt lat="43.05059" lon="-0.62951">
        <ele>901</ele>
      </trkpt>
      <trkpt lat="43.05083" lon="-0.6297">
        <ele>939</ele>
      </trkpt>
      <trkpt lat="43.05123" lon="-0.62997">
        <ele>939</ele>
      </trkpt>
      <trkpt lat="43.052" lon="-0.63086">
        <ele>947</ele>
      </trkpt>
      <trkpt lat="43.05481" lon="-0.63269">
        <ele>952</ele>
      </trkpt>
      <trkpt lat="43.05502" lon="-0.63301">
        <ele>968</ele>
      </trkpt>
      <trkpt lat="43.05532" lon="-0.63348">
        <ele>968</ele>
      </trkpt>
      <trkpt lat="43.05616" lon="-0.635">
        <ele>983</ele>
      </trkpt>
      <trkpt lat="43.05644" lon="-0.63517">
        <ele>956</ele>
      </trkpt>
      <trkpt lat="43.05716" lon="-0.63552">
        <ele>954</ele>
      </trkpt>
      <trkpt lat="43.05754" lon="-0.63534">
        <ele>940</ele>
      </trkpt>
      <trkpt lat="43.05764" lon="-0.63432">
        <ele>930</ele>
      </trkpt>
      <trkpt lat="43.05741" lon="-0.6329">
        <ele>911</ele>
      </trkpt>
      <trkpt lat="43.05554" lon="-0.62698">
        <ele>777</ele>
      </trkpt>
      <trkpt lat="43.05553" lon="-0.62694">
        <ele>777</ele>
      </trkpt>
      <trkpt lat="43.05563" lon="-0.62654">
        <ele>777</ele>
      </trkpt>
      <trkpt lat="43.05752" lon="-0.62492">
        <ele>791</ele>
      </trkpt>
      <trkpt lat="43.05764" lon="-0.62473">
        <ele>791</ele>
      </trkpt>
      <trkpt lat="43.05845" lon="-0.6229">
        <ele>800</ele>
      </trkpt>
      <trkpt lat="43.05855" lon="-0.62233">
        <ele>800</ele>
      </trkpt>
      <trkpt lat="43.05876" lon="-0.61926">
        <ele>834</ele>
      </trkpt>
      <trkpt lat="43.0587" lon="-0.61836">
        <ele>807</ele>
      </trkpt>
      <trkpt lat="43.05797" lon="-0.61701">
        <ele>833</ele>
      </trkpt>
      <trkpt lat="43.05633" lon="-0.61503">
        <ele>813</ele>
      </trkpt>
      <trkpt lat="43.0561" lon="-0.61487">
        <ele>780</ele>
      </trkpt>
      <trkpt lat="43.05568" lon="-0.61486">
        <ele>780</ele>
      </trkpt>
      <trkpt lat="43.05496" lon="-0.61425">
        <ele>762</ele>
      </trkpt>
      <trkpt lat="43.05297" lon="-0.61406">
        <ele>726</ele>
      </trkpt>
      <trkpt lat="43.05297" lon="-0.61404">
        <ele>726</ele>
      </trkpt>
      <trkpt lat="43.05293" lon="-0.61386">
        <ele>726</ele>
      </trkpt>
      <trkpt lat="43.05293" lon="-0.61319">
        <ele>715</ele>
      </trkpt>
      <trkpt lat="43.05332" lon="-0.6127">
        <ele>690</ele>
      </trkpt>
      <trkpt lat="43.05329" lon="-0.61266">
        <ele>690</ele>
      </trkpt>
      <trkpt lat="43.05259" lon="-0.61199">
        <ele>631</ele>
      </trkpt>
      <trkpt lat="43.05254" lon="-0.61199">
        <ele>631</ele>
      </trkpt>
      <trkpt lat="43.05234" lon="-0.61193">
        <ele>631</ele>
      </trkpt>
      <trkpt lat="43.0514" lon="-0.61215">
        <ele>627</ele>
      </trkpt>
      <trkpt lat="43.05132" lon="-0.61212">
        <ele>627</ele>
      </trkpt>
      <trkpt lat="43.05111" lon="-0.61187">
        <ele>586</ele>
      </trkpt>
      <trkpt lat="43.05099" lon="-0.61146">
        <ele>586</ele>
      </trkpt>
      <trkpt lat="43.051" lon="-0.61145">
        <ele>586</ele>
      </trkpt>
      <trkpt lat="43.05188" lon="-0.61099">
        <ele>571</ele>
      </trkpt>
      <trkpt lat="43.05188" lon="-0.61098">
        <ele>571</ele>
      </trkpt>
      <trkpt lat="43.05207" lon="-0.60952">
        <ele>533</ele>
      </trkpt>
      <trkpt lat="43.05205" lon="-0.60935">
        <ele>533</ele>
      </trkpt>
      <trkpt lat="43.05152" lon="-0.60607">
        <ele>511</ele>
      </trkpt>
      <trkpt lat="43.0515" lon="-0.60599">
        <ele>511</ele>
      </trkpt>
      <trkpt lat="43.05145" lon="-0.60617">
        <ele>511</ele>
      </trkpt>
      <trkpt lat="43.05122" lon="-0.60613">
        <ele>456</ele>
      </trkpt>
      <trkpt lat="43.05033" lon="-0.60453">
        <ele>405</ele>
      </trkpt>
      <trkpt lat="43.05031" lon="-0.60447">
        <ele>405</ele>
      </trkpt>
      <trkpt lat="43.05034" lon="-0.60415">
        <ele>405</ele>
      </trkpt>
      <trkpt lat="43.05054" lon="-0.60397">
        <ele>432</ele>
      </trkpt>
      <trkpt lat="43.05021" lon="-0.60369">
        <ele>376</ele>
      </trkpt>
      <trkpt lat="43.05028" lon="-0.60358">
        <ele>376</ele>
      </trkpt>
      <trkpt lat="43.05122" lon="-0.60305">
        <ele>386</ele>
      </trkpt>
      <trkpt lat="43.05123" lon="-0.603">
        <ele>386</ele>
      </trkpt>
      <trkpt lat="43.05113" lon="-0.60202">
        <ele>346</ele>
      </trkpt>
      <trkpt lat="43.05115" lon="-0.60203">
        <ele>346</ele>
      </trkpt>
      <trkpt lat="43.05125" lon="-0.60194">
        <ele>350</ele>
      </trkpt>
      <trkpt lat="43.05173" lon="-0.60157">
        <ele>350</ele>
      </trkpt>
      <trkpt lat="43.05266" lon="-0.59922">
        <ele>348</ele>
      </trkpt>
      <trkpt lat="43.05301" lon="-0.59884">
        <ele>377</ele>
      </trkpt>
      <trkpt lat="43.0533" lon="-0.59864">
        <ele>344</ele>
      </trkpt>
      <trkpt lat="43.05475" lon="-0.5976">
        <ele>344</ele>
      </trkpt>
      <trkpt lat="43.05481" lon="-0.59762">
        <ele>344</ele>
      </trkpt>
      <trkpt lat="43.05493" lon="-0.5978">
        <ele>344</ele>
      </trkpt>
      <trkpt lat="43.05513" lon="-0.59804">
        <ele>360</ele>
      </trkpt>
      <trkpt lat="43.05731" lon="-0.59829">
        <ele>354</ele>
      </trkpt>
      <trkpt lat="43.05752" lon="-0.5984">
        <ele>354</ele>
      </trkpt>
      <trkpt lat="43.05766" lon="-0.59859">
        <ele>354</ele>
      </trkpt>
      <trkpt lat="43.05879" lon="-0.59949">
        <ele>331</ele>
      </trkpt>
      <trkpt lat="43.06074" lon="-0.60101">
        <ele>348</ele>
      </trkpt>
      <trkpt lat="43.06105" lon="-0.60106">
        <ele>348</ele>
      </trkpt>
      <trkpt lat="43.06109" lon="-0.60107">
        <ele>348</ele>
      </trkpt>
      <trkpt lat="43.06151" lon="-0.60089">
        <ele>338</ele>
      </trkpt>
      <trkpt lat="43.06308" lon="-0.60073">
        <ele>345</ele>
      </trkpt>
      <trkpt lat="43.06347" lon="-0.60086">
        <ele>345</ele>
      </trkpt>
      <trkpt lat="43.06375" lon="-0.6013">
        <ele>329</ele>
      </trkpt>
      <trkpt lat="43.0636" lon="-0.60342">
        <ele>375</ele>
      </trkpt>
      <trkpt lat="43.06373" lon="-0.60371">
        <ele>375</ele>
      </trkpt>
      <trkpt lat="43.06379" lon="-0.60417">
        <ele>334</ele>
      </trkpt>
      <trkpt lat="43.06416" lon="-0.6049">
        <ele>355</ele>
      </trkpt>
      <trkpt lat="43.06463" lon="-0.60524">
        <ele>329</ele>
      </trkpt>
      <trkpt lat="43.06554" lon="-0.60525">
        <ele>337</ele>
      </trkpt>
      <trkpt lat="43.06715" lon="-0.60444">
        <ele>325</ele>
      </trkpt>
      <trkpt lat="43.06716" lon="-0.60445">
        <ele>325</ele>
      </trkpt>
      <trkpt lat="43.06749" lon="-0.60451">
        <ele>325</ele>
      </trkpt>
      <trkpt lat="43.06762" lon="-0.60508">
        <ele>336</ele>
      </trkpt>
      <trkpt lat="43.06754" lon="-0.60607">
        <ele>345</ele>
      </trkpt>
      <trkpt lat="43.06758" lon="-0.60612">
        <ele>345</ele>
      </trkpt>
      <trkpt lat="43.06761" lon="-0.60618">
        <ele>345</ele>
      </trkpt>
      <trkpt lat="43.06791" lon="-0.60609">
        <ele>345</ele>
      </trkpt>
      <trkpt lat="43.0686" lon="-0.6069">
        <ele>342</ele>
      </trkpt>
      <trkpt lat="43.06919" lon="-0.60706">
        <ele>328</ele>
      </trkpt>
      <trkpt lat="43.07085" lon="-0.6062">
        <ele>330</ele>
      </trkpt>
      <trkpt lat="43.07102" lon="-0.60626">
        <ele>342</ele>
      </trkpt>
      <trkpt lat="43.07153" lon="-0.60653">
        <ele>330</ele>
      </trkpt>
      <trkpt lat="43.07328" lon="-0.60745">
        <ele>313</ele>
      </trkpt>
      <trkpt lat="43.07426" lon="-0.60815">
        <ele>321</ele>
      </trkpt>
      <trkpt lat="43.07727" lon="-0.61137">
        <ele>320</ele>
      </trkpt>
      <trkpt lat="43.07797" lon="-0.61189">
        <ele>310</ele>
      </trkpt>
      <trkpt lat="43.07926" lon="-0.61218">
        <ele>325</ele>
      </trkpt>
      <trkpt lat="43.08099" lon="-0.61347">
        <ele>322</ele>
      </trkpt>
      <trkpt lat="43.0811" lon="-0.61355">
        <ele>322</ele>
      </trkpt>
      <trkpt lat="43.08117" lon="-0.61486">
        <ele>346</ele>
      </trkpt>
      <trkpt lat="43.08103" lon="-0.61508">
        <ele>346</ele>
      </trkpt>
      <trkpt lat="43.0799" lon="-0.61707">
        <ele>375</ele>
      </trkpt>
      <trkpt lat="43.07991" lon="-0.61725">
        <ele>372</ele>
      </trkpt>
      <trkpt lat="43.07971" lon="-0.61999">
        <ele>383</ele>
      </trkpt>
      <trkpt lat="43.07965" lon="-0.62004">
        <ele>383</ele>
      </trkpt>
      <trkpt lat="43.07951" lon="-0.61988">
        <ele>412</ele>
      </trkpt>
      <trkpt lat="43.07932" lon="-0.61989">
        <ele>412</ele>
      </trkpt>
      <trkpt lat="43.07971" lon="-0.62018">
        <ele>383</ele>
      </trkpt>
      <trkpt lat="43.07917" lon="-0.62152">
        <ele>412</ele>
      </trkpt>
      <trkpt lat="43.07917" lon="-0.62156">
        <ele>412</ele>
      </trkpt>
      <trkpt lat="43.07906" lon="-0.62375">
        <ele>421</ele>
      </trkpt>
      <trkpt lat="43.07931" lon="-0.6242">
        <ele>429</ele>
      </trkpt>
      <trkpt lat="43.07872" lon="-0.62543">
        <ele>475</ele>
      </trkpt>
      <trkpt lat="43.07875" lon="-0.6255">
        <ele>438</ele>
      </trkpt>
      <trkpt lat="43.07884" lon="-0.6256">
        <ele>438</ele>
      </trkpt>
      <trkpt lat="43.07896" lon="-0.62585">
        <ele>438</ele>
      </trkpt>
      <trkpt lat="43.0785" lon="-0.62923">
        <ele>476</ele>
      </trkpt>
      <trkpt lat="43.07851" lon="-0.62927">
        <ele>476</ele>
      </trkpt>
      <trkpt lat="43.07857" lon="-0.62928">
        <ele>476</ele>
      </trkpt>
      <trkpt lat="43.07997" lon="-0.6269">
        <ele>475</ele>
      </trkpt>
      <trkpt lat="43.08064" lon="-0.625">
        <ele>491</ele>
      </trkpt>
      <trkpt lat="43.08073" lon="-0.62488">
        <ele>491</ele>
      </trkpt>
      <trkpt lat="43.08085" lon="-0.62492">
        <ele>491</ele>
      </trkpt>
      <trkpt lat="43.08098" lon="-0.62547">
        <ele>507</ele>
      </trkpt>
      <trkpt lat="43.08082" lon="-0.6258">
        <ele>507</ele>
      </trkpt>
      <trkpt lat="43.08204" lon="-0.62399">
        <ele>519</ele>
      </trkpt>
      <trkpt lat="43.08206" lon="-0.62397">
        <ele>519</ele>
      </trkpt>
      <trkpt lat="43.08223" lon="-0.62475">
        <ele>566</ele>
      </trkpt>
      <trkpt lat="43.08224" lon="-0.62474">
        <ele>566</ele>
      </trkpt>
      <trkpt lat="43.08228" lon="-0.62449">
        <ele>555</ele>
      </trkpt>
      <trkpt lat="43.08249" lon="-0.62429">
        <ele>555</ele>
      </trkpt>
      <trkpt lat="43.08324" lon="-0.62205">
        <ele>554</ele>
      </trkpt>
      <trkpt lat="43.08358" lon="-0.6215">
        <ele>554</ele>
      </trkpt>
      <trkpt lat="43.08403" lon="-0.62121">
        <ele>564</ele>
      </trkpt>
      <trkpt lat="43.08457" lon="-0.62161">
        <ele>570</ele>
      </trkpt>
      <trkpt lat="43.08508" lon="-0.62244">
        <ele>575</ele>
      </trkpt>
      <trkpt lat="43.08535" lon="-0.62307">
        <ele>587</ele>
      </trkpt>
      <trkpt lat="43.08543" lon="-0.62388">
        <ele>568</ele>
      </trkpt>
      <trkpt lat="43.08521" lon="-0.62477">
        <ele>594</ele>
      </trkpt>
      <trkpt lat="43.08375" lon="-0.62714">
        <ele>628</ele>
      </trkpt>
      <trkpt lat="43.08374" lon="-0.62726">
        <ele>627</ele>
      </trkpt>
      <trkpt lat="43.08376" lon="-0.6277">
        <ele>628</ele>
      </trkpt>
      <trkpt lat="43.08371" lon="-0.62808">
        <ele>644</ele>
      </trkpt>
      <trkpt lat="43.08316" lon="-0.62939">
        <ele>655</ele>
      </trkpt>
      <trkpt lat="43.08298" lon="-0.63161">
        <ele>688</ele>
      </trkpt>
      <trkpt lat="43.08284" lon="-0.63173">
        <ele>680</ele>
      </trkpt>
      <trkpt lat="43.08265" lon="-0.63191">
        <ele>680</ele>
      </trkpt>
      <trkpt lat="43.08185" lon="-0.63262">
        <ele>668</ele>
      </trkpt>
      <trkpt lat="43.0817" lon="-0.63291">
        <ele>668</ele>
      </trkpt>
      <trkpt lat="43.08171" lon="-0.63508">
        <ele>689</ele>
      </trkpt>
      <trkpt lat="43.08206" lon="-0.6373">
        <ele>700</ele>
      </trkpt>
      <trkpt lat="43.08209" lon="-0.6375">
        <ele>712</ele>
      </trkpt>
      <trkpt lat="43.08217" lon="-0.63757">
        <ele>712</ele>
      </trkpt>
      <trkpt lat="43.0829" lon="-0.63804">
        <ele>728</ele>
      </trkpt>
      <trkpt lat="43.08294" lon="-0.63812">
        <ele>722</ele>
      </trkpt>
      <trkpt lat="43.08298" lon="-0.64034">
        <ele>721</ele>
      </trkpt>
      <trkpt lat="43.08311" lon="-0.64101">
        <ele>726</ele>
      </trkpt>
      <trkpt lat="43.08368" lon="-0.64204">
        <ele>732</ele>
      </trkpt>
      <trkpt lat="43.0852" lon="-0.64365">
        <ele>713</ele>
      </trkpt>
      <trkpt lat="43.08528" lon="-0.6438">
        <ele>723</ele>
      </trkpt>
      <trkpt lat="43.08543" lon="-0.64483">
        <ele>692</ele>
      </trkpt>
      <trkpt lat="43.08526" lon="-0.64573">
        <ele>713</ele>
      </trkpt>
      <trkpt lat="43.08523" lon="-0.64578">
        <ele>713</ele>
      </trkpt>
      <trkpt lat="43.08506" lon="-0.646">
        <ele>713</ele>
      </trkpt>
      <trkpt lat="43.08475" lon="-0.64598">
        <ele>713</ele>
      </trkpt>
      <trkpt lat="43.08293" lon="-0.64472">
        <ele>684</ele>
      </trkpt>
      <trkpt lat="43.08269" lon="-0.64462">
        <ele>654</ele>
      </trkpt>
      <trkpt lat="43.0823" lon="-0.64452">
        <ele>683</ele>
      </trkpt>
      <trkpt lat="43.08033" lon="-0.64368">
        <ele>638</ele>
      </trkpt>
      <trkpt lat="43.0803" lon="-0.64373">
        <ele>638</ele>
      </trkpt>
      <trkpt lat="43.08097" lon="-0.64433">
        <ele>638</ele>
      </trkpt>
      <trkpt lat="43.08254" lon="-0.64561">
        <ele>625</ele>
      </trkpt>
      <trkpt lat="43.08274" lon="-0.64589">
        <ele>625</ele>
      </trkpt>
      <trkpt lat="43.08509" lon="-0.64948">
        <ele>618</ele>
      </trkpt>
      <trkpt lat="43.08742" lon="-0.6518">
        <ele>574</ele>
      </trkpt>
      <trkpt lat="43.08745" lon="-0.65186">
        <ele>574</ele>
      </trkpt>
      <trkpt lat="43.0875" lon="-0.65197">
        <ele>574</ele>
      </trkpt>
      <trkpt lat="43.08722" lon="-0.65219">
        <ele>553</ele>
      </trkpt>
      <trkpt lat="43.08748" lon="-0.65327">
        <ele>531</ele>
      </trkpt>
      <trkpt lat="43.08775" lon="-0.65384">
        <ele>510</ele>
      </trkpt>
      <trkpt lat="43.08885" lon="-0.65514">
        <ele>494</ele>
      </trkpt>
      <trkpt lat="43.08886" lon="-0.65529">
        <ele>494</ele>
      </trkpt>
      <trkpt lat="43.08871" lon="-0.65549">
        <ele>483</ele>
      </trkpt>
      <trkpt lat="43.08859" lon="-0.65595">
        <ele>483</ele>
      </trkpt>
      <trkpt lat="43.08847" lon="-0.66017">
        <ele>454</ele>
      </trkpt>
      <trkpt lat="43.08874" lon="-0.6602">
        <ele>454</ele>
      </trkpt>
      <trkpt lat="43.08903" lon="-0.66005">
        <ele>448</ele>
      </trkpt>
      <trkpt lat="43.08916" lon="-0.66005">
        <ele>448</ele>
      </trkpt>
      <trkpt lat="43.09362" lon="-0.66009">
        <ele>421</ele>
      </trkpt>
      <trkpt lat="43.09367" lon="-0.66008">
        <ele>421</ele>
      </trkpt>
      <trkpt lat="43.09517" lon="-0.65963">
        <ele>387</ele>
      </trkpt>
      <trkpt lat="43.09522" lon="-0.65958">
        <ele>381</ele>
      </trkpt>
      <trkpt lat="43.0956" lon="-0.65922">
        <ele>365</ele>
      </trkpt>
      <trkpt lat="43.09599" lon="-0.65873">
        <ele>357</ele>
      </trkpt>
      <trkpt lat="43.09573" lon="-0.65807">
        <ele>357</ele>
      </trkpt>
      <trkpt lat="43.09593" lon="-0.65795">
        <ele>357</ele>
      </trkpt>
      <trkpt lat="43.09663" lon="-0.6575">
        <ele>356</ele>
      </trkpt>
      <trkpt lat="43.09951" lon="-0.65735">
        <ele>314</ele>
      </trkpt>
      <trkpt lat="43.09961" lon="-0.65744">
        <ele>305</ele>
      </trkpt>
      <trkpt lat="43.09971" lon="-0.65757">
        <ele>305</ele>
      </trkpt>
      <trkpt lat="43.09986" lon="-0.65909">
        <ele>304</ele>
      </trkpt>
      <trkpt lat="43.10028" lon="-0.66055">
        <ele>313</ele>
      </trkpt>
      <trkpt lat="43.10261" lon="-0.66332">
        <ele>324</ele>
      </trkpt>
      <trkpt lat="43.10272" lon="-0.66354">
        <ele>324</ele>
      </trkpt>
      <trkpt lat="43.10269" lon="-0.66383">
        <ele>325</ele>
      </trkpt>
      <trkpt lat="43.10276" lon="-0.66488">
        <ele>331</ele>
      </trkpt>
      <trkpt lat="43.1031" lon="-0.66505">
        <ele>360</ele>
      </trkpt>
      <trkpt lat="43.10288" lon="-0.66633">
        <ele>340</ele>
      </trkpt>
      <trkpt lat="43.10309" lon="-0.66646">
        <ele>367</ele>
      </trkpt>
      <trkpt lat="43.10332" lon="-0.66639">
        <ele>367</ele>
      </trkpt>
      <trkpt lat="43.10402" lon="-0.66628">
        <ele>391</ele>
      </trkpt>
      <trkpt lat="43.10405" lon="-0.66638">
        <ele>391</ele>
      </trkpt>
      <trkpt lat="43.10403" lon="-0.66645">
        <ele>391</ele>
      </trkpt>
      <trkpt lat="43.10367" lon="-0.66706">
        <ele>367</ele>
      </trkpt>
      <trkpt lat="43.10363" lon="-0.66738">
        <ele>371</ele>
      </trkpt>
      <trkpt lat="43.10475" lon="-0.6698">
        <ele>403</ele>
      </trkpt>
      <trkpt lat="43.10472" lon="-0.67005">
        <ele>403</ele>
      </trkpt>
      <trkpt lat="43.10304" lon="-0.67088">
        <ele>416</ele>
      </trkpt>
      <trkpt lat="43.10298" lon="-0.67098">
        <ele>416</ele>
      </trkpt>
      <trkpt lat="43.103" lon="-0.67119">
        <ele>416</ele>
      </trkpt>
      <trkpt lat="43.10359" lon="-0.67233">
        <ele>437</ele>
      </trkpt>
      <trkpt lat="43.10361" lon="-0.67253">
        <ele>437</ele>
      </trkpt>
      <trkpt lat="43.10361" lon="-0.67292">
        <ele>450</ele>
      </trkpt>
      <trkpt lat="43.10363" lon="-0.67313">
        <ele>450</ele>
      </trkpt>
      <trkpt lat="43.10449" lon="-0.67159">
        <ele>456</ele>
      </trkpt>
      <trkpt lat="43.10662" lon="-0.67021">
        <ele>444</ele>
      </trkpt>
      <trkpt lat="43.10666" lon="-0.67025">
        <ele>444</ele>
      </trkpt>
      <trkpt lat="43.10673" lon="-0.67035">
        <ele>444</ele>
      </trkpt>
      <trkpt lat="43.10681" lon="-0.67071">
        <ele>458</ele>
      </trkpt>
      <trkpt lat="43.10671" lon="-0.671">
        <ele>458</ele>
      </trkpt>
      <trkpt lat="43.10506" lon="-0.67213">
        <ele>486</ele>
      </trkpt>
      <trkpt lat="43.10497" lon="-0.67246">
        <ele>486</ele>
      </trkpt>
      <trkpt lat="43.10503" lon="-0.67265">
        <ele>486</ele>
      </trkpt>
      <trkpt lat="43.10567" lon="-0.67366">
        <ele>501</ele>
      </trkpt>
      <trkpt lat="43.10596" lon="-0.67385">
        <ele>494</ele>
      </trkpt>
      <trkpt lat="43.10751" lon="-0.67399">
        <ele>508</ele>
      </trkpt>
      <trkpt lat="43.10841" lon="-0.67355">
        <ele>515</ele>
      </trkpt>
      <trkpt lat="43.10844" lon="-0.67355">
        <ele>515</ele>
      </trkpt>
      <trkpt lat="43.10876" lon="-0.67443">
        <ele>528</ele>
      </trkpt>
      <trkpt lat="43.11065" lon="-0.67622">
        <ele>546</ele>
      </trkpt>
      <trkpt lat="43.11067" lon="-0.67679">
        <ele>535</ele>
      </trkpt>
      <trkpt lat="43.11074" lon="-0.67736">
        <ele>534</ele>
      </trkpt>
      <trkpt lat="43.11073" lon="-0.6777">
        <ele>534</ele>
      </trkpt>
      <trkpt lat="43.11106" lon="-0.67897">
        <ele>536</ele>
      </trkpt>
      <trkpt lat="43.11119" lon="-0.67909">
        <ele>536</ele>
      </trkpt>
      <trkpt lat="43.11121" lon="-0.6791">
        <ele>536</ele>
      </trkpt>
      <trkpt lat="43.11161" lon="-0.67858">
        <ele>548</ele>
      </trkpt>
      <trkpt lat="43.11188" lon="-0.67795">
        <ele>548</ele>
      </trkpt>
      <trkpt lat="43.11206" lon="-0.67577">
        <ele>569</ele>
      </trkpt>
      <trkpt lat="43.11215" lon="-0.67567">
        <ele>562</ele>
      </trkpt>
      <trkpt lat="43.1127" lon="-0.67449">
        <ele>582</ele>
      </trkpt>
      <trkpt lat="43.11281" lon="-0.67437">
        <ele>582</ele>
      </trkpt>
      <trkpt lat="43.11416" lon="-0.67332">
        <ele>557</ele>
      </trkpt>
      <trkpt lat="43.11472" lon="-0.67312">
        <ele>548</ele>
      </trkpt>
      <trkpt lat="43.11603" lon="-0.67283">
        <ele>559</ele>
      </trkpt>
      <trkpt lat="43.11732" lon="-0.67349">
        <ele>556</ele>
      </trkpt>
      <trkpt lat="43.11825" lon="-0.67506">
        <ele>525</ele>
      </trkpt>
      <trkpt lat="43.11846" lon="-0.67512">
        <ele>525</ele>
      </trkpt>
      <trkpt lat="43.11885" lon="-0.67517">
        <ele>519</ele>
      </trkpt>
      <trkpt lat="43.11911" lon="-0.67535">
        <ele>519</ele>
      </trkpt>
      <trkpt lat="43.12027" lon="-0.67633">
        <ele>516</ele>
      </trkpt>
      <trkpt lat="43.12095" lon="-0.67653">
        <ele>528</ele>
      </trkpt>
      <trkpt lat="43.1231" lon="-0.67635">
        <ele>521</ele>
      </trkpt>
      <trkpt lat="43.12353" lon="-0.67661">
        <ele>521</ele>
      </trkpt>
      <trkpt lat="43.12359" lon="-0.67672">
        <ele>521</ele>
      </trkpt>
      <trkpt lat="43.12395" lon="-0.67764">
        <ele>513</ele>
      </trkpt>
      <trkpt lat="43.12528" lon="-0.6793">
        <ele>531</ele>
      </trkpt>
      <trkpt lat="43.12535" lon="-0.67947">
        <ele>531</ele>
      </trkpt>
      <trkpt lat="43.12627" lon="-0.68224">
        <ele>531</ele>
      </trkpt>
      <trkpt lat="43.12708" lon="-0.68342">
        <ele>505</ele>
      </trkpt>
      <trkpt lat="43.12731" lon="-0.68535">
        <ele>472</ele>
      </trkpt>
      <trkpt lat="43.12734" lon="-0.68542">
        <ele>457</ele>
      </trkpt>
      <trkpt lat="43.12754" lon="-0.68569">
        <ele>457</ele>
      </trkpt>
      <trkpt lat="43.12839" lon="-0.68644">
        <ele>439</ele>
      </trkpt>
      <trkpt lat="43.129" lon="-0.68835">
        <ele>399</ele>
      </trkpt>
      <trkpt lat="43.12908" lon="-0.68839">
        <ele>399</ele>
      </trkpt>
      <trkpt lat="43.12933" lon="-0.68847">
        <ele>399</ele>
      </trkpt>
      <trkpt lat="43.12958" lon="-0.68848">
        <ele>399</ele>
      </trkpt>
      <trkpt lat="43.13035" lon="-0.6879">
        <ele>398</ele>
      </trkpt>
      <trkpt lat="43.13095" lon="-0.68693">
        <ele>365</ele>
      </trkpt>
      <trkpt lat="43.13107" lon="-0.6869">
        <ele>365</ele>
      </trkpt>
      <trkpt lat="43.13122" lon="-0.68713">
        <ele>371</ele>
      </trkpt>
      <trkpt lat="43.13126" lon="-0.68739">
        <ele>347</ele>
      </trkpt>
      <trkpt lat="43.13068" lon="-0.68861">
        <ele>358</ele>
      </trkpt>
      <trkpt lat="43.13072" lon="-0.68885">
        <ele>350</ele>
      </trkpt>
      <trkpt lat="43.13087" lon="-0.68902">
        <ele>350</ele>
      </trkpt>
      <trkpt lat="43.13125" lon="-0.69011">
        <ele>343</ele>
      </trkpt>
      <trkpt lat="43.13148" lon="-0.69028">
        <ele>328</ele>
      </trkpt>
      <trkpt lat="43.13327" lon="-0.69036">
        <ele>322</ele>
      </trkpt>
      <trkpt lat="43.13342" lon="-0.69043">
        <ele>331</ele>
      </trkpt>
      <trkpt lat="43.13349" lon="-0.69051">
        <ele>331</ele>
      </trkpt>
      <trkpt lat="43.13437" lon="-0.69154">
        <ele>325</ele>
      </trkpt>
      <trkpt lat="43.13454" lon="-0.69161">
        <ele>325</ele>
      </trkpt>
      <trkpt lat="43.13567" lon="-0.6914">
        <ele>301</ele>
      </trkpt>
      <trkpt lat="43.13591" lon="-0.69151">
        <ele>301</ele>
      </trkpt>
      <trkpt lat="43.13609" lon="-0.69165">
        <ele>301</ele>
      </trkpt>
      <trkpt lat="43.13615" lon="-0.69208">
        <ele>301</ele>
      </trkpt>
      <trkpt lat="43.13389" lon="-0.69619">
        <ele>263</ele>
      </trkpt>
      <trkpt lat="43.13391" lon="-0.69622">
        <ele>263</ele>
      </trkpt>
      <trkpt lat="43.13468" lon="-0.69508">
        <ele>258</ele>
      </trkpt>
      <trkpt lat="43.13625" lon="-0.69309">
        <ele>267</ele>
      </trkpt>
      <trkpt lat="43.1364" lon="-0.69297">
        <ele>255</ele>
      </trkpt>
      <trkpt lat="43.1376" lon="-0.69261">
        <ele>252</ele>
      </trkpt>
      <trkpt lat="43.13892" lon="-0.69328">
        <ele>250</ele>
      </trkpt>
      <trkpt lat="43.13905" lon="-0.69327">
        <ele>250</ele>
      </trkpt>
      <trkpt lat="43.13957" lon="-0.69241">
        <ele>254</ele>
      </trkpt>
      <trkpt lat="43.13952" lon="-0.69225">
        <ele>254</ele>
      </trkpt>
      <trkpt lat="43.13865" lon="-0.69085">
        <ele>252</ele>
      </trkpt>
      <trkpt lat="43.13856" lon="-0.69055">
        <ele>252</ele>
      </trkpt>
      <trkpt lat="43.13867" lon="-0.68996">
        <ele>253</ele>
      </trkpt>
      <trkpt lat="43.14299" lon="-0.68684">
        <ele>260</ele>
      </trkpt>
      <trkpt lat="43.14318" lon="-0.68685">
        <ele>260</ele>
      </trkpt>
      <trkpt lat="43.14378" lon="-0.68688">
        <ele>257</ele>
      </trkpt>
      <trkpt lat="43.14685" lon="-0.68717">
        <ele>246</ele>
      </trkpt>
      <trkpt lat="43.14752" lon="-0.68705">
        <ele>250</ele>
      </trkpt>
      <trkpt lat="43.14769" lon="-0.68699">
        <ele>250</ele>
      </trkpt>
      <trkpt lat="43.14842" lon="-0.68614">
        <ele>249</ele>
      </trkpt>
      <trkpt lat="43.14861" lon="-0.68527">
        <ele>247</ele>
      </trkpt>
      <trkpt lat="43.1501" lon="-0.68351">
        <ele>252</ele>
      </trkpt>
      <trkpt lat="43.15034" lon="-0.68333">
        <ele>252</ele>
      </trkpt>
      <trkpt lat="43.15075" lon="-0.68307">
        <ele>244</ele>
      </trkpt>
      <trkpt lat="43.15145" lon="-0.6828">
        <ele>260</ele>
      </trkpt>
      <trkpt lat="43.1515" lon="-0.68283">
        <ele>260</ele>
      </trkpt>
      <trkpt lat="43.15328" lon="-0.68348">
        <ele>262</ele>
      </trkpt>
      <trkpt lat="43.15453" lon="-0.68369">
        <ele>265</ele>
      </trkpt>
      <trkpt lat="43.1554" lon="-0.68375">
        <ele>263</ele>
      </trkpt>
      <trkpt lat="43.16131" lon="-0.68273">
        <ele>253</ele>
      </trkpt>
      <trkpt lat="43.16168" lon="-0.68258">
        <ele>253</ele>
      </trkpt>
      <trkpt lat="43.16212" lon="-0.68242">
        <ele>241</ele>
      </trkpt>
      <trkpt lat="43.1631" lon="-0.68136">
        <ele>239</ele>
      </trkpt>
      <trkpt lat="43.16435" lon="-0.67805">
        <ele>247</ele>
      </trkpt>
      <trkpt lat="43.16673" lon="-0.67038">
        <ele>237</ele>
      </trkpt>
      <trkpt lat="43.16667" lon="-0.67">
        <ele>237</ele>
      </trkpt>
      <trkpt lat="43.16644" lon="-0.66996">
        <ele>237</ele>
      </trkpt>
      <trkpt lat="43.1661" lon="-0.66989">
        <ele>258</ele>
      </trkpt>
      <trkpt lat="43.1645" lon="-0.67004">
        <ele>287</ele>
      </trkpt>
      <trkpt lat="43.16447" lon="-0.66996">
        <ele>287</ele>
      </trkpt>
      <trkpt lat="43.16442" lon="-0.6686">
        <ele>285</ele>
      </trkpt>
      <trkpt lat="43.16433" lon="-0.66833">
        <ele>285</ele>
      </trkpt>
      <trkpt lat="43.16327" lon="-0.66839">
        <ele>296</ele>
      </trkpt>
      <trkpt lat="43.16296" lon="-0.66819">
        <ele>296</ele>
      </trkpt>
      <trkpt lat="43.16261" lon="-0.66775">
        <ele>302</ele>
      </trkpt>
      <trkpt lat="43.1623" lon="-0.66764">
        <ele>302</ele>
      </trkpt>
      <trkpt lat="43.16227" lon="-0.66751">
        <ele>302</ele>
      </trkpt>
      <trkpt lat="43.16292" lon="-0.66514">
        <ele>292</ele>
      </trkpt>
      <trkpt lat="43.16291" lon="-0.66472">
        <ele>296</ele>
      </trkpt>
      <trkpt lat="43.16234" lon="-0.66248">
        <ele>287</ele>
      </trkpt>
      <trkpt lat="43.16233" lon="-0.66238">
        <ele>287</ele>
      </trkpt>
      <trkpt lat="43.16248" lon="-0.66221">
        <ele>287</ele>
      </trkpt>
      <trkpt lat="43.1627" lon="-0.66209">
        <ele>287</ele>
      </trkpt>
      <trkpt lat="43.16293" lon="-0.66148">
        <ele>293</ele>
      </trkpt>
      <trkpt lat="43.16238" lon="-0.66046">
        <ele>276</ele>
      </trkpt>
      <trkpt lat="43.16255" lon="-0.6588">
        <ele>279</ele>
      </trkpt>
      <trkpt lat="43.16176" lon="-0.65749">
        <ele>270</ele>
      </trkpt>
      <trkpt lat="43.16184" lon="-0.65671">
        <ele>274</ele>
      </trkpt>
      <trkpt lat="43.16195" lon="-0.65625">
        <ele>276</ele>
      </trkpt>
      <trkpt lat="43.16163" lon="-0.65523">
        <ele>277</ele>
      </trkpt>
      <trkpt lat="43.16166" lon="-0.65504">
        <ele>277</ele>
      </trkpt>
      <trkpt lat="43.16382" lon="-0.65369">
        <ele>252</ele>
      </trkpt>
      <trkpt lat="43.1639" lon="-0.65354">
        <ele>252</ele>
      </trkpt>
      <trkpt lat="43.16445" lon="-0.6529">
        <ele>250</ele>
      </trkpt>
      <trkpt lat="43.16457" lon="-0.65257">
        <ele>250</ele>
      </trkpt>
      <trkpt lat="43.16477" lon="-0.65165">
        <ele>240</ele>
      </trkpt>
      <trkpt lat="43.16487" lon="-0.65146">
        <ele>240</ele>
      </trkpt>
      <trkpt lat="43.16565" lon="-0.65093">
        <ele>240</ele>
      </trkpt>
      <trkpt lat="43.16689" lon="-0.65115">
        <ele>241</ele>
      </trkpt>
      <trkpt lat="43.16704" lon="-0.65099">
        <ele>241</ele>
      </trkpt>
      <trkpt lat="43.16793" lon="-0.64996">
        <ele>238</ele>
      </trkpt>
      <trkpt lat="43.16892" lon="-0.64789">
        <ele>241</ele>
      </trkpt>
      <trkpt lat="43.16895" lon="-0.64756">
        <ele>241</ele>
      </trkpt>
      <trkpt lat="43.16828" lon="-0.64636">
        <ele>241</ele>
      </trkpt>
      <trkpt lat="43.16831" lon="-0.64621">
        <ele>242</ele>
      </trkpt>
      <trkpt lat="43.16838" lon="-0.64607">
        <ele>242</ele>
      </trkpt>
      <trkpt lat="43.16903" lon="-0.64523">
        <ele>242</ele>
      </trkpt>
      <trkpt lat="43.17225" lon="-0.64288">
        <ele>236</ele>
      </trkpt>
      <trkpt lat="43.1747" lon="-0.64152">
        <ele>234</ele>
      </trkpt>
      <trkpt lat="43.1764" lon="-0.64162">
        <ele>230</ele>
      </trkpt>
      <trkpt lat="43.17673" lon="-0.64143">
        <ele>230</ele>
      </trkpt>
      <trkpt lat="43.17682" lon="-0.64124">
        <ele>240</ele>
      </trkpt>
      <trkpt lat="43.17616" lon="-0.64102">
        <ele>239</ele>
      </trkpt>
      <trkpt lat="43.17614" lon="-0.64072">
        <ele>239</ele>
      </trkpt>
      <trkpt lat="43.17628" lon="-0.64043">
        <ele>240</ele>
      </trkpt>
      <trkpt lat="43.17693" lon="-0.63934">
        <ele>262</ele>
      </trkpt>
      <trkpt lat="43.17694" lon="-0.63932">
        <ele>262</ele>
      </trkpt>
      <trkpt lat="43.17551" lon="-0.63467">
        <ele>279</ele>
      </trkpt>
      <trkpt lat="43.1755" lon="-0.63465">
        <ele>279</ele>
      </trkpt>
      <trkpt lat="43.17538" lon="-0.63407">
        <ele>286</ele>
      </trkpt>
      <trkpt lat="43.17532" lon="-0.63293">
        <ele>287</ele>
      </trkpt>
      <trkpt lat="43.17479" lon="-0.63018">
        <ele>286</ele>
      </trkpt>
      <trkpt lat="43.17405" lon="-0.62789">
        <ele>274</ele>
      </trkpt>
      <trkpt lat="43.17415" lon="-0.62769">
        <ele>274</ele>
      </trkpt>
      <trkpt lat="43.17428" lon="-0.62763">
        <ele>274</ele>
      </trkpt>
      <trkpt lat="43.1765" lon="-0.6268">
        <ele>245</ele>
      </trkpt>
      <trkpt lat="43.17666" lon="-0.62667">
        <ele>245</ele>
      </trkpt>
      <trkpt lat="43.17752" lon="-0.62563">
        <ele>243</ele>
      </trkpt>
      <trkpt lat="43.17782" lon="-0.6248">
        <ele>242</ele>
      </trkpt>
      <trkpt lat="43.17845" lon="-0.62373">
        <ele>242</ele>
      </trkpt>
      <trkpt lat="43.17862" lon="-0.62368">
        <ele>242</ele>
      </trkpt>
      <trkpt lat="43.18124" lon="-0.62574">
        <ele>241</ele>
      </trkpt>
      <trkpt lat="43.18137" lon="-0.62654">
        <ele>239</ele>
      </trkpt>
      <trkpt lat="43.18168" lon="-0.62672">
        <ele>239</ele>
      </trkpt>
      <trkpt lat="43.18252" lon="-0.62578">
        <ele>240</ele>
      </trkpt>
      <trkpt lat="43.18322" lon="-0.62612">
        <ele>237</ele>
      </trkpt>
      <trkpt lat="43.18361" lon="-0.62687">
        <ele>238</ele>
      </trkpt>
      <trkpt lat="43.1836" lon="-0.62695">
        <ele>238</ele>
      </trkpt>
      <trkpt lat="43.1836" lon="-0.62701">
        <ele>238</ele>
      </trkpt>
      <trkpt lat="43.1836" lon="-0.62701">
        <ele>238</ele>
      </trkpt>
      <trkpt lat="43.1836" lon="-0.62701">
        <ele>238</ele>
      </trkpt>
      <trkpt lat="43.1836" lon="-0.62701">
        <ele>238</ele>
      </trkpt>
      <trkpt lat="43.1836" lon="-0.62701">
        <ele>238</ele>
      </trkpt>
    </trkseg>
  </trk>
  <trk>
    <name><![CDATA[rando messier]]></name>
    <trkseg>
      <trkpt lat="43.1855" lon="-0.60073">
        <ele>283</ele>
      </trkpt>
      <trkpt lat="43.18555" lon="-0.60064">
        <ele>283</ele>
      </trkpt>
      <trkpt lat="43.18554" lon="-0.60048">
        <ele>283</ele>
      </trkpt>
      <trkpt lat="43.18443" lon="-0.59939">
        <ele>279</ele>
      </trkpt>
      <trkpt lat="43.18416" lon="-0.59916">
        <ele>279</ele>
      </trkpt>
      <trkpt lat="43.18363" lon="-0.59894">
        <ele>275</ele>
      </trkpt>
      <trkpt lat="43.18256" lon="-0.59859">
        <ele>280</ele>
      </trkpt>
      <trkpt lat="43.18205" lon="-0.59853">
        <ele>289</ele>
      </trkpt>
      <trkpt lat="43.1814" lon="-0.5985">
        <ele>289</ele>
      </trkpt>
      <trkpt lat="43.18088" lon="-0.59865">
        <ele>294</ele>
      </trkpt>
      <trkpt lat="43.18038" lon="-0.59873">
        <ele>288</ele>
      </trkpt>
      <trkpt lat="43.17984" lon="-0.59873">
        <ele>288</ele>
      </trkpt>
      <trkpt lat="43.17957" lon="-0.5986">
        <ele>275</ele>
      </trkpt>
      <trkpt lat="43.17938" lon="-0.59828">
        <ele>275</ele>
      </trkpt>
      <trkpt lat="43.17929" lon="-0.59773">
        <ele>279</ele>
      </trkpt>
      <trkpt lat="43.17921" lon="-0.59758">
        <ele>279</ele>
      </trkpt>
      <trkpt lat="43.17905" lon="-0.59737">
        <ele>279</ele>
      </trkpt>
      <trkpt lat="43.17894" lon="-0.59732">
        <ele>279</ele>
      </trkpt>
      <trkpt lat="43.17872" lon="-0.59716">
        <ele>275</ele>
      </trkpt>
      <trkpt lat="43.17841" lon="-0.59701">
        <ele>274</ele>
      </trkpt>
      <trkpt lat="43.17818" lon="-0.59686">
        <ele>274</ele>
      </trkpt>
      <trkpt lat="43.17786" lon="-0.59657">
        <ele>271</ele>
      </trkpt>
      <trkpt lat="43.17775" lon="-0.59642">
        <ele>271</ele>
      </trkpt>
      <trkpt lat="43.1772" lon="-0.59594">
        <ele>268</ele>
      </trkpt>
      <trkpt lat="43.17675" lon="-0.59572">
        <ele>267</ele>
      </trkpt>
      <trkpt lat="43.17593" lon="-0.59525">
        <ele>273</ele>
      </trkpt>
      <trkpt lat="43.1758" lon="-0.59514">
        <ele>273</ele>
      </trkpt>
      <trkpt lat="43.1757" lon="-0.59498">
        <ele>273</ele>
      </trkpt>
      <trkpt lat="43.17573" lon="-0.59471">
        <ele>273</ele>
      </trkpt>
      <trkpt lat="43.17591" lon="-0.59441">
        <ele>271</ele>
      </trkpt>
      <trkpt lat="43.17595" lon="-0.59429">
        <ele>271</ele>
      </trkpt>
      <trkpt lat="43.17596" lon="-0.59415">
        <ele>271</ele>
      </trkpt>
      <trkpt lat="43.17572" lon="-0.59315">
        <ele>265</ele>
      </trkpt>
      <trkpt lat="43.17554" lon="-0.59275">
        <ele>252</ele>
      </trkpt>
      <trkpt lat="43.1753" lon="-0.5924">
        <ele>260</ele>
      </trkpt>
      <trkpt lat="43.17499" lon="-0.59215">
        <ele>260</ele>
      </trkpt>
      <trkpt lat="43.17485" lon="-0.59209">
        <ele>260</ele>
      </trkpt>
      <trkpt lat="43.17464" lon="-0.59194">
        <ele>250</ele>
      </trkpt>
      <trkpt lat="43.17457" lon="-0.5918">
        <ele>269</ele>
      </trkpt>
      <trkpt lat="43.17458" lon="-0.5915">
        <ele>269</ele>
      </trkpt>
      <trkpt lat="43.17454" lon="-0.59114">
        <ele>266</ele>
      </trkpt>
      <trkpt lat="43.17443" lon="-0.59067">
        <ele>266</ele>
      </trkpt>
      <trkpt lat="43.17439" lon="-0.59036">
        <ele>260</ele>
      </trkpt>
      <trkpt lat="43.1742" lon="-0.58975">
        <ele>260</ele>
      </trkpt>
      <trkpt lat="43.17412" lon="-0.58931">
        <ele>254</ele>
      </trkpt>
      <trkpt lat="43.1741" lon="-0.58909">
        <ele>254</ele>
      </trkpt>
      <trkpt lat="43.17417" lon="-0.58826">
        <ele>248</ele>
      </trkpt>
      <trkpt lat="43.17416" lon="-0.58813">
        <ele>248</ele>
      </trkpt>
      <trkpt lat="43.17413" lon="-0.58804">
        <ele>248</ele>
      </trkpt>
      <trkpt lat="43.1741" lon="-0.58748">
        <ele>246</ele>
      </trkpt>
      <trkpt lat="43.17411" lon="-0.58731">
        <ele>246</ele>
      </trkpt>
      <trkpt lat="43.17408" lon="-0.58688">
        <ele>245</ele>
      </trkpt>
      <trkpt lat="43.17413" lon="-0.58625">
        <ele>245</ele>
      </trkpt>
      <trkpt lat="43.17408" lon="-0.5854">
        <ele>245</ele>
      </trkpt>
      <trkpt lat="43.17408" lon="-0.58502">
        <ele>245</ele>
      </trkpt>
      <trkpt lat="43.17397" lon="-0.58466">
        <ele>245</ele>
      </trkpt>
      <trkpt lat="43.17393" lon="-0.58442">
        <ele>242</ele>
      </trkpt>
      <trkpt lat="43.17362" lon="-0.58332">
        <ele>251</ele>
      </trkpt>
      <trkpt lat="43.17352" lon="-0.58304">
        <ele>251</ele>
      </trkpt>
      <trkpt lat="43.1734" lon="-0.58238">
        <ele>252</ele>
      </trkpt>
      <trkpt lat="43.17333" lon="-0.5822">
        <ele>252</ele>
      </trkpt>
      <trkpt lat="43.173" lon="-0.58087">
        <ele>245</ele>
      </trkpt>
      <trkpt lat="43.17277" lon="-0.57934">
        <ele>257</ele>
      </trkpt>
      <trkpt lat="43.17258" lon="-0.57846">
        <ele>251</ele>
      </trkpt>
      <trkpt lat="43.17252" lon="-0.5783">
        <ele>251</ele>
      </trkpt>
      <trkpt lat="43.17237" lon="-0.57807">
        <ele>251</ele>
      </trkpt>
      <trkpt lat="43.17219" lon="-0.57765">
        <ele>246</ele>
      </trkpt>
      <trkpt lat="43.17193" lon="-0.57718">
        <ele>254</ele>
      </trkpt>
      <trkpt lat="43.17139" lon="-0.57675">
        <ele>246</ele>
      </trkpt>
      <trkpt lat="43.17124" lon="-0.57673">
        <ele>247</ele>
      </trkpt>
      <trkpt lat="43.17093" lon="-0.57684">
        <ele>247</ele>
      </trkpt>
      <trkpt lat="43.17073" lon="-0.57685">
        <ele>247</ele>
      </trkpt>
      <trkpt lat="43.17032" lon="-0.57693">
        <ele>247</ele>
      </trkpt>
      <trkpt lat="43.16992" lon="-0.57687">
        <ele>247</ele>
      </trkpt>
      <trkpt lat="43.16918" lon="-0.57684">
        <ele>245</ele>
      </trkpt>
      <trkpt lat="43.16914" lon="-0.57682">
        <ele>245</ele>
      </trkpt>
      <trkpt lat="43.16881" lon="-0.57687">
        <ele>245</ele>
      </trkpt>
      <trkpt lat="43.16867" lon="-0.57685">
        <ele>248</ele>
      </trkpt>
      <trkpt lat="43.1685" lon="-0.57672">
        <ele>248</ele>
      </trkpt>
      <trkpt lat="43.1682" lon="-0.57656">
        <ele>248</ele>
      </trkpt>
      <trkpt lat="43.16801" lon="-0.57641">
        <ele>248</ele>
      </trkpt>
      <trkpt lat="43.16786" lon="-0.57615">
        <ele>249</ele>
      </trkpt>
      <trkpt lat="43.1677" lon="-0.57575">
        <ele>249</ele>
      </trkpt>
      <trkpt lat="43.16754" lon="-0.57497">
        <ele>243</ele>
      </trkpt>
      <trkpt lat="43.16743" lon="-0.57359">
        <ele>241</ele>
      </trkpt>
      <trkpt lat="43.16743" lon="-0.57324">
        <ele>241</ele>
      </trkpt>
      <trkpt lat="43.16745" lon="-0.57312">
        <ele>241</ele>
      </trkpt>
      <trkpt lat="43.16758" lon="-0.57291">
        <ele>242</ele>
      </trkpt>
      <trkpt lat="43.16797" lon="-0.573">
        <ele>245</ele>
      </trkpt>
      <trkpt lat="43.16818" lon="-0.57301">
        <ele>245</ele>
      </trkpt>
      <trkpt lat="43.16836" lon="-0.57313">
        <ele>245</ele>
      </trkpt>
      <trkpt lat="43.16836" lon="-0.57319">
        <ele>245</ele>
      </trkpt>
      <trkpt lat="43.16824" lon="-0.57352">
        <ele>245</ele>
      </trkpt>
      <trkpt lat="43.16816" lon="-0.57361">
        <ele>245</ele>
      </trkpt>
      <trkpt lat="43.16808" lon="-0.57391">
        <ele>245</ele>
      </trkpt>
      <trkpt lat="43.16814" lon="-0.57408">
        <ele>245</ele>
      </trkpt>
      <trkpt lat="43.16825" lon="-0.57419">
        <ele>245</ele>
      </trkpt>
      <trkpt lat="43.16832" lon="-0.57421">
        <ele>245</ele>
      </trkpt>
      <trkpt lat="43.16863" lon="-0.574">
        <ele>245</ele>
      </trkpt>
      <trkpt lat="43.16884" lon="-0.57394">
        <ele>252</ele>
      </trkpt>
      <trkpt lat="43.16902" lon="-0.57383">
        <ele>252</ele>
      </trkpt>
      <trkpt lat="43.16929" lon="-0.57356">
        <ele>261</ele>
      </trkpt>
      <trkpt lat="43.16938" lon="-0.57354">
        <ele>261</ele>
      </trkpt>
      <trkpt lat="43.16949" lon="-0.57346">
        <ele>261</ele>
      </trkpt>
      <trkpt lat="43.16965" lon="-0.57307">
        <ele>270</ele>
      </trkpt>
      <trkpt lat="43.16978" lon="-0.57285">
        <ele>280</ele>
      </trkpt>
      <trkpt lat="43.16985" lon="-0.5726">
        <ele>280</ele>
      </trkpt>
      <trkpt lat="43.16985" lon="-0.5724">
        <ele>280</ele>
      </trkpt>
      <trkpt lat="43.16991" lon="-0.57186">
        <ele>286</ele>
      </trkpt>
      <trkpt lat="43.1699" lon="-0.57165">
        <ele>286</ele>
      </trkpt>
      <trkpt lat="43.16992" lon="-0.57145">
        <ele>286</ele>
      </trkpt>
      <trkpt lat="43.17014" lon="-0.5705">
        <ele>287</ele>
      </trkpt>
      <trkpt lat="43.17056" lon="-0.56923">
        <ele>285</ele>
      </trkpt>
      <trkpt lat="43.17086" lon="-0.56841">
        <ele>287</ele>
      </trkpt>
      <trkpt lat="43.17116" lon="-0.56771">
        <ele>288</ele>
      </trkpt>
      <trkpt lat="43.17131" lon="-0.56766">
        <ele>287</ele>
      </trkpt>
      <trkpt lat="43.17146" lon="-0.56776">
        <ele>287</ele>
      </trkpt>
      <trkpt lat="43.17162" lon="-0.56771">
        <ele>287</ele>
      </trkpt>
      <trkpt lat="43.17173" lon="-0.56761">
        <ele>287</ele>
      </trkpt>
      <trkpt lat="43.17224" lon="-0.56726">
        <ele>289</ele>
      </trkpt>
      <trkpt lat="43.17264" lon="-0.56694">
        <ele>290</ele>
      </trkpt>
      <trkpt lat="43.173" lon="-0.56671">
        <ele>288</ele>
      </trkpt>
      <trkpt lat="43.17336" lon="-0.56632">
        <ele>288</ele>
      </trkpt>
      <trkpt lat="43.17384" lon="-0.56561">
        <ele>291</ele>
      </trkpt>
      <trkpt lat="43.1739" lon="-0.56541">
        <ele>293</ele>
      </trkpt>
      <trkpt lat="43.17408" lon="-0.56447">
        <ele>294</ele>
      </trkpt>
      <trkpt lat="43.17406" lon="-0.5641">
        <ele>294</ele>
      </trkpt>
      <trkpt lat="43.1741" lon="-0.56385">
        <ele>294</ele>
      </trkpt>
      <trkpt lat="43.17439" lon="-0.5636">
        <ele>298</ele>
      </trkpt>
      <trkpt lat="43.1745" lon="-0.56355">
        <ele>298</ele>
      </trkpt>
      <trkpt lat="43.17487" lon="-0.56325">
        <ele>297</ele>
      </trkpt>
      <trkpt lat="43.17555" lon="-0.56283">
        <ele>298</ele>
      </trkpt>
      <trkpt lat="43.17644" lon="-0.56219">
        <ele>297</ele>
      </trkpt>
      <trkpt lat="43.17655" lon="-0.56222">
        <ele>297</ele>
      </trkpt>
      <trkpt lat="43.1767" lon="-0.56244">
        <ele>297</ele>
      </trkpt>
      <trkpt lat="43.17689" lon="-0.56249">
        <ele>297</ele>
      </trkpt>
      <trkpt lat="43.17729" lon="-0.56202">
        <ele>291</ele>
      </trkpt>
      <trkpt lat="43.17759" lon="-0.56161">
        <ele>291</ele>
      </trkpt>
      <trkpt lat="43.17787" lon="-0.56104">
        <ele>293</ele>
      </trkpt>
      <trkpt lat="43.17784" lon="-0.56071">
        <ele>293</ele>
      </trkpt>
      <trkpt lat="43.17749" lon="-0.55989">
        <ele>295</ele>
      </trkpt>
      <trkpt lat="43.17718" lon="-0.55928">
        <ele>291</ele>
      </trkpt>
      <trkpt lat="43.17702" lon="-0.55902">
        <ele>297</ele>
      </trkpt>
      <trkpt lat="43.17703" lon="-0.55889">
        <ele>297</ele>
      </trkpt>
      <trkpt lat="43.17712" lon="-0.55889">
        <ele>291</ele>
      </trkpt>
      <trkpt lat="43.17741" lon="-0.55898">
        <ele>291</ele>
      </trkpt>
      <trkpt lat="43.17782" lon="-0.55925">
        <ele>291</ele>
      </trkpt>
      <trkpt lat="43.1781" lon="-0.5595">
        <ele>275</ele>
      </trkpt>
      <trkpt lat="43.17829" lon="-0.55926">
        <ele>275</ele>
      </trkpt>
      <trkpt lat="43.17835" lon="-0.55915">
        <ele>275</ele>
      </trkpt>
      <trkpt lat="43.17855" lon="-0.55904">
        <ele>275</ele>
      </trkpt>
      <trkpt lat="43.17867" lon="-0.55906">
        <ele>275</ele>
      </trkpt>
      <trkpt lat="43.17888" lon="-0.55918">
        <ele>270</ele>
      </trkpt>
      <trkpt lat="43.17949" lon="-0.56038">
        <ele>271</ele>
      </trkpt>
      <trkpt lat="43.17986" lon="-0.56103">
        <ele>272</ele>
      </trkpt>
      <trkpt lat="43.18049" lon="-0.56203">
        <ele>268</ele>
      </trkpt>
      <trkpt lat="43.18073" lon="-0.56281">
        <ele>270</ele>
      </trkpt>
      <trkpt lat="43.18083" lon="-0.563">
        <ele>268</ele>
      </trkpt>
      <trkpt lat="43.18123" lon="-0.56347">
        <ele>268</ele>
      </trkpt>
      <trkpt lat="43.18161" lon="-0.564">
        <ele>266</ele>
      </trkpt>
      <trkpt lat="43.18196" lon="-0.56463">
        <ele>267</ele>
      </trkpt>
      <trkpt lat="43.18258" lon="-0.56563">
        <ele>266</ele>
      </trkpt>
      <trkpt lat="43.18269" lon="-0.56577">
        <ele>266</ele>
      </trkpt>
      <trkpt lat="43.18287" lon="-0.56594">
        <ele>266</ele>
      </trkpt>
      <trkpt lat="43.18396" lon="-0.56751">
        <ele>262</ele>
      </trkpt>
      <trkpt lat="43.18414" lon="-0.56794">
        <ele>262</ele>
      </trkpt>
      <trkpt lat="43.18493" lon="-0.57024">
        <ele>262</ele>
      </trkpt>
      <trkpt lat="43.18566" lon="-0.57225">
        <ele>259</ele>
      </trkpt>
      <trkpt lat="43.18597" lon="-0.57317">
        <ele>258</ele>
      </trkpt>
      <trkpt lat="43.18658" lon="-0.57485">
        <ele>257</ele>
      </trkpt>
      <trkpt lat="43.18686" lon="-0.57552">
        <ele>259</ele>
      </trkpt>
      <trkpt lat="43.18802" lon="-0.57796">
        <ele>254</ele>
      </trkpt>
      <trkpt lat="43.18899" lon="-0.58007">
        <ele>252</ele>
      </trkpt>
      <trkpt lat="43.18916" lon="-0.58004">
        <ele>252</ele>
      </trkpt>
      <trkpt lat="43.19037" lon="-0.57947">
        <ele>251</ele>
      </trkpt>
      <trkpt lat="43.19057" lon="-0.57944">
        <ele>250</ele>
      </trkpt>
      <trkpt lat="43.19078" lon="-0.57948">
        <ele>250</ele>
      </trkpt>
      <trkpt lat="43.19091" lon="-0.57954">
        <ele>250</ele>
      </trkpt>
      <trkpt lat="43.19108" lon="-0.57969">
        <ele>250</ele>
      </trkpt>
      <trkpt lat="43.19121" lon="-0.57976">
        <ele>250</ele>
      </trkpt>
      <trkpt lat="43.19158" lon="-0.57972">
        <ele>249</ele>
      </trkpt>
      <trkpt lat="43.19194" lon="-0.57964">
        <ele>249</ele>
      </trkpt>
      <trkpt lat="43.19233" lon="-0.57951">
        <ele>250</ele>
      </trkpt>
      <trkpt lat="43.19311" lon="-0.57912">
        <ele>250</ele>
      </trkpt>
      <trkpt lat="43.19357" lon="-0.57892">
        <ele>250</ele>
      </trkpt>
      <trkpt lat="43.19418" lon="-0.57858">
        <ele>248</ele>
      </trkpt>
      <trkpt lat="43.19426" lon="-0.57859">
        <ele>248</ele>
      </trkpt>
      <trkpt lat="43.19469" lon="-0.57878">
        <ele>248</ele>
      </trkpt>
      <trkpt lat="43.19484" lon="-0.57881">
        <ele>248</ele>
      </trkpt>
      <trkpt lat="43.19514" lon="-0.57878">
        <ele>248</ele>
      </trkpt>
      <trkpt lat="43.1953" lon="-0.57894">
        <ele>248</ele>
      </trkpt>
      <trkpt lat="43.19543" lon="-0.5793">
        <ele>248</ele>
      </trkpt>
      <trkpt lat="43.19566" lon="-0.57946">
        <ele>248</ele>
      </trkpt>
      <trkpt lat="43.19609" lon="-0.57945">
        <ele>248</ele>
      </trkpt>
      <trkpt lat="43.1965" lon="-0.57933">
        <ele>249</ele>
      </trkpt>
      <trkpt lat="43.19679" lon="-0.57937">
        <ele>249</ele>
      </trkpt>
      <trkpt lat="43.19707" lon="-0.57917">
        <ele>249</ele>
      </trkpt>
      <trkpt lat="43.19778" lon="-0.57873">
        <ele>248</ele>
      </trkpt>
      <trkpt lat="43.19874" lon="-0.57821">
        <ele>248</ele>
      </trkpt>
      <trkpt lat="43.19884" lon="-0.57794">
        <ele>247</ele>
      </trkpt>
      <trkpt lat="43.19879" lon="-0.57716">
        <ele>248</ele>
      </trkpt>
      <trkpt lat="43.19866" lon="-0.5766">
        <ele>248</ele>
      </trkpt>
      <trkpt lat="43.19863" lon="-0.57638">
        <ele>248</ele>
      </trkpt>
      <trkpt lat="43.19871" lon="-0.57622">
        <ele>248</ele>
      </trkpt>
      <trkpt lat="43.19889" lon="-0.5761">
        <ele>248</ele>
      </trkpt>
      <trkpt lat="43.19913" lon="-0.57589">
        <ele>248</ele>
      </trkpt>
      <trkpt lat="43.19946" lon="-0.57568">
        <ele>248</ele>
      </trkpt>
      <trkpt lat="43.20006" lon="-0.57543">
        <ele>251</ele>
      </trkpt>
      <trkpt lat="43.20021" lon="-0.5753">
        <ele>252</ele>
      </trkpt>
      <trkpt lat="43.20032" lon="-0.57515">
        <ele>252</ele>
      </trkpt>
      <trkpt lat="43.2004" lon="-0.57491">
        <ele>252</ele>
      </trkpt>
      <trkpt lat="43.2005" lon="-0.57475">
        <ele>266</ele>
      </trkpt>
      <trkpt lat="43.20048" lon="-0.57463">
        <ele>266</ele>
      </trkpt>
      <trkpt lat="43.20034" lon="-0.57431">
        <ele>260</ele>
      </trkpt>
      <trkpt lat="43.20024" lon="-0.5739">
        <ele>260</ele>
      </trkpt>
      <trkpt lat="43.20024" lon="-0.57379">
        <ele>260</ele>
      </trkpt>
      <trkpt lat="43.20022" lon="-0.57374">
        <ele>264</ele>
      </trkpt>
      <trkpt lat="43.20023" lon="-0.57366">
        <ele>264</ele>
      </trkpt>
      <trkpt lat="43.20024" lon="-0.57368">
        <ele>264</ele>
      </trkpt>
      <trkpt lat="43.20031" lon="-0.57365">
        <ele>264</ele>
      </trkpt>
      <trkpt lat="43.20035" lon="-0.5736">
        <ele>264</ele>
      </trkpt>
      <trkpt lat="43.20055" lon="-0.57352">
        <ele>283</ele>
      </trkpt>
      <trkpt lat="43.20085" lon="-0.57353">
        <ele>283</ele>
      </trkpt>
      <trkpt lat="43.20109" lon="-0.5736">
        <ele>283</ele>
      </trkpt>
      <trkpt lat="43.20123" lon="-0.57361">
        <ele>283</ele>
      </trkpt>
      <trkpt lat="43.20132" lon="-0.57365">
        <ele>295</ele>
      </trkpt>
      <trkpt lat="43.20166" lon="-0.57358">
        <ele>295</ele>
      </trkpt>
      <trkpt lat="43.20208" lon="-0.57339">
        <ele>295</ele>
      </trkpt>
      <trkpt lat="43.20273" lon="-0.57325">
        <ele>295</ele>
      </trkpt>
      <trkpt lat="43.20285" lon="-0.57319">
        <ele>295</ele>
      </trkpt>
      <trkpt lat="43.20303" lon="-0.57335">
        <ele>299</ele>
      </trkpt>
      <trkpt lat="43.20313" lon="-0.57334">
        <ele>299</ele>
      </trkpt>
      <trkpt lat="43.20331" lon="-0.57337">
        <ele>299</ele>
      </trkpt>
      <trkpt lat="43.20334" lon="-0.57342">
        <ele>299</ele>
      </trkpt>
      <trkpt lat="43.20347" lon="-0.57401">
        <ele>300</ele>
      </trkpt>
      <trkpt lat="43.20359" lon="-0.57415">
        <ele>300</ele>
      </trkpt>
      <trkpt lat="43.2036" lon="-0.5742">
        <ele>300</ele>
      </trkpt>
      <trkpt lat="43.20353" lon="-0.57447">
        <ele>300</ele>
      </trkpt>
      <trkpt lat="43.20321" lon="-0.57506">
        <ele>298</ele>
      </trkpt>
      <trkpt lat="43.20277" lon="-0.57569">
        <ele>299</ele>
      </trkpt>
      <trkpt lat="43.20268" lon="-0.57594">
        <ele>299</ele>
      </trkpt>
      <trkpt lat="43.20267" lon="-0.57619">
        <ele>299</ele>
      </trkpt>
      <trkpt lat="43.20269" lon="-0.57669">
        <ele>299</ele>
      </trkpt>
      <trkpt lat="43.20267" lon="-0.577">
        <ele>299</ele>
      </trkpt>
      <trkpt lat="43.20271" lon="-0.57726">
        <ele>302</ele>
      </trkpt>
      <trkpt lat="43.20272" lon="-0.57758">
        <ele>302</ele>
      </trkpt>
      <trkpt lat="43.20257" lon="-0.57818">
        <ele>298</ele>
      </trkpt>
      <trkpt lat="43.20257" lon="-0.57827">
        <ele>298</ele>
      </trkpt>
      <trkpt lat="43.20264" lon="-0.57855">
        <ele>298</ele>
      </trkpt>
      <trkpt lat="43.20263" lon="-0.57877">
        <ele>293</ele>
      </trkpt>
      <trkpt lat="43.20258" lon="-0.57913">
        <ele>293</ele>
      </trkpt>
      <trkpt lat="43.20259" lon="-0.57981">
        <ele>288</ele>
      </trkpt>
      <trkpt lat="43.20263" lon="-0.58031">
        <ele>288</ele>
      </trkpt>
      <trkpt lat="43.20262" lon="-0.58061">
        <ele>282</ele>
      </trkpt>
      <trkpt lat="43.20253" lon="-0.58124">
        <ele>282</ele>
      </trkpt>
      <trkpt lat="43.20267" lon="-0.58162">
        <ele>281</ele>
      </trkpt>
      <trkpt lat="43.20273" lon="-0.58197">
        <ele>281</ele>
      </trkpt>
      <trkpt lat="43.20285" lon="-0.58242">
        <ele>277</ele>
      </trkpt>
      <trkpt lat="43.20293" lon="-0.58254">
        <ele>285</ele>
      </trkpt>
      <trkpt lat="43.20302" lon="-0.5826">
        <ele>285</ele>
      </trkpt>
      <trkpt lat="43.20328" lon="-0.5827">
        <ele>285</ele>
      </trkpt>
      <trkpt lat="43.20339" lon="-0.58268">
        <ele>285</ele>
      </trkpt>
      <trkpt lat="43.2035" lon="-0.58253">
        <ele>285</ele>
      </trkpt>
      <trkpt lat="43.20359" lon="-0.58251">
        <ele>285</ele>
      </trkpt>
      <trkpt lat="43.20385" lon="-0.58263">
        <ele>274</ele>
      </trkpt>
      <trkpt lat="43.20416" lon="-0.58269">
        <ele>274</ele>
      </trkpt>
      <trkpt lat="43.20434" lon="-0.58262">
        <ele>274</ele>
      </trkpt>
      <trkpt lat="43.2045" lon="-0.5825">
        <ele>274</ele>
      </trkpt>
      <trkpt lat="43.20468" lon="-0.58242">
        <ele>262</ele>
      </trkpt>
      <trkpt lat="43.20489" lon="-0.58242">
        <ele>262</ele>
      </trkpt>
      <trkpt lat="43.20494" lon="-0.58235">
        <ele>262</ele>
      </trkpt>
      <trkpt lat="43.20504" lon="-0.58205">
        <ele>267</ele>
      </trkpt>
      <trkpt lat="43.20518" lon="-0.58149">
        <ele>267</ele>
      </trkpt>
      <trkpt lat="43.20528" lon="-0.58141">
        <ele>267</ele>
      </trkpt>
      <trkpt lat="43.20534" lon="-0.58145">
        <ele>267</ele>
      </trkpt>
      <trkpt lat="43.20543" lon="-0.58143">
        <ele>266</ele>
      </trkpt>
      <trkpt lat="43.20545" lon="-0.58148">
        <ele>266</ele>
      </trkpt>
      <trkpt lat="43.20544" lon="-0.58158">
        <ele>266</ele>
      </trkpt>
      <trkpt lat="43.20523" lon="-0.58198">
        <ele>267</ele>
      </trkpt>
      <trkpt lat="43.20514" lon="-0.5823">
        <ele>262</ele>
      </trkpt>
      <trkpt lat="43.20515" lon="-0.58239">
        <ele>262</ele>
      </trkpt>
      <trkpt lat="43.20521" lon="-0.58239">
        <ele>262</ele>
      </trkpt>
      <trkpt lat="43.20536" lon="-0.58232">
        <ele>262</ele>
      </trkpt>
      <trkpt lat="43.20548" lon="-0.58234">
        <ele>275</ele>
      </trkpt>
      <trkpt lat="43.20558" lon="-0.58253">
        <ele>275</ele>
      </trkpt>
      <trkpt lat="43.20571" lon="-0.58268">
        <ele>275</ele>
      </trkpt>
      <trkpt lat="43.20581" lon="-0.58273">
        <ele>275</ele>
      </trkpt>
      <trkpt lat="43.20583" lon="-0.5828">
        <ele>275</ele>
      </trkpt>
      <trkpt lat="43.20604" lon="-0.58301">
        <ele>281</ele>
      </trkpt>
      <trkpt lat="43.2061" lon="-0.58304">
        <ele>281</ele>
      </trkpt>
      <trkpt lat="43.20621" lon="-0.58321">
        <ele>281</ele>
      </trkpt>
      <trkpt lat="43.20622" lon="-0.58327">
        <ele>281</ele>
      </trkpt>
      <trkpt lat="43.20628" lon="-0.58336">
        <ele>298</ele>
      </trkpt>
      <trkpt lat="43.20631" lon="-0.58354">
        <ele>298</ele>
      </trkpt>
      <trkpt lat="43.20649" lon="-0.58395">
        <ele>300</ele>
      </trkpt>
      <trkpt lat="43.20661" lon="-0.58402">
        <ele>300</ele>
      </trkpt>
      <trkpt lat="43.20675" lon="-0.58402">
        <ele>300</ele>
      </trkpt>
      <trkpt lat="43.20702" lon="-0.58429">
        <ele>300</ele>
      </trkpt>
      <trkpt lat="43.20698" lon="-0.58453">
        <ele>300</ele>
      </trkpt>
      <trkpt lat="43.20701" lon="-0.58462">
        <ele>296</ele>
      </trkpt>
      <trkpt lat="43.20724" lon="-0.58477">
        <ele>311</ele>
      </trkpt>
      <trkpt lat="43.20737" lon="-0.5848">
        <ele>311</ele>
      </trkpt>
      <trkpt lat="43.20744" lon="-0.58485">
        <ele>311</ele>
      </trkpt>
      <trkpt lat="43.20763" lon="-0.58484">
        <ele>311</ele>
      </trkpt>
      <trkpt lat="43.20772" lon="-0.5849">
        <ele>311</ele>
      </trkpt>
      <trkpt lat="43.20792" lon="-0.58495">
        <ele>319</ele>
      </trkpt>
      <trkpt lat="43.20806" lon="-0.58503">
        <ele>319</ele>
      </trkpt>
      <trkpt lat="43.20807" lon="-0.58506">
        <ele>319</ele>
      </trkpt>
      <trkpt lat="43.2082" lon="-0.58516">
        <ele>319</ele>
      </trkpt>
      <trkpt lat="43.20824" lon="-0.58522">
        <ele>319</ele>
      </trkpt>
      <trkpt lat="43.2084" lon="-0.58575">
        <ele>325</ele>
      </trkpt>
      <trkpt lat="43.20847" lon="-0.58586">
        <ele>325</ele>
      </trkpt>
      <trkpt lat="43.20866" lon="-0.58588">
        <ele>325</ele>
      </trkpt>
      <trkpt lat="43.20886" lon="-0.58594">
        <ele>329</ele>
      </trkpt>
      <trkpt lat="43.20892" lon="-0.58602">
        <ele>329</ele>
      </trkpt>
      <trkpt lat="43.20901" lon="-0.58653">
        <ele>336</ele>
      </trkpt>
      <trkpt lat="43.20903" lon="-0.58691">
        <ele>336</ele>
      </trkpt>
      <trkpt lat="43.20899" lon="-0.58707">
        <ele>336</ele>
      </trkpt>
      <trkpt lat="43.20888" lon="-0.58724">
        <ele>336</ele>
      </trkpt>
      <trkpt lat="43.20876" lon="-0.58774">
        <ele>336</ele>
      </trkpt>
      <trkpt lat="43.20865" lon="-0.58782">
        <ele>339</ele>
      </trkpt>
      <trkpt lat="43.20861" lon="-0.5879">
        <ele>339</ele>
      </trkpt>
      <trkpt lat="43.2086" lon="-0.58808">
        <ele>334</ele>
      </trkpt>
      <trkpt lat="43.20847" lon="-0.58832">
        <ele>334</ele>
      </trkpt>
      <trkpt lat="43.20832" lon="-0.5884">
        <ele>334</ele>
      </trkpt>
      <trkpt lat="43.20826" lon="-0.58838">
        <ele>334</ele>
      </trkpt>
      <trkpt lat="43.20812" lon="-0.58842">
        <ele>334</ele>
      </trkpt>
      <trkpt lat="43.20797" lon="-0.58852">
        <ele>334</ele>
      </trkpt>
      <trkpt lat="43.20784" lon="-0.58873">
        <ele>324</ele>
      </trkpt>
      <trkpt lat="43.20772" lon="-0.58878">
        <ele>323</ele>
      </trkpt>
      <trkpt lat="43.20768" lon="-0.58901">
        <ele>323</ele>
      </trkpt>
      <trkpt lat="43.20761" lon="-0.58918">
        <ele>323</ele>
      </trkpt>
      <trkpt lat="43.20751" lon="-0.58929">
        <ele>323</ele>
      </trkpt>
      <trkpt lat="43.20726" lon="-0.58937">
        <ele>323</ele>
      </trkpt>
      <trkpt lat="43.20723" lon="-0.58934">
        <ele>323</ele>
      </trkpt>
      <trkpt lat="43.20721" lon="-0.5892">
        <ele>323</ele>
      </trkpt>
      <trkpt lat="43.20714" lon="-0.58897">
        <ele>323</ele>
      </trkpt>
      <trkpt lat="43.20711" lon="-0.58877">
        <ele>323</ele>
      </trkpt>
      <trkpt lat="43.20711" lon="-0.58858">
        <ele>324</ele>
      </trkpt>
      <trkpt lat="43.207" lon="-0.58847">
        <ele>306</ele>
      </trkpt>
      <trkpt lat="43.20695" lon="-0.58806">
        <ele>306</ele>
      </trkpt>
      <trkpt lat="43.2069" lon="-0.58783">
        <ele>305</ele>
      </trkpt>
      <trkpt lat="43.20683" lon="-0.58774">
        <ele>305</ele>
      </trkpt>
      <trkpt lat="43.20678" lon="-0.5876">
        <ele>305</ele>
      </trkpt>
      <trkpt lat="43.20677" lon="-0.58748">
        <ele>305</ele>
      </trkpt>
      <trkpt lat="43.20666" lon="-0.58709">
        <ele>305</ele>
      </trkpt>
      <trkpt lat="43.20668" lon="-0.58697">
        <ele>299</ele>
      </trkpt>
      <trkpt lat="43.20648" lon="-0.58644">
        <ele>299</ele>
      </trkpt>
      <trkpt lat="43.20636" lon="-0.58632">
        <ele>299</ele>
      </trkpt>
      <trkpt lat="43.20634" lon="-0.58622">
        <ele>292</ele>
      </trkpt>
      <trkpt lat="43.20638" lon="-0.58612">
        <ele>292</ele>
      </trkpt>
      <trkpt lat="43.20613" lon="-0.58588">
        <ele>270</ele>
      </trkpt>
      <trkpt lat="43.20588" lon="-0.58581">
        <ele>270</ele>
      </trkpt>
      <trkpt lat="43.20573" lon="-0.58597">
        <ele>270</ele>
      </trkpt>
      <trkpt lat="43.20557" lon="-0.58608">
        <ele>270</ele>
      </trkpt>
      <trkpt lat="43.20511" lon="-0.58629">
        <ele>251</ele>
      </trkpt>
      <trkpt lat="43.20487" lon="-0.58635">
        <ele>251</ele>
      </trkpt>
      <trkpt lat="43.20471" lon="-0.58647">
        <ele>251</ele>
      </trkpt>
      <trkpt lat="43.20436" lon="-0.58666">
        <ele>245</ele>
      </trkpt>
      <trkpt lat="43.20409" lon="-0.58694">
        <ele>245</ele>
      </trkpt>
      <trkpt lat="43.20395" lon="-0.58725">
        <ele>244</ele>
      </trkpt>
      <trkpt lat="43.20398" lon="-0.58727">
        <ele>244</ele>
      </trkpt>
      <trkpt lat="43.20394" lon="-0.58724">
        <ele>244</ele>
      </trkpt>
      <trkpt lat="43.20337" lon="-0.58765">
        <ele>243</ele>
      </trkpt>
      <trkpt lat="43.20307" lon="-0.58792">
        <ele>241</ele>
      </trkpt>
      <trkpt lat="43.20195" lon="-0.58877">
        <ele>238</ele>
      </trkpt>
      <trkpt lat="43.20177" lon="-0.58893">
        <ele>238</ele>
      </trkpt>
      <trkpt lat="43.20159" lon="-0.5893">
        <ele>238</ele>
      </trkpt>
      <trkpt lat="43.20158" lon="-0.58938">
        <ele>238</ele>
      </trkpt>
      <trkpt lat="43.20141" lon="-0.58986">
        <ele>238</ele>
      </trkpt>
      <trkpt lat="43.20134" lon="-0.58998">
        <ele>238</ele>
      </trkpt>
      <trkpt lat="43.20128" lon="-0.59002">
        <ele>238</ele>
      </trkpt>
      <trkpt lat="43.20108" lon="-0.59033">
        <ele>241</ele>
      </trkpt>
      <trkpt lat="43.20103" lon="-0.59049">
        <ele>239</ele>
      </trkpt>
      <trkpt lat="43.20087" lon="-0.59142">
        <ele>237</ele>
      </trkpt>
      <trkpt lat="43.2007" lon="-0.59178">
        <ele>237</ele>
      </trkpt>
      <trkpt lat="43.20068" lon="-0.59207">
        <ele>237</ele>
      </trkpt>
      <trkpt lat="43.20084" lon="-0.59229">
        <ele>239</ele>
      </trkpt>
      <trkpt lat="43.201" lon="-0.59264">
        <ele>239</ele>
      </trkpt>
      <trkpt lat="43.20104" lon="-0.59297">
        <ele>238</ele>
      </trkpt>
      <trkpt lat="43.20105" lon="-0.59347">
        <ele>238</ele>
      </trkpt>
      <trkpt lat="43.20097" lon="-0.59407">
        <ele>239</ele>
      </trkpt>
      <trkpt lat="43.20089" lon="-0.59439">
        <ele>239</ele>
      </trkpt>
      <trkpt lat="43.20084" lon="-0.59473">
        <ele>237</ele>
      </trkpt>
      <trkpt lat="43.20083" lon="-0.59499">
        <ele>237</ele>
      </trkpt>
      <trkpt lat="43.20094" lon="-0.59568">
        <ele>237</ele>
      </trkpt>
      <trkpt lat="43.20107" lon="-0.59617">
        <ele>237</ele>
      </trkpt>
      <trkpt lat="43.20147" lon="-0.59742">
        <ele>234</ele>
      </trkpt>
      <trkpt lat="43.20162" lon="-0.59773">
        <ele>234</ele>
      </trkpt>
      <trkpt lat="43.20201" lon="-0.5984">
        <ele>236</ele>
      </trkpt>
      <trkpt lat="43.20231" lon="-0.59942">
        <ele>233</ele>
      </trkpt>
      <trkpt lat="43.20255" lon="-0.59985">
        <ele>232</ele>
      </trkpt>
      <trkpt lat="43.20277" lon="-0.60016">
        <ele>232</ele>
      </trkpt>
      <trkpt lat="43.20323" lon="-0.60054">
        <ele>234</ele>
      </trkpt>
      <trkpt lat="43.20424" lon="-0.60122">
        <ele>232</ele>
      </trkpt>
      <trkpt lat="43.20464" lon="-0.60168">
        <ele>229</ele>
      </trkpt>
      <trkpt lat="43.20496" lon="-0.60213">
        <ele>229</ele>
      </trkpt>
      <trkpt lat="43.20547" lon="-0.60278">
        <ele>231</ele>
      </trkpt>
      <trkpt lat="43.20567" lon="-0.60322">
        <ele>229</ele>
      </trkpt>
      <trkpt lat="43.20592" lon="-0.60393">
        <ele>229</ele>
      </trkpt>
      <trkpt lat="43.20654" lon="-0.60498">
        <ele>229</ele>
      </trkpt>
      <trkpt lat="43.20681" lon="-0.60519">
        <ele>229</ele>
      </trkpt>
      <trkpt lat="43.20739" lon="-0.60532">
        <ele>234</ele>
      </trkpt>
      <trkpt lat="43.2076" lon="-0.60525">
        <ele>234</ele>
      </trkpt>
      <trkpt lat="43.20767" lon="-0.60528">
        <ele>234</ele>
      </trkpt>
      <trkpt lat="43.20801" lon="-0.60556">
        <ele>236</ele>
      </trkpt>
      <trkpt lat="43.20853" lon="-0.60634">
        <ele>230</ele>
      </trkpt>
      <trkpt lat="43.20873" lon="-0.60672">
        <ele>230</ele>
      </trkpt>
      <trkpt lat="43.20886" lon="-0.60703">
        <ele>236</ele>
      </trkpt>
      <trkpt lat="43.209" lon="-0.60721">
        <ele>230</ele>
      </trkpt>
      <trkpt lat="43.20933" lon="-0.60733">
        <ele>230</ele>
      </trkpt>
      <trkpt lat="43.20944" lon="-0.60724">
        <ele>230</ele>
      </trkpt>
      <trkpt lat="43.20958" lon="-0.60705">
        <ele>236</ele>
      </trkpt>
      <trkpt lat="43.20965" lon="-0.60654">
        <ele>230</ele>
      </trkpt>
      <trkpt lat="43.20973" lon="-0.60646">
        <ele>230</ele>
      </trkpt>
      <trkpt lat="43.20996" lon="-0.60646">
        <ele>230</ele>
      </trkpt>
      <trkpt lat="43.21013" lon="-0.6064">
        <ele>230</ele>
      </trkpt>
      <trkpt lat="43.21022" lon="-0.60629">
        <ele>230</ele>
      </trkpt>
      <trkpt lat="43.21028" lon="-0.60615">
        <ele>230</ele>
      </trkpt>
      <trkpt lat="43.21037" lon="-0.60561">
        <ele>230</ele>
      </trkpt>
      <trkpt lat="43.2103" lon="-0.60514">
        <ele>229</ele>
      </trkpt>
      <trkpt lat="43.21032" lon="-0.60379">
        <ele>232</ele>
      </trkpt>
      <trkpt lat="43.21022" lon="-0.6032">
        <ele>233</ele>
      </trkpt>
      <trkpt lat="43.21023" lon="-0.60299">
        <ele>233</ele>
      </trkpt>
      <trkpt lat="43.21035" lon="-0.60262">
        <ele>235</ele>
      </trkpt>
      <trkpt lat="43.21069" lon="-0.60215">
        <ele>244</ele>
      </trkpt>
      <trkpt lat="43.21086" lon="-0.602">
        <ele>234</ele>
      </trkpt>
      <trkpt lat="43.21105" lon="-0.60175">
        <ele>234</ele>
      </trkpt>
      <trkpt lat="43.21108" lon="-0.60145">
        <ele>234</ele>
      </trkpt>
      <trkpt lat="43.21099" lon="-0.60114">
        <ele>231</ele>
      </trkpt>
      <trkpt lat="43.21099" lon="-0.60078">
        <ele>231</ele>
      </trkpt>
      <trkpt lat="43.21108" lon="-0.6004">
        <ele>231</ele>
      </trkpt>
      <trkpt lat="43.21127" lon="-0.6">
        <ele>244</ele>
      </trkpt>
      <trkpt lat="43.21147" lon="-0.59984">
        <ele>244</ele>
      </trkpt>
      <trkpt lat="43.21153" lon="-0.59982">
        <ele>244</ele>
      </trkpt>
      <trkpt lat="43.2116" lon="-0.59975">
        <ele>244</ele>
      </trkpt>
      <trkpt lat="43.21185" lon="-0.59965">
        <ele>244</ele>
      </trkpt>
      <trkpt lat="43.21204" lon="-0.59974">
        <ele>244</ele>
      </trkpt>
      <trkpt lat="43.21225" lon="-0.5999">
        <ele>260</ele>
      </trkpt>
      <trkpt lat="43.21273" lon="-0.60017">
        <ele>260</ele>
      </trkpt>
      <trkpt lat="43.21286" lon="-0.60031">
        <ele>260</ele>
      </trkpt>
      <trkpt lat="43.21338" lon="-0.60044">
        <ele>265</ele>
      </trkpt>
      <trkpt lat="43.21375" lon="-0.60048">
        <ele>265</ele>
      </trkpt>
      <trkpt lat="43.21379" lon="-0.60046">
        <ele>273</ele>
      </trkpt>
      <trkpt lat="43.21405" lon="-0.60048">
        <ele>273</ele>
      </trkpt>
      <trkpt lat="43.21434" lon="-0.60045">
        <ele>273</ele>
      </trkpt>
      <trkpt lat="43.21496" lon="-0.60023">
        <ele>282</ele>
      </trkpt>
      <trkpt lat="43.21513" lon="-0.60012">
        <ele>282</ele>
      </trkpt>
      <trkpt lat="43.21516" lon="-0.60007">
        <ele>282</ele>
      </trkpt>
      <trkpt lat="43.21527" lon="-0.59999">
        <ele>282</ele>
      </trkpt>
      <trkpt lat="43.2157" lon="-0.59977">
        <ele>297</ele>
      </trkpt>
      <trkpt lat="43.21612" lon="-0.59971">
        <ele>297</ele>
      </trkpt>
      <trkpt lat="43.21628" lon="-0.59963">
        <ele>315</ele>
      </trkpt>
      <trkpt lat="43.21659" lon="-0.59961">
        <ele>315</ele>
      </trkpt>
      <trkpt lat="43.21671" lon="-0.59957">
        <ele>309</ele>
      </trkpt>
      <trkpt lat="43.21693" lon="-0.59957">
        <ele>309</ele>
      </trkpt>
      <trkpt lat="43.21699" lon="-0.59954">
        <ele>309</ele>
      </trkpt>
      <trkpt lat="43.21701" lon="-0.59956">
        <ele>309</ele>
      </trkpt>
      <trkpt lat="43.21721" lon="-0.59956">
        <ele>321</ele>
      </trkpt>
      <trkpt lat="43.21741" lon="-0.5995">
        <ele>321</ele>
      </trkpt>
      <trkpt lat="43.21769" lon="-0.59928">
        <ele>321</ele>
      </trkpt>
      <trkpt lat="43.2178" lon="-0.59925">
        <ele>321</ele>
      </trkpt>
      <trkpt lat="43.21811" lon="-0.59906">
        <ele>330</ele>
      </trkpt>
      <trkpt lat="43.21818" lon="-0.59904">
        <ele>330</ele>
      </trkpt>
      <trkpt lat="43.21832" lon="-0.5989">
        <ele>330</ele>
      </trkpt>
      <trkpt lat="43.21854" lon="-0.59879">
        <ele>330</ele>
      </trkpt>
      <trkpt lat="43.21887" lon="-0.59874">
        <ele>335</ele>
      </trkpt>
      <trkpt lat="43.21899" lon="-0.59868">
        <ele>335</ele>
      </trkpt>
      <trkpt lat="43.21917" lon="-0.59864">
        <ele>335</ele>
      </trkpt>
      <trkpt lat="43.21925" lon="-0.59854">
        <ele>335</ele>
      </trkpt>
      <trkpt lat="43.21927" lon="-0.59847">
        <ele>335</ele>
      </trkpt>
      <trkpt lat="43.2193" lon="-0.59849">
        <ele>335</ele>
      </trkpt>
      <trkpt lat="43.2198" lon="-0.59797">
        <ele>341</ele>
      </trkpt>
      <trkpt lat="43.22021" lon="-0.5974">
        <ele>334</ele>
      </trkpt>
      <trkpt lat="43.22041" lon="-0.59723">
        <ele>334</ele>
      </trkpt>
      <trkpt lat="43.22065" lon="-0.59687">
        <ele>334</ele>
      </trkpt>
      <trkpt lat="43.22119" lon="-0.59576">
        <ele>332</ele>
      </trkpt>
      <trkpt lat="43.22147" lon="-0.59538">
        <ele>334</ele>
      </trkpt>
      <trkpt lat="43.2215" lon="-0.59506">
        <ele>334</ele>
      </trkpt>
      <trkpt lat="43.2214" lon="-0.59445">
        <ele>335</ele>
      </trkpt>
      <trkpt lat="43.22134" lon="-0.59386">
        <ele>335</ele>
      </trkpt>
      <trkpt lat="43.22124" lon="-0.59344">
        <ele>337</ele>
      </trkpt>
      <trkpt lat="43.22099" lon="-0.59282">
        <ele>341</ele>
      </trkpt>
      <trkpt lat="43.22092" lon="-0.59246">
        <ele>341</ele>
      </trkpt>
      <trkpt lat="43.22101" lon="-0.59186">
        <ele>335</ele>
      </trkpt>
      <trkpt lat="43.22101" lon="-0.59139">
        <ele>335</ele>
      </trkpt>
      <trkpt lat="43.22103" lon="-0.59111">
        <ele>334</ele>
      </trkpt>
      <trkpt lat="43.22098" lon="-0.59057">
        <ele>334</ele>
      </trkpt>
      <trkpt lat="43.22096" lon="-0.58999">
        <ele>335</ele>
      </trkpt>
      <trkpt lat="43.22091" lon="-0.58937">
        <ele>337</ele>
      </trkpt>
      <trkpt lat="43.22085" lon="-0.58895">
        <ele>337</ele>
      </trkpt>
      <trkpt lat="43.22072" lon="-0.5883">
        <ele>338</ele>
      </trkpt>
      <trkpt lat="43.2207" lon="-0.58798">
        <ele>338</ele>
      </trkpt>
      <trkpt lat="43.2207" lon="-0.5872">
        <ele>337</ele>
      </trkpt>
      <trkpt lat="43.22061" lon="-0.58699">
        <ele>334</ele>
      </trkpt>
      <trkpt lat="43.2204" lon="-0.58629">
        <ele>334</ele>
      </trkpt>
      <trkpt lat="43.22019" lon="-0.58571">
        <ele>339</ele>
      </trkpt>
      <trkpt lat="43.21999" lon="-0.58529">
        <ele>336</ele>
      </trkpt>
      <trkpt lat="43.21975" lon="-0.58509">
        <ele>336</ele>
      </trkpt>
      <trkpt lat="43.2195" lon="-0.58469">
        <ele>332</ele>
      </trkpt>
      <trkpt lat="43.21896" lon="-0.58359">
        <ele>330</ele>
      </trkpt>
      <trkpt lat="43.2187" lon="-0.58318">
        <ele>331</ele>
      </trkpt>
      <trkpt lat="43.21832" lon="-0.58247">
        <ele>333</ele>
      </trkpt>
      <trkpt lat="43.21818" lon="-0.58215">
        <ele>333</ele>
      </trkpt>
      <trkpt lat="43.21791" lon="-0.58166">
        <ele>339</ele>
      </trkpt>
      <trkpt lat="43.21764" lon="-0.58124">
        <ele>343</ele>
      </trkpt>
      <trkpt lat="43.21716" lon="-0.58035">
        <ele>347</ele>
      </trkpt>
      <trkpt lat="43.21693" lon="-0.58014">
        <ele>341</ele>
      </trkpt>
      <trkpt lat="43.21665" lon="-0.5798">
        <ele>341</ele>
      </trkpt>
      <trkpt lat="43.21643" lon="-0.57964">
        <ele>341</ele>
      </trkpt>
      <trkpt lat="43.21626" lon="-0.57963">
        <ele>341</ele>
      </trkpt>
      <trkpt lat="43.21579" lon="-0.57979">
        <ele>325</ele>
      </trkpt>
      <trkpt lat="43.21567" lon="-0.57976">
        <ele>325</ele>
      </trkpt>
      <trkpt lat="43.21545" lon="-0.57963">
        <ele>325</ele>
      </trkpt>
      <trkpt lat="43.21542" lon="-0.5795">
        <ele>326</ele>
      </trkpt>
      <trkpt lat="43.21531" lon="-0.57928">
        <ele>307</ele>
      </trkpt>
      <trkpt lat="43.21483" lon="-0.5788">
        <ele>307</ele>
      </trkpt>
      <trkpt lat="43.21459" lon="-0.57885">
        <ele>307</ele>
      </trkpt>
      <trkpt lat="43.21406" lon="-0.57949">
        <ele>292</ele>
      </trkpt>
      <trkpt lat="43.21385" lon="-0.57969">
        <ele>291</ele>
      </trkpt>
      <trkpt lat="43.21314" lon="-0.58023">
        <ele>275</ele>
      </trkpt>
      <trkpt lat="43.21235" lon="-0.58061">
        <ele>259</ele>
      </trkpt>
      <trkpt lat="43.21194" lon="-0.5807">
        <ele>254</ele>
      </trkpt>
      <trkpt lat="43.21178" lon="-0.58061">
        <ele>254</ele>
      </trkpt>
      <trkpt lat="43.21153" lon="-0.57953">
        <ele>252</ele>
      </trkpt>
      <trkpt lat="43.21144" lon="-0.57886">
        <ele>252</ele>
      </trkpt>
      <trkpt lat="43.2114" lon="-0.5787">
        <ele>256</ele>
      </trkpt>
      <trkpt lat="43.21143" lon="-0.57807">
        <ele>256</ele>
      </trkpt>
      <trkpt lat="43.21133" lon="-0.57769">
        <ele>262</ele>
      </trkpt>
      <trkpt lat="43.21112" lon="-0.57738">
        <ele>253</ele>
      </trkpt>
      <trkpt lat="43.21098" lon="-0.57699">
        <ele>254</ele>
      </trkpt>
      <trkpt lat="43.21089" lon="-0.57659">
        <ele>254</ele>
      </trkpt>
      <trkpt lat="43.21083" lon="-0.57648">
        <ele>254</ele>
      </trkpt>
      <trkpt lat="43.21066" lon="-0.5763">
        <ele>254</ele>
      </trkpt>
      <trkpt lat="43.21053" lon="-0.57604">
        <ele>263</ele>
      </trkpt>
      <trkpt lat="43.21047" lon="-0.57574">
        <ele>263</ele>
      </trkpt>
      <trkpt lat="43.21047" lon="-0.57565">
        <ele>263</ele>
      </trkpt>
      <trkpt lat="43.21051" lon="-0.57549">
        <ele>263</ele>
      </trkpt>
      <trkpt lat="43.21072" lon="-0.57513">
        <ele>268</ele>
      </trkpt>
      <trkpt lat="43.2109" lon="-0.57497">
        <ele>268</ele>
      </trkpt>
      <trkpt lat="43.21142" lon="-0.57468">
        <ele>276</ele>
      </trkpt>
      <trkpt lat="43.21163" lon="-0.57449">
        <ele>279</ele>
      </trkpt>
      <trkpt lat="43.21191" lon="-0.57443">
        <ele>279</ele>
      </trkpt>
      <trkpt lat="43.21206" lon="-0.57434">
        <ele>279</ele>
      </trkpt>
      <trkpt lat="43.21223" lon="-0.57417">
        <ele>286</ele>
      </trkpt>
      <trkpt lat="43.2125" lon="-0.57402">
        <ele>286</ele>
      </trkpt>
      <trkpt lat="43.21301" lon="-0.5739">
        <ele>295</ele>
      </trkpt>
      <trkpt lat="43.21308" lon="-0.57386">
        <ele>295</ele>
      </trkpt>
      <trkpt lat="43.21347" lon="-0.57384">
        <ele>295</ele>
      </trkpt>
      <trkpt lat="43.21359" lon="-0.57392">
        <ele>295</ele>
      </trkpt>
      <trkpt lat="43.21382" lon="-0.57388">
        <ele>303</ele>
      </trkpt>
      <trkpt lat="43.21416" lon="-0.57401">
        <ele>303</ele>
      </trkpt>
      <trkpt lat="43.21432" lon="-0.57404">
        <ele>303</ele>
      </trkpt>
      <trkpt lat="43.21461" lon="-0.57416">
        <ele>317</ele>
      </trkpt>
      <trkpt lat="43.21478" lon="-0.57404">
        <ele>317</ele>
      </trkpt>
      <trkpt lat="43.21486" lon="-0.57393">
        <ele>317</ele>
      </trkpt>
      <trkpt lat="43.21491" lon="-0.57371">
        <ele>322</ele>
      </trkpt>
      <trkpt lat="43.2149" lon="-0.57345">
        <ele>322</ele>
      </trkpt>
      <trkpt lat="43.21494" lon="-0.57338">
        <ele>322</ele>
      </trkpt>
      <trkpt lat="43.215" lon="-0.57314">
        <ele>322</ele>
      </trkpt>
      <trkpt lat="43.21498" lon="-0.573">
        <ele>322</ele>
      </trkpt>
      <trkpt lat="43.21499" lon="-0.57288">
        <ele>328</ele>
      </trkpt>
      <trkpt lat="43.21508" lon="-0.57272">
        <ele>328</ele>
      </trkpt>
      <trkpt lat="43.21515" lon="-0.57268">
        <ele>328</ele>
      </trkpt>
      <trkpt lat="43.21518" lon="-0.57261">
        <ele>328</ele>
      </trkpt>
      <trkpt lat="43.21518" lon="-0.57233">
        <ele>328</ele>
      </trkpt>
      <trkpt lat="43.21531" lon="-0.57192">
        <ele>331</ele>
      </trkpt>
      <trkpt lat="43.21533" lon="-0.57134">
        <ele>331</ele>
      </trkpt>
      <trkpt lat="43.21538" lon="-0.57105">
        <ele>339</ele>
      </trkpt>
      <trkpt lat="43.21546" lon="-0.57083">
        <ele>348</ele>
      </trkpt>
      <trkpt lat="43.21562" lon="-0.57059">
        <ele>348</ele>
      </trkpt>
      <trkpt lat="43.21564" lon="-0.57045">
        <ele>348</ele>
      </trkpt>
      <trkpt lat="43.21539" lon="-0.57033">
        <ele>344</ele>
      </trkpt>
      <trkpt lat="43.21481" lon="-0.56998">
        <ele>344</ele>
      </trkpt>
      <trkpt lat="43.21477" lon="-0.56978">
        <ele>344</ele>
      </trkpt>
      <trkpt lat="43.21478" lon="-0.56975">
        <ele>344</ele>
      </trkpt>
      <trkpt lat="43.21483" lon="-0.56979">
        <ele>344</ele>
      </trkpt>
      <trkpt lat="43.21492" lon="-0.56957">
        <ele>339</ele>
      </trkpt>
      <trkpt lat="43.21494" lon="-0.56941">
        <ele>339</ele>
      </trkpt>
      <trkpt lat="43.2149" lon="-0.56928">
        <ele>339</ele>
      </trkpt>
      <trkpt lat="43.21488" lon="-0.56909">
        <ele>339</ele>
      </trkpt>
      <trkpt lat="43.21475" lon="-0.56903">
        <ele>339</ele>
      </trkpt>
      <trkpt lat="43.21454" lon="-0.56872">
        <ele>338</ele>
      </trkpt>
      <trkpt lat="43.21433" lon="-0.5683">
        <ele>338</ele>
      </trkpt>
      <trkpt lat="43.21425" lon="-0.56799">
        <ele>338</ele>
      </trkpt>
      <trkpt lat="43.21418" lon="-0.56785">
        <ele>325</ele>
      </trkpt>
      <trkpt lat="43.21386" lon="-0.56766">
        <ele>325</ele>
      </trkpt>
      <trkpt lat="43.21378" lon="-0.56755">
        <ele>325</ele>
      </trkpt>
      <trkpt lat="43.21366" lon="-0.56727">
        <ele>332</ele>
      </trkpt>
      <trkpt lat="43.21363" lon="-0.56668">
        <ele>324</ele>
      </trkpt>
      <trkpt lat="43.21367" lon="-0.56653">
        <ele>324</ele>
      </trkpt>
      <trkpt lat="43.21377" lon="-0.5663">
        <ele>308</ele>
      </trkpt>
      <trkpt lat="43.21382" lon="-0.56605">
        <ele>298</ele>
      </trkpt>
      <trkpt lat="43.21406" lon="-0.56555">
        <ele>298</ele>
      </trkpt>
      <trkpt lat="43.21422" lon="-0.56529">
        <ele>290</ele>
      </trkpt>
      <trkpt lat="43.2143" lon="-0.56499">
        <ele>290</ele>
      </trkpt>
      <trkpt lat="43.21437" lon="-0.56484">
        <ele>290</ele>
      </trkpt>
      <trkpt lat="43.21439" lon="-0.56461">
        <ele>290</ele>
      </trkpt>
      <trkpt lat="43.21438" lon="-0.56453">
        <ele>284</ele>
      </trkpt>
      <trkpt lat="43.21448" lon="-0.56415">
        <ele>284</ele>
      </trkpt>
      <trkpt lat="43.21445" lon="-0.56411">
        <ele>284</ele>
      </trkpt>
      <trkpt lat="43.21453" lon="-0.56347">
        <ele>283</ele>
      </trkpt>
      <trkpt lat="43.21451" lon="-0.56344">
        <ele>283</ele>
      </trkpt>
      <trkpt lat="43.21441" lon="-0.56346">
        <ele>283</ele>
      </trkpt>
      <trkpt lat="43.21435" lon="-0.56343">
        <ele>283</ele>
      </trkpt>
      <trkpt lat="43.21428" lon="-0.56333">
        <ele>283</ele>
      </trkpt>
      <trkpt lat="43.21421" lon="-0.56313">
        <ele>283</ele>
      </trkpt>
      <trkpt lat="43.21418" lon="-0.56313">
        <ele>283</ele>
      </trkpt>
      <trkpt lat="43.2141" lon="-0.56298">
        <ele>283</ele>
      </trkpt>
      <trkpt lat="43.2141" lon="-0.56293">
        <ele>283</ele>
      </trkpt>
      <trkpt lat="43.21403" lon="-0.56278">
        <ele>284</ele>
      </trkpt>
      <trkpt lat="43.21393" lon="-0.56264">
        <ele>284</ele>
      </trkpt>
      <trkpt lat="43.21386" lon="-0.5626">
        <ele>284</ele>
      </trkpt>
      <trkpt lat="43.21363" lon="-0.56224">
        <ele>303</ele>
      </trkpt>
      <trkpt lat="43.21362" lon="-0.56214">
        <ele>303</ele>
      </trkpt>
      <trkpt lat="43.21354" lon="-0.56189">
        <ele>298</ele>
      </trkpt>
      <trkpt lat="43.21335" lon="-0.56166">
        <ele>298</ele>
      </trkpt>
      <trkpt lat="43.21323" lon="-0.56143">
        <ele>298</ele>
      </trkpt>
      <trkpt lat="43.21289" lon="-0.56121">
        <ele>303</ele>
      </trkpt>
      <trkpt lat="43.21286" lon="-0.56115">
        <ele>303</ele>
      </trkpt>
      <trkpt lat="43.21266" lon="-0.56096">
        <ele>303</ele>
      </trkpt>
      <trkpt lat="43.2126" lon="-0.56094">
        <ele>303</ele>
      </trkpt>
      <trkpt lat="43.21242" lon="-0.56079">
        <ele>303</ele>
      </trkpt>
      <trkpt lat="43.21199" lon="-0.56067">
        <ele>314</ele>
      </trkpt>
      <trkpt lat="43.21164" lon="-0.56039">
        <ele>311</ele>
      </trkpt>
      <trkpt lat="43.21142" lon="-0.56025">
        <ele>311</ele>
      </trkpt>
      <trkpt lat="43.21135" lon="-0.56023">
        <ele>311</ele>
      </trkpt>
      <trkpt lat="43.21106" lon="-0.56005">
        <ele>313</ele>
      </trkpt>
      <trkpt lat="43.21104" lon="-0.56006">
        <ele>313</ele>
      </trkpt>
      <trkpt lat="43.21113" lon="-0.56053">
        <ele>317</ele>
      </trkpt>
      <trkpt lat="43.21113" lon="-0.5608">
        <ele>317</ele>
      </trkpt>
      <trkpt lat="43.21115" lon="-0.56087">
        <ele>317</ele>
      </trkpt>
      <trkpt lat="43.21115" lon="-0.56121">
        <ele>317</ele>
      </trkpt>
      <trkpt lat="43.21119" lon="-0.56148">
        <ele>321</ele>
      </trkpt>
      <trkpt lat="43.21135" lon="-0.56192">
        <ele>318</ele>
      </trkpt>
      <trkpt lat="43.21149" lon="-0.5622">
        <ele>321</ele>
      </trkpt>
      <trkpt lat="43.21159" lon="-0.56256">
        <ele>321</ele>
      </trkpt>
      <trkpt lat="43.2117" lon="-0.56349">
        <ele>319</ele>
      </trkpt>
      <trkpt lat="43.21173" lon="-0.56405">
        <ele>319</ele>
      </trkpt>
      <trkpt lat="43.2118" lon="-0.56461">
        <ele>324</ele>
      </trkpt>
      <trkpt lat="43.21187" lon="-0.56486">
        <ele>324</ele>
      </trkpt>
      <trkpt lat="43.21188" lon="-0.56499">
        <ele>324</ele>
      </trkpt>
      <trkpt lat="43.21213" lon="-0.56587">
        <ele>327</ele>
      </trkpt>
      <trkpt lat="43.21209" lon="-0.56591">
        <ele>327</ele>
      </trkpt>
      <trkpt lat="43.21178" lon="-0.566">
        <ele>326</ele>
      </trkpt>
      <trkpt lat="43.21158" lon="-0.56628">
        <ele>322</ele>
      </trkpt>
      <trkpt lat="43.21152" lon="-0.56625">
        <ele>322</ele>
      </trkpt>
      <trkpt lat="43.21135" lon="-0.56593">
        <ele>326</ele>
      </trkpt>
      <trkpt lat="43.2113" lon="-0.56588">
        <ele>326</ele>
      </trkpt>
      <trkpt lat="43.21106" lon="-0.56584">
        <ele>319</ele>
      </trkpt>
      <trkpt lat="43.21098" lon="-0.56577">
        <ele>319</ele>
      </trkpt>
      <trkpt lat="43.21093" lon="-0.56562">
        <ele>319</ele>
      </trkpt>
      <trkpt lat="43.21096" lon="-0.56558">
        <ele>319</ele>
      </trkpt>
      <trkpt lat="43.21109" lon="-0.56521">
        <ele>313</ele>
      </trkpt>
      <trkpt lat="43.21111" lon="-0.56498">
        <ele>313</ele>
      </trkpt>
      <trkpt lat="43.21093" lon="-0.56464">
        <ele>313</ele>
      </trkpt>
      <trkpt lat="43.21089" lon="-0.5646">
        <ele>313</ele>
      </trkpt>
      <trkpt lat="43.21063" lon="-0.56467">
        <ele>313</ele>
      </trkpt>
      <trkpt lat="43.21055" lon="-0.56466">
        <ele>313</ele>
      </trkpt>
      <trkpt lat="43.21047" lon="-0.56471">
        <ele>313</ele>
      </trkpt>
      <trkpt lat="43.2104" lon="-0.56465">
        <ele>308</ele>
      </trkpt>
      <trkpt lat="43.21035" lon="-0.56451">
        <ele>309</ele>
      </trkpt>
      <trkpt lat="43.2103" lon="-0.56445">
        <ele>309</ele>
      </trkpt>
      <trkpt lat="43.21028" lon="-0.56428">
        <ele>309</ele>
      </trkpt>
      <trkpt lat="43.21022" lon="-0.5642">
        <ele>309</ele>
      </trkpt>
      <trkpt lat="43.21009" lon="-0.56386">
        <ele>309</ele>
      </trkpt>
      <trkpt lat="43.2101" lon="-0.56377">
        <ele>309</ele>
      </trkpt>
      <trkpt lat="43.21016" lon="-0.56366">
        <ele>312</ele>
      </trkpt>
      <trkpt lat="43.21016" lon="-0.56339">
        <ele>312</ele>
      </trkpt>
      <trkpt lat="43.21014" lon="-0.56329">
        <ele>312</ele>
      </trkpt>
      <trkpt lat="43.21" lon="-0.5631">
        <ele>312</ele>
      </trkpt>
      <trkpt lat="43.20991" lon="-0.56302">
        <ele>312</ele>
      </trkpt>
      <trkpt lat="43.20975" lon="-0.5631">
        <ele>312</ele>
      </trkpt>
      <trkpt lat="43.20949" lon="-0.563">
        <ele>303</ele>
      </trkpt>
      <trkpt lat="43.20941" lon="-0.56289">
        <ele>304</ele>
      </trkpt>
      <trkpt lat="43.20922" lon="-0.56232">
        <ele>304</ele>
      </trkpt>
      <trkpt lat="43.20929" lon="-0.56229">
        <ele>304</ele>
      </trkpt>
      <trkpt lat="43.20945" lon="-0.56214">
        <ele>304</ele>
      </trkpt>
      <trkpt lat="43.20951" lon="-0.56198">
        <ele>299</ele>
      </trkpt>
      <trkpt lat="43.20969" lon="-0.56185">
        <ele>313</ele>
      </trkpt>
      <trkpt lat="43.20984" lon="-0.56178">
        <ele>313</ele>
      </trkpt>
      <trkpt lat="43.20997" lon="-0.56182">
        <ele>313</ele>
      </trkpt>
      <trkpt lat="43.21002" lon="-0.56181">
        <ele>313</ele>
      </trkpt>
      <trkpt lat="43.21009" lon="-0.56175">
        <ele>313</ele>
      </trkpt>
      <trkpt lat="43.21016" lon="-0.56164">
        <ele>313</ele>
      </trkpt>
      <trkpt lat="43.21021" lon="-0.56149">
        <ele>313</ele>
      </trkpt>
      <trkpt lat="43.2103" lon="-0.56132">
        <ele>313</ele>
      </trkpt>
      <trkpt lat="43.2104" lon="-0.56121">
        <ele>305</ele>
      </trkpt>
      <trkpt lat="43.21048" lon="-0.56103">
        <ele>317</ele>
      </trkpt>
      <trkpt lat="43.21056" lon="-0.56099">
        <ele>317</ele>
      </trkpt>
      <trkpt lat="43.2106" lon="-0.56076">
        <ele>317</ele>
      </trkpt>
      <trkpt lat="43.2106" lon="-0.56056">
        <ele>317</ele>
      </trkpt>
      <trkpt lat="43.21095" lon="-0.55986">
        <ele>313</ele>
      </trkpt>
      <trkpt lat="43.21095" lon="-0.55964">
        <ele>313</ele>
      </trkpt>
      <trkpt lat="43.21093" lon="-0.55952">
        <ele>310</ele>
      </trkpt>
      <trkpt lat="43.21076" lon="-0.55906">
        <ele>310</ele>
      </trkpt>
      <trkpt lat="43.21066" lon="-0.55851">
        <ele>308</ele>
      </trkpt>
      <trkpt lat="43.21067" lon="-0.55849">
        <ele>308</ele>
      </trkpt>
      <trkpt lat="43.21062" lon="-0.55835">
        <ele>308</ele>
      </trkpt>
      <trkpt lat="43.21064" lon="-0.5581">
        <ele>308</ele>
      </trkpt>
      <trkpt lat="43.21089" lon="-0.55768">
        <ele>308</ele>
      </trkpt>
      <trkpt lat="43.21094" lon="-0.55756">
        <ele>308</ele>
      </trkpt>
      <trkpt lat="43.21112" lon="-0.55734">
        <ele>308</ele>
      </trkpt>
      <trkpt lat="43.21116" lon="-0.55707">
        <ele>308</ele>
      </trkpt>
      <trkpt lat="43.21111" lon="-0.55688">
        <ele>308</ele>
      </trkpt>
      <trkpt lat="43.21056" lon="-0.55594">
        <ele>312</ele>
      </trkpt>
      <trkpt lat="43.21044" lon="-0.55578">
        <ele>312</ele>
      </trkpt>
      <trkpt lat="43.21014" lon="-0.55523">
        <ele>322</ele>
      </trkpt>
      <trkpt lat="43.20969" lon="-0.55455">
        <ele>324</ele>
      </trkpt>
      <trkpt lat="43.20957" lon="-0.55433">
        <ele>335</ele>
      </trkpt>
      <trkpt lat="43.20946" lon="-0.55419">
        <ele>335</ele>
      </trkpt>
      <trkpt lat="43.20913" lon="-0.5536">
        <ele>331</ele>
      </trkpt>
      <trkpt lat="43.20872" lon="-0.55332">
        <ele>343</ele>
      </trkpt>
      <trkpt lat="43.20826" lon="-0.55307">
        <ele>343</ele>
      </trkpt>
      <trkpt lat="43.20801" lon="-0.55301">
        <ele>343</ele>
      </trkpt>
      <trkpt lat="43.20759" lon="-0.55281">
        <ele>346</ele>
      </trkpt>
      <trkpt lat="43.20731" lon="-0.55277">
        <ele>346</ele>
      </trkpt>
      <trkpt lat="43.20708" lon="-0.55269">
        <ele>344</ele>
      </trkpt>
      <trkpt lat="43.20688" lon="-0.55243">
        <ele>344</ele>
      </trkpt>
      <trkpt lat="43.20678" lon="-0.55215">
        <ele>344</ele>
      </trkpt>
      <trkpt lat="43.20673" lon="-0.55192">
        <ele>347</ele>
      </trkpt>
      <trkpt lat="43.20663" lon="-0.55114">
        <ele>349</ele>
      </trkpt>
      <trkpt lat="43.20645" lon="-0.55018">
        <ele>352</ele>
      </trkpt>
      <trkpt lat="43.20626" lon="-0.5487">
        <ele>359</ele>
      </trkpt>
      <trkpt lat="43.20614" lon="-0.54821">
        <ele>359</ele>
      </trkpt>
      <trkpt lat="43.20585" lon="-0.5477">
        <ele>363</ele>
      </trkpt>
      <trkpt lat="43.20527" lon="-0.54655">
        <ele>365</ele>
      </trkpt>
      <trkpt lat="43.20508" lon="-0.54642">
        <ele>365</ele>
      </trkpt>
      <trkpt lat="43.20363" lon="-0.54583">
        <ele>371</ele>
      </trkpt>
      <trkpt lat="43.20329" lon="-0.54556">
        <ele>371</ele>
      </trkpt>
      <trkpt lat="43.2023" lon="-0.54488">
        <ele>371</ele>
      </trkpt>
      <trkpt lat="43.20096" lon="-0.54373">
        <ele>377</ele>
      </trkpt>
      <trkpt lat="43.20022" lon="-0.54301">
        <ele>379</ele>
      </trkpt>
      <trkpt lat="43.20012" lon="-0.54288">
        <ele>382</ele>
      </trkpt>
      <trkpt lat="43.19965" lon="-0.54242">
        <ele>382</ele>
      </trkpt>
      <trkpt lat="43.19958" lon="-0.54239">
        <ele>387</ele>
      </trkpt>
      <trkpt lat="43.19946" lon="-0.54245">
        <ele>387</ele>
      </trkpt>
      <trkpt lat="43.19894" lon="-0.54301">
        <ele>386</ele>
      </trkpt>
      <trkpt lat="43.19863" lon="-0.54323">
        <ele>387</ele>
      </trkpt>
      <trkpt lat="43.19844" lon="-0.54333">
        <ele>387</ele>
      </trkpt>
      <trkpt lat="43.19809" lon="-0.5436">
        <ele>387</ele>
      </trkpt>
      <trkpt lat="43.19778" lon="-0.544">
        <ele>381</ele>
      </trkpt>
      <trkpt lat="43.19774" lon="-0.54411">
        <ele>381</ele>
      </trkpt>
      <trkpt lat="43.19772" lon="-0.54451">
        <ele>381</ele>
      </trkpt>
      <trkpt lat="43.19782" lon="-0.54491">
        <ele>376</ele>
      </trkpt>
      <trkpt lat="43.19784" lon="-0.54527">
        <ele>376</ele>
      </trkpt>
      <trkpt lat="43.1978" lon="-0.54576">
        <ele>373</ele>
      </trkpt>
      <trkpt lat="43.19766" lon="-0.54654">
        <ele>374</ele>
      </trkpt>
      <trkpt lat="43.19765" lon="-0.54693">
        <ele>374</ele>
      </trkpt>
      <trkpt lat="43.19754" lon="-0.54753">
        <ele>370</ele>
      </trkpt>
      <trkpt lat="43.19751" lon="-0.54873">
        <ele>372</ele>
      </trkpt>
      <trkpt lat="43.1974" lon="-0.54896">
        <ele>370</ele>
      </trkpt>
      <trkpt lat="43.19733" lon="-0.5492">
        <ele>370</ele>
      </trkpt>
      <trkpt lat="43.19732" lon="-0.55004">
        <ele>370</ele>
      </trkpt>
      <trkpt lat="43.19736" lon="-0.55035">
        <ele>370</ele>
      </trkpt>
      <trkpt lat="43.19731" lon="-0.55104">
        <ele>365</ele>
      </trkpt>
      <trkpt lat="43.19732" lon="-0.55189">
        <ele>360</ele>
      </trkpt>
      <trkpt lat="43.19735" lon="-0.55203">
        <ele>360</ele>
      </trkpt>
      <trkpt lat="43.19756" lon="-0.55255">
        <ele>354</ele>
      </trkpt>
      <trkpt lat="43.19759" lon="-0.5528">
        <ele>354</ele>
      </trkpt>
      <trkpt lat="43.19771" lon="-0.55299">
        <ele>347</ele>
      </trkpt>
      <trkpt lat="43.19786" lon="-0.55336">
        <ele>347</ele>
      </trkpt>
      <trkpt lat="43.19812" lon="-0.55365">
        <ele>351</ele>
      </trkpt>
      <trkpt lat="43.19819" lon="-0.5538">
        <ele>351</ele>
      </trkpt>
      <trkpt lat="43.19842" lon="-0.55411">
        <ele>351</ele>
      </trkpt>
      <trkpt lat="43.19853" lon="-0.55431">
        <ele>351</ele>
      </trkpt>
      <trkpt lat="43.19867" lon="-0.5545">
        <ele>351</ele>
      </trkpt>
      <trkpt lat="43.1987" lon="-0.55477">
        <ele>344</ele>
      </trkpt>
      <trkpt lat="43.1988" lon="-0.55513">
        <ele>350</ele>
      </trkpt>
      <trkpt lat="43.19879" lon="-0.55521">
        <ele>350</ele>
      </trkpt>
      <trkpt lat="43.19855" lon="-0.55537">
        <ele>344</ele>
      </trkpt>
      <trkpt lat="43.19831" lon="-0.55545">
        <ele>336</ele>
      </trkpt>
      <trkpt lat="43.19806" lon="-0.55572">
        <ele>336</ele>
      </trkpt>
      <trkpt lat="43.19788" lon="-0.55596">
        <ele>329</ele>
      </trkpt>
      <trkpt lat="43.19761" lon="-0.55665">
        <ele>319</ele>
      </trkpt>
      <trkpt lat="43.19753" lon="-0.5568">
        <ele>319</ele>
      </trkpt>
      <trkpt lat="43.19742" lon="-0.55738">
        <ele>314</ele>
      </trkpt>
      <trkpt lat="43.19731" lon="-0.55758">
        <ele>314</ele>
      </trkpt>
      <trkpt lat="43.19663" lon="-0.55857">
        <ele>299</ele>
      </trkpt>
      <trkpt lat="43.19602" lon="-0.5594">
        <ele>292</ele>
      </trkpt>
      <trkpt lat="43.19594" lon="-0.55979">
        <ele>291</ele>
      </trkpt>
      <trkpt lat="43.19581" lon="-0.55987">
        <ele>291</ele>
      </trkpt>
      <trkpt lat="43.1956" lon="-0.55995">
        <ele>291</ele>
      </trkpt>
      <trkpt lat="43.19536" lon="-0.56">
        <ele>279</ele>
      </trkpt>
      <trkpt lat="43.19508" lon="-0.56021">
        <ele>279</ele>
      </trkpt>
      <trkpt lat="43.19494" lon="-0.56037">
        <ele>279</ele>
      </trkpt>
      <trkpt lat="43.19485" lon="-0.56053">
        <ele>274</ele>
      </trkpt>
      <trkpt lat="43.19466" lon="-0.56042">
        <ele>274</ele>
      </trkpt>
      <trkpt lat="43.19459" lon="-0.56032">
        <ele>279</ele>
      </trkpt>
      <trkpt lat="43.19436" lon="-0.56011">
        <ele>271</ele>
      </trkpt>
      <trkpt lat="43.1943" lon="-0.55999">
        <ele>271</ele>
      </trkpt>
      <trkpt lat="43.19428" lon="-0.55979">
        <ele>271</ele>
      </trkpt>
      <trkpt lat="43.19408" lon="-0.55931">
        <ele>279</ele>
      </trkpt>
      <trkpt lat="43.19382" lon="-0.55885">
        <ele>279</ele>
      </trkpt>
      <trkpt lat="43.19371" lon="-0.55849">
        <ele>267</ele>
      </trkpt>
      <trkpt lat="43.1936" lon="-0.55826">
        <ele>267</ele>
      </trkpt>
      <trkpt lat="43.1934" lon="-0.55751">
        <ele>275</ele>
      </trkpt>
      <trkpt lat="43.19336" lon="-0.55743">
        <ele>275</ele>
      </trkpt>
      <trkpt lat="43.19318" lon="-0.55744">
        <ele>275</ele>
      </trkpt>
      <trkpt lat="43.19316" lon="-0.55741">
        <ele>275</ele>
      </trkpt>
      <trkpt lat="43.19287" lon="-0.55742">
        <ele>261</ele>
      </trkpt>
      <trkpt lat="43.19255" lon="-0.55754">
        <ele>261</ele>
      </trkpt>
      <trkpt lat="43.19244" lon="-0.55746">
        <ele>261</ele>
      </trkpt>
      <trkpt lat="43.19198" lon="-0.55742">
        <ele>259</ele>
      </trkpt>
      <trkpt lat="43.19127" lon="-0.55602">
        <ele>261</ele>
      </trkpt>
      <trkpt lat="43.19112" lon="-0.55565">
        <ele>262</ele>
      </trkpt>
      <trkpt lat="43.19076" lon="-0.55494">
        <ele>263</ele>
      </trkpt>
      <trkpt lat="43.19053" lon="-0.55443">
        <ele>264</ele>
      </trkpt>
      <trkpt lat="43.18988" lon="-0.55311">
        <ele>265</ele>
      </trkpt>
      <trkpt lat="43.18977" lon="-0.55319">
        <ele>265</ele>
      </trkpt>
      <trkpt lat="43.18959" lon="-0.55347">
        <ele>265</ele>
      </trkpt>
      <trkpt lat="43.1895" lon="-0.55356">
        <ele>265</ele>
      </trkpt>
      <trkpt lat="43.18932" lon="-0.55311">
        <ele>265</ele>
      </trkpt>
      <trkpt lat="43.18884" lon="-0.55217">
        <ele>266</ele>
      </trkpt>
      <trkpt lat="43.18872" lon="-0.55225">
        <ele>266</ele>
      </trkpt>
      <trkpt lat="43.18841" lon="-0.5526">
        <ele>266</ele>
      </trkpt>
      <trkpt lat="43.188" lon="-0.55296">
        <ele>267</ele>
      </trkpt>
      <trkpt lat="43.18797" lon="-0.55294">
        <ele>267</ele>
      </trkpt>
      <trkpt lat="43.18792" lon="-0.55275">
        <ele>266</ele>
      </trkpt>
      <trkpt lat="43.18761" lon="-0.55229">
        <ele>267</ele>
      </trkpt>
      <trkpt lat="43.18742" lon="-0.55213">
        <ele>267</ele>
      </trkpt>
      <trkpt lat="43.18679" lon="-0.55256">
        <ele>268</ele>
      </trkpt>
      <trkpt lat="43.18664" lon="-0.5527">
        <ele>268</ele>
      </trkpt>
      <trkpt lat="43.18638" lon="-0.55303">
        <ele>266</ele>
      </trkpt>
      <trkpt lat="43.18549" lon="-0.55395">
        <ele>266</ele>
      </trkpt>
      <trkpt lat="43.18537" lon="-0.55418">
        <ele>270</ele>
      </trkpt>
      <trkpt lat="43.18487" lon="-0.55469">
        <ele>268</ele>
      </trkpt>
      <trkpt lat="43.18445" lon="-0.55495">
        <ele>268</ele>
      </trkpt>
      <trkpt lat="43.18369" lon="-0.55568">
        <ele>270</ele>
      </trkpt>
      <trkpt lat="43.18321" lon="-0.55608">
        <ele>270</ele>
      </trkpt>
      <trkpt lat="43.18292" lon="-0.55626">
        <ele>269</ele>
      </trkpt>
      <trkpt lat="43.1818" lon="-0.55651">
        <ele>269</ele>
      </trkpt>
      <trkpt lat="43.18166" lon="-0.55657">
        <ele>269</ele>
      </trkpt>
      <trkpt lat="43.18125" lon="-0.55684">
        <ele>269</ele>
      </trkpt>
      <trkpt lat="43.18038" lon="-0.5578">
        <ele>270</ele>
      </trkpt>
      <trkpt lat="43.17995" lon="-0.55835">
        <ele>270</ele>
      </trkpt>
      <trkpt lat="43.17951" lon="-0.55883">
        <ele>270</ele>
      </trkpt>
      <trkpt lat="43.17916" lon="-0.55917">
        <ele>270</ele>
      </trkpt>
      <trkpt lat="43.17888" lon="-0.55922">
        <ele>270</ele>
      </trkpt>
      <trkpt lat="43.17864" lon="-0.55908">
        <ele>275</ele>
      </trkpt>
      <trkpt lat="43.17836" lon="-0.55907">
        <ele>275</ele>
      </trkpt>
      <trkpt lat="43.17828" lon="-0.55928">
        <ele>275</ele>
      </trkpt>
      <trkpt lat="43.17818" lon="-0.55943">
        <ele>275</ele>
      </trkpt>
      <trkpt lat="43.17803" lon="-0.55943">
        <ele>275</ele>
      </trkpt>
      <trkpt lat="43.17798" lon="-0.5594">
        <ele>275</ele>
      </trkpt>
      <trkpt lat="43.17789" lon="-0.55928">
        <ele>291</ele>
      </trkpt>
      <trkpt lat="43.17762" lon="-0.55906">
        <ele>291</ele>
      </trkpt>
      <trkpt lat="43.17728" lon="-0.55891">
        <ele>291</ele>
      </trkpt>
      <trkpt lat="43.17695" lon="-0.55889">
        <ele>297</ele>
      </trkpt>
      <trkpt lat="43.1766" lon="-0.5584">
        <ele>295</ele>
      </trkpt>
      <trkpt lat="43.17625" lon="-0.55804">
        <ele>295</ele>
      </trkpt>
      <trkpt lat="43.17592" lon="-0.55776">
        <ele>304</ele>
      </trkpt>
      <trkpt lat="43.17569" lon="-0.55753">
        <ele>304</ele>
      </trkpt>
      <trkpt lat="43.17547" lon="-0.55721">
        <ele>304</ele>
      </trkpt>
      <trkpt lat="43.17536" lon="-0.55697">
        <ele>304</ele>
      </trkpt>
      <trkpt lat="43.17525" lon="-0.5568">
        <ele>304</ele>
      </trkpt>
      <trkpt lat="43.17512" lon="-0.55641">
        <ele>304</ele>
      </trkpt>
      <trkpt lat="43.17483" lon="-0.55567">
        <ele>304</ele>
      </trkpt>
      <trkpt lat="43.1748" lon="-0.55551">
        <ele>304</ele>
      </trkpt>
      <trkpt lat="43.17468" lon="-0.55513">
        <ele>302</ele>
      </trkpt>
      <trkpt lat="43.17456" lon="-0.55446">
        <ele>304</ele>
      </trkpt>
      <trkpt lat="43.17441" lon="-0.55408">
        <ele>304</ele>
      </trkpt>
      <trkpt lat="43.17406" lon="-0.55272">
        <ele>302</ele>
      </trkpt>
      <trkpt lat="43.1737" lon="-0.55208">
        <ele>308</ele>
      </trkpt>
      <trkpt lat="43.17347" lon="-0.55178">
        <ele>308</ele>
      </trkpt>
      <trkpt lat="43.17297" lon="-0.55103">
        <ele>305</ele>
      </trkpt>
      <trkpt lat="43.17269" lon="-0.55077">
        <ele>307</ele>
      </trkpt>
      <trkpt lat="43.17263" lon="-0.55063">
        <ele>307</ele>
      </trkpt>
      <trkpt lat="43.17259" lon="-0.55046">
        <ele>307</ele>
      </trkpt>
      <trkpt lat="43.17245" lon="-0.55009">
        <ele>307</ele>
      </trkpt>
      <trkpt lat="43.17231" lon="-0.54984">
        <ele>307</ele>
      </trkpt>
      <trkpt lat="43.17205" lon="-0.54983">
        <ele>306</ele>
      </trkpt>
      <trkpt lat="43.17151" lon="-0.54993">
        <ele>306</ele>
      </trkpt>
      <trkpt lat="43.17126" lon="-0.54994">
        <ele>306</ele>
      </trkpt>
      <trkpt lat="43.17055" lon="-0.55011">
        <ele>307</ele>
      </trkpt>
      <trkpt lat="43.16992" lon="-0.55022">
        <ele>308</ele>
      </trkpt>
      <trkpt lat="43.16892" lon="-0.55187">
        <ele>303</ele>
      </trkpt>
      <trkpt lat="43.16884" lon="-0.55235">
        <ele>303</ele>
      </trkpt>
      <trkpt lat="43.1685" lon="-0.55404">
        <ele>305</ele>
      </trkpt>
      <trkpt lat="43.16818" lon="-0.55512">
        <ele>302</ele>
      </trkpt>
      <trkpt lat="43.16766" lon="-0.55669">
        <ele>296</ele>
      </trkpt>
      <trkpt lat="43.1675" lon="-0.55689">
        <ele>296</ele>
      </trkpt>
      <trkpt lat="43.16692" lon="-0.55739">
        <ele>295</ele>
      </trkpt>
      <trkpt lat="43.16683" lon="-0.55751">
        <ele>295</ele>
      </trkpt>
      <trkpt lat="43.16681" lon="-0.55749">
        <ele>295</ele>
      </trkpt>
      <trkpt lat="43.16681" lon="-0.55751">
        <ele>295</ele>
      </trkpt>
      <trkpt lat="43.16671" lon="-0.55747">
        <ele>295</ele>
      </trkpt>
      <trkpt lat="43.16664" lon="-0.55719">
        <ele>295</ele>
      </trkpt>
      <trkpt lat="43.16649" lon="-0.5563">
        <ele>296</ele>
      </trkpt>
      <trkpt lat="43.16641" lon="-0.556">
        <ele>301</ele>
      </trkpt>
      <trkpt lat="43.16639" lon="-0.55579">
        <ele>301</ele>
      </trkpt>
      <trkpt lat="43.16632" lon="-0.55548">
        <ele>301</ele>
      </trkpt>
      <trkpt lat="43.16623" lon="-0.55451">
        <ele>300</ele>
      </trkpt>
      <trkpt lat="43.16624" lon="-0.55402">
        <ele>300</ele>
      </trkpt>
      <trkpt lat="43.1662" lon="-0.55382">
        <ele>300</ele>
      </trkpt>
      <trkpt lat="43.16603" lon="-0.55386">
        <ele>300</ele>
      </trkpt>
      <trkpt lat="43.16515" lon="-0.55433">
        <ele>299</ele>
      </trkpt>
      <trkpt lat="43.1649" lon="-0.5544">
        <ele>299</ele>
      </trkpt>
      <trkpt lat="43.16476" lon="-0.55436">
        <ele>299</ele>
      </trkpt>
      <trkpt lat="43.16441" lon="-0.55412">
        <ele>297</ele>
      </trkpt>
      <trkpt lat="43.1642" lon="-0.55425">
        <ele>297</ele>
      </trkpt>
      <trkpt lat="43.16408" lon="-0.55467">
        <ele>298</ele>
      </trkpt>
      <trkpt lat="43.16404" lon="-0.55523">
        <ele>298</ele>
      </trkpt>
      <trkpt lat="43.16391" lon="-0.55538">
        <ele>298</ele>
      </trkpt>
      <trkpt lat="43.16371" lon="-0.55527">
        <ele>296</ele>
      </trkpt>
      <trkpt lat="43.16353" lon="-0.55513">
        <ele>296</ele>
      </trkpt>
      <trkpt lat="43.16339" lon="-0.55512">
        <ele>296</ele>
      </trkpt>
      <trkpt lat="43.16247" lon="-0.55597">
        <ele>291</ele>
      </trkpt>
      <trkpt lat="43.16193" lon="-0.55618">
        <ele>281</ele>
      </trkpt>
      <trkpt lat="43.16158" lon="-0.55628">
        <ele>277</ele>
      </trkpt>
      <trkpt lat="43.1605" lon="-0.55693">
        <ele>271</ele>
      </trkpt>
      <trkpt lat="43.16034" lon="-0.55715">
        <ele>266</ele>
      </trkpt>
      <trkpt lat="43.16016" lon="-0.55732">
        <ele>266</ele>
      </trkpt>
      <trkpt lat="43.16001" lon="-0.5574">
        <ele>266</ele>
      </trkpt>
      <trkpt lat="43.1599" lon="-0.55733">
        <ele>266</ele>
      </trkpt>
      <trkpt lat="43.15969" lon="-0.55706">
        <ele>266</ele>
      </trkpt>
      <trkpt lat="43.15965" lon="-0.55706">
        <ele>266</ele>
      </trkpt>
      <trkpt lat="43.15946" lon="-0.55731">
        <ele>274</ele>
      </trkpt>
      <trkpt lat="43.15927" lon="-0.55735">
        <ele>274</ele>
      </trkpt>
      <trkpt lat="43.15865" lon="-0.55761">
        <ele>272</ele>
      </trkpt>
      <trkpt lat="43.1585" lon="-0.55765">
        <ele>272</ele>
      </trkpt>
      <trkpt lat="43.15832" lon="-0.55774">
        <ele>272</ele>
      </trkpt>
      <trkpt lat="43.15809" lon="-0.55776">
        <ele>272</ele>
      </trkpt>
      <trkpt lat="43.15796" lon="-0.55785">
        <ele>272</ele>
      </trkpt>
      <trkpt lat="43.15764" lon="-0.55796">
        <ele>271</ele>
      </trkpt>
      <trkpt lat="43.15751" lon="-0.55805">
        <ele>271</ele>
      </trkpt>
      <trkpt lat="43.15747" lon="-0.55805">
        <ele>271</ele>
      </trkpt>
      <trkpt lat="43.15738" lon="-0.55798">
        <ele>271</ele>
      </trkpt>
      <trkpt lat="43.15732" lon="-0.55775">
        <ele>273</ele>
      </trkpt>
      <trkpt lat="43.15733" lon="-0.55751">
        <ele>273</ele>
      </trkpt>
      <trkpt lat="43.1573" lon="-0.55733">
        <ele>273</ele>
      </trkpt>
      <trkpt lat="43.15717" lon="-0.55685">
        <ele>272</ele>
      </trkpt>
      <trkpt lat="43.15702" lon="-0.55644">
        <ele>276</ele>
      </trkpt>
      <trkpt lat="43.1569" lon="-0.55623">
        <ele>272</ele>
      </trkpt>
      <trkpt lat="43.15659" lon="-0.55597">
        <ele>272</ele>
      </trkpt>
      <trkpt lat="43.15601" lon="-0.55568">
        <ele>279</ele>
      </trkpt>
      <trkpt lat="43.15584" lon="-0.55557">
        <ele>279</ele>
      </trkpt>
      <trkpt lat="43.15564" lon="-0.55538">
        <ele>278</ele>
      </trkpt>
      <trkpt lat="43.1556" lon="-0.55528">
        <ele>278</ele>
      </trkpt>
      <trkpt lat="43.15543" lon="-0.55505">
        <ele>278</ele>
      </trkpt>
      <trkpt lat="43.15535" lon="-0.55499">
        <ele>288</ele>
      </trkpt>
      <trkpt lat="43.15523" lon="-0.55482">
        <ele>288</ele>
      </trkpt>
      <trkpt lat="43.1551" lon="-0.55475">
        <ele>288</ele>
      </trkpt>
      <trkpt lat="43.15468" lon="-0.55472">
        <ele>288</ele>
      </trkpt>
      <trkpt lat="43.15458" lon="-0.55461">
        <ele>292</ele>
      </trkpt>
      <trkpt lat="43.15438" lon="-0.55458">
        <ele>297</ele>
      </trkpt>
      <trkpt lat="43.1542" lon="-0.55446">
        <ele>297</ele>
      </trkpt>
      <trkpt lat="43.15404" lon="-0.55457">
        <ele>297</ele>
      </trkpt>
      <trkpt lat="43.15399" lon="-0.55456">
        <ele>297</ele>
      </trkpt>
      <trkpt lat="43.15391" lon="-0.55447">
        <ele>297</ele>
      </trkpt>
      <trkpt lat="43.15358" lon="-0.55389">
        <ele>296</ele>
      </trkpt>
      <trkpt lat="43.15346" lon="-0.55383">
        <ele>296</ele>
      </trkpt>
      <trkpt lat="43.15317" lon="-0.55383">
        <ele>296</ele>
      </trkpt>
      <trkpt lat="43.15315" lon="-0.55379">
        <ele>296</ele>
      </trkpt>
      <trkpt lat="43.15319" lon="-0.55373">
        <ele>299</ele>
      </trkpt>
      <trkpt lat="43.15352" lon="-0.55287">
        <ele>303</ele>
      </trkpt>
      <trkpt lat="43.15362" lon="-0.55246">
        <ele>303</ele>
      </trkpt>
      <trkpt lat="43.15366" lon="-0.55217">
        <ele>303</ele>
      </trkpt>
      <trkpt lat="43.15381" lon="-0.55175">
        <ele>296</ele>
      </trkpt>
      <trkpt lat="43.1539" lon="-0.55125">
        <ele>292</ele>
      </trkpt>
      <trkpt lat="43.1539" lon="-0.55106">
        <ele>292</ele>
      </trkpt>
      <trkpt lat="43.15393" lon="-0.55086">
        <ele>292</ele>
      </trkpt>
      <trkpt lat="43.15399" lon="-0.55068">
        <ele>292</ele>
      </trkpt>
      <trkpt lat="43.154" lon="-0.55056">
        <ele>292</ele>
      </trkpt>
      <trkpt lat="43.15398" lon="-0.55052">
        <ele>292</ele>
      </trkpt>
      <trkpt lat="43.15378" lon="-0.55036">
        <ele>296</ele>
      </trkpt>
      <trkpt lat="43.15364" lon="-0.5503">
        <ele>302</ele>
      </trkpt>
      <trkpt lat="43.15359" lon="-0.55031">
        <ele>302</ele>
      </trkpt>
      <trkpt lat="43.15351" lon="-0.55027">
        <ele>302</ele>
      </trkpt>
      <trkpt lat="43.15329" lon="-0.54986">
        <ele>302</ele>
      </trkpt>
      <trkpt lat="43.15321" lon="-0.54962">
        <ele>302</ele>
      </trkpt>
      <trkpt lat="43.15318" lon="-0.54907">
        <ele>300</ele>
      </trkpt>
      <trkpt lat="43.15313" lon="-0.54902">
        <ele>300</ele>
      </trkpt>
      <trkpt lat="43.15302" lon="-0.54882">
        <ele>300</ele>
      </trkpt>
      <trkpt lat="43.15293" lon="-0.54881">
        <ele>300</ele>
      </trkpt>
      <trkpt lat="43.15288" lon="-0.54884">
        <ele>304</ele>
      </trkpt>
      <trkpt lat="43.15275" lon="-0.54878">
        <ele>304</ele>
      </trkpt>
      <trkpt lat="43.15271" lon="-0.54859">
        <ele>299</ele>
      </trkpt>
      <trkpt lat="43.15254" lon="-0.54846">
        <ele>299</ele>
      </trkpt>
      <trkpt lat="43.15242" lon="-0.54831">
        <ele>299</ele>
      </trkpt>
      <trkpt lat="43.15232" lon="-0.54824">
        <ele>299</ele>
      </trkpt>
      <trkpt lat="43.15198" lon="-0.54788">
        <ele>296</ele>
      </trkpt>
      <trkpt lat="43.15188" lon="-0.54773">
        <ele>296</ele>
      </trkpt>
      <trkpt lat="43.1516" lon="-0.54744">
        <ele>296</ele>
      </trkpt>
      <trkpt lat="43.15012" lon="-0.54697">
        <ele>291</ele>
      </trkpt>
      <trkpt lat="43.14942" lon="-0.54703">
        <ele>288</ele>
      </trkpt>
      <trkpt lat="43.14919" lon="-0.54697">
        <ele>288</ele>
      </trkpt>
      <trkpt lat="43.14909" lon="-0.54699">
        <ele>288</ele>
      </trkpt>
      <trkpt lat="43.14902" lon="-0.54706">
        <ele>288</ele>
      </trkpt>
      <trkpt lat="43.14903" lon="-0.54704">
        <ele>288</ele>
      </trkpt>
      <trkpt lat="43.149" lon="-0.54701">
        <ele>288</ele>
      </trkpt>
      <trkpt lat="43.1488" lon="-0.54701">
        <ele>288</ele>
      </trkpt>
      <trkpt lat="43.1482" lon="-0.54687">
        <ele>286</ele>
      </trkpt>
      <trkpt lat="43.14772" lon="-0.54683">
        <ele>294</ele>
      </trkpt>
      <trkpt lat="43.14751" lon="-0.54687">
        <ele>294</ele>
      </trkpt>
      <trkpt lat="43.14712" lon="-0.54687">
        <ele>294</ele>
      </trkpt>
      <trkpt lat="43.14696" lon="-0.54678">
        <ele>298</ele>
      </trkpt>
      <trkpt lat="43.14684" lon="-0.54652">
        <ele>298</ele>
      </trkpt>
      <trkpt lat="43.1468" lon="-0.54631">
        <ele>298</ele>
      </trkpt>
      <trkpt lat="43.14667" lon="-0.54603">
        <ele>297</ele>
      </trkpt>
      <trkpt lat="43.14662" lon="-0.546">
        <ele>297</ele>
      </trkpt>
      <trkpt lat="43.14656" lon="-0.54589">
        <ele>297</ele>
      </trkpt>
      <trkpt lat="43.14647" lon="-0.54546">
        <ele>297</ele>
      </trkpt>
      <trkpt lat="43.14634" lon="-0.54527">
        <ele>298</ele>
      </trkpt>
      <trkpt lat="43.14629" lon="-0.54498">
        <ele>298</ele>
      </trkpt>
      <trkpt lat="43.1463" lon="-0.54491">
        <ele>298</ele>
      </trkpt>
      <trkpt lat="43.14637" lon="-0.54479">
        <ele>298</ele>
      </trkpt>
      <trkpt lat="43.14656" lon="-0.54429">
        <ele>300</ele>
      </trkpt>
      <trkpt lat="43.14642" lon="-0.54343">
        <ele>299</ele>
      </trkpt>
      <trkpt lat="43.14602" lon="-0.54207">
        <ele>294</ele>
      </trkpt>
      <trkpt lat="43.14581" lon="-0.54164">
        <ele>294</ele>
      </trkpt>
      <trkpt lat="43.14586" lon="-0.54155">
        <ele>294</ele>
      </trkpt>
      <trkpt lat="43.14616" lon="-0.54069">
        <ele>296</ele>
      </trkpt>
      <trkpt lat="43.14618" lon="-0.54053">
        <ele>296</ele>
      </trkpt>
      <trkpt lat="43.14631" lon="-0.54009">
        <ele>303</ele>
      </trkpt>
      <trkpt lat="43.14683" lon="-0.53902">
        <ele>301</ele>
      </trkpt>
      <trkpt lat="43.14679" lon="-0.53872">
        <ele>303</ele>
      </trkpt>
      <trkpt lat="43.14664" lon="-0.53844">
        <ele>303</ele>
      </trkpt>
      <trkpt lat="43.14653" lon="-0.5383">
        <ele>303</ele>
      </trkpt>
      <trkpt lat="43.14638" lon="-0.53823">
        <ele>303</ele>
      </trkpt>
      <trkpt lat="43.14623" lon="-0.53822">
        <ele>302</ele>
      </trkpt>
      <trkpt lat="43.14622" lon="-0.53815">
        <ele>302</ele>
      </trkpt>
      <trkpt lat="43.14624" lon="-0.53798">
        <ele>302</ele>
      </trkpt>
      <trkpt lat="43.14619" lon="-0.53764">
        <ele>308</ele>
      </trkpt>
      <trkpt lat="43.14607" lon="-0.53727">
        <ele>308</ele>
      </trkpt>
      <trkpt lat="43.14582" lon="-0.53749">
        <ele>308</ele>
      </trkpt>
      <trkpt lat="43.14541" lon="-0.53772">
        <ele>309</ele>
      </trkpt>
      <trkpt lat="43.14517" lon="-0.53792">
        <ele>303</ele>
      </trkpt>
      <trkpt lat="43.14488" lon="-0.53811">
        <ele>303</ele>
      </trkpt>
      <trkpt lat="43.1448" lon="-0.53823">
        <ele>303</ele>
      </trkpt>
      <trkpt lat="43.14433" lon="-0.53866">
        <ele>308</ele>
      </trkpt>
      <trkpt lat="43.14399" lon="-0.53888">
        <ele>306</ele>
      </trkpt>
      <trkpt lat="43.14387" lon="-0.53906">
        <ele>306</ele>
      </trkpt>
      <trkpt lat="43.14361" lon="-0.53935">
        <ele>313</ele>
      </trkpt>
      <trkpt lat="43.14338" lon="-0.53953">
        <ele>313</ele>
      </trkpt>
      <trkpt lat="43.14329" lon="-0.53967">
        <ele>308</ele>
      </trkpt>
      <trkpt lat="43.14244" lon="-0.5404">
        <ele>309</ele>
      </trkpt>
      <trkpt lat="43.14227" lon="-0.54051">
        <ele>308</ele>
      </trkpt>
      <trkpt lat="43.14212" lon="-0.54066">
        <ele>308</ele>
      </trkpt>
      <trkpt lat="43.14186" lon="-0.54103">
        <ele>309</ele>
      </trkpt>
      <trkpt lat="43.14171" lon="-0.54131">
        <ele>307</ele>
      </trkpt>
      <trkpt lat="43.14127" lon="-0.54191">
        <ele>307</ele>
      </trkpt>
      <trkpt lat="43.1412" lon="-0.54204">
        <ele>304</ele>
      </trkpt>
      <trkpt lat="43.14087" lon="-0.54238">
        <ele>305</ele>
      </trkpt>
      <trkpt lat="43.14071" lon="-0.54267">
        <ele>305</ele>
      </trkpt>
      <trkpt lat="43.14059" lon="-0.54305">
        <ele>302</ele>
      </trkpt>
      <trkpt lat="43.14045" lon="-0.54314">
        <ele>302</ele>
      </trkpt>
      <trkpt lat="43.14029" lon="-0.54329">
        <ele>301</ele>
      </trkpt>
      <trkpt lat="43.14009" lon="-0.54342">
        <ele>301</ele>
      </trkpt>
      <trkpt lat="43.14004" lon="-0.54365">
        <ele>301</ele>
      </trkpt>
      <trkpt lat="43.14002" lon="-0.5439">
        <ele>303</ele>
      </trkpt>
      <trkpt lat="43.13992" lon="-0.54418">
        <ele>303</ele>
      </trkpt>
      <trkpt lat="43.13976" lon="-0.54442">
        <ele>303</ele>
      </trkpt>
      <trkpt lat="43.13956" lon="-0.54462">
        <ele>302</ele>
      </trkpt>
      <trkpt lat="43.13948" lon="-0.54466">
        <ele>302</ele>
      </trkpt>
      <trkpt lat="43.13936" lon="-0.54481">
        <ele>302</ele>
      </trkpt>
      <trkpt lat="43.13928" lon="-0.54487">
        <ele>302</ele>
      </trkpt>
      <trkpt lat="43.13872" lon="-0.5451">
        <ele>291</ele>
      </trkpt>
      <trkpt lat="43.13845" lon="-0.54515">
        <ele>291</ele>
      </trkpt>
      <trkpt lat="43.13828" lon="-0.54539">
        <ele>291</ele>
      </trkpt>
      <trkpt lat="43.13815" lon="-0.54543">
        <ele>297</ele>
      </trkpt>
      <trkpt lat="43.13798" lon="-0.54557">
        <ele>297</ele>
      </trkpt>
      <trkpt lat="43.13785" lon="-0.54586">
        <ele>278</ele>
      </trkpt>
      <trkpt lat="43.13781" lon="-0.54611">
        <ele>278</ele>
      </trkpt>
      <trkpt lat="43.13764" lon="-0.54664">
        <ele>280</ele>
      </trkpt>
      <trkpt lat="43.13763" lon="-0.54712">
        <ele>276</ele>
      </trkpt>
      <trkpt lat="43.13768" lon="-0.54738">
        <ele>276</ele>
      </trkpt>
      <trkpt lat="43.13783" lon="-0.5475">
        <ele>276</ele>
      </trkpt>
      <trkpt lat="43.13795" lon="-0.54786">
        <ele>286</ele>
      </trkpt>
      <trkpt lat="43.13805" lon="-0.54796">
        <ele>277</ele>
      </trkpt>
      <trkpt lat="43.13811" lon="-0.54792">
        <ele>277</ele>
      </trkpt>
      <trkpt lat="43.13842" lon="-0.54807">
        <ele>277</ele>
      </trkpt>
      <trkpt lat="43.13888" lon="-0.54844">
        <ele>284</ele>
      </trkpt>
      <trkpt lat="43.13893" lon="-0.54845">
        <ele>284</ele>
      </trkpt>
      <trkpt lat="43.13912" lon="-0.54865">
        <ele>284</ele>
      </trkpt>
      <trkpt lat="43.13925" lon="-0.54892">
        <ele>272</ele>
      </trkpt>
      <trkpt lat="43.13929" lon="-0.54896">
        <ele>272</ele>
      </trkpt>
      <trkpt lat="43.13939" lon="-0.54899">
        <ele>272</ele>
      </trkpt>
      <trkpt lat="43.13952" lon="-0.54896">
        <ele>272</ele>
      </trkpt>
      <trkpt lat="43.13966" lon="-0.54903">
        <ele>274</ele>
      </trkpt>
      <trkpt lat="43.13973" lon="-0.54915">
        <ele>274</ele>
      </trkpt>
      <trkpt lat="43.13995" lon="-0.54931">
        <ele>274</ele>
      </trkpt>
      <trkpt lat="43.14007" lon="-0.54935">
        <ele>274</ele>
      </trkpt>
      <trkpt lat="43.1402" lon="-0.54919">
        <ele>274</ele>
      </trkpt>
      <trkpt lat="43.14027" lon="-0.54917">
        <ele>274</ele>
      </trkpt>
      <trkpt lat="43.14068" lon="-0.54934">
        <ele>274</ele>
      </trkpt>
      <trkpt lat="43.14092" lon="-0.54938">
        <ele>274</ele>
      </trkpt>
      <trkpt lat="43.14128" lon="-0.54984">
        <ele>284</ele>
      </trkpt>
      <trkpt lat="43.14144" lon="-0.55026">
        <ele>284</ele>
      </trkpt>
      <trkpt lat="43.14146" lon="-0.55052">
        <ele>282</ele>
      </trkpt>
      <trkpt lat="43.14142" lon="-0.55064">
        <ele>282</ele>
      </trkpt>
      <trkpt lat="43.14137" lon="-0.5507">
        <ele>282</ele>
      </trkpt>
      <trkpt lat="43.14117" lon="-0.55123">
        <ele>264</ele>
      </trkpt>
      <trkpt lat="43.14104" lon="-0.55168">
        <ele>267</ele>
      </trkpt>
      <trkpt lat="43.14103" lon="-0.55184">
        <ele>267</ele>
      </trkpt>
      <trkpt lat="43.14095" lon="-0.55204">
        <ele>267</ele>
      </trkpt>
      <trkpt lat="43.14093" lon="-0.5522">
        <ele>269</ele>
      </trkpt>
      <trkpt lat="43.14072" lon="-0.55255">
        <ele>269</ele>
      </trkpt>
      <trkpt lat="43.1406" lon="-0.55267">
        <ele>269</ele>
      </trkpt>
      <trkpt lat="43.14041" lon="-0.55297">
        <ele>271</ele>
      </trkpt>
      <trkpt lat="43.14043" lon="-0.55309">
        <ele>271</ele>
      </trkpt>
      <trkpt lat="43.14038" lon="-0.55328">
        <ele>271</ele>
      </trkpt>
      <trkpt lat="43.14051" lon="-0.55381">
        <ele>267</ele>
      </trkpt>
      <trkpt lat="43.14064" lon="-0.55402">
        <ele>267</ele>
      </trkpt>
      <trkpt lat="43.14066" lon="-0.55422">
        <ele>267</ele>
      </trkpt>
      <trkpt lat="43.14074" lon="-0.55444">
        <ele>267</ele>
      </trkpt>
      <trkpt lat="43.14078" lon="-0.55462">
        <ele>264</ele>
      </trkpt>
      <trkpt lat="43.14093" lon="-0.55494">
        <ele>264</ele>
      </trkpt>
      <trkpt lat="43.14101" lon="-0.55525">
        <ele>264</ele>
      </trkpt>
      <trkpt lat="43.1412" lon="-0.55541">
        <ele>264</ele>
      </trkpt>
      <trkpt lat="43.14142" lon="-0.55538">
        <ele>266</ele>
      </trkpt>
      <trkpt lat="43.14158" lon="-0.55518">
        <ele>266</ele>
      </trkpt>
      <trkpt lat="43.14174" lon="-0.5549">
        <ele>266</ele>
      </trkpt>
      <trkpt lat="43.14181" lon="-0.55483">
        <ele>266</ele>
      </trkpt>
      <trkpt lat="43.14192" lon="-0.55462">
        <ele>266</ele>
      </trkpt>
      <trkpt lat="43.14196" lon="-0.55437">
        <ele>270</ele>
      </trkpt>
      <trkpt lat="43.14194" lon="-0.55422">
        <ele>270</ele>
      </trkpt>
      <trkpt lat="43.14195" lon="-0.55406">
        <ele>270</ele>
      </trkpt>
      <trkpt lat="43.14201" lon="-0.55398">
        <ele>270</ele>
      </trkpt>
      <trkpt lat="43.14208" lon="-0.55395">
        <ele>270</ele>
      </trkpt>
      <trkpt lat="43.14256" lon="-0.55332">
        <ele>283</ele>
      </trkpt>
      <trkpt lat="43.14264" lon="-0.55328">
        <ele>283</ele>
      </trkpt>
      <trkpt lat="43.1428" lon="-0.5531">
        <ele>283</ele>
      </trkpt>
      <trkpt lat="43.14289" lon="-0.55306">
        <ele>283</ele>
      </trkpt>
      <trkpt lat="43.14325" lon="-0.55268">
        <ele>290</ele>
      </trkpt>
      <trkpt lat="43.14371" lon="-0.55249">
        <ele>290</ele>
      </trkpt>
      <trkpt lat="43.14387" lon="-0.55247">
        <ele>279</ele>
      </trkpt>
      <trkpt lat="43.144" lon="-0.5525">
        <ele>279</ele>
      </trkpt>
      <trkpt lat="43.14425" lon="-0.55237">
        <ele>279</ele>
      </trkpt>
      <trkpt lat="43.1443" lon="-0.55238">
        <ele>279</ele>
      </trkpt>
      <trkpt lat="43.14434" lon="-0.55234">
        <ele>279</ele>
      </trkpt>
      <trkpt lat="43.14439" lon="-0.55213">
        <ele>279</ele>
      </trkpt>
      <trkpt lat="43.14454" lon="-0.55227">
        <ele>279</ele>
      </trkpt>
      <trkpt lat="43.14463" lon="-0.5524">
        <ele>275</ele>
      </trkpt>
      <trkpt lat="43.14478" lon="-0.55245">
        <ele>275</ele>
      </trkpt>
      <trkpt lat="43.1449" lon="-0.55244">
        <ele>275</ele>
      </trkpt>
      <trkpt lat="43.145" lon="-0.5525">
        <ele>275</ele>
      </trkpt>
      <trkpt lat="43.14518" lon="-0.55248">
        <ele>275</ele>
      </trkpt>
      <trkpt lat="43.14533" lon="-0.55237">
        <ele>275</ele>
      </trkpt>
      <trkpt lat="43.14548" lon="-0.55242">
        <ele>275</ele>
      </trkpt>
      <trkpt lat="43.14566" lon="-0.55259">
        <ele>275</ele>
      </trkpt>
      <trkpt lat="43.14588" lon="-0.55287">
        <ele>275</ele>
      </trkpt>
      <trkpt lat="43.14603" lon="-0.55315">
        <ele>265</ele>
      </trkpt>
      <trkpt lat="43.14618" lon="-0.55352">
        <ele>265</ele>
      </trkpt>
      <trkpt lat="43.14622" lon="-0.5537">
        <ele>265</ele>
      </trkpt>
      <trkpt lat="43.14617" lon="-0.55416">
        <ele>260</ele>
      </trkpt>
      <trkpt lat="43.14619" lon="-0.55447">
        <ele>260</ele>
      </trkpt>
      <trkpt lat="43.14624" lon="-0.55466">
        <ele>259</ele>
      </trkpt>
      <trkpt lat="43.14631" lon="-0.55482">
        <ele>272</ele>
      </trkpt>
      <trkpt lat="43.14643" lon="-0.555">
        <ele>272</ele>
      </trkpt>
      <trkpt lat="43.14648" lon="-0.55517">
        <ele>272</ele>
      </trkpt>
      <trkpt lat="43.14647" lon="-0.55534">
        <ele>272</ele>
      </trkpt>
      <trkpt lat="43.14656" lon="-0.55594">
        <ele>276</ele>
      </trkpt>
      <trkpt lat="43.14645" lon="-0.55605">
        <ele>276</ele>
      </trkpt>
      <trkpt lat="43.1462" lon="-0.55614">
        <ele>261</ele>
      </trkpt>
      <trkpt lat="43.14616" lon="-0.55629">
        <ele>262</ele>
      </trkpt>
      <trkpt lat="43.14616" lon="-0.55641">
        <ele>262</ele>
      </trkpt>
      <trkpt lat="43.1462" lon="-0.55667">
        <ele>262</ele>
      </trkpt>
      <trkpt lat="43.14612" lon="-0.5571">
        <ele>265</ele>
      </trkpt>
      <trkpt lat="43.14613" lon="-0.55749">
        <ele>265</ele>
      </trkpt>
      <trkpt lat="43.14609" lon="-0.55777">
        <ele>265</ele>
      </trkpt>
      <trkpt lat="43.14609" lon="-0.55796">
        <ele>267</ele>
      </trkpt>
      <trkpt lat="43.14636" lon="-0.55867">
        <ele>269</ele>
      </trkpt>
      <trkpt lat="43.14672" lon="-0.55914">
        <ele>266</ele>
      </trkpt>
      <trkpt lat="43.14675" lon="-0.55921">
        <ele>266</ele>
      </trkpt>
      <trkpt lat="43.14688" lon="-0.55936">
        <ele>266</ele>
      </trkpt>
      <trkpt lat="43.14708" lon="-0.55951">
        <ele>266</ele>
      </trkpt>
      <trkpt lat="43.14723" lon="-0.55956">
        <ele>270</ele>
      </trkpt>
      <trkpt lat="43.14736" lon="-0.55955">
        <ele>270</ele>
      </trkpt>
      <trkpt lat="43.14757" lon="-0.55965">
        <ele>267</ele>
      </trkpt>
      <trkpt lat="43.14767" lon="-0.5596">
        <ele>267</ele>
      </trkpt>
      <trkpt lat="43.14776" lon="-0.55936">
        <ele>270</ele>
      </trkpt>
      <trkpt lat="43.14788" lon="-0.55922">
        <ele>270</ele>
      </trkpt>
      <trkpt lat="43.14836" lon="-0.55932">
        <ele>268</ele>
      </trkpt>
      <trkpt lat="43.14873" lon="-0.55929">
        <ele>268</ele>
      </trkpt>
      <trkpt lat="43.14956" lon="-0.55905">
        <ele>266</ele>
      </trkpt>
      <trkpt lat="43.15017" lon="-0.55899">
        <ele>261</ele>
      </trkpt>
      <trkpt lat="43.15046" lon="-0.55903">
        <ele>263</ele>
      </trkpt>
      <trkpt lat="43.15083" lon="-0.55916">
        <ele>263</ele>
      </trkpt>
      <trkpt lat="43.1519" lon="-0.55993">
        <ele>263</ele>
      </trkpt>
      <trkpt lat="43.15264" lon="-0.56036">
        <ele>268</ele>
      </trkpt>
      <trkpt lat="43.15288" lon="-0.56056">
        <ele>257</ele>
      </trkpt>
      <trkpt lat="43.15333" lon="-0.56102">
        <ele>263</ele>
      </trkpt>
      <trkpt lat="43.15403" lon="-0.56197">
        <ele>265</ele>
      </trkpt>
      <trkpt lat="43.15431" lon="-0.5623">
        <ele>258</ele>
      </trkpt>
      <trkpt lat="43.15444" lon="-0.5625">
        <ele>258</ele>
      </trkpt>
      <trkpt lat="43.15506" lon="-0.56315">
        <ele>257</ele>
      </trkpt>
      <trkpt lat="43.15558" lon="-0.56378">
        <ele>260</ele>
      </trkpt>
      <trkpt lat="43.15625" lon="-0.56445">
        <ele>256</ele>
      </trkpt>
      <trkpt lat="43.1565" lon="-0.56452">
        <ele>256</ele>
      </trkpt>
      <trkpt lat="43.15712" lon="-0.56433">
        <ele>253</ele>
      </trkpt>
      <trkpt lat="43.15742" lon="-0.56432">
        <ele>253</ele>
      </trkpt>
      <trkpt lat="43.15793" lon="-0.56413">
        <ele>256</ele>
      </trkpt>
      <trkpt lat="43.15816" lon="-0.56411">
        <ele>256</ele>
      </trkpt>
      <trkpt lat="43.15843" lon="-0.56455">
        <ele>256</ele>
      </trkpt>
      <trkpt lat="43.15857" lon="-0.56487">
        <ele>254</ele>
      </trkpt>
      <trkpt lat="43.15874" lon="-0.5661">
        <ele>250</ele>
      </trkpt>
      <trkpt lat="43.15881" lon="-0.56618">
        <ele>261</ele>
      </trkpt>
      <trkpt lat="43.15907" lon="-0.56631">
        <ele>258</ele>
      </trkpt>
      <trkpt lat="43.15908" lon="-0.56628">
        <ele>258</ele>
      </trkpt>
      <trkpt lat="43.15897" lon="-0.56585">
        <ele>261</ele>
      </trkpt>
      <trkpt lat="43.15894" lon="-0.56552">
        <ele>261</ele>
      </trkpt>
      <trkpt lat="43.15887" lon="-0.56522">
        <ele>262</ele>
      </trkpt>
      <trkpt lat="43.15892" lon="-0.56499">
        <ele>262</ele>
      </trkpt>
      <trkpt lat="43.15901" lon="-0.56492">
        <ele>262</ele>
      </trkpt>
      <trkpt lat="43.15977" lon="-0.56464">
        <ele>273</ele>
      </trkpt>
      <trkpt lat="43.16013" lon="-0.56456">
        <ele>268</ele>
      </trkpt>
      <trkpt lat="43.16052" lon="-0.5644">
        <ele>279</ele>
      </trkpt>
      <trkpt lat="43.16067" lon="-0.56428">
        <ele>279</ele>
      </trkpt>
      <trkpt lat="43.16104" lon="-0.56383">
        <ele>279</ele>
      </trkpt>
      <trkpt lat="43.16141" lon="-0.5633">
        <ele>284</ele>
      </trkpt>
      <trkpt lat="43.16159" lon="-0.56284">
        <ele>281</ele>
      </trkpt>
      <trkpt lat="43.16199" lon="-0.5622">
        <ele>281</ele>
      </trkpt>
      <trkpt lat="43.16212" lon="-0.56195">
        <ele>291</ele>
      </trkpt>
      <trkpt lat="43.16216" lon="-0.56202">
        <ele>291</ele>
      </trkpt>
      <trkpt lat="43.16226" lon="-0.56233">
        <ele>290</ele>
      </trkpt>
      <trkpt lat="43.16228" lon="-0.56252">
        <ele>290</ele>
      </trkpt>
      <trkpt lat="43.16218" lon="-0.56294">
        <ele>290</ele>
      </trkpt>
      <trkpt lat="43.16187" lon="-0.56401">
        <ele>287</ele>
      </trkpt>
      <trkpt lat="43.16178" lon="-0.56455">
        <ele>287</ele>
      </trkpt>
      <trkpt lat="43.16158" lon="-0.56531">
        <ele>288</ele>
      </trkpt>
      <trkpt lat="43.16129" lon="-0.56604">
        <ele>289</ele>
      </trkpt>
      <trkpt lat="43.16125" lon="-0.56609">
        <ele>289</ele>
      </trkpt>
      <trkpt lat="43.16108" lon="-0.56663">
        <ele>285</ele>
      </trkpt>
      <trkpt lat="43.16108" lon="-0.56695">
        <ele>285</ele>
      </trkpt>
      <trkpt lat="43.16114" lon="-0.56717">
        <ele>282</ele>
      </trkpt>
      <trkpt lat="43.16141" lon="-0.56781">
        <ele>286</ele>
      </trkpt>
      <trkpt lat="43.16177" lon="-0.56821">
        <ele>286</ele>
      </trkpt>
      <trkpt lat="43.16207" lon="-0.56839">
        <ele>286</ele>
      </trkpt>
      <trkpt lat="43.16237" lon="-0.56851">
        <ele>287</ele>
      </trkpt>
      <trkpt lat="43.16241" lon="-0.5685">
        <ele>287</ele>
      </trkpt>
      <trkpt lat="43.16249" lon="-0.56837">
        <ele>287</ele>
      </trkpt>
      <trkpt lat="43.16252" lon="-0.56814">
        <ele>287</ele>
      </trkpt>
      <trkpt lat="43.16276" lon="-0.56722">
        <ele>289</ele>
      </trkpt>
      <trkpt lat="43.16285" lon="-0.56702">
        <ele>290</ele>
      </trkpt>
      <trkpt lat="43.16289" lon="-0.56675">
        <ele>290</ele>
      </trkpt>
      <trkpt lat="43.16299" lon="-0.56648">
        <ele>288</ele>
      </trkpt>
      <trkpt lat="43.16317" lon="-0.56582">
        <ele>289</ele>
      </trkpt>
      <trkpt lat="43.16316" lon="-0.56578">
        <ele>289</ele>
      </trkpt>
      <trkpt lat="43.16323" lon="-0.56547">
        <ele>289</ele>
      </trkpt>
      <trkpt lat="43.16336" lon="-0.56516">
        <ele>290</ele>
      </trkpt>
      <trkpt lat="43.16341" lon="-0.56473">
        <ele>290</ele>
      </trkpt>
      <trkpt lat="43.16359" lon="-0.56396">
        <ele>291</ele>
      </trkpt>
      <trkpt lat="43.16428" lon="-0.56192">
        <ele>290</ele>
      </trkpt>
      <trkpt lat="43.16437" lon="-0.56173">
        <ele>290</ele>
      </trkpt>
      <trkpt lat="43.1645" lon="-0.56102">
        <ele>295</ele>
      </trkpt>
      <trkpt lat="43.16463" lon="-0.56067">
        <ele>291</ele>
      </trkpt>
      <trkpt lat="43.16475" lon="-0.56049">
        <ele>291</ele>
      </trkpt>
      <trkpt lat="43.16517" lon="-0.56022">
        <ele>294</ele>
      </trkpt>
      <trkpt lat="43.1654" lon="-0.5599">
        <ele>294</ele>
      </trkpt>
      <trkpt lat="43.1657" lon="-0.55925">
        <ele>293</ele>
      </trkpt>
      <trkpt lat="43.16589" lon="-0.55866">
        <ele>293</ele>
      </trkpt>
      <trkpt lat="43.16607" lon="-0.55876">
        <ele>293</ele>
      </trkpt>
      <trkpt lat="43.16616" lon="-0.55874">
        <ele>293</ele>
      </trkpt>
      <trkpt lat="43.16646" lon="-0.55878">
        <ele>293</ele>
      </trkpt>
      <trkpt lat="43.16658" lon="-0.55874">
        <ele>295</ele>
      </trkpt>
      <trkpt lat="43.16674" lon="-0.55879">
        <ele>293</ele>
      </trkpt>
      <trkpt lat="43.16687" lon="-0.55895">
        <ele>293</ele>
      </trkpt>
      <trkpt lat="43.16694" lon="-0.55898">
        <ele>293</ele>
      </trkpt>
      <trkpt lat="43.16696" lon="-0.55903">
        <ele>293</ele>
      </trkpt>
      <trkpt lat="43.16697" lon="-0.55938">
        <ele>293</ele>
      </trkpt>
      <trkpt lat="43.16702" lon="-0.55963">
        <ele>292</ele>
      </trkpt>
      <trkpt lat="43.16707" lon="-0.56014">
        <ele>292</ele>
      </trkpt>
      <trkpt lat="43.16708" lon="-0.56067">
        <ele>292</ele>
      </trkpt>
      <trkpt lat="43.16694" lon="-0.56135">
        <ele>290</ele>
      </trkpt>
      <trkpt lat="43.16685" lon="-0.56145">
        <ele>290</ele>
      </trkpt>
      <trkpt lat="43.16683" lon="-0.56144">
        <ele>290</ele>
      </trkpt>
      <trkpt lat="43.16671" lon="-0.56157">
        <ele>290</ele>
      </trkpt>
      <trkpt lat="43.16651" lon="-0.5616">
        <ele>290</ele>
      </trkpt>
      <trkpt lat="43.16637" lon="-0.56159">
        <ele>290</ele>
      </trkpt>
      <trkpt lat="43.16615" lon="-0.56164">
        <ele>281</ele>
      </trkpt>
      <trkpt lat="43.16605" lon="-0.56162">
        <ele>281</ele>
      </trkpt>
      <trkpt lat="43.16582" lon="-0.56173">
        <ele>281</ele>
      </trkpt>
      <trkpt lat="43.16578" lon="-0.56178">
        <ele>281</ele>
      </trkpt>
      <trkpt lat="43.16563" lon="-0.56235">
        <ele>277</ele>
      </trkpt>
      <trkpt lat="43.16549" lon="-0.56256">
        <ele>277</ele>
      </trkpt>
      <trkpt lat="43.16548" lon="-0.5627">
        <ele>277</ele>
      </trkpt>
      <trkpt lat="43.16556" lon="-0.56288">
        <ele>277</ele>
      </trkpt>
      <trkpt lat="43.16555" lon="-0.56308">
        <ele>277</ele>
      </trkpt>
      <trkpt lat="43.16559" lon="-0.56345">
        <ele>277</ele>
      </trkpt>
      <trkpt lat="43.16555" lon="-0.5636">
        <ele>277</ele>
      </trkpt>
      <trkpt lat="43.16566" lon="-0.56404">
        <ele>274</ele>
      </trkpt>
      <trkpt lat="43.16564" lon="-0.56428">
        <ele>274</ele>
      </trkpt>
      <trkpt lat="43.16573" lon="-0.56455">
        <ele>274</ele>
      </trkpt>
      <trkpt lat="43.1657" lon="-0.56483">
        <ele>270</ele>
      </trkpt>
      <trkpt lat="43.16575" lon="-0.56528">
        <ele>270</ele>
      </trkpt>
      <trkpt lat="43.16572" lon="-0.56563">
        <ele>268</ele>
      </trkpt>
      <trkpt lat="43.166" lon="-0.56656">
        <ele>268</ele>
      </trkpt>
      <trkpt lat="43.16611" lon="-0.5668">
        <ele>268</ele>
      </trkpt>
      <trkpt lat="43.16623" lon="-0.56699">
        <ele>268</ele>
      </trkpt>
      <trkpt lat="43.16634" lon="-0.56775">
        <ele>266</ele>
      </trkpt>
      <trkpt lat="43.16645" lon="-0.56811">
        <ele>265</ele>
      </trkpt>
      <trkpt lat="43.16653" lon="-0.56856">
        <ele>265</ele>
      </trkpt>
      <trkpt lat="43.16664" lon="-0.5689">
        <ele>259</ele>
      </trkpt>
      <trkpt lat="43.16666" lon="-0.56911">
        <ele>259</ele>
      </trkpt>
      <trkpt lat="43.16665" lon="-0.5693">
        <ele>259</ele>
      </trkpt>
      <trkpt lat="43.16661" lon="-0.56953">
        <ele>259</ele>
      </trkpt>
      <trkpt lat="43.16664" lon="-0.56971">
        <ele>253</ele>
      </trkpt>
      <trkpt lat="43.1669" lon="-0.57004">
        <ele>253</ele>
      </trkpt>
      <trkpt lat="43.16715" lon="-0.5702">
        <ele>262</ele>
      </trkpt>
      <trkpt lat="43.16722" lon="-0.5702">
        <ele>262</ele>
      </trkpt>
      <trkpt lat="43.16731" lon="-0.57025">
        <ele>262</ele>
      </trkpt>
      <trkpt lat="43.16739" lon="-0.57035">
        <ele>262</ele>
      </trkpt>
      <trkpt lat="43.16744" lon="-0.57049">
        <ele>248</ele>
      </trkpt>
      <trkpt lat="43.16768" lon="-0.57069">
        <ele>248</ele>
      </trkpt>
      <trkpt lat="43.16789" lon="-0.57093">
        <ele>248</ele>
      </trkpt>
      <trkpt lat="43.16806" lon="-0.57126">
        <ele>255</ele>
      </trkpt>
      <trkpt lat="43.16809" lon="-0.57144">
        <ele>255</ele>
      </trkpt>
      <trkpt lat="43.16822" lon="-0.57181">
        <ele>255</ele>
      </trkpt>
      <trkpt lat="43.16825" lon="-0.57216">
        <ele>248</ele>
      </trkpt>
      <trkpt lat="43.16833" lon="-0.57265">
        <ele>248</ele>
      </trkpt>
      <trkpt lat="43.16832" lon="-0.57273">
        <ele>248</ele>
      </trkpt>
      <trkpt lat="43.168" lon="-0.57274">
        <ele>248</ele>
      </trkpt>
      <trkpt lat="43.16769" lon="-0.57268">
        <ele>242</ele>
      </trkpt>
      <trkpt lat="43.16758" lon="-0.57283">
        <ele>242</ele>
      </trkpt>
      <trkpt lat="43.16755" lon="-0.57301">
        <ele>241</ele>
      </trkpt>
      <trkpt lat="43.16758" lon="-0.57379">
        <ele>241</ele>
      </trkpt>
      <trkpt lat="43.16766" lon="-0.57467">
        <ele>243</ele>
      </trkpt>
      <trkpt lat="43.16774" lon="-0.57505">
        <ele>243</ele>
      </trkpt>
      <trkpt lat="43.16782" lon="-0.57566">
        <ele>249</ele>
      </trkpt>
      <trkpt lat="43.16803" lon="-0.57621">
        <ele>243</ele>
      </trkpt>
      <trkpt lat="43.1682" lon="-0.57637">
        <ele>248</ele>
      </trkpt>
      <trkpt lat="43.16875" lon="-0.57668">
        <ele>245</ele>
      </trkpt>
      <trkpt lat="43.16913" lon="-0.57662">
        <ele>245</ele>
      </trkpt>
      <trkpt lat="43.17032" lon="-0.57671">
        <ele>247</ele>
      </trkpt>
      <trkpt lat="43.17078" lon="-0.57668">
        <ele>247</ele>
      </trkpt>
      <trkpt lat="43.17125" lon="-0.5766">
        <ele>247</ele>
      </trkpt>
      <trkpt lat="43.17148" lon="-0.57665">
        <ele>246</ele>
      </trkpt>
      <trkpt lat="43.17198" lon="-0.577">
        <ele>246</ele>
      </trkpt>
      <trkpt lat="43.17218" lon="-0.57732">
        <ele>246</ele>
      </trkpt>
      <trkpt lat="43.17237" lon="-0.57775">
        <ele>246</ele>
      </trkpt>
      <trkpt lat="43.17267" lon="-0.57827">
        <ele>251</ele>
      </trkpt>
      <trkpt lat="43.17284" lon="-0.57882">
        <ele>257</ele>
      </trkpt>
      <trkpt lat="43.17289" lon="-0.57913">
        <ele>257</ele>
      </trkpt>
      <trkpt lat="43.17307" lon="-0.57991">
        <ele>244</ele>
      </trkpt>
      <trkpt lat="43.17351" lon="-0.58207">
        <ele>252</ele>
      </trkpt>
      <trkpt lat="43.17371" lon="-0.58288">
        <ele>252</ele>
      </trkpt>
      <trkpt lat="43.17379" lon="-0.58309">
        <ele>241</ele>
      </trkpt>
      <trkpt lat="43.17425" lon="-0.58493">
        <ele>245</ele>
      </trkpt>
      <trkpt lat="43.17426" lon="-0.58551">
        <ele>245</ele>
      </trkpt>
      <trkpt lat="43.17429" lon="-0.58579">
        <ele>245</ele>
      </trkpt>
      <trkpt lat="43.17425" lon="-0.58647">
        <ele>245</ele>
      </trkpt>
      <trkpt lat="43.17427" lon="-0.58709">
        <ele>246</ele>
      </trkpt>
      <trkpt lat="43.17426" lon="-0.58735">
        <ele>246</ele>
      </trkpt>
      <trkpt lat="43.1743" lon="-0.5885">
        <ele>248</ele>
      </trkpt>
      <trkpt lat="43.17427" lon="-0.58885">
        <ele>254</ele>
      </trkpt>
      <trkpt lat="43.17431" lon="-0.58956">
        <ele>254</ele>
      </trkpt>
      <trkpt lat="43.17448" lon="-0.59002">
        <ele>260</ele>
      </trkpt>
      <trkpt lat="43.17454" lon="-0.59051">
        <ele>266</ele>
      </trkpt>
      <trkpt lat="43.17473" lon="-0.59155">
        <ele>250</ele>
      </trkpt>
      <trkpt lat="43.17488" lon="-0.59185">
        <ele>250</ele>
      </trkpt>
      <trkpt lat="43.17527" lon="-0.59207">
        <ele>250</ele>
      </trkpt>
      <trkpt lat="43.17541" lon="-0.5922">
        <ele>260</ele>
      </trkpt>
      <trkpt lat="43.17559" lon="-0.59242">
        <ele>252</ele>
      </trkpt>
      <trkpt lat="43.17581" lon="-0.59286">
        <ele>252</ele>
      </trkpt>
      <trkpt lat="43.1759" lon="-0.59316">
        <ele>265</ele>
      </trkpt>
      <trkpt lat="43.17604" lon="-0.59383">
        <ele>271</ele>
      </trkpt>
      <trkpt lat="43.17607" lon="-0.59406">
        <ele>271</ele>
      </trkpt>
      <trkpt lat="43.17606" lon="-0.59417">
        <ele>271</ele>
      </trkpt>
      <trkpt lat="43.17588" lon="-0.59454">
        <ele>271</ele>
      </trkpt>
      <trkpt lat="43.17584" lon="-0.5948">
        <ele>273</ele>
      </trkpt>
      <trkpt lat="43.17596" lon="-0.59503">
        <ele>273</ele>
      </trkpt>
      <trkpt lat="43.17658" lon="-0.59541">
        <ele>268</ele>
      </trkpt>
      <trkpt lat="43.17734" lon="-0.59578">
        <ele>268</ele>
      </trkpt>
      <trkpt lat="43.17746" lon="-0.59587">
        <ele>268</ele>
      </trkpt>
      <trkpt lat="43.17816" lon="-0.59665">
        <ele>274</ele>
      </trkpt>
      <trkpt lat="43.17883" lon="-0.59711">
        <ele>279</ele>
      </trkpt>
      <trkpt lat="43.17917" lon="-0.59743">
        <ele>279</ele>
      </trkpt>
      <trkpt lat="43.17932" lon="-0.59763">
        <ele>279</ele>
      </trkpt>
      <trkpt lat="43.17936" lon="-0.59774">
        <ele>279</ele>
      </trkpt>
      <trkpt lat="43.17944" lon="-0.59813">
        <ele>275</ele>
      </trkpt>
      <trkpt lat="43.17958" lon="-0.59845">
        <ele>275</ele>
      </trkpt>
      <trkpt lat="43.17978" lon="-0.59864">
        <ele>288</ele>
      </trkpt>
      <trkpt lat="43.18009" lon="-0.59868">
        <ele>288</ele>
      </trkpt>
      <trkpt lat="43.18076" lon="-0.59861">
        <ele>294</ele>
      </trkpt>
      <trkpt lat="43.18121" lon="-0.5985">
        <ele>294</ele>
      </trkpt>
      <trkpt lat="43.18156" lon="-0.59847">
        <ele>289</ele>
      </trkpt>
      <trkpt lat="43.1826" lon="-0.59857">
        <ele>280</ele>
      </trkpt>
      <trkpt lat="43.18298" lon="-0.59864">
        <ele>278</ele>
      </trkpt>
      <trkpt lat="43.18423" lon="-0.59905">
        <ele>279</ele>
      </trkpt>
      <trkpt lat="43.18457" lon="-0.59934">
        <ele>279</ele>
      </trkpt>
      <trkpt lat="43.18554" lon="-0.60034">
        <ele>282</ele>
      </trkpt>
      <trkpt lat="43.18561" lon="-0.60045">
        <ele>283</ele>
      </trkpt>
      <trkpt lat="43.18553" lon="-0.60068">
        <ele>283</ele>
      </trkpt>
      <trkpt lat="43.18543" lon="-0.60082">
        <ele>283</ele>
      </trkpt>
      <trkpt lat="43.18537" lon="-0.60098">
        <ele>280</ele>
      </trkpt>
    </trkseg>
  </trk>
  <trk>
    <name><![CDATA[Randonnée de Serres Castets 2011]]></name>
    <trkseg>
      <trkpt lat="43.37843" lon="-0.37495">
        <ele>198.037</ele>
        <time>2011-05-29T06:30:13Z</time>
      </trkpt>
      <trkpt lat="43.3785" lon="-0.37482">
        <ele>198.138</ele>
        <time>2011-05-29T06:30:18Z</time>
      </trkpt>
      <trkpt lat="43.37853" lon="-0.37465">
        <ele>198.328</ele>
        <time>2011-05-29T06:30:23Z</time>
      </trkpt>
      <trkpt lat="43.37851" lon="-0.37445">
        <ele>198.417</ele>
        <time>2011-05-29T06:30:28Z</time>
      </trkpt>
      <trkpt lat="43.37846" lon="-0.37429">
        <ele>198.571</ele>
        <time>2011-05-29T06:30:31Z</time>
      </trkpt>
      <trkpt lat="43.37839" lon="-0.37412">
        <ele>198.469</ele>
        <time>2011-05-29T06:30:34Z</time>
      </trkpt>
      <trkpt lat="43.37828" lon="-0.37393">
        <ele>198.176</ele>
        <time>2011-05-29T06:30:38Z</time>
      </trkpt>
      <trkpt lat="43.37821" lon="-0.37384">
        <ele>198.05</ele>
        <time>2011-05-29T06:30:40Z</time>
      </trkpt>
      <trkpt lat="43.37812" lon="-0.37374">
        <ele>198.085</ele>
        <time>2011-05-29T06:30:42Z</time>
      </trkpt>
      <trkpt lat="43.37791" lon="-0.37364">
        <ele>198.31</ele>
        <time>2011-05-29T06:30:46Z</time>
      </trkpt>
      <trkpt lat="43.37782" lon="-0.37368">
        <ele>198.417</ele>
        <time>2011-05-29T06:30:49Z</time>
      </trkpt>
      <trkpt lat="43.3778" lon="-0.37366">
        <ele>198.49</ele>
        <time>2011-05-29T06:30:50Z</time>
      </trkpt>
      <trkpt lat="43.3776" lon="-0.37367">
        <ele>198.558</ele>
        <time>2011-05-29T06:30:55Z</time>
      </trkpt>
      <trkpt lat="43.37744" lon="-0.37364">
        <ele>198.49</ele>
        <time>2011-05-29T06:30:59Z</time>
      </trkpt>
      <trkpt lat="43.37738" lon="-0.37355">
        <ele>198.486</ele>
        <time>2011-05-29T06:31:01Z</time>
      </trkpt>
      <trkpt lat="43.37706" lon="-0.37325">
        <ele>198.881</ele>
        <time>2011-05-29T06:31:10Z</time>
      </trkpt>
      <trkpt lat="43.37687" lon="-0.37299">
        <ele>199.016</ele>
        <time>2011-05-29T06:31:16Z</time>
      </trkpt>
      <trkpt lat="43.37677" lon="-0.37284">
        <ele>198.987</ele>
        <time>2011-05-29T06:31:19Z</time>
      </trkpt>
      <trkpt lat="43.37661" lon="-0.37272">
        <ele>199.052</ele>
        <time>2011-05-29T06:31:23Z</time>
      </trkpt>
      <trkpt lat="43.37637" lon="-0.37261">
        <ele>199.496</ele>
        <time>2011-05-29T06:31:29Z</time>
      </trkpt>
      <trkpt lat="43.37619" lon="-0.37248">
        <ele>199.673</ele>
        <time>2011-05-29T06:31:34Z</time>
      </trkpt>
      <trkpt lat="43.37605" lon="-0.37236">
        <ele>199.555</ele>
        <time>2011-05-29T06:31:38Z</time>
      </trkpt>
      <trkpt lat="43.37608" lon="-0.37224">
        <ele>199.589</ele>
        <time>2011-05-29T06:31:41Z</time>
      </trkpt>
      <trkpt lat="43.37615" lon="-0.37202">
        <ele>199.995</ele>
        <time>2011-05-29T06:31:45Z</time>
      </trkpt>
      <trkpt lat="43.37605" lon="-0.37184">
        <ele>200.906</ele>
        <time>2011-05-29T06:31:48Z</time>
      </trkpt>
      <trkpt lat="43.37592" lon="-0.37162">
        <ele>202.361</ele>
        <time>2011-05-29T06:31:52Z</time>
      </trkpt>
      <trkpt lat="43.37588" lon="-0.3715">
        <ele>203.463</ele>
        <time>2011-05-29T06:31:54Z</time>
      </trkpt>
      <trkpt lat="43.37574" lon="-0.3713">
        <ele>205.319</ele>
        <time>2011-05-29T06:31:58Z</time>
      </trkpt>
      <trkpt lat="43.37541" lon="-0.37096">
        <ele>206.318</ele>
        <time>2011-05-29T06:32:07Z</time>
      </trkpt>
      <trkpt lat="43.37519" lon="-0.37066">
        <ele>205.716</ele>
        <time>2011-05-29T06:32:13Z</time>
      </trkpt>
      <trkpt lat="43.37496" lon="-0.37024">
        <ele>204.776</ele>
        <time>2011-05-29T06:32:20Z</time>
      </trkpt>
      <trkpt lat="43.37493" lon="-0.37018">
        <ele>204.668</ele>
        <time>2011-05-29T06:32:21Z</time>
      </trkpt>
      <trkpt lat="43.37489" lon="-0.36995">
        <ele>204.347</ele>
        <time>2011-05-29T06:32:25Z</time>
      </trkpt>
      <trkpt lat="43.37499" lon="-0.36978">
        <ele>204.691</ele>
        <time>2011-05-29T06:32:29Z</time>
      </trkpt>
      <trkpt lat="43.37502" lon="-0.36974">
        <ele>204.875</ele>
        <time>2011-05-29T06:32:30Z</time>
      </trkpt>
      <trkpt lat="43.37534" lon="-0.36949">
        <ele>206.785</ele>
        <time>2011-05-29T06:32:39Z</time>
      </trkpt>
      <trkpt lat="43.37557" lon="-0.36933">
        <ele>207.257</ele>
        <time>2011-05-29T06:32:45Z</time>
      </trkpt>
      <trkpt lat="43.37569" lon="-0.36917">
        <ele>207.613</ele>
        <time>2011-05-29T06:32:49Z</time>
      </trkpt>
      <trkpt lat="43.376" lon="-0.36895">
        <ele>207.501</ele>
        <time>2011-05-29T06:32:56Z</time>
      </trkpt>
      <trkpt lat="43.37634" lon="-0.36872">
        <ele>206.68</ele>
        <time>2011-05-29T06:33:03Z</time>
      </trkpt>
      <trkpt lat="43.37662" lon="-0.36856">
        <ele>206.189</ele>
        <time>2011-05-29T06:33:09Z</time>
      </trkpt>
      <trkpt lat="43.3769" lon="-0.36833">
        <ele>206.562</ele>
        <time>2011-05-29T06:33:16Z</time>
      </trkpt>
      <trkpt lat="43.37724" lon="-0.36804">
        <ele>205.92</ele>
        <time>2011-05-29T06:33:24Z</time>
      </trkpt>
      <trkpt lat="43.37756" lon="-0.36773">
        <ele>204.293</ele>
        <time>2011-05-29T06:33:30Z</time>
      </trkpt>
      <trkpt lat="43.37791" lon="-0.3675">
        <ele>202.955</ele>
        <time>2011-05-29T06:33:36Z</time>
      </trkpt>
      <trkpt lat="43.37833" lon="-0.36737">
        <ele>202.613</ele>
        <time>2011-05-29T06:33:43Z</time>
      </trkpt>
      <trkpt lat="43.3785" lon="-0.3673">
        <ele>202.695</ele>
        <time>2011-05-29T06:33:46Z</time>
      </trkpt>
      <trkpt lat="43.37861" lon="-0.36723">
        <ele>202.863</ele>
        <time>2011-05-29T06:33:48Z</time>
      </trkpt>
      <trkpt lat="43.37891" lon="-0.36686">
        <ele>203.267</ele>
        <time>2011-05-29T06:33:55Z</time>
      </trkpt>
      <trkpt lat="43.37906" lon="-0.36664">
        <ele>203.305</ele>
        <time>2011-05-29T06:33:59Z</time>
      </trkpt>
      <trkpt lat="43.37932" lon="-0.36626">
        <ele>203.885</ele>
        <time>2011-05-29T06:34:06Z</time>
      </trkpt>
      <trkpt lat="43.37974" lon="-0.36567">
        <ele>204.707</ele>
        <time>2011-05-29T06:34:17Z</time>
      </trkpt>
      <trkpt lat="43.38008" lon="-0.36516">
        <ele>205.178</ele>
        <time>2011-05-29T06:34:26Z</time>
      </trkpt>
      <trkpt lat="43.38042" lon="-0.36471">
        <ele>206.675</ele>
        <time>2011-05-29T06:34:35Z</time>
      </trkpt>
      <trkpt lat="43.38076" lon="-0.36427">
        <ele>207.165</ele>
        <time>2011-05-29T06:34:44Z</time>
      </trkpt>
      <trkpt lat="43.38104" lon="-0.36398">
        <ele>207.934</ele>
        <time>2011-05-29T06:34:51Z</time>
      </trkpt>
      <trkpt lat="43.38143" lon="-0.36369">
        <ele>208.799</ele>
        <time>2011-05-29T06:35:00Z</time>
      </trkpt>
      <trkpt lat="43.38152" lon="-0.36364">
        <ele>208.972</ele>
        <time>2011-05-29T06:35:02Z</time>
      </trkpt>
      <trkpt lat="43.38169" lon="-0.36352">
        <ele>209.169</ele>
        <time>2011-05-29T06:35:06Z</time>
      </trkpt>
      <trkpt lat="43.38202" lon="-0.36317">
        <ele>209.666</ele>
        <time>2011-05-29T06:35:14Z</time>
      </trkpt>
      <trkpt lat="43.38217" lon="-0.36279">
        <ele>210.56</ele>
        <time>2011-05-29T06:35:20Z</time>
      </trkpt>
      <trkpt lat="43.38224" lon="-0.36244">
        <ele>211.256</ele>
        <time>2011-05-29T06:35:25Z</time>
      </trkpt>
      <trkpt lat="43.38245" lon="-0.36204">
        <ele>212.032</ele>
        <time>2011-05-29T06:35:32Z</time>
      </trkpt>
      <trkpt lat="43.38256" lon="-0.3619">
        <ele>212.491</ele>
        <time>2011-05-29T06:35:35Z</time>
      </trkpt>
      <trkpt lat="43.3829" lon="-0.36167">
        <ele>213.374</ele>
        <time>2011-05-29T06:35:43Z</time>
      </trkpt>
      <trkpt lat="43.38315" lon="-0.36163">
        <ele>213.62</ele>
        <time>2011-05-29T06:35:49Z</time>
      </trkpt>
      <trkpt lat="43.38321" lon="-0.36163">
        <ele>213.851</ele>
        <time>2011-05-29T06:35:52Z</time>
      </trkpt>
      <trkpt lat="43.38326" lon="-0.36159">
        <ele>213.937</ele>
        <time>2011-05-29T06:35:54Z</time>
      </trkpt>
      <trkpt lat="43.38342" lon="-0.3616">
        <ele>214.401</ele>
        <time>2011-05-29T06:35:59Z</time>
      </trkpt>
      <trkpt lat="43.3835" lon="-0.36153">
        <ele>214.975</ele>
        <time>2011-05-29T06:36:02Z</time>
      </trkpt>
      <trkpt lat="43.38357" lon="-0.36132">
        <ele>215.894</ele>
        <time>2011-05-29T06:36:07Z</time>
      </trkpt>
      <trkpt lat="43.38364" lon="-0.36102">
        <ele>217.079</ele>
        <time>2011-05-29T06:36:13Z</time>
      </trkpt>
      <trkpt lat="43.38368" lon="-0.36085">
        <ele>217.702</ele>
        <time>2011-05-29T06:36:18Z</time>
      </trkpt>
      <trkpt lat="43.38378" lon="-0.36055">
        <ele>219.314</ele>
        <time>2011-05-29T06:36:26Z</time>
      </trkpt>
      <trkpt lat="43.38386" lon="-0.36026">
        <ele>220.03</ele>
        <time>2011-05-29T06:36:32Z</time>
      </trkpt>
      <trkpt lat="43.38395" lon="-0.35986">
        <ele>221.568</ele>
        <time>2011-05-29T06:36:40Z</time>
      </trkpt>
      <trkpt lat="43.38405" lon="-0.35953">
        <ele>223.061</ele>
        <time>2011-05-29T06:36:47Z</time>
      </trkpt>
      <trkpt lat="43.38415" lon="-0.35915">
        <ele>224.403</ele>
        <time>2011-05-29T06:36:55Z</time>
      </trkpt>
      <trkpt lat="43.38425" lon="-0.35883">
        <ele>226.504</ele>
        <time>2011-05-29T06:37:02Z</time>
      </trkpt>
      <trkpt lat="43.3843" lon="-0.35857">
        <ele>227.991</ele>
        <time>2011-05-29T06:37:08Z</time>
      </trkpt>
      <trkpt lat="43.38438" lon="-0.35824">
        <ele>229.534</ele>
        <time>2011-05-29T06:37:16Z</time>
      </trkpt>
      <trkpt lat="43.38447" lon="-0.35807">
        <ele>230.73</ele>
        <time>2011-05-29T06:37:22Z</time>
      </trkpt>
      <trkpt lat="43.38453" lon="-0.35799">
        <ele>231.134</ele>
        <time>2011-05-29T06:37:26Z</time>
      </trkpt>
      <trkpt lat="43.38457" lon="-0.35797">
        <ele>231.061</ele>
        <time>2011-05-29T06:37:29Z</time>
      </trkpt>
      <trkpt lat="43.38461" lon="-0.35798">
        <ele>232.586</ele>
        <time>2011-05-29T06:37:37Z</time>
      </trkpt>
      <trkpt lat="43.38471" lon="-0.35798">
        <ele>233.938</ele>
        <time>2011-05-29T06:37:43Z</time>
      </trkpt>
      <trkpt lat="43.38472" lon="-0.35798">
        <ele>233.941</ele>
        <time>2011-05-29T06:37:44Z</time>
      </trkpt>
      <trkpt lat="43.38477" lon="-0.35794">
        <ele>235.467</ele>
        <time>2011-05-29T06:37:48Z</time>
      </trkpt>
      <trkpt lat="43.38481" lon="-0.3579">
        <ele>237.056</ele>
        <time>2011-05-29T06:37:52Z</time>
      </trkpt>
      <trkpt lat="43.38492" lon="-0.35779">
        <ele>239.902</ele>
        <time>2011-05-29T06:38:00Z</time>
      </trkpt>
      <trkpt lat="43.38497" lon="-0.35766">
        <ele>240.853</ele>
        <time>2011-05-29T06:38:05Z</time>
      </trkpt>
      <trkpt lat="43.38502" lon="-0.35759">
        <ele>241.117</ele>
        <time>2011-05-29T06:38:09Z</time>
      </trkpt>
      <trkpt lat="43.3851" lon="-0.35755">
        <ele>242.915</ele>
        <time>2011-05-29T06:38:16Z</time>
      </trkpt>
      <trkpt lat="43.38518" lon="-0.35751">
        <ele>245.22</ele>
        <time>2011-05-29T06:38:23Z</time>
      </trkpt>
      <trkpt lat="43.38527" lon="-0.35745">
        <ele>247.389</ele>
        <time>2011-05-29T06:38:30Z</time>
      </trkpt>
      <trkpt lat="43.38538" lon="-0.35737">
        <ele>248.159</ele>
        <time>2011-05-29T06:38:38Z</time>
      </trkpt>
      <trkpt lat="43.38549" lon="-0.35731">
        <ele>250.508</ele>
        <time>2011-05-29T06:38:47Z</time>
      </trkpt>
      <trkpt lat="43.38562" lon="-0.35725">
        <ele>253.878</ele>
        <time>2011-05-29T06:38:57Z</time>
      </trkpt>
      <trkpt lat="43.38571" lon="-0.35718">
        <ele>256.24</ele>
        <time>2011-05-29T06:39:06Z</time>
      </trkpt>
      <trkpt lat="43.38579" lon="-0.35709">
        <ele>258.766</ele>
        <time>2011-05-29T06:39:15Z</time>
      </trkpt>
      <trkpt lat="43.38583" lon="-0.35694">
        <ele>260.079</ele>
        <time>2011-05-29T06:39:23Z</time>
      </trkpt>
      <trkpt lat="43.38583" lon="-0.35692">
        <ele>260.083</ele>
        <time>2011-05-29T06:39:24Z</time>
      </trkpt>
      <trkpt lat="43.38588" lon="-0.3569">
        <ele>260.819</ele>
        <time>2011-05-29T06:39:29Z</time>
      </trkpt>
      <trkpt lat="43.38588" lon="-0.35692">
        <ele>261.105</ele>
        <time>2011-05-29T06:39:30Z</time>
      </trkpt>
      <trkpt lat="43.38592" lon="-0.35708">
        <ele>263.174</ele>
        <time>2011-05-29T06:39:38Z</time>
      </trkpt>
      <trkpt lat="43.386" lon="-0.35716">
        <ele>265.481</ele>
        <time>2011-05-29T06:39:46Z</time>
      </trkpt>
      <trkpt lat="43.38603" lon="-0.35711">
        <ele>266.866</ele>
        <time>2011-05-29T06:39:50Z</time>
      </trkpt>
      <trkpt lat="43.38603" lon="-0.35704">
        <ele>268.37</ele>
        <time>2011-05-29T06:39:54Z</time>
      </trkpt>
      <trkpt lat="43.386" lon="-0.35678">
        <ele>268.494</ele>
        <time>2011-05-29T06:40:01Z</time>
      </trkpt>
      <trkpt lat="43.38599" lon="-0.3567">
        <ele>268.32</ele>
        <time>2011-05-29T06:40:03Z</time>
      </trkpt>
      <trkpt lat="43.38603" lon="-0.35667">
        <ele>268.762</ele>
        <time>2011-05-29T06:40:07Z</time>
      </trkpt>
      <trkpt lat="43.38607" lon="-0.35671">
        <ele>270.209</ele>
        <time>2011-05-29T06:40:13Z</time>
      </trkpt>
      <trkpt lat="43.38617" lon="-0.35679">
        <ele>273.547</ele>
        <time>2011-05-29T06:40:23Z</time>
      </trkpt>
      <trkpt lat="43.38625" lon="-0.35682">
        <ele>276.008</ele>
        <time>2011-05-29T06:40:30Z</time>
      </trkpt>
      <trkpt lat="43.38633" lon="-0.35674">
        <ele>278.109</ele>
        <time>2011-05-29T06:40:38Z</time>
      </trkpt>
      <trkpt lat="43.3864" lon="-0.35666">
        <ele>279.976</ele>
        <time>2011-05-29T06:40:46Z</time>
      </trkpt>
      <trkpt lat="43.3864" lon="-0.35666">
        <ele>280.21</ele>
        <time>2011-05-29T06:40:47Z</time>
      </trkpt>
      <trkpt lat="43.38642" lon="-0.35656">
        <ele>281.201</ele>
        <time>2011-05-29T06:40:54Z</time>
      </trkpt>
      <trkpt lat="43.38644" lon="-0.3564">
        <ele>282.457</ele>
        <time>2011-05-29T06:41:03Z</time>
      </trkpt>
      <trkpt lat="43.38641" lon="-0.35625">
        <ele>283.921</ele>
        <time>2011-05-29T06:41:11Z</time>
      </trkpt>
      <trkpt lat="43.38641" lon="-0.35622">
        <ele>284.271</ele>
        <time>2011-05-29T06:41:13Z</time>
      </trkpt>
      <trkpt lat="43.38643" lon="-0.35612">
        <ele>285.362</ele>
        <time>2011-05-29T06:41:19Z</time>
      </trkpt>
      <trkpt lat="43.38647" lon="-0.35605">
        <ele>285.969</ele>
        <time>2011-05-29T06:41:24Z</time>
      </trkpt>
      <trkpt lat="43.38647" lon="-0.35601">
        <ele>286.182</ele>
        <time>2011-05-29T06:41:26Z</time>
      </trkpt>
      <trkpt lat="43.38645" lon="-0.35582">
        <ele>286.714</ele>
        <time>2011-05-29T06:41:33Z</time>
      </trkpt>
      <trkpt lat="43.38644" lon="-0.3555">
        <ele>287.514</ele>
        <time>2011-05-29T06:41:42Z</time>
      </trkpt>
      <trkpt lat="43.3865" lon="-0.35518">
        <ele>289.246</ele>
        <time>2011-05-29T06:41:50Z</time>
      </trkpt>
      <trkpt lat="43.38648" lon="-0.35493">
        <ele>290.983</ele>
        <time>2011-05-29T06:41:56Z</time>
      </trkpt>
      <trkpt lat="43.38649" lon="-0.35468">
        <ele>292.168</ele>
        <time>2011-05-29T06:42:02Z</time>
      </trkpt>
      <trkpt lat="43.38653" lon="-0.35436">
        <ele>293.227</ele>
        <time>2011-05-29T06:42:09Z</time>
      </trkpt>
      <trkpt lat="43.38649" lon="-0.35391">
        <ele>293.477</ele>
        <time>2011-05-29T06:42:17Z</time>
      </trkpt>
      <trkpt lat="43.38641" lon="-0.3534">
        <ele>293.798</ele>
        <time>2011-05-29T06:42:25Z</time>
      </trkpt>
      <trkpt lat="43.38638" lon="-0.3531">
        <ele>293.599</ele>
        <time>2011-05-29T06:42:30Z</time>
      </trkpt>
      <trkpt lat="43.38634" lon="-0.35282">
        <ele>293.406</ele>
        <time>2011-05-29T06:42:34Z</time>
      </trkpt>
      <trkpt lat="43.38639" lon="-0.35242">
        <ele>292.798</ele>
        <time>2011-05-29T06:42:39Z</time>
      </trkpt>
      <trkpt lat="43.38642" lon="-0.35235">
        <ele>292.612</ele>
        <time>2011-05-29T06:42:40Z</time>
      </trkpt>
      <trkpt lat="43.38661" lon="-0.35192">
        <ele>292.434</ele>
        <time>2011-05-29T06:42:46Z</time>
      </trkpt>
      <trkpt lat="43.38676" lon="-0.35129">
        <ele>291.973</ele>
        <time>2011-05-29T06:42:53Z</time>
      </trkpt>
      <trkpt lat="43.38685" lon="-0.35085">
        <ele>292.068</ele>
        <time>2011-05-29T06:42:58Z</time>
      </trkpt>
      <trkpt lat="43.387" lon="-0.35001">
        <ele>292.793</ele>
        <time>2011-05-29T06:43:08Z</time>
      </trkpt>
      <trkpt lat="43.38708" lon="-0.34953">
        <ele>292.789</ele>
        <time>2011-05-29T06:43:14Z</time>
      </trkpt>
      <trkpt lat="43.38717" lon="-0.34937">
        <ele>292.792</ele>
        <time>2011-05-29T06:43:18Z</time>
      </trkpt>
      <trkpt lat="43.38725" lon="-0.34937">
        <ele>292.818</ele>
        <time>2011-05-29T06:43:20Z</time>
      </trkpt>
      <trkpt lat="43.38738" lon="-0.34941">
        <ele>292.826</ele>
        <time>2011-05-29T06:43:23Z</time>
      </trkpt>
      <trkpt lat="43.38753" lon="-0.34937">
        <ele>292.497</ele>
        <time>2011-05-29T06:43:27Z</time>
      </trkpt>
      <trkpt lat="43.38761" lon="-0.3492">
        <ele>292.115</ele>
        <time>2011-05-29T06:43:30Z</time>
      </trkpt>
      <trkpt lat="43.3878" lon="-0.34872">
        <ele>291.837</ele>
        <time>2011-05-29T06:43:36Z</time>
      </trkpt>
      <trkpt lat="43.38784" lon="-0.34863">
        <ele>291.844</ele>
        <time>2011-05-29T06:43:37Z</time>
      </trkpt>
      <trkpt lat="43.3879" lon="-0.34846">
        <ele>291.799</ele>
        <time>2011-05-29T06:43:39Z</time>
      </trkpt>
      <trkpt lat="43.38802" lon="-0.3478">
        <ele>291.212</ele>
        <time>2011-05-29T06:43:45Z</time>
      </trkpt>
      <trkpt lat="43.38806" lon="-0.34757">
        <ele>290.818</ele>
        <time>2011-05-29T06:43:47Z</time>
      </trkpt>
      <trkpt lat="43.38828" lon="-0.34706">
        <ele>289.018</ele>
        <time>2011-05-29T06:43:52Z</time>
      </trkpt>
      <trkpt lat="43.38843" lon="-0.34647">
        <ele>286.366</ele>
        <time>2011-05-29T06:43:57Z</time>
      </trkpt>
      <trkpt lat="43.38847" lon="-0.34623">
        <ele>285.319</ele>
        <time>2011-05-29T06:43:59Z</time>
      </trkpt>
      <trkpt lat="43.3884" lon="-0.34578">
        <ele>283.87</ele>
        <time>2011-05-29T06:44:03Z</time>
      </trkpt>
      <trkpt lat="43.38818" lon="-0.34522">
        <ele>281.714</ele>
        <time>2011-05-29T06:44:08Z</time>
      </trkpt>
      <trkpt lat="43.38808" lon="-0.34499">
        <ele>280.981</ele>
        <time>2011-05-29T06:44:10Z</time>
      </trkpt>
      <trkpt lat="43.38799" lon="-0.34462">
        <ele>279.428</ele>
        <time>2011-05-29T06:44:13Z</time>
      </trkpt>
      <trkpt lat="43.38796" lon="-0.34383">
        <ele>275.994</ele>
        <time>2011-05-29T06:44:19Z</time>
      </trkpt>
      <trkpt lat="43.38801" lon="-0.34346">
        <ele>275.128</ele>
        <time>2011-05-29T06:44:22Z</time>
      </trkpt>
      <trkpt lat="43.38798" lon="-0.34299">
        <ele>274.61</ele>
        <time>2011-05-29T06:44:26Z</time>
      </trkpt>
      <trkpt lat="43.38779" lon="-0.34232">
        <ele>274.022</ele>
        <time>2011-05-29T06:44:32Z</time>
      </trkpt>
      <trkpt lat="43.38775" lon="-0.34222">
        <ele>273.908</ele>
        <time>2011-05-29T06:44:33Z</time>
      </trkpt>
      <trkpt lat="43.38746" lon="-0.34178">
        <ele>273.415</ele>
        <time>2011-05-29T06:44:38Z</time>
      </trkpt>
      <trkpt lat="43.38717" lon="-0.34154">
        <ele>272.726</ele>
        <time>2011-05-29T06:44:42Z</time>
      </trkpt>
      <trkpt lat="43.38684" lon="-0.34138">
        <ele>271.74</ele>
        <time>2011-05-29T06:44:46Z</time>
      </trkpt>
      <trkpt lat="43.38664" lon="-0.3412">
        <ele>270.698</ele>
        <time>2011-05-29T06:44:49Z</time>
      </trkpt>
      <trkpt lat="43.38646" lon="-0.34081">
        <ele>269.249</ele>
        <time>2011-05-29T06:44:53Z</time>
      </trkpt>
      <trkpt lat="43.38652" lon="-0.34048">
        <ele>267.444</ele>
        <time>2011-05-29T06:44:58Z</time>
      </trkpt>
      <trkpt lat="43.38665" lon="-0.34026">
        <ele>266.797</ele>
        <time>2011-05-29T06:45:01Z</time>
      </trkpt>
      <trkpt lat="43.38672" lon="-0.34011">
        <ele>266.561</ele>
        <time>2011-05-29T06:45:03Z</time>
      </trkpt>
      <trkpt lat="43.38692" lon="-0.33962">
        <ele>266.114</ele>
        <time>2011-05-29T06:45:08Z</time>
      </trkpt>
      <trkpt lat="43.38724" lon="-0.33897">
        <ele>262.746</ele>
        <time>2011-05-29T06:45:14Z</time>
      </trkpt>
      <trkpt lat="43.38738" lon="-0.33859">
        <ele>261.015</ele>
        <time>2011-05-29T06:45:17Z</time>
      </trkpt>
      <trkpt lat="43.38753" lon="-0.33788">
        <ele>256.504</ele>
        <time>2011-05-29T06:45:22Z</time>
      </trkpt>
      <trkpt lat="43.38759" lon="-0.33758">
        <ele>254.205</ele>
        <time>2011-05-29T06:45:24Z</time>
      </trkpt>
      <trkpt lat="43.38769" lon="-0.33718">
        <ele>249.985</ele>
        <time>2011-05-29T06:45:27Z</time>
      </trkpt>
      <trkpt lat="43.38773" lon="-0.33664">
        <ele>243.619</ele>
        <time>2011-05-29T06:45:31Z</time>
      </trkpt>
      <trkpt lat="43.38767" lon="-0.33609">
        <ele>237.966</ele>
        <time>2011-05-29T06:45:35Z</time>
      </trkpt>
      <trkpt lat="43.38757" lon="-0.33563">
        <ele>234.268</ele>
        <time>2011-05-29T06:45:40Z</time>
      </trkpt>
      <trkpt lat="43.38744" lon="-0.33552">
        <ele>233.522</ele>
        <time>2011-05-29T06:45:42Z</time>
      </trkpt>
      <trkpt lat="43.38725" lon="-0.33513">
        <ele>232.546</ele>
        <time>2011-05-29T06:45:47Z</time>
      </trkpt>
      <trkpt lat="43.38734" lon="-0.3349">
        <ele>232.482</ele>
        <time>2011-05-29T06:45:50Z</time>
      </trkpt>
      <trkpt lat="43.38767" lon="-0.33444">
        <ele>232.936</ele>
        <time>2011-05-29T06:45:56Z</time>
      </trkpt>
      <trkpt lat="43.38784" lon="-0.33424">
        <ele>233.143</ele>
        <time>2011-05-29T06:45:59Z</time>
      </trkpt>
      <trkpt lat="43.38796" lon="-0.33413">
        <ele>233.199</ele>
        <time>2011-05-29T06:46:01Z</time>
      </trkpt>
      <trkpt lat="43.38807" lon="-0.33401">
        <ele>233.049</ele>
        <time>2011-05-29T06:46:03Z</time>
      </trkpt>
      <trkpt lat="43.38837" lon="-0.33379">
        <ele>232.74</ele>
        <time>2011-05-29T06:46:08Z</time>
      </trkpt>
      <trkpt lat="43.38861" lon="-0.33378">
        <ele>232.386</ele>
        <time>2011-05-29T06:46:12Z</time>
      </trkpt>
      <trkpt lat="43.38871" lon="-0.33387">
        <ele>232.251</ele>
        <time>2011-05-29T06:46:14Z</time>
      </trkpt>
      <trkpt lat="43.38879" lon="-0.33398">
        <ele>232.294</ele>
        <time>2011-05-29T06:46:16Z</time>
      </trkpt>
      <trkpt lat="43.38904" lon="-0.33438">
        <ele>232.537</ele>
        <time>2011-05-29T06:46:23Z</time>
      </trkpt>
      <trkpt lat="43.3893" lon="-0.3348">
        <ele>232.165</ele>
        <time>2011-05-29T06:46:30Z</time>
      </trkpt>
      <trkpt lat="43.3895" lon="-0.33506">
        <ele>232.082</ele>
        <time>2011-05-29T06:46:35Z</time>
      </trkpt>
      <trkpt lat="43.38964" lon="-0.33518">
        <ele>232.077</ele>
        <time>2011-05-29T06:46:38Z</time>
      </trkpt>
      <trkpt lat="43.38986" lon="-0.33534">
        <ele>232.615</ele>
        <time>2011-05-29T06:46:43Z</time>
      </trkpt>
      <trkpt lat="43.39009" lon="-0.3355">
        <ele>232.903</ele>
        <time>2011-05-29T06:46:48Z</time>
      </trkpt>
      <trkpt lat="43.39027" lon="-0.33569">
        <ele>232.953</ele>
        <time>2011-05-29T06:46:53Z</time>
      </trkpt>
      <trkpt lat="43.39039" lon="-0.33567">
        <ele>233.348</ele>
        <time>2011-05-29T06:46:57Z</time>
      </trkpt>
      <trkpt lat="43.39057" lon="-0.33542">
        <ele>234.195</ele>
        <time>2011-05-29T06:47:04Z</time>
      </trkpt>
      <trkpt lat="43.39076" lon="-0.33518">
        <ele>235.522</ele>
        <time>2011-05-29T06:47:11Z</time>
      </trkpt>
      <trkpt lat="43.39095" lon="-0.33497">
        <ele>236.809</ele>
        <time>2011-05-29T06:47:18Z</time>
      </trkpt>
      <trkpt lat="43.39115" lon="-0.33482">
        <ele>237.985</ele>
        <time>2011-05-29T06:47:25Z</time>
      </trkpt>
      <trkpt lat="43.39131" lon="-0.33458">
        <ele>239.211</ele>
        <time>2011-05-29T06:47:32Z</time>
      </trkpt>
      <trkpt lat="43.39146" lon="-0.33441">
        <ele>240.146</ele>
        <time>2011-05-29T06:47:38Z</time>
      </trkpt>
      <trkpt lat="43.39162" lon="-0.33426">
        <ele>240.88</ele>
        <time>2011-05-29T06:47:44Z</time>
      </trkpt>
      <trkpt lat="43.39173" lon="-0.33432">
        <ele>241.582</ele>
        <time>2011-05-29T06:47:48Z</time>
      </trkpt>
      <trkpt lat="43.3919" lon="-0.33449">
        <ele>243.02</ele>
        <time>2011-05-29T06:47:55Z</time>
      </trkpt>
      <trkpt lat="43.39203" lon="-0.3346">
        <ele>244.396</ele>
        <time>2011-05-29T06:48:01Z</time>
      </trkpt>
      <trkpt lat="43.39225" lon="-0.33486">
        <ele>247.842</ele>
        <time>2011-05-29T06:48:12Z</time>
      </trkpt>
      <trkpt lat="43.39234" lon="-0.33504">
        <ele>250.026</ele>
        <time>2011-05-29T06:48:20Z</time>
      </trkpt>
      <trkpt lat="43.3924" lon="-0.33524">
        <ele>252.289</ele>
        <time>2011-05-29T06:48:28Z</time>
      </trkpt>
      <trkpt lat="43.39246" lon="-0.33542">
        <ele>254.338</ele>
        <time>2011-05-29T06:48:36Z</time>
      </trkpt>
      <trkpt lat="43.39258" lon="-0.33545">
        <ele>255.582</ele>
        <time>2011-05-29T06:48:42Z</time>
      </trkpt>
      <trkpt lat="43.39278" lon="-0.33538">
        <ele>258.337</ele>
        <time>2011-05-29T06:48:51Z</time>
      </trkpt>
      <trkpt lat="43.39292" lon="-0.3353">
        <ele>259.755</ele>
        <time>2011-05-29T06:48:57Z</time>
      </trkpt>
      <trkpt lat="43.39312" lon="-0.33522">
        <ele>260.912</ele>
        <time>2011-05-29T06:49:04Z</time>
      </trkpt>
      <trkpt lat="43.39338" lon="-0.33511">
        <ele>262.559</ele>
        <time>2011-05-29T06:49:13Z</time>
      </trkpt>
      <trkpt lat="43.39362" lon="-0.33502">
        <ele>264.425</ele>
        <time>2011-05-29T06:49:22Z</time>
      </trkpt>
      <trkpt lat="43.39386" lon="-0.33497">
        <ele>266.565</ele>
        <time>2011-05-29T06:49:31Z</time>
      </trkpt>
      <trkpt lat="43.39402" lon="-0.33492">
        <ele>269.198</ele>
        <time>2011-05-29T06:49:38Z</time>
      </trkpt>
      <trkpt lat="43.39413" lon="-0.33477">
        <ele>271.961</ele>
        <time>2011-05-29T06:49:45Z</time>
      </trkpt>
      <trkpt lat="43.39425" lon="-0.33457">
        <ele>274.92</ele>
        <time>2011-05-29T06:49:54Z</time>
      </trkpt>
      <trkpt lat="43.39438" lon="-0.33433">
        <ele>278.019</ele>
        <time>2011-05-29T06:50:05Z</time>
      </trkpt>
      <trkpt lat="43.39447" lon="-0.33416">
        <ele>280.727</ele>
        <time>2011-05-29T06:50:13Z</time>
      </trkpt>
      <trkpt lat="43.39457" lon="-0.33398">
        <ele>282.874</ele>
        <time>2011-05-29T06:50:22Z</time>
      </trkpt>
      <trkpt lat="43.39466" lon="-0.33385">
        <ele>284.729</ele>
        <time>2011-05-29T06:50:29Z</time>
      </trkpt>
      <trkpt lat="43.39481" lon="-0.33368">
        <ele>287.824</ele>
        <time>2011-05-29T06:50:39Z</time>
      </trkpt>
      <trkpt lat="43.39495" lon="-0.33352">
        <ele>290.585</ele>
        <time>2011-05-29T06:50:49Z</time>
      </trkpt>
      <trkpt lat="43.39512" lon="-0.33332">
        <ele>293.702</ele>
        <time>2011-05-29T06:51:00Z</time>
      </trkpt>
      <trkpt lat="43.39525" lon="-0.33314">
        <ele>294.846</ele>
        <time>2011-05-29T06:51:08Z</time>
      </trkpt>
      <trkpt lat="43.39539" lon="-0.33277">
        <ele>295.561</ele>
        <time>2011-05-29T06:51:18Z</time>
      </trkpt>
      <trkpt lat="43.39549" lon="-0.33238">
        <ele>296.763</ele>
        <time>2011-05-29T06:51:26Z</time>
      </trkpt>
      <trkpt lat="43.39553" lon="-0.33207">
        <ele>297.595</ele>
        <time>2011-05-29T06:51:32Z</time>
      </trkpt>
      <trkpt lat="43.39553" lon="-0.33184">
        <ele>298.025</ele>
        <time>2011-05-29T06:51:36Z</time>
      </trkpt>
      <trkpt lat="43.39543" lon="-0.33145">
        <ele>298.664</ele>
        <time>2011-05-29T06:51:43Z</time>
      </trkpt>
      <trkpt lat="43.39526" lon="-0.33097">
        <ele>299.007</ele>
        <time>2011-05-29T06:51:51Z</time>
      </trkpt>
      <trkpt lat="43.39509" lon="-0.33053">
        <ele>299.143</ele>
        <time>2011-05-29T06:51:58Z</time>
      </trkpt>
      <trkpt lat="43.39497" lon="-0.33012">
        <ele>298.971</ele>
        <time>2011-05-29T06:52:04Z</time>
      </trkpt>
      <trkpt lat="43.39492" lon="-0.32961">
        <ele>299.122</ele>
        <time>2011-05-29T06:52:11Z</time>
      </trkpt>
      <trkpt lat="43.39479" lon="-0.32881">
        <ele>299.38</ele>
        <time>2011-05-29T06:52:22Z</time>
      </trkpt>
      <trkpt lat="43.39461" lon="-0.32815">
        <ele>299.608</ele>
        <time>2011-05-29T06:52:31Z</time>
      </trkpt>
      <trkpt lat="43.3944" lon="-0.32758">
        <ele>299.081</ele>
        <time>2011-05-29T06:52:38Z</time>
      </trkpt>
      <trkpt lat="43.39421" lon="-0.32706">
        <ele>298.229</ele>
        <time>2011-05-29T06:52:44Z</time>
      </trkpt>
      <trkpt lat="43.39412" lon="-0.32643">
        <ele>297.988</ele>
        <time>2011-05-29T06:52:51Z</time>
      </trkpt>
      <trkpt lat="43.39412" lon="-0.32581">
        <ele>298.28</ele>
        <time>2011-05-29T06:52:58Z</time>
      </trkpt>
      <trkpt lat="43.39415" lon="-0.32531">
        <ele>299.825</ele>
        <time>2011-05-29T06:53:04Z</time>
      </trkpt>
      <trkpt lat="43.39419" lon="-0.32507">
        <ele>301.102</ele>
        <time>2011-05-29T06:53:07Z</time>
      </trkpt>
      <trkpt lat="43.39438" lon="-0.32465">
        <ele>304.182</ele>
        <time>2011-05-29T06:53:14Z</time>
      </trkpt>
      <trkpt lat="43.39454" lon="-0.32423">
        <ele>305.839</ele>
        <time>2011-05-29T06:53:22Z</time>
      </trkpt>
      <trkpt lat="43.39461" lon="-0.32397">
        <ele>306.824</ele>
        <time>2011-05-29T06:53:27Z</time>
      </trkpt>
      <trkpt lat="43.39471" lon="-0.32378">
        <ele>307.678</ele>
        <time>2011-05-29T06:53:32Z</time>
      </trkpt>
      <trkpt lat="43.39501" lon="-0.32354">
        <ele>308.582</ele>
        <time>2011-05-29T06:53:40Z</time>
      </trkpt>
      <trkpt lat="43.39523" lon="-0.32336">
        <ele>308.971</ele>
        <time>2011-05-29T06:53:47Z</time>
      </trkpt>
      <trkpt lat="43.3953" lon="-0.32327">
        <ele>309.053</ele>
        <time>2011-05-29T06:53:50Z</time>
      </trkpt>
      <trkpt lat="43.39563" lon="-0.32305">
        <ele>308.461</ele>
        <time>2011-05-29T06:53:57Z</time>
      </trkpt>
      <trkpt lat="43.39591" lon="-0.32285">
        <ele>307.253</ele>
        <time>2011-05-29T06:54:02Z</time>
      </trkpt>
      <trkpt lat="43.39602" lon="-0.32273">
        <ele>306.709</ele>
        <time>2011-05-29T06:54:04Z</time>
      </trkpt>
      <trkpt lat="43.39638" lon="-0.32226">
        <ele>303.911</ele>
        <time>2011-05-29T06:54:10Z</time>
      </trkpt>
      <trkpt lat="43.39673" lon="-0.32182">
        <ele>299.855</ele>
        <time>2011-05-29T06:54:15Z</time>
      </trkpt>
      <trkpt lat="43.39691" lon="-0.32152">
        <ele>298.404</ele>
        <time>2011-05-29T06:54:18Z</time>
      </trkpt>
      <trkpt lat="43.3972" lon="-0.32112">
        <ele>298.831</ele>
        <time>2011-05-29T06:54:23Z</time>
      </trkpt>
      <trkpt lat="43.39745" lon="-0.32087">
        <ele>300.402</ele>
        <time>2011-05-29T06:54:28Z</time>
      </trkpt>
      <trkpt lat="43.39762" lon="-0.32072">
        <ele>301.646</ele>
        <time>2011-05-29T06:54:33Z</time>
      </trkpt>
      <trkpt lat="43.39783" lon="-0.32052">
        <ele>303.445</ele>
        <time>2011-05-29T06:54:41Z</time>
      </trkpt>
      <trkpt lat="43.39813" lon="-0.32017">
        <ele>305.424</ele>
        <time>2011-05-29T06:54:53Z</time>
      </trkpt>
      <trkpt lat="43.39837" lon="-0.31995">
        <ele>306.595</ele>
        <time>2011-05-29T06:55:02Z</time>
      </trkpt>
      <trkpt lat="43.39858" lon="-0.3198">
        <ele>307.936</ele>
        <time>2011-05-29T06:55:10Z</time>
      </trkpt>
      <trkpt lat="43.39888" lon="-0.31963">
        <ele>310.016</ele>
        <time>2011-05-29T06:55:20Z</time>
      </trkpt>
      <trkpt lat="43.39913" lon="-0.31946">
        <ele>310.819</ele>
        <time>2011-05-29T06:55:28Z</time>
      </trkpt>
      <trkpt lat="43.39936" lon="-0.31925">
        <ele>310.223</ele>
        <time>2011-05-29T06:55:33Z</time>
      </trkpt>
      <trkpt lat="43.39968" lon="-0.31898">
        <ele>308.714</ele>
        <time>2011-05-29T06:55:39Z</time>
      </trkpt>
      <trkpt lat="43.39998" lon="-0.31888">
        <ele>307.609</ele>
        <time>2011-05-29T06:55:44Z</time>
      </trkpt>
      <trkpt lat="43.40019" lon="-0.31894">
        <ele>307.015</ele>
        <time>2011-05-29T06:55:48Z</time>
      </trkpt>
      <trkpt lat="43.40056" lon="-0.31923">
        <ele>305.607</ele>
        <time>2011-05-29T06:55:55Z</time>
      </trkpt>
      <trkpt lat="43.40099" lon="-0.31953">
        <ele>303.905</ele>
        <time>2011-05-29T06:56:03Z</time>
      </trkpt>
      <trkpt lat="43.40103" lon="-0.31956">
        <ele>303.703</ele>
        <time>2011-05-29T06:56:04Z</time>
      </trkpt>
      <trkpt lat="43.40124" lon="-0.31963">
        <ele>303.25</ele>
        <time>2011-05-29T06:56:08Z</time>
      </trkpt>
      <trkpt lat="43.40135" lon="-0.31963">
        <ele>303.001</ele>
        <time>2011-05-29T06:56:10Z</time>
      </trkpt>
      <trkpt lat="43.40152" lon="-0.31973">
        <ele>302.694</ele>
        <time>2011-05-29T06:56:14Z</time>
      </trkpt>
      <trkpt lat="43.40158" lon="-0.31982">
        <ele>302.633</ele>
        <time>2011-05-29T06:56:16Z</time>
      </trkpt>
      <trkpt lat="43.40187" lon="-0.32025">
        <ele>302.336</ele>
        <time>2011-05-29T06:56:25Z</time>
      </trkpt>
      <trkpt lat="43.40192" lon="-0.32033">
        <ele>302.341</ele>
        <time>2011-05-29T06:56:27Z</time>
      </trkpt>
      <trkpt lat="43.40205" lon="-0.32049">
        <ele>302.647</ele>
        <time>2011-05-29T06:56:31Z</time>
      </trkpt>
      <trkpt lat="43.40227" lon="-0.32082">
        <ele>303.207</ele>
        <time>2011-05-29T06:56:38Z</time>
      </trkpt>
      <trkpt lat="43.40257" lon="-0.32128">
        <ele>303.893</ele>
        <time>2011-05-29T06:56:47Z</time>
      </trkpt>
      <trkpt lat="43.4029" lon="-0.32177">
        <ele>304.959</ele>
        <time>2011-05-29T06:56:57Z</time>
      </trkpt>
      <trkpt lat="43.40319" lon="-0.32217">
        <ele>306.03</ele>
        <time>2011-05-29T06:57:05Z</time>
      </trkpt>
      <trkpt lat="43.40345" lon="-0.32259">
        <ele>306.264</ele>
        <time>2011-05-29T06:57:13Z</time>
      </trkpt>
      <trkpt lat="43.40373" lon="-0.32304">
        <ele>306.271</ele>
        <time>2011-05-29T06:57:21Z</time>
      </trkpt>
      <trkpt lat="43.40403" lon="-0.32357">
        <ele>306.188</ele>
        <time>2011-05-29T06:57:30Z</time>
      </trkpt>
      <trkpt lat="43.40419" lon="-0.3238">
        <ele>306.194</ele>
        <time>2011-05-29T06:57:34Z</time>
      </trkpt>
      <trkpt lat="43.40461" lon="-0.32422">
        <ele>305.74</ele>
        <time>2011-05-29T06:57:43Z</time>
      </trkpt>
      <trkpt lat="43.40507" lon="-0.32464">
        <ele>305.217</ele>
        <time>2011-05-29T06:57:52Z</time>
      </trkpt>
      <trkpt lat="43.40549" lon="-0.32505">
        <ele>304.812</ele>
        <time>2011-05-29T06:58:00Z</time>
      </trkpt>
      <trkpt lat="43.40605" lon="-0.3256">
        <ele>304.154</ele>
        <time>2011-05-29T06:58:10Z</time>
      </trkpt>
      <trkpt lat="43.40646" lon="-0.32609">
        <ele>303.858</ele>
        <time>2011-05-29T06:58:18Z</time>
      </trkpt>
      <trkpt lat="43.40677" lon="-0.32663">
        <ele>304.218</ele>
        <time>2011-05-29T06:58:26Z</time>
      </trkpt>
      <trkpt lat="43.40711" lon="-0.32725">
        <ele>304.311</ele>
        <time>2011-05-29T06:58:35Z</time>
      </trkpt>
      <trkpt lat="43.40744" lon="-0.32772">
        <ele>303.76</ele>
        <time>2011-05-29T06:58:42Z</time>
      </trkpt>
      <trkpt lat="43.40786" lon="-0.32815">
        <ele>302.504</ele>
        <time>2011-05-29T06:58:49Z</time>
      </trkpt>
      <trkpt lat="43.40823" lon="-0.32846">
        <ele>301.613</ele>
        <time>2011-05-29T06:58:55Z</time>
      </trkpt>
      <trkpt lat="43.40841" lon="-0.32859">
        <ele>301.167</ele>
        <time>2011-05-29T06:58:58Z</time>
      </trkpt>
      <trkpt lat="43.40882" lon="-0.32873">
        <ele>299.687</ele>
        <time>2011-05-29T06:59:04Z</time>
      </trkpt>
      <trkpt lat="43.40911" lon="-0.32876">
        <ele>299.151</ele>
        <time>2011-05-29T06:59:08Z</time>
      </trkpt>
      <trkpt lat="43.40959" lon="-0.32882">
        <ele>299.33</ele>
        <time>2011-05-29T06:59:15Z</time>
      </trkpt>
      <trkpt lat="43.40996" lon="-0.32898">
        <ele>300.198</ele>
        <time>2011-05-29T06:59:21Z</time>
      </trkpt>
      <trkpt lat="43.41041" lon="-0.32929">
        <ele>299.843</ele>
        <time>2011-05-29T06:59:28Z</time>
      </trkpt>
      <trkpt lat="43.41105" lon="-0.32985">
        <ele>298.154</ele>
        <time>2011-05-29T06:59:38Z</time>
      </trkpt>
      <trkpt lat="43.41161" lon="-0.33037">
        <ele>295.945</ele>
        <time>2011-05-29T06:59:47Z</time>
      </trkpt>
      <trkpt lat="43.41186" lon="-0.33066">
        <ele>294.192</ele>
        <time>2011-05-29T06:59:51Z</time>
      </trkpt>
      <trkpt lat="43.41207" lon="-0.3309">
        <ele>291.051</ele>
        <time>2011-05-29T06:59:55Z</time>
      </trkpt>
      <trkpt lat="43.41217" lon="-0.33108">
        <ele>288.763</ele>
        <time>2011-05-29T06:59:58Z</time>
      </trkpt>
      <trkpt lat="43.41225" lon="-0.33141">
        <ele>286.234</ele>
        <time>2011-05-29T07:00:03Z</time>
      </trkpt>
      <trkpt lat="43.41239" lon="-0.33162">
        <ele>283.354</ele>
        <time>2011-05-29T07:00:07Z</time>
      </trkpt>
      <trkpt lat="43.41244" lon="-0.33165">
        <ele>282.647</ele>
        <time>2011-05-29T07:00:08Z</time>
      </trkpt>
      <trkpt lat="43.41268" lon="-0.33171">
        <ele>280.212</ele>
        <time>2011-05-29T07:00:13Z</time>
      </trkpt>
      <trkpt lat="43.4128" lon="-0.33175">
        <ele>279.799</ele>
        <time>2011-05-29T07:00:15Z</time>
      </trkpt>
      <trkpt lat="43.413" lon="-0.33196">
        <ele>278.476</ele>
        <time>2011-05-29T07:00:19Z</time>
      </trkpt>
      <trkpt lat="43.41325" lon="-0.33211">
        <ele>276.278</ele>
        <time>2011-05-29T07:00:22Z</time>
      </trkpt>
      <trkpt lat="43.41341" lon="-0.33214">
        <ele>275.326</ele>
        <time>2011-05-29T07:00:24Z</time>
      </trkpt>
      <trkpt lat="43.41353" lon="-0.33216">
        <ele>272.853</ele>
        <time>2011-05-29T07:00:26Z</time>
      </trkpt>
      <trkpt lat="43.41353" lon="-0.33237">
        <ele>267.592</ele>
        <time>2011-05-29T07:00:30Z</time>
      </trkpt>
      <trkpt lat="43.41334" lon="-0.33261">
        <ele>263.33</ele>
        <time>2011-05-29T07:00:33Z</time>
      </trkpt>
      <trkpt lat="43.41326" lon="-0.33265">
        <ele>262.059</ele>
        <time>2011-05-29T07:00:34Z</time>
      </trkpt>
      <trkpt lat="43.41311" lon="-0.33273">
        <ele>259.505</ele>
        <time>2011-05-29T07:00:36Z</time>
      </trkpt>
      <trkpt lat="43.4129" lon="-0.33283">
        <ele>255.445</ele>
        <time>2011-05-29T07:00:39Z</time>
      </trkpt>
      <trkpt lat="43.41288" lon="-0.33306">
        <ele>250.567</ele>
        <time>2011-05-29T07:00:43Z</time>
      </trkpt>
      <trkpt lat="43.41294" lon="-0.3331">
        <ele>249.433</ele>
        <time>2011-05-29T07:00:44Z</time>
      </trkpt>
      <trkpt lat="43.41326" lon="-0.33348">
        <ele>244.32</ele>
        <time>2011-05-29T07:00:49Z</time>
      </trkpt>
      <trkpt lat="43.41336" lon="-0.33389">
        <ele>242.11</ele>
        <time>2011-05-29T07:00:53Z</time>
      </trkpt>
      <trkpt lat="43.4134" lon="-0.33403">
        <ele>241.442</ele>
        <time>2011-05-29T07:00:55Z</time>
      </trkpt>
      <trkpt lat="43.41349" lon="-0.33428">
        <ele>241.347</ele>
        <time>2011-05-29T07:00:59Z</time>
      </trkpt>
      <trkpt lat="43.41367" lon="-0.33472">
        <ele>242.711</ele>
        <time>2011-05-29T07:01:08Z</time>
      </trkpt>
      <trkpt lat="43.41381" lon="-0.33496">
        <ele>243.655</ele>
        <time>2011-05-29T07:01:14Z</time>
      </trkpt>
      <trkpt lat="43.41399" lon="-0.33518">
        <ele>245.403</ele>
        <time>2011-05-29T07:01:22Z</time>
      </trkpt>
      <trkpt lat="43.41408" lon="-0.33528">
        <ele>246.736</ele>
        <time>2011-05-29T07:01:27Z</time>
      </trkpt>
      <trkpt lat="43.41425" lon="-0.33542">
        <ele>248.526</ele>
        <time>2011-05-29T07:01:34Z</time>
      </trkpt>
      <trkpt lat="43.41438" lon="-0.33555">
        <ele>250.245</ele>
        <time>2011-05-29T07:01:40Z</time>
      </trkpt>
      <trkpt lat="43.41452" lon="-0.33576">
        <ele>252.182</ele>
        <time>2011-05-29T07:01:47Z</time>
      </trkpt>
      <trkpt lat="43.41463" lon="-0.33597">
        <ele>253.364</ele>
        <time>2011-05-29T07:01:54Z</time>
      </trkpt>
      <trkpt lat="43.41477" lon="-0.33623">
        <ele>254.491</ele>
        <time>2011-05-29T07:02:02Z</time>
      </trkpt>
      <trkpt lat="43.41487" lon="-0.33654">
        <ele>255.53</ele>
        <time>2011-05-29T07:02:10Z</time>
      </trkpt>
      <trkpt lat="43.41493" lon="-0.33683">
        <ele>257.163</ele>
        <time>2011-05-29T07:02:18Z</time>
      </trkpt>
      <trkpt lat="43.41497" lon="-0.33714">
        <ele>259.084</ele>
        <time>2011-05-29T07:02:27Z</time>
      </trkpt>
      <trkpt lat="43.41506" lon="-0.33745">
        <ele>261.379</ele>
        <time>2011-05-29T07:02:37Z</time>
      </trkpt>
      <trkpt lat="43.41518" lon="-0.33767">
        <ele>263.691</ele>
        <time>2011-05-29T07:02:46Z</time>
      </trkpt>
      <trkpt lat="43.41526" lon="-0.33781">
        <ele>265.281</ele>
        <time>2011-05-29T07:02:52Z</time>
      </trkpt>
      <trkpt lat="43.41538" lon="-0.33792">
        <ele>266.181</ele>
        <time>2011-05-29T07:02:58Z</time>
      </trkpt>
      <trkpt lat="43.41549" lon="-0.33803">
        <ele>266.635</ele>
        <time>2011-05-29T07:03:03Z</time>
      </trkpt>
      <trkpt lat="43.41549" lon="-0.33831">
        <ele>267.94</ele>
        <time>2011-05-29T07:03:10Z</time>
      </trkpt>
      <trkpt lat="43.41541" lon="-0.33852">
        <ele>269.644</ele>
        <time>2011-05-29T07:03:17Z</time>
      </trkpt>
      <trkpt lat="43.41529" lon="-0.33868">
        <ele>271.075</ele>
        <time>2011-05-29T07:03:23Z</time>
      </trkpt>
      <trkpt lat="43.4151" lon="-0.33883">
        <ele>274.008</ele>
        <time>2011-05-29T07:03:32Z</time>
      </trkpt>
      <trkpt lat="43.415" lon="-0.33902">
        <ele>277.232</ele>
        <time>2011-05-29T07:03:40Z</time>
      </trkpt>
      <trkpt lat="43.41493" lon="-0.33926">
        <ele>279.776</ele>
        <time>2011-05-29T07:03:48Z</time>
      </trkpt>
      <trkpt lat="43.4149" lon="-0.33946">
        <ele>282.337</ele>
        <time>2011-05-29T07:03:55Z</time>
      </trkpt>
      <trkpt lat="43.4149" lon="-0.3397">
        <ele>285.077</ele>
        <time>2011-05-29T07:04:03Z</time>
      </trkpt>
      <trkpt lat="43.4149" lon="-0.33999">
        <ele>287.273</ele>
        <time>2011-05-29T07:04:12Z</time>
      </trkpt>
      <trkpt lat="43.41491" lon="-0.34026">
        <ele>289.37</ele>
        <time>2011-05-29T07:04:21Z</time>
      </trkpt>
      <trkpt lat="43.41494" lon="-0.34054">
        <ele>290.656</ele>
        <time>2011-05-29T07:04:29Z</time>
      </trkpt>
      <trkpt lat="43.41495" lon="-0.34074">
        <ele>291.409</ele>
        <time>2011-05-29T07:04:34Z</time>
      </trkpt>
      <trkpt lat="43.415" lon="-0.34109">
        <ele>292.818</ele>
        <time>2011-05-29T07:04:43Z</time>
      </trkpt>
      <trkpt lat="43.415" lon="-0.34113">
        <ele>293.046</ele>
        <time>2011-05-29T07:04:44Z</time>
      </trkpt>
      <trkpt lat="43.41511" lon="-0.34118">
        <ele>293.778</ele>
        <time>2011-05-29T07:04:49Z</time>
      </trkpt>
      <trkpt lat="43.41514" lon="-0.34115">
        <ele>293.871</ele>
        <time>2011-05-29T07:04:50Z</time>
      </trkpt>
      <trkpt lat="43.41537" lon="-0.3409">
        <ele>293.524</ele>
        <time>2011-05-29T07:04:56Z</time>
      </trkpt>
      <trkpt lat="43.41548" lon="-0.34078">
        <ele>292.909</ele>
        <time>2011-05-29T07:04:58Z</time>
      </trkpt>
      <trkpt lat="43.41577" lon="-0.34068">
        <ele>291.564</ele>
        <time>2011-05-29T07:05:02Z</time>
      </trkpt>
      <trkpt lat="43.41585" lon="-0.34069">
        <ele>291.005</ele>
        <time>2011-05-29T07:05:03Z</time>
      </trkpt>
      <trkpt lat="43.41602" lon="-0.34071">
        <ele>289.84</ele>
        <time>2011-05-29T07:05:05Z</time>
      </trkpt>
      <trkpt lat="43.41644" lon="-0.34061">
        <ele>287.311</ele>
        <time>2011-05-29T07:05:10Z</time>
      </trkpt>
      <trkpt lat="43.41658" lon="-0.34055">
        <ele>286.072</ele>
        <time>2011-05-29T07:05:12Z</time>
      </trkpt>
      <trkpt lat="43.41675" lon="-0.34058">
        <ele>283.992</ele>
        <time>2011-05-29T07:05:15Z</time>
      </trkpt>
      <trkpt lat="43.41692" lon="-0.34079">
        <ele>282.359</ele>
        <time>2011-05-29T07:05:19Z</time>
      </trkpt>
      <trkpt lat="43.41702" lon="-0.34087">
        <ele>282.424</ele>
        <time>2011-05-29T07:05:21Z</time>
      </trkpt>
      <trkpt lat="43.41732" lon="-0.3411">
        <ele>285.293</ele>
        <time>2011-05-29T07:05:28Z</time>
      </trkpt>
      <trkpt lat="43.41744" lon="-0.34119">
        <ele>287.047</ele>
        <time>2011-05-29T07:05:31Z</time>
      </trkpt>
      <trkpt lat="43.41774" lon="-0.34142">
        <ele>288.717</ele>
        <time>2011-05-29T07:05:39Z</time>
      </trkpt>
      <trkpt lat="43.41786" lon="-0.34153">
        <ele>288.876</ele>
        <time>2011-05-29T07:05:42Z</time>
      </trkpt>
      <trkpt lat="43.418" lon="-0.34177">
        <ele>288.567</ele>
        <time>2011-05-29T07:05:46Z</time>
      </trkpt>
      <trkpt lat="43.41818" lon="-0.34234">
        <ele>287.965</ele>
        <time>2011-05-29T07:05:54Z</time>
      </trkpt>
      <trkpt lat="43.41828" lon="-0.34267">
        <ele>288.711</ele>
        <time>2011-05-29T07:05:59Z</time>
      </trkpt>
      <trkpt lat="43.41837" lon="-0.34282">
        <ele>289.362</ele>
        <time>2011-05-29T07:06:02Z</time>
      </trkpt>
      <trkpt lat="43.41863" lon="-0.34307">
        <ele>291.266</ele>
        <time>2011-05-29T07:06:08Z</time>
      </trkpt>
      <trkpt lat="43.41883" lon="-0.34327">
        <ele>292.71</ele>
        <time>2011-05-29T07:06:13Z</time>
      </trkpt>
      <trkpt lat="43.41898" lon="-0.3433">
        <ele>293.322</ele>
        <time>2011-05-29T07:06:17Z</time>
      </trkpt>
      <trkpt lat="43.41903" lon="-0.34319">
        <ele>293.49</ele>
        <time>2011-05-29T07:06:19Z</time>
      </trkpt>
      <trkpt lat="43.4192" lon="-0.34271">
        <ele>292.675</ele>
        <time>2011-05-29T07:06:25Z</time>
      </trkpt>
      <trkpt lat="43.41944" lon="-0.34217">
        <ele>290.839</ele>
        <time>2011-05-29T07:06:31Z</time>
      </trkpt>
      <trkpt lat="43.41981" lon="-0.34151">
        <ele>289.161</ele>
        <time>2011-05-29T07:06:39Z</time>
      </trkpt>
      <trkpt lat="43.42023" lon="-0.34085">
        <ele>286.997</ele>
        <time>2011-05-29T07:06:47Z</time>
      </trkpt>
      <trkpt lat="43.42042" lon="-0.34042">
        <ele>284.9</ele>
        <time>2011-05-29T07:06:51Z</time>
      </trkpt>
      <trkpt lat="43.42052" lon="-0.3399">
        <ele>282.453</ele>
        <time>2011-05-29T07:06:55Z</time>
      </trkpt>
      <trkpt lat="43.42062" lon="-0.3394">
        <ele>278.959</ele>
        <time>2011-05-29T07:06:59Z</time>
      </trkpt>
      <trkpt lat="43.42068" lon="-0.3393">
        <ele>277.898</ele>
        <time>2011-05-29T07:07:00Z</time>
      </trkpt>
      <trkpt lat="43.42107" lon="-0.3388">
        <ele>272.712</ele>
        <time>2011-05-29T07:07:05Z</time>
      </trkpt>
      <trkpt lat="43.42132" lon="-0.33856">
        <ele>270.828</ele>
        <time>2011-05-29T07:07:08Z</time>
      </trkpt>
      <trkpt lat="43.42183" lon="-0.33815">
        <ele>265.463</ele>
        <time>2011-05-29T07:07:13Z</time>
      </trkpt>
      <trkpt lat="43.42253" lon="-0.33753">
        <ele>257.123</ele>
        <time>2011-05-29T07:07:20Z</time>
      </trkpt>
      <trkpt lat="43.42292" lon="-0.33706">
        <ele>252.932</ele>
        <time>2011-05-29T07:07:25Z</time>
      </trkpt>
      <trkpt lat="43.42326" lon="-0.3365">
        <ele>248.697</ele>
        <time>2011-05-29T07:07:30Z</time>
      </trkpt>
      <trkpt lat="43.4235" lon="-0.33599">
        <ele>245.591</ele>
        <time>2011-05-29T07:07:34Z</time>
      </trkpt>
      <trkpt lat="43.4239" lon="-0.33529">
        <ele>239.799</ele>
        <time>2011-05-29T07:07:40Z</time>
      </trkpt>
      <trkpt lat="43.42396" lon="-0.33518">
        <ele>238.772</ele>
        <time>2011-05-29T07:07:41Z</time>
      </trkpt>
      <trkpt lat="43.42428" lon="-0.33487">
        <ele>233.456</ele>
        <time>2011-05-29T07:07:45Z</time>
      </trkpt>
      <trkpt lat="43.4246" lon="-0.33453">
        <ele>227.834</ele>
        <time>2011-05-29T07:07:49Z</time>
      </trkpt>
      <trkpt lat="43.42485" lon="-0.33439">
        <ele>225.382</ele>
        <time>2011-05-29T07:07:52Z</time>
      </trkpt>
      <trkpt lat="43.42502" lon="-0.33435">
        <ele>224.644</ele>
        <time>2011-05-29T07:07:54Z</time>
      </trkpt>
      <trkpt lat="43.42569" lon="-0.33424">
        <ele>223.353</ele>
        <time>2011-05-29T07:08:01Z</time>
      </trkpt>
      <trkpt lat="43.4264" lon="-0.33408">
        <ele>221.302</ele>
        <time>2011-05-29T07:08:09Z</time>
      </trkpt>
      <trkpt lat="43.42673" lon="-0.33413">
        <ele>219.17</ele>
        <time>2011-05-29T07:08:13Z</time>
      </trkpt>
      <trkpt lat="43.42679" lon="-0.33417">
        <ele>218.481</ele>
        <time>2011-05-29T07:08:14Z</time>
      </trkpt>
      <trkpt lat="43.42692" lon="-0.33426">
        <ele>216.287</ele>
        <time>2011-05-29T07:08:17Z</time>
      </trkpt>
      <trkpt lat="43.42694" lon="-0.33408">
        <ele>214.493</ele>
        <time>2011-05-29T07:08:20Z</time>
      </trkpt>
      <trkpt lat="43.42695" lon="-0.33392">
        <ele>213.766</ele>
        <time>2011-05-29T07:08:22Z</time>
      </trkpt>
      <trkpt lat="43.42707" lon="-0.33375">
        <ele>213.416</ele>
        <time>2011-05-29T07:08:25Z</time>
      </trkpt>
      <trkpt lat="43.42732" lon="-0.33365">
        <ele>213.178</ele>
        <time>2011-05-29T07:08:29Z</time>
      </trkpt>
      <trkpt lat="43.42777" lon="-0.33347">
        <ele>213.012</ele>
        <time>2011-05-29T07:08:36Z</time>
      </trkpt>
      <trkpt lat="43.42783" lon="-0.33345">
        <ele>213.201</ele>
        <time>2011-05-29T07:08:37Z</time>
      </trkpt>
      <trkpt lat="43.4281" lon="-0.33342">
        <ele>214.652</ele>
        <time>2011-05-29T07:08:42Z</time>
      </trkpt>
      <trkpt lat="43.42833" lon="-0.33337">
        <ele>216.049</ele>
        <time>2011-05-29T07:08:47Z</time>
      </trkpt>
      <trkpt lat="43.42847" lon="-0.33338">
        <ele>217.257</ele>
        <time>2011-05-29T07:08:52Z</time>
      </trkpt>
      <trkpt lat="43.42863" lon="-0.33339">
        <ele>219.158</ele>
        <time>2011-05-29T07:08:58Z</time>
      </trkpt>
      <trkpt lat="43.42879" lon="-0.33338">
        <ele>220.867</ele>
        <time>2011-05-29T07:09:04Z</time>
      </trkpt>
      <trkpt lat="43.42894" lon="-0.33334">
        <ele>223.065</ele>
        <time>2011-05-29T07:09:11Z</time>
      </trkpt>
      <trkpt lat="43.42905" lon="-0.33334">
        <ele>224.813</ele>
        <time>2011-05-29T07:09:17Z</time>
      </trkpt>
      <trkpt lat="43.42919" lon="-0.33333">
        <ele>227.609</ele>
        <time>2011-05-29T07:09:25Z</time>
      </trkpt>
      <trkpt lat="43.42929" lon="-0.33337">
        <ele>229.341</ele>
        <time>2011-05-29T07:09:32Z</time>
      </trkpt>
      <trkpt lat="43.42932" lon="-0.33336">
        <ele>229.783</ele>
        <time>2011-05-29T07:09:34Z</time>
      </trkpt>
      <trkpt lat="43.42946" lon="-0.33337">
        <ele>231.697</ele>
        <time>2011-05-29T07:09:42Z</time>
      </trkpt>
      <trkpt lat="43.42954" lon="-0.33339">
        <ele>233.209</ele>
        <time>2011-05-29T07:09:47Z</time>
      </trkpt>
      <trkpt lat="43.42961" lon="-0.3334">
        <ele>234.722</ele>
        <time>2011-05-29T07:09:52Z</time>
      </trkpt>
      <trkpt lat="43.42976" lon="-0.33344">
        <ele>236.749</ele>
        <time>2011-05-29T07:09:59Z</time>
      </trkpt>
      <trkpt lat="43.42992" lon="-0.33349">
        <ele>238.174</ele>
        <time>2011-05-29T07:10:07Z</time>
      </trkpt>
      <trkpt lat="43.43009" lon="-0.33355">
        <ele>239.409</ele>
        <time>2011-05-29T07:10:14Z</time>
      </trkpt>
      <trkpt lat="43.43023" lon="-0.33353">
        <ele>240.299</ele>
        <time>2011-05-29T07:10:20Z</time>
      </trkpt>
      <trkpt lat="43.43035" lon="-0.33341">
        <ele>241.784</ele>
        <time>2011-05-29T07:10:26Z</time>
      </trkpt>
      <trkpt lat="43.43046" lon="-0.33327">
        <ele>243.619</ele>
        <time>2011-05-29T07:10:33Z</time>
      </trkpt>
      <trkpt lat="43.43062" lon="-0.33307">
        <ele>245.447</ele>
        <time>2011-05-29T07:10:42Z</time>
      </trkpt>
      <trkpt lat="43.43079" lon="-0.33281">
        <ele>246.689</ele>
        <time>2011-05-29T07:10:52Z</time>
      </trkpt>
      <trkpt lat="43.43081" lon="-0.33278">
        <ele>246.802</ele>
        <time>2011-05-29T07:10:53Z</time>
      </trkpt>
      <trkpt lat="43.43075" lon="-0.33271">
        <ele>246.878</ele>
        <time>2011-05-29T07:10:57Z</time>
      </trkpt>
      <trkpt lat="43.43067" lon="-0.33258">
        <ele>246.974</ele>
        <time>2011-05-29T07:11:01Z</time>
      </trkpt>
      <trkpt lat="43.43068" lon="-0.3324">
        <ele>247.13</ele>
        <time>2011-05-29T07:11:04Z</time>
      </trkpt>
      <trkpt lat="43.43078" lon="-0.33196">
        <ele>246.8</ele>
        <time>2011-05-29T07:11:10Z</time>
      </trkpt>
      <trkpt lat="43.43079" lon="-0.33188">
        <ele>246.607</ele>
        <time>2011-05-29T07:11:11Z</time>
      </trkpt>
      <trkpt lat="43.43085" lon="-0.33112">
        <ele>244.648</ele>
        <time>2011-05-29T07:11:19Z</time>
      </trkpt>
      <trkpt lat="43.43087" lon="-0.33038">
        <ele>243.599</ele>
        <time>2011-05-29T07:11:27Z</time>
      </trkpt>
      <trkpt lat="43.43089" lon="-0.32929">
        <ele>242.844</ele>
        <time>2011-05-29T07:11:39Z</time>
      </trkpt>
      <trkpt lat="43.43085" lon="-0.32849">
        <ele>243.206</ele>
        <time>2011-05-29T07:11:48Z</time>
      </trkpt>
      <trkpt lat="43.43078" lon="-0.32803">
        <ele>243.391</ele>
        <time>2011-05-29T07:11:54Z</time>
      </trkpt>
      <trkpt lat="43.43072" lon="-0.32779">
        <ele>243.604</ele>
        <time>2011-05-29T07:11:59Z</time>
      </trkpt>
      <trkpt lat="43.43069" lon="-0.32768">
        <ele>243.614</ele>
        <time>2011-05-29T07:12:02Z</time>
      </trkpt>
      <trkpt lat="43.43076" lon="-0.32752">
        <ele>243.447</ele>
        <time>2011-05-29T07:12:07Z</time>
      </trkpt>
      <trkpt lat="43.43096" lon="-0.32726">
        <ele>243.102</ele>
        <time>2011-05-29T07:12:14Z</time>
      </trkpt>
      <trkpt lat="43.43112" lon="-0.32708">
        <ele>242.847</ele>
        <time>2011-05-29T07:12:18Z</time>
      </trkpt>
      <trkpt lat="43.43142" lon="-0.32671">
        <ele>241.919</ele>
        <time>2011-05-29T07:12:25Z</time>
      </trkpt>
      <trkpt lat="43.43185" lon="-0.32621">
        <ele>241.076</ele>
        <time>2011-05-29T07:12:34Z</time>
      </trkpt>
      <trkpt lat="43.43192" lon="-0.3261">
        <ele>240.967</ele>
        <time>2011-05-29T07:12:36Z</time>
      </trkpt>
      <trkpt lat="43.4322" lon="-0.32584">
        <ele>240.806</ele>
        <time>2011-05-29T07:12:43Z</time>
      </trkpt>
      <trkpt lat="43.4326" lon="-0.32549">
        <ele>240.956</ele>
        <time>2011-05-29T07:12:53Z</time>
      </trkpt>
      <trkpt lat="43.43271" lon="-0.32539">
        <ele>241.065</ele>
        <time>2011-05-29T07:12:56Z</time>
      </trkpt>
      <trkpt lat="43.43282" lon="-0.32515">
        <ele>241.281</ele>
        <time>2011-05-29T07:13:01Z</time>
      </trkpt>
      <trkpt lat="43.43283" lon="-0.32487">
        <ele>241.225</ele>
        <time>2011-05-29T07:13:06Z</time>
      </trkpt>
      <trkpt lat="43.43268" lon="-0.32425">
        <ele>241.389</ele>
        <time>2011-05-29T07:13:17Z</time>
      </trkpt>
      <trkpt lat="43.43258" lon="-0.32388">
        <ele>241.634</ele>
        <time>2011-05-29T07:13:23Z</time>
      </trkpt>
      <trkpt lat="43.43255" lon="-0.32363">
        <ele>241.897</ele>
        <time>2011-05-29T07:13:27Z</time>
      </trkpt>
      <trkpt lat="43.43258" lon="-0.32309">
        <ele>242.362</ele>
        <time>2011-05-29T07:13:35Z</time>
      </trkpt>
      <trkpt lat="43.4326" lon="-0.32248">
        <ele>242.557</ele>
        <time>2011-05-29T07:13:43Z</time>
      </trkpt>
      <trkpt lat="43.43263" lon="-0.32178">
        <ele>242.62</ele>
        <time>2011-05-29T07:13:52Z</time>
      </trkpt>
      <trkpt lat="43.43267" lon="-0.32108">
        <ele>242.584</ele>
        <time>2011-05-29T07:14:01Z</time>
      </trkpt>
      <trkpt lat="43.43273" lon="-0.32061">
        <ele>242.532</ele>
        <time>2011-05-29T07:14:07Z</time>
      </trkpt>
      <trkpt lat="43.43287" lon="-0.32035">
        <ele>242.388</ele>
        <time>2011-05-29T07:14:11Z</time>
      </trkpt>
      <trkpt lat="43.43293" lon="-0.32032">
        <ele>242.344</ele>
        <time>2011-05-29T07:14:12Z</time>
      </trkpt>
      <trkpt lat="43.43341" lon="-0.32005">
        <ele>241.398</ele>
        <time>2011-05-29T07:14:20Z</time>
      </trkpt>
      <trkpt lat="43.43372" lon="-0.31992">
        <ele>240.422</ele>
        <time>2011-05-29T07:14:25Z</time>
      </trkpt>
      <trkpt lat="43.43429" lon="-0.31967">
        <ele>239.027</ele>
        <time>2011-05-29T07:14:34Z</time>
      </trkpt>
      <trkpt lat="43.43481" lon="-0.31938">
        <ele>237.54</ele>
        <time>2011-05-29T07:14:42Z</time>
      </trkpt>
      <trkpt lat="43.43514" lon="-0.31916">
        <ele>237.757</ele>
        <time>2011-05-29T07:14:48Z</time>
      </trkpt>
      <trkpt lat="43.4355" lon="-0.31899">
        <ele>238.741</ele>
        <time>2011-05-29T07:14:55Z</time>
      </trkpt>
      <trkpt lat="43.43566" lon="-0.31893">
        <ele>238.889</ele>
        <time>2011-05-29T07:14:59Z</time>
      </trkpt>
      <trkpt lat="43.4357" lon="-0.31873">
        <ele>238.602</ele>
        <time>2011-05-29T07:15:03Z</time>
      </trkpt>
      <trkpt lat="43.43564" lon="-0.31846">
        <ele>237.435</ele>
        <time>2011-05-29T07:15:06Z</time>
      </trkpt>
      <trkpt lat="43.43565" lon="-0.31819">
        <ele>236.694</ele>
        <time>2011-05-29T07:15:08Z</time>
      </trkpt>
      <trkpt lat="43.43572" lon="-0.31792">
        <ele>234.658</ele>
        <time>2011-05-29T07:15:10Z</time>
      </trkpt>
      <trkpt lat="43.43593" lon="-0.31734">
        <ele>226.533</ele>
        <time>2011-05-29T07:15:15Z</time>
      </trkpt>
      <trkpt lat="43.436" lon="-0.31683">
        <ele>219.405</ele>
        <time>2011-05-29T07:15:19Z</time>
      </trkpt>
      <trkpt lat="43.43602" lon="-0.31658">
        <ele>214.615</ele>
        <time>2011-05-29T07:15:22Z</time>
      </trkpt>
      <trkpt lat="43.43605" lon="-0.31645">
        <ele>210.928</ele>
        <time>2011-05-29T07:15:25Z</time>
      </trkpt>
      <trkpt lat="43.43625" lon="-0.31646">
        <ele>207.683</ele>
        <time>2011-05-29T07:15:29Z</time>
      </trkpt>
      <trkpt lat="43.43647" lon="-0.31657">
        <ele>205.379</ele>
        <time>2011-05-29T07:15:32Z</time>
      </trkpt>
      <trkpt lat="43.4367" lon="-0.31652">
        <ele>202.484</ele>
        <time>2011-05-29T07:15:36Z</time>
      </trkpt>
      <trkpt lat="43.43683" lon="-0.3165">
        <ele>200.148</ele>
        <time>2011-05-29T07:15:38Z</time>
      </trkpt>
      <trkpt lat="43.43701" lon="-0.31657">
        <ele>196.955</ele>
        <time>2011-05-29T07:15:41Z</time>
      </trkpt>
      <trkpt lat="43.43762" lon="-0.31697">
        <ele>191.863</ele>
        <time>2011-05-29T07:15:50Z</time>
      </trkpt>
      <trkpt lat="43.43814" lon="-0.31735">
        <ele>190.866</ele>
        <time>2011-05-29T07:15:58Z</time>
      </trkpt>
      <trkpt lat="43.43833" lon="-0.31749">
        <ele>189.899</ele>
        <time>2011-05-29T07:16:02Z</time>
      </trkpt>
      <trkpt lat="43.4383" lon="-0.31765">
        <ele>189.376</ele>
        <time>2011-05-29T07:16:06Z</time>
      </trkpt>
      <trkpt lat="43.43827" lon="-0.31774">
        <ele>190.134</ele>
        <time>2011-05-29T07:16:09Z</time>
      </trkpt>
      <trkpt lat="43.43821" lon="-0.31789">
        <ele>192.563</ele>
        <time>2011-05-29T07:16:14Z</time>
      </trkpt>
      <trkpt lat="43.43815" lon="-0.318">
        <ele>194.439</ele>
        <time>2011-05-29T07:16:18Z</time>
      </trkpt>
      <trkpt lat="43.43813" lon="-0.31808">
        <ele>195.854</ele>
        <time>2011-05-29T07:16:21Z</time>
      </trkpt>
      <trkpt lat="43.43818" lon="-0.31825">
        <ele>197.94</ele>
        <time>2011-05-29T07:16:27Z</time>
      </trkpt>
      <trkpt lat="43.43828" lon="-0.31839">
        <ele>199.717</ele>
        <time>2011-05-29T07:16:34Z</time>
      </trkpt>
      <trkpt lat="43.43843" lon="-0.31851">
        <ele>200.249</ele>
        <time>2011-05-29T07:16:39Z</time>
      </trkpt>
      <trkpt lat="43.43848" lon="-0.31854">
        <ele>200.158</ele>
        <time>2011-05-29T07:16:40Z</time>
      </trkpt>
      <trkpt lat="43.43874" lon="-0.31884">
        <ele>199.021</ele>
        <time>2011-05-29T07:16:46Z</time>
      </trkpt>
      <trkpt lat="43.43899" lon="-0.31909">
        <ele>198.042</ele>
        <time>2011-05-29T07:16:51Z</time>
      </trkpt>
      <trkpt lat="43.43919" lon="-0.31923">
        <ele>195.985</ele>
        <time>2011-05-29T07:16:55Z</time>
      </trkpt>
      <trkpt lat="43.43933" lon="-0.31927">
        <ele>194.444</ele>
        <time>2011-05-29T07:16:57Z</time>
      </trkpt>
      <trkpt lat="43.4396" lon="-0.31926">
        <ele>191.061</ele>
        <time>2011-05-29T07:17:01Z</time>
      </trkpt>
      <trkpt lat="43.43973" lon="-0.31936">
        <ele>188.724</ele>
        <time>2011-05-29T07:17:04Z</time>
      </trkpt>
      <trkpt lat="43.43991" lon="-0.3196">
        <ele>187.208</ele>
        <time>2011-05-29T07:17:09Z</time>
      </trkpt>
      <trkpt lat="43.44027" lon="-0.31987">
        <ele>186.851</ele>
        <time>2011-05-29T07:17:16Z</time>
      </trkpt>
      <trkpt lat="43.44047" lon="-0.32003">
        <ele>186.243</ele>
        <time>2011-05-29T07:17:20Z</time>
      </trkpt>
      <trkpt lat="43.44062" lon="-0.32002">
        <ele>186.058</ele>
        <time>2011-05-29T07:17:24Z</time>
      </trkpt>
      <trkpt lat="43.44079" lon="-0.31989">
        <ele>185.864</ele>
        <time>2011-05-29T07:17:28Z</time>
      </trkpt>
      <trkpt lat="43.44091" lon="-0.31972">
        <ele>185.201</ele>
        <time>2011-05-29T07:17:31Z</time>
      </trkpt>
      <trkpt lat="43.44109" lon="-0.31933">
        <ele>183.675</ele>
        <time>2011-05-29T07:17:37Z</time>
      </trkpt>
      <trkpt lat="43.44113" lon="-0.31927">
        <ele>183.305</ele>
        <time>2011-05-29T07:17:40Z</time>
      </trkpt>
      <trkpt lat="43.44113" lon="-0.31926">
        <ele>182.796</ele>
        <time>2011-05-29T07:17:43Z</time>
      </trkpt>
      <trkpt lat="43.44121" lon="-0.3191">
        <ele>182.509</ele>
        <time>2011-05-29T07:17:49Z</time>
      </trkpt>
      <trkpt lat="43.44137" lon="-0.3188">
        <ele>181.654</ele>
        <time>2011-05-29T07:17:55Z</time>
      </trkpt>
      <trkpt lat="43.4414" lon="-0.31875">
        <ele>181.487</ele>
        <time>2011-05-29T07:17:56Z</time>
      </trkpt>
      <trkpt lat="43.44158" lon="-0.31833">
        <ele>180.797</ele>
        <time>2011-05-29T07:18:03Z</time>
      </trkpt>
      <trkpt lat="43.44174" lon="-0.31797">
        <ele>180.57</ele>
        <time>2011-05-29T07:18:09Z</time>
      </trkpt>
      <trkpt lat="43.44196" lon="-0.3177">
        <ele>179.823</ele>
        <time>2011-05-29T07:18:14Z</time>
      </trkpt>
      <trkpt lat="43.4424" lon="-0.31745">
        <ele>178.514</ele>
        <time>2011-05-29T07:18:22Z</time>
      </trkpt>
      <trkpt lat="43.44261" lon="-0.31739">
        <ele>178.161</ele>
        <time>2011-05-29T07:18:27Z</time>
      </trkpt>
      <trkpt lat="43.44266" lon="-0.31735">
        <ele>177.845</ele>
        <time>2011-05-29T07:18:30Z</time>
      </trkpt>
      <trkpt lat="43.44269" lon="-0.31723">
        <ele>177.136</ele>
        <time>2011-05-29T07:18:35Z</time>
      </trkpt>
      <trkpt lat="43.44268" lon="-0.31723">
        <ele>175.911</ele>
        <time>2011-05-29T07:18:41Z</time>
      </trkpt>
      <trkpt lat="43.44273" lon="-0.3172">
        <ele>176.087</ele>
        <time>2011-05-29T07:19:13Z</time>
      </trkpt>
      <trkpt lat="43.44273" lon="-0.31719">
        <ele>175.819</ele>
        <time>2011-05-29T07:19:24Z</time>
      </trkpt>
      <trkpt lat="43.44283" lon="-0.3173">
        <ele>175.786</ele>
        <time>2011-05-29T07:19:41Z</time>
      </trkpt>
      <trkpt lat="43.44284" lon="-0.3173">
        <ele>175.728</ele>
        <time>2011-05-29T07:19:42Z</time>
      </trkpt>
      <trkpt lat="43.44285" lon="-0.31732">
        <ele>175.475</ele>
        <time>2011-05-29T07:20:00Z</time>
      </trkpt>
      <trkpt lat="43.44282" lon="-0.31731">
        <ele>175.542</ele>
        <time>2011-05-29T07:20:10Z</time>
      </trkpt>
      <trkpt lat="43.44281" lon="-0.31731">
        <ele>175.498</ele>
        <time>2011-05-29T07:20:18Z</time>
      </trkpt>
      <trkpt lat="43.44279" lon="-0.3173">
        <ele>175.357</ele>
        <time>2011-05-29T07:20:24Z</time>
      </trkpt>
      <trkpt lat="43.44275" lon="-0.31728">
        <ele>175.666</ele>
        <time>2011-05-29T07:20:33Z</time>
      </trkpt>
      <trkpt lat="43.44271" lon="-0.31723">
        <ele>175.765</ele>
        <time>2011-05-29T07:20:36Z</time>
      </trkpt>
      <trkpt lat="43.44258" lon="-0.31705">
        <ele>175.256</ele>
        <time>2011-05-29T07:20:41Z</time>
      </trkpt>
      <trkpt lat="43.44245" lon="-0.31694">
        <ele>174.861</ele>
        <time>2011-05-29T07:20:45Z</time>
      </trkpt>
      <trkpt lat="43.44247" lon="-0.31684">
        <ele>175.703</ele>
        <time>2011-05-29T07:20:49Z</time>
      </trkpt>
      <trkpt lat="43.4426" lon="-0.31674">
        <ele>176.625</ele>
        <time>2011-05-29T07:20:54Z</time>
      </trkpt>
      <trkpt lat="43.44281" lon="-0.31654">
        <ele>176.48</ele>
        <time>2011-05-29T07:21:02Z</time>
      </trkpt>
      <trkpt lat="43.44298" lon="-0.31646">
        <ele>176.473</ele>
        <time>2011-05-29T07:21:08Z</time>
      </trkpt>
      <trkpt lat="43.44309" lon="-0.31635">
        <ele>177.167</ele>
        <time>2011-05-29T07:21:13Z</time>
      </trkpt>
      <trkpt lat="43.44315" lon="-0.31633">
        <ele>178.823</ele>
        <time>2011-05-29T07:21:17Z</time>
      </trkpt>
      <trkpt lat="43.44323" lon="-0.31635">
        <ele>179.754</ele>
        <time>2011-05-29T07:21:20Z</time>
      </trkpt>
      <trkpt lat="43.44331" lon="-0.31651">
        <ele>179.611</ele>
        <time>2011-05-29T07:21:24Z</time>
      </trkpt>
      <trkpt lat="43.44342" lon="-0.31664">
        <ele>179.336</ele>
        <time>2011-05-29T07:21:29Z</time>
      </trkpt>
      <trkpt lat="43.44357" lon="-0.31674">
        <ele>180.808</ele>
        <time>2011-05-29T07:21:35Z</time>
      </trkpt>
      <trkpt lat="43.44373" lon="-0.31686">
        <ele>180.92</ele>
        <time>2011-05-29T07:21:40Z</time>
      </trkpt>
      <trkpt lat="43.44393" lon="-0.31703">
        <ele>180.009</ele>
        <time>2011-05-29T07:21:46Z</time>
      </trkpt>
      <trkpt lat="43.44411" lon="-0.31707">
        <ele>180.117</ele>
        <time>2011-05-29T07:21:52Z</time>
      </trkpt>
      <trkpt lat="43.44421" lon="-0.31705">
        <ele>180.712</ele>
        <time>2011-05-29T07:21:55Z</time>
      </trkpt>
      <trkpt lat="43.44441" lon="-0.31709">
        <ele>182.501</ele>
        <time>2011-05-29T07:22:02Z</time>
      </trkpt>
      <trkpt lat="43.44451" lon="-0.31715">
        <ele>183.827</ele>
        <time>2011-05-29T07:22:07Z</time>
      </trkpt>
      <trkpt lat="43.44464" lon="-0.31731">
        <ele>184.209</ele>
        <time>2011-05-29T07:22:12Z</time>
      </trkpt>
      <trkpt lat="43.44478" lon="-0.31752">
        <ele>183.543</ele>
        <time>2011-05-29T07:22:16Z</time>
      </trkpt>
      <trkpt lat="43.44494" lon="-0.3177">
        <ele>182.792</ele>
        <time>2011-05-29T07:22:21Z</time>
      </trkpt>
      <trkpt lat="43.44509" lon="-0.31787">
        <ele>182.66</ele>
        <time>2011-05-29T07:22:26Z</time>
      </trkpt>
      <trkpt lat="43.44525" lon="-0.31793">
        <ele>183.241</ele>
        <time>2011-05-29T07:22:30Z</time>
      </trkpt>
      <trkpt lat="43.44539" lon="-0.31795">
        <ele>183.808</ele>
        <time>2011-05-29T07:22:34Z</time>
      </trkpt>
      <trkpt lat="43.44554" lon="-0.31789">
        <ele>184.104</ele>
        <time>2011-05-29T07:22:39Z</time>
      </trkpt>
      <trkpt lat="43.44567" lon="-0.31769">
        <ele>184.947</ele>
        <time>2011-05-29T07:22:45Z</time>
      </trkpt>
      <trkpt lat="43.44576" lon="-0.31754">
        <ele>186.052</ele>
        <time>2011-05-29T07:22:50Z</time>
      </trkpt>
      <trkpt lat="43.44586" lon="-0.31738">
        <ele>187.527</ele>
        <time>2011-05-29T07:22:56Z</time>
      </trkpt>
      <trkpt lat="43.44597" lon="-0.31724">
        <ele>189.587</ele>
        <time>2011-05-29T07:23:03Z</time>
      </trkpt>
      <trkpt lat="43.44607" lon="-0.31713">
        <ele>191.495</ele>
        <time>2011-05-29T07:23:10Z</time>
      </trkpt>
      <trkpt lat="43.44616" lon="-0.31703">
        <ele>194.064</ele>
        <time>2011-05-29T07:23:17Z</time>
      </trkpt>
      <trkpt lat="43.44623" lon="-0.31695">
        <ele>195.755</ele>
        <time>2011-05-29T07:23:23Z</time>
      </trkpt>
      <trkpt lat="43.44628" lon="-0.31688">
        <ele>197.019</ele>
        <time>2011-05-29T07:23:27Z</time>
      </trkpt>
      <trkpt lat="43.44635" lon="-0.31678">
        <ele>198.877</ele>
        <time>2011-05-29T07:23:34Z</time>
      </trkpt>
      <trkpt lat="43.44636" lon="-0.31677">
        <ele>199.117</ele>
        <time>2011-05-29T07:23:35Z</time>
      </trkpt>
      <trkpt lat="43.44647" lon="-0.31664">
        <ele>201.523</ele>
        <time>2011-05-29T07:23:44Z</time>
      </trkpt>
      <trkpt lat="43.44656" lon="-0.31656">
        <ele>202.955</ele>
        <time>2011-05-29T07:23:50Z</time>
      </trkpt>
      <trkpt lat="43.44658" lon="-0.31655">
        <ele>203.08</ele>
        <time>2011-05-29T07:23:51Z</time>
      </trkpt>
      <trkpt lat="43.44669" lon="-0.31662">
        <ele>205.2</ele>
        <time>2011-05-29T07:23:59Z</time>
      </trkpt>
      <trkpt lat="43.4467" lon="-0.31663">
        <ele>205.555</ele>
        <time>2011-05-29T07:24:00Z</time>
      </trkpt>
      <trkpt lat="43.4467" lon="-0.31678">
        <ele>207.574</ele>
        <time>2011-05-29T07:24:07Z</time>
      </trkpt>
      <trkpt lat="43.44669" lon="-0.31684">
        <ele>208.294</ele>
        <time>2011-05-29T07:24:10Z</time>
      </trkpt>
      <trkpt lat="43.44667" lon="-0.31697">
        <ele>209.963</ele>
        <time>2011-05-29T07:24:17Z</time>
      </trkpt>
      <trkpt lat="43.44668" lon="-0.31708">
        <ele>210.752</ele>
        <time>2011-05-29T07:24:21Z</time>
      </trkpt>
      <trkpt lat="43.44671" lon="-0.3172">
        <ele>211.601</ele>
        <time>2011-05-29T07:24:28Z</time>
      </trkpt>
      <trkpt lat="43.44671" lon="-0.31736">
        <ele>212.896</ele>
        <time>2011-05-29T07:24:35Z</time>
      </trkpt>
      <trkpt lat="43.44672" lon="-0.31739">
        <ele>213.08</ele>
        <time>2011-05-29T07:24:36Z</time>
      </trkpt>
      <trkpt lat="43.44675" lon="-0.31752">
        <ele>213.753</ele>
        <time>2011-05-29T07:24:41Z</time>
      </trkpt>
      <trkpt lat="43.44681" lon="-0.31769">
        <ele>214.659</ele>
        <time>2011-05-29T07:24:48Z</time>
      </trkpt>
      <trkpt lat="43.44692" lon="-0.31775">
        <ele>215.245</ele>
        <time>2011-05-29T07:24:52Z</time>
      </trkpt>
      <trkpt lat="43.44703" lon="-0.31771">
        <ele>216.177</ele>
        <time>2011-05-29T07:24:56Z</time>
      </trkpt>
      <trkpt lat="43.44711" lon="-0.3176">
        <ele>217.709</ele>
        <time>2011-05-29T07:25:01Z</time>
      </trkpt>
      <trkpt lat="43.44719" lon="-0.3175">
        <ele>219.462</ele>
        <time>2011-05-29T07:25:07Z</time>
      </trkpt>
      <trkpt lat="43.44727" lon="-0.31742">
        <ele>220.82</ele>
        <time>2011-05-29T07:25:13Z</time>
      </trkpt>
      <trkpt lat="43.44734" lon="-0.31735">
        <ele>222.069</ele>
        <time>2011-05-29T07:25:19Z</time>
      </trkpt>
      <trkpt lat="43.44737" lon="-0.31733">
        <ele>222.51</ele>
        <time>2011-05-29T07:25:21Z</time>
      </trkpt>
      <trkpt lat="43.44746" lon="-0.3173">
        <ele>224.076</ele>
        <time>2011-05-29T07:25:27Z</time>
      </trkpt>
      <trkpt lat="43.44755" lon="-0.31733">
        <ele>225.144</ele>
        <time>2011-05-29T07:25:32Z</time>
      </trkpt>
      <trkpt lat="43.44756" lon="-0.31734">
        <ele>225.342</ele>
        <time>2011-05-29T07:25:33Z</time>
      </trkpt>
      <trkpt lat="43.4477" lon="-0.31739">
        <ele>226.722</ele>
        <time>2011-05-29T07:25:41Z</time>
      </trkpt>
      <trkpt lat="43.4478" lon="-0.31746">
        <ele>227.813</ele>
        <time>2011-05-29T07:25:48Z</time>
      </trkpt>
      <trkpt lat="43.44792" lon="-0.31749">
        <ele>229.451</ele>
        <time>2011-05-29T07:25:55Z</time>
      </trkpt>
      <trkpt lat="43.44799" lon="-0.31749">
        <ele>230.262</ele>
        <time>2011-05-29T07:25:58Z</time>
      </trkpt>
      <trkpt lat="43.44808" lon="-0.31759">
        <ele>230.615</ele>
        <time>2011-05-29T07:26:02Z</time>
      </trkpt>
      <trkpt lat="43.44823" lon="-0.31798">
        <ele>229.353</ele>
        <time>2011-05-29T07:26:07Z</time>
      </trkpt>
      <trkpt lat="43.44839" lon="-0.31842">
        <ele>225.529</ele>
        <time>2011-05-29T07:26:11Z</time>
      </trkpt>
      <trkpt lat="43.44859" lon="-0.31879">
        <ele>219.979</ele>
        <time>2011-05-29T07:26:16Z</time>
      </trkpt>
      <trkpt lat="43.44854" lon="-0.31886">
        <ele>218.117</ele>
        <time>2011-05-29T07:26:18Z</time>
      </trkpt>
      <trkpt lat="43.44847" lon="-0.31887">
        <ele>216.413</ele>
        <time>2011-05-29T07:26:20Z</time>
      </trkpt>
      <trkpt lat="43.44824" lon="-0.31884">
        <ele>213.644</ele>
        <time>2011-05-29T07:26:24Z</time>
      </trkpt>
      <trkpt lat="43.448" lon="-0.31875">
        <ele>211.268</ele>
        <time>2011-05-29T07:26:28Z</time>
      </trkpt>
      <trkpt lat="43.44782" lon="-0.31882">
        <ele>208.769</ele>
        <time>2011-05-29T07:26:33Z</time>
      </trkpt>
      <trkpt lat="43.44783" lon="-0.31889">
        <ele>207.391</ele>
        <time>2011-05-29T07:26:35Z</time>
      </trkpt>
      <trkpt lat="43.44788" lon="-0.319">
        <ele>205.704</ele>
        <time>2011-05-29T07:26:38Z</time>
      </trkpt>
      <trkpt lat="43.44793" lon="-0.31911">
        <ele>204.806</ele>
        <time>2011-05-29T07:26:40Z</time>
      </trkpt>
      <trkpt lat="43.44811" lon="-0.31924">
        <ele>203.533</ele>
        <time>2011-05-29T07:26:44Z</time>
      </trkpt>
      <trkpt lat="43.44832" lon="-0.31939">
        <ele>202.795</ele>
        <time>2011-05-29T07:26:48Z</time>
      </trkpt>
      <trkpt lat="43.44849" lon="-0.31962">
        <ele>201.947</ele>
        <time>2011-05-29T07:26:52Z</time>
      </trkpt>
      <trkpt lat="43.44853" lon="-0.31981">
        <ele>200.015</ele>
        <time>2011-05-29T07:26:55Z</time>
      </trkpt>
      <trkpt lat="43.44864" lon="-0.31988">
        <ele>197.255</ele>
        <time>2011-05-29T07:26:58Z</time>
      </trkpt>
      <trkpt lat="43.44871" lon="-0.31998">
        <ele>194.86</ele>
        <time>2011-05-29T07:27:01Z</time>
      </trkpt>
      <trkpt lat="43.44872" lon="-0.32006">
        <ele>194.186</ele>
        <time>2011-05-29T07:27:03Z</time>
      </trkpt>
      <trkpt lat="43.44879" lon="-0.32007">
        <ele>194.559</ele>
        <time>2011-05-29T07:27:07Z</time>
      </trkpt>
      <trkpt lat="43.44891" lon="-0.31996">
        <ele>196.552</ele>
        <time>2011-05-29T07:27:14Z</time>
      </trkpt>
      <trkpt lat="43.44895" lon="-0.31992">
        <ele>197.563</ele>
        <time>2011-05-29T07:27:17Z</time>
      </trkpt>
      <trkpt lat="43.44908" lon="-0.31983">
        <ele>199.878</ele>
        <time>2011-05-29T07:27:25Z</time>
      </trkpt>
      <trkpt lat="43.44919" lon="-0.31973">
        <ele>202.329</ele>
        <time>2011-05-29T07:27:32Z</time>
      </trkpt>
      <trkpt lat="43.44932" lon="-0.31966">
        <ele>204.549</ele>
        <time>2011-05-29T07:27:40Z</time>
      </trkpt>
      <trkpt lat="43.44942" lon="-0.31966">
        <ele>206.032</ele>
        <time>2011-05-29T07:27:47Z</time>
      </trkpt>
      <trkpt lat="43.44948" lon="-0.3197">
        <ele>207.021</ele>
        <time>2011-05-29T07:27:51Z</time>
      </trkpt>
      <trkpt lat="43.44958" lon="-0.31979">
        <ele>209.179</ele>
        <time>2011-05-29T07:27:59Z</time>
      </trkpt>
      <trkpt lat="43.44964" lon="-0.3199">
        <ele>211.016</ele>
        <time>2011-05-29T07:28:06Z</time>
      </trkpt>
      <trkpt lat="43.4497" lon="-0.32">
        <ele>212.406</ele>
        <time>2011-05-29T07:28:14Z</time>
      </trkpt>
      <trkpt lat="43.44976" lon="-0.32011">
        <ele>213.786</ele>
        <time>2011-05-29T07:28:20Z</time>
      </trkpt>
      <trkpt lat="43.44976" lon="-0.32019">
        <ele>214.945</ele>
        <time>2011-05-29T07:28:24Z</time>
      </trkpt>
      <trkpt lat="43.44979" lon="-0.32034">
        <ele>216.897</ele>
        <time>2011-05-29T07:28:31Z</time>
      </trkpt>
      <trkpt lat="43.44982" lon="-0.32048">
        <ele>218.154</ele>
        <time>2011-05-29T07:28:37Z</time>
      </trkpt>
      <trkpt lat="43.44985" lon="-0.32058">
        <ele>219.189</ele>
        <time>2011-05-29T07:28:42Z</time>
      </trkpt>
      <trkpt lat="43.44993" lon="-0.32075">
        <ele>220.164</ele>
        <time>2011-05-29T07:28:48Z</time>
      </trkpt>
      <trkpt lat="43.45003" lon="-0.32091">
        <ele>221.79</ele>
        <time>2011-05-29T07:28:55Z</time>
      </trkpt>
      <trkpt lat="43.45012" lon="-0.32103">
        <ele>223.436</ele>
        <time>2011-05-29T07:29:02Z</time>
      </trkpt>
      <trkpt lat="43.4502" lon="-0.32113">
        <ele>224.711</ele>
        <time>2011-05-29T07:29:09Z</time>
      </trkpt>
      <trkpt lat="43.45029" lon="-0.32119">
        <ele>225.739</ele>
        <time>2011-05-29T07:29:15Z</time>
      </trkpt>
      <trkpt lat="43.45041" lon="-0.32125">
        <ele>227.332</ele>
        <time>2011-05-29T07:29:22Z</time>
      </trkpt>
      <trkpt lat="43.45055" lon="-0.32131">
        <ele>229.061</ele>
        <time>2011-05-29T07:29:29Z</time>
      </trkpt>
      <trkpt lat="43.45069" lon="-0.32134">
        <ele>230.685</ele>
        <time>2011-05-29T07:29:36Z</time>
      </trkpt>
      <trkpt lat="43.45082" lon="-0.32134">
        <ele>231.938</ele>
        <time>2011-05-29T07:29:42Z</time>
      </trkpt>
      <trkpt lat="43.45087" lon="-0.32134">
        <ele>232.351</ele>
        <time>2011-05-29T07:29:44Z</time>
      </trkpt>
      <trkpt lat="43.45097" lon="-0.32123">
        <ele>233.296</ele>
        <time>2011-05-29T07:29:50Z</time>
      </trkpt>
      <trkpt lat="43.45097" lon="-0.3211">
        <ele>234.313</ele>
        <time>2011-05-29T07:29:55Z</time>
      </trkpt>
      <trkpt lat="43.45096" lon="-0.32108">
        <ele>234.513</ele>
        <time>2011-05-29T07:29:56Z</time>
      </trkpt>
      <trkpt lat="43.45088" lon="-0.32089">
        <ele>235.992</ele>
        <time>2011-05-29T07:30:03Z</time>
      </trkpt>
      <trkpt lat="43.45084" lon="-0.3207">
        <ele>236.862</ele>
        <time>2011-05-29T07:30:09Z</time>
      </trkpt>
      <trkpt lat="43.45088" lon="-0.32051">
        <ele>237.916</ele>
        <time>2011-05-29T07:30:16Z</time>
      </trkpt>
      <trkpt lat="43.451" lon="-0.32032">
        <ele>240</ele>
        <time>2011-05-29T07:30:25Z</time>
      </trkpt>
      <trkpt lat="43.45109" lon="-0.32018">
        <ele>241.991</ele>
        <time>2011-05-29T07:30:32Z</time>
      </trkpt>
      <trkpt lat="43.45121" lon="-0.31996">
        <ele>244.865</ele>
        <time>2011-05-29T07:30:42Z</time>
      </trkpt>
      <trkpt lat="43.45133" lon="-0.31977">
        <ele>247.444</ele>
        <time>2011-05-29T07:30:51Z</time>
      </trkpt>
      <trkpt lat="43.45144" lon="-0.31962">
        <ele>248.891</ele>
        <time>2011-05-29T07:30:59Z</time>
      </trkpt>
      <trkpt lat="43.45156" lon="-0.31943">
        <ele>249.447</ele>
        <time>2011-05-29T07:31:06Z</time>
      </trkpt>
      <trkpt lat="43.45161" lon="-0.3194">
        <ele>249.478</ele>
        <time>2011-05-29T07:31:08Z</time>
      </trkpt>
      <trkpt lat="43.45176" lon="-0.3195">
        <ele>249.883</ele>
        <time>2011-05-29T07:31:14Z</time>
      </trkpt>
      <trkpt lat="43.45196" lon="-0.31966">
        <ele>249.983</ele>
        <time>2011-05-29T07:31:20Z</time>
      </trkpt>
      <trkpt lat="43.45206" lon="-0.31975">
        <ele>249.798</ele>
        <time>2011-05-29T07:31:23Z</time>
      </trkpt>
      <trkpt lat="43.45223" lon="-0.31976">
        <ele>249.719</ele>
        <time>2011-05-29T07:31:27Z</time>
      </trkpt>
      <trkpt lat="43.45227" lon="-0.31972">
        <ele>249.74</ele>
        <time>2011-05-29T07:31:28Z</time>
      </trkpt>
      <trkpt lat="43.45238" lon="-0.31951">
        <ele>249.754</ele>
        <time>2011-05-29T07:31:32Z</time>
      </trkpt>
      <trkpt lat="43.4525" lon="-0.31934">
        <ele>249.881</ele>
        <time>2011-05-29T07:31:36Z</time>
      </trkpt>
      <trkpt lat="43.45261" lon="-0.31924">
        <ele>249.936</ele>
        <time>2011-05-29T07:31:39Z</time>
      </trkpt>
      <trkpt lat="43.45276" lon="-0.31921">
        <ele>250.144</ele>
        <time>2011-05-29T07:31:43Z</time>
      </trkpt>
      <trkpt lat="43.45283" lon="-0.31928">
        <ele>250.179</ele>
        <time>2011-05-29T07:31:45Z</time>
      </trkpt>
      <trkpt lat="43.45321" lon="-0.31984">
        <ele>249.64</ele>
        <time>2011-05-29T07:31:55Z</time>
      </trkpt>
      <trkpt lat="43.45349" lon="-0.32026">
        <ele>249.616</ele>
        <time>2011-05-29T07:32:02Z</time>
      </trkpt>
      <trkpt lat="43.45353" lon="-0.32032">
        <ele>249.65</ele>
        <time>2011-05-29T07:32:03Z</time>
      </trkpt>
      <trkpt lat="43.45356" lon="-0.32062">
        <ele>249.458</ele>
        <time>2011-05-29T07:32:07Z</time>
      </trkpt>
      <trkpt lat="43.4535" lon="-0.32076">
        <ele>249.41</ele>
        <time>2011-05-29T07:32:09Z</time>
      </trkpt>
      <trkpt lat="43.45336" lon="-0.32101">
        <ele>249.66</ele>
        <time>2011-05-29T07:32:13Z</time>
      </trkpt>
      <trkpt lat="43.45329" lon="-0.32131">
        <ele>249.895</ele>
        <time>2011-05-29T07:32:17Z</time>
      </trkpt>
      <trkpt lat="43.45334" lon="-0.32146">
        <ele>249.838</ele>
        <time>2011-05-29T07:32:19Z</time>
      </trkpt>
      <trkpt lat="43.4534" lon="-0.3216">
        <ele>249.962</ele>
        <time>2011-05-29T07:32:21Z</time>
      </trkpt>
      <trkpt lat="43.45338" lon="-0.32189">
        <ele>249.685</ele>
        <time>2011-05-29T07:32:25Z</time>
      </trkpt>
      <trkpt lat="43.45331" lon="-0.32236">
        <ele>248.887</ele>
        <time>2011-05-29T07:32:31Z</time>
      </trkpt>
      <trkpt lat="43.45334" lon="-0.32252">
        <ele>248.603</ele>
        <time>2011-05-29T07:32:33Z</time>
      </trkpt>
      <trkpt lat="43.45337" lon="-0.32269">
        <ele>248.209</ele>
        <time>2011-05-29T07:32:35Z</time>
      </trkpt>
      <trkpt lat="43.45344" lon="-0.32328">
        <ele>247.164</ele>
        <time>2011-05-29T07:32:42Z</time>
      </trkpt>
      <trkpt lat="43.45346" lon="-0.32344">
        <ele>246.663</ele>
        <time>2011-05-29T07:32:44Z</time>
      </trkpt>
      <trkpt lat="43.45358" lon="-0.32371">
        <ele>245.823</ele>
        <time>2011-05-29T07:32:48Z</time>
      </trkpt>
      <trkpt lat="43.45388" lon="-0.3242">
        <ele>243.863</ele>
        <time>2011-05-29T07:32:55Z</time>
      </trkpt>
      <trkpt lat="43.45407" lon="-0.3245">
        <ele>241.792</ele>
        <time>2011-05-29T07:32:59Z</time>
      </trkpt>
      <trkpt lat="43.45416" lon="-0.32462">
        <ele>239.716</ele>
        <time>2011-05-29T07:33:02Z</time>
      </trkpt>
      <trkpt lat="43.45433" lon="-0.32469">
        <ele>237.192</ele>
        <time>2011-05-29T07:33:06Z</time>
      </trkpt>
      <trkpt lat="43.45441" lon="-0.32479">
        <ele>235.932</ele>
        <time>2011-05-29T07:33:09Z</time>
      </trkpt>
      <trkpt lat="43.45444" lon="-0.32483">
        <ele>234.632</ele>
        <time>2011-05-29T07:33:11Z</time>
      </trkpt>
      <trkpt lat="43.45452" lon="-0.32499">
        <ele>231.772</ele>
        <time>2011-05-29T07:33:15Z</time>
      </trkpt>
      <trkpt lat="43.45462" lon="-0.32519">
        <ele>228.614</ele>
        <time>2011-05-29T07:33:18Z</time>
      </trkpt>
      <trkpt lat="43.45481" lon="-0.32555">
        <ele>219.483</ele>
        <time>2011-05-29T07:33:24Z</time>
      </trkpt>
      <trkpt lat="43.45495" lon="-0.3257">
        <ele>213.783</ele>
        <time>2011-05-29T07:33:28Z</time>
      </trkpt>
      <trkpt lat="43.45505" lon="-0.32582">
        <ele>210.229</ele>
        <time>2011-05-29T07:33:31Z</time>
      </trkpt>
      <trkpt lat="43.45501" lon="-0.32597">
        <ele>208.399</ele>
        <time>2011-05-29T07:33:34Z</time>
      </trkpt>
      <trkpt lat="43.45493" lon="-0.32611">
        <ele>207.03</ele>
        <time>2011-05-29T07:33:36Z</time>
      </trkpt>
      <trkpt lat="43.4547" lon="-0.32638">
        <ele>205.037</ele>
        <time>2011-05-29T07:33:40Z</time>
      </trkpt>
      <trkpt lat="43.45462" lon="-0.32643">
        <ele>204.465</ele>
        <time>2011-05-29T07:33:41Z</time>
      </trkpt>
      <trkpt lat="43.45411" lon="-0.32679">
        <ele>199.564</ele>
        <time>2011-05-29T07:33:47Z</time>
      </trkpt>
      <trkpt lat="43.45374" lon="-0.32684">
        <ele>195.82</ele>
        <time>2011-05-29T07:33:51Z</time>
      </trkpt>
      <trkpt lat="43.45348" lon="-0.32676">
        <ele>192.105</ele>
        <time>2011-05-29T07:33:55Z</time>
      </trkpt>
      <trkpt lat="43.45329" lon="-0.32676">
        <ele>188.402</ele>
        <time>2011-05-29T07:34:00Z</time>
      </trkpt>
      <trkpt lat="43.45327" lon="-0.32675">
        <ele>186.493</ele>
        <time>2011-05-29T07:34:03Z</time>
      </trkpt>
      <trkpt lat="43.4532" lon="-0.32676">
        <ele>185.345</ele>
        <time>2011-05-29T07:34:10Z</time>
      </trkpt>
      <trkpt lat="43.45316" lon="-0.32677">
        <ele>185.291</ele>
        <time>2011-05-29T07:34:11Z</time>
      </trkpt>
      <trkpt lat="43.45291" lon="-0.32674">
        <ele>184.658</ele>
        <time>2011-05-29T07:34:16Z</time>
      </trkpt>
      <trkpt lat="43.45257" lon="-0.32662">
        <ele>183.181</ele>
        <time>2011-05-29T07:34:21Z</time>
      </trkpt>
      <trkpt lat="43.45208" lon="-0.32645">
        <ele>180.973</ele>
        <time>2011-05-29T07:34:27Z</time>
      </trkpt>
      <trkpt lat="43.45135" lon="-0.32624">
        <ele>177.508</ele>
        <time>2011-05-29T07:34:35Z</time>
      </trkpt>
      <trkpt lat="43.45074" lon="-0.32609">
        <ele>175.658</ele>
        <time>2011-05-29T07:34:42Z</time>
      </trkpt>
      <trkpt lat="43.44994" lon="-0.32589">
        <ele>175.111</ele>
        <time>2011-05-29T07:34:52Z</time>
      </trkpt>
      <trkpt lat="43.44955" lon="-0.3258">
        <ele>174.873</ele>
        <time>2011-05-29T07:34:57Z</time>
      </trkpt>
      <trkpt lat="43.44882" lon="-0.32562">
        <ele>174.149</ele>
        <time>2011-05-29T07:35:07Z</time>
      </trkpt>
      <trkpt lat="43.44859" lon="-0.32556">
        <ele>174.249</ele>
        <time>2011-05-29T07:35:11Z</time>
      </trkpt>
      <trkpt lat="43.44841" lon="-0.3256">
        <ele>173.901</ele>
        <time>2011-05-29T07:35:15Z</time>
      </trkpt>
      <trkpt lat="43.44837" lon="-0.32579">
        <ele>173.783</ele>
        <time>2011-05-29T07:35:18Z</time>
      </trkpt>
      <trkpt lat="43.44838" lon="-0.32592">
        <ele>173.601</ele>
        <time>2011-05-29T07:35:20Z</time>
      </trkpt>
      <trkpt lat="43.44841" lon="-0.32604">
        <ele>173.585</ele>
        <time>2011-05-29T07:35:22Z</time>
      </trkpt>
      <trkpt lat="43.44862" lon="-0.32634">
        <ele>173.377</ele>
        <time>2011-05-29T07:35:28Z</time>
      </trkpt>
      <trkpt lat="43.44898" lon="-0.32681">
        <ele>172.889</ele>
        <time>2011-05-29T07:35:36Z</time>
      </trkpt>
      <trkpt lat="43.44922" lon="-0.32713">
        <ele>172.706</ele>
        <time>2011-05-29T07:35:41Z</time>
      </trkpt>
      <trkpt lat="43.44952" lon="-0.32751">
        <ele>172.464</ele>
        <time>2011-05-29T07:35:47Z</time>
      </trkpt>
      <trkpt lat="43.44965" lon="-0.3277">
        <ele>172.263</ele>
        <time>2011-05-29T07:35:50Z</time>
      </trkpt>
      <trkpt lat="43.44979" lon="-0.32775">
        <ele>171.993</ele>
        <time>2011-05-29T07:35:53Z</time>
      </trkpt>
      <trkpt lat="43.44983" lon="-0.32773">
        <ele>171.93</ele>
        <time>2011-05-29T07:35:54Z</time>
      </trkpt>
      <trkpt lat="43.45003" lon="-0.32772">
        <ele>171.543</ele>
        <time>2011-05-29T07:35:59Z</time>
      </trkpt>
      <trkpt lat="43.45005" lon="-0.32778">
        <ele>171.445</ele>
        <time>2011-05-29T07:36:00Z</time>
      </trkpt>
      <trkpt lat="43.45015" lon="-0.32804">
        <ele>171.362</ele>
        <time>2011-05-29T07:36:04Z</time>
      </trkpt>
      <trkpt lat="43.45035" lon="-0.32823">
        <ele>171.437</ele>
        <time>2011-05-29T07:36:09Z</time>
      </trkpt>
      <trkpt lat="43.45039" lon="-0.32826">
        <ele>171.395</ele>
        <time>2011-05-29T07:36:10Z</time>
      </trkpt>
      <trkpt lat="43.45048" lon="-0.32847">
        <ele>171.12</ele>
        <time>2011-05-29T07:36:14Z</time>
      </trkpt>
      <trkpt lat="43.45053" lon="-0.32895">
        <ele>171.019</ele>
        <time>2011-05-29T07:36:20Z</time>
      </trkpt>
      <trkpt lat="43.4506" lon="-0.32952">
        <ele>170.746</ele>
        <time>2011-05-29T07:36:27Z</time>
      </trkpt>
      <trkpt lat="43.45059" lon="-0.33005">
        <ele>170.62</ele>
        <time>2011-05-29T07:36:34Z</time>
      </trkpt>
      <trkpt lat="43.45059" lon="-0.33042">
        <ele>170.486</ele>
        <time>2011-05-29T07:36:39Z</time>
      </trkpt>
      <trkpt lat="43.45072" lon="-0.33083">
        <ele>170.586</ele>
        <time>2011-05-29T07:36:45Z</time>
      </trkpt>
      <trkpt lat="43.4509" lon="-0.33101">
        <ele>170.559</ele>
        <time>2011-05-29T07:36:49Z</time>
      </trkpt>
      <trkpt lat="43.45096" lon="-0.33104">
        <ele>170.575</ele>
        <time>2011-05-29T07:36:50Z</time>
      </trkpt>
      <trkpt lat="43.45139" lon="-0.33125">
        <ele>170.035</ele>
        <time>2011-05-29T07:36:57Z</time>
      </trkpt>
      <trkpt lat="43.45145" lon="-0.3313">
        <ele>169.877</ele>
        <time>2011-05-29T07:36:58Z</time>
      </trkpt>
      <trkpt lat="43.45181" lon="-0.33169">
        <ele>169.431</ele>
        <time>2011-05-29T07:37:05Z</time>
      </trkpt>
      <trkpt lat="43.45214" lon="-0.33197">
        <ele>169.045</ele>
        <time>2011-05-29T07:37:11Z</time>
      </trkpt>
      <trkpt lat="43.45244" lon="-0.33237">
        <ele>168.239</ele>
        <time>2011-05-29T07:37:17Z</time>
      </trkpt>
      <trkpt lat="43.45276" lon="-0.33292">
        <ele>167.773</ele>
        <time>2011-05-29T07:37:25Z</time>
      </trkpt>
      <trkpt lat="43.45296" lon="-0.33322">
        <ele>168.079</ele>
        <time>2011-05-29T07:37:30Z</time>
      </trkpt>
      <trkpt lat="43.45334" lon="-0.33351">
        <ele>167.873</ele>
        <time>2011-05-29T07:37:37Z</time>
      </trkpt>
      <trkpt lat="43.45339" lon="-0.33355">
        <ele>167.773</ele>
        <time>2011-05-29T07:37:38Z</time>
      </trkpt>
      <trkpt lat="43.45352" lon="-0.33379">
        <ele>167.628</ele>
        <time>2011-05-29T07:37:42Z</time>
      </trkpt>
      <trkpt lat="43.45364" lon="-0.3343">
        <ele>167.691</ele>
        <time>2011-05-29T07:37:49Z</time>
      </trkpt>
      <trkpt lat="43.45366" lon="-0.33454">
        <ele>167.428</ele>
        <time>2011-05-29T07:37:52Z</time>
      </trkpt>
      <trkpt lat="43.45379" lon="-0.33505">
        <ele>167.108</ele>
        <time>2011-05-29T07:37:59Z</time>
      </trkpt>
      <trkpt lat="43.45386" lon="-0.33526">
        <ele>166.934</ele>
        <time>2011-05-29T07:38:02Z</time>
      </trkpt>
      <trkpt lat="43.45387" lon="-0.33564">
        <ele>166.834</ele>
        <time>2011-05-29T07:38:07Z</time>
      </trkpt>
      <trkpt lat="43.45375" lon="-0.33622">
        <ele>166.808</ele>
        <time>2011-05-29T07:38:15Z</time>
      </trkpt>
      <trkpt lat="43.45368" lon="-0.33687">
        <ele>166.79</ele>
        <time>2011-05-29T07:38:24Z</time>
      </trkpt>
      <trkpt lat="43.45359" lon="-0.3375">
        <ele>166.86</ele>
        <time>2011-05-29T07:38:33Z</time>
      </trkpt>
      <trkpt lat="43.45356" lon="-0.33776">
        <ele>167.316</ele>
        <time>2011-05-29T07:38:37Z</time>
      </trkpt>
      <trkpt lat="43.45341" lon="-0.33799">
        <ele>167.752</ele>
        <time>2011-05-29T07:38:42Z</time>
      </trkpt>
      <trkpt lat="43.45333" lon="-0.33805">
        <ele>167.835</ele>
        <time>2011-05-29T07:38:44Z</time>
      </trkpt>
      <trkpt lat="43.45318" lon="-0.33826">
        <ele>168.557</ele>
        <time>2011-05-29T07:38:49Z</time>
      </trkpt>
      <trkpt lat="43.45303" lon="-0.3387">
        <ele>169.742</ele>
        <time>2011-05-29T07:38:58Z</time>
      </trkpt>
      <trkpt lat="43.45293" lon="-0.33901">
        <ele>171.639</ele>
        <time>2011-05-29T07:39:06Z</time>
      </trkpt>
      <trkpt lat="43.45281" lon="-0.33915">
        <ele>174.099</ele>
        <time>2011-05-29T07:39:13Z</time>
      </trkpt>
      <trkpt lat="43.45274" lon="-0.33908">
        <ele>175.914</ele>
        <time>2011-05-29T07:39:18Z</time>
      </trkpt>
      <trkpt lat="43.45263" lon="-0.33895">
        <ele>178.506</ele>
        <time>2011-05-29T07:39:26Z</time>
      </trkpt>
      <trkpt lat="43.45252" lon="-0.3389">
        <ele>180.642</ele>
        <time>2011-05-29T07:39:33Z</time>
      </trkpt>
      <trkpt lat="43.4524" lon="-0.33886">
        <ele>183.659</ele>
        <time>2011-05-29T07:39:41Z</time>
      </trkpt>
      <trkpt lat="43.45229" lon="-0.33879">
        <ele>186.015</ele>
        <time>2011-05-29T07:39:48Z</time>
      </trkpt>
      <trkpt lat="43.4522" lon="-0.33872">
        <ele>187.123</ele>
        <time>2011-05-29T07:39:55Z</time>
      </trkpt>
      <trkpt lat="43.45209" lon="-0.33865">
        <ele>188.885</ele>
        <time>2011-05-29T07:40:02Z</time>
      </trkpt>
      <trkpt lat="43.45198" lon="-0.33858">
        <ele>190.97</ele>
        <time>2011-05-29T07:40:09Z</time>
      </trkpt>
      <trkpt lat="43.45184" lon="-0.33851">
        <ele>192.944</ele>
        <time>2011-05-29T07:40:17Z</time>
      </trkpt>
      <trkpt lat="43.4517" lon="-0.33846">
        <ele>194.257</ele>
        <time>2011-05-29T07:40:24Z</time>
      </trkpt>
      <trkpt lat="43.45152" lon="-0.33836">
        <ele>196.579</ele>
        <time>2011-05-29T07:40:32Z</time>
      </trkpt>
      <trkpt lat="43.45139" lon="-0.33818">
        <ele>198.271</ele>
        <time>2011-05-29T07:40:40Z</time>
      </trkpt>
      <trkpt lat="43.45127" lon="-0.33796">
        <ele>199.714</ele>
        <time>2011-05-29T07:40:49Z</time>
      </trkpt>
      <trkpt lat="43.45111" lon="-0.33777">
        <ele>202.053</ele>
        <time>2011-05-29T07:40:59Z</time>
      </trkpt>
      <trkpt lat="43.45098" lon="-0.33763">
        <ele>204.122</ele>
        <time>2011-05-29T07:41:07Z</time>
      </trkpt>
      <trkpt lat="43.45081" lon="-0.33745">
        <ele>206.585</ele>
        <time>2011-05-29T07:41:17Z</time>
      </trkpt>
      <trkpt lat="43.45072" lon="-0.33733">
        <ele>208.117</ele>
        <time>2011-05-29T07:41:22Z</time>
      </trkpt>
      <trkpt lat="43.45067" lon="-0.33713">
        <ele>209.608</ele>
        <time>2011-05-29T07:41:27Z</time>
      </trkpt>
      <trkpt lat="43.45061" lon="-0.33704">
        <ele>210.505</ele>
        <time>2011-05-29T07:41:31Z</time>
      </trkpt>
      <trkpt lat="43.45049" lon="-0.33686">
        <ele>211.179</ele>
        <time>2011-05-29T07:41:38Z</time>
      </trkpt>
      <trkpt lat="43.45035" lon="-0.33675">
        <ele>212.272</ele>
        <time>2011-05-29T07:41:44Z</time>
      </trkpt>
      <trkpt lat="43.45026" lon="-0.33667">
        <ele>213.232</ele>
        <time>2011-05-29T07:41:49Z</time>
      </trkpt>
      <trkpt lat="43.45013" lon="-0.33659">
        <ele>214.563</ele>
        <time>2011-05-29T07:41:55Z</time>
      </trkpt>
      <trkpt lat="43.45008" lon="-0.33657">
        <ele>215.428</ele>
        <time>2011-05-29T07:41:58Z</time>
      </trkpt>
      <trkpt lat="43.44992" lon="-0.33648">
        <ele>216.796</ele>
        <time>2011-05-29T07:42:06Z</time>
      </trkpt>
      <trkpt lat="43.44977" lon="-0.33643">
        <ele>218.708</ele>
        <time>2011-05-29T07:42:14Z</time>
      </trkpt>
      <trkpt lat="43.44974" lon="-0.33641">
        <ele>219.209</ele>
        <time>2011-05-29T07:42:16Z</time>
      </trkpt>
      <trkpt lat="43.44956" lon="-0.33636">
        <ele>221.487</ele>
        <time>2011-05-29T07:42:24Z</time>
      </trkpt>
      <trkpt lat="43.44939" lon="-0.33634">
        <ele>223.222</ele>
        <time>2011-05-29T07:42:32Z</time>
      </trkpt>
      <trkpt lat="43.44929" lon="-0.33632">
        <ele>224.379</ele>
        <time>2011-05-29T07:42:37Z</time>
      </trkpt>
      <trkpt lat="43.4491" lon="-0.33628">
        <ele>225.659</ele>
        <time>2011-05-29T07:42:45Z</time>
      </trkpt>
      <trkpt lat="43.44894" lon="-0.33626">
        <ele>226.58</ele>
        <time>2011-05-29T07:42:51Z</time>
      </trkpt>
      <trkpt lat="43.4489" lon="-0.33638">
        <ele>227.58</ele>
        <time>2011-05-29T07:42:55Z</time>
      </trkpt>
      <trkpt lat="43.44891" lon="-0.3367">
        <ele>229.008</ele>
        <time>2011-05-29T07:43:03Z</time>
      </trkpt>
      <trkpt lat="43.44892" lon="-0.33707">
        <ele>229.988</ele>
        <time>2011-05-29T07:43:11Z</time>
      </trkpt>
      <trkpt lat="43.44893" lon="-0.33753">
        <ele>230.271</ele>
        <time>2011-05-29T07:43:19Z</time>
      </trkpt>
      <trkpt lat="43.44895" lon="-0.33785">
        <ele>230.461</ele>
        <time>2011-05-29T07:43:24Z</time>
      </trkpt>
      <trkpt lat="43.44906" lon="-0.33839">
        <ele>229.973</ele>
        <time>2011-05-29T07:43:33Z</time>
      </trkpt>
      <trkpt lat="43.44912" lon="-0.3387">
        <ele>229.654</ele>
        <time>2011-05-29T07:43:38Z</time>
      </trkpt>
      <trkpt lat="43.44916" lon="-0.33893">
        <ele>229.434</ele>
        <time>2011-05-29T07:43:41Z</time>
      </trkpt>
      <trkpt lat="43.44919" lon="-0.33909">
        <ele>228.883</ele>
        <time>2011-05-29T07:43:43Z</time>
      </trkpt>
      <trkpt lat="43.44925" lon="-0.33934">
        <ele>226.755</ele>
        <time>2011-05-29T07:43:47Z</time>
      </trkpt>
      <trkpt lat="43.4493" lon="-0.3396">
        <ele>221.95</ele>
        <time>2011-05-29T07:43:52Z</time>
      </trkpt>
      <trkpt lat="43.44926" lon="-0.33962">
        <ele>217.924</ele>
        <time>2011-05-29T07:43:56Z</time>
      </trkpt>
      <trkpt lat="43.44924" lon="-0.33962">
        <ele>217.056</ele>
        <time>2011-05-29T07:43:58Z</time>
      </trkpt>
      <trkpt lat="43.44917" lon="-0.33968">
        <ele>217.875</ele>
        <time>2011-05-29T07:44:04Z</time>
      </trkpt>
      <trkpt lat="43.44907" lon="-0.33982">
        <ele>217.216</ele>
        <time>2011-05-29T07:44:08Z</time>
      </trkpt>
      <trkpt lat="43.4489" lon="-0.33996">
        <ele>213.983</ele>
        <time>2011-05-29T07:44:13Z</time>
      </trkpt>
      <trkpt lat="43.44884" lon="-0.34">
        <ele>212.728</ele>
        <time>2011-05-29T07:44:16Z</time>
      </trkpt>
      <trkpt lat="43.44883" lon="-0.34011">
        <ele>211.768</ele>
        <time>2011-05-29T07:44:19Z</time>
      </trkpt>
      <trkpt lat="43.44883" lon="-0.34026">
        <ele>209.547</ele>
        <time>2011-05-29T07:44:23Z</time>
      </trkpt>
      <trkpt lat="43.44888" lon="-0.34042">
        <ele>205.779</ele>
        <time>2011-05-29T07:44:27Z</time>
      </trkpt>
      <trkpt lat="43.449" lon="-0.34052">
        <ele>203.037</ele>
        <time>2011-05-29T07:44:31Z</time>
      </trkpt>
      <trkpt lat="43.44903" lon="-0.34054">
        <ele>202.399</ele>
        <time>2011-05-29T07:44:32Z</time>
      </trkpt>
      <trkpt lat="43.44918" lon="-0.34068">
        <ele>199.869</ele>
        <time>2011-05-29T07:44:37Z</time>
      </trkpt>
      <trkpt lat="43.4492" lon="-0.34072">
        <ele>199.332</ele>
        <time>2011-05-29T07:44:38Z</time>
      </trkpt>
      <trkpt lat="43.44914" lon="-0.34093">
        <ele>196.328</ele>
        <time>2011-05-29T07:44:42Z</time>
      </trkpt>
      <trkpt lat="43.44906" lon="-0.34107">
        <ele>192.054</ele>
        <time>2011-05-29T07:44:46Z</time>
      </trkpt>
      <trkpt lat="43.44889" lon="-0.34117">
        <ele>188.308</ele>
        <time>2011-05-29T07:44:50Z</time>
      </trkpt>
      <trkpt lat="43.44886" lon="-0.34131">
        <ele>186.972</ele>
        <time>2011-05-29T07:44:53Z</time>
      </trkpt>
      <trkpt lat="43.44889" lon="-0.34138">
        <ele>186.718</ele>
        <time>2011-05-29T07:44:55Z</time>
      </trkpt>
      <trkpt lat="43.44892" lon="-0.34167">
        <ele>186.528</ele>
        <time>2011-05-29T07:45:02Z</time>
      </trkpt>
      <trkpt lat="43.44904" lon="-0.34187">
        <ele>187.255</ele>
        <time>2011-05-29T07:45:06Z</time>
      </trkpt>
      <trkpt lat="43.44915" lon="-0.34196">
        <ele>187.514</ele>
        <time>2011-05-29T07:45:08Z</time>
      </trkpt>
      <trkpt lat="43.44936" lon="-0.34229">
        <ele>187.699</ele>
        <time>2011-05-29T07:45:13Z</time>
      </trkpt>
      <trkpt lat="43.44942" lon="-0.34234">
        <ele>187.753</ele>
        <time>2011-05-29T07:45:14Z</time>
      </trkpt>
      <trkpt lat="43.44966" lon="-0.34252">
        <ele>188.72</ele>
        <time>2011-05-29T07:45:20Z</time>
      </trkpt>
      <trkpt lat="43.44984" lon="-0.34263">
        <ele>189.466</ele>
        <time>2011-05-29T07:45:25Z</time>
      </trkpt>
      <trkpt lat="43.45" lon="-0.34265">
        <ele>191.04</ele>
        <time>2011-05-29T07:45:30Z</time>
      </trkpt>
      <trkpt lat="43.45015" lon="-0.34272">
        <ele>192.717</ele>
        <time>2011-05-29T07:45:35Z</time>
      </trkpt>
      <trkpt lat="43.45016" lon="-0.34289">
        <ele>194.018</ele>
        <time>2011-05-29T07:45:40Z</time>
      </trkpt>
      <trkpt lat="43.45009" lon="-0.34308">
        <ele>196.011</ele>
        <time>2011-05-29T07:45:48Z</time>
      </trkpt>
      <trkpt lat="43.45002" lon="-0.34327">
        <ele>198.128</ele>
        <time>2011-05-29T07:45:55Z</time>
      </trkpt>
      <trkpt lat="43.44996" lon="-0.34346">
        <ele>199.555</ele>
        <time>2011-05-29T07:46:01Z</time>
      </trkpt>
      <trkpt lat="43.44996" lon="-0.34349">
        <ele>199.803</ele>
        <time>2011-05-29T07:46:02Z</time>
      </trkpt>
      <trkpt lat="43.45005" lon="-0.34367">
        <ele>201.749</ele>
        <time>2011-05-29T07:46:09Z</time>
      </trkpt>
      <trkpt lat="43.45006" lon="-0.34374">
        <ele>202.33</ele>
        <time>2011-05-29T07:46:12Z</time>
      </trkpt>
      <trkpt lat="43.45007" lon="-0.34398">
        <ele>204.512</ele>
        <time>2011-05-29T07:46:21Z</time>
      </trkpt>
      <trkpt lat="43.4501" lon="-0.34409">
        <ele>205.862</ele>
        <time>2011-05-29T07:46:27Z</time>
      </trkpt>
      <trkpt lat="43.4501" lon="-0.34411">
        <ele>206.064</ele>
        <time>2011-05-29T07:46:28Z</time>
      </trkpt>
      <trkpt lat="43.45014" lon="-0.34417">
        <ele>206.851</ele>
        <time>2011-05-29T07:46:32Z</time>
      </trkpt>
      <trkpt lat="43.4502" lon="-0.34431">
        <ele>208.906</ele>
        <time>2011-05-29T07:46:41Z</time>
      </trkpt>
      <trkpt lat="43.45022" lon="-0.34443">
        <ele>211.383</ele>
        <time>2011-05-29T07:46:49Z</time>
      </trkpt>
      <trkpt lat="43.45022" lon="-0.34445">
        <ele>211.74</ele>
        <time>2011-05-29T07:46:50Z</time>
      </trkpt>
      <trkpt lat="43.45017" lon="-0.34456">
        <ele>213.479</ele>
        <time>2011-05-29T07:46:58Z</time>
      </trkpt>
      <trkpt lat="43.45017" lon="-0.34457">
        <ele>213.684</ele>
        <time>2011-05-29T07:46:59Z</time>
      </trkpt>
      <trkpt lat="43.45011" lon="-0.34466">
        <ele>215.461</ele>
        <time>2011-05-29T07:47:08Z</time>
      </trkpt>
      <trkpt lat="43.45003" lon="-0.34477">
        <ele>217.122</ele>
        <time>2011-05-29T07:47:16Z</time>
      </trkpt>
      <trkpt lat="43.44997" lon="-0.34488">
        <ele>218.661</ele>
        <time>2011-05-29T07:47:24Z</time>
      </trkpt>
      <trkpt lat="43.44989" lon="-0.34502">
        <ele>219.699</ele>
        <time>2011-05-29T07:47:31Z</time>
      </trkpt>
      <trkpt lat="43.44977" lon="-0.34525">
        <ele>221.045</ele>
        <time>2011-05-29T07:47:41Z</time>
      </trkpt>
      <trkpt lat="43.44974" lon="-0.34545">
        <ele>222.061</ele>
        <time>2011-05-29T07:47:48Z</time>
      </trkpt>
      <trkpt lat="43.44977" lon="-0.34566">
        <ele>223.068</ele>
        <time>2011-05-29T07:47:55Z</time>
      </trkpt>
      <trkpt lat="43.44974" lon="-0.34592">
        <ele>224.327</ele>
        <time>2011-05-29T07:48:02Z</time>
      </trkpt>
      <trkpt lat="43.44977" lon="-0.34617">
        <ele>224.867</ele>
        <time>2011-05-29T07:48:08Z</time>
      </trkpt>
      <trkpt lat="43.44994" lon="-0.34632">
        <ele>224.891</ele>
        <time>2011-05-29T07:48:13Z</time>
      </trkpt>
      <trkpt lat="43.45031" lon="-0.34661">
        <ele>225.215</ele>
        <time>2011-05-29T07:48:22Z</time>
      </trkpt>
      <trkpt lat="43.45075" lon="-0.34693">
        <ele>224.579</ele>
        <time>2011-05-29T07:48:31Z</time>
      </trkpt>
      <trkpt lat="43.4509" lon="-0.34701">
        <ele>224.461</ele>
        <time>2011-05-29T07:48:34Z</time>
      </trkpt>
      <trkpt lat="43.45118" lon="-0.34698">
        <ele>224.613</ele>
        <time>2011-05-29T07:48:39Z</time>
      </trkpt>
      <trkpt lat="43.4513" lon="-0.34694">
        <ele>224.479</ele>
        <time>2011-05-29T07:48:41Z</time>
      </trkpt>
      <trkpt lat="43.45155" lon="-0.347">
        <ele>224.065</ele>
        <time>2011-05-29T07:48:45Z</time>
      </trkpt>
      <trkpt lat="43.45169" lon="-0.34724">
        <ele>223.703</ele>
        <time>2011-05-29T07:48:49Z</time>
      </trkpt>
      <trkpt lat="43.45165" lon="-0.34738">
        <ele>223.767</ele>
        <time>2011-05-29T07:48:51Z</time>
      </trkpt>
      <trkpt lat="43.45154" lon="-0.34773">
        <ele>223.939</ele>
        <time>2011-05-29T07:48:56Z</time>
      </trkpt>
      <trkpt lat="43.45133" lon="-0.34808">
        <ele>224.252</ele>
        <time>2011-05-29T07:49:02Z</time>
      </trkpt>
      <trkpt lat="43.45104" lon="-0.34841">
        <ele>224.336</ele>
        <time>2011-05-29T07:49:08Z</time>
      </trkpt>
      <trkpt lat="43.45056" lon="-0.34889">
        <ele>223.907</ele>
        <time>2011-05-29T07:49:17Z</time>
      </trkpt>
      <trkpt lat="43.44999" lon="-0.34951">
        <ele>224.368</ele>
        <time>2011-05-29T07:49:29Z</time>
      </trkpt>
      <trkpt lat="43.44966" lon="-0.35">
        <ele>224.376</ele>
        <time>2011-05-29T07:49:37Z</time>
      </trkpt>
      <trkpt lat="43.44952" lon="-0.35025">
        <ele>224.46</ele>
        <time>2011-05-29T07:49:41Z</time>
      </trkpt>
      <trkpt lat="43.44933" lon="-0.35039">
        <ele>224.879</ele>
        <time>2011-05-29T07:49:45Z</time>
      </trkpt>
      <trkpt lat="43.44885" lon="-0.35049">
        <ele>225.87</ele>
        <time>2011-05-29T07:49:54Z</time>
      </trkpt>
      <trkpt lat="43.44817" lon="-0.35059">
        <ele>226.902</ele>
        <time>2011-05-29T07:50:07Z</time>
      </trkpt>
      <trkpt lat="43.44808" lon="-0.35061">
        <ele>227.099</ele>
        <time>2011-05-29T07:50:09Z</time>
      </trkpt>
      <trkpt lat="43.44774" lon="-0.35066">
        <ele>228.087</ele>
        <time>2011-05-29T07:50:16Z</time>
      </trkpt>
      <trkpt lat="43.4476" lon="-0.35065">
        <ele>228.627</ele>
        <time>2011-05-29T07:50:19Z</time>
      </trkpt>
      <trkpt lat="43.44751" lon="-0.35064">
        <ele>228.981</ele>
        <time>2011-05-29T07:50:21Z</time>
      </trkpt>
      <trkpt lat="43.4474" lon="-0.35056">
        <ele>229.348</ele>
        <time>2011-05-29T07:50:24Z</time>
      </trkpt>
      <trkpt lat="43.44723" lon="-0.35057">
        <ele>229.857</ele>
        <time>2011-05-29T07:50:28Z</time>
      </trkpt>
      <trkpt lat="43.44716" lon="-0.35065">
        <ele>230</ele>
        <time>2011-05-29T07:50:30Z</time>
      </trkpt>
      <trkpt lat="43.44692" lon="-0.35107">
        <ele>231.283</ele>
        <time>2011-05-29T07:50:39Z</time>
      </trkpt>
      <trkpt lat="43.44676" lon="-0.35134">
        <ele>232.827</ele>
        <time>2011-05-29T07:50:46Z</time>
      </trkpt>
      <trkpt lat="43.44655" lon="-0.35165">
        <ele>234.946</ele>
        <time>2011-05-29T07:50:55Z</time>
      </trkpt>
      <trkpt lat="43.44638" lon="-0.35194">
        <ele>237.517</ele>
        <time>2011-05-29T07:51:03Z</time>
      </trkpt>
      <trkpt lat="43.44626" lon="-0.35221">
        <ele>239.304</ele>
        <time>2011-05-29T07:51:10Z</time>
      </trkpt>
      <trkpt lat="43.44614" lon="-0.35258">
        <ele>241.417</ele>
        <time>2011-05-29T07:51:19Z</time>
      </trkpt>
      <trkpt lat="43.44607" lon="-0.3529">
        <ele>243.73</ele>
        <time>2011-05-29T07:51:27Z</time>
      </trkpt>
      <trkpt lat="43.44595" lon="-0.35332">
        <ele>246.915</ele>
        <time>2011-05-29T07:51:37Z</time>
      </trkpt>
      <trkpt lat="43.44583" lon="-0.35367">
        <ele>249.065</ele>
        <time>2011-05-29T07:51:45Z</time>
      </trkpt>
      <trkpt lat="43.44578" lon="-0.35398">
        <ele>250.745</ele>
        <time>2011-05-29T07:51:52Z</time>
      </trkpt>
      <trkpt lat="43.44579" lon="-0.35403">
        <ele>250.862</ele>
        <time>2011-05-29T07:51:53Z</time>
      </trkpt>
      <trkpt lat="43.44587" lon="-0.3542">
        <ele>250.714</ele>
        <time>2011-05-29T07:51:57Z</time>
      </trkpt>
      <trkpt lat="43.44604" lon="-0.35446">
        <ele>251.075</ele>
        <time>2011-05-29T07:52:04Z</time>
      </trkpt>
      <trkpt lat="43.4462" lon="-0.35463">
        <ele>252.619</ele>
        <time>2011-05-29T07:52:11Z</time>
      </trkpt>
      <trkpt lat="43.44636" lon="-0.35476">
        <ele>255.169</ele>
        <time>2011-05-29T07:52:20Z</time>
      </trkpt>
      <trkpt lat="43.4465" lon="-0.35485">
        <ele>257.776</ele>
        <time>2011-05-29T07:52:28Z</time>
      </trkpt>
      <trkpt lat="43.44665" lon="-0.35492">
        <ele>260.781</ele>
        <time>2011-05-29T07:52:37Z</time>
      </trkpt>
      <trkpt lat="43.44681" lon="-0.35496">
        <ele>263.794</ele>
        <time>2011-05-29T07:52:46Z</time>
      </trkpt>
      <trkpt lat="43.44694" lon="-0.35501">
        <ele>265.856</ele>
        <time>2011-05-29T07:52:53Z</time>
      </trkpt>
      <trkpt lat="43.44711" lon="-0.35513">
        <ele>266.824</ele>
        <time>2011-05-29T07:53:00Z</time>
      </trkpt>
      <trkpt lat="43.44733" lon="-0.35531">
        <ele>266.86</ele>
        <time>2011-05-29T07:53:07Z</time>
      </trkpt>
      <trkpt lat="43.44746" lon="-0.35543">
        <ele>266.778</ele>
        <time>2011-05-29T07:53:11Z</time>
      </trkpt>
      <trkpt lat="43.44754" lon="-0.35566">
        <ele>266.596</ele>
        <time>2011-05-29T07:53:16Z</time>
      </trkpt>
      <trkpt lat="43.4475" lon="-0.35574">
        <ele>266.646</ele>
        <time>2011-05-29T07:53:18Z</time>
      </trkpt>
      <trkpt lat="43.44743" lon="-0.35598">
        <ele>267.769</ele>
        <time>2011-05-29T07:53:24Z</time>
      </trkpt>
      <trkpt lat="43.44745" lon="-0.35603">
        <ele>267.855</ele>
        <time>2011-05-29T07:53:25Z</time>
      </trkpt>
      <trkpt lat="43.44753" lon="-0.35618">
        <ele>265.491</ele>
        <time>2011-05-29T07:53:30Z</time>
      </trkpt>
      <trkpt lat="43.44742" lon="-0.35622">
        <ele>263.02</ele>
        <time>2011-05-29T07:53:33Z</time>
      </trkpt>
      <trkpt lat="43.44718" lon="-0.35622">
        <ele>260.65</ele>
        <time>2011-05-29T07:53:37Z</time>
      </trkpt>
      <trkpt lat="43.44707" lon="-0.35624">
        <ele>259.666</ele>
        <time>2011-05-29T07:53:39Z</time>
      </trkpt>
      <trkpt lat="43.44711" lon="-0.35635">
        <ele>257.455</ele>
        <time>2011-05-29T07:53:43Z</time>
      </trkpt>
      <trkpt lat="43.44721" lon="-0.35642">
        <ele>256.803</ele>
        <time>2011-05-29T07:53:45Z</time>
      </trkpt>
      <trkpt lat="43.44734" lon="-0.35652">
        <ele>255.128</ele>
        <time>2011-05-29T07:53:47Z</time>
      </trkpt>
      <trkpt lat="43.44744" lon="-0.35661">
        <ele>252.961</ele>
        <time>2011-05-29T07:53:49Z</time>
      </trkpt>
      <trkpt lat="43.44734" lon="-0.35671">
        <ele>248.258</ele>
        <time>2011-05-29T07:53:53Z</time>
      </trkpt>
      <trkpt lat="43.44729" lon="-0.35673">
        <ele>247.313</ele>
        <time>2011-05-29T07:53:54Z</time>
      </trkpt>
      <trkpt lat="43.44701" lon="-0.35691">
        <ele>243.224</ele>
        <time>2011-05-29T07:54:00Z</time>
      </trkpt>
      <trkpt lat="43.44699" lon="-0.35699">
        <ele>242.387</ele>
        <time>2011-05-29T07:54:01Z</time>
      </trkpt>
      <trkpt lat="43.44696" lon="-0.35714">
        <ele>240.546</ele>
        <time>2011-05-29T07:54:03Z</time>
      </trkpt>
      <trkpt lat="43.44703" lon="-0.35727">
        <ele>236.983</ele>
        <time>2011-05-29T07:54:07Z</time>
      </trkpt>
      <trkpt lat="43.4472" lon="-0.35732">
        <ele>235.245</ele>
        <time>2011-05-29T07:54:11Z</time>
      </trkpt>
      <trkpt lat="43.44726" lon="-0.35745">
        <ele>234.378</ele>
        <time>2011-05-29T07:54:14Z</time>
      </trkpt>
      <trkpt lat="43.44737" lon="-0.35758">
        <ele>233.54</ele>
        <time>2011-05-29T07:54:17Z</time>
      </trkpt>
      <trkpt lat="43.44766" lon="-0.35781">
        <ele>231.867</ele>
        <time>2011-05-29T07:54:23Z</time>
      </trkpt>
      <trkpt lat="43.44759" lon="-0.35793">
        <ele>230.323</ele>
        <time>2011-05-29T07:54:26Z</time>
      </trkpt>
      <trkpt lat="43.4474" lon="-0.35798">
        <ele>228.428</ele>
        <time>2011-05-29T07:54:28Z</time>
      </trkpt>
      <trkpt lat="43.44732" lon="-0.35801">
        <ele>227.027</ele>
        <time>2011-05-29T07:54:29Z</time>
      </trkpt>
      <trkpt lat="43.44701" lon="-0.35818">
        <ele>220.844</ele>
        <time>2011-05-29T07:54:33Z</time>
      </trkpt>
      <trkpt lat="43.4468" lon="-0.35819">
        <ele>217.977</ele>
        <time>2011-05-29T07:54:36Z</time>
      </trkpt>
      <trkpt lat="43.44663" lon="-0.35812">
        <ele>215.371</ele>
        <time>2011-05-29T07:54:39Z</time>
      </trkpt>
      <trkpt lat="43.44653" lon="-0.35806">
        <ele>214.574</ele>
        <time>2011-05-29T07:54:41Z</time>
      </trkpt>
      <trkpt lat="43.44645" lon="-0.35801">
        <ele>214.275</ele>
        <time>2011-05-29T07:54:43Z</time>
      </trkpt>
      <trkpt lat="43.44636" lon="-0.35818">
        <ele>214.114</ele>
        <time>2011-05-29T07:54:47Z</time>
      </trkpt>
      <trkpt lat="43.44636" lon="-0.35823">
        <ele>214.011</ele>
        <time>2011-05-29T07:54:48Z</time>
      </trkpt>
      <trkpt lat="43.44635" lon="-0.35844">
        <ele>212.175</ele>
        <time>2011-05-29T07:54:52Z</time>
      </trkpt>
      <trkpt lat="43.44638" lon="-0.35857">
        <ele>208.781</ele>
        <time>2011-05-29T07:54:57Z</time>
      </trkpt>
      <trkpt lat="43.44634" lon="-0.35872">
        <ele>207.23</ele>
        <time>2011-05-29T07:55:01Z</time>
      </trkpt>
      <trkpt lat="43.44627" lon="-0.35878">
        <ele>205.578</ele>
        <time>2011-05-29T07:55:05Z</time>
      </trkpt>
      <trkpt lat="43.44626" lon="-0.3588">
        <ele>204.623</ele>
        <time>2011-05-29T07:55:10Z</time>
      </trkpt>
      <trkpt lat="43.44625" lon="-0.35881">
        <ele>204.529</ele>
        <time>2011-05-29T07:55:13Z</time>
      </trkpt>
      <trkpt lat="43.44618" lon="-0.35889">
        <ele>203.989</ele>
        <time>2011-05-29T07:55:18Z</time>
      </trkpt>
      <trkpt lat="43.44605" lon="-0.35894">
        <ele>202.493</ele>
        <time>2011-05-29T07:55:22Z</time>
      </trkpt>
      <trkpt lat="43.44597" lon="-0.35893">
        <ele>201.222</ele>
        <time>2011-05-29T07:55:25Z</time>
      </trkpt>
      <trkpt lat="43.44591" lon="-0.35889">
        <ele>200.702</ele>
        <time>2011-05-29T07:55:28Z</time>
      </trkpt>
      <trkpt lat="43.44587" lon="-0.35888">
        <ele>200.371</ele>
        <time>2011-05-29T07:55:31Z</time>
      </trkpt>
      <trkpt lat="43.44591" lon="-0.35899">
        <ele>199.828</ele>
        <time>2011-05-29T07:55:35Z</time>
      </trkpt>
      <trkpt lat="43.446" lon="-0.35923">
        <ele>198.498</ele>
        <time>2011-05-29T07:55:39Z</time>
      </trkpt>
      <trkpt lat="43.44609" lon="-0.35943">
        <ele>197.275</ele>
        <time>2011-05-29T07:55:42Z</time>
      </trkpt>
      <trkpt lat="43.44616" lon="-0.35955">
        <ele>196.119</ele>
        <time>2011-05-29T07:55:45Z</time>
      </trkpt>
      <trkpt lat="43.44624" lon="-0.35962">
        <ele>195.665</ele>
        <time>2011-05-29T07:55:47Z</time>
      </trkpt>
      <trkpt lat="43.44641" lon="-0.35974">
        <ele>195.655</ele>
        <time>2011-05-29T07:55:51Z</time>
      </trkpt>
      <trkpt lat="43.4465" lon="-0.35981">
        <ele>195.679</ele>
        <time>2011-05-29T07:55:53Z</time>
      </trkpt>
      <trkpt lat="43.44659" lon="-0.3599">
        <ele>195.73</ele>
        <time>2011-05-29T07:55:55Z</time>
      </trkpt>
      <trkpt lat="43.44673" lon="-0.36009">
        <ele>195.167</ele>
        <time>2011-05-29T07:55:58Z</time>
      </trkpt>
      <trkpt lat="43.44694" lon="-0.3603">
        <ele>194.051</ele>
        <time>2011-05-29T07:56:02Z</time>
      </trkpt>
      <trkpt lat="43.44707" lon="-0.36038">
        <ele>193.277</ele>
        <time>2011-05-29T07:56:04Z</time>
      </trkpt>
      <trkpt lat="43.44733" lon="-0.36047">
        <ele>191.814</ele>
        <time>2011-05-29T07:56:08Z</time>
      </trkpt>
      <trkpt lat="43.44775" lon="-0.36069">
        <ele>189.943</ele>
        <time>2011-05-29T07:56:15Z</time>
      </trkpt>
      <trkpt lat="43.44802" lon="-0.36074">
        <ele>188.6</ele>
        <time>2011-05-29T07:56:20Z</time>
      </trkpt>
      <trkpt lat="43.44808" lon="-0.36076">
        <ele>188.274</ele>
        <time>2011-05-29T07:56:21Z</time>
      </trkpt>
      <trkpt lat="43.44827" lon="-0.36068">
        <ele>187.471</ele>
        <time>2011-05-29T07:56:25Z</time>
      </trkpt>
      <trkpt lat="43.4483" lon="-0.36064">
        <ele>187.492</ele>
        <time>2011-05-29T07:56:26Z</time>
      </trkpt>
      <trkpt lat="43.44845" lon="-0.36038">
        <ele>188.374</ele>
        <time>2011-05-29T07:56:31Z</time>
      </trkpt>
      <trkpt lat="43.4485" lon="-0.36021">
        <ele>190.065</ele>
        <time>2011-05-29T07:56:35Z</time>
      </trkpt>
      <trkpt lat="43.44859" lon="-0.35997">
        <ele>191.755</ele>
        <time>2011-05-29T07:56:40Z</time>
      </trkpt>
      <trkpt lat="43.44867" lon="-0.35986">
        <ele>192.643</ele>
        <time>2011-05-29T07:56:44Z</time>
      </trkpt>
      <trkpt lat="43.44879" lon="-0.35974">
        <ele>194.758</ele>
        <time>2011-05-29T07:56:51Z</time>
      </trkpt>
      <trkpt lat="43.44887" lon="-0.35963">
        <ele>196.6</ele>
        <time>2011-05-29T07:56:57Z</time>
      </trkpt>
      <trkpt lat="43.44896" lon="-0.35952">
        <ele>198.375</ele>
        <time>2011-05-29T07:57:04Z</time>
      </trkpt>
      <trkpt lat="43.44904" lon="-0.35942">
        <ele>199.473</ele>
        <time>2011-05-29T07:57:10Z</time>
      </trkpt>
      <trkpt lat="43.44915" lon="-0.35931">
        <ele>201.014</ele>
        <time>2011-05-29T07:57:17Z</time>
      </trkpt>
      <trkpt lat="43.44925" lon="-0.35919">
        <ele>203.051</ele>
        <time>2011-05-29T07:57:24Z</time>
      </trkpt>
      <trkpt lat="43.44935" lon="-0.35913">
        <ele>204.939</ele>
        <time>2011-05-29T07:57:31Z</time>
      </trkpt>
      <trkpt lat="43.44947" lon="-0.35909">
        <ele>205.768</ele>
        <time>2011-05-29T07:57:37Z</time>
      </trkpt>
      <trkpt lat="43.44963" lon="-0.35903">
        <ele>205.755</ele>
        <time>2011-05-29T07:57:42Z</time>
      </trkpt>
      <trkpt lat="43.44974" lon="-0.35897">
        <ele>205.959</ele>
        <time>2011-05-29T07:57:46Z</time>
      </trkpt>
      <trkpt lat="43.44989" lon="-0.35879">
        <ele>206.858</ele>
        <time>2011-05-29T07:57:53Z</time>
      </trkpt>
      <trkpt lat="43.45001" lon="-0.3586">
        <ele>207.581</ele>
        <time>2011-05-29T07:57:59Z</time>
      </trkpt>
      <trkpt lat="43.45012" lon="-0.35833">
        <ele>208.374</ele>
        <time>2011-05-29T07:58:06Z</time>
      </trkpt>
      <trkpt lat="43.45022" lon="-0.35811">
        <ele>208.69</ele>
        <time>2011-05-29T07:58:12Z</time>
      </trkpt>
      <trkpt lat="43.45031" lon="-0.35794">
        <ele>209.562</ele>
        <time>2011-05-29T07:58:17Z</time>
      </trkpt>
      <trkpt lat="43.45037" lon="-0.35772">
        <ele>210.617</ele>
        <time>2011-05-29T07:58:23Z</time>
      </trkpt>
      <trkpt lat="43.45037" lon="-0.35759">
        <ele>211.252</ele>
        <time>2011-05-29T07:58:27Z</time>
      </trkpt>
      <trkpt lat="43.4504" lon="-0.35745">
        <ele>212.254</ele>
        <time>2011-05-29T07:58:32Z</time>
      </trkpt>
      <trkpt lat="43.45046" lon="-0.35728">
        <ele>213.468</ele>
        <time>2011-05-29T07:58:38Z</time>
      </trkpt>
      <trkpt lat="43.45054" lon="-0.35705">
        <ele>215.123</ele>
        <time>2011-05-29T07:58:46Z</time>
      </trkpt>
      <trkpt lat="43.45059" lon="-0.35692">
        <ele>216.599</ele>
        <time>2011-05-29T07:58:52Z</time>
      </trkpt>
      <trkpt lat="43.45068" lon="-0.35679">
        <ele>219.156</ele>
        <time>2011-05-29T07:58:59Z</time>
      </trkpt>
      <trkpt lat="43.45075" lon="-0.35666">
        <ele>221.047</ele>
        <time>2011-05-29T07:59:06Z</time>
      </trkpt>
      <trkpt lat="43.45081" lon="-0.35649">
        <ele>223.017</ele>
        <time>2011-05-29T07:59:14Z</time>
      </trkpt>
      <trkpt lat="43.45086" lon="-0.35633">
        <ele>224.692</ele>
        <time>2011-05-29T07:59:21Z</time>
      </trkpt>
      <trkpt lat="43.45091" lon="-0.35613">
        <ele>225.724</ele>
        <time>2011-05-29T07:59:29Z</time>
      </trkpt>
      <trkpt lat="43.45088" lon="-0.35594">
        <ele>226.693</ele>
        <time>2011-05-29T07:59:36Z</time>
      </trkpt>
      <trkpt lat="43.45083" lon="-0.35572">
        <ele>227.542</ele>
        <time>2011-05-29T07:59:42Z</time>
      </trkpt>
      <trkpt lat="43.45079" lon="-0.35548">
        <ele>227.468</ele>
        <time>2011-05-29T07:59:47Z</time>
      </trkpt>
      <trkpt lat="43.45089" lon="-0.35544">
        <ele>226.734</ele>
        <time>2011-05-29T07:59:51Z</time>
      </trkpt>
      <trkpt lat="43.45094" lon="-0.35546">
        <ele>226.526</ele>
        <time>2011-05-29T07:59:52Z</time>
      </trkpt>
      <trkpt lat="43.45107" lon="-0.35554">
        <ele>226.094</ele>
        <time>2011-05-29T07:59:55Z</time>
      </trkpt>
      <trkpt lat="43.45142" lon="-0.35578">
        <ele>225.568</ele>
        <time>2011-05-29T08:00:03Z</time>
      </trkpt>
      <trkpt lat="43.45171" lon="-0.35598">
        <ele>225.188</ele>
        <time>2011-05-29T08:00:09Z</time>
      </trkpt>
      <trkpt lat="43.45206" lon="-0.35626">
        <ele>224.625</ele>
        <time>2011-05-29T08:00:16Z</time>
      </trkpt>
      <trkpt lat="43.4525" lon="-0.35657">
        <ele>223.824</ele>
        <time>2011-05-29T08:00:24Z</time>
      </trkpt>
      <trkpt lat="43.45256" lon="-0.35661">
        <ele>223.75</ele>
        <time>2011-05-29T08:00:25Z</time>
      </trkpt>
      <trkpt lat="43.45291" lon="-0.35684">
        <ele>223.61</ele>
        <time>2011-05-29T08:00:32Z</time>
      </trkpt>
      <trkpt lat="43.45299" lon="-0.35689">
        <ele>223.799</ele>
        <time>2011-05-29T08:00:34Z</time>
      </trkpt>
      <trkpt lat="43.45305" lon="-0.35715">
        <ele>223.726</ele>
        <time>2011-05-29T08:00:38Z</time>
      </trkpt>
      <trkpt lat="43.45305" lon="-0.35723">
        <ele>223.64</ele>
        <time>2011-05-29T08:00:39Z</time>
      </trkpt>
      <trkpt lat="43.45305" lon="-0.35739">
        <ele>223.023</ele>
        <time>2011-05-29T08:00:41Z</time>
      </trkpt>
      <trkpt lat="43.45304" lon="-0.35756">
        <ele>222.198</ele>
        <time>2011-05-29T08:00:43Z</time>
      </trkpt>
      <trkpt lat="43.45312" lon="-0.35784">
        <ele>219.256</ele>
        <time>2011-05-29T08:00:47Z</time>
      </trkpt>
      <trkpt lat="43.45319" lon="-0.35787">
        <ele>218.437</ele>
        <time>2011-05-29T08:00:48Z</time>
      </trkpt>
      <trkpt lat="43.45345" lon="-0.35796">
        <ele>215.441</ele>
        <time>2011-05-29T08:00:51Z</time>
      </trkpt>
      <trkpt lat="43.45366" lon="-0.35809">
        <ele>213.53</ele>
        <time>2011-05-29T08:00:53Z</time>
      </trkpt>
      <trkpt lat="43.45417" lon="-0.35859">
        <ele>209.32</ele>
        <time>2011-05-29T08:00:59Z</time>
      </trkpt>
      <trkpt lat="43.45449" lon="-0.35878">
        <ele>205.728</ele>
        <time>2011-05-29T08:01:03Z</time>
      </trkpt>
      <trkpt lat="43.45495" lon="-0.35899">
        <ele>200.448</ele>
        <time>2011-05-29T08:01:08Z</time>
      </trkpt>
      <trkpt lat="43.45523" lon="-0.35914">
        <ele>197.435</ele>
        <time>2011-05-29T08:01:11Z</time>
      </trkpt>
      <trkpt lat="43.45548" lon="-0.35934">
        <ele>194.332</ele>
        <time>2011-05-29T08:01:14Z</time>
      </trkpt>
      <trkpt lat="43.45589" lon="-0.35961">
        <ele>190.503</ele>
        <time>2011-05-29T08:01:19Z</time>
      </trkpt>
      <trkpt lat="43.45623" lon="-0.35981">
        <ele>187.057</ele>
        <time>2011-05-29T08:01:23Z</time>
      </trkpt>
      <trkpt lat="43.45665" lon="-0.36033">
        <ele>180.506</ele>
        <time>2011-05-29T08:01:29Z</time>
      </trkpt>
      <trkpt lat="43.45691" lon="-0.36088">
        <ele>174.912</ele>
        <time>2011-05-29T08:01:34Z</time>
      </trkpt>
      <trkpt lat="43.45717" lon="-0.36124">
        <ele>171.373</ele>
        <time>2011-05-29T08:01:38Z</time>
      </trkpt>
      <trkpt lat="43.45747" lon="-0.36164">
        <ele>168.623</ele>
        <time>2011-05-29T08:01:43Z</time>
      </trkpt>
      <trkpt lat="43.45761" lon="-0.36188">
        <ele>167.719</ele>
        <time>2011-05-29T08:01:46Z</time>
      </trkpt>
      <trkpt lat="43.4578" lon="-0.36208">
        <ele>166.33</ele>
        <time>2011-05-29T08:01:50Z</time>
      </trkpt>
      <trkpt lat="43.45779" lon="-0.36206">
        <ele>165.952</ele>
        <time>2011-05-29T08:01:53Z</time>
      </trkpt>
      <trkpt lat="43.45777" lon="-0.362">
        <ele>165.638</ele>
        <time>2011-05-29T08:01:58Z</time>
      </trkpt>
      <trkpt lat="43.45777" lon="-0.36197">
        <ele>165.918</ele>
        <time>2011-05-29T08:02:03Z</time>
      </trkpt>
      <trkpt lat="43.45782" lon="-0.36191">
        <ele>166.873</ele>
        <time>2011-05-29T08:02:08Z</time>
      </trkpt>
      <trkpt lat="43.45786" lon="-0.36191">
        <ele>167.301</ele>
        <time>2011-05-29T08:02:11Z</time>
      </trkpt>
      <trkpt lat="43.45788" lon="-0.36191">
        <ele>167.595</ele>
        <time>2011-05-29T08:02:16Z</time>
      </trkpt>
      <trkpt lat="43.45795" lon="-0.36189">
        <ele>167.515</ele>
        <time>2011-05-29T08:02:22Z</time>
      </trkpt>
      <trkpt lat="43.45796" lon="-0.36188">
        <ele>167.507</ele>
        <time>2011-05-29T08:02:23Z</time>
      </trkpt>
      <trkpt lat="43.45801" lon="-0.36188">
        <ele>166.691</ele>
        <time>2011-05-29T08:02:27Z</time>
      </trkpt>
      <trkpt lat="43.45811" lon="-0.36174">
        <ele>164.44</ele>
        <time>2011-05-29T08:02:34Z</time>
      </trkpt>
      <trkpt lat="43.45815" lon="-0.36172">
        <ele>164.315</ele>
        <time>2011-05-29T08:02:38Z</time>
      </trkpt>
      <trkpt lat="43.45819" lon="-0.36169">
        <ele>164.803</ele>
        <time>2011-05-29T08:02:44Z</time>
      </trkpt>
      <trkpt lat="43.45821" lon="-0.36169">
        <ele>165.236</ele>
        <time>2011-05-29T08:02:46Z</time>
      </trkpt>
      <trkpt lat="43.45825" lon="-0.36166">
        <ele>167.012</ele>
        <time>2011-05-29T08:02:52Z</time>
      </trkpt>
      <trkpt lat="43.45828" lon="-0.36162">
        <ele>168.436</ele>
        <time>2011-05-29T08:02:59Z</time>
      </trkpt>
      <trkpt lat="43.45828" lon="-0.36161">
        <ele>168.513</ele>
        <time>2011-05-29T08:03:05Z</time>
      </trkpt>
      <trkpt lat="43.45829" lon="-0.36158">
        <ele>168.808</ele>
        <time>2011-05-29T08:03:07Z</time>
      </trkpt>
      <trkpt lat="43.45834" lon="-0.36152">
        <ele>169.925</ele>
        <time>2011-05-29T08:03:12Z</time>
      </trkpt>
      <trkpt lat="43.45839" lon="-0.36146">
        <ele>171.304</ele>
        <time>2011-05-29T08:03:17Z</time>
      </trkpt>
      <trkpt lat="43.45847" lon="-0.36136">
        <ele>171.907</ele>
        <time>2011-05-29T08:03:24Z</time>
      </trkpt>
      <trkpt lat="43.4585" lon="-0.36131">
        <ele>172.061</ele>
        <time>2011-05-29T08:03:27Z</time>
      </trkpt>
      <trkpt lat="43.45858" lon="-0.36132">
        <ele>171.742</ele>
        <time>2011-05-29T08:03:31Z</time>
      </trkpt>
      <trkpt lat="43.45872" lon="-0.36134">
        <ele>170.423</ele>
        <time>2011-05-29T08:03:35Z</time>
      </trkpt>
      <trkpt lat="43.4588" lon="-0.36133">
        <ele>169.259</ele>
        <time>2011-05-29T08:03:39Z</time>
      </trkpt>
      <trkpt lat="43.45886" lon="-0.36135">
        <ele>168.643</ele>
        <time>2011-05-29T08:03:41Z</time>
      </trkpt>
      <trkpt lat="43.45901" lon="-0.3614">
        <ele>166.364</ele>
        <time>2011-05-29T08:03:46Z</time>
      </trkpt>
      <trkpt lat="43.45914" lon="-0.36136">
        <ele>165.928</ele>
        <time>2011-05-29T08:03:51Z</time>
      </trkpt>
      <trkpt lat="43.4593" lon="-0.36134">
        <ele>167.263</ele>
        <time>2011-05-29T08:03:57Z</time>
      </trkpt>
      <trkpt lat="43.45949" lon="-0.36131">
        <ele>167.904</ele>
        <time>2011-05-29T08:04:04Z</time>
      </trkpt>
      <trkpt lat="43.45964" lon="-0.36131">
        <ele>168.991</ele>
        <time>2011-05-29T08:04:09Z</time>
      </trkpt>
      <trkpt lat="43.45982" lon="-0.3614">
        <ele>170.429</ele>
        <time>2011-05-29T08:04:14Z</time>
      </trkpt>
      <trkpt lat="43.46003" lon="-0.36151">
        <ele>170.298</ele>
        <time>2011-05-29T08:04:18Z</time>
      </trkpt>
      <trkpt lat="43.46015" lon="-0.36155">
        <ele>169.357</ele>
        <time>2011-05-29T08:04:20Z</time>
      </trkpt>
      <trkpt lat="43.4603" lon="-0.36158">
        <ele>167.907</ele>
        <time>2011-05-29T08:04:22Z</time>
      </trkpt>
      <trkpt lat="43.46061" lon="-0.36148">
        <ele>164.994</ele>
        <time>2011-05-29T08:04:26Z</time>
      </trkpt>
      <trkpt lat="43.46084" lon="-0.36135">
        <ele>164.621</ele>
        <time>2011-05-29T08:04:30Z</time>
      </trkpt>
      <trkpt lat="43.4609" lon="-0.36133">
        <ele>164.834</ele>
        <time>2011-05-29T08:04:31Z</time>
      </trkpt>
      <trkpt lat="43.46112" lon="-0.36128">
        <ele>165.154</ele>
        <time>2011-05-29T08:04:35Z</time>
      </trkpt>
      <trkpt lat="43.46141" lon="-0.36113">
        <ele>163.373</ele>
        <time>2011-05-29T08:04:39Z</time>
      </trkpt>
      <trkpt lat="43.4616" lon="-0.36112">
        <ele>162.157</ele>
        <time>2011-05-29T08:04:42Z</time>
      </trkpt>
      <trkpt lat="43.46167" lon="-0.3612">
        <ele>160.112</ele>
        <time>2011-05-29T08:04:45Z</time>
      </trkpt>
      <trkpt lat="43.46163" lon="-0.36125">
        <ele>158.871</ele>
        <time>2011-05-29T08:04:48Z</time>
      </trkpt>
      <trkpt lat="43.46161" lon="-0.36126">
        <ele>158.593</ele>
        <time>2011-05-29T08:04:49Z</time>
      </trkpt>
      <trkpt lat="43.4614" lon="-0.36134">
        <ele>158.381</ele>
        <time>2011-05-29T08:04:56Z</time>
      </trkpt>
      <trkpt lat="43.46109" lon="-0.3615">
        <ele>158.922</ele>
        <time>2011-05-29T08:05:04Z</time>
      </trkpt>
      <trkpt lat="43.46072" lon="-0.36172">
        <ele>159.209</ele>
        <time>2011-05-29T08:05:13Z</time>
      </trkpt>
      <trkpt lat="43.46064" lon="-0.36191">
        <ele>158.878</ele>
        <time>2011-05-29T08:05:17Z</time>
      </trkpt>
      <trkpt lat="43.46066" lon="-0.36197">
        <ele>158.693</ele>
        <time>2011-05-29T08:05:18Z</time>
      </trkpt>
      <trkpt lat="43.46073" lon="-0.36223">
        <ele>157.517</ele>
        <time>2011-05-29T08:05:23Z</time>
      </trkpt>
      <trkpt lat="43.46067" lon="-0.3623">
        <ele>157.203</ele>
        <time>2011-05-29T08:05:25Z</time>
      </trkpt>
      <trkpt lat="43.46044" lon="-0.36256">
        <ele>157.197</ele>
        <time>2011-05-29T08:05:31Z</time>
      </trkpt>
      <trkpt lat="43.4603" lon="-0.36278">
        <ele>157.425</ele>
        <time>2011-05-29T08:05:36Z</time>
      </trkpt>
      <trkpt lat="43.46026" lon="-0.36283">
        <ele>157.509</ele>
        <time>2011-05-29T08:05:37Z</time>
      </trkpt>
      <trkpt lat="43.46004" lon="-0.36295">
        <ele>157.633</ele>
        <time>2011-05-29T08:05:42Z</time>
      </trkpt>
      <trkpt lat="43.45983" lon="-0.36299">
        <ele>157.912</ele>
        <time>2011-05-29T08:05:47Z</time>
      </trkpt>
      <trkpt lat="43.45979" lon="-0.36302">
        <ele>157.94</ele>
        <time>2011-05-29T08:05:48Z</time>
      </trkpt>
      <trkpt lat="43.45977" lon="-0.36315">
        <ele>158.051</ele>
        <time>2011-05-29T08:05:52Z</time>
      </trkpt>
      <trkpt lat="43.45974" lon="-0.36334">
        <ele>158.066</ele>
        <time>2011-05-29T08:05:57Z</time>
      </trkpt>
      <trkpt lat="43.45964" lon="-0.36342">
        <ele>158.22</ele>
        <time>2011-05-29T08:06:00Z</time>
      </trkpt>
      <trkpt lat="43.45954" lon="-0.36345">
        <ele>158.217</ele>
        <time>2011-05-29T08:06:02Z</time>
      </trkpt>
      <trkpt lat="43.45912" lon="-0.36355">
        <ele>158.198</ele>
        <time>2011-05-29T08:06:10Z</time>
      </trkpt>
      <trkpt lat="43.45881" lon="-0.36349">
        <ele>158.451</ele>
        <time>2011-05-29T08:06:16Z</time>
      </trkpt>
      <trkpt lat="43.45835" lon="-0.36325">
        <ele>159.089</ele>
        <time>2011-05-29T08:06:25Z</time>
      </trkpt>
      <trkpt lat="43.45815" lon="-0.36325">
        <ele>159.322</ele>
        <time>2011-05-29T08:06:29Z</time>
      </trkpt>
      <trkpt lat="43.45801" lon="-0.36331">
        <ele>159.468</ele>
        <time>2011-05-29T08:06:32Z</time>
      </trkpt>
      <trkpt lat="43.45777" lon="-0.36328">
        <ele>159.871</ele>
        <time>2011-05-29T08:06:37Z</time>
      </trkpt>
      <trkpt lat="43.45766" lon="-0.36316">
        <ele>160.162</ele>
        <time>2011-05-29T08:06:40Z</time>
      </trkpt>
      <trkpt lat="43.45751" lon="-0.36302">
        <ele>160.508</ele>
        <time>2011-05-29T08:06:45Z</time>
      </trkpt>
      <trkpt lat="43.45747" lon="-0.36299">
        <ele>160.433</ele>
        <time>2011-05-29T08:06:49Z</time>
      </trkpt>
      <trkpt lat="43.4574" lon="-0.36295">
        <ele>160.464</ele>
        <time>2011-05-29T08:06:54Z</time>
      </trkpt>
      <trkpt lat="43.45735" lon="-0.36295">
        <ele>160.501</ele>
        <time>2011-05-29T08:06:57Z</time>
      </trkpt>
      <trkpt lat="43.45721" lon="-0.36292">
        <ele>160.5</ele>
        <time>2011-05-29T08:07:01Z</time>
      </trkpt>
      <trkpt lat="43.4569" lon="-0.36284">
        <ele>161.03</ele>
        <time>2011-05-29T08:07:08Z</time>
      </trkpt>
      <trkpt lat="43.45669" lon="-0.36284">
        <ele>161.258</ele>
        <time>2011-05-29T08:07:13Z</time>
      </trkpt>
      <trkpt lat="43.45663" lon="-0.36286">
        <ele>161.331</ele>
        <time>2011-05-29T08:07:15Z</time>
      </trkpt>
      <trkpt lat="43.45657" lon="-0.36287">
        <ele>161.191</ele>
        <time>2011-05-29T08:07:17Z</time>
      </trkpt>
      <trkpt lat="43.45652" lon="-0.36279">
        <ele>160.967</ele>
        <time>2011-05-29T08:07:21Z</time>
      </trkpt>
      <trkpt lat="43.45649" lon="-0.36277">
        <ele>160.948</ele>
        <time>2011-05-29T08:07:22Z</time>
      </trkpt>
      <trkpt lat="43.4562" lon="-0.36267">
        <ele>161.719</ele>
        <time>2011-05-29T08:07:29Z</time>
      </trkpt>
      <trkpt lat="43.45608" lon="-0.36274">
        <ele>162.042</ele>
        <time>2011-05-29T08:07:33Z</time>
      </trkpt>
      <trkpt lat="43.45598" lon="-0.36288">
        <ele>162.096</ele>
        <time>2011-05-29T08:07:37Z</time>
      </trkpt>
      <trkpt lat="43.45584" lon="-0.36282">
        <ele>162.146</ele>
        <time>2011-05-29T08:07:41Z</time>
      </trkpt>
      <trkpt lat="43.45559" lon="-0.36278">
        <ele>162.637</ele>
        <time>2011-05-29T08:07:47Z</time>
      </trkpt>
      <trkpt lat="43.45551" lon="-0.36286">
        <ele>162.973</ele>
        <time>2011-05-29T08:07:51Z</time>
      </trkpt>
      <trkpt lat="43.45543" lon="-0.36285">
        <ele>163.182</ele>
        <time>2011-05-29T08:07:55Z</time>
      </trkpt>
      <trkpt lat="43.45534" lon="-0.36289">
        <ele>162.983</ele>
        <time>2011-05-29T08:07:59Z</time>
      </trkpt>
      <trkpt lat="43.45527" lon="-0.36297">
        <ele>162.973</ele>
        <time>2011-05-29T08:08:02Z</time>
      </trkpt>
      <trkpt lat="43.45512" lon="-0.36316">
        <ele>163.29</ele>
        <time>2011-05-29T08:08:07Z</time>
      </trkpt>
      <trkpt lat="43.45499" lon="-0.36328">
        <ele>163.512</ele>
        <time>2011-05-29T08:08:11Z</time>
      </trkpt>
      <trkpt lat="43.45495" lon="-0.36334">
        <ele>163.473</ele>
        <time>2011-05-29T08:08:13Z</time>
      </trkpt>
      <trkpt lat="43.45482" lon="-0.36346">
        <ele>163.451</ele>
        <time>2011-05-29T08:08:18Z</time>
      </trkpt>
      <trkpt lat="43.4548" lon="-0.36347">
        <ele>163.214</ele>
        <time>2011-05-29T08:08:22Z</time>
      </trkpt>
      <trkpt lat="43.45478" lon="-0.36347">
        <ele>162.901</ele>
        <time>2011-05-29T08:08:25Z</time>
      </trkpt>
      <trkpt lat="43.45476" lon="-0.36347">
        <ele>162.805</ele>
        <time>2011-05-29T08:08:27Z</time>
      </trkpt>
      <trkpt lat="43.45474" lon="-0.36344">
        <ele>162.805</ele>
        <time>2011-05-29T08:08:30Z</time>
      </trkpt>
      <trkpt lat="43.45462" lon="-0.3634">
        <ele>163.56</ele>
        <time>2011-05-29T08:08:38Z</time>
      </trkpt>
      <trkpt lat="43.45454" lon="-0.36344">
        <ele>163.861</ele>
        <time>2011-05-29T08:08:42Z</time>
      </trkpt>
      <trkpt lat="43.45442" lon="-0.3634">
        <ele>164.127</ele>
        <time>2011-05-29T08:08:46Z</time>
      </trkpt>
      <trkpt lat="43.45426" lon="-0.36331">
        <ele>164.242</ele>
        <time>2011-05-29T08:08:51Z</time>
      </trkpt>
      <trkpt lat="43.4542" lon="-0.36332">
        <ele>164.246</ele>
        <time>2011-05-29T08:08:53Z</time>
      </trkpt>
      <trkpt lat="43.45412" lon="-0.36311">
        <ele>164.36</ele>
        <time>2011-05-29T08:08:58Z</time>
      </trkpt>
      <trkpt lat="43.45411" lon="-0.36295">
        <ele>164.516</ele>
        <time>2011-05-29T08:09:01Z</time>
      </trkpt>
      <trkpt lat="43.45402" lon="-0.36279">
        <ele>164.713</ele>
        <time>2011-05-29T08:09:05Z</time>
      </trkpt>
      <trkpt lat="43.45394" lon="-0.36258">
        <ele>164.929</ele>
        <time>2011-05-29T08:09:09Z</time>
      </trkpt>
      <trkpt lat="43.45383" lon="-0.36249">
        <ele>165.091</ele>
        <time>2011-05-29T08:09:13Z</time>
      </trkpt>
      <trkpt lat="43.4537" lon="-0.36257">
        <ele>165.117</ele>
        <time>2011-05-29T08:09:17Z</time>
      </trkpt>
      <trkpt lat="43.45365" lon="-0.36267">
        <ele>165.12</ele>
        <time>2011-05-29T08:09:19Z</time>
      </trkpt>
      <trkpt lat="43.4535" lon="-0.36289">
        <ele>165.534</ele>
        <time>2011-05-29T08:09:24Z</time>
      </trkpt>
      <trkpt lat="43.45347" lon="-0.36293">
        <ele>165.592</ele>
        <time>2011-05-29T08:09:25Z</time>
      </trkpt>
      <trkpt lat="43.45333" lon="-0.36311">
        <ele>165.841</ele>
        <time>2011-05-29T08:09:29Z</time>
      </trkpt>
      <trkpt lat="43.4532" lon="-0.36341">
        <ele>166.205</ele>
        <time>2011-05-29T08:09:34Z</time>
      </trkpt>
      <trkpt lat="43.4531" lon="-0.36366">
        <ele>166.273</ele>
        <time>2011-05-29T08:09:38Z</time>
      </trkpt>
      <trkpt lat="43.45298" lon="-0.36374">
        <ele>166.211</ele>
        <time>2011-05-29T08:09:41Z</time>
      </trkpt>
      <trkpt lat="43.4529" lon="-0.36364">
        <ele>166.185</ele>
        <time>2011-05-29T08:09:44Z</time>
      </trkpt>
      <trkpt lat="43.45287" lon="-0.3636">
        <ele>166.148</ele>
        <time>2011-05-29T08:09:45Z</time>
      </trkpt>
      <trkpt lat="43.45268" lon="-0.3634">
        <ele>166.593</ele>
        <time>2011-05-29T08:09:51Z</time>
      </trkpt>
      <trkpt lat="43.4526" lon="-0.36338">
        <ele>166.71</ele>
        <time>2011-05-29T08:09:53Z</time>
      </trkpt>
      <trkpt lat="43.45237" lon="-0.36334">
        <ele>166.729</ele>
        <time>2011-05-29T08:09:58Z</time>
      </trkpt>
      <trkpt lat="43.45218" lon="-0.36339">
        <ele>166.868</ele>
        <time>2011-05-29T08:10:02Z</time>
      </trkpt>
      <trkpt lat="43.45195" lon="-0.36343">
        <ele>167.14</ele>
        <time>2011-05-29T08:10:07Z</time>
      </trkpt>
      <trkpt lat="43.4518" lon="-0.36355">
        <ele>167.412</ele>
        <time>2011-05-29T08:10:11Z</time>
      </trkpt>
      <trkpt lat="43.45169" lon="-0.36352">
        <ele>167.466</ele>
        <time>2011-05-29T08:10:14Z</time>
      </trkpt>
      <trkpt lat="43.45161" lon="-0.36347">
        <ele>167.382</ele>
        <time>2011-05-29T08:10:17Z</time>
      </trkpt>
      <trkpt lat="43.45149" lon="-0.36344">
        <ele>167.389</ele>
        <time>2011-05-29T08:10:21Z</time>
      </trkpt>
      <trkpt lat="43.45133" lon="-0.3634">
        <ele>167.831</ele>
        <time>2011-05-29T08:10:26Z</time>
      </trkpt>
      <trkpt lat="43.45118" lon="-0.36341">
        <ele>168.028</ele>
        <time>2011-05-29T08:10:30Z</time>
      </trkpt>
      <trkpt lat="43.45108" lon="-0.36331">
        <ele>168.207</ele>
        <time>2011-05-29T08:10:33Z</time>
      </trkpt>
      <trkpt lat="43.45088" lon="-0.36326">
        <ele>168.525</ele>
        <time>2011-05-29T08:10:38Z</time>
      </trkpt>
      <trkpt lat="43.45078" lon="-0.36324">
        <ele>168.614</ele>
        <time>2011-05-29T08:10:42Z</time>
      </trkpt>
      <trkpt lat="43.45064" lon="-0.36318">
        <ele>168.762</ele>
        <time>2011-05-29T08:10:46Z</time>
      </trkpt>
      <trkpt lat="43.45043" lon="-0.36322">
        <ele>169</ele>
        <time>2011-05-29T08:10:51Z</time>
      </trkpt>
      <trkpt lat="43.45039" lon="-0.36324">
        <ele>169.017</ele>
        <time>2011-05-29T08:10:52Z</time>
      </trkpt>
      <trkpt lat="43.45026" lon="-0.36331">
        <ele>168.941</ele>
        <time>2011-05-29T08:10:56Z</time>
      </trkpt>
      <trkpt lat="43.45015" lon="-0.36345">
        <ele>169.077</ele>
        <time>2011-05-29T08:11:01Z</time>
      </trkpt>
      <trkpt lat="43.44995" lon="-0.36354">
        <ele>169.731</ele>
        <time>2011-05-29T08:11:06Z</time>
      </trkpt>
      <trkpt lat="43.44986" lon="-0.36353">
        <ele>170.049</ele>
        <time>2011-05-29T08:11:08Z</time>
      </trkpt>
      <trkpt lat="43.44977" lon="-0.36349">
        <ele>170.238</ele>
        <time>2011-05-29T08:11:10Z</time>
      </trkpt>
      <trkpt lat="43.44955" lon="-0.36352">
        <ele>170.388</ele>
        <time>2011-05-29T08:11:15Z</time>
      </trkpt>
      <trkpt lat="43.44943" lon="-0.36349">
        <ele>170.571</ele>
        <time>2011-05-29T08:11:19Z</time>
      </trkpt>
      <trkpt lat="43.44939" lon="-0.36339">
        <ele>170.476</ele>
        <time>2011-05-29T08:11:22Z</time>
      </trkpt>
      <trkpt lat="43.44933" lon="-0.3633">
        <ele>170.45</ele>
        <time>2011-05-29T08:11:25Z</time>
      </trkpt>
      <trkpt lat="43.44918" lon="-0.36324">
        <ele>170.815</ele>
        <time>2011-05-29T08:11:29Z</time>
      </trkpt>
      <trkpt lat="43.44895" lon="-0.36306">
        <ele>171.589</ele>
        <time>2011-05-29T08:11:35Z</time>
      </trkpt>
      <trkpt lat="43.44878" lon="-0.36304">
        <ele>171.691</ele>
        <time>2011-05-29T08:11:39Z</time>
      </trkpt>
      <trkpt lat="43.44869" lon="-0.36305">
        <ele>171.886</ele>
        <time>2011-05-29T08:11:41Z</time>
      </trkpt>
      <trkpt lat="43.44844" lon="-0.36304">
        <ele>172.111</ele>
        <time>2011-05-29T08:11:46Z</time>
      </trkpt>
      <trkpt lat="43.4483" lon="-0.36306">
        <ele>172.176</ele>
        <time>2011-05-29T08:11:49Z</time>
      </trkpt>
      <trkpt lat="43.44803" lon="-0.36304">
        <ele>172.41</ele>
        <time>2011-05-29T08:11:54Z</time>
      </trkpt>
      <trkpt lat="43.44787" lon="-0.36303">
        <ele>172.66</ele>
        <time>2011-05-29T08:11:57Z</time>
      </trkpt>
      <trkpt lat="43.44759" lon="-0.36308">
        <ele>172.591</ele>
        <time>2011-05-29T08:12:02Z</time>
      </trkpt>
      <trkpt lat="43.44736" lon="-0.36297">
        <ele>172.35</ele>
        <time>2011-05-29T08:12:07Z</time>
      </trkpt>
      <trkpt lat="43.44732" lon="-0.36284">
        <ele>172.424</ele>
        <time>2011-05-29T08:12:09Z</time>
      </trkpt>
      <trkpt lat="43.44727" lon="-0.36272">
        <ele>172.573</ele>
        <time>2011-05-29T08:12:11Z</time>
      </trkpt>
      <trkpt lat="43.44722" lon="-0.36242">
        <ele>172.796</ele>
        <time>2011-05-29T08:12:15Z</time>
      </trkpt>
      <trkpt lat="43.44722" lon="-0.36224">
        <ele>173.258</ele>
        <time>2011-05-29T08:12:19Z</time>
      </trkpt>
      <trkpt lat="43.44716" lon="-0.36218">
        <ele>173.731</ele>
        <time>2011-05-29T08:12:22Z</time>
      </trkpt>
      <trkpt lat="43.44704" lon="-0.36214">
        <ele>174.075</ele>
        <time>2011-05-29T08:12:26Z</time>
      </trkpt>
      <trkpt lat="43.44687" lon="-0.36215">
        <ele>173.686</ele>
        <time>2011-05-29T08:12:29Z</time>
      </trkpt>
      <trkpt lat="43.44672" lon="-0.36206">
        <ele>173.311</ele>
        <time>2011-05-29T08:12:33Z</time>
      </trkpt>
      <trkpt lat="43.44668" lon="-0.36191">
        <ele>173.696</ele>
        <time>2011-05-29T08:12:36Z</time>
      </trkpt>
      <trkpt lat="43.44665" lon="-0.36189">
        <ele>173.895</ele>
        <time>2011-05-29T08:12:37Z</time>
      </trkpt>
      <trkpt lat="43.44652" lon="-0.36182">
        <ele>174.195</ele>
        <time>2011-05-29T08:12:40Z</time>
      </trkpt>
      <trkpt lat="43.44639" lon="-0.36164">
        <ele>174.564</ele>
        <time>2011-05-29T08:12:44Z</time>
      </trkpt>
      <trkpt lat="43.44627" lon="-0.36152">
        <ele>174.664</ele>
        <time>2011-05-29T08:12:48Z</time>
      </trkpt>
      <trkpt lat="43.44619" lon="-0.3615">
        <ele>174.696</ele>
        <time>2011-05-29T08:12:50Z</time>
      </trkpt>
      <trkpt lat="43.44593" lon="-0.36132">
        <ele>175.113</ele>
        <time>2011-05-29T08:12:55Z</time>
      </trkpt>
      <trkpt lat="43.44588" lon="-0.36128">
        <ele>175.284</ele>
        <time>2011-05-29T08:12:56Z</time>
      </trkpt>
      <trkpt lat="43.44578" lon="-0.3611">
        <ele>175.802</ele>
        <time>2011-05-29T08:12:59Z</time>
      </trkpt>
      <trkpt lat="43.44558" lon="-0.36083">
        <ele>176.261</ele>
        <time>2011-05-29T08:13:04Z</time>
      </trkpt>
      <trkpt lat="43.44554" lon="-0.36078">
        <ele>176.269</ele>
        <time>2011-05-29T08:13:05Z</time>
      </trkpt>
      <trkpt lat="43.44537" lon="-0.3606">
        <ele>176.298</ele>
        <time>2011-05-29T08:13:09Z</time>
      </trkpt>
      <trkpt lat="43.4453" lon="-0.3605">
        <ele>176.454</ele>
        <time>2011-05-29T08:13:11Z</time>
      </trkpt>
      <trkpt lat="43.44517" lon="-0.36028">
        <ele>176.964</ele>
        <time>2011-05-29T08:13:15Z</time>
      </trkpt>
      <trkpt lat="43.44513" lon="-0.36016">
        <ele>177.189</ele>
        <time>2011-05-29T08:13:17Z</time>
      </trkpt>
      <trkpt lat="43.44507" lon="-0.35979">
        <ele>178.191</ele>
        <time>2011-05-29T08:13:24Z</time>
      </trkpt>
      <trkpt lat="43.44503" lon="-0.35952">
        <ele>179.544</ele>
        <time>2011-05-29T08:13:30Z</time>
      </trkpt>
      <trkpt lat="43.44497" lon="-0.35934">
        <ele>180.504</ele>
        <time>2011-05-29T08:13:35Z</time>
      </trkpt>
      <trkpt lat="43.44481" lon="-0.35913">
        <ele>180.961</ele>
        <time>2011-05-29T08:13:41Z</time>
      </trkpt>
      <trkpt lat="43.44457" lon="-0.35889">
        <ele>180.636</ele>
        <time>2011-05-29T08:13:48Z</time>
      </trkpt>
      <trkpt lat="43.44453" lon="-0.35885">
        <ele>180.589</ele>
        <time>2011-05-29T08:13:49Z</time>
      </trkpt>
      <trkpt lat="43.44431" lon="-0.35846">
        <ele>180.35</ele>
        <time>2011-05-29T08:13:57Z</time>
      </trkpt>
      <trkpt lat="43.44418" lon="-0.35821">
        <ele>181.006</ele>
        <time>2011-05-29T08:14:03Z</time>
      </trkpt>
      <trkpt lat="43.44416" lon="-0.35817">
        <ele>181.152</ele>
        <time>2011-05-29T08:14:04Z</time>
      </trkpt>
      <trkpt lat="43.44419" lon="-0.358">
        <ele>181.371</ele>
        <time>2011-05-29T08:14:08Z</time>
      </trkpt>
      <trkpt lat="43.44421" lon="-0.35797">
        <ele>181.473</ele>
        <time>2011-05-29T08:14:09Z</time>
      </trkpt>
      <trkpt lat="43.44428" lon="-0.3577">
        <ele>184.534</ele>
        <time>2011-05-29T08:14:17Z</time>
      </trkpt>
      <trkpt lat="43.44433" lon="-0.35751">
        <ele>188.13</ele>
        <time>2011-05-29T08:14:25Z</time>
      </trkpt>
      <trkpt lat="43.44437" lon="-0.35736">
        <ele>190.152</ele>
        <time>2011-05-29T08:14:33Z</time>
      </trkpt>
      <trkpt lat="43.44441" lon="-0.3572">
        <ele>191.916</ele>
        <time>2011-05-29T08:14:41Z</time>
      </trkpt>
      <trkpt lat="43.44446" lon="-0.35702">
        <ele>194.17</ele>
        <time>2011-05-29T08:14:50Z</time>
      </trkpt>
      <trkpt lat="43.4445" lon="-0.35688">
        <ele>196.225</ele>
        <time>2011-05-29T08:14:58Z</time>
      </trkpt>
      <trkpt lat="43.44454" lon="-0.35671">
        <ele>197.61</ele>
        <time>2011-05-29T08:15:07Z</time>
      </trkpt>
      <trkpt lat="43.44457" lon="-0.35657">
        <ele>198.805</ele>
        <time>2011-05-29T08:15:14Z</time>
      </trkpt>
      <trkpt lat="43.44458" lon="-0.35655">
        <ele>198.998</ele>
        <time>2011-05-29T08:15:15Z</time>
      </trkpt>
      <trkpt lat="43.44466" lon="-0.35653">
        <ele>200.528</ele>
        <time>2011-05-29T08:15:21Z</time>
      </trkpt>
      <trkpt lat="43.44475" lon="-0.35657">
        <ele>202.639</ele>
        <time>2011-05-29T08:15:28Z</time>
      </trkpt>
      <trkpt lat="43.44484" lon="-0.35655">
        <ele>204.636</ele>
        <time>2011-05-29T08:15:36Z</time>
      </trkpt>
      <trkpt lat="43.44489" lon="-0.35646">
        <ele>206.469</ele>
        <time>2011-05-29T08:15:43Z</time>
      </trkpt>
      <trkpt lat="43.4449" lon="-0.35634">
        <ele>208.531</ele>
        <time>2011-05-29T08:15:51Z</time>
      </trkpt>
      <trkpt lat="43.44488" lon="-0.35619">
        <ele>209.973</ele>
        <time>2011-05-29T08:15:58Z</time>
      </trkpt>
      <trkpt lat="43.4448" lon="-0.35599">
        <ele>209.975</ele>
        <time>2011-05-29T08:16:03Z</time>
      </trkpt>
      <trkpt lat="43.44473" lon="-0.35586">
        <ele>209.622</ele>
        <time>2011-05-29T08:16:06Z</time>
      </trkpt>
      <trkpt lat="43.44459" lon="-0.3557">
        <ele>209.215</ele>
        <time>2011-05-29T08:16:12Z</time>
      </trkpt>
      <trkpt lat="43.44442" lon="-0.3554">
        <ele>209.282</ele>
        <time>2011-05-29T08:16:19Z</time>
      </trkpt>
      <trkpt lat="43.44427" lon="-0.35514">
        <ele>209.886</ele>
        <time>2011-05-29T08:16:25Z</time>
      </trkpt>
      <trkpt lat="43.44422" lon="-0.35503">
        <ele>210.367</ele>
        <time>2011-05-29T08:16:27Z</time>
      </trkpt>
      <trkpt lat="43.44414" lon="-0.35479">
        <ele>210.493</ele>
        <time>2011-05-29T08:16:31Z</time>
      </trkpt>
      <trkpt lat="43.44393" lon="-0.35441">
        <ele>209.913</ele>
        <time>2011-05-29T08:16:37Z</time>
      </trkpt>
      <trkpt lat="43.44379" lon="-0.35421">
        <ele>209.97</ele>
        <time>2011-05-29T08:16:41Z</time>
      </trkpt>
      <trkpt lat="43.44365" lon="-0.35402">
        <ele>210.554</ele>
        <time>2011-05-29T08:16:45Z</time>
      </trkpt>
      <trkpt lat="43.4434" lon="-0.35372">
        <ele>210.258</ele>
        <time>2011-05-29T08:16:51Z</time>
      </trkpt>
      <trkpt lat="43.44331" lon="-0.35357">
        <ele>210.21</ele>
        <time>2011-05-29T08:16:54Z</time>
      </trkpt>
      <trkpt lat="43.44325" lon="-0.35338">
        <ele>211.049</ele>
        <time>2011-05-29T08:16:58Z</time>
      </trkpt>
      <trkpt lat="43.44316" lon="-0.35319">
        <ele>213.201</ele>
        <time>2011-05-29T08:17:03Z</time>
      </trkpt>
      <trkpt lat="43.44309" lon="-0.35311">
        <ele>213.874</ele>
        <time>2011-05-29T08:17:05Z</time>
      </trkpt>
      <trkpt lat="43.44285" lon="-0.35281">
        <ele>212.906</ele>
        <time>2011-05-29T08:17:10Z</time>
      </trkpt>
      <trkpt lat="43.44249" lon="-0.35248">
        <ele>209.436</ele>
        <time>2011-05-29T08:17:15Z</time>
      </trkpt>
      <trkpt lat="43.44241" lon="-0.35241">
        <ele>209.436</ele>
        <time>2011-05-29T08:17:16Z</time>
      </trkpt>
      <trkpt lat="43.44217" lon="-0.35203">
        <ele>206.327</ele>
        <time>2011-05-29T08:17:20Z</time>
      </trkpt>
      <trkpt lat="43.44212" lon="-0.35191">
        <ele>205.438</ele>
        <time>2011-05-29T08:17:21Z</time>
      </trkpt>
      <trkpt lat="43.44201" lon="-0.35156">
        <ele>203.259</ele>
        <time>2011-05-29T08:17:24Z</time>
      </trkpt>
      <trkpt lat="43.44181" lon="-0.3512">
        <ele>201.331</ele>
        <time>2011-05-29T08:17:28Z</time>
      </trkpt>
      <trkpt lat="43.44175" lon="-0.35114">
        <ele>201.192</ele>
        <time>2011-05-29T08:17:29Z</time>
      </trkpt>
      <trkpt lat="43.44121" lon="-0.35078">
        <ele>200.636</ele>
        <time>2011-05-29T08:17:37Z</time>
      </trkpt>
      <trkpt lat="43.44115" lon="-0.35074">
        <ele>200.596</ele>
        <time>2011-05-29T08:17:38Z</time>
      </trkpt>
      <trkpt lat="43.44089" lon="-0.35065">
        <ele>200.523</ele>
        <time>2011-05-29T08:17:42Z</time>
      </trkpt>
      <trkpt lat="43.4405" lon="-0.35031">
        <ele>200.149</ele>
        <time>2011-05-29T08:17:49Z</time>
      </trkpt>
      <trkpt lat="43.44027" lon="-0.35008">
        <ele>200.425</ele>
        <time>2011-05-29T08:17:54Z</time>
      </trkpt>
      <trkpt lat="43.43997" lon="-0.34995">
        <ele>200.6</ele>
        <time>2011-05-29T08:17:59Z</time>
      </trkpt>
      <trkpt lat="43.43969" lon="-0.3498">
        <ele>200.366</ele>
        <time>2011-05-29T08:18:04Z</time>
      </trkpt>
      <trkpt lat="43.43963" lon="-0.34977">
        <ele>200.284</ele>
        <time>2011-05-29T08:18:05Z</time>
      </trkpt>
      <trkpt lat="43.43948" lon="-0.34961">
        <ele>200.166</ele>
        <time>2011-05-29T08:18:08Z</time>
      </trkpt>
      <trkpt lat="43.43929" lon="-0.34929">
        <ele>199.932</ele>
        <time>2011-05-29T08:18:13Z</time>
      </trkpt>
      <trkpt lat="43.43912" lon="-0.34877">
        <ele>200.515</ele>
        <time>2011-05-29T08:18:20Z</time>
      </trkpt>
      <trkpt lat="43.43904" lon="-0.34852">
        <ele>200.134</ele>
        <time>2011-05-29T08:18:23Z</time>
      </trkpt>
      <trkpt lat="43.43885" lon="-0.34833">
        <ele>199.658</ele>
        <time>2011-05-29T08:18:27Z</time>
      </trkpt>
      <trkpt lat="43.4388" lon="-0.3483">
        <ele>199.68</ele>
        <time>2011-05-29T08:18:28Z</time>
      </trkpt>
      <trkpt lat="43.43861" lon="-0.34811">
        <ele>199.969</ele>
        <time>2011-05-29T08:18:32Z</time>
      </trkpt>
      <trkpt lat="43.43839" lon="-0.34795">
        <ele>199.939</ele>
        <time>2011-05-29T08:18:36Z</time>
      </trkpt>
      <trkpt lat="43.43815" lon="-0.3476">
        <ele>200.043</ele>
        <time>2011-05-29T08:18:42Z</time>
      </trkpt>
      <trkpt lat="43.43811" lon="-0.34754">
        <ele>200.022</ele>
        <time>2011-05-29T08:18:43Z</time>
      </trkpt>
      <trkpt lat="43.43799" lon="-0.34725">
        <ele>200.92</ele>
        <time>2011-05-29T08:18:49Z</time>
      </trkpt>
      <trkpt lat="43.4379" lon="-0.34707">
        <ele>202.856</ele>
        <time>2011-05-29T08:18:54Z</time>
      </trkpt>
      <trkpt lat="43.43783" lon="-0.34688">
        <ele>204.348</ele>
        <time>2011-05-29T08:18:59Z</time>
      </trkpt>
      <trkpt lat="43.43772" lon="-0.34662">
        <ele>206.324</ele>
        <time>2011-05-29T08:19:07Z</time>
      </trkpt>
      <trkpt lat="43.43763" lon="-0.34644">
        <ele>208.352</ele>
        <time>2011-05-29T08:19:14Z</time>
      </trkpt>
      <trkpt lat="43.43757" lon="-0.34631">
        <ele>210.06</ele>
        <time>2011-05-29T08:19:19Z</time>
      </trkpt>
      <trkpt lat="43.43743" lon="-0.34616">
        <ele>210.831</ele>
        <time>2011-05-29T08:19:25Z</time>
      </trkpt>
      <trkpt lat="43.43739" lon="-0.34612">
        <ele>210.77</ele>
        <time>2011-05-29T08:19:26Z</time>
      </trkpt>
      <trkpt lat="43.43714" lon="-0.3459">
        <ele>209.52</ele>
        <time>2011-05-29T08:19:32Z</time>
      </trkpt>
      <trkpt lat="43.43697" lon="-0.34574">
        <ele>208.915</ele>
        <time>2011-05-29T08:19:38Z</time>
      </trkpt>
      <trkpt lat="43.43684" lon="-0.34557">
        <ele>208.456</ele>
        <time>2011-05-29T08:19:45Z</time>
      </trkpt>
      <trkpt lat="43.43681" lon="-0.34551">
        <ele>208.635</ele>
        <time>2011-05-29T08:19:48Z</time>
      </trkpt>
      <trkpt lat="43.43683" lon="-0.34537">
        <ele>209.47</ele>
        <time>2011-05-29T08:19:53Z</time>
      </trkpt>
      <trkpt lat="43.43682" lon="-0.34515">
        <ele>213.307</ele>
        <time>2011-05-29T08:20:02Z</time>
      </trkpt>
      <trkpt lat="43.43684" lon="-0.34507">
        <ele>214.694</ele>
        <time>2011-05-29T08:20:06Z</time>
      </trkpt>
      <trkpt lat="43.43683" lon="-0.34499">
        <ele>215.961</ele>
        <time>2011-05-29T08:20:10Z</time>
      </trkpt>
      <trkpt lat="43.43675" lon="-0.34478">
        <ele>217.481</ele>
        <time>2011-05-29T08:20:18Z</time>
      </trkpt>
      <trkpt lat="43.43673" lon="-0.34467">
        <ele>219.181</ele>
        <time>2011-05-29T08:20:24Z</time>
      </trkpt>
      <trkpt lat="43.43671" lon="-0.3445">
        <ele>221.785</ele>
        <time>2011-05-29T08:20:33Z</time>
      </trkpt>
      <trkpt lat="43.43672" lon="-0.3444">
        <ele>222.954</ele>
        <time>2011-05-29T08:20:38Z</time>
      </trkpt>
      <trkpt lat="43.43673" lon="-0.34434">
        <ele>223.98</ele>
        <time>2011-05-29T08:20:42Z</time>
      </trkpt>
      <trkpt lat="43.43673" lon="-0.34419">
        <ele>225.75</ele>
        <time>2011-05-29T08:20:51Z</time>
      </trkpt>
      <trkpt lat="43.43673" lon="-0.34417">
        <ele>226.311</ele>
        <time>2011-05-29T08:20:53Z</time>
      </trkpt>
      <trkpt lat="43.43673" lon="-0.34409">
        <ele>227.765</ele>
        <time>2011-05-29T08:20:59Z</time>
      </trkpt>
      <trkpt lat="43.4367" lon="-0.344">
        <ele>228.791</ele>
        <time>2011-05-29T08:21:05Z</time>
      </trkpt>
      <trkpt lat="43.43661" lon="-0.34388">
        <ele>229.388</ele>
        <time>2011-05-29T08:21:11Z</time>
      </trkpt>
      <trkpt lat="43.43653" lon="-0.34377">
        <ele>229.746</ele>
        <time>2011-05-29T08:21:17Z</time>
      </trkpt>
      <trkpt lat="43.43651" lon="-0.34372">
        <ele>229.755</ele>
        <time>2011-05-29T08:21:19Z</time>
      </trkpt>
      <trkpt lat="43.43642" lon="-0.34364">
        <ele>229.669</ele>
        <time>2011-05-29T08:21:24Z</time>
      </trkpt>
      <trkpt lat="43.43635" lon="-0.34369">
        <ele>229.159</ele>
        <time>2011-05-29T08:21:26Z</time>
      </trkpt>
      <trkpt lat="43.4362" lon="-0.34381">
        <ele>227.083</ele>
        <time>2011-05-29T08:21:30Z</time>
      </trkpt>
      <trkpt lat="43.43604" lon="-0.34384">
        <ele>222.404</ele>
        <time>2011-05-29T08:21:34Z</time>
      </trkpt>
      <trkpt lat="43.43594" lon="-0.34394">
        <ele>218.532</ele>
        <time>2011-05-29T08:21:37Z</time>
      </trkpt>
      <trkpt lat="43.43586" lon="-0.34416">
        <ele>213.617</ele>
        <time>2011-05-29T08:21:41Z</time>
      </trkpt>
      <trkpt lat="43.43575" lon="-0.34429">
        <ele>209.852</ele>
        <time>2011-05-29T08:21:44Z</time>
      </trkpt>
      <trkpt lat="43.4356" lon="-0.3443">
        <ele>204.155</ele>
        <time>2011-05-29T08:21:49Z</time>
      </trkpt>
      <trkpt lat="43.43557" lon="-0.34435">
        <ele>202.542</ele>
        <time>2011-05-29T08:21:51Z</time>
      </trkpt>
      <trkpt lat="43.43545" lon="-0.34461">
        <ele>200.718</ele>
        <time>2011-05-29T08:21:56Z</time>
      </trkpt>
      <trkpt lat="43.43514" lon="-0.34503">
        <ele>199.56</ele>
        <time>2011-05-29T08:22:03Z</time>
      </trkpt>
      <trkpt lat="43.43496" lon="-0.34526">
        <ele>200.128</ele>
        <time>2011-05-29T08:22:08Z</time>
      </trkpt>
      <trkpt lat="43.43472" lon="-0.34538">
        <ele>201.195</ele>
        <time>2011-05-29T08:22:13Z</time>
      </trkpt>
      <trkpt lat="43.4344" lon="-0.34547">
        <ele>201.041</ele>
        <time>2011-05-29T08:22:18Z</time>
      </trkpt>
      <trkpt lat="43.43421" lon="-0.34563">
        <ele>200.191</ele>
        <time>2011-05-29T08:22:22Z</time>
      </trkpt>
      <trkpt lat="43.43421" lon="-0.34571">
        <ele>200.038</ele>
        <time>2011-05-29T08:22:23Z</time>
      </trkpt>
      <trkpt lat="43.43423" lon="-0.34586">
        <ele>199.71</ele>
        <time>2011-05-29T08:22:25Z</time>
      </trkpt>
      <trkpt lat="43.43417" lon="-0.34633">
        <ele>199.662</ele>
        <time>2011-05-29T08:22:31Z</time>
      </trkpt>
      <trkpt lat="43.43407" lon="-0.34707">
        <ele>200.292</ele>
        <time>2011-05-29T08:22:40Z</time>
      </trkpt>
      <trkpt lat="43.43402" lon="-0.34752">
        <ele>200.278</ele>
        <time>2011-05-29T08:22:46Z</time>
      </trkpt>
      <trkpt lat="43.43412" lon="-0.34774">
        <ele>200.114</ele>
        <time>2011-05-29T08:22:50Z</time>
      </trkpt>
      <trkpt lat="43.43423" lon="-0.34775">
        <ele>200.153</ele>
        <time>2011-05-29T08:22:52Z</time>
      </trkpt>
      <trkpt lat="43.43468" lon="-0.3477">
        <ele>200.478</ele>
        <time>2011-05-29T08:23:01Z</time>
      </trkpt>
      <trkpt lat="43.4349" lon="-0.34773">
        <ele>200.539</ele>
        <time>2011-05-29T08:23:05Z</time>
      </trkpt>
      <trkpt lat="43.43506" lon="-0.34794">
        <ele>200.454</ele>
        <time>2011-05-29T08:23:09Z</time>
      </trkpt>
      <trkpt lat="43.43512" lon="-0.34806">
        <ele>200.708</ele>
        <time>2011-05-29T08:23:11Z</time>
      </trkpt>
      <trkpt lat="43.43532" lon="-0.34825">
        <ele>201.93</ele>
        <time>2011-05-29T08:23:16Z</time>
      </trkpt>
      <trkpt lat="43.43563" lon="-0.34839">
        <ele>202.312</ele>
        <time>2011-05-29T08:23:22Z</time>
      </trkpt>
      <trkpt lat="43.43588" lon="-0.34866">
        <ele>201.893</ele>
        <time>2011-05-29T08:23:27Z</time>
      </trkpt>
      <trkpt lat="43.43605" lon="-0.34894">
        <ele>202.266</ele>
        <time>2011-05-29T08:23:32Z</time>
      </trkpt>
      <trkpt lat="43.43626" lon="-0.34935">
        <ele>203.108</ele>
        <time>2011-05-29T08:23:39Z</time>
      </trkpt>
      <trkpt lat="43.43646" lon="-0.34984">
        <ele>203.162</ele>
        <time>2011-05-29T08:23:46Z</time>
      </trkpt>
      <trkpt lat="43.43653" lon="-0.3503">
        <ele>202.896</ele>
        <time>2011-05-29T08:23:52Z</time>
      </trkpt>
      <trkpt lat="43.43655" lon="-0.3506">
        <ele>204.043</ele>
        <time>2011-05-29T08:23:58Z</time>
      </trkpt>
      <trkpt lat="43.43675" lon="-0.3508">
        <ele>204.171</ele>
        <time>2011-05-29T08:24:03Z</time>
      </trkpt>
      <trkpt lat="43.43716" lon="-0.35115">
        <ele>202.114</ele>
        <time>2011-05-29T08:24:10Z</time>
      </trkpt>
      <trkpt lat="43.43741" lon="-0.35142">
        <ele>201.293</ele>
        <time>2011-05-29T08:24:15Z</time>
      </trkpt>
      <trkpt lat="43.43765" lon="-0.3518">
        <ele>201.313</ele>
        <time>2011-05-29T08:24:21Z</time>
      </trkpt>
      <trkpt lat="43.43791" lon="-0.35225">
        <ele>201.514</ele>
        <time>2011-05-29T08:24:28Z</time>
      </trkpt>
      <trkpt lat="43.43806" lon="-0.35249">
        <ele>201.539</ele>
        <time>2011-05-29T08:24:32Z</time>
      </trkpt>
      <trkpt lat="43.4383" lon="-0.35303">
        <ele>201.645</ele>
        <time>2011-05-29T08:24:40Z</time>
      </trkpt>
      <trkpt lat="43.43854" lon="-0.35348">
        <ele>201.566</ele>
        <time>2011-05-29T08:24:47Z</time>
      </trkpt>
      <trkpt lat="43.43865" lon="-0.35371">
        <ele>201.101</ele>
        <time>2011-05-29T08:24:52Z</time>
      </trkpt>
      <trkpt lat="43.43867" lon="-0.35374">
        <ele>200.999</ele>
        <time>2011-05-29T08:24:53Z</time>
      </trkpt>
      <trkpt lat="43.43871" lon="-0.35393">
        <ele>200.625</ele>
        <time>2011-05-29T08:24:57Z</time>
      </trkpt>
      <trkpt lat="43.43885" lon="-0.35445">
        <ele>200.592</ele>
        <time>2011-05-29T08:25:05Z</time>
      </trkpt>
      <trkpt lat="43.43897" lon="-0.35461">
        <ele>200.8</ele>
        <time>2011-05-29T08:25:09Z</time>
      </trkpt>
      <trkpt lat="43.43922" lon="-0.35487">
        <ele>200.922</ele>
        <time>2011-05-29T08:25:15Z</time>
      </trkpt>
      <trkpt lat="43.43931" lon="-0.35507">
        <ele>201.559</ele>
        <time>2011-05-29T08:25:19Z</time>
      </trkpt>
      <trkpt lat="43.43949" lon="-0.35536">
        <ele>202.402</ele>
        <time>2011-05-29T08:25:24Z</time>
      </trkpt>
      <trkpt lat="43.43953" lon="-0.35544">
        <ele>202.273</ele>
        <time>2011-05-29T08:25:25Z</time>
      </trkpt>
      <trkpt lat="43.43965" lon="-0.35573">
        <ele>201.386</ele>
        <time>2011-05-29T08:25:29Z</time>
      </trkpt>
      <trkpt lat="43.43983" lon="-0.35595">
        <ele>200.774</ele>
        <time>2011-05-29T08:25:33Z</time>
      </trkpt>
      <trkpt lat="43.4399" lon="-0.35614">
        <ele>200.508</ele>
        <time>2011-05-29T08:25:36Z</time>
      </trkpt>
      <trkpt lat="43.4399" lon="-0.35617">
        <ele>200.468</ele>
        <time>2011-05-29T08:25:37Z</time>
      </trkpt>
      <trkpt lat="43.43988" lon="-0.35623">
        <ele>200.909</ele>
        <time>2011-05-29T08:25:41Z</time>
      </trkpt>
      <trkpt lat="43.4399" lon="-0.35629">
        <ele>202.141</ele>
        <time>2011-05-29T08:25:45Z</time>
      </trkpt>
      <trkpt lat="43.43995" lon="-0.35633">
        <ele>202.451</ele>
        <time>2011-05-29T08:25:47Z</time>
      </trkpt>
      <trkpt lat="43.44021" lon="-0.35664">
        <ele>202.533</ele>
        <time>2011-05-29T08:25:54Z</time>
      </trkpt>
      <trkpt lat="43.4406" lon="-0.35709">
        <ele>201.99</ele>
        <time>2011-05-29T08:26:03Z</time>
      </trkpt>
      <trkpt lat="43.4409" lon="-0.35751">
        <ele>201.886</ele>
        <time>2011-05-29T08:26:10Z</time>
      </trkpt>
      <trkpt lat="43.44112" lon="-0.35794">
        <ele>201.884</ele>
        <time>2011-05-29T08:26:16Z</time>
      </trkpt>
      <trkpt lat="43.44143" lon="-0.35866">
        <ele>201.766</ele>
        <time>2011-05-29T08:26:25Z</time>
      </trkpt>
      <trkpt lat="43.4417" lon="-0.35916">
        <ele>201.757</ele>
        <time>2011-05-29T08:26:32Z</time>
      </trkpt>
      <trkpt lat="43.44198" lon="-0.35964">
        <ele>199.958</ele>
        <time>2011-05-29T08:26:37Z</time>
      </trkpt>
      <trkpt lat="43.44228" lon="-0.36012">
        <ele>196.129</ele>
        <time>2011-05-29T08:26:41Z</time>
      </trkpt>
      <trkpt lat="43.44246" lon="-0.36035">
        <ele>193.667</ele>
        <time>2011-05-29T08:26:43Z</time>
      </trkpt>
      <trkpt lat="43.44286" lon="-0.36062">
        <ele>189.324</ele>
        <time>2011-05-29T08:26:47Z</time>
      </trkpt>
      <trkpt lat="43.44314" lon="-0.36056">
        <ele>187.159</ele>
        <time>2011-05-29T08:26:50Z</time>
      </trkpt>
      <trkpt lat="43.44332" lon="-0.3606">
        <ele>186.43</ele>
        <time>2011-05-29T08:26:52Z</time>
      </trkpt>
      <trkpt lat="43.44366" lon="-0.36071">
        <ele>185.421</ele>
        <time>2011-05-29T08:26:56Z</time>
      </trkpt>
      <trkpt lat="43.44397" lon="-0.36095">
        <ele>184.024</ele>
        <time>2011-05-29T08:27:00Z</time>
      </trkpt>
      <trkpt lat="43.44427" lon="-0.3612">
        <ele>182.668</ele>
        <time>2011-05-29T08:27:04Z</time>
      </trkpt>
      <trkpt lat="43.44437" lon="-0.36141">
        <ele>182.026</ele>
        <time>2011-05-29T08:27:07Z</time>
      </trkpt>
      <trkpt lat="43.4443" lon="-0.36158">
        <ele>181.727</ele>
        <time>2011-05-29T08:27:10Z</time>
      </trkpt>
      <trkpt lat="43.44423" lon="-0.36163">
        <ele>182.006</ele>
        <time>2011-05-29T08:27:12Z</time>
      </trkpt>
      <trkpt lat="43.44406" lon="-0.36172">
        <ele>184.196</ele>
        <time>2011-05-29T08:27:18Z</time>
      </trkpt>
      <trkpt lat="43.44396" lon="-0.36177">
        <ele>185.377</ele>
        <time>2011-05-29T08:27:22Z</time>
      </trkpt>
      <trkpt lat="43.44391" lon="-0.36179">
        <ele>186.178</ele>
        <time>2011-05-29T08:27:24Z</time>
      </trkpt>
      <trkpt lat="43.4438" lon="-0.36183">
        <ele>188.214</ele>
        <time>2011-05-29T08:27:29Z</time>
      </trkpt>
      <trkpt lat="43.44371" lon="-0.36187">
        <ele>190.075</ele>
        <time>2011-05-29T08:27:33Z</time>
      </trkpt>
      <trkpt lat="43.4436" lon="-0.36193">
        <ele>192.636</ele>
        <time>2011-05-29T08:27:38Z</time>
      </trkpt>
      <trkpt lat="43.44351" lon="-0.36201">
        <ele>194.409</ele>
        <time>2011-05-29T08:27:42Z</time>
      </trkpt>
      <trkpt lat="43.44336" lon="-0.36219">
        <ele>197.468</ele>
        <time>2011-05-29T08:27:50Z</time>
      </trkpt>
      <trkpt lat="43.44319" lon="-0.3624">
        <ele>200.953</ele>
        <time>2011-05-29T08:28:00Z</time>
      </trkpt>
      <trkpt lat="43.44304" lon="-0.36258">
        <ele>203.329</ele>
        <time>2011-05-29T08:28:09Z</time>
      </trkpt>
      <trkpt lat="43.4429" lon="-0.36274">
        <ele>204.74</ele>
        <time>2011-05-29T08:28:17Z</time>
      </trkpt>
      <trkpt lat="43.44268" lon="-0.36294">
        <ele>206.443</ele>
        <time>2011-05-29T08:28:27Z</time>
      </trkpt>
      <trkpt lat="43.44246" lon="-0.36315">
        <ele>207.242</ele>
        <time>2011-05-29T08:28:37Z</time>
      </trkpt>
      <trkpt lat="43.44239" lon="-0.36331">
        <ele>208.071</ele>
        <time>2011-05-29T08:28:43Z</time>
      </trkpt>
      <trkpt lat="43.44237" lon="-0.36349">
        <ele>209.29</ele>
        <time>2011-05-29T08:28:49Z</time>
      </trkpt>
      <trkpt lat="43.44238" lon="-0.3637">
        <ele>210.919</ele>
        <time>2011-05-29T08:28:56Z</time>
      </trkpt>
      <trkpt lat="43.44244" lon="-0.36391">
        <ele>212.46</ele>
        <time>2011-05-29T08:29:03Z</time>
      </trkpt>
      <trkpt lat="43.44254" lon="-0.36414">
        <ele>215.231</ele>
        <time>2011-05-29T08:29:12Z</time>
      </trkpt>
      <trkpt lat="43.44264" lon="-0.36439">
        <ele>217.795</ele>
        <time>2011-05-29T08:29:22Z</time>
      </trkpt>
      <trkpt lat="43.44272" lon="-0.36457">
        <ele>219.08</ele>
        <time>2011-05-29T08:29:29Z</time>
      </trkpt>
      <trkpt lat="43.44285" lon="-0.36483">
        <ele>221.396</ele>
        <time>2011-05-29T08:29:38Z</time>
      </trkpt>
      <trkpt lat="43.44296" lon="-0.36502">
        <ele>223.129</ele>
        <time>2011-05-29T08:29:45Z</time>
      </trkpt>
      <trkpt lat="43.44302" lon="-0.36528">
        <ele>224.655</ele>
        <time>2011-05-29T08:29:53Z</time>
      </trkpt>
      <trkpt lat="43.443" lon="-0.36549">
        <ele>226.083</ele>
        <time>2011-05-29T08:30:00Z</time>
      </trkpt>
      <trkpt lat="43.44293" lon="-0.36569">
        <ele>227.957</ele>
        <time>2011-05-29T08:30:08Z</time>
      </trkpt>
      <trkpt lat="43.44287" lon="-0.36584">
        <ele>229.325</ele>
        <time>2011-05-29T08:30:14Z</time>
      </trkpt>
      <trkpt lat="43.44277" lon="-0.36599">
        <ele>230.683</ele>
        <time>2011-05-29T08:30:21Z</time>
      </trkpt>
      <trkpt lat="43.4426" lon="-0.36612">
        <ele>233.099</ele>
        <time>2011-05-29T08:30:30Z</time>
      </trkpt>
      <trkpt lat="43.44243" lon="-0.36615">
        <ele>234.665</ele>
        <time>2011-05-29T08:30:38Z</time>
      </trkpt>
      <trkpt lat="43.44224" lon="-0.36615">
        <ele>236.722</ele>
        <time>2011-05-29T08:30:47Z</time>
      </trkpt>
      <trkpt lat="43.44209" lon="-0.36619">
        <ele>238.389</ele>
        <time>2011-05-29T08:30:54Z</time>
      </trkpt>
      <trkpt lat="43.44192" lon="-0.36629">
        <ele>239.789</ele>
        <time>2011-05-29T08:31:01Z</time>
      </trkpt>
      <trkpt lat="43.44174" lon="-0.3664">
        <ele>241.072</ele>
        <time>2011-05-29T08:31:09Z</time>
      </trkpt>
      <trkpt lat="43.44156" lon="-0.36651">
        <ele>243.253</ele>
        <time>2011-05-29T08:31:17Z</time>
      </trkpt>
      <trkpt lat="43.4414" lon="-0.36662">
        <ele>245.629</ele>
        <time>2011-05-29T08:31:25Z</time>
      </trkpt>
      <trkpt lat="43.44123" lon="-0.36673">
        <ele>247.589</ele>
        <time>2011-05-29T08:31:34Z</time>
      </trkpt>
      <trkpt lat="43.44108" lon="-0.36684">
        <ele>249.644</ele>
        <time>2011-05-29T08:31:43Z</time>
      </trkpt>
      <trkpt lat="43.44099" lon="-0.36695">
        <ele>251.08</ele>
        <time>2011-05-29T08:31:50Z</time>
      </trkpt>
      <trkpt lat="43.4409" lon="-0.36706">
        <ele>252.26</ele>
        <time>2011-05-29T08:31:57Z</time>
      </trkpt>
      <trkpt lat="43.44075" lon="-0.36723">
        <ele>253.813</ele>
        <time>2011-05-29T08:32:07Z</time>
      </trkpt>
      <trkpt lat="43.4406" lon="-0.36735">
        <ele>255.17</ele>
        <time>2011-05-29T08:32:14Z</time>
      </trkpt>
      <trkpt lat="43.44036" lon="-0.36752">
        <ele>256.027</ele>
        <time>2011-05-29T08:32:24Z</time>
      </trkpt>
      <trkpt lat="43.4401" lon="-0.36763">
        <ele>256.886</ele>
        <time>2011-05-29T08:32:32Z</time>
      </trkpt>
      <trkpt lat="43.43983" lon="-0.36774">
        <ele>257.361</ele>
        <time>2011-05-29T08:32:39Z</time>
      </trkpt>
      <trkpt lat="43.43952" lon="-0.36782">
        <ele>258.272</ele>
        <time>2011-05-29T08:32:47Z</time>
      </trkpt>
      <trkpt lat="43.43915" lon="-0.36798">
        <ele>260.387</ele>
        <time>2011-05-29T08:32:57Z</time>
      </trkpt>
      <trkpt lat="43.43894" lon="-0.36818">
        <ele>262.983</ele>
        <time>2011-05-29T08:33:04Z</time>
      </trkpt>
      <trkpt lat="43.43881" lon="-0.36838">
        <ele>265.712</ele>
        <time>2011-05-29T08:33:12Z</time>
      </trkpt>
      <trkpt lat="43.43873" lon="-0.36854">
        <ele>267.428</ele>
        <time>2011-05-29T08:33:19Z</time>
      </trkpt>
      <trkpt lat="43.43866" lon="-0.36866">
        <ele>269.116</ele>
        <time>2011-05-29T08:33:25Z</time>
      </trkpt>
      <trkpt lat="43.43854" lon="-0.36877">
        <ele>271.22</ele>
        <time>2011-05-29T08:33:33Z</time>
      </trkpt>
      <trkpt lat="43.43842" lon="-0.36884">
        <ele>272.651</ele>
        <time>2011-05-29T08:33:41Z</time>
      </trkpt>
      <trkpt lat="43.43835" lon="-0.36887">
        <ele>273.555</ele>
        <time>2011-05-29T08:33:46Z</time>
      </trkpt>
      <trkpt lat="43.43833" lon="-0.36893">
        <ele>274.188</ele>
        <time>2011-05-29T08:33:50Z</time>
      </trkpt>
      <trkpt lat="43.43836" lon="-0.3691">
        <ele>275.91</ele>
        <time>2011-05-29T08:33:58Z</time>
      </trkpt>
      <trkpt lat="43.4383" lon="-0.36923">
        <ele>277.325</ele>
        <time>2011-05-29T08:34:04Z</time>
      </trkpt>
      <trkpt lat="43.4382" lon="-0.36938">
        <ele>277.857</ele>
        <time>2011-05-29T08:34:10Z</time>
      </trkpt>
      <trkpt lat="43.43806" lon="-0.36959">
        <ele>278.189</ele>
        <time>2011-05-29T08:34:17Z</time>
      </trkpt>
      <trkpt lat="43.43787" lon="-0.36985">
        <ele>277.687</ele>
        <time>2011-05-29T08:34:24Z</time>
      </trkpt>
      <trkpt lat="43.43779" lon="-0.36995">
        <ele>277.384</ele>
        <time>2011-05-29T08:34:26Z</time>
      </trkpt>
      <trkpt lat="43.43751" lon="-0.37029">
        <ele>275.965</ele>
        <time>2011-05-29T08:34:32Z</time>
      </trkpt>
      <trkpt lat="43.43737" lon="-0.3705">
        <ele>274.145</ele>
        <time>2011-05-29T08:34:35Z</time>
      </trkpt>
      <trkpt lat="43.4372" lon="-0.37058">
        <ele>270.473</ele>
        <time>2011-05-29T08:34:39Z</time>
      </trkpt>
      <trkpt lat="43.43716" lon="-0.37059">
        <ele>269.489</ele>
        <time>2011-05-29T08:34:40Z</time>
      </trkpt>
      <trkpt lat="43.43707" lon="-0.37063">
        <ele>267.543</ele>
        <time>2011-05-29T08:34:42Z</time>
      </trkpt>
      <trkpt lat="43.43668" lon="-0.37072">
        <ele>262.358</ele>
        <time>2011-05-29T08:34:49Z</time>
      </trkpt>
      <trkpt lat="43.43656" lon="-0.37075">
        <ele>260.326</ele>
        <time>2011-05-29T08:34:52Z</time>
      </trkpt>
      <trkpt lat="43.43654" lon="-0.37082">
        <ele>258.948</ele>
        <time>2011-05-29T08:34:55Z</time>
      </trkpt>
      <trkpt lat="43.43659" lon="-0.37087">
        <ele>257.541</ele>
        <time>2011-05-29T08:34:57Z</time>
      </trkpt>
      <trkpt lat="43.43673" lon="-0.37094">
        <ele>255.759</ele>
        <time>2011-05-29T08:35:00Z</time>
      </trkpt>
      <trkpt lat="43.43684" lon="-0.37102">
        <ele>254.737</ele>
        <time>2011-05-29T08:35:02Z</time>
      </trkpt>
      <trkpt lat="43.43695" lon="-0.3712">
        <ele>253.109</ele>
        <time>2011-05-29T08:35:05Z</time>
      </trkpt>
      <trkpt lat="43.43705" lon="-0.37135">
        <ele>251.876</ele>
        <time>2011-05-29T08:35:07Z</time>
      </trkpt>
      <trkpt lat="43.43714" lon="-0.37148">
        <ele>249.477</ele>
        <time>2011-05-29T08:35:10Z</time>
      </trkpt>
      <trkpt lat="43.43709" lon="-0.37153">
        <ele>246.624</ele>
        <time>2011-05-29T08:35:14Z</time>
      </trkpt>
      <trkpt lat="43.43679" lon="-0.3716">
        <ele>243.745</ele>
        <time>2011-05-29T08:35:20Z</time>
      </trkpt>
      <trkpt lat="43.43673" lon="-0.37159">
        <ele>242.98</ele>
        <time>2011-05-29T08:35:21Z</time>
      </trkpt>
      <trkpt lat="43.43655" lon="-0.37159">
        <ele>239.341</ele>
        <time>2011-05-29T08:35:25Z</time>
      </trkpt>
      <trkpt lat="43.43637" lon="-0.37165">
        <ele>236.035</ele>
        <time>2011-05-29T08:35:29Z</time>
      </trkpt>
      <trkpt lat="43.43627" lon="-0.37183">
        <ele>232.801</ele>
        <time>2011-05-29T08:35:33Z</time>
      </trkpt>
      <trkpt lat="43.43636" lon="-0.37191">
        <ele>231.255</ele>
        <time>2011-05-29T08:35:35Z</time>
      </trkpt>
      <trkpt lat="43.43643" lon="-0.37203">
        <ele>229.751</ele>
        <time>2011-05-29T08:35:38Z</time>
      </trkpt>
      <trkpt lat="43.43644" lon="-0.37209">
        <ele>229.677</ele>
        <time>2011-05-29T08:35:41Z</time>
      </trkpt>
      <trkpt lat="43.4364" lon="-0.37209">
        <ele>230.002</ele>
        <time>2011-05-29T08:35:43Z</time>
      </trkpt>
      <trkpt lat="43.43627" lon="-0.37203">
        <ele>230.774</ele>
        <time>2011-05-29T08:35:49Z</time>
      </trkpt>
      <trkpt lat="43.43607" lon="-0.37192">
        <ele>231.943</ele>
        <time>2011-05-29T08:35:56Z</time>
      </trkpt>
      <trkpt lat="43.43588" lon="-0.37185">
        <ele>233.428</ele>
        <time>2011-05-29T08:36:03Z</time>
      </trkpt>
      <trkpt lat="43.43571" lon="-0.37183">
        <ele>235</ele>
        <time>2011-05-29T08:36:10Z</time>
      </trkpt>
      <trkpt lat="43.43553" lon="-0.37177">
        <ele>235.318</ele>
        <time>2011-05-29T08:36:17Z</time>
      </trkpt>
      <trkpt lat="43.43541" lon="-0.37172">
        <ele>235.234</ele>
        <time>2011-05-29T08:36:22Z</time>
      </trkpt>
      <trkpt lat="43.43524" lon="-0.37165">
        <ele>235.865</ele>
        <time>2011-05-29T08:36:29Z</time>
      </trkpt>
      <trkpt lat="43.43507" lon="-0.37158">
        <ele>237.398</ele>
        <time>2011-05-29T08:36:37Z</time>
      </trkpt>
      <trkpt lat="43.43492" lon="-0.37154">
        <ele>239.235</ele>
        <time>2011-05-29T08:36:44Z</time>
      </trkpt>
      <trkpt lat="43.43476" lon="-0.37148">
        <ele>241.266</ele>
        <time>2011-05-29T08:36:52Z</time>
      </trkpt>
      <trkpt lat="43.43461" lon="-0.37138">
        <ele>242.022</ele>
        <time>2011-05-29T08:36:57Z</time>
      </trkpt>
      <trkpt lat="43.43444" lon="-0.37129">
        <ele>241.597</ele>
        <time>2011-05-29T08:37:02Z</time>
      </trkpt>
      <trkpt lat="43.43428" lon="-0.37129">
        <ele>240.963</ele>
        <time>2011-05-29T08:37:08Z</time>
      </trkpt>
      <trkpt lat="43.43414" lon="-0.37132">
        <ele>242.054</ele>
        <time>2011-05-29T08:37:14Z</time>
      </trkpt>
      <trkpt lat="43.43402" lon="-0.37128">
        <ele>243.226</ele>
        <time>2011-05-29T08:37:21Z</time>
      </trkpt>
      <trkpt lat="43.43391" lon="-0.37123">
        <ele>244.392</ele>
        <time>2011-05-29T08:37:28Z</time>
      </trkpt>
      <trkpt lat="43.43378" lon="-0.37117">
        <ele>246.135</ele>
        <time>2011-05-29T08:37:36Z</time>
      </trkpt>
      <trkpt lat="43.43366" lon="-0.37108">
        <ele>247.526</ele>
        <time>2011-05-29T08:37:43Z</time>
      </trkpt>
      <trkpt lat="43.4335" lon="-0.37092">
        <ele>248.149</ele>
        <time>2011-05-29T08:37:50Z</time>
      </trkpt>
      <trkpt lat="43.43331" lon="-0.37078">
        <ele>248.052</ele>
        <time>2011-05-29T08:37:56Z</time>
      </trkpt>
      <trkpt lat="43.43316" lon="-0.37072">
        <ele>248.047</ele>
        <time>2011-05-29T08:38:01Z</time>
      </trkpt>
      <trkpt lat="43.43305" lon="-0.37078">
        <ele>249.628</ele>
        <time>2011-05-29T08:38:08Z</time>
      </trkpt>
      <trkpt lat="43.43298" lon="-0.37085">
        <ele>252.245</ele>
        <time>2011-05-29T08:38:15Z</time>
      </trkpt>
      <trkpt lat="43.43294" lon="-0.37088">
        <ele>253.297</ele>
        <time>2011-05-29T08:38:19Z</time>
      </trkpt>
      <trkpt lat="43.43283" lon="-0.37084">
        <ele>254.431</ele>
        <time>2011-05-29T08:38:25Z</time>
      </trkpt>
      <trkpt lat="43.43266" lon="-0.37075">
        <ele>254.168</ele>
        <time>2011-05-29T08:38:33Z</time>
      </trkpt>
      <trkpt lat="43.4325" lon="-0.3707">
        <ele>253.936</ele>
        <time>2011-05-29T08:38:39Z</time>
      </trkpt>
      <trkpt lat="43.43236" lon="-0.37063">
        <ele>254.564</ele>
        <time>2011-05-29T08:38:45Z</time>
      </trkpt>
      <trkpt lat="43.43224" lon="-0.37057">
        <ele>255.474</ele>
        <time>2011-05-29T08:38:50Z</time>
      </trkpt>
      <trkpt lat="43.43208" lon="-0.37037">
        <ele>256.609</ele>
        <time>2011-05-29T08:38:59Z</time>
      </trkpt>
      <trkpt lat="43.43198" lon="-0.37024">
        <ele>258.1</ele>
        <time>2011-05-29T08:39:06Z</time>
      </trkpt>
      <trkpt lat="43.43191" lon="-0.37018">
        <ele>259.167</ele>
        <time>2011-05-29T08:39:11Z</time>
      </trkpt>
      <trkpt lat="43.43184" lon="-0.37014">
        <ele>260.133</ele>
        <time>2011-05-29T08:39:16Z</time>
      </trkpt>
      <trkpt lat="43.4318" lon="-0.37012">
        <ele>261.19</ele>
        <time>2011-05-29T08:39:23Z</time>
      </trkpt>
      <trkpt lat="43.43173" lon="-0.37008">
        <ele>262.149</ele>
        <time>2011-05-29T08:39:30Z</time>
      </trkpt>
      <trkpt lat="43.43165" lon="-0.37004">
        <ele>263.195</ele>
        <time>2011-05-29T08:39:37Z</time>
      </trkpt>
      <trkpt lat="43.43157" lon="-0.36998">
        <ele>264.91</ele>
        <time>2011-05-29T08:39:45Z</time>
      </trkpt>
      <trkpt lat="43.43146" lon="-0.36993">
        <ele>266.838</ele>
        <time>2011-05-29T08:39:55Z</time>
      </trkpt>
      <trkpt lat="43.43145" lon="-0.36992">
        <ele>267.512</ele>
        <time>2011-05-29T08:40:01Z</time>
      </trkpt>
      <trkpt lat="43.43139" lon="-0.36986">
        <ele>268.088</ele>
        <time>2011-05-29T08:40:09Z</time>
      </trkpt>
      <trkpt lat="43.43131" lon="-0.36981">
        <ele>269.583</ele>
        <time>2011-05-29T08:40:17Z</time>
      </trkpt>
      <trkpt lat="43.43125" lon="-0.36979">
        <ele>270.786</ele>
        <time>2011-05-29T08:40:25Z</time>
      </trkpt>
      <trkpt lat="43.43121" lon="-0.36983">
        <ele>272.001</ele>
        <time>2011-05-29T08:40:31Z</time>
      </trkpt>
      <trkpt lat="43.43122" lon="-0.36986">
        <ele>273.247</ele>
        <time>2011-05-29T08:40:36Z</time>
      </trkpt>
      <trkpt lat="43.43122" lon="-0.36989">
        <ele>273.961</ele>
        <time>2011-05-29T08:40:39Z</time>
      </trkpt>
      <trkpt lat="43.4312" lon="-0.36996">
        <ele>275.588</ele>
        <time>2011-05-29T08:40:48Z</time>
      </trkpt>
      <trkpt lat="43.4312" lon="-0.36998">
        <ele>275.736</ele>
        <time>2011-05-29T08:40:50Z</time>
      </trkpt>
      <trkpt lat="43.43123" lon="-0.37009">
        <ele>277.401</ele>
        <time>2011-05-29T08:41:00Z</time>
      </trkpt>
      <trkpt lat="43.43125" lon="-0.37014">
        <ele>278.021</ele>
        <time>2011-05-29T08:41:06Z</time>
      </trkpt>
      <trkpt lat="43.43131" lon="-0.37025">
        <ele>278.494</ele>
        <time>2011-05-29T08:41:13Z</time>
      </trkpt>
      <trkpt lat="43.43142" lon="-0.37038">
        <ele>278.288</ele>
        <time>2011-05-29T08:41:18Z</time>
      </trkpt>
      <trkpt lat="43.43162" lon="-0.37067">
        <ele>276.875</ele>
        <time>2011-05-29T08:41:24Z</time>
      </trkpt>
      <trkpt lat="43.43175" lon="-0.37086">
        <ele>275.589</ele>
        <time>2011-05-29T08:41:27Z</time>
      </trkpt>
      <trkpt lat="43.43196" lon="-0.37108">
        <ele>271.641</ele>
        <time>2011-05-29T08:41:32Z</time>
      </trkpt>
      <trkpt lat="43.43201" lon="-0.37119">
        <ele>269.738</ele>
        <time>2011-05-29T08:41:34Z</time>
      </trkpt>
      <trkpt lat="43.43197" lon="-0.37132">
        <ele>267.842</ele>
        <time>2011-05-29T08:41:37Z</time>
      </trkpt>
      <trkpt lat="43.43195" lon="-0.37135">
        <ele>267.532</ele>
        <time>2011-05-29T08:41:38Z</time>
      </trkpt>
      <trkpt lat="43.43183" lon="-0.37155">
        <ele>269.425</ele>
        <time>2011-05-29T08:41:46Z</time>
      </trkpt>
      <trkpt lat="43.43174" lon="-0.37174">
        <ele>271.254</ele>
        <time>2011-05-29T08:41:54Z</time>
      </trkpt>
      <trkpt lat="43.43168" lon="-0.37194">
        <ele>272.404</ele>
        <time>2011-05-29T08:42:02Z</time>
      </trkpt>
      <trkpt lat="43.43164" lon="-0.37211">
        <ele>274.048</ele>
        <time>2011-05-29T08:42:10Z</time>
      </trkpt>
      <trkpt lat="43.43158" lon="-0.37229">
        <ele>276.006</ele>
        <time>2011-05-29T08:42:18Z</time>
      </trkpt>
      <trkpt lat="43.43151" lon="-0.37249">
        <ele>277.578</ele>
        <time>2011-05-29T08:42:26Z</time>
      </trkpt>
      <trkpt lat="43.43144" lon="-0.37271">
        <ele>278.705</ele>
        <time>2011-05-29T08:42:34Z</time>
      </trkpt>
      <trkpt lat="43.43137" lon="-0.37295">
        <ele>279.636</ele>
        <time>2011-05-29T08:42:42Z</time>
      </trkpt>
      <trkpt lat="43.43133" lon="-0.37323">
        <ele>281.106</ele>
        <time>2011-05-29T08:42:51Z</time>
      </trkpt>
      <trkpt lat="43.43126" lon="-0.3734">
        <ele>282.488</ele>
        <time>2011-05-29T08:42:58Z</time>
      </trkpt>
      <trkpt lat="43.43117" lon="-0.37341">
        <ele>283.485</ele>
        <time>2011-05-29T08:43:02Z</time>
      </trkpt>
      <trkpt lat="43.43099" lon="-0.37333">
        <ele>284.364</ele>
        <time>2011-05-29T08:43:09Z</time>
      </trkpt>
      <trkpt lat="43.43063" lon="-0.37312">
        <ele>284.697</ele>
        <time>2011-05-29T08:43:21Z</time>
      </trkpt>
      <trkpt lat="43.43031" lon="-0.37293">
        <ele>286</ele>
        <time>2011-05-29T08:43:32Z</time>
      </trkpt>
      <trkpt lat="43.43005" lon="-0.37275">
        <ele>286.264</ele>
        <time>2011-05-29T08:43:40Z</time>
      </trkpt>
      <trkpt lat="43.42967" lon="-0.37247">
        <ele>286.141</ele>
        <time>2011-05-29T08:43:49Z</time>
      </trkpt>
      <trkpt lat="43.42932" lon="-0.37216">
        <ele>286.017</ele>
        <time>2011-05-29T08:43:58Z</time>
      </trkpt>
      <trkpt lat="43.42916" lon="-0.37202">
        <ele>286.144</ele>
        <time>2011-05-29T08:44:02Z</time>
      </trkpt>
      <trkpt lat="43.42904" lon="-0.37195">
        <ele>286.249</ele>
        <time>2011-05-29T08:44:05Z</time>
      </trkpt>
      <trkpt lat="43.42888" lon="-0.37182">
        <ele>286.437</ele>
        <time>2011-05-29T08:44:09Z</time>
      </trkpt>
      <trkpt lat="43.42864" lon="-0.37142">
        <ele>286.784</ele>
        <time>2011-05-29T08:44:17Z</time>
      </trkpt>
      <trkpt lat="43.42854" lon="-0.37121">
        <ele>287.067</ele>
        <time>2011-05-29T08:44:21Z</time>
      </trkpt>
      <trkpt lat="43.42841" lon="-0.37115">
        <ele>286.935</ele>
        <time>2011-05-29T08:44:25Z</time>
      </trkpt>
      <trkpt lat="43.42838" lon="-0.37118">
        <ele>286.851</ele>
        <time>2011-05-29T08:44:26Z</time>
      </trkpt>
      <trkpt lat="43.42815" lon="-0.37147">
        <ele>287.243</ele>
        <time>2011-05-29T08:44:34Z</time>
      </trkpt>
      <trkpt lat="43.42797" lon="-0.37169">
        <ele>287.522</ele>
        <time>2011-05-29T08:44:40Z</time>
      </trkpt>
      <trkpt lat="43.42766" lon="-0.372">
        <ele>287.686</ele>
        <time>2011-05-29T08:44:48Z</time>
      </trkpt>
      <trkpt lat="43.4273" lon="-0.37231">
        <ele>287.739</ele>
        <time>2011-05-29T08:44:56Z</time>
      </trkpt>
      <trkpt lat="43.42682" lon="-0.37271">
        <ele>287.193</ele>
        <time>2011-05-29T08:45:05Z</time>
      </trkpt>
      <trkpt lat="43.42649" lon="-0.37301">
        <ele>286.116</ele>
        <time>2011-05-29T08:45:11Z</time>
      </trkpt>
      <trkpt lat="43.42639" lon="-0.3731">
        <ele>285.653</ele>
        <time>2011-05-29T08:45:13Z</time>
      </trkpt>
      <trkpt lat="43.42625" lon="-0.37316">
        <ele>284.934</ele>
        <time>2011-05-29T08:45:17Z</time>
      </trkpt>
      <trkpt lat="43.42617" lon="-0.37322">
        <ele>284.501</ele>
        <time>2011-05-29T08:45:21Z</time>
      </trkpt>
      <trkpt lat="43.42611" lon="-0.37327">
        <ele>284.215</ele>
        <time>2011-05-29T08:45:25Z</time>
      </trkpt>
      <trkpt lat="43.42594" lon="-0.37331">
        <ele>283.791</ele>
        <time>2011-05-29T08:45:30Z</time>
      </trkpt>
      <trkpt lat="43.42571" lon="-0.37342">
        <ele>283.287</ele>
        <time>2011-05-29T08:45:37Z</time>
      </trkpt>
      <trkpt lat="43.42562" lon="-0.37344">
        <ele>282.88</ele>
        <time>2011-05-29T08:45:41Z</time>
      </trkpt>
      <trkpt lat="43.42555" lon="-0.37345">
        <ele>282.409</ele>
        <time>2011-05-29T08:45:45Z</time>
      </trkpt>
      <trkpt lat="43.42542" lon="-0.37346">
        <ele>282.07</ele>
        <time>2011-05-29T08:45:48Z</time>
      </trkpt>
      <trkpt lat="43.42512" lon="-0.37339">
        <ele>281.268</ele>
        <time>2011-05-29T08:45:54Z</time>
      </trkpt>
      <trkpt lat="43.42482" lon="-0.37333">
        <ele>279.57</ele>
        <time>2011-05-29T08:45:59Z</time>
      </trkpt>
      <trkpt lat="43.42459" lon="-0.37329">
        <ele>277.606</ele>
        <time>2011-05-29T08:46:02Z</time>
      </trkpt>
      <trkpt lat="43.4242" lon="-0.3733">
        <ele>273.384</ele>
        <time>2011-05-29T08:46:07Z</time>
      </trkpt>
      <trkpt lat="43.42383" lon="-0.37337">
        <ele>269.559</ele>
        <time>2011-05-29T08:46:12Z</time>
      </trkpt>
      <trkpt lat="43.42373" lon="-0.37346">
        <ele>268.953</ele>
        <time>2011-05-29T08:46:14Z</time>
      </trkpt>
      <trkpt lat="43.42344" lon="-0.37385">
        <ele>269.686</ele>
        <time>2011-05-29T08:46:22Z</time>
      </trkpt>
      <trkpt lat="43.42329" lon="-0.37402">
        <ele>270.175</ele>
        <time>2011-05-29T08:46:26Z</time>
      </trkpt>
      <trkpt lat="43.42304" lon="-0.37413">
        <ele>271.578</ele>
        <time>2011-05-29T08:46:33Z</time>
      </trkpt>
      <trkpt lat="43.42288" lon="-0.37417">
        <ele>273.506</ele>
        <time>2011-05-29T08:46:39Z</time>
      </trkpt>
      <trkpt lat="43.42274" lon="-0.37419">
        <ele>274.935</ele>
        <time>2011-05-29T08:46:45Z</time>
      </trkpt>
      <trkpt lat="43.42265" lon="-0.37421">
        <ele>275.913</ele>
        <time>2011-05-29T08:46:49Z</time>
      </trkpt>
      <trkpt lat="43.42255" lon="-0.37423">
        <ele>276.872</ele>
        <time>2011-05-29T08:46:54Z</time>
      </trkpt>
      <trkpt lat="43.42234" lon="-0.37429">
        <ele>278.469</ele>
        <time>2011-05-29T08:47:05Z</time>
      </trkpt>
      <trkpt lat="43.42215" lon="-0.37433">
        <ele>279.669</ele>
        <time>2011-05-29T08:47:14Z</time>
      </trkpt>
      <trkpt lat="43.42193" lon="-0.37438">
        <ele>281.133</ele>
        <time>2011-05-29T08:47:24Z</time>
      </trkpt>
      <trkpt lat="43.42186" lon="-0.37451">
        <ele>281.9</ele>
        <time>2011-05-29T08:47:29Z</time>
      </trkpt>
      <trkpt lat="43.42179" lon="-0.37484">
        <ele>282.259</ele>
        <time>2011-05-29T08:47:36Z</time>
      </trkpt>
      <trkpt lat="43.42177" lon="-0.37501">
        <ele>282.147</ele>
        <time>2011-05-29T08:47:39Z</time>
      </trkpt>
      <trkpt lat="43.42165" lon="-0.37515">
        <ele>281.992</ele>
        <time>2011-05-29T08:47:43Z</time>
      </trkpt>
      <trkpt lat="43.42134" lon="-0.37519">
        <ele>284.208</ele>
        <time>2011-05-29T08:47:52Z</time>
      </trkpt>
      <trkpt lat="43.421" lon="-0.37525">
        <ele>286.257</ele>
        <time>2011-05-29T08:48:04Z</time>
      </trkpt>
      <trkpt lat="43.42065" lon="-0.3753">
        <ele>286.418</ele>
        <time>2011-05-29T08:48:14Z</time>
      </trkpt>
      <trkpt lat="43.4204" lon="-0.37534">
        <ele>285.8</ele>
        <time>2011-05-29T08:48:19Z</time>
      </trkpt>
      <trkpt lat="43.42" lon="-0.37539">
        <ele>283.976</ele>
        <time>2011-05-29T08:48:25Z</time>
      </trkpt>
      <trkpt lat="43.41985" lon="-0.37541">
        <ele>281.81</ele>
        <time>2011-05-29T08:48:28Z</time>
      </trkpt>
      <trkpt lat="43.41964" lon="-0.37534">
        <ele>278.18</ele>
        <time>2011-05-29T08:48:33Z</time>
      </trkpt>
      <trkpt lat="43.41933" lon="-0.37541">
        <ele>274.11</ele>
        <time>2011-05-29T08:48:37Z</time>
      </trkpt>
      <trkpt lat="43.41919" lon="-0.37541">
        <ele>271.024</ele>
        <time>2011-05-29T08:48:39Z</time>
      </trkpt>
      <trkpt lat="43.41868" lon="-0.37545">
        <ele>259.222</ele>
        <time>2011-05-29T08:48:46Z</time>
      </trkpt>
      <trkpt lat="43.4186" lon="-0.37545">
        <ele>259.216</ele>
        <time>2011-05-29T08:48:47Z</time>
      </trkpt>
      <trkpt lat="43.41829" lon="-0.37545">
        <ele>253.153</ele>
        <time>2011-05-29T08:48:51Z</time>
      </trkpt>
      <trkpt lat="43.41817" lon="-0.37552">
        <ele>249.783</ele>
        <time>2011-05-29T08:48:54Z</time>
      </trkpt>
      <trkpt lat="43.41819" lon="-0.37563">
        <ele>248.141</ele>
        <time>2011-05-29T08:48:56Z</time>
      </trkpt>
      <trkpt lat="43.41822" lon="-0.37591">
        <ele>246.949</ele>
        <time>2011-05-29T08:49:00Z</time>
      </trkpt>
      <trkpt lat="43.41819" lon="-0.37633">
        <ele>246.868</ele>
        <time>2011-05-29T08:49:05Z</time>
      </trkpt>
      <trkpt lat="43.41821" lon="-0.3765">
        <ele>246.691</ele>
        <time>2011-05-29T08:49:07Z</time>
      </trkpt>
      <trkpt lat="43.41816" lon="-0.3769">
        <ele>246.279</ele>
        <time>2011-05-29T08:49:12Z</time>
      </trkpt>
      <trkpt lat="43.41809" lon="-0.37704">
        <ele>246.297</ele>
        <time>2011-05-29T08:49:14Z</time>
      </trkpt>
      <trkpt lat="43.418" lon="-0.37731">
        <ele>246.002</ele>
        <time>2011-05-29T08:49:17Z</time>
      </trkpt>
      <trkpt lat="43.41795" lon="-0.37778">
        <ele>244.929</ele>
        <time>2011-05-29T08:49:22Z</time>
      </trkpt>
      <trkpt lat="43.41791" lon="-0.37797">
        <ele>244.617</ele>
        <time>2011-05-29T08:49:24Z</time>
      </trkpt>
      <trkpt lat="43.41771" lon="-0.37862">
        <ele>243.32</ele>
        <time>2011-05-29T08:49:31Z</time>
      </trkpt>
      <trkpt lat="43.41769" lon="-0.37872">
        <ele>243.047</ele>
        <time>2011-05-29T08:49:32Z</time>
      </trkpt>
      <trkpt lat="43.41751" lon="-0.37925">
        <ele>241.627</ele>
        <time>2011-05-29T08:49:38Z</time>
      </trkpt>
      <trkpt lat="43.41742" lon="-0.37952">
        <ele>240.839</ele>
        <time>2011-05-29T08:49:41Z</time>
      </trkpt>
      <trkpt lat="43.41735" lon="-0.37968">
        <ele>240.401</ele>
        <time>2011-05-29T08:49:43Z</time>
      </trkpt>
      <trkpt lat="43.41725" lon="-0.37983">
        <ele>239.658</ele>
        <time>2011-05-29T08:49:45Z</time>
      </trkpt>
      <trkpt lat="43.41703" lon="-0.37992">
        <ele>237.381</ele>
        <time>2011-05-29T08:49:49Z</time>
      </trkpt>
      <trkpt lat="43.41681" lon="-0.37999">
        <ele>235.116</ele>
        <time>2011-05-29T08:49:52Z</time>
      </trkpt>
      <trkpt lat="43.41659" lon="-0.3802">
        <ele>233.009</ele>
        <time>2011-05-29T08:49:55Z</time>
      </trkpt>
      <trkpt lat="43.41605" lon="-0.38073">
        <ele>229.249</ele>
        <time>2011-05-29T08:50:02Z</time>
      </trkpt>
      <trkpt lat="43.41597" lon="-0.3808">
        <ele>229.246</ele>
        <time>2011-05-29T08:50:03Z</time>
      </trkpt>
      <trkpt lat="43.41553" lon="-0.38107">
        <ele>226.088</ele>
        <time>2011-05-29T08:50:08Z</time>
      </trkpt>
      <trkpt lat="43.41525" lon="-0.3812">
        <ele>224.35</ele>
        <time>2011-05-29T08:50:11Z</time>
      </trkpt>
      <trkpt lat="43.41498" lon="-0.38125">
        <ele>222.862</ele>
        <time>2011-05-29T08:50:14Z</time>
      </trkpt>
      <trkpt lat="43.41461" lon="-0.38142">
        <ele>221.181</ele>
        <time>2011-05-29T08:50:19Z</time>
      </trkpt>
      <trkpt lat="43.41455" lon="-0.38148">
        <ele>221.028</ele>
        <time>2011-05-29T08:50:20Z</time>
      </trkpt>
      <trkpt lat="43.41441" lon="-0.38162">
        <ele>220.783</ele>
        <time>2011-05-29T08:50:23Z</time>
      </trkpt>
      <trkpt lat="43.41441" lon="-0.38178">
        <ele>220.954</ele>
        <time>2011-05-29T08:50:27Z</time>
      </trkpt>
      <trkpt lat="43.41447" lon="-0.38187">
        <ele>220.63</ele>
        <time>2011-05-29T08:50:30Z</time>
      </trkpt>
      <trkpt lat="43.41446" lon="-0.3819">
        <ele>220.413</ele>
        <time>2011-05-29T08:50:31Z</time>
      </trkpt>
      <trkpt lat="43.41438" lon="-0.38212">
        <ele>218.947</ele>
        <time>2011-05-29T08:50:36Z</time>
      </trkpt>
      <trkpt lat="43.41433" lon="-0.38222">
        <ele>218.723</ele>
        <time>2011-05-29T08:50:38Z</time>
      </trkpt>
      <trkpt lat="43.41416" lon="-0.38256">
        <ele>218.111</ele>
        <time>2011-05-29T08:50:45Z</time>
      </trkpt>
      <trkpt lat="43.41409" lon="-0.38272">
        <ele>217.81</ele>
        <time>2011-05-29T08:50:49Z</time>
      </trkpt>
      <trkpt lat="43.41408" lon="-0.38277">
        <ele>217.742</ele>
        <time>2011-05-29T08:50:50Z</time>
      </trkpt>
      <trkpt lat="43.41403" lon="-0.38295">
        <ele>217.258</ele>
        <time>2011-05-29T08:50:53Z</time>
      </trkpt>
      <trkpt lat="43.41406" lon="-0.38307">
        <ele>216.459</ele>
        <time>2011-05-29T08:50:57Z</time>
      </trkpt>
      <trkpt lat="43.4141" lon="-0.38322">
        <ele>215.639</ele>
        <time>2011-05-29T08:51:02Z</time>
      </trkpt>
      <trkpt lat="43.41407" lon="-0.3833">
        <ele>215.211</ele>
        <time>2011-05-29T08:51:06Z</time>
      </trkpt>
      <trkpt lat="43.41405" lon="-0.38346">
        <ele>214.693</ele>
        <time>2011-05-29T08:51:11Z</time>
      </trkpt>
      <trkpt lat="43.41402" lon="-0.38358">
        <ele>214.739</ele>
        <time>2011-05-29T08:51:15Z</time>
      </trkpt>
      <trkpt lat="43.41404" lon="-0.38368">
        <ele>215.067</ele>
        <time>2011-05-29T08:51:19Z</time>
      </trkpt>
      <trkpt lat="43.41416" lon="-0.38375">
        <ele>215.373</ele>
        <time>2011-05-29T08:51:23Z</time>
      </trkpt>
      <trkpt lat="43.41424" lon="-0.38388">
        <ele>214.876</ele>
        <time>2011-05-29T08:51:26Z</time>
      </trkpt>
      <trkpt lat="43.4143" lon="-0.38412">
        <ele>213.674</ele>
        <time>2011-05-29T08:51:31Z</time>
      </trkpt>
      <trkpt lat="43.41432" lon="-0.3842">
        <ele>213.336</ele>
        <time>2011-05-29T08:51:34Z</time>
      </trkpt>
      <trkpt lat="43.41434" lon="-0.38438">
        <ele>212.997</ele>
        <time>2011-05-29T08:51:39Z</time>
      </trkpt>
      <trkpt lat="43.41441" lon="-0.38456">
        <ele>212.917</ele>
        <time>2011-05-29T08:51:43Z</time>
      </trkpt>
      <trkpt lat="43.41442" lon="-0.38465">
        <ele>212.883</ele>
        <time>2011-05-29T08:51:45Z</time>
      </trkpt>
      <trkpt lat="43.41437" lon="-0.38485">
        <ele>212.735</ele>
        <time>2011-05-29T08:51:50Z</time>
      </trkpt>
      <trkpt lat="43.41432" lon="-0.38489">
        <ele>212.823</ele>
        <time>2011-05-29T08:51:54Z</time>
      </trkpt>
      <trkpt lat="43.41431" lon="-0.38491">
        <ele>214.17</ele>
        <time>2011-05-29T08:51:59Z</time>
      </trkpt>
      <trkpt lat="43.41429" lon="-0.38496">
        <ele>215.507</ele>
        <time>2011-05-29T08:52:03Z</time>
      </trkpt>
      <trkpt lat="43.41426" lon="-0.38503">
        <ele>216.816</ele>
        <time>2011-05-29T08:52:08Z</time>
      </trkpt>
      <trkpt lat="43.4142" lon="-0.38505">
        <ele>218.321</ele>
        <time>2011-05-29T08:52:15Z</time>
      </trkpt>
      <trkpt lat="43.4142" lon="-0.38509">
        <ele>218.83</ele>
        <time>2011-05-29T08:52:18Z</time>
      </trkpt>
      <trkpt lat="43.41424" lon="-0.38527">
        <ele>218.606</ele>
        <time>2011-05-29T08:52:23Z</time>
      </trkpt>
      <trkpt lat="43.41423" lon="-0.38531">
        <ele>218.486</ele>
        <time>2011-05-29T08:52:24Z</time>
      </trkpt>
      <trkpt lat="43.41432" lon="-0.38548">
        <ele>216.808</ele>
        <time>2011-05-29T08:52:29Z</time>
      </trkpt>
      <trkpt lat="43.41436" lon="-0.38556">
        <ele>215.274</ele>
        <time>2011-05-29T08:52:32Z</time>
      </trkpt>
      <trkpt lat="43.4145" lon="-0.38581">
        <ele>213.414</ele>
        <time>2011-05-29T08:52:38Z</time>
      </trkpt>
      <trkpt lat="43.41453" lon="-0.38584">
        <ele>213.113</ele>
        <time>2011-05-29T08:52:39Z</time>
      </trkpt>
      <trkpt lat="43.41465" lon="-0.38589">
        <ele>210.93</ele>
        <time>2011-05-29T08:52:44Z</time>
      </trkpt>
      <trkpt lat="43.41467" lon="-0.38585">
        <ele>209.306</ele>
        <time>2011-05-29T08:52:48Z</time>
      </trkpt>
      <trkpt lat="43.41467" lon="-0.38583">
        <ele>208.648</ele>
        <time>2011-05-29T08:52:52Z</time>
      </trkpt>
      <trkpt lat="43.41471" lon="-0.38584">
        <ele>209.366</ele>
        <time>2011-05-29T08:52:58Z</time>
      </trkpt>
      <trkpt lat="43.41477" lon="-0.38585">
        <ele>209.872</ele>
        <time>2011-05-29T08:53:03Z</time>
      </trkpt>
      <trkpt lat="43.41477" lon="-0.38585">
        <ele>209.96</ele>
        <time>2011-05-29T08:53:04Z</time>
      </trkpt>
      <trkpt lat="43.41477" lon="-0.38593">
        <ele>210.047</ele>
        <time>2011-05-29T08:53:09Z</time>
      </trkpt>
      <trkpt lat="43.41475" lon="-0.386">
        <ele>210.022</ele>
        <time>2011-05-29T08:53:12Z</time>
      </trkpt>
      <trkpt lat="43.41471" lon="-0.38622">
        <ele>210.087</ele>
        <time>2011-05-29T08:53:19Z</time>
      </trkpt>
      <trkpt lat="43.4147" lon="-0.38625">
        <ele>210.082</ele>
        <time>2011-05-29T08:53:20Z</time>
      </trkpt>
      <trkpt lat="43.41471" lon="-0.38654">
        <ele>209.715</ele>
        <time>2011-05-29T08:53:26Z</time>
      </trkpt>
      <trkpt lat="43.41471" lon="-0.38666">
        <ele>209.413</ele>
        <time>2011-05-29T08:53:28Z</time>
      </trkpt>
      <trkpt lat="43.41468" lon="-0.38708">
        <ele>208.739</ele>
        <time>2011-05-29T08:53:35Z</time>
      </trkpt>
      <trkpt lat="43.41468" lon="-0.38749">
        <ele>207.869</ele>
        <time>2011-05-29T08:53:41Z</time>
      </trkpt>
      <trkpt lat="43.4147" lon="-0.38789">
        <ele>206.932</ele>
        <time>2011-05-29T08:53:47Z</time>
      </trkpt>
      <trkpt lat="43.4147" lon="-0.38803">
        <ele>206.632</ele>
        <time>2011-05-29T08:53:49Z</time>
      </trkpt>
      <trkpt lat="43.41468" lon="-0.38821">
        <ele>206.271</ele>
        <time>2011-05-29T08:53:52Z</time>
      </trkpt>
      <trkpt lat="43.41464" lon="-0.38855">
        <ele>205.705</ele>
        <time>2011-05-29T08:53:57Z</time>
      </trkpt>
      <trkpt lat="43.41457" lon="-0.38883">
        <ele>205.265</ele>
        <time>2011-05-29T08:54:01Z</time>
      </trkpt>
      <trkpt lat="43.41451" lon="-0.3893">
        <ele>204.479</ele>
        <time>2011-05-29T08:54:07Z</time>
      </trkpt>
      <trkpt lat="43.41444" lon="-0.38961">
        <ele>203.986</ele>
        <time>2011-05-29T08:54:11Z</time>
      </trkpt>
      <trkpt lat="43.41449" lon="-0.38992">
        <ele>203.659</ele>
        <time>2011-05-29T08:54:15Z</time>
      </trkpt>
      <trkpt lat="43.41457" lon="-0.39028">
        <ele>202.81</ele>
        <time>2011-05-29T08:54:20Z</time>
      </trkpt>
      <trkpt lat="43.41449" lon="-0.39049">
        <ele>202.574</ele>
        <time>2011-05-29T08:54:23Z</time>
      </trkpt>
      <trkpt lat="43.4145" lon="-0.39069">
        <ele>202.429</ele>
        <time>2011-05-29T08:54:26Z</time>
      </trkpt>
      <trkpt lat="43.41459" lon="-0.39088">
        <ele>202.15</ele>
        <time>2011-05-29T08:54:30Z</time>
      </trkpt>
      <trkpt lat="43.41451" lon="-0.39099">
        <ele>201.684</ele>
        <time>2011-05-29T08:54:33Z</time>
      </trkpt>
      <trkpt lat="43.41439" lon="-0.39109">
        <ele>201.296</ele>
        <time>2011-05-29T08:54:36Z</time>
      </trkpt>
      <trkpt lat="43.41414" lon="-0.39137">
        <ele>201.057</ele>
        <time>2011-05-29T08:54:43Z</time>
      </trkpt>
      <trkpt lat="43.41406" lon="-0.39154">
        <ele>200.966</ele>
        <time>2011-05-29T08:54:46Z</time>
      </trkpt>
      <trkpt lat="43.414" lon="-0.39181">
        <ele>200.698</ele>
        <time>2011-05-29T08:54:50Z</time>
      </trkpt>
      <trkpt lat="43.41389" lon="-0.39236">
        <ele>200.048</ele>
        <time>2011-05-29T08:54:58Z</time>
      </trkpt>
      <trkpt lat="43.41372" lon="-0.39283">
        <ele>199.751</ele>
        <time>2011-05-29T08:55:05Z</time>
      </trkpt>
      <trkpt lat="43.41351" lon="-0.39331">
        <ele>199.95</ele>
        <time>2011-05-29T08:55:13Z</time>
      </trkpt>
      <trkpt lat="43.41333" lon="-0.39371">
        <ele>201.317</ele>
        <time>2011-05-29T08:55:20Z</time>
      </trkpt>
      <trkpt lat="43.41313" lon="-0.39408">
        <ele>202.707</ele>
        <time>2011-05-29T08:55:27Z</time>
      </trkpt>
      <trkpt lat="43.41298" lon="-0.39428">
        <ele>203.646</ele>
        <time>2011-05-29T08:55:32Z</time>
      </trkpt>
      <trkpt lat="43.41286" lon="-0.39424">
        <ele>204.839</ele>
        <time>2011-05-29T08:55:37Z</time>
      </trkpt>
      <trkpt lat="43.41284" lon="-0.39422">
        <ele>205.095</ele>
        <time>2011-05-29T08:55:38Z</time>
      </trkpt>
      <trkpt lat="43.41268" lon="-0.39408">
        <ele>208.414</ele>
        <time>2011-05-29T08:55:48Z</time>
      </trkpt>
      <trkpt lat="43.41254" lon="-0.39395">
        <ele>211.063</ele>
        <time>2011-05-29T08:55:58Z</time>
      </trkpt>
      <trkpt lat="43.41245" lon="-0.39383">
        <ele>213.31</ele>
        <time>2011-05-29T08:56:06Z</time>
      </trkpt>
      <trkpt lat="43.41234" lon="-0.39372">
        <ele>214.982</ele>
        <time>2011-05-29T08:56:14Z</time>
      </trkpt>
      <trkpt lat="43.41218" lon="-0.39357">
        <ele>216.568</ele>
        <time>2011-05-29T08:56:26Z</time>
      </trkpt>
      <trkpt lat="43.41207" lon="-0.39347">
        <ele>217.829</ele>
        <time>2011-05-29T08:56:34Z</time>
      </trkpt>
      <trkpt lat="43.41197" lon="-0.39332">
        <ele>218.599</ele>
        <time>2011-05-29T08:56:42Z</time>
      </trkpt>
      <trkpt lat="43.41188" lon="-0.39315">
        <ele>219.14</ele>
        <time>2011-05-29T08:56:50Z</time>
      </trkpt>
      <trkpt lat="43.41184" lon="-0.39308">
        <ele>219.107</ele>
        <time>2011-05-29T08:56:52Z</time>
      </trkpt>
      <trkpt lat="43.41179" lon="-0.39299">
        <ele>219.017</ele>
        <time>2011-05-29T08:56:54Z</time>
      </trkpt>
      <trkpt lat="43.41172" lon="-0.39269">
        <ele>217.9</ele>
        <time>2011-05-29T08:56:58Z</time>
      </trkpt>
      <trkpt lat="43.41168" lon="-0.39223">
        <ele>215.633</ele>
        <time>2011-05-29T08:57:03Z</time>
      </trkpt>
      <trkpt lat="43.41165" lon="-0.39202">
        <ele>215.185</ele>
        <time>2011-05-29T08:57:06Z</time>
      </trkpt>
      <trkpt lat="43.41153" lon="-0.39167">
        <ele>216.003</ele>
        <time>2011-05-29T08:57:13Z</time>
      </trkpt>
      <trkpt lat="43.41143" lon="-0.39133">
        <ele>216.504</ele>
        <time>2011-05-29T08:57:20Z</time>
      </trkpt>
      <trkpt lat="43.41133" lon="-0.39089">
        <ele>216.474</ele>
        <time>2011-05-29T08:57:27Z</time>
      </trkpt>
      <trkpt lat="43.41129" lon="-0.39073">
        <ele>216.039</ele>
        <time>2011-05-29T08:57:29Z</time>
      </trkpt>
      <trkpt lat="43.41125" lon="-0.39034">
        <ele>214.114</ele>
        <time>2011-05-29T08:57:33Z</time>
      </trkpt>
      <trkpt lat="43.41125" lon="-0.39013">
        <ele>212.789</ele>
        <time>2011-05-29T08:57:35Z</time>
      </trkpt>
      <trkpt lat="43.41118" lon="-0.38975">
        <ele>211.222</ele>
        <time>2011-05-29T08:57:39Z</time>
      </trkpt>
      <trkpt lat="43.41091" lon="-0.38923">
        <ele>209.84</ele>
        <time>2011-05-29T08:57:47Z</time>
      </trkpt>
      <trkpt lat="43.41077" lon="-0.38892">
        <ele>209.592</ele>
        <time>2011-05-29T08:57:52Z</time>
      </trkpt>
      <trkpt lat="43.41067" lon="-0.3886">
        <ele>210.397</ele>
        <time>2011-05-29T08:57:58Z</time>
      </trkpt>
      <trkpt lat="43.41061" lon="-0.38844">
        <ele>211.225</ele>
        <time>2011-05-29T08:58:02Z</time>
      </trkpt>
      <trkpt lat="43.41055" lon="-0.3883">
        <ele>212.821</ele>
        <time>2011-05-29T08:58:07Z</time>
      </trkpt>
      <trkpt lat="43.41043" lon="-0.38798">
        <ele>215.003</ele>
        <time>2011-05-29T08:58:18Z</time>
      </trkpt>
      <trkpt lat="43.41038" lon="-0.3878">
        <ele>215.895</ele>
        <time>2011-05-29T08:58:24Z</time>
      </trkpt>
      <trkpt lat="43.41035" lon="-0.38764">
        <ele>216.626</ele>
        <time>2011-05-29T08:58:29Z</time>
      </trkpt>
      <trkpt lat="43.4103" lon="-0.38735">
        <ele>217.939</ele>
        <time>2011-05-29T08:58:38Z</time>
      </trkpt>
      <trkpt lat="43.41029" lon="-0.38702">
        <ele>219.255</ele>
        <time>2011-05-29T08:58:48Z</time>
      </trkpt>
      <trkpt lat="43.41028" lon="-0.38677">
        <ele>220.509</ele>
        <time>2011-05-29T08:58:56Z</time>
      </trkpt>
      <trkpt lat="43.41029" lon="-0.38662">
        <ele>221.053</ele>
        <time>2011-05-29T08:59:01Z</time>
      </trkpt>
      <trkpt lat="43.4103" lon="-0.38659">
        <ele>221.192</ele>
        <time>2011-05-29T08:59:02Z</time>
      </trkpt>
      <trkpt lat="43.4104" lon="-0.38657">
        <ele>222.382</ele>
        <time>2011-05-29T08:59:07Z</time>
      </trkpt>
      <trkpt lat="43.41056" lon="-0.38657">
        <ele>224.446</ele>
        <time>2011-05-29T08:59:15Z</time>
      </trkpt>
      <trkpt lat="43.41068" lon="-0.38655">
        <ele>226.003</ele>
        <time>2011-05-29T08:59:22Z</time>
      </trkpt>
      <trkpt lat="43.41085" lon="-0.38649">
        <ele>227.431</ele>
        <time>2011-05-29T08:59:31Z</time>
      </trkpt>
      <trkpt lat="43.411" lon="-0.38645">
        <ele>227.738</ele>
        <time>2011-05-29T08:59:38Z</time>
      </trkpt>
      <trkpt lat="43.41112" lon="-0.38645">
        <ele>228.049</ele>
        <time>2011-05-29T08:59:44Z</time>
      </trkpt>
      <trkpt lat="43.41127" lon="-0.3864">
        <ele>229.344</ele>
        <time>2011-05-29T08:59:52Z</time>
      </trkpt>
      <trkpt lat="43.41141" lon="-0.38633">
        <ele>230.677</ele>
        <time>2011-05-29T09:00:00Z</time>
      </trkpt>
      <trkpt lat="43.41152" lon="-0.38627">
        <ele>231.784</ele>
        <time>2011-05-29T09:00:07Z</time>
      </trkpt>
      <trkpt lat="43.41163" lon="-0.38624">
        <ele>232.962</ele>
        <time>2011-05-29T09:00:13Z</time>
      </trkpt>
      <trkpt lat="43.41177" lon="-0.38619">
        <ele>234.54</ele>
        <time>2011-05-29T09:00:22Z</time>
      </trkpt>
      <trkpt lat="43.41186" lon="-0.38616">
        <ele>235.829</ele>
        <time>2011-05-29T09:00:28Z</time>
      </trkpt>
      <trkpt lat="43.41197" lon="-0.38612">
        <ele>236.93</ele>
        <time>2011-05-29T09:00:35Z</time>
      </trkpt>
      <trkpt lat="43.41209" lon="-0.38605">
        <ele>238.312</ele>
        <time>2011-05-29T09:00:43Z</time>
      </trkpt>
      <trkpt lat="43.41216" lon="-0.38593">
        <ele>239.377</ele>
        <time>2011-05-29T09:00:50Z</time>
      </trkpt>
      <trkpt lat="43.41221" lon="-0.38577">
        <ele>240.39</ele>
        <time>2011-05-29T09:00:58Z</time>
      </trkpt>
      <trkpt lat="43.41224" lon="-0.38555">
        <ele>242.412</ele>
        <time>2011-05-29T09:01:07Z</time>
      </trkpt>
      <trkpt lat="43.41228" lon="-0.38539">
        <ele>243.706</ele>
        <time>2011-05-29T09:01:14Z</time>
      </trkpt>
      <trkpt lat="43.41232" lon="-0.38518">
        <ele>244.99</ele>
        <time>2011-05-29T09:01:23Z</time>
      </trkpt>
      <trkpt lat="43.41235" lon="-0.385">
        <ele>246.519</ele>
        <time>2011-05-29T09:01:30Z</time>
      </trkpt>
      <trkpt lat="43.41242" lon="-0.38473">
        <ele>248.171</ele>
        <time>2011-05-29T09:01:41Z</time>
      </trkpt>
      <trkpt lat="43.41252" lon="-0.38447">
        <ele>248.943</ele>
        <time>2011-05-29T09:01:50Z</time>
      </trkpt>
      <trkpt lat="43.41259" lon="-0.38426">
        <ele>249.933</ele>
        <time>2011-05-29T09:01:57Z</time>
      </trkpt>
      <trkpt lat="43.41261" lon="-0.38402">
        <ele>250.888</ele>
        <time>2011-05-29T09:02:04Z</time>
      </trkpt>
      <trkpt lat="43.41261" lon="-0.38386">
        <ele>250.961</ele>
        <time>2011-05-29T09:02:08Z</time>
      </trkpt>
      <trkpt lat="43.41264" lon="-0.38362">
        <ele>249.761</ele>
        <time>2011-05-29T09:02:13Z</time>
      </trkpt>
      <trkpt lat="43.41264" lon="-0.38344">
        <ele>248.28</ele>
        <time>2011-05-29T09:02:17Z</time>
      </trkpt>
      <trkpt lat="43.41259" lon="-0.38338">
        <ele>248.819</ele>
        <time>2011-05-29T09:02:22Z</time>
      </trkpt>
      <trkpt lat="43.41251" lon="-0.38334">
        <ele>251.273</ele>
        <time>2011-05-29T09:02:29Z</time>
      </trkpt>
      <trkpt lat="43.4125" lon="-0.38332">
        <ele>251.643</ele>
        <time>2011-05-29T09:02:30Z</time>
      </trkpt>
      <trkpt lat="43.41242" lon="-0.38326">
        <ele>253.752</ele>
        <time>2011-05-29T09:02:37Z</time>
      </trkpt>
      <trkpt lat="43.41236" lon="-0.38318">
        <ele>255.522</ele>
        <time>2011-05-29T09:02:45Z</time>
      </trkpt>
      <trkpt lat="43.41232" lon="-0.38313">
        <ele>256.487</ele>
        <time>2011-05-29T09:02:50Z</time>
      </trkpt>
      <trkpt lat="43.41224" lon="-0.38315">
        <ele>257.558</ele>
        <time>2011-05-29T09:02:57Z</time>
      </trkpt>
      <trkpt lat="43.41214" lon="-0.38322">
        <ele>258.003</ele>
        <time>2011-05-29T09:03:03Z</time>
      </trkpt>
      <trkpt lat="43.41201" lon="-0.38332">
        <ele>258.781</ele>
        <time>2011-05-29T09:03:08Z</time>
      </trkpt>
      <trkpt lat="43.41187" lon="-0.38337">
        <ele>258.789</ele>
        <time>2011-05-29T09:03:11Z</time>
      </trkpt>
      <trkpt lat="43.41166" lon="-0.38332">
        <ele>257.81</ele>
        <time>2011-05-29T09:03:15Z</time>
      </trkpt>
      <trkpt lat="43.41158" lon="-0.38312">
        <ele>256.91</ele>
        <time>2011-05-29T09:03:18Z</time>
      </trkpt>
      <trkpt lat="43.41154" lon="-0.38286">
        <ele>256.276</ele>
        <time>2011-05-29T09:03:22Z</time>
      </trkpt>
      <trkpt lat="43.41156" lon="-0.38262">
        <ele>256.258</ele>
        <time>2011-05-29T09:03:26Z</time>
      </trkpt>
      <trkpt lat="43.41162" lon="-0.38232">
        <ele>256.942</ele>
        <time>2011-05-29T09:03:33Z</time>
      </trkpt>
      <trkpt lat="43.41165" lon="-0.38212">
        <ele>258.133</ele>
        <time>2011-05-29T09:03:39Z</time>
      </trkpt>
      <trkpt lat="43.4117" lon="-0.38198">
        <ele>258.929</ele>
        <time>2011-05-29T09:03:44Z</time>
      </trkpt>
      <trkpt lat="43.41173" lon="-0.38179">
        <ele>260.185</ele>
        <time>2011-05-29T09:03:51Z</time>
      </trkpt>
      <trkpt lat="43.41177" lon="-0.38163">
        <ele>261.001</ele>
        <time>2011-05-29T09:03:57Z</time>
      </trkpt>
      <trkpt lat="43.41184" lon="-0.38144">
        <ele>263.003</ele>
        <time>2011-05-29T09:04:06Z</time>
      </trkpt>
      <trkpt lat="43.41181" lon="-0.38128">
        <ele>263.721</ele>
        <time>2011-05-29T09:04:12Z</time>
      </trkpt>
      <trkpt lat="43.41177" lon="-0.3812">
        <ele>263.447</ele>
        <time>2011-05-29T09:04:14Z</time>
      </trkpt>
      <trkpt lat="43.4116" lon="-0.38105">
        <ele>261.635</ele>
        <time>2011-05-29T09:04:18Z</time>
      </trkpt>
      <trkpt lat="43.41148" lon="-0.38102">
        <ele>260.858</ele>
        <time>2011-05-29T09:04:20Z</time>
      </trkpt>
      <trkpt lat="43.41097" lon="-0.38086">
        <ele>254.426</ele>
        <time>2011-05-29T09:04:26Z</time>
      </trkpt>
      <trkpt lat="43.41079" lon="-0.38079">
        <ele>252.415</ele>
        <time>2011-05-29T09:04:28Z</time>
      </trkpt>
      <trkpt lat="43.4104" lon="-0.38051">
        <ele>249.064</ele>
        <time>2011-05-29T09:04:33Z</time>
      </trkpt>
      <trkpt lat="43.41011" lon="-0.38042">
        <ele>247.399</ele>
        <time>2011-05-29T09:04:37Z</time>
      </trkpt>
      <trkpt lat="43.40996" lon="-0.3804">
        <ele>246.397</ele>
        <time>2011-05-29T09:04:39Z</time>
      </trkpt>
      <trkpt lat="43.40976" lon="-0.38026">
        <ele>243.166</ele>
        <time>2011-05-29T09:04:43Z</time>
      </trkpt>
      <trkpt lat="43.4097" lon="-0.38019">
        <ele>242.139</ele>
        <time>2011-05-29T09:04:45Z</time>
      </trkpt>
      <trkpt lat="43.40953" lon="-0.38018">
        <ele>238.241</ele>
        <time>2011-05-29T09:04:49Z</time>
      </trkpt>
      <trkpt lat="43.40935" lon="-0.38033">
        <ele>233.692</ele>
        <time>2011-05-29T09:04:54Z</time>
      </trkpt>
      <trkpt lat="43.40927" lon="-0.38049">
        <ele>231.576</ele>
        <time>2011-05-29T09:04:57Z</time>
      </trkpt>
      <trkpt lat="43.40918" lon="-0.38069">
        <ele>230.014</ele>
        <time>2011-05-29T09:05:00Z</time>
      </trkpt>
      <trkpt lat="43.40908" lon="-0.38084">
        <ele>228.493</ele>
        <time>2011-05-29T09:05:04Z</time>
      </trkpt>
      <trkpt lat="43.40901" lon="-0.38094">
        <ele>227.184</ele>
        <time>2011-05-29T09:05:09Z</time>
      </trkpt>
      <trkpt lat="43.40894" lon="-0.38099">
        <ele>226.861</ele>
        <time>2011-05-29T09:05:13Z</time>
      </trkpt>
      <trkpt lat="43.40896" lon="-0.38106">
        <ele>225.858</ele>
        <time>2011-05-29T09:05:50Z</time>
      </trkpt>
      <trkpt lat="43.40896" lon="-0.38106">
        <ele>225.809</ele>
        <time>2011-05-29T09:05:51Z</time>
      </trkpt>
      <trkpt lat="43.40903" lon="-0.38108">
        <ele>226.022</ele>
        <time>2011-05-29T09:06:22Z</time>
      </trkpt>
      <trkpt lat="43.40892" lon="-0.38101">
        <ele>226.006</ele>
        <time>2011-05-29T09:07:00Z</time>
      </trkpt>
      <trkpt lat="43.40892" lon="-0.381">
        <ele>226.013</ele>
        <time>2011-05-29T09:07:01Z</time>
      </trkpt>
      <trkpt lat="43.4089" lon="-0.38104">
        <ele>226.294</ele>
        <time>2011-05-29T09:07:59Z</time>
      </trkpt>
      <trkpt lat="43.4089" lon="-0.38105">
        <ele>225.998</ele>
        <time>2011-05-29T09:08:20Z</time>
      </trkpt>
      <trkpt lat="43.4089" lon="-0.38106">
        <ele>225.976</ele>
        <time>2011-05-29T09:08:21Z</time>
      </trkpt>
      <trkpt lat="43.40894" lon="-0.38107">
        <ele>225.87</ele>
        <time>2011-05-29T09:08:34Z</time>
      </trkpt>
      <trkpt lat="43.40894" lon="-0.38109">
        <ele>226.157</ele>
        <time>2011-05-29T09:08:40Z</time>
      </trkpt>
      <trkpt lat="43.40887" lon="-0.38126">
        <ele>226.432</ele>
        <time>2011-05-29T09:08:47Z</time>
      </trkpt>
      <trkpt lat="43.40885" lon="-0.38149">
        <ele>226.028</ele>
        <time>2011-05-29T09:08:53Z</time>
      </trkpt>
      <trkpt lat="43.40893" lon="-0.38168">
        <ele>225.949</ele>
        <time>2011-05-29T09:08:58Z</time>
      </trkpt>
      <trkpt lat="43.40906" lon="-0.38195">
        <ele>227.295</ele>
        <time>2011-05-29T09:09:06Z</time>
      </trkpt>
      <trkpt lat="43.40914" lon="-0.38212">
        <ele>228.687</ele>
        <time>2011-05-29T09:09:12Z</time>
      </trkpt>
      <trkpt lat="43.40922" lon="-0.3823">
        <ele>229.969</ele>
        <time>2011-05-29T09:09:18Z</time>
      </trkpt>
      <trkpt lat="43.40934" lon="-0.38253">
        <ele>230.396</ele>
        <time>2011-05-29T09:09:24Z</time>
      </trkpt>
      <trkpt lat="43.40939" lon="-0.38283">
        <ele>229.872</ele>
        <time>2011-05-29T09:09:29Z</time>
      </trkpt>
      <trkpt lat="43.40929" lon="-0.38333">
        <ele>229.952</ele>
        <time>2011-05-29T09:09:37Z</time>
      </trkpt>
      <trkpt lat="43.40932" lon="-0.3838">
        <ele>229.041</ele>
        <time>2011-05-29T09:09:43Z</time>
      </trkpt>
      <trkpt lat="43.40941" lon="-0.3844">
        <ele>227.347</ele>
        <time>2011-05-29T09:09:49Z</time>
      </trkpt>
      <trkpt lat="43.40941" lon="-0.38451">
        <ele>226.846</ele>
        <time>2011-05-29T09:09:50Z</time>
      </trkpt>
      <trkpt lat="43.40936" lon="-0.38514">
        <ele>224.346</ele>
        <time>2011-05-29T09:09:55Z</time>
      </trkpt>
      <trkpt lat="43.4092" lon="-0.38556">
        <ele>222.613</ele>
        <time>2011-05-29T09:09:59Z</time>
      </trkpt>
      <trkpt lat="43.40905" lon="-0.38585">
        <ele>222.337</ele>
        <time>2011-05-29T09:10:03Z</time>
      </trkpt>
      <trkpt lat="43.40889" lon="-0.38621">
        <ele>223.391</ele>
        <time>2011-05-29T09:10:08Z</time>
      </trkpt>
      <trkpt lat="43.40877" lon="-0.38683">
        <ele>224.725</ele>
        <time>2011-05-29T09:10:16Z</time>
      </trkpt>
      <trkpt lat="43.40873" lon="-0.3874">
        <ele>225.11</ele>
        <time>2011-05-29T09:10:23Z</time>
      </trkpt>
      <trkpt lat="43.40871" lon="-0.38755">
        <ele>225.173</ele>
        <time>2011-05-29T09:10:25Z</time>
      </trkpt>
      <trkpt lat="43.40859" lon="-0.38786">
        <ele>224.772</ele>
        <time>2011-05-29T09:10:29Z</time>
      </trkpt>
      <trkpt lat="43.40847" lon="-0.38813">
        <ele>223.79</ele>
        <time>2011-05-29T09:10:32Z</time>
      </trkpt>
      <trkpt lat="43.40841" lon="-0.38829">
        <ele>222.481</ele>
        <time>2011-05-29T09:10:34Z</time>
      </trkpt>
      <trkpt lat="43.40827" lon="-0.3885">
        <ele>220.23</ele>
        <time>2011-05-29T09:10:38Z</time>
      </trkpt>
      <trkpt lat="43.40813" lon="-0.38851">
        <ele>218.517</ele>
        <time>2011-05-29T09:10:40Z</time>
      </trkpt>
      <trkpt lat="43.40785" lon="-0.38849">
        <ele>215.28</ele>
        <time>2011-05-29T09:10:43Z</time>
      </trkpt>
      <trkpt lat="43.40775" lon="-0.38847">
        <ele>214.101</ele>
        <time>2011-05-29T09:10:44Z</time>
      </trkpt>
      <trkpt lat="43.40742" lon="-0.3884">
        <ele>210.083</ele>
        <time>2011-05-29T09:10:47Z</time>
      </trkpt>
      <trkpt lat="43.40706" lon="-0.38837">
        <ele>205.362</ele>
        <time>2011-05-29T09:10:51Z</time>
      </trkpt>
      <trkpt lat="43.40699" lon="-0.38836">
        <ele>204.497</ele>
        <time>2011-05-29T09:10:52Z</time>
      </trkpt>
      <trkpt lat="43.40682" lon="-0.38839">
        <ele>203.277</ele>
        <time>2011-05-29T09:10:55Z</time>
      </trkpt>
      <trkpt lat="43.40667" lon="-0.38842">
        <ele>203.799</ele>
        <time>2011-05-29T09:10:59Z</time>
      </trkpt>
      <trkpt lat="43.40658" lon="-0.38843">
        <ele>205.156</ele>
        <time>2011-05-29T09:11:03Z</time>
      </trkpt>
      <trkpt lat="43.40644" lon="-0.38846">
        <ele>207.129</ele>
        <time>2011-05-29T09:11:10Z</time>
      </trkpt>
      <trkpt lat="43.40636" lon="-0.38844">
        <ele>208.846</ele>
        <time>2011-05-29T09:11:15Z</time>
      </trkpt>
      <trkpt lat="43.40629" lon="-0.38842">
        <ele>210.839</ele>
        <time>2011-05-29T09:11:21Z</time>
      </trkpt>
      <trkpt lat="43.4062" lon="-0.38837">
        <ele>212.85</ele>
        <time>2011-05-29T09:11:28Z</time>
      </trkpt>
      <trkpt lat="43.40613" lon="-0.38834">
        <ele>214.392</ele>
        <time>2011-05-29T09:11:34Z</time>
      </trkpt>
      <trkpt lat="43.40604" lon="-0.3883">
        <ele>216.258</ele>
        <time>2011-05-29T09:11:41Z</time>
      </trkpt>
      <trkpt lat="43.40594" lon="-0.38828">
        <ele>217.853</ele>
        <time>2011-05-29T09:11:47Z</time>
      </trkpt>
      <trkpt lat="43.40585" lon="-0.38826">
        <ele>219.108</ele>
        <time>2011-05-29T09:11:53Z</time>
      </trkpt>
      <trkpt lat="43.40584" lon="-0.38826">
        <ele>219.105</ele>
        <time>2011-05-29T09:11:54Z</time>
      </trkpt>
      <trkpt lat="43.40574" lon="-0.38828">
        <ele>220.682</ele>
        <time>2011-05-29T09:12:02Z</time>
      </trkpt>
      <trkpt lat="43.4056" lon="-0.3883">
        <ele>222.187</ele>
        <time>2011-05-29T09:12:12Z</time>
      </trkpt>
      <trkpt lat="43.40551" lon="-0.38832">
        <ele>222.84</ele>
        <time>2011-05-29T09:12:17Z</time>
      </trkpt>
      <trkpt lat="43.40531" lon="-0.38832">
        <ele>223.782</ele>
        <time>2011-05-29T09:12:27Z</time>
      </trkpt>
      <trkpt lat="43.40513" lon="-0.3882">
        <ele>224.737</ele>
        <time>2011-05-29T09:12:36Z</time>
      </trkpt>
      <trkpt lat="43.40502" lon="-0.38811">
        <ele>225.566</ele>
        <time>2011-05-29T09:12:42Z</time>
      </trkpt>
      <trkpt lat="43.40492" lon="-0.38803">
        <ele>226.138</ele>
        <time>2011-05-29T09:12:47Z</time>
      </trkpt>
      <trkpt lat="43.4048" lon="-0.38795">
        <ele>227.404</ele>
        <time>2011-05-29T09:12:53Z</time>
      </trkpt>
      <trkpt lat="43.40472" lon="-0.38791">
        <ele>228.249</ele>
        <time>2011-05-29T09:12:57Z</time>
      </trkpt>
      <trkpt lat="43.40463" lon="-0.38806">
        <ele>228.893</ele>
        <time>2011-05-29T09:13:03Z</time>
      </trkpt>
      <trkpt lat="43.40449" lon="-0.38835">
        <ele>228.583</ele>
        <time>2011-05-29T09:13:10Z</time>
      </trkpt>
      <trkpt lat="43.40435" lon="-0.38835">
        <ele>228.137</ele>
        <time>2011-05-29T09:13:14Z</time>
      </trkpt>
      <trkpt lat="43.4043" lon="-0.38831">
        <ele>228.186</ele>
        <time>2011-05-29T09:13:16Z</time>
      </trkpt>
      <trkpt lat="43.4041" lon="-0.38811">
        <ele>229.879</ele>
        <time>2011-05-29T09:13:24Z</time>
      </trkpt>
      <trkpt lat="43.40393" lon="-0.38792">
        <ele>230.582</ele>
        <time>2011-05-29T09:13:31Z</time>
      </trkpt>
      <trkpt lat="43.40384" lon="-0.38783">
        <ele>230.823</ele>
        <time>2011-05-29T09:13:34Z</time>
      </trkpt>
      <trkpt lat="43.40371" lon="-0.38796">
        <ele>230.646</ele>
        <time>2011-05-29T09:13:40Z</time>
      </trkpt>
      <trkpt lat="43.40367" lon="-0.38804">
        <ele>230.421</ele>
        <time>2011-05-29T09:13:42Z</time>
      </trkpt>
      <trkpt lat="43.40349" lon="-0.38816">
        <ele>228.399</ele>
        <time>2011-05-29T09:13:47Z</time>
      </trkpt>
      <trkpt lat="43.40333" lon="-0.38804">
        <ele>225.827</ele>
        <time>2011-05-29T09:13:51Z</time>
      </trkpt>
      <trkpt lat="43.40315" lon="-0.38796">
        <ele>224.177</ele>
        <time>2011-05-29T09:13:55Z</time>
      </trkpt>
      <trkpt lat="43.40305" lon="-0.38786">
        <ele>223.71</ele>
        <time>2011-05-29T09:13:58Z</time>
      </trkpt>
      <trkpt lat="43.40296" lon="-0.38777">
        <ele>223.674</ele>
        <time>2011-05-29T09:14:01Z</time>
      </trkpt>
      <trkpt lat="43.40275" lon="-0.38783">
        <ele>223.491</ele>
        <time>2011-05-29T09:14:06Z</time>
      </trkpt>
      <trkpt lat="43.40263" lon="-0.38788">
        <ele>222.842</ele>
        <time>2011-05-29T09:14:08Z</time>
      </trkpt>
      <trkpt lat="43.40241" lon="-0.38784">
        <ele>221.085</ele>
        <time>2011-05-29T09:14:12Z</time>
      </trkpt>
      <trkpt lat="43.40229" lon="-0.38767">
        <ele>220.358</ele>
        <time>2011-05-29T09:14:15Z</time>
      </trkpt>
      <trkpt lat="43.40211" lon="-0.38735">
        <ele>220.612</ele>
        <time>2011-05-29T09:14:22Z</time>
      </trkpt>
      <trkpt lat="43.40196" lon="-0.38713">
        <ele>220.306</ele>
        <time>2011-05-29T09:14:27Z</time>
      </trkpt>
      <trkpt lat="43.40176" lon="-0.38683">
        <ele>219.06</ele>
        <time>2011-05-29T09:14:32Z</time>
      </trkpt>
      <trkpt lat="43.4017" lon="-0.38659">
        <ele>216.196</ele>
        <time>2011-05-29T09:14:36Z</time>
      </trkpt>
      <trkpt lat="43.40169" lon="-0.38653">
        <ele>215.529</ele>
        <time>2011-05-29T09:14:37Z</time>
      </trkpt>
      <trkpt lat="43.40163" lon="-0.38607">
        <ele>210.98</ele>
        <time>2011-05-29T09:14:42Z</time>
      </trkpt>
      <trkpt lat="43.40155" lon="-0.38555">
        <ele>206.393</ele>
        <time>2011-05-29T09:14:46Z</time>
      </trkpt>
      <trkpt lat="43.40151" lon="-0.38541">
        <ele>204.245</ele>
        <time>2011-05-29T09:14:48Z</time>
      </trkpt>
      <trkpt lat="43.40141" lon="-0.38537">
        <ele>202.758</ele>
        <time>2011-05-29T09:14:51Z</time>
      </trkpt>
      <trkpt lat="43.40128" lon="-0.38535">
        <ele>201.39</ele>
        <time>2011-05-29T09:14:54Z</time>
      </trkpt>
      <trkpt lat="43.40111" lon="-0.38534">
        <ele>200.773</ele>
        <time>2011-05-29T09:14:57Z</time>
      </trkpt>
      <trkpt lat="43.40083" lon="-0.38527">
        <ele>200.092</ele>
        <time>2011-05-29T09:15:02Z</time>
      </trkpt>
      <trkpt lat="43.40049" lon="-0.38514">
        <ele>199.288</ele>
        <time>2011-05-29T09:15:08Z</time>
      </trkpt>
      <trkpt lat="43.40018" lon="-0.38506">
        <ele>198.072</ele>
        <time>2011-05-29T09:15:13Z</time>
      </trkpt>
      <trkpt lat="43.39998" lon="-0.38513">
        <ele>197.29</ele>
        <time>2011-05-29T09:15:17Z</time>
      </trkpt>
      <trkpt lat="43.39991" lon="-0.38519">
        <ele>196.921</ele>
        <time>2011-05-29T09:15:19Z</time>
      </trkpt>
      <trkpt lat="43.3998" lon="-0.38507">
        <ele>196.177</ele>
        <time>2011-05-29T09:15:23Z</time>
      </trkpt>
      <trkpt lat="43.39963" lon="-0.3848">
        <ele>195.832</ele>
        <time>2011-05-29T09:15:28Z</time>
      </trkpt>
      <trkpt lat="43.39945" lon="-0.38466">
        <ele>195.418</ele>
        <time>2011-05-29T09:15:33Z</time>
      </trkpt>
      <trkpt lat="43.39942" lon="-0.38464">
        <ele>195.314</ele>
        <time>2011-05-29T09:15:34Z</time>
      </trkpt>
      <trkpt lat="43.39924" lon="-0.38475">
        <ele>194.765</ele>
        <time>2011-05-29T09:15:39Z</time>
      </trkpt>
      <trkpt lat="43.39905" lon="-0.38496">
        <ele>194.278</ele>
        <time>2011-05-29T09:15:44Z</time>
      </trkpt>
      <trkpt lat="43.39878" lon="-0.38525">
        <ele>193.643</ele>
        <time>2011-05-29T09:15:50Z</time>
      </trkpt>
      <trkpt lat="43.39858" lon="-0.38546">
        <ele>193.433</ele>
        <time>2011-05-29T09:15:54Z</time>
      </trkpt>
      <trkpt lat="43.39829" lon="-0.38571">
        <ele>192.809</ele>
        <time>2011-05-29T09:16:00Z</time>
      </trkpt>
      <trkpt lat="43.39801" lon="-0.3859">
        <ele>192.302</ele>
        <time>2011-05-29T09:16:06Z</time>
      </trkpt>
      <trkpt lat="43.39758" lon="-0.38624">
        <ele>191.977</ele>
        <time>2011-05-29T09:16:14Z</time>
      </trkpt>
      <trkpt lat="43.39709" lon="-0.3867">
        <ele>191.495</ele>
        <time>2011-05-29T09:16:23Z</time>
      </trkpt>
      <trkpt lat="43.39673" lon="-0.38696">
        <ele>191.25</ele>
        <time>2011-05-29T09:16:29Z</time>
      </trkpt>
      <trkpt lat="43.39627" lon="-0.38718">
        <ele>190.558</ele>
        <time>2011-05-29T09:16:36Z</time>
      </trkpt>
      <trkpt lat="43.39613" lon="-0.38725">
        <ele>190.203</ele>
        <time>2011-05-29T09:16:38Z</time>
      </trkpt>
      <trkpt lat="43.39595" lon="-0.38744">
        <ele>189.34</ele>
        <time>2011-05-29T09:16:42Z</time>
      </trkpt>
      <trkpt lat="43.3958" lon="-0.38767">
        <ele>188.074</ele>
        <time>2011-05-29T09:16:47Z</time>
      </trkpt>
      <trkpt lat="43.39571" lon="-0.38778">
        <ele>187.661</ele>
        <time>2011-05-29T09:16:49Z</time>
      </trkpt>
      <trkpt lat="43.39552" lon="-0.38811">
        <ele>187.565</ele>
        <time>2011-05-29T09:16:54Z</time>
      </trkpt>
      <trkpt lat="43.39525" lon="-0.38849">
        <ele>187.495</ele>
        <time>2011-05-29T09:17:00Z</time>
      </trkpt>
      <trkpt lat="43.39477" lon="-0.38885">
        <ele>186.285</ele>
        <time>2011-05-29T09:17:08Z</time>
      </trkpt>
      <trkpt lat="43.39436" lon="-0.38921">
        <ele>186.54</ele>
        <time>2011-05-29T09:17:16Z</time>
      </trkpt>
      <trkpt lat="43.3942" lon="-0.38956">
        <ele>186.579</ele>
        <time>2011-05-29T09:17:21Z</time>
      </trkpt>
      <trkpt lat="43.39403" lon="-0.39021">
        <ele>186.268</ele>
        <time>2011-05-29T09:17:29Z</time>
      </trkpt>
      <trkpt lat="43.39399" lon="-0.39035">
        <ele>185.862</ele>
        <time>2011-05-29T09:17:32Z</time>
      </trkpt>
      <trkpt lat="43.39395" lon="-0.39029">
        <ele>185.422</ele>
        <time>2011-05-29T09:17:36Z</time>
      </trkpt>
      <trkpt lat="43.39391" lon="-0.3902">
        <ele>185.377</ele>
        <time>2011-05-29T09:17:39Z</time>
      </trkpt>
      <trkpt lat="43.39385" lon="-0.39023">
        <ele>185.421</ele>
        <time>2011-05-29T09:17:42Z</time>
      </trkpt>
      <trkpt lat="43.39367" lon="-0.39043">
        <ele>185.484</ele>
        <time>2011-05-29T09:17:48Z</time>
      </trkpt>
      <trkpt lat="43.39364" lon="-0.39047">
        <ele>185.479</ele>
        <time>2011-05-29T09:17:49Z</time>
      </trkpt>
      <trkpt lat="43.39341" lon="-0.39056">
        <ele>185.582</ele>
        <time>2011-05-29T09:17:54Z</time>
      </trkpt>
      <trkpt lat="43.39312" lon="-0.39047">
        <ele>185.983</ele>
        <time>2011-05-29T09:18:00Z</time>
      </trkpt>
      <trkpt lat="43.39298" lon="-0.39039">
        <ele>186.232</ele>
        <time>2011-05-29T09:18:03Z</time>
      </trkpt>
      <trkpt lat="43.39282" lon="-0.39024">
        <ele>186.407</ele>
        <time>2011-05-29T09:18:07Z</time>
      </trkpt>
      <trkpt lat="43.39266" lon="-0.38993">
        <ele>186.505</ele>
        <time>2011-05-29T09:18:13Z</time>
      </trkpt>
      <trkpt lat="43.39269" lon="-0.38976">
        <ele>186.649</ele>
        <time>2011-05-29T09:18:16Z</time>
      </trkpt>
      <trkpt lat="43.39268" lon="-0.38967">
        <ele>186.335</ele>
        <time>2011-05-29T09:18:19Z</time>
      </trkpt>
      <trkpt lat="43.39264" lon="-0.38966">
        <ele>186.151</ele>
        <time>2011-05-29T09:18:20Z</time>
      </trkpt>
      <trkpt lat="43.39228" lon="-0.38963">
        <ele>185.025</ele>
        <time>2011-05-29T09:18:27Z</time>
      </trkpt>
      <trkpt lat="43.39206" lon="-0.38951">
        <ele>185.259</ele>
        <time>2011-05-29T09:18:32Z</time>
      </trkpt>
      <trkpt lat="43.39204" lon="-0.38945">
        <ele>185.365</ele>
        <time>2011-05-29T09:18:33Z</time>
      </trkpt>
      <trkpt lat="43.39205" lon="-0.38908">
        <ele>186.038</ele>
        <time>2011-05-29T09:18:39Z</time>
      </trkpt>
      <trkpt lat="43.39208" lon="-0.38903">
        <ele>186.168</ele>
        <time>2011-05-29T09:18:40Z</time>
      </trkpt>
      <trkpt lat="43.39228" lon="-0.38858">
        <ele>186.843</ele>
        <time>2011-05-29T09:18:48Z</time>
      </trkpt>
      <trkpt lat="43.39242" lon="-0.38829">
        <ele>187.219</ele>
        <time>2011-05-29T09:18:53Z</time>
      </trkpt>
      <trkpt lat="43.39257" lon="-0.38797">
        <ele>187.817</ele>
        <time>2011-05-29T09:18:59Z</time>
      </trkpt>
      <trkpt lat="43.39266" lon="-0.38778">
        <ele>189.366</ele>
        <time>2011-05-29T09:19:04Z</time>
      </trkpt>
      <trkpt lat="43.39275" lon="-0.38757">
        <ele>191.1</ele>
        <time>2011-05-29T09:19:10Z</time>
      </trkpt>
      <trkpt lat="43.39289" lon="-0.38731">
        <ele>191.49</ele>
        <time>2011-05-29T09:19:17Z</time>
      </trkpt>
      <trkpt lat="43.39294" lon="-0.38724">
        <ele>191.625</ele>
        <time>2011-05-29T09:19:19Z</time>
      </trkpt>
      <trkpt lat="43.3929" lon="-0.38713">
        <ele>191.687</ele>
        <time>2011-05-29T09:19:23Z</time>
      </trkpt>
      <trkpt lat="43.39284" lon="-0.38709">
        <ele>191.639</ele>
        <time>2011-05-29T09:19:25Z</time>
      </trkpt>
      <trkpt lat="43.39259" lon="-0.3869">
        <ele>191.552</ele>
        <time>2011-05-29T09:19:32Z</time>
      </trkpt>
      <trkpt lat="43.39224" lon="-0.38663">
        <ele>192.201</ele>
        <time>2011-05-29T09:19:41Z</time>
      </trkpt>
      <trkpt lat="43.39187" lon="-0.3863">
        <ele>192.525</ele>
        <time>2011-05-29T09:19:50Z</time>
      </trkpt>
      <trkpt lat="43.39182" lon="-0.38626">
        <ele>192.485</ele>
        <time>2011-05-29T09:19:51Z</time>
      </trkpt>
      <trkpt lat="43.39156" lon="-0.38596">
        <ele>192.695</ele>
        <time>2011-05-29T09:19:57Z</time>
      </trkpt>
      <trkpt lat="43.3913" lon="-0.38562">
        <ele>193.486</ele>
        <time>2011-05-29T09:20:04Z</time>
      </trkpt>
      <trkpt lat="43.39104" lon="-0.38527">
        <ele>193.595</ele>
        <time>2011-05-29T09:20:11Z</time>
      </trkpt>
      <trkpt lat="43.39082" lon="-0.38478">
        <ele>193.475</ele>
        <time>2011-05-29T09:20:19Z</time>
      </trkpt>
      <trkpt lat="43.39068" lon="-0.3843">
        <ele>193.376</ele>
        <time>2011-05-29T09:20:26Z</time>
      </trkpt>
      <trkpt lat="43.39051" lon="-0.38377">
        <ele>193.587</ele>
        <time>2011-05-29T09:20:34Z</time>
      </trkpt>
      <trkpt lat="43.39049" lon="-0.38371">
        <ele>193.642</ele>
        <time>2011-05-29T09:20:35Z</time>
      </trkpt>
      <trkpt lat="43.39049" lon="-0.38344">
        <ele>193.837</ele>
        <time>2011-05-29T09:20:39Z</time>
      </trkpt>
      <trkpt lat="43.39053" lon="-0.38324">
        <ele>194.173</ele>
        <time>2011-05-29T09:20:42Z</time>
      </trkpt>
      <trkpt lat="43.39047" lon="-0.38301">
        <ele>194.596</ele>
        <time>2011-05-29T09:20:46Z</time>
      </trkpt>
      <trkpt lat="43.39005" lon="-0.38246">
        <ele>195.456</ele>
        <time>2011-05-29T09:20:57Z</time>
      </trkpt>
      <trkpt lat="43.38974" lon="-0.38223">
        <ele>194.902</ele>
        <time>2011-05-29T09:21:03Z</time>
      </trkpt>
      <trkpt lat="43.38963" lon="-0.38219">
        <ele>194.77</ele>
        <time>2011-05-29T09:21:05Z</time>
      </trkpt>
      <trkpt lat="43.38912" lon="-0.38216">
        <ele>194.42</ele>
        <time>2011-05-29T09:21:14Z</time>
      </trkpt>
      <trkpt lat="43.389" lon="-0.38221">
        <ele>194.32</ele>
        <time>2011-05-29T09:21:17Z</time>
      </trkpt>
      <trkpt lat="43.38877" lon="-0.38236">
        <ele>194.533</ele>
        <time>2011-05-29T09:21:23Z</time>
      </trkpt>
      <trkpt lat="43.38864" lon="-0.3824">
        <ele>194.755</ele>
        <time>2011-05-29T09:21:27Z</time>
      </trkpt>
      <trkpt lat="43.38857" lon="-0.38248">
        <ele>194.819</ele>
        <time>2011-05-29T09:21:29Z</time>
      </trkpt>
      <trkpt lat="43.3882" lon="-0.38275">
        <ele>194.989</ele>
        <time>2011-05-29T09:21:37Z</time>
      </trkpt>
      <trkpt lat="43.38772" lon="-0.38309">
        <ele>196.827</ele>
        <time>2011-05-29T09:21:47Z</time>
      </trkpt>
      <trkpt lat="43.38742" lon="-0.3832">
        <ele>196.006</ele>
        <time>2011-05-29T09:21:52Z</time>
      </trkpt>
      <trkpt lat="43.38703" lon="-0.38322">
        <ele>194.214</ele>
        <time>2011-05-29T09:21:57Z</time>
      </trkpt>
      <trkpt lat="43.38654" lon="-0.38322">
        <ele>192.181</ele>
        <time>2011-05-29T09:22:03Z</time>
      </trkpt>
      <trkpt lat="43.38616" lon="-0.38314">
        <ele>192.047</ele>
        <time>2011-05-29T09:22:08Z</time>
      </trkpt>
      <trkpt lat="43.38547" lon="-0.38296">
        <ele>190.984</ele>
        <time>2011-05-29T09:22:18Z</time>
      </trkpt>
      <trkpt lat="43.38493" lon="-0.38286">
        <ele>190.938</ele>
        <time>2011-05-29T09:22:26Z</time>
      </trkpt>
      <trkpt lat="43.38487" lon="-0.38284">
        <ele>191.091</ele>
        <time>2011-05-29T09:22:27Z</time>
      </trkpt>
      <trkpt lat="43.38466" lon="-0.38284">
        <ele>191.568</ele>
        <time>2011-05-29T09:22:30Z</time>
      </trkpt>
      <trkpt lat="43.38434" lon="-0.38301">
        <ele>191.996</ele>
        <time>2011-05-29T09:22:35Z</time>
      </trkpt>
      <trkpt lat="43.38384" lon="-0.38339">
        <ele>191.088</ele>
        <time>2011-05-29T09:22:43Z</time>
      </trkpt>
      <trkpt lat="43.38337" lon="-0.38368">
        <ele>192.007</ele>
        <time>2011-05-29T09:22:51Z</time>
      </trkpt>
      <trkpt lat="43.38292" lon="-0.38378">
        <ele>193.964</ele>
        <time>2011-05-29T09:22:59Z</time>
      </trkpt>
      <trkpt lat="43.3823" lon="-0.38388">
        <ele>195.782</ele>
        <time>2011-05-29T09:23:10Z</time>
      </trkpt>
      <trkpt lat="43.38193" lon="-0.38395">
        <ele>196.294</ele>
        <time>2011-05-29T09:23:17Z</time>
      </trkpt>
      <trkpt lat="43.38146" lon="-0.38403">
        <ele>196.336</ele>
        <time>2011-05-29T09:23:26Z</time>
      </trkpt>
      <trkpt lat="43.38093" lon="-0.38413">
        <ele>197.102</ele>
        <time>2011-05-29T09:23:37Z</time>
      </trkpt>
      <trkpt lat="43.38046" lon="-0.3842">
        <ele>197.63</ele>
        <time>2011-05-29T09:23:47Z</time>
      </trkpt>
      <trkpt lat="43.3801" lon="-0.38427">
        <ele>198.574</ele>
        <time>2011-05-29T09:23:55Z</time>
      </trkpt>
      <trkpt lat="43.37978" lon="-0.38434">
        <ele>199.194</ele>
        <time>2011-05-29T09:24:03Z</time>
      </trkpt>
      <trkpt lat="43.37977" lon="-0.38435">
        <ele>199.242</ele>
        <time>2011-05-29T09:24:05Z</time>
      </trkpt>
      <trkpt lat="43.37968" lon="-0.38431">
        <ele>199.271</ele>
        <time>2011-05-29T09:24:09Z</time>
      </trkpt>
      <trkpt lat="43.37963" lon="-0.38424">
        <ele>199.479</ele>
        <time>2011-05-29T09:24:11Z</time>
      </trkpt>
      <trkpt lat="43.37935" lon="-0.38374">
        <ele>200.262</ele>
        <time>2011-05-29T09:24:21Z</time>
      </trkpt>
      <trkpt lat="43.37915" lon="-0.38336">
        <ele>200.522</ele>
        <time>2011-05-29T09:24:28Z</time>
      </trkpt>
      <trkpt lat="43.37906" lon="-0.38319">
        <ele>200.549</ele>
        <time>2011-05-29T09:24:31Z</time>
      </trkpt>
      <trkpt lat="43.37872" lon="-0.38259">
        <ele>200.577</ele>
        <time>2011-05-29T09:24:41Z</time>
      </trkpt>
      <trkpt lat="43.37839" lon="-0.382">
        <ele>201.165</ele>
        <time>2011-05-29T09:24:51Z</time>
      </trkpt>
      <trkpt lat="43.37808" lon="-0.38151">
        <ele>201.751</ele>
        <time>2011-05-29T09:25:00Z</time>
      </trkpt>
      <trkpt lat="43.37781" lon="-0.38101">
        <ele>201.396</ele>
        <time>2011-05-29T09:25:08Z</time>
      </trkpt>
      <trkpt lat="43.37767" lon="-0.3807">
        <ele>201.191</ele>
        <time>2011-05-29T09:25:13Z</time>
      </trkpt>
      <trkpt lat="43.37761" lon="-0.38058">
        <ele>201.267</ele>
        <time>2011-05-29T09:25:15Z</time>
      </trkpt>
      <trkpt lat="43.37753" lon="-0.38036">
        <ele>201.372</ele>
        <time>2011-05-29T09:25:18Z</time>
      </trkpt>
      <trkpt lat="43.37752" lon="-0.38013">
        <ele>201.479</ele>
        <time>2011-05-29T09:25:21Z</time>
      </trkpt>
      <trkpt lat="43.37755" lon="-0.38006">
        <ele>201.553</ele>
        <time>2011-05-29T09:25:22Z</time>
      </trkpt>
      <trkpt lat="43.37777" lon="-0.3796">
        <ele>201.254</ele>
        <time>2011-05-29T09:25:28Z</time>
      </trkpt>
      <trkpt lat="43.37807" lon="-0.37899">
        <ele>199.996</ele>
        <time>2011-05-29T09:25:36Z</time>
      </trkpt>
      <trkpt lat="43.37831" lon="-0.37851">
        <ele>198.736</ele>
        <time>2011-05-29T09:25:42Z</time>
      </trkpt>
      <trkpt lat="43.37839" lon="-0.37835">
        <ele>198.224</ele>
        <time>2011-05-29T09:25:44Z</time>
      </trkpt>
      <trkpt lat="43.37876" lon="-0.3778">
        <ele>197.255</ele>
        <time>2011-05-29T09:25:52Z</time>
      </trkpt>
      <trkpt lat="43.37905" lon="-0.3775">
        <ele>196.271</ele>
        <time>2011-05-29T09:25:58Z</time>
      </trkpt>
      <trkpt lat="43.37923" lon="-0.37733">
        <ele>195.833</ele>
        <time>2011-05-29T09:26:02Z</time>
      </trkpt>
      <trkpt lat="43.37931" lon="-0.37712">
        <ele>195.327</ele>
        <time>2011-05-29T09:26:06Z</time>
      </trkpt>
      <trkpt lat="43.37934" lon="-0.3769">
        <ele>194.858</ele>
        <time>2011-05-29T09:26:09Z</time>
      </trkpt>
      <trkpt lat="43.37944" lon="-0.3767">
        <ele>194.584</ele>
        <time>2011-05-29T09:26:12Z</time>
      </trkpt>
      <trkpt lat="43.37946" lon="-0.37643">
        <ele>194.725</ele>
        <time>2011-05-29T09:26:16Z</time>
      </trkpt>
      <trkpt lat="43.37939" lon="-0.37623">
        <ele>195.15</ele>
        <time>2011-05-29T09:26:21Z</time>
      </trkpt>
      <trkpt lat="43.37937" lon="-0.37622">
        <ele>195.189</ele>
        <time>2011-05-29T09:26:22Z</time>
      </trkpt>
      <trkpt lat="43.37929" lon="-0.37627">
        <ele>194.852</ele>
        <time>2011-05-29T09:26:27Z</time>
      </trkpt>
      <trkpt lat="43.37928" lon="-0.37628">
        <ele>193.892</ele>
        <time>2011-05-29T09:26:36Z</time>
      </trkpt>
      <trkpt lat="43.37927" lon="-0.37628">
        <ele>193.909</ele>
        <time>2011-05-29T09:26:41Z</time>
      </trkpt>
      <trkpt lat="43.37927" lon="-0.37627">
        <ele>193.764</ele>
        <time>2011-05-29T09:26:50Z</time>
      </trkpt>
      <trkpt lat="43.37927" lon="-0.37626">
        <ele>193.895</ele>
        <time>2011-05-29T09:27:00Z</time>
      </trkpt>
      <trkpt lat="43.37926" lon="-0.37626">
        <ele>193.85</ele>
        <time>2011-05-29T09:27:05Z</time>
      </trkpt>
      <trkpt lat="43.37927" lon="-0.37626">
        <ele>193.92</ele>
        <time>2011-05-29T09:27:34Z</time>
      </trkpt>
      <trkpt lat="43.37927" lon="-0.37626">
        <ele>193.874</ele>
        <time>2011-05-29T09:27:36Z</time>
      </trkpt>
      <trkpt lat="43.37927" lon="-0.37626">
        <ele>193.858</ele>
        <time>2011-05-29T09:27:37Z</time>
      </trkpt>
      <trkpt lat="43.37926" lon="-0.37627">
        <ele>193.949</ele>
        <time>2011-05-29T09:27:49Z</time>
      </trkpt>
      <trkpt lat="43.37926" lon="-0.37628">
        <ele>194.063</ele>
        <time>2011-05-29T09:28:09Z</time>
      </trkpt>
      <trkpt lat="43.37926" lon="-0.37628">
        <ele>194.188</ele>
        <time>2011-05-29T09:28:16Z</time>
      </trkpt>
      <trkpt lat="43.37926" lon="-0.37628">
        <ele>194.131</ele>
        <time>2011-05-29T09:28:24Z</time>
      </trkpt>
      <trkpt lat="43.37926" lon="-0.37628">
        <ele>193.928</ele>
        <time>2011-05-29T09:28:31Z</time>
      </trkpt>
      <trkpt lat="43.37926" lon="-0.37628">
        <ele>193.915</ele>
        <time>2011-05-29T09:28:33Z</time>
      </trkpt>
      <trkpt lat="43.37926" lon="-0.37628">
        <ele>193.866</ele>
        <time>2011-05-29T09:28:34Z</time>
      </trkpt>
      <trkpt lat="43.37926" lon="-0.37628">
        <ele>193.777</ele>
        <time>2011-05-29T09:28:45Z</time>
      </trkpt>
      <trkpt lat="43.37926" lon="-0.37628">
        <ele>193.706</ele>
        <time>2011-05-29T09:28:47Z</time>
      </trkpt>
      <trkpt lat="43.37926" lon="-0.37628">
        <ele>193.64</ele>
        <time>2011-05-29T09:28:48Z</time>
      </trkpt>
      <trkpt lat="43.37926" lon="-0.37628">
        <ele>193.624</ele>
        <time>2011-05-29T09:28:49Z</time>
      </trkpt>
      <trkpt lat="43.37927" lon="-0.37628">
        <ele>193.793</ele>
        <time>2011-05-29T09:29:03Z</time>
      </trkpt>
      <trkpt lat="43.37927" lon="-0.37628">
        <ele>193.693</ele>
        <time>2011-05-29T09:29:06Z</time>
      </trkpt>
      <trkpt lat="43.37927" lon="-0.37628">
        <ele>193.617</ele>
        <time>2011-05-29T09:29:12Z</time>
      </trkpt>
      <trkpt lat="43.37927" lon="-0.37628">
        <ele>193.531</ele>
        <time>2011-05-29T09:29:16Z</time>
      </trkpt>
      <trkpt lat="43.37927" lon="-0.37628">
        <ele>193.579</ele>
        <time>2011-05-29T09:29:21Z</time>
      </trkpt>
      <trkpt lat="43.37927" lon="-0.37628">
        <ele>193.743</ele>
        <time>2011-05-29T09:29:25Z</time>
      </trkpt>
      <trkpt lat="43.37927" lon="-0.37628">
        <ele>193.844</ele>
        <time>2011-05-29T09:29:27Z</time>
      </trkpt>
      <trkpt lat="43.37928" lon="-0.37628">
        <ele>193.657</ele>
        <time>2011-05-29T09:29:37Z</time>
      </trkpt>
      <trkpt lat="43.37928" lon="-0.37628">
        <ele>193.658</ele>
        <time>2011-05-29T09:29:44Z</time>
      </trkpt>
      <trkpt lat="43.37928" lon="-0.37628">
        <ele>193.68</ele>
        <time>2011-05-29T09:29:45Z</time>
      </trkpt>
      <trkpt lat="43.37929" lon="-0.37627">
        <ele>194.558</ele>
        <time>2011-05-29T09:29:52Z</time>
      </trkpt>
      <trkpt lat="43.3793" lon="-0.37628">
        <ele>194.779</ele>
        <time>2011-05-29T09:29:56Z</time>
      </trkpt>
    </trkseg>
  </trk>
  <trk>
    <name><![CDATA[Site VTT-FFC des Pyrénées béarnaises - Entre Gaves et Joos - 27829 - UtagawaVTT.com]]></name>
    <trkseg>
      <trkpt lat="43.18619" lon="-0.64954">
        <ele>214.283157</ele>
      </trkpt>
      <trkpt lat="43.1864" lon="-0.64946">
        <ele>213.860703</ele>
      </trkpt>
      <trkpt lat="43.18652" lon="-0.64934">
        <ele>213.987534</ele>
      </trkpt>
      <trkpt lat="43.18657" lon="-0.64913">
        <ele>214.869766</ele>
      </trkpt>
      <trkpt lat="43.18689" lon="-0.64857">
        <ele>218.028412</ele>
      </trkpt>
      <trkpt lat="43.1872" lon="-0.64811">
        <ele>219.634369</ele>
      </trkpt>
      <trkpt lat="43.18749" lon="-0.64774">
        <ele>219.959076</ele>
      </trkpt>
      <trkpt lat="43.18778" lon="-0.64731">
        <ele>220</ele>
      </trkpt>
      <trkpt lat="43.18801" lon="-0.64712">
        <ele>220</ele>
      </trkpt>
      <trkpt lat="43.18818" lon="-0.64701">
        <ele>219.826645</ele>
      </trkpt>
      <trkpt lat="43.18836" lon="-0.647">
        <ele>219.646805</ele>
      </trkpt>
      <trkpt lat="43.18856" lon="-0.64697">
        <ele>219.711685</ele>
      </trkpt>
      <trkpt lat="43.18879" lon="-0.64699">
        <ele>219.99263</ele>
      </trkpt>
      <trkpt lat="43.18905" lon="-0.64697">
        <ele>220.444946</ele>
      </trkpt>
      <trkpt lat="43.18917" lon="-0.64681">
        <ele>221.310532</ele>
      </trkpt>
      <trkpt lat="43.18936" lon="-0.64632">
        <ele>223.339996</ele>
      </trkpt>
      <trkpt lat="43.18953" lon="-0.646">
        <ele>224.463608</ele>
      </trkpt>
      <trkpt lat="43.18982" lon="-0.64635">
        <ele>224.350006</ele>
      </trkpt>
      <trkpt lat="43.19039" lon="-0.64693">
        <ele>224.051254</ele>
      </trkpt>
      <trkpt lat="43.19195" lon="-0.64825">
        <ele>223.798126</ele>
      </trkpt>
      <trkpt lat="43.19228" lon="-0.64848">
        <ele>223.205017</ele>
      </trkpt>
      <trkpt lat="43.19258" lon="-0.64864">
        <ele>222.777496</ele>
      </trkpt>
      <trkpt lat="43.19326" lon="-0.64897">
        <ele>220.731247</ele>
      </trkpt>
      <trkpt lat="43.19378" lon="-0.6492">
        <ele>218.875</ele>
      </trkpt>
      <trkpt lat="43.19426" lon="-0.64935">
        <ele>217.200623</ele>
      </trkpt>
      <trkpt lat="43.19517" lon="-0.64952">
        <ele>215.960251</ele>
      </trkpt>
      <trkpt lat="43.19558" lon="-0.64964">
        <ele>214.892502</ele>
      </trkpt>
      <trkpt lat="43.19578" lon="-0.64981">
        <ele>214.586868</ele>
      </trkpt>
      <trkpt lat="43.19588" lon="-0.65006">
        <ele>214.1875</ele>
      </trkpt>
      <trkpt lat="43.19589" lon="-0.65037">
        <ele>213.782562</ele>
      </trkpt>
      <trkpt lat="43.19589" lon="-0.65086">
        <ele>213.2444</ele>
      </trkpt>
      <trkpt lat="43.1958" lon="-0.65232">
        <ele>211.50563</ele>
      </trkpt>
      <trkpt lat="43.19579" lon="-0.6527">
        <ele>210.959213</ele>
      </trkpt>
      <trkpt lat="43.19583" lon="-0.6531">
        <ele>210.789108</ele>
      </trkpt>
      <trkpt lat="43.19586" lon="-0.65334">
        <ele>210.658127</ele>
      </trkpt>
      <trkpt lat="43.19589" lon="-0.65367">
        <ele>210.215622</ele>
      </trkpt>
      <trkpt lat="43.19605" lon="-0.65371">
        <ele>210.194321</ele>
      </trkpt>
      <trkpt lat="43.19668" lon="-0.65407">
        <ele>209.729996</ele>
      </trkpt>
      <trkpt lat="43.19753" lon="-0.6546">
        <ele>207.967377</ele>
      </trkpt>
      <trkpt lat="43.19779" lon="-0.65477">
        <ele>207.476257</ele>
      </trkpt>
      <trkpt lat="43.19788" lon="-0.6548">
        <ele>207.243134</ele>
      </trkpt>
      <trkpt lat="43.19805" lon="-0.65489">
        <ele>206.718124</ele>
      </trkpt>
      <trkpt lat="43.19917" lon="-0.65566">
        <ele>203.798203</ele>
      </trkpt>
      <trkpt lat="43.19992" lon="-0.65611">
        <ele>202.664413</ele>
      </trkpt>
      <trkpt lat="43.20021" lon="-0.65624">
        <ele>202.163345</ele>
      </trkpt>
      <trkpt lat="43.20069" lon="-0.65637">
        <ele>201.50679</ele>
      </trkpt>
      <trkpt lat="43.20106" lon="-0.65652">
        <ele>200.535629</ele>
      </trkpt>
      <trkpt lat="43.20123" lon="-0.65651">
        <ele>200.195007</ele>
      </trkpt>
      <trkpt lat="43.2014" lon="-0.6564">
        <ele>200.126373</ele>
      </trkpt>
      <trkpt lat="43.20223" lon="-0.6557">
        <ele>200.548126</ele>
      </trkpt>
      <trkpt lat="43.20237" lon="-0.65562">
        <ele>200.691254</ele>
      </trkpt>
      <trkpt lat="43.20244" lon="-0.65561">
        <ele>200.716248</ele>
      </trkpt>
      <trkpt lat="43.20254" lon="-0.65561">
        <ele>200.714371</ele>
      </trkpt>
      <trkpt lat="43.20312" lon="-0.65522">
        <ele>201.437729</ele>
      </trkpt>
      <trkpt lat="43.20343" lon="-0.65499">
        <ele>202.417709</ele>
      </trkpt>
      <trkpt lat="43.20375" lon="-0.65479">
        <ele>203.156876</ele>
      </trkpt>
      <trkpt lat="43.20393" lon="-0.65474">
        <ele>203.259369</ele>
      </trkpt>
      <trkpt lat="43.20472" lon="-0.65461">
        <ele>203.841705</ele>
      </trkpt>
      <trkpt lat="43.20561" lon="-0.65454">
        <ele>205.143692</ele>
      </trkpt>
      <trkpt lat="43.20591" lon="-0.65454">
        <ele>205.565506</ele>
      </trkpt>
      <trkpt lat="43.20609" lon="-0.65457">
        <ele>205.613388</ele>
      </trkpt>
      <trkpt lat="43.20638" lon="-0.65468">
        <ele>205.858749</ele>
      </trkpt>
      <trkpt lat="43.20659" lon="-0.6548">
        <ele>206.162506</ele>
      </trkpt>
      <trkpt lat="43.20713" lon="-0.65507">
        <ele>205.994995</ele>
      </trkpt>
      <trkpt lat="43.20765" lon="-0.65521">
        <ele>205.830505</ele>
      </trkpt>
      <trkpt lat="43.20791" lon="-0.65531">
        <ele>205.913254</ele>
      </trkpt>
      <trkpt lat="43.20818" lon="-0.65544">
        <ele>206</ele>
      </trkpt>
      <trkpt lat="43.2085" lon="-0.65556">
        <ele>205.956726</ele>
      </trkpt>
      <trkpt lat="43.20878" lon="-0.65558">
        <ele>205.502563</ele>
      </trkpt>
      <trkpt lat="43.2089" lon="-0.65564">
        <ele>205.237213</ele>
      </trkpt>
      <trkpt lat="43.20909" lon="-0.65584">
        <ele>204.963913</ele>
      </trkpt>
      <trkpt lat="43.20957" lon="-0.65627">
        <ele>203.751877</ele>
      </trkpt>
      <trkpt lat="43.20983" lon="-0.65648">
        <ele>202.837646</ele>
      </trkpt>
      <trkpt lat="43.21007" lon="-0.65664">
        <ele>201.855301</ele>
      </trkpt>
      <trkpt lat="43.21009" lon="-0.65698">
        <ele>200.824615</ele>
      </trkpt>
      <trkpt lat="43.21017" lon="-0.65754">
        <ele>199.434998</ele>
      </trkpt>
      <trkpt lat="43.21022" lon="-0.65779">
        <ele>198.791153</ele>
      </trkpt>
      <trkpt lat="43.21029" lon="-0.65803">
        <ele>198.349747</ele>
      </trkpt>
      <trkpt lat="43.2105" lon="-0.65857">
        <ele>197.578751</ele>
      </trkpt>
      <trkpt lat="43.21096" lon="-0.65949">
        <ele>196.115631</ele>
      </trkpt>
      <trkpt lat="43.21099" lon="-0.65967">
        <ele>195.828751</ele>
      </trkpt>
      <trkpt lat="43.21111" lon="-0.65999">
        <ele>195.41835</ele>
      </trkpt>
      <trkpt lat="43.2111" lon="-0.66024">
        <ele>195.128876</ele>
      </trkpt>
      <trkpt lat="43.21111" lon="-0.66038">
        <ele>195.11763</ele>
      </trkpt>
      <trkpt lat="43.21127" lon="-0.66082">
        <ele>195</ele>
      </trkpt>
      <trkpt lat="43.21131" lon="-0.66106">
        <ele>195</ele>
      </trkpt>
      <trkpt lat="43.21157" lon="-0.66103">
        <ele>194.920135</ele>
      </trkpt>
      <trkpt lat="43.21168" lon="-0.66107">
        <ele>194.81073</ele>
      </trkpt>
      <trkpt lat="43.21175" lon="-0.66126">
        <ele>194.548462</ele>
      </trkpt>
      <trkpt lat="43.21174" lon="-0.66174">
        <ele>194.81813</ele>
      </trkpt>
      <trkpt lat="43.21168" lon="-0.66208">
        <ele>195.56813</ele>
      </trkpt>
      <trkpt lat="43.21166" lon="-0.66239">
        <ele>197.100006</ele>
      </trkpt>
      <trkpt lat="43.2118" lon="-0.66253">
        <ele>197.440628</ele>
      </trkpt>
      <trkpt lat="43.21193" lon="-0.6627">
        <ele>198.390244</ele>
      </trkpt>
      <trkpt lat="43.21201" lon="-0.66288">
        <ele>201.016724</ele>
      </trkpt>
      <trkpt lat="43.212" lon="-0.66303">
        <ele>202.78421</ele>
      </trkpt>
      <trkpt lat="43.21187" lon="-0.66319">
        <ele>203.863708</ele>
      </trkpt>
      <trkpt lat="43.21141" lon="-0.66352">
        <ele>209.264801</ele>
      </trkpt>
      <trkpt lat="43.21138" lon="-0.66359">
        <ele>210.148468</ele>
      </trkpt>
      <trkpt lat="43.21141" lon="-0.66363">
        <ele>210.723404</ele>
      </trkpt>
      <trkpt lat="43.21149" lon="-0.66368">
        <ele>211.509933</ele>
      </trkpt>
      <trkpt lat="43.21161" lon="-0.66369">
        <ele>212.015121</ele>
      </trkpt>
      <trkpt lat="43.21175" lon="-0.66367">
        <ele>212.017807</ele>
      </trkpt>
      <trkpt lat="43.21191" lon="-0.66359">
        <ele>211.324997</ele>
      </trkpt>
      <trkpt lat="43.212" lon="-0.66358">
        <ele>211.652496</ele>
      </trkpt>
      <trkpt lat="43.21208" lon="-0.6636">
        <ele>212.872498</ele>
      </trkpt>
      <trkpt lat="43.21232" lon="-0.66385">
        <ele>219.302872</ele>
      </trkpt>
      <trkpt lat="43.21265" lon="-0.66394">
        <ele>221.643402</ele>
      </trkpt>
      <trkpt lat="43.21302" lon="-0.66407">
        <ele>225.495468</ele>
      </trkpt>
      <trkpt lat="43.21351" lon="-0.66418">
        <ele>228.950867</ele>
      </trkpt>
      <trkpt lat="43.21364" lon="-0.66423">
        <ele>229.779373</ele>
      </trkpt>
      <trkpt lat="43.21374" lon="-0.66424">
        <ele>229.713043</ele>
      </trkpt>
      <trkpt lat="43.21381" lon="-0.66428">
        <ele>229.869995</ele>
      </trkpt>
      <trkpt lat="43.21386" lon="-0.6646">
        <ele>231.201248</ele>
      </trkpt>
      <trkpt lat="43.21394" lon="-0.66471">
        <ele>230.717331</ele>
      </trkpt>
      <trkpt lat="43.21403" lon="-0.66471">
        <ele>230.124512</ele>
      </trkpt>
      <trkpt lat="43.21431" lon="-0.66436">
        <ele>228.695175</ele>
      </trkpt>
      <trkpt lat="43.21447" lon="-0.6642">
        <ele>228.139786</ele>
      </trkpt>
      <trkpt lat="43.21486" lon="-0.66394">
        <ele>227.152802</ele>
      </trkpt>
      <trkpt lat="43.21494" lon="-0.66393">
        <ele>227.044144</ele>
      </trkpt>
      <trkpt lat="43.21508" lon="-0.66389">
        <ele>226.846329</ele>
      </trkpt>
      <trkpt lat="43.21545" lon="-0.6639">
        <ele>226.275085</ele>
      </trkpt>
      <trkpt lat="43.21553" lon="-0.66381">
        <ele>226.165344</ele>
      </trkpt>
      <trkpt lat="43.2156" lon="-0.66356">
        <ele>226.489548</ele>
      </trkpt>
      <trkpt lat="43.2157" lon="-0.66341">
        <ele>226.172562</ele>
      </trkpt>
      <trkpt lat="43.21586" lon="-0.66326">
        <ele>225.607498</ele>
      </trkpt>
      <trkpt lat="43.21598" lon="-0.66311">
        <ele>225.397903</ele>
      </trkpt>
      <trkpt lat="43.21622" lon="-0.66299">
        <ele>225.648758</ele>
      </trkpt>
      <trkpt lat="43.21645" lon="-0.6629">
        <ele>226.006546</ele>
      </trkpt>
      <trkpt lat="43.21665" lon="-0.66278">
        <ele>226.163834</ele>
      </trkpt>
      <trkpt lat="43.21691" lon="-0.66253">
        <ele>226.621872</ele>
      </trkpt>
      <trkpt lat="43.2171" lon="-0.66238">
        <ele>226.896027</ele>
      </trkpt>
      <trkpt lat="43.21791" lon="-0.66125">
        <ele>225.94426</ele>
      </trkpt>
      <trkpt lat="43.21813" lon="-0.66101">
        <ele>225.909653</ele>
      </trkpt>
      <trkpt lat="43.21857" lon="-0.66062">
        <ele>226</ele>
      </trkpt>
      <trkpt lat="43.21863" lon="-0.66059">
        <ele>226</ele>
      </trkpt>
      <trkpt lat="43.21889" lon="-0.66055">
        <ele>225.968445</ele>
      </trkpt>
      <trkpt lat="43.21912" lon="-0.6604">
        <ele>225.993256</ele>
      </trkpt>
      <trkpt lat="43.21915" lon="-0.66042">
        <ele>225.981888</ele>
      </trkpt>
      <trkpt lat="43.21926" lon="-0.66073">
        <ele>225.490631</ele>
      </trkpt>
      <trkpt lat="43.21974" lon="-0.66222">
        <ele>222</ele>
      </trkpt>
      <trkpt lat="43.22004" lon="-0.66291">
        <ele>221.937439</ele>
      </trkpt>
      <trkpt lat="43.22022" lon="-0.66337">
        <ele>221.847427</ele>
      </trkpt>
      <trkpt lat="43.2204" lon="-0.66378">
        <ele>221.90065</ele>
      </trkpt>
      <trkpt lat="43.22047" lon="-0.66405">
        <ele>221.394272</ele>
      </trkpt>
      <trkpt lat="43.22081" lon="-0.66501">
        <ele>220.972504</ele>
      </trkpt>
      <trkpt lat="43.22087" lon="-0.66522">
        <ele>220.817505</ele>
      </trkpt>
      <trkpt lat="43.22136" lon="-0.66655">
        <ele>219.973755</ele>
      </trkpt>
      <trkpt lat="43.2216" lon="-0.66715">
        <ele>219.970306</ele>
      </trkpt>
      <trkpt lat="43.22179" lon="-0.66749">
        <ele>219.250839</ele>
      </trkpt>
      <trkpt lat="43.22234" lon="-0.66814">
        <ele>216.117493</ele>
      </trkpt>
      <trkpt lat="43.2225" lon="-0.66845">
        <ele>214.521881</ele>
      </trkpt>
      <trkpt lat="43.22265" lon="-0.6686">
        <ele>213.215622</ele>
      </trkpt>
      <trkpt lat="43.22335" lon="-0.66912">
        <ele>206.750931</ele>
      </trkpt>
      <trkpt lat="43.2239" lon="-0.66946">
        <ele>202.812622</ele>
      </trkpt>
      <trkpt lat="43.2243" lon="-0.66974">
        <ele>201.107025</ele>
      </trkpt>
      <trkpt lat="43.22452" lon="-0.66945">
        <ele>201.563934</ele>
      </trkpt>
      <trkpt lat="43.22457" lon="-0.66939">
        <ele>201.610855</ele>
      </trkpt>
      <trkpt lat="43.2246" lon="-0.66961">
        <ele>201.024857</ele>
      </trkpt>
      <trkpt lat="43.22464" lon="-0.66992">
        <ele>200.353333</ele>
      </trkpt>
      <trkpt lat="43.22454" lon="-0.6704">
        <ele>200</ele>
      </trkpt>
      <trkpt lat="43.22453" lon="-0.67056">
        <ele>200</ele>
      </trkpt>
      <trkpt lat="43.22455" lon="-0.67072">
        <ele>200</ele>
      </trkpt>
      <trkpt lat="43.22462" lon="-0.67082">
        <ele>200.304993</ele>
      </trkpt>
      <trkpt lat="43.2252" lon="-0.67073">
        <ele>199.048752</ele>
      </trkpt>
      <trkpt lat="43.2254" lon="-0.67073">
        <ele>199.058121</ele>
      </trkpt>
      <trkpt lat="43.22622" lon="-0.67066">
        <ele>198.497498</ele>
      </trkpt>
      <trkpt lat="43.22647" lon="-0.6708">
        <ele>198.089996</ele>
      </trkpt>
      <trkpt lat="43.22684" lon="-0.67098">
        <ele>198.038498</ele>
      </trkpt>
      <trkpt lat="43.2274" lon="-0.67129">
        <ele>199.661911</ele>
      </trkpt>
      <trkpt lat="43.22769" lon="-0.6714">
        <ele>199.47731</ele>
      </trkpt>
      <trkpt lat="43.22783" lon="-0.67151">
        <ele>199.02063</ele>
      </trkpt>
      <trkpt lat="43.22795" lon="-0.67166">
        <ele>198.927399</ele>
      </trkpt>
      <trkpt lat="43.22815" lon="-0.67201">
        <ele>198.382309</ele>
      </trkpt>
      <trkpt lat="43.22846" lon="-0.67247">
        <ele>198.252792</ele>
      </trkpt>
      <trkpt lat="43.22858" lon="-0.67261">
        <ele>198.213791</ele>
      </trkpt>
      <trkpt lat="43.22872" lon="-0.67273">
        <ele>198.219574</ele>
      </trkpt>
      <trkpt lat="43.22889" lon="-0.67284">
        <ele>198.381973</ele>
      </trkpt>
      <trkpt lat="43.22908" lon="-0.67293">
        <ele>198.542374</ele>
      </trkpt>
      <trkpt lat="43.22922" lon="-0.67293">
        <ele>199.019943</ele>
      </trkpt>
      <trkpt lat="43.22965" lon="-0.67274">
        <ele>201.158752</ele>
      </trkpt>
      <trkpt lat="43.22996" lon="-0.67265">
        <ele>201.331879</ele>
      </trkpt>
      <trkpt lat="43.23056" lon="-0.67374">
        <ele>196.971252</ele>
      </trkpt>
      <trkpt lat="43.23075" lon="-0.67403">
        <ele>195.602493</ele>
      </trkpt>
      <trkpt lat="43.23096" lon="-0.67373">
        <ele>196.200409</ele>
      </trkpt>
      <trkpt lat="43.2312" lon="-0.67342">
        <ele>196.501251</ele>
      </trkpt>
      <trkpt lat="43.23135" lon="-0.67328">
        <ele>196.431244</ele>
      </trkpt>
      <trkpt lat="43.23155" lon="-0.67313">
        <ele>196.251251</ele>
      </trkpt>
      <trkpt lat="43.23184" lon="-0.67297">
        <ele>195.915527</ele>
      </trkpt>
      <trkpt lat="43.23202" lon="-0.67283">
        <ele>195.554993</ele>
      </trkpt>
      <trkpt lat="43.23207" lon="-0.67299">
        <ele>195.407959</ele>
      </trkpt>
      <trkpt lat="43.23236" lon="-0.67365">
        <ele>194.729996</ele>
      </trkpt>
      <trkpt lat="43.23275" lon="-0.67382">
        <ele>193.91124</ele>
      </trkpt>
      <trkpt lat="43.23287" lon="-0.67407">
        <ele>193.890289</ele>
      </trkpt>
      <trkpt lat="43.23303" lon="-0.67405">
        <ele>193.757355</ele>
      </trkpt>
      <trkpt lat="43.23364" lon="-0.67381">
        <ele>192.145004</ele>
      </trkpt>
      <trkpt lat="43.23408" lon="-0.67397">
        <ele>191.366241</ele>
      </trkpt>
      <trkpt lat="43.23475" lon="-0.67406">
        <ele>189.961868</ele>
      </trkpt>
      <trkpt lat="43.23499" lon="-0.67412">
        <ele>189.495621</ele>
      </trkpt>
      <trkpt lat="43.23571" lon="-0.67416">
        <ele>187.887497</ele>
      </trkpt>
      <trkpt lat="43.23652" lon="-0.67441">
        <ele>186.447495</ele>
      </trkpt>
      <trkpt lat="43.23752" lon="-0.67489">
        <ele>185.175003</ele>
      </trkpt>
      <trkpt lat="43.23766" lon="-0.67488">
        <ele>184.952957</ele>
      </trkpt>
      <trkpt lat="43.23801" lon="-0.6749">
        <ele>184.686432</ele>
      </trkpt>
      <trkpt lat="43.23849" lon="-0.675">
        <ele>184.00766</ele>
      </trkpt>
      <trkpt lat="43.23865" lon="-0.67505">
        <ele>183.614716</ele>
      </trkpt>
      <trkpt lat="43.23946" lon="-0.67581">
        <ele>181.431656</ele>
      </trkpt>
      <trkpt lat="43.23958" lon="-0.67591">
        <ele>180.667923</ele>
      </trkpt>
      <trkpt lat="43.24042" lon="-0.67645">
        <ele>177.637497</ele>
      </trkpt>
      <trkpt lat="43.24054" lon="-0.67648">
        <ele>177.368423</ele>
      </trkpt>
      <trkpt lat="43.24061" lon="-0.67654">
        <ele>177.224747</ele>
      </trkpt>
      <trkpt lat="43.24072" lon="-0.67668">
        <ele>176.945007</ele>
      </trkpt>
      <trkpt lat="43.24085" lon="-0.67679">
        <ele>176.667496</ele>
      </trkpt>
      <trkpt lat="43.2409" lon="-0.6769">
        <ele>176.529999</ele>
      </trkpt>
      <trkpt lat="43.24105" lon="-0.67732">
        <ele>176.508118</ele>
      </trkpt>
      <trkpt lat="43.24113" lon="-0.67746">
        <ele>176.538315</ele>
      </trkpt>
      <trkpt lat="43.24143" lon="-0.67777">
        <ele>176.329376</ele>
      </trkpt>
      <trkpt lat="43.24157" lon="-0.67796">
        <ele>176.30217</ele>
      </trkpt>
      <trkpt lat="43.24206" lon="-0.6787">
        <ele>175.404938</ele>
      </trkpt>
      <trkpt lat="43.24233" lon="-0.67906">
        <ele>175.268478</ele>
      </trkpt>
      <trkpt lat="43.24251" lon="-0.67926">
        <ele>175.282883</ele>
      </trkpt>
      <trkpt lat="43.24267" lon="-0.67939">
        <ele>175.24855</ele>
      </trkpt>
      <trkpt lat="43.24319" lon="-0.67956">
        <ele>175</ele>
      </trkpt>
      <trkpt lat="43.24428" lon="-0.67994">
        <ele>175.311874</ele>
      </trkpt>
      <trkpt lat="43.2446" lon="-0.67999">
        <ele>175.365631</ele>
      </trkpt>
      <trkpt lat="43.24458" lon="-0.68056">
        <ele>176.292496</ele>
      </trkpt>
      <trkpt lat="43.24458" lon="-0.68091">
        <ele>176.84938</ele>
      </trkpt>
      <trkpt lat="43.24459" lon="-0.68123">
        <ele>178.121246</ele>
      </trkpt>
      <trkpt lat="43.24461" lon="-0.68135">
        <ele>178.711868</ele>
      </trkpt>
      <trkpt lat="43.24465" lon="-0.68145">
        <ele>179.135254</ele>
      </trkpt>
      <trkpt lat="43.24473" lon="-0.68152">
        <ele>179.301727</ele>
      </trkpt>
      <trkpt lat="43.24508" lon="-0.68155">
        <ele>178.677505</ele>
      </trkpt>
      <trkpt lat="43.24516" lon="-0.6816">
        <ele>178.615005</ele>
      </trkpt>
      <trkpt lat="43.24535" lon="-0.68174">
        <ele>178.626251</ele>
      </trkpt>
      <trkpt lat="43.2455" lon="-0.68176">
        <ele>178.317505</ele>
      </trkpt>
      <trkpt lat="43.24559" lon="-0.68169">
        <ele>177.873672</ele>
      </trkpt>
      <trkpt lat="43.24572" lon="-0.68138">
        <ele>176.811386</ele>
      </trkpt>
      <trkpt lat="43.24586" lon="-0.68126">
        <ele>176.400681</ele>
      </trkpt>
      <trkpt lat="43.24607" lon="-0.68112">
        <ele>175.849991</ele>
      </trkpt>
      <trkpt lat="43.24652" lon="-0.68078">
        <ele>174.476868</ele>
      </trkpt>
      <trkpt lat="43.24677" lon="-0.68064">
        <ele>174.226868</ele>
      </trkpt>
      <trkpt lat="43.24695" lon="-0.68056">
        <ele>174.086868</ele>
      </trkpt>
      <trkpt lat="43.24742" lon="-0.68061">
        <ele>173.950821</ele>
      </trkpt>
      <trkpt lat="43.24809" lon="-0.68064">
        <ele>173.148758</ele>
      </trkpt>
      <trkpt lat="43.24915" lon="-0.68071">
        <ele>173.14563</ele>
      </trkpt>
      <trkpt lat="43.24975" lon="-0.68078">
        <ele>172.815628</ele>
      </trkpt>
      <trkpt lat="43.25038" lon="-0.68087">
        <ele>172.294373</ele>
      </trkpt>
      <trkpt lat="43.2508" lon="-0.6809">
        <ele>171.589996</ele>
      </trkpt>
      <trkpt lat="43.25088" lon="-0.68093">
        <ele>171.440628</ele>
      </trkpt>
      <trkpt lat="43.25126" lon="-0.68109">
        <ele>171.267349</ele>
      </trkpt>
      <trkpt lat="43.25155" lon="-0.68131">
        <ele>171.421524</ele>
      </trkpt>
      <trkpt lat="43.25203" lon="-0.68157">
        <ele>171.296875</ele>
      </trkpt>
      <trkpt lat="43.25239" lon="-0.6818">
        <ele>171.631882</ele>
      </trkpt>
      <trkpt lat="43.25259" lon="-0.68195">
        <ele>171.863754</ele>
      </trkpt>
      <trkpt lat="43.25279" lon="-0.68209">
        <ele>172.068756</ele>
      </trkpt>
      <trkpt lat="43.25298" lon="-0.68226">
        <ele>172.326248</ele>
      </trkpt>
      <trkpt lat="43.254" lon="-0.68327">
        <ele>174.763748</ele>
      </trkpt>
      <trkpt lat="43.25419" lon="-0.6834">
        <ele>175.210236</ele>
      </trkpt>
      <trkpt lat="43.25537" lon="-0.68396">
        <ele>177.774994</ele>
      </trkpt>
      <trkpt lat="43.25575" lon="-0.684">
        <ele>177.852493</ele>
      </trkpt>
      <trkpt lat="43.25607" lon="-0.68407">
        <ele>178.666031</ele>
      </trkpt>
      <trkpt lat="43.25619" lon="-0.68412">
        <ele>179.003693</ele>
      </trkpt>
      <trkpt lat="43.25638" lon="-0.68422">
        <ele>179.306793</ele>
      </trkpt>
      <trkpt lat="43.25684" lon="-0.68454">
        <ele>180.407501</ele>
      </trkpt>
      <trkpt lat="43.25706" lon="-0.68457">
        <ele>180.479996</ele>
      </trkpt>
      <trkpt lat="43.25724" lon="-0.68463">
        <ele>180.688385</ele>
      </trkpt>
      <trkpt lat="43.25741" lon="-0.68484">
        <ele>181.148743</ele>
      </trkpt>
      <trkpt lat="43.25768" lon="-0.68515">
        <ele>181.63063</ele>
      </trkpt>
      <trkpt lat="43.25777" lon="-0.68524">
        <ele>181.77063</ele>
      </trkpt>
      <trkpt lat="43.25791" lon="-0.68533">
        <ele>181.905624</ele>
      </trkpt>
      <trkpt lat="43.25891" lon="-0.68588">
        <ele>182</ele>
      </trkpt>
      <trkpt lat="43.25911" lon="-0.68598">
        <ele>182</ele>
      </trkpt>
      <trkpt lat="43.25957" lon="-0.68613">
        <ele>182.519699</ele>
      </trkpt>
      <trkpt lat="43.25985" lon="-0.68623">
        <ele>182.830887</ele>
      </trkpt>
      <trkpt lat="43.26035" lon="-0.68649">
        <ele>183.130966</ele>
      </trkpt>
      <trkpt lat="43.26055" lon="-0.68673">
        <ele>183.037537</ele>
      </trkpt>
      <trkpt lat="43.26081" lon="-0.68699">
        <ele>182.646255</ele>
      </trkpt>
      <trkpt lat="43.26098" lon="-0.68722">
        <ele>182.293121</ele>
      </trkpt>
      <trkpt lat="43.26114" lon="-0.68736">
        <ele>182.058563</ele>
      </trkpt>
      <trkpt lat="43.26104" lon="-0.68753">
        <ele>181.788757</ele>
      </trkpt>
      <trkpt lat="43.261" lon="-0.68766">
        <ele>181.577499</ele>
      </trkpt>
      <trkpt lat="43.26093" lon="-0.68807">
        <ele>180.867874</ele>
      </trkpt>
      <trkpt lat="43.26087" lon="-0.6885">
        <ele>180.021408</ele>
      </trkpt>
      <trkpt lat="43.26082" lon="-0.68879">
        <ele>180.142181</ele>
      </trkpt>
      <trkpt lat="43.26082" lon="-0.68895">
        <ele>180.203537</ele>
      </trkpt>
      <trkpt lat="43.2609" lon="-0.68928">
        <ele>180.012955</ele>
      </trkpt>
      <trkpt lat="43.26104" lon="-0.68965">
        <ele>180.866867</ele>
      </trkpt>
      <trkpt lat="43.26116" lon="-0.68977">
        <ele>180.876251</ele>
      </trkpt>
      <trkpt lat="43.26136" lon="-0.68994">
        <ele>180.722916</ele>
      </trkpt>
      <trkpt lat="43.26148" lon="-0.69009">
        <ele>180.793869</ele>
      </trkpt>
      <trkpt lat="43.26164" lon="-0.69037">
        <ele>180.943192</ele>
      </trkpt>
      <trkpt lat="43.26176" lon="-0.69055">
        <ele>180.747498</ele>
      </trkpt>
      <trkpt lat="43.26187" lon="-0.69083">
        <ele>179.083755</ele>
      </trkpt>
      <trkpt lat="43.26211" lon="-0.69138">
        <ele>173.494095</ele>
      </trkpt>
      <trkpt lat="43.26254" lon="-0.69225">
        <ele>166.959</ele>
      </trkpt>
      <trkpt lat="43.26316" lon="-0.69374">
        <ele>166.199326</ele>
      </trkpt>
      <trkpt lat="43.26321" lon="-0.69393">
        <ele>166.646805</ele>
      </trkpt>
      <trkpt lat="43.26319" lon="-0.69593">
        <ele>168.249283</ele>
      </trkpt>
      <trkpt lat="43.26312" lon="-0.69678">
        <ele>166.928131</ele>
      </trkpt>
      <trkpt lat="43.2631" lon="-0.6971">
        <ele>166.403748</ele>
      </trkpt>
      <trkpt lat="43.26306" lon="-0.69756">
        <ele>165.987152</ele>
      </trkpt>
      <trkpt lat="43.26301" lon="-0.69798">
        <ele>165.976181</ele>
      </trkpt>
      <trkpt lat="43.26286" lon="-0.69895">
        <ele>165.315002</ele>
      </trkpt>
      <trkpt lat="43.26267" lon="-0.70005">
        <ele>165.675003</ele>
      </trkpt>
      <trkpt lat="43.26242" lon="-0.70095">
        <ele>166.169998</ele>
      </trkpt>
      <trkpt lat="43.2624" lon="-0.70152">
        <ele>166.1875</ele>
      </trkpt>
      <trkpt lat="43.26242" lon="-0.70235">
        <ele>166.255737</ele>
      </trkpt>
      <trkpt lat="43.26248" lon="-0.70301">
        <ele>166.910004</ele>
      </trkpt>
      <trkpt lat="43.26257" lon="-0.70341">
        <ele>166.677505</ele>
      </trkpt>
      <trkpt lat="43.26272" lon="-0.70413">
        <ele>166.345795</ele>
      </trkpt>
      <trkpt lat="43.26272" lon="-0.70434">
        <ele>166.566803</ele>
      </trkpt>
      <trkpt lat="43.26272" lon="-0.70504">
        <ele>167</ele>
      </trkpt>
      <trkpt lat="43.26275" lon="-0.7059">
        <ele>167</ele>
      </trkpt>
      <trkpt lat="43.26277" lon="-0.70609">
        <ele>167</ele>
      </trkpt>
      <trkpt lat="43.26285" lon="-0.70644">
        <ele>166.869995</ele>
      </trkpt>
      <trkpt lat="43.26314" lon="-0.70754">
        <ele>166.142502</ele>
      </trkpt>
      <trkpt lat="43.26332" lon="-0.70829">
        <ele>166</ele>
      </trkpt>
      <trkpt lat="43.26361" lon="-0.70968">
        <ele>166</ele>
      </trkpt>
      <trkpt lat="43.26369" lon="-0.71013">
        <ele>165.830338</ele>
      </trkpt>
      <trkpt lat="43.26372" lon="-0.71025">
        <ele>165.712952</ele>
      </trkpt>
      <trkpt lat="43.26374" lon="-0.71084">
        <ele>165.082977</ele>
      </trkpt>
      <trkpt lat="43.26382" lon="-0.71097">
        <ele>165</ele>
      </trkpt>
      <trkpt lat="43.26396" lon="-0.71104">
        <ele>165</ele>
      </trkpt>
      <trkpt lat="43.26411" lon="-0.71115">
        <ele>164.919647</ele>
      </trkpt>
      <trkpt lat="43.26418" lon="-0.7113">
        <ele>164.765045</ele>
      </trkpt>
      <trkpt lat="43.26412" lon="-0.71195">
        <ele>164.248459</ele>
      </trkpt>
      <trkpt lat="43.26416" lon="-0.7123">
        <ele>163.800003</ele>
      </trkpt>
      <trkpt lat="43.26424" lon="-0.71253">
        <ele>163.428131</ele>
      </trkpt>
      <trkpt lat="43.26425" lon="-0.71277">
        <ele>163.040619</ele>
      </trkpt>
      <trkpt lat="43.26424" lon="-0.71297">
        <ele>162.895065</ele>
      </trkpt>
      <trkpt lat="43.26419" lon="-0.7131">
        <ele>162.761871</ele>
      </trkpt>
      <trkpt lat="43.26408" lon="-0.71325">
        <ele>162.476288</ele>
      </trkpt>
      <trkpt lat="43.26398" lon="-0.71334">
        <ele>162.16394</ele>
      </trkpt>
      <trkpt lat="43.2638" lon="-0.71346">
        <ele>161.756256</ele>
      </trkpt>
      <trkpt lat="43.26359" lon="-0.71357">
        <ele>161.350006</ele>
      </trkpt>
      <trkpt lat="43.26326" lon="-0.71381">
        <ele>160.902191</ele>
      </trkpt>
      <trkpt lat="43.26311" lon="-0.71397">
        <ele>160.789368</ele>
      </trkpt>
      <trkpt lat="43.26284" lon="-0.71434">
        <ele>160.36937</ele>
      </trkpt>
      <trkpt lat="43.26265" lon="-0.71472">
        <ele>159.736877</ele>
      </trkpt>
      <trkpt lat="43.26253" lon="-0.71489">
        <ele>159.460815</ele>
      </trkpt>
      <trkpt lat="43.26207" lon="-0.71527">
        <ele>160</ele>
      </trkpt>
      <trkpt lat="43.26207" lon="-0.71578">
        <ele>160.039047</ele>
      </trkpt>
      <trkpt lat="43.26205" lon="-0.71584">
        <ele>160.156097</ele>
      </trkpt>
      <trkpt lat="43.26176" lon="-0.71594">
        <ele>160.565308</ele>
      </trkpt>
      <trkpt lat="43.26146" lon="-0.71602">
        <ele>161.691254</ele>
      </trkpt>
      <trkpt lat="43.26127" lon="-0.71608">
        <ele>162.763748</ele>
      </trkpt>
      <trkpt lat="43.26111" lon="-0.71616">
        <ele>163.738754</ele>
      </trkpt>
      <trkpt lat="43.26094" lon="-0.71628">
        <ele>164.902496</ele>
      </trkpt>
      <trkpt lat="43.26047" lon="-0.71656">
        <ele>167.416245</ele>
      </trkpt>
      <trkpt lat="43.25919" lon="-0.71726">
        <ele>172.6147</ele>
      </trkpt>
      <trkpt lat="43.25901" lon="-0.71738">
        <ele>173.490555</ele>
      </trkpt>
      <trkpt lat="43.25885" lon="-0.71754">
        <ele>174.423752</ele>
      </trkpt>
      <trkpt lat="43.25875" lon="-0.71766">
        <ele>175.063751</ele>
      </trkpt>
      <trkpt lat="43.25864" lon="-0.71788">
        <ele>176</ele>
      </trkpt>
      <trkpt lat="43.25858" lon="-0.71808">
        <ele>176.861191</ele>
      </trkpt>
      <trkpt lat="43.25866" lon="-0.71844">
        <ele>178.031448</ele>
      </trkpt>
      <trkpt lat="43.2584" lon="-0.71866">
        <ele>180.066681</ele>
      </trkpt>
      <trkpt lat="43.25856" lon="-0.71912">
        <ele>181.082855</ele>
      </trkpt>
      <trkpt lat="43.25873" lon="-0.71953">
        <ele>181.626877</ele>
      </trkpt>
      <trkpt lat="43.25879" lon="-0.71975">
        <ele>181.832504</ele>
      </trkpt>
      <trkpt lat="43.25874" lon="-0.71997">
        <ele>182.445007</ele>
      </trkpt>
      <trkpt lat="43.25863" lon="-0.72012">
        <ele>183.168747</ele>
      </trkpt>
      <trkpt lat="43.25823" lon="-0.72046">
        <ele>184.957291</ele>
      </trkpt>
      <trkpt lat="43.25819" lon="-0.72054">
        <ele>185.151871</ele>
      </trkpt>
      <trkpt lat="43.25805" lon="-0.72111">
        <ele>186.728745</ele>
      </trkpt>
      <trkpt lat="43.25789" lon="-0.72165">
        <ele>188.816254</ele>
      </trkpt>
      <trkpt lat="43.25771" lon="-0.72221">
        <ele>190.12883</ele>
      </trkpt>
      <trkpt lat="43.2576" lon="-0.72251">
        <ele>191.077774</ele>
      </trkpt>
      <trkpt lat="43.25747" lon="-0.72275">
        <ele>191.723755</ele>
      </trkpt>
      <trkpt lat="43.2574" lon="-0.72291">
        <ele>192.069016</ele>
      </trkpt>
      <trkpt lat="43.25738" lon="-0.72309">
        <ele>192.64476</ele>
      </trkpt>
      <trkpt lat="43.25737" lon="-0.72366">
        <ele>194.488754</ele>
      </trkpt>
      <trkpt lat="43.25734" lon="-0.7238">
        <ele>195.012405</ele>
      </trkpt>
      <trkpt lat="43.25717" lon="-0.72423">
        <ele>196.574371</ele>
      </trkpt>
      <trkpt lat="43.25688" lon="-0.72485">
        <ele>198.45575</ele>
      </trkpt>
      <trkpt lat="43.25668" lon="-0.72521">
        <ele>200.081253</ele>
      </trkpt>
      <trkpt lat="43.25657" lon="-0.72545">
        <ele>200.856873</ele>
      </trkpt>
      <trkpt lat="43.25648" lon="-0.72576">
        <ele>201.569366</ele>
      </trkpt>
      <trkpt lat="43.25614" lon="-0.72666">
        <ele>202.638123</ele>
      </trkpt>
      <trkpt lat="43.25567" lon="-0.7277">
        <ele>203</ele>
      </trkpt>
      <trkpt lat="43.25565" lon="-0.72786">
        <ele>203</ele>
      </trkpt>
      <trkpt lat="43.25586" lon="-0.72823">
        <ele>203</ele>
      </trkpt>
      <trkpt lat="43.25579" lon="-0.72833">
        <ele>203</ele>
      </trkpt>
      <trkpt lat="43.25524" lon="-0.72891">
        <ele>202.240494</ele>
      </trkpt>
      <trkpt lat="43.25511" lon="-0.72898">
        <ele>201.412125</ele>
      </trkpt>
      <trkpt lat="43.25499" lon="-0.72902">
        <ele>200.594315</ele>
      </trkpt>
      <trkpt lat="43.25465" lon="-0.72903">
        <ele>197.581879</ele>
      </trkpt>
      <trkpt lat="43.25455" lon="-0.7292">
        <ele>195.863129</ele>
      </trkpt>
      <trkpt lat="43.25433" lon="-0.72946">
        <ele>193.05687</ele>
      </trkpt>
      <trkpt lat="43.25416" lon="-0.72971">
        <ele>190.330002</ele>
      </trkpt>
      <trkpt lat="43.25409" lon="-0.72985">
        <ele>188.970001</ele>
      </trkpt>
      <trkpt lat="43.25406" lon="-0.72994">
        <ele>188.205002</ele>
      </trkpt>
      <trkpt lat="43.25403" lon="-0.73033">
        <ele>185.131241</ele>
      </trkpt>
      <trkpt lat="43.25402" lon="-0.73067">
        <ele>182.335007</ele>
      </trkpt>
      <trkpt lat="43.25406" lon="-0.73091">
        <ele>181.348785</ele>
      </trkpt>
      <trkpt lat="43.25407" lon="-0.73122">
        <ele>179.865387</ele>
      </trkpt>
      <trkpt lat="43.25405" lon="-0.73142">
        <ele>179.086914</ele>
      </trkpt>
      <trkpt lat="43.25397" lon="-0.73155">
        <ele>178.638123</ele>
      </trkpt>
      <trkpt lat="43.25392" lon="-0.73167">
        <ele>178.542496</ele>
      </trkpt>
      <trkpt lat="43.25373" lon="-0.73201">
        <ele>178.700623</ele>
      </trkpt>
      <trkpt lat="43.25362" lon="-0.73222">
        <ele>179.256256</ele>
      </trkpt>
      <trkpt lat="43.25357" lon="-0.73243">
        <ele>179.724991</ele>
      </trkpt>
      <trkpt lat="43.25351" lon="-0.73287">
        <ele>182.239273</ele>
      </trkpt>
      <trkpt lat="43.25348" lon="-0.73314">
        <ele>184.034454</ele>
      </trkpt>
      <trkpt lat="43.25341" lon="-0.73331">
        <ele>185.085724</ele>
      </trkpt>
      <trkpt lat="43.25323" lon="-0.73361">
        <ele>187.354553</ele>
      </trkpt>
      <trkpt lat="43.25291" lon="-0.73401">
        <ele>191.439713</ele>
      </trkpt>
      <trkpt lat="43.25251" lon="-0.73486">
        <ele>197.553253</ele>
      </trkpt>
      <trkpt lat="43.25231" lon="-0.73522">
        <ele>199.232483</ele>
      </trkpt>
      <trkpt lat="43.25189" lon="-0.73588">
        <ele>200.967499</ele>
      </trkpt>
      <trkpt lat="43.25175" lon="-0.73613">
        <ele>201.328918</ele>
      </trkpt>
      <trkpt lat="43.2514" lon="-0.7367">
        <ele>201.967941</ele>
      </trkpt>
      <trkpt lat="43.25115" lon="-0.73708">
        <ele>202</ele>
      </trkpt>
      <trkpt lat="43.25093" lon="-0.73754">
        <ele>202.38063</ele>
      </trkpt>
      <trkpt lat="43.25068" lon="-0.73815">
        <ele>203.710724</ele>
      </trkpt>
      <trkpt lat="43.25059" lon="-0.73846">
        <ele>204.826248</ele>
      </trkpt>
      <trkpt lat="43.25049" lon="-0.73871">
        <ele>205.630905</ele>
      </trkpt>
      <trkpt lat="43.25036" lon="-0.73912">
        <ele>207.75441</ele>
      </trkpt>
      <trkpt lat="43.2503" lon="-0.73936">
        <ele>208.759705</ele>
      </trkpt>
      <trkpt lat="43.25007" lon="-0.74017">
        <ele>213.701279</ele>
      </trkpt>
      <trkpt lat="43.24997" lon="-0.74065">
        <ele>216.086014</ele>
      </trkpt>
      <trkpt lat="43.24991" lon="-0.74088">
        <ele>217.617599</ele>
      </trkpt>
      <trkpt lat="43.24979" lon="-0.74115">
        <ele>219.884109</ele>
      </trkpt>
      <trkpt lat="43.24978" lon="-0.74135">
        <ele>220.340042</ele>
      </trkpt>
      <trkpt lat="43.24977" lon="-0.74166">
        <ele>220.238251</ele>
      </trkpt>
      <trkpt lat="43.24967" lon="-0.74197">
        <ele>221.4767</ele>
      </trkpt>
      <trkpt lat="43.24953" lon="-0.74226">
        <ele>222.494766</ele>
      </trkpt>
      <trkpt lat="43.24946" lon="-0.74244">
        <ele>222.774796</ele>
      </trkpt>
      <trkpt lat="43.24929" lon="-0.74315">
        <ele>223.830002</ele>
      </trkpt>
      <trkpt lat="43.24924" lon="-0.74331">
        <ele>224.25</ele>
      </trkpt>
      <trkpt lat="43.24918" lon="-0.74355">
        <ele>224.889099</ele>
      </trkpt>
      <trkpt lat="43.24902" lon="-0.74411">
        <ele>227.607498</ele>
      </trkpt>
      <trkpt lat="43.24889" lon="-0.74431">
        <ele>229.722504</ele>
      </trkpt>
      <trkpt lat="43.24868" lon="-0.74443">
        <ele>232.397507</ele>
      </trkpt>
      <trkpt lat="43.24857" lon="-0.74447">
        <ele>233.72403</ele>
      </trkpt>
      <trkpt lat="43.24819" lon="-0.74482">
        <ele>235.897781</ele>
      </trkpt>
      <trkpt lat="43.24808" lon="-0.7449">
        <ele>236.327835</ele>
      </trkpt>
      <trkpt lat="43.24742" lon="-0.74546">
        <ele>241.352249</ele>
      </trkpt>
      <trkpt lat="43.24719" lon="-0.74567">
        <ele>243.20076</ele>
      </trkpt>
      <trkpt lat="43.24712" lon="-0.74576">
        <ele>243.183472</ele>
      </trkpt>
      <trkpt lat="43.24705" lon="-0.74577">
        <ele>243.314194</ele>
      </trkpt>
      <trkpt lat="43.24696" lon="-0.74575">
        <ele>243.591293</ele>
      </trkpt>
      <trkpt lat="43.24677" lon="-0.74548">
        <ele>243.155624</ele>
      </trkpt>
      <trkpt lat="43.24627" lon="-0.74609">
        <ele>240.970947</ele>
      </trkpt>
      <trkpt lat="43.24619" lon="-0.74626">
        <ele>240.773438</ele>
      </trkpt>
      <trkpt lat="43.24607" lon="-0.74658">
        <ele>240.367935</ele>
      </trkpt>
      <trkpt lat="43.24591" lon="-0.74711">
        <ele>241.171341</ele>
      </trkpt>
      <trkpt lat="43.24584" lon="-0.74724">
        <ele>241.473755</ele>
      </trkpt>
      <trkpt lat="43.24582" lon="-0.74736">
        <ele>241.927505</ele>
      </trkpt>
      <trkpt lat="43.24575" lon="-0.74743">
        <ele>241.830002</ele>
      </trkpt>
      <trkpt lat="43.24559" lon="-0.74747">
        <ele>241.008743</ele>
      </trkpt>
      <trkpt lat="43.24539" lon="-0.74758">
        <ele>240.360626</ele>
      </trkpt>
      <trkpt lat="43.24527" lon="-0.74769">
        <ele>240.451874</ele>
      </trkpt>
      <trkpt lat="43.24517" lon="-0.74785">
        <ele>240.853119</ele>
      </trkpt>
      <trkpt lat="43.24508" lon="-0.74806">
        <ele>241.470627</ele>
      </trkpt>
      <trkpt lat="43.24499" lon="-0.74815">
        <ele>241.236557</ele>
      </trkpt>
      <trkpt lat="43.24481" lon="-0.74825">
        <ele>241.557358</ele>
      </trkpt>
      <trkpt lat="43.24461" lon="-0.74835">
        <ele>241.890457</ele>
      </trkpt>
      <trkpt lat="43.24454" lon="-0.74846">
        <ele>241.977661</ele>
      </trkpt>
      <trkpt lat="43.24447" lon="-0.74852">
        <ele>242.149994</ele>
      </trkpt>
      <trkpt lat="43.24432" lon="-0.74853">
        <ele>242.839996</ele>
      </trkpt>
      <trkpt lat="43.24406" lon="-0.74848">
        <ele>243.975006</ele>
      </trkpt>
      <trkpt lat="43.24393" lon="-0.74813">
        <ele>244.876678</ele>
      </trkpt>
      <trkpt lat="43.24378" lon="-0.74764">
        <ele>245.264969</ele>
      </trkpt>
      <trkpt lat="43.24367" lon="-0.7474">
        <ele>245.766983</ele>
      </trkpt>
      <trkpt lat="43.24358" lon="-0.74723">
        <ele>245.722504</ele>
      </trkpt>
      <trkpt lat="43.24346" lon="-0.74711">
        <ele>245.604996</ele>
      </trkpt>
      <trkpt lat="43.24329" lon="-0.74703">
        <ele>245.755005</ele>
      </trkpt>
      <trkpt lat="43.24301" lon="-0.74706">
        <ele>245.286026</ele>
      </trkpt>
      <trkpt lat="43.24262" lon="-0.74718">
        <ele>244.550003</ele>
      </trkpt>
      <trkpt lat="43.24239" lon="-0.74716">
        <ele>243.514999</ele>
      </trkpt>
      <trkpt lat="43.24216" lon="-0.7471">
        <ele>242.777496</ele>
      </trkpt>
      <trkpt lat="43.24204" lon="-0.74716">
        <ele>243.192505</ele>
      </trkpt>
      <trkpt lat="43.24195" lon="-0.74725">
        <ele>243.794998</ele>
      </trkpt>
      <trkpt lat="43.24175" lon="-0.74736">
        <ele>244.242371</ele>
      </trkpt>
      <trkpt lat="43.24159" lon="-0.74753">
        <ele>244.405396</ele>
      </trkpt>
      <trkpt lat="43.24149" lon="-0.74755">
        <ele>244.676895</ele>
      </trkpt>
      <trkpt lat="43.24146" lon="-0.74746">
        <ele>245.064056</ele>
      </trkpt>
      <trkpt lat="43.24134" lon="-0.74735">
        <ele>246.021255</ele>
      </trkpt>
      <trkpt lat="43.24115" lon="-0.74725">
        <ele>247.558746</ele>
      </trkpt>
      <trkpt lat="43.24101" lon="-0.74723">
        <ele>248.533752</ele>
      </trkpt>
      <trkpt lat="43.2409" lon="-0.7471">
        <ele>248.586014</ele>
      </trkpt>
      <trkpt lat="43.24085" lon="-0.74691">
        <ele>248.064407</ele>
      </trkpt>
      <trkpt lat="43.24069" lon="-0.7468">
        <ele>248.752411</ele>
      </trkpt>
      <trkpt lat="43.2404" lon="-0.74677">
        <ele>251.003128</ele>
      </trkpt>
      <trkpt lat="43.24025" lon="-0.74677">
        <ele>252.297455</ele>
      </trkpt>
      <trkpt lat="43.2401" lon="-0.74686">
        <ele>253.223495</ele>
      </trkpt>
      <trkpt lat="43.23996" lon="-0.74676">
        <ele>253.87822</ele>
      </trkpt>
      <trkpt lat="43.23987" lon="-0.74659">
        <ele>254.730484</ele>
      </trkpt>
      <trkpt lat="43.23979" lon="-0.74643">
        <ele>255.604385</ele>
      </trkpt>
      <trkpt lat="43.23969" lon="-0.74632">
        <ele>256.339935</ele>
      </trkpt>
      <trkpt lat="43.23965" lon="-0.74617">
        <ele>257.312134</ele>
      </trkpt>
      <trkpt lat="43.23971" lon="-0.74544">
        <ele>261.025574</ele>
      </trkpt>
      <trkpt lat="43.23981" lon="-0.74505">
        <ele>261.912506</ele>
      </trkpt>
      <trkpt lat="43.23922" lon="-0.74479">
        <ele>263.220886</ele>
      </trkpt>
      <trkpt lat="43.23889" lon="-0.7447">
        <ele>262.294586</ele>
      </trkpt>
      <trkpt lat="43.23837" lon="-0.74458">
        <ele>258.774902</ele>
      </trkpt>
      <trkpt lat="43.23819" lon="-0.74451">
        <ele>256.481354</ele>
      </trkpt>
      <trkpt lat="43.23805" lon="-0.74443">
        <ele>254.439026</ele>
      </trkpt>
      <trkpt lat="43.23793" lon="-0.74427">
        <ele>252.156143</ele>
      </trkpt>
      <trkpt lat="43.2376" lon="-0.74365">
        <ele>247.964798</ele>
      </trkpt>
      <trkpt lat="43.2375" lon="-0.74351">
        <ele>247.897888</ele>
      </trkpt>
      <trkpt lat="43.23738" lon="-0.74343">
        <ele>247.69693</ele>
      </trkpt>
      <trkpt lat="43.23722" lon="-0.74346">
        <ele>247.043686</ele>
      </trkpt>
      <trkpt lat="43.23701" lon="-0.74352">
        <ele>246.348785</ele>
      </trkpt>
      <trkpt lat="43.23675" lon="-0.74363">
        <ele>245.120758</ele>
      </trkpt>
      <trkpt lat="43.23628" lon="-0.74378">
        <ele>244.384888</ele>
      </trkpt>
      <trkpt lat="43.23599" lon="-0.74384">
        <ele>244.43425</ele>
      </trkpt>
      <trkpt lat="43.23578" lon="-0.74383">
        <ele>243.939178</ele>
      </trkpt>
      <trkpt lat="43.2355" lon="-0.74379">
        <ele>243.13353</ele>
      </trkpt>
      <trkpt lat="43.23508" lon="-0.74383">
        <ele>242.725174</ele>
      </trkpt>
      <trkpt lat="43.23478" lon="-0.74396">
        <ele>241.830826</ele>
      </trkpt>
      <trkpt lat="43.23457" lon="-0.74402">
        <ele>241.667786</ele>
      </trkpt>
      <trkpt lat="43.23443" lon="-0.74401">
        <ele>241.670532</ele>
      </trkpt>
      <trkpt lat="43.23426" lon="-0.74404">
        <ele>241.811249</ele>
      </trkpt>
      <trkpt lat="43.23384" lon="-0.74402">
        <ele>241.827499</ele>
      </trkpt>
      <trkpt lat="43.23368" lon="-0.74399">
        <ele>241.837128</ele>
      </trkpt>
      <trkpt lat="43.23355" lon="-0.74391">
        <ele>241.833328</ele>
      </trkpt>
      <trkpt lat="43.23345" lon="-0.74348">
        <ele>241.867905</ele>
      </trkpt>
      <trkpt lat="43.23345" lon="-0.74303">
        <ele>242.052505</ele>
      </trkpt>
      <trkpt lat="43.23343" lon="-0.74267">
        <ele>242.756256</ele>
      </trkpt>
      <trkpt lat="43.23338" lon="-0.7424">
        <ele>243</ele>
      </trkpt>
      <trkpt lat="43.23328" lon="-0.74206">
        <ele>243</ele>
      </trkpt>
      <trkpt lat="43.23313" lon="-0.74172">
        <ele>242.736252</ele>
      </trkpt>
      <trkpt lat="43.2326" lon="-0.74088">
        <ele>241.398911</ele>
      </trkpt>
      <trkpt lat="43.23241" lon="-0.74069">
        <ele>241.074066</ele>
      </trkpt>
      <trkpt lat="43.23223" lon="-0.74049">
        <ele>241.122284</ele>
      </trkpt>
      <trkpt lat="43.23208" lon="-0.74028">
        <ele>241.270569</ele>
      </trkpt>
      <trkpt lat="43.23195" lon="-0.73996">
        <ele>241.586243</ele>
      </trkpt>
      <trkpt lat="43.23187" lon="-0.73958">
        <ele>242.602493</ele>
      </trkpt>
      <trkpt lat="43.23182" lon="-0.73909">
        <ele>243.982147</ele>
      </trkpt>
      <trkpt lat="43.23181" lon="-0.73854">
        <ele>245.615692</ele>
      </trkpt>
      <trkpt lat="43.23182" lon="-0.73754">
        <ele>246.774185</ele>
      </trkpt>
      <trkpt lat="43.23173" lon="-0.73747">
        <ele>246.953903</ele>
      </trkpt>
      <trkpt lat="43.23161" lon="-0.73735">
        <ele>246.950928</ele>
      </trkpt>
      <trkpt lat="43.23143" lon="-0.73711">
        <ele>247.378998</ele>
      </trkpt>
      <trkpt lat="43.23127" lon="-0.73687">
        <ele>247.984512</ele>
      </trkpt>
      <trkpt lat="43.2311" lon="-0.73655">
        <ele>247.865082</ele>
      </trkpt>
      <trkpt lat="43.23083" lon="-0.73586">
        <ele>248.575256</ele>
      </trkpt>
      <trkpt lat="43.23068" lon="-0.7354">
        <ele>250.916</ele>
      </trkpt>
      <trkpt lat="43.23051" lon="-0.73498">
        <ele>255.88266</ele>
      </trkpt>
      <trkpt lat="43.23033" lon="-0.73478">
        <ele>258.556244</ele>
      </trkpt>
      <trkpt lat="43.23014" lon="-0.73459">
        <ele>261.16626</ele>
      </trkpt>
      <trkpt lat="43.22996" lon="-0.73452">
        <ele>262.660065</ele>
      </trkpt>
      <trkpt lat="43.22983" lon="-0.73452">
        <ele>263.302032</ele>
      </trkpt>
      <trkpt lat="43.22964" lon="-0.73455">
        <ele>264.115509</ele>
      </trkpt>
      <trkpt lat="43.22912" lon="-0.73479">
        <ele>265.076416</ele>
      </trkpt>
      <trkpt lat="43.22887" lon="-0.73484">
        <ele>265.590302</ele>
      </trkpt>
      <trkpt lat="43.2288" lon="-0.73481">
        <ele>265.704712</ele>
      </trkpt>
      <trkpt lat="43.22866" lon="-0.7348">
        <ele>265.713959</ele>
      </trkpt>
      <trkpt lat="43.22852" lon="-0.73482">
        <ele>265.444885</ele>
      </trkpt>
      <trkpt lat="43.22841" lon="-0.73488">
        <ele>265.336243</ele>
      </trkpt>
      <trkpt lat="43.22832" lon="-0.735">
        <ele>265.36438</ele>
      </trkpt>
      <trkpt lat="43.22828" lon="-0.7352">
        <ele>265.601257</ele>
      </trkpt>
      <trkpt lat="43.22823" lon="-0.73532">
        <ele>265.579987</ele>
      </trkpt>
      <trkpt lat="43.22817" lon="-0.73537">
        <ele>265.087616</ele>
      </trkpt>
      <trkpt lat="43.2281" lon="-0.73525">
        <ele>264.162628</ele>
      </trkpt>
      <trkpt lat="43.22808" lon="-0.73512">
        <ele>263.692535</ele>
      </trkpt>
      <trkpt lat="43.2281" lon="-0.73496">
        <ele>263.425934</ele>
      </trkpt>
      <trkpt lat="43.22819" lon="-0.73473">
        <ele>263.773102</ele>
      </trkpt>
      <trkpt lat="43.22824" lon="-0.73452">
        <ele>263.581268</ele>
      </trkpt>
      <trkpt lat="43.22825" lon="-0.73418">
        <ele>262.637146</ele>
      </trkpt>
      <trkpt lat="43.22823" lon="-0.7337">
        <ele>261.689911</ele>
      </trkpt>
      <trkpt lat="43.22822" lon="-0.73298">
        <ele>261.942993</ele>
      </trkpt>
      <trkpt lat="43.22822" lon="-0.73274">
        <ele>261.49881</ele>
      </trkpt>
      <trkpt lat="43.22815" lon="-0.73274">
        <ele>261.801453</ele>
      </trkpt>
      <trkpt lat="43.22801" lon="-0.73268">
        <ele>262.419189</ele>
      </trkpt>
      <trkpt lat="43.22789" lon="-0.73254">
        <ele>263.420807</ele>
      </trkpt>
      <trkpt lat="43.22775" lon="-0.73242">
        <ele>263.783051</ele>
      </trkpt>
      <trkpt lat="43.22749" lon="-0.73246">
        <ele>263.277466</ele>
      </trkpt>
      <trkpt lat="43.22717" lon="-0.73243">
        <ele>262.666046</ele>
      </trkpt>
      <trkpt lat="43.22692" lon="-0.73228">
        <ele>262.791779</ele>
      </trkpt>
      <trkpt lat="43.2266" lon="-0.73203">
        <ele>262.106842</ele>
      </trkpt>
      <trkpt lat="43.22619" lon="-0.73165">
        <ele>262.864319</ele>
      </trkpt>
      <trkpt lat="43.22614" lon="-0.73163">
        <ele>262.792084</ele>
      </trkpt>
      <trkpt lat="43.22604" lon="-0.73164">
        <ele>263.018616</ele>
      </trkpt>
      <trkpt lat="43.22596" lon="-0.7317">
        <ele>262.982666</ele>
      </trkpt>
      <trkpt lat="43.22574" lon="-0.73161">
        <ele>263.715118</ele>
      </trkpt>
      <trkpt lat="43.22558" lon="-0.7315">
        <ele>263.945618</ele>
      </trkpt>
      <trkpt lat="43.22516" lon="-0.73142">
        <ele>264.821869</ele>
      </trkpt>
      <trkpt lat="43.22495" lon="-0.73165">
        <ele>265.358398</ele>
      </trkpt>
      <trkpt lat="43.22471" lon="-0.73174">
        <ele>265.619995</ele>
      </trkpt>
      <trkpt lat="43.2245" lon="-0.73173">
        <ele>266.106262</ele>
      </trkpt>
      <trkpt lat="43.22432" lon="-0.73161">
        <ele>266.866241</ele>
      </trkpt>
      <trkpt lat="43.22414" lon="-0.73157">
        <ele>267</ele>
      </trkpt>
      <trkpt lat="43.22403" lon="-0.73156">
        <ele>267</ele>
      </trkpt>
      <trkpt lat="43.22343" lon="-0.73146">
        <ele>267</ele>
      </trkpt>
      <trkpt lat="43.22298" lon="-0.73144">
        <ele>267.967499</ele>
      </trkpt>
      <trkpt lat="43.22285" lon="-0.73138">
        <ele>268.397369</ele>
      </trkpt>
      <trkpt lat="43.22267" lon="-0.7312">
        <ele>269.608887</ele>
      </trkpt>
      <trkpt lat="43.22242" lon="-0.73106">
        <ele>272.099152</ele>
      </trkpt>
      <trkpt lat="43.22167" lon="-0.73081">
        <ele>280.659454</ele>
      </trkpt>
      <trkpt lat="43.22104" lon="-0.73073">
        <ele>281.215607</ele>
      </trkpt>
      <trkpt lat="43.22086" lon="-0.73068">
        <ele>280.596893</ele>
      </trkpt>
      <trkpt lat="43.2204" lon="-0.73024">
        <ele>279.871216</ele>
      </trkpt>
      <trkpt lat="43.22027" lon="-0.73021">
        <ele>280.53421</ele>
      </trkpt>
      <trkpt lat="43.21987" lon="-0.73028">
        <ele>282.983032</ele>
      </trkpt>
      <trkpt lat="43.21933" lon="-0.73026">
        <ele>284.978271</ele>
      </trkpt>
      <trkpt lat="43.21908" lon="-0.7303">
        <ele>285.559875</ele>
      </trkpt>
      <trkpt lat="43.219" lon="-0.7302">
        <ele>285.358093</ele>
      </trkpt>
      <trkpt lat="43.21897" lon="-0.72993">
        <ele>284.728516</ele>
      </trkpt>
      <trkpt lat="43.21891" lon="-0.72955">
        <ele>284.298279</ele>
      </trkpt>
      <trkpt lat="43.21899" lon="-0.72851">
        <ele>283.521484</ele>
      </trkpt>
      <trkpt lat="43.21902" lon="-0.72784">
        <ele>284.606262</ele>
      </trkpt>
      <trkpt lat="43.21898" lon="-0.72769">
        <ele>284.751251</ele>
      </trkpt>
      <trkpt lat="43.21885" lon="-0.7275">
        <ele>284.626984</ele>
      </trkpt>
      <trkpt lat="43.21878" lon="-0.72734">
        <ele>284.719818</ele>
      </trkpt>
      <trkpt lat="43.21864" lon="-0.72713">
        <ele>285.372772</ele>
      </trkpt>
      <trkpt lat="43.21855" lon="-0.72697">
        <ele>285.972443</ele>
      </trkpt>
      <trkpt lat="43.21849" lon="-0.72653">
        <ele>287.224518</ele>
      </trkpt>
      <trkpt lat="43.2185" lon="-0.72606">
        <ele>287.612976</ele>
      </trkpt>
      <trkpt lat="43.21859" lon="-0.72538">
        <ele>286.496552</ele>
      </trkpt>
      <trkpt lat="43.21864" lon="-0.72508">
        <ele>285.571716</ele>
      </trkpt>
      <trkpt lat="43.21871" lon="-0.72482">
        <ele>283.830292</ele>
      </trkpt>
      <trkpt lat="43.21892" lon="-0.72458">
        <ele>283.547089</ele>
      </trkpt>
      <trkpt lat="43.21911" lon="-0.72442">
        <ele>284.205719</ele>
      </trkpt>
      <trkpt lat="43.21937" lon="-0.72428">
        <ele>283.977356</ele>
      </trkpt>
      <trkpt lat="43.21964" lon="-0.72403">
        <ele>284.078003</ele>
      </trkpt>
      <trkpt lat="43.21978" lon="-0.72382">
        <ele>283.964844</ele>
      </trkpt>
      <trkpt lat="43.21983" lon="-0.72355">
        <ele>284.049744</ele>
      </trkpt>
      <trkpt lat="43.21984" lon="-0.72333">
        <ele>284.074646</ele>
      </trkpt>
      <trkpt lat="43.21987" lon="-0.72294">
        <ele>284.42569</ele>
      </trkpt>
      <trkpt lat="43.21994" lon="-0.72267">
        <ele>284.87265</ele>
      </trkpt>
      <trkpt lat="43.22016" lon="-0.72235">
        <ele>285.271179</ele>
      </trkpt>
      <trkpt lat="43.22033" lon="-0.72199">
        <ele>284.72168</ele>
      </trkpt>
      <trkpt lat="43.22044" lon="-0.72163">
        <ele>285.084198</ele>
      </trkpt>
      <trkpt lat="43.22046" lon="-0.72122">
        <ele>285.212036</ele>
      </trkpt>
      <trkpt lat="43.22047" lon="-0.72063">
        <ele>284.670959</ele>
      </trkpt>
      <trkpt lat="43.22065" lon="-0.71965">
        <ele>283.884766</ele>
      </trkpt>
      <trkpt lat="43.22094" lon="-0.71909">
        <ele>283.032806</ele>
      </trkpt>
      <trkpt lat="43.22124" lon="-0.71837">
        <ele>279.508728</ele>
      </trkpt>
      <trkpt lat="43.22144" lon="-0.71776">
        <ele>278.23053</ele>
      </trkpt>
      <trkpt lat="43.22155" lon="-0.71736">
        <ele>278.782623</ele>
      </trkpt>
      <trkpt lat="43.2215" lon="-0.7168">
        <ele>276.476013</ele>
      </trkpt>
      <trkpt lat="43.2214" lon="-0.71628">
        <ele>274.553467</ele>
      </trkpt>
      <trkpt lat="43.22141" lon="-0.71598">
        <ele>274.220032</ele>
      </trkpt>
      <trkpt lat="43.22158" lon="-0.71555">
        <ele>271.66568</ele>
      </trkpt>
      <trkpt lat="43.22176" lon="-0.71503">
        <ele>266.26358</ele>
      </trkpt>
      <trkpt lat="43.222" lon="-0.71442">
        <ele>264.140015</ele>
      </trkpt>
      <trkpt lat="43.22216" lon="-0.71409">
        <ele>262.181671</ele>
      </trkpt>
      <trkpt lat="43.2225" lon="-0.71395">
        <ele>262.620728</ele>
      </trkpt>
      <trkpt lat="43.22304" lon="-0.7138">
        <ele>263.704926</ele>
      </trkpt>
      <trkpt lat="43.22339" lon="-0.71352">
        <ele>263.330261</ele>
      </trkpt>
      <trkpt lat="43.2238" lon="-0.71322">
        <ele>264.085815</ele>
      </trkpt>
      <trkpt lat="43.2241" lon="-0.71286">
        <ele>264.527374</ele>
      </trkpt>
      <trkpt lat="43.22428" lon="-0.7125">
        <ele>264.502502</ele>
      </trkpt>
      <trkpt lat="43.22458" lon="-0.7117">
        <ele>259.462372</ele>
      </trkpt>
      <trkpt lat="43.2247" lon="-0.71144">
        <ele>258.182343</ele>
      </trkpt>
      <trkpt lat="43.22548" lon="-0.71018">
        <ele>254.259232</ele>
      </trkpt>
      <trkpt lat="43.22504" lon="-0.71031">
        <ele>255.122498</ele>
      </trkpt>
      <trkpt lat="43.22453" lon="-0.71043">
        <ele>258.481323</ele>
      </trkpt>
      <trkpt lat="43.22446" lon="-0.71037">
        <ele>258.000488</ele>
      </trkpt>
      <trkpt lat="43.22425" lon="-0.71006">
        <ele>257.007385</ele>
      </trkpt>
      <trkpt lat="43.22405" lon="-0.70979">
        <ele>256.042999</ele>
      </trkpt>
      <trkpt lat="43.22386" lon="-0.70951">
        <ele>254.943924</ele>
      </trkpt>
      <trkpt lat="43.22373" lon="-0.70933">
        <ele>255.690491</ele>
      </trkpt>
      <trkpt lat="43.22361" lon="-0.70924">
        <ele>257.014343</ele>
      </trkpt>
      <trkpt lat="43.22346" lon="-0.7092">
        <ele>256.714478</ele>
      </trkpt>
      <trkpt lat="43.22309" lon="-0.70922">
        <ele>256.206909</ele>
      </trkpt>
      <trkpt lat="43.22284" lon="-0.70921">
        <ele>251.834076</ele>
      </trkpt>
      <trkpt lat="43.22232" lon="-0.70922">
        <ele>248.552765</ele>
      </trkpt>
      <trkpt lat="43.22209" lon="-0.70924">
        <ele>248.669128</ele>
      </trkpt>
      <trkpt lat="43.22196" lon="-0.70923">
        <ele>248.510788</ele>
      </trkpt>
      <trkpt lat="43.22178" lon="-0.70918">
        <ele>248.06485</ele>
      </trkpt>
      <trkpt lat="43.22165" lon="-0.70911">
        <ele>247.26741</ele>
      </trkpt>
      <trkpt lat="43.22154" lon="-0.70897">
        <ele>246.67012</ele>
      </trkpt>
      <trkpt lat="43.22149" lon="-0.70884">
        <ele>246.543945</ele>
      </trkpt>
      <trkpt lat="43.22131" lon="-0.70851">
        <ele>246.646591</ele>
      </trkpt>
      <trkpt lat="43.22116" lon="-0.70829">
        <ele>246.206375</ele>
      </trkpt>
      <trkpt lat="43.22111" lon="-0.70806">
        <ele>246.007599</ele>
      </trkpt>
      <trkpt lat="43.22108" lon="-0.7075">
        <ele>244.36142</ele>
      </trkpt>
      <trkpt lat="43.22107" lon="-0.70704">
        <ele>243.042496</ele>
      </trkpt>
      <trkpt lat="43.22115" lon="-0.70597">
        <ele>241.17868</ele>
      </trkpt>
      <trkpt lat="43.22114" lon="-0.70577">
        <ele>241.141754</ele>
      </trkpt>
      <trkpt lat="43.22108" lon="-0.70553">
        <ele>241.24707</ele>
      </trkpt>
      <trkpt lat="43.22071" lon="-0.70482">
        <ele>239.315247</ele>
      </trkpt>
      <trkpt lat="43.22056" lon="-0.70457">
        <ele>237.975006</ele>
      </trkpt>
      <trkpt lat="43.22035" lon="-0.70426">
        <ele>233.814545</ele>
      </trkpt>
      <trkpt lat="43.21987" lon="-0.70372">
        <ele>226.769577</ele>
      </trkpt>
      <trkpt lat="43.21977" lon="-0.70357">
        <ele>226.166718</ele>
      </trkpt>
      <trkpt lat="43.21969" lon="-0.70339">
        <ele>225.76712</ele>
      </trkpt>
      <trkpt lat="43.21954" lon="-0.70217">
        <ele>225.385742</ele>
      </trkpt>
      <trkpt lat="43.21952" lon="-0.70155">
        <ele>224.092758</ele>
      </trkpt>
      <trkpt lat="43.21953" lon="-0.70073">
        <ele>222.233749</ele>
      </trkpt>
      <trkpt lat="43.21955" lon="-0.70006">
        <ele>221.519043</ele>
      </trkpt>
      <trkpt lat="43.21961" lon="-0.69956">
        <ele>221.199005</ele>
      </trkpt>
      <trkpt lat="43.21971" lon="-0.69916">
        <ele>221.359772</ele>
      </trkpt>
      <trkpt lat="43.21988" lon="-0.69816">
        <ele>220.959793</ele>
      </trkpt>
      <trkpt lat="43.21997" lon="-0.69736">
        <ele>217.152176</ele>
      </trkpt>
      <trkpt lat="43.22001" lon="-0.69718">
        <ele>215.419022</ele>
      </trkpt>
      <trkpt lat="43.22012" lon="-0.69677">
        <ele>211.746872</ele>
      </trkpt>
      <trkpt lat="43.22027" lon="-0.69634">
        <ele>208.134369</ele>
      </trkpt>
      <trkpt lat="43.22031" lon="-0.69606">
        <ele>206.736252</ele>
      </trkpt>
      <trkpt lat="43.22028" lon="-0.69544">
        <ele>204.137497</ele>
      </trkpt>
      <trkpt lat="43.22024" lon="-0.69511">
        <ele>203.059998</ele>
      </trkpt>
      <trkpt lat="43.22008" lon="-0.69408">
        <ele>199.69751</ele>
      </trkpt>
      <trkpt lat="43.22007" lon="-0.69384">
        <ele>198.596375</ele>
      </trkpt>
      <trkpt lat="43.2201" lon="-0.69324">
        <ele>196.782501</ele>
      </trkpt>
      <trkpt lat="43.22024" lon="-0.69321">
        <ele>196.445328</ele>
      </trkpt>
      <trkpt lat="43.22037" lon="-0.69323">
        <ele>196.182037</ele>
      </trkpt>
      <trkpt lat="43.22048" lon="-0.69331">
        <ele>196.07814</ele>
      </trkpt>
      <trkpt lat="43.22062" lon="-0.69346">
        <ele>196.194519</ele>
      </trkpt>
      <trkpt lat="43.22089" lon="-0.69381">
        <ele>196</ele>
      </trkpt>
      <trkpt lat="43.22099" lon="-0.6939">
        <ele>196.003342</ele>
      </trkpt>
      <trkpt lat="43.22112" lon="-0.69395">
        <ele>196.032547</ele>
      </trkpt>
      <trkpt lat="43.2213" lon="-0.69398">
        <ele>196.007477</ele>
      </trkpt>
      <trkpt lat="43.2225" lon="-0.69367">
        <ele>198.572495</ele>
      </trkpt>
      <trkpt lat="43.22267" lon="-0.69361">
        <ele>198.955002</ele>
      </trkpt>
      <trkpt lat="43.2228" lon="-0.6935">
        <ele>199.297348</ele>
      </trkpt>
      <trkpt lat="43.22308" lon="-0.69321">
        <ele>199.274185</ele>
      </trkpt>
      <trkpt lat="43.22332" lon="-0.69299">
        <ele>198.410431</ele>
      </trkpt>
      <trkpt lat="43.22352" lon="-0.69293">
        <ele>197.757034</ele>
      </trkpt>
      <trkpt lat="43.22458" lon="-0.69271">
        <ele>196</ele>
      </trkpt>
      <trkpt lat="43.22523" lon="-0.69256">
        <ele>196.595001</ele>
      </trkpt>
      <trkpt lat="43.22722" lon="-0.69214">
        <ele>199.205887</ele>
      </trkpt>
      <trkpt lat="43.22841" lon="-0.69202">
        <ele>199.134064</ele>
      </trkpt>
      <trkpt lat="43.22858" lon="-0.69194">
        <ele>199.33371</ele>
      </trkpt>
      <trkpt lat="43.22886" lon="-0.69174">
        <ele>199.237503</ele>
      </trkpt>
      <trkpt lat="43.22913" lon="-0.69175">
        <ele>199.615005</ele>
      </trkpt>
      <trkpt lat="43.22934" lon="-0.69178">
        <ele>199.671249</ele>
      </trkpt>
      <trkpt lat="43.23051" lon="-0.69198">
        <ele>200.142502</ele>
      </trkpt>
      <trkpt lat="43.23081" lon="-0.69209">
        <ele>200.425003</ele>
      </trkpt>
      <trkpt lat="43.23116" lon="-0.69216">
        <ele>199.851242</ele>
      </trkpt>
      <trkpt lat="43.23147" lon="-0.69182">
        <ele>198.13562</ele>
      </trkpt>
      <trkpt lat="43.23213" lon="-0.69117">
        <ele>196.094742</ele>
      </trkpt>
      <trkpt lat="43.23235" lon="-0.69097">
        <ele>195.755402</ele>
      </trkpt>
      <trkpt lat="43.23269" lon="-0.69059">
        <ele>194.947495</ele>
      </trkpt>
      <trkpt lat="43.23305" lon="-0.69007">
        <ele>194.381958</ele>
      </trkpt>
      <trkpt lat="43.23315" lon="-0.68982">
        <ele>194.644379</ele>
      </trkpt>
      <trkpt lat="43.23324" lon="-0.6895">
        <ele>194.800003</ele>
      </trkpt>
      <trkpt lat="43.23326" lon="-0.68935">
        <ele>194.764999</ele>
      </trkpt>
      <trkpt lat="43.2334" lon="-0.68913">
        <ele>194.457504</ele>
      </trkpt>
      <trkpt lat="43.23367" lon="-0.68887">
        <ele>194</ele>
      </trkpt>
      <trkpt lat="43.23381" lon="-0.68866">
        <ele>194</ele>
      </trkpt>
      <trkpt lat="43.2339" lon="-0.68849">
        <ele>194</ele>
      </trkpt>
      <trkpt lat="43.23385" lon="-0.68831">
        <ele>194</ele>
      </trkpt>
      <trkpt lat="43.23367" lon="-0.6881">
        <ele>194</ele>
      </trkpt>
      <trkpt lat="43.23358" lon="-0.68791">
        <ele>194.025558</ele>
      </trkpt>
      <trkpt lat="43.23294" lon="-0.68621">
        <ele>192.821259</ele>
      </trkpt>
      <trkpt lat="43.23286" lon="-0.68589">
        <ele>192.852493</ele>
      </trkpt>
      <trkpt lat="43.23279" lon="-0.68533">
        <ele>193.058899</ele>
      </trkpt>
      <trkpt lat="43.23273" lon="-0.68489">
        <ele>193.202499</ele>
      </trkpt>
      <trkpt lat="43.23271" lon="-0.68435">
        <ele>193.279999</ele>
      </trkpt>
      <trkpt lat="43.23272" lon="-0.68389">
        <ele>193.307495</ele>
      </trkpt>
      <trkpt lat="43.23273" lon="-0.68368">
        <ele>193.297501</ele>
      </trkpt>
      <trkpt lat="43.23282" lon="-0.68314">
        <ele>193.58252</ele>
      </trkpt>
      <trkpt lat="43.23284" lon="-0.6828">
        <ele>194.074081</ele>
      </trkpt>
      <trkpt lat="43.23288" lon="-0.68189">
        <ele>197.20256</ele>
      </trkpt>
      <trkpt lat="43.23287" lon="-0.68177">
        <ele>198.029312</ele>
      </trkpt>
      <trkpt lat="43.23282" lon="-0.68168">
        <ele>198.58255</ele>
      </trkpt>
      <trkpt lat="43.23266" lon="-0.68161">
        <ele>198.974365</ele>
      </trkpt>
      <trkpt lat="43.23203" lon="-0.68144">
        <ele>199.033676</ele>
      </trkpt>
      <trkpt lat="43.2316" lon="-0.6812">
        <ele>199.714951</ele>
      </trkpt>
      <trkpt lat="43.23118" lon="-0.68082">
        <ele>201.337448</ele>
      </trkpt>
      <trkpt lat="43.23102" lon="-0.68001">
        <ele>212.259918</ele>
      </trkpt>
      <trkpt lat="43.23087" lon="-0.67977">
        <ele>215.507156</ele>
      </trkpt>
      <trkpt lat="43.23079" lon="-0.67962">
        <ele>217.346436</ele>
      </trkpt>
      <trkpt lat="43.23054" lon="-0.67938">
        <ele>219.426483</ele>
      </trkpt>
      <trkpt lat="43.23007" lon="-0.67896">
        <ele>221.572495</ele>
      </trkpt>
      <trkpt lat="43.22983" lon="-0.67866">
        <ele>221.443481</ele>
      </trkpt>
      <trkpt lat="43.22955" lon="-0.67828">
        <ele>220.682098</ele>
      </trkpt>
      <trkpt lat="43.22884" lon="-0.67749">
        <ele>218.821198</ele>
      </trkpt>
      <trkpt lat="43.22864" lon="-0.67729">
        <ele>218.617096</ele>
      </trkpt>
      <trkpt lat="43.22857" lon="-0.67721">
        <ele>218.670151</ele>
      </trkpt>
      <trkpt lat="43.22848" lon="-0.67694">
        <ele>219.469528</ele>
      </trkpt>
      <trkpt lat="43.2285" lon="-0.67682">
        <ele>219.89859</ele>
      </trkpt>
      <trkpt lat="43.22859" lon="-0.6767">
        <ele>220.246613</ele>
      </trkpt>
      <trkpt lat="43.22872" lon="-0.6766">
        <ele>220.379074</ele>
      </trkpt>
      <trkpt lat="43.22889" lon="-0.67642">
        <ele>219.819077</ele>
      </trkpt>
      <trkpt lat="43.22901" lon="-0.6762">
        <ele>217.691513</ele>
      </trkpt>
      <trkpt lat="43.22906" lon="-0.67594">
        <ele>215.333572</ele>
      </trkpt>
      <trkpt lat="43.22915" lon="-0.67566">
        <ele>211.937592</ele>
      </trkpt>
      <trkpt lat="43.22924" lon="-0.67541">
        <ele>208.409546</ele>
      </trkpt>
      <trkpt lat="43.2293" lon="-0.67529">
        <ele>206.442856</ele>
      </trkpt>
      <trkpt lat="43.22923" lon="-0.67528">
        <ele>206.860123</ele>
      </trkpt>
      <trkpt lat="43.22918" lon="-0.67523">
        <ele>206.556381</ele>
      </trkpt>
      <trkpt lat="43.22911" lon="-0.67522">
        <ele>207.051529</ele>
      </trkpt>
      <trkpt lat="43.22898" lon="-0.67525">
        <ele>208.438583</ele>
      </trkpt>
      <trkpt lat="43.2289" lon="-0.67529">
        <ele>209.793121</ele>
      </trkpt>
      <trkpt lat="43.22878" lon="-0.67539">
        <ele>212.023117</ele>
      </trkpt>
      <trkpt lat="43.22868" lon="-0.67553">
        <ele>214.493118</ele>
      </trkpt>
      <trkpt lat="43.22826" lon="-0.67581">
        <ele>220.921021</ele>
      </trkpt>
      <trkpt lat="43.22807" lon="-0.67582">
        <ele>221.949463</ele>
      </trkpt>
      <trkpt lat="43.2276" lon="-0.67581">
        <ele>221.801514</ele>
      </trkpt>
      <trkpt lat="43.22709" lon="-0.67576">
        <ele>220.64769</ele>
      </trkpt>
      <trkpt lat="43.22695" lon="-0.67569">
        <ele>220.347244</ele>
      </trkpt>
      <trkpt lat="43.22666" lon="-0.67566">
        <ele>219.898376</ele>
      </trkpt>
      <trkpt lat="43.22629" lon="-0.67581">
        <ele>218.639999</ele>
      </trkpt>
      <trkpt lat="43.2259" lon="-0.67589">
        <ele>218.145004</ele>
      </trkpt>
      <trkpt lat="43.22554" lon="-0.67594">
        <ele>218.245514</ele>
      </trkpt>
      <trkpt lat="43.22533" lon="-0.67595">
        <ele>218.699188</ele>
      </trkpt>
      <trkpt lat="43.22493" lon="-0.67601">
        <ele>220.060532</ele>
      </trkpt>
      <trkpt lat="43.22476" lon="-0.67609">
        <ele>220.403656</ele>
      </trkpt>
      <trkpt lat="43.22457" lon="-0.67626">
        <ele>220.787491</ele>
      </trkpt>
      <trkpt lat="43.22436" lon="-0.67649">
        <ele>219.272354</ele>
      </trkpt>
      <trkpt lat="43.22433" lon="-0.67645">
        <ele>219.542511</ele>
      </trkpt>
      <trkpt lat="43.22436" lon="-0.67601">
        <ele>221.545685</ele>
      </trkpt>
      <trkpt lat="43.2242" lon="-0.67592">
        <ele>221.911087</ele>
      </trkpt>
      <trkpt lat="43.22396" lon="-0.67583">
        <ele>221.996246</ele>
      </trkpt>
      <trkpt lat="43.22372" lon="-0.6757">
        <ele>221.861252</ele>
      </trkpt>
      <trkpt lat="43.22344" lon="-0.67552">
        <ele>221.195114</ele>
      </trkpt>
      <trkpt lat="43.22286" lon="-0.67527">
        <ele>220.518845</ele>
      </trkpt>
      <trkpt lat="43.22251" lon="-0.67518">
        <ele>220.755005</ele>
      </trkpt>
      <trkpt lat="43.22245" lon="-0.67493">
        <ele>221.951248</ele>
      </trkpt>
      <trkpt lat="43.22243" lon="-0.67411">
        <ele>220.858124</ele>
      </trkpt>
      <trkpt lat="43.22235" lon="-0.67409">
        <ele>220.974991</ele>
      </trkpt>
      <trkpt lat="43.22197" lon="-0.67394">
        <ele>220.791519</ele>
      </trkpt>
      <trkpt lat="43.22159" lon="-0.67385">
        <ele>220.662506</ele>
      </trkpt>
      <trkpt lat="43.22134" lon="-0.67382">
        <ele>220.701675</ele>
      </trkpt>
      <trkpt lat="43.22121" lon="-0.67378">
        <ele>220.776169</ele>
      </trkpt>
      <trkpt lat="43.221" lon="-0.6738">
        <ele>221</ele>
      </trkpt>
      <trkpt lat="43.22064" lon="-0.67388">
        <ele>220.574677</ele>
      </trkpt>
      <trkpt lat="43.21989" lon="-0.67409">
        <ele>220.867493</ele>
      </trkpt>
      <trkpt lat="43.21939" lon="-0.67436">
        <ele>221.354996</ele>
      </trkpt>
      <trkpt lat="43.21893" lon="-0.67474">
        <ele>222.008392</ele>
      </trkpt>
      <trkpt lat="43.21865" lon="-0.67504">
        <ele>222.67688</ele>
      </trkpt>
      <trkpt lat="43.21841" lon="-0.67523">
        <ele>223.517502</ele>
      </trkpt>
      <trkpt lat="43.21825" lon="-0.67522">
        <ele>223.873932</ele>
      </trkpt>
      <trkpt lat="43.21802" lon="-0.67517">
        <ele>224.210785</ele>
      </trkpt>
      <trkpt lat="43.21781" lon="-0.67517">
        <ele>224.619995</ele>
      </trkpt>
      <trkpt lat="43.21762" lon="-0.67536">
        <ele>225.53688</ele>
      </trkpt>
      <trkpt lat="43.21722" lon="-0.67585">
        <ele>227.495758</ele>
      </trkpt>
      <trkpt lat="43.21697" lon="-0.67623">
        <ele>229.585922</ele>
      </trkpt>
      <trkpt lat="43.21693" lon="-0.67635">
        <ele>230.193985</ele>
      </trkpt>
      <trkpt lat="43.21687" lon="-0.67659">
        <ele>231</ele>
      </trkpt>
      <trkpt lat="43.21672" lon="-0.67695">
        <ele>232.424454</ele>
      </trkpt>
      <trkpt lat="43.2166" lon="-0.67715">
        <ele>233.561981</ele>
      </trkpt>
      <trkpt lat="43.21649" lon="-0.67726">
        <ele>234.367966</ele>
      </trkpt>
      <trkpt lat="43.21639" lon="-0.67727">
        <ele>235.46933</ele>
      </trkpt>
      <trkpt lat="43.21609" lon="-0.6772">
        <ele>238.701935</ele>
      </trkpt>
      <trkpt lat="43.21555" lon="-0.6771">
        <ele>242.634659</ele>
      </trkpt>
      <trkpt lat="43.21542" lon="-0.67706">
        <ele>243.125565</ele>
      </trkpt>
      <trkpt lat="43.21515" lon="-0.67689">
        <ele>243.034653</ele>
      </trkpt>
      <trkpt lat="43.21506" lon="-0.67687">
        <ele>243.019424</ele>
      </trkpt>
      <trkpt lat="43.2149" lon="-0.67688">
        <ele>243.130325</ele>
      </trkpt>
      <trkpt lat="43.21457" lon="-0.67702">
        <ele>244.153961</ele>
      </trkpt>
      <trkpt lat="43.21443" lon="-0.67715">
        <ele>244.980957</ele>
      </trkpt>
      <trkpt lat="43.21429" lon="-0.67731">
        <ele>246.958008</ele>
      </trkpt>
      <trkpt lat="43.2142" lon="-0.67735">
        <ele>247.9655</ele>
      </trkpt>
      <trkpt lat="43.21405" lon="-0.67733">
        <ele>250.399994</ele>
      </trkpt>
      <trkpt lat="43.21389" lon="-0.6772">
        <ele>251.892502</ele>
      </trkpt>
      <trkpt lat="43.21363" lon="-0.67702">
        <ele>254.81546</ele>
      </trkpt>
      <trkpt lat="43.21324" lon="-0.67704">
        <ele>261.489227</ele>
      </trkpt>
      <trkpt lat="43.21317" lon="-0.67695">
        <ele>261.375092</ele>
      </trkpt>
      <trkpt lat="43.21307" lon="-0.67676">
        <ele>259.925171</ele>
      </trkpt>
      <trkpt lat="43.21293" lon="-0.67659">
        <ele>259.083435</ele>
      </trkpt>
      <trkpt lat="43.21279" lon="-0.67653">
        <ele>259.926208</ele>
      </trkpt>
      <trkpt lat="43.21264" lon="-0.67651">
        <ele>260.225983</ele>
      </trkpt>
      <trkpt lat="43.21257" lon="-0.67651">
        <ele>260.471985</ele>
      </trkpt>
      <trkpt lat="43.21251" lon="-0.67652">
        <ele>260.658539</ele>
      </trkpt>
      <trkpt lat="43.21244" lon="-0.67648">
        <ele>260.802338</ele>
      </trkpt>
      <trkpt lat="43.21227" lon="-0.67614">
        <ele>261.262085</ele>
      </trkpt>
      <trkpt lat="43.21173" lon="-0.67496">
        <ele>265.595001</ele>
      </trkpt>
      <trkpt lat="43.21149" lon="-0.67446">
        <ele>265.465546</ele>
      </trkpt>
      <trkpt lat="43.21144" lon="-0.67437">
        <ele>265.317383</ele>
      </trkpt>
      <trkpt lat="43.21135" lon="-0.67428">
        <ele>265.097809</ele>
      </trkpt>
      <trkpt lat="43.21129" lon="-0.67429">
        <ele>265.293945</ele>
      </trkpt>
      <trkpt lat="43.21107" lon="-0.67439">
        <ele>266.059235</ele>
      </trkpt>
      <trkpt lat="43.21097" lon="-0.67429">
        <ele>265.637665</ele>
      </trkpt>
      <trkpt lat="43.21064" lon="-0.67374">
        <ele>264.079346</ele>
      </trkpt>
      <trkpt lat="43.2106" lon="-0.67357">
        <ele>264</ele>
      </trkpt>
      <trkpt lat="43.21053" lon="-0.67306">
        <ele>264.005035</ele>
      </trkpt>
      <trkpt lat="43.21044" lon="-0.67277">
        <ele>264.218781</ele>
      </trkpt>
      <trkpt lat="43.21033" lon="-0.67253">
        <ele>264.167633</ele>
      </trkpt>
      <trkpt lat="43.21027" lon="-0.67233">
        <ele>264.046692</ele>
      </trkpt>
      <trkpt lat="43.21014" lon="-0.67177">
        <ele>262.88031</ele>
      </trkpt>
      <trkpt lat="43.21004" lon="-0.67158">
        <ele>262.166534</ele>
      </trkpt>
      <trkpt lat="43.20987" lon="-0.67119">
        <ele>261.251099</ele>
      </trkpt>
      <trkpt lat="43.20963" lon="-0.67071">
        <ele>261.454865</ele>
      </trkpt>
      <trkpt lat="43.20959" lon="-0.67055">
        <ele>261.834991</ele>
      </trkpt>
      <trkpt lat="43.20964" lon="-0.67102">
        <ele>260.306763</ele>
      </trkpt>
      <trkpt lat="43.2097" lon="-0.67121">
        <ele>260.063568</ele>
      </trkpt>
      <trkpt lat="43.20973" lon="-0.67149">
        <ele>259.705627</ele>
      </trkpt>
      <trkpt lat="43.20972" lon="-0.67183">
        <ele>258.871674</ele>
      </trkpt>
      <trkpt lat="43.20965" lon="-0.67208">
        <ele>257.942505</ele>
      </trkpt>
      <trkpt lat="43.20963" lon="-0.67226">
        <ele>257.504181</ele>
      </trkpt>
      <trkpt lat="43.20953" lon="-0.6726">
        <ele>255.601883</ele>
      </trkpt>
      <trkpt lat="43.20936" lon="-0.67293">
        <ele>252.561874</ele>
      </trkpt>
      <trkpt lat="43.20931" lon="-0.67311">
        <ele>251.572662</ele>
      </trkpt>
      <trkpt lat="43.20924" lon="-0.67432">
        <ele>250.56813</ele>
      </trkpt>
      <trkpt lat="43.2092" lon="-0.67469">
        <ele>252.315155</ele>
      </trkpt>
      <trkpt lat="43.2091" lon="-0.67505">
        <ele>253.664932</ele>
      </trkpt>
      <trkpt lat="43.20899" lon="-0.6752">
        <ele>253.553772</ele>
      </trkpt>
      <trkpt lat="43.20883" lon="-0.67557">
        <ele>255.743256</ele>
      </trkpt>
      <trkpt lat="43.20875" lon="-0.67591">
        <ele>258.97052</ele>
      </trkpt>
      <trkpt lat="43.20856" lon="-0.67593">
        <ele>257.598938</ele>
      </trkpt>
      <trkpt lat="43.20834" lon="-0.67592">
        <ele>255.634598</ele>
      </trkpt>
      <trkpt lat="43.20825" lon="-0.67594">
        <ele>255.696075</ele>
      </trkpt>
      <trkpt lat="43.20809" lon="-0.67595">
        <ele>255.200058</ele>
      </trkpt>
      <trkpt lat="43.20788" lon="-0.67599">
        <ele>254.727432</ele>
      </trkpt>
      <trkpt lat="43.20774" lon="-0.67599">
        <ele>253.908188</ele>
      </trkpt>
      <trkpt lat="43.2077" lon="-0.67606">
        <ele>254.544678</ele>
      </trkpt>
      <trkpt lat="43.20763" lon="-0.67651">
        <ele>259.834747</ele>
      </trkpt>
      <trkpt lat="43.20755" lon="-0.67666">
        <ele>261.183289</ele>
      </trkpt>
      <trkpt lat="43.20735" lon="-0.67696">
        <ele>261.226929</ele>
      </trkpt>
      <trkpt lat="43.20721" lon="-0.67719">
        <ele>261.169098</ele>
      </trkpt>
      <trkpt lat="43.20709" lon="-0.67734">
        <ele>260.296478</ele>
      </trkpt>
      <trkpt lat="43.20671" lon="-0.67774">
        <ele>260.099487</ele>
      </trkpt>
      <trkpt lat="43.20653" lon="-0.67797">
        <ele>260.581512</ele>
      </trkpt>
      <trkpt lat="43.20637" lon="-0.6782">
        <ele>260.615784</ele>
      </trkpt>
      <trkpt lat="43.2063" lon="-0.67836">
        <ele>261.101044</ele>
      </trkpt>
      <trkpt lat="43.2063" lon="-0.67851">
        <ele>261.779205</ele>
      </trkpt>
      <trkpt lat="43.20603" lon="-0.67904">
        <ele>265.167511</ele>
      </trkpt>
      <trkpt lat="43.20586" lon="-0.67932">
        <ele>265.747345</ele>
      </trkpt>
      <trkpt lat="43.2058" lon="-0.6794">
        <ele>266.019684</ele>
      </trkpt>
      <trkpt lat="43.20569" lon="-0.6794">
        <ele>265.887482</ele>
      </trkpt>
      <trkpt lat="43.20558" lon="-0.67947">
        <ele>266.283356</ele>
      </trkpt>
      <trkpt lat="43.20545" lon="-0.6796">
        <ele>267.294739</ele>
      </trkpt>
      <trkpt lat="43.20523" lon="-0.67964">
        <ele>267.978271</ele>
      </trkpt>
      <trkpt lat="43.20501" lon="-0.67971">
        <ele>269.198242</ele>
      </trkpt>
      <trkpt lat="43.20493" lon="-0.67973">
        <ele>269.844971</ele>
      </trkpt>
      <trkpt lat="43.20488" lon="-0.67969">
        <ele>270.110016</ele>
      </trkpt>
      <trkpt lat="43.2048" lon="-0.67969">
        <ele>270.690247</ele>
      </trkpt>
      <trkpt lat="43.20469" lon="-0.67967">
        <ele>271.442108</ele>
      </trkpt>
      <trkpt lat="43.20453" lon="-0.67974">
        <ele>272.837616</ele>
      </trkpt>
      <trkpt lat="43.20359" lon="-0.68043">
        <ele>283.421967</ele>
      </trkpt>
      <trkpt lat="43.20331" lon="-0.68055">
        <ele>287.411377</ele>
      </trkpt>
      <trkpt lat="43.20314" lon="-0.68071">
        <ele>290.783905</ele>
      </trkpt>
      <trkpt lat="43.20306" lon="-0.68106">
        <ele>293.20401</ele>
      </trkpt>
      <trkpt lat="43.203" lon="-0.68117">
        <ele>294.867462</ele>
      </trkpt>
      <trkpt lat="43.20308" lon="-0.68157">
        <ele>291.506683</ele>
      </trkpt>
      <trkpt lat="43.20283" lon="-0.68201">
        <ele>294.965271</ele>
      </trkpt>
      <trkpt lat="43.20256" lon="-0.68255">
        <ele>297.479706</ele>
      </trkpt>
      <trkpt lat="43.20232" lon="-0.68298">
        <ele>302.632263</ele>
      </trkpt>
      <trkpt lat="43.20229" lon="-0.68331">
        <ele>302.946869</ele>
      </trkpt>
      <trkpt lat="43.20224" lon="-0.68353">
        <ele>302.6297</ele>
      </trkpt>
      <trkpt lat="43.20207" lon="-0.68407">
        <ele>302.102264</ele>
      </trkpt>
      <trkpt lat="43.20199" lon="-0.68449">
        <ele>304.061493</ele>
      </trkpt>
      <trkpt lat="43.20193" lon="-0.68476">
        <ele>306.608063</ele>
      </trkpt>
      <trkpt lat="43.20175" lon="-0.68519">
        <ele>313.275543</ele>
      </trkpt>
      <trkpt lat="43.20164" lon="-0.68539">
        <ele>316.4198</ele>
      </trkpt>
      <trkpt lat="43.20128" lon="-0.68559">
        <ele>318.11734</ele>
      </trkpt>
      <trkpt lat="43.20089" lon="-0.68601">
        <ele>323.365875</ele>
      </trkpt>
      <trkpt lat="43.20078" lon="-0.68616">
        <ele>324.910126</ele>
      </trkpt>
      <trkpt lat="43.20058" lon="-0.68631">
        <ele>324.494324</ele>
      </trkpt>
      <trkpt lat="43.19994" lon="-0.68663">
        <ele>323.667816</ele>
      </trkpt>
      <trkpt lat="43.19921" lon="-0.68613">
        <ele>311.537231</ele>
      </trkpt>
      <trkpt lat="43.19871" lon="-0.68583">
        <ele>302.501862</ele>
      </trkpt>
      <trkpt lat="43.19865" lon="-0.68578">
        <ele>301.103119</ele>
      </trkpt>
      <trkpt lat="43.1986" lon="-0.68577">
        <ele>300.208435</ele>
      </trkpt>
      <trkpt lat="43.19842" lon="-0.68582">
        <ele>299.566772</ele>
      </trkpt>
      <trkpt lat="43.19824" lon="-0.68586">
        <ele>298.181152</ele>
      </trkpt>
      <trkpt lat="43.19807" lon="-0.68592">
        <ele>297.91922</ele>
      </trkpt>
      <trkpt lat="43.19802" lon="-0.68593">
        <ele>297.630554</ele>
      </trkpt>
      <trkpt lat="43.19787" lon="-0.68593">
        <ele>296.392731</ele>
      </trkpt>
      <trkpt lat="43.19754" lon="-0.68585">
        <ele>291.747223</ele>
      </trkpt>
      <trkpt lat="43.19734" lon="-0.68576">
        <ele>287.981537</ele>
      </trkpt>
      <trkpt lat="43.1972" lon="-0.68573">
        <ele>286.483612</ele>
      </trkpt>
      <trkpt lat="43.19703" lon="-0.68567">
        <ele>284.783478</ele>
      </trkpt>
      <trkpt lat="43.19666" lon="-0.68559">
        <ele>283.894501</ele>
      </trkpt>
      <trkpt lat="43.19651" lon="-0.68551">
        <ele>283.608704</ele>
      </trkpt>
      <trkpt lat="43.19607" lon="-0.68516">
        <ele>280.232269</ele>
      </trkpt>
      <trkpt lat="43.19591" lon="-0.68513">
        <ele>279.602295</ele>
      </trkpt>
      <trkpt lat="43.19581" lon="-0.68513">
        <ele>279.434113</ele>
      </trkpt>
      <trkpt lat="43.1957" lon="-0.68518">
        <ele>281.137482</ele>
      </trkpt>
      <trkpt lat="43.19556" lon="-0.68521">
        <ele>281.381531</ele>
      </trkpt>
      <trkpt lat="43.19535" lon="-0.68531">
        <ele>281.491882</ele>
      </trkpt>
      <trkpt lat="43.19515" lon="-0.68532">
        <ele>280.699371</ele>
      </trkpt>
      <trkpt lat="43.19502" lon="-0.68528">
        <ele>280.139893</ele>
      </trkpt>
      <trkpt lat="43.19494" lon="-0.68522">
        <ele>279.950287</ele>
      </trkpt>
      <trkpt lat="43.19478" lon="-0.68501">
        <ele>278.643982</ele>
      </trkpt>
      <trkpt lat="43.19472" lon="-0.68493">
        <ele>278.180725</ele>
      </trkpt>
      <trkpt lat="43.19452" lon="-0.68473">
        <ele>277.255646</ele>
      </trkpt>
      <trkpt lat="43.19438" lon="-0.68474">
        <ele>276.561035</ele>
      </trkpt>
      <trkpt lat="43.19426" lon="-0.68472">
        <ele>275.709747</ele>
      </trkpt>
      <trkpt lat="43.19408" lon="-0.68477">
        <ele>273.852997</ele>
      </trkpt>
      <trkpt lat="43.19393" lon="-0.68485">
        <ele>272.000488</ele>
      </trkpt>
      <trkpt lat="43.1938" lon="-0.68498">
        <ele>271.618744</ele>
      </trkpt>
      <trkpt lat="43.19373" lon="-0.68499">
        <ele>270.703888</ele>
      </trkpt>
      <trkpt lat="43.19362" lon="-0.68499">
        <ele>268.472443</ele>
      </trkpt>
      <trkpt lat="43.19342" lon="-0.68509">
        <ele>266.372223</ele>
      </trkpt>
      <trkpt lat="43.19328" lon="-0.68519">
        <ele>264.763367</ele>
      </trkpt>
      <trkpt lat="43.19311" lon="-0.68529">
        <ele>263.997498</ele>
      </trkpt>
      <trkpt lat="43.19296" lon="-0.68535">
        <ele>263.320007</ele>
      </trkpt>
      <trkpt lat="43.19283" lon="-0.68536">
        <ele>262.356232</ele>
      </trkpt>
      <trkpt lat="43.19275" lon="-0.68534">
        <ele>262.128418</ele>
      </trkpt>
      <trkpt lat="43.19266" lon="-0.68526">
        <ele>261.962311</ele>
      </trkpt>
      <trkpt lat="43.19261" lon="-0.68515">
        <ele>261.499084</ele>
      </trkpt>
      <trkpt lat="43.19248" lon="-0.68452">
        <ele>258.874023</ele>
      </trkpt>
      <trkpt lat="43.19241" lon="-0.68439">
        <ele>259.07901</ele>
      </trkpt>
      <trkpt lat="43.19231" lon="-0.68426">
        <ele>255.561905</ele>
      </trkpt>
      <trkpt lat="43.19224" lon="-0.68423">
        <ele>253.622879</ele>
      </trkpt>
      <trkpt lat="43.19216" lon="-0.68422">
        <ele>252.169373</ele>
      </trkpt>
      <trkpt lat="43.19185" lon="-0.68429">
        <ele>249.800186</ele>
      </trkpt>
      <trkpt lat="43.19176" lon="-0.68429">
        <ele>249.434311</ele>
      </trkpt>
      <trkpt lat="43.19168" lon="-0.68428">
        <ele>248.80806</ele>
      </trkpt>
      <trkpt lat="43.19159" lon="-0.68419">
        <ele>247.550674</ele>
      </trkpt>
      <trkpt lat="43.19143" lon="-0.68391">
        <ele>245.887436</ele>
      </trkpt>
      <trkpt lat="43.19128" lon="-0.68379">
        <ele>245.675079</ele>
      </trkpt>
      <trkpt lat="43.19079" lon="-0.68358">
        <ele>243.646027</ele>
      </trkpt>
      <trkpt lat="43.19041" lon="-0.68315">
        <ele>240.083054</ele>
      </trkpt>
      <trkpt lat="43.19012" lon="-0.68285">
        <ele>237.425827</ele>
      </trkpt>
      <trkpt lat="43.18984" lon="-0.68261">
        <ele>234.998779</ele>
      </trkpt>
      <trkpt lat="43.18979" lon="-0.68233">
        <ele>232.114136</ele>
      </trkpt>
      <trkpt lat="43.18974" lon="-0.68209">
        <ele>229.200699</ele>
      </trkpt>
      <trkpt lat="43.18965" lon="-0.68188">
        <ele>226.71402</ele>
      </trkpt>
      <trkpt lat="43.18954" lon="-0.68173">
        <ele>225.65062</ele>
      </trkpt>
      <trkpt lat="43.1894" lon="-0.68156">
        <ele>224.859375</ele>
      </trkpt>
      <trkpt lat="43.18922" lon="-0.6812">
        <ele>222.012375</ele>
      </trkpt>
      <trkpt lat="43.18912" lon="-0.68105">
        <ele>221.670609</ele>
      </trkpt>
      <trkpt lat="43.18892" lon="-0.6808">
        <ele>220.99794</ele>
      </trkpt>
      <trkpt lat="43.18858" lon="-0.68042">
        <ele>219</ele>
      </trkpt>
      <trkpt lat="43.18855" lon="-0.68034">
        <ele>219</ele>
      </trkpt>
      <trkpt lat="43.18862" lon="-0.68024">
        <ele>219</ele>
      </trkpt>
      <trkpt lat="43.18867" lon="-0.68005">
        <ele>219</ele>
      </trkpt>
      <trkpt lat="43.18869" lon="-0.67987">
        <ele>219.170776</ele>
      </trkpt>
      <trkpt lat="43.18864" lon="-0.67966">
        <ele>219.866043</ele>
      </trkpt>
      <trkpt lat="43.18857" lon="-0.67952">
        <ele>220.043228</ele>
      </trkpt>
      <trkpt lat="43.18839" lon="-0.67938">
        <ele>219.526443</ele>
      </trkpt>
      <trkpt lat="43.18817" lon="-0.67911">
        <ele>218.96286</ele>
      </trkpt>
      <trkpt lat="43.18806" lon="-0.67894">
        <ele>218.639709</ele>
      </trkpt>
      <trkpt lat="43.18794" lon="-0.67872">
        <ele>218.659332</ele>
      </trkpt>
      <trkpt lat="43.18787" lon="-0.67867">
        <ele>218.573837</ele>
      </trkpt>
      <trkpt lat="43.18755" lon="-0.67858">
        <ele>218.063522</ele>
      </trkpt>
      <trkpt lat="43.18728" lon="-0.67845">
        <ele>218.072098</ele>
      </trkpt>
      <trkpt lat="43.18714" lon="-0.67844">
        <ele>217.994324</ele>
      </trkpt>
      <trkpt lat="43.18706" lon="-0.6786">
        <ele>218.00563</ele>
      </trkpt>
      <trkpt lat="43.18681" lon="-0.67883">
        <ele>218.414368</ele>
      </trkpt>
      <trkpt lat="43.18666" lon="-0.67895">
        <ele>218.566254</ele>
      </trkpt>
      <trkpt lat="43.18656" lon="-0.67906">
        <ele>218.531876</ele>
      </trkpt>
      <trkpt lat="43.18638" lon="-0.6793">
        <ele>218.211884</ele>
      </trkpt>
      <trkpt lat="43.18625" lon="-0.67947">
        <ele>217.586639</ele>
      </trkpt>
      <trkpt lat="43.18608" lon="-0.67963">
        <ele>216.923126</ele>
      </trkpt>
      <trkpt lat="43.18524" lon="-0.68095">
        <ele>220.850006</ele>
      </trkpt>
      <trkpt lat="43.18518" lon="-0.681">
        <ele>222.394379</ele>
      </trkpt>
      <trkpt lat="43.18512" lon="-0.68099">
        <ele>223.783752</ele>
      </trkpt>
      <trkpt lat="43.18503" lon="-0.68085">
        <ele>225.532684</ele>
      </trkpt>
      <trkpt lat="43.18496" lon="-0.68049">
        <ele>226.472321</ele>
      </trkpt>
      <trkpt lat="43.1849" lon="-0.68026">
        <ele>227.395584</ele>
      </trkpt>
      <trkpt lat="43.18478" lon="-0.67994">
        <ele>228.432236</ele>
      </trkpt>
      <trkpt lat="43.18445" lon="-0.67931">
        <ele>228.776443</ele>
      </trkpt>
      <trkpt lat="43.18435" lon="-0.67924">
        <ele>229.51857</ele>
      </trkpt>
      <trkpt lat="43.18425" lon="-0.67918">
        <ele>230.829361</ele>
      </trkpt>
      <trkpt lat="43.18414" lon="-0.67902">
        <ele>230.260178</ele>
      </trkpt>
      <trkpt lat="43.18413" lon="-0.67877">
        <ele>228.290741</ele>
      </trkpt>
      <trkpt lat="43.18417" lon="-0.67857">
        <ele>225.677094</ele>
      </trkpt>
      <trkpt lat="43.18422" lon="-0.67843">
        <ele>223.779205</ele>
      </trkpt>
      <trkpt lat="43.18425" lon="-0.67816">
        <ele>225.620087</ele>
      </trkpt>
      <trkpt lat="43.18422" lon="-0.67772">
        <ele>229.589706</ele>
      </trkpt>
      <trkpt lat="43.18406" lon="-0.67709">
        <ele>232.472656</ele>
      </trkpt>
      <trkpt lat="43.18392" lon="-0.67676">
        <ele>237.405197</ele>
      </trkpt>
      <trkpt lat="43.18376" lon="-0.67652">
        <ele>239.498154</ele>
      </trkpt>
      <trkpt lat="43.18354" lon="-0.67626">
        <ele>242.311752</ele>
      </trkpt>
      <trkpt lat="43.18328" lon="-0.67598">
        <ele>242.808121</ele>
      </trkpt>
      <trkpt lat="43.18298" lon="-0.67575">
        <ele>245.911255</ele>
      </trkpt>
      <trkpt lat="43.1828" lon="-0.67559">
        <ele>249.323746</ele>
      </trkpt>
      <trkpt lat="43.18259" lon="-0.67562">
        <ele>250.038284</ele>
      </trkpt>
      <trkpt lat="43.18237" lon="-0.67569">
        <ele>250.03302</ele>
      </trkpt>
      <trkpt lat="43.18223" lon="-0.67572">
        <ele>250.802505</ele>
      </trkpt>
      <trkpt lat="43.18214" lon="-0.67579">
        <ele>250.039993</ele>
      </trkpt>
      <trkpt lat="43.18205" lon="-0.67579">
        <ele>251.602493</ele>
      </trkpt>
      <trkpt lat="43.18206" lon="-0.67567">
        <ele>255.013748</ele>
      </trkpt>
      <trkpt lat="43.18253" lon="-0.67521">
        <ele>260.952332</ele>
      </trkpt>
      <trkpt lat="43.1827" lon="-0.6751">
        <ele>260.821472</ele>
      </trkpt>
      <trkpt lat="43.18292" lon="-0.67512">
        <ele>259.685883</ele>
      </trkpt>
      <trkpt lat="43.18315" lon="-0.67517">
        <ele>258.62384</ele>
      </trkpt>
      <trkpt lat="43.18336" lon="-0.67528">
        <ele>258.467102</ele>
      </trkpt>
      <trkpt lat="43.18348" lon="-0.67529">
        <ele>259.706238</ele>
      </trkpt>
      <trkpt lat="43.18356" lon="-0.67525">
        <ele>261.124115</ele>
      </trkpt>
      <trkpt lat="43.1836" lon="-0.67514">
        <ele>262.605103</ele>
      </trkpt>
      <trkpt lat="43.18302" lon="-0.67487">
        <ele>264.440094</ele>
      </trkpt>
      <trkpt lat="43.18266" lon="-0.67465">
        <ele>271.107697</ele>
      </trkpt>
      <trkpt lat="43.18253" lon="-0.6746">
        <ele>274.110413</ele>
      </trkpt>
      <trkpt lat="43.18226" lon="-0.67457">
        <ele>278.213287</ele>
      </trkpt>
      <trkpt lat="43.18212" lon="-0.67468">
        <ele>278.126221</ele>
      </trkpt>
      <trkpt lat="43.18204" lon="-0.67484">
        <ele>275.709381</ele>
      </trkpt>
      <trkpt lat="43.18189" lon="-0.67492">
        <ele>275.908417</ele>
      </trkpt>
      <trkpt lat="43.18195" lon="-0.67477">
        <ele>277.806366</ele>
      </trkpt>
      <trkpt lat="43.18197" lon="-0.67461">
        <ele>280.18985</ele>
      </trkpt>
      <trkpt lat="43.18208" lon="-0.67436">
        <ele>280.922821</ele>
      </trkpt>
      <trkpt lat="43.18219" lon="-0.67399">
        <ele>283.221588</ele>
      </trkpt>
      <trkpt lat="43.1823" lon="-0.67383">
        <ele>284.298492</ele>
      </trkpt>
      <trkpt lat="43.18247" lon="-0.67366">
        <ele>284.924713</ele>
      </trkpt>
      <trkpt lat="43.18272" lon="-0.67354">
        <ele>285.174286</ele>
      </trkpt>
      <trkpt lat="43.18292" lon="-0.67326">
        <ele>286.139862</ele>
      </trkpt>
      <trkpt lat="43.18311" lon="-0.67286">
        <ele>288.266998</ele>
      </trkpt>
      <trkpt lat="43.18325" lon="-0.67263">
        <ele>291.231323</ele>
      </trkpt>
      <trkpt lat="43.18342" lon="-0.6723">
        <ele>296.128845</ele>
      </trkpt>
      <trkpt lat="43.18358" lon="-0.67211">
        <ele>297.068756</ele>
      </trkpt>
      <trkpt lat="43.18379" lon="-0.67184">
        <ele>298.973358</ele>
      </trkpt>
      <trkpt lat="43.18392" lon="-0.67165">
        <ele>301.381622</ele>
      </trkpt>
      <trkpt lat="43.18397" lon="-0.67138">
        <ele>301.441345</ele>
      </trkpt>
      <trkpt lat="43.18404" lon="-0.67105">
        <ele>302.108734</ele>
      </trkpt>
      <trkpt lat="43.18409" lon="-0.67094">
        <ele>303.107819</ele>
      </trkpt>
      <trkpt lat="43.1842" lon="-0.67085">
        <ele>304.93631</ele>
      </trkpt>
      <trkpt lat="43.18428" lon="-0.67076">
        <ele>306.094849</ele>
      </trkpt>
      <trkpt lat="43.18436" lon="-0.67071">
        <ele>307.0802</ele>
      </trkpt>
      <trkpt lat="43.18444" lon="-0.6706">
        <ele>308.640594</ele>
      </trkpt>
      <trkpt lat="43.18451" lon="-0.67039">
        <ele>310.936554</ele>
      </trkpt>
      <trkpt lat="43.18456" lon="-0.66994">
        <ele>315.687134</ele>
      </trkpt>
      <trkpt lat="43.18458" lon="-0.66947">
        <ele>319.809753</ele>
      </trkpt>
      <trkpt lat="43.18458" lon="-0.66908">
        <ele>322.639801</ele>
      </trkpt>
      <trkpt lat="43.18457" lon="-0.66876">
        <ele>324.278656</ele>
      </trkpt>
      <trkpt lat="43.18453" lon="-0.66841">
        <ele>324.639648</ele>
      </trkpt>
      <trkpt lat="43.18459" lon="-0.66779">
        <ele>324.345795</ele>
      </trkpt>
      <trkpt lat="43.18472" lon="-0.66728">
        <ele>324.001221</ele>
      </trkpt>
      <trkpt lat="43.18487" lon="-0.66707">
        <ele>322.489929</ele>
      </trkpt>
      <trkpt lat="43.18512" lon="-0.66656">
        <ele>319.56781</ele>
      </trkpt>
      <trkpt lat="43.18525" lon="-0.66613">
        <ele>320.731903</ele>
      </trkpt>
      <trkpt lat="43.18537" lon="-0.66584">
        <ele>320.46637</ele>
      </trkpt>
      <trkpt lat="43.18546" lon="-0.66554">
        <ele>321.271729</ele>
      </trkpt>
      <trkpt lat="43.18564" lon="-0.66488">
        <ele>323.226013</ele>
      </trkpt>
      <trkpt lat="43.1856" lon="-0.66463">
        <ele>323.165894</ele>
      </trkpt>
      <trkpt lat="43.18554" lon="-0.6644">
        <ele>323.05014</ele>
      </trkpt>
      <trkpt lat="43.18538" lon="-0.66402">
        <ele>322.821381</ele>
      </trkpt>
      <trkpt lat="43.18529" lon="-0.66371">
        <ele>322.817627</ele>
      </trkpt>
      <trkpt lat="43.18511" lon="-0.6629">
        <ele>321.156616</ele>
      </trkpt>
      <trkpt lat="43.18507" lon="-0.66255">
        <ele>321.092072</ele>
      </trkpt>
      <trkpt lat="43.18499" lon="-0.66192">
        <ele>320.90152</ele>
      </trkpt>
      <trkpt lat="43.18498" lon="-0.66177">
        <ele>320.653076</ele>
      </trkpt>
      <trkpt lat="43.18502" lon="-0.66145">
        <ele>319.379578</ele>
      </trkpt>
      <trkpt lat="43.18511" lon="-0.66099">
        <ele>316.564697</ele>
      </trkpt>
      <trkpt lat="43.18524" lon="-0.66063">
        <ele>313.576172</ele>
      </trkpt>
      <trkpt lat="43.18538" lon="-0.66021">
        <ele>309.232086</ele>
      </trkpt>
      <trkpt lat="43.1855" lon="-0.65978">
        <ele>303.482422</ele>
      </trkpt>
      <trkpt lat="43.18558" lon="-0.65932">
        <ele>297.805084</ele>
      </trkpt>
      <trkpt lat="43.18552" lon="-0.65937">
        <ele>298.929535</ele>
      </trkpt>
      <trkpt lat="43.18516" lon="-0.65959">
        <ele>301.367188</ele>
      </trkpt>
      <trkpt lat="43.18489" lon="-0.65962">
        <ele>301.344849</ele>
      </trkpt>
      <trkpt lat="43.18457" lon="-0.65962">
        <ele>301.867889</ele>
      </trkpt>
      <trkpt lat="43.18421" lon="-0.65959">
        <ele>301.383881</ele>
      </trkpt>
      <trkpt lat="43.18402" lon="-0.65962">
        <ele>301.100006</ele>
      </trkpt>
      <trkpt lat="43.18373" lon="-0.65984">
        <ele>300.714996</ele>
      </trkpt>
      <trkpt lat="43.18345" lon="-0.66">
        <ele>301.313171</ele>
      </trkpt>
      <trkpt lat="43.18309" lon="-0.66013">
        <ele>302.292969</ele>
      </trkpt>
      <trkpt lat="43.18299" lon="-0.66018">
        <ele>302.975006</ele>
      </trkpt>
      <trkpt lat="43.18283" lon="-0.66018">
        <ele>304.117126</ele>
      </trkpt>
      <trkpt lat="43.18268" lon="-0.66013">
        <ele>305.165009</ele>
      </trkpt>
      <trkpt lat="43.18246" lon="-0.65995">
        <ele>306.160004</ele>
      </trkpt>
      <trkpt lat="43.18214" lon="-0.65959">
        <ele>303.300232</ele>
      </trkpt>
      <trkpt lat="43.18185" lon="-0.65955">
        <ele>302.658722</ele>
      </trkpt>
      <trkpt lat="43.1817" lon="-0.65956">
        <ele>302.625</ele>
      </trkpt>
      <trkpt lat="43.1812" lon="-0.65975">
        <ele>302.39975</ele>
      </trkpt>
      <trkpt lat="43.18075" lon="-0.6597">
        <ele>301.34549</ele>
      </trkpt>
      <trkpt lat="43.18055" lon="-0.65964">
        <ele>300.391815</ele>
      </trkpt>
      <trkpt lat="43.18058" lon="-0.65968">
        <ele>300.700409</ele>
      </trkpt>
      <trkpt lat="43.18066" lon="-0.65989">
        <ele>301.288116</ele>
      </trkpt>
      <trkpt lat="43.18055" lon="-0.66043">
        <ele>300.201874</ele>
      </trkpt>
      <trkpt lat="43.18051" lon="-0.66069">
        <ele>298.568481</ele>
      </trkpt>
      <trkpt lat="43.18044" lon="-0.66098">
        <ele>296.411438</ele>
      </trkpt>
      <trkpt lat="43.18039" lon="-0.66114">
        <ele>295.619385</ele>
      </trkpt>
      <trkpt lat="43.18011" lon="-0.66172">
        <ele>293.358734</ele>
      </trkpt>
      <trkpt lat="43.1799" lon="-0.66208">
        <ele>291.543762</ele>
      </trkpt>
      <trkpt lat="43.17975" lon="-0.66223">
        <ele>291.023743</ele>
      </trkpt>
      <trkpt lat="43.17892" lon="-0.66362">
        <ele>279.204132</ele>
      </trkpt>
      <trkpt lat="43.17876" lon="-0.6639">
        <ele>276.015259</ele>
      </trkpt>
      <trkpt lat="43.17874" lon="-0.6641">
        <ele>272.575012</ele>
      </trkpt>
      <trkpt lat="43.17867" lon="-0.66432">
        <ele>268.818115</ele>
      </trkpt>
      <trkpt lat="43.17863" lon="-0.6645">
        <ele>265.559357</ele>
      </trkpt>
      <trkpt lat="43.1784" lon="-0.66479">
        <ele>261.893219</ele>
      </trkpt>
      <trkpt lat="43.1781" lon="-0.66504">
        <ele>258.768707</ele>
      </trkpt>
      <trkpt lat="43.17794" lon="-0.6651">
        <ele>257.348114</ele>
      </trkpt>
      <trkpt lat="43.1774" lon="-0.66513">
        <ele>253.649292</ele>
      </trkpt>
      <trkpt lat="43.17712" lon="-0.66515">
        <ele>249.363403</ele>
      </trkpt>
      <trkpt lat="43.17675" lon="-0.66516">
        <ele>243.223129</ele>
      </trkpt>
      <trkpt lat="43.17657" lon="-0.66513">
        <ele>241.688965</ele>
      </trkpt>
      <trkpt lat="43.17642" lon="-0.66508">
        <ele>240.618469</ele>
      </trkpt>
      <trkpt lat="43.17552" lon="-0.66363">
        <ele>238.180405</ele>
      </trkpt>
      <trkpt lat="43.17538" lon="-0.66333">
        <ele>238.013382</ele>
      </trkpt>
      <trkpt lat="43.17527" lon="-0.66292">
        <ele>239.00206</ele>
      </trkpt>
      <trkpt lat="43.17522" lon="-0.66239">
        <ele>237.928329</ele>
      </trkpt>
      <trkpt lat="43.17518" lon="-0.66222">
        <ele>236.662125</ele>
      </trkpt>
      <trkpt lat="43.17509" lon="-0.66163">
        <ele>234.350342</ele>
      </trkpt>
      <trkpt lat="43.17501" lon="-0.66092">
        <ele>236.060089</ele>
      </trkpt>
      <trkpt lat="43.17476" lon="-0.6605">
        <ele>237.474411</ele>
      </trkpt>
      <trkpt lat="43.17456" lon="-0.6602">
        <ele>237.207397</ele>
      </trkpt>
      <trkpt lat="43.17437" lon="-0.65961">
        <ele>236.704651</ele>
      </trkpt>
      <trkpt lat="43.17418" lon="-0.65896">
        <ele>234.775497</ele>
      </trkpt>
      <trkpt lat="43.17399" lon="-0.65838">
        <ele>235.894424</ele>
      </trkpt>
      <trkpt lat="43.17385" lon="-0.65807">
        <ele>236.673737</ele>
      </trkpt>
      <trkpt lat="43.17371" lon="-0.65785">
        <ele>236.947495</ele>
      </trkpt>
      <trkpt lat="43.1735" lon="-0.65768">
        <ele>236.12529</ele>
      </trkpt>
      <trkpt lat="43.17319" lon="-0.65738">
        <ele>236.238998</ele>
      </trkpt>
      <trkpt lat="43.17288" lon="-0.65689">
        <ele>236.023438</ele>
      </trkpt>
      <trkpt lat="43.17269" lon="-0.65643">
        <ele>235.398468</ele>
      </trkpt>
      <trkpt lat="43.17262" lon="-0.65628">
        <ele>234.713364</ele>
      </trkpt>
      <trkpt lat="43.17259" lon="-0.65607">
        <ele>233.632355</ele>
      </trkpt>
      <trkpt lat="43.17254" lon="-0.65588">
        <ele>232.294571</ele>
      </trkpt>
      <trkpt lat="43.17252" lon="-0.65574">
        <ele>231.292969</ele>
      </trkpt>
      <trkpt lat="43.17259" lon="-0.65541">
        <ele>229.07196</ele>
      </trkpt>
      <trkpt lat="43.17262" lon="-0.65519">
        <ele>227.469254</ele>
      </trkpt>
      <trkpt lat="43.17258" lon="-0.65499">
        <ele>225.0867</ele>
      </trkpt>
      <trkpt lat="43.17256" lon="-0.65484">
        <ele>223.770935</ele>
      </trkpt>
      <trkpt lat="43.17259" lon="-0.65466">
        <ele>222.869446</ele>
      </trkpt>
      <trkpt lat="43.17286" lon="-0.6544">
        <ele>223.697006</ele>
      </trkpt>
      <trkpt lat="43.17321" lon="-0.65422">
        <ele>224.661407</ele>
      </trkpt>
      <trkpt lat="43.17348" lon="-0.65392">
        <ele>222.471268</ele>
      </trkpt>
      <trkpt lat="43.17383" lon="-0.65337">
        <ele>220.891556</ele>
      </trkpt>
      <trkpt lat="43.17393" lon="-0.65332">
        <ele>220.979309</ele>
      </trkpt>
      <trkpt lat="43.1742" lon="-0.65331">
        <ele>223.064087</ele>
      </trkpt>
      <trkpt lat="43.17483" lon="-0.65339">
        <ele>228.210464</ele>
      </trkpt>
      <trkpt lat="43.17534" lon="-0.65339">
        <ele>227.495377</ele>
      </trkpt>
      <trkpt lat="43.17563" lon="-0.65334">
        <ele>225.982819</ele>
      </trkpt>
      <trkpt lat="43.17603" lon="-0.6532">
        <ele>224.318405</ele>
      </trkpt>
      <trkpt lat="43.17631" lon="-0.65303">
        <ele>223.030624</ele>
      </trkpt>
      <trkpt lat="43.17683" lon="-0.65256">
        <ele>220.288239</ele>
      </trkpt>
      <trkpt lat="43.17722" lon="-0.65226">
        <ele>218.304749</ele>
      </trkpt>
      <trkpt lat="43.17763" lon="-0.65193">
        <ele>218.980042</ele>
      </trkpt>
      <trkpt lat="43.17789" lon="-0.6517">
        <ele>216.902893</ele>
      </trkpt>
      <trkpt lat="43.17811" lon="-0.65154">
        <ele>217.583069</ele>
      </trkpt>
      <trkpt lat="43.17827" lon="-0.65143">
        <ele>217.909225</ele>
      </trkpt>
      <trkpt lat="43.17858" lon="-0.65133">
        <ele>218.02594</ele>
      </trkpt>
      <trkpt lat="43.17896" lon="-0.65125">
        <ele>217.109772</ele>
      </trkpt>
      <trkpt lat="43.17911" lon="-0.65118">
        <ele>216.769089</ele>
      </trkpt>
      <trkpt lat="43.17935" lon="-0.651">
        <ele>217.070297</ele>
      </trkpt>
      <trkpt lat="43.17982" lon="-0.65056">
        <ele>218.842789</ele>
      </trkpt>
      <trkpt lat="43.17992" lon="-0.65047">
        <ele>218.469376</ele>
      </trkpt>
      <trkpt lat="43.18023" lon="-0.65034">
        <ele>217.78688</ele>
      </trkpt>
      <trkpt lat="43.18057" lon="-0.65029">
        <ele>217.76915</ele>
      </trkpt>
      <trkpt lat="43.18088" lon="-0.65029">
        <ele>218.344177</ele>
      </trkpt>
      <trkpt lat="43.18101" lon="-0.65024">
        <ele>218.530823</ele>
      </trkpt>
      <trkpt lat="43.18152" lon="-0.64988">
        <ele>219.197159</ele>
      </trkpt>
      <trkpt lat="43.18159" lon="-0.6498">
        <ele>219.361862</ele>
      </trkpt>
      <trkpt lat="43.18165" lon="-0.64968">
        <ele>219.37796</ele>
      </trkpt>
      <trkpt lat="43.18188" lon="-0.64946">
        <ele>219.544754</ele>
      </trkpt>
      <trkpt lat="43.18224" lon="-0.64922">
        <ele>219.343552</ele>
      </trkpt>
      <trkpt lat="43.18256" lon="-0.64907">
        <ele>218.967758</ele>
      </trkpt>
      <trkpt lat="43.18283" lon="-0.64901">
        <ele>217.825043</ele>
      </trkpt>
      <trkpt lat="43.18299" lon="-0.64904">
        <ele>217.513596</ele>
      </trkpt>
      <trkpt lat="43.1832" lon="-0.64911">
        <ele>217.104004</ele>
      </trkpt>
      <trkpt lat="43.1834" lon="-0.6492">
        <ele>216.744049</ele>
      </trkpt>
      <trkpt lat="43.18361" lon="-0.64935">
        <ele>216.356934</ele>
      </trkpt>
      <trkpt lat="43.1843" lon="-0.64993">
        <ele>217.556625</ele>
      </trkpt>
      <trkpt lat="43.18453" lon="-0.65004">
        <ele>216.403</ele>
      </trkpt>
      <trkpt lat="43.18508" lon="-0.65027">
        <ele>214.70047</ele>
      </trkpt>
      <trkpt lat="43.18538" lon="-0.65037">
        <ele>215.059219</ele>
      </trkpt>
      <trkpt lat="43.18552" lon="-0.65037">
        <ele>215.262039</ele>
      </trkpt>
      <trkpt lat="43.1859" lon="-0.65034">
        <ele>215.316879</ele>
      </trkpt>
      <trkpt lat="43.18596" lon="-0.6503">
        <ele>215.146255</ele>
      </trkpt>
      <trkpt lat="43.18597" lon="-0.65024">
        <ele>214.9375</ele>
      </trkpt>
      <trkpt lat="43.18598" lon="-0.64987">
        <ele>214.338745</ele>
      </trkpt>
      <trkpt lat="43.18601" lon="-0.64975">
        <ele>214.142502</ele>
      </trkpt>
      <trkpt lat="43.18604" lon="-0.64966">
        <ele>214.004349</ele>
      </trkpt>
      <trkpt lat="43.1861" lon="-0.64958">
        <ele>214.266022</ele>
      </trkpt>
      <trkpt lat="43.18617" lon="-0.64955">
        <ele>214.338394</ele>
      </trkpt>
    </trkseg>
  </trk>
  <trk>
    <name><![CDATA[Site VTT-FFC des Pyrénées béarnaises - Le Faget - 27863 - UtagawaVTT.com]]></name>
    <trkseg>
      <trkpt lat="43.21838" lon="-0.62175">
        <ele>214.852081</ele>
      </trkpt>
      <trkpt lat="43.21888" lon="-0.62143">
        <ele>214.332016</ele>
      </trkpt>
      <trkpt lat="43.21904" lon="-0.62127">
        <ele>214.411636</ele>
      </trkpt>
      <trkpt lat="43.21922" lon="-0.62097">
        <ele>214.787506</ele>
      </trkpt>
      <trkpt lat="43.21937" lon="-0.62067">
        <ele>215.305832</ele>
      </trkpt>
      <trkpt lat="43.21946" lon="-0.62059">
        <ele>215.965622</ele>
      </trkpt>
      <trkpt lat="43.21962" lon="-0.62035">
        <ele>217.438126</ele>
      </trkpt>
      <trkpt lat="43.21971" lon="-0.62007">
        <ele>218.414993</ele>
      </trkpt>
      <trkpt lat="43.21988" lon="-0.61981">
        <ele>221.591141</ele>
      </trkpt>
      <trkpt lat="43.21996" lon="-0.61973">
        <ele>223.32637</ele>
      </trkpt>
      <trkpt lat="43.2203" lon="-0.62022">
        <ele>225.728317</ele>
      </trkpt>
      <trkpt lat="43.2206" lon="-0.62057">
        <ele>229.405746</ele>
      </trkpt>
      <trkpt lat="43.221" lon="-0.62103">
        <ele>235.737503</ele>
      </trkpt>
      <trkpt lat="43.22116" lon="-0.62126">
        <ele>238.055038</ele>
      </trkpt>
      <trkpt lat="43.22134" lon="-0.62146">
        <ele>240.985611</ele>
      </trkpt>
      <trkpt lat="43.22158" lon="-0.62168">
        <ele>244.294434</ele>
      </trkpt>
      <trkpt lat="43.22166" lon="-0.62179">
        <ele>244.216003</ele>
      </trkpt>
      <trkpt lat="43.22176" lon="-0.62187">
        <ele>244.569962</ele>
      </trkpt>
      <trkpt lat="43.22186" lon="-0.62186">
        <ele>246.653152</ele>
      </trkpt>
      <trkpt lat="43.22203" lon="-0.62164">
        <ele>252.759384</ele>
      </trkpt>
      <trkpt lat="43.22219" lon="-0.62138">
        <ele>256.17334</ele>
      </trkpt>
      <trkpt lat="43.22246" lon="-0.62111">
        <ele>258.23999</ele>
      </trkpt>
      <trkpt lat="43.22257" lon="-0.62104">
        <ele>257.274994</ele>
      </trkpt>
      <trkpt lat="43.22268" lon="-0.62084">
        <ele>258.200012</ele>
      </trkpt>
      <trkpt lat="43.22281" lon="-0.62066">
        <ele>257.853729</ele>
      </trkpt>
      <trkpt lat="43.22316" lon="-0.6203">
        <ele>257.298065</ele>
      </trkpt>
      <trkpt lat="43.22334" lon="-0.62005">
        <ele>257.616821</ele>
      </trkpt>
      <trkpt lat="43.22346" lon="-0.61984">
        <ele>258.33136</ele>
      </trkpt>
      <trkpt lat="43.22356" lon="-0.61959">
        <ele>259.681244</ele>
      </trkpt>
      <trkpt lat="43.22386" lon="-0.61899">
        <ele>261.60144</ele>
      </trkpt>
      <trkpt lat="43.22399" lon="-0.61888">
        <ele>261.363129</ele>
      </trkpt>
      <trkpt lat="43.22428" lon="-0.61836">
        <ele>263.326294</ele>
      </trkpt>
      <trkpt lat="43.22446" lon="-0.61811">
        <ele>263.618439</ele>
      </trkpt>
      <trkpt lat="43.22465" lon="-0.61792">
        <ele>262.574188</ele>
      </trkpt>
      <trkpt lat="43.2248" lon="-0.61775">
        <ele>261.719055</ele>
      </trkpt>
      <trkpt lat="43.2249" lon="-0.61761">
        <ele>261.576019</ele>
      </trkpt>
      <trkpt lat="43.22503" lon="-0.61729">
        <ele>262.017273</ele>
      </trkpt>
      <trkpt lat="43.22515" lon="-0.6168">
        <ele>266.622345</ele>
      </trkpt>
      <trkpt lat="43.2253" lon="-0.61634">
        <ele>271.184998</ele>
      </trkpt>
      <trkpt lat="43.22549" lon="-0.61637">
        <ele>270.434998</ele>
      </trkpt>
      <trkpt lat="43.22577" lon="-0.61638">
        <ele>270.002838</ele>
      </trkpt>
      <trkpt lat="43.22653" lon="-0.61632">
        <ele>270.859375</ele>
      </trkpt>
      <trkpt lat="43.22678" lon="-0.61635">
        <ele>269.80246</ele>
      </trkpt>
      <trkpt lat="43.22689" lon="-0.6164">
        <ele>269.074005</ele>
      </trkpt>
      <trkpt lat="43.22702" lon="-0.61639">
        <ele>268.527679</ele>
      </trkpt>
      <trkpt lat="43.22749" lon="-0.61605">
        <ele>264.542114</ele>
      </trkpt>
      <trkpt lat="43.228" lon="-0.6158">
        <ele>257.158813</ele>
      </trkpt>
      <trkpt lat="43.22828" lon="-0.61562">
        <ele>252.608368</ele>
      </trkpt>
      <trkpt lat="43.22854" lon="-0.61548">
        <ele>248.774994</ele>
      </trkpt>
      <trkpt lat="43.22866" lon="-0.61538">
        <ele>247.134995</ele>
      </trkpt>
      <trkpt lat="43.22952" lon="-0.61478">
        <ele>240.198257</ele>
      </trkpt>
      <trkpt lat="43.22965" lon="-0.61471">
        <ele>239.523865</ele>
      </trkpt>
      <trkpt lat="43.22987" lon="-0.61463">
        <ele>237.306229</ele>
      </trkpt>
      <trkpt lat="43.23" lon="-0.61455">
        <ele>234.197098</ele>
      </trkpt>
      <trkpt lat="43.23027" lon="-0.61447">
        <ele>226.478256</ele>
      </trkpt>
      <trkpt lat="43.23034" lon="-0.61442">
        <ele>224.734924</ele>
      </trkpt>
      <trkpt lat="43.23047" lon="-0.61414">
        <ele>220.864365</ele>
      </trkpt>
      <trkpt lat="43.23056" lon="-0.61403">
        <ele>218.923599</ele>
      </trkpt>
      <trkpt lat="43.23071" lon="-0.61425">
        <ele>216.679001</ele>
      </trkpt>
      <trkpt lat="43.23078" lon="-0.61434">
        <ele>215.547867</ele>
      </trkpt>
      <trkpt lat="43.23085" lon="-0.61436">
        <ele>214.850403</ele>
      </trkpt>
      <trkpt lat="43.23094" lon="-0.61446">
        <ele>213.810181</ele>
      </trkpt>
      <trkpt lat="43.23098" lon="-0.61455">
        <ele>213.262497</ele>
      </trkpt>
      <trkpt lat="43.2312" lon="-0.61487">
        <ele>210.945007</ele>
      </trkpt>
      <trkpt lat="43.2313" lon="-0.61492">
        <ele>210.725006</ele>
      </trkpt>
      <trkpt lat="43.2315" lon="-0.61472">
        <ele>210.282501</ele>
      </trkpt>
      <trkpt lat="43.23169" lon="-0.61456">
        <ele>210.249023</ele>
      </trkpt>
      <trkpt lat="43.23187" lon="-0.61437">
        <ele>211.472244</ele>
      </trkpt>
      <trkpt lat="43.23237" lon="-0.61428">
        <ele>215.084579</ele>
      </trkpt>
      <trkpt lat="43.23292" lon="-0.61424">
        <ele>219.22438</ele>
      </trkpt>
      <trkpt lat="43.233" lon="-0.61419">
        <ele>220.000626</ele>
      </trkpt>
      <trkpt lat="43.23298" lon="-0.61396">
        <ele>220.896881</ele>
      </trkpt>
      <trkpt lat="43.23299" lon="-0.61374">
        <ele>221.274994</ele>
      </trkpt>
      <trkpt lat="43.2331" lon="-0.61345">
        <ele>222.031631</ele>
      </trkpt>
      <trkpt lat="43.23369" lon="-0.61253">
        <ele>225.313751</ele>
      </trkpt>
      <trkpt lat="43.23381" lon="-0.61227">
        <ele>226.242493</ele>
      </trkpt>
      <trkpt lat="43.234" lon="-0.61228">
        <ele>227.130661</ele>
      </trkpt>
      <trkpt lat="43.23428" lon="-0.61234">
        <ele>228.444061</ele>
      </trkpt>
      <trkpt lat="43.23451" lon="-0.61236">
        <ele>229.524994</ele>
      </trkpt>
      <trkpt lat="43.2347" lon="-0.61224">
        <ele>230.350006</ele>
      </trkpt>
      <trkpt lat="43.23487" lon="-0.612">
        <ele>231.478745</ele>
      </trkpt>
      <trkpt lat="43.23537" lon="-0.61182">
        <ele>234.16188</ele>
      </trkpt>
      <trkpt lat="43.23625" lon="-0.6114">
        <ele>241.262497</ele>
      </trkpt>
      <trkpt lat="43.23676" lon="-0.61113">
        <ele>246.662827</ele>
      </trkpt>
      <trkpt lat="43.23771" lon="-0.61057">
        <ele>255.492004</ele>
      </trkpt>
      <trkpt lat="43.23781" lon="-0.61044">
        <ele>256.154388</ele>
      </trkpt>
      <trkpt lat="43.23791" lon="-0.61008">
        <ele>258.601959</ele>
      </trkpt>
      <trkpt lat="43.23817" lon="-0.60932">
        <ele>260.345154</ele>
      </trkpt>
      <trkpt lat="43.23824" lon="-0.60901">
        <ele>260.844513</ele>
      </trkpt>
      <trkpt lat="43.23831" lon="-0.60851">
        <ele>262.029999</ele>
      </trkpt>
      <trkpt lat="43.23851" lon="-0.60757">
        <ele>263.776581</ele>
      </trkpt>
      <trkpt lat="43.23865" lon="-0.60705">
        <ele>264.436371</ele>
      </trkpt>
      <trkpt lat="43.23892" lon="-0.60606">
        <ele>265.226654</ele>
      </trkpt>
      <trkpt lat="43.23913" lon="-0.60544">
        <ele>267.969543</ele>
      </trkpt>
      <trkpt lat="43.23928" lon="-0.60466">
        <ele>273.609436</ele>
      </trkpt>
      <trkpt lat="43.2394" lon="-0.60418">
        <ele>277.695679</ele>
      </trkpt>
      <trkpt lat="43.23949" lon="-0.60394">
        <ele>279.893402</ele>
      </trkpt>
      <trkpt lat="43.23974" lon="-0.60333">
        <ele>281.754303</ele>
      </trkpt>
      <trkpt lat="43.23988" lon="-0.60315">
        <ele>282.558044</ele>
      </trkpt>
      <trkpt lat="43.24086" lon="-0.60166">
        <ele>287.43988</ele>
      </trkpt>
      <trkpt lat="43.24112" lon="-0.60113">
        <ele>292.176086</ele>
      </trkpt>
      <trkpt lat="43.24135" lon="-0.60075">
        <ele>299.643982</ele>
      </trkpt>
      <trkpt lat="43.24144" lon="-0.60064">
        <ele>303.34613</ele>
      </trkpt>
      <trkpt lat="43.24172" lon="-0.60061">
        <ele>309.871246</ele>
      </trkpt>
      <trkpt lat="43.24269" lon="-0.60076">
        <ele>320.132355</ele>
      </trkpt>
      <trkpt lat="43.2431" lon="-0.60077">
        <ele>319.889435</ele>
      </trkpt>
      <trkpt lat="43.2427" lon="-0.60025">
        <ele>325.007263</ele>
      </trkpt>
      <trkpt lat="43.24229" lon="-0.59969">
        <ele>327.462921</ele>
      </trkpt>
      <trkpt lat="43.24209" lon="-0.5993">
        <ele>327.924225</ele>
      </trkpt>
      <trkpt lat="43.242" lon="-0.59896">
        <ele>329.166779</ele>
      </trkpt>
      <trkpt lat="43.24196" lon="-0.59858">
        <ele>329.746246</ele>
      </trkpt>
      <trkpt lat="43.24196" lon="-0.59821">
        <ele>329.54187</ele>
      </trkpt>
      <trkpt lat="43.24202" lon="-0.59793">
        <ele>329.05188</ele>
      </trkpt>
      <trkpt lat="43.2421" lon="-0.59776">
        <ele>328.775085</ele>
      </trkpt>
      <trkpt lat="43.2421" lon="-0.59746">
        <ele>328.912231</ele>
      </trkpt>
      <trkpt lat="43.24224" lon="-0.59586">
        <ele>330.138763</ele>
      </trkpt>
      <trkpt lat="43.24238" lon="-0.59475">
        <ele>330.863922</ele>
      </trkpt>
      <trkpt lat="43.24262" lon="-0.59408">
        <ele>327.363373</ele>
      </trkpt>
      <trkpt lat="43.24278" lon="-0.59343">
        <ele>324.388824</ele>
      </trkpt>
      <trkpt lat="43.24283" lon="-0.59314">
        <ele>324.17041</ele>
      </trkpt>
      <trkpt lat="43.24285" lon="-0.59291">
        <ele>324.067535</ele>
      </trkpt>
      <trkpt lat="43.24281" lon="-0.59265">
        <ele>324.482697</ele>
      </trkpt>
      <trkpt lat="43.24275" lon="-0.59231">
        <ele>325.350708</ele>
      </trkpt>
      <trkpt lat="43.24265" lon="-0.59197">
        <ele>326.91449</ele>
      </trkpt>
      <trkpt lat="43.24249" lon="-0.59159">
        <ele>328.187378</ele>
      </trkpt>
      <trkpt lat="43.24232" lon="-0.59122">
        <ele>329.601746</ele>
      </trkpt>
      <trkpt lat="43.24198" lon="-0.59059">
        <ele>333.225037</ele>
      </trkpt>
      <trkpt lat="43.24177" lon="-0.59013">
        <ele>336.107666</ele>
      </trkpt>
      <trkpt lat="43.2417" lon="-0.58963">
        <ele>337.984009</ele>
      </trkpt>
      <trkpt lat="43.2416" lon="-0.58912">
        <ele>338.207336</ele>
      </trkpt>
      <trkpt lat="43.24143" lon="-0.58877">
        <ele>337.84137</ele>
      </trkpt>
      <trkpt lat="43.24122" lon="-0.5884">
        <ele>337.674164</ele>
      </trkpt>
      <trkpt lat="43.24099" lon="-0.58781">
        <ele>340.203278</ele>
      </trkpt>
      <trkpt lat="43.24083" lon="-0.58747">
        <ele>339.97821</ele>
      </trkpt>
      <trkpt lat="43.24075" lon="-0.58722">
        <ele>339.85379</ele>
      </trkpt>
      <trkpt lat="43.24063" lon="-0.58706">
        <ele>339.985168</ele>
      </trkpt>
      <trkpt lat="43.2405" lon="-0.58683">
        <ele>340.701691</ele>
      </trkpt>
      <trkpt lat="43.2405" lon="-0.58673">
        <ele>340.872375</ele>
      </trkpt>
      <trkpt lat="43.24033" lon="-0.58624">
        <ele>340.685272</ele>
      </trkpt>
      <trkpt lat="43.24012" lon="-0.58556">
        <ele>340.901062</ele>
      </trkpt>
      <trkpt lat="43.23985" lon="-0.58431">
        <ele>340.517548</ele>
      </trkpt>
      <trkpt lat="43.23982" lon="-0.58409">
        <ele>339.761627</ele>
      </trkpt>
      <trkpt lat="43.23976" lon="-0.58391">
        <ele>338.998688</ele>
      </trkpt>
      <trkpt lat="43.23957" lon="-0.58341">
        <ele>336.23468</ele>
      </trkpt>
      <trkpt lat="43.23944" lon="-0.58321">
        <ele>335.188477</ele>
      </trkpt>
      <trkpt lat="43.23929" lon="-0.58304">
        <ele>337.118286</ele>
      </trkpt>
      <trkpt lat="43.23913" lon="-0.58291">
        <ele>338.332153</ele>
      </trkpt>
      <trkpt lat="43.23872" lon="-0.58246">
        <ele>338.462372</ele>
      </trkpt>
      <trkpt lat="43.23852" lon="-0.58222">
        <ele>339.016113</ele>
      </trkpt>
      <trkpt lat="43.23836" lon="-0.58196">
        <ele>339.430054</ele>
      </trkpt>
      <trkpt lat="43.23815" lon="-0.58156">
        <ele>338.70575</ele>
      </trkpt>
      <trkpt lat="43.23794" lon="-0.58124">
        <ele>338.9758</ele>
      </trkpt>
      <trkpt lat="43.23777" lon="-0.58104">
        <ele>339.570251</ele>
      </trkpt>
      <trkpt lat="43.23732" lon="-0.58046">
        <ele>340.444397</ele>
      </trkpt>
      <trkpt lat="43.236" lon="-0.57894">
        <ele>341.702667</ele>
      </trkpt>
      <trkpt lat="43.23584" lon="-0.57884">
        <ele>342.699463</ele>
      </trkpt>
      <trkpt lat="43.23573" lon="-0.57875">
        <ele>343.61972</ele>
      </trkpt>
      <trkpt lat="43.23566" lon="-0.57864">
        <ele>343.848297</ele>
      </trkpt>
      <trkpt lat="43.23549" lon="-0.57822">
        <ele>344.19104</ele>
      </trkpt>
      <trkpt lat="43.23531" lon="-0.57772">
        <ele>345.933319</ele>
      </trkpt>
      <trkpt lat="43.23511" lon="-0.57695">
        <ele>344.693451</ele>
      </trkpt>
      <trkpt lat="43.2351" lon="-0.57663">
        <ele>343.564392</ele>
      </trkpt>
      <trkpt lat="43.23511" lon="-0.57616">
        <ele>342.706879</ele>
      </trkpt>
      <trkpt lat="43.23516" lon="-0.57523">
        <ele>341.68811</ele>
      </trkpt>
      <trkpt lat="43.23515" lon="-0.57506">
        <ele>341.23877</ele>
      </trkpt>
      <trkpt lat="43.23501" lon="-0.57462">
        <ele>339.738495</ele>
      </trkpt>
      <trkpt lat="43.23505" lon="-0.57437">
        <ele>339.172394</ele>
      </trkpt>
      <trkpt lat="43.23513" lon="-0.57408">
        <ele>338.866669</ele>
      </trkpt>
      <trkpt lat="43.23514" lon="-0.57371">
        <ele>338.492676</ele>
      </trkpt>
      <trkpt lat="43.2352" lon="-0.57334">
        <ele>339.017487</ele>
      </trkpt>
      <trkpt lat="43.23533" lon="-0.57273">
        <ele>340.700012</ele>
      </trkpt>
      <trkpt lat="43.23541" lon="-0.5725">
        <ele>341.350006</ele>
      </trkpt>
      <trkpt lat="43.23564" lon="-0.57191">
        <ele>341.895844</ele>
      </trkpt>
      <trkpt lat="43.23592" lon="-0.57145">
        <ele>340.537476</ele>
      </trkpt>
      <trkpt lat="43.2361" lon="-0.57119">
        <ele>340.071686</ele>
      </trkpt>
      <trkpt lat="43.23627" lon="-0.57092">
        <ele>339.915741</ele>
      </trkpt>
      <trkpt lat="43.23637" lon="-0.57083">
        <ele>341.383881</ele>
      </trkpt>
      <trkpt lat="43.23628" lon="-0.56984">
        <ele>336.977417</ele>
      </trkpt>
      <trkpt lat="43.23615" lon="-0.56935">
        <ele>336.830536</ele>
      </trkpt>
      <trkpt lat="43.23566" lon="-0.56836">
        <ele>329.767426</ele>
      </trkpt>
      <trkpt lat="43.23545" lon="-0.56796">
        <ele>328.225555</ele>
      </trkpt>
      <trkpt lat="43.23503" lon="-0.56711">
        <ele>322.115387</ele>
      </trkpt>
      <trkpt lat="43.23475" lon="-0.56674">
        <ele>320.920044</ele>
      </trkpt>
      <trkpt lat="43.23438" lon="-0.56635">
        <ele>317.678741</ele>
      </trkpt>
      <trkpt lat="43.23416" lon="-0.56608">
        <ele>317.65155</ele>
      </trkpt>
      <trkpt lat="43.234" lon="-0.56596">
        <ele>316.510071</ele>
      </trkpt>
      <trkpt lat="43.23337" lon="-0.56569">
        <ele>318.247223</ele>
      </trkpt>
      <trkpt lat="43.23237" lon="-0.56511">
        <ele>320.516479</ele>
      </trkpt>
      <trkpt lat="43.2316" lon="-0.56454">
        <ele>320.46582</ele>
      </trkpt>
      <trkpt lat="43.23137" lon="-0.56443">
        <ele>320.891083</ele>
      </trkpt>
      <trkpt lat="43.23098" lon="-0.56419">
        <ele>322.279999</ele>
      </trkpt>
      <trkpt lat="43.23076" lon="-0.56397">
        <ele>323.241608</ele>
      </trkpt>
      <trkpt lat="43.2305" lon="-0.56368">
        <ele>322.528015</ele>
      </trkpt>
      <trkpt lat="43.23038" lon="-0.56346">
        <ele>323.06015</ele>
      </trkpt>
      <trkpt lat="43.23031" lon="-0.56329">
        <ele>323.289734</ele>
      </trkpt>
      <trkpt lat="43.23024" lon="-0.56306">
        <ele>323.597961</ele>
      </trkpt>
      <trkpt lat="43.23015" lon="-0.5627">
        <ele>325.398163</ele>
      </trkpt>
      <trkpt lat="43.23009" lon="-0.56241">
        <ele>326.342194</ele>
      </trkpt>
      <trkpt lat="43.23" lon="-0.56208">
        <ele>327.11264</ele>
      </trkpt>
      <trkpt lat="43.22979" lon="-0.56171">
        <ele>327.574982</ele>
      </trkpt>
      <trkpt lat="43.22936" lon="-0.56105">
        <ele>333.275757</ele>
      </trkpt>
      <trkpt lat="43.22932" lon="-0.56106">
        <ele>333.166992</ele>
      </trkpt>
      <trkpt lat="43.22924" lon="-0.561">
        <ele>333.436066</ele>
      </trkpt>
      <trkpt lat="43.22893" lon="-0.56058">
        <ele>337.699371</ele>
      </trkpt>
      <trkpt lat="43.22883" lon="-0.56043">
        <ele>338.988983</ele>
      </trkpt>
      <trkpt lat="43.22872" lon="-0.56042">
        <ele>338.049347</ele>
      </trkpt>
      <trkpt lat="43.22859" lon="-0.56039">
        <ele>336.93161</ele>
      </trkpt>
      <trkpt lat="43.22829" lon="-0.56018">
        <ele>334.318634</ele>
      </trkpt>
      <trkpt lat="43.22773" lon="-0.55954">
        <ele>330.270935</ele>
      </trkpt>
      <trkpt lat="43.22751" lon="-0.55941">
        <ele>325.286682</ele>
      </trkpt>
      <trkpt lat="43.22729" lon="-0.55925">
        <ele>322.203156</ele>
      </trkpt>
      <trkpt lat="43.22695" lon="-0.55888">
        <ele>321.582458</ele>
      </trkpt>
      <trkpt lat="43.22629" lon="-0.55845">
        <ele>314.665833</ele>
      </trkpt>
      <trkpt lat="43.22612" lon="-0.55846">
        <ele>310.705475</ele>
      </trkpt>
      <trkpt lat="43.2259" lon="-0.55842">
        <ele>306.984009</ele>
      </trkpt>
      <trkpt lat="43.22569" lon="-0.55844">
        <ele>302.579224</ele>
      </trkpt>
      <trkpt lat="43.22544" lon="-0.55858">
        <ele>296.608063</ele>
      </trkpt>
      <trkpt lat="43.22522" lon="-0.55881">
        <ele>291.214111</ele>
      </trkpt>
      <trkpt lat="43.22517" lon="-0.55888">
        <ele>289.900787</ele>
      </trkpt>
      <trkpt lat="43.22513" lon="-0.55906">
        <ele>287.821564</ele>
      </trkpt>
      <trkpt lat="43.22514" lon="-0.55924">
        <ele>286.260376</ele>
      </trkpt>
      <trkpt lat="43.22523" lon="-0.55947">
        <ele>285.276337</ele>
      </trkpt>
      <trkpt lat="43.22542" lon="-0.55974">
        <ele>285.325165</ele>
      </trkpt>
      <trkpt lat="43.22571" lon="-0.56008">
        <ele>283.925812</ele>
      </trkpt>
      <trkpt lat="43.2258" lon="-0.56024">
        <ele>282.584778</ele>
      </trkpt>
      <trkpt lat="43.22582" lon="-0.56036">
        <ele>281.491394</ele>
      </trkpt>
      <trkpt lat="43.22581" lon="-0.56053">
        <ele>279.654297</ele>
      </trkpt>
      <trkpt lat="43.22573" lon="-0.5608">
        <ele>276.626251</ele>
      </trkpt>
      <trkpt lat="43.22572" lon="-0.56095">
        <ele>275.122498</ele>
      </trkpt>
      <trkpt lat="43.22573" lon="-0.56161">
        <ele>269.432983</ele>
      </trkpt>
      <trkpt lat="43.22572" lon="-0.56183">
        <ele>267.708038</ele>
      </trkpt>
      <trkpt lat="43.22566" lon="-0.56196">
        <ele>266.538483</ele>
      </trkpt>
      <trkpt lat="43.22555" lon="-0.56213">
        <ele>265.368011</ele>
      </trkpt>
      <trkpt lat="43.22548" lon="-0.56233">
        <ele>264.249115</ele>
      </trkpt>
      <trkpt lat="43.22541" lon="-0.56258">
        <ele>262.931671</ele>
      </trkpt>
      <trkpt lat="43.22524" lon="-0.56288">
        <ele>259.351868</ele>
      </trkpt>
      <trkpt lat="43.22528" lon="-0.56322">
        <ele>257.392487</ele>
      </trkpt>
      <trkpt lat="43.22512" lon="-0.56319">
        <ele>256.743744</ele>
      </trkpt>
      <trkpt lat="43.22503" lon="-0.56316">
        <ele>256.451813</ele>
      </trkpt>
      <trkpt lat="43.22487" lon="-0.56304">
        <ele>256.192383</ele>
      </trkpt>
      <trkpt lat="43.22472" lon="-0.5627">
        <ele>256.748627</ele>
      </trkpt>
      <trkpt lat="43.22461" lon="-0.56262">
        <ele>256.365784</ele>
      </trkpt>
      <trkpt lat="43.22452" lon="-0.5626">
        <ele>255.814178</ele>
      </trkpt>
      <trkpt lat="43.22434" lon="-0.56258">
        <ele>255.053696</ele>
      </trkpt>
      <trkpt lat="43.22403" lon="-0.56262">
        <ele>253.808121</ele>
      </trkpt>
      <trkpt lat="43.22384" lon="-0.5626">
        <ele>253.824371</ele>
      </trkpt>
      <trkpt lat="43.22354" lon="-0.5625">
        <ele>253.813339</ele>
      </trkpt>
      <trkpt lat="43.22345" lon="-0.56252">
        <ele>253.588806</ele>
      </trkpt>
      <trkpt lat="43.22334" lon="-0.56263">
        <ele>253.291245</ele>
      </trkpt>
      <trkpt lat="43.22317" lon="-0.56291">
        <ele>253.012466</ele>
      </trkpt>
      <trkpt lat="43.22298" lon="-0.56317">
        <ele>252.757401</ele>
      </trkpt>
      <trkpt lat="43.2228" lon="-0.56338">
        <ele>252.055786</ele>
      </trkpt>
      <trkpt lat="43.22223" lon="-0.56423">
        <ele>249.097885</ele>
      </trkpt>
      <trkpt lat="43.22209" lon="-0.56438">
        <ele>248.515625</ele>
      </trkpt>
      <trkpt lat="43.22198" lon="-0.56455">
        <ele>247.98938</ele>
      </trkpt>
      <trkpt lat="43.22192" lon="-0.56471">
        <ele>247.602493</ele>
      </trkpt>
      <trkpt lat="43.22189" lon="-0.5649">
        <ele>247.153748</ele>
      </trkpt>
      <trkpt lat="43.22184" lon="-0.56509">
        <ele>246.428757</ele>
      </trkpt>
      <trkpt lat="43.22158" lon="-0.56524">
        <ele>245.548828</ele>
      </trkpt>
      <trkpt lat="43.22128" lon="-0.56539">
        <ele>245.06813</ele>
      </trkpt>
      <trkpt lat="43.22119" lon="-0.56545">
        <ele>245</ele>
      </trkpt>
      <trkpt lat="43.22119" lon="-0.56551">
        <ele>245</ele>
      </trkpt>
      <trkpt lat="43.22133" lon="-0.56559">
        <ele>244.972702</ele>
      </trkpt>
      <trkpt lat="43.22184" lon="-0.56599">
        <ele>244.17337</ele>
      </trkpt>
      <trkpt lat="43.22205" lon="-0.5662">
        <ele>243.858932</ele>
      </trkpt>
      <trkpt lat="43.22221" lon="-0.5665">
        <ele>243.340622</ele>
      </trkpt>
      <trkpt lat="43.22237" lon="-0.5669">
        <ele>242.552063</ele>
      </trkpt>
      <trkpt lat="43.22249" lon="-0.56733">
        <ele>241.230377</ele>
      </trkpt>
      <trkpt lat="43.22258" lon="-0.568">
        <ele>241.069916</ele>
      </trkpt>
      <trkpt lat="43.22273" lon="-0.56839">
        <ele>241.132278</ele>
      </trkpt>
      <trkpt lat="43.22271" lon="-0.56893">
        <ele>243.409256</ele>
      </trkpt>
      <trkpt lat="43.22273" lon="-0.56911">
        <ele>244.310074</ele>
      </trkpt>
      <trkpt lat="43.22296" lon="-0.56958">
        <ele>245.221649</ele>
      </trkpt>
      <trkpt lat="43.22312" lon="-0.57005">
        <ele>246.039703</ele>
      </trkpt>
      <trkpt lat="43.22335" lon="-0.57041">
        <ele>245.302521</ele>
      </trkpt>
      <trkpt lat="43.22342" lon="-0.57058">
        <ele>245.482498</ele>
      </trkpt>
      <trkpt lat="43.22343" lon="-0.57071">
        <ele>246.167496</ele>
      </trkpt>
      <trkpt lat="43.22348" lon="-0.57094">
        <ele>247.009995</ele>
      </trkpt>
      <trkpt lat="43.22353" lon="-0.57108">
        <ele>247.341461</ele>
      </trkpt>
      <trkpt lat="43.22356" lon="-0.57122">
        <ele>248.412109</ele>
      </trkpt>
      <trkpt lat="43.22344" lon="-0.57167">
        <ele>254.662247</ele>
      </trkpt>
      <trkpt lat="43.22324" lon="-0.57206">
        <ele>261.758118</ele>
      </trkpt>
      <trkpt lat="43.2228" lon="-0.57255">
        <ele>272.420563</ele>
      </trkpt>
      <trkpt lat="43.22264" lon="-0.57267">
        <ele>275.346313</ele>
      </trkpt>
      <trkpt lat="43.22231" lon="-0.57282">
        <ele>281.483765</ele>
      </trkpt>
      <trkpt lat="43.2221" lon="-0.57286">
        <ele>285.182678</ele>
      </trkpt>
      <trkpt lat="43.22192" lon="-0.57286">
        <ele>288.22876</ele>
      </trkpt>
      <trkpt lat="43.22181" lon="-0.57284">
        <ele>290.170013</ele>
      </trkpt>
      <trkpt lat="43.22093" lon="-0.57232">
        <ele>301.361877</ele>
      </trkpt>
      <trkpt lat="43.2208" lon="-0.57234">
        <ele>303.346893</ele>
      </trkpt>
      <trkpt lat="43.2201" lon="-0.57337">
        <ele>322.304993</ele>
      </trkpt>
      <trkpt lat="43.21998" lon="-0.57349">
        <ele>326.070007</ele>
      </trkpt>
      <trkpt lat="43.21971" lon="-0.57337">
        <ele>329.467682</ele>
      </trkpt>
      <trkpt lat="43.21954" lon="-0.57321">
        <ele>330.284729</ele>
      </trkpt>
      <trkpt lat="43.21939" lon="-0.573">
        <ele>329.440369</ele>
      </trkpt>
      <trkpt lat="43.21921" lon="-0.57281">
        <ele>328.872162</ele>
      </trkpt>
      <trkpt lat="43.21888" lon="-0.57239">
        <ele>325.738342</ele>
      </trkpt>
      <trkpt lat="43.21881" lon="-0.57233">
        <ele>325.432556</ele>
      </trkpt>
      <trkpt lat="43.21824" lon="-0.57242">
        <ele>332.657196</ele>
      </trkpt>
      <trkpt lat="43.21767" lon="-0.57261">
        <ele>341.951874</ele>
      </trkpt>
      <trkpt lat="43.21746" lon="-0.57263">
        <ele>343.188446</ele>
      </trkpt>
      <trkpt lat="43.21721" lon="-0.57267">
        <ele>344.33017</ele>
      </trkpt>
      <trkpt lat="43.21717" lon="-0.5725">
        <ele>343.885956</ele>
      </trkpt>
      <trkpt lat="43.21705" lon="-0.57226">
        <ele>343.901978</ele>
      </trkpt>
      <trkpt lat="43.21664" lon="-0.57128">
        <ele>343.344727</ele>
      </trkpt>
      <trkpt lat="43.21654" lon="-0.57102">
        <ele>341.957642</ele>
      </trkpt>
      <trkpt lat="43.21642" lon="-0.57083">
        <ele>341.597321</ele>
      </trkpt>
      <trkpt lat="43.21629" lon="-0.57071">
        <ele>342.049133</ele>
      </trkpt>
      <trkpt lat="43.21618" lon="-0.57067">
        <ele>342.580475</ele>
      </trkpt>
      <trkpt lat="43.21597" lon="-0.57063">
        <ele>343.013428</ele>
      </trkpt>
      <trkpt lat="43.21582" lon="-0.57058">
        <ele>343.356415</ele>
      </trkpt>
      <trkpt lat="43.21479" lon="-0.57">
        <ele>342.938965</ele>
      </trkpt>
      <trkpt lat="43.21469" lon="-0.56992">
        <ele>342.801239</ele>
      </trkpt>
      <trkpt lat="43.21461" lon="-0.56972">
        <ele>342.611359</ele>
      </trkpt>
      <trkpt lat="43.21462" lon="-0.56955">
        <ele>342.367828</ele>
      </trkpt>
      <trkpt lat="43.21466" lon="-0.56938">
        <ele>341.860352</ele>
      </trkpt>
      <trkpt lat="43.21459" lon="-0.56925">
        <ele>341.24707</ele>
      </trkpt>
      <trkpt lat="43.21446" lon="-0.56907">
        <ele>341.289337</ele>
      </trkpt>
      <trkpt lat="43.21421" lon="-0.56855">
        <ele>338.651825</ele>
      </trkpt>
      <trkpt lat="43.2141" lon="-0.56839">
        <ele>338.087097</ele>
      </trkpt>
      <trkpt lat="43.21369" lon="-0.56813">
        <ele>339.189148</ele>
      </trkpt>
      <trkpt lat="43.21357" lon="-0.56802">
        <ele>338.195862</ele>
      </trkpt>
      <trkpt lat="43.21346" lon="-0.56782">
        <ele>335.105652</ele>
      </trkpt>
      <trkpt lat="43.21328" lon="-0.56762">
        <ele>333.306488</ele>
      </trkpt>
      <trkpt lat="43.21311" lon="-0.56749">
        <ele>333.021881</ele>
      </trkpt>
      <trkpt lat="43.21293" lon="-0.56733">
        <ele>330.539734</ele>
      </trkpt>
      <trkpt lat="43.21264" lon="-0.56714">
        <ele>328.569977</ele>
      </trkpt>
      <trkpt lat="43.21253" lon="-0.56705">
        <ele>327.297913</ele>
      </trkpt>
      <trkpt lat="43.21244" lon="-0.56682">
        <ele>325.93512</ele>
      </trkpt>
      <trkpt lat="43.21239" lon="-0.56639">
        <ele>324.17981</ele>
      </trkpt>
      <trkpt lat="43.21226" lon="-0.56605">
        <ele>324.451538</ele>
      </trkpt>
      <trkpt lat="43.21206" lon="-0.5657">
        <ele>323.194733</ele>
      </trkpt>
      <trkpt lat="43.21193" lon="-0.56534">
        <ele>322.609985</ele>
      </trkpt>
      <trkpt lat="43.21187" lon="-0.56513">
        <ele>322.286865</ele>
      </trkpt>
      <trkpt lat="43.21176" lon="-0.56433">
        <ele>320.457825</ele>
      </trkpt>
      <trkpt lat="43.21165" lon="-0.56319">
        <ele>319.251434</ele>
      </trkpt>
      <trkpt lat="43.21154" lon="-0.56241">
        <ele>320.09967</ele>
      </trkpt>
      <trkpt lat="43.21124" lon="-0.56166">
        <ele>320.441711</ele>
      </trkpt>
      <trkpt lat="43.21115" lon="-0.56141">
        <ele>320.387604</ele>
      </trkpt>
      <trkpt lat="43.21111" lon="-0.56099">
        <ele>318.086426</ele>
      </trkpt>
      <trkpt lat="43.21112" lon="-0.56052">
        <ele>313.218903</ele>
      </trkpt>
      <trkpt lat="43.21099" lon="-0.55989">
        <ele>305.751404</ele>
      </trkpt>
      <trkpt lat="43.21096" lon="-0.55961">
        <ele>304.14444</ele>
      </trkpt>
      <trkpt lat="43.21089" lon="-0.55926">
        <ele>302.617462</ele>
      </trkpt>
      <trkpt lat="43.21082" lon="-0.5591">
        <ele>302.269287</ele>
      </trkpt>
      <trkpt lat="43.21054" lon="-0.55831">
        <ele>300.770294</ele>
      </trkpt>
      <trkpt lat="43.21055" lon="-0.55817">
        <ele>300.709503</ele>
      </trkpt>
      <trkpt lat="43.21062" lon="-0.55802">
        <ele>301.265717</ele>
      </trkpt>
      <trkpt lat="43.21069" lon="-0.55793">
        <ele>301.682648</ele>
      </trkpt>
      <trkpt lat="43.21077" lon="-0.55778">
        <ele>301.747498</ele>
      </trkpt>
      <trkpt lat="43.21099" lon="-0.55746">
        <ele>301.398743</ele>
      </trkpt>
      <trkpt lat="43.2111" lon="-0.55727">
        <ele>301.303741</ele>
      </trkpt>
      <trkpt lat="43.21111" lon="-0.55705">
        <ele>301.970001</ele>
      </trkpt>
      <trkpt lat="43.2111" lon="-0.55698">
        <ele>302.34375</ele>
      </trkpt>
      <trkpt lat="43.211" lon="-0.5568">
        <ele>303.636475</ele>
      </trkpt>
      <trkpt lat="43.20906" lon="-0.55358">
        <ele>333.424652</ele>
      </trkpt>
      <trkpt lat="43.20897" lon="-0.55349">
        <ele>333.683289</ele>
      </trkpt>
      <trkpt lat="43.20841" lon="-0.55317">
        <ele>337.350433</ele>
      </trkpt>
      <trkpt lat="43.20786" lon="-0.55294">
        <ele>339.420258</ele>
      </trkpt>
      <trkpt lat="43.20754" lon="-0.55279">
        <ele>340.406616</ele>
      </trkpt>
      <trkpt lat="43.20716" lon="-0.55274">
        <ele>341.816742</ele>
      </trkpt>
      <trkpt lat="43.20703" lon="-0.55269">
        <ele>341.654541</ele>
      </trkpt>
      <trkpt lat="43.20696" lon="-0.55263">
        <ele>341.775665</ele>
      </trkpt>
      <trkpt lat="43.20685" lon="-0.55249">
        <ele>342.441254</ele>
      </trkpt>
      <trkpt lat="43.20676" lon="-0.55226">
        <ele>342.672363</ele>
      </trkpt>
      <trkpt lat="43.20664" lon="-0.55162">
        <ele>342.653809</ele>
      </trkpt>
      <trkpt lat="43.2062" lon="-0.54848">
        <ele>358.979462</ele>
      </trkpt>
      <trkpt lat="43.20616" lon="-0.54834">
        <ele>359.650879</ele>
      </trkpt>
      <trkpt lat="43.20572" lon="-0.5475">
        <ele>362.023712</ele>
      </trkpt>
      <trkpt lat="43.20522" lon="-0.54649">
        <ele>361.224487</ele>
      </trkpt>
      <trkpt lat="43.20419" lon="-0.54609">
        <ele>362.17749</ele>
      </trkpt>
      <trkpt lat="43.20412" lon="-0.54603">
        <ele>362.342499</ele>
      </trkpt>
      <trkpt lat="43.20385" lon="-0.54596">
        <ele>362.957489</ele>
      </trkpt>
      <trkpt lat="43.2036" lon="-0.54582">
        <ele>363.515015</ele>
      </trkpt>
      <trkpt lat="43.20274" lon="-0.54519">
        <ele>363.089233</ele>
      </trkpt>
      <trkpt lat="43.20209" lon="-0.54474">
        <ele>364.858551</ele>
      </trkpt>
      <trkpt lat="43.20141" lon="-0.54416">
        <ele>366.960358</ele>
      </trkpt>
      <trkpt lat="43.20134" lon="-0.54407">
        <ele>367.281738</ele>
      </trkpt>
      <trkpt lat="43.2007" lon="-0.54351">
        <ele>372.171356</ele>
      </trkpt>
      <trkpt lat="43.19962" lon="-0.54241">
        <ele>379.408142</ele>
      </trkpt>
      <trkpt lat="43.19952" lon="-0.5424">
        <ele>380.225769</ele>
      </trkpt>
      <trkpt lat="43.1994" lon="-0.54245">
        <ele>381.11499</ele>
      </trkpt>
      <trkpt lat="43.19926" lon="-0.54262">
        <ele>381.700012</ele>
      </trkpt>
      <trkpt lat="43.19903" lon="-0.54287">
        <ele>382.611237</ele>
      </trkpt>
      <trkpt lat="43.19878" lon="-0.54308">
        <ele>382.735443</ele>
      </trkpt>
      <trkpt lat="43.19835" lon="-0.54336">
        <ele>382.397491</ele>
      </trkpt>
      <trkpt lat="43.19813" lon="-0.54353">
        <ele>382.24411</ele>
      </trkpt>
      <trkpt lat="43.19793" lon="-0.54375">
        <ele>381.565826</ele>
      </trkpt>
      <trkpt lat="43.19776" lon="-0.54398">
        <ele>380.373993</ele>
      </trkpt>
      <trkpt lat="43.19768" lon="-0.54425">
        <ele>379.397003</ele>
      </trkpt>
      <trkpt lat="43.19769" lon="-0.54449">
        <ele>378.767487</ele>
      </trkpt>
      <trkpt lat="43.19773" lon="-0.54473">
        <ele>377.777679</ele>
      </trkpt>
      <trkpt lat="43.19781" lon="-0.54503">
        <ele>376.738007</ele>
      </trkpt>
      <trkpt lat="43.19781" lon="-0.54522">
        <ele>375.68811</ele>
      </trkpt>
      <trkpt lat="43.19775" lon="-0.54567">
        <ele>372.661041</ele>
      </trkpt>
      <trkpt lat="43.19759" lon="-0.54654">
        <ele>367.694489</ele>
      </trkpt>
      <trkpt lat="43.19759" lon="-0.5468">
        <ele>366.709198</ele>
      </trkpt>
      <trkpt lat="43.19751" lon="-0.54725">
        <ele>365.231537</ele>
      </trkpt>
      <trkpt lat="43.19748" lon="-0.54764">
        <ele>363.995209</ele>
      </trkpt>
      <trkpt lat="43.19747" lon="-0.54848">
        <ele>362.984985</ele>
      </trkpt>
      <trkpt lat="43.19744" lon="-0.54875">
        <ele>363.084991</ele>
      </trkpt>
      <trkpt lat="43.19729" lon="-0.54908">
        <ele>363.806335</ele>
      </trkpt>
      <trkpt lat="43.19727" lon="-0.55001">
        <ele>363.691986</ele>
      </trkpt>
      <trkpt lat="43.1973" lon="-0.55029">
        <ele>363.431885</ele>
      </trkpt>
      <trkpt lat="43.1973" lon="-0.55052">
        <ele>363.047516</ele>
      </trkpt>
      <trkpt lat="43.19728" lon="-0.55077">
        <ele>362.452789</ele>
      </trkpt>
      <trkpt lat="43.19725" lon="-0.55174">
        <ele>356.005005</ele>
      </trkpt>
      <trkpt lat="43.19727" lon="-0.55187">
        <ele>354.913757</ele>
      </trkpt>
      <trkpt lat="43.19753" lon="-0.55256">
        <ele>349.229584</ele>
      </trkpt>
      <trkpt lat="43.19756" lon="-0.55278">
        <ele>347.39267</ele>
      </trkpt>
      <trkpt lat="43.19766" lon="-0.55291">
        <ele>346.410339</ele>
      </trkpt>
      <trkpt lat="43.19784" lon="-0.55338">
        <ele>343.761597</ele>
      </trkpt>
      <trkpt lat="43.19798" lon="-0.55358">
        <ele>342.886566</ele>
      </trkpt>
      <trkpt lat="43.19852" lon="-0.55423">
        <ele>342.347839</ele>
      </trkpt>
      <trkpt lat="43.19861" lon="-0.55436">
        <ele>342.7005</ele>
      </trkpt>
      <trkpt lat="43.19888" lon="-0.55464">
        <ele>342.319214</ele>
      </trkpt>
      <trkpt lat="43.19907" lon="-0.55487">
        <ele>342.290375</ele>
      </trkpt>
      <trkpt lat="43.19931" lon="-0.55499">
        <ele>342.404816</ele>
      </trkpt>
      <trkpt lat="43.19952" lon="-0.55521">
        <ele>342.517181</ele>
      </trkpt>
      <trkpt lat="43.1997" lon="-0.55531">
        <ele>342.439972</ele>
      </trkpt>
      <trkpt lat="43.20021" lon="-0.5559">
        <ele>344.097961</ele>
      </trkpt>
      <trkpt lat="43.20049" lon="-0.55616">
        <ele>345.287262</ele>
      </trkpt>
      <trkpt lat="43.20116" lon="-0.55684">
        <ele>344.236481</ele>
      </trkpt>
      <trkpt lat="43.20146" lon="-0.55712">
        <ele>340.92627</ele>
      </trkpt>
      <trkpt lat="43.2016" lon="-0.55719">
        <ele>339.323944</ele>
      </trkpt>
      <trkpt lat="43.20171" lon="-0.55713">
        <ele>340.042633</ele>
      </trkpt>
      <trkpt lat="43.20184" lon="-0.55722">
        <ele>337.46991</ele>
      </trkpt>
      <trkpt lat="43.20198" lon="-0.55764">
        <ele>331.121826</ele>
      </trkpt>
      <trkpt lat="43.20204" lon="-0.55796">
        <ele>327.1987</ele>
      </trkpt>
      <trkpt lat="43.20212" lon="-0.55851">
        <ele>321.321503</ele>
      </trkpt>
      <trkpt lat="43.20213" lon="-0.5588">
        <ele>317.664307</ele>
      </trkpt>
      <trkpt lat="43.20218" lon="-0.55955">
        <ele>309.164185</ele>
      </trkpt>
      <trkpt lat="43.20227" lon="-0.56037">
        <ele>305.272919</ele>
      </trkpt>
      <trkpt lat="43.20229" lon="-0.56079">
        <ele>303.940277</ele>
      </trkpt>
      <trkpt lat="43.20235" lon="-0.56119">
        <ele>303.845764</ele>
      </trkpt>
      <trkpt lat="43.20258" lon="-0.56214">
        <ele>303.4935</ele>
      </trkpt>
      <trkpt lat="43.20286" lon="-0.56316">
        <ele>302.631012</ele>
      </trkpt>
      <trkpt lat="43.20304" lon="-0.56374">
        <ele>303.543762</ele>
      </trkpt>
      <trkpt lat="43.20317" lon="-0.56408">
        <ele>303.946869</ele>
      </trkpt>
      <trkpt lat="43.20325" lon="-0.56419">
        <ele>304.180634</ele>
      </trkpt>
      <trkpt lat="43.20343" lon="-0.56435">
        <ele>304.451263</ele>
      </trkpt>
      <trkpt lat="43.20345" lon="-0.56447">
        <ele>304.343445</ele>
      </trkpt>
      <trkpt lat="43.20342" lon="-0.5647">
        <ele>303.218201</ele>
      </trkpt>
      <trkpt lat="43.20363" lon="-0.56532">
        <ele>301.258514</ele>
      </trkpt>
      <trkpt lat="43.20402" lon="-0.56614">
        <ele>300.295807</ele>
      </trkpt>
      <trkpt lat="43.20414" lon="-0.56635">
        <ele>300.75647</ele>
      </trkpt>
      <trkpt lat="43.20429" lon="-0.5665">
        <ele>301.066559</ele>
      </trkpt>
      <trkpt lat="43.20441" lon="-0.56678">
        <ele>301.04068</ele>
      </trkpt>
      <trkpt lat="43.2045" lon="-0.56713">
        <ele>301.149384</ele>
      </trkpt>
      <trkpt lat="43.20459" lon="-0.56766">
        <ele>301.024841</ele>
      </trkpt>
      <trkpt lat="43.20452" lon="-0.56781">
        <ele>300.776154</ele>
      </trkpt>
      <trkpt lat="43.2045" lon="-0.56796">
        <ele>300.841217</ele>
      </trkpt>
      <trkpt lat="43.20453" lon="-0.56851">
        <ele>301.287506</ele>
      </trkpt>
      <trkpt lat="43.20453" lon="-0.56876">
        <ele>300.929382</ele>
      </trkpt>
      <trkpt lat="43.20465" lon="-0.56889">
        <ele>301.637848</ele>
      </trkpt>
      <trkpt lat="43.20484" lon="-0.5692">
        <ele>302.457489</ele>
      </trkpt>
      <trkpt lat="43.20505" lon="-0.56949">
        <ele>303.308075</ele>
      </trkpt>
      <trkpt lat="43.20514" lon="-0.56974">
        <ele>304.013123</ele>
      </trkpt>
      <trkpt lat="43.20512" lon="-0.57002">
        <ele>304.444366</ele>
      </trkpt>
      <trkpt lat="43.20513" lon="-0.57038">
        <ele>304.357483</ele>
      </trkpt>
      <trkpt lat="43.20523" lon="-0.57051">
        <ele>304.610016</ele>
      </trkpt>
      <trkpt lat="43.20537" lon="-0.57062">
        <ele>305.068115</ele>
      </trkpt>
      <trkpt lat="43.2054" lon="-0.57073">
        <ele>305.032501</ele>
      </trkpt>
      <trkpt lat="43.20539" lon="-0.57092">
        <ele>304.503235</ele>
      </trkpt>
      <trkpt lat="43.20533" lon="-0.57103">
        <ele>303.989014</ele>
      </trkpt>
      <trkpt lat="43.20528" lon="-0.5712">
        <ele>303.453247</ele>
      </trkpt>
      <trkpt lat="43.20528" lon="-0.57163">
        <ele>301.604156</ele>
      </trkpt>
      <trkpt lat="43.20523" lon="-0.57192">
        <ele>300.083252</ele>
      </trkpt>
      <trkpt lat="43.20517" lon="-0.57207">
        <ele>299.726166</ele>
      </trkpt>
      <trkpt lat="43.20511" lon="-0.57212">
        <ele>299.824707</ele>
      </trkpt>
      <trkpt lat="43.20515" lon="-0.57224">
        <ele>299.35968</ele>
      </trkpt>
      <trkpt lat="43.20511" lon="-0.57228">
        <ele>299.37323</ele>
      </trkpt>
      <trkpt lat="43.20502" lon="-0.57229">
        <ele>299.640442</ele>
      </trkpt>
      <trkpt lat="43.20498" lon="-0.57233">
        <ele>299.678497</ele>
      </trkpt>
      <trkpt lat="43.20494" lon="-0.57238">
        <ele>299.617096</ele>
      </trkpt>
      <trkpt lat="43.20496" lon="-0.57246">
        <ele>299.322815</ele>
      </trkpt>
      <trkpt lat="43.20496" lon="-0.57254">
        <ele>299.041412</ele>
      </trkpt>
      <trkpt lat="43.20495" lon="-0.57261">
        <ele>298.85376</ele>
      </trkpt>
      <trkpt lat="43.20486" lon="-0.57281">
        <ele>298.466248</ele>
      </trkpt>
      <trkpt lat="43.20484" lon="-0.57295">
        <ele>298.075012</ele>
      </trkpt>
      <trkpt lat="43.20477" lon="-0.57295">
        <ele>298.397491</ele>
      </trkpt>
      <trkpt lat="43.20473" lon="-0.57289">
        <ele>298.738739</ele>
      </trkpt>
      <trkpt lat="43.20469" lon="-0.57287">
        <ele>298.993744</ele>
      </trkpt>
      <trkpt lat="43.20466" lon="-0.57283">
        <ele>299.276245</ele>
      </trkpt>
      <trkpt lat="43.20458" lon="-0.57299">
        <ele>299.038757</ele>
      </trkpt>
      <trkpt lat="43.20452" lon="-0.57303">
        <ele>299.172516</ele>
      </trkpt>
      <trkpt lat="43.20449" lon="-0.57309">
        <ele>299.097504</ele>
      </trkpt>
      <trkpt lat="43.20451" lon="-0.57314">
        <ele>298.862488</ele>
      </trkpt>
      <trkpt lat="43.20441" lon="-0.57332">
        <ele>298.182159</ele>
      </trkpt>
      <trkpt lat="43.20424" lon="-0.5735">
        <ele>297.542725</ele>
      </trkpt>
      <trkpt lat="43.20414" lon="-0.57372">
        <ele>296.665344</ele>
      </trkpt>
      <trkpt lat="43.20403" lon="-0.57385">
        <ele>296.223114</ele>
      </trkpt>
      <trkpt lat="43.20355" lon="-0.57465">
        <ele>292.760925</ele>
      </trkpt>
      <trkpt lat="43.20339" lon="-0.57496">
        <ele>292.704987</ele>
      </trkpt>
      <trkpt lat="43.20303" lon="-0.57559">
        <ele>293.95813</ele>
      </trkpt>
      <trkpt lat="43.20286" lon="-0.57582">
        <ele>294.135254</ele>
      </trkpt>
      <trkpt lat="43.20281" lon="-0.57599">
        <ele>293.900208</ele>
      </trkpt>
      <trkpt lat="43.20279" lon="-0.57629">
        <ele>293.389008</ele>
      </trkpt>
      <trkpt lat="43.20278" lon="-0.57685">
        <ele>293</ele>
      </trkpt>
      <trkpt lat="43.2027" lon="-0.57712">
        <ele>293</ele>
      </trkpt>
      <trkpt lat="43.20268" lon="-0.57748">
        <ele>292.9086</ele>
      </trkpt>
      <trkpt lat="43.20276" lon="-0.57776">
        <ele>292.736389</ele>
      </trkpt>
      <trkpt lat="43.20275" lon="-0.57785">
        <ele>292.657104</ele>
      </trkpt>
      <trkpt lat="43.20269" lon="-0.57794">
        <ele>292.457275</ele>
      </trkpt>
      <trkpt lat="43.20264" lon="-0.57809">
        <ele>291.993042</ele>
      </trkpt>
      <trkpt lat="43.20259" lon="-0.57816">
        <ele>291.637207</ele>
      </trkpt>
      <trkpt lat="43.20256" lon="-0.57827">
        <ele>291.214203</ele>
      </trkpt>
      <trkpt lat="43.20258" lon="-0.57838">
        <ele>290.859375</ele>
      </trkpt>
      <trkpt lat="43.20262" lon="-0.57842">
        <ele>290.742004</ele>
      </trkpt>
      <trkpt lat="43.20264" lon="-0.5787">
        <ele>289.845734</ele>
      </trkpt>
      <trkpt lat="43.20263" lon="-0.57881">
        <ele>289.635498</ele>
      </trkpt>
      <trkpt lat="43.20262" lon="-0.57903">
        <ele>289.182831</ele>
      </trkpt>
      <trkpt lat="43.2026" lon="-0.5791">
        <ele>289.170746</ele>
      </trkpt>
      <trkpt lat="43.20261" lon="-0.57917">
        <ele>289.007385</ele>
      </trkpt>
      <trkpt lat="43.20257" lon="-0.57948">
        <ele>289.023651</ele>
      </trkpt>
      <trkpt lat="43.20255" lon="-0.57957">
        <ele>289.228424</ele>
      </trkpt>
      <trkpt lat="43.2026" lon="-0.5801">
        <ele>288.237</ele>
      </trkpt>
      <trkpt lat="43.20264" lon="-0.58027">
        <ele>287.960175</ele>
      </trkpt>
      <trkpt lat="43.20266" lon="-0.58054">
        <ele>288.110443</ele>
      </trkpt>
      <trkpt lat="43.20269" lon="-0.58069">
        <ele>288.396423</ele>
      </trkpt>
      <trkpt lat="43.20263" lon="-0.58087">
        <ele>288.58078</ele>
      </trkpt>
      <trkpt lat="43.20262" lon="-0.58106">
        <ele>288.80484</ele>
      </trkpt>
      <trkpt lat="43.20264" lon="-0.58112">
        <ele>288.715607</ele>
      </trkpt>
      <trkpt lat="43.20261" lon="-0.58126">
        <ele>287.598511</ele>
      </trkpt>
      <trkpt lat="43.20259" lon="-0.58132">
        <ele>287.002258</ele>
      </trkpt>
      <trkpt lat="43.2026" lon="-0.58138">
        <ele>286.669922</ele>
      </trkpt>
      <trkpt lat="43.20269" lon="-0.58149">
        <ele>286.853241</ele>
      </trkpt>
      <trkpt lat="43.20273" lon="-0.58165">
        <ele>286.500122</ele>
      </trkpt>
      <trkpt lat="43.20273" lon="-0.58184">
        <ele>285.755371</ele>
      </trkpt>
      <trkpt lat="43.20278" lon="-0.58194">
        <ele>286.195984</ele>
      </trkpt>
      <trkpt lat="43.20276" lon="-0.58201">
        <ele>285.647949</ele>
      </trkpt>
      <trkpt lat="43.20278" lon="-0.58209">
        <ele>285.87735</ele>
      </trkpt>
      <trkpt lat="43.20284" lon="-0.58218">
        <ele>286.942322</ele>
      </trkpt>
      <trkpt lat="43.20287" lon="-0.58227">
        <ele>286.813751</ele>
      </trkpt>
      <trkpt lat="43.20285" lon="-0.58234">
        <ele>286.787109</ele>
      </trkpt>
      <trkpt lat="43.20293" lon="-0.58244">
        <ele>285.402985</ele>
      </trkpt>
      <trkpt lat="43.20297" lon="-0.58252">
        <ele>284.768372</ele>
      </trkpt>
      <trkpt lat="43.20321" lon="-0.58265">
        <ele>282.577515</ele>
      </trkpt>
      <trkpt lat="43.2033" lon="-0.58278">
        <ele>281.859253</ele>
      </trkpt>
      <trkpt lat="43.20341" lon="-0.58307">
        <ele>278.591644</ele>
      </trkpt>
      <trkpt lat="43.20353" lon="-0.58307">
        <ele>276.594269</ele>
      </trkpt>
      <trkpt lat="43.20361" lon="-0.583">
        <ele>275.403778</ele>
      </trkpt>
      <trkpt lat="43.20372" lon="-0.58286">
        <ele>272.661926</ele>
      </trkpt>
      <trkpt lat="43.20379" lon="-0.58282">
        <ele>270.744293</ele>
      </trkpt>
      <trkpt lat="43.20388" lon="-0.58259">
        <ele>267.832062</ele>
      </trkpt>
      <trkpt lat="43.20403" lon="-0.58249">
        <ele>264.475128</ele>
      </trkpt>
      <trkpt lat="43.20443" lon="-0.58243">
        <ele>259.370697</ele>
      </trkpt>
      <trkpt lat="43.20443" lon="-0.5825">
        <ele>259.235718</ele>
      </trkpt>
      <trkpt lat="43.20445" lon="-0.58255">
        <ele>258.918365</ele>
      </trkpt>
      <trkpt lat="43.20453" lon="-0.58242">
        <ele>258.692078</ele>
      </trkpt>
      <trkpt lat="43.20471" lon="-0.5823">
        <ele>258.051788</ele>
      </trkpt>
      <trkpt lat="43.20484" lon="-0.58218">
        <ele>257.135956</ele>
      </trkpt>
      <trkpt lat="43.20487" lon="-0.58222">
        <ele>256.677063</ele>
      </trkpt>
      <trkpt lat="43.20488" lon="-0.58228">
        <ele>256.379944</ele>
      </trkpt>
      <trkpt lat="43.20499" lon="-0.58234">
        <ele>255.071823</ele>
      </trkpt>
      <trkpt lat="43.20508" lon="-0.58203">
        <ele>254.348206</ele>
      </trkpt>
      <trkpt lat="43.20518" lon="-0.5814">
        <ele>255.062195</ele>
      </trkpt>
      <trkpt lat="43.20523" lon="-0.58132">
        <ele>255.434067</ele>
      </trkpt>
      <trkpt lat="43.20529" lon="-0.58135">
        <ele>255.695465</ele>
      </trkpt>
      <trkpt lat="43.20566" lon="-0.58138">
        <ele>258.075012</ele>
      </trkpt>
      <trkpt lat="43.20606" lon="-0.58124">
        <ele>261.529205</ele>
      </trkpt>
      <trkpt lat="43.20624" lon="-0.5812">
        <ele>263.35144</ele>
      </trkpt>
      <trkpt lat="43.20645" lon="-0.58094">
        <ele>266.433411</ele>
      </trkpt>
      <trkpt lat="43.20649" lon="-0.58084">
        <ele>267.255188</ele>
      </trkpt>
      <trkpt lat="43.20652" lon="-0.5807">
        <ele>268.0578</ele>
      </trkpt>
      <trkpt lat="43.20653" lon="-0.58054">
        <ele>269.242554</ele>
      </trkpt>
      <trkpt lat="43.20656" lon="-0.58035">
        <ele>270.841583</ele>
      </trkpt>
      <trkpt lat="43.20669" lon="-0.5799">
        <ele>274.216339</ele>
      </trkpt>
      <trkpt lat="43.20681" lon="-0.57962">
        <ele>276.180817</ele>
      </trkpt>
      <trkpt lat="43.20703" lon="-0.57878">
        <ele>282.337494</ele>
      </trkpt>
      <trkpt lat="43.20712" lon="-0.57731">
        <ele>289.027496</ele>
      </trkpt>
      <trkpt lat="43.20717" lon="-0.57729">
        <ele>289.084991</ele>
      </trkpt>
      <trkpt lat="43.20741" lon="-0.5774">
        <ele>288.787506</ele>
      </trkpt>
      <trkpt lat="43.20756" lon="-0.57764">
        <ele>287.39624</ele>
      </trkpt>
      <trkpt lat="43.20762" lon="-0.57791">
        <ele>285.985443</ele>
      </trkpt>
      <trkpt lat="43.20772" lon="-0.57825">
        <ele>284.452057</ele>
      </trkpt>
      <trkpt lat="43.20778" lon="-0.57841">
        <ele>283.856781</ele>
      </trkpt>
      <trkpt lat="43.20787" lon="-0.57856">
        <ele>283.526215</ele>
      </trkpt>
      <trkpt lat="43.20792" lon="-0.57859">
        <ele>283.386597</ele>
      </trkpt>
      <trkpt lat="43.208" lon="-0.57856">
        <ele>283.13382</ele>
      </trkpt>
      <trkpt lat="43.20823" lon="-0.57833">
        <ele>281.849213</ele>
      </trkpt>
      <trkpt lat="43.20839" lon="-0.57822">
        <ele>280.552887</ele>
      </trkpt>
      <trkpt lat="43.20873" lon="-0.57807">
        <ele>277.430328</ele>
      </trkpt>
      <trkpt lat="43.20884" lon="-0.57806">
        <ele>276.395081</ele>
      </trkpt>
      <trkpt lat="43.20904" lon="-0.57812">
        <ele>274.967285</ele>
      </trkpt>
      <trkpt lat="43.20949" lon="-0.57809">
        <ele>267.731415</ele>
      </trkpt>
      <trkpt lat="43.20972" lon="-0.5781">
        <ele>262.871582</ele>
      </trkpt>
      <trkpt lat="43.21102" lon="-0.57807">
        <ele>250.87294</ele>
      </trkpt>
      <trkpt lat="43.21119" lon="-0.57809">
        <ele>251.035706</ele>
      </trkpt>
      <trkpt lat="43.21129" lon="-0.57819">
        <ele>250.83757</ele>
      </trkpt>
      <trkpt lat="43.21141" lon="-0.57821">
        <ele>250.553101</ele>
      </trkpt>
      <trkpt lat="43.21142" lon="-0.57882">
        <ele>251.704666</ele>
      </trkpt>
      <trkpt lat="43.21152" lon="-0.57961">
        <ele>253.497421</ele>
      </trkpt>
      <trkpt lat="43.21162" lon="-0.57995">
        <ele>251.122757</ele>
      </trkpt>
      <trkpt lat="43.21165" lon="-0.58013">
        <ele>250.080963</ele>
      </trkpt>
      <trkpt lat="43.21185" lon="-0.58066">
        <ele>246.977798</ele>
      </trkpt>
      <trkpt lat="43.21196" lon="-0.58067">
        <ele>247.693283</ele>
      </trkpt>
      <trkpt lat="43.21235" lon="-0.5806">
        <ele>253.629898</ele>
      </trkpt>
      <trkpt lat="43.21262" lon="-0.58048">
        <ele>261.60376</ele>
      </trkpt>
      <trkpt lat="43.21321" lon="-0.58017">
        <ele>275.337952</ele>
      </trkpt>
      <trkpt lat="43.21393" lon="-0.57959">
        <ele>287.20874</ele>
      </trkpt>
      <trkpt lat="43.21462" lon="-0.57884">
        <ele>300.113586</ele>
      </trkpt>
      <trkpt lat="43.21473" lon="-0.57874">
        <ele>302.415131</ele>
      </trkpt>
      <trkpt lat="43.21482" lon="-0.57875">
        <ele>304.062531</ele>
      </trkpt>
      <trkpt lat="43.21523" lon="-0.57907">
        <ele>311.759369</ele>
      </trkpt>
      <trkpt lat="43.21539" lon="-0.57927">
        <ele>315.259369</ele>
      </trkpt>
      <trkpt lat="43.21544" lon="-0.57942">
        <ele>315.96875</ele>
      </trkpt>
      <trkpt lat="43.21551" lon="-0.57958">
        <ele>317.028748</ele>
      </trkpt>
      <trkpt lat="43.21563" lon="-0.57967">
        <ele>319.704651</ele>
      </trkpt>
      <trkpt lat="43.21577" lon="-0.57966">
        <ele>323.231049</ele>
      </trkpt>
      <trkpt lat="43.21587" lon="-0.57968">
        <ele>325.567261</ele>
      </trkpt>
      <trkpt lat="43.21609" lon="-0.57959">
        <ele>331.302643</ele>
      </trkpt>
      <trkpt lat="43.21644" lon="-0.57957">
        <ele>339.142639</ele>
      </trkpt>
      <trkpt lat="43.21661" lon="-0.5797">
        <ele>340.572632</ele>
      </trkpt>
      <trkpt lat="43.2168" lon="-0.57998">
        <ele>342.413544</ele>
      </trkpt>
      <trkpt lat="43.21692" lon="-0.58008">
        <ele>343.005157</ele>
      </trkpt>
      <trkpt lat="43.21704" lon="-0.58015">
        <ele>343.276306</ele>
      </trkpt>
      <trkpt lat="43.21742" lon="-0.58086">
        <ele>342.764038</ele>
      </trkpt>
      <trkpt lat="43.21757" lon="-0.5811">
        <ele>341.774475</ele>
      </trkpt>
      <trkpt lat="43.21787" lon="-0.58165">
        <ele>338.350647</ele>
      </trkpt>
      <trkpt lat="43.21796" lon="-0.58178">
        <ele>337.285461</ele>
      </trkpt>
      <trkpt lat="43.21807" lon="-0.58204">
        <ele>336.091614</ele>
      </trkpt>
      <trkpt lat="43.21842" lon="-0.58274">
        <ele>333.41153</ele>
      </trkpt>
      <trkpt lat="43.21901" lon="-0.58381">
        <ele>336.87619</ele>
      </trkpt>
      <trkpt lat="43.21929" lon="-0.58437">
        <ele>338.302704</ele>
      </trkpt>
      <trkpt lat="43.21959" lon="-0.58487">
        <ele>338.324005</ele>
      </trkpt>
      <trkpt lat="43.21968" lon="-0.58506">
        <ele>339.278687</ele>
      </trkpt>
      <trkpt lat="43.21974" lon="-0.58515">
        <ele>339.463501</ele>
      </trkpt>
      <trkpt lat="43.21986" lon="-0.58521">
        <ele>340.71521</ele>
      </trkpt>
      <trkpt lat="43.21994" lon="-0.58529">
        <ele>340.636658</ele>
      </trkpt>
      <trkpt lat="43.22003" lon="-0.58545">
        <ele>340.751282</ele>
      </trkpt>
      <trkpt lat="43.2202" lon="-0.58583">
        <ele>341.73175</ele>
      </trkpt>
      <trkpt lat="43.2204" lon="-0.58636">
        <ele>341.924286</ele>
      </trkpt>
      <trkpt lat="43.22063" lon="-0.5871">
        <ele>340.152496</ele>
      </trkpt>
      <trkpt lat="43.22069" lon="-0.58725">
        <ele>339.952728</ele>
      </trkpt>
      <trkpt lat="43.2207" lon="-0.58736">
        <ele>339.675018</ele>
      </trkpt>
      <trkpt lat="43.22069" lon="-0.58798">
        <ele>340.494415</ele>
      </trkpt>
      <trkpt lat="43.22076" lon="-0.5886">
        <ele>341.404449</ele>
      </trkpt>
      <trkpt lat="43.22088" lon="-0.58933">
        <ele>341.390686</ele>
      </trkpt>
      <trkpt lat="43.22104" lon="-0.59119">
        <ele>340.62384</ele>
      </trkpt>
      <trkpt lat="43.22101" lon="-0.59185">
        <ele>340.947357</ele>
      </trkpt>
      <trkpt lat="43.22095" lon="-0.59229">
        <ele>340.617493</ele>
      </trkpt>
      <trkpt lat="43.22095" lon="-0.59266">
        <ele>340.673187</ele>
      </trkpt>
      <trkpt lat="43.22103" lon="-0.59296">
        <ele>340.453522</ele>
      </trkpt>
      <trkpt lat="43.22116" lon="-0.59335">
        <ele>340.225769</ele>
      </trkpt>
      <trkpt lat="43.22127" lon="-0.5936">
        <ele>341.068573</ele>
      </trkpt>
      <trkpt lat="43.22133" lon="-0.59384">
        <ele>341.990082</ele>
      </trkpt>
      <trkpt lat="43.2214" lon="-0.5944">
        <ele>342.888763</ele>
      </trkpt>
      <trkpt lat="43.2215" lon="-0.59478">
        <ele>341.18576</ele>
      </trkpt>
      <trkpt lat="43.22149" lon="-0.59522">
        <ele>339.420624</ele>
      </trkpt>
      <trkpt lat="43.22146" lon="-0.59554">
        <ele>338.34787</ele>
      </trkpt>
      <trkpt lat="43.22152" lon="-0.59568">
        <ele>337.278137</ele>
      </trkpt>
      <trkpt lat="43.22156" lon="-0.59586">
        <ele>336.380585</ele>
      </trkpt>
      <trkpt lat="43.22159" lon="-0.59631">
        <ele>336.077209</ele>
      </trkpt>
      <trkpt lat="43.22158" lon="-0.5966">
        <ele>337.659302</ele>
      </trkpt>
      <trkpt lat="43.22167" lon="-0.59682">
        <ele>336.980011</ele>
      </trkpt>
      <trkpt lat="43.22183" lon="-0.59711">
        <ele>333.711975</ele>
      </trkpt>
      <trkpt lat="43.22192" lon="-0.59724">
        <ele>331.545746</ele>
      </trkpt>
      <trkpt lat="43.22199" lon="-0.59737">
        <ele>329.92569</ele>
      </trkpt>
      <trkpt lat="43.22198" lon="-0.59757">
        <ele>329.729492</ele>
      </trkpt>
      <trkpt lat="43.22189" lon="-0.59795">
        <ele>330.693665</ele>
      </trkpt>
      <trkpt lat="43.22176" lon="-0.59842">
        <ele>332.282501</ele>
      </trkpt>
      <trkpt lat="43.22165" lon="-0.59893">
        <ele>333.529999</ele>
      </trkpt>
      <trkpt lat="43.22158" lon="-0.59936">
        <ele>335.203827</ele>
      </trkpt>
      <trkpt lat="43.22159" lon="-0.59964">
        <ele>336.336395</ele>
      </trkpt>
      <trkpt lat="43.22165" lon="-0.59986">
        <ele>336.54248</ele>
      </trkpt>
      <trkpt lat="43.22201" lon="-0.60158">
        <ele>335.89325</ele>
      </trkpt>
      <trkpt lat="43.22208" lon="-0.60196">
        <ele>333.289001</ele>
      </trkpt>
      <trkpt lat="43.22212" lon="-0.60199">
        <ele>332.7146</ele>
      </trkpt>
      <trkpt lat="43.22251" lon="-0.60199">
        <ele>329.786438</ele>
      </trkpt>
      <trkpt lat="43.22274" lon="-0.60196">
        <ele>329.024628</ele>
      </trkpt>
      <trkpt lat="43.223" lon="-0.60196">
        <ele>328.133759</ele>
      </trkpt>
      <trkpt lat="43.22338" lon="-0.60175">
        <ele>327.75882</ele>
      </trkpt>
      <trkpt lat="43.22345" lon="-0.60164">
        <ele>326.890015</ele>
      </trkpt>
      <trkpt lat="43.22371" lon="-0.60259">
        <ele>322.892517</ele>
      </trkpt>
      <trkpt lat="43.22377" lon="-0.60289">
        <ele>321.350739</ele>
      </trkpt>
      <trkpt lat="43.22382" lon="-0.60305">
        <ele>320.870453</ele>
      </trkpt>
      <trkpt lat="43.22388" lon="-0.60316">
        <ele>320.247162</ele>
      </trkpt>
      <trkpt lat="43.22392" lon="-0.60346">
        <ele>318.225067</ele>
      </trkpt>
      <trkpt lat="43.22483" lon="-0.60565">
        <ele>307.917816</ele>
      </trkpt>
      <trkpt lat="43.22495" lon="-0.60595">
        <ele>307.76004</ele>
      </trkpt>
      <trkpt lat="43.225" lon="-0.60622">
        <ele>307.717072</ele>
      </trkpt>
      <trkpt lat="43.225" lon="-0.60639">
        <ele>307.502106</ele>
      </trkpt>
      <trkpt lat="43.22483" lon="-0.60739">
        <ele>305.622681</ele>
      </trkpt>
      <trkpt lat="43.22483" lon="-0.60762">
        <ele>304.710083</ele>
      </trkpt>
      <trkpt lat="43.22479" lon="-0.60769">
        <ele>304.46936</ele>
      </trkpt>
      <trkpt lat="43.2246" lon="-0.60784">
        <ele>303.686249</ele>
      </trkpt>
      <trkpt lat="43.22445" lon="-0.60801">
        <ele>301.428772</ele>
      </trkpt>
      <trkpt lat="43.22439" lon="-0.60812">
        <ele>300.301788</ele>
      </trkpt>
      <trkpt lat="43.22427" lon="-0.60849">
        <ele>296.459045</ele>
      </trkpt>
      <trkpt lat="43.22418" lon="-0.60854">
        <ele>294.83374</ele>
      </trkpt>
      <trkpt lat="43.22407" lon="-0.60865">
        <ele>292.274323</ele>
      </trkpt>
      <trkpt lat="43.22403" lon="-0.60871">
        <ele>291.056122</ele>
      </trkpt>
      <trkpt lat="43.22383" lon="-0.60928">
        <ele>283.64563</ele>
      </trkpt>
      <trkpt lat="43.22365" lon="-0.60949">
        <ele>278.993225</ele>
      </trkpt>
      <trkpt lat="43.22324" lon="-0.61006">
        <ele>269.033936</ele>
      </trkpt>
      <trkpt lat="43.22314" lon="-0.61018">
        <ele>267.14212</ele>
      </trkpt>
      <trkpt lat="43.22261" lon="-0.61062">
        <ele>257.557587</ele>
      </trkpt>
      <trkpt lat="43.22244" lon="-0.61074">
        <ele>254.623901</ele>
      </trkpt>
      <trkpt lat="43.22214" lon="-0.61085">
        <ele>250.177505</ele>
      </trkpt>
      <trkpt lat="43.22205" lon="-0.61085">
        <ele>248.916245</ele>
      </trkpt>
      <trkpt lat="43.22191" lon="-0.61091">
        <ele>246.967499</ele>
      </trkpt>
      <trkpt lat="43.22188" lon="-0.61103">
        <ele>246.731308</ele>
      </trkpt>
      <trkpt lat="43.22188" lon="-0.61122">
        <ele>247.05249</ele>
      </trkpt>
      <trkpt lat="43.22192" lon="-0.61151">
        <ele>248.291992</ele>
      </trkpt>
      <trkpt lat="43.22184" lon="-0.61159">
        <ele>247.307343</ele>
      </trkpt>
      <trkpt lat="43.22166" lon="-0.6117">
        <ele>244.981705</ele>
      </trkpt>
      <trkpt lat="43.22151" lon="-0.61183">
        <ele>242.592575</ele>
      </trkpt>
      <trkpt lat="43.22133" lon="-0.61208">
        <ele>239.747513</ele>
      </trkpt>
      <trkpt lat="43.22107" lon="-0.61236">
        <ele>238.139603</ele>
      </trkpt>
      <trkpt lat="43.22098" lon="-0.61256">
        <ele>237.646652</ele>
      </trkpt>
      <trkpt lat="43.22093" lon="-0.61281">
        <ele>237.682495</ele>
      </trkpt>
      <trkpt lat="43.22071" lon="-0.61323">
        <ele>236.913269</ele>
      </trkpt>
      <trkpt lat="43.22063" lon="-0.61346">
        <ele>236.231125</ele>
      </trkpt>
      <trkpt lat="43.22055" lon="-0.61382">
        <ele>235.22641</ele>
      </trkpt>
      <trkpt lat="43.22052" lon="-0.61419">
        <ele>234.371246</ele>
      </trkpt>
      <trkpt lat="43.22041" lon="-0.61455">
        <ele>232.328751</ele>
      </trkpt>
      <trkpt lat="43.2202" lon="-0.61507">
        <ele>231.760986</ele>
      </trkpt>
      <trkpt lat="43.22006" lon="-0.61565">
        <ele>229.284195</ele>
      </trkpt>
      <trkpt lat="43.22003" lon="-0.61631">
        <ele>226.991974</ele>
      </trkpt>
      <trkpt lat="43.21983" lon="-0.61723">
        <ele>222.35173</ele>
      </trkpt>
      <trkpt lat="43.21982" lon="-0.61743">
        <ele>222.167343</ele>
      </trkpt>
      <trkpt lat="43.2198" lon="-0.61829">
        <ele>221.972275</ele>
      </trkpt>
      <trkpt lat="43.21974" lon="-0.61882">
        <ele>221.403885</ele>
      </trkpt>
      <trkpt lat="43.2197" lon="-0.61937">
        <ele>221.020615</ele>
      </trkpt>
      <trkpt lat="43.2197" lon="-0.61971">
        <ele>219.903519</ele>
      </trkpt>
      <trkpt lat="43.21972" lon="-0.61998">
        <ele>218.888474</ele>
      </trkpt>
      <trkpt lat="43.21971" lon="-0.62007">
        <ele>218.414993</ele>
      </trkpt>
      <trkpt lat="43.21962" lon="-0.62035">
        <ele>217.438126</ele>
      </trkpt>
      <trkpt lat="43.21946" lon="-0.62059">
        <ele>215.965622</ele>
      </trkpt>
      <trkpt lat="43.21937" lon="-0.62067">
        <ele>215.305832</ele>
      </trkpt>
      <trkpt lat="43.21922" lon="-0.62097">
        <ele>214.787506</ele>
      </trkpt>
      <trkpt lat="43.21904" lon="-0.62127">
        <ele>214.411636</ele>
      </trkpt>
      <trkpt lat="43.21888" lon="-0.62143">
        <ele>214.332016</ele>
      </trkpt>
      <trkpt lat="43.21838" lon="-0.62175">
        <ele>214.852081</ele>
      </trkpt>
    </trkseg>
  </trk>
  <trk>
    <name><![CDATA[Thalasso en forêt du Laring]]></name>
    <trkseg>
      <trkpt lat="43.20554" lon="-0.57693">
        <ele>280</ele>
      </trkpt>
      <trkpt lat="43.20591" lon="-0.57674">
        <ele>280</ele>
      </trkpt>
      <trkpt lat="43.20609" lon="-0.57667">
        <ele>280</ele>
      </trkpt>
      <trkpt lat="43.20629" lon="-0.57665">
        <ele>288</ele>
      </trkpt>
      <trkpt lat="43.20645" lon="-0.57679">
        <ele>288</ele>
      </trkpt>
      <trkpt lat="43.20646" lon="-0.57709">
        <ele>288</ele>
      </trkpt>
      <trkpt lat="43.20683" lon="-0.57735">
        <ele>288</ele>
      </trkpt>
      <trkpt lat="43.20692" lon="-0.57755">
        <ele>288</ele>
      </trkpt>
      <trkpt lat="43.20698" lon="-0.57785">
        <ele>288</ele>
      </trkpt>
      <trkpt lat="43.20706" lon="-0.57808">
        <ele>286</ele>
      </trkpt>
      <trkpt lat="43.20717" lon="-0.57832">
        <ele>287</ele>
      </trkpt>
      <trkpt lat="43.20737" lon="-0.5784">
        <ele>287</ele>
      </trkpt>
      <trkpt lat="43.20771" lon="-0.57816">
        <ele>287</ele>
      </trkpt>
      <trkpt lat="43.20809" lon="-0.5781">
        <ele>286</ele>
      </trkpt>
      <trkpt lat="43.20828" lon="-0.5781">
        <ele>286</ele>
      </trkpt>
      <trkpt lat="43.20847" lon="-0.57813">
        <ele>286</ele>
      </trkpt>
      <trkpt lat="43.2091" lon="-0.57803">
        <ele>281</ele>
      </trkpt>
      <trkpt lat="43.20928" lon="-0.57805">
        <ele>281</ele>
      </trkpt>
      <trkpt lat="43.20969" lon="-0.578">
        <ele>270</ele>
      </trkpt>
      <trkpt lat="43.21011" lon="-0.57799">
        <ele>270</ele>
      </trkpt>
      <trkpt lat="43.21033" lon="-0.57801">
        <ele>270</ele>
      </trkpt>
      <trkpt lat="43.21054" lon="-0.57819">
        <ele>259</ele>
      </trkpt>
      <trkpt lat="43.21079" lon="-0.57819">
        <ele>259</ele>
      </trkpt>
      <trkpt lat="43.21098" lon="-0.57822">
        <ele>259</ele>
      </trkpt>
      <trkpt lat="43.21111" lon="-0.57807">
        <ele>259</ele>
      </trkpt>
      <trkpt lat="43.21112" lon="-0.57778">
        <ele>253</ele>
      </trkpt>
      <trkpt lat="43.21101" lon="-0.57756">
        <ele>253</ele>
      </trkpt>
      <trkpt lat="43.21093" lon="-0.57704">
        <ele>254</ele>
      </trkpt>
      <trkpt lat="43.21092" lon="-0.57677">
        <ele>254</ele>
      </trkpt>
      <trkpt lat="43.21083" lon="-0.57656">
        <ele>254</ele>
      </trkpt>
      <trkpt lat="43.2107" lon="-0.57638">
        <ele>254</ele>
      </trkpt>
      <trkpt lat="43.2106" lon="-0.57615">
        <ele>263</ele>
      </trkpt>
      <trkpt lat="43.21054" lon="-0.57591">
        <ele>263</ele>
      </trkpt>
      <trkpt lat="43.21054" lon="-0.57565">
        <ele>263</ele>
      </trkpt>
      <trkpt lat="43.21059" lon="-0.57541">
        <ele>268</ele>
      </trkpt>
      <trkpt lat="43.2107" lon="-0.57521">
        <ele>268</ele>
      </trkpt>
      <trkpt lat="43.21101" lon="-0.57493">
        <ele>268</ele>
      </trkpt>
      <trkpt lat="43.21135" lon="-0.57472">
        <ele>276</ele>
      </trkpt>
      <trkpt lat="43.21167" lon="-0.57446">
        <ele>279</ele>
      </trkpt>
      <trkpt lat="43.21185" lon="-0.57442">
        <ele>279</ele>
      </trkpt>
      <trkpt lat="43.21203" lon="-0.57434">
        <ele>279</ele>
      </trkpt>
      <trkpt lat="43.21236" lon="-0.57412">
        <ele>286</ele>
      </trkpt>
      <trkpt lat="43.21291" lon="-0.57388">
        <ele>286</ele>
      </trkpt>
      <trkpt lat="43.2131" lon="-0.57384">
        <ele>295</ele>
      </trkpt>
      <trkpt lat="43.21347" lon="-0.57381">
        <ele>295</ele>
      </trkpt>
      <trkpt lat="43.21364" lon="-0.57391">
        <ele>295</ele>
      </trkpt>
      <trkpt lat="43.21383" lon="-0.5739">
        <ele>303</ele>
      </trkpt>
      <trkpt lat="43.21455" lon="-0.57414">
        <ele>303</ele>
      </trkpt>
      <trkpt lat="43.21473" lon="-0.5741">
        <ele>317</ele>
      </trkpt>
      <trkpt lat="43.21486" lon="-0.57393">
        <ele>317</ele>
      </trkpt>
      <trkpt lat="43.21492" lon="-0.57369">
        <ele>322</ele>
      </trkpt>
      <trkpt lat="43.21493" lon="-0.57344">
        <ele>322</ele>
      </trkpt>
      <trkpt lat="43.215" lon="-0.57321">
        <ele>322</ele>
      </trkpt>
      <trkpt lat="43.21501" lon="-0.57296">
        <ele>322</ele>
      </trkpt>
      <trkpt lat="43.21509" lon="-0.57276">
        <ele>328</ele>
      </trkpt>
      <trkpt lat="43.21523" lon="-0.5726">
        <ele>328</ele>
      </trkpt>
      <trkpt lat="43.21525" lon="-0.57209">
        <ele>328</ele>
      </trkpt>
      <trkpt lat="43.2153" lon="-0.57185">
        <ele>331</ele>
      </trkpt>
      <trkpt lat="43.21532" lon="-0.57159">
        <ele>331</ele>
      </trkpt>
      <trkpt lat="43.2154" lon="-0.57111">
        <ele>339</ele>
      </trkpt>
      <trkpt lat="43.21546" lon="-0.57086">
        <ele>348</ele>
      </trkpt>
      <trkpt lat="43.21559" lon="-0.57068">
        <ele>348</ele>
      </trkpt>
      <trkpt lat="43.21574" lon="-0.57054">
        <ele>348</ele>
      </trkpt>
      <trkpt lat="43.21592" lon="-0.57063">
        <ele>348</ele>
      </trkpt>
      <trkpt lat="43.2163" lon="-0.57072">
        <ele>340</ele>
      </trkpt>
      <trkpt lat="43.21648" lon="-0.57085">
        <ele>340</ele>
      </trkpt>
      <trkpt lat="43.21659" lon="-0.57108">
        <ele>340</ele>
      </trkpt>
      <trkpt lat="43.21667" lon="-0.57131">
        <ele>347</ele>
      </trkpt>
      <trkpt lat="43.21703" lon="-0.57203">
        <ele>347</ele>
      </trkpt>
      <trkpt lat="43.2171" lon="-0.57225">
        <ele>341</ele>
      </trkpt>
      <trkpt lat="43.21723" lon="-0.57251">
        <ele>341</ele>
      </trkpt>
      <trkpt lat="43.21734" lon="-0.57268">
        <ele>341</ele>
      </trkpt>
      <trkpt lat="43.21778" lon="-0.57258">
        <ele>341</ele>
      </trkpt>
      <trkpt lat="43.21843" lon="-0.57235">
        <ele>332</ele>
      </trkpt>
      <trkpt lat="43.21881" lon="-0.57231">
        <ele>324</ele>
      </trkpt>
      <trkpt lat="43.21898" lon="-0.57245">
        <ele>324</ele>
      </trkpt>
      <trkpt lat="43.2191" lon="-0.57263">
        <ele>324</ele>
      </trkpt>
      <trkpt lat="43.21945" lon="-0.57307">
        <ele>335</ele>
      </trkpt>
      <trkpt lat="43.2196" lon="-0.57323">
        <ele>320</ele>
      </trkpt>
      <trkpt lat="43.21979" lon="-0.57338">
        <ele>320</ele>
      </trkpt>
      <trkpt lat="43.21997" lon="-0.57347">
        <ele>320</ele>
      </trkpt>
      <trkpt lat="43.22015" lon="-0.57334">
        <ele>320</ele>
      </trkpt>
      <trkpt lat="43.22073" lon="-0.57249">
        <ele>300</ele>
      </trkpt>
      <trkpt lat="43.22088" lon="-0.57231">
        <ele>300</ele>
      </trkpt>
      <trkpt lat="43.22109" lon="-0.57238">
        <ele>300</ele>
      </trkpt>
      <trkpt lat="43.22186" lon="-0.57286">
        <ele>289</ele>
      </trkpt>
      <trkpt lat="43.22205" lon="-0.57288">
        <ele>289</ele>
      </trkpt>
      <trkpt lat="43.22226" lon="-0.57286">
        <ele>275</ele>
      </trkpt>
      <trkpt lat="43.22244" lon="-0.5728">
        <ele>275</ele>
      </trkpt>
      <trkpt lat="43.22263" lon="-0.57269">
        <ele>275</ele>
      </trkpt>
      <trkpt lat="43.22283" lon="-0.57254">
        <ele>275</ele>
      </trkpt>
      <trkpt lat="43.22317" lon="-0.57216">
        <ele>262</ele>
      </trkpt>
      <trkpt lat="43.22332" lon="-0.57196">
        <ele>254</ele>
      </trkpt>
      <trkpt lat="43.22344" lon="-0.57171">
        <ele>254</ele>
      </trkpt>
      <trkpt lat="43.22353" lon="-0.57146">
        <ele>254</ele>
      </trkpt>
      <trkpt lat="43.22359" lon="-0.57121">
        <ele>245</ele>
      </trkpt>
      <trkpt lat="43.22354" lon="-0.57096">
        <ele>245</ele>
      </trkpt>
      <trkpt lat="43.22347" lon="-0.57074">
        <ele>245</ele>
      </trkpt>
      <trkpt lat="43.22341" lon="-0.57044">
        <ele>245</ele>
      </trkpt>
      <trkpt lat="43.22316" lon="-0.57002">
        <ele>241</ele>
      </trkpt>
      <trkpt lat="43.22298" lon="-0.56955">
        <ele>240</ele>
      </trkpt>
      <trkpt lat="43.22277" lon="-0.5691">
        <ele>247</ele>
      </trkpt>
      <trkpt lat="43.22274" lon="-0.56884">
        <ele>247</ele>
      </trkpt>
      <trkpt lat="43.22274" lon="-0.5683">
        <ele>243</ele>
      </trkpt>
      <trkpt lat="43.22264" lon="-0.5681">
        <ele>243</ele>
      </trkpt>
      <trkpt lat="43.22258" lon="-0.56785">
        <ele>243</ele>
      </trkpt>
      <trkpt lat="43.22252" lon="-0.56733">
        <ele>243</ele>
      </trkpt>
      <trkpt lat="43.22238" lon="-0.56682">
        <ele>246</ele>
      </trkpt>
      <trkpt lat="43.22217" lon="-0.56635">
        <ele>246</ele>
      </trkpt>
      <trkpt lat="43.22204" lon="-0.56615">
        <ele>244</ele>
      </trkpt>
      <trkpt lat="43.22189" lon="-0.56599">
        <ele>244</ele>
      </trkpt>
      <trkpt lat="43.22154" lon="-0.5657">
        <ele>244</ele>
      </trkpt>
      <trkpt lat="43.22134" lon="-0.56559">
        <ele>244</ele>
      </trkpt>
      <trkpt lat="43.22121" lon="-0.56544">
        <ele>247</ele>
      </trkpt>
      <trkpt lat="43.2214" lon="-0.56535">
        <ele>243</ele>
      </trkpt>
      <trkpt lat="43.22176" lon="-0.5651">
        <ele>243</ele>
      </trkpt>
      <trkpt lat="43.2219" lon="-0.56489">
        <ele>243</ele>
      </trkpt>
      <trkpt lat="43.22196" lon="-0.56467">
        <ele>243</ele>
      </trkpt>
      <trkpt lat="43.22205" lon="-0.56446">
        <ele>242</ele>
      </trkpt>
      <trkpt lat="43.22226" lon="-0.5642">
        <ele>241</ele>
      </trkpt>
      <trkpt lat="43.22325" lon="-0.56285">
        <ele>245</ele>
      </trkpt>
      <trkpt lat="43.22336" lon="-0.56266">
        <ele>245</ele>
      </trkpt>
      <trkpt lat="43.2235" lon="-0.56251">
        <ele>245</ele>
      </trkpt>
      <trkpt lat="43.22387" lon="-0.5626">
        <ele>247</ele>
      </trkpt>
      <trkpt lat="43.22406" lon="-0.56262">
        <ele>247</ele>
      </trkpt>
      <trkpt lat="43.22425" lon="-0.56258">
        <ele>247</ele>
      </trkpt>
      <trkpt lat="43.22444" lon="-0.56258">
        <ele>247</ele>
      </trkpt>
      <trkpt lat="43.22463" lon="-0.56262">
        <ele>257</ele>
      </trkpt>
      <trkpt lat="43.22478" lon="-0.56276">
        <ele>257</ele>
      </trkpt>
      <trkpt lat="43.22486" lon="-0.56299">
        <ele>253</ele>
      </trkpt>
      <trkpt lat="43.22501" lon="-0.56314">
        <ele>253</ele>
      </trkpt>
      <trkpt lat="43.22518" lon="-0.56322">
        <ele>253</ele>
      </trkpt>
      <trkpt lat="43.22529" lon="-0.56306">
        <ele>253</ele>
      </trkpt>
      <trkpt lat="43.22532" lon="-0.5628">
        <ele>257</ele>
      </trkpt>
      <trkpt lat="43.22544" lon="-0.56258">
        <ele>262</ele>
      </trkpt>
      <trkpt lat="43.22551" lon="-0.56234">
        <ele>262</ele>
      </trkpt>
      <trkpt lat="43.2256" lon="-0.56212">
        <ele>262</ele>
      </trkpt>
      <trkpt lat="43.22573" lon="-0.56194">
        <ele>271</ele>
      </trkpt>
      <trkpt lat="43.22579" lon="-0.56169">
        <ele>271</ele>
      </trkpt>
      <trkpt lat="43.22576" lon="-0.56094">
        <ele>281</ele>
      </trkpt>
      <trkpt lat="43.22585" lon="-0.56044">
        <ele>281</ele>
      </trkpt>
      <trkpt lat="43.22581" lon="-0.56019">
        <ele>288</ele>
      </trkpt>
      <trkpt lat="43.2254" lon="-0.55967">
        <ele>281</ele>
      </trkpt>
      <trkpt lat="43.22519" lon="-0.55925">
        <ele>283</ele>
      </trkpt>
      <trkpt lat="43.22516" lon="-0.55901">
        <ele>283</ele>
      </trkpt>
      <trkpt lat="43.22525" lon="-0.55879">
        <ele>283</ele>
      </trkpt>
      <trkpt lat="43.2254" lon="-0.55864">
        <ele>295</ele>
      </trkpt>
      <trkpt lat="43.22556" lon="-0.55852">
        <ele>310</ele>
      </trkpt>
      <trkpt lat="43.22594" lon="-0.55846">
        <ele>310</ele>
      </trkpt>
      <trkpt lat="43.2261" lon="-0.55839">
        <ele>310</ele>
      </trkpt>
      <trkpt lat="43.22631" lon="-0.5584">
        <ele>328</ele>
      </trkpt>
      <trkpt lat="43.22662" lon="-0.55863">
        <ele>328</ele>
      </trkpt>
      <trkpt lat="43.22675" lon="-0.55879">
        <ele>310</ele>
      </trkpt>
      <trkpt lat="43.22697" lon="-0.55891">
        <ele>310</ele>
      </trkpt>
      <trkpt lat="43.2275" lon="-0.55935">
        <ele>327</ele>
      </trkpt>
      <trkpt lat="43.22784" lon="-0.55958">
        <ele>327</ele>
      </trkpt>
      <trkpt lat="43.22811" lon="-0.55994">
        <ele>335</ele>
      </trkpt>
      <trkpt lat="43.22826" lon="-0.56007">
        <ele>335</ele>
      </trkpt>
      <trkpt lat="43.22841" lon="-0.56024">
        <ele>335</ele>
      </trkpt>
      <trkpt lat="43.22858" lon="-0.56033">
        <ele>335</ele>
      </trkpt>
      <trkpt lat="43.22876" lon="-0.5603">
        <ele>345</ele>
      </trkpt>
      <trkpt lat="43.22892" lon="-0.56041">
        <ele>345</ele>
      </trkpt>
      <trkpt lat="43.22902" lon="-0.56061">
        <ele>335</ele>
      </trkpt>
      <trkpt lat="43.22918" lon="-0.56077">
        <ele>335</ele>
      </trkpt>
      <trkpt lat="43.22903" lon="-0.5599">
        <ele>345</ele>
      </trkpt>
      <trkpt lat="43.22894" lon="-0.55958">
        <ele>352</ele>
      </trkpt>
      <trkpt lat="43.22853" lon="-0.55842">
        <ele>353</ele>
      </trkpt>
      <trkpt lat="43.22842" lon="-0.5582">
        <ele>353</ele>
      </trkpt>
      <trkpt lat="43.22815" lon="-0.55778">
        <ele>359</ele>
      </trkpt>
      <trkpt lat="43.22789" lon="-0.55742">
        <ele>355</ele>
      </trkpt>
      <trkpt lat="43.22774" lon="-0.55727">
        <ele>355</ele>
      </trkpt>
      <trkpt lat="43.22764" lon="-0.55708">
        <ele>360</ele>
      </trkpt>
      <trkpt lat="43.22754" lon="-0.55675">
        <ele>360</ele>
      </trkpt>
      <trkpt lat="43.22735" lon="-0.55626">
        <ele>360</ele>
      </trkpt>
      <trkpt lat="43.22723" lon="-0.55601">
        <ele>357</ele>
      </trkpt>
      <trkpt lat="43.22706" lon="-0.55554">
        <ele>362</ele>
      </trkpt>
      <trkpt lat="43.22675" lon="-0.55486">
        <ele>362</ele>
      </trkpt>
      <trkpt lat="43.22633" lon="-0.55433">
        <ele>358</ele>
      </trkpt>
      <trkpt lat="43.22611" lon="-0.55391">
        <ele>359</ele>
      </trkpt>
      <trkpt lat="43.226" lon="-0.55361">
        <ele>355</ele>
      </trkpt>
      <trkpt lat="43.22595" lon="-0.55329">
        <ele>355</ele>
      </trkpt>
      <trkpt lat="43.22593" lon="-0.55294">
        <ele>355</ele>
      </trkpt>
      <trkpt lat="43.22585" lon="-0.5526">
        <ele>346</ele>
      </trkpt>
      <trkpt lat="43.22578" lon="-0.55239">
        <ele>346</ele>
      </trkpt>
      <trkpt lat="43.22548" lon="-0.55178">
        <ele>334</ele>
      </trkpt>
      <trkpt lat="43.22541" lon="-0.55153">
        <ele>345</ele>
      </trkpt>
      <trkpt lat="43.22537" lon="-0.55127">
        <ele>345</ele>
      </trkpt>
      <trkpt lat="43.22536" lon="-0.55101">
        <ele>337</ele>
      </trkpt>
      <trkpt lat="43.22538" lon="-0.55025">
        <ele>333</ele>
      </trkpt>
      <trkpt lat="43.22534" lon="-0.54998">
        <ele>333</ele>
      </trkpt>
      <trkpt lat="43.22526" lon="-0.54972">
        <ele>333</ele>
      </trkpt>
      <trkpt lat="43.22502" lon="-0.54919">
        <ele>335</ele>
      </trkpt>
      <trkpt lat="43.22496" lon="-0.54898">
        <ele>335</ele>
      </trkpt>
      <trkpt lat="43.22495" lon="-0.54857">
        <ele>334</ele>
      </trkpt>
      <trkpt lat="43.22507" lon="-0.54768">
        <ele>336</ele>
      </trkpt>
      <trkpt lat="43.22512" lon="-0.54715">
        <ele>336</ele>
      </trkpt>
      <trkpt lat="43.22507" lon="-0.54637">
        <ele>340</ele>
      </trkpt>
      <trkpt lat="43.22513" lon="-0.54613">
        <ele>342</ele>
      </trkpt>
      <trkpt lat="43.22579" lon="-0.54514">
        <ele>340</ele>
      </trkpt>
      <trkpt lat="43.22593" lon="-0.54496">
        <ele>340</ele>
      </trkpt>
      <trkpt lat="43.2261" lon="-0.54479">
        <ele>340</ele>
      </trkpt>
      <trkpt lat="43.22639" lon="-0.54441">
        <ele>333</ele>
      </trkpt>
      <trkpt lat="43.22654" lon="-0.54418">
        <ele>333</ele>
      </trkpt>
      <trkpt lat="43.22675" lon="-0.54404">
        <ele>333</ele>
      </trkpt>
      <trkpt lat="43.22697" lon="-0.54398">
        <ele>333</ele>
      </trkpt>
      <trkpt lat="43.22738" lon="-0.54392">
        <ele>333</ele>
      </trkpt>
      <trkpt lat="43.22761" lon="-0.54398">
        <ele>333</ele>
      </trkpt>
      <trkpt lat="43.22797" lon="-0.54412">
        <ele>331</ele>
      </trkpt>
      <trkpt lat="43.22813" lon="-0.54425">
        <ele>331</ele>
      </trkpt>
      <trkpt lat="43.22862" lon="-0.54476">
        <ele>337</ele>
      </trkpt>
      <trkpt lat="43.22883" lon="-0.54481">
        <ele>339</ele>
      </trkpt>
      <trkpt lat="43.22903" lon="-0.54472">
        <ele>339</ele>
      </trkpt>
      <trkpt lat="43.22937" lon="-0.54443">
        <ele>331</ele>
      </trkpt>
      <trkpt lat="43.22954" lon="-0.54431">
        <ele>331</ele>
      </trkpt>
      <trkpt lat="43.22972" lon="-0.54433">
        <ele>333</ele>
      </trkpt>
      <trkpt lat="43.23028" lon="-0.54472">
        <ele>340</ele>
      </trkpt>
      <trkpt lat="43.23067" lon="-0.54496">
        <ele>336</ele>
      </trkpt>
      <trkpt lat="43.23101" lon="-0.54527">
        <ele>336</ele>
      </trkpt>
      <trkpt lat="43.23155" lon="-0.54562">
        <ele>339</ele>
      </trkpt>
      <trkpt lat="43.23211" lon="-0.54595">
        <ele>338</ele>
      </trkpt>
      <trkpt lat="43.2323" lon="-0.54592">
        <ele>338</ele>
      </trkpt>
      <trkpt lat="43.2327" lon="-0.5457">
        <ele>338</ele>
      </trkpt>
      <trkpt lat="43.23292" lon="-0.54568">
        <ele>340</ele>
      </trkpt>
      <trkpt lat="43.23313" lon="-0.54561">
        <ele>340</ele>
      </trkpt>
      <trkpt lat="43.23333" lon="-0.54561">
        <ele>340</ele>
      </trkpt>
      <trkpt lat="43.23367" lon="-0.54582">
        <ele>340</ele>
      </trkpt>
      <trkpt lat="43.23386" lon="-0.54577">
        <ele>338</ele>
      </trkpt>
      <trkpt lat="43.2342" lon="-0.5455">
        <ele>338</ele>
      </trkpt>
      <trkpt lat="43.23438" lon="-0.54543">
        <ele>338</ele>
      </trkpt>
      <trkpt lat="43.23456" lon="-0.54533">
        <ele>329</ele>
      </trkpt>
      <trkpt lat="43.23469" lon="-0.54519">
        <ele>334</ele>
      </trkpt>
      <trkpt lat="43.2348" lon="-0.54499">
        <ele>334</ele>
      </trkpt>
      <trkpt lat="43.23514" lon="-0.54469">
        <ele>334</ele>
      </trkpt>
      <trkpt lat="43.23543" lon="-0.54439">
        <ele>322</ele>
      </trkpt>
      <trkpt lat="43.23567" lon="-0.54396">
        <ele>322</ele>
      </trkpt>
      <trkpt lat="43.23578" lon="-0.54343">
        <ele>314</ele>
      </trkpt>
      <trkpt lat="43.23581" lon="-0.54313">
        <ele>314</ele>
      </trkpt>
      <trkpt lat="43.23587" lon="-0.54287">
        <ele>305</ele>
      </trkpt>
      <trkpt lat="43.2359" lon="-0.54263">
        <ele>305</ele>
      </trkpt>
      <trkpt lat="43.23597" lon="-0.54242">
        <ele>305</ele>
      </trkpt>
      <trkpt lat="43.23608" lon="-0.54219">
        <ele>305</ele>
      </trkpt>
      <trkpt lat="43.23621" lon="-0.54201">
        <ele>290</ele>
      </trkpt>
      <trkpt lat="43.23664" lon="-0.54174">
        <ele>292</ele>
      </trkpt>
      <trkpt lat="43.23672" lon="-0.54153">
        <ele>292</ele>
      </trkpt>
      <trkpt lat="43.23662" lon="-0.54133">
        <ele>292</ele>
      </trkpt>
      <trkpt lat="43.23646" lon="-0.54133">
        <ele>292</ele>
      </trkpt>
      <trkpt lat="43.23613" lon="-0.5412">
        <ele>285</ele>
      </trkpt>
      <trkpt lat="43.23618" lon="-0.54094">
        <ele>285</ele>
      </trkpt>
      <trkpt lat="43.23637" lon="-0.54082">
        <ele>286</ele>
      </trkpt>
      <trkpt lat="43.23656" lon="-0.5408">
        <ele>286</ele>
      </trkpt>
      <trkpt lat="43.23678" lon="-0.54083">
        <ele>286</ele>
      </trkpt>
      <trkpt lat="43.23697" lon="-0.54081">
        <ele>286</ele>
      </trkpt>
      <trkpt lat="43.23715" lon="-0.54075">
        <ele>285</ele>
      </trkpt>
      <trkpt lat="43.23732" lon="-0.54066">
        <ele>285</ele>
      </trkpt>
      <trkpt lat="43.23744" lon="-0.54045">
        <ele>285</ele>
      </trkpt>
      <trkpt lat="43.23748" lon="-0.54024">
        <ele>297</ele>
      </trkpt>
      <trkpt lat="43.23751" lon="-0.53978">
        <ele>297</ele>
      </trkpt>
      <trkpt lat="43.23756" lon="-0.53951">
        <ele>306</ele>
      </trkpt>
      <trkpt lat="43.23772" lon="-0.53943">
        <ele>306</ele>
      </trkpt>
      <trkpt lat="43.23785" lon="-0.53962">
        <ele>297</ele>
      </trkpt>
      <trkpt lat="43.23796" lon="-0.53984">
        <ele>301</ele>
      </trkpt>
      <trkpt lat="43.2381" lon="-0.54">
        <ele>301</ele>
      </trkpt>
      <trkpt lat="43.23827" lon="-0.54012">
        <ele>301</ele>
      </trkpt>
      <trkpt lat="43.23887" lon="-0.54023">
        <ele>310</ele>
      </trkpt>
      <trkpt lat="43.23925" lon="-0.54023">
        <ele>310</ele>
      </trkpt>
      <trkpt lat="43.23943" lon="-0.54018">
        <ele>310</ele>
      </trkpt>
      <trkpt lat="43.23956" lon="-0.53998">
        <ele>310</ele>
      </trkpt>
      <trkpt lat="43.23959" lon="-0.53974">
        <ele>308</ele>
      </trkpt>
      <trkpt lat="43.2396" lon="-0.53949">
        <ele>312</ele>
      </trkpt>
      <trkpt lat="43.23946" lon="-0.53872">
        <ele>326</ele>
      </trkpt>
      <trkpt lat="43.2395" lon="-0.53793">
        <ele>326</ele>
      </trkpt>
      <trkpt lat="43.23966" lon="-0.53759">
        <ele>322</ele>
      </trkpt>
      <trkpt lat="43.23963" lon="-0.53755">
        <ele>322</ele>
      </trkpt>
      <trkpt lat="43.23981" lon="-0.53746">
        <ele>322</ele>
      </trkpt>
      <trkpt lat="43.24002" lon="-0.5374">
        <ele>322</ele>
      </trkpt>
      <trkpt lat="43.24059" lon="-0.53761">
        <ele>322</ele>
      </trkpt>
      <trkpt lat="43.24117" lon="-0.53786">
        <ele>322</ele>
      </trkpt>
      <trkpt lat="43.24134" lon="-0.53797">
        <ele>321</ele>
      </trkpt>
      <trkpt lat="43.24152" lon="-0.53842">
        <ele>321</ele>
      </trkpt>
      <trkpt lat="43.2417" lon="-0.53898">
        <ele>316</ele>
      </trkpt>
      <trkpt lat="43.24194" lon="-0.53945">
        <ele>316</ele>
      </trkpt>
      <trkpt lat="43.24202" lon="-0.53972">
        <ele>307</ele>
      </trkpt>
      <trkpt lat="43.24217" lon="-0.54053">
        <ele>307</ele>
      </trkpt>
      <trkpt lat="43.2423" lon="-0.54079">
        <ele>307</ele>
      </trkpt>
      <trkpt lat="43.24245" lon="-0.54095">
        <ele>307</ele>
      </trkpt>
      <trkpt lat="43.24262" lon="-0.54106">
        <ele>307</ele>
      </trkpt>
      <trkpt lat="43.2428" lon="-0.54113">
        <ele>307</ele>
      </trkpt>
      <trkpt lat="43.2432" lon="-0.54136">
        <ele>300</ele>
      </trkpt>
      <trkpt lat="43.24341" lon="-0.54141">
        <ele>300</ele>
      </trkpt>
      <trkpt lat="43.24404" lon="-0.54202">
        <ele>300</ele>
      </trkpt>
      <trkpt lat="43.24448" lon="-0.54252">
        <ele>296</ele>
      </trkpt>
      <trkpt lat="43.24481" lon="-0.54285">
        <ele>298</ele>
      </trkpt>
      <trkpt lat="43.24494" lon="-0.54302">
        <ele>291</ele>
      </trkpt>
      <trkpt lat="43.24504" lon="-0.54323">
        <ele>291</ele>
      </trkpt>
      <trkpt lat="43.24519" lon="-0.54345">
        <ele>291</ele>
      </trkpt>
      <trkpt lat="43.24525" lon="-0.54371">
        <ele>291</ele>
      </trkpt>
      <trkpt lat="43.24536" lon="-0.5439">
        <ele>281</ele>
      </trkpt>
      <trkpt lat="43.2455" lon="-0.54409">
        <ele>294</ele>
      </trkpt>
      <trkpt lat="43.24584" lon="-0.54439">
        <ele>294</ele>
      </trkpt>
      <trkpt lat="43.24602" lon="-0.54452">
        <ele>294</ele>
      </trkpt>
      <trkpt lat="43.2462" lon="-0.54456">
        <ele>294</ele>
      </trkpt>
      <trkpt lat="43.24639" lon="-0.54455">
        <ele>297</ele>
      </trkpt>
      <trkpt lat="43.24655" lon="-0.54463">
        <ele>296</ele>
      </trkpt>
      <trkpt lat="43.24671" lon="-0.54482">
        <ele>296</ele>
      </trkpt>
      <trkpt lat="43.24683" lon="-0.54503">
        <ele>296</ele>
      </trkpt>
      <trkpt lat="43.24697" lon="-0.54521">
        <ele>296</ele>
      </trkpt>
      <trkpt lat="43.24707" lon="-0.54542">
        <ele>290</ele>
      </trkpt>
      <trkpt lat="43.24722" lon="-0.5456">
        <ele>303</ele>
      </trkpt>
      <trkpt lat="43.24732" lon="-0.54581">
        <ele>303</ele>
      </trkpt>
      <trkpt lat="43.24743" lon="-0.54628">
        <ele>304</ele>
      </trkpt>
      <trkpt lat="43.24754" lon="-0.54653">
        <ele>304</ele>
      </trkpt>
      <trkpt lat="43.24759" lon="-0.54678">
        <ele>304</ele>
      </trkpt>
      <trkpt lat="43.24769" lon="-0.54701">
        <ele>304</ele>
      </trkpt>
      <trkpt lat="43.24777" lon="-0.54725">
        <ele>305</ele>
      </trkpt>
      <trkpt lat="43.24761" lon="-0.5477">
        <ele>305</ele>
      </trkpt>
      <trkpt lat="43.24756" lon="-0.54795">
        <ele>305</ele>
      </trkpt>
      <trkpt lat="43.24753" lon="-0.54821">
        <ele>305</ele>
      </trkpt>
      <trkpt lat="43.24752" lon="-0.54848">
        <ele>305</ele>
      </trkpt>
      <trkpt lat="43.24761" lon="-0.54899">
        <ele>309</ele>
      </trkpt>
      <trkpt lat="43.24761" lon="-0.54924">
        <ele>309</ele>
      </trkpt>
      <trkpt lat="43.24768" lon="-0.54949">
        <ele>309</ele>
      </trkpt>
      <trkpt lat="43.2477" lon="-0.54974">
        <ele>311</ele>
      </trkpt>
      <trkpt lat="43.24783" lon="-0.55026">
        <ele>311</ele>
      </trkpt>
      <trkpt lat="43.24793" lon="-0.55049">
        <ele>304</ele>
      </trkpt>
      <trkpt lat="43.24806" lon="-0.55072">
        <ele>304</ele>
      </trkpt>
      <trkpt lat="43.24821" lon="-0.55086">
        <ele>304</ele>
      </trkpt>
      <trkpt lat="43.24833" lon="-0.55106">
        <ele>304</ele>
      </trkpt>
      <trkpt lat="43.24839" lon="-0.5513">
        <ele>296</ele>
      </trkpt>
      <trkpt lat="43.24853" lon="-0.55148">
        <ele>296</ele>
      </trkpt>
      <trkpt lat="43.24885" lon="-0.55175">
        <ele>300</ele>
      </trkpt>
      <trkpt lat="43.24926" lon="-0.55202">
        <ele>300</ele>
      </trkpt>
      <trkpt lat="43.24963" lon="-0.5522">
        <ele>293</ele>
      </trkpt>
      <trkpt lat="43.2498" lon="-0.55231">
        <ele>293</ele>
      </trkpt>
      <trkpt lat="43.25018" lon="-0.55249">
        <ele>293</ele>
      </trkpt>
      <trkpt lat="43.25051" lon="-0.55275">
        <ele>286</ele>
      </trkpt>
      <trkpt lat="43.25066" lon="-0.55292">
        <ele>288</ele>
      </trkpt>
      <trkpt lat="43.25095" lon="-0.55332">
        <ele>288</ele>
      </trkpt>
      <trkpt lat="43.25113" lon="-0.55347">
        <ele>288</ele>
      </trkpt>
      <trkpt lat="43.25134" lon="-0.55389">
        <ele>297</ele>
      </trkpt>
      <trkpt lat="43.25142" lon="-0.55411">
        <ele>297</ele>
      </trkpt>
      <trkpt lat="43.25154" lon="-0.55431">
        <ele>297</ele>
      </trkpt>
      <trkpt lat="43.25169" lon="-0.55448">
        <ele>297</ele>
      </trkpt>
      <trkpt lat="43.25185" lon="-0.55459">
        <ele>290</ele>
      </trkpt>
      <trkpt lat="43.25218" lon="-0.55487">
        <ele>303</ele>
      </trkpt>
      <trkpt lat="43.25236" lon="-0.55492">
        <ele>303</ele>
      </trkpt>
      <trkpt lat="43.25255" lon="-0.55502">
        <ele>303</ele>
      </trkpt>
      <trkpt lat="43.25271" lon="-0.55516">
        <ele>303</ele>
      </trkpt>
      <trkpt lat="43.25283" lon="-0.55533">
        <ele>303</ele>
      </trkpt>
      <trkpt lat="43.25304" lon="-0.5554">
        <ele>304</ele>
      </trkpt>
      <trkpt lat="43.25374" lon="-0.55552">
        <ele>300</ele>
      </trkpt>
      <trkpt lat="43.25392" lon="-0.55563">
        <ele>305</ele>
      </trkpt>
      <trkpt lat="43.25486" lon="-0.55594">
        <ele>310</ele>
      </trkpt>
      <trkpt lat="43.25506" lon="-0.55604">
        <ele>310</ele>
      </trkpt>
      <trkpt lat="43.25579" lon="-0.55648">
        <ele>306</ele>
      </trkpt>
      <trkpt lat="43.25617" lon="-0.55668">
        <ele>306</ele>
      </trkpt>
      <trkpt lat="43.25656" lon="-0.55677">
        <ele>309</ele>
      </trkpt>
      <trkpt lat="43.25676" lon="-0.55678">
        <ele>309</ele>
      </trkpt>
      <trkpt lat="43.25711" lon="-0.55686">
        <ele>300</ele>
      </trkpt>
      <trkpt lat="43.2576" lon="-0.55711">
        <ele>300</ele>
      </trkpt>
      <trkpt lat="43.25783" lon="-0.55715">
        <ele>300</ele>
      </trkpt>
      <trkpt lat="43.25841" lon="-0.55708">
        <ele>289</ele>
      </trkpt>
      <trkpt lat="43.25883" lon="-0.55727">
        <ele>288</ele>
      </trkpt>
      <trkpt lat="43.25902" lon="-0.55743">
        <ele>288</ele>
      </trkpt>
      <trkpt lat="43.25935" lon="-0.55754">
        <ele>288</ele>
      </trkpt>
      <trkpt lat="43.25997" lon="-0.55787">
        <ele>266</ele>
      </trkpt>
      <trkpt lat="43.26036" lon="-0.55804">
        <ele>277</ele>
      </trkpt>
      <trkpt lat="43.26049" lon="-0.55816">
        <ele>260</ele>
      </trkpt>
      <trkpt lat="43.2607" lon="-0.55826">
        <ele>260</ele>
      </trkpt>
      <trkpt lat="43.26088" lon="-0.5583">
        <ele>260</ele>
      </trkpt>
      <trkpt lat="43.26126" lon="-0.55826">
        <ele>234</ele>
      </trkpt>
      <trkpt lat="43.26163" lon="-0.55836">
        <ele>234</ele>
      </trkpt>
      <trkpt lat="43.26182" lon="-0.5585">
        <ele>234</ele>
      </trkpt>
      <trkpt lat="43.26218" lon="-0.55869">
        <ele>206</ele>
      </trkpt>
      <trkpt lat="43.26292" lon="-0.559">
        <ele>200</ele>
      </trkpt>
      <trkpt lat="43.26312" lon="-0.55905">
        <ele>200</ele>
      </trkpt>
      <trkpt lat="43.26328" lon="-0.55922">
        <ele>200</ele>
      </trkpt>
      <trkpt lat="43.26342" lon="-0.55942">
        <ele>200</ele>
      </trkpt>
      <trkpt lat="43.26348" lon="-0.55969">
        <ele>199</ele>
      </trkpt>
      <trkpt lat="43.26347" lon="-0.55996">
        <ele>199</ele>
      </trkpt>
      <trkpt lat="43.26359" lon="-0.56017">
        <ele>199</ele>
      </trkpt>
      <trkpt lat="43.26381" lon="-0.56018">
        <ele>182</ele>
      </trkpt>
      <trkpt lat="43.26437" lon="-0.55998">
        <ele>182</ele>
      </trkpt>
      <trkpt lat="43.26437" lon="-0.56004">
        <ele>182</ele>
      </trkpt>
      <trkpt lat="43.26443" lon="-0.55994">
        <ele>182</ele>
      </trkpt>
      <trkpt lat="43.26436" lon="-0.56012">
        <ele>182</ele>
      </trkpt>
      <trkpt lat="43.26444" lon="-0.56036">
        <ele>182</ele>
      </trkpt>
      <trkpt lat="43.26472" lon="-0.56067">
        <ele>186</ele>
      </trkpt>
      <trkpt lat="43.26497" lon="-0.56107">
        <ele>186</ele>
      </trkpt>
      <trkpt lat="43.26505" lon="-0.56126">
        <ele>189</ele>
      </trkpt>
      <trkpt lat="43.26519" lon="-0.56151">
        <ele>189</ele>
      </trkpt>
      <trkpt lat="43.26539" lon="-0.56194">
        <ele>189</ele>
      </trkpt>
      <trkpt lat="43.26552" lon="-0.56212">
        <ele>190</ele>
      </trkpt>
      <trkpt lat="43.26591" lon="-0.56297">
        <ele>195</ele>
      </trkpt>
      <trkpt lat="43.26595" lon="-0.56321">
        <ele>195</ele>
      </trkpt>
      <trkpt lat="43.26587" lon="-0.56344">
        <ele>195</ele>
      </trkpt>
      <trkpt lat="43.26584" lon="-0.56367">
        <ele>195</ele>
      </trkpt>
      <trkpt lat="43.2657" lon="-0.56384">
        <ele>196</ele>
      </trkpt>
      <trkpt lat="43.26533" lon="-0.56389">
        <ele>200</ele>
      </trkpt>
      <trkpt lat="43.26514" lon="-0.56394">
        <ele>200</ele>
      </trkpt>
      <trkpt lat="43.26497" lon="-0.56407">
        <ele>200</ele>
      </trkpt>
      <trkpt lat="43.26469" lon="-0.56434">
        <ele>200</ele>
      </trkpt>
      <trkpt lat="43.26451" lon="-0.56444">
        <ele>218</ele>
      </trkpt>
      <trkpt lat="43.26417" lon="-0.56416">
        <ele>218</ele>
      </trkpt>
      <trkpt lat="43.26385" lon="-0.56396">
        <ele>218</ele>
      </trkpt>
      <trkpt lat="43.26347" lon="-0.56387">
        <ele>227</ele>
      </trkpt>
      <trkpt lat="43.26329" lon="-0.56393">
        <ele>227</ele>
      </trkpt>
      <trkpt lat="43.26311" lon="-0.56394">
        <ele>227</ele>
      </trkpt>
      <trkpt lat="43.26295" lon="-0.56391">
        <ele>227</ele>
      </trkpt>
      <trkpt lat="43.2626" lon="-0.56375">
        <ele>239</ele>
      </trkpt>
      <trkpt lat="43.26241" lon="-0.56374">
        <ele>217</ele>
      </trkpt>
      <trkpt lat="43.26225" lon="-0.56377">
        <ele>239</ele>
      </trkpt>
      <trkpt lat="43.26209" lon="-0.56377">
        <ele>239</ele>
      </trkpt>
      <trkpt lat="43.26172" lon="-0.56386">
        <ele>250</ele>
      </trkpt>
      <trkpt lat="43.26156" lon="-0.56392">
        <ele>250</ele>
      </trkpt>
      <trkpt lat="43.26121" lon="-0.56412">
        <ele>253</ele>
      </trkpt>
      <trkpt lat="43.26104" lon="-0.56419">
        <ele>253</ele>
      </trkpt>
      <trkpt lat="43.2609" lon="-0.56414">
        <ele>253</ele>
      </trkpt>
      <trkpt lat="43.26082" lon="-0.56433">
        <ele>253</ele>
      </trkpt>
      <trkpt lat="43.2607" lon="-0.56454">
        <ele>253</ele>
      </trkpt>
      <trkpt lat="43.26055" lon="-0.56466">
        <ele>277</ele>
      </trkpt>
      <trkpt lat="43.26016" lon="-0.56459">
        <ele>283</ele>
      </trkpt>
      <trkpt lat="43.25999" lon="-0.56451">
        <ele>262</ele>
      </trkpt>
      <trkpt lat="43.25981" lon="-0.56446">
        <ele>262</ele>
      </trkpt>
      <trkpt lat="43.25962" lon="-0.56447">
        <ele>262</ele>
      </trkpt>
      <trkpt lat="43.25925" lon="-0.56439">
        <ele>274</ele>
      </trkpt>
      <trkpt lat="43.25874" lon="-0.5641">
        <ele>268</ele>
      </trkpt>
      <trkpt lat="43.25853" lon="-0.56403">
        <ele>268</ele>
      </trkpt>
      <trkpt lat="43.25832" lon="-0.56406">
        <ele>268</ele>
      </trkpt>
      <trkpt lat="43.25816" lon="-0.56421">
        <ele>268</ele>
      </trkpt>
      <trkpt lat="43.25803" lon="-0.5644">
        <ele>268</ele>
      </trkpt>
      <trkpt lat="43.25795" lon="-0.56463">
        <ele>291</ele>
      </trkpt>
      <trkpt lat="43.25789" lon="-0.56487">
        <ele>268</ele>
      </trkpt>
      <trkpt lat="43.25775" lon="-0.56529">
        <ele>268</ele>
      </trkpt>
      <trkpt lat="43.25759" lon="-0.56534">
        <ele>268</ele>
      </trkpt>
      <trkpt lat="43.25741" lon="-0.56528">
        <ele>268</ele>
      </trkpt>
      <trkpt lat="43.25715" lon="-0.56524">
        <ele>268</ele>
      </trkpt>
      <trkpt lat="43.25694" lon="-0.56532">
        <ele>277</ele>
      </trkpt>
      <trkpt lat="43.25676" lon="-0.56532">
        <ele>277</ele>
      </trkpt>
      <trkpt lat="43.2566" lon="-0.56525">
        <ele>277</ele>
      </trkpt>
      <trkpt lat="43.25642" lon="-0.56513">
        <ele>277</ele>
      </trkpt>
      <trkpt lat="43.25631" lon="-0.56493">
        <ele>277</ele>
      </trkpt>
      <trkpt lat="43.2563" lon="-0.56469">
        <ele>277</ele>
      </trkpt>
      <trkpt lat="43.25616" lon="-0.56427">
        <ele>299</ele>
      </trkpt>
      <trkpt lat="43.25603" lon="-0.56409">
        <ele>299</ele>
      </trkpt>
      <trkpt lat="43.25576" lon="-0.56385">
        <ele>299</ele>
      </trkpt>
      <trkpt lat="43.25544" lon="-0.56369">
        <ele>286</ele>
      </trkpt>
      <trkpt lat="43.25501" lon="-0.56354">
        <ele>294</ele>
      </trkpt>
      <trkpt lat="43.25463" lon="-0.56344">
        <ele>294</ele>
      </trkpt>
      <trkpt lat="43.25445" lon="-0.56347">
        <ele>303</ele>
      </trkpt>
      <trkpt lat="43.25415" lon="-0.56363">
        <ele>303</ele>
      </trkpt>
      <trkpt lat="43.25394" lon="-0.56377">
        <ele>310</ele>
      </trkpt>
      <trkpt lat="43.25386" lon="-0.56393">
        <ele>310</ele>
      </trkpt>
      <trkpt lat="43.25399" lon="-0.56411">
        <ele>310</ele>
      </trkpt>
      <trkpt lat="43.25424" lon="-0.56436">
        <ele>310</ele>
      </trkpt>
      <trkpt lat="43.25458" lon="-0.56465">
        <ele>308</ele>
      </trkpt>
      <trkpt lat="43.25488" lon="-0.56498">
        <ele>312</ele>
      </trkpt>
      <trkpt lat="43.25531" lon="-0.56551">
        <ele>314</ele>
      </trkpt>
      <trkpt lat="43.25563" lon="-0.5658">
        <ele>309</ele>
      </trkpt>
      <trkpt lat="43.25587" lon="-0.56625">
        <ele>311</ele>
      </trkpt>
      <trkpt lat="43.2562" lon="-0.56653">
        <ele>311</ele>
      </trkpt>
      <trkpt lat="43.25655" lon="-0.56679">
        <ele>308</ele>
      </trkpt>
      <trkpt lat="43.25672" lon="-0.56689">
        <ele>308</ele>
      </trkpt>
      <trkpt lat="43.25714" lon="-0.56707">
        <ele>309</ele>
      </trkpt>
      <trkpt lat="43.25795" lon="-0.56734">
        <ele>311</ele>
      </trkpt>
      <trkpt lat="43.25813" lon="-0.56736">
        <ele>311</ele>
      </trkpt>
      <trkpt lat="43.25851" lon="-0.56745">
        <ele>311</ele>
      </trkpt>
      <trkpt lat="43.25871" lon="-0.56747">
        <ele>311</ele>
      </trkpt>
      <trkpt lat="43.25939" lon="-0.56739">
        <ele>312</ele>
      </trkpt>
      <trkpt lat="43.25946" lon="-0.56752">
        <ele>312</ele>
      </trkpt>
      <trkpt lat="43.2594" lon="-0.56775">
        <ele>312</ele>
      </trkpt>
      <trkpt lat="43.25939" lon="-0.56829">
        <ele>309</ele>
      </trkpt>
      <trkpt lat="43.25945" lon="-0.56907">
        <ele>307</ele>
      </trkpt>
      <trkpt lat="43.25966" lon="-0.56987">
        <ele>297</ele>
      </trkpt>
      <trkpt lat="43.25971" lon="-0.57039">
        <ele>297</ele>
      </trkpt>
      <trkpt lat="43.25971" lon="-0.57096">
        <ele>297</ele>
      </trkpt>
      <trkpt lat="43.25975" lon="-0.5712">
        <ele>297</ele>
      </trkpt>
      <trkpt lat="43.25982" lon="-0.57145">
        <ele>297</ele>
      </trkpt>
      <trkpt lat="43.25989" lon="-0.57189">
        <ele>297</ele>
      </trkpt>
      <trkpt lat="43.25997" lon="-0.5722">
        <ele>297</ele>
      </trkpt>
      <trkpt lat="43.26001" lon="-0.57247">
        <ele>297</ele>
      </trkpt>
      <trkpt lat="43.26005" lon="-0.5732">
        <ele>301</ele>
      </trkpt>
      <trkpt lat="43.26004" lon="-0.57344">
        <ele>301</ele>
      </trkpt>
      <trkpt lat="43.25984" lon="-0.57364">
        <ele>301</ele>
      </trkpt>
      <trkpt lat="43.25972" lon="-0.57366">
        <ele>301</ele>
      </trkpt>
      <trkpt lat="43.25961" lon="-0.5728">
        <ele>297</ele>
      </trkpt>
      <trkpt lat="43.25956" lon="-0.57254">
        <ele>276</ele>
      </trkpt>
      <trkpt lat="43.25947" lon="-0.57226">
        <ele>276</ele>
      </trkpt>
      <trkpt lat="43.25934" lon="-0.57176">
        <ele>283</ele>
      </trkpt>
      <trkpt lat="43.259" lon="-0.57073">
        <ele>292</ele>
      </trkpt>
      <trkpt lat="43.25891" lon="-0.57054">
        <ele>292</ele>
      </trkpt>
      <trkpt lat="43.25882" lon="-0.57074">
        <ele>292</ele>
      </trkpt>
      <trkpt lat="43.25881" lon="-0.57109">
        <ele>292</ele>
      </trkpt>
      <trkpt lat="43.25891" lon="-0.57195">
        <ele>283</ele>
      </trkpt>
      <trkpt lat="43.2588" lon="-0.57297">
        <ele>282</ele>
      </trkpt>
      <trkpt lat="43.25875" lon="-0.57326">
        <ele>282</ele>
      </trkpt>
      <trkpt lat="43.25865" lon="-0.57347">
        <ele>251</ele>
      </trkpt>
      <trkpt lat="43.25833" lon="-0.57377">
        <ele>257</ele>
      </trkpt>
      <trkpt lat="43.2582" lon="-0.57392">
        <ele>257</ele>
      </trkpt>
      <trkpt lat="43.25803" lon="-0.57406">
        <ele>257</ele>
      </trkpt>
      <trkpt lat="43.25768" lon="-0.57419">
        <ele>228</ele>
      </trkpt>
      <trkpt lat="43.25732" lon="-0.57437">
        <ele>228</ele>
      </trkpt>
      <trkpt lat="43.25714" lon="-0.57456">
        <ele>228</ele>
      </trkpt>
      <trkpt lat="43.25691" lon="-0.57497">
        <ele>206</ele>
      </trkpt>
      <trkpt lat="43.25692" lon="-0.57526">
        <ele>206</ele>
      </trkpt>
      <trkpt lat="43.25696" lon="-0.57556">
        <ele>201</ele>
      </trkpt>
      <trkpt lat="43.25701" lon="-0.57578">
        <ele>201</ele>
      </trkpt>
      <trkpt lat="43.25696" lon="-0.57604">
        <ele>201</ele>
      </trkpt>
      <trkpt lat="43.25682" lon="-0.57621">
        <ele>201</ele>
      </trkpt>
      <trkpt lat="43.25608" lon="-0.57726">
        <ele>204</ele>
      </trkpt>
      <trkpt lat="43.25593" lon="-0.57729">
        <ele>204</ele>
      </trkpt>
      <trkpt lat="43.25563" lon="-0.57657">
        <ele>202</ele>
      </trkpt>
      <trkpt lat="43.25541" lon="-0.57612">
        <ele>208</ele>
      </trkpt>
      <trkpt lat="43.25496" lon="-0.57558">
        <ele>208</ele>
      </trkpt>
      <trkpt lat="43.25469" lon="-0.57517">
        <ele>206</ele>
      </trkpt>
      <trkpt lat="43.25459" lon="-0.57497">
        <ele>206</ele>
      </trkpt>
      <trkpt lat="43.25445" lon="-0.57485">
        <ele>217</ele>
      </trkpt>
      <trkpt lat="43.25412" lon="-0.57516">
        <ele>217</ele>
      </trkpt>
      <trkpt lat="43.25396" lon="-0.57522">
        <ele>217</ele>
      </trkpt>
      <trkpt lat="43.25369" lon="-0.57485">
        <ele>239</ele>
      </trkpt>
      <trkpt lat="43.25352" lon="-0.57472">
        <ele>239</ele>
      </trkpt>
      <trkpt lat="43.25308" lon="-0.57426">
        <ele>223</ele>
      </trkpt>
      <trkpt lat="43.25291" lon="-0.57419">
        <ele>234</ele>
      </trkpt>
      <trkpt lat="43.25251" lon="-0.57416">
        <ele>234</ele>
      </trkpt>
      <trkpt lat="43.25233" lon="-0.57418">
        <ele>234</ele>
      </trkpt>
      <trkpt lat="43.25226" lon="-0.57433">
        <ele>234</ele>
      </trkpt>
      <trkpt lat="43.25239" lon="-0.57452">
        <ele>234</ele>
      </trkpt>
      <trkpt lat="43.25273" lon="-0.57477">
        <ele>252</ele>
      </trkpt>
      <trkpt lat="43.25287" lon="-0.57494">
        <ele>252</ele>
      </trkpt>
      <trkpt lat="43.25299" lon="-0.57514">
        <ele>239</ele>
      </trkpt>
      <trkpt lat="43.25318" lon="-0.57559">
        <ele>255</ele>
      </trkpt>
      <trkpt lat="43.25325" lon="-0.57582">
        <ele>255</ele>
      </trkpt>
      <trkpt lat="43.25334" lon="-0.57604">
        <ele>255</ele>
      </trkpt>
      <trkpt lat="43.25339" lon="-0.5763">
        <ele>268</ele>
      </trkpt>
      <trkpt lat="43.25347" lon="-0.57706">
        <ele>268</ele>
      </trkpt>
      <trkpt lat="43.25344" lon="-0.57731">
        <ele>273</ele>
      </trkpt>
      <trkpt lat="43.25335" lon="-0.57751">
        <ele>273</ele>
      </trkpt>
      <trkpt lat="43.25332" lon="-0.57777">
        <ele>273</ele>
      </trkpt>
      <trkpt lat="43.25336" lon="-0.57803">
        <ele>278</ele>
      </trkpt>
      <trkpt lat="43.25335" lon="-0.57852">
        <ele>278</ele>
      </trkpt>
      <trkpt lat="43.25332" lon="-0.57877">
        <ele>274</ele>
      </trkpt>
      <trkpt lat="43.25323" lon="-0.57898">
        <ele>274</ele>
      </trkpt>
      <trkpt lat="43.25282" lon="-0.57953">
        <ele>292</ele>
      </trkpt>
      <trkpt lat="43.25265" lon="-0.57961">
        <ele>273</ele>
      </trkpt>
      <trkpt lat="43.25231" lon="-0.57968">
        <ele>273</ele>
      </trkpt>
      <trkpt lat="43.25157" lon="-0.57968">
        <ele>285</ele>
      </trkpt>
      <trkpt lat="43.251" lon="-0.57957">
        <ele>304</ele>
      </trkpt>
      <trkpt lat="43.25052" lon="-0.57914">
        <ele>304</ele>
      </trkpt>
      <trkpt lat="43.24995" lon="-0.57843">
        <ele>304</ele>
      </trkpt>
      <trkpt lat="43.24966" lon="-0.57779">
        <ele>313</ele>
      </trkpt>
      <trkpt lat="43.24922" lon="-0.57737">
        <ele>305</ele>
      </trkpt>
      <trkpt lat="43.2491" lon="-0.57715">
        <ele>305</ele>
      </trkpt>
      <trkpt lat="43.249" lon="-0.57705">
        <ele>312</ele>
      </trkpt>
      <trkpt lat="43.24909" lon="-0.57704">
        <ele>312</ele>
      </trkpt>
      <trkpt lat="43.24921" lon="-0.57716">
        <ele>305</ele>
      </trkpt>
      <trkpt lat="43.24939" lon="-0.57727">
        <ele>305</ele>
      </trkpt>
      <trkpt lat="43.24954" lon="-0.57741">
        <ele>305</ele>
      </trkpt>
      <trkpt lat="43.25006" lon="-0.57774">
        <ele>313</ele>
      </trkpt>
      <trkpt lat="43.25035" lon="-0.57796">
        <ele>304</ele>
      </trkpt>
      <trkpt lat="43.25092" lon="-0.57832">
        <ele>318</ele>
      </trkpt>
      <trkpt lat="43.25109" lon="-0.57845">
        <ele>318</ele>
      </trkpt>
      <trkpt lat="43.25129" lon="-0.57851">
        <ele>316</ele>
      </trkpt>
      <trkpt lat="43.25149" lon="-0.57848">
        <ele>316</ele>
      </trkpt>
      <trkpt lat="43.2515" lon="-0.57827">
        <ele>316</ele>
      </trkpt>
      <trkpt lat="43.25134" lon="-0.57813">
        <ele>316</ele>
      </trkpt>
      <trkpt lat="43.24978" lon="-0.57709">
        <ele>313</ele>
      </trkpt>
      <trkpt lat="43.24972" lon="-0.57683">
        <ele>306</ele>
      </trkpt>
      <trkpt lat="43.24964" lon="-0.5766">
        <ele>306</ele>
      </trkpt>
      <trkpt lat="43.24948" lon="-0.57642">
        <ele>312</ele>
      </trkpt>
      <trkpt lat="43.2487" lon="-0.57569">
        <ele>312</ele>
      </trkpt>
      <trkpt lat="43.24824" lon="-0.57521">
        <ele>317</ele>
      </trkpt>
      <trkpt lat="43.24809" lon="-0.57502">
        <ele>317</ele>
      </trkpt>
      <trkpt lat="43.24777" lon="-0.57469">
        <ele>315</ele>
      </trkpt>
      <trkpt lat="43.24729" lon="-0.57424">
        <ele>320</ele>
      </trkpt>
      <trkpt lat="43.24685" lon="-0.57378">
        <ele>317</ele>
      </trkpt>
      <trkpt lat="43.24634" lon="-0.57332">
        <ele>320</ele>
      </trkpt>
      <trkpt lat="43.24632" lon="-0.5731">
        <ele>320</ele>
      </trkpt>
      <trkpt lat="43.24681" lon="-0.57142">
        <ele>323</ele>
      </trkpt>
      <trkpt lat="43.24687" lon="-0.57115">
        <ele>324</ele>
      </trkpt>
      <trkpt lat="43.24694" lon="-0.57094">
        <ele>324</ele>
      </trkpt>
      <trkpt lat="43.24712" lon="-0.57099">
        <ele>315</ele>
      </trkpt>
      <trkpt lat="43.2473" lon="-0.57112">
        <ele>315</ele>
      </trkpt>
      <trkpt lat="43.24745" lon="-0.57138">
        <ele>311</ele>
      </trkpt>
      <trkpt lat="43.24754" lon="-0.57187">
        <ele>311</ele>
      </trkpt>
      <trkpt lat="43.24764" lon="-0.5727">
        <ele>309</ele>
      </trkpt>
      <trkpt lat="43.24789" lon="-0.57217">
        <ele>309</ele>
      </trkpt>
      <trkpt lat="43.24803" lon="-0.57194">
        <ele>297</ele>
      </trkpt>
      <trkpt lat="43.24819" lon="-0.57175">
        <ele>297</ele>
      </trkpt>
      <trkpt lat="43.24836" lon="-0.57168">
        <ele>297</ele>
      </trkpt>
      <trkpt lat="43.24855" lon="-0.57166">
        <ele>297</ele>
      </trkpt>
      <trkpt lat="43.24875" lon="-0.57167">
        <ele>297</ele>
      </trkpt>
      <trkpt lat="43.24893" lon="-0.57165">
        <ele>284</ele>
      </trkpt>
      <trkpt lat="43.24934" lon="-0.57154">
        <ele>284</ele>
      </trkpt>
      <trkpt lat="43.24977" lon="-0.57151">
        <ele>275</ele>
      </trkpt>
      <trkpt lat="43.24997" lon="-0.57144">
        <ele>275</ele>
      </trkpt>
      <trkpt lat="43.2501" lon="-0.57123">
        <ele>281</ele>
      </trkpt>
      <trkpt lat="43.25006" lon="-0.57098">
        <ele>281</ele>
      </trkpt>
      <trkpt lat="43.24994" lon="-0.57074">
        <ele>281</ele>
      </trkpt>
      <trkpt lat="43.24979" lon="-0.57053">
        <ele>281</ele>
      </trkpt>
      <trkpt lat="43.24962" lon="-0.57006">
        <ele>267</ele>
      </trkpt>
      <trkpt lat="43.24944" lon="-0.56966">
        <ele>279</ele>
      </trkpt>
      <trkpt lat="43.24936" lon="-0.56937">
        <ele>264</ele>
      </trkpt>
      <trkpt lat="43.24923" lon="-0.56914">
        <ele>264</ele>
      </trkpt>
      <trkpt lat="43.24911" lon="-0.569">
        <ele>264</ele>
      </trkpt>
      <trkpt lat="43.24893" lon="-0.56871">
        <ele>246</ele>
      </trkpt>
      <trkpt lat="43.24863" lon="-0.56798">
        <ele>264</ele>
      </trkpt>
      <trkpt lat="43.24849" lon="-0.56754">
        <ele>247</ele>
      </trkpt>
      <trkpt lat="43.24855" lon="-0.56751">
        <ele>247</ele>
      </trkpt>
      <trkpt lat="43.24885" lon="-0.56787">
        <ele>232</ele>
      </trkpt>
      <trkpt lat="43.24906" lon="-0.56791">
        <ele>232</ele>
      </trkpt>
      <trkpt lat="43.24924" lon="-0.56791">
        <ele>232</ele>
      </trkpt>
      <trkpt lat="43.24964" lon="-0.56816">
        <ele>231</ele>
      </trkpt>
      <trkpt lat="43.2498" lon="-0.56815">
        <ele>231</ele>
      </trkpt>
      <trkpt lat="43.24952" lon="-0.56787">
        <ele>232</ele>
      </trkpt>
      <trkpt lat="43.24887" lon="-0.56728">
        <ele>232</ele>
      </trkpt>
      <trkpt lat="43.24872" lon="-0.56717">
        <ele>247</ele>
      </trkpt>
      <trkpt lat="43.24846" lon="-0.56691">
        <ele>238</ele>
      </trkpt>
      <trkpt lat="43.24829" lon="-0.56679">
        <ele>238</ele>
      </trkpt>
      <trkpt lat="43.2481" lon="-0.5667">
        <ele>238</ele>
      </trkpt>
      <trkpt lat="43.24741" lon="-0.56622">
        <ele>243</ele>
      </trkpt>
      <trkpt lat="43.24709" lon="-0.56595">
        <ele>243</ele>
      </trkpt>
      <trkpt lat="43.24681" lon="-0.56567">
        <ele>246</ele>
      </trkpt>
      <trkpt lat="43.2466" lon="-0.56523">
        <ele>255</ele>
      </trkpt>
      <trkpt lat="43.24642" lon="-0.56517">
        <ele>255</ele>
      </trkpt>
      <trkpt lat="43.24609" lon="-0.56501">
        <ele>249</ele>
      </trkpt>
      <trkpt lat="43.24587" lon="-0.56496">
        <ele>249</ele>
      </trkpt>
      <trkpt lat="43.24553" lon="-0.56479">
        <ele>249</ele>
      </trkpt>
      <trkpt lat="43.24539" lon="-0.56469">
        <ele>254</ele>
      </trkpt>
      <trkpt lat="43.24509" lon="-0.56437">
        <ele>263</ele>
      </trkpt>
      <trkpt lat="43.24494" lon="-0.56426">
        <ele>263</ele>
      </trkpt>
      <trkpt lat="43.24459" lon="-0.56413">
        <ele>263</ele>
      </trkpt>
      <trkpt lat="43.24446" lon="-0.56393">
        <ele>257</ele>
      </trkpt>
      <trkpt lat="43.24422" lon="-0.56391">
        <ele>257</ele>
      </trkpt>
      <trkpt lat="43.24406" lon="-0.56394">
        <ele>257</ele>
      </trkpt>
      <trkpt lat="43.24371" lon="-0.56389">
        <ele>258</ele>
      </trkpt>
      <trkpt lat="43.24334" lon="-0.56378">
        <ele>258</ele>
      </trkpt>
      <trkpt lat="43.2429" lon="-0.56357">
        <ele>266</ele>
      </trkpt>
      <trkpt lat="43.24276" lon="-0.56348">
        <ele>266</ele>
      </trkpt>
      <trkpt lat="43.24263" lon="-0.56355">
        <ele>266</ele>
      </trkpt>
      <trkpt lat="43.24239" lon="-0.56363">
        <ele>266</ele>
      </trkpt>
      <trkpt lat="43.24223" lon="-0.56364">
        <ele>266</ele>
      </trkpt>
      <trkpt lat="43.24201" lon="-0.56359">
        <ele>268</ele>
      </trkpt>
      <trkpt lat="43.24183" lon="-0.56358">
        <ele>268</ele>
      </trkpt>
      <trkpt lat="43.24164" lon="-0.56363">
        <ele>268</ele>
      </trkpt>
      <trkpt lat="43.24088" lon="-0.56344">
        <ele>270</ele>
      </trkpt>
      <trkpt lat="43.2407" lon="-0.56343">
        <ele>270</ele>
      </trkpt>
      <trkpt lat="43.24031" lon="-0.56334">
        <ele>274</ele>
      </trkpt>
      <trkpt lat="43.23991" lon="-0.56328">
        <ele>274</ele>
      </trkpt>
      <trkpt lat="43.23973" lon="-0.56323">
        <ele>274</ele>
      </trkpt>
      <trkpt lat="43.23917" lon="-0.56298">
        <ele>276</ele>
      </trkpt>
      <trkpt lat="43.23898" lon="-0.56295">
        <ele>276</ele>
      </trkpt>
      <trkpt lat="43.23801" lon="-0.56331">
        <ele>273</ele>
      </trkpt>
      <trkpt lat="43.23764" lon="-0.5634">
        <ele>278</ele>
      </trkpt>
      <trkpt lat="43.23725" lon="-0.56339">
        <ele>278</ele>
      </trkpt>
      <trkpt lat="43.23706" lon="-0.56347">
        <ele>283</ele>
      </trkpt>
      <trkpt lat="43.23688" lon="-0.5635">
        <ele>283</ele>
      </trkpt>
      <trkpt lat="43.23629" lon="-0.56351">
        <ele>283</ele>
      </trkpt>
      <trkpt lat="43.23612" lon="-0.5634">
        <ele>286</ele>
      </trkpt>
      <trkpt lat="43.23593" lon="-0.56341">
        <ele>286</ele>
      </trkpt>
      <trkpt lat="43.23556" lon="-0.56332">
        <ele>286</ele>
      </trkpt>
      <trkpt lat="43.23503" lon="-0.56334">
        <ele>290</ele>
      </trkpt>
      <trkpt lat="43.23447" lon="-0.56302">
        <ele>286</ele>
      </trkpt>
      <trkpt lat="43.2343" lon="-0.56295">
        <ele>286</ele>
      </trkpt>
      <trkpt lat="43.23391" lon="-0.56284">
        <ele>299</ele>
      </trkpt>
      <trkpt lat="43.23375" lon="-0.56269">
        <ele>294</ele>
      </trkpt>
      <trkpt lat="43.23359" lon="-0.56274">
        <ele>294</ele>
      </trkpt>
      <trkpt lat="43.23353" lon="-0.56299">
        <ele>290</ele>
      </trkpt>
      <trkpt lat="43.23354" lon="-0.56325">
        <ele>290</ele>
      </trkpt>
      <trkpt lat="43.23368" lon="-0.56344">
        <ele>290</ele>
      </trkpt>
      <trkpt lat="43.23377" lon="-0.56363">
        <ele>286</ele>
      </trkpt>
      <trkpt lat="43.23384" lon="-0.56388">
        <ele>289</ele>
      </trkpt>
      <trkpt lat="43.23387" lon="-0.56408">
        <ele>289</ele>
      </trkpt>
      <trkpt lat="43.23385" lon="-0.5643">
        <ele>289</ele>
      </trkpt>
      <trkpt lat="43.2338" lon="-0.56455">
        <ele>289</ele>
      </trkpt>
      <trkpt lat="43.23376" lon="-0.56489">
        <ele>303</ele>
      </trkpt>
      <trkpt lat="43.23378" lon="-0.56515">
        <ele>303</ele>
      </trkpt>
      <trkpt lat="43.23387" lon="-0.5656">
        <ele>312</ele>
      </trkpt>
      <trkpt lat="43.23397" lon="-0.56586">
        <ele>312</ele>
      </trkpt>
      <trkpt lat="43.2341" lon="-0.56602">
        <ele>312</ele>
      </trkpt>
      <trkpt lat="43.23425" lon="-0.56616">
        <ele>312</ele>
      </trkpt>
      <trkpt lat="43.23454" lon="-0.5665">
        <ele>312</ele>
      </trkpt>
      <trkpt lat="43.23486" lon="-0.56681">
        <ele>319</ele>
      </trkpt>
      <trkpt lat="43.23499" lon="-0.567">
        <ele>319</ele>
      </trkpt>
      <trkpt lat="43.23606" lon="-0.56914">
        <ele>328</ele>
      </trkpt>
      <trkpt lat="43.2363" lon="-0.56977">
        <ele>338</ele>
      </trkpt>
      <trkpt lat="43.23637" lon="-0.57069">
        <ele>337</ele>
      </trkpt>
      <trkpt lat="43.23631" lon="-0.57087">
        <ele>337</ele>
      </trkpt>
      <trkpt lat="43.23621" lon="-0.57107">
        <ele>328</ele>
      </trkpt>
      <trkpt lat="43.23578" lon="-0.5717">
        <ele>338</ele>
      </trkpt>
      <trkpt lat="43.23565" lon="-0.57194">
        <ele>338</ele>
      </trkpt>
      <trkpt lat="43.23537" lon="-0.57267">
        <ele>333</ele>
      </trkpt>
      <trkpt lat="43.23516" lon="-0.57376">
        <ele>332</ele>
      </trkpt>
      <trkpt lat="43.23513" lon="-0.57406">
        <ele>332</ele>
      </trkpt>
      <trkpt lat="43.23508" lon="-0.57428">
        <ele>332</ele>
      </trkpt>
      <trkpt lat="43.23506" lon="-0.57475">
        <ele>334</ele>
      </trkpt>
      <trkpt lat="43.23516" lon="-0.57503">
        <ele>334</ele>
      </trkpt>
      <trkpt lat="43.23519" lon="-0.5753">
        <ele>334</ele>
      </trkpt>
      <trkpt lat="43.23515" lon="-0.57632">
        <ele>341</ele>
      </trkpt>
      <trkpt lat="43.23515" lon="-0.57686">
        <ele>341</ele>
      </trkpt>
      <trkpt lat="43.23528" lon="-0.57736">
        <ele>341</ele>
      </trkpt>
      <trkpt lat="43.23554" lon="-0.57813">
        <ele>335</ele>
      </trkpt>
      <trkpt lat="43.23573" lon="-0.57858">
        <ele>335</ele>
      </trkpt>
      <trkpt lat="43.23586" lon="-0.57876">
        <ele>339</ele>
      </trkpt>
      <trkpt lat="43.23619" lon="-0.57905">
        <ele>339</ele>
      </trkpt>
      <trkpt lat="43.2374" lon="-0.58044">
        <ele>334</ele>
      </trkpt>
      <trkpt lat="43.23809" lon="-0.58132">
        <ele>329</ele>
      </trkpt>
      <trkpt lat="43.23823" lon="-0.58153">
        <ele>329</ele>
      </trkpt>
      <trkpt lat="43.23858" lon="-0.58216">
        <ele>333</ele>
      </trkpt>
      <trkpt lat="43.23902" lon="-0.58271">
        <ele>325</ele>
      </trkpt>
      <trkpt lat="43.23952" lon="-0.58319">
        <ele>331</ele>
      </trkpt>
      <trkpt lat="43.23966" lon="-0.58342">
        <ele>327</ele>
      </trkpt>
      <trkpt lat="43.23975" lon="-0.58364">
        <ele>327</ele>
      </trkpt>
      <trkpt lat="43.24026" lon="-0.58408">
        <ele>338</ele>
      </trkpt>
      <trkpt lat="43.24043" lon="-0.58419">
        <ele>327</ele>
      </trkpt>
      <trkpt lat="43.24074" lon="-0.58427">
        <ele>327</ele>
      </trkpt>
      <trkpt lat="43.24119" lon="-0.58435">
        <ele>327</ele>
      </trkpt>
      <trkpt lat="43.24139" lon="-0.58435">
        <ele>316</ele>
      </trkpt>
      <trkpt lat="43.24157" lon="-0.58439">
        <ele>316</ele>
      </trkpt>
      <trkpt lat="43.24177" lon="-0.58452">
        <ele>316</ele>
      </trkpt>
      <trkpt lat="43.24188" lon="-0.58464">
        <ele>323</ele>
      </trkpt>
      <trkpt lat="43.24204" lon="-0.58493">
        <ele>323</ele>
      </trkpt>
      <trkpt lat="43.24247" lon="-0.58582">
        <ele>320</ele>
      </trkpt>
      <trkpt lat="43.24255" lon="-0.58604">
        <ele>320</ele>
      </trkpt>
      <trkpt lat="43.2427" lon="-0.58628">
        <ele>322</ele>
      </trkpt>
      <trkpt lat="43.24284" lon="-0.58646">
        <ele>322</ele>
      </trkpt>
      <trkpt lat="43.24297" lon="-0.58667">
        <ele>314</ele>
      </trkpt>
      <trkpt lat="43.24313" lon="-0.58686">
        <ele>314</ele>
      </trkpt>
      <trkpt lat="43.24424" lon="-0.58752">
        <ele>312</ele>
      </trkpt>
      <trkpt lat="43.24494" lon="-0.58799">
        <ele>310</ele>
      </trkpt>
      <trkpt lat="43.24516" lon="-0.58809">
        <ele>310</ele>
      </trkpt>
      <trkpt lat="43.24551" lon="-0.58839">
        <ele>312</ele>
      </trkpt>
      <trkpt lat="43.24605" lon="-0.58869">
        <ele>312</ele>
      </trkpt>
      <trkpt lat="43.24696" lon="-0.58925">
        <ele>310</ele>
      </trkpt>
      <trkpt lat="43.24715" lon="-0.5894">
        <ele>310</ele>
      </trkpt>
      <trkpt lat="43.24775" lon="-0.58971">
        <ele>310</ele>
      </trkpt>
      <trkpt lat="43.24824" lon="-0.59012">
        <ele>311</ele>
      </trkpt>
      <trkpt lat="43.24865" lon="-0.59028">
        <ele>311</ele>
      </trkpt>
      <trkpt lat="43.24904" lon="-0.59063">
        <ele>306</ele>
      </trkpt>
      <trkpt lat="43.24917" lon="-0.59087">
        <ele>306</ele>
      </trkpt>
      <trkpt lat="43.24929" lon="-0.59133">
        <ele>290</ele>
      </trkpt>
      <trkpt lat="43.24934" lon="-0.59166">
        <ele>290</ele>
      </trkpt>
      <trkpt lat="43.2494" lon="-0.59188">
        <ele>290</ele>
      </trkpt>
      <trkpt lat="43.24952" lon="-0.59216">
        <ele>273</ele>
      </trkpt>
      <trkpt lat="43.24977" lon="-0.59255">
        <ele>272</ele>
      </trkpt>
      <trkpt lat="43.2499" lon="-0.59288">
        <ele>272</ele>
      </trkpt>
      <trkpt lat="43.25003" lon="-0.59314">
        <ele>261</ele>
      </trkpt>
      <trkpt lat="43.25033" lon="-0.59353">
        <ele>261</ele>
      </trkpt>
      <trkpt lat="43.25042" lon="-0.5937">
        <ele>260</ele>
      </trkpt>
      <trkpt lat="43.25059" lon="-0.59418">
        <ele>260</ele>
      </trkpt>
      <trkpt lat="43.25084" lon="-0.59463">
        <ele>242</ele>
      </trkpt>
      <trkpt lat="43.25113" lon="-0.595">
        <ele>242</ele>
      </trkpt>
      <trkpt lat="43.25128" lon="-0.59516">
        <ele>251</ele>
      </trkpt>
      <trkpt lat="43.25154" lon="-0.5955">
        <ele>236</ele>
      </trkpt>
      <trkpt lat="43.25172" lon="-0.59567">
        <ele>236</ele>
      </trkpt>
      <trkpt lat="43.25209" lon="-0.59612">
        <ele>237</ele>
      </trkpt>
      <trkpt lat="43.25225" lon="-0.59617">
        <ele>237</ele>
      </trkpt>
      <trkpt lat="43.25238" lon="-0.59614">
        <ele>237</ele>
      </trkpt>
      <trkpt lat="43.25254" lon="-0.59604">
        <ele>237</ele>
      </trkpt>
      <trkpt lat="43.25269" lon="-0.59587">
        <ele>237</ele>
      </trkpt>
      <trkpt lat="43.25279" lon="-0.59571">
        <ele>237</ele>
      </trkpt>
      <trkpt lat="43.25288" lon="-0.59551">
        <ele>237</ele>
      </trkpt>
      <trkpt lat="43.25291" lon="-0.59579">
        <ele>237</ele>
      </trkpt>
      <trkpt lat="43.2529" lon="-0.59602">
        <ele>237</ele>
      </trkpt>
      <trkpt lat="43.25285" lon="-0.59624">
        <ele>237</ele>
      </trkpt>
      <trkpt lat="43.25276" lon="-0.59643">
        <ele>222</ele>
      </trkpt>
      <trkpt lat="43.25273" lon="-0.59672">
        <ele>222</ele>
      </trkpt>
      <trkpt lat="43.25279" lon="-0.59693">
        <ele>222</ele>
      </trkpt>
      <trkpt lat="43.25295" lon="-0.59703">
        <ele>207</ele>
      </trkpt>
      <trkpt lat="43.25331" lon="-0.59719">
        <ele>205</ele>
      </trkpt>
      <trkpt lat="43.25343" lon="-0.59728">
        <ele>205</ele>
      </trkpt>
      <trkpt lat="43.2533" lon="-0.59746">
        <ele>205</ele>
      </trkpt>
      <trkpt lat="43.253" lon="-0.5978">
        <ele>205</ele>
      </trkpt>
      <trkpt lat="43.25229" lon="-0.5983">
        <ele>207</ele>
      </trkpt>
      <trkpt lat="43.25183" lon="-0.59879">
        <ele>211</ele>
      </trkpt>
      <trkpt lat="43.25139" lon="-0.59934">
        <ele>211</ele>
      </trkpt>
      <trkpt lat="43.25109" lon="-0.59967">
        <ele>219</ele>
      </trkpt>
      <trkpt lat="43.25036" lon="-0.60056">
        <ele>231</ele>
      </trkpt>
      <trkpt lat="43.2498" lon="-0.6013">
        <ele>233</ele>
      </trkpt>
      <trkpt lat="43.24908" lon="-0.60218">
        <ele>233</ele>
      </trkpt>
      <trkpt lat="43.24884" lon="-0.6025">
        <ele>233</ele>
      </trkpt>
      <trkpt lat="43.24858" lon="-0.60297">
        <ele>237</ele>
      </trkpt>
      <trkpt lat="43.24847" lon="-0.60321">
        <ele>237</ele>
      </trkpt>
      <trkpt lat="43.24823" lon="-0.60363">
        <ele>237</ele>
      </trkpt>
      <trkpt lat="43.24813" lon="-0.60386">
        <ele>239</ele>
      </trkpt>
      <trkpt lat="43.24812" lon="-0.6046">
        <ele>243</ele>
      </trkpt>
      <trkpt lat="43.24807" lon="-0.60507">
        <ele>243</ele>
      </trkpt>
      <trkpt lat="43.24805" lon="-0.60554">
        <ele>247</ele>
      </trkpt>
      <trkpt lat="43.248" lon="-0.60573">
        <ele>247</ele>
      </trkpt>
      <trkpt lat="43.24776" lon="-0.60624">
        <ele>263</ele>
      </trkpt>
      <trkpt lat="43.24776" lon="-0.60648">
        <ele>267</ele>
      </trkpt>
      <trkpt lat="43.24792" lon="-0.60696">
        <ele>253</ele>
      </trkpt>
      <trkpt lat="43.24821" lon="-0.60765">
        <ele>264</ele>
      </trkpt>
      <trkpt lat="43.24833" lon="-0.60798">
        <ele>269</ele>
      </trkpt>
      <trkpt lat="43.24836" lon="-0.60823">
        <ele>269</ele>
      </trkpt>
      <trkpt lat="43.24847" lon="-0.60875">
        <ele>269</ele>
      </trkpt>
      <trkpt lat="43.2485" lon="-0.6092">
        <ele>276</ele>
      </trkpt>
      <trkpt lat="43.2484" lon="-0.60938">
        <ele>276</ele>
      </trkpt>
      <trkpt lat="43.24827" lon="-0.60945">
        <ele>276</ele>
      </trkpt>
      <trkpt lat="43.24808" lon="-0.60942">
        <ele>276</ele>
      </trkpt>
      <trkpt lat="43.2479" lon="-0.60933">
        <ele>279</ele>
      </trkpt>
      <trkpt lat="43.24734" lon="-0.60919">
        <ele>279</ele>
      </trkpt>
      <trkpt lat="43.24715" lon="-0.60922">
        <ele>279</ele>
      </trkpt>
      <trkpt lat="43.24682" lon="-0.60945">
        <ele>293</ele>
      </trkpt>
      <trkpt lat="43.24669" lon="-0.60951">
        <ele>293</ele>
      </trkpt>
      <trkpt lat="43.24636" lon="-0.60955">
        <ele>293</ele>
      </trkpt>
      <trkpt lat="43.2458" lon="-0.60973">
        <ele>293</ele>
      </trkpt>
      <trkpt lat="43.24517" lon="-0.6099">
        <ele>295</ele>
      </trkpt>
      <trkpt lat="43.24501" lon="-0.60999">
        <ele>295</ele>
      </trkpt>
      <trkpt lat="43.24482" lon="-0.61014">
        <ele>295</ele>
      </trkpt>
      <trkpt lat="43.24473" lon="-0.61036">
        <ele>295</ele>
      </trkpt>
      <trkpt lat="43.24469" lon="-0.61063">
        <ele>283</ele>
      </trkpt>
      <trkpt lat="43.24489" lon="-0.6116">
        <ele>277</ele>
      </trkpt>
      <trkpt lat="43.24491" lon="-0.61182">
        <ele>277</ele>
      </trkpt>
      <trkpt lat="43.24487" lon="-0.61202">
        <ele>277</ele>
      </trkpt>
      <trkpt lat="43.24473" lon="-0.61236">
        <ele>273</ele>
      </trkpt>
      <trkpt lat="43.2446" lon="-0.61258">
        <ele>273</ele>
      </trkpt>
      <trkpt lat="43.24436" lon="-0.61291">
        <ele>279</ele>
      </trkpt>
      <trkpt lat="43.24416" lon="-0.61313">
        <ele>274</ele>
      </trkpt>
      <trkpt lat="43.24319" lon="-0.61403">
        <ele>271</ele>
      </trkpt>
      <trkpt lat="43.24293" lon="-0.61431">
        <ele>271</ele>
      </trkpt>
      <trkpt lat="43.24277" lon="-0.61443">
        <ele>274</ele>
      </trkpt>
      <trkpt lat="43.2424" lon="-0.61463">
        <ele>262</ele>
      </trkpt>
      <trkpt lat="43.24208" lon="-0.61486">
        <ele>257</ele>
      </trkpt>
      <trkpt lat="43.24146" lon="-0.61511">
        <ele>257</ele>
      </trkpt>
      <trkpt lat="43.24135" lon="-0.61518">
        <ele>257</ele>
      </trkpt>
      <trkpt lat="43.24093" lon="-0.61536">
        <ele>250</ele>
      </trkpt>
      <trkpt lat="43.2408" lon="-0.61544">
        <ele>240</ele>
      </trkpt>
      <trkpt lat="43.24049" lon="-0.61556">
        <ele>240</ele>
      </trkpt>
      <trkpt lat="43.2396" lon="-0.61598">
        <ele>241</ele>
      </trkpt>
      <trkpt lat="43.23912" lon="-0.61617">
        <ele>232</ele>
      </trkpt>
      <trkpt lat="43.23898" lon="-0.61632">
        <ele>229</ele>
      </trkpt>
      <trkpt lat="43.23736" lon="-0.61864">
        <ele>222</ele>
      </trkpt>
      <trkpt lat="43.23723" lon="-0.61864">
        <ele>222</ele>
      </trkpt>
      <trkpt lat="43.23715" lon="-0.61846">
        <ele>222</ele>
      </trkpt>
      <trkpt lat="43.23707" lon="-0.61833">
        <ele>225</ele>
      </trkpt>
      <trkpt lat="43.23701" lon="-0.61814">
        <ele>225</ele>
      </trkpt>
      <trkpt lat="43.23703" lon="-0.61792">
        <ele>225</ele>
      </trkpt>
      <trkpt lat="43.23702" lon="-0.61711">
        <ele>237</ele>
      </trkpt>
      <trkpt lat="43.23689" lon="-0.61728">
        <ele>237</ele>
      </trkpt>
      <trkpt lat="43.23701" lon="-0.61717">
        <ele>237</ele>
      </trkpt>
      <trkpt lat="43.23696" lon="-0.6172">
        <ele>237</ele>
      </trkpt>
      <trkpt lat="43.23699" lon="-0.61708">
        <ele>238</ele>
      </trkpt>
      <trkpt lat="43.23729" lon="-0.61629">
        <ele>239</ele>
      </trkpt>
      <trkpt lat="43.23739" lon="-0.61608">
        <ele>243</ele>
      </trkpt>
      <trkpt lat="43.23744" lon="-0.6159">
        <ele>243</ele>
      </trkpt>
      <trkpt lat="43.23751" lon="-0.61537">
        <ele>246</ele>
      </trkpt>
      <trkpt lat="43.23752" lon="-0.61453">
        <ele>247</ele>
      </trkpt>
      <trkpt lat="43.23749" lon="-0.61419">
        <ele>247</ele>
      </trkpt>
      <trkpt lat="43.23749" lon="-0.61376">
        <ele>247</ele>
      </trkpt>
      <trkpt lat="43.23745" lon="-0.61353">
        <ele>251</ele>
      </trkpt>
      <trkpt lat="43.23728" lon="-0.61356">
        <ele>251</ele>
      </trkpt>
      <trkpt lat="43.23675" lon="-0.61379">
        <ele>239</ele>
      </trkpt>
      <trkpt lat="43.23666" lon="-0.61371">
        <ele>244</ele>
      </trkpt>
      <trkpt lat="43.23657" lon="-0.61304">
        <ele>244</ele>
      </trkpt>
      <trkpt lat="43.23623" lon="-0.61215">
        <ele>237</ele>
      </trkpt>
      <trkpt lat="43.23615" lon="-0.61202">
        <ele>236</ele>
      </trkpt>
      <trkpt lat="43.23609" lon="-0.61186">
        <ele>236</ele>
      </trkpt>
      <trkpt lat="43.23605" lon="-0.61168">
        <ele>236</ele>
      </trkpt>
      <trkpt lat="43.23597" lon="-0.61152">
        <ele>236</ele>
      </trkpt>
      <trkpt lat="43.23496" lon="-0.61192">
        <ele>230</ele>
      </trkpt>
      <trkpt lat="43.23476" lon="-0.61208">
        <ele>230</ele>
      </trkpt>
      <trkpt lat="43.23465" lon="-0.61222">
        <ele>230</ele>
      </trkpt>
      <trkpt lat="43.23451" lon="-0.6123">
        <ele>230</ele>
      </trkpt>
      <trkpt lat="43.23437" lon="-0.61231">
        <ele>230</ele>
      </trkpt>
      <trkpt lat="43.23397" lon="-0.61222">
        <ele>230</ele>
      </trkpt>
      <trkpt lat="43.23378" lon="-0.61231">
        <ele>230</ele>
      </trkpt>
      <trkpt lat="43.23322" lon="-0.61317">
        <ele>227</ele>
      </trkpt>
      <trkpt lat="43.23302" lon="-0.61357">
        <ele>227</ele>
      </trkpt>
      <trkpt lat="43.23299" lon="-0.6138">
        <ele>225</ele>
      </trkpt>
      <trkpt lat="43.23299" lon="-0.61402">
        <ele>225</ele>
      </trkpt>
      <trkpt lat="43.2329" lon="-0.61416">
        <ele>217</ele>
      </trkpt>
      <trkpt lat="43.23272" lon="-0.6142">
        <ele>217</ele>
      </trkpt>
      <trkpt lat="43.23251" lon="-0.6142">
        <ele>217</ele>
      </trkpt>
      <trkpt lat="43.23215" lon="-0.61426">
        <ele>217</ele>
      </trkpt>
      <trkpt lat="43.23188" lon="-0.61433">
        <ele>216</ele>
      </trkpt>
      <trkpt lat="43.23178" lon="-0.6144">
        <ele>216</ele>
      </trkpt>
      <trkpt lat="43.23166" lon="-0.61456">
        <ele>216</ele>
      </trkpt>
      <trkpt lat="43.23141" lon="-0.61476">
        <ele>212</ele>
      </trkpt>
      <trkpt lat="43.23128" lon="-0.6149">
        <ele>212</ele>
      </trkpt>
      <trkpt lat="43.23113" lon="-0.61475">
        <ele>218</ele>
      </trkpt>
      <trkpt lat="43.23091" lon="-0.61439">
        <ele>219</ele>
      </trkpt>
      <trkpt lat="43.23081" lon="-0.6143">
        <ele>219</ele>
      </trkpt>
      <trkpt lat="43.23067" lon="-0.61412">
        <ele>219</ele>
      </trkpt>
      <trkpt lat="43.23056" lon="-0.61403">
        <ele>219</ele>
      </trkpt>
      <trkpt lat="43.23034" lon="-0.61431">
        <ele>235</ele>
      </trkpt>
      <trkpt lat="43.23008" lon="-0.61445">
        <ele>235</ele>
      </trkpt>
      <trkpt lat="43.22997" lon="-0.61456">
        <ele>235</ele>
      </trkpt>
      <trkpt lat="43.22962" lon="-0.61474">
        <ele>240</ele>
      </trkpt>
      <trkpt lat="43.2295" lon="-0.61478">
        <ele>253</ele>
      </trkpt>
      <trkpt lat="43.22907" lon="-0.615">
        <ele>253</ele>
      </trkpt>
      <trkpt lat="43.22893" lon="-0.61515">
        <ele>253</ele>
      </trkpt>
      <trkpt lat="43.22879" lon="-0.61522">
        <ele>253</ele>
      </trkpt>
      <trkpt lat="43.2287" lon="-0.61531">
        <ele>262</ele>
      </trkpt>
      <trkpt lat="43.22807" lon="-0.6157">
        <ele>262</ele>
      </trkpt>
      <trkpt lat="43.22793" lon="-0.61583">
        <ele>262</ele>
      </trkpt>
      <trkpt lat="43.22755" lon="-0.61593">
        <ele>276</ele>
      </trkpt>
      <trkpt lat="43.22741" lon="-0.61604">
        <ele>276</ele>
      </trkpt>
      <trkpt lat="43.22708" lon="-0.61636">
        <ele>273</ele>
      </trkpt>
      <trkpt lat="43.22694" lon="-0.61647">
        <ele>273</ele>
      </trkpt>
      <trkpt lat="43.2268" lon="-0.61634">
        <ele>273</ele>
      </trkpt>
      <trkpt lat="43.22647" lon="-0.6163">
        <ele>273</ele>
      </trkpt>
      <trkpt lat="43.22584" lon="-0.61629">
        <ele>271</ele>
      </trkpt>
      <trkpt lat="43.22561" lon="-0.61631">
        <ele>271</ele>
      </trkpt>
      <trkpt lat="43.22541" lon="-0.61628">
        <ele>270</ele>
      </trkpt>
      <trkpt lat="43.22529" lon="-0.61636">
        <ele>270</ele>
      </trkpt>
      <trkpt lat="43.22498" lon="-0.61736">
        <ele>267</ele>
      </trkpt>
      <trkpt lat="43.22482" lon="-0.61774">
        <ele>267</ele>
      </trkpt>
      <trkpt lat="43.22472" lon="-0.61784">
        <ele>267</ele>
      </trkpt>
      <trkpt lat="43.22447" lon="-0.61795">
        <ele>271</ele>
      </trkpt>
      <trkpt lat="43.22414" lon="-0.61814">
        <ele>271</ele>
      </trkpt>
      <trkpt lat="43.22396" lon="-0.61806">
        <ele>271</ele>
      </trkpt>
      <trkpt lat="43.2239" lon="-0.61792">
        <ele>271</ele>
      </trkpt>
      <trkpt lat="43.22369" lon="-0.61754">
        <ele>273</ele>
      </trkpt>
      <trkpt lat="43.22364" lon="-0.61737">
        <ele>273</ele>
      </trkpt>
      <trkpt lat="43.22409" lon="-0.61598">
        <ele>285</ele>
      </trkpt>
      <trkpt lat="43.22436" lon="-0.6153">
        <ele>289</ele>
      </trkpt>
      <trkpt lat="43.22445" lon="-0.61501">
        <ele>289</ele>
      </trkpt>
      <trkpt lat="43.2245" lon="-0.61476">
        <ele>289</ele>
      </trkpt>
      <trkpt lat="43.22451" lon="-0.61449">
        <ele>290</ele>
      </trkpt>
      <trkpt lat="43.22446" lon="-0.61424">
        <ele>290</ele>
      </trkpt>
      <trkpt lat="43.22471" lon="-0.61325">
        <ele>290</ele>
      </trkpt>
      <trkpt lat="43.22526" lon="-0.61198">
        <ele>284</ele>
      </trkpt>
      <trkpt lat="43.22555" lon="-0.6112">
        <ele>289</ele>
      </trkpt>
      <trkpt lat="43.22566" lon="-0.61052">
        <ele>289</ele>
      </trkpt>
      <trkpt lat="43.22565" lon="-0.61027">
        <ele>291</ele>
      </trkpt>
      <trkpt lat="43.2256" lon="-0.61007">
        <ele>291</ele>
      </trkpt>
      <trkpt lat="43.22526" lon="-0.60927">
        <ele>295</ele>
      </trkpt>
      <trkpt lat="43.22509" lon="-0.6088">
        <ele>295</ele>
      </trkpt>
      <trkpt lat="43.22485" lon="-0.60764">
        <ele>304</ele>
      </trkpt>
      <trkpt lat="43.22483" lon="-0.60747">
        <ele>304</ele>
      </trkpt>
      <trkpt lat="43.22486" lon="-0.60719">
        <ele>304</ele>
      </trkpt>
      <trkpt lat="43.22502" lon="-0.60635">
        <ele>308</ele>
      </trkpt>
      <trkpt lat="43.22501" lon="-0.60609">
        <ele>308</ele>
      </trkpt>
      <trkpt lat="43.22498" lon="-0.60595">
        <ele>308</ele>
      </trkpt>
      <trkpt lat="43.2248" lon="-0.60545">
        <ele>308</ele>
      </trkpt>
      <trkpt lat="43.22451" lon="-0.60475">
        <ele>306</ele>
      </trkpt>
      <trkpt lat="43.22422" lon="-0.60416">
        <ele>310</ele>
      </trkpt>
      <trkpt lat="43.22394" lon="-0.60352">
        <ele>311</ele>
      </trkpt>
      <trkpt lat="43.22389" lon="-0.60333">
        <ele>311</ele>
      </trkpt>
      <trkpt lat="43.22387" lon="-0.603">
        <ele>311</ele>
      </trkpt>
      <trkpt lat="43.22378" lon="-0.60285">
        <ele>311</ele>
      </trkpt>
      <trkpt lat="43.22357" lon="-0.60205">
        <ele>323</ele>
      </trkpt>
      <trkpt lat="43.22341" lon="-0.60161">
        <ele>323</ele>
      </trkpt>
      <trkpt lat="43.22334" lon="-0.60174">
        <ele>323</ele>
      </trkpt>
      <trkpt lat="43.22309" lon="-0.60187">
        <ele>323</ele>
      </trkpt>
      <trkpt lat="43.22291" lon="-0.60193">
        <ele>326</ele>
      </trkpt>
      <trkpt lat="43.22273" lon="-0.60191">
        <ele>326</ele>
      </trkpt>
      <trkpt lat="43.22219" lon="-0.60192">
        <ele>326</ele>
      </trkpt>
      <trkpt lat="43.22206" lon="-0.60189">
        <ele>332</ele>
      </trkpt>
      <trkpt lat="43.22204" lon="-0.60173">
        <ele>332</ele>
      </trkpt>
      <trkpt lat="43.22158" lon="-0.59948">
        <ele>337</ele>
      </trkpt>
      <trkpt lat="43.22158" lon="-0.59921">
        <ele>337</ele>
      </trkpt>
      <trkpt lat="43.22163" lon="-0.59894">
        <ele>337</ele>
      </trkpt>
      <trkpt lat="43.22192" lon="-0.59794">
        <ele>338</ele>
      </trkpt>
      <trkpt lat="43.222" lon="-0.59748">
        <ele>338</ele>
      </trkpt>
      <trkpt lat="43.22198" lon="-0.59728">
        <ele>338</ele>
      </trkpt>
      <trkpt lat="43.22181" lon="-0.59704">
        <ele>337</ele>
      </trkpt>
      <trkpt lat="43.22158" lon="-0.59666">
        <ele>337</ele>
      </trkpt>
      <trkpt lat="43.22154" lon="-0.59648">
        <ele>337</ele>
      </trkpt>
      <trkpt lat="43.22153" lon="-0.59633">
        <ele>337</ele>
      </trkpt>
      <trkpt lat="43.22155" lon="-0.59613">
        <ele>337</ele>
      </trkpt>
      <trkpt lat="43.22154" lon="-0.59585">
        <ele>337</ele>
      </trkpt>
      <trkpt lat="43.22151" lon="-0.59568">
        <ele>337</ele>
      </trkpt>
      <trkpt lat="43.22144" lon="-0.59556">
        <ele>337</ele>
      </trkpt>
      <trkpt lat="43.22135" lon="-0.59551">
        <ele>337</ele>
      </trkpt>
      <trkpt lat="43.22126" lon="-0.59557">
        <ele>337</ele>
      </trkpt>
      <trkpt lat="43.22102" lon="-0.59617">
        <ele>332</ele>
      </trkpt>
      <trkpt lat="43.22064" lon="-0.59691">
        <ele>334</ele>
      </trkpt>
      <trkpt lat="43.22026" lon="-0.5973">
        <ele>334</ele>
      </trkpt>
      <trkpt lat="43.22002" lon="-0.59762">
        <ele>334</ele>
      </trkpt>
      <trkpt lat="43.21992" lon="-0.59782">
        <ele>334</ele>
      </trkpt>
      <trkpt lat="43.21985" lon="-0.59792">
        <ele>341</ele>
      </trkpt>
      <trkpt lat="43.2194" lon="-0.5984">
        <ele>335</ele>
      </trkpt>
      <trkpt lat="43.21931" lon="-0.59841">
        <ele>335</ele>
      </trkpt>
      <trkpt lat="43.21925" lon="-0.59852">
        <ele>335</ele>
      </trkpt>
      <trkpt lat="43.21904" lon="-0.59863">
        <ele>335</ele>
      </trkpt>
      <trkpt lat="43.21877" lon="-0.5987">
        <ele>335</ele>
      </trkpt>
      <trkpt lat="43.21854" lon="-0.59872">
        <ele>322</ele>
      </trkpt>
      <trkpt lat="43.21843" lon="-0.59878">
        <ele>330</ele>
      </trkpt>
      <trkpt lat="43.21818" lon="-0.59897">
        <ele>330</ele>
      </trkpt>
      <trkpt lat="43.21789" lon="-0.59911">
        <ele>321</ele>
      </trkpt>
      <trkpt lat="43.21745" lon="-0.5994">
        <ele>321</ele>
      </trkpt>
      <trkpt lat="43.2172" lon="-0.59946">
        <ele>321</ele>
      </trkpt>
      <trkpt lat="43.21689" lon="-0.59949">
        <ele>309</ele>
      </trkpt>
      <trkpt lat="43.21642" lon="-0.59958">
        <ele>309</ele>
      </trkpt>
      <trkpt lat="43.21633" lon="-0.59958">
        <ele>309</ele>
      </trkpt>
      <trkpt lat="43.21621" lon="-0.59962">
        <ele>297</ele>
      </trkpt>
      <trkpt lat="43.21564" lon="-0.59972">
        <ele>297</ele>
      </trkpt>
      <trkpt lat="43.21555" lon="-0.59979">
        <ele>297</ele>
      </trkpt>
      <trkpt lat="43.21525" lon="-0.59993">
        <ele>282</ele>
      </trkpt>
      <trkpt lat="43.21506" lon="-0.60007">
        <ele>282</ele>
      </trkpt>
      <trkpt lat="43.21488" lon="-0.60016">
        <ele>282</ele>
      </trkpt>
      <trkpt lat="43.21444" lon="-0.60032">
        <ele>276</ele>
      </trkpt>
      <trkpt lat="43.21409" lon="-0.60039">
        <ele>276</ele>
      </trkpt>
      <trkpt lat="43.21382" lon="-0.60039">
        <ele>276</ele>
      </trkpt>
      <trkpt lat="43.21298" lon="-0.60028">
        <ele>268</ele>
      </trkpt>
      <trkpt lat="43.21288" lon="-0.60024">
        <ele>260</ele>
      </trkpt>
      <trkpt lat="43.21237" lon="-0.59992">
        <ele>260</ele>
      </trkpt>
      <trkpt lat="43.21208" lon="-0.5997">
        <ele>244</ele>
      </trkpt>
      <trkpt lat="43.21188" lon="-0.5996">
        <ele>244</ele>
      </trkpt>
      <trkpt lat="43.21169" lon="-0.59964">
        <ele>244</ele>
      </trkpt>
      <trkpt lat="43.21137" lon="-0.59985">
        <ele>244</ele>
      </trkpt>
      <trkpt lat="43.21128" lon="-0.59995">
        <ele>244</ele>
      </trkpt>
      <trkpt lat="43.2111" lon="-0.60032">
        <ele>231</ele>
      </trkpt>
      <trkpt lat="43.21102" lon="-0.60056">
        <ele>231</ele>
      </trkpt>
      <trkpt lat="43.21099" lon="-0.60081">
        <ele>231</ele>
      </trkpt>
      <trkpt lat="43.21099" lon="-0.60108">
        <ele>231</ele>
      </trkpt>
      <trkpt lat="43.21108" lon="-0.60156">
        <ele>234</ele>
      </trkpt>
      <trkpt lat="43.21106" lon="-0.60167">
        <ele>234</ele>
      </trkpt>
      <trkpt lat="43.21085" lon="-0.60198">
        <ele>234</ele>
      </trkpt>
      <trkpt lat="43.21044" lon="-0.60242">
        <ele>244</ele>
      </trkpt>
      <trkpt lat="43.21039" lon="-0.60251">
        <ele>235</ele>
      </trkpt>
      <trkpt lat="43.21031" lon="-0.60273">
        <ele>235</ele>
      </trkpt>
      <trkpt lat="43.21025" lon="-0.603">
        <ele>233</ele>
      </trkpt>
      <trkpt lat="43.21033" lon="-0.60363">
        <ele>233</ele>
      </trkpt>
      <trkpt lat="43.21035" lon="-0.604">
        <ele>232</ele>
      </trkpt>
      <trkpt lat="43.21031" lon="-0.60536">
        <ele>229</ele>
      </trkpt>
      <trkpt lat="43.21033" lon="-0.6056">
        <ele>230</ele>
      </trkpt>
      <trkpt lat="43.21023" lon="-0.60606">
        <ele>230</ele>
      </trkpt>
      <trkpt lat="43.21017" lon="-0.60626">
        <ele>230</ele>
      </trkpt>
      <trkpt lat="43.21" lon="-0.60645">
        <ele>230</ele>
      </trkpt>
      <trkpt lat="43.20973" lon="-0.60646">
        <ele>230</ele>
      </trkpt>
      <trkpt lat="43.20966" lon="-0.60653">
        <ele>230</ele>
      </trkpt>
      <trkpt lat="43.20962" lon="-0.60664">
        <ele>230</ele>
      </trkpt>
      <trkpt lat="43.20958" lon="-0.6069">
        <ele>236</ele>
      </trkpt>
      <trkpt lat="43.20947" lon="-0.60712">
        <ele>230</ele>
      </trkpt>
      <trkpt lat="43.20933" lon="-0.60727">
        <ele>230</ele>
      </trkpt>
      <trkpt lat="43.20921" lon="-0.60731">
        <ele>230</ele>
      </trkpt>
      <trkpt lat="43.20909" lon="-0.60726">
        <ele>230</ele>
      </trkpt>
      <trkpt lat="43.20893" lon="-0.60713">
        <ele>230</ele>
      </trkpt>
      <trkpt lat="43.20882" lon="-0.60699">
        <ele>236</ele>
      </trkpt>
      <trkpt lat="43.20871" lon="-0.60677">
        <ele>230</ele>
      </trkpt>
      <trkpt lat="43.20856" lon="-0.60638">
        <ele>230</ele>
      </trkpt>
      <trkpt lat="43.20808" lon="-0.60562">
        <ele>236</ele>
      </trkpt>
      <trkpt lat="43.20797" lon="-0.60548">
        <ele>236</ele>
      </trkpt>
      <trkpt lat="43.20765" lon="-0.60522">
        <ele>234</ele>
      </trkpt>
      <trkpt lat="43.20754" lon="-0.60519">
        <ele>234</ele>
      </trkpt>
      <trkpt lat="43.20733" lon="-0.60527">
        <ele>234</ele>
      </trkpt>
      <trkpt lat="43.20685" lon="-0.60517">
        <ele>229</ele>
      </trkpt>
      <trkpt lat="43.20669" lon="-0.60509">
        <ele>229</ele>
      </trkpt>
      <trkpt lat="43.20641" lon="-0.6048">
        <ele>229</ele>
      </trkpt>
      <trkpt lat="43.20624" lon="-0.6045">
        <ele>229</ele>
      </trkpt>
      <trkpt lat="43.20585" lon="-0.60369">
        <ele>229</ele>
      </trkpt>
      <trkpt lat="43.20554" lon="-0.60287">
        <ele>231</ele>
      </trkpt>
      <trkpt lat="43.20537" lon="-0.60261">
        <ele>229</ele>
      </trkpt>
      <trkpt lat="43.20502" lon="-0.60218">
        <ele>229</ele>
      </trkpt>
      <trkpt lat="43.20442" lon="-0.60136">
        <ele>230</ele>
      </trkpt>
      <trkpt lat="43.20426" lon="-0.60119">
        <ele>232</ele>
      </trkpt>
      <trkpt lat="43.20355" lon="-0.60072">
        <ele>234</ele>
      </trkpt>
      <trkpt lat="43.20314" lon="-0.60042">
        <ele>234</ele>
      </trkpt>
      <trkpt lat="43.20271" lon="-0.59995">
        <ele>232</ele>
      </trkpt>
      <trkpt lat="43.20253" lon="-0.59967">
        <ele>232</ele>
      </trkpt>
      <trkpt lat="43.20234" lon="-0.5993">
        <ele>233</ele>
      </trkpt>
      <trkpt lat="43.20197" lon="-0.59823">
        <ele>236</ele>
      </trkpt>
      <trkpt lat="43.20161" lon="-0.59761">
        <ele>234</ele>
      </trkpt>
      <trkpt lat="43.20149" lon="-0.59736">
        <ele>234</ele>
      </trkpt>
      <trkpt lat="43.20095" lon="-0.59581">
        <ele>237</ele>
      </trkpt>
      <trkpt lat="43.20084" lon="-0.59537">
        <ele>237</ele>
      </trkpt>
      <trkpt lat="43.20079" lon="-0.59504">
        <ele>237</ele>
      </trkpt>
      <trkpt lat="43.20079" lon="-0.59476">
        <ele>237</ele>
      </trkpt>
      <trkpt lat="43.201" lon="-0.59355">
        <ele>238</ele>
      </trkpt>
      <trkpt lat="43.20103" lon="-0.59329">
        <ele>238</ele>
      </trkpt>
      <trkpt lat="43.20101" lon="-0.59283">
        <ele>239</ele>
      </trkpt>
      <trkpt lat="43.20098" lon="-0.59263">
        <ele>239</ele>
      </trkpt>
      <trkpt lat="43.20083" lon="-0.59224">
        <ele>239</ele>
      </trkpt>
      <trkpt lat="43.20075" lon="-0.59215">
        <ele>239</ele>
      </trkpt>
      <trkpt lat="43.20063" lon="-0.59207">
        <ele>237</ele>
      </trkpt>
      <trkpt lat="43.20056" lon="-0.59205">
        <ele>237</ele>
      </trkpt>
      <trkpt lat="43.20014" lon="-0.59204">
        <ele>239</ele>
      </trkpt>
      <trkpt lat="43.2" lon="-0.592">
        <ele>239</ele>
      </trkpt>
      <trkpt lat="43.1999" lon="-0.59193">
        <ele>239</ele>
      </trkpt>
      <trkpt lat="43.19972" lon="-0.59196">
        <ele>239</ele>
      </trkpt>
      <trkpt lat="43.19966" lon="-0.592">
        <ele>239</ele>
      </trkpt>
      <trkpt lat="43.1997" lon="-0.59202">
        <ele>239</ele>
      </trkpt>
      <trkpt lat="43.19973" lon="-0.5921">
        <ele>239</ele>
      </trkpt>
      <trkpt lat="43.19974" lon="-0.59219">
        <ele>239</ele>
      </trkpt>
      <trkpt lat="43.19986" lon="-0.59259">
        <ele>239</ele>
      </trkpt>
      <trkpt lat="43.19983" lon="-0.59275">
        <ele>239</ele>
      </trkpt>
      <trkpt lat="43.19965" lon="-0.593">
        <ele>238</ele>
      </trkpt>
      <trkpt lat="43.1996" lon="-0.59293">
        <ele>238</ele>
      </trkpt>
      <trkpt lat="43.19952" lon="-0.59294">
        <ele>239</ele>
      </trkpt>
    </trkseg>
  </trk>
  <trk>
    <name><![CDATA[Tour du Bager - 18237 - UtagawaVTT.com]]></name>
    <trkseg>
      <trkpt lat="43.1791" lon="-0.5973">
        <ele>274.340759</ele>
      </trkpt>
      <trkpt lat="43.17877" lon="-0.59707">
        <ele>271.370331</ele>
      </trkpt>
      <trkpt lat="43.17835" lon="-0.59683">
        <ele>267.311707</ele>
      </trkpt>
      <trkpt lat="43.17792" lon="-0.59643">
        <ele>264.439392</ele>
      </trkpt>
      <trkpt lat="43.17766" lon="-0.59613">
        <ele>264.150513</ele>
      </trkpt>
      <trkpt lat="43.17734" lon="-0.59584">
        <ele>265.627563</ele>
      </trkpt>
      <trkpt lat="43.17607" lon="-0.59519">
        <ele>272.484039</ele>
      </trkpt>
      <trkpt lat="43.17585" lon="-0.59503">
        <ele>273.840637</ele>
      </trkpt>
      <trkpt lat="43.17577" lon="-0.59486">
        <ele>273.76001</ele>
      </trkpt>
      <trkpt lat="43.17579" lon="-0.5946">
        <ele>272.415009</ele>
      </trkpt>
      <trkpt lat="43.176" lon="-0.59421">
        <ele>267.854767</ele>
      </trkpt>
      <trkpt lat="43.17602" lon="-0.59407">
        <ele>266.542267</ele>
      </trkpt>
      <trkpt lat="43.17573" lon="-0.59271">
        <ele>253.654922</ele>
      </trkpt>
      <trkpt lat="43.17559" lon="-0.59243">
        <ele>250.548141</ele>
      </trkpt>
      <trkpt lat="43.17531" lon="-0.59208">
        <ele>246.114594</ele>
      </trkpt>
      <trkpt lat="43.17476" lon="-0.59178">
        <ele>248.223816</ele>
      </trkpt>
      <trkpt lat="43.17469" lon="-0.59163">
        <ele>248.076324</ele>
      </trkpt>
      <trkpt lat="43.17463" lon="-0.59133">
        <ele>247.216614</ele>
      </trkpt>
      <trkpt lat="43.17453" lon="-0.59103">
        <ele>249.348022</ele>
      </trkpt>
      <trkpt lat="43.17448" lon="-0.59069">
        <ele>250.274979</ele>
      </trkpt>
      <trkpt lat="43.17447" lon="-0.59014">
        <ele>245.862305</ele>
      </trkpt>
      <trkpt lat="43.17433" lon="-0.58962">
        <ele>244.890121</ele>
      </trkpt>
      <trkpt lat="43.17421" lon="-0.589">
        <ele>241.682648</ele>
      </trkpt>
      <trkpt lat="43.17426" lon="-0.58817">
        <ele>240.25</ele>
      </trkpt>
      <trkpt lat="43.17422" lon="-0.58754">
        <ele>241.474899</ele>
      </trkpt>
      <trkpt lat="43.17421" lon="-0.58666">
        <ele>241.154037</ele>
      </trkpt>
      <trkpt lat="43.17425" lon="-0.58579">
        <ele>239.982895</ele>
      </trkpt>
      <trkpt lat="43.1742" lon="-0.58525">
        <ele>239.730865</ele>
      </trkpt>
      <trkpt lat="43.17421" lon="-0.58489">
        <ele>239.839127</ele>
      </trkpt>
      <trkpt lat="43.17419" lon="-0.58471">
        <ele>240.257111</ele>
      </trkpt>
      <trkpt lat="43.17397" lon="-0.58388">
        <ele>241.8508</ele>
      </trkpt>
      <trkpt lat="43.17393" lon="-0.58363">
        <ele>241.069183</ele>
      </trkpt>
      <trkpt lat="43.17379" lon="-0.58316">
        <ele>240.321747</ele>
      </trkpt>
      <trkpt lat="43.17378" lon="-0.58303">
        <ele>239.885284</ele>
      </trkpt>
      <trkpt lat="43.17369" lon="-0.58281">
        <ele>239.814255</ele>
      </trkpt>
      <trkpt lat="43.17362" lon="-0.58239">
        <ele>240.080948</ele>
      </trkpt>
      <trkpt lat="43.17338" lon="-0.58147">
        <ele>243.680099</ele>
      </trkpt>
      <trkpt lat="43.17328" lon="-0.58119">
        <ele>245.288483</ele>
      </trkpt>
      <trkpt lat="43.17325" lon="-0.58093">
        <ele>245.601578</ele>
      </trkpt>
      <trkpt lat="43.17309" lon="-0.58024">
        <ele>247.585007</ele>
      </trkpt>
      <trkpt lat="43.17278" lon="-0.57865">
        <ele>247.295883</ele>
      </trkpt>
      <trkpt lat="43.17269" lon="-0.57829">
        <ele>246.976044</ele>
      </trkpt>
      <trkpt lat="43.17258" lon="-0.57808">
        <ele>247.190796</ele>
      </trkpt>
      <trkpt lat="43.17244" lon="-0.57791">
        <ele>248.042023</ele>
      </trkpt>
      <trkpt lat="43.17222" lon="-0.57739">
        <ele>246.253189</ele>
      </trkpt>
      <trkpt lat="43.17203" lon="-0.57708">
        <ele>245.239426</ele>
      </trkpt>
      <trkpt lat="43.17178" lon="-0.57694">
        <ele>246.104996</ele>
      </trkpt>
      <trkpt lat="43.17155" lon="-0.57675">
        <ele>245.503494</ele>
      </trkpt>
      <trkpt lat="43.17135" lon="-0.57666">
        <ele>243.861877</ele>
      </trkpt>
      <trkpt lat="43.17121" lon="-0.57664">
        <ele>243.144379</ele>
      </trkpt>
      <trkpt lat="43.17067" lon="-0.57674">
        <ele>242.18187</ele>
      </trkpt>
      <trkpt lat="43.16973" lon="-0.57674">
        <ele>243.504501</ele>
      </trkpt>
      <trkpt lat="43.16926" lon="-0.57669">
        <ele>242.643433</ele>
      </trkpt>
      <trkpt lat="43.16883" lon="-0.57677">
        <ele>243.201492</ele>
      </trkpt>
      <trkpt lat="43.16836" lon="-0.57652">
        <ele>243.686035</ele>
      </trkpt>
      <trkpt lat="43.16803" lon="-0.57625">
        <ele>245.632889</ele>
      </trkpt>
      <trkpt lat="43.168" lon="-0.57619">
        <ele>245.653152</ele>
      </trkpt>
      <trkpt lat="43.16778" lon="-0.57554">
        <ele>242.09375</ele>
      </trkpt>
      <trkpt lat="43.16763" lon="-0.57475">
        <ele>238.399475</ele>
      </trkpt>
      <trkpt lat="43.16756" lon="-0.57377">
        <ele>238.029999</ele>
      </trkpt>
      <trkpt lat="43.16756" lon="-0.57313">
        <ele>240.211868</ele>
      </trkpt>
      <trkpt lat="43.16762" lon="-0.57281">
        <ele>240.389465</ele>
      </trkpt>
      <trkpt lat="43.16766" lon="-0.57277">
        <ele>240.219376</ele>
      </trkpt>
      <trkpt lat="43.16791" lon="-0.57285">
        <ele>238.69902</ele>
      </trkpt>
      <trkpt lat="43.16824" lon="-0.57288">
        <ele>238.914993</ele>
      </trkpt>
      <trkpt lat="43.16836" lon="-0.57283">
        <ele>239.414993</ele>
      </trkpt>
      <trkpt lat="43.1683" lon="-0.57261">
        <ele>239.145004</ele>
      </trkpt>
      <trkpt lat="43.16832" lon="-0.57226">
        <ele>240.746292</ele>
      </trkpt>
      <trkpt lat="43.16829" lon="-0.57183">
        <ele>243.018051</ele>
      </trkpt>
      <trkpt lat="43.16818" lon="-0.57169">
        <ele>241.780151</ele>
      </trkpt>
      <trkpt lat="43.1682" lon="-0.57168">
        <ele>242.311432</ele>
      </trkpt>
      <trkpt lat="43.16815" lon="-0.57148">
        <ele>242.473923</ele>
      </trkpt>
      <trkpt lat="43.16806" lon="-0.57133">
        <ele>241.043839</ele>
      </trkpt>
      <trkpt lat="43.16795" lon="-0.57101">
        <ele>242.236832</ele>
      </trkpt>
      <trkpt lat="43.16784" lon="-0.57086">
        <ele>241.628281</ele>
      </trkpt>
      <trkpt lat="43.16752" lon="-0.57061">
        <ele>239.870438</ele>
      </trkpt>
      <trkpt lat="43.16752" lon="-0.57049">
        <ele>241.255554</ele>
      </trkpt>
      <trkpt lat="43.16738" lon="-0.57038">
        <ele>241.898575</ele>
      </trkpt>
      <trkpt lat="43.16732" lon="-0.57048">
        <ele>240.591507</ele>
      </trkpt>
      <trkpt lat="43.167" lon="-0.57032">
        <ele>239.919678</ele>
      </trkpt>
      <trkpt lat="43.16678" lon="-0.5701">
        <ele>238.264511</ele>
      </trkpt>
      <trkpt lat="43.16657" lon="-0.57017">
        <ele>239.347687</ele>
      </trkpt>
      <trkpt lat="43.16634" lon="-0.57008">
        <ele>241.440125</ele>
      </trkpt>
      <trkpt lat="43.16612" lon="-0.57005">
        <ele>243.722641</ele>
      </trkpt>
      <trkpt lat="43.166" lon="-0.57008">
        <ele>244.461624</ele>
      </trkpt>
      <trkpt lat="43.16582" lon="-0.57019">
        <ele>243.718185</ele>
      </trkpt>
      <trkpt lat="43.16562" lon="-0.57021">
        <ele>243.616501</ele>
      </trkpt>
      <trkpt lat="43.16517" lon="-0.57013">
        <ele>243.358307</ele>
      </trkpt>
      <trkpt lat="43.16465" lon="-0.56995">
        <ele>242.989243</ele>
      </trkpt>
      <trkpt lat="43.16448" lon="-0.57">
        <ele>242.94458</ele>
      </trkpt>
      <trkpt lat="43.16437" lon="-0.56993">
        <ele>244.63121</ele>
      </trkpt>
      <trkpt lat="43.16428" lon="-0.57003">
        <ele>244.679443</ele>
      </trkpt>
      <trkpt lat="43.16415" lon="-0.57005">
        <ele>245.708282</ele>
      </trkpt>
      <trkpt lat="43.16409" lon="-0.56998">
        <ele>247.112</ele>
      </trkpt>
      <trkpt lat="43.16386" lon="-0.56991">
        <ele>252.602112</ele>
      </trkpt>
      <trkpt lat="43.16388" lon="-0.57011">
        <ele>249.002243</ele>
      </trkpt>
      <trkpt lat="43.16373" lon="-0.57037">
        <ele>247.192688</ele>
      </trkpt>
      <trkpt lat="43.16357" lon="-0.57046">
        <ele>247.197311</ele>
      </trkpt>
      <trkpt lat="43.16334" lon="-0.57067">
        <ele>246.405807</ele>
      </trkpt>
      <trkpt lat="43.16318" lon="-0.57071">
        <ele>246.743256</ele>
      </trkpt>
      <trkpt lat="43.16314" lon="-0.57079">
        <ele>245.494507</ele>
      </trkpt>
      <trkpt lat="43.16294" lon="-0.57086">
        <ele>245.273331</ele>
      </trkpt>
      <trkpt lat="43.16288" lon="-0.57094">
        <ele>244.241196</ele>
      </trkpt>
      <trkpt lat="43.16279" lon="-0.57095">
        <ele>244.438141</ele>
      </trkpt>
      <trkpt lat="43.16254" lon="-0.57115">
        <ele>243.751907</ele>
      </trkpt>
      <trkpt lat="43.1623" lon="-0.57118">
        <ele>245.321487</ele>
      </trkpt>
      <trkpt lat="43.16207" lon="-0.57127">
        <ele>246.39859</ele>
      </trkpt>
      <trkpt lat="43.16192" lon="-0.57112">
        <ele>249.527206</ele>
      </trkpt>
      <trkpt lat="43.16182" lon="-0.57111">
        <ele>250.637146</ele>
      </trkpt>
      <trkpt lat="43.16166" lon="-0.57119">
        <ele>250.425003</ele>
      </trkpt>
      <trkpt lat="43.16149" lon="-0.57122">
        <ele>250.675003</ele>
      </trkpt>
      <trkpt lat="43.16112" lon="-0.57109">
        <ele>251.87944</ele>
      </trkpt>
      <trkpt lat="43.161" lon="-0.57102">
        <ele>252.116806</ele>
      </trkpt>
      <trkpt lat="43.16074" lon="-0.57073">
        <ele>252.521301</ele>
      </trkpt>
      <trkpt lat="43.16062" lon="-0.57043">
        <ele>252.747498</ele>
      </trkpt>
      <trkpt lat="43.1605" lon="-0.56977">
        <ele>253.211258</ele>
      </trkpt>
      <trkpt lat="43.1604" lon="-0.56955">
        <ele>252.813965</ele>
      </trkpt>
      <trkpt lat="43.16017" lon="-0.5692">
        <ele>251.207199</ele>
      </trkpt>
      <trkpt lat="43.1601" lon="-0.5688">
        <ele>251.154663</ele>
      </trkpt>
      <trkpt lat="43.16008" lon="-0.56842">
        <ele>251.553757</ele>
      </trkpt>
      <trkpt lat="43.15994" lon="-0.56792">
        <ele>252.526245</ele>
      </trkpt>
      <trkpt lat="43.15982" lon="-0.56769">
        <ele>252.827591</ele>
      </trkpt>
      <trkpt lat="43.15942" lon="-0.56727">
        <ele>251.672501</ele>
      </trkpt>
      <trkpt lat="43.15931" lon="-0.56706">
        <ele>252.460007</ele>
      </trkpt>
      <trkpt lat="43.15921" lon="-0.56651">
        <ele>256.668762</ele>
      </trkpt>
      <trkpt lat="43.15917" lon="-0.56645">
        <ele>256.559387</ele>
      </trkpt>
      <trkpt lat="43.15898" lon="-0.56637">
        <ele>255.037506</ele>
      </trkpt>
      <trkpt lat="43.15898" lon="-0.56632">
        <ele>255.487503</ele>
      </trkpt>
      <trkpt lat="43.15894" lon="-0.56628">
        <ele>255.300003</ele>
      </trkpt>
      <trkpt lat="43.15885" lon="-0.56632">
        <ele>254.003128</ele>
      </trkpt>
      <trkpt lat="43.15873" lon="-0.5663">
        <ele>252.792374</ele>
      </trkpt>
      <trkpt lat="43.15868" lon="-0.56605">
        <ele>254.228012</ele>
      </trkpt>
      <trkpt lat="43.15871" lon="-0.56569">
        <ele>256.378754</ele>
      </trkpt>
      <trkpt lat="43.15867" lon="-0.56543">
        <ele>257.126862</ele>
      </trkpt>
      <trkpt lat="43.15862" lon="-0.56529">
        <ele>257.021759</ele>
      </trkpt>
      <trkpt lat="43.15861" lon="-0.5651">
        <ele>257.144287</ele>
      </trkpt>
      <trkpt lat="43.15848" lon="-0.56464">
        <ele>256.776154</ele>
      </trkpt>
      <trkpt lat="43.15819" lon="-0.56429">
        <ele>255.986816</ele>
      </trkpt>
      <trkpt lat="43.15816" lon="-0.56422">
        <ele>256.11084</ele>
      </trkpt>
      <trkpt lat="43.15817" lon="-0.56413">
        <ele>256.405212</ele>
      </trkpt>
      <trkpt lat="43.15798" lon="-0.56415">
        <ele>255.806824</ele>
      </trkpt>
      <trkpt lat="43.15774" lon="-0.56423">
        <ele>254.330627</ele>
      </trkpt>
      <trkpt lat="43.1575" lon="-0.56438">
        <ele>252.543121</ele>
      </trkpt>
      <trkpt lat="43.15718" lon="-0.56439">
        <ele>251.645004</ele>
      </trkpt>
      <trkpt lat="43.15661" lon="-0.56456">
        <ele>250.223633</ele>
      </trkpt>
      <trkpt lat="43.15636" lon="-0.56457">
        <ele>250.555222</ele>
      </trkpt>
      <trkpt lat="43.15614" lon="-0.56444">
        <ele>250.982895</ele>
      </trkpt>
      <trkpt lat="43.15529" lon="-0.56357">
        <ele>250.66217</ele>
      </trkpt>
      <trkpt lat="43.15508" lon="-0.56327">
        <ele>251.27327</ele>
      </trkpt>
      <trkpt lat="43.1546" lon="-0.56276">
        <ele>252.799377</ele>
      </trkpt>
      <trkpt lat="43.15389" lon="-0.5619">
        <ele>254.301361</ele>
      </trkpt>
      <trkpt lat="43.15344" lon="-0.56123">
        <ele>254.773621</ele>
      </trkpt>
      <trkpt lat="43.15313" lon="-0.56088">
        <ele>255.71051</ele>
      </trkpt>
      <trkpt lat="43.15257" lon="-0.56039">
        <ele>257.034607</ele>
      </trkpt>
      <trkpt lat="43.15192" lon="-0.56005">
        <ele>256.5755</ele>
      </trkpt>
      <trkpt lat="43.15087" lon="-0.55926">
        <ele>255.544998</ele>
      </trkpt>
      <trkpt lat="43.15037" lon="-0.5591">
        <ele>257.048523</ele>
      </trkpt>
      <trkpt lat="43.14989" lon="-0.55908">
        <ele>257.767151</ele>
      </trkpt>
      <trkpt lat="43.1493" lon="-0.55918">
        <ele>258.553741</ele>
      </trkpt>
      <trkpt lat="43.14883" lon="-0.55939">
        <ele>258.105011</ele>
      </trkpt>
      <trkpt lat="43.1485" lon="-0.5594">
        <ele>258.153748</ele>
      </trkpt>
      <trkpt lat="43.14799" lon="-0.55928">
        <ele>258</ele>
      </trkpt>
      <trkpt lat="43.14769" lon="-0.55915">
        <ele>259.128967</ele>
      </trkpt>
      <trkpt lat="43.14761" lon="-0.55922">
        <ele>258.419556</ele>
      </trkpt>
      <trkpt lat="43.14743" lon="-0.55964">
        <ele>257.603912</ele>
      </trkpt>
      <trkpt lat="43.14719" lon="-0.55969">
        <ele>257.388885</ele>
      </trkpt>
      <trkpt lat="43.14715" lon="-0.55964">
        <ele>257.519501</ele>
      </trkpt>
      <trkpt lat="43.14695" lon="-0.55955">
        <ele>257.848419</ele>
      </trkpt>
      <trkpt lat="43.14679" lon="-0.55941">
        <ele>258.14444</ele>
      </trkpt>
      <trkpt lat="43.14679" lon="-0.55934">
        <ele>258.19278</ele>
      </trkpt>
      <trkpt lat="43.1468" lon="-0.55934">
        <ele>258.093353</ele>
      </trkpt>
      <trkpt lat="43.14677" lon="-0.55922">
        <ele>258.247498</ele>
      </trkpt>
      <trkpt lat="43.14663" lon="-0.55913">
        <ele>258.976501</ele>
      </trkpt>
      <trkpt lat="43.14656" lon="-0.55899">
        <ele>259.203888</ele>
      </trkpt>
      <trkpt lat="43.14639" lon="-0.55889">
        <ele>258.984283</ele>
      </trkpt>
      <trkpt lat="43.14626" lon="-0.55857">
        <ele>258.313049</ele>
      </trkpt>
      <trkpt lat="43.14619" lon="-0.5583">
        <ele>258.497742</ele>
      </trkpt>
      <trkpt lat="43.14612" lon="-0.55821">
        <ele>258.476288</ele>
      </trkpt>
      <trkpt lat="43.14605" lon="-0.55778">
        <ele>258.291382</ele>
      </trkpt>
      <trkpt lat="43.14609" lon="-0.55767">
        <ele>258.507599</ele>
      </trkpt>
      <trkpt lat="43.14607" lon="-0.55751">
        <ele>258.547913</ele>
      </trkpt>
      <trkpt lat="43.14611" lon="-0.55742">
        <ele>258.790985</ele>
      </trkpt>
      <trkpt lat="43.1461" lon="-0.55723">
        <ele>258.753174</ele>
      </trkpt>
      <trkpt lat="43.14618" lon="-0.55701">
        <ele>259.032135</ele>
      </trkpt>
      <trkpt lat="43.14618" lon="-0.55689">
        <ele>258.966675</ele>
      </trkpt>
      <trkpt lat="43.14623" lon="-0.55683">
        <ele>259.128601</ele>
      </trkpt>
      <trkpt lat="43.14614" lon="-0.55646">
        <ele>258.469513</ele>
      </trkpt>
      <trkpt lat="43.14614" lon="-0.55632">
        <ele>258.323639</ele>
      </trkpt>
      <trkpt lat="43.14617" lon="-0.55628">
        <ele>258.515778</ele>
      </trkpt>
      <trkpt lat="43.14615" lon="-0.55613">
        <ele>258.2211</ele>
      </trkpt>
      <trkpt lat="43.14619" lon="-0.55611">
        <ele>258.589996</ele>
      </trkpt>
      <trkpt lat="43.14624" lon="-0.55615">
        <ele>259.058563</ele>
      </trkpt>
      <trkpt lat="43.1464" lon="-0.55615">
        <ele>260.394714</ele>
      </trkpt>
      <trkpt lat="43.14655" lon="-0.55607">
        <ele>262.612</ele>
      </trkpt>
      <trkpt lat="43.14659" lon="-0.55594">
        <ele>262.868195</ele>
      </trkpt>
      <trkpt lat="43.1465" lon="-0.55553">
        <ele>260.266968</ele>
      </trkpt>
      <trkpt lat="43.14646" lon="-0.55514">
        <ele>259.166718</ele>
      </trkpt>
      <trkpt lat="43.14643" lon="-0.55503">
        <ele>258.749908</ele>
      </trkpt>
      <trkpt lat="43.14627" lon="-0.55476">
        <ele>257.90799</ele>
      </trkpt>
      <trkpt lat="43.1462" lon="-0.55453">
        <ele>257.925537</ele>
      </trkpt>
      <trkpt lat="43.14616" lon="-0.55419">
        <ele>258.209198</ele>
      </trkpt>
      <trkpt lat="43.14621" lon="-0.55373">
        <ele>259.143555</ele>
      </trkpt>
      <trkpt lat="43.14617" lon="-0.55355">
        <ele>259.164429</ele>
      </trkpt>
      <trkpt lat="43.14599" lon="-0.55308">
        <ele>259.407501</ele>
      </trkpt>
      <trkpt lat="43.14587" lon="-0.55287">
        <ele>260.032501</ele>
      </trkpt>
      <trkpt lat="43.14567" lon="-0.55261">
        <ele>260.725006</ele>
      </trkpt>
      <trkpt lat="43.14555" lon="-0.55229">
        <ele>263.386078</ele>
      </trkpt>
      <trkpt lat="43.14552" lon="-0.55211">
        <ele>265.506836</ele>
      </trkpt>
      <trkpt lat="43.14555" lon="-0.55205">
        <ele>266.157532</ele>
      </trkpt>
      <trkpt lat="43.14555" lon="-0.55184">
        <ele>268.704437</ele>
      </trkpt>
      <trkpt lat="43.14552" lon="-0.55172">
        <ele>270.26178</ele>
      </trkpt>
      <trkpt lat="43.14553" lon="-0.5517">
        <ele>270.462128</ele>
      </trkpt>
      <trkpt lat="43.14549" lon="-0.55165">
        <ele>271.261292</ele>
      </trkpt>
      <trkpt lat="43.14558" lon="-0.55154">
        <ele>272.613525</ele>
      </trkpt>
      <trkpt lat="43.14556" lon="-0.55143">
        <ele>274.089081</ele>
      </trkpt>
      <trkpt lat="43.14558" lon="-0.55101">
        <ele>279.208038</ele>
      </trkpt>
      <trkpt lat="43.14551" lon="-0.5508">
        <ele>281.787811</ele>
      </trkpt>
      <trkpt lat="43.14529" lon="-0.55059">
        <ele>285.287842</ele>
      </trkpt>
      <trkpt lat="43.14505" lon="-0.55057">
        <ele>286.523529</ele>
      </trkpt>
      <trkpt lat="43.14468" lon="-0.55045">
        <ele>289.129395</ele>
      </trkpt>
      <trkpt lat="43.1445" lon="-0.55027">
        <ele>291.134613</ele>
      </trkpt>
      <trkpt lat="43.14431" lon="-0.54981">
        <ele>294.549377</ele>
      </trkpt>
      <trkpt lat="43.14431" lon="-0.5497">
        <ele>295.092499</ele>
      </trkpt>
      <trkpt lat="43.14417" lon="-0.54926">
        <ele>297.506866</ele>
      </trkpt>
      <trkpt lat="43.14414" lon="-0.54873">
        <ele>300.215637</ele>
      </trkpt>
      <trkpt lat="43.14409" lon="-0.54846">
        <ele>300.806458</ele>
      </trkpt>
      <trkpt lat="43.14389" lon="-0.54819">
        <ele>300.569427</ele>
      </trkpt>
      <trkpt lat="43.14385" lon="-0.54797">
        <ele>300.443024</ele>
      </trkpt>
      <trkpt lat="43.1439" lon="-0.5474">
        <ele>300.775696</ele>
      </trkpt>
      <trkpt lat="43.14398" lon="-0.54706">
        <ele>300.913239</ele>
      </trkpt>
      <trkpt lat="43.14411" lon="-0.54679">
        <ele>300.979553</ele>
      </trkpt>
      <trkpt lat="43.14411" lon="-0.54658">
        <ele>300.70578</ele>
      </trkpt>
      <trkpt lat="43.1442" lon="-0.54658">
        <ele>300.77713</ele>
      </trkpt>
      <trkpt lat="43.14433" lon="-0.54652">
        <ele>300.848602</ele>
      </trkpt>
      <trkpt lat="43.14442" lon="-0.54643">
        <ele>300.921692</ele>
      </trkpt>
      <trkpt lat="43.14481" lon="-0.54622">
        <ele>300.260681</ele>
      </trkpt>
      <trkpt lat="43.14505" lon="-0.54572">
        <ele>299.545013</ele>
      </trkpt>
      <trkpt lat="43.14507" lon="-0.54559">
        <ele>299.38562</ele>
      </trkpt>
      <trkpt lat="43.14509" lon="-0.54506">
        <ele>298.475616</ele>
      </trkpt>
      <trkpt lat="43.14512" lon="-0.54473">
        <ele>297.23996</ele>
      </trkpt>
      <trkpt lat="43.14517" lon="-0.54459">
        <ele>296.636658</ele>
      </trkpt>
      <trkpt lat="43.14539" lon="-0.54419">
        <ele>295.572357</ele>
      </trkpt>
      <trkpt lat="43.14579" lon="-0.54373">
        <ele>295.967316</ele>
      </trkpt>
      <trkpt lat="43.14593" lon="-0.5435">
        <ele>297.117554</ele>
      </trkpt>
      <trkpt lat="43.14641" lon="-0.54294">
        <ele>300.382324</ele>
      </trkpt>
      <trkpt lat="43.14653" lon="-0.54269">
        <ele>300.823059</ele>
      </trkpt>
      <trkpt lat="43.14721" lon="-0.5418">
        <ele>301.281372</ele>
      </trkpt>
      <trkpt lat="43.14787" lon="-0.54116">
        <ele>303.712494</ele>
      </trkpt>
      <trkpt lat="43.14811" lon="-0.5411">
        <ele>305.309998</ele>
      </trkpt>
      <trkpt lat="43.14854" lon="-0.54131">
        <ele>308.950012</ele>
      </trkpt>
      <trkpt lat="43.14869" lon="-0.54146">
        <ele>310.368378</ele>
      </trkpt>
      <trkpt lat="43.14905" lon="-0.5417">
        <ele>313.907806</ele>
      </trkpt>
      <trkpt lat="43.14915" lon="-0.54171">
        <ele>314.932373</ele>
      </trkpt>
      <trkpt lat="43.1493" lon="-0.54162">
        <ele>316.889313</ele>
      </trkpt>
      <trkpt lat="43.14953" lon="-0.5416">
        <ele>319.418488</ele>
      </trkpt>
      <trkpt lat="43.15006" lon="-0.54127">
        <ele>324.659698</ele>
      </trkpt>
      <trkpt lat="43.15014" lon="-0.5412">
        <ele>325.576691</ele>
      </trkpt>
      <trkpt lat="43.15022" lon="-0.54104">
        <ele>327.300232</ele>
      </trkpt>
      <trkpt lat="43.15024" lon="-0.54081">
        <ele>329.435822</ele>
      </trkpt>
      <trkpt lat="43.15018" lon="-0.54053">
        <ele>331.729797</ele>
      </trkpt>
      <trkpt lat="43.15021" lon="-0.54042">
        <ele>332.862244</ele>
      </trkpt>
      <trkpt lat="43.15016" lon="-0.54016">
        <ele>335.04187</ele>
      </trkpt>
      <trkpt lat="43.15007" lon="-0.53999">
        <ele>336.478973</ele>
      </trkpt>
      <trkpt lat="43.14995" lon="-0.53922">
        <ele>340.192871</ele>
      </trkpt>
      <trkpt lat="43.14997" lon="-0.53907">
        <ele>340.933868</ele>
      </trkpt>
      <trkpt lat="43.15003" lon="-0.53892">
        <ele>341.494354</ele>
      </trkpt>
      <trkpt lat="43.15005" lon="-0.53839">
        <ele>340.638763</ele>
      </trkpt>
      <trkpt lat="43.15002" lon="-0.53721">
        <ele>327.682953</ele>
      </trkpt>
      <trkpt lat="43.15008" lon="-0.53689">
        <ele>326.084503</ele>
      </trkpt>
      <trkpt lat="43.15044" lon="-0.53601">
        <ele>324.231628</ele>
      </trkpt>
      <trkpt lat="43.15092" lon="-0.53531">
        <ele>322.544922</ele>
      </trkpt>
      <trkpt lat="43.15119" lon="-0.53485">
        <ele>321.494293</ele>
      </trkpt>
      <trkpt lat="43.15148" lon="-0.5345">
        <ele>320.798706</ele>
      </trkpt>
      <trkpt lat="43.15165" lon="-0.53425">
        <ele>320.62326</ele>
      </trkpt>
      <trkpt lat="43.15202" lon="-0.53397">
        <ele>320.095001</ele>
      </trkpt>
      <trkpt lat="43.15244" lon="-0.53355">
        <ele>321.273743</ele>
      </trkpt>
      <trkpt lat="43.15257" lon="-0.53338">
        <ele>321.441193</ele>
      </trkpt>
      <trkpt lat="43.1527" lon="-0.53332">
        <ele>321.32785</ele>
      </trkpt>
      <trkpt lat="43.15323" lon="-0.53324">
        <ele>321</ele>
      </trkpt>
      <trkpt lat="43.15338" lon="-0.53319">
        <ele>321</ele>
      </trkpt>
      <trkpt lat="43.15354" lon="-0.533">
        <ele>321</ele>
      </trkpt>
      <trkpt lat="43.15351" lon="-0.53288">
        <ele>321</ele>
      </trkpt>
      <trkpt lat="43.15296" lon="-0.53204">
        <ele>321</ele>
      </trkpt>
      <trkpt lat="43.15293" lon="-0.53186">
        <ele>321.058746</ele>
      </trkpt>
      <trkpt lat="43.15296" lon="-0.53045">
        <ele>321.929993</ele>
      </trkpt>
      <trkpt lat="43.15286" lon="-0.52994">
        <ele>321.549957</ele>
      </trkpt>
      <trkpt lat="43.15288" lon="-0.52992">
        <ele>321.553802</ele>
      </trkpt>
      <trkpt lat="43.15289" lon="-0.53019">
        <ele>321.752502</ele>
      </trkpt>
      <trkpt lat="43.15251" lon="-0.53064">
        <ele>320.805817</ele>
      </trkpt>
      <trkpt lat="43.15204" lon="-0.53125">
        <ele>318.942505</ele>
      </trkpt>
      <trkpt lat="43.15174" lon="-0.53147">
        <ele>318.662506</ele>
      </trkpt>
      <trkpt lat="43.15132" lon="-0.53165">
        <ele>319.67688</ele>
      </trkpt>
      <trkpt lat="43.15093" lon="-0.53166">
        <ele>321.492523</ele>
      </trkpt>
      <trkpt lat="43.15052" lon="-0.53177">
        <ele>323.390961</ele>
      </trkpt>
      <trkpt lat="43.15026" lon="-0.53196">
        <ele>323.98999</ele>
      </trkpt>
      <trkpt lat="43.15014" lon="-0.53196">
        <ele>324.081238</ele>
      </trkpt>
      <trkpt lat="43.14961" lon="-0.53153">
        <ele>324</ele>
      </trkpt>
      <trkpt lat="43.14949" lon="-0.53134">
        <ele>324</ele>
      </trkpt>
      <trkpt lat="43.14915" lon="-0.5306">
        <ele>323.08786</ele>
      </trkpt>
      <trkpt lat="43.14875" lon="-0.52985">
        <ele>323.000305</ele>
      </trkpt>
      <trkpt lat="43.14791" lon="-0.5285">
        <ele>325.056549</ele>
      </trkpt>
      <trkpt lat="43.14774" lon="-0.52803">
        <ele>325.726013</ele>
      </trkpt>
      <trkpt lat="43.14728" lon="-0.5264">
        <ele>329.503754</ele>
      </trkpt>
      <trkpt lat="43.14705" lon="-0.52579">
        <ele>329.734924</ele>
      </trkpt>
      <trkpt lat="43.14697" lon="-0.52552">
        <ele>329.932343</ele>
      </trkpt>
      <trkpt lat="43.14695" lon="-0.52524">
        <ele>330.279663</ele>
      </trkpt>
      <trkpt lat="43.14689" lon="-0.52287">
        <ele>333.198792</ele>
      </trkpt>
      <trkpt lat="43.14692" lon="-0.52242">
        <ele>333.960297</ele>
      </trkpt>
      <trkpt lat="43.14716" lon="-0.52073">
        <ele>340.147034</ele>
      </trkpt>
      <trkpt lat="43.14722" lon="-0.52004">
        <ele>341.486237</ele>
      </trkpt>
      <trkpt lat="43.14712" lon="-0.51978">
        <ele>341.190216</ele>
      </trkpt>
      <trkpt lat="43.14674" lon="-0.51932">
        <ele>340.182861</ele>
      </trkpt>
      <trkpt lat="43.14644" lon="-0.51903">
        <ele>339.891541</ele>
      </trkpt>
      <trkpt lat="43.14609" lon="-0.51883">
        <ele>340.005341</ele>
      </trkpt>
      <trkpt lat="43.14554" lon="-0.51864">
        <ele>341.992401</ele>
      </trkpt>
      <trkpt lat="43.14536" lon="-0.51848">
        <ele>342.581635</ele>
      </trkpt>
      <trkpt lat="43.14521" lon="-0.51826">
        <ele>343.144073</ele>
      </trkpt>
      <trkpt lat="43.14494" lon="-0.51759">
        <ele>343.321869</ele>
      </trkpt>
      <trkpt lat="43.14454" lon="-0.51668">
        <ele>343.071869</ele>
      </trkpt>
      <trkpt lat="43.1443" lon="-0.51625">
        <ele>343.785004</ele>
      </trkpt>
      <trkpt lat="43.14378" lon="-0.51554">
        <ele>343.630005</ele>
      </trkpt>
      <trkpt lat="43.14363" lon="-0.51537">
        <ele>343.22052</ele>
      </trkpt>
      <trkpt lat="43.14338" lon="-0.5149">
        <ele>342.660736</ele>
      </trkpt>
      <trkpt lat="43.14312" lon="-0.51416">
        <ele>342.993652</ele>
      </trkpt>
      <trkpt lat="43.14304" lon="-0.51374">
        <ele>342.968933</ele>
      </trkpt>
      <trkpt lat="43.14285" lon="-0.51322">
        <ele>343.353363</ele>
      </trkpt>
      <trkpt lat="43.14278" lon="-0.51281">
        <ele>343.774994</ele>
      </trkpt>
      <trkpt lat="43.14274" lon="-0.51212">
        <ele>343.902496</ele>
      </trkpt>
      <trkpt lat="43.14277" lon="-0.51187">
        <ele>343.850006</ele>
      </trkpt>
      <trkpt lat="43.14322" lon="-0.51094">
        <ele>342.779999</ele>
      </trkpt>
      <trkpt lat="43.1434" lon="-0.51065">
        <ele>342.019989</ele>
      </trkpt>
      <trkpt lat="43.14357" lon="-0.51029">
        <ele>341.238953</ele>
      </trkpt>
      <trkpt lat="43.14359" lon="-0.51018">
        <ele>341.155518</ele>
      </trkpt>
      <trkpt lat="43.14355" lon="-0.51008">
        <ele>341.253021</ele>
      </trkpt>
      <trkpt lat="43.14334" lon="-0.50984">
        <ele>341.704987</ele>
      </trkpt>
      <trkpt lat="43.14329" lon="-0.50975">
        <ele>341.82251</ele>
      </trkpt>
      <trkpt lat="43.14318" lon="-0.50942">
        <ele>342.070007</ele>
      </trkpt>
      <trkpt lat="43.14297" lon="-0.509">
        <ele>342.567505</ele>
      </trkpt>
      <trkpt lat="43.14289" lon="-0.50878">
        <ele>342.76001</ele>
      </trkpt>
      <trkpt lat="43.14279" lon="-0.50822">
        <ele>343</ele>
      </trkpt>
      <trkpt lat="43.14265" lon="-0.50771">
        <ele>342.43689</ele>
      </trkpt>
      <trkpt lat="43.14177" lon="-0.50486">
        <ele>342.927856</ele>
      </trkpt>
      <trkpt lat="43.1411" lon="-0.50275">
        <ele>342</ele>
      </trkpt>
      <trkpt lat="43.14072" lon="-0.50217">
        <ele>341.99118</ele>
      </trkpt>
      <trkpt lat="43.14049" lon="-0.5017">
        <ele>342</ele>
      </trkpt>
      <trkpt lat="43.13995" lon="-0.50106">
        <ele>341.627502</ele>
      </trkpt>
      <trkpt lat="43.13983" lon="-0.501">
        <ele>341.442993</ele>
      </trkpt>
      <trkpt lat="43.13901" lon="-0.50104">
        <ele>340.139252</ele>
      </trkpt>
      <trkpt lat="43.13874" lon="-0.50095">
        <ele>339.668976</ele>
      </trkpt>
      <trkpt lat="43.13854" lon="-0.50071">
        <ele>339.661804</ele>
      </trkpt>
      <trkpt lat="43.13833" lon="-0.50034">
        <ele>339.457245</ele>
      </trkpt>
      <trkpt lat="43.13824" lon="-0.50029">
        <ele>339.275269</ele>
      </trkpt>
      <trkpt lat="43.13785" lon="-0.50041">
        <ele>339.033478</ele>
      </trkpt>
      <trkpt lat="43.13772" lon="-0.50042">
        <ele>339.040771</ele>
      </trkpt>
      <trkpt lat="43.13742" lon="-0.50018">
        <ele>339.595947</ele>
      </trkpt>
      <trkpt lat="43.13717" lon="-0.50002">
        <ele>340.292633</ele>
      </trkpt>
      <trkpt lat="43.13706" lon="-0.5">
        <ele>340.682373</ele>
      </trkpt>
      <trkpt lat="43.13696" lon="-0.50005">
        <ele>340.845947</ele>
      </trkpt>
      <trkpt lat="43.13686" lon="-0.50018">
        <ele>340.851593</ele>
      </trkpt>
      <trkpt lat="43.13648" lon="-0.5013">
        <ele>342.563934</ele>
      </trkpt>
      <trkpt lat="43.13632" lon="-0.50161">
        <ele>344.799988</ele>
      </trkpt>
      <trkpt lat="43.13592" lon="-0.50199">
        <ele>350.005005</ele>
      </trkpt>
      <trkpt lat="43.13574" lon="-0.50195">
        <ele>352.448181</ele>
      </trkpt>
      <trkpt lat="43.13518" lon="-0.50096">
        <ele>359.865631</ele>
      </trkpt>
      <trkpt lat="43.13504" lon="-0.50065">
        <ele>360.940613</ele>
      </trkpt>
      <trkpt lat="43.13479" lon="-0.50026">
        <ele>362.729767</ele>
      </trkpt>
      <trkpt lat="43.13449" lon="-0.49997">
        <ele>364.376343</ele>
      </trkpt>
      <trkpt lat="43.13434" lon="-0.49986">
        <ele>365.267487</ele>
      </trkpt>
      <trkpt lat="43.13421" lon="-0.49984">
        <ele>366.050629</ele>
      </trkpt>
      <trkpt lat="43.13347" lon="-0.50016">
        <ele>368.455383</ele>
      </trkpt>
      <trkpt lat="43.13339" lon="-0.50024">
        <ele>368.193024</ele>
      </trkpt>
      <trkpt lat="43.13314" lon="-0.50063">
        <ele>365.229309</ele>
      </trkpt>
      <trkpt lat="43.13288" lon="-0.50094">
        <ele>360.142639</ele>
      </trkpt>
      <trkpt lat="43.13276" lon="-0.50098">
        <ele>358.376404</ele>
      </trkpt>
      <trkpt lat="43.13269" lon="-0.50093">
        <ele>357.788483</ele>
      </trkpt>
      <trkpt lat="43.13264" lon="-0.50083">
        <ele>357.711212</ele>
      </trkpt>
      <trkpt lat="43.13257" lon="-0.50054">
        <ele>359.008759</ele>
      </trkpt>
      <trkpt lat="43.13209" lon="-0.49929">
        <ele>361.447357</ele>
      </trkpt>
      <trkpt lat="43.13211" lon="-0.49918">
        <ele>361.628876</ele>
      </trkpt>
      <trkpt lat="43.13295" lon="-0.49839">
        <ele>363.066071</ele>
      </trkpt>
      <trkpt lat="43.13342" lon="-0.49801">
        <ele>359.786896</ele>
      </trkpt>
      <trkpt lat="43.1337" lon="-0.49769">
        <ele>355.724365</ele>
      </trkpt>
      <trkpt lat="43.13381" lon="-0.4976">
        <ele>354.220001</ele>
      </trkpt>
      <trkpt lat="43.13395" lon="-0.49761">
        <ele>353.29187</ele>
      </trkpt>
      <trkpt lat="43.13442" lon="-0.49783">
        <ele>351.696045</ele>
      </trkpt>
      <trkpt lat="43.13454" lon="-0.49785">
        <ele>351.050629</ele>
      </trkpt>
      <trkpt lat="43.1346" lon="-0.49781">
        <ele>349.896027</ele>
      </trkpt>
      <trkpt lat="43.13459" lon="-0.49777">
        <ele>349.530579</ele>
      </trkpt>
      <trkpt lat="43.13443" lon="-0.49766">
        <ele>349.92627</ele>
      </trkpt>
      <trkpt lat="43.13425" lon="-0.4975">
        <ele>349.873535</ele>
      </trkpt>
      <trkpt lat="43.13406" lon="-0.49714">
        <ele>348.815948</ele>
      </trkpt>
      <trkpt lat="43.13381" lon="-0.49689">
        <ele>348.871246</ele>
      </trkpt>
      <trkpt lat="43.13351" lon="-0.4965">
        <ele>348.447998</ele>
      </trkpt>
      <trkpt lat="43.13312" lon="-0.49592">
        <ele>348.239899</ele>
      </trkpt>
      <trkpt lat="43.13311" lon="-0.49541">
        <ele>347.731689</ele>
      </trkpt>
      <trkpt lat="43.13306" lon="-0.49508">
        <ele>348.06366</ele>
      </trkpt>
      <trkpt lat="43.13277" lon="-0.49451">
        <ele>350.474182</ele>
      </trkpt>
      <trkpt lat="43.13232" lon="-0.49424">
        <ele>353.227142</ele>
      </trkpt>
      <trkpt lat="43.13191" lon="-0.49387">
        <ele>355.614685</ele>
      </trkpt>
      <trkpt lat="43.13176" lon="-0.4937">
        <ele>356.657654</ele>
      </trkpt>
      <trkpt lat="43.13127" lon="-0.49353">
        <ele>358.667664</ele>
      </trkpt>
      <trkpt lat="43.13056" lon="-0.49307">
        <ele>362.262512</ele>
      </trkpt>
      <trkpt lat="43.13049" lon="-0.49299">
        <ele>362.72171</ele>
      </trkpt>
      <trkpt lat="43.13037" lon="-0.49276">
        <ele>363.615295</ele>
      </trkpt>
      <trkpt lat="43.13027" lon="-0.49239">
        <ele>363.893738</ele>
      </trkpt>
      <trkpt lat="43.13006" lon="-0.4921">
        <ele>364.288757</ele>
      </trkpt>
      <trkpt lat="43.12991" lon="-0.49202">
        <ele>364.384003</ele>
      </trkpt>
      <trkpt lat="43.12852" lon="-0.49246">
        <ele>363.322662</ele>
      </trkpt>
      <trkpt lat="43.12844" lon="-0.49244">
        <ele>362.94046</ele>
      </trkpt>
      <trkpt lat="43.12838" lon="-0.49233">
        <ele>363.345947</ele>
      </trkpt>
      <trkpt lat="43.1281" lon="-0.49143">
        <ele>369.624603</ele>
      </trkpt>
      <trkpt lat="43.128" lon="-0.49098">
        <ele>371.28125</ele>
      </trkpt>
      <trkpt lat="43.12792" lon="-0.49078">
        <ele>371.570007</ele>
      </trkpt>
      <trkpt lat="43.12782" lon="-0.49006">
        <ele>372.885712</ele>
      </trkpt>
      <trkpt lat="43.12777" lon="-0.48992">
        <ele>373.41095</ele>
      </trkpt>
      <trkpt lat="43.12733" lon="-0.4891">
        <ele>378.019592</ele>
      </trkpt>
      <trkpt lat="43.12654" lon="-0.48802">
        <ele>381.879578</ele>
      </trkpt>
      <trkpt lat="43.1265" lon="-0.48779">
        <ele>381.647186</ele>
      </trkpt>
      <trkpt lat="43.12654" lon="-0.48747">
        <ele>380.910004</ele>
      </trkpt>
      <trkpt lat="43.12653" lon="-0.48738">
        <ele>380.867493</ele>
      </trkpt>
      <trkpt lat="43.12649" lon="-0.48734">
        <ele>381.070007</ele>
      </trkpt>
      <trkpt lat="43.12611" lon="-0.48785">
        <ele>382.359985</ele>
      </trkpt>
      <trkpt lat="43.12545" lon="-0.48855">
        <ele>375.131439</ele>
      </trkpt>
      <trkpt lat="43.12548" lon="-0.48866">
        <ele>375.989044</ele>
      </trkpt>
      <trkpt lat="43.12547" lon="-0.48873">
        <ele>376.012146</ele>
      </trkpt>
      <trkpt lat="43.12516" lon="-0.48899">
        <ele>370.168823</ele>
      </trkpt>
      <trkpt lat="43.12485" lon="-0.48892">
        <ele>365.102173</ele>
      </trkpt>
      <trkpt lat="43.12467" lon="-0.48878">
        <ele>362.717438</ele>
      </trkpt>
      <trkpt lat="43.1246" lon="-0.4888">
        <ele>361.561676</ele>
      </trkpt>
      <trkpt lat="43.12422" lon="-0.4892">
        <ele>355.521545</ele>
      </trkpt>
      <trkpt lat="43.12405" lon="-0.48943">
        <ele>353.881958</ele>
      </trkpt>
      <trkpt lat="43.12356" lon="-0.49056">
        <ele>342.75116</ele>
      </trkpt>
      <trkpt lat="43.12328" lon="-0.49096">
        <ele>335.485809</ele>
      </trkpt>
      <trkpt lat="43.12282" lon="-0.49115">
        <ele>327.020752</ele>
      </trkpt>
      <trkpt lat="43.12278" lon="-0.49128">
        <ele>324.93869</ele>
      </trkpt>
      <trkpt lat="43.12262" lon="-0.49155">
        <ele>320.317383</ele>
      </trkpt>
      <trkpt lat="43.12261" lon="-0.49166">
        <ele>319.928864</ele>
      </trkpt>
      <trkpt lat="43.12267" lon="-0.49182">
        <ele>319.965637</ele>
      </trkpt>
      <trkpt lat="43.12269" lon="-0.492">
        <ele>319.125</ele>
      </trkpt>
      <trkpt lat="43.12264" lon="-0.49206">
        <ele>318.311157</ele>
      </trkpt>
      <trkpt lat="43.12233" lon="-0.49214">
        <ele>316.482239</ele>
      </trkpt>
      <trkpt lat="43.12231" lon="-0.49217">
        <ele>316.373932</ele>
      </trkpt>
      <trkpt lat="43.12237" lon="-0.49255">
        <ele>315.643738</ele>
      </trkpt>
      <trkpt lat="43.12236" lon="-0.49265">
        <ele>315.46875</ele>
      </trkpt>
      <trkpt lat="43.12252" lon="-0.49388">
        <ele>315.658325</ele>
      </trkpt>
      <trkpt lat="43.12258" lon="-0.49424">
        <ele>316.473877</ele>
      </trkpt>
      <trkpt lat="43.12283" lon="-0.49512">
        <ele>316.591736</ele>
      </trkpt>
      <trkpt lat="43.12288" lon="-0.49521">
        <ele>316.394348</ele>
      </trkpt>
      <trkpt lat="43.12293" lon="-0.49539">
        <ele>316.06134</ele>
      </trkpt>
      <trkpt lat="43.12296" lon="-0.49582">
        <ele>316.462158</ele>
      </trkpt>
      <trkpt lat="43.12305" lon="-0.49612">
        <ele>316.341034</ele>
      </trkpt>
      <trkpt lat="43.12304" lon="-0.49619">
        <ele>316.420013</ele>
      </trkpt>
      <trkpt lat="43.12284" lon="-0.49657">
        <ele>317.173096</ele>
      </trkpt>
      <trkpt lat="43.1226" lon="-0.49621">
        <ele>317.847015</ele>
      </trkpt>
      <trkpt lat="43.12221" lon="-0.49588">
        <ele>318.733398</ele>
      </trkpt>
      <trkpt lat="43.12201" lon="-0.49578">
        <ele>319.296753</ele>
      </trkpt>
      <trkpt lat="43.12201" lon="-0.49587">
        <ele>319.527985</ele>
      </trkpt>
      <trkpt lat="43.12197" lon="-0.49596">
        <ele>319.911133</ele>
      </trkpt>
      <trkpt lat="43.12174" lon="-0.49628">
        <ele>321.028198</ele>
      </trkpt>
      <trkpt lat="43.12171" lon="-0.49627">
        <ele>321.060425</ele>
      </trkpt>
      <trkpt lat="43.12171" lon="-0.49635">
        <ele>321.343384</ele>
      </trkpt>
      <trkpt lat="43.12189" lon="-0.4965">
        <ele>321.174438</ele>
      </trkpt>
      <trkpt lat="43.1221" lon="-0.49683">
        <ele>320.415009</ele>
      </trkpt>
      <trkpt lat="43.12222" lon="-0.49717">
        <ele>319.859985</ele>
      </trkpt>
      <trkpt lat="43.12225" lon="-0.4974">
        <ele>319.690002</ele>
      </trkpt>
      <trkpt lat="43.12222" lon="-0.49772">
        <ele>319.795013</ele>
      </trkpt>
      <trkpt lat="43.12217" lon="-0.49787">
        <ele>320.00946</ele>
      </trkpt>
      <trkpt lat="43.12196" lon="-0.49819">
        <ele>320.375458</ele>
      </trkpt>
      <trkpt lat="43.12186" lon="-0.49839">
        <ele>320.25061</ele>
      </trkpt>
      <trkpt lat="43.12184" lon="-0.49855">
        <ele>320.531891</ele>
      </trkpt>
      <trkpt lat="43.12187" lon="-0.49869">
        <ele>320.893158</ele>
      </trkpt>
      <trkpt lat="43.12196" lon="-0.4988">
        <ele>321.109741</ele>
      </trkpt>
      <trkpt lat="43.12206" lon="-0.49884">
        <ele>321.070496</ele>
      </trkpt>
      <trkpt lat="43.12242" lon="-0.49879">
        <ele>320.421265</ele>
      </trkpt>
      <trkpt lat="43.12256" lon="-0.49882">
        <ele>320.149994</ele>
      </trkpt>
      <trkpt lat="43.12267" lon="-0.49893">
        <ele>320.038757</ele>
      </trkpt>
      <trkpt lat="43.12274" lon="-0.49904">
        <ele>320.076874</ele>
      </trkpt>
      <trkpt lat="43.12277" lon="-0.49918">
        <ele>320.091003</ele>
      </trkpt>
      <trkpt lat="43.12277" lon="-0.49933">
        <ele>320.09314</ele>
      </trkpt>
      <trkpt lat="43.12261" lon="-0.50027">
        <ele>320.412384</ele>
      </trkpt>
      <trkpt lat="43.12252" lon="-0.50051">
        <ele>320.381226</ele>
      </trkpt>
      <trkpt lat="43.12214" lon="-0.50111">
        <ele>320.134888</ele>
      </trkpt>
      <trkpt lat="43.12203" lon="-0.50122">
        <ele>319.976563</ele>
      </trkpt>
      <trkpt lat="43.12165" lon="-0.50141">
        <ele>320.655029</ele>
      </trkpt>
      <trkpt lat="43.12155" lon="-0.50151">
        <ele>320.94696</ele>
      </trkpt>
      <trkpt lat="43.12148" lon="-0.50164">
        <ele>321.100281</ele>
      </trkpt>
      <trkpt lat="43.12144" lon="-0.50178">
        <ele>320.872314</ele>
      </trkpt>
      <trkpt lat="43.12143" lon="-0.50208">
        <ele>320.042786</ele>
      </trkpt>
      <trkpt lat="43.12151" lon="-0.50267">
        <ele>320.297516</ele>
      </trkpt>
      <trkpt lat="43.12159" lon="-0.50285">
        <ele>322.447937</ele>
      </trkpt>
      <trkpt lat="43.12177" lon="-0.50304">
        <ele>326.280029</ele>
      </trkpt>
      <trkpt lat="43.12193" lon="-0.50309">
        <ele>328.212891</ele>
      </trkpt>
      <trkpt lat="43.12255" lon="-0.50303">
        <ele>329.158051</ele>
      </trkpt>
      <trkpt lat="43.12271" lon="-0.50306">
        <ele>329.119965</ele>
      </trkpt>
      <trkpt lat="43.12287" lon="-0.503">
        <ele>327.306335</ele>
      </trkpt>
      <trkpt lat="43.12301" lon="-0.50304">
        <ele>326.505585</ele>
      </trkpt>
      <trkpt lat="43.12339" lon="-0.50329">
        <ele>325.545013</ele>
      </trkpt>
      <trkpt lat="43.12355" lon="-0.50353">
        <ele>326.022308</ele>
      </trkpt>
      <trkpt lat="43.12359" lon="-0.50369">
        <ele>326.666138</ele>
      </trkpt>
      <trkpt lat="43.12358" lon="-0.50376">
        <ele>327.160797</ele>
      </trkpt>
      <trkpt lat="43.12346" lon="-0.504">
        <ele>330.504364</ele>
      </trkpt>
      <trkpt lat="43.12349" lon="-0.50408">
        <ele>330.859375</ele>
      </trkpt>
      <trkpt lat="43.12373" lon="-0.50405">
        <ele>326.324982</ele>
      </trkpt>
      <trkpt lat="43.12382" lon="-0.50412">
        <ele>325.200653</ele>
      </trkpt>
      <trkpt lat="43.12402" lon="-0.50442">
        <ele>324.428864</ele>
      </trkpt>
      <trkpt lat="43.12421" lon="-0.50437">
        <ele>321.525391</ele>
      </trkpt>
      <trkpt lat="43.12428" lon="-0.50449">
        <ele>321.472321</ele>
      </trkpt>
      <trkpt lat="43.12438" lon="-0.50456">
        <ele>320.540497</ele>
      </trkpt>
      <trkpt lat="43.12458" lon="-0.5049">
        <ele>320.865997</ele>
      </trkpt>
      <trkpt lat="43.12467" lon="-0.50527">
        <ele>322.235718</ele>
      </trkpt>
      <trkpt lat="43.12485" lon="-0.50543">
        <ele>320.186493</ele>
      </trkpt>
      <trkpt lat="43.12498" lon="-0.5055">
        <ele>319.129547</ele>
      </trkpt>
      <trkpt lat="43.12522" lon="-0.50582">
        <ele>317.43689</ele>
      </trkpt>
      <trkpt lat="43.1254" lon="-0.50613">
        <ele>316.073914</ele>
      </trkpt>
      <trkpt lat="43.12551" lon="-0.50619">
        <ele>315.548737</ele>
      </trkpt>
      <trkpt lat="43.12567" lon="-0.50633">
        <ele>314.671814</ele>
      </trkpt>
      <trkpt lat="43.12579" lon="-0.50653">
        <ele>313.835907</ele>
      </trkpt>
      <trkpt lat="43.12587" lon="-0.50658">
        <ele>313.265594</ele>
      </trkpt>
      <trkpt lat="43.12612" lon="-0.50689">
        <ele>311.5625</ele>
      </trkpt>
      <trkpt lat="43.12629" lon="-0.50725">
        <ele>310.779999</ele>
      </trkpt>
      <trkpt lat="43.12638" lon="-0.50733">
        <ele>310.570007</ele>
      </trkpt>
      <trkpt lat="43.12645" lon="-0.50746">
        <ele>310.402496</ele>
      </trkpt>
      <trkpt lat="43.12655" lon="-0.50795">
        <ele>310.162506</ele>
      </trkpt>
      <trkpt lat="43.12654" lon="-0.50805">
        <ele>310.1875</ele>
      </trkpt>
      <trkpt lat="43.12642" lon="-0.50821">
        <ele>310.442505</ele>
      </trkpt>
      <trkpt lat="43.12636" lon="-0.50833">
        <ele>310.557495</ele>
      </trkpt>
      <trkpt lat="43.12634" lon="-0.50859">
        <ele>310.478973</ele>
      </trkpt>
      <trkpt lat="43.12628" lon="-0.50875">
        <ele>310.396271</ele>
      </trkpt>
      <trkpt lat="43.12625" lon="-0.50898">
        <ele>310.132568</ele>
      </trkpt>
      <trkpt lat="43.12621" lon="-0.50905">
        <ele>310.051758</ele>
      </trkpt>
      <trkpt lat="43.1261" lon="-0.50939">
        <ele>310.21347</ele>
      </trkpt>
      <trkpt lat="43.12603" lon="-0.50946">
        <ele>310.588531</ele>
      </trkpt>
      <trkpt lat="43.12586" lon="-0.50945">
        <ele>311.611298</ele>
      </trkpt>
      <trkpt lat="43.12582" lon="-0.50978">
        <ele>312.266754</ele>
      </trkpt>
      <trkpt lat="43.12578" lon="-0.50982">
        <ele>312.623779</ele>
      </trkpt>
      <trkpt lat="43.12559" lon="-0.50986">
        <ele>314.684723</ele>
      </trkpt>
      <trkpt lat="43.12547" lon="-0.50984">
        <ele>316.231812</ele>
      </trkpt>
      <trkpt lat="43.12538" lon="-0.50974">
        <ele>316.888855</ele>
      </trkpt>
      <trkpt lat="43.12526" lon="-0.50971">
        <ele>318.032623</ele>
      </trkpt>
      <trkpt lat="43.12518" lon="-0.50994">
        <ele>320.51001</ele>
      </trkpt>
      <trkpt lat="43.1251" lon="-0.51037">
        <ele>324.576874</ele>
      </trkpt>
      <trkpt lat="43.12511" lon="-0.51052">
        <ele>325.529236</ele>
      </trkpt>
      <trkpt lat="43.12523" lon="-0.51084">
        <ele>326.152039</ele>
      </trkpt>
      <trkpt lat="43.12529" lon="-0.5112">
        <ele>326.919373</ele>
      </trkpt>
      <trkpt lat="43.12543" lon="-0.51167">
        <ele>326.788788</ele>
      </trkpt>
      <trkpt lat="43.12551" lon="-0.51228">
        <ele>328.469482</ele>
      </trkpt>
      <trkpt lat="43.12555" lon="-0.51229">
        <ele>328.097046</ele>
      </trkpt>
      <trkpt lat="43.12566" lon="-0.5122">
        <ele>325.587006</ele>
      </trkpt>
      <trkpt lat="43.12576" lon="-0.51226">
        <ele>324.29657</ele>
      </trkpt>
      <trkpt lat="43.1259" lon="-0.51222">
        <ele>321.25116</ele>
      </trkpt>
      <trkpt lat="43.12594" lon="-0.51224">
        <ele>320.690125</ele>
      </trkpt>
      <trkpt lat="43.12588" lon="-0.5123">
        <ele>322.562378</ele>
      </trkpt>
      <trkpt lat="43.12596" lon="-0.51249">
        <ele>323.573273</ele>
      </trkpt>
      <trkpt lat="43.12608" lon="-0.51248">
        <ele>321.606049</ele>
      </trkpt>
      <trkpt lat="43.12615" lon="-0.51258">
        <ele>322.186218</ele>
      </trkpt>
      <trkpt lat="43.12627" lon="-0.51256">
        <ele>320.389069</ele>
      </trkpt>
      <trkpt lat="43.12638" lon="-0.51261">
        <ele>320.133636</ele>
      </trkpt>
      <trkpt lat="43.12642" lon="-0.51272">
        <ele>321.50946</ele>
      </trkpt>
      <trkpt lat="43.12641" lon="-0.51284">
        <ele>323.814362</ele>
      </trkpt>
      <trkpt lat="43.12651" lon="-0.51319">
        <ele>327.813751</ele>
      </trkpt>
      <trkpt lat="43.12672" lon="-0.51363">
        <ele>327.481781</ele>
      </trkpt>
      <trkpt lat="43.12679" lon="-0.51367">
        <ele>326.31601</ele>
      </trkpt>
      <trkpt lat="43.12695" lon="-0.5136">
        <ele>321.262848</ele>
      </trkpt>
      <trkpt lat="43.12706" lon="-0.51359">
        <ele>317.125916</ele>
      </trkpt>
      <trkpt lat="43.12713" lon="-0.51371">
        <ele>315.894745</ele>
      </trkpt>
      <trkpt lat="43.12715" lon="-0.5138">
        <ele>316.195892</ele>
      </trkpt>
      <trkpt lat="43.12712" lon="-0.51391">
        <ele>318.179474</ele>
      </trkpt>
      <trkpt lat="43.12727" lon="-0.51413">
        <ele>313.743744</ele>
      </trkpt>
      <trkpt lat="43.12746" lon="-0.51457">
        <ele>304.660004</ele>
      </trkpt>
      <trkpt lat="43.12769" lon="-0.5149">
        <ele>296.690308</ele>
      </trkpt>
      <trkpt lat="43.12796" lon="-0.51536">
        <ele>294.058929</ele>
      </trkpt>
      <trkpt lat="43.12822" lon="-0.51553">
        <ele>291.131409</ele>
      </trkpt>
      <trkpt lat="43.12853" lon="-0.51598">
        <ele>293.75769</ele>
      </trkpt>
      <trkpt lat="43.12862" lon="-0.51606">
        <ele>294.063263</ele>
      </trkpt>
      <trkpt lat="43.12888" lon="-0.51616">
        <ele>291.874054</ele>
      </trkpt>
      <trkpt lat="43.12911" lon="-0.51634">
        <ele>290.989471</ele>
      </trkpt>
      <trkpt lat="43.12929" lon="-0.51655">
        <ele>290.711029</ele>
      </trkpt>
      <trkpt lat="43.12933" lon="-0.5168">
        <ele>291.440186</ele>
      </trkpt>
      <trkpt lat="43.1293" lon="-0.51689">
        <ele>292.270233</ele>
      </trkpt>
      <trkpt lat="43.1293" lon="-0.5172">
        <ele>293.363373</ele>
      </trkpt>
      <trkpt lat="43.1292" lon="-0.51779">
        <ele>293.398193</ele>
      </trkpt>
      <trkpt lat="43.1291" lon="-0.51795">
        <ele>296.616516</ele>
      </trkpt>
      <trkpt lat="43.12911" lon="-0.51797">
        <ele>295.975739</ele>
      </trkpt>
      <trkpt lat="43.12906" lon="-0.51819">
        <ele>297.42334</ele>
      </trkpt>
      <trkpt lat="43.12883" lon="-0.51864">
        <ele>305.032104</ele>
      </trkpt>
      <trkpt lat="43.12877" lon="-0.51902">
        <ele>303.142151</ele>
      </trkpt>
      <trkpt lat="43.12881" lon="-0.51925">
        <ele>300.650635</ele>
      </trkpt>
      <trkpt lat="43.129" lon="-0.51968">
        <ele>296.908234</ele>
      </trkpt>
      <trkpt lat="43.12902" lon="-0.51987">
        <ele>301.005005</ele>
      </trkpt>
      <trkpt lat="43.12912" lon="-0.52009">
        <ele>305.053436</ele>
      </trkpt>
      <trkpt lat="43.12925" lon="-0.52062">
        <ele>319.223816</ele>
      </trkpt>
      <trkpt lat="43.12965" lon="-0.52143">
        <ele>333.219208</ele>
      </trkpt>
      <trkpt lat="43.12974" lon="-0.5217">
        <ele>333.667725</ele>
      </trkpt>
      <trkpt lat="43.12989" lon="-0.52195">
        <ele>331.695007</ele>
      </trkpt>
      <trkpt lat="43.13014" lon="-0.52218">
        <ele>325.585632</ele>
      </trkpt>
      <trkpt lat="43.1303" lon="-0.52249">
        <ele>317.090027</ele>
      </trkpt>
      <trkpt lat="43.13038" lon="-0.52273">
        <ele>310.243408</ele>
      </trkpt>
      <trkpt lat="43.13058" lon="-0.52298">
        <ele>299.184204</ele>
      </trkpt>
      <trkpt lat="43.13062" lon="-0.52311">
        <ele>296.424042</ele>
      </trkpt>
      <trkpt lat="43.13061" lon="-0.52336">
        <ele>294.543427</ele>
      </trkpt>
      <trkpt lat="43.13047" lon="-0.52355">
        <ele>298.554443</ele>
      </trkpt>
      <trkpt lat="43.13037" lon="-0.52379">
        <ele>302.710968</ele>
      </trkpt>
      <trkpt lat="43.13035" lon="-0.52397">
        <ele>304.7789</ele>
      </trkpt>
      <trkpt lat="43.13037" lon="-0.52403">
        <ele>305.163757</ele>
      </trkpt>
      <trkpt lat="43.1306" lon="-0.52414">
        <ele>304.308899</ele>
      </trkpt>
      <trkpt lat="43.13073" lon="-0.52412">
        <ele>302.740051</ele>
      </trkpt>
      <trkpt lat="43.13098" lon="-0.52418">
        <ele>298.291443</ele>
      </trkpt>
      <trkpt lat="43.13118" lon="-0.52439">
        <ele>297.986633</ele>
      </trkpt>
      <trkpt lat="43.13138" lon="-0.52444">
        <ele>295.284607</ele>
      </trkpt>
      <trkpt lat="43.13156" lon="-0.52444">
        <ele>292.098297</ele>
      </trkpt>
      <trkpt lat="43.13175" lon="-0.52451">
        <ele>290.545563</ele>
      </trkpt>
      <trkpt lat="43.13178" lon="-0.52457">
        <ele>291.240112</ele>
      </trkpt>
      <trkpt lat="43.13171" lon="-0.52471">
        <ele>295.343018</ele>
      </trkpt>
      <trkpt lat="43.13149" lon="-0.52544">
        <ele>308.589783</ele>
      </trkpt>
      <trkpt lat="43.13148" lon="-0.5257">
        <ele>310.079132</ele>
      </trkpt>
      <trkpt lat="43.13144" lon="-0.52589">
        <ele>311.867981</ele>
      </trkpt>
      <trkpt lat="43.13139" lon="-0.52598">
        <ele>312.522247</ele>
      </trkpt>
      <trkpt lat="43.13105" lon="-0.5261">
        <ele>318.022491</ele>
      </trkpt>
      <trkpt lat="43.13077" lon="-0.52614">
        <ele>320.592621</ele>
      </trkpt>
      <trkpt lat="43.1305" lon="-0.52635">
        <ele>322.887787</ele>
      </trkpt>
      <trkpt lat="43.13009" lon="-0.5266">
        <ele>325.859711</ele>
      </trkpt>
      <trkpt lat="43.12992" lon="-0.52664">
        <ele>326.039642</ele>
      </trkpt>
      <trkpt lat="43.12896" lon="-0.52734">
        <ele>328.493042</ele>
      </trkpt>
      <trkpt lat="43.12863" lon="-0.52766">
        <ele>330.007141</ele>
      </trkpt>
      <trkpt lat="43.12793" lon="-0.52819">
        <ele>332.86441</ele>
      </trkpt>
      <trkpt lat="43.12763" lon="-0.52825">
        <ele>333.27066</ele>
      </trkpt>
      <trkpt lat="43.12751" lon="-0.5283">
        <ele>333.593262</ele>
      </trkpt>
      <trkpt lat="43.12695" lon="-0.52905">
        <ele>338.880005</ele>
      </trkpt>
      <trkpt lat="43.12686" lon="-0.52934">
        <ele>340.98999</ele>
      </trkpt>
      <trkpt lat="43.12684" lon="-0.52978">
        <ele>343.574066</ele>
      </trkpt>
      <trkpt lat="43.12677" lon="-0.53018">
        <ele>345.747559</ele>
      </trkpt>
      <trkpt lat="43.1267" lon="-0.53116">
        <ele>352.056732</ele>
      </trkpt>
      <trkpt lat="43.12671" lon="-0.53133">
        <ele>352.623413</ele>
      </trkpt>
      <trkpt lat="43.12664" lon="-0.53159">
        <ele>354.044891</ele>
      </trkpt>
      <trkpt lat="43.1265" lon="-0.53178">
        <ele>356.214966</ele>
      </trkpt>
      <trkpt lat="43.12613" lon="-0.53211">
        <ele>360.848267</ele>
      </trkpt>
      <trkpt lat="43.12604" lon="-0.53225">
        <ele>362.41629</ele>
      </trkpt>
      <trkpt lat="43.12601" lon="-0.53238">
        <ele>363.390259</ele>
      </trkpt>
      <trkpt lat="43.12612" lon="-0.53298">
        <ele>362.354858</ele>
      </trkpt>
      <trkpt lat="43.12615" lon="-0.53329">
        <ele>362.209991</ele>
      </trkpt>
      <trkpt lat="43.12623" lon="-0.53346">
        <ele>361.220642</ele>
      </trkpt>
      <trkpt lat="43.12622" lon="-0.53361">
        <ele>361.535614</ele>
      </trkpt>
      <trkpt lat="43.12619" lon="-0.53364">
        <ele>362.128662</ele>
      </trkpt>
      <trkpt lat="43.12614" lon="-0.53363">
        <ele>362.858734</ele>
      </trkpt>
      <trkpt lat="43.12596" lon="-0.53344">
        <ele>365.445007</ele>
      </trkpt>
      <trkpt lat="43.12584" lon="-0.53338">
        <ele>366.600006</ele>
      </trkpt>
      <trkpt lat="43.12554" lon="-0.53336">
        <ele>369.233765</ele>
      </trkpt>
      <trkpt lat="43.12534" lon="-0.53352">
        <ele>369.791046</ele>
      </trkpt>
      <trkpt lat="43.12523" lon="-0.53377">
        <ele>370.606262</ele>
      </trkpt>
      <trkpt lat="43.12516" lon="-0.53423">
        <ele>372.13858</ele>
      </trkpt>
      <trkpt lat="43.12508" lon="-0.53432">
        <ele>372.561005</ele>
      </trkpt>
      <trkpt lat="43.12507" lon="-0.53489">
        <ele>375.210571</ele>
      </trkpt>
      <trkpt lat="43.12512" lon="-0.53545">
        <ele>378.024567</ele>
      </trkpt>
      <trkpt lat="43.12501" lon="-0.53595">
        <ele>382.068756</ele>
      </trkpt>
      <trkpt lat="43.12476" lon="-0.53612">
        <ele>386.181244</ele>
      </trkpt>
      <trkpt lat="43.12433" lon="-0.5369">
        <ele>398.038879</ele>
      </trkpt>
      <trkpt lat="43.12401" lon="-0.53723">
        <ele>403.6492</ele>
      </trkpt>
      <trkpt lat="43.12397" lon="-0.53723">
        <ele>404.270477</ele>
      </trkpt>
      <trkpt lat="43.12388" lon="-0.53739">
        <ele>406.647186</ele>
      </trkpt>
      <trkpt lat="43.12386" lon="-0.53754">
        <ele>408.006775</ele>
      </trkpt>
      <trkpt lat="43.12404" lon="-0.5378">
        <ele>408.641846</ele>
      </trkpt>
      <trkpt lat="43.12412" lon="-0.53802">
        <ele>408.970856</ele>
      </trkpt>
      <trkpt lat="43.12412" lon="-0.53812">
        <ele>409.439117</ele>
      </trkpt>
      <trkpt lat="43.12406" lon="-0.53842">
        <ele>411.499237</ele>
      </trkpt>
      <trkpt lat="43.12389" lon="-0.53863">
        <ele>413.503357</ele>
      </trkpt>
      <trkpt lat="43.12383" lon="-0.53877">
        <ele>414.533752</ele>
      </trkpt>
      <trkpt lat="43.1235" lon="-0.53911">
        <ele>418.55249</ele>
      </trkpt>
      <trkpt lat="43.12349" lon="-0.53924">
        <ele>419.05249</ele>
      </trkpt>
      <trkpt lat="43.12363" lon="-0.53974">
        <ele>419.342407</ele>
      </trkpt>
      <trkpt lat="43.12381" lon="-0.54055">
        <ele>419.278137</ele>
      </trkpt>
      <trkpt lat="43.12384" lon="-0.54122">
        <ele>419.981964</ele>
      </trkpt>
      <trkpt lat="43.12382" lon="-0.54164">
        <ele>420.367401</ele>
      </trkpt>
      <trkpt lat="43.12385" lon="-0.54169">
        <ele>420.373779</ele>
      </trkpt>
      <trkpt lat="43.12381" lon="-0.54171">
        <ele>420.421906</ele>
      </trkpt>
      <trkpt lat="43.1242" lon="-0.54351">
        <ele>418.666107</ele>
      </trkpt>
      <trkpt lat="43.12442" lon="-0.544">
        <ele>417.546112</ele>
      </trkpt>
      <trkpt lat="43.12454" lon="-0.54444">
        <ele>417.288391</ele>
      </trkpt>
      <trkpt lat="43.12475" lon="-0.54606">
        <ele>418.213928</ele>
      </trkpt>
      <trkpt lat="43.1249" lon="-0.54652">
        <ele>417.210663</ele>
      </trkpt>
      <trkpt lat="43.12514" lon="-0.54688">
        <ele>417.317566</ele>
      </trkpt>
      <trkpt lat="43.12554" lon="-0.54743">
        <ele>416.293854</ele>
      </trkpt>
      <trkpt lat="43.12641" lon="-0.54894">
        <ele>415.085846</ele>
      </trkpt>
      <trkpt lat="43.12684" lon="-0.54957">
        <ele>415.806183</ele>
      </trkpt>
      <trkpt lat="43.12688" lon="-0.54967">
        <ele>416.098816</ele>
      </trkpt>
      <trkpt lat="43.12687" lon="-0.54986">
        <ele>415.070526</ele>
      </trkpt>
      <trkpt lat="43.1269" lon="-0.54992">
        <ele>415.339508</ele>
      </trkpt>
      <trkpt lat="43.12694" lon="-0.55023">
        <ele>414.859772</ele>
      </trkpt>
      <trkpt lat="43.12691" lon="-0.55062">
        <ele>413.882324</ele>
      </trkpt>
      <trkpt lat="43.12666" lon="-0.55089">
        <ele>408.475403</ele>
      </trkpt>
      <trkpt lat="43.12645" lon="-0.55136">
        <ele>406.936188</ele>
      </trkpt>
      <trkpt lat="43.12599" lon="-0.55203">
        <ele>403.815216</ele>
      </trkpt>
      <trkpt lat="43.12586" lon="-0.55232">
        <ele>403.485077</ele>
      </trkpt>
      <trkpt lat="43.12571" lon="-0.55288">
        <ele>402.411499</ele>
      </trkpt>
      <trkpt lat="43.12559" lon="-0.55357">
        <ele>401.920532</ele>
      </trkpt>
      <trkpt lat="43.12558" lon="-0.55412">
        <ele>403.207306</ele>
      </trkpt>
      <trkpt lat="43.1256" lon="-0.55425">
        <ele>403.847015</ele>
      </trkpt>
      <trkpt lat="43.1259" lon="-0.55506">
        <ele>407.339783</ele>
      </trkpt>
      <trkpt lat="43.12629" lon="-0.55568">
        <ele>405.036743</ele>
      </trkpt>
      <trkpt lat="43.12647" lon="-0.5562">
        <ele>402.477814</ele>
      </trkpt>
      <trkpt lat="43.12671" lon="-0.55662">
        <ele>399.397949</ele>
      </trkpt>
      <trkpt lat="43.12697" lon="-0.55692">
        <ele>396.942413</ele>
      </trkpt>
      <trkpt lat="43.12708" lon="-0.5571">
        <ele>396.823212</ele>
      </trkpt>
      <trkpt lat="43.12721" lon="-0.55742">
        <ele>398.585205</ele>
      </trkpt>
      <trkpt lat="43.1273" lon="-0.55779">
        <ele>402.456696</ele>
      </trkpt>
      <trkpt lat="43.12738" lon="-0.55788">
        <ele>403.923767</ele>
      </trkpt>
      <trkpt lat="43.12769" lon="-0.55806">
        <ele>406.906158</ele>
      </trkpt>
      <trkpt lat="43.12782" lon="-0.55827">
        <ele>409.425812</ele>
      </trkpt>
      <trkpt lat="43.12785" lon="-0.55846">
        <ele>411.036743</ele>
      </trkpt>
      <trkpt lat="43.12784" lon="-0.5587">
        <ele>413.228485</ele>
      </trkpt>
      <trkpt lat="43.12781" lon="-0.5588">
        <ele>414.268127</ele>
      </trkpt>
      <trkpt lat="43.12756" lon="-0.55927">
        <ele>418.357605</ele>
      </trkpt>
      <trkpt lat="43.12737" lon="-0.55949">
        <ele>420.213531</ele>
      </trkpt>
      <trkpt lat="43.12713" lon="-0.5597">
        <ele>421.806763</ele>
      </trkpt>
      <trkpt lat="43.12686" lon="-0.55987">
        <ele>424.443268</ele>
      </trkpt>
      <trkpt lat="43.12645" lon="-0.55992">
        <ele>425.826904</ele>
      </trkpt>
      <trkpt lat="43.12596" lon="-0.56029">
        <ele>428.440094</ele>
      </trkpt>
      <trkpt lat="43.12565" lon="-0.56064">
        <ele>429.1091</ele>
      </trkpt>
      <trkpt lat="43.12533" lon="-0.56114">
        <ele>427.719849</ele>
      </trkpt>
      <trkpt lat="43.12507" lon="-0.56146">
        <ele>423.133606</ele>
      </trkpt>
      <trkpt lat="43.12489" lon="-0.56181">
        <ele>420.834381</ele>
      </trkpt>
      <trkpt lat="43.12465" lon="-0.562">
        <ele>414.944641</ele>
      </trkpt>
      <trkpt lat="43.12447" lon="-0.56223">
        <ele>411.75824</ele>
      </trkpt>
      <trkpt lat="43.12433" lon="-0.56232">
        <ele>409.862061</ele>
      </trkpt>
      <trkpt lat="43.12416" lon="-0.56238">
        <ele>408.487732</ele>
      </trkpt>
      <trkpt lat="43.12341" lon="-0.56243">
        <ele>405.908051</ele>
      </trkpt>
      <trkpt lat="43.12306" lon="-0.56261">
        <ele>405.124908</ele>
      </trkpt>
      <trkpt lat="43.12295" lon="-0.56275">
        <ele>405.400909</ele>
      </trkpt>
      <trkpt lat="43.12285" lon="-0.56323">
        <ele>405.640015</ele>
      </trkpt>
      <trkpt lat="43.12271" lon="-0.56358">
        <ele>404.502899</ele>
      </trkpt>
      <trkpt lat="43.12269" lon="-0.56378">
        <ele>404.657501</ele>
      </trkpt>
      <trkpt lat="43.12247" lon="-0.56441">
        <ele>404.993347</ele>
      </trkpt>
      <trkpt lat="43.12218" lon="-0.56502">
        <ele>404.747803</ele>
      </trkpt>
      <trkpt lat="43.12199" lon="-0.56531">
        <ele>404.980804</ele>
      </trkpt>
      <trkpt lat="43.12191" lon="-0.56551">
        <ele>404.445251</ele>
      </trkpt>
      <trkpt lat="43.1215" lon="-0.56629">
        <ele>402.655212</ele>
      </trkpt>
      <trkpt lat="43.12135" lon="-0.56679">
        <ele>401.05957</ele>
      </trkpt>
      <trkpt lat="43.12101" lon="-0.56771">
        <ele>396.190582</ele>
      </trkpt>
      <trkpt lat="43.12066" lon="-0.56877">
        <ele>386.692352</ele>
      </trkpt>
      <trkpt lat="43.12049" lon="-0.5697">
        <ele>382.486328</ele>
      </trkpt>
      <trkpt lat="43.12038" lon="-0.57082">
        <ele>373.487885</ele>
      </trkpt>
      <trkpt lat="43.12039" lon="-0.57103">
        <ele>370.591431</ele>
      </trkpt>
      <trkpt lat="43.12046" lon="-0.57113">
        <ele>369.696289</ele>
      </trkpt>
      <trkpt lat="43.12051" lon="-0.57116">
        <ele>368.907745</ele>
      </trkpt>
      <trkpt lat="43.12081" lon="-0.57113">
        <ele>367.242126</ele>
      </trkpt>
      <trkpt lat="43.12111" lon="-0.57091">
        <ele>365.968933</ele>
      </trkpt>
      <trkpt lat="43.12117" lon="-0.57081">
        <ele>366.482056</ele>
      </trkpt>
      <trkpt lat="43.12114" lon="-0.57077">
        <ele>367.533508</ele>
      </trkpt>
      <trkpt lat="43.12134" lon="-0.57058">
        <ele>365.993805</ele>
      </trkpt>
      <trkpt lat="43.12139" lon="-0.57059">
        <ele>364.600037</ele>
      </trkpt>
      <trkpt lat="43.12142" lon="-0.57066">
        <ele>363.25351</ele>
      </trkpt>
      <trkpt lat="43.12141" lon="-0.57081">
        <ele>361.669891</ele>
      </trkpt>
      <trkpt lat="43.12116" lon="-0.57152">
        <ele>353.140656</ele>
      </trkpt>
      <trkpt lat="43.12103" lon="-0.57177">
        <ele>350.763123</ele>
      </trkpt>
      <trkpt lat="43.12085" lon="-0.57201">
        <ele>349.491882</ele>
      </trkpt>
      <trkpt lat="43.12071" lon="-0.57225">
        <ele>346.002716</ele>
      </trkpt>
      <trkpt lat="43.1205" lon="-0.57239">
        <ele>344.800598</ele>
      </trkpt>
      <trkpt lat="43.12034" lon="-0.5726">
        <ele>341.102203</ele>
      </trkpt>
      <trkpt lat="43.12012" lon="-0.57271">
        <ele>339.530609</ele>
      </trkpt>
      <trkpt lat="43.11991" lon="-0.57269">
        <ele>338.862823</ele>
      </trkpt>
      <trkpt lat="43.11979" lon="-0.57262">
        <ele>338.097748</ele>
      </trkpt>
      <trkpt lat="43.11967" lon="-0.57248">
        <ele>337.912567</ele>
      </trkpt>
      <trkpt lat="43.11939" lon="-0.57193">
        <ele>336.890015</ele>
      </trkpt>
      <trkpt lat="43.11929" lon="-0.57186">
        <ele>335.530792</ele>
      </trkpt>
      <trkpt lat="43.11922" lon="-0.57191">
        <ele>334.053955</ele>
      </trkpt>
      <trkpt lat="43.11942" lon="-0.57241">
        <ele>334.808838</ele>
      </trkpt>
      <trkpt lat="43.1196" lon="-0.57313">
        <ele>333.184448</ele>
      </trkpt>
      <trkpt lat="43.11963" lon="-0.57316">
        <ele>333.230164</ele>
      </trkpt>
      <trkpt lat="43.11986" lon="-0.57312">
        <ele>335.187439</ele>
      </trkpt>
      <trkpt lat="43.12021" lon="-0.57295">
        <ele>337.811249</ele>
      </trkpt>
      <trkpt lat="43.12055" lon="-0.57284">
        <ele>338.811829</ele>
      </trkpt>
      <trkpt lat="43.12083" lon="-0.57262">
        <ele>338.483643</ele>
      </trkpt>
      <trkpt lat="43.12114" lon="-0.5725">
        <ele>338.626221</ele>
      </trkpt>
      <trkpt lat="43.12129" lon="-0.57252">
        <ele>337.530945</ele>
      </trkpt>
      <trkpt lat="43.12139" lon="-0.57242">
        <ele>338.534729</ele>
      </trkpt>
      <trkpt lat="43.12138" lon="-0.57238">
        <ele>338.517181</ele>
      </trkpt>
      <trkpt lat="43.12145" lon="-0.57232">
        <ele>339.028656</ele>
      </trkpt>
      <trkpt lat="43.12158" lon="-0.5721">
        <ele>339.633575</ele>
      </trkpt>
      <trkpt lat="43.12159" lon="-0.57201">
        <ele>340.146332</ele>
      </trkpt>
      <trkpt lat="43.12164" lon="-0.57191">
        <ele>340.937714</ele>
      </trkpt>
      <trkpt lat="43.12193" lon="-0.5716">
        <ele>342.567993</ele>
      </trkpt>
      <trkpt lat="43.12204" lon="-0.57133">
        <ele>344.2854</ele>
      </trkpt>
      <trkpt lat="43.12234" lon="-0.571">
        <ele>345.937317</ele>
      </trkpt>
      <trkpt lat="43.12237" lon="-0.57092">
        <ele>346.180359</ele>
      </trkpt>
      <trkpt lat="43.12256" lon="-0.57069">
        <ele>348.4729</ele>
      </trkpt>
      <trkpt lat="43.12267" lon="-0.57059">
        <ele>348.973145</ele>
      </trkpt>
      <trkpt lat="43.12278" lon="-0.57055">
        <ele>351.065033</ele>
      </trkpt>
      <trkpt lat="43.12286" lon="-0.57048">
        <ele>352.584869</ele>
      </trkpt>
      <trkpt lat="43.12302" lon="-0.57013">
        <ele>355.028442</ele>
      </trkpt>
      <trkpt lat="43.12311" lon="-0.57003">
        <ele>356.378906</ele>
      </trkpt>
      <trkpt lat="43.12317" lon="-0.57002">
        <ele>357.337616</ele>
      </trkpt>
      <trkpt lat="43.12322" lon="-0.57006">
        <ele>358.696259</ele>
      </trkpt>
      <trkpt lat="43.12327" lon="-0.57064">
        <ele>363.539032</ele>
      </trkpt>
      <trkpt lat="43.12315" lon="-0.57091">
        <ele>362.430206</ele>
      </trkpt>
      <trkpt lat="43.12311" lon="-0.57115">
        <ele>362.235901</ele>
      </trkpt>
      <trkpt lat="43.12314" lon="-0.57129">
        <ele>363.46582</ele>
      </trkpt>
      <trkpt lat="43.12327" lon="-0.57147">
        <ele>366.87027</ele>
      </trkpt>
      <trkpt lat="43.12366" lon="-0.57173">
        <ele>372.978119</ele>
      </trkpt>
      <trkpt lat="43.12403" lon="-0.57185">
        <ele>377.510468</ele>
      </trkpt>
      <trkpt lat="43.12405" lon="-0.57177">
        <ele>378.541016</ele>
      </trkpt>
      <trkpt lat="43.12403" lon="-0.57173">
        <ele>378.641693</ele>
      </trkpt>
      <trkpt lat="43.12404" lon="-0.5715">
        <ele>380.758453</ele>
      </trkpt>
      <trkpt lat="43.12411" lon="-0.57153">
        <ele>381.672089</ele>
      </trkpt>
      <trkpt lat="43.12411" lon="-0.57155">
        <ele>381.450134</ele>
      </trkpt>
      <trkpt lat="43.12438" lon="-0.57179">
        <ele>382.489532</ele>
      </trkpt>
      <trkpt lat="43.12496" lon="-0.57216">
        <ele>381.306244</ele>
      </trkpt>
      <trkpt lat="43.12521" lon="-0.57225">
        <ele>380.677948</ele>
      </trkpt>
      <trkpt lat="43.12529" lon="-0.57232">
        <ele>380.523407</ele>
      </trkpt>
      <trkpt lat="43.126" lon="-0.57272">
        <ele>379.534515</ele>
      </trkpt>
      <trkpt lat="43.12605" lon="-0.5728">
        <ele>379.016846</ele>
      </trkpt>
      <trkpt lat="43.12611" lon="-0.57319">
        <ele>377.31958</ele>
      </trkpt>
      <trkpt lat="43.1263" lon="-0.57367">
        <ele>373.660248</ele>
      </trkpt>
      <trkpt lat="43.12639" lon="-0.5738">
        <ele>372.626221</ele>
      </trkpt>
      <trkpt lat="43.12677" lon="-0.57399">
        <ele>370.92923</ele>
      </trkpt>
      <trkpt lat="43.1273" lon="-0.57418">
        <ele>375.613586</ele>
      </trkpt>
      <trkpt lat="43.12782" lon="-0.57448">
        <ele>385.146149</ele>
      </trkpt>
      <trkpt lat="43.12798" lon="-0.5745">
        <ele>387.672638</ele>
      </trkpt>
      <trkpt lat="43.12815" lon="-0.57447">
        <ele>389.114136</ele>
      </trkpt>
      <trkpt lat="43.12821" lon="-0.57453">
        <ele>390.398438</ele>
      </trkpt>
      <trkpt lat="43.1282" lon="-0.57466">
        <ele>391.688324</ele>
      </trkpt>
      <trkpt lat="43.12806" lon="-0.57504">
        <ele>393.517487</ele>
      </trkpt>
      <trkpt lat="43.12793" lon="-0.57606">
        <ele>396.653015</ele>
      </trkpt>
      <trkpt lat="43.1276" lon="-0.57752">
        <ele>385.588318</ele>
      </trkpt>
      <trkpt lat="43.12754" lon="-0.57791">
        <ele>384.630463</ele>
      </trkpt>
      <trkpt lat="43.12744" lon="-0.57895">
        <ele>384.729126</ele>
      </trkpt>
      <trkpt lat="43.12746" lon="-0.57954">
        <ele>383.384338</ele>
      </trkpt>
      <trkpt lat="43.1276" lon="-0.58015">
        <ele>378.34079</ele>
      </trkpt>
      <trkpt lat="43.1276" lon="-0.58035">
        <ele>376.410034</ele>
      </trkpt>
      <trkpt lat="43.12748" lon="-0.58095">
        <ele>370.932617</ele>
      </trkpt>
      <trkpt lat="43.12748" lon="-0.58112">
        <ele>369.399231</ele>
      </trkpt>
      <trkpt lat="43.12756" lon="-0.58135">
        <ele>366.592041</ele>
      </trkpt>
      <trkpt lat="43.12767" lon="-0.58146">
        <ele>364.500854</ele>
      </trkpt>
      <trkpt lat="43.1278" lon="-0.58142">
        <ele>363.531769</ele>
      </trkpt>
      <trkpt lat="43.12787" lon="-0.58134">
        <ele>363.208679</ele>
      </trkpt>
      <trkpt lat="43.12796" lon="-0.58113">
        <ele>363.778717</ele>
      </trkpt>
      <trkpt lat="43.12816" lon="-0.58045">
        <ele>367.230011</ele>
      </trkpt>
      <trkpt lat="43.12832" lon="-0.58013">
        <ele>367.950562</ele>
      </trkpt>
      <trkpt lat="43.12881" lon="-0.57953">
        <ele>364.841919</ele>
      </trkpt>
      <trkpt lat="43.129" lon="-0.57937">
        <ele>363.04483</ele>
      </trkpt>
      <trkpt lat="43.12951" lon="-0.57907">
        <ele>356.153748</ele>
      </trkpt>
      <trkpt lat="43.12966" lon="-0.57906">
        <ele>353.195587</ele>
      </trkpt>
      <trkpt lat="43.12982" lon="-0.57917">
        <ele>349.310547</ele>
      </trkpt>
      <trkpt lat="43.13028" lon="-0.57979">
        <ele>342.895599</ele>
      </trkpt>
      <trkpt lat="43.13075" lon="-0.58046">
        <ele>337.613586</ele>
      </trkpt>
      <trkpt lat="43.13081" lon="-0.58048">
        <ele>337.420013</ele>
      </trkpt>
      <trkpt lat="43.13099" lon="-0.5804">
        <ele>336.864288</ele>
      </trkpt>
      <trkpt lat="43.13118" lon="-0.58047">
        <ele>335.902008</ele>
      </trkpt>
      <trkpt lat="43.13164" lon="-0.58082">
        <ele>335.203339</ele>
      </trkpt>
      <trkpt lat="43.13228" lon="-0.58133">
        <ele>341.046265</ele>
      </trkpt>
      <trkpt lat="43.13261" lon="-0.58181">
        <ele>342.686859</ele>
      </trkpt>
      <trkpt lat="43.13277" lon="-0.58223">
        <ele>342.601563</ele>
      </trkpt>
      <trkpt lat="43.1329" lon="-0.58269">
        <ele>340.373932</ele>
      </trkpt>
      <trkpt lat="43.13306" lon="-0.58305">
        <ele>339.554077</ele>
      </trkpt>
      <trkpt lat="43.13317" lon="-0.58317">
        <ele>338.471466</ele>
      </trkpt>
      <trkpt lat="43.13329" lon="-0.58324">
        <ele>336.710236</ele>
      </trkpt>
      <trkpt lat="43.13372" lon="-0.58329">
        <ele>331.044312</ele>
      </trkpt>
      <trkpt lat="43.13495" lon="-0.58362">
        <ele>326.038879</ele>
      </trkpt>
      <trkpt lat="43.13525" lon="-0.58377">
        <ele>323.987335</ele>
      </trkpt>
      <trkpt lat="43.13584" lon="-0.58398">
        <ele>315.784088</ele>
      </trkpt>
      <trkpt lat="43.13601" lon="-0.584">
        <ele>313.503906</ele>
      </trkpt>
      <trkpt lat="43.13611" lon="-0.58395">
        <ele>312.582611</ele>
      </trkpt>
      <trkpt lat="43.1362" lon="-0.58379">
        <ele>311.837494</ele>
      </trkpt>
      <trkpt lat="43.13631" lon="-0.58372">
        <ele>310.381653</ele>
      </trkpt>
      <trkpt lat="43.13647" lon="-0.58396">
        <ele>308.33786</ele>
      </trkpt>
      <trkpt lat="43.13693" lon="-0.58392">
        <ele>304.472504</ele>
      </trkpt>
      <trkpt lat="43.13701" lon="-0.58387">
        <ele>304.087494</ele>
      </trkpt>
      <trkpt lat="43.13712" lon="-0.58371">
        <ele>303.329987</ele>
      </trkpt>
      <trkpt lat="43.13727" lon="-0.58363">
        <ele>302.666077</ele>
      </trkpt>
      <trkpt lat="43.13878" lon="-0.58331">
        <ele>297.897491</ele>
      </trkpt>
      <trkpt lat="43.13884" lon="-0.58335">
        <ele>297.963745</ele>
      </trkpt>
      <trkpt lat="43.13889" lon="-0.58343">
        <ele>297.981018</ele>
      </trkpt>
      <trkpt lat="43.13891" lon="-0.58355">
        <ele>297.958588</ele>
      </trkpt>
      <trkpt lat="43.13889" lon="-0.58379">
        <ele>297.888428</ele>
      </trkpt>
      <trkpt lat="43.13895" lon="-0.58403">
        <ele>297.763947</ele>
      </trkpt>
      <trkpt lat="43.13903" lon="-0.58421">
        <ele>297.156189</ele>
      </trkpt>
      <trkpt lat="43.1393" lon="-0.58456">
        <ele>295.490753</ele>
      </trkpt>
      <trkpt lat="43.1397" lon="-0.58523">
        <ele>286.039215</ele>
      </trkpt>
      <trkpt lat="43.14023" lon="-0.58589">
        <ele>274.688446</ele>
      </trkpt>
      <trkpt lat="43.14039" lon="-0.58623">
        <ele>270.244232</ele>
      </trkpt>
      <trkpt lat="43.14051" lon="-0.58639">
        <ele>269.087585</ele>
      </trkpt>
      <trkpt lat="43.14086" lon="-0.5866">
        <ele>271.305573</ele>
      </trkpt>
      <trkpt lat="43.14104" lon="-0.58665">
        <ele>272.809723</ele>
      </trkpt>
      <trkpt lat="43.1412" lon="-0.58666">
        <ele>274.066559</ele>
      </trkpt>
      <trkpt lat="43.14153" lon="-0.58658">
        <ele>275.887726</ele>
      </trkpt>
      <trkpt lat="43.14196" lon="-0.58658">
        <ele>276.268768</ele>
      </trkpt>
      <trkpt lat="43.14236" lon="-0.58646">
        <ele>277.78064</ele>
      </trkpt>
      <trkpt lat="43.14268" lon="-0.58644">
        <ele>277.245148</ele>
      </trkpt>
      <trkpt lat="43.14397" lon="-0.58578">
        <ele>277.202545</ele>
      </trkpt>
      <trkpt lat="43.14438" lon="-0.5853">
        <ele>281.129944</ele>
      </trkpt>
      <trkpt lat="43.14518" lon="-0.5846">
        <ele>280.476563</ele>
      </trkpt>
      <trkpt lat="43.14542" lon="-0.58446">
        <ele>279.596375</ele>
      </trkpt>
      <trkpt lat="43.14617" lon="-0.58414">
        <ele>278.574493</ele>
      </trkpt>
      <trkpt lat="43.14655" lon="-0.58401">
        <ele>277.165009</ele>
      </trkpt>
      <trkpt lat="43.14728" lon="-0.5835">
        <ele>277.467499</ele>
      </trkpt>
      <trkpt lat="43.14764" lon="-0.58302">
        <ele>281.551147</ele>
      </trkpt>
      <trkpt lat="43.14767" lon="-0.5829">
        <ele>283.08847</ele>
      </trkpt>
      <trkpt lat="43.14769" lon="-0.58257">
        <ele>287.671783</ele>
      </trkpt>
      <trkpt lat="43.14777" lon="-0.58244">
        <ele>289.319977</ele>
      </trkpt>
      <trkpt lat="43.14807" lon="-0.58233">
        <ele>289.33902</ele>
      </trkpt>
      <trkpt lat="43.14821" lon="-0.58218">
        <ele>291.925995</ele>
      </trkpt>
      <trkpt lat="43.14832" lon="-0.58187">
        <ele>296.640839</ele>
      </trkpt>
      <trkpt lat="43.1484" lon="-0.58174">
        <ele>298.343353</ele>
      </trkpt>
      <trkpt lat="43.14908" lon="-0.58106">
        <ele>307.352509</ele>
      </trkpt>
      <trkpt lat="43.14926" lon="-0.58094">
        <ele>309.392487</ele>
      </trkpt>
      <trkpt lat="43.14938" lon="-0.58094">
        <ele>310.012512</ele>
      </trkpt>
      <trkpt lat="43.14949" lon="-0.58099">
        <ele>309.826172</ele>
      </trkpt>
      <trkpt lat="43.1496" lon="-0.58111">
        <ele>309.189789</ele>
      </trkpt>
      <trkpt lat="43.14992" lon="-0.5816">
        <ele>306.467224</ele>
      </trkpt>
      <trkpt lat="43.15019" lon="-0.58221">
        <ele>305.803711</ele>
      </trkpt>
      <trkpt lat="43.15079" lon="-0.58313">
        <ele>305.496338</ele>
      </trkpt>
      <trkpt lat="43.15098" lon="-0.58329">
        <ele>305.822662</ele>
      </trkpt>
      <trkpt lat="43.15169" lon="-0.58345">
        <ele>305.07196</ele>
      </trkpt>
      <trkpt lat="43.15268" lon="-0.58377">
        <ele>304.5</ele>
      </trkpt>
      <trkpt lat="43.15415" lon="-0.58445">
        <ele>304.926758</ele>
      </trkpt>
      <trkpt lat="43.15461" lon="-0.58471">
        <ele>305.747345</ele>
      </trkpt>
      <trkpt lat="43.15478" lon="-0.58474">
        <ele>306.222504</ele>
      </trkpt>
      <trkpt lat="43.15497" lon="-0.58473">
        <ele>306.649994</ele>
      </trkpt>
      <trkpt lat="43.15566" lon="-0.58451">
        <ele>307.192719</ele>
      </trkpt>
      <trkpt lat="43.15646" lon="-0.58456">
        <ele>306.050323</ele>
      </trkpt>
      <trkpt lat="43.15706" lon="-0.58465">
        <ele>303.352905</ele>
      </trkpt>
      <trkpt lat="43.15732" lon="-0.58461">
        <ele>302.388062</ele>
      </trkpt>
      <trkpt lat="43.15746" lon="-0.58452">
        <ele>302.012512</ele>
      </trkpt>
      <trkpt lat="43.15786" lon="-0.58396">
        <ele>302.449982</ele>
      </trkpt>
      <trkpt lat="43.15798" lon="-0.58386">
        <ele>302.832489</ele>
      </trkpt>
      <trkpt lat="43.15827" lon="-0.58384">
        <ele>302.462494</ele>
      </trkpt>
      <trkpt lat="43.15858" lon="-0.58396">
        <ele>304.609192</ele>
      </trkpt>
      <trkpt lat="43.15975" lon="-0.58462">
        <ele>320.566254</ele>
      </trkpt>
      <trkpt lat="43.15999" lon="-0.58482">
        <ele>320.789337</ele>
      </trkpt>
      <trkpt lat="43.16009" lon="-0.58498">
        <ele>320.877472</ele>
      </trkpt>
      <trkpt lat="43.16022" lon="-0.58529">
        <ele>319.763184</ele>
      </trkpt>
      <trkpt lat="43.16042" lon="-0.58552">
        <ele>320.74762</ele>
      </trkpt>
      <trkpt lat="43.16056" lon="-0.58551">
        <ele>320.64386</ele>
      </trkpt>
      <trkpt lat="43.16065" lon="-0.58557">
        <ele>319.688416</ele>
      </trkpt>
      <trkpt lat="43.16088" lon="-0.58558">
        <ele>316.823486</ele>
      </trkpt>
      <trkpt lat="43.16134" lon="-0.58536">
        <ele>308.964935</ele>
      </trkpt>
      <trkpt lat="43.16134" lon="-0.58541">
        <ele>308.629395</ele>
      </trkpt>
      <trkpt lat="43.16143" lon="-0.58531">
        <ele>308.399811</ele>
      </trkpt>
      <trkpt lat="43.16159" lon="-0.58538">
        <ele>306.777557</ele>
      </trkpt>
      <trkpt lat="43.16176" lon="-0.58553">
        <ele>303.716888</ele>
      </trkpt>
      <trkpt lat="43.16191" lon="-0.58559">
        <ele>302.300293</ele>
      </trkpt>
      <trkpt lat="43.16236" lon="-0.5861">
        <ele>293.339447</ele>
      </trkpt>
      <trkpt lat="43.16268" lon="-0.58629">
        <ele>291.470398</ele>
      </trkpt>
      <trkpt lat="43.16288" lon="-0.58647">
        <ele>290.720001</ele>
      </trkpt>
      <trkpt lat="43.16371" lon="-0.58684">
        <ele>292.291473</ele>
      </trkpt>
      <trkpt lat="43.16418" lon="-0.58696">
        <ele>289.872223</ele>
      </trkpt>
      <trkpt lat="43.16481" lon="-0.58692">
        <ele>286.730011</ele>
      </trkpt>
      <trkpt lat="43.16507" lon="-0.58702">
        <ele>282.019806</ele>
      </trkpt>
      <trkpt lat="43.16517" lon="-0.58702">
        <ele>280.711426</ele>
      </trkpt>
      <trkpt lat="43.16539" lon="-0.58718">
        <ele>275.054443</ele>
      </trkpt>
      <trkpt lat="43.16551" lon="-0.58721">
        <ele>272.45517</ele>
      </trkpt>
      <trkpt lat="43.16566" lon="-0.58718">
        <ele>270.505432</ele>
      </trkpt>
      <trkpt lat="43.16615" lon="-0.58681">
        <ele>266.407501</ele>
      </trkpt>
      <trkpt lat="43.16651" lon="-0.58674">
        <ele>265.306885</ele>
      </trkpt>
      <trkpt lat="43.16662" lon="-0.58676">
        <ele>265.249146</ele>
      </trkpt>
      <trkpt lat="43.16712" lon="-0.58722">
        <ele>263.178864</ele>
      </trkpt>
      <trkpt lat="43.16727" lon="-0.58729">
        <ele>263.692047</ele>
      </trkpt>
      <trkpt lat="43.1679" lon="-0.58741">
        <ele>270.281525</ele>
      </trkpt>
      <trkpt lat="43.16817" lon="-0.58758">
        <ele>271.739136</ele>
      </trkpt>
      <trkpt lat="43.1684" lon="-0.58785">
        <ele>272.737518</ele>
      </trkpt>
      <trkpt lat="43.16871" lon="-0.58831">
        <ele>273.228241</ele>
      </trkpt>
      <trkpt lat="43.16914" lon="-0.58879">
        <ele>277.902496</ele>
      </trkpt>
      <trkpt lat="43.16922" lon="-0.58884">
        <ele>279.588745</ele>
      </trkpt>
      <trkpt lat="43.16974" lon="-0.58951">
        <ele>282.658386</ele>
      </trkpt>
      <trkpt lat="43.17004" lon="-0.58979">
        <ele>284.557495</ele>
      </trkpt>
      <trkpt lat="43.17046" lon="-0.59007">
        <ele>287.392822</ele>
      </trkpt>
      <trkpt lat="43.1709" lon="-0.59048">
        <ele>290.267883</ele>
      </trkpt>
      <trkpt lat="43.17101" lon="-0.59068">
        <ele>290.124542</ele>
      </trkpt>
      <trkpt lat="43.17122" lon="-0.59089">
        <ele>292.190186</ele>
      </trkpt>
      <trkpt lat="43.17133" lon="-0.5909">
        <ele>292.657501</ele>
      </trkpt>
      <trkpt lat="43.17147" lon="-0.59076">
        <ele>291.57077</ele>
      </trkpt>
      <trkpt lat="43.17179" lon="-0.59079">
        <ele>290.065094</ele>
      </trkpt>
      <trkpt lat="43.17212" lon="-0.59071">
        <ele>285.3013</ele>
      </trkpt>
      <trkpt lat="43.17237" lon="-0.59081">
        <ele>284.814758</ele>
      </trkpt>
      <trkpt lat="43.17244" lon="-0.59086">
        <ele>285.11853</ele>
      </trkpt>
      <trkpt lat="43.17277" lon="-0.59135">
        <ele>286.251251</ele>
      </trkpt>
      <trkpt lat="43.17305" lon="-0.59166">
        <ele>284.299622</ele>
      </trkpt>
      <trkpt lat="43.17313" lon="-0.59183">
        <ele>284.257996</ele>
      </trkpt>
      <trkpt lat="43.17326" lon="-0.59264">
        <ele>283.198547</ele>
      </trkpt>
      <trkpt lat="43.17334" lon="-0.59283">
        <ele>282.838898</ele>
      </trkpt>
      <trkpt lat="43.17351" lon="-0.59309">
        <ele>282.820496</ele>
      </trkpt>
      <trkpt lat="43.17365" lon="-0.59321">
        <ele>283.044403</ele>
      </trkpt>
      <trkpt lat="43.17381" lon="-0.59327">
        <ele>282.064087</ele>
      </trkpt>
      <trkpt lat="43.17419" lon="-0.59325">
        <ele>276.529236</ele>
      </trkpt>
      <trkpt lat="43.17432" lon="-0.59328">
        <ele>275.357391</ele>
      </trkpt>
      <trkpt lat="43.17483" lon="-0.59359">
        <ele>274.150757</ele>
      </trkpt>
      <trkpt lat="43.17501" lon="-0.59379">
        <ele>274.778748</ele>
      </trkpt>
      <trkpt lat="43.1756" lon="-0.59467">
        <ele>274.483734</ele>
      </trkpt>
      <trkpt lat="43.17582" lon="-0.59496">
        <ele>273.81189</ele>
      </trkpt>
      <trkpt lat="43.17603" lon="-0.59515">
        <ele>272.70694</ele>
      </trkpt>
      <trkpt lat="43.17624" lon="-0.59528">
        <ele>271.328247</ele>
      </trkpt>
      <trkpt lat="43.17732" lon="-0.59582">
        <ele>265.770508</ele>
      </trkpt>
      <trkpt lat="43.17756" lon="-0.59599">
        <ele>264.534088</ele>
      </trkpt>
      <trkpt lat="43.17816" lon="-0.59667">
        <ele>265.727417</ele>
      </trkpt>
      <trkpt lat="43.17844" lon="-0.59688">
        <ele>268.032166</ele>
      </trkpt>
      <trkpt lat="43.17876" lon="-0.59706">
        <ele>271.207489</ele>
      </trkpt>
      <trkpt lat="43.17906" lon="-0.59733">
        <ele>274.044647</ele>
      </trkpt>
      <trkpt lat="43.17926" lon="-0.59746">
        <ele>276.039032</ele>
      </trkpt>
      <trkpt lat="43.17926" lon="-0.59754">
        <ele>276.308868</ele>
      </trkpt>
      <trkpt lat="43.17925" lon="-0.59752">
        <ele>276.068268</ele>
      </trkpt>
    </trkseg>
  </trk>
  <trk>
    <name><![CDATA[Tracé actuel: 02 NOV 2014 16:05]]></name>
    <trkseg>
      <trkpt lat="43.19171" lon="-0.21115">
        <ele>253.44</ele>
        <time>2014-11-02T15:05:04Z</time>
      </trkpt>
      <trkpt lat="43.19171" lon="-0.21115">
        <ele>253.44</ele>
        <time>2014-11-02T15:05:05Z</time>
      </trkpt>
      <trkpt lat="43.19165" lon="-0.21119">
        <ele>252</ele>
        <time>2014-11-02T15:05:28Z</time>
      </trkpt>
      <trkpt lat="43.19166" lon="-0.21119">
        <ele>253.44</ele>
        <time>2014-11-02T15:05:42Z</time>
      </trkpt>
      <trkpt lat="43.19166" lon="-0.2112">
        <ele>253.44</ele>
        <time>2014-11-02T15:05:51Z</time>
      </trkpt>
      <trkpt lat="43.19166" lon="-0.21119">
        <ele>253.44</ele>
        <time>2014-11-02T15:05:53Z</time>
      </trkpt>
      <trkpt lat="43.19168" lon="-0.21123">
        <ele>253.44</ele>
        <time>2014-11-02T15:06:03Z</time>
      </trkpt>
      <trkpt lat="43.1917" lon="-0.21121">
        <ele>253.44</ele>
        <time>2014-11-02T15:06:13Z</time>
      </trkpt>
      <trkpt lat="43.19158" lon="-0.2112">
        <ele>253.93</ele>
        <time>2014-11-02T15:06:21Z</time>
      </trkpt>
      <trkpt lat="43.19156" lon="-0.21126">
        <ele>252.96</ele>
        <time>2014-11-02T15:06:22Z</time>
      </trkpt>
      <trkpt lat="43.19156" lon="-0.21132">
        <ele>252.96</ele>
        <time>2014-11-02T15:06:23Z</time>
      </trkpt>
      <trkpt lat="43.19155" lon="-0.21138">
        <ele>253.44</ele>
        <time>2014-11-02T15:06:24Z</time>
      </trkpt>
      <trkpt lat="43.19156" lon="-0.21144">
        <ele>253.93</ele>
        <time>2014-11-02T15:06:25Z</time>
      </trkpt>
      <trkpt lat="43.19156" lon="-0.21149">
        <ele>253.44</ele>
        <time>2014-11-02T15:06:26Z</time>
      </trkpt>
      <trkpt lat="43.19158" lon="-0.21153">
        <ele>253.44</ele>
        <time>2014-11-02T15:06:27Z</time>
      </trkpt>
      <trkpt lat="43.19161" lon="-0.21156">
        <ele>253.44</ele>
        <time>2014-11-02T15:06:28Z</time>
      </trkpt>
      <trkpt lat="43.19165" lon="-0.21158">
        <ele>253.93</ele>
        <time>2014-11-02T15:06:29Z</time>
      </trkpt>
      <trkpt lat="43.1917" lon="-0.21159">
        <ele>253.93</ele>
        <time>2014-11-02T15:06:30Z</time>
      </trkpt>
      <trkpt lat="43.19174" lon="-0.2116">
        <ele>253.44</ele>
        <time>2014-11-02T15:06:31Z</time>
      </trkpt>
      <trkpt lat="43.19187" lon="-0.21162">
        <ele>253.93</ele>
        <time>2014-11-02T15:06:34Z</time>
      </trkpt>
      <trkpt lat="43.1921" lon="-0.21171">
        <ele>252.96</ele>
        <time>2014-11-02T15:06:39Z</time>
      </trkpt>
      <trkpt lat="43.19214" lon="-0.21173">
        <ele>253.44</ele>
        <time>2014-11-02T15:06:40Z</time>
      </trkpt>
      <trkpt lat="43.19218" lon="-0.21175">
        <ele>252.96</ele>
        <time>2014-11-02T15:06:41Z</time>
      </trkpt>
      <trkpt lat="43.19226" lon="-0.2118">
        <ele>253.44</ele>
        <time>2014-11-02T15:06:43Z</time>
      </trkpt>
      <trkpt lat="43.19272" lon="-0.21218">
        <ele>252.48</ele>
        <time>2014-11-02T15:06:53Z</time>
      </trkpt>
      <trkpt lat="43.19277" lon="-0.21222">
        <ele>252.96</ele>
        <time>2014-11-02T15:06:54Z</time>
      </trkpt>
      <trkpt lat="43.19281" lon="-0.21227">
        <ele>252.48</ele>
        <time>2014-11-02T15:06:55Z</time>
      </trkpt>
      <trkpt lat="43.19336" lon="-0.21303">
        <ele>251.52</ele>
        <time>2014-11-02T15:07:09Z</time>
      </trkpt>
      <trkpt lat="43.1934" lon="-0.21308">
        <ele>251.52</ele>
        <time>2014-11-02T15:07:10Z</time>
      </trkpt>
      <trkpt lat="43.19345" lon="-0.21313">
        <ele>251.04</ele>
        <time>2014-11-02T15:07:11Z</time>
      </trkpt>
      <trkpt lat="43.19349" lon="-0.21316">
        <ele>251.52</ele>
        <time>2014-11-02T15:07:12Z</time>
      </trkpt>
      <trkpt lat="43.19355" lon="-0.21319">
        <ele>251.04</ele>
        <time>2014-11-02T15:07:13Z</time>
      </trkpt>
      <trkpt lat="43.1936" lon="-0.21321">
        <ele>251.04</ele>
        <time>2014-11-02T15:07:14Z</time>
      </trkpt>
      <trkpt lat="43.19366" lon="-0.21323">
        <ele>251.52</ele>
        <time>2014-11-02T15:07:15Z</time>
      </trkpt>
      <trkpt lat="43.19442" lon="-0.2133">
        <ele>251.04</ele>
        <time>2014-11-02T15:07:30Z</time>
      </trkpt>
      <trkpt lat="43.19451" lon="-0.21328">
        <ele>251.52</ele>
        <time>2014-11-02T15:07:32Z</time>
      </trkpt>
      <trkpt lat="43.19455" lon="-0.21326">
        <ele>252</ele>
        <time>2014-11-02T15:07:33Z</time>
      </trkpt>
      <trkpt lat="43.19459" lon="-0.21323">
        <ele>252</ele>
        <time>2014-11-02T15:07:34Z</time>
      </trkpt>
      <trkpt lat="43.19463" lon="-0.2132">
        <ele>251.52</ele>
        <time>2014-11-02T15:07:35Z</time>
      </trkpt>
      <trkpt lat="43.19467" lon="-0.21316">
        <ele>251.52</ele>
        <time>2014-11-02T15:07:36Z</time>
      </trkpt>
      <trkpt lat="43.19471" lon="-0.21311">
        <ele>252</ele>
        <time>2014-11-02T15:07:37Z</time>
      </trkpt>
      <trkpt lat="43.19474" lon="-0.21306">
        <ele>252</ele>
        <time>2014-11-02T15:07:38Z</time>
      </trkpt>
      <trkpt lat="43.19492" lon="-0.21277">
        <ele>251.52</ele>
        <time>2014-11-02T15:07:43Z</time>
      </trkpt>
      <trkpt lat="43.19498" lon="-0.21264">
        <ele>251.52</ele>
        <time>2014-11-02T15:07:45Z</time>
      </trkpt>
      <trkpt lat="43.19503" lon="-0.21251">
        <ele>252</ele>
        <time>2014-11-02T15:07:47Z</time>
      </trkpt>
      <trkpt lat="43.19504" lon="-0.21244">
        <ele>251.52</ele>
        <time>2014-11-02T15:07:48Z</time>
      </trkpt>
      <trkpt lat="43.19521" lon="-0.21131">
        <ele>252.48</ele>
        <time>2014-11-02T15:08:05Z</time>
      </trkpt>
      <trkpt lat="43.19522" lon="-0.21125">
        <ele>252.48</ele>
        <time>2014-11-02T15:08:06Z</time>
      </trkpt>
      <trkpt lat="43.19523" lon="-0.21117">
        <ele>252</ele>
        <time>2014-11-02T15:08:07Z</time>
      </trkpt>
      <trkpt lat="43.19524" lon="-0.2111">
        <ele>252.48</ele>
        <time>2014-11-02T15:08:08Z</time>
      </trkpt>
      <trkpt lat="43.19525" lon="-0.21103">
        <ele>252</ele>
        <time>2014-11-02T15:08:09Z</time>
      </trkpt>
      <trkpt lat="43.19531" lon="-0.21055">
        <ele>251.52</ele>
        <time>2014-11-02T15:08:16Z</time>
      </trkpt>
      <trkpt lat="43.19532" lon="-0.21048">
        <ele>251.04</ele>
        <time>2014-11-02T15:08:17Z</time>
      </trkpt>
      <trkpt lat="43.19532" lon="-0.21041">
        <ele>251.04</ele>
        <time>2014-11-02T15:08:18Z</time>
      </trkpt>
      <trkpt lat="43.19534" lon="-0.21035">
        <ele>251.04</ele>
        <time>2014-11-02T15:08:19Z</time>
      </trkpt>
      <trkpt lat="43.19535" lon="-0.21028">
        <ele>251.04</ele>
        <time>2014-11-02T15:08:20Z</time>
      </trkpt>
      <trkpt lat="43.19544" lon="-0.21">
        <ele>251.04</ele>
        <time>2014-11-02T15:08:25Z</time>
      </trkpt>
      <trkpt lat="43.19549" lon="-0.20988">
        <ele>251.04</ele>
        <time>2014-11-02T15:08:27Z</time>
      </trkpt>
      <trkpt lat="43.19551" lon="-0.20982">
        <ele>251.52</ele>
        <time>2014-11-02T15:08:28Z</time>
      </trkpt>
      <trkpt lat="43.19553" lon="-0.20976">
        <ele>251.04</ele>
        <time>2014-11-02T15:08:29Z</time>
      </trkpt>
      <trkpt lat="43.19589" lon="-0.20882">
        <ele>251.52</ele>
        <time>2014-11-02T15:08:45Z</time>
      </trkpt>
      <trkpt lat="43.19622" lon="-0.20788">
        <ele>252.48</ele>
        <time>2014-11-02T15:09:01Z</time>
      </trkpt>
      <trkpt lat="43.19654" lon="-0.20698">
        <ele>252.48</ele>
        <time>2014-11-02T15:09:17Z</time>
      </trkpt>
      <trkpt lat="43.1969" lon="-0.20603">
        <ele>252.96</ele>
        <time>2014-11-02T15:09:34Z</time>
      </trkpt>
      <trkpt lat="43.19722" lon="-0.20519">
        <ele>254.41</ele>
        <time>2014-11-02T15:09:49Z</time>
      </trkpt>
      <trkpt lat="43.19731" lon="-0.20498">
        <ele>254.41</ele>
        <time>2014-11-02T15:09:53Z</time>
      </trkpt>
      <trkpt lat="43.19734" lon="-0.20493">
        <ele>254.41</ele>
        <time>2014-11-02T15:09:54Z</time>
      </trkpt>
      <trkpt lat="43.19746" lon="-0.20476">
        <ele>254.89</ele>
        <time>2014-11-02T15:09:58Z</time>
      </trkpt>
      <trkpt lat="43.1975" lon="-0.20473">
        <ele>255.37</ele>
        <time>2014-11-02T15:09:59Z</time>
      </trkpt>
      <trkpt lat="43.19753" lon="-0.2047">
        <ele>255.37</ele>
        <time>2014-11-02T15:10:00Z</time>
      </trkpt>
      <trkpt lat="43.19767" lon="-0.20457">
        <ele>255.37</ele>
        <time>2014-11-02T15:10:04Z</time>
      </trkpt>
      <trkpt lat="43.19771" lon="-0.20454">
        <ele>255.37</ele>
        <time>2014-11-02T15:10:05Z</time>
      </trkpt>
      <trkpt lat="43.19808" lon="-0.20398">
        <ele>255.85</ele>
        <time>2014-11-02T15:10:17Z</time>
      </trkpt>
      <trkpt lat="43.19823" lon="-0.20343">
        <ele>256.81</ele>
        <time>2014-11-02T15:10:26Z</time>
      </trkpt>
      <trkpt lat="43.19827" lon="-0.20331">
        <ele>257.29</ele>
        <time>2014-11-02T15:10:28Z</time>
      </trkpt>
      <trkpt lat="43.1983" lon="-0.20326">
        <ele>257.29</ele>
        <time>2014-11-02T15:10:29Z</time>
      </trkpt>
      <trkpt lat="43.19833" lon="-0.20321">
        <ele>257.29</ele>
        <time>2014-11-02T15:10:30Z</time>
      </trkpt>
      <trkpt lat="43.19837" lon="-0.20317">
        <ele>257.77</ele>
        <time>2014-11-02T15:10:31Z</time>
      </trkpt>
      <trkpt lat="43.1984" lon="-0.20314">
        <ele>257.77</ele>
        <time>2014-11-02T15:10:32Z</time>
      </trkpt>
      <trkpt lat="43.19844" lon="-0.20311">
        <ele>257.77</ele>
        <time>2014-11-02T15:10:33Z</time>
      </trkpt>
      <trkpt lat="43.19856" lon="-0.20301">
        <ele>257.77</ele>
        <time>2014-11-02T15:10:36Z</time>
      </trkpt>
      <trkpt lat="43.19859" lon="-0.20298">
        <ele>257.77</ele>
        <time>2014-11-02T15:10:37Z</time>
      </trkpt>
      <trkpt lat="43.19863" lon="-0.20294">
        <ele>257.77</ele>
        <time>2014-11-02T15:10:38Z</time>
      </trkpt>
      <trkpt lat="43.19868" lon="-0.20292">
        <ele>257.77</ele>
        <time>2014-11-02T15:10:39Z</time>
      </trkpt>
      <trkpt lat="43.19872" lon="-0.2029">
        <ele>257.77</ele>
        <time>2014-11-02T15:10:40Z</time>
      </trkpt>
      <trkpt lat="43.19876" lon="-0.20288">
        <ele>258.25</ele>
        <time>2014-11-02T15:10:41Z</time>
      </trkpt>
      <trkpt lat="43.19881" lon="-0.20287">
        <ele>257.77</ele>
        <time>2014-11-02T15:10:42Z</time>
      </trkpt>
      <trkpt lat="43.19894" lon="-0.20285">
        <ele>257.77</ele>
        <time>2014-11-02T15:10:45Z</time>
      </trkpt>
      <trkpt lat="43.19916" lon="-0.20287">
        <ele>258.25</ele>
        <time>2014-11-02T15:10:50Z</time>
      </trkpt>
      <trkpt lat="43.1992" lon="-0.20287">
        <ele>258.25</ele>
        <time>2014-11-02T15:10:51Z</time>
      </trkpt>
      <trkpt lat="43.19924" lon="-0.20287">
        <ele>258.25</ele>
        <time>2014-11-02T15:10:52Z</time>
      </trkpt>
      <trkpt lat="43.19982" lon="-0.20277">
        <ele>258.25</ele>
        <time>2014-11-02T15:11:05Z</time>
      </trkpt>
      <trkpt lat="43.19986" lon="-0.20275">
        <ele>258.25</ele>
        <time>2014-11-02T15:11:06Z</time>
      </trkpt>
      <trkpt lat="43.1999" lon="-0.20271">
        <ele>258.25</ele>
        <time>2014-11-02T15:11:07Z</time>
      </trkpt>
      <trkpt lat="43.19994" lon="-0.20267">
        <ele>258.25</ele>
        <time>2014-11-02T15:11:08Z</time>
      </trkpt>
      <trkpt lat="43.19997" lon="-0.20263">
        <ele>258.25</ele>
        <time>2014-11-02T15:11:09Z</time>
      </trkpt>
      <trkpt lat="43.2" lon="-0.20259">
        <ele>258.25</ele>
        <time>2014-11-02T15:11:10Z</time>
      </trkpt>
      <trkpt lat="43.20003" lon="-0.20254">
        <ele>258.73</ele>
        <time>2014-11-02T15:11:11Z</time>
      </trkpt>
      <trkpt lat="43.20006" lon="-0.20249">
        <ele>258.25</ele>
        <time>2014-11-02T15:11:12Z</time>
      </trkpt>
      <trkpt lat="43.20052" lon="-0.20175">
        <ele>259.69</ele>
        <time>2014-11-02T15:11:28Z</time>
      </trkpt>
      <trkpt lat="43.20082" lon="-0.20114">
        <ele>261.14</ele>
        <time>2014-11-02T15:11:42Z</time>
      </trkpt>
      <trkpt lat="43.20072" lon="-0.20045">
        <ele>262.58</ele>
        <time>2014-11-02T15:11:56Z</time>
      </trkpt>
      <trkpt lat="43.20046" lon="-0.19956">
        <ele>264.98</ele>
        <time>2014-11-02T15:12:14Z</time>
      </trkpt>
      <trkpt lat="43.20026" lon="-0.19882">
        <ele>267.86</ele>
        <time>2014-11-02T15:12:29Z</time>
      </trkpt>
      <trkpt lat="43.20016" lon="-0.19834">
        <ele>269.31</ele>
        <time>2014-11-02T15:12:40Z</time>
      </trkpt>
      <trkpt lat="43.20006" lon="-0.19777">
        <ele>271.71</ele>
        <time>2014-11-02T15:12:52Z</time>
      </trkpt>
      <trkpt lat="43.19999" lon="-0.19733">
        <ele>272.67</ele>
        <time>2014-11-02T15:13:00Z</time>
      </trkpt>
      <trkpt lat="43.19998" lon="-0.19727">
        <ele>273.15</ele>
        <time>2014-11-02T15:13:01Z</time>
      </trkpt>
      <trkpt lat="43.19986" lon="-0.19681">
        <ele>274.11</ele>
        <time>2014-11-02T15:13:10Z</time>
      </trkpt>
      <trkpt lat="43.19965" lon="-0.19622">
        <ele>274.59</ele>
        <time>2014-11-02T15:13:21Z</time>
      </trkpt>
      <trkpt lat="43.19956" lon="-0.19588">
        <ele>275.56</ele>
        <time>2014-11-02T15:13:27Z</time>
      </trkpt>
      <trkpt lat="43.19954" lon="-0.19582">
        <ele>275.56</ele>
        <time>2014-11-02T15:13:28Z</time>
      </trkpt>
      <trkpt lat="43.19953" lon="-0.19577">
        <ele>275.56</ele>
        <time>2014-11-02T15:13:29Z</time>
      </trkpt>
      <trkpt lat="43.19951" lon="-0.19572">
        <ele>275.56</ele>
        <time>2014-11-02T15:13:30Z</time>
      </trkpt>
      <trkpt lat="43.19949" lon="-0.19567">
        <ele>275.56</ele>
        <time>2014-11-02T15:13:31Z</time>
      </trkpt>
      <trkpt lat="43.19934" lon="-0.19518">
        <ele>277</ele>
        <time>2014-11-02T15:13:42Z</time>
      </trkpt>
      <trkpt lat="43.1992" lon="-0.19468">
        <ele>277</ele>
        <time>2014-11-02T15:13:53Z</time>
      </trkpt>
      <trkpt lat="43.19916" lon="-0.19416">
        <ele>277</ele>
        <time>2014-11-02T15:14:03Z</time>
      </trkpt>
      <trkpt lat="43.19917" lon="-0.1941">
        <ele>277.48</ele>
        <time>2014-11-02T15:14:04Z</time>
      </trkpt>
      <trkpt lat="43.19912" lon="-0.19353">
        <ele>277.96</ele>
        <time>2014-11-02T15:14:15Z</time>
      </trkpt>
      <trkpt lat="43.19908" lon="-0.19314">
        <ele>279.4</ele>
        <time>2014-11-02T15:14:25Z</time>
      </trkpt>
      <trkpt lat="43.19896" lon="-0.19284">
        <ele>282.28</ele>
        <time>2014-11-02T15:14:37Z</time>
      </trkpt>
      <trkpt lat="43.19885" lon="-0.19238">
        <ele>282.77</ele>
        <time>2014-11-02T15:14:48Z</time>
      </trkpt>
      <trkpt lat="43.19877" lon="-0.19193">
        <ele>283.73</ele>
        <time>2014-11-02T15:14:59Z</time>
      </trkpt>
      <trkpt lat="43.19854" lon="-0.19137">
        <ele>283.73</ele>
        <time>2014-11-02T15:15:10Z</time>
      </trkpt>
      <trkpt lat="43.19837" lon="-0.19111">
        <ele>283.73</ele>
        <time>2014-11-02T15:15:17Z</time>
      </trkpt>
      <trkpt lat="43.19836" lon="-0.19108">
        <ele>283.73</ele>
        <time>2014-11-02T15:15:18Z</time>
      </trkpt>
      <trkpt lat="43.19833" lon="-0.19104">
        <ele>284.21</ele>
        <time>2014-11-02T15:15:19Z</time>
      </trkpt>
      <trkpt lat="43.19831" lon="-0.191">
        <ele>284.21</ele>
        <time>2014-11-02T15:15:20Z</time>
      </trkpt>
      <trkpt lat="43.19828" lon="-0.19097">
        <ele>284.21</ele>
        <time>2014-11-02T15:15:21Z</time>
      </trkpt>
      <trkpt lat="43.19806" lon="-0.19066">
        <ele>284.69</ele>
        <time>2014-11-02T15:15:29Z</time>
      </trkpt>
      <trkpt lat="43.19805" lon="-0.19061">
        <ele>284.69</ele>
        <time>2014-11-02T15:15:30Z</time>
      </trkpt>
      <trkpt lat="43.19803" lon="-0.19057">
        <ele>285.17</ele>
        <time>2014-11-02T15:15:31Z</time>
      </trkpt>
      <trkpt lat="43.19801" lon="-0.19054">
        <ele>285.17</ele>
        <time>2014-11-02T15:15:32Z</time>
      </trkpt>
      <trkpt lat="43.19799" lon="-0.19051">
        <ele>285.17</ele>
        <time>2014-11-02T15:15:33Z</time>
      </trkpt>
      <trkpt lat="43.19797" lon="-0.19048">
        <ele>285.17</ele>
        <time>2014-11-02T15:15:34Z</time>
      </trkpt>
      <trkpt lat="43.19772" lon="-0.19008">
        <ele>285.65</ele>
        <time>2014-11-02T15:15:44Z</time>
      </trkpt>
      <trkpt lat="43.19747" lon="-0.18968">
        <ele>286.61</ele>
        <time>2014-11-02T15:15:54Z</time>
      </trkpt>
      <trkpt lat="43.19725" lon="-0.18944">
        <ele>288.05</ele>
        <time>2014-11-02T15:16:03Z</time>
      </trkpt>
      <trkpt lat="43.19704" lon="-0.18925">
        <ele>289.01</ele>
        <time>2014-11-02T15:16:11Z</time>
      </trkpt>
      <trkpt lat="43.19679" lon="-0.18911">
        <ele>288.05</ele>
        <time>2014-11-02T15:16:17Z</time>
      </trkpt>
      <trkpt lat="43.19661" lon="-0.189">
        <ele>287.09</ele>
        <time>2014-11-02T15:16:21Z</time>
      </trkpt>
      <trkpt lat="43.19657" lon="-0.18896">
        <ele>287.57</ele>
        <time>2014-11-02T15:16:22Z</time>
      </trkpt>
      <trkpt lat="43.19623" lon="-0.18877">
        <ele>288.53</ele>
        <time>2014-11-02T15:16:32Z</time>
      </trkpt>
      <trkpt lat="43.19603" lon="-0.18873">
        <ele>289.97</ele>
        <time>2014-11-02T15:16:39Z</time>
      </trkpt>
      <trkpt lat="43.19597" lon="-0.18872">
        <ele>290.46</ele>
        <time>2014-11-02T15:16:42Z</time>
      </trkpt>
      <trkpt lat="43.19593" lon="-0.18871">
        <ele>290.94</ele>
        <time>2014-11-02T15:16:43Z</time>
      </trkpt>
      <trkpt lat="43.1959" lon="-0.1887">
        <ele>290.94</ele>
        <time>2014-11-02T15:16:44Z</time>
      </trkpt>
      <trkpt lat="43.19587" lon="-0.18869">
        <ele>290.94</ele>
        <time>2014-11-02T15:16:45Z</time>
      </trkpt>
      <trkpt lat="43.19585" lon="-0.18868">
        <ele>291.9</ele>
        <time>2014-11-02T15:16:46Z</time>
      </trkpt>
      <trkpt lat="43.19582" lon="-0.18868">
        <ele>291.42</ele>
        <time>2014-11-02T15:16:47Z</time>
      </trkpt>
      <trkpt lat="43.19548" lon="-0.18853">
        <ele>293.82</ele>
        <time>2014-11-02T15:16:59Z</time>
      </trkpt>
      <trkpt lat="43.19517" lon="-0.1884">
        <ele>296.7</ele>
        <time>2014-11-02T15:17:10Z</time>
      </trkpt>
      <trkpt lat="43.19496" lon="-0.18837">
        <ele>298.63</ele>
        <time>2014-11-02T15:17:20Z</time>
      </trkpt>
      <trkpt lat="43.19477" lon="-0.18832">
        <ele>301.51</ele>
        <time>2014-11-02T15:17:32Z</time>
      </trkpt>
      <trkpt lat="43.19456" lon="-0.18831">
        <ele>303.91</ele>
        <time>2014-11-02T15:17:44Z</time>
      </trkpt>
      <trkpt lat="43.19453" lon="-0.18831">
        <ele>303.91</ele>
        <time>2014-11-02T15:17:46Z</time>
      </trkpt>
      <trkpt lat="43.19452" lon="-0.18831">
        <ele>303.91</ele>
        <time>2014-11-02T15:17:47Z</time>
      </trkpt>
      <trkpt lat="43.19423" lon="-0.18847">
        <ele>306.32</ele>
        <time>2014-11-02T15:18:00Z</time>
      </trkpt>
      <trkpt lat="43.19422" lon="-0.18848">
        <ele>306.8</ele>
        <time>2014-11-02T15:18:01Z</time>
      </trkpt>
      <trkpt lat="43.1942" lon="-0.18848">
        <ele>306.8</ele>
        <time>2014-11-02T15:18:02Z</time>
      </trkpt>
      <trkpt lat="43.19404" lon="-0.18854">
        <ele>309.2</ele>
        <time>2014-11-02T15:18:13Z</time>
      </trkpt>
      <trkpt lat="43.19391" lon="-0.1886">
        <ele>310.16</ele>
        <time>2014-11-02T15:18:20Z</time>
      </trkpt>
      <trkpt lat="43.1939" lon="-0.1886">
        <ele>310.16</ele>
        <time>2014-11-02T15:18:21Z</time>
      </trkpt>
      <trkpt lat="43.19388" lon="-0.18861">
        <ele>310.64</ele>
        <time>2014-11-02T15:18:22Z</time>
      </trkpt>
      <trkpt lat="43.19364" lon="-0.18868">
        <ele>313.53</ele>
        <time>2014-11-02T15:18:36Z</time>
      </trkpt>
      <trkpt lat="43.19348" lon="-0.18874">
        <ele>315.93</ele>
        <time>2014-11-02T15:18:50Z</time>
      </trkpt>
      <trkpt lat="43.19346" lon="-0.18876">
        <ele>316.41</ele>
        <time>2014-11-02T15:18:52Z</time>
      </trkpt>
      <trkpt lat="43.19343" lon="-0.18876">
        <ele>316.41</ele>
        <time>2014-11-02T15:18:53Z</time>
      </trkpt>
      <trkpt lat="43.19337" lon="-0.18878">
        <ele>317.37</ele>
        <time>2014-11-02T15:18:56Z</time>
      </trkpt>
      <trkpt lat="43.19334" lon="-0.18877">
        <ele>317.85</ele>
        <time>2014-11-02T15:18:57Z</time>
      </trkpt>
      <trkpt lat="43.19332" lon="-0.18878">
        <ele>317.85</ele>
        <time>2014-11-02T15:18:58Z</time>
      </trkpt>
      <trkpt lat="43.19327" lon="-0.18879">
        <ele>318.33</ele>
        <time>2014-11-02T15:19:02Z</time>
      </trkpt>
      <trkpt lat="43.19325" lon="-0.1888">
        <ele>318.81</ele>
        <time>2014-11-02T15:19:03Z</time>
      </trkpt>
      <trkpt lat="43.19313" lon="-0.18887">
        <ele>320.26</ele>
        <time>2014-11-02T15:19:13Z</time>
      </trkpt>
      <trkpt lat="43.19302" lon="-0.18889">
        <ele>322.66</ele>
        <time>2014-11-02T15:19:25Z</time>
      </trkpt>
      <trkpt lat="43.19296" lon="-0.18891">
        <ele>323.14</ele>
        <time>2014-11-02T15:19:29Z</time>
      </trkpt>
      <trkpt lat="43.19295" lon="-0.18892">
        <ele>323.62</ele>
        <time>2014-11-02T15:19:30Z</time>
      </trkpt>
      <trkpt lat="43.19293" lon="-0.18894">
        <ele>323.62</ele>
        <time>2014-11-02T15:19:31Z</time>
      </trkpt>
      <trkpt lat="43.19292" lon="-0.18895">
        <ele>324.1</ele>
        <time>2014-11-02T15:19:32Z</time>
      </trkpt>
      <trkpt lat="43.1929" lon="-0.18896">
        <ele>324.1</ele>
        <time>2014-11-02T15:19:33Z</time>
      </trkpt>
      <trkpt lat="43.19289" lon="-0.18897">
        <ele>324.58</ele>
        <time>2014-11-02T15:19:34Z</time>
      </trkpt>
      <trkpt lat="43.19286" lon="-0.18898">
        <ele>325.06</ele>
        <time>2014-11-02T15:19:35Z</time>
      </trkpt>
      <trkpt lat="43.19283" lon="-0.18899">
        <ele>324.58</ele>
        <time>2014-11-02T15:19:36Z</time>
      </trkpt>
      <trkpt lat="43.19281" lon="-0.18901">
        <ele>325.06</ele>
        <time>2014-11-02T15:19:37Z</time>
      </trkpt>
      <trkpt lat="43.19279" lon="-0.18902">
        <ele>325.06</ele>
        <time>2014-11-02T15:19:38Z</time>
      </trkpt>
      <trkpt lat="43.19256" lon="-0.18916">
        <ele>327.47</ele>
        <time>2014-11-02T15:19:49Z</time>
      </trkpt>
      <trkpt lat="43.19235" lon="-0.18941">
        <ele>329.39</ele>
        <time>2014-11-02T15:20:02Z</time>
      </trkpt>
      <trkpt lat="43.1923" lon="-0.18948">
        <ele>330.35</ele>
        <time>2014-11-02T15:20:06Z</time>
      </trkpt>
      <trkpt lat="43.19228" lon="-0.18951">
        <ele>330.35</ele>
        <time>2014-11-02T15:20:07Z</time>
      </trkpt>
      <trkpt lat="43.19226" lon="-0.18954">
        <ele>330.35</ele>
        <time>2014-11-02T15:20:08Z</time>
      </trkpt>
      <trkpt lat="43.19219" lon="-0.18962">
        <ele>331.31</ele>
        <time>2014-11-02T15:20:12Z</time>
      </trkpt>
      <trkpt lat="43.19218" lon="-0.18962">
        <ele>331.31</ele>
        <time>2014-11-02T15:20:13Z</time>
      </trkpt>
      <trkpt lat="43.19214" lon="-0.1896">
        <ele>332.27</ele>
        <time>2014-11-02T15:20:18Z</time>
      </trkpt>
      <trkpt lat="43.19204" lon="-0.18953">
        <ele>333.71</ele>
        <time>2014-11-02T15:20:25Z</time>
      </trkpt>
      <trkpt lat="43.19195" lon="-0.18953">
        <ele>335.16</ele>
        <time>2014-11-02T15:20:30Z</time>
      </trkpt>
      <trkpt lat="43.19173" lon="-0.18971">
        <ele>337.56</ele>
        <time>2014-11-02T15:20:43Z</time>
      </trkpt>
      <trkpt lat="43.19173" lon="-0.1899">
        <ele>338.52</ele>
        <time>2014-11-02T15:20:51Z</time>
      </trkpt>
      <trkpt lat="43.19173" lon="-0.19004">
        <ele>339</ele>
        <time>2014-11-02T15:20:55Z</time>
      </trkpt>
      <trkpt lat="43.19182" lon="-0.19042">
        <ele>340.92</ele>
        <time>2014-11-02T15:21:08Z</time>
      </trkpt>
      <trkpt lat="43.19189" lon="-0.19082">
        <ele>343.33</ele>
        <time>2014-11-02T15:21:23Z</time>
      </trkpt>
      <trkpt lat="43.19187" lon="-0.19088">
        <ele>343.81</ele>
        <time>2014-11-02T15:21:26Z</time>
      </trkpt>
      <trkpt lat="43.19186" lon="-0.19093">
        <ele>344.77</ele>
        <time>2014-11-02T15:21:30Z</time>
      </trkpt>
      <trkpt lat="43.19176" lon="-0.19103">
        <ele>346.21</ele>
        <time>2014-11-02T15:21:39Z</time>
      </trkpt>
      <trkpt lat="43.1916" lon="-0.1913">
        <ele>348.62</ele>
        <time>2014-11-02T15:21:52Z</time>
      </trkpt>
      <trkpt lat="43.19142" lon="-0.19167">
        <ele>351.02</ele>
        <time>2014-11-02T15:22:08Z</time>
      </trkpt>
      <trkpt lat="43.19139" lon="-0.19172">
        <ele>351.5</ele>
        <time>2014-11-02T15:22:11Z</time>
      </trkpt>
      <trkpt lat="43.19116" lon="-0.1918">
        <ele>353.42</ele>
        <time>2014-11-02T15:22:23Z</time>
      </trkpt>
      <trkpt lat="43.19107" lon="-0.19182">
        <ele>353.9</ele>
        <time>2014-11-02T15:22:28Z</time>
      </trkpt>
      <trkpt lat="43.19094" lon="-0.19176">
        <ele>355.34</ele>
        <time>2014-11-02T15:22:37Z</time>
      </trkpt>
      <trkpt lat="43.19075" lon="-0.19171">
        <ele>358.23</ele>
        <time>2014-11-02T15:22:49Z</time>
      </trkpt>
      <trkpt lat="43.1905" lon="-0.19172">
        <ele>360.63</ele>
        <time>2014-11-02T15:23:03Z</time>
      </trkpt>
      <trkpt lat="43.19036" lon="-0.19177">
        <ele>362.07</ele>
        <time>2014-11-02T15:23:15Z</time>
      </trkpt>
      <trkpt lat="43.1901" lon="-0.19186">
        <ele>364.48</ele>
        <time>2014-11-02T15:23:29Z</time>
      </trkpt>
      <trkpt lat="43.18993" lon="-0.19192">
        <ele>366.4</ele>
        <time>2014-11-02T15:23:38Z</time>
      </trkpt>
      <trkpt lat="43.18968" lon="-0.19192">
        <ele>368.32</ele>
        <time>2014-11-02T15:23:50Z</time>
      </trkpt>
      <trkpt lat="43.18948" lon="-0.19176">
        <ele>368.8</ele>
        <time>2014-11-02T15:24:03Z</time>
      </trkpt>
      <trkpt lat="43.18928" lon="-0.19171">
        <ele>368.8</ele>
        <time>2014-11-02T15:24:15Z</time>
      </trkpt>
      <trkpt lat="43.18923" lon="-0.1916">
        <ele>368.32</ele>
        <time>2014-11-02T15:24:26Z</time>
      </trkpt>
      <trkpt lat="43.18923" lon="-0.19159">
        <ele>368.8</ele>
        <time>2014-11-02T15:24:28Z</time>
      </trkpt>
      <trkpt lat="43.18914" lon="-0.19151">
        <ele>369.28</ele>
        <time>2014-11-02T15:24:37Z</time>
      </trkpt>
      <trkpt lat="43.1891" lon="-0.1915">
        <ele>370.24</ele>
        <time>2014-11-02T15:24:44Z</time>
      </trkpt>
      <trkpt lat="43.18908" lon="-0.19155">
        <ele>369.76</ele>
        <time>2014-11-02T15:24:45Z</time>
      </trkpt>
      <trkpt lat="43.18912" lon="-0.19177">
        <ele>370.24</ele>
        <time>2014-11-02T15:24:55Z</time>
      </trkpt>
      <trkpt lat="43.1891" lon="-0.19182">
        <ele>369.76</ele>
        <time>2014-11-02T15:24:56Z</time>
      </trkpt>
      <trkpt lat="43.18909" lon="-0.19187">
        <ele>367.84</ele>
        <time>2014-11-02T15:24:57Z</time>
      </trkpt>
      <trkpt lat="43.18908" lon="-0.19192">
        <ele>368.32</ele>
        <time>2014-11-02T15:24:58Z</time>
      </trkpt>
      <trkpt lat="43.18907" lon="-0.19203">
        <ele>367.84</ele>
        <time>2014-11-02T15:25:00Z</time>
      </trkpt>
      <trkpt lat="43.18907" lon="-0.19209">
        <ele>366.88</ele>
        <time>2014-11-02T15:25:01Z</time>
      </trkpt>
      <trkpt lat="43.18907" lon="-0.19216">
        <ele>367.36</ele>
        <time>2014-11-02T15:25:02Z</time>
      </trkpt>
      <trkpt lat="43.18909" lon="-0.19221">
        <ele>367.36</ele>
        <time>2014-11-02T15:25:03Z</time>
      </trkpt>
      <trkpt lat="43.1891" lon="-0.19226">
        <ele>367.36</ele>
        <time>2014-11-02T15:25:04Z</time>
      </trkpt>
      <trkpt lat="43.1893" lon="-0.1928">
        <ele>369.76</ele>
        <time>2014-11-02T15:25:15Z</time>
      </trkpt>
      <trkpt lat="43.1894" lon="-0.19332">
        <ele>370.73</ele>
        <time>2014-11-02T15:25:26Z</time>
      </trkpt>
      <trkpt lat="43.18942" lon="-0.1935">
        <ele>370.73</ele>
        <time>2014-11-02T15:25:29Z</time>
      </trkpt>
      <trkpt lat="43.18943" lon="-0.19356">
        <ele>371.21</ele>
        <time>2014-11-02T15:25:30Z</time>
      </trkpt>
      <trkpt lat="43.18949" lon="-0.19393">
        <ele>369.76</ele>
        <time>2014-11-02T15:25:38Z</time>
      </trkpt>
      <trkpt lat="43.18963" lon="-0.1945">
        <ele>364.96</ele>
        <time>2014-11-02T15:25:48Z</time>
      </trkpt>
      <trkpt lat="43.18964" lon="-0.19458">
        <ele>364.96</ele>
        <time>2014-11-02T15:25:49Z</time>
      </trkpt>
      <trkpt lat="43.18967" lon="-0.19487">
        <ele>363.52</ele>
        <time>2014-11-02T15:25:52Z</time>
      </trkpt>
      <trkpt lat="43.18974" lon="-0.19524">
        <ele>361.11</ele>
        <time>2014-11-02T15:25:55Z</time>
      </trkpt>
      <trkpt lat="43.18975" lon="-0.19537">
        <ele>359.67</ele>
        <time>2014-11-02T15:25:56Z</time>
      </trkpt>
      <trkpt lat="43.18975" lon="-0.19551">
        <ele>359.67</ele>
        <time>2014-11-02T15:25:57Z</time>
      </trkpt>
      <trkpt lat="43.18974" lon="-0.19563">
        <ele>358.71</ele>
        <time>2014-11-02T15:25:58Z</time>
      </trkpt>
      <trkpt lat="43.18972" lon="-0.19574">
        <ele>357.27</ele>
        <time>2014-11-02T15:25:59Z</time>
      </trkpt>
      <trkpt lat="43.1897" lon="-0.19585">
        <ele>356.79</ele>
        <time>2014-11-02T15:26:00Z</time>
      </trkpt>
      <trkpt lat="43.18969" lon="-0.19597">
        <ele>355.83</ele>
        <time>2014-11-02T15:26:01Z</time>
      </trkpt>
      <trkpt lat="43.18968" lon="-0.19608">
        <ele>354.38</ele>
        <time>2014-11-02T15:26:02Z</time>
      </trkpt>
      <trkpt lat="43.18968" lon="-0.19616">
        <ele>353.42</ele>
        <time>2014-11-02T15:26:03Z</time>
      </trkpt>
      <trkpt lat="43.18968" lon="-0.19642">
        <ele>350.06</ele>
        <time>2014-11-02T15:26:07Z</time>
      </trkpt>
      <trkpt lat="43.18971" lon="-0.19665">
        <ele>347.65</ele>
        <time>2014-11-02T15:26:10Z</time>
      </trkpt>
      <trkpt lat="43.18973" lon="-0.19673">
        <ele>346.21</ele>
        <time>2014-11-02T15:26:11Z</time>
      </trkpt>
      <trkpt lat="43.18975" lon="-0.19681">
        <ele>344.77</ele>
        <time>2014-11-02T15:26:12Z</time>
      </trkpt>
      <trkpt lat="43.18979" lon="-0.19688">
        <ele>344.29</ele>
        <time>2014-11-02T15:26:13Z</time>
      </trkpt>
      <trkpt lat="43.18983" lon="-0.19694">
        <ele>342.85</ele>
        <time>2014-11-02T15:26:14Z</time>
      </trkpt>
      <trkpt lat="43.18987" lon="-0.197">
        <ele>341.41</ele>
        <time>2014-11-02T15:26:15Z</time>
      </trkpt>
      <trkpt lat="43.18991" lon="-0.19706">
        <ele>339.96</ele>
        <time>2014-11-02T15:26:16Z</time>
      </trkpt>
      <trkpt lat="43.18994" lon="-0.19711">
        <ele>338.04</ele>
        <time>2014-11-02T15:26:17Z</time>
      </trkpt>
      <trkpt lat="43.18996" lon="-0.19717">
        <ele>337.56</ele>
        <time>2014-11-02T15:26:18Z</time>
      </trkpt>
      <trkpt lat="43.18998" lon="-0.19722">
        <ele>336.6</ele>
        <time>2014-11-02T15:26:19Z</time>
      </trkpt>
      <trkpt lat="43.18999" lon="-0.19728">
        <ele>336.6</ele>
        <time>2014-11-02T15:26:20Z</time>
      </trkpt>
      <trkpt lat="43.18999" lon="-0.19737">
        <ele>335.64</ele>
        <time>2014-11-02T15:26:21Z</time>
      </trkpt>
      <trkpt lat="43.18999" lon="-0.19745">
        <ele>334.68</ele>
        <time>2014-11-02T15:26:22Z</time>
      </trkpt>
      <trkpt lat="43.18998" lon="-0.19752">
        <ele>332.75</ele>
        <time>2014-11-02T15:26:23Z</time>
      </trkpt>
      <trkpt lat="43.18997" lon="-0.19759">
        <ele>331.79</ele>
        <time>2014-11-02T15:26:24Z</time>
      </trkpt>
      <trkpt lat="43.18996" lon="-0.19766">
        <ele>330.35</ele>
        <time>2014-11-02T15:26:25Z</time>
      </trkpt>
      <trkpt lat="43.18994" lon="-0.19774">
        <ele>329.87</ele>
        <time>2014-11-02T15:26:26Z</time>
      </trkpt>
      <trkpt lat="43.18993" lon="-0.19783">
        <ele>329.39</ele>
        <time>2014-11-02T15:26:27Z</time>
      </trkpt>
      <trkpt lat="43.18988" lon="-0.19806">
        <ele>325.54</ele>
        <time>2014-11-02T15:26:30Z</time>
      </trkpt>
      <trkpt lat="43.18987" lon="-0.19813">
        <ele>325.06</ele>
        <time>2014-11-02T15:26:32Z</time>
      </trkpt>
      <trkpt lat="43.18985" lon="-0.1982">
        <ele>324.1</ele>
        <time>2014-11-02T15:26:34Z</time>
      </trkpt>
      <trkpt lat="43.18985" lon="-0.19823">
        <ele>324.1</ele>
        <time>2014-11-02T15:26:35Z</time>
      </trkpt>
      <trkpt lat="43.18983" lon="-0.19825">
        <ele>323.14</ele>
        <time>2014-11-02T15:26:36Z</time>
      </trkpt>
      <trkpt lat="43.1898" lon="-0.19827">
        <ele>322.66</ele>
        <time>2014-11-02T15:26:37Z</time>
      </trkpt>
      <trkpt lat="43.18976" lon="-0.19829">
        <ele>322.66</ele>
        <time>2014-11-02T15:26:38Z</time>
      </trkpt>
      <trkpt lat="43.1897" lon="-0.19831">
        <ele>322.18</ele>
        <time>2014-11-02T15:26:40Z</time>
      </trkpt>
      <trkpt lat="43.18968" lon="-0.19831">
        <ele>321.22</ele>
        <time>2014-11-02T15:26:41Z</time>
      </trkpt>
      <trkpt lat="43.18938" lon="-0.19808">
        <ele>317.85</ele>
        <time>2014-11-02T15:26:48Z</time>
      </trkpt>
      <trkpt lat="43.18932" lon="-0.19803">
        <ele>317.37</ele>
        <time>2014-11-02T15:26:49Z</time>
      </trkpt>
      <trkpt lat="43.18926" lon="-0.19798">
        <ele>316.41</ele>
        <time>2014-11-02T15:26:50Z</time>
      </trkpt>
      <trkpt lat="43.18906" lon="-0.19785">
        <ele>312.57</ele>
        <time>2014-11-02T15:26:54Z</time>
      </trkpt>
      <trkpt lat="43.18894" lon="-0.19782">
        <ele>311.6</ele>
        <time>2014-11-02T15:26:56Z</time>
      </trkpt>
      <trkpt lat="43.18888" lon="-0.19778">
        <ele>310.64</ele>
        <time>2014-11-02T15:26:57Z</time>
      </trkpt>
      <trkpt lat="43.18882" lon="-0.19772">
        <ele>309.68</ele>
        <time>2014-11-02T15:26:58Z</time>
      </trkpt>
      <trkpt lat="43.18878" lon="-0.19763">
        <ele>309.2</ele>
        <time>2014-11-02T15:26:59Z</time>
      </trkpt>
      <trkpt lat="43.18874" lon="-0.19755">
        <ele>307.76</ele>
        <time>2014-11-02T15:27:00Z</time>
      </trkpt>
      <trkpt lat="43.1887" lon="-0.1975">
        <ele>307.28</ele>
        <time>2014-11-02T15:27:01Z</time>
      </trkpt>
      <trkpt lat="43.18864" lon="-0.19746">
        <ele>306.8</ele>
        <time>2014-11-02T15:27:02Z</time>
      </trkpt>
      <trkpt lat="43.18858" lon="-0.19744">
        <ele>306.32</ele>
        <time>2014-11-02T15:27:03Z</time>
      </trkpt>
      <trkpt lat="43.18853" lon="-0.19742">
        <ele>304.39</ele>
        <time>2014-11-02T15:27:04Z</time>
      </trkpt>
      <trkpt lat="43.18837" lon="-0.19737">
        <ele>301.03</ele>
        <time>2014-11-02T15:27:08Z</time>
      </trkpt>
      <trkpt lat="43.18829" lon="-0.19737">
        <ele>300.07</ele>
        <time>2014-11-02T15:27:11Z</time>
      </trkpt>
      <trkpt lat="43.18824" lon="-0.19743">
        <ele>299.11</ele>
        <time>2014-11-02T15:27:13Z</time>
      </trkpt>
      <trkpt lat="43.18821" lon="-0.19749">
        <ele>298.15</ele>
        <time>2014-11-02T15:27:14Z</time>
      </trkpt>
      <trkpt lat="43.18819" lon="-0.19755">
        <ele>297.67</ele>
        <time>2014-11-02T15:27:15Z</time>
      </trkpt>
      <trkpt lat="43.18817" lon="-0.19762">
        <ele>296.22</ele>
        <time>2014-11-02T15:27:16Z</time>
      </trkpt>
      <trkpt lat="43.18816" lon="-0.19768">
        <ele>294.78</ele>
        <time>2014-11-02T15:27:17Z</time>
      </trkpt>
      <trkpt lat="43.18814" lon="-0.19771">
        <ele>294.78</ele>
        <time>2014-11-02T15:27:18Z</time>
      </trkpt>
      <trkpt lat="43.18811" lon="-0.19774">
        <ele>293.82</ele>
        <time>2014-11-02T15:27:19Z</time>
      </trkpt>
      <trkpt lat="43.18808" lon="-0.19775">
        <ele>292.86</ele>
        <time>2014-11-02T15:27:20Z</time>
      </trkpt>
      <trkpt lat="43.18802" lon="-0.19778">
        <ele>292.38</ele>
        <time>2014-11-02T15:27:22Z</time>
      </trkpt>
      <trkpt lat="43.18792" lon="-0.19792">
        <ele>289.01</ele>
        <time>2014-11-02T15:27:26Z</time>
      </trkpt>
      <trkpt lat="43.18787" lon="-0.19799">
        <ele>287.09</ele>
        <time>2014-11-02T15:27:28Z</time>
      </trkpt>
      <trkpt lat="43.18779" lon="-0.19803">
        <ele>284.69</ele>
        <time>2014-11-02T15:27:31Z</time>
      </trkpt>
      <trkpt lat="43.18777" lon="-0.19805">
        <ele>283.73</ele>
        <time>2014-11-02T15:27:32Z</time>
      </trkpt>
      <trkpt lat="43.18775" lon="-0.19807">
        <ele>283.73</ele>
        <time>2014-11-02T15:27:33Z</time>
      </trkpt>
      <trkpt lat="43.18759" lon="-0.19836">
        <ele>281.32</ele>
        <time>2014-11-02T15:27:41Z</time>
      </trkpt>
      <trkpt lat="43.18751" lon="-0.19854">
        <ele>279.88</ele>
        <time>2014-11-02T15:27:44Z</time>
      </trkpt>
      <trkpt lat="43.18748" lon="-0.19859">
        <ele>279.4</ele>
        <time>2014-11-02T15:27:45Z</time>
      </trkpt>
      <trkpt lat="43.18743" lon="-0.1987">
        <ele>278.92</ele>
        <time>2014-11-02T15:27:47Z</time>
      </trkpt>
      <trkpt lat="43.18737" lon="-0.19876">
        <ele>277.96</ele>
        <time>2014-11-02T15:27:49Z</time>
      </trkpt>
      <trkpt lat="43.18718" lon="-0.19909">
        <ele>278.44</ele>
        <time>2014-11-02T15:28:01Z</time>
      </trkpt>
      <trkpt lat="43.18697" lon="-0.19956">
        <ele>278.44</ele>
        <time>2014-11-02T15:28:13Z</time>
      </trkpt>
      <trkpt lat="43.18667" lon="-0.20016">
        <ele>279.4</ele>
        <time>2014-11-02T15:28:29Z</time>
      </trkpt>
      <trkpt lat="43.18622" lon="-0.20019">
        <ele>280.84</ele>
        <time>2014-11-02T15:28:43Z</time>
      </trkpt>
      <trkpt lat="43.18566" lon="-0.20023">
        <ele>283.25</ele>
        <time>2014-11-02T15:29:00Z</time>
      </trkpt>
      <trkpt lat="43.18521" lon="-0.20029">
        <ele>287.09</ele>
        <time>2014-11-02T15:29:14Z</time>
      </trkpt>
      <trkpt lat="43.18494" lon="-0.20046">
        <ele>289.97</ele>
        <time>2014-11-02T15:29:27Z</time>
      </trkpt>
      <trkpt lat="43.18492" lon="-0.2007">
        <ele>291.42</ele>
        <time>2014-11-02T15:29:36Z</time>
      </trkpt>
      <trkpt lat="43.18491" lon="-0.20072">
        <ele>291.9</ele>
        <time>2014-11-02T15:29:37Z</time>
      </trkpt>
      <trkpt lat="43.1849" lon="-0.20073">
        <ele>291.9</ele>
        <time>2014-11-02T15:29:38Z</time>
      </trkpt>
      <trkpt lat="43.18488" lon="-0.20072">
        <ele>291.9</ele>
        <time>2014-11-02T15:29:39Z</time>
      </trkpt>
      <trkpt lat="43.18486" lon="-0.2007">
        <ele>291.9</ele>
        <time>2014-11-02T15:29:40Z</time>
      </trkpt>
      <trkpt lat="43.18484" lon="-0.20068">
        <ele>292.38</ele>
        <time>2014-11-02T15:29:41Z</time>
      </trkpt>
      <trkpt lat="43.18483" lon="-0.20065">
        <ele>292.38</ele>
        <time>2014-11-02T15:29:42Z</time>
      </trkpt>
      <trkpt lat="43.18481" lon="-0.20062">
        <ele>291.9</ele>
        <time>2014-11-02T15:29:43Z</time>
      </trkpt>
      <trkpt lat="43.1848" lon="-0.20058">
        <ele>292.38</ele>
        <time>2014-11-02T15:29:44Z</time>
      </trkpt>
      <trkpt lat="43.18465" lon="-0.20011">
        <ele>293.34</ele>
        <time>2014-11-02T15:29:58Z</time>
      </trkpt>
      <trkpt lat="43.18451" lon="-0.19957">
        <ele>294.3</ele>
        <time>2014-11-02T15:30:11Z</time>
      </trkpt>
      <trkpt lat="43.18437" lon="-0.19905">
        <ele>290.94</ele>
        <time>2014-11-02T15:30:20Z</time>
      </trkpt>
      <trkpt lat="43.18434" lon="-0.199">
        <ele>292.38</ele>
        <time>2014-11-02T15:30:21Z</time>
      </trkpt>
      <trkpt lat="43.18431" lon="-0.19896">
        <ele>292.38</ele>
        <time>2014-11-02T15:30:22Z</time>
      </trkpt>
      <trkpt lat="43.18429" lon="-0.19891">
        <ele>292.38</ele>
        <time>2014-11-02T15:30:23Z</time>
      </trkpt>
      <trkpt lat="43.18427" lon="-0.19887">
        <ele>292.38</ele>
        <time>2014-11-02T15:30:24Z</time>
      </trkpt>
      <trkpt lat="43.18426" lon="-0.19884">
        <ele>292.38</ele>
        <time>2014-11-02T15:30:25Z</time>
      </trkpt>
      <trkpt lat="43.18425" lon="-0.1988">
        <ele>292.38</ele>
        <time>2014-11-02T15:30:26Z</time>
      </trkpt>
      <trkpt lat="43.18405" lon="-0.19847">
        <ele>292.86</ele>
        <time>2014-11-02T15:30:39Z</time>
      </trkpt>
      <trkpt lat="43.184" lon="-0.19842">
        <ele>293.34</ele>
        <time>2014-11-02T15:30:43Z</time>
      </trkpt>
      <trkpt lat="43.18398" lon="-0.1984">
        <ele>293.82</ele>
        <time>2014-11-02T15:30:44Z</time>
      </trkpt>
      <trkpt lat="43.18396" lon="-0.19838">
        <ele>293.82</ele>
        <time>2014-11-02T15:30:45Z</time>
      </trkpt>
      <trkpt lat="43.18394" lon="-0.19837">
        <ele>293.82</ele>
        <time>2014-11-02T15:30:46Z</time>
      </trkpt>
      <trkpt lat="43.18391" lon="-0.19835">
        <ele>293.82</ele>
        <time>2014-11-02T15:30:47Z</time>
      </trkpt>
      <trkpt lat="43.18385" lon="-0.19824">
        <ele>295.26</ele>
        <time>2014-11-02T15:30:52Z</time>
      </trkpt>
      <trkpt lat="43.18384" lon="-0.19822">
        <ele>295.26</ele>
        <time>2014-11-02T15:30:53Z</time>
      </trkpt>
      <trkpt lat="43.18383" lon="-0.19818">
        <ele>295.26</ele>
        <time>2014-11-02T15:30:55Z</time>
      </trkpt>
      <trkpt lat="43.18363" lon="-0.19787">
        <ele>295.74</ele>
        <time>2014-11-02T15:31:08Z</time>
      </trkpt>
      <trkpt lat="43.18338" lon="-0.19749">
        <ele>295.74</ele>
        <time>2014-11-02T15:31:20Z</time>
      </trkpt>
      <trkpt lat="43.18315" lon="-0.19701">
        <ele>297.18</ele>
        <time>2014-11-02T15:31:34Z</time>
      </trkpt>
      <trkpt lat="43.18312" lon="-0.19696">
        <ele>297.18</ele>
        <time>2014-11-02T15:31:36Z</time>
      </trkpt>
      <trkpt lat="43.18309" lon="-0.19693">
        <ele>297.18</ele>
        <time>2014-11-02T15:31:37Z</time>
      </trkpt>
      <trkpt lat="43.18285" lon="-0.1966">
        <ele>298.15</ele>
        <time>2014-11-02T15:31:49Z</time>
      </trkpt>
      <trkpt lat="43.18284" lon="-0.19657">
        <ele>298.15</ele>
        <time>2014-11-02T15:31:50Z</time>
      </trkpt>
      <trkpt lat="43.18282" lon="-0.19651">
        <ele>298.63</ele>
        <time>2014-11-02T15:31:52Z</time>
      </trkpt>
      <trkpt lat="43.18262" lon="-0.19618">
        <ele>300.07</ele>
        <time>2014-11-02T15:32:04Z</time>
      </trkpt>
      <trkpt lat="43.18249" lon="-0.19587">
        <ele>301.03</ele>
        <time>2014-11-02T15:32:15Z</time>
      </trkpt>
      <trkpt lat="43.18246" lon="-0.19579">
        <ele>300.55</ele>
        <time>2014-11-02T15:32:18Z</time>
      </trkpt>
      <trkpt lat="43.18246" lon="-0.19577">
        <ele>301.03</ele>
        <time>2014-11-02T15:32:19Z</time>
      </trkpt>
      <trkpt lat="43.18245" lon="-0.19574">
        <ele>301.03</ele>
        <time>2014-11-02T15:32:20Z</time>
      </trkpt>
      <trkpt lat="43.18244" lon="-0.19571">
        <ele>301.03</ele>
        <time>2014-11-02T15:32:21Z</time>
      </trkpt>
      <trkpt lat="43.18242" lon="-0.19569">
        <ele>301.03</ele>
        <time>2014-11-02T15:32:22Z</time>
      </trkpt>
      <trkpt lat="43.1824" lon="-0.19566">
        <ele>301.03</ele>
        <time>2014-11-02T15:32:23Z</time>
      </trkpt>
      <trkpt lat="43.18238" lon="-0.19563">
        <ele>301.51</ele>
        <time>2014-11-02T15:32:24Z</time>
      </trkpt>
      <trkpt lat="43.18236" lon="-0.1956">
        <ele>301.03</ele>
        <time>2014-11-02T15:32:25Z</time>
      </trkpt>
      <trkpt lat="43.18234" lon="-0.19557">
        <ele>301.03</ele>
        <time>2014-11-02T15:32:26Z</time>
      </trkpt>
      <trkpt lat="43.18232" lon="-0.19555">
        <ele>301.03</ele>
        <time>2014-11-02T15:32:27Z</time>
      </trkpt>
      <trkpt lat="43.1823" lon="-0.19552">
        <ele>301.03</ele>
        <time>2014-11-02T15:32:28Z</time>
      </trkpt>
      <trkpt lat="43.18211" lon="-0.19529">
        <ele>303.43</ele>
        <time>2014-11-02T15:32:38Z</time>
      </trkpt>
      <trkpt lat="43.18204" lon="-0.19518">
        <ele>303.43</ele>
        <time>2014-11-02T15:32:43Z</time>
      </trkpt>
      <trkpt lat="43.18204" lon="-0.19516">
        <ele>303.43</ele>
        <time>2014-11-02T15:32:44Z</time>
      </trkpt>
      <trkpt lat="43.18203" lon="-0.19513">
        <ele>303.43</ele>
        <time>2014-11-02T15:32:45Z</time>
      </trkpt>
      <trkpt lat="43.18202" lon="-0.1951">
        <ele>303.43</ele>
        <time>2014-11-02T15:32:46Z</time>
      </trkpt>
      <trkpt lat="43.18202" lon="-0.19507">
        <ele>303.43</ele>
        <time>2014-11-02T15:32:47Z</time>
      </trkpt>
      <trkpt lat="43.18201" lon="-0.19505">
        <ele>303.43</ele>
        <time>2014-11-02T15:32:48Z</time>
      </trkpt>
      <trkpt lat="43.18201" lon="-0.19502">
        <ele>303.91</ele>
        <time>2014-11-02T15:32:49Z</time>
      </trkpt>
      <trkpt lat="43.182" lon="-0.195">
        <ele>303.43</ele>
        <time>2014-11-02T15:32:50Z</time>
      </trkpt>
      <trkpt lat="43.18194" lon="-0.19487">
        <ele>303.91</ele>
        <time>2014-11-02T15:32:54Z</time>
      </trkpt>
      <trkpt lat="43.18191" lon="-0.19485">
        <ele>303.91</ele>
        <time>2014-11-02T15:32:55Z</time>
      </trkpt>
      <trkpt lat="43.1819" lon="-0.19482">
        <ele>303.43</ele>
        <time>2014-11-02T15:32:56Z</time>
      </trkpt>
      <trkpt lat="43.18189" lon="-0.19478">
        <ele>303.91</ele>
        <time>2014-11-02T15:32:57Z</time>
      </trkpt>
      <trkpt lat="43.18188" lon="-0.19475">
        <ele>303.91</ele>
        <time>2014-11-02T15:32:58Z</time>
      </trkpt>
      <trkpt lat="43.18186" lon="-0.19471">
        <ele>303.91</ele>
        <time>2014-11-02T15:32:59Z</time>
      </trkpt>
      <trkpt lat="43.18184" lon="-0.19469">
        <ele>304.39</ele>
        <time>2014-11-02T15:33:00Z</time>
      </trkpt>
      <trkpt lat="43.18183" lon="-0.19467">
        <ele>304.39</ele>
        <time>2014-11-02T15:33:01Z</time>
      </trkpt>
      <trkpt lat="43.18182" lon="-0.19464">
        <ele>304.39</ele>
        <time>2014-11-02T15:33:02Z</time>
      </trkpt>
      <trkpt lat="43.18181" lon="-0.19462">
        <ele>304.39</ele>
        <time>2014-11-02T15:33:03Z</time>
      </trkpt>
      <trkpt lat="43.1818" lon="-0.1946">
        <ele>304.88</ele>
        <time>2014-11-02T15:33:04Z</time>
      </trkpt>
      <trkpt lat="43.18178" lon="-0.19457">
        <ele>304.88</ele>
        <time>2014-11-02T15:33:05Z</time>
      </trkpt>
      <trkpt lat="43.18176" lon="-0.19455">
        <ele>304.88</ele>
        <time>2014-11-02T15:33:06Z</time>
      </trkpt>
      <trkpt lat="43.18175" lon="-0.19453">
        <ele>304.88</ele>
        <time>2014-11-02T15:33:07Z</time>
      </trkpt>
      <trkpt lat="43.18174" lon="-0.1945">
        <ele>305.84</ele>
        <time>2014-11-02T15:33:08Z</time>
      </trkpt>
      <trkpt lat="43.18173" lon="-0.19447">
        <ele>305.84</ele>
        <time>2014-11-02T15:33:09Z</time>
      </trkpt>
      <trkpt lat="43.1817" lon="-0.19441">
        <ele>305.84</ele>
        <time>2014-11-02T15:33:11Z</time>
      </trkpt>
      <trkpt lat="43.18167" lon="-0.19434">
        <ele>305.84</ele>
        <time>2014-11-02T15:33:15Z</time>
      </trkpt>
      <trkpt lat="43.18166" lon="-0.19432">
        <ele>306.8</ele>
        <time>2014-11-02T15:33:16Z</time>
      </trkpt>
      <trkpt lat="43.18166" lon="-0.19429">
        <ele>306.32</ele>
        <time>2014-11-02T15:33:17Z</time>
      </trkpt>
      <trkpt lat="43.18162" lon="-0.19427">
        <ele>306.32</ele>
        <time>2014-11-02T15:33:18Z</time>
      </trkpt>
      <trkpt lat="43.1816" lon="-0.19424">
        <ele>305.84</ele>
        <time>2014-11-02T15:33:19Z</time>
      </trkpt>
      <trkpt lat="43.18158" lon="-0.19423">
        <ele>306.32</ele>
        <time>2014-11-02T15:33:20Z</time>
      </trkpt>
      <trkpt lat="43.18156" lon="-0.1942">
        <ele>306.8</ele>
        <time>2014-11-02T15:33:21Z</time>
      </trkpt>
      <trkpt lat="43.18152" lon="-0.19416">
        <ele>306.32</ele>
        <time>2014-11-02T15:33:22Z</time>
      </trkpt>
      <trkpt lat="43.18149" lon="-0.19413">
        <ele>306.32</ele>
        <time>2014-11-02T15:33:23Z</time>
      </trkpt>
      <trkpt lat="43.18134" lon="-0.19396">
        <ele>305.84</ele>
        <time>2014-11-02T15:33:31Z</time>
      </trkpt>
      <trkpt lat="43.18132" lon="-0.19393">
        <ele>305.36</ele>
        <time>2014-11-02T15:33:33Z</time>
      </trkpt>
      <trkpt lat="43.1813" lon="-0.19392">
        <ele>305.36</ele>
        <time>2014-11-02T15:33:34Z</time>
      </trkpt>
      <trkpt lat="43.18123" lon="-0.19374">
        <ele>305.36</ele>
        <time>2014-11-02T15:33:40Z</time>
      </trkpt>
      <trkpt lat="43.18121" lon="-0.19372">
        <ele>305.36</ele>
        <time>2014-11-02T15:33:41Z</time>
      </trkpt>
      <trkpt lat="43.18116" lon="-0.19367">
        <ele>304.88</ele>
        <time>2014-11-02T15:33:43Z</time>
      </trkpt>
      <trkpt lat="43.18112" lon="-0.1936">
        <ele>304.88</ele>
        <time>2014-11-02T15:33:45Z</time>
      </trkpt>
      <trkpt lat="43.1811" lon="-0.19356">
        <ele>304.39</ele>
        <time>2014-11-02T15:33:46Z</time>
      </trkpt>
      <trkpt lat="43.18108" lon="-0.19352">
        <ele>304.39</ele>
        <time>2014-11-02T15:33:47Z</time>
      </trkpt>
      <trkpt lat="43.18106" lon="-0.19349">
        <ele>303.43</ele>
        <time>2014-11-02T15:33:48Z</time>
      </trkpt>
      <trkpt lat="43.18104" lon="-0.19346">
        <ele>303.43</ele>
        <time>2014-11-02T15:33:49Z</time>
      </trkpt>
      <trkpt lat="43.18102" lon="-0.19342">
        <ele>302.95</ele>
        <time>2014-11-02T15:33:50Z</time>
      </trkpt>
      <trkpt lat="43.181" lon="-0.19339">
        <ele>303.43</ele>
        <time>2014-11-02T15:33:51Z</time>
      </trkpt>
      <trkpt lat="43.18095" lon="-0.19324">
        <ele>302.95</ele>
        <time>2014-11-02T15:33:58Z</time>
      </trkpt>
      <trkpt lat="43.18094" lon="-0.19323">
        <ele>302.47</ele>
        <time>2014-11-02T15:33:59Z</time>
      </trkpt>
      <trkpt lat="43.18091" lon="-0.19315">
        <ele>302.47</ele>
        <time>2014-11-02T15:34:04Z</time>
      </trkpt>
      <trkpt lat="43.18089" lon="-0.19313">
        <ele>302.47</ele>
        <time>2014-11-02T15:34:05Z</time>
      </trkpt>
      <trkpt lat="43.18087" lon="-0.19311">
        <ele>302.47</ele>
        <time>2014-11-02T15:34:06Z</time>
      </trkpt>
      <trkpt lat="43.18085" lon="-0.19309">
        <ele>302.95</ele>
        <time>2014-11-02T15:34:07Z</time>
      </trkpt>
      <trkpt lat="43.18084" lon="-0.19308">
        <ele>302.95</ele>
        <time>2014-11-02T15:34:08Z</time>
      </trkpt>
      <trkpt lat="43.18083" lon="-0.19306">
        <ele>302.95</ele>
        <time>2014-11-02T15:34:09Z</time>
      </trkpt>
      <trkpt lat="43.18081" lon="-0.19304">
        <ele>303.43</ele>
        <time>2014-11-02T15:34:10Z</time>
      </trkpt>
      <trkpt lat="43.18079" lon="-0.19302">
        <ele>302.47</ele>
        <time>2014-11-02T15:34:11Z</time>
      </trkpt>
      <trkpt lat="43.18078" lon="-0.193">
        <ele>302.95</ele>
        <time>2014-11-02T15:34:12Z</time>
      </trkpt>
      <trkpt lat="43.18075" lon="-0.19293">
        <ele>302.47</ele>
        <time>2014-11-02T15:34:17Z</time>
      </trkpt>
      <trkpt lat="43.1807" lon="-0.19281">
        <ele>303.91</ele>
        <time>2014-11-02T15:34:24Z</time>
      </trkpt>
      <trkpt lat="43.18069" lon="-0.19278">
        <ele>303.43</ele>
        <time>2014-11-02T15:34:25Z</time>
      </trkpt>
      <trkpt lat="43.18069" lon="-0.19273">
        <ele>303.91</ele>
        <time>2014-11-02T15:34:26Z</time>
      </trkpt>
      <trkpt lat="43.18067" lon="-0.19259">
        <ele>304.39</ele>
        <time>2014-11-02T15:34:31Z</time>
      </trkpt>
      <trkpt lat="43.18067" lon="-0.19256">
        <ele>304.39</ele>
        <time>2014-11-02T15:34:32Z</time>
      </trkpt>
      <trkpt lat="43.18061" lon="-0.19237">
        <ele>304.39</ele>
        <time>2014-11-02T15:34:44Z</time>
      </trkpt>
      <trkpt lat="43.18053" lon="-0.19229">
        <ele>305.36</ele>
        <time>2014-11-02T15:34:59Z</time>
      </trkpt>
      <trkpt lat="43.1805" lon="-0.19224">
        <ele>305.36</ele>
        <time>2014-11-02T15:35:01Z</time>
      </trkpt>
      <trkpt lat="43.18049" lon="-0.19221">
        <ele>304.88</ele>
        <time>2014-11-02T15:35:02Z</time>
      </trkpt>
      <trkpt lat="43.18046" lon="-0.19215">
        <ele>305.36</ele>
        <time>2014-11-02T15:35:04Z</time>
      </trkpt>
      <trkpt lat="43.18044" lon="-0.19211">
        <ele>305.36</ele>
        <time>2014-11-02T15:35:05Z</time>
      </trkpt>
      <trkpt lat="43.18039" lon="-0.192">
        <ele>305.84</ele>
        <time>2014-11-02T15:35:09Z</time>
      </trkpt>
      <trkpt lat="43.18035" lon="-0.19192">
        <ele>306.32</ele>
        <time>2014-11-02T15:35:14Z</time>
      </trkpt>
      <trkpt lat="43.18034" lon="-0.1919">
        <ele>306.32</ele>
        <time>2014-11-02T15:35:15Z</time>
      </trkpt>
      <trkpt lat="43.18033" lon="-0.19188">
        <ele>306.32</ele>
        <time>2014-11-02T15:35:16Z</time>
      </trkpt>
      <trkpt lat="43.18033" lon="-0.19186">
        <ele>306.32</ele>
        <time>2014-11-02T15:35:17Z</time>
      </trkpt>
      <trkpt lat="43.18028" lon="-0.19167">
        <ele>307.76</ele>
        <time>2014-11-02T15:35:28Z</time>
      </trkpt>
      <trkpt lat="43.18015" lon="-0.19132">
        <ele>308.72</ele>
        <time>2014-11-02T15:35:40Z</time>
      </trkpt>
      <trkpt lat="43.18014" lon="-0.19127">
        <ele>309.2</ele>
        <time>2014-11-02T15:35:42Z</time>
      </trkpt>
      <trkpt lat="43.18013" lon="-0.19125">
        <ele>309.2</ele>
        <time>2014-11-02T15:35:43Z</time>
      </trkpt>
      <trkpt lat="43.18012" lon="-0.19122">
        <ele>309.68</ele>
        <time>2014-11-02T15:35:45Z</time>
      </trkpt>
      <trkpt lat="43.18011" lon="-0.19119">
        <ele>309.68</ele>
        <time>2014-11-02T15:35:46Z</time>
      </trkpt>
      <trkpt lat="43.17996" lon="-0.19083">
        <ele>311.12</ele>
        <time>2014-11-02T15:35:59Z</time>
      </trkpt>
      <trkpt lat="43.17989" lon="-0.1906">
        <ele>313.05</ele>
        <time>2014-11-02T15:36:09Z</time>
      </trkpt>
      <trkpt lat="43.17989" lon="-0.19058">
        <ele>312.57</ele>
        <time>2014-11-02T15:36:10Z</time>
      </trkpt>
      <trkpt lat="43.17989" lon="-0.19056">
        <ele>312.57</ele>
        <time>2014-11-02T15:36:11Z</time>
      </trkpt>
      <trkpt lat="43.17989" lon="-0.19053">
        <ele>312.57</ele>
        <time>2014-11-02T15:36:12Z</time>
      </trkpt>
      <trkpt lat="43.17988" lon="-0.19052">
        <ele>313.05</ele>
        <time>2014-11-02T15:36:13Z</time>
      </trkpt>
      <trkpt lat="43.17988" lon="-0.19049">
        <ele>313.05</ele>
        <time>2014-11-02T15:36:14Z</time>
      </trkpt>
      <trkpt lat="43.17987" lon="-0.19047">
        <ele>313.05</ele>
        <time>2014-11-02T15:36:15Z</time>
      </trkpt>
      <trkpt lat="43.17986" lon="-0.19045">
        <ele>313.53</ele>
        <time>2014-11-02T15:36:16Z</time>
      </trkpt>
      <trkpt lat="43.17985" lon="-0.19043">
        <ele>313.05</ele>
        <time>2014-11-02T15:36:17Z</time>
      </trkpt>
      <trkpt lat="43.17985" lon="-0.1904">
        <ele>313.53</ele>
        <time>2014-11-02T15:36:18Z</time>
      </trkpt>
      <trkpt lat="43.17983" lon="-0.19037">
        <ele>313.05</ele>
        <time>2014-11-02T15:36:19Z</time>
      </trkpt>
      <trkpt lat="43.17982" lon="-0.19034">
        <ele>313.05</ele>
        <time>2014-11-02T15:36:20Z</time>
      </trkpt>
      <trkpt lat="43.17981" lon="-0.19031">
        <ele>313.53</ele>
        <time>2014-11-02T15:36:21Z</time>
      </trkpt>
      <trkpt lat="43.1798" lon="-0.19027">
        <ele>313.53</ele>
        <time>2014-11-02T15:36:22Z</time>
      </trkpt>
      <trkpt lat="43.17978" lon="-0.19024">
        <ele>314.01</ele>
        <time>2014-11-02T15:36:23Z</time>
      </trkpt>
      <trkpt lat="43.17978" lon="-0.19021">
        <ele>314.01</ele>
        <time>2014-11-02T15:36:24Z</time>
      </trkpt>
      <trkpt lat="43.17977" lon="-0.19016">
        <ele>314.49</ele>
        <time>2014-11-02T15:36:26Z</time>
      </trkpt>
      <trkpt lat="43.17977" lon="-0.19014">
        <ele>314.49</ele>
        <time>2014-11-02T15:36:27Z</time>
      </trkpt>
      <trkpt lat="43.17976" lon="-0.19011">
        <ele>314.97</ele>
        <time>2014-11-02T15:36:28Z</time>
      </trkpt>
      <trkpt lat="43.17974" lon="-0.19008">
        <ele>314.49</ele>
        <time>2014-11-02T15:36:29Z</time>
      </trkpt>
      <trkpt lat="43.17973" lon="-0.19005">
        <ele>314.97</ele>
        <time>2014-11-02T15:36:30Z</time>
      </trkpt>
      <trkpt lat="43.17971" lon="-0.19002">
        <ele>315.45</ele>
        <time>2014-11-02T15:36:31Z</time>
      </trkpt>
      <trkpt lat="43.1797" lon="-0.18999">
        <ele>314.97</ele>
        <time>2014-11-02T15:36:32Z</time>
      </trkpt>
      <trkpt lat="43.17969" lon="-0.18996">
        <ele>315.45</ele>
        <time>2014-11-02T15:36:33Z</time>
      </trkpt>
      <trkpt lat="43.17968" lon="-0.18993">
        <ele>315.45</ele>
        <time>2014-11-02T15:36:34Z</time>
      </trkpt>
      <trkpt lat="43.17953" lon="-0.18958">
        <ele>315.93</ele>
        <time>2014-11-02T15:36:46Z</time>
      </trkpt>
      <trkpt lat="43.17953" lon="-0.18955">
        <ele>315.93</ele>
        <time>2014-11-02T15:36:47Z</time>
      </trkpt>
      <trkpt lat="43.17951" lon="-0.18951">
        <ele>316.41</ele>
        <time>2014-11-02T15:36:48Z</time>
      </trkpt>
      <trkpt lat="43.17948" lon="-0.18932">
        <ele>316.41</ele>
        <time>2014-11-02T15:36:53Z</time>
      </trkpt>
      <trkpt lat="43.17947" lon="-0.18929">
        <ele>316.41</ele>
        <time>2014-11-02T15:36:54Z</time>
      </trkpt>
      <trkpt lat="43.17945" lon="-0.18925">
        <ele>316.41</ele>
        <time>2014-11-02T15:36:55Z</time>
      </trkpt>
      <trkpt lat="43.17943" lon="-0.18921">
        <ele>316.89</ele>
        <time>2014-11-02T15:36:56Z</time>
      </trkpt>
      <trkpt lat="43.17942" lon="-0.18919">
        <ele>316.89</ele>
        <time>2014-11-02T15:36:57Z</time>
      </trkpt>
      <trkpt lat="43.17941" lon="-0.18914">
        <ele>316.89</ele>
        <time>2014-11-02T15:36:59Z</time>
      </trkpt>
      <trkpt lat="43.1794" lon="-0.18905">
        <ele>317.37</ele>
        <time>2014-11-02T15:37:04Z</time>
      </trkpt>
      <trkpt lat="43.1794" lon="-0.18903">
        <ele>317.37</ele>
        <time>2014-11-02T15:37:05Z</time>
      </trkpt>
      <trkpt lat="43.17937" lon="-0.18895">
        <ele>317.37</ele>
        <time>2014-11-02T15:37:08Z</time>
      </trkpt>
      <trkpt lat="43.17931" lon="-0.1887">
        <ele>317.85</ele>
        <time>2014-11-02T15:37:19Z</time>
      </trkpt>
      <trkpt lat="43.17922" lon="-0.18851">
        <ele>318.33</ele>
        <time>2014-11-02T15:37:29Z</time>
      </trkpt>
      <trkpt lat="43.1792" lon="-0.18849">
        <ele>318.81</ele>
        <time>2014-11-02T15:37:30Z</time>
      </trkpt>
      <trkpt lat="43.17911" lon="-0.18837">
        <ele>319.3</ele>
        <time>2014-11-02T15:37:36Z</time>
      </trkpt>
      <trkpt lat="43.17897" lon="-0.18812">
        <ele>321.22</ele>
        <time>2014-11-02T15:37:48Z</time>
      </trkpt>
      <trkpt lat="43.17894" lon="-0.18808">
        <ele>321.22</ele>
        <time>2014-11-02T15:37:51Z</time>
      </trkpt>
      <trkpt lat="43.17892" lon="-0.18806">
        <ele>321.22</ele>
        <time>2014-11-02T15:37:52Z</time>
      </trkpt>
      <trkpt lat="43.1789" lon="-0.18803">
        <ele>321.22</ele>
        <time>2014-11-02T15:37:53Z</time>
      </trkpt>
      <trkpt lat="43.17888" lon="-0.18799">
        <ele>321.7</ele>
        <time>2014-11-02T15:37:54Z</time>
      </trkpt>
      <trkpt lat="43.17886" lon="-0.18796">
        <ele>322.18</ele>
        <time>2014-11-02T15:37:55Z</time>
      </trkpt>
      <trkpt lat="43.17883" lon="-0.18795">
        <ele>321.7</ele>
        <time>2014-11-02T15:37:56Z</time>
      </trkpt>
      <trkpt lat="43.17868" lon="-0.18773">
        <ele>323.14</ele>
        <time>2014-11-02T15:38:06Z</time>
      </trkpt>
      <trkpt lat="43.17863" lon="-0.18763">
        <ele>323.62</ele>
        <time>2014-11-02T15:38:10Z</time>
      </trkpt>
      <trkpt lat="43.17858" lon="-0.18753">
        <ele>324.1</ele>
        <time>2014-11-02T15:38:13Z</time>
      </trkpt>
      <trkpt lat="43.17857" lon="-0.18751">
        <ele>323.62</ele>
        <time>2014-11-02T15:38:14Z</time>
      </trkpt>
      <trkpt lat="43.1785" lon="-0.18732">
        <ele>324.58</ele>
        <time>2014-11-02T15:38:21Z</time>
      </trkpt>
      <trkpt lat="43.17836" lon="-0.18709">
        <ele>326.02</ele>
        <time>2014-11-02T15:38:34Z</time>
      </trkpt>
      <trkpt lat="43.17833" lon="-0.18701">
        <ele>326.5</ele>
        <time>2014-11-02T15:38:38Z</time>
      </trkpt>
      <trkpt lat="43.17832" lon="-0.18698">
        <ele>326.02</ele>
        <time>2014-11-02T15:38:39Z</time>
      </trkpt>
      <trkpt lat="43.17832" lon="-0.18696">
        <ele>326.02</ele>
        <time>2014-11-02T15:38:40Z</time>
      </trkpt>
      <trkpt lat="43.17832" lon="-0.18694">
        <ele>326.5</ele>
        <time>2014-11-02T15:38:41Z</time>
      </trkpt>
      <trkpt lat="43.17832" lon="-0.18693">
        <ele>326.5</ele>
        <time>2014-11-02T15:38:42Z</time>
      </trkpt>
      <trkpt lat="43.17831" lon="-0.18691">
        <ele>326.99</ele>
        <time>2014-11-02T15:38:44Z</time>
      </trkpt>
      <trkpt lat="43.17834" lon="-0.1868">
        <ele>326.5</ele>
        <time>2014-11-02T15:38:48Z</time>
      </trkpt>
      <trkpt lat="43.17826" lon="-0.18665">
        <ele>326.02</ele>
        <time>2014-11-02T15:38:59Z</time>
      </trkpt>
      <trkpt lat="43.17818" lon="-0.18656">
        <ele>327.47</ele>
        <time>2014-11-02T15:39:12Z</time>
      </trkpt>
      <trkpt lat="43.17818" lon="-0.18651">
        <ele>326.99</ele>
        <time>2014-11-02T15:39:15Z</time>
      </trkpt>
      <trkpt lat="43.17816" lon="-0.18638">
        <ele>327.47</ele>
        <time>2014-11-02T15:39:20Z</time>
      </trkpt>
      <trkpt lat="43.17817" lon="-0.18629">
        <ele>327.95</ele>
        <time>2014-11-02T15:39:23Z</time>
      </trkpt>
      <trkpt lat="43.17814" lon="-0.18617">
        <ele>328.91</ele>
        <time>2014-11-02T15:39:27Z</time>
      </trkpt>
      <trkpt lat="43.1781" lon="-0.18607">
        <ele>329.87</ele>
        <time>2014-11-02T15:39:32Z</time>
      </trkpt>
      <trkpt lat="43.17809" lon="-0.18603">
        <ele>329.87</ele>
        <time>2014-11-02T15:39:34Z</time>
      </trkpt>
      <trkpt lat="43.17807" lon="-0.18596">
        <ele>329.87</ele>
        <time>2014-11-02T15:39:38Z</time>
      </trkpt>
      <trkpt lat="43.17805" lon="-0.18594">
        <ele>330.35</ele>
        <time>2014-11-02T15:39:40Z</time>
      </trkpt>
      <trkpt lat="43.17791" lon="-0.18579">
        <ele>331.31</ele>
        <time>2014-11-02T15:39:48Z</time>
      </trkpt>
      <trkpt lat="43.17774" lon="-0.1856">
        <ele>333.71</ele>
        <time>2014-11-02T15:39:59Z</time>
      </trkpt>
      <trkpt lat="43.17771" lon="-0.18555">
        <ele>333.71</ele>
        <time>2014-11-02T15:40:02Z</time>
      </trkpt>
      <trkpt lat="43.17766" lon="-0.1854">
        <ele>335.16</ele>
        <time>2014-11-02T15:40:08Z</time>
      </trkpt>
      <trkpt lat="43.17762" lon="-0.18535">
        <ele>334.68</ele>
        <time>2014-11-02T15:40:11Z</time>
      </trkpt>
      <trkpt lat="43.17758" lon="-0.18524">
        <ele>336.12</ele>
        <time>2014-11-02T15:40:17Z</time>
      </trkpt>
      <trkpt lat="43.17756" lon="-0.18515">
        <ele>336.12</ele>
        <time>2014-11-02T15:40:22Z</time>
      </trkpt>
      <trkpt lat="43.17742" lon="-0.1849">
        <ele>338.04</ele>
        <time>2014-11-02T15:40:33Z</time>
      </trkpt>
      <trkpt lat="43.17723" lon="-0.18455">
        <ele>339</ele>
        <time>2014-11-02T15:40:45Z</time>
      </trkpt>
      <trkpt lat="43.17712" lon="-0.18428">
        <ele>339.96</ele>
        <time>2014-11-02T15:40:56Z</time>
      </trkpt>
      <trkpt lat="43.17701" lon="-0.18401">
        <ele>341.41</ele>
        <time>2014-11-02T15:41:09Z</time>
      </trkpt>
      <trkpt lat="43.177" lon="-0.18394">
        <ele>342.85</ele>
        <time>2014-11-02T15:41:12Z</time>
      </trkpt>
      <trkpt lat="43.1769" lon="-0.18374">
        <ele>346.21</ele>
        <time>2014-11-02T15:41:21Z</time>
      </trkpt>
      <trkpt lat="43.17684" lon="-0.18362">
        <ele>346.21</ele>
        <time>2014-11-02T15:41:26Z</time>
      </trkpt>
      <trkpt lat="43.17667" lon="-0.1832">
        <ele>347.17</ele>
        <time>2014-11-02T15:41:40Z</time>
      </trkpt>
      <trkpt lat="43.17664" lon="-0.18308">
        <ele>347.65</ele>
        <time>2014-11-02T15:41:44Z</time>
      </trkpt>
      <trkpt lat="43.17661" lon="-0.18287">
        <ele>348.13</ele>
        <time>2014-11-02T15:41:52Z</time>
      </trkpt>
      <trkpt lat="43.17659" lon="-0.18265">
        <ele>350.54</ele>
        <time>2014-11-02T15:42:00Z</time>
      </trkpt>
      <trkpt lat="43.17648" lon="-0.18234">
        <ele>353.42</ele>
        <time>2014-11-02T15:42:13Z</time>
      </trkpt>
      <trkpt lat="43.17635" lon="-0.18218">
        <ele>355.83</ele>
        <time>2014-11-02T15:42:21Z</time>
      </trkpt>
      <trkpt lat="43.17633" lon="-0.18213">
        <ele>354.38</ele>
        <time>2014-11-02T15:42:25Z</time>
      </trkpt>
      <trkpt lat="43.17634" lon="-0.18203">
        <ele>353.42</ele>
        <time>2014-11-02T15:42:30Z</time>
      </trkpt>
      <trkpt lat="43.17633" lon="-0.18198">
        <ele>352.46</ele>
        <time>2014-11-02T15:42:33Z</time>
      </trkpt>
      <trkpt lat="43.17627" lon="-0.18186">
        <ele>352.46</ele>
        <time>2014-11-02T15:42:39Z</time>
      </trkpt>
      <trkpt lat="43.17619" lon="-0.18161">
        <ele>353.9</ele>
        <time>2014-11-02T15:42:47Z</time>
      </trkpt>
      <trkpt lat="43.17611" lon="-0.1815">
        <ele>354.86</ele>
        <time>2014-11-02T15:42:52Z</time>
      </trkpt>
      <trkpt lat="43.17608" lon="-0.18141">
        <ele>355.83</ele>
        <time>2014-11-02T15:42:56Z</time>
      </trkpt>
      <trkpt lat="43.17591" lon="-0.18125">
        <ele>356.79</ele>
        <time>2014-11-02T15:43:06Z</time>
      </trkpt>
      <trkpt lat="43.1759" lon="-0.18117">
        <ele>357.27</ele>
        <time>2014-11-02T15:43:09Z</time>
      </trkpt>
      <trkpt lat="43.17581" lon="-0.181">
        <ele>357.75</ele>
        <time>2014-11-02T15:43:15Z</time>
      </trkpt>
      <trkpt lat="43.17585" lon="-0.18084">
        <ele>356.79</ele>
        <time>2014-11-02T15:43:20Z</time>
      </trkpt>
      <trkpt lat="43.17597" lon="-0.18051">
        <ele>356.79</ele>
        <time>2014-11-02T15:43:30Z</time>
      </trkpt>
      <trkpt lat="43.17598" lon="-0.18014">
        <ele>358.71</ele>
        <time>2014-11-02T15:43:42Z</time>
      </trkpt>
      <trkpt lat="43.17586" lon="-0.17984">
        <ele>360.63</ele>
        <time>2014-11-02T15:43:55Z</time>
      </trkpt>
      <trkpt lat="43.17572" lon="-0.17976">
        <ele>363.52</ele>
        <time>2014-11-02T15:44:06Z</time>
      </trkpt>
      <trkpt lat="43.17563" lon="-0.17971">
        <ele>364.48</ele>
        <time>2014-11-02T15:44:26Z</time>
      </trkpt>
      <trkpt lat="43.17554" lon="-0.17956">
        <ele>365.44</ele>
        <time>2014-11-02T15:44:43Z</time>
      </trkpt>
      <trkpt lat="43.17548" lon="-0.17949">
        <ele>365.44</ele>
        <time>2014-11-02T15:44:58Z</time>
      </trkpt>
      <trkpt lat="43.17544" lon="-0.17946">
        <ele>366.88</ele>
        <time>2014-11-02T15:45:09Z</time>
      </trkpt>
      <trkpt lat="43.17544" lon="-0.17945">
        <ele>364</ele>
        <time>2014-11-02T15:45:10Z</time>
      </trkpt>
      <trkpt lat="43.17543" lon="-0.17945">
        <ele>364.48</ele>
        <time>2014-11-02T15:45:11Z</time>
      </trkpt>
      <trkpt lat="43.17537" lon="-0.17938">
        <ele>365.44</ele>
        <time>2014-11-02T15:45:36Z</time>
      </trkpt>
      <trkpt lat="43.17538" lon="-0.17933">
        <ele>365.92</ele>
        <time>2014-11-02T15:45:48Z</time>
      </trkpt>
      <trkpt lat="43.17539" lon="-0.17922">
        <ele>364.48</ele>
        <time>2014-11-02T15:45:51Z</time>
      </trkpt>
      <trkpt lat="43.17538" lon="-0.17916">
        <ele>364.48</ele>
        <time>2014-11-02T15:45:52Z</time>
      </trkpt>
      <trkpt lat="43.17537" lon="-0.1791">
        <ele>364</ele>
        <time>2014-11-02T15:45:53Z</time>
      </trkpt>
      <trkpt lat="43.17535" lon="-0.17904">
        <ele>364</ele>
        <time>2014-11-02T15:45:54Z</time>
      </trkpt>
      <trkpt lat="43.17533" lon="-0.17899">
        <ele>363.52</ele>
        <time>2014-11-02T15:45:55Z</time>
      </trkpt>
      <trkpt lat="43.1753" lon="-0.17895">
        <ele>363.04</ele>
        <time>2014-11-02T15:45:56Z</time>
      </trkpt>
      <trkpt lat="43.17527" lon="-0.17891">
        <ele>363.52</ele>
        <time>2014-11-02T15:45:57Z</time>
      </trkpt>
      <trkpt lat="43.17515" lon="-0.17867">
        <ele>363.04</ele>
        <time>2014-11-02T15:46:05Z</time>
      </trkpt>
      <trkpt lat="43.17507" lon="-0.17853">
        <ele>364</ele>
        <time>2014-11-02T15:46:12Z</time>
      </trkpt>
      <trkpt lat="43.17506" lon="-0.1785">
        <ele>364</ele>
        <time>2014-11-02T15:46:13Z</time>
      </trkpt>
      <trkpt lat="43.17505" lon="-0.17848">
        <ele>364</ele>
        <time>2014-11-02T15:46:14Z</time>
      </trkpt>
      <trkpt lat="43.17504" lon="-0.17846">
        <ele>364.48</ele>
        <time>2014-11-02T15:46:15Z</time>
      </trkpt>
      <trkpt lat="43.17503" lon="-0.17843">
        <ele>364.96</ele>
        <time>2014-11-02T15:46:16Z</time>
      </trkpt>
      <trkpt lat="43.17502" lon="-0.17841">
        <ele>364.96</ele>
        <time>2014-11-02T15:46:17Z</time>
      </trkpt>
      <trkpt lat="43.17485" lon="-0.17814">
        <ele>366.4</ele>
        <time>2014-11-02T15:46:29Z</time>
      </trkpt>
      <trkpt lat="43.17476" lon="-0.17803">
        <ele>367.84</ele>
        <time>2014-11-02T15:46:35Z</time>
      </trkpt>
      <trkpt lat="43.17472" lon="-0.17797">
        <ele>367.84</ele>
        <time>2014-11-02T15:46:39Z</time>
      </trkpt>
      <trkpt lat="43.17459" lon="-0.17768">
        <ele>367.84</ele>
        <time>2014-11-02T15:46:51Z</time>
      </trkpt>
      <trkpt lat="43.17458" lon="-0.17762">
        <ele>367.84</ele>
        <time>2014-11-02T15:46:53Z</time>
      </trkpt>
      <trkpt lat="43.17456" lon="-0.17758">
        <ele>368.32</ele>
        <time>2014-11-02T15:46:55Z</time>
      </trkpt>
      <trkpt lat="43.17443" lon="-0.1773">
        <ele>371.21</ele>
        <time>2014-11-02T15:47:07Z</time>
      </trkpt>
      <trkpt lat="43.1743" lon="-0.17704">
        <ele>373.61</ele>
        <time>2014-11-02T15:47:20Z</time>
      </trkpt>
      <trkpt lat="43.17424" lon="-0.17691">
        <ele>375.53</ele>
        <time>2014-11-02T15:47:27Z</time>
      </trkpt>
      <trkpt lat="43.17407" lon="-0.1768">
        <ele>378.9</ele>
        <time>2014-11-02T15:47:39Z</time>
      </trkpt>
      <trkpt lat="43.17399" lon="-0.17683">
        <ele>380.34</ele>
        <time>2014-11-02T15:47:46Z</time>
      </trkpt>
      <trkpt lat="43.17394" lon="-0.17682">
        <ele>380.82</ele>
        <time>2014-11-02T15:47:49Z</time>
      </trkpt>
      <trkpt lat="43.17374" lon="-0.17673">
        <ele>381.78</ele>
        <time>2014-11-02T15:48:01Z</time>
      </trkpt>
      <trkpt lat="43.17359" lon="-0.17655">
        <ele>381.3</ele>
        <time>2014-11-02T15:48:14Z</time>
      </trkpt>
      <trkpt lat="43.17343" lon="-0.17632">
        <ele>381.78</ele>
        <time>2014-11-02T15:48:27Z</time>
      </trkpt>
      <trkpt lat="43.17336" lon="-0.17623">
        <ele>382.26</ele>
        <time>2014-11-02T15:48:34Z</time>
      </trkpt>
      <trkpt lat="43.17335" lon="-0.1762">
        <ele>382.26</ele>
        <time>2014-11-02T15:48:36Z</time>
      </trkpt>
      <trkpt lat="43.17332" lon="-0.17616">
        <ele>382.74</ele>
        <time>2014-11-02T15:48:40Z</time>
      </trkpt>
      <trkpt lat="43.17318" lon="-0.17597">
        <ele>384.66</ele>
        <time>2014-11-02T15:48:54Z</time>
      </trkpt>
      <trkpt lat="43.17299" lon="-0.17578">
        <ele>385.15</ele>
        <time>2014-11-02T15:49:08Z</time>
      </trkpt>
      <trkpt lat="43.17295" lon="-0.17573">
        <ele>385.63</ele>
        <time>2014-11-02T15:49:12Z</time>
      </trkpt>
      <trkpt lat="43.17288" lon="-0.17567">
        <ele>386.59</ele>
        <time>2014-11-02T15:49:23Z</time>
      </trkpt>
      <trkpt lat="43.17287" lon="-0.17563">
        <ele>386.11</ele>
        <time>2014-11-02T15:49:28Z</time>
      </trkpt>
      <trkpt lat="43.17286" lon="-0.17559">
        <ele>386.11</ele>
        <time>2014-11-02T15:49:31Z</time>
      </trkpt>
      <trkpt lat="43.17285" lon="-0.17542">
        <ele>385.63</ele>
        <time>2014-11-02T15:49:46Z</time>
      </trkpt>
      <trkpt lat="43.17282" lon="-0.17537">
        <ele>386.11</ele>
        <time>2014-11-02T15:49:59Z</time>
      </trkpt>
      <trkpt lat="43.17279" lon="-0.17549">
        <ele>386.11</ele>
        <time>2014-11-02T15:50:08Z</time>
      </trkpt>
      <trkpt lat="43.17275" lon="-0.17559">
        <ele>385.63</ele>
        <time>2014-11-02T15:50:15Z</time>
      </trkpt>
      <trkpt lat="43.17273" lon="-0.17563">
        <ele>386.59</ele>
        <time>2014-11-02T15:50:19Z</time>
      </trkpt>
      <trkpt lat="43.17271" lon="-0.17567">
        <ele>387.07</ele>
        <time>2014-11-02T15:50:23Z</time>
      </trkpt>
      <trkpt lat="43.17264" lon="-0.17578">
        <ele>390.43</ele>
        <time>2014-11-02T15:50:36Z</time>
      </trkpt>
      <trkpt lat="43.17261" lon="-0.17584">
        <ele>390.43</ele>
        <time>2014-11-02T15:50:46Z</time>
      </trkpt>
      <trkpt lat="43.17256" lon="-0.17594">
        <ele>392.36</ele>
        <time>2014-11-02T15:50:57Z</time>
      </trkpt>
      <trkpt lat="43.17249" lon="-0.17613">
        <ele>393.32</ele>
        <time>2014-11-02T15:51:08Z</time>
      </trkpt>
      <trkpt lat="43.17244" lon="-0.17627">
        <ele>394.28</ele>
        <time>2014-11-02T15:51:17Z</time>
      </trkpt>
      <trkpt lat="43.17241" lon="-0.17644">
        <ele>394.76</ele>
        <time>2014-11-02T15:51:23Z</time>
      </trkpt>
      <trkpt lat="43.17236" lon="-0.17656">
        <ele>395.72</ele>
        <time>2014-11-02T15:51:29Z</time>
      </trkpt>
      <trkpt lat="43.17233" lon="-0.17664">
        <ele>396.68</ele>
        <time>2014-11-02T15:51:33Z</time>
      </trkpt>
      <trkpt lat="43.1723" lon="-0.17679">
        <ele>398.12</ele>
        <time>2014-11-02T15:51:41Z</time>
      </trkpt>
      <trkpt lat="43.17227" lon="-0.17709">
        <ele>399.08</ele>
        <time>2014-11-02T15:51:53Z</time>
      </trkpt>
      <trkpt lat="43.17225" lon="-0.17715">
        <ele>399.08</ele>
        <time>2014-11-02T15:51:56Z</time>
      </trkpt>
      <trkpt lat="43.17218" lon="-0.1774">
        <ele>400.53</ele>
        <time>2014-11-02T15:52:10Z</time>
      </trkpt>
      <trkpt lat="43.17209" lon="-0.17744">
        <ele>403.41</ele>
        <time>2014-11-02T15:52:23Z</time>
      </trkpt>
      <trkpt lat="43.17206" lon="-0.17747">
        <ele>403.41</ele>
        <time>2014-11-02T15:52:26Z</time>
      </trkpt>
      <trkpt lat="43.17191" lon="-0.17759">
        <ele>404.85</ele>
        <time>2014-11-02T15:52:37Z</time>
      </trkpt>
      <trkpt lat="43.1718" lon="-0.17779">
        <ele>406.77</ele>
        <time>2014-11-02T15:52:52Z</time>
      </trkpt>
      <trkpt lat="43.1718" lon="-0.17781">
        <ele>406.29</ele>
        <time>2014-11-02T15:52:53Z</time>
      </trkpt>
      <trkpt lat="43.17178" lon="-0.17779">
        <ele>406.29</ele>
        <time>2014-11-02T15:52:57Z</time>
      </trkpt>
      <trkpt lat="43.17178" lon="-0.17773">
        <ele>407.26</ele>
        <time>2014-11-02T15:53:01Z</time>
      </trkpt>
      <trkpt lat="43.17174" lon="-0.17762">
        <ele>407.74</ele>
        <time>2014-11-02T15:53:07Z</time>
      </trkpt>
      <trkpt lat="43.17166" lon="-0.17737">
        <ele>407.26</ele>
        <time>2014-11-02T15:53:16Z</time>
      </trkpt>
      <trkpt lat="43.17162" lon="-0.17733">
        <ele>407.74</ele>
        <time>2014-11-02T15:53:19Z</time>
      </trkpt>
      <trkpt lat="43.17148" lon="-0.17715">
        <ele>410.62</ele>
        <time>2014-11-02T15:53:28Z</time>
      </trkpt>
      <trkpt lat="43.17131" lon="-0.17692">
        <ele>410.14</ele>
        <time>2014-11-02T15:53:37Z</time>
      </trkpt>
      <trkpt lat="43.17103" lon="-0.17682">
        <ele>409.66</ele>
        <time>2014-11-02T15:53:49Z</time>
      </trkpt>
      <trkpt lat="43.17095" lon="-0.17681">
        <ele>409.18</ele>
        <time>2014-11-02T15:53:54Z</time>
      </trkpt>
      <trkpt lat="43.17089" lon="-0.17677">
        <ele>410.62</ele>
        <time>2014-11-02T15:53:59Z</time>
      </trkpt>
      <trkpt lat="43.17075" lon="-0.17662">
        <ele>413.02</ele>
        <time>2014-11-02T15:54:13Z</time>
      </trkpt>
      <trkpt lat="43.17067" lon="-0.17657">
        <ele>413.98</ele>
        <time>2014-11-02T15:54:19Z</time>
      </trkpt>
      <trkpt lat="43.17043" lon="-0.17642">
        <ele>415.43</ele>
        <time>2014-11-02T15:54:32Z</time>
      </trkpt>
      <trkpt lat="43.17019" lon="-0.17625">
        <ele>418.31</ele>
        <time>2014-11-02T15:54:46Z</time>
      </trkpt>
      <trkpt lat="43.17004" lon="-0.17604">
        <ele>419.27</ele>
        <time>2014-11-02T15:54:58Z</time>
      </trkpt>
      <trkpt lat="43.16995" lon="-0.17583">
        <ele>419.27</ele>
        <time>2014-11-02T15:55:09Z</time>
      </trkpt>
      <trkpt lat="43.16994" lon="-0.17579">
        <ele>419.27</ele>
        <time>2014-11-02T15:55:11Z</time>
      </trkpt>
      <trkpt lat="43.16983" lon="-0.17563">
        <ele>419.75</ele>
        <time>2014-11-02T15:55:18Z</time>
      </trkpt>
      <trkpt lat="43.16976" lon="-0.17552">
        <ele>419.27</ele>
        <time>2014-11-02T15:55:23Z</time>
      </trkpt>
      <trkpt lat="43.16954" lon="-0.17517">
        <ele>419.27</ele>
        <time>2014-11-02T15:55:38Z</time>
      </trkpt>
      <trkpt lat="43.16948" lon="-0.1751">
        <ele>419.75</ele>
        <time>2014-11-02T15:55:44Z</time>
      </trkpt>
      <trkpt lat="43.16943" lon="-0.17508">
        <ele>420.71</ele>
        <time>2014-11-02T15:55:48Z</time>
      </trkpt>
      <trkpt lat="43.16937" lon="-0.17505">
        <ele>423.12</ele>
        <time>2014-11-02T15:55:54Z</time>
      </trkpt>
      <trkpt lat="43.16927" lon="-0.17501">
        <ele>426</ele>
        <time>2014-11-02T15:56:05Z</time>
      </trkpt>
      <trkpt lat="43.16916" lon="-0.17505">
        <ele>427.92</ele>
        <time>2014-11-02T15:56:17Z</time>
      </trkpt>
      <trkpt lat="43.16918" lon="-0.1751">
        <ele>431.29</ele>
        <time>2014-11-02T15:56:29Z</time>
      </trkpt>
      <trkpt lat="43.16921" lon="-0.17517">
        <ele>432.73</ele>
        <time>2014-11-02T15:56:40Z</time>
      </trkpt>
      <trkpt lat="43.16921" lon="-0.1752">
        <ele>432.73</ele>
        <time>2014-11-02T15:56:42Z</time>
      </trkpt>
      <trkpt lat="43.16925" lon="-0.17533">
        <ele>434.65</ele>
        <time>2014-11-02T15:56:52Z</time>
      </trkpt>
      <trkpt lat="43.16929" lon="-0.17554">
        <ele>435.61</ele>
        <time>2014-11-02T15:57:05Z</time>
      </trkpt>
      <trkpt lat="43.16931" lon="-0.17563">
        <ele>437.54</ele>
        <time>2014-11-02T15:57:15Z</time>
      </trkpt>
      <trkpt lat="43.16932" lon="-0.17581">
        <ele>439.46</ele>
        <time>2014-11-02T15:57:27Z</time>
      </trkpt>
      <trkpt lat="43.16932" lon="-0.17595">
        <ele>440.9</ele>
        <time>2014-11-02T15:57:39Z</time>
      </trkpt>
      <trkpt lat="43.16932" lon="-0.17596">
        <ele>441.38</ele>
        <time>2014-11-02T15:57:43Z</time>
      </trkpt>
      <trkpt lat="43.16929" lon="-0.17609">
        <ele>443.31</ele>
        <time>2014-11-02T15:57:55Z</time>
      </trkpt>
      <trkpt lat="43.16923" lon="-0.17615">
        <ele>446.19</ele>
        <time>2014-11-02T15:58:08Z</time>
      </trkpt>
      <trkpt lat="43.16919" lon="-0.17619">
        <ele>449.55</ele>
        <time>2014-11-02T15:58:20Z</time>
      </trkpt>
      <trkpt lat="43.16919" lon="-0.17615">
        <ele>449.55</ele>
        <time>2014-11-02T15:58:28Z</time>
      </trkpt>
      <trkpt lat="43.16926" lon="-0.17627">
        <ele>449.07</ele>
        <time>2014-11-02T15:58:56Z</time>
      </trkpt>
      <trkpt lat="43.1692" lon="-0.17673">
        <ele>450.03</ele>
        <time>2014-11-02T15:59:30Z</time>
      </trkpt>
      <trkpt lat="43.16916" lon="-0.17676">
        <ele>451.96</ele>
        <time>2014-11-02T15:59:42Z</time>
      </trkpt>
      <trkpt lat="43.16912" lon="-0.17677">
        <ele>453.88</ele>
        <time>2014-11-02T15:59:54Z</time>
      </trkpt>
      <trkpt lat="43.16911" lon="-0.17678">
        <ele>454.36</ele>
        <time>2014-11-02T15:59:57Z</time>
      </trkpt>
      <trkpt lat="43.16904" lon="-0.1768">
        <ele>456.28</ele>
        <time>2014-11-02T16:00:04Z</time>
      </trkpt>
      <trkpt lat="43.16888" lon="-0.17687">
        <ele>458.69</ele>
        <time>2014-11-02T16:00:18Z</time>
      </trkpt>
      <trkpt lat="43.16871" lon="-0.17691">
        <ele>460.13</ele>
        <time>2014-11-02T16:00:28Z</time>
      </trkpt>
      <trkpt lat="43.16863" lon="-0.17695">
        <ele>462.53</ele>
        <time>2014-11-02T16:00:39Z</time>
      </trkpt>
      <trkpt lat="43.16852" lon="-0.17699">
        <ele>464.93</ele>
        <time>2014-11-02T16:00:51Z</time>
      </trkpt>
      <trkpt lat="43.1685" lon="-0.17699">
        <ele>465.42</ele>
        <time>2014-11-02T16:00:53Z</time>
      </trkpt>
      <trkpt lat="43.16829" lon="-0.17704">
        <ele>467.82</ele>
        <time>2014-11-02T16:01:09Z</time>
      </trkpt>
      <trkpt lat="43.16822" lon="-0.17709">
        <ele>468.3</ele>
        <time>2014-11-02T16:01:13Z</time>
      </trkpt>
      <trkpt lat="43.16816" lon="-0.17722">
        <ele>467.82</ele>
        <time>2014-11-02T16:01:21Z</time>
      </trkpt>
      <trkpt lat="43.16819" lon="-0.17739">
        <ele>468.3</ele>
        <time>2014-11-02T16:01:30Z</time>
      </trkpt>
      <trkpt lat="43.16819" lon="-0.17743">
        <ele>468.3</ele>
        <time>2014-11-02T16:01:32Z</time>
      </trkpt>
      <trkpt lat="43.16822" lon="-0.17757">
        <ele>469.26</ele>
        <time>2014-11-02T16:01:39Z</time>
      </trkpt>
      <trkpt lat="43.16819" lon="-0.17776">
        <ele>469.74</ele>
        <time>2014-11-02T16:01:50Z</time>
      </trkpt>
      <trkpt lat="43.16816" lon="-0.17789">
        <ele>469.74</ele>
        <time>2014-11-02T16:02:01Z</time>
      </trkpt>
      <trkpt lat="43.16817" lon="-0.17804">
        <ele>469.26</ele>
        <time>2014-11-02T16:02:32Z</time>
      </trkpt>
      <trkpt lat="43.16816" lon="-0.17805">
        <ele>472.63</ele>
        <time>2014-11-02T16:02:43Z</time>
      </trkpt>
      <trkpt lat="43.16816" lon="-0.17805">
        <ele>468.78</ele>
        <time>2014-11-02T16:02:45Z</time>
      </trkpt>
      <trkpt lat="43.16815" lon="-0.17807">
        <ele>465.9</ele>
        <time>2014-11-02T16:02:52Z</time>
      </trkpt>
      <trkpt lat="43.16815" lon="-0.17808">
        <ele>469.74</ele>
        <time>2014-11-02T16:02:53Z</time>
      </trkpt>
      <trkpt lat="43.16815" lon="-0.1781">
        <ele>470.7</ele>
        <time>2014-11-02T16:03:03Z</time>
      </trkpt>
      <trkpt lat="43.16815" lon="-0.17814">
        <ele>467.82</ele>
        <time>2014-11-02T16:03:16Z</time>
      </trkpt>
      <trkpt lat="43.16815" lon="-0.17814">
        <ele>471.18</ele>
        <time>2014-11-02T16:03:21Z</time>
      </trkpt>
      <trkpt lat="43.16815" lon="-0.17814">
        <ele>467.82</ele>
        <time>2014-11-02T16:03:22Z</time>
      </trkpt>
      <trkpt lat="43.16815" lon="-0.17814">
        <ele>467.82</ele>
        <time>2014-11-02T16:03:23Z</time>
      </trkpt>
      <trkpt lat="43.16814" lon="-0.17815">
        <ele>471.66</ele>
        <time>2014-11-02T16:03:34Z</time>
      </trkpt>
      <trkpt lat="43.16815" lon="-0.17815">
        <ele>466.86</ele>
        <time>2014-11-02T16:03:38Z</time>
      </trkpt>
      <trkpt lat="43.16815" lon="-0.17815">
        <ele>470.22</ele>
        <time>2014-11-02T16:03:41Z</time>
      </trkpt>
      <trkpt lat="43.16815" lon="-0.17815">
        <ele>467.82</ele>
        <time>2014-11-02T16:03:56Z</time>
      </trkpt>
      <trkpt lat="43.16815" lon="-0.17815">
        <ele>469.26</ele>
        <time>2014-11-02T16:03:59Z</time>
      </trkpt>
      <trkpt lat="43.16815" lon="-0.17817">
        <ele>467.82</ele>
        <time>2014-11-02T16:04:23Z</time>
      </trkpt>
      <trkpt lat="43.16815" lon="-0.17817">
        <ele>468.78</ele>
        <time>2014-11-02T16:04:24Z</time>
      </trkpt>
      <trkpt lat="43.16815" lon="-0.17817">
        <ele>468.78</ele>
        <time>2014-11-02T16:04:33Z</time>
      </trkpt>
      <trkpt lat="43.16814" lon="-0.17818">
        <ele>468.3</ele>
        <time>2014-11-02T16:04:43Z</time>
      </trkpt>
      <trkpt lat="43.16814" lon="-0.1782">
        <ele>469.74</ele>
        <time>2014-11-02T16:05:05Z</time>
      </trkpt>
      <trkpt lat="43.16814" lon="-0.1782">
        <ele>465.42</ele>
        <time>2014-11-02T16:05:09Z</time>
      </trkpt>
      <trkpt lat="43.16814" lon="-0.1782">
        <ele>468.78</ele>
        <time>2014-11-02T16:05:10Z</time>
      </trkpt>
      <trkpt lat="43.16814" lon="-0.17821">
        <ele>466.86</ele>
        <time>2014-11-02T16:05:13Z</time>
      </trkpt>
      <trkpt lat="43.16814" lon="-0.17821">
        <ele>470.22</ele>
        <time>2014-11-02T16:05:16Z</time>
      </trkpt>
      <trkpt lat="43.16814" lon="-0.17821">
        <ele>466.38</ele>
        <time>2014-11-02T16:05:17Z</time>
      </trkpt>
      <trkpt lat="43.16815" lon="-0.17821">
        <ele>468.3</ele>
        <time>2014-11-02T16:05:25Z</time>
      </trkpt>
      <trkpt lat="43.16815" lon="-0.17821">
        <ele>465.42</ele>
        <time>2014-11-02T16:05:33Z</time>
      </trkpt>
      <trkpt lat="43.16814" lon="-0.17821">
        <ele>469.26</ele>
        <time>2014-11-02T16:05:35Z</time>
      </trkpt>
      <trkpt lat="43.16814" lon="-0.17821">
        <ele>469.26</ele>
        <time>2014-11-02T16:05:36Z</time>
      </trkpt>
      <trkpt lat="43.16814" lon="-0.17821">
        <ele>467.82</ele>
        <time>2014-11-02T16:05:49Z</time>
      </trkpt>
      <trkpt lat="43.16813" lon="-0.1782">
        <ele>470.22</ele>
        <time>2014-11-02T16:06:15Z</time>
      </trkpt>
      <trkpt lat="43.16813" lon="-0.1782">
        <ele>466.38</ele>
        <time>2014-11-02T16:06:17Z</time>
      </trkpt>
      <trkpt lat="43.16813" lon="-0.1782">
        <ele>468.3</ele>
        <time>2014-11-02T16:06:21Z</time>
      </trkpt>
      <trkpt lat="43.16813" lon="-0.1782">
        <ele>465.42</ele>
        <time>2014-11-02T16:06:24Z</time>
      </trkpt>
      <trkpt lat="43.16813" lon="-0.1782">
        <ele>465.9</ele>
        <time>2014-11-02T16:06:25Z</time>
      </trkpt>
      <trkpt lat="43.16813" lon="-0.1782">
        <ele>467.34</ele>
        <time>2014-11-02T16:06:32Z</time>
      </trkpt>
      <trkpt lat="43.16813" lon="-0.1782">
        <ele>464.93</ele>
        <time>2014-11-02T16:06:34Z</time>
      </trkpt>
      <trkpt lat="43.16813" lon="-0.1782">
        <ele>467.82</ele>
        <time>2014-11-02T16:06:38Z</time>
      </trkpt>
      <trkpt lat="43.16813" lon="-0.1782">
        <ele>467.34</ele>
        <time>2014-11-02T16:07:01Z</time>
      </trkpt>
      <trkpt lat="43.16813" lon="-0.17819">
        <ele>466.86</ele>
        <time>2014-11-02T16:07:10Z</time>
      </trkpt>
      <trkpt lat="43.16811" lon="-0.17823">
        <ele>466.38</ele>
        <time>2014-11-02T16:07:14Z</time>
      </trkpt>
      <trkpt lat="43.16795" lon="-0.17842">
        <ele>464.93</ele>
        <time>2014-11-02T16:07:26Z</time>
      </trkpt>
      <trkpt lat="43.1678" lon="-0.17859">
        <ele>461.57</ele>
        <time>2014-11-02T16:07:31Z</time>
      </trkpt>
      <trkpt lat="43.16773" lon="-0.17866">
        <ele>460.13</ele>
        <time>2014-11-02T16:07:33Z</time>
      </trkpt>
      <trkpt lat="43.1677" lon="-0.1787">
        <ele>459.17</ele>
        <time>2014-11-02T16:07:34Z</time>
      </trkpt>
      <trkpt lat="43.16765" lon="-0.17875">
        <ele>457.72</ele>
        <time>2014-11-02T16:07:35Z</time>
      </trkpt>
      <trkpt lat="43.1676" lon="-0.1788">
        <ele>457.24</ele>
        <time>2014-11-02T16:07:36Z</time>
      </trkpt>
      <trkpt lat="43.16754" lon="-0.17885">
        <ele>456.28</ele>
        <time>2014-11-02T16:07:37Z</time>
      </trkpt>
      <trkpt lat="43.16742" lon="-0.17898">
        <ele>455.32</ele>
        <time>2014-11-02T16:07:39Z</time>
      </trkpt>
      <trkpt lat="43.16735" lon="-0.17905">
        <ele>452.92</ele>
        <time>2014-11-02T16:07:40Z</time>
      </trkpt>
      <trkpt lat="43.16728" lon="-0.17913">
        <ele>453.4</ele>
        <time>2014-11-02T16:07:41Z</time>
      </trkpt>
      <trkpt lat="43.16694" lon="-0.1795">
        <ele>451.96</ele>
        <time>2014-11-02T16:07:46Z</time>
      </trkpt>
      <trkpt lat="43.16672" lon="-0.17971">
        <ele>449.07</ele>
        <time>2014-11-02T16:07:53Z</time>
      </trkpt>
      <trkpt lat="43.16672" lon="-0.17972">
        <ele>449.07</ele>
        <time>2014-11-02T16:07:54Z</time>
      </trkpt>
      <trkpt lat="43.16664" lon="-0.17975">
        <ele>449.07</ele>
        <time>2014-11-02T16:08:04Z</time>
      </trkpt>
      <trkpt lat="43.16665" lon="-0.17977">
        <ele>448.59</ele>
        <time>2014-11-02T16:08:07Z</time>
      </trkpt>
      <trkpt lat="43.16666" lon="-0.17977">
        <ele>449.55</ele>
        <time>2014-11-02T16:08:09Z</time>
      </trkpt>
      <trkpt lat="43.16665" lon="-0.17976">
        <ele>449.07</ele>
        <time>2014-11-02T16:08:10Z</time>
      </trkpt>
      <trkpt lat="43.16663" lon="-0.17974">
        <ele>450.03</ele>
        <time>2014-11-02T16:08:13Z</time>
      </trkpt>
      <trkpt lat="43.16661" lon="-0.17974">
        <ele>449.55</ele>
        <time>2014-11-02T16:08:14Z</time>
      </trkpt>
      <trkpt lat="43.16658" lon="-0.17977">
        <ele>449.55</ele>
        <time>2014-11-02T16:08:15Z</time>
      </trkpt>
      <trkpt lat="43.16656" lon="-0.1798">
        <ele>449.07</ele>
        <time>2014-11-02T16:08:16Z</time>
      </trkpt>
      <trkpt lat="43.16652" lon="-0.17984">
        <ele>448.59</ele>
        <time>2014-11-02T16:08:17Z</time>
      </trkpt>
      <trkpt lat="43.16648" lon="-0.17988">
        <ele>448.11</ele>
        <time>2014-11-02T16:08:18Z</time>
      </trkpt>
      <trkpt lat="43.16643" lon="-0.17994">
        <ele>447.15</ele>
        <time>2014-11-02T16:08:19Z</time>
      </trkpt>
      <trkpt lat="43.16619" lon="-0.1802">
        <ele>443.31</ele>
        <time>2014-11-02T16:08:23Z</time>
      </trkpt>
      <trkpt lat="43.16592" lon="-0.18053">
        <ele>438.5</ele>
        <time>2014-11-02T16:08:27Z</time>
      </trkpt>
      <trkpt lat="43.16566" lon="-0.18081">
        <ele>435.61</ele>
        <time>2014-11-02T16:08:31Z</time>
      </trkpt>
      <trkpt lat="43.1655" lon="-0.18097">
        <ele>432.25</ele>
        <time>2014-11-02T16:08:34Z</time>
      </trkpt>
      <trkpt lat="43.16544" lon="-0.18101">
        <ele>429.85</ele>
        <time>2014-11-02T16:08:35Z</time>
      </trkpt>
      <trkpt lat="43.1654" lon="-0.18104">
        <ele>430.33</ele>
        <time>2014-11-02T16:08:36Z</time>
      </trkpt>
      <trkpt lat="43.16534" lon="-0.18108">
        <ele>428.89</ele>
        <time>2014-11-02T16:08:39Z</time>
      </trkpt>
      <trkpt lat="43.16531" lon="-0.18109">
        <ele>428.4</ele>
        <time>2014-11-02T16:08:40Z</time>
      </trkpt>
      <trkpt lat="43.16528" lon="-0.1811">
        <ele>427.92</ele>
        <time>2014-11-02T16:08:41Z</time>
      </trkpt>
      <trkpt lat="43.16524" lon="-0.18111">
        <ele>427.44</ele>
        <time>2014-11-02T16:08:42Z</time>
      </trkpt>
      <trkpt lat="43.16519" lon="-0.18112">
        <ele>426.96</ele>
        <time>2014-11-02T16:08:43Z</time>
      </trkpt>
      <trkpt lat="43.16513" lon="-0.18112">
        <ele>426.48</ele>
        <time>2014-11-02T16:08:44Z</time>
      </trkpt>
      <trkpt lat="43.16507" lon="-0.18113">
        <ele>425.04</ele>
        <time>2014-11-02T16:08:45Z</time>
      </trkpt>
      <trkpt lat="43.16501" lon="-0.18112">
        <ele>424.08</ele>
        <time>2014-11-02T16:08:46Z</time>
      </trkpt>
      <trkpt lat="43.16497" lon="-0.18109">
        <ele>423.6</ele>
        <time>2014-11-02T16:08:47Z</time>
      </trkpt>
      <trkpt lat="43.16492" lon="-0.18105">
        <ele>423.12</ele>
        <time>2014-11-02T16:08:48Z</time>
      </trkpt>
      <trkpt lat="43.16475" lon="-0.18088">
        <ele>419.75</ele>
        <time>2014-11-02T16:08:51Z</time>
      </trkpt>
      <trkpt lat="43.16469" lon="-0.18083">
        <ele>418.31</ele>
        <time>2014-11-02T16:08:52Z</time>
      </trkpt>
      <trkpt lat="43.16462" lon="-0.18079">
        <ele>416.87</ele>
        <time>2014-11-02T16:08:53Z</time>
      </trkpt>
      <trkpt lat="43.16456" lon="-0.18076">
        <ele>415.91</ele>
        <time>2014-11-02T16:08:54Z</time>
      </trkpt>
      <trkpt lat="43.1645" lon="-0.18077">
        <ele>415.43</ele>
        <time>2014-11-02T16:08:55Z</time>
      </trkpt>
      <trkpt lat="43.16444" lon="-0.18078">
        <ele>414.95</ele>
        <time>2014-11-02T16:08:56Z</time>
      </trkpt>
      <trkpt lat="43.16437" lon="-0.18079">
        <ele>413.98</ele>
        <time>2014-11-02T16:08:57Z</time>
      </trkpt>
      <trkpt lat="43.1643" lon="-0.18082">
        <ele>413.5</ele>
        <time>2014-11-02T16:08:58Z</time>
      </trkpt>
      <trkpt lat="43.16416" lon="-0.1809">
        <ele>411.1</ele>
        <time>2014-11-02T16:09:00Z</time>
      </trkpt>
      <trkpt lat="43.16402" lon="-0.18101">
        <ele>406.77</ele>
        <time>2014-11-02T16:09:03Z</time>
      </trkpt>
      <trkpt lat="43.16399" lon="-0.18105">
        <ele>407.74</ele>
        <time>2014-11-02T16:09:04Z</time>
      </trkpt>
      <trkpt lat="43.16396" lon="-0.18111">
        <ele>407.26</ele>
        <time>2014-11-02T16:09:05Z</time>
      </trkpt>
      <trkpt lat="43.16392" lon="-0.18117">
        <ele>405.33</ele>
        <time>2014-11-02T16:09:06Z</time>
      </trkpt>
      <trkpt lat="43.1639" lon="-0.18124">
        <ele>403.89</ele>
        <time>2014-11-02T16:09:07Z</time>
      </trkpt>
      <trkpt lat="43.16383" lon="-0.18153">
        <ele>399.08</ele>
        <time>2014-11-02T16:09:10Z</time>
      </trkpt>
      <trkpt lat="43.16379" lon="-0.18163">
        <ele>398.6</ele>
        <time>2014-11-02T16:09:11Z</time>
      </trkpt>
      <trkpt lat="43.16373" lon="-0.18172">
        <ele>397.16</ele>
        <time>2014-11-02T16:09:12Z</time>
      </trkpt>
      <trkpt lat="43.16363" lon="-0.18187">
        <ele>395.24</ele>
        <time>2014-11-02T16:09:14Z</time>
      </trkpt>
      <trkpt lat="43.16357" lon="-0.18192">
        <ele>393.8</ele>
        <time>2014-11-02T16:09:15Z</time>
      </trkpt>
      <trkpt lat="43.1635" lon="-0.18195">
        <ele>392.84</ele>
        <time>2014-11-02T16:09:16Z</time>
      </trkpt>
      <trkpt lat="43.16338" lon="-0.18198">
        <ele>390.43</ele>
        <time>2014-11-02T16:09:18Z</time>
      </trkpt>
      <trkpt lat="43.16318" lon="-0.18199">
        <ele>388.51</ele>
        <time>2014-11-02T16:09:21Z</time>
      </trkpt>
      <trkpt lat="43.16305" lon="-0.18201">
        <ele>386.59</ele>
        <time>2014-11-02T16:09:23Z</time>
      </trkpt>
      <trkpt lat="43.163" lon="-0.18204">
        <ele>385.63</ele>
        <time>2014-11-02T16:09:24Z</time>
      </trkpt>
      <trkpt lat="43.16277" lon="-0.18224">
        <ele>381.78</ele>
        <time>2014-11-02T16:09:28Z</time>
      </trkpt>
      <trkpt lat="43.16269" lon="-0.18229">
        <ele>380.82</ele>
        <time>2014-11-02T16:09:29Z</time>
      </trkpt>
      <trkpt lat="43.16257" lon="-0.1824">
        <ele>377.45</ele>
        <time>2014-11-02T16:09:31Z</time>
      </trkpt>
      <trkpt lat="43.16245" lon="-0.18251">
        <ele>375.53</ele>
        <time>2014-11-02T16:09:33Z</time>
      </trkpt>
      <trkpt lat="43.16241" lon="-0.18259">
        <ele>374.57</ele>
        <time>2014-11-02T16:09:34Z</time>
      </trkpt>
      <trkpt lat="43.16236" lon="-0.18266">
        <ele>373.13</ele>
        <time>2014-11-02T16:09:35Z</time>
      </trkpt>
      <trkpt lat="43.16232" lon="-0.18273">
        <ele>372.17</ele>
        <time>2014-11-02T16:09:36Z</time>
      </trkpt>
      <trkpt lat="43.16228" lon="-0.18279">
        <ele>370.73</ele>
        <time>2014-11-02T16:09:37Z</time>
      </trkpt>
      <trkpt lat="43.16223" lon="-0.18284">
        <ele>369.76</ele>
        <time>2014-11-02T16:09:38Z</time>
      </trkpt>
      <trkpt lat="43.16216" lon="-0.18287">
        <ele>368.8</ele>
        <time>2014-11-02T16:09:39Z</time>
      </trkpt>
      <trkpt lat="43.1621" lon="-0.18289">
        <ele>368.8</ele>
        <time>2014-11-02T16:09:40Z</time>
      </trkpt>
      <trkpt lat="43.16196" lon="-0.18294">
        <ele>366.88</ele>
        <time>2014-11-02T16:09:42Z</time>
      </trkpt>
      <trkpt lat="43.16189" lon="-0.18299">
        <ele>365.44</ele>
        <time>2014-11-02T16:09:43Z</time>
      </trkpt>
      <trkpt lat="43.16182" lon="-0.18305">
        <ele>364.48</ele>
        <time>2014-11-02T16:09:44Z</time>
      </trkpt>
      <trkpt lat="43.16176" lon="-0.18309">
        <ele>363.52</ele>
        <time>2014-11-02T16:09:45Z</time>
      </trkpt>
      <trkpt lat="43.16171" lon="-0.18311">
        <ele>363.04</ele>
        <time>2014-11-02T16:09:46Z</time>
      </trkpt>
      <trkpt lat="43.16165" lon="-0.18313">
        <ele>362.55</ele>
        <time>2014-11-02T16:09:47Z</time>
      </trkpt>
      <trkpt lat="43.1616" lon="-0.18316">
        <ele>362.07</ele>
        <time>2014-11-02T16:09:48Z</time>
      </trkpt>
      <trkpt lat="43.16154" lon="-0.18319">
        <ele>362.07</ele>
        <time>2014-11-02T16:09:49Z</time>
      </trkpt>
      <trkpt lat="43.16149" lon="-0.18322">
        <ele>361.59</ele>
        <time>2014-11-02T16:09:50Z</time>
      </trkpt>
      <trkpt lat="43.16143" lon="-0.18325">
        <ele>361.59</ele>
        <time>2014-11-02T16:09:51Z</time>
      </trkpt>
      <trkpt lat="43.16138" lon="-0.18329">
        <ele>361.11</ele>
        <time>2014-11-02T16:09:52Z</time>
      </trkpt>
      <trkpt lat="43.16132" lon="-0.18335">
        <ele>360.63</ele>
        <time>2014-11-02T16:09:53Z</time>
      </trkpt>
      <trkpt lat="43.16127" lon="-0.1834">
        <ele>360.15</ele>
        <time>2014-11-02T16:09:54Z</time>
      </trkpt>
      <trkpt lat="43.16122" lon="-0.18346">
        <ele>359.67</ele>
        <time>2014-11-02T16:09:55Z</time>
      </trkpt>
      <trkpt lat="43.16118" lon="-0.18353">
        <ele>359.19</ele>
        <time>2014-11-02T16:09:56Z</time>
      </trkpt>
      <trkpt lat="43.16109" lon="-0.18364">
        <ele>357.27</ele>
        <time>2014-11-02T16:09:58Z</time>
      </trkpt>
      <trkpt lat="43.16105" lon="-0.1837">
        <ele>358.23</ele>
        <time>2014-11-02T16:09:59Z</time>
      </trkpt>
      <trkpt lat="43.16097" lon="-0.18384">
        <ele>357.27</ele>
        <time>2014-11-02T16:10:01Z</time>
      </trkpt>
      <trkpt lat="43.16086" lon="-0.18396">
        <ele>356.79</ele>
        <time>2014-11-02T16:10:03Z</time>
      </trkpt>
      <trkpt lat="43.16061" lon="-0.18421">
        <ele>354.86</ele>
        <time>2014-11-02T16:10:07Z</time>
      </trkpt>
      <trkpt lat="43.16057" lon="-0.18427">
        <ele>354.38</ele>
        <time>2014-11-02T16:10:08Z</time>
      </trkpt>
      <trkpt lat="43.16041" lon="-0.18449">
        <ele>352.94</ele>
        <time>2014-11-02T16:10:11Z</time>
      </trkpt>
      <trkpt lat="43.16036" lon="-0.18457">
        <ele>352.46</ele>
        <time>2014-11-02T16:10:12Z</time>
      </trkpt>
      <trkpt lat="43.16023" lon="-0.18484">
        <ele>348.13</ele>
        <time>2014-11-02T16:10:16Z</time>
      </trkpt>
      <trkpt lat="43.16011" lon="-0.18499">
        <ele>347.65</ele>
        <time>2014-11-02T16:10:22Z</time>
      </trkpt>
      <trkpt lat="43.1601" lon="-0.18501">
        <ele>347.65</ele>
        <time>2014-11-02T16:10:23Z</time>
      </trkpt>
      <trkpt lat="43.16" lon="-0.18499">
        <ele>350.06</ele>
        <time>2014-11-02T16:10:31Z</time>
      </trkpt>
      <trkpt lat="43.15999" lon="-0.18498">
        <ele>350.06</ele>
        <time>2014-11-02T16:10:32Z</time>
      </trkpt>
      <trkpt lat="43.15996" lon="-0.18497">
        <ele>351.02</ele>
        <time>2014-11-02T16:10:33Z</time>
      </trkpt>
      <trkpt lat="43.15993" lon="-0.18495">
        <ele>351.02</ele>
        <time>2014-11-02T16:10:34Z</time>
      </trkpt>
      <trkpt lat="43.1599" lon="-0.18494">
        <ele>350.54</ele>
        <time>2014-11-02T16:10:35Z</time>
      </trkpt>
      <trkpt lat="43.15968" lon="-0.18472">
        <ele>352.46</ele>
        <time>2014-11-02T16:10:46Z</time>
      </trkpt>
      <trkpt lat="43.15943" lon="-0.18436">
        <ele>351.98</ele>
        <time>2014-11-02T16:10:58Z</time>
      </trkpt>
      <trkpt lat="43.15934" lon="-0.18424">
        <ele>351.5</ele>
        <time>2014-11-02T16:11:01Z</time>
      </trkpt>
      <trkpt lat="43.15927" lon="-0.18416">
        <ele>351.5</ele>
        <time>2014-11-02T16:11:03Z</time>
      </trkpt>
      <trkpt lat="43.15917" lon="-0.184">
        <ele>351.02</ele>
        <time>2014-11-02T16:11:06Z</time>
      </trkpt>
      <trkpt lat="43.15914" lon="-0.18394">
        <ele>350.54</ele>
        <time>2014-11-02T16:11:07Z</time>
      </trkpt>
      <trkpt lat="43.1591" lon="-0.18389">
        <ele>350.06</ele>
        <time>2014-11-02T16:11:08Z</time>
      </trkpt>
      <trkpt lat="43.15907" lon="-0.18384">
        <ele>350.54</ele>
        <time>2014-11-02T16:11:09Z</time>
      </trkpt>
      <trkpt lat="43.15904" lon="-0.18378">
        <ele>350.06</ele>
        <time>2014-11-02T16:11:10Z</time>
      </trkpt>
      <trkpt lat="43.15902" lon="-0.18373">
        <ele>349.58</ele>
        <time>2014-11-02T16:11:11Z</time>
      </trkpt>
      <trkpt lat="43.15899" lon="-0.18368">
        <ele>350.06</ele>
        <time>2014-11-02T16:11:12Z</time>
      </trkpt>
      <trkpt lat="43.15896" lon="-0.18364">
        <ele>350.06</ele>
        <time>2014-11-02T16:11:13Z</time>
      </trkpt>
      <trkpt lat="43.15892" lon="-0.18361">
        <ele>349.58</ele>
        <time>2014-11-02T16:11:14Z</time>
      </trkpt>
      <trkpt lat="43.15888" lon="-0.18357">
        <ele>349.58</ele>
        <time>2014-11-02T16:11:15Z</time>
      </trkpt>
      <trkpt lat="43.15875" lon="-0.18339">
        <ele>349.1</ele>
        <time>2014-11-02T16:11:19Z</time>
      </trkpt>
      <trkpt lat="43.15831" lon="-0.18279">
        <ele>349.58</ele>
        <time>2014-11-02T16:11:31Z</time>
      </trkpt>
      <trkpt lat="43.15807" lon="-0.18241">
        <ele>352.46</ele>
        <time>2014-11-02T16:11:41Z</time>
      </trkpt>
      <trkpt lat="43.15783" lon="-0.18191">
        <ele>354.38</ele>
        <time>2014-11-02T16:11:52Z</time>
      </trkpt>
      <trkpt lat="43.15758" lon="-0.18125">
        <ele>354.86</ele>
        <time>2014-11-02T16:12:05Z</time>
      </trkpt>
      <trkpt lat="43.15746" lon="-0.18068">
        <ele>355.83</ele>
        <time>2014-11-02T16:12:16Z</time>
      </trkpt>
      <trkpt lat="43.15735" lon="-0.18016">
        <ele>355.83</ele>
        <time>2014-11-02T16:12:29Z</time>
      </trkpt>
      <trkpt lat="43.15734" lon="-0.18013">
        <ele>356.31</ele>
        <time>2014-11-02T16:12:30Z</time>
      </trkpt>
      <trkpt lat="43.15733" lon="-0.1801">
        <ele>356.31</ele>
        <time>2014-11-02T16:12:31Z</time>
      </trkpt>
      <trkpt lat="43.15732" lon="-0.18007">
        <ele>356.31</ele>
        <time>2014-11-02T16:12:32Z</time>
      </trkpt>
      <trkpt lat="43.15732" lon="-0.18002">
        <ele>356.79</ele>
        <time>2014-11-02T16:12:35Z</time>
      </trkpt>
      <trkpt lat="43.15732" lon="-0.17983">
        <ele>357.27</ele>
        <time>2014-11-02T16:12:44Z</time>
      </trkpt>
      <trkpt lat="43.15732" lon="-0.1798">
        <ele>357.27</ele>
        <time>2014-11-02T16:12:45Z</time>
      </trkpt>
      <trkpt lat="43.15733" lon="-0.17976">
        <ele>357.75</ele>
        <time>2014-11-02T16:12:48Z</time>
      </trkpt>
      <trkpt lat="43.15734" lon="-0.17972">
        <ele>357.75</ele>
        <time>2014-11-02T16:12:50Z</time>
      </trkpt>
      <trkpt lat="43.1574" lon="-0.17955">
        <ele>358.71</ele>
        <time>2014-11-02T16:12:58Z</time>
      </trkpt>
      <trkpt lat="43.1574" lon="-0.17953">
        <ele>358.71</ele>
        <time>2014-11-02T16:12:59Z</time>
      </trkpt>
      <trkpt lat="43.15742" lon="-0.17949">
        <ele>359.67</ele>
        <time>2014-11-02T16:13:02Z</time>
      </trkpt>
      <trkpt lat="43.15742" lon="-0.17947">
        <ele>360.15</ele>
        <time>2014-11-02T16:13:03Z</time>
      </trkpt>
      <trkpt lat="43.15743" lon="-0.17945">
        <ele>359.67</ele>
        <time>2014-11-02T16:13:04Z</time>
      </trkpt>
      <trkpt lat="43.15744" lon="-0.17944">
        <ele>359.67</ele>
        <time>2014-11-02T16:13:05Z</time>
      </trkpt>
      <trkpt lat="43.15745" lon="-0.17943">
        <ele>360.15</ele>
        <time>2014-11-02T16:13:06Z</time>
      </trkpt>
      <trkpt lat="43.15755" lon="-0.17919">
        <ele>363.04</ele>
        <time>2014-11-02T16:13:20Z</time>
      </trkpt>
      <trkpt lat="43.15763" lon="-0.17912">
        <ele>364.96</ele>
        <time>2014-11-02T16:13:29Z</time>
      </trkpt>
      <trkpt lat="43.1577" lon="-0.17907">
        <ele>365.44</ele>
        <time>2014-11-02T16:13:35Z</time>
      </trkpt>
      <trkpt lat="43.15781" lon="-0.17899">
        <ele>367.36</ele>
        <time>2014-11-02T16:13:46Z</time>
      </trkpt>
      <trkpt lat="43.15786" lon="-0.17895">
        <ele>368.32</ele>
        <time>2014-11-02T16:13:51Z</time>
      </trkpt>
      <trkpt lat="43.158" lon="-0.1789">
        <ele>371.21</ele>
        <time>2014-11-02T16:14:03Z</time>
      </trkpt>
      <trkpt lat="43.15811" lon="-0.1789">
        <ele>372.65</ele>
        <time>2014-11-02T16:14:16Z</time>
      </trkpt>
      <trkpt lat="43.15824" lon="-0.17892">
        <ele>375.05</ele>
        <time>2014-11-02T16:14:30Z</time>
      </trkpt>
      <trkpt lat="43.15832" lon="-0.1789">
        <ele>375.53</ele>
        <time>2014-11-02T16:14:39Z</time>
      </trkpt>
      <trkpt lat="43.15842" lon="-0.17885">
        <ele>377.45</ele>
        <time>2014-11-02T16:14:49Z</time>
      </trkpt>
      <trkpt lat="43.15845" lon="-0.17882">
        <ele>377.45</ele>
        <time>2014-11-02T16:14:51Z</time>
      </trkpt>
      <trkpt lat="43.15849" lon="-0.17879">
        <ele>378.42</ele>
        <time>2014-11-02T16:14:54Z</time>
      </trkpt>
      <trkpt lat="43.15856" lon="-0.17874">
        <ele>378.9</ele>
        <time>2014-11-02T16:15:00Z</time>
      </trkpt>
      <trkpt lat="43.15871" lon="-0.17862">
        <ele>380.82</ele>
        <time>2014-11-02T16:15:13Z</time>
      </trkpt>
      <trkpt lat="43.15874" lon="-0.17861">
        <ele>381.3</ele>
        <time>2014-11-02T16:15:15Z</time>
      </trkpt>
      <trkpt lat="43.15887" lon="-0.17855">
        <ele>382.74</ele>
        <time>2014-11-02T16:15:26Z</time>
      </trkpt>
      <trkpt lat="43.15902" lon="-0.17839">
        <ele>384.18</ele>
        <time>2014-11-02T16:15:38Z</time>
      </trkpt>
      <trkpt lat="43.15921" lon="-0.17833">
        <ele>386.11</ele>
        <time>2014-11-02T16:15:51Z</time>
      </trkpt>
      <trkpt lat="43.15925" lon="-0.17831">
        <ele>386.11</ele>
        <time>2014-11-02T16:15:55Z</time>
      </trkpt>
      <trkpt lat="43.15928" lon="-0.17828">
        <ele>386.59</ele>
        <time>2014-11-02T16:15:58Z</time>
      </trkpt>
      <trkpt lat="43.1593" lon="-0.17825">
        <ele>386.59</ele>
        <time>2014-11-02T16:16:00Z</time>
      </trkpt>
      <trkpt lat="43.15942" lon="-0.17808">
        <ele>388.51</ele>
        <time>2014-11-02T16:16:12Z</time>
      </trkpt>
      <trkpt lat="43.15949" lon="-0.17793">
        <ele>389.47</ele>
        <time>2014-11-02T16:16:21Z</time>
      </trkpt>
      <trkpt lat="43.1595" lon="-0.17789">
        <ele>389.95</ele>
        <time>2014-11-02T16:16:23Z</time>
      </trkpt>
      <trkpt lat="43.15954" lon="-0.17783">
        <ele>389.95</ele>
        <time>2014-11-02T16:16:27Z</time>
      </trkpt>
      <trkpt lat="43.15956" lon="-0.1778">
        <ele>390.43</ele>
        <time>2014-11-02T16:16:29Z</time>
      </trkpt>
      <trkpt lat="43.15959" lon="-0.17776">
        <ele>391.39</ele>
        <time>2014-11-02T16:16:33Z</time>
      </trkpt>
      <trkpt lat="43.15971" lon="-0.17765">
        <ele>393.32</ele>
        <time>2014-11-02T16:16:46Z</time>
      </trkpt>
      <trkpt lat="43.15973" lon="-0.17761">
        <ele>394.28</ele>
        <time>2014-11-02T16:16:50Z</time>
      </trkpt>
      <trkpt lat="43.15981" lon="-0.17757">
        <ele>394.76</ele>
        <time>2014-11-02T16:16:57Z</time>
      </trkpt>
      <trkpt lat="43.15988" lon="-0.17754">
        <ele>395.72</ele>
        <time>2014-11-02T16:17:03Z</time>
      </trkpt>
      <trkpt lat="43.16004" lon="-0.17747">
        <ele>397.16</ele>
        <time>2014-11-02T16:17:12Z</time>
      </trkpt>
      <trkpt lat="43.16014" lon="-0.17746">
        <ele>398.6</ele>
        <time>2014-11-02T16:17:22Z</time>
      </trkpt>
      <trkpt lat="43.16024" lon="-0.17756">
        <ele>401.01</ele>
        <time>2014-11-02T16:17:34Z</time>
      </trkpt>
      <trkpt lat="43.16027" lon="-0.17758">
        <ele>401.01</ele>
        <time>2014-11-02T16:17:36Z</time>
      </trkpt>
      <trkpt lat="43.16034" lon="-0.17759">
        <ele>402.45</ele>
        <time>2014-11-02T16:17:44Z</time>
      </trkpt>
      <trkpt lat="43.16041" lon="-0.17759">
        <ele>402.93</ele>
        <time>2014-11-02T16:17:49Z</time>
      </trkpt>
      <trkpt lat="43.16052" lon="-0.17759">
        <ele>403.89</ele>
        <time>2014-11-02T16:17:56Z</time>
      </trkpt>
      <trkpt lat="43.16057" lon="-0.17759">
        <ele>404.85</ele>
        <time>2014-11-02T16:17:59Z</time>
      </trkpt>
      <trkpt lat="43.1608" lon="-0.17761">
        <ele>406.29</ele>
        <time>2014-11-02T16:18:11Z</time>
      </trkpt>
      <trkpt lat="43.16084" lon="-0.17761">
        <ele>406.77</ele>
        <time>2014-11-02T16:18:13Z</time>
      </trkpt>
      <trkpt lat="43.16103" lon="-0.17752">
        <ele>409.18</ele>
        <time>2014-11-02T16:18:26Z</time>
      </trkpt>
      <trkpt lat="43.16106" lon="-0.1775">
        <ele>409.66</ele>
        <time>2014-11-02T16:18:30Z</time>
      </trkpt>
      <trkpt lat="43.16117" lon="-0.17742">
        <ele>411.58</ele>
        <time>2014-11-02T16:18:42Z</time>
      </trkpt>
      <trkpt lat="43.16119" lon="-0.1774">
        <ele>411.58</ele>
        <time>2014-11-02T16:18:44Z</time>
      </trkpt>
      <trkpt lat="43.16132" lon="-0.17727">
        <ele>413.98</ele>
        <time>2014-11-02T16:19:00Z</time>
      </trkpt>
      <trkpt lat="43.1614" lon="-0.17722">
        <ele>415.43</ele>
        <time>2014-11-02T16:19:10Z</time>
      </trkpt>
      <trkpt lat="43.16151" lon="-0.17718">
        <ele>417.35</ele>
        <time>2014-11-02T16:19:20Z</time>
      </trkpt>
      <trkpt lat="43.16167" lon="-0.17717">
        <ele>419.75</ele>
        <time>2014-11-02T16:19:33Z</time>
      </trkpt>
      <trkpt lat="43.16179" lon="-0.17725">
        <ele>421.19</ele>
        <time>2014-11-02T16:19:47Z</time>
      </trkpt>
      <trkpt lat="43.16182" lon="-0.17726">
        <ele>421.68</ele>
        <time>2014-11-02T16:19:55Z</time>
      </trkpt>
      <trkpt lat="43.16185" lon="-0.17725">
        <ele>422.64</ele>
        <time>2014-11-02T16:19:59Z</time>
      </trkpt>
      <trkpt lat="43.16191" lon="-0.17724">
        <ele>422.64</ele>
        <time>2014-11-02T16:20:04Z</time>
      </trkpt>
      <trkpt lat="43.16199" lon="-0.1772">
        <ele>423.6</ele>
        <time>2014-11-02T16:20:12Z</time>
      </trkpt>
      <trkpt lat="43.16201" lon="-0.17719">
        <ele>424.56</ele>
        <time>2014-11-02T16:20:14Z</time>
      </trkpt>
      <trkpt lat="43.16206" lon="-0.1772">
        <ele>424.56</ele>
        <time>2014-11-02T16:20:19Z</time>
      </trkpt>
      <trkpt lat="43.16214" lon="-0.17715">
        <ele>425.52</ele>
        <time>2014-11-02T16:20:25Z</time>
      </trkpt>
      <trkpt lat="43.16217" lon="-0.17714">
        <ele>426</ele>
        <time>2014-11-02T16:20:27Z</time>
      </trkpt>
      <trkpt lat="43.16228" lon="-0.17699">
        <ele>427.44</ele>
        <time>2014-11-02T16:20:39Z</time>
      </trkpt>
      <trkpt lat="43.16237" lon="-0.17686">
        <ele>429.37</ele>
        <time>2014-11-02T16:20:49Z</time>
      </trkpt>
      <trkpt lat="43.16248" lon="-0.17674">
        <ele>430.33</ele>
        <time>2014-11-02T16:21:01Z</time>
      </trkpt>
      <trkpt lat="43.1625" lon="-0.1767">
        <ele>431.29</ele>
        <time>2014-11-02T16:21:04Z</time>
      </trkpt>
      <trkpt lat="43.16257" lon="-0.17661">
        <ele>432.25</ele>
        <time>2014-11-02T16:21:11Z</time>
      </trkpt>
      <trkpt lat="43.1626" lon="-0.17656">
        <ele>432.73</ele>
        <time>2014-11-02T16:21:15Z</time>
      </trkpt>
      <trkpt lat="43.16262" lon="-0.17654">
        <ele>433.69</ele>
        <time>2014-11-02T16:21:17Z</time>
      </trkpt>
      <trkpt lat="43.16266" lon="-0.17649">
        <ele>433.69</ele>
        <time>2014-11-02T16:21:22Z</time>
      </trkpt>
      <trkpt lat="43.16278" lon="-0.17638">
        <ele>435.61</ele>
        <time>2014-11-02T16:21:33Z</time>
      </trkpt>
      <trkpt lat="43.16278" lon="-0.17636">
        <ele>435.61</ele>
        <time>2014-11-02T16:21:34Z</time>
      </trkpt>
      <trkpt lat="43.16285" lon="-0.17631">
        <ele>436.58</ele>
        <time>2014-11-02T16:21:41Z</time>
      </trkpt>
      <trkpt lat="43.16295" lon="-0.17626">
        <ele>438.02</ele>
        <time>2014-11-02T16:21:49Z</time>
      </trkpt>
      <trkpt lat="43.16297" lon="-0.17624">
        <ele>438.02</ele>
        <time>2014-11-02T16:21:51Z</time>
      </trkpt>
      <trkpt lat="43.16308" lon="-0.17619">
        <ele>438.5</ele>
        <time>2014-11-02T16:22:03Z</time>
      </trkpt>
      <trkpt lat="43.1631" lon="-0.17618">
        <ele>438.98</ele>
        <time>2014-11-02T16:22:05Z</time>
      </trkpt>
      <trkpt lat="43.16315" lon="-0.17615">
        <ele>439.46</ele>
        <time>2014-11-02T16:22:08Z</time>
      </trkpt>
      <trkpt lat="43.1632" lon="-0.17613">
        <ele>439.46</ele>
        <time>2014-11-02T16:22:11Z</time>
      </trkpt>
      <trkpt lat="43.16335" lon="-0.17606">
        <ele>440.9</ele>
        <time>2014-11-02T16:22:23Z</time>
      </trkpt>
      <trkpt lat="43.16351" lon="-0.1759">
        <ele>444.27</ele>
        <time>2014-11-02T16:22:37Z</time>
      </trkpt>
      <trkpt lat="43.16353" lon="-0.17585">
        <ele>444.27</ele>
        <time>2014-11-02T16:22:41Z</time>
      </trkpt>
      <trkpt lat="43.16376" lon="-0.1757">
        <ele>446.19</ele>
        <time>2014-11-02T16:22:57Z</time>
      </trkpt>
      <trkpt lat="43.1638" lon="-0.17568">
        <ele>446.19</ele>
        <time>2014-11-02T16:23:00Z</time>
      </trkpt>
      <trkpt lat="43.16404" lon="-0.17559">
        <ele>448.59</ele>
        <time>2014-11-02T16:23:15Z</time>
      </trkpt>
      <trkpt lat="43.16423" lon="-0.17558">
        <ele>449.55</ele>
        <time>2014-11-02T16:23:27Z</time>
      </trkpt>
      <trkpt lat="43.16429" lon="-0.17559">
        <ele>450.52</ele>
        <time>2014-11-02T16:23:33Z</time>
      </trkpt>
      <trkpt lat="43.16451" lon="-0.17565">
        <ele>451.96</ele>
        <time>2014-11-02T16:23:49Z</time>
      </trkpt>
      <trkpt lat="43.16464" lon="-0.17572">
        <ele>453.4</ele>
        <time>2014-11-02T16:24:02Z</time>
      </trkpt>
      <trkpt lat="43.1647" lon="-0.17571">
        <ele>454.36</ele>
        <time>2014-11-02T16:24:08Z</time>
      </trkpt>
      <trkpt lat="43.16483" lon="-0.17563">
        <ele>457.24</ele>
        <time>2014-11-02T16:24:21Z</time>
      </trkpt>
      <trkpt lat="43.16487" lon="-0.17562">
        <ele>457.72</ele>
        <time>2014-11-02T16:24:25Z</time>
      </trkpt>
      <trkpt lat="43.16496" lon="-0.17553">
        <ele>459.65</ele>
        <time>2014-11-02T16:24:35Z</time>
      </trkpt>
      <trkpt lat="43.16502" lon="-0.17541">
        <ele>462.53</ele>
        <time>2014-11-02T16:24:48Z</time>
      </trkpt>
      <trkpt lat="43.16503" lon="-0.1754">
        <ele>462.05</ele>
        <time>2014-11-02T16:24:49Z</time>
      </trkpt>
      <trkpt lat="43.16506" lon="-0.17536">
        <ele>463.01</ele>
        <time>2014-11-02T16:24:52Z</time>
      </trkpt>
      <trkpt lat="43.16513" lon="-0.17525">
        <ele>464.45</ele>
        <time>2014-11-02T16:25:03Z</time>
      </trkpt>
      <trkpt lat="43.16523" lon="-0.17509">
        <ele>466.38</ele>
        <time>2014-11-02T16:25:15Z</time>
      </trkpt>
      <trkpt lat="43.1654" lon="-0.17503">
        <ele>467.82</ele>
        <time>2014-11-02T16:25:29Z</time>
      </trkpt>
      <trkpt lat="43.16558" lon="-0.17501">
        <ele>469.74</ele>
        <time>2014-11-02T16:25:43Z</time>
      </trkpt>
      <trkpt lat="43.16562" lon="-0.17501">
        <ele>470.22</ele>
        <time>2014-11-02T16:25:50Z</time>
      </trkpt>
      <trkpt lat="43.16569" lon="-0.17498">
        <ele>471.66</ele>
        <time>2014-11-02T16:25:57Z</time>
      </trkpt>
      <trkpt lat="43.1658" lon="-0.17489">
        <ele>474.07</ele>
        <time>2014-11-02T16:26:10Z</time>
      </trkpt>
      <trkpt lat="43.16583" lon="-0.17486">
        <ele>474.55</ele>
        <time>2014-11-02T16:26:14Z</time>
      </trkpt>
      <trkpt lat="43.1659" lon="-0.17477">
        <ele>475.51</ele>
        <time>2014-11-02T16:26:21Z</time>
      </trkpt>
      <trkpt lat="43.16594" lon="-0.17471">
        <ele>476.95</ele>
        <time>2014-11-02T16:26:25Z</time>
      </trkpt>
      <trkpt lat="43.16599" lon="-0.17454">
        <ele>478.87</ele>
        <time>2014-11-02T16:26:32Z</time>
      </trkpt>
      <trkpt lat="43.16609" lon="-0.17433">
        <ele>479.35</ele>
        <time>2014-11-02T16:26:45Z</time>
      </trkpt>
      <trkpt lat="43.16613" lon="-0.17427">
        <ele>479.35</ele>
        <time>2014-11-02T16:27:04Z</time>
      </trkpt>
      <trkpt lat="43.16618" lon="-0.17425">
        <ele>478.87</ele>
        <time>2014-11-02T16:27:18Z</time>
      </trkpt>
      <trkpt lat="43.1662" lon="-0.17424">
        <ele>478.39</ele>
        <time>2014-11-02T16:27:47Z</time>
      </trkpt>
      <trkpt lat="43.1662" lon="-0.17422">
        <ele>477.91</ele>
        <time>2014-11-02T16:28:05Z</time>
      </trkpt>
      <trkpt lat="43.16621" lon="-0.17423">
        <ele>477.91</ele>
        <time>2014-11-02T16:28:17Z</time>
      </trkpt>
      <trkpt lat="43.16621" lon="-0.17423">
        <ele>478.39</ele>
        <time>2014-11-02T16:28:18Z</time>
      </trkpt>
      <trkpt lat="43.16625" lon="-0.17424">
        <ele>478.87</ele>
        <time>2014-11-02T16:28:25Z</time>
      </trkpt>
      <trkpt lat="43.16639" lon="-0.1745">
        <ele>479.35</ele>
        <time>2014-11-02T16:28:37Z</time>
      </trkpt>
      <trkpt lat="43.16655" lon="-0.17487">
        <ele>479.84</ele>
        <time>2014-11-02T16:28:49Z</time>
      </trkpt>
      <trkpt lat="43.16672" lon="-0.17522">
        <ele>479.35</ele>
        <time>2014-11-02T16:29:00Z</time>
      </trkpt>
      <trkpt lat="43.16687" lon="-0.17562">
        <ele>477.91</ele>
        <time>2014-11-02T16:29:11Z</time>
      </trkpt>
      <trkpt lat="43.16698" lon="-0.17588">
        <ele>476.47</ele>
        <time>2014-11-02T16:29:16Z</time>
      </trkpt>
      <trkpt lat="43.167" lon="-0.17595">
        <ele>475.99</ele>
        <time>2014-11-02T16:29:17Z</time>
      </trkpt>
      <trkpt lat="43.16702" lon="-0.17601">
        <ele>475.51</ele>
        <time>2014-11-02T16:29:18Z</time>
      </trkpt>
      <trkpt lat="43.16708" lon="-0.17614">
        <ele>475.03</ele>
        <time>2014-11-02T16:29:20Z</time>
      </trkpt>
      <trkpt lat="43.16717" lon="-0.17629">
        <ele>475.03</ele>
        <time>2014-11-02T16:29:22Z</time>
      </trkpt>
      <trkpt lat="43.16721" lon="-0.17636">
        <ele>474.55</ele>
        <time>2014-11-02T16:29:23Z</time>
      </trkpt>
      <trkpt lat="43.16725" lon="-0.17644">
        <ele>474.55</ele>
        <time>2014-11-02T16:29:24Z</time>
      </trkpt>
      <trkpt lat="43.1673" lon="-0.17652">
        <ele>474.07</ele>
        <time>2014-11-02T16:29:25Z</time>
      </trkpt>
      <trkpt lat="43.16734" lon="-0.1766">
        <ele>474.07</ele>
        <time>2014-11-02T16:29:26Z</time>
      </trkpt>
      <trkpt lat="43.16766" lon="-0.17721">
        <ele>470.7</ele>
        <time>2014-11-02T16:29:33Z</time>
      </trkpt>
      <trkpt lat="43.16804" lon="-0.17783">
        <ele>467.82</ele>
        <time>2014-11-02T16:29:40Z</time>
      </trkpt>
      <trkpt lat="43.16815" lon="-0.17795">
        <ele>466.86</ele>
        <time>2014-11-02T16:29:43Z</time>
      </trkpt>
      <trkpt lat="43.16816" lon="-0.17778">
        <ele>465.9</ele>
        <time>2014-11-02T16:29:50Z</time>
      </trkpt>
      <trkpt lat="43.16813" lon="-0.17752">
        <ele>464.45</ele>
        <time>2014-11-02T16:29:58Z</time>
      </trkpt>
      <trkpt lat="43.16819" lon="-0.17727">
        <ele>463.01</ele>
        <time>2014-11-02T16:30:04Z</time>
      </trkpt>
      <trkpt lat="43.16823" lon="-0.17722">
        <ele>462.53</ele>
        <time>2014-11-02T16:30:05Z</time>
      </trkpt>
      <trkpt lat="43.16828" lon="-0.17718">
        <ele>461.09</ele>
        <time>2014-11-02T16:30:06Z</time>
      </trkpt>
      <trkpt lat="43.16834" lon="-0.17714">
        <ele>459.65</ele>
        <time>2014-11-02T16:30:07Z</time>
      </trkpt>
      <trkpt lat="43.16841" lon="-0.17711">
        <ele>457.72</ele>
        <time>2014-11-02T16:30:08Z</time>
      </trkpt>
      <trkpt lat="43.16849" lon="-0.17711">
        <ele>456.28</ele>
        <time>2014-11-02T16:30:09Z</time>
      </trkpt>
      <trkpt lat="43.16856" lon="-0.17712">
        <ele>454.36</ele>
        <time>2014-11-02T16:30:10Z</time>
      </trkpt>
      <trkpt lat="43.16863" lon="-0.17711">
        <ele>452.92</ele>
        <time>2014-11-02T16:30:11Z</time>
      </trkpt>
      <trkpt lat="43.16869" lon="-0.17708">
        <ele>451.48</ele>
        <time>2014-11-02T16:30:12Z</time>
      </trkpt>
      <trkpt lat="43.16876" lon="-0.17704">
        <ele>451</ele>
        <time>2014-11-02T16:30:13Z</time>
      </trkpt>
      <trkpt lat="43.16889" lon="-0.17696">
        <ele>447.63</ele>
        <time>2014-11-02T16:30:15Z</time>
      </trkpt>
      <trkpt lat="43.169" lon="-0.1769">
        <ele>444.75</ele>
        <time>2014-11-02T16:30:17Z</time>
      </trkpt>
      <trkpt lat="43.16913" lon="-0.17681">
        <ele>441.38</ele>
        <time>2014-11-02T16:30:20Z</time>
      </trkpt>
      <trkpt lat="43.16916" lon="-0.17675">
        <ele>440.42</ele>
        <time>2014-11-02T16:30:21Z</time>
      </trkpt>
      <trkpt lat="43.16919" lon="-0.17667">
        <ele>439.46</ele>
        <time>2014-11-02T16:30:22Z</time>
      </trkpt>
      <trkpt lat="43.16922" lon="-0.17658">
        <ele>439.46</ele>
        <time>2014-11-02T16:30:23Z</time>
      </trkpt>
      <trkpt lat="43.16924" lon="-0.17647">
        <ele>438.02</ele>
        <time>2014-11-02T16:30:24Z</time>
      </trkpt>
      <trkpt lat="43.16925" lon="-0.17637">
        <ele>436.1</ele>
        <time>2014-11-02T16:30:25Z</time>
      </trkpt>
      <trkpt lat="43.16925" lon="-0.17594">
        <ele>432.25</ele>
        <time>2014-11-02T16:30:29Z</time>
      </trkpt>
      <trkpt lat="43.16924" lon="-0.17574">
        <ele>430.81</ele>
        <time>2014-11-02T16:30:31Z</time>
      </trkpt>
      <trkpt lat="43.1692" lon="-0.17555">
        <ele>427.44</ele>
        <time>2014-11-02T16:30:33Z</time>
      </trkpt>
      <trkpt lat="43.16917" lon="-0.17546">
        <ele>426</ele>
        <time>2014-11-02T16:30:34Z</time>
      </trkpt>
      <trkpt lat="43.16914" lon="-0.17538">
        <ele>424.56</ele>
        <time>2014-11-02T16:30:35Z</time>
      </trkpt>
      <trkpt lat="43.16912" lon="-0.17529">
        <ele>423.12</ele>
        <time>2014-11-02T16:30:36Z</time>
      </trkpt>
      <trkpt lat="43.1691" lon="-0.17521">
        <ele>421.68</ele>
        <time>2014-11-02T16:30:37Z</time>
      </trkpt>
      <trkpt lat="43.16909" lon="-0.17515">
        <ele>421.19</ele>
        <time>2014-11-02T16:30:38Z</time>
      </trkpt>
      <trkpt lat="43.16909" lon="-0.17509">
        <ele>420.23</ele>
        <time>2014-11-02T16:30:39Z</time>
      </trkpt>
      <trkpt lat="43.16909" lon="-0.17505">
        <ele>418.79</ele>
        <time>2014-11-02T16:30:40Z</time>
      </trkpt>
      <trkpt lat="43.1691" lon="-0.17499">
        <ele>416.87</ele>
        <time>2014-11-02T16:30:42Z</time>
      </trkpt>
      <trkpt lat="43.16912" lon="-0.17497">
        <ele>416.87</ele>
        <time>2014-11-02T16:30:43Z</time>
      </trkpt>
      <trkpt lat="43.16914" lon="-0.17495">
        <ele>415.43</ele>
        <time>2014-11-02T16:30:45Z</time>
      </trkpt>
      <trkpt lat="43.16917" lon="-0.17497">
        <ele>414.95</ele>
        <time>2014-11-02T16:30:49Z</time>
      </trkpt>
      <trkpt lat="43.1692" lon="-0.17506">
        <ele>414.95</ele>
        <time>2014-11-02T16:30:53Z</time>
      </trkpt>
      <trkpt lat="43.16933" lon="-0.17522">
        <ele>415.43</ele>
        <time>2014-11-02T16:30:58Z</time>
      </trkpt>
      <trkpt lat="43.16939" lon="-0.17527">
        <ele>415.43</ele>
        <time>2014-11-02T16:31:00Z</time>
      </trkpt>
      <trkpt lat="43.16959" lon="-0.17552">
        <ele>415.43</ele>
        <time>2014-11-02T16:31:07Z</time>
      </trkpt>
      <trkpt lat="43.16961" lon="-0.17558">
        <ele>414.95</ele>
        <time>2014-11-02T16:31:08Z</time>
      </trkpt>
      <trkpt lat="43.16963" lon="-0.17564">
        <ele>414.95</ele>
        <time>2014-11-02T16:31:09Z</time>
      </trkpt>
      <trkpt lat="43.16964" lon="-0.1757">
        <ele>414.95</ele>
        <time>2014-11-02T16:31:10Z</time>
      </trkpt>
      <trkpt lat="43.16977" lon="-0.176">
        <ele>414.95</ele>
        <time>2014-11-02T16:31:16Z</time>
      </trkpt>
      <trkpt lat="43.16994" lon="-0.17617">
        <ele>413.02</ele>
        <time>2014-11-02T16:31:20Z</time>
      </trkpt>
      <trkpt lat="43.17007" lon="-0.17626">
        <ele>410.62</ele>
        <time>2014-11-02T16:31:24Z</time>
      </trkpt>
      <trkpt lat="43.17016" lon="-0.17634">
        <ele>410.14</ele>
        <time>2014-11-02T16:31:26Z</time>
      </trkpt>
      <trkpt lat="43.17027" lon="-0.17645">
        <ele>409.18</ele>
        <time>2014-11-02T16:31:29Z</time>
      </trkpt>
      <trkpt lat="43.1703" lon="-0.17649">
        <ele>409.18</ele>
        <time>2014-11-02T16:31:30Z</time>
      </trkpt>
      <trkpt lat="43.17046" lon="-0.17668">
        <ele>406.77</ele>
        <time>2014-11-02T16:31:34Z</time>
      </trkpt>
      <trkpt lat="43.17051" lon="-0.17671">
        <ele>405.33</ele>
        <time>2014-11-02T16:31:35Z</time>
      </trkpt>
      <trkpt lat="43.17054" lon="-0.17672">
        <ele>405.33</ele>
        <time>2014-11-02T16:31:36Z</time>
      </trkpt>
      <trkpt lat="43.17077" lon="-0.1768">
        <ele>406.29</ele>
        <time>2014-11-02T16:31:44Z</time>
      </trkpt>
      <trkpt lat="43.17094" lon="-0.17679">
        <ele>406.77</ele>
        <time>2014-11-02T16:31:49Z</time>
      </trkpt>
      <trkpt lat="43.17129" lon="-0.17703">
        <ele>403.89</ele>
        <time>2014-11-02T16:31:58Z</time>
      </trkpt>
      <trkpt lat="43.17133" lon="-0.17711">
        <ele>404.37</ele>
        <time>2014-11-02T16:31:59Z</time>
      </trkpt>
      <trkpt lat="43.17144" lon="-0.17733">
        <ele>403.89</ele>
        <time>2014-11-02T16:32:02Z</time>
      </trkpt>
      <trkpt lat="43.17146" lon="-0.1774">
        <ele>403.41</ele>
        <time>2014-11-02T16:32:03Z</time>
      </trkpt>
      <trkpt lat="43.17148" lon="-0.17747">
        <ele>403.41</ele>
        <time>2014-11-02T16:32:04Z</time>
      </trkpt>
      <trkpt lat="43.17151" lon="-0.17763">
        <ele>402.93</ele>
        <time>2014-11-02T16:32:06Z</time>
      </trkpt>
      <trkpt lat="43.17152" lon="-0.1777">
        <ele>402.93</ele>
        <time>2014-11-02T16:32:07Z</time>
      </trkpt>
      <trkpt lat="43.17153" lon="-0.17777">
        <ele>402.93</ele>
        <time>2014-11-02T16:32:08Z</time>
      </trkpt>
      <trkpt lat="43.17154" lon="-0.17782">
        <ele>402.45</ele>
        <time>2014-11-02T16:32:09Z</time>
      </trkpt>
      <trkpt lat="43.17156" lon="-0.17787">
        <ele>401.97</ele>
        <time>2014-11-02T16:32:10Z</time>
      </trkpt>
      <trkpt lat="43.17156" lon="-0.17792">
        <ele>401.97</ele>
        <time>2014-11-02T16:32:11Z</time>
      </trkpt>
      <trkpt lat="43.17156" lon="-0.17796">
        <ele>402.45</ele>
        <time>2014-11-02T16:32:12Z</time>
      </trkpt>
      <trkpt lat="43.17159" lon="-0.178">
        <ele>401.49</ele>
        <time>2014-11-02T16:32:13Z</time>
      </trkpt>
      <trkpt lat="43.17163" lon="-0.17801">
        <ele>401.01</ele>
        <time>2014-11-02T16:32:14Z</time>
      </trkpt>
      <trkpt lat="43.17168" lon="-0.17802">
        <ele>401.01</ele>
        <time>2014-11-02T16:32:15Z</time>
      </trkpt>
      <trkpt lat="43.17173" lon="-0.17801">
        <ele>400.53</ele>
        <time>2014-11-02T16:32:16Z</time>
      </trkpt>
      <trkpt lat="43.17178" lon="-0.17799">
        <ele>400.05</ele>
        <time>2014-11-02T16:32:17Z</time>
      </trkpt>
      <trkpt lat="43.17182" lon="-0.17796">
        <ele>399.57</ele>
        <time>2014-11-02T16:32:18Z</time>
      </trkpt>
      <trkpt lat="43.17192" lon="-0.1779">
        <ele>398.6</ele>
        <time>2014-11-02T16:32:20Z</time>
      </trkpt>
      <trkpt lat="43.17196" lon="-0.17785">
        <ele>398.12</ele>
        <time>2014-11-02T16:32:21Z</time>
      </trkpt>
      <trkpt lat="43.17206" lon="-0.17773">
        <ele>397.64</ele>
        <time>2014-11-02T16:32:23Z</time>
      </trkpt>
      <trkpt lat="43.1721" lon="-0.17765">
        <ele>396.68</ele>
        <time>2014-11-02T16:32:24Z</time>
      </trkpt>
      <trkpt lat="43.17213" lon="-0.17758">
        <ele>396.68</ele>
        <time>2014-11-02T16:32:25Z</time>
      </trkpt>
      <trkpt lat="43.17215" lon="-0.1775">
        <ele>396.2</ele>
        <time>2014-11-02T16:32:26Z</time>
      </trkpt>
      <trkpt lat="43.17217" lon="-0.17743">
        <ele>395.72</ele>
        <time>2014-11-02T16:32:27Z</time>
      </trkpt>
      <trkpt lat="43.17218" lon="-0.17735">
        <ele>395.24</ele>
        <time>2014-11-02T16:32:28Z</time>
      </trkpt>
      <trkpt lat="43.17223" lon="-0.17714">
        <ele>392.84</ele>
        <time>2014-11-02T16:32:31Z</time>
      </trkpt>
      <trkpt lat="43.17226" lon="-0.17703">
        <ele>391.87</ele>
        <time>2014-11-02T16:32:33Z</time>
      </trkpt>
      <trkpt lat="43.17235" lon="-0.17679">
        <ele>390.43</ele>
        <time>2014-11-02T16:32:38Z</time>
      </trkpt>
      <trkpt lat="43.17238" lon="-0.17672">
        <ele>389.95</ele>
        <time>2014-11-02T16:32:39Z</time>
      </trkpt>
      <trkpt lat="43.1724" lon="-0.17665">
        <ele>389.95</ele>
        <time>2014-11-02T16:32:40Z</time>
      </trkpt>
      <trkpt lat="43.17244" lon="-0.17649">
        <ele>388.99</ele>
        <time>2014-11-02T16:32:42Z</time>
      </trkpt>
      <trkpt lat="43.17245" lon="-0.17642">
        <ele>388.03</ele>
        <time>2014-11-02T16:32:43Z</time>
      </trkpt>
      <trkpt lat="43.17249" lon="-0.17628">
        <ele>386.59</ele>
        <time>2014-11-02T16:32:45Z</time>
      </trkpt>
      <trkpt lat="43.17251" lon="-0.17621">
        <ele>386.59</ele>
        <time>2014-11-02T16:32:46Z</time>
      </trkpt>
      <trkpt lat="43.17251" lon="-0.17614">
        <ele>385.63</ele>
        <time>2014-11-02T16:32:47Z</time>
      </trkpt>
      <trkpt lat="43.17253" lon="-0.17606">
        <ele>385.63</ele>
        <time>2014-11-02T16:32:48Z</time>
      </trkpt>
      <trkpt lat="43.17255" lon="-0.17598">
        <ele>384.66</ele>
        <time>2014-11-02T16:32:49Z</time>
      </trkpt>
      <trkpt lat="43.17257" lon="-0.17592">
        <ele>382.74</ele>
        <time>2014-11-02T16:32:50Z</time>
      </trkpt>
      <trkpt lat="43.1726" lon="-0.17587">
        <ele>382.26</ele>
        <time>2014-11-02T16:32:51Z</time>
      </trkpt>
      <trkpt lat="43.17274" lon="-0.17582">
        <ele>379.86</ele>
        <time>2014-11-02T16:32:54Z</time>
      </trkpt>
      <trkpt lat="43.1728" lon="-0.17584">
        <ele>378.9</ele>
        <time>2014-11-02T16:32:55Z</time>
      </trkpt>
      <trkpt lat="43.17285" lon="-0.17587">
        <ele>378.9</ele>
        <time>2014-11-02T16:32:56Z</time>
      </trkpt>
      <trkpt lat="43.17289" lon="-0.17591">
        <ele>378.9</ele>
        <time>2014-11-02T16:32:57Z</time>
      </trkpt>
      <trkpt lat="43.17306" lon="-0.17609">
        <ele>376.97</ele>
        <time>2014-11-02T16:33:01Z</time>
      </trkpt>
      <trkpt lat="43.17311" lon="-0.17615">
        <ele>376.01</ele>
        <time>2014-11-02T16:33:02Z</time>
      </trkpt>
      <trkpt lat="43.17315" lon="-0.17622">
        <ele>376.01</ele>
        <time>2014-11-02T16:33:03Z</time>
      </trkpt>
      <trkpt lat="43.17325" lon="-0.17633">
        <ele>375.53</ele>
        <time>2014-11-02T16:33:05Z</time>
      </trkpt>
      <trkpt lat="43.17356" lon="-0.17668">
        <ele>375.05</ele>
        <time>2014-11-02T16:33:15Z</time>
      </trkpt>
      <trkpt lat="43.17375" lon="-0.17674">
        <ele>373.61</ele>
        <time>2014-11-02T16:33:21Z</time>
      </trkpt>
      <trkpt lat="43.1738" lon="-0.17672">
        <ele>373.13</ele>
        <time>2014-11-02T16:33:22Z</time>
      </trkpt>
      <trkpt lat="43.17385" lon="-0.17669">
        <ele>371.21</ele>
        <time>2014-11-02T16:33:23Z</time>
      </trkpt>
      <trkpt lat="43.17388" lon="-0.17668">
        <ele>369.28</ele>
        <time>2014-11-02T16:33:24Z</time>
      </trkpt>
      <trkpt lat="43.17391" lon="-0.1767">
        <ele>368.8</ele>
        <time>2014-11-02T16:33:25Z</time>
      </trkpt>
      <trkpt lat="43.17394" lon="-0.17672">
        <ele>367.84</ele>
        <time>2014-11-02T16:33:26Z</time>
      </trkpt>
      <trkpt lat="43.17398" lon="-0.17676">
        <ele>367.84</ele>
        <time>2014-11-02T16:33:27Z</time>
      </trkpt>
      <trkpt lat="43.17401" lon="-0.17682">
        <ele>365.44</ele>
        <time>2014-11-02T16:33:28Z</time>
      </trkpt>
      <trkpt lat="43.17404" lon="-0.17688">
        <ele>364.48</ele>
        <time>2014-11-02T16:33:29Z</time>
      </trkpt>
      <trkpt lat="43.17407" lon="-0.17695">
        <ele>363.52</ele>
        <time>2014-11-02T16:33:30Z</time>
      </trkpt>
      <trkpt lat="43.17409" lon="-0.17703">
        <ele>363.04</ele>
        <time>2014-11-02T16:33:31Z</time>
      </trkpt>
      <trkpt lat="43.17414" lon="-0.1772">
        <ele>361.59</ele>
        <time>2014-11-02T16:33:33Z</time>
      </trkpt>
      <trkpt lat="43.17417" lon="-0.17729">
        <ele>361.59</ele>
        <time>2014-11-02T16:33:34Z</time>
      </trkpt>
      <trkpt lat="43.17429" lon="-0.17759">
        <ele>361.11</ele>
        <time>2014-11-02T16:33:38Z</time>
      </trkpt>
      <trkpt lat="43.17433" lon="-0.17764">
        <ele>361.11</ele>
        <time>2014-11-02T16:33:39Z</time>
      </trkpt>
      <trkpt lat="43.17442" lon="-0.17771">
        <ele>359.67</ele>
        <time>2014-11-02T16:33:41Z</time>
      </trkpt>
      <trkpt lat="43.17446" lon="-0.17774">
        <ele>359.67</ele>
        <time>2014-11-02T16:33:42Z</time>
      </trkpt>
      <trkpt lat="43.17455" lon="-0.17781">
        <ele>359.19</ele>
        <time>2014-11-02T16:33:44Z</time>
      </trkpt>
      <trkpt lat="43.17459" lon="-0.17785">
        <ele>359.19</ele>
        <time>2014-11-02T16:33:45Z</time>
      </trkpt>
      <trkpt lat="43.17464" lon="-0.1779">
        <ele>359.19</ele>
        <time>2014-11-02T16:33:46Z</time>
      </trkpt>
      <trkpt lat="43.17468" lon="-0.17796">
        <ele>358.71</ele>
        <time>2014-11-02T16:33:47Z</time>
      </trkpt>
      <trkpt lat="43.17471" lon="-0.17801">
        <ele>357.75</ele>
        <time>2014-11-02T16:33:48Z</time>
      </trkpt>
      <trkpt lat="43.17477" lon="-0.17811">
        <ele>356.79</ele>
        <time>2014-11-02T16:33:50Z</time>
      </trkpt>
      <trkpt lat="43.17481" lon="-0.17816">
        <ele>356.31</ele>
        <time>2014-11-02T16:33:51Z</time>
      </trkpt>
      <trkpt lat="43.17484" lon="-0.1782">
        <ele>356.31</ele>
        <time>2014-11-02T16:33:52Z</time>
      </trkpt>
      <trkpt lat="43.17487" lon="-0.17826">
        <ele>355.34</ele>
        <time>2014-11-02T16:33:53Z</time>
      </trkpt>
      <trkpt lat="43.17489" lon="-0.17832">
        <ele>355.83</ele>
        <time>2014-11-02T16:33:54Z</time>
      </trkpt>
      <trkpt lat="43.17491" lon="-0.17837">
        <ele>355.83</ele>
        <time>2014-11-02T16:33:55Z</time>
      </trkpt>
      <trkpt lat="43.17494" lon="-0.17841">
        <ele>355.83</ele>
        <time>2014-11-02T16:33:56Z</time>
      </trkpt>
      <trkpt lat="43.17497" lon="-0.17846">
        <ele>355.83</ele>
        <time>2014-11-02T16:33:57Z</time>
      </trkpt>
      <trkpt lat="43.175" lon="-0.17849">
        <ele>355.83</ele>
        <time>2014-11-02T16:33:58Z</time>
      </trkpt>
      <trkpt lat="43.17502" lon="-0.17852">
        <ele>355.83</ele>
        <time>2014-11-02T16:33:59Z</time>
      </trkpt>
      <trkpt lat="43.17503" lon="-0.17855">
        <ele>356.31</ele>
        <time>2014-11-02T16:34:00Z</time>
      </trkpt>
      <trkpt lat="43.17504" lon="-0.17858">
        <ele>355.83</ele>
        <time>2014-11-02T16:34:01Z</time>
      </trkpt>
      <trkpt lat="43.17508" lon="-0.17867">
        <ele>356.79</ele>
        <time>2014-11-02T16:34:05Z</time>
      </trkpt>
      <trkpt lat="43.17509" lon="-0.17874">
        <ele>358.23</ele>
        <time>2014-11-02T16:34:09Z</time>
      </trkpt>
      <trkpt lat="43.17512" lon="-0.17879">
        <ele>358.71</ele>
        <time>2014-11-02T16:34:14Z</time>
      </trkpt>
      <trkpt lat="43.17513" lon="-0.17879">
        <ele>358.23</ele>
        <time>2014-11-02T16:34:15Z</time>
      </trkpt>
      <trkpt lat="43.17515" lon="-0.17881">
        <ele>357.75</ele>
        <time>2014-11-02T16:34:16Z</time>
      </trkpt>
      <trkpt lat="43.17516" lon="-0.17884">
        <ele>356.79</ele>
        <time>2014-11-02T16:34:17Z</time>
      </trkpt>
      <trkpt lat="43.17517" lon="-0.17888">
        <ele>356.79</ele>
        <time>2014-11-02T16:34:18Z</time>
      </trkpt>
      <trkpt lat="43.17518" lon="-0.17894">
        <ele>356.31</ele>
        <time>2014-11-02T16:34:19Z</time>
      </trkpt>
      <trkpt lat="43.17519" lon="-0.179">
        <ele>356.31</ele>
        <time>2014-11-02T16:34:20Z</time>
      </trkpt>
      <trkpt lat="43.17519" lon="-0.17906">
        <ele>356.31</ele>
        <time>2014-11-02T16:34:21Z</time>
      </trkpt>
      <trkpt lat="43.17519" lon="-0.17912">
        <ele>355.83</ele>
        <time>2014-11-02T16:34:22Z</time>
      </trkpt>
      <trkpt lat="43.17517" lon="-0.17919">
        <ele>355.83</ele>
        <time>2014-11-02T16:34:23Z</time>
      </trkpt>
      <trkpt lat="43.17515" lon="-0.17927">
        <ele>355.34</ele>
        <time>2014-11-02T16:34:24Z</time>
      </trkpt>
      <trkpt lat="43.17512" lon="-0.17933">
        <ele>355.34</ele>
        <time>2014-11-02T16:34:25Z</time>
      </trkpt>
      <trkpt lat="43.17508" lon="-0.17938">
        <ele>354.86</ele>
        <time>2014-11-02T16:34:26Z</time>
      </trkpt>
      <trkpt lat="43.17504" lon="-0.17943">
        <ele>354.86</ele>
        <time>2014-11-02T16:34:27Z</time>
      </trkpt>
      <trkpt lat="43.17502" lon="-0.17949">
        <ele>354.86</ele>
        <time>2014-11-02T16:34:28Z</time>
      </trkpt>
      <trkpt lat="43.17499" lon="-0.17953">
        <ele>354.86</ele>
        <time>2014-11-02T16:34:29Z</time>
      </trkpt>
      <trkpt lat="43.17496" lon="-0.17957">
        <ele>354.38</ele>
        <time>2014-11-02T16:34:30Z</time>
      </trkpt>
      <trkpt lat="43.17493" lon="-0.17962">
        <ele>354.38</ele>
        <time>2014-11-02T16:34:31Z</time>
      </trkpt>
      <trkpt lat="43.17491" lon="-0.17967">
        <ele>355.34</ele>
        <time>2014-11-02T16:34:32Z</time>
      </trkpt>
      <trkpt lat="43.17489" lon="-0.17973">
        <ele>354.86</ele>
        <time>2014-11-02T16:34:33Z</time>
      </trkpt>
      <trkpt lat="43.17487" lon="-0.17978">
        <ele>355.83</ele>
        <time>2014-11-02T16:34:34Z</time>
      </trkpt>
      <trkpt lat="43.17489" lon="-0.17986">
        <ele>355.83</ele>
        <time>2014-11-02T16:34:35Z</time>
      </trkpt>
      <trkpt lat="43.1749" lon="-0.18004">
        <ele>356.31</ele>
        <time>2014-11-02T16:34:39Z</time>
      </trkpt>
      <trkpt lat="43.17512" lon="-0.18032">
        <ele>355.83</ele>
        <time>2014-11-02T16:34:48Z</time>
      </trkpt>
      <trkpt lat="43.17535" lon="-0.18052">
        <ele>354.86</ele>
        <time>2014-11-02T16:34:53Z</time>
      </trkpt>
      <trkpt lat="43.17539" lon="-0.18059">
        <ele>354.38</ele>
        <time>2014-11-02T16:34:54Z</time>
      </trkpt>
      <trkpt lat="43.17541" lon="-0.18064">
        <ele>354.38</ele>
        <time>2014-11-02T16:34:55Z</time>
      </trkpt>
      <trkpt lat="43.17555" lon="-0.18098">
        <ele>354.86</ele>
        <time>2014-11-02T16:35:04Z</time>
      </trkpt>
      <trkpt lat="43.17555" lon="-0.181">
        <ele>355.34</ele>
        <time>2014-11-02T16:35:05Z</time>
      </trkpt>
      <trkpt lat="43.17554" lon="-0.18105">
        <ele>355.83</ele>
        <time>2014-11-02T16:35:08Z</time>
      </trkpt>
      <trkpt lat="43.17553" lon="-0.18106">
        <ele>356.79</ele>
        <time>2014-11-02T16:35:09Z</time>
      </trkpt>
      <trkpt lat="43.17553" lon="-0.18109">
        <ele>357.75</ele>
        <time>2014-11-02T16:35:13Z</time>
      </trkpt>
      <trkpt lat="43.17553" lon="-0.18112">
        <ele>357.75</ele>
        <time>2014-11-02T16:35:14Z</time>
      </trkpt>
      <trkpt lat="43.17552" lon="-0.1812">
        <ele>357.75</ele>
        <time>2014-11-02T16:35:18Z</time>
      </trkpt>
      <trkpt lat="43.17567" lon="-0.18144">
        <ele>354.86</ele>
        <time>2014-11-02T16:35:27Z</time>
      </trkpt>
      <trkpt lat="43.17567" lon="-0.1815">
        <ele>354.86</ele>
        <time>2014-11-02T16:35:28Z</time>
      </trkpt>
      <trkpt lat="43.17568" lon="-0.18157">
        <ele>353.9</ele>
        <time>2014-11-02T16:35:29Z</time>
      </trkpt>
      <trkpt lat="43.17576" lon="-0.18186">
        <ele>353.42</ele>
        <time>2014-11-02T16:35:34Z</time>
      </trkpt>
      <trkpt lat="43.17579" lon="-0.1819">
        <ele>353.42</ele>
        <time>2014-11-02T16:35:35Z</time>
      </trkpt>
      <trkpt lat="43.1759" lon="-0.1822">
        <ele>353.9</ele>
        <time>2014-11-02T16:35:42Z</time>
      </trkpt>
      <trkpt lat="43.17596" lon="-0.18234">
        <ele>353.42</ele>
        <time>2014-11-02T16:35:45Z</time>
      </trkpt>
      <trkpt lat="43.176" lon="-0.18238">
        <ele>353.42</ele>
        <time>2014-11-02T16:35:46Z</time>
      </trkpt>
      <trkpt lat="43.17603" lon="-0.18244">
        <ele>352.94</ele>
        <time>2014-11-02T16:35:47Z</time>
      </trkpt>
      <trkpt lat="43.17605" lon="-0.18248">
        <ele>353.42</ele>
        <time>2014-11-02T16:35:48Z</time>
      </trkpt>
      <trkpt lat="43.17606" lon="-0.18253">
        <ele>353.9</ele>
        <time>2014-11-02T16:35:49Z</time>
      </trkpt>
      <trkpt lat="43.17607" lon="-0.18257">
        <ele>352.94</ele>
        <time>2014-11-02T16:35:50Z</time>
      </trkpt>
      <trkpt lat="43.17608" lon="-0.18261">
        <ele>353.9</ele>
        <time>2014-11-02T16:35:51Z</time>
      </trkpt>
      <trkpt lat="43.1761" lon="-0.18263">
        <ele>353.42</ele>
        <time>2014-11-02T16:35:52Z</time>
      </trkpt>
      <trkpt lat="43.17611" lon="-0.18266">
        <ele>352.94</ele>
        <time>2014-11-02T16:35:53Z</time>
      </trkpt>
      <trkpt lat="43.17612" lon="-0.1827">
        <ele>352.94</ele>
        <time>2014-11-02T16:35:54Z</time>
      </trkpt>
      <trkpt lat="43.17612" lon="-0.18275">
        <ele>352.46</ele>
        <time>2014-11-02T16:35:55Z</time>
      </trkpt>
      <trkpt lat="43.17614" lon="-0.18281">
        <ele>351.98</ele>
        <time>2014-11-02T16:35:56Z</time>
      </trkpt>
      <trkpt lat="43.17615" lon="-0.18288">
        <ele>351.5</ele>
        <time>2014-11-02T16:35:57Z</time>
      </trkpt>
      <trkpt lat="43.17617" lon="-0.18296">
        <ele>351.02</ele>
        <time>2014-11-02T16:35:58Z</time>
      </trkpt>
      <trkpt lat="43.17619" lon="-0.18302">
        <ele>350.54</ele>
        <time>2014-11-02T16:35:59Z</time>
      </trkpt>
      <trkpt lat="43.17627" lon="-0.18319">
        <ele>349.58</ele>
        <time>2014-11-02T16:36:03Z</time>
      </trkpt>
      <trkpt lat="43.17628" lon="-0.18324">
        <ele>349.58</ele>
        <time>2014-11-02T16:36:04Z</time>
      </trkpt>
      <trkpt lat="43.1763" lon="-0.18328">
        <ele>349.58</ele>
        <time>2014-11-02T16:36:05Z</time>
      </trkpt>
      <trkpt lat="43.17632" lon="-0.18333">
        <ele>349.58</ele>
        <time>2014-11-02T16:36:06Z</time>
      </trkpt>
      <trkpt lat="43.17634" lon="-0.18338">
        <ele>350.06</ele>
        <time>2014-11-02T16:36:07Z</time>
      </trkpt>
      <trkpt lat="43.17636" lon="-0.18344">
        <ele>349.58</ele>
        <time>2014-11-02T16:36:08Z</time>
      </trkpt>
      <trkpt lat="43.17637" lon="-0.1835">
        <ele>349.58</ele>
        <time>2014-11-02T16:36:09Z</time>
      </trkpt>
      <trkpt lat="43.17639" lon="-0.18355">
        <ele>349.58</ele>
        <time>2014-11-02T16:36:10Z</time>
      </trkpt>
      <trkpt lat="43.17642" lon="-0.18369">
        <ele>349.58</ele>
        <time>2014-11-02T16:36:13Z</time>
      </trkpt>
      <trkpt lat="43.17656" lon="-0.18399">
        <ele>348.62</ele>
        <time>2014-11-02T16:36:20Z</time>
      </trkpt>
      <trkpt lat="43.17657" lon="-0.18401">
        <ele>348.13</ele>
        <time>2014-11-02T16:36:21Z</time>
      </trkpt>
      <trkpt lat="43.17658" lon="-0.18406">
        <ele>347.65</ele>
        <time>2014-11-02T16:36:24Z</time>
      </trkpt>
      <trkpt lat="43.17664" lon="-0.18415">
        <ele>348.62</ele>
        <time>2014-11-02T16:36:25Z</time>
      </trkpt>
      <trkpt lat="43.17668" lon="-0.18421">
        <ele>347.65</ele>
        <time>2014-11-02T16:36:26Z</time>
      </trkpt>
      <trkpt lat="43.17671" lon="-0.18426">
        <ele>347.65</ele>
        <time>2014-11-02T16:36:27Z</time>
      </trkpt>
      <trkpt lat="43.17674" lon="-0.18431">
        <ele>347.65</ele>
        <time>2014-11-02T16:36:28Z</time>
      </trkpt>
      <trkpt lat="43.17678" lon="-0.18436">
        <ele>347.65</ele>
        <time>2014-11-02T16:36:29Z</time>
      </trkpt>
      <trkpt lat="43.17681" lon="-0.18441">
        <ele>346.69</ele>
        <time>2014-11-02T16:36:30Z</time>
      </trkpt>
      <trkpt lat="43.17685" lon="-0.18446">
        <ele>347.65</ele>
        <time>2014-11-02T16:36:31Z</time>
      </trkpt>
      <trkpt lat="43.17688" lon="-0.18452">
        <ele>347.65</ele>
        <time>2014-11-02T16:36:32Z</time>
      </trkpt>
      <trkpt lat="43.17689" lon="-0.18456">
        <ele>347.65</ele>
        <time>2014-11-02T16:36:33Z</time>
      </trkpt>
      <trkpt lat="43.17709" lon="-0.18487">
        <ele>345.73</ele>
        <time>2014-11-02T16:36:42Z</time>
      </trkpt>
      <trkpt lat="43.17712" lon="-0.18489">
        <ele>345.25</ele>
        <time>2014-11-02T16:36:43Z</time>
      </trkpt>
      <trkpt lat="43.17715" lon="-0.18491">
        <ele>345.25</ele>
        <time>2014-11-02T16:36:44Z</time>
      </trkpt>
      <trkpt lat="43.17717" lon="-0.18494">
        <ele>345.25</ele>
        <time>2014-11-02T16:36:45Z</time>
      </trkpt>
      <trkpt lat="43.17719" lon="-0.18497">
        <ele>345.73</ele>
        <time>2014-11-02T16:36:46Z</time>
      </trkpt>
      <trkpt lat="43.17738" lon="-0.18528">
        <ele>344.29</ele>
        <time>2014-11-02T16:36:52Z</time>
      </trkpt>
      <trkpt lat="43.17739" lon="-0.18533">
        <ele>343.81</ele>
        <time>2014-11-02T16:36:53Z</time>
      </trkpt>
      <trkpt lat="43.17738" lon="-0.18537">
        <ele>343.81</ele>
        <time>2014-11-02T16:36:54Z</time>
      </trkpt>
      <trkpt lat="43.17735" lon="-0.18554">
        <ele>343.81</ele>
        <time>2014-11-02T16:37:00Z</time>
      </trkpt>
      <trkpt lat="43.17734" lon="-0.18556">
        <ele>344.29</ele>
        <time>2014-11-02T16:37:03Z</time>
      </trkpt>
      <trkpt lat="43.17734" lon="-0.18559">
        <ele>344.29</ele>
        <time>2014-11-02T16:37:06Z</time>
      </trkpt>
      <trkpt lat="43.17719" lon="-0.18573">
        <ele>344.77</ele>
        <time>2014-11-02T16:37:17Z</time>
      </trkpt>
      <trkpt lat="43.17718" lon="-0.18575">
        <ele>345.25</ele>
        <time>2014-11-02T16:37:19Z</time>
      </trkpt>
      <trkpt lat="43.17717" lon="-0.18584">
        <ele>345.25</ele>
        <time>2014-11-02T16:37:24Z</time>
      </trkpt>
      <trkpt lat="43.17717" lon="-0.18587">
        <ele>344.77</ele>
        <time>2014-11-02T16:37:26Z</time>
      </trkpt>
      <trkpt lat="43.17718" lon="-0.18592">
        <ele>345.73</ele>
        <time>2014-11-02T16:37:34Z</time>
      </trkpt>
      <trkpt lat="43.17718" lon="-0.18594">
        <ele>345.25</ele>
        <time>2014-11-02T16:37:36Z</time>
      </trkpt>
      <trkpt lat="43.1772" lon="-0.18601">
        <ele>345.25</ele>
        <time>2014-11-02T16:37:38Z</time>
      </trkpt>
      <trkpt lat="43.17736" lon="-0.18628">
        <ele>345.25</ele>
        <time>2014-11-02T16:37:45Z</time>
      </trkpt>
      <trkpt lat="43.17739" lon="-0.18636">
        <ele>344.77</ele>
        <time>2014-11-02T16:37:47Z</time>
      </trkpt>
      <trkpt lat="43.17757" lon="-0.18673">
        <ele>345.25</ele>
        <time>2014-11-02T16:37:58Z</time>
      </trkpt>
      <trkpt lat="43.17764" lon="-0.18684">
        <ele>344.29</ele>
        <time>2014-11-02T16:38:02Z</time>
      </trkpt>
      <trkpt lat="43.17791" lon="-0.1872">
        <ele>343.81</ele>
        <time>2014-11-02T16:38:11Z</time>
      </trkpt>
      <trkpt lat="43.17798" lon="-0.18732">
        <ele>344.29</ele>
        <time>2014-11-02T16:38:19Z</time>
      </trkpt>
      <trkpt lat="43.17803" lon="-0.18743">
        <ele>345.73</ele>
        <time>2014-11-02T16:38:34Z</time>
      </trkpt>
      <trkpt lat="43.17807" lon="-0.18748">
        <ele>345.25</ele>
        <time>2014-11-02T16:38:36Z</time>
      </trkpt>
      <trkpt lat="43.17824" lon="-0.18778">
        <ele>346.69</ele>
        <time>2014-11-02T16:38:46Z</time>
      </trkpt>
      <trkpt lat="43.17827" lon="-0.18784">
        <ele>346.21</ele>
        <time>2014-11-02T16:38:48Z</time>
      </trkpt>
      <trkpt lat="43.17841" lon="-0.18831">
        <ele>346.69</ele>
        <time>2014-11-02T16:38:59Z</time>
      </trkpt>
      <trkpt lat="43.17843" lon="-0.18842">
        <ele>346.21</ele>
        <time>2014-11-02T16:39:01Z</time>
      </trkpt>
      <trkpt lat="43.17858" lon="-0.18887">
        <ele>346.69</ele>
        <time>2014-11-02T16:39:08Z</time>
      </trkpt>
      <trkpt lat="43.17865" lon="-0.18903">
        <ele>346.21</ele>
        <time>2014-11-02T16:39:11Z</time>
      </trkpt>
      <trkpt lat="43.17888" lon="-0.18955">
        <ele>345.73</ele>
        <time>2014-11-02T16:39:19Z</time>
      </trkpt>
      <trkpt lat="43.179" lon="-0.18989">
        <ele>344.77</ele>
        <time>2014-11-02T16:39:24Z</time>
      </trkpt>
      <trkpt lat="43.17903" lon="-0.19004">
        <ele>344.77</ele>
        <time>2014-11-02T16:39:26Z</time>
      </trkpt>
      <trkpt lat="43.17917" lon="-0.19035">
        <ele>343.81</ele>
        <time>2014-11-02T16:39:30Z</time>
      </trkpt>
      <trkpt lat="43.17945" lon="-0.191">
        <ele>342.37</ele>
        <time>2014-11-02T16:39:40Z</time>
      </trkpt>
      <trkpt lat="43.17951" lon="-0.1911">
        <ele>341.41</ele>
        <time>2014-11-02T16:39:41Z</time>
      </trkpt>
      <trkpt lat="43.17957" lon="-0.19119">
        <ele>341.89</ele>
        <time>2014-11-02T16:39:42Z</time>
      </trkpt>
      <trkpt lat="43.17972" lon="-0.19147">
        <ele>340.44</ele>
        <time>2014-11-02T16:39:47Z</time>
      </trkpt>
      <trkpt lat="43.17977" lon="-0.1916">
        <ele>340.44</ele>
        <time>2014-11-02T16:39:53Z</time>
      </trkpt>
      <trkpt lat="43.17978" lon="-0.19162">
        <ele>339.96</ele>
        <time>2014-11-02T16:39:54Z</time>
      </trkpt>
      <trkpt lat="43.17979" lon="-0.19163">
        <ele>340.44</ele>
        <time>2014-11-02T16:39:55Z</time>
      </trkpt>
      <trkpt lat="43.17979" lon="-0.19165">
        <ele>340.44</ele>
        <time>2014-11-02T16:39:56Z</time>
      </trkpt>
      <trkpt lat="43.1798" lon="-0.19166">
        <ele>340.44</ele>
        <time>2014-11-02T16:39:57Z</time>
      </trkpt>
      <trkpt lat="43.17981" lon="-0.19167">
        <ele>340.44</ele>
        <time>2014-11-02T16:39:58Z</time>
      </trkpt>
      <trkpt lat="43.17982" lon="-0.19169">
        <ele>340.44</ele>
        <time>2014-11-02T16:39:59Z</time>
      </trkpt>
      <trkpt lat="43.17983" lon="-0.19172">
        <ele>340.44</ele>
        <time>2014-11-02T16:40:00Z</time>
      </trkpt>
      <trkpt lat="43.17985" lon="-0.19174">
        <ele>340.44</ele>
        <time>2014-11-02T16:40:01Z</time>
      </trkpt>
      <trkpt lat="43.17986" lon="-0.19176">
        <ele>340.44</ele>
        <time>2014-11-02T16:40:02Z</time>
      </trkpt>
      <trkpt lat="43.17987" lon="-0.19178">
        <ele>340.44</ele>
        <time>2014-11-02T16:40:03Z</time>
      </trkpt>
      <trkpt lat="43.17989" lon="-0.1918">
        <ele>340.44</ele>
        <time>2014-11-02T16:40:04Z</time>
      </trkpt>
      <trkpt lat="43.17991" lon="-0.19182">
        <ele>339.96</ele>
        <time>2014-11-02T16:40:05Z</time>
      </trkpt>
      <trkpt lat="43.17992" lon="-0.19184">
        <ele>339.96</ele>
        <time>2014-11-02T16:40:06Z</time>
      </trkpt>
      <trkpt lat="43.18005" lon="-0.19209">
        <ele>339.96</ele>
        <time>2014-11-02T16:40:15Z</time>
      </trkpt>
      <trkpt lat="43.1802" lon="-0.19228">
        <ele>339.96</ele>
        <time>2014-11-02T16:40:24Z</time>
      </trkpt>
      <trkpt lat="43.18038" lon="-0.1925">
        <ele>339.48</ele>
        <time>2014-11-02T16:40:33Z</time>
      </trkpt>
      <trkpt lat="43.18043" lon="-0.19262">
        <ele>340.44</ele>
        <time>2014-11-02T16:40:39Z</time>
      </trkpt>
      <trkpt lat="43.18046" lon="-0.19265">
        <ele>340.44</ele>
        <time>2014-11-02T16:40:41Z</time>
      </trkpt>
      <trkpt lat="43.18059" lon="-0.19282">
        <ele>341.41</ele>
        <time>2014-11-02T16:40:51Z</time>
      </trkpt>
      <trkpt lat="43.1806" lon="-0.19284">
        <ele>341.41</ele>
        <time>2014-11-02T16:40:52Z</time>
      </trkpt>
      <trkpt lat="43.18063" lon="-0.19293">
        <ele>341.89</ele>
        <time>2014-11-02T16:40:56Z</time>
      </trkpt>
      <trkpt lat="43.18064" lon="-0.19295">
        <ele>341.89</ele>
        <time>2014-11-02T16:40:57Z</time>
      </trkpt>
      <trkpt lat="43.18064" lon="-0.19297">
        <ele>342.37</ele>
        <time>2014-11-02T16:40:58Z</time>
      </trkpt>
      <trkpt lat="43.18064" lon="-0.193">
        <ele>342.37</ele>
        <time>2014-11-02T16:40:59Z</time>
      </trkpt>
      <trkpt lat="43.18065" lon="-0.19303">
        <ele>342.37</ele>
        <time>2014-11-02T16:41:00Z</time>
      </trkpt>
      <trkpt lat="43.18066" lon="-0.19305">
        <ele>342.85</ele>
        <time>2014-11-02T16:41:01Z</time>
      </trkpt>
      <trkpt lat="43.18074" lon="-0.19333">
        <ele>343.33</ele>
        <time>2014-11-02T16:41:10Z</time>
      </trkpt>
      <trkpt lat="43.18077" lon="-0.1934">
        <ele>343.81</ele>
        <time>2014-11-02T16:41:13Z</time>
      </trkpt>
      <trkpt lat="43.18079" lon="-0.19342">
        <ele>343.81</ele>
        <time>2014-11-02T16:41:14Z</time>
      </trkpt>
      <trkpt lat="43.18081" lon="-0.19343">
        <ele>343.81</ele>
        <time>2014-11-02T16:41:15Z</time>
      </trkpt>
      <trkpt lat="43.18082" lon="-0.19345">
        <ele>343.81</ele>
        <time>2014-11-02T16:41:16Z</time>
      </trkpt>
      <trkpt lat="43.18084" lon="-0.19348">
        <ele>343.81</ele>
        <time>2014-11-02T16:41:17Z</time>
      </trkpt>
      <trkpt lat="43.18092" lon="-0.19366">
        <ele>344.29</ele>
        <time>2014-11-02T16:41:22Z</time>
      </trkpt>
      <trkpt lat="43.18093" lon="-0.19369">
        <ele>344.29</ele>
        <time>2014-11-02T16:41:23Z</time>
      </trkpt>
      <trkpt lat="43.1811" lon="-0.19392">
        <ele>344.77</ele>
        <time>2014-11-02T16:41:33Z</time>
      </trkpt>
      <trkpt lat="43.18115" lon="-0.19399">
        <ele>343.81</ele>
        <time>2014-11-02T16:41:36Z</time>
      </trkpt>
      <trkpt lat="43.18116" lon="-0.19401">
        <ele>343.81</ele>
        <time>2014-11-02T16:41:37Z</time>
      </trkpt>
      <trkpt lat="43.18117" lon="-0.19404">
        <ele>343.81</ele>
        <time>2014-11-02T16:41:38Z</time>
      </trkpt>
      <trkpt lat="43.18119" lon="-0.19407">
        <ele>343.33</ele>
        <time>2014-11-02T16:41:39Z</time>
      </trkpt>
      <trkpt lat="43.18121" lon="-0.19409">
        <ele>343.33</ele>
        <time>2014-11-02T16:41:40Z</time>
      </trkpt>
      <trkpt lat="43.18125" lon="-0.19415">
        <ele>342.85</ele>
        <time>2014-11-02T16:41:42Z</time>
      </trkpt>
      <trkpt lat="43.18127" lon="-0.19418">
        <ele>342.85</ele>
        <time>2014-11-02T16:41:43Z</time>
      </trkpt>
      <trkpt lat="43.18128" lon="-0.1942">
        <ele>342.37</ele>
        <time>2014-11-02T16:41:44Z</time>
      </trkpt>
      <trkpt lat="43.18129" lon="-0.19424">
        <ele>342.37</ele>
        <time>2014-11-02T16:41:45Z</time>
      </trkpt>
      <trkpt lat="43.18131" lon="-0.19426">
        <ele>341.89</ele>
        <time>2014-11-02T16:41:46Z</time>
      </trkpt>
      <trkpt lat="43.18133" lon="-0.1943">
        <ele>342.85</ele>
        <time>2014-11-02T16:41:47Z</time>
      </trkpt>
      <trkpt lat="43.18135" lon="-0.19434">
        <ele>342.37</ele>
        <time>2014-11-02T16:41:48Z</time>
      </trkpt>
      <trkpt lat="43.18137" lon="-0.19438">
        <ele>342.37</ele>
        <time>2014-11-02T16:41:49Z</time>
      </trkpt>
      <trkpt lat="43.18139" lon="-0.19442">
        <ele>341.89</ele>
        <time>2014-11-02T16:41:50Z</time>
      </trkpt>
      <trkpt lat="43.18141" lon="-0.19446">
        <ele>341.89</ele>
        <time>2014-11-02T16:41:51Z</time>
      </trkpt>
      <trkpt lat="43.18159" lon="-0.19477">
        <ele>341.89</ele>
        <time>2014-11-02T16:42:02Z</time>
      </trkpt>
      <trkpt lat="43.18186" lon="-0.19508">
        <ele>340.44</ele>
        <time>2014-11-02T16:42:11Z</time>
      </trkpt>
      <trkpt lat="43.18214" lon="-0.1955">
        <ele>339.48</ele>
        <time>2014-11-02T16:42:20Z</time>
      </trkpt>
      <trkpt lat="43.18241" lon="-0.19596">
        <ele>339</ele>
        <time>2014-11-02T16:42:30Z</time>
      </trkpt>
      <trkpt lat="43.18265" lon="-0.19637">
        <ele>337.56</ele>
        <time>2014-11-02T16:42:40Z</time>
      </trkpt>
      <trkpt lat="43.18296" lon="-0.19686">
        <ele>336.12</ele>
        <time>2014-11-02T16:42:52Z</time>
      </trkpt>
      <trkpt lat="43.18316" lon="-0.19729">
        <ele>335.16</ele>
        <time>2014-11-02T16:43:01Z</time>
      </trkpt>
      <trkpt lat="43.18338" lon="-0.19773">
        <ele>334.68</ele>
        <time>2014-11-02T16:43:12Z</time>
      </trkpt>
      <trkpt lat="43.18362" lon="-0.19803">
        <ele>333.71</ele>
        <time>2014-11-02T16:43:22Z</time>
      </trkpt>
      <trkpt lat="43.18371" lon="-0.19816">
        <ele>332.27</ele>
        <time>2014-11-02T16:43:27Z</time>
      </trkpt>
      <trkpt lat="43.18373" lon="-0.19818">
        <ele>332.27</ele>
        <time>2014-11-02T16:43:28Z</time>
      </trkpt>
      <trkpt lat="43.18376" lon="-0.19821">
        <ele>332.27</ele>
        <time>2014-11-02T16:43:29Z</time>
      </trkpt>
      <trkpt lat="43.18378" lon="-0.19824">
        <ele>331.79</ele>
        <time>2014-11-02T16:43:30Z</time>
      </trkpt>
      <trkpt lat="43.1838" lon="-0.19827">
        <ele>331.79</ele>
        <time>2014-11-02T16:43:31Z</time>
      </trkpt>
      <trkpt lat="43.18382" lon="-0.19829">
        <ele>331.31</ele>
        <time>2014-11-02T16:43:32Z</time>
      </trkpt>
      <trkpt lat="43.18384" lon="-0.19831">
        <ele>331.31</ele>
        <time>2014-11-02T16:43:33Z</time>
      </trkpt>
      <trkpt lat="43.18405" lon="-0.19862">
        <ele>330.83</ele>
        <time>2014-11-02T16:43:42Z</time>
      </trkpt>
      <trkpt lat="43.1841" lon="-0.19879">
        <ele>330.35</ele>
        <time>2014-11-02T16:43:47Z</time>
      </trkpt>
      <trkpt lat="43.18411" lon="-0.19881">
        <ele>329.87</ele>
        <time>2014-11-02T16:43:48Z</time>
      </trkpt>
      <trkpt lat="43.18412" lon="-0.19882">
        <ele>329.87</ele>
        <time>2014-11-02T16:43:49Z</time>
      </trkpt>
      <trkpt lat="43.18416" lon="-0.19887">
        <ele>328.91</ele>
        <time>2014-11-02T16:44:00Z</time>
      </trkpt>
      <trkpt lat="43.18417" lon="-0.19887">
        <ele>328.91</ele>
        <time>2014-11-02T16:44:01Z</time>
      </trkpt>
      <trkpt lat="43.18418" lon="-0.19888">
        <ele>328.91</ele>
        <time>2014-11-02T16:44:02Z</time>
      </trkpt>
      <trkpt lat="43.18423" lon="-0.1989">
        <ele>328.91</ele>
        <time>2014-11-02T16:44:04Z</time>
      </trkpt>
      <trkpt lat="43.18427" lon="-0.19901">
        <ele>329.39</ele>
        <time>2014-11-02T16:44:06Z</time>
      </trkpt>
      <trkpt lat="43.18428" lon="-0.19907">
        <ele>329.87</ele>
        <time>2014-11-02T16:44:07Z</time>
      </trkpt>
      <trkpt lat="43.18429" lon="-0.19912">
        <ele>329.87</ele>
        <time>2014-11-02T16:44:08Z</time>
      </trkpt>
      <trkpt lat="43.1843" lon="-0.19919">
        <ele>330.35</ele>
        <time>2014-11-02T16:44:09Z</time>
      </trkpt>
      <trkpt lat="43.18432" lon="-0.19926">
        <ele>330.35</ele>
        <time>2014-11-02T16:44:10Z</time>
      </trkpt>
      <trkpt lat="43.18435" lon="-0.19934">
        <ele>331.79</ele>
        <time>2014-11-02T16:44:11Z</time>
      </trkpt>
      <trkpt lat="43.18448" lon="-0.19977">
        <ele>331.79</ele>
        <time>2014-11-02T16:44:17Z</time>
      </trkpt>
      <trkpt lat="43.18486" lon="-0.20072">
        <ele>329.39</ele>
        <time>2014-11-02T16:44:32Z</time>
      </trkpt>
      <trkpt lat="43.18515" lon="-0.20143">
        <ele>329.39</ele>
        <time>2014-11-02T16:44:45Z</time>
      </trkpt>
      <trkpt lat="43.18561" lon="-0.20251">
        <ele>326.99</ele>
        <time>2014-11-02T16:45:02Z</time>
      </trkpt>
      <trkpt lat="43.18604" lon="-0.20348">
        <ele>325.06</ele>
        <time>2014-11-02T16:45:18Z</time>
      </trkpt>
      <trkpt lat="43.18632" lon="-0.20413">
        <ele>323.62</ele>
        <time>2014-11-02T16:45:30Z</time>
      </trkpt>
      <trkpt lat="43.18634" lon="-0.20419">
        <ele>323.14</ele>
        <time>2014-11-02T16:45:31Z</time>
      </trkpt>
      <trkpt lat="43.18637" lon="-0.20424">
        <ele>322.66</ele>
        <time>2014-11-02T16:45:32Z</time>
      </trkpt>
      <trkpt lat="43.18678" lon="-0.20524">
        <ele>319.78</ele>
        <time>2014-11-02T16:45:50Z</time>
      </trkpt>
      <trkpt lat="43.18713" lon="-0.2061">
        <ele>318.33</ele>
        <time>2014-11-02T16:46:05Z</time>
      </trkpt>
      <trkpt lat="43.18731" lon="-0.20657">
        <ele>316.89</ele>
        <time>2014-11-02T16:46:13Z</time>
      </trkpt>
      <trkpt lat="43.1874" lon="-0.20711">
        <ele>314.97</ele>
        <time>2014-11-02T16:46:20Z</time>
      </trkpt>
      <trkpt lat="43.18745" lon="-0.20781">
        <ele>311.12</ele>
        <time>2014-11-02T16:46:27Z</time>
      </trkpt>
      <trkpt lat="43.18748" lon="-0.20805">
        <ele>310.64</ele>
        <time>2014-11-02T16:46:29Z</time>
      </trkpt>
      <trkpt lat="43.18751" lon="-0.20817">
        <ele>310.16</ele>
        <time>2014-11-02T16:46:30Z</time>
      </trkpt>
      <trkpt lat="43.18755" lon="-0.20828">
        <ele>309.2</ele>
        <time>2014-11-02T16:46:31Z</time>
      </trkpt>
      <trkpt lat="43.1876" lon="-0.20838">
        <ele>308.72</ele>
        <time>2014-11-02T16:46:32Z</time>
      </trkpt>
      <trkpt lat="43.18766" lon="-0.20846">
        <ele>308.72</ele>
        <time>2014-11-02T16:46:33Z</time>
      </trkpt>
      <trkpt lat="43.18773" lon="-0.20853">
        <ele>308.24</ele>
        <time>2014-11-02T16:46:34Z</time>
      </trkpt>
      <trkpt lat="43.1878" lon="-0.20858">
        <ele>308.24</ele>
        <time>2014-11-02T16:46:35Z</time>
      </trkpt>
      <trkpt lat="43.18853" lon="-0.20913">
        <ele>305.84</ele>
        <time>2014-11-02T16:46:48Z</time>
      </trkpt>
      <trkpt lat="43.18915" lon="-0.20959">
        <ele>306.8</ele>
        <time>2014-11-02T16:47:01Z</time>
      </trkpt>
      <trkpt lat="43.18925" lon="-0.20967">
        <ele>305.36</ele>
        <time>2014-11-02T16:47:03Z</time>
      </trkpt>
      <trkpt lat="43.1893" lon="-0.2097">
        <ele>305.84</ele>
        <time>2014-11-02T16:47:04Z</time>
      </trkpt>
      <trkpt lat="43.18935" lon="-0.20974">
        <ele>304.39</ele>
        <time>2014-11-02T16:47:05Z</time>
      </trkpt>
      <trkpt lat="43.18939" lon="-0.20978">
        <ele>304.88</ele>
        <time>2014-11-02T16:47:06Z</time>
      </trkpt>
      <trkpt lat="43.18943" lon="-0.20981">
        <ele>303.91</ele>
        <time>2014-11-02T16:47:07Z</time>
      </trkpt>
      <trkpt lat="43.19" lon="-0.21028">
        <ele>303.43</ele>
        <time>2014-11-02T16:47:20Z</time>
      </trkpt>
      <trkpt lat="43.19059" lon="-0.21075">
        <ele>302.47</ele>
        <time>2014-11-02T16:47:32Z</time>
      </trkpt>
      <trkpt lat="43.19125" lon="-0.21128">
        <ele>301.99</ele>
        <time>2014-11-02T16:47:48Z</time>
      </trkpt>
      <trkpt lat="43.19143" lon="-0.21143">
        <ele>301.03</ele>
        <time>2014-11-02T16:47:55Z</time>
      </trkpt>
      <trkpt lat="43.19146" lon="-0.21141">
        <ele>301.51</ele>
        <time>2014-11-02T16:47:56Z</time>
      </trkpt>
      <trkpt lat="43.19148" lon="-0.21138">
        <ele>301.03</ele>
        <time>2014-11-02T16:47:57Z</time>
      </trkpt>
      <trkpt lat="43.1915" lon="-0.21135">
        <ele>301.51</ele>
        <time>2014-11-02T16:47:58Z</time>
      </trkpt>
      <trkpt lat="43.19151" lon="-0.21131">
        <ele>301.51</ele>
        <time>2014-11-02T16:47:59Z</time>
      </trkpt>
      <trkpt lat="43.19153" lon="-0.21128">
        <ele>301.51</ele>
        <time>2014-11-02T16:48:00Z</time>
      </trkpt>
      <trkpt lat="43.19169" lon="-0.211">
        <ele>301.03</ele>
        <time>2014-11-02T16:48:14Z</time>
      </trkpt>
      <trkpt lat="43.19175" lon="-0.21095">
        <ele>301.03</ele>
        <time>2014-11-02T16:48:19Z</time>
      </trkpt>
      <trkpt lat="43.19177" lon="-0.21092">
        <ele>300.55</ele>
        <time>2014-11-02T16:48:20Z</time>
      </trkpt>
      <trkpt lat="43.19178" lon="-0.21089">
        <ele>301.03</ele>
        <time>2014-11-02T16:48:21Z</time>
      </trkpt>
      <trkpt lat="43.19205" lon="-0.2104">
        <ele>300.07</ele>
        <time>2014-11-02T16:48:34Z</time>
      </trkpt>
      <trkpt lat="43.19215" lon="-0.21035">
        <ele>300.07</ele>
        <time>2014-11-02T16:48:37Z</time>
      </trkpt>
      <trkpt lat="43.19217" lon="-0.21031">
        <ele>300.07</ele>
        <time>2014-11-02T16:48:38Z</time>
      </trkpt>
      <trkpt lat="43.19218" lon="-0.21025">
        <ele>300.07</ele>
        <time>2014-11-02T16:48:39Z</time>
      </trkpt>
      <trkpt lat="43.19222" lon="-0.20989">
        <ele>299.59</ele>
        <time>2014-11-02T16:48:47Z</time>
      </trkpt>
      <trkpt lat="43.19228" lon="-0.20984">
        <ele>299.59</ele>
        <time>2014-11-02T16:48:50Z</time>
      </trkpt>
      <trkpt lat="43.19254" lon="-0.20992">
        <ele>299.11</ele>
        <time>2014-11-02T16:49:04Z</time>
      </trkpt>
      <trkpt lat="43.19241" lon="-0.20991">
        <ele>299.11</ele>
        <time>2014-11-02T16:49:13Z</time>
      </trkpt>
      <trkpt lat="43.19222" lon="-0.20987">
        <ele>299.11</ele>
        <time>2014-11-02T16:49:25Z</time>
      </trkpt>
      <trkpt lat="43.19221" lon="-0.20987">
        <ele>298.63</ele>
        <time>2014-11-02T16:49:26Z</time>
      </trkpt>
      <trkpt lat="43.1922" lon="-0.20988">
        <ele>298.63</ele>
        <time>2014-11-02T16:49:30Z</time>
      </trkpt>
      <trkpt lat="43.19223" lon="-0.20999">
        <ele>298.63</ele>
        <time>2014-11-02T16:49:37Z</time>
      </trkpt>
      <trkpt lat="43.19219" lon="-0.21019">
        <ele>299.11</ele>
        <time>2014-11-02T16:49:42Z</time>
      </trkpt>
      <trkpt lat="43.19211" lon="-0.21036">
        <ele>299.11</ele>
        <time>2014-11-02T16:49:48Z</time>
      </trkpt>
      <trkpt lat="43.19205" lon="-0.21038">
        <ele>299.11</ele>
        <time>2014-11-02T16:49:50Z</time>
      </trkpt>
      <trkpt lat="43.19199" lon="-0.21058">
        <ele>299.11</ele>
        <time>2014-11-02T16:49:58Z</time>
      </trkpt>
      <trkpt lat="43.19194" lon="-0.21065">
        <ele>299.11</ele>
        <time>2014-11-02T16:50:00Z</time>
      </trkpt>
      <trkpt lat="43.19175" lon="-0.21094">
        <ele>299.11</ele>
        <time>2014-11-02T16:50:08Z</time>
      </trkpt>
      <trkpt lat="43.19164" lon="-0.21102">
        <ele>298.63</ele>
        <time>2014-11-02T16:50:17Z</time>
      </trkpt>
      <trkpt lat="43.19161" lon="-0.21109">
        <ele>298.63</ele>
        <time>2014-11-02T16:50:23Z</time>
      </trkpt>
      <trkpt lat="43.19166" lon="-0.21116">
        <ele>298.63</ele>
        <time>2014-11-02T16:50:33Z</time>
      </trkpt>
      <trkpt lat="43.19166" lon="-0.21122">
        <ele>298.15</ele>
        <time>2014-11-02T16:50:44Z</time>
      </trkpt>
      <trkpt lat="43.19164" lon="-0.21121">
        <ele>297.67</ele>
        <time>2014-11-02T16:50:56Z</time>
      </trkpt>
      <trkpt lat="43.19162" lon="-0.21119">
        <ele>298.15</ele>
        <time>2014-11-02T16:51:15Z</time>
      </trkpt>
      <trkpt lat="43.19163" lon="-0.21118">
        <ele>297.67</ele>
        <time>2014-11-02T16:51:39Z</time>
      </trkpt>
      <trkpt lat="43.19163" lon="-0.21118">
        <ele>297.18</ele>
        <time>2014-11-02T16:51:40Z</time>
      </trkpt>
    </trkseg>
  </trk>
  <trk>
    <name><![CDATA[Un 8 à L'Hôpital Saint-Blaise - 34022 - UtagawaVTT.com]]></name>
    <desc><![CDATA[L'Hôpital-Saint-Blaise 
Plus de détails sur le blog: http://vttaragonetplusaunord.blogspot.com/]]></desc>
    <trkseg>
      <trkpt lat="43.25102" lon="-0.76951">
        <ele>148.842</ele>
        <time>2021-05-20T12:04:59Z</time>
      </trkpt>
      <trkpt lat="43.25089" lon="-0.76959">
        <ele>149.622</ele>
        <time>2021-05-20T12:06:17Z</time>
      </trkpt>
      <trkpt lat="43.25139" lon="-0.76946">
        <ele>149.914</ele>
        <time>2021-05-20T12:08:00Z</time>
      </trkpt>
      <trkpt lat="43.25164" lon="-0.76853">
        <ele>149.908</ele>
        <time>2021-05-20T12:08:21Z</time>
      </trkpt>
      <trkpt lat="43.25135" lon="-0.76708">
        <ele>151.771</ele>
        <time>2021-05-20T12:08:47Z</time>
      </trkpt>
      <trkpt lat="43.25137" lon="-0.7649">
        <ele>151.887</ele>
        <time>2021-05-20T12:09:16Z</time>
      </trkpt>
      <trkpt lat="43.25132" lon="-0.76428">
        <ele>153.319</ele>
        <time>2021-05-20T12:09:25Z</time>
      </trkpt>
      <trkpt lat="43.25119" lon="-0.76413">
        <ele>153.178</ele>
        <time>2021-05-20T12:09:29Z</time>
      </trkpt>
      <trkpt lat="43.2503" lon="-0.76476">
        <ele>151.055</ele>
        <time>2021-05-20T12:09:51Z</time>
      </trkpt>
      <trkpt lat="43.25007" lon="-0.7652">
        <ele>159.913</ele>
        <time>2021-05-20T12:10:08Z</time>
      </trkpt>
      <trkpt lat="43.24984" lon="-0.765">
        <ele>170.273</ele>
        <time>2021-05-20T12:10:21Z</time>
      </trkpt>
      <trkpt lat="43.24972" lon="-0.76453">
        <ele>176.614</ele>
        <time>2021-05-20T12:10:38Z</time>
      </trkpt>
      <trkpt lat="43.24939" lon="-0.76437">
        <ele>178.695</ele>
        <time>2021-05-20T12:10:51Z</time>
      </trkpt>
      <trkpt lat="43.2492" lon="-0.76448">
        <ele>179.049</ele>
        <time>2021-05-20T12:11:00Z</time>
      </trkpt>
      <trkpt lat="43.24952" lon="-0.76662">
        <ele>194.223</ele>
        <time>2021-05-20T12:12:13Z</time>
      </trkpt>
      <trkpt lat="43.24931" lon="-0.76843">
        <ele>204.608</ele>
        <time>2021-05-20T12:13:10Z</time>
      </trkpt>
      <trkpt lat="43.24893" lon="-0.76975">
        <ele>206.866</ele>
        <time>2021-05-20T12:13:52Z</time>
      </trkpt>
      <trkpt lat="43.24804" lon="-0.76991">
        <ele>196.972</ele>
        <time>2021-05-20T12:14:03Z</time>
      </trkpt>
      <trkpt lat="43.2474" lon="-0.76957">
        <ele>190.394</ele>
        <time>2021-05-20T12:14:10Z</time>
      </trkpt>
      <trkpt lat="43.24672" lon="-0.76955">
        <ele>183.163</ele>
        <time>2021-05-20T12:14:17Z</time>
      </trkpt>
      <trkpt lat="43.24548" lon="-0.77091">
        <ele>201.05</ele>
        <time>2021-05-20T12:15:01Z</time>
      </trkpt>
      <trkpt lat="43.24442" lon="-0.77004">
        <ele>224.398</ele>
        <time>2021-05-20T12:15:56Z</time>
      </trkpt>
      <trkpt lat="43.24217" lon="-0.77103">
        <ele>235.288</ele>
        <time>2021-05-20T12:17:34Z</time>
      </trkpt>
      <trkpt lat="43.24104" lon="-0.77097">
        <ele>240.439</ele>
        <time>2021-05-20T12:18:49Z</time>
      </trkpt>
      <trkpt lat="43.24083" lon="-0.77195">
        <ele>244.814</ele>
        <time>2021-05-20T12:19:46Z</time>
      </trkpt>
      <trkpt lat="43.24115" lon="-0.77546">
        <ele>249.754</ele>
        <time>2021-05-20T12:20:49Z</time>
      </trkpt>
      <trkpt lat="43.24073" lon="-0.77656">
        <ele>244.809</ele>
        <time>2021-05-20T12:21:01Z</time>
      </trkpt>
      <trkpt lat="43.24015" lon="-0.77763">
        <ele>241.608</ele>
        <time>2021-05-20T12:21:19Z</time>
      </trkpt>
      <trkpt lat="43.23831" lon="-0.78007">
        <ele>260.638</ele>
        <time>2021-05-20T12:22:30Z</time>
      </trkpt>
      <trkpt lat="43.23799" lon="-0.78223">
        <ele>269.584</ele>
        <time>2021-05-20T12:25:10Z</time>
      </trkpt>
      <trkpt lat="43.23695" lon="-0.78378">
        <ele>253.276</ele>
        <time>2021-05-20T12:25:33Z</time>
      </trkpt>
      <trkpt lat="43.2368" lon="-0.78387">
        <ele>252.375</ele>
        <time>2021-05-20T12:25:36Z</time>
      </trkpt>
      <trkpt lat="43.23659" lon="-0.78374">
        <ele>253.162</ele>
        <time>2021-05-20T12:25:44Z</time>
      </trkpt>
      <trkpt lat="43.2356" lon="-0.78295">
        <ele>250.56</ele>
        <time>2021-05-20T12:26:14Z</time>
      </trkpt>
      <trkpt lat="43.23633" lon="-0.78359">
        <ele>260.05</ele>
        <time>2021-05-20T12:26:49Z</time>
      </trkpt>
      <trkpt lat="43.23688" lon="-0.78387">
        <ele>260.991</ele>
        <time>2021-05-20T12:27:15Z</time>
      </trkpt>
      <trkpt lat="43.23689" lon="-0.78426">
        <ele>254.532</ele>
        <time>2021-05-20T12:29:03Z</time>
      </trkpt>
      <trkpt lat="43.23668" lon="-0.78478">
        <ele>246.092</ele>
        <time>2021-05-20T12:29:30Z</time>
      </trkpt>
      <trkpt lat="43.23526" lon="-0.78632">
        <ele>237.511</ele>
        <time>2021-05-20T12:31:24Z</time>
      </trkpt>
      <trkpt lat="43.23508" lon="-0.78668">
        <ele>236.108</ele>
        <time>2021-05-20T12:31:35Z</time>
      </trkpt>
      <trkpt lat="43.2348" lon="-0.78683">
        <ele>237.71</ele>
        <time>2021-05-20T12:32:42Z</time>
      </trkpt>
      <trkpt lat="43.23461" lon="-0.78686">
        <ele>238.226</ele>
        <time>2021-05-20T12:32:56Z</time>
      </trkpt>
      <trkpt lat="43.23309" lon="-0.78585">
        <ele>266.468</ele>
        <time>2021-05-20T12:35:35Z</time>
      </trkpt>
      <trkpt lat="43.23266" lon="-0.78598">
        <ele>266.357</ele>
        <time>2021-05-20T12:39:13Z</time>
      </trkpt>
      <trkpt lat="43.23227" lon="-0.78633">
        <ele>265.514</ele>
        <time>2021-05-20T12:39:29Z</time>
      </trkpt>
      <trkpt lat="43.23187" lon="-0.78789">
        <ele>285.832</ele>
        <time>2021-05-20T12:40:24Z</time>
      </trkpt>
      <trkpt lat="43.23108" lon="-0.79002">
        <ele>305.762</ele>
        <time>2021-05-20T12:42:35Z</time>
      </trkpt>
      <trkpt lat="43.23085" lon="-0.79164">
        <ele>318.963</ele>
        <time>2021-05-20T12:44:03Z</time>
      </trkpt>
      <trkpt lat="43.22984" lon="-0.79263">
        <ele>321.637</ele>
        <time>2021-05-20T12:45:02Z</time>
      </trkpt>
      <trkpt lat="43.22831" lon="-0.79342">
        <ele>331.349</ele>
        <time>2021-05-20T12:47:56Z</time>
      </trkpt>
      <trkpt lat="43.22795" lon="-0.79396">
        <ele>329.913</ele>
        <time>2021-05-20T12:48:08Z</time>
      </trkpt>
      <trkpt lat="43.22752" lon="-0.79535">
        <ele>340.808</ele>
        <time>2021-05-20T12:48:51Z</time>
      </trkpt>
      <trkpt lat="43.2267" lon="-0.79601">
        <ele>345.47</ele>
        <time>2021-05-20T12:49:30Z</time>
      </trkpt>
      <trkpt lat="43.22569" lon="-0.79763">
        <ele>334.616</ele>
        <time>2021-05-20T12:52:45Z</time>
      </trkpt>
      <trkpt lat="43.22439" lon="-0.798">
        <ele>321.458</ele>
        <time>2021-05-20T12:53:03Z</time>
      </trkpt>
      <trkpt lat="43.22279" lon="-0.79777">
        <ele>317.067</ele>
        <time>2021-05-20T12:53:26Z</time>
      </trkpt>
      <trkpt lat="43.2218" lon="-0.79727">
        <ele>311.734</ele>
        <time>2021-05-20T12:53:46Z</time>
      </trkpt>
      <trkpt lat="43.22154" lon="-0.79752">
        <ele>308.072</ele>
        <time>2021-05-20T12:54:03Z</time>
      </trkpt>
      <trkpt lat="43.2214" lon="-0.79789">
        <ele>308.632</ele>
        <time>2021-05-20T12:54:22Z</time>
      </trkpt>
      <trkpt lat="43.22168" lon="-0.80178">
        <ele>362.723</ele>
        <time>2021-05-20T12:59:08Z</time>
      </trkpt>
      <trkpt lat="43.22156" lon="-0.80173">
        <ele>355.126</ele>
        <time>2021-05-20T13:00:51Z</time>
      </trkpt>
      <trkpt lat="43.22186" lon="-0.803">
        <ele>353.447</ele>
        <time>2021-05-20T13:01:36Z</time>
      </trkpt>
      <trkpt lat="43.22165" lon="-0.80376">
        <ele>341.111</ele>
        <time>2021-05-20T13:01:59Z</time>
      </trkpt>
      <trkpt lat="43.22098" lon="-0.80463">
        <ele>335.408</ele>
        <time>2021-05-20T13:03:34Z</time>
      </trkpt>
      <trkpt lat="43.221" lon="-0.80493">
        <ele>338.919</ele>
        <time>2021-05-20T13:04:02Z</time>
      </trkpt>
      <trkpt lat="43.22258" lon="-0.80516">
        <ele>337.165</ele>
        <time>2021-05-20T13:06:18Z</time>
      </trkpt>
      <trkpt lat="43.22324" lon="-0.80586">
        <ele>336.817</ele>
        <time>2021-05-20T13:06:58Z</time>
      </trkpt>
      <trkpt lat="43.22381" lon="-0.80701">
        <ele>341.436</ele>
        <time>2021-05-20T13:07:59Z</time>
      </trkpt>
      <trkpt lat="43.2239" lon="-0.80698">
        <ele>337.183</ele>
        <time>2021-05-20T13:08:19Z</time>
      </trkpt>
      <trkpt lat="43.22384" lon="-0.80734">
        <ele>324.771</ele>
        <time>2021-05-20T13:10:03Z</time>
      </trkpt>
      <trkpt lat="43.22453" lon="-0.80809">
        <ele>322.891</ele>
        <time>2021-05-20T13:10:51Z</time>
      </trkpt>
      <trkpt lat="43.22478" lon="-0.80878">
        <ele>324.422</ele>
        <time>2021-05-20T13:11:43Z</time>
      </trkpt>
      <trkpt lat="43.22472" lon="-0.80914">
        <ele>327.847</ele>
        <time>2021-05-20T13:12:35Z</time>
      </trkpt>
      <trkpt lat="43.22512" lon="-0.80928">
        <ele>329.329</ele>
        <time>2021-05-20T13:14:39Z</time>
      </trkpt>
      <trkpt lat="43.22543" lon="-0.80976">
        <ele>323.321</ele>
        <time>2021-05-20T13:17:08Z</time>
      </trkpt>
      <trkpt lat="43.22596" lon="-0.81131">
        <ele>329.608</ele>
        <time>2021-05-20T13:24:49Z</time>
      </trkpt>
      <trkpt lat="43.22749" lon="-0.81107">
        <ele>325.361</ele>
        <time>2021-05-20T13:27:41Z</time>
      </trkpt>
      <trkpt lat="43.22866" lon="-0.81047">
        <ele>325.647</ele>
        <time>2021-05-20T13:28:56Z</time>
      </trkpt>
      <trkpt lat="43.22923" lon="-0.81055">
        <ele>316.299</ele>
        <time>2021-05-20T13:29:54Z</time>
      </trkpt>
      <trkpt lat="43.23033" lon="-0.80871">
        <ele>295.468</ele>
        <time>2021-05-20T13:31:21Z</time>
      </trkpt>
      <trkpt lat="43.23226" lon="-0.80653">
        <ele>264.685</ele>
        <time>2021-05-20T13:34:08Z</time>
      </trkpt>
      <trkpt lat="43.23368" lon="-0.8043">
        <ele>238.543</ele>
        <time>2021-05-20T13:35:14Z</time>
      </trkpt>
      <trkpt lat="43.23416" lon="-0.80424">
        <ele>233.573</ele>
        <time>2021-05-20T13:35:34Z</time>
      </trkpt>
      <trkpt lat="43.23411" lon="-0.80399">
        <ele>226.474</ele>
        <time>2021-05-20T13:37:17Z</time>
      </trkpt>
      <trkpt lat="43.23455" lon="-0.80466">
        <ele>234.195</ele>
        <time>2021-05-20T13:38:36Z</time>
      </trkpt>
      <trkpt lat="43.23455" lon="-0.80539">
        <ele>233.249</ele>
        <time>2021-05-20T13:38:48Z</time>
      </trkpt>
      <trkpt lat="43.23475" lon="-0.80547">
        <ele>233.423</ele>
        <time>2021-05-20T13:38:52Z</time>
      </trkpt>
      <trkpt lat="43.23548" lon="-0.80486">
        <ele>235.508</ele>
        <time>2021-05-20T13:39:08Z</time>
      </trkpt>
      <trkpt lat="43.23611" lon="-0.80461">
        <ele>235.886</ele>
        <time>2021-05-20T13:39:24Z</time>
      </trkpt>
      <trkpt lat="43.23662" lon="-0.80467">
        <ele>232.862</ele>
        <time>2021-05-20T13:39:38Z</time>
      </trkpt>
      <trkpt lat="43.23759" lon="-0.8053">
        <ele>223.844</ele>
        <time>2021-05-20T13:39:56Z</time>
      </trkpt>
      <trkpt lat="43.23903" lon="-0.80559">
        <ele>207.783</ele>
        <time>2021-05-20T13:40:17Z</time>
      </trkpt>
      <trkpt lat="43.23963" lon="-0.80541">
        <ele>225.04</ele>
        <time>2021-05-20T13:43:34Z</time>
      </trkpt>
      <trkpt lat="43.23969" lon="-0.80529">
        <ele>221.618</ele>
        <time>2021-05-20T13:43:48Z</time>
      </trkpt>
      <trkpt lat="43.23957" lon="-0.80523">
        <ele>219.528</ele>
        <time>2021-05-20T13:44:10Z</time>
      </trkpt>
      <trkpt lat="43.24005" lon="-0.80387">
        <ele>213.979</ele>
        <time>2021-05-20T13:44:30Z</time>
      </trkpt>
      <trkpt lat="43.24007" lon="-0.80262">
        <ele>199.429</ele>
        <time>2021-05-20T13:45:24Z</time>
      </trkpt>
      <trkpt lat="43.24043" lon="-0.80129">
        <ele>209.3</ele>
        <time>2021-05-20T13:45:56Z</time>
      </trkpt>
      <trkpt lat="43.24072" lon="-0.79909">
        <ele>202.82</ele>
        <time>2021-05-20T13:47:14Z</time>
      </trkpt>
      <trkpt lat="43.24123" lon="-0.79761">
        <ele>197.408</ele>
        <time>2021-05-20T13:48:01Z</time>
      </trkpt>
      <trkpt lat="43.24223" lon="-0.79585">
        <ele>189.129</ele>
        <time>2021-05-20T13:49:39Z</time>
      </trkpt>
      <trkpt lat="43.2423" lon="-0.7946">
        <ele>174.095</ele>
        <time>2021-05-20T13:50:08Z</time>
      </trkpt>
      <trkpt lat="43.24352" lon="-0.79333">
        <ele>172.127</ele>
        <time>2021-05-20T13:50:47Z</time>
      </trkpt>
      <trkpt lat="43.2441" lon="-0.7934">
        <ele>170.396</ele>
        <time>2021-05-20T13:51:01Z</time>
      </trkpt>
      <trkpt lat="43.2444" lon="-0.79378">
        <ele>167.293</ele>
        <time>2021-05-20T13:51:46Z</time>
      </trkpt>
      <trkpt lat="43.24477" lon="-0.79351">
        <ele>167.081</ele>
        <time>2021-05-20T13:51:57Z</time>
      </trkpt>
      <trkpt lat="43.24671" lon="-0.7929">
        <ele>165.081</ele>
        <time>2021-05-20T13:52:30Z</time>
      </trkpt>
      <trkpt lat="43.24762" lon="-0.79207">
        <ele>164.672</ele>
        <time>2021-05-20T13:52:47Z</time>
      </trkpt>
      <trkpt lat="43.24789" lon="-0.79145">
        <ele>161.356</ele>
        <time>2021-05-20T13:52:55Z</time>
      </trkpt>
      <trkpt lat="43.248" lon="-0.79066">
        <ele>167.659</ele>
        <time>2021-05-20T13:53:05Z</time>
      </trkpt>
      <trkpt lat="43.24764" lon="-0.78682">
        <ele>184.314</ele>
        <time>2021-05-20T13:53:53Z</time>
      </trkpt>
      <trkpt lat="43.24812" lon="-0.78309">
        <ele>160.608</ele>
        <time>2021-05-20T13:54:38Z</time>
      </trkpt>
      <trkpt lat="43.24864" lon="-0.78247">
        <ele>159.592</ele>
        <time>2021-05-20T13:54:50Z</time>
      </trkpt>
      <trkpt lat="43.25128" lon="-0.78123">
        <ele>157.678</ele>
        <time>2021-05-20T13:55:38Z</time>
      </trkpt>
      <trkpt lat="43.25175" lon="-0.78082">
        <ele>157.54</ele>
        <time>2021-05-20T13:55:48Z</time>
      </trkpt>
      <trkpt lat="43.25238" lon="-0.7792">
        <ele>154.919</ele>
        <time>2021-05-20T13:56:10Z</time>
      </trkpt>
      <trkpt lat="43.25296" lon="-0.77828">
        <ele>157.126</ele>
        <time>2021-05-20T13:56:26Z</time>
      </trkpt>
      <trkpt lat="43.25435" lon="-0.77409">
        <ele>156.454</ele>
        <time>2021-05-20T13:57:23Z</time>
      </trkpt>
      <trkpt lat="43.25434" lon="-0.77336">
        <ele>156.334</ele>
        <time>2021-05-20T13:57:32Z</time>
      </trkpt>
      <trkpt lat="43.25406" lon="-0.77235">
        <ele>158.665</ele>
        <time>2021-05-20T13:57:46Z</time>
      </trkpt>
      <trkpt lat="43.25251" lon="-0.7712">
        <ele>157.486</ele>
        <time>2021-05-20T13:58:17Z</time>
      </trkpt>
      <trkpt lat="43.25187" lon="-0.77001">
        <ele>154.06</ele>
        <time>2021-05-20T13:58:43Z</time>
      </trkpt>
      <trkpt lat="43.25166" lon="-0.76821">
        <ele>153.126</ele>
        <time>2021-05-20T14:00:46Z</time>
      </trkpt>
      <trkpt lat="43.252" lon="-0.76594">
        <ele>162.508</ele>
        <time>2021-05-20T14:01:29Z</time>
      </trkpt>
      <trkpt lat="43.2522" lon="-0.76566">
        <ele>164.115</ele>
        <time>2021-05-20T14:01:37Z</time>
      </trkpt>
      <trkpt lat="43.25385" lon="-0.76582">
        <ele>172.911</ele>
        <time>2021-05-20T14:02:19Z</time>
      </trkpt>
      <trkpt lat="43.25567" lon="-0.76556">
        <ele>179.743</ele>
        <time>2021-05-20T14:02:58Z</time>
      </trkpt>
      <trkpt lat="43.25566" lon="-0.76528">
        <ele>178.692</ele>
        <time>2021-05-20T14:03:03Z</time>
      </trkpt>
      <trkpt lat="43.255" lon="-0.76458">
        <ele>183.349</ele>
        <time>2021-05-20T14:03:27Z</time>
      </trkpt>
      <trkpt lat="43.25503" lon="-0.76432">
        <ele>182.247</ele>
        <time>2021-05-20T14:03:36Z</time>
      </trkpt>
      <trkpt lat="43.25543" lon="-0.76407">
        <ele>185.467</ele>
        <time>2021-05-20T14:03:49Z</time>
      </trkpt>
      <trkpt lat="43.25643" lon="-0.76404">
        <ele>187.078</ele>
        <time>2021-05-20T14:04:15Z</time>
      </trkpt>
      <trkpt lat="43.25717" lon="-0.76372">
        <ele>189.837</ele>
        <time>2021-05-20T14:04:35Z</time>
      </trkpt>
      <trkpt lat="43.2584" lon="-0.76366">
        <ele>202.349</ele>
        <time>2021-05-20T14:05:16Z</time>
      </trkpt>
      <trkpt lat="43.25872" lon="-0.76458">
        <ele>211.613</ele>
        <time>2021-05-20T14:05:50Z</time>
      </trkpt>
      <trkpt lat="43.25922" lon="-0.76505">
        <ele>214.908</ele>
        <time>2021-05-20T14:06:18Z</time>
      </trkpt>
      <trkpt lat="43.25998" lon="-0.76475">
        <ele>220.02</ele>
        <time>2021-05-20T14:06:53Z</time>
      </trkpt>
      <trkpt lat="43.26099" lon="-0.76477">
        <ele>236.086</ele>
        <time>2021-05-20T14:07:38Z</time>
      </trkpt>
      <trkpt lat="43.26142" lon="-0.76444">
        <ele>231.018</ele>
        <time>2021-05-20T14:08:45Z</time>
      </trkpt>
      <trkpt lat="43.26288" lon="-0.76429">
        <ele>226.147</ele>
        <time>2021-05-20T14:09:20Z</time>
      </trkpt>
      <trkpt lat="43.26369" lon="-0.7644">
        <ele>221.294</ele>
        <time>2021-05-20T14:09:29Z</time>
      </trkpt>
      <trkpt lat="43.26521" lon="-0.7637">
        <ele>213.822</ele>
        <time>2021-05-20T14:09:53Z</time>
      </trkpt>
      <trkpt lat="43.26693" lon="-0.76319">
        <ele>201.562</ele>
        <time>2021-05-20T14:10:09Z</time>
      </trkpt>
      <trkpt lat="43.26783" lon="-0.76329">
        <ele>197.173</ele>
        <time>2021-05-20T14:10:17Z</time>
      </trkpt>
      <trkpt lat="43.26873" lon="-0.76425">
        <ele>186.342</ele>
        <time>2021-05-20T14:10:26Z</time>
      </trkpt>
      <trkpt lat="43.26937" lon="-0.76437">
        <ele>178.922</ele>
        <time>2021-05-20T14:10:32Z</time>
      </trkpt>
      <trkpt lat="43.27021" lon="-0.76368">
        <ele>171.314</ele>
        <time>2021-05-20T14:10:40Z</time>
      </trkpt>
      <trkpt lat="43.27126" lon="-0.76246">
        <ele>157.708</ele>
        <time>2021-05-20T14:10:50Z</time>
      </trkpt>
      <trkpt lat="43.27187" lon="-0.76112">
        <ele>148.161</ele>
        <time>2021-05-20T14:11:00Z</time>
      </trkpt>
      <trkpt lat="43.27266" lon="-0.76093">
        <ele>144.297</ele>
        <time>2021-05-20T14:11:09Z</time>
      </trkpt>
      <trkpt lat="43.27305" lon="-0.76062">
        <ele>149.519</ele>
        <time>2021-05-20T14:11:24Z</time>
      </trkpt>
      <trkpt lat="43.2729" lon="-0.76113">
        <ele>152.178</ele>
        <time>2021-05-20T14:11:38Z</time>
      </trkpt>
      <trkpt lat="43.27332" lon="-0.76171">
        <ele>157.395</ele>
        <time>2021-05-20T14:11:54Z</time>
      </trkpt>
      <trkpt lat="43.27328" lon="-0.76315">
        <ele>164.733</ele>
        <time>2021-05-20T14:12:22Z</time>
      </trkpt>
      <trkpt lat="43.27353" lon="-0.76381">
        <ele>171.363</ele>
        <time>2021-05-20T14:12:40Z</time>
      </trkpt>
      <trkpt lat="43.27356" lon="-0.76439">
        <ele>173.424</ele>
        <time>2021-05-20T14:12:53Z</time>
      </trkpt>
      <trkpt lat="43.27347" lon="-0.76726">
        <ele>177.282</ele>
        <time>2021-05-20T14:13:49Z</time>
      </trkpt>
      <trkpt lat="43.27313" lon="-0.77075">
        <ele>182.343</ele>
        <time>2021-05-20T14:14:49Z</time>
      </trkpt>
      <trkpt lat="43.27458" lon="-0.77427">
        <ele>208.317</ele>
        <time>2021-05-20T14:16:36Z</time>
      </trkpt>
      <trkpt lat="43.27454" lon="-0.77533">
        <ele>215.008</ele>
        <time>2021-05-20T14:17:05Z</time>
      </trkpt>
      <trkpt lat="43.274" lon="-0.77621">
        <ele>219.065</ele>
        <time>2021-05-20T14:18:17Z</time>
      </trkpt>
      <trkpt lat="43.27371" lon="-0.77808">
        <ele>230.041</ele>
        <time>2021-05-20T14:19:08Z</time>
      </trkpt>
      <trkpt lat="43.27383" lon="-0.78104">
        <ele>233.683</ele>
        <time>2021-05-20T14:20:16Z</time>
      </trkpt>
      <trkpt lat="43.27397" lon="-0.78151">
        <ele>239.932</ele>
        <time>2021-05-20T14:22:43Z</time>
      </trkpt>
      <trkpt lat="43.2742" lon="-0.78185">
        <ele>235.179</ele>
        <time>2021-05-20T14:22:55Z</time>
      </trkpt>
      <trkpt lat="43.27534" lon="-0.78178">
        <ele>240.367</ele>
        <time>2021-05-20T14:23:43Z</time>
      </trkpt>
      <trkpt lat="43.27558" lon="-0.78197">
        <ele>240.717</ele>
        <time>2021-05-20T14:23:55Z</time>
      </trkpt>
      <trkpt lat="43.27675" lon="-0.7837">
        <ele>224.048</ele>
        <time>2021-05-20T14:26:02Z</time>
      </trkpt>
      <trkpt lat="43.27859" lon="-0.78577">
        <ele>210.416</ele>
        <time>2021-05-20T14:27:12Z</time>
      </trkpt>
      <trkpt lat="43.27893" lon="-0.78592">
        <ele>212.876</ele>
        <time>2021-05-20T14:27:21Z</time>
      </trkpt>
      <trkpt lat="43.27924" lon="-0.78534">
        <ele>219.513</ele>
        <time>2021-05-20T14:27:52Z</time>
      </trkpt>
      <trkpt lat="43.27934" lon="-0.78444">
        <ele>215.108</ele>
        <time>2021-05-20T14:28:11Z</time>
      </trkpt>
      <trkpt lat="43.28013" lon="-0.78429">
        <ele>205.828</ele>
        <time>2021-05-20T14:29:14Z</time>
      </trkpt>
      <trkpt lat="43.27991" lon="-0.78297">
        <ele>197.054</ele>
        <time>2021-05-20T14:31:37Z</time>
      </trkpt>
      <trkpt lat="43.28028" lon="-0.78278">
        <ele>202.916</ele>
        <time>2021-05-20T14:31:52Z</time>
      </trkpt>
      <trkpt lat="43.28095" lon="-0.78125">
        <ele>193.885</ele>
        <time>2021-05-20T14:32:24Z</time>
      </trkpt>
      <trkpt lat="43.28164" lon="-0.78076">
        <ele>194.952</ele>
        <time>2021-05-20T14:32:51Z</time>
      </trkpt>
      <trkpt lat="43.28229" lon="-0.77924">
        <ele>174.08</ele>
        <time>2021-05-20T14:33:23Z</time>
      </trkpt>
      <trkpt lat="43.28236" lon="-0.77886">
        <ele>170.76</ele>
        <time>2021-05-20T14:33:28Z</time>
      </trkpt>
      <trkpt lat="43.282" lon="-0.77668">
        <ele>171.641</ele>
        <time>2021-05-20T14:35:17Z</time>
      </trkpt>
      <trkpt lat="43.28252" lon="-0.7749">
        <ele>185.819</ele>
        <time>2021-05-20T14:38:03Z</time>
      </trkpt>
      <trkpt lat="43.28224" lon="-0.77446">
        <ele>187.609</ele>
        <time>2021-05-20T14:38:20Z</time>
      </trkpt>
      <trkpt lat="43.28187" lon="-0.7742">
        <ele>188.119</ele>
        <time>2021-05-20T14:38:34Z</time>
      </trkpt>
      <trkpt lat="43.28148" lon="-0.77309">
        <ele>180.308</ele>
        <time>2021-05-20T14:38:55Z</time>
      </trkpt>
      <trkpt lat="43.2817" lon="-0.77148">
        <ele>170.148</ele>
        <time>2021-05-20T14:39:20Z</time>
      </trkpt>
      <trkpt lat="43.28147" lon="-0.77068">
        <ele>159.034</ele>
        <time>2021-05-20T14:39:29Z</time>
      </trkpt>
      <trkpt lat="43.28152" lon="-0.77023">
        <ele>153.446</ele>
        <time>2021-05-20T14:39:34Z</time>
      </trkpt>
      <trkpt lat="43.28231" lon="-0.76908">
        <ele>132.185</ele>
        <time>2021-05-20T14:39:49Z</time>
      </trkpt>
      <trkpt lat="43.28321" lon="-0.76849">
        <ele>132.222</ele>
        <time>2021-05-20T14:40:09Z</time>
      </trkpt>
      <trkpt lat="43.2834" lon="-0.76771">
        <ele>139.12</ele>
        <time>2021-05-20T14:40:20Z</time>
      </trkpt>
      <trkpt lat="43.28337" lon="-0.76686">
        <ele>144.62</ele>
        <time>2021-05-20T14:40:33Z</time>
      </trkpt>
      <trkpt lat="43.28491" lon="-0.76384">
        <ele>151.691</ele>
        <time>2021-05-20T14:41:33Z</time>
      </trkpt>
      <trkpt lat="43.28534" lon="-0.76255">
        <ele>165.771</ele>
        <time>2021-05-20T14:42:09Z</time>
      </trkpt>
      <trkpt lat="43.28667" lon="-0.76163">
        <ele>193.641</ele>
        <time>2021-05-20T14:43:08Z</time>
      </trkpt>
      <trkpt lat="43.28693" lon="-0.76128">
        <ele>178.715</ele>
        <time>2021-05-20T14:44:40Z</time>
      </trkpt>
      <trkpt lat="43.28511" lon="-0.75959">
        <ele>176.308</ele>
        <time>2021-05-20T14:45:29Z</time>
      </trkpt>
      <trkpt lat="43.28382" lon="-0.75795">
        <ele>178.144</ele>
        <time>2021-05-20T14:45:58Z</time>
      </trkpt>
      <trkpt lat="43.28197" lon="-0.75455">
        <ele>181.42</ele>
        <time>2021-05-20T14:46:57Z</time>
      </trkpt>
      <trkpt lat="43.28077" lon="-0.75269">
        <ele>179.442</ele>
        <time>2021-05-20T14:47:29Z</time>
      </trkpt>
      <trkpt lat="43.2807" lon="-0.7523">
        <ele>179.971</ele>
        <time>2021-05-20T14:47:42Z</time>
      </trkpt>
      <trkpt lat="43.27923" lon="-0.75165">
        <ele>178.738</ele>
        <time>2021-05-20T14:48:41Z</time>
      </trkpt>
      <trkpt lat="43.27781" lon="-0.75185">
        <ele>178.746</ele>
        <time>2021-05-20T14:49:11Z</time>
      </trkpt>
      <trkpt lat="43.27677" lon="-0.75098">
        <ele>180.436</ele>
        <time>2021-05-20T14:49:42Z</time>
      </trkpt>
      <trkpt lat="43.27527" lon="-0.74884">
        <ele>182.927</ele>
        <time>2021-05-20T14:50:44Z</time>
      </trkpt>
      <trkpt lat="43.27503" lon="-0.74821">
        <ele>182.474</ele>
        <time>2021-05-20T14:51:02Z</time>
      </trkpt>
      <trkpt lat="43.27725" lon="-0.74876">
        <ele>183.856</ele>
        <time>2021-05-20T14:51:52Z</time>
      </trkpt>
      <trkpt lat="43.2784" lon="-0.74768">
        <ele>182.221</ele>
        <time>2021-05-20T14:52:25Z</time>
      </trkpt>
      <trkpt lat="43.27806" lon="-0.74696">
        <ele>182.108</ele>
        <time>2021-05-20T14:52:41Z</time>
      </trkpt>
      <trkpt lat="43.27606" lon="-0.7442">
        <ele>184.484</ele>
        <time>2021-05-20T14:53:41Z</time>
      </trkpt>
      <trkpt lat="43.27482" lon="-0.74272">
        <ele>185.17</ele>
        <time>2021-05-20T14:54:20Z</time>
      </trkpt>
      <trkpt lat="43.27389" lon="-0.74113">
        <ele>186.442</ele>
        <time>2021-05-20T14:55:05Z</time>
      </trkpt>
      <trkpt lat="43.27359" lon="-0.74144">
        <ele>188.851</ele>
        <time>2021-05-20T14:55:21Z</time>
      </trkpt>
      <trkpt lat="43.2734" lon="-0.74123">
        <ele>189.168</ele>
        <time>2021-05-20T14:55:40Z</time>
      </trkpt>
      <trkpt lat="43.27323" lon="-0.74127">
        <ele>185.916</ele>
        <time>2021-05-20T14:58:56Z</time>
      </trkpt>
      <trkpt lat="43.27324" lon="-0.74105">
        <ele>178.536</ele>
        <time>2021-05-20T15:00:53Z</time>
      </trkpt>
      <trkpt lat="43.26213" lon="-0.72867">
        <ele>195.937</ele>
        <time>2021-05-20T15:06:37Z</time>
      </trkpt>
      <trkpt lat="43.26225" lon="-0.72776">
        <ele>192.981</ele>
        <time>2021-05-20T15:06:54Z</time>
      </trkpt>
      <trkpt lat="43.26149" lon="-0.72701">
        <ele>182.561</ele>
        <time>2021-05-20T15:07:20Z</time>
      </trkpt>
      <trkpt lat="43.26124" lon="-0.72702">
        <ele>179.617</ele>
        <time>2021-05-20T15:07:31Z</time>
      </trkpt>
      <trkpt lat="43.26096" lon="-0.72724">
        <ele>179.308</ele>
        <time>2021-05-20T15:07:41Z</time>
      </trkpt>
      <trkpt lat="43.2605" lon="-0.72705">
        <ele>179.315</ele>
        <time>2021-05-20T15:08:04Z</time>
      </trkpt>
      <trkpt lat="43.2613" lon="-0.72756">
        <ele>193.931</ele>
        <time>2021-05-20T15:09:18Z</time>
      </trkpt>
      <trkpt lat="43.26165" lon="-0.72719">
        <ele>193.513</ele>
        <time>2021-05-20T15:09:35Z</time>
      </trkpt>
      <trkpt lat="43.26225" lon="-0.72788">
        <ele>193.582</ele>
        <time>2021-05-20T15:09:55Z</time>
      </trkpt>
      <trkpt lat="43.26006" lon="-0.73797">
        <ele>196.499</ele>
        <time>2021-05-20T15:12:16Z</time>
      </trkpt>
      <trkpt lat="43.25964" lon="-0.73893">
        <ele>196.667</ele>
        <time>2021-05-20T15:12:31Z</time>
      </trkpt>
      <trkpt lat="43.25949" lon="-0.7389">
        <ele>196.217</ele>
        <time>2021-05-20T15:12:35Z</time>
      </trkpt>
      <trkpt lat="43.25751" lon="-0.73609">
        <ele>192.738</ele>
        <time>2021-05-20T15:13:45Z</time>
      </trkpt>
      <trkpt lat="43.25678" lon="-0.73025">
        <ele>202.583</ele>
        <time>2021-05-20T15:15:26Z</time>
      </trkpt>
      <trkpt lat="43.25588" lon="-0.72825">
        <ele>199.025</ele>
        <time>2021-05-20T15:16:15Z</time>
      </trkpt>
      <trkpt lat="43.25533" lon="-0.72886">
        <ele>202.717</ele>
        <time>2021-05-20T15:16:43Z</time>
      </trkpt>
      <trkpt lat="43.25464" lon="-0.72906">
        <ele>202.308</ele>
        <time>2021-05-20T15:18:13Z</time>
      </trkpt>
      <trkpt lat="43.25411" lon="-0.72969">
        <ele>202.355</ele>
        <time>2021-05-20T15:18:59Z</time>
      </trkpt>
      <trkpt lat="43.25397" lon="-0.73046">
        <ele>196.211</ele>
        <time>2021-05-20T15:19:21Z</time>
      </trkpt>
      <trkpt lat="43.25422" lon="-0.73154">
        <ele>178.583</ele>
        <time>2021-05-20T15:20:02Z</time>
      </trkpt>
      <trkpt lat="43.25374" lon="-0.7319">
        <ele>174.922</ele>
        <time>2021-05-20T15:20:30Z</time>
      </trkpt>
      <trkpt lat="43.25351" lon="-0.73324">
        <ele>196.819</ele>
        <time>2021-05-20T15:21:42Z</time>
      </trkpt>
      <trkpt lat="43.25298" lon="-0.73383">
        <ele>193.517</ele>
        <time>2021-05-20T15:22:11Z</time>
      </trkpt>
      <trkpt lat="43.25083" lon="-0.73768">
        <ele>201.347</ele>
        <time>2021-05-20T15:24:09Z</time>
      </trkpt>
      <trkpt lat="43.249" lon="-0.744">
        <ele>235.058</ele>
        <time>2021-05-20T15:27:41Z</time>
      </trkpt>
      <trkpt lat="43.24722" lon="-0.74561">
        <ele>241.247</ele>
        <time>2021-05-20T15:29:50Z</time>
      </trkpt>
      <trkpt lat="43.24704" lon="-0.74567">
        <ele>243.329</ele>
        <time>2021-05-20T15:29:56Z</time>
      </trkpt>
      <trkpt lat="43.24686" lon="-0.74549">
        <ele>243.921</ele>
        <time>2021-05-20T15:30:07Z</time>
      </trkpt>
      <trkpt lat="43.24657" lon="-0.74573">
        <ele>242.708</ele>
        <time>2021-05-20T15:30:17Z</time>
      </trkpt>
      <trkpt lat="43.24616" lon="-0.74639">
        <ele>240.251</ele>
        <time>2021-05-20T15:30:33Z</time>
      </trkpt>
      <trkpt lat="43.24606" lon="-0.74717">
        <ele>238.937</ele>
        <time>2021-05-20T15:30:49Z</time>
      </trkpt>
      <trkpt lat="43.24547" lon="-0.74752">
        <ele>237.689</ele>
        <time>2021-05-20T15:31:07Z</time>
      </trkpt>
      <trkpt lat="43.24512" lon="-0.74804">
        <ele>235.768</ele>
        <time>2021-05-20T15:31:21Z</time>
      </trkpt>
      <trkpt lat="43.24451" lon="-0.74849">
        <ele>235.115</ele>
        <time>2021-05-20T15:31:46Z</time>
      </trkpt>
      <trkpt lat="43.24413" lon="-0.74835">
        <ele>235.623</ele>
        <time>2021-05-20T15:32:01Z</time>
      </trkpt>
      <trkpt lat="43.24363" lon="-0.74718">
        <ele>258.873</ele>
        <time>2021-05-20T15:32:40Z</time>
      </trkpt>
      <trkpt lat="43.24333" lon="-0.74718">
        <ele>255.914</ele>
        <time>2021-05-20T15:32:49Z</time>
      </trkpt>
      <trkpt lat="43.24306" lon="-0.74699">
        <ele>253.077</ele>
        <time>2021-05-20T15:33:02Z</time>
      </trkpt>
      <trkpt lat="43.24256" lon="-0.74717">
        <ele>251.961</ele>
        <time>2021-05-20T15:33:22Z</time>
      </trkpt>
      <trkpt lat="43.24228" lon="-0.74703">
        <ele>251.127</ele>
        <time>2021-05-20T15:33:31Z</time>
      </trkpt>
      <trkpt lat="43.24171" lon="-0.7475">
        <ele>244.408</ele>
        <time>2021-05-20T15:34:14Z</time>
      </trkpt>
      <trkpt lat="43.24222" lon="-0.74819">
        <ele>261.564</ele>
        <time>2021-05-20T15:34:48Z</time>
      </trkpt>
      <trkpt lat="43.24238" lon="-0.74917">
        <ele>252.28</ele>
        <time>2021-05-20T15:35:19Z</time>
      </trkpt>
      <trkpt lat="43.24215" lon="-0.74964">
        <ele>245.662</ele>
        <time>2021-05-20T15:35:30Z</time>
      </trkpt>
      <trkpt lat="43.24205" lon="-0.75055">
        <ele>238.761</ele>
        <time>2021-05-20T15:35:49Z</time>
      </trkpt>
      <trkpt lat="43.24107" lon="-0.75166">
        <ele>223.068</ele>
        <time>2021-05-20T15:36:38Z</time>
      </trkpt>
      <trkpt lat="43.24061" lon="-0.75277">
        <ele>207.826</ele>
        <time>2021-05-20T15:37:08Z</time>
      </trkpt>
      <trkpt lat="43.24087" lon="-0.75346">
        <ele>190.836</ele>
        <time>2021-05-20T15:37:29Z</time>
      </trkpt>
      <trkpt lat="43.24126" lon="-0.7535">
        <ele>179.927</ele>
        <time>2021-05-20T15:37:40Z</time>
      </trkpt>
      <trkpt lat="43.2411" lon="-0.75376">
        <ele>176.883</ele>
        <time>2021-05-20T15:37:50Z</time>
      </trkpt>
      <trkpt lat="43.24035" lon="-0.75401">
        <ele>176.925</ele>
        <time>2021-05-20T15:38:27Z</time>
      </trkpt>
      <trkpt lat="43.24023" lon="-0.75518">
        <ele>177.717</ele>
        <time>2021-05-20T15:42:03Z</time>
      </trkpt>
      <trkpt lat="43.24118" lon="-0.75557">
        <ele>177.708</ele>
        <time>2021-05-20T15:42:35Z</time>
      </trkpt>
      <trkpt lat="43.24175" lon="-0.75521">
        <ele>172.495</ele>
        <time>2021-05-20T15:43:20Z</time>
      </trkpt>
      <trkpt lat="43.24234" lon="-0.75523">
        <ele>173.631</ele>
        <time>2021-05-20T15:43:45Z</time>
      </trkpt>
      <trkpt lat="43.2427" lon="-0.75565">
        <ele>179.653</ele>
        <time>2021-05-20T15:44:06Z</time>
      </trkpt>
      <trkpt lat="43.24355" lon="-0.75555">
        <ele>179.722</ele>
        <time>2021-05-20T15:44:46Z</time>
      </trkpt>
      <trkpt lat="43.24382" lon="-0.75585">
        <ele>184.419</ele>
        <time>2021-05-20T15:45:07Z</time>
      </trkpt>
      <trkpt lat="43.24443" lon="-0.7556">
        <ele>187.697</ele>
        <time>2021-05-20T15:45:40Z</time>
      </trkpt>
      <trkpt lat="43.24498" lon="-0.75592">
        <ele>191.387</ele>
        <time>2021-05-20T15:46:05Z</time>
      </trkpt>
      <trkpt lat="43.24547" lon="-0.75634">
        <ele>192.788</ele>
        <time>2021-05-20T15:47:02Z</time>
      </trkpt>
      <trkpt lat="43.24551" lon="-0.75701">
        <ele>194.733</ele>
        <time>2021-05-20T15:47:20Z</time>
      </trkpt>
      <trkpt lat="43.24695" lon="-0.75843">
        <ele>200.723</ele>
        <time>2021-05-20T15:49:09Z</time>
      </trkpt>
      <trkpt lat="43.24757" lon="-0.75929">
        <ele>200.315</ele>
        <time>2021-05-20T15:49:40Z</time>
      </trkpt>
      <trkpt lat="43.24777" lon="-0.75987">
        <ele>202.408</ele>
        <time>2021-05-20T15:49:58Z</time>
      </trkpt>
      <trkpt lat="43.24804" lon="-0.76003">
        <ele>200.82</ele>
        <time>2021-05-20T15:50:06Z</time>
      </trkpt>
      <trkpt lat="43.24931" lon="-0.76188">
        <ele>162.136</ele>
        <time>2021-05-20T15:51:26Z</time>
      </trkpt>
      <trkpt lat="43.24941" lon="-0.76182">
        <ele>165.448</ele>
        <time>2021-05-20T15:52:25Z</time>
      </trkpt>
      <trkpt lat="43.24871" lon="-0.76367">
        <ele>191.337</ele>
        <time>2021-05-20T15:53:53Z</time>
      </trkpt>
      <trkpt lat="43.2498" lon="-0.76309">
        <ele>170.634</ele>
        <time>2021-05-20T15:54:40Z</time>
      </trkpt>
      <trkpt lat="43.25005" lon="-0.76334">
        <ele>159.612</ele>
        <time>2021-05-20T15:54:54Z</time>
      </trkpt>
      <trkpt lat="43.25045" lon="-0.76478">
        <ele>167.052</ele>
        <time>2021-05-20T15:55:54Z</time>
      </trkpt>
      <trkpt lat="43.25134" lon="-0.76417">
        <ele>167.413</ele>
        <time>2021-05-20T15:57:04Z</time>
      </trkpt>
      <trkpt lat="43.2514" lon="-0.76683">
        <ele>153.327</ele>
        <time>2021-05-20T15:57:44Z</time>
      </trkpt>
      <trkpt lat="43.25167" lon="-0.7686">
        <ele>154.568</ele>
        <time>2021-05-20T15:58:11Z</time>
      </trkpt>
      <trkpt lat="43.25148" lon="-0.76954">
        <ele>156.214</ele>
        <time>2021-05-20T15:58:27Z</time>
      </trkpt>
      <trkpt lat="43.25102" lon="-0.76948">
        <ele>156.608</ele>
        <time>2021-05-20T15:58:39Z</time>
      </trkpt>
      <trkpt lat="43.25094" lon="-0.7696">
        <ele>155.979</ele>
        <time>2021-05-20T15:58:43Z</time>
      </trkpt>
    </trkseg>
  </trk>
  <trk>
    <name><![CDATA[Vacances à Lescun J2]]></name>
    <trkseg>
      <trkpt lat="42.91412" lon="-0.65472">
        <ele>1076</ele>
      </trkpt>
      <trkpt lat="42.9139" lon="-0.65482">
        <ele>1076</ele>
      </trkpt>
      <trkpt lat="42.91394" lon="-0.65496">
        <ele>1076</ele>
      </trkpt>
      <trkpt lat="42.91436" lon="-0.65519">
        <ele>1076</ele>
      </trkpt>
      <trkpt lat="42.91466" lon="-0.65505">
        <ele>1067</ele>
      </trkpt>
      <trkpt lat="42.91478" lon="-0.6548">
        <ele>1067</ele>
      </trkpt>
      <trkpt lat="42.91497" lon="-0.65409">
        <ele>1061</ele>
      </trkpt>
      <trkpt lat="42.91491" lon="-0.65302">
        <ele>1057</ele>
      </trkpt>
      <trkpt lat="42.91478" lon="-0.65251">
        <ele>1052</ele>
      </trkpt>
      <trkpt lat="42.91493" lon="-0.65179">
        <ele>1048</ele>
      </trkpt>
      <trkpt lat="42.9153" lon="-0.65144">
        <ele>1048</ele>
      </trkpt>
      <trkpt lat="42.91556" lon="-0.65095">
        <ele>1049</ele>
      </trkpt>
      <trkpt lat="42.91562" lon="-0.65076">
        <ele>1049</ele>
      </trkpt>
      <trkpt lat="42.91565" lon="-0.64988">
        <ele>1050</ele>
      </trkpt>
      <trkpt lat="42.91589" lon="-0.64963">
        <ele>1050</ele>
      </trkpt>
      <trkpt lat="42.91625" lon="-0.64941">
        <ele>1050</ele>
      </trkpt>
      <trkpt lat="42.91643" lon="-0.64947">
        <ele>1038</ele>
      </trkpt>
      <trkpt lat="42.91686" lon="-0.64999">
        <ele>1046</ele>
      </trkpt>
      <trkpt lat="42.91719" lon="-0.64993">
        <ele>1024</ele>
      </trkpt>
      <trkpt lat="42.91732" lon="-0.64957">
        <ele>1032</ele>
      </trkpt>
      <trkpt lat="42.91777" lon="-0.64906">
        <ele>1032</ele>
      </trkpt>
      <trkpt lat="42.91793" lon="-0.64874">
        <ele>1021</ele>
      </trkpt>
      <trkpt lat="42.91807" lon="-0.64835">
        <ele>1021</ele>
      </trkpt>
      <trkpt lat="42.91813" lon="-0.64806">
        <ele>1021</ele>
      </trkpt>
      <trkpt lat="42.91818" lon="-0.64746">
        <ele>1023</ele>
      </trkpt>
      <trkpt lat="42.91869" lon="-0.64591">
        <ele>1024</ele>
      </trkpt>
      <trkpt lat="42.91882" lon="-0.64525">
        <ele>1005</ele>
      </trkpt>
      <trkpt lat="42.91882" lon="-0.64494">
        <ele>1005</ele>
      </trkpt>
      <trkpt lat="42.91887" lon="-0.64464">
        <ele>1005</ele>
      </trkpt>
      <trkpt lat="42.919" lon="-0.64426">
        <ele>1003</ele>
      </trkpt>
      <trkpt lat="42.91913" lon="-0.64403">
        <ele>1003</ele>
      </trkpt>
      <trkpt lat="42.91914" lon="-0.64379">
        <ele>1003</ele>
      </trkpt>
      <trkpt lat="42.91905" lon="-0.64355">
        <ele>1005</ele>
      </trkpt>
      <trkpt lat="42.91922" lon="-0.64322">
        <ele>1005</ele>
      </trkpt>
      <trkpt lat="42.91962" lon="-0.6429">
        <ele>992</ele>
      </trkpt>
      <trkpt lat="42.91981" lon="-0.64263">
        <ele>992</ele>
      </trkpt>
      <trkpt lat="42.92024" lon="-0.64171">
        <ele>1008</ele>
      </trkpt>
      <trkpt lat="42.92108" lon="-0.64023">
        <ele>999</ele>
      </trkpt>
      <trkpt lat="42.92108" lon="-0.64032">
        <ele>999</ele>
      </trkpt>
      <trkpt lat="42.92114" lon="-0.64036">
        <ele>999</ele>
      </trkpt>
      <trkpt lat="42.92142" lon="-0.64024">
        <ele>968</ele>
      </trkpt>
      <trkpt lat="42.92157" lon="-0.64012">
        <ele>968</ele>
      </trkpt>
      <trkpt lat="42.92173" lon="-0.64014">
        <ele>968</ele>
      </trkpt>
      <trkpt lat="42.92181" lon="-0.64004">
        <ele>968</ele>
      </trkpt>
      <trkpt lat="42.92193" lon="-0.63998">
        <ele>968</ele>
      </trkpt>
      <trkpt lat="42.92202" lon="-0.63988">
        <ele>968</ele>
      </trkpt>
      <trkpt lat="42.92206" lon="-0.63977">
        <ele>968</ele>
      </trkpt>
      <trkpt lat="42.92232" lon="-0.63955">
        <ele>947</ele>
      </trkpt>
      <trkpt lat="42.92259" lon="-0.63953">
        <ele>947</ele>
      </trkpt>
      <trkpt lat="42.92275" lon="-0.63936">
        <ele>947</ele>
      </trkpt>
      <trkpt lat="42.92281" lon="-0.63937">
        <ele>947</ele>
      </trkpt>
      <trkpt lat="42.92292" lon="-0.6395">
        <ele>922</ele>
      </trkpt>
      <trkpt lat="42.923" lon="-0.6395">
        <ele>922</ele>
      </trkpt>
      <trkpt lat="42.92307" lon="-0.63964">
        <ele>914</ele>
      </trkpt>
      <trkpt lat="42.92308" lon="-0.64002">
        <ele>914</ele>
      </trkpt>
      <trkpt lat="42.92305" lon="-0.64025">
        <ele>914</ele>
      </trkpt>
      <trkpt lat="42.92284" lon="-0.64075">
        <ele>931</ele>
      </trkpt>
      <trkpt lat="42.9228" lon="-0.64101">
        <ele>931</ele>
      </trkpt>
      <trkpt lat="42.92291" lon="-0.64143">
        <ele>926</ele>
      </trkpt>
      <trkpt lat="42.92291" lon="-0.64153">
        <ele>926</ele>
      </trkpt>
      <trkpt lat="42.92308" lon="-0.64168">
        <ele>902</ele>
      </trkpt>
      <trkpt lat="42.92317" lon="-0.64138">
        <ele>902</ele>
      </trkpt>
      <trkpt lat="42.92356" lon="-0.64061">
        <ele>907</ele>
      </trkpt>
      <trkpt lat="42.9238" lon="-0.64043">
        <ele>886</ele>
      </trkpt>
      <trkpt lat="42.92432" lon="-0.64029">
        <ele>891</ele>
      </trkpt>
      <trkpt lat="42.92464" lon="-0.64012">
        <ele>875</ele>
      </trkpt>
      <trkpt lat="42.92522" lon="-0.64014">
        <ele>875</ele>
      </trkpt>
      <trkpt lat="42.92555" lon="-0.64034">
        <ele>871</ele>
      </trkpt>
      <trkpt lat="42.92569" lon="-0.64061">
        <ele>872</ele>
      </trkpt>
      <trkpt lat="42.92574" lon="-0.6408">
        <ele>872</ele>
      </trkpt>
      <trkpt lat="42.92583" lon="-0.64096">
        <ele>872</ele>
      </trkpt>
      <trkpt lat="42.92621" lon="-0.64091">
        <ele>872</ele>
      </trkpt>
      <trkpt lat="42.92681" lon="-0.64047">
        <ele>864</ele>
      </trkpt>
      <trkpt lat="42.92736" lon="-0.64031">
        <ele>853</ele>
      </trkpt>
      <trkpt lat="42.92765" lon="-0.64058">
        <ele>856</ele>
      </trkpt>
      <trkpt lat="42.92768" lon="-0.64105">
        <ele>856</ele>
      </trkpt>
      <trkpt lat="42.92791" lon="-0.64143">
        <ele>857</ele>
      </trkpt>
      <trkpt lat="42.92809" lon="-0.64137">
        <ele>850</ele>
      </trkpt>
      <trkpt lat="42.92838" lon="-0.6415">
        <ele>850</ele>
      </trkpt>
      <trkpt lat="42.9289" lon="-0.64145">
        <ele>827</ele>
      </trkpt>
      <trkpt lat="42.92917" lon="-0.64111">
        <ele>827</ele>
      </trkpt>
      <trkpt lat="42.92942" lon="-0.64093">
        <ele>827</ele>
      </trkpt>
      <trkpt lat="42.92928" lon="-0.64097">
        <ele>827</ele>
      </trkpt>
      <trkpt lat="42.92944" lon="-0.64092">
        <ele>827</ele>
      </trkpt>
      <trkpt lat="42.92966" lon="-0.6407">
        <ele>830</ele>
      </trkpt>
      <trkpt lat="42.92978" lon="-0.63966">
        <ele>827</ele>
      </trkpt>
      <trkpt lat="42.92976" lon="-0.63847">
        <ele>824</ele>
      </trkpt>
      <trkpt lat="42.92991" lon="-0.63792">
        <ele>824</ele>
      </trkpt>
      <trkpt lat="42.9302" lon="-0.63749">
        <ele>816</ele>
      </trkpt>
      <trkpt lat="42.93034" lon="-0.63704">
        <ele>809</ele>
      </trkpt>
      <trkpt lat="42.93052" lon="-0.63668">
        <ele>837</ele>
      </trkpt>
      <trkpt lat="42.93097" lon="-0.63621">
        <ele>834</ele>
      </trkpt>
      <trkpt lat="42.93118" lon="-0.63544">
        <ele>834</ele>
      </trkpt>
      <trkpt lat="42.93129" lon="-0.63547">
        <ele>857</ele>
      </trkpt>
      <trkpt lat="42.9314" lon="-0.63603">
        <ele>857</ele>
      </trkpt>
      <trkpt lat="42.9315" lon="-0.63597">
        <ele>857</ele>
      </trkpt>
      <trkpt lat="42.93174" lon="-0.63555">
        <ele>857</ele>
      </trkpt>
      <trkpt lat="42.93199" lon="-0.63528">
        <ele>854</ele>
      </trkpt>
      <trkpt lat="42.93232" lon="-0.63511">
        <ele>875</ele>
      </trkpt>
      <trkpt lat="42.93244" lon="-0.6352">
        <ele>875</ele>
      </trkpt>
      <trkpt lat="42.93279" lon="-0.6361">
        <ele>882</ele>
      </trkpt>
      <trkpt lat="42.93298" lon="-0.63623">
        <ele>895</ele>
      </trkpt>
      <trkpt lat="42.93325" lon="-0.63672">
        <ele>898</ele>
      </trkpt>
      <trkpt lat="42.93337" lon="-0.63716">
        <ele>905</ele>
      </trkpt>
      <trkpt lat="42.93334" lon="-0.63737">
        <ele>905</ele>
      </trkpt>
      <trkpt lat="42.93323" lon="-0.63743">
        <ele>905</ele>
      </trkpt>
      <trkpt lat="42.93305" lon="-0.6378">
        <ele>905</ele>
      </trkpt>
      <trkpt lat="42.9329" lon="-0.63821">
        <ele>899</ele>
      </trkpt>
      <trkpt lat="42.93292" lon="-0.63833">
        <ele>914</ele>
      </trkpt>
      <trkpt lat="42.93341" lon="-0.63802">
        <ele>914</ele>
      </trkpt>
      <trkpt lat="42.93353" lon="-0.63815">
        <ele>914</ele>
      </trkpt>
      <trkpt lat="42.93362" lon="-0.63834">
        <ele>914</ele>
      </trkpt>
      <trkpt lat="42.93385" lon="-0.63864">
        <ele>923</ele>
      </trkpt>
      <trkpt lat="42.93405" lon="-0.63873">
        <ele>923</ele>
      </trkpt>
      <trkpt lat="42.93414" lon="-0.63887">
        <ele>931</ele>
      </trkpt>
      <trkpt lat="42.93419" lon="-0.63884">
        <ele>931</ele>
      </trkpt>
      <trkpt lat="42.93434" lon="-0.6386">
        <ele>923</ele>
      </trkpt>
      <trkpt lat="42.93458" lon="-0.63848">
        <ele>923</ele>
      </trkpt>
      <trkpt lat="42.9348" lon="-0.63782">
        <ele>935</ele>
      </trkpt>
      <trkpt lat="42.93492" lon="-0.63777">
        <ele>935</ele>
      </trkpt>
      <trkpt lat="42.93541" lon="-0.63778">
        <ele>935</ele>
      </trkpt>
      <trkpt lat="42.93552" lon="-0.63807">
        <ele>953</ele>
      </trkpt>
      <trkpt lat="42.93553" lon="-0.63824">
        <ele>953</ele>
      </trkpt>
      <trkpt lat="42.93562" lon="-0.63857">
        <ele>953</ele>
      </trkpt>
      <trkpt lat="42.93591" lon="-0.63861">
        <ele>953</ele>
      </trkpt>
      <trkpt lat="42.93598" lon="-0.63858">
        <ele>953</ele>
      </trkpt>
      <trkpt lat="42.936" lon="-0.63853">
        <ele>953</ele>
      </trkpt>
      <trkpt lat="42.93626" lon="-0.63835">
        <ele>963</ele>
      </trkpt>
      <trkpt lat="42.93634" lon="-0.63839">
        <ele>963</ele>
      </trkpt>
      <trkpt lat="42.93645" lon="-0.63837">
        <ele>963</ele>
      </trkpt>
      <trkpt lat="42.93643" lon="-0.63835">
        <ele>963</ele>
      </trkpt>
      <trkpt lat="42.9364" lon="-0.63849">
        <ele>963</ele>
      </trkpt>
      <trkpt lat="42.93642" lon="-0.6388">
        <ele>970</ele>
      </trkpt>
      <trkpt lat="42.93698" lon="-0.63964">
        <ele>976</ele>
      </trkpt>
      <trkpt lat="42.93695" lon="-0.63998">
        <ele>976</ele>
      </trkpt>
      <trkpt lat="42.93678" lon="-0.64046">
        <ele>984</ele>
      </trkpt>
      <trkpt lat="42.93654" lon="-0.64079">
        <ele>984</ele>
      </trkpt>
      <trkpt lat="42.93624" lon="-0.64097">
        <ele>975</ele>
      </trkpt>
      <trkpt lat="42.93554" lon="-0.64151">
        <ele>998</ele>
      </trkpt>
      <trkpt lat="42.93532" lon="-0.64177">
        <ele>980</ele>
      </trkpt>
      <trkpt lat="42.93503" lon="-0.64224">
        <ele>1005</ele>
      </trkpt>
      <trkpt lat="42.93446" lon="-0.64276">
        <ele>987</ele>
      </trkpt>
      <trkpt lat="42.93432" lon="-0.64299">
        <ele>1004</ele>
      </trkpt>
      <trkpt lat="42.93427" lon="-0.64341">
        <ele>1004</ele>
      </trkpt>
      <trkpt lat="42.93429" lon="-0.64415">
        <ele>1009</ele>
      </trkpt>
      <trkpt lat="42.93439" lon="-0.64529">
        <ele>1014</ele>
      </trkpt>
      <trkpt lat="42.93437" lon="-0.64576">
        <ele>1019</ele>
      </trkpt>
      <trkpt lat="42.93439" lon="-0.64617">
        <ele>1019</ele>
      </trkpt>
      <trkpt lat="42.93467" lon="-0.6478">
        <ele>1058</ele>
      </trkpt>
      <trkpt lat="42.93479" lon="-0.64899">
        <ele>1059</ele>
      </trkpt>
      <trkpt lat="42.93486" lon="-0.64934">
        <ele>1059</ele>
      </trkpt>
      <trkpt lat="42.9351" lon="-0.64979">
        <ele>1057</ele>
      </trkpt>
      <trkpt lat="42.93555" lon="-0.65143">
        <ele>1069</ele>
      </trkpt>
      <trkpt lat="42.93613" lon="-0.65312">
        <ele>1071</ele>
      </trkpt>
      <trkpt lat="42.93634" lon="-0.65403">
        <ele>1083</ele>
      </trkpt>
      <trkpt lat="42.93659" lon="-0.65448">
        <ele>1083</ele>
      </trkpt>
      <trkpt lat="42.93697" lon="-0.65485">
        <ele>1079</ele>
      </trkpt>
      <trkpt lat="42.93754" lon="-0.65496">
        <ele>1091</ele>
      </trkpt>
      <trkpt lat="42.93775" lon="-0.65496">
        <ele>1091</ele>
      </trkpt>
      <trkpt lat="42.93783" lon="-0.65489">
        <ele>1091</ele>
      </trkpt>
      <trkpt lat="42.93769" lon="-0.65461">
        <ele>1091</ele>
      </trkpt>
      <trkpt lat="42.9375" lon="-0.65439">
        <ele>1101</ele>
      </trkpt>
      <trkpt lat="42.93738" lon="-0.65403">
        <ele>1101</ele>
      </trkpt>
      <trkpt lat="42.93745" lon="-0.65357">
        <ele>1112</ele>
      </trkpt>
      <trkpt lat="42.93744" lon="-0.65328">
        <ele>1112</ele>
      </trkpt>
      <trkpt lat="42.93736" lon="-0.653">
        <ele>1112</ele>
      </trkpt>
      <trkpt lat="42.93722" lon="-0.65278">
        <ele>1122</ele>
      </trkpt>
      <trkpt lat="42.93719" lon="-0.65258">
        <ele>1122</ele>
      </trkpt>
      <trkpt lat="42.9373" lon="-0.65266">
        <ele>1122</ele>
      </trkpt>
      <trkpt lat="42.93751" lon="-0.65291">
        <ele>1122</ele>
      </trkpt>
      <trkpt lat="42.93805" lon="-0.65378">
        <ele>1126</ele>
      </trkpt>
      <trkpt lat="42.93828" lon="-0.65409">
        <ele>1126</ele>
      </trkpt>
      <trkpt lat="42.93867" lon="-0.65424">
        <ele>1126</ele>
      </trkpt>
      <trkpt lat="42.93885" lon="-0.65441">
        <ele>1157</ele>
      </trkpt>
      <trkpt lat="42.93903" lon="-0.65465">
        <ele>1141</ele>
      </trkpt>
      <trkpt lat="42.93926" lon="-0.65486">
        <ele>1141</ele>
      </trkpt>
      <trkpt lat="42.9394" lon="-0.65506">
        <ele>1141</ele>
      </trkpt>
      <trkpt lat="42.9397" lon="-0.65532">
        <ele>1180</ele>
      </trkpt>
      <trkpt lat="42.93982" lon="-0.65574">
        <ele>1165</ele>
      </trkpt>
      <trkpt lat="42.9403" lon="-0.65623">
        <ele>1165</ele>
      </trkpt>
      <trkpt lat="42.94048" lon="-0.65653">
        <ele>1187</ele>
      </trkpt>
      <trkpt lat="42.94061" lon="-0.65684">
        <ele>1187</ele>
      </trkpt>
      <trkpt lat="42.94065" lon="-0.65719">
        <ele>1187</ele>
      </trkpt>
      <trkpt lat="42.94074" lon="-0.65732">
        <ele>1187</ele>
      </trkpt>
      <trkpt lat="42.9409" lon="-0.65704">
        <ele>1187</ele>
      </trkpt>
      <trkpt lat="42.94103" lon="-0.65668">
        <ele>1187</ele>
      </trkpt>
      <trkpt lat="42.94101" lon="-0.65637">
        <ele>1187</ele>
      </trkpt>
      <trkpt lat="42.94073" lon="-0.65583">
        <ele>1201</ele>
      </trkpt>
      <trkpt lat="42.94055" lon="-0.65533">
        <ele>1217</ele>
      </trkpt>
      <trkpt lat="42.94049" lon="-0.65504">
        <ele>1217</ele>
      </trkpt>
      <trkpt lat="42.94053" lon="-0.65425">
        <ele>1231</ele>
      </trkpt>
      <trkpt lat="42.94061" lon="-0.65401">
        <ele>1231</ele>
      </trkpt>
      <trkpt lat="42.94074" lon="-0.65425">
        <ele>1231</ele>
      </trkpt>
      <trkpt lat="42.94101" lon="-0.65509">
        <ele>1217</ele>
      </trkpt>
      <trkpt lat="42.94114" lon="-0.65523">
        <ele>1217</ele>
      </trkpt>
      <trkpt lat="42.94154" lon="-0.65552">
        <ele>1239</ele>
      </trkpt>
      <trkpt lat="42.94199" lon="-0.65628">
        <ele>1224</ele>
      </trkpt>
      <trkpt lat="42.94217" lon="-0.65648">
        <ele>1268</ele>
      </trkpt>
      <trkpt lat="42.94258" lon="-0.65682">
        <ele>1268</ele>
      </trkpt>
      <trkpt lat="42.94282" lon="-0.65721">
        <ele>1255</ele>
      </trkpt>
      <trkpt lat="42.9429" lon="-0.6577">
        <ele>1255</ele>
      </trkpt>
      <trkpt lat="42.94286" lon="-0.65816">
        <ele>1259</ele>
      </trkpt>
      <trkpt lat="42.94303" lon="-0.6588">
        <ele>1310</ele>
      </trkpt>
      <trkpt lat="42.94311" lon="-0.65941">
        <ele>1310</ele>
      </trkpt>
      <trkpt lat="42.94318" lon="-0.65966">
        <ele>1302</ele>
      </trkpt>
      <trkpt lat="42.94319" lon="-0.65963">
        <ele>1302</ele>
      </trkpt>
      <trkpt lat="42.94353" lon="-0.65986">
        <ele>1302</ele>
      </trkpt>
      <trkpt lat="42.94431" lon="-0.66005">
        <ele>1316</ele>
      </trkpt>
      <trkpt lat="42.9447" lon="-0.65997">
        <ele>1336</ele>
      </trkpt>
      <trkpt lat="42.94466" lon="-0.65974">
        <ele>1336</ele>
      </trkpt>
      <trkpt lat="42.94455" lon="-0.65948">
        <ele>1342</ele>
      </trkpt>
      <trkpt lat="42.94473" lon="-0.65941">
        <ele>1370</ele>
      </trkpt>
      <trkpt lat="42.94489" lon="-0.65953">
        <ele>1370</ele>
      </trkpt>
      <trkpt lat="42.94508" lon="-0.6596">
        <ele>1336</ele>
      </trkpt>
      <trkpt lat="42.94524" lon="-0.65957">
        <ele>1370</ele>
      </trkpt>
      <trkpt lat="42.94548" lon="-0.65968">
        <ele>1360</ele>
      </trkpt>
      <trkpt lat="42.94604" lon="-0.66018">
        <ele>1360</ele>
      </trkpt>
      <trkpt lat="42.9462" lon="-0.66074">
        <ele>1345</ele>
      </trkpt>
      <trkpt lat="42.94637" lon="-0.66113">
        <ele>1383</ele>
      </trkpt>
      <trkpt lat="42.94667" lon="-0.66133">
        <ele>1371</ele>
      </trkpt>
      <trkpt lat="42.94683" lon="-0.66158">
        <ele>1371</ele>
      </trkpt>
      <trkpt lat="42.947" lon="-0.66172">
        <ele>1371</ele>
      </trkpt>
      <trkpt lat="42.94749" lon="-0.66191">
        <ele>1394</ele>
      </trkpt>
      <trkpt lat="42.94767" lon="-0.66206">
        <ele>1394</ele>
      </trkpt>
      <trkpt lat="42.94773" lon="-0.66225">
        <ele>1390</ele>
      </trkpt>
      <trkpt lat="42.9477" lon="-0.66253">
        <ele>1390</ele>
      </trkpt>
      <trkpt lat="42.94781" lon="-0.66257">
        <ele>1390</ele>
      </trkpt>
      <trkpt lat="42.94799" lon="-0.66276">
        <ele>1416</ele>
      </trkpt>
      <trkpt lat="42.94793" lon="-0.66271">
        <ele>1416</ele>
      </trkpt>
      <trkpt lat="42.94811" lon="-0.6629">
        <ele>1416</ele>
      </trkpt>
      <trkpt lat="42.94833" lon="-0.66301">
        <ele>1396</ele>
      </trkpt>
      <trkpt lat="42.94885" lon="-0.66371">
        <ele>1421</ele>
      </trkpt>
      <trkpt lat="42.94918" lon="-0.6639">
        <ele>1414</ele>
      </trkpt>
      <trkpt lat="42.94939" lon="-0.66428">
        <ele>1414</ele>
      </trkpt>
      <trkpt lat="42.94979" lon="-0.66436">
        <ele>1426</ele>
      </trkpt>
      <trkpt lat="42.9498" lon="-0.66426">
        <ele>1426</ele>
      </trkpt>
      <trkpt lat="42.94976" lon="-0.66408">
        <ele>1426</ele>
      </trkpt>
      <trkpt lat="42.94996" lon="-0.66422">
        <ele>1426</ele>
      </trkpt>
      <trkpt lat="42.94995" lon="-0.66436">
        <ele>1426</ele>
      </trkpt>
      <trkpt lat="42.95002" lon="-0.66443">
        <ele>1426</ele>
      </trkpt>
      <trkpt lat="42.95025" lon="-0.66453">
        <ele>1426</ele>
      </trkpt>
      <trkpt lat="42.95042" lon="-0.66481">
        <ele>1450</ele>
      </trkpt>
      <trkpt lat="42.95049" lon="-0.6653">
        <ele>1450</ele>
      </trkpt>
      <trkpt lat="42.95025" lon="-0.6658">
        <ele>1430</ele>
      </trkpt>
      <trkpt lat="42.95011" lon="-0.66618">
        <ele>1430</ele>
      </trkpt>
      <trkpt lat="42.95017" lon="-0.66627">
        <ele>1433</ele>
      </trkpt>
      <trkpt lat="42.9502" lon="-0.6667">
        <ele>1433</ele>
      </trkpt>
      <trkpt lat="42.95002" lon="-0.66701">
        <ele>1433</ele>
      </trkpt>
      <trkpt lat="42.95002" lon="-0.66706">
        <ele>1433</ele>
      </trkpt>
      <trkpt lat="42.94999" lon="-0.66704">
        <ele>1433</ele>
      </trkpt>
      <trkpt lat="42.94993" lon="-0.66728">
        <ele>1438</ele>
      </trkpt>
      <trkpt lat="42.95002" lon="-0.66753">
        <ele>1438</ele>
      </trkpt>
      <trkpt lat="42.95017" lon="-0.66766">
        <ele>1438</ele>
      </trkpt>
      <trkpt lat="42.95032" lon="-0.66763">
        <ele>1438</ele>
      </trkpt>
      <trkpt lat="42.95054" lon="-0.6679">
        <ele>1465</ele>
      </trkpt>
      <trkpt lat="42.95063" lon="-0.66835">
        <ele>1457</ele>
      </trkpt>
      <trkpt lat="42.95088" lon="-0.66876">
        <ele>1451</ele>
      </trkpt>
      <trkpt lat="42.95088" lon="-0.66897">
        <ele>1451</ele>
      </trkpt>
      <trkpt lat="42.95106" lon="-0.66981">
        <ele>1444</ele>
      </trkpt>
      <trkpt lat="42.95118" lon="-0.67001">
        <ele>1444</ele>
      </trkpt>
      <trkpt lat="42.95137" lon="-0.67022">
        <ele>1480</ele>
      </trkpt>
      <trkpt lat="42.95147" lon="-0.67026">
        <ele>1480</ele>
      </trkpt>
      <trkpt lat="42.95162" lon="-0.67052">
        <ele>1467</ele>
      </trkpt>
      <trkpt lat="42.95164" lon="-0.67067">
        <ele>1467</ele>
      </trkpt>
      <trkpt lat="42.95169" lon="-0.67076">
        <ele>1467</ele>
      </trkpt>
      <trkpt lat="42.95173" lon="-0.67096">
        <ele>1467</ele>
      </trkpt>
      <trkpt lat="42.95194" lon="-0.67147">
        <ele>1447</ele>
      </trkpt>
      <trkpt lat="42.95203" lon="-0.6719">
        <ele>1447</ele>
      </trkpt>
      <trkpt lat="42.95217" lon="-0.67198">
        <ele>1497</ele>
      </trkpt>
      <trkpt lat="42.95227" lon="-0.6724">
        <ele>1474</ele>
      </trkpt>
      <trkpt lat="42.95241" lon="-0.67275">
        <ele>1474</ele>
      </trkpt>
      <trkpt lat="42.95251" lon="-0.67283">
        <ele>1474</ele>
      </trkpt>
      <trkpt lat="42.95253" lon="-0.67296">
        <ele>1440</ele>
      </trkpt>
      <trkpt lat="42.95313" lon="-0.67396">
        <ele>1458</ele>
      </trkpt>
      <trkpt lat="42.95325" lon="-0.67404">
        <ele>1458</ele>
      </trkpt>
      <trkpt lat="42.95347" lon="-0.67445">
        <ele>1458</ele>
      </trkpt>
      <trkpt lat="42.95349" lon="-0.67457">
        <ele>1458</ele>
      </trkpt>
      <trkpt lat="42.95358" lon="-0.67476">
        <ele>1438</ele>
      </trkpt>
      <trkpt lat="42.95389" lon="-0.675">
        <ele>1479</ele>
      </trkpt>
      <trkpt lat="42.95402" lon="-0.67529">
        <ele>1479</ele>
      </trkpt>
      <trkpt lat="42.95419" lon="-0.6755">
        <ele>1453</ele>
      </trkpt>
      <trkpt lat="42.95433" lon="-0.67585">
        <ele>1453</ele>
      </trkpt>
      <trkpt lat="42.95511" lon="-0.67695">
        <ele>1475</ele>
      </trkpt>
      <trkpt lat="42.95577" lon="-0.67857">
        <ele>1474</ele>
      </trkpt>
      <trkpt lat="42.95587" lon="-0.67871">
        <ele>1474</ele>
      </trkpt>
      <trkpt lat="42.95577" lon="-0.67914">
        <ele>1461</ele>
      </trkpt>
      <trkpt lat="42.95579" lon="-0.67928">
        <ele>1461</ele>
      </trkpt>
      <trkpt lat="42.95597" lon="-0.67969">
        <ele>1440</ele>
      </trkpt>
      <trkpt lat="42.95609" lon="-0.67987">
        <ele>1440</ele>
      </trkpt>
      <trkpt lat="42.95627" lon="-0.68005">
        <ele>1472</ele>
      </trkpt>
      <trkpt lat="42.95634" lon="-0.68021">
        <ele>1472</ele>
      </trkpt>
      <trkpt lat="42.9564" lon="-0.68061">
        <ele>1466</ele>
      </trkpt>
      <trkpt lat="42.95661" lon="-0.68083">
        <ele>1466</ele>
      </trkpt>
      <trkpt lat="42.95673" lon="-0.68102">
        <ele>1466</ele>
      </trkpt>
      <trkpt lat="42.9567" lon="-0.6811">
        <ele>1466</ele>
      </trkpt>
      <trkpt lat="42.9567" lon="-0.68127">
        <ele>1464</ele>
      </trkpt>
      <trkpt lat="42.95665" lon="-0.68147">
        <ele>1464</ele>
      </trkpt>
      <trkpt lat="42.95667" lon="-0.68158">
        <ele>1464</ele>
      </trkpt>
      <trkpt lat="42.95689" lon="-0.68199">
        <ele>1464</ele>
      </trkpt>
      <trkpt lat="42.95699" lon="-0.68229">
        <ele>1465</ele>
      </trkpt>
      <trkpt lat="42.95696" lon="-0.68241">
        <ele>1465</ele>
      </trkpt>
      <trkpt lat="42.95698" lon="-0.68251">
        <ele>1465</ele>
      </trkpt>
      <trkpt lat="42.95693" lon="-0.68261">
        <ele>1465</ele>
      </trkpt>
      <trkpt lat="42.95692" lon="-0.68281">
        <ele>1465</ele>
      </trkpt>
      <trkpt lat="42.95687" lon="-0.68292">
        <ele>1457</ele>
      </trkpt>
      <trkpt lat="42.95684" lon="-0.68292">
        <ele>1457</ele>
      </trkpt>
      <trkpt lat="42.95683" lon="-0.68322">
        <ele>1457</ele>
      </trkpt>
      <trkpt lat="42.95696" lon="-0.68365">
        <ele>1457</ele>
      </trkpt>
      <trkpt lat="42.95723" lon="-0.68394">
        <ele>1473</ele>
      </trkpt>
      <trkpt lat="42.95743" lon="-0.68406">
        <ele>1473</ele>
      </trkpt>
      <trkpt lat="42.95754" lon="-0.68422">
        <ele>1473</ele>
      </trkpt>
      <trkpt lat="42.9577" lon="-0.68496">
        <ele>1461</ele>
      </trkpt>
      <trkpt lat="42.95777" lon="-0.68504">
        <ele>1461</ele>
      </trkpt>
      <trkpt lat="42.95777" lon="-0.68514">
        <ele>1461</ele>
      </trkpt>
      <trkpt lat="42.95772" lon="-0.68523">
        <ele>1461</ele>
      </trkpt>
      <trkpt lat="42.95774" lon="-0.68557">
        <ele>1456</ele>
      </trkpt>
      <trkpt lat="42.95801" lon="-0.68614">
        <ele>1491</ele>
      </trkpt>
      <trkpt lat="42.95788" lon="-0.68654">
        <ele>1457</ele>
      </trkpt>
      <trkpt lat="42.95772" lon="-0.68671">
        <ele>1457</ele>
      </trkpt>
      <trkpt lat="42.95761" lon="-0.68719">
        <ele>1460</ele>
      </trkpt>
      <trkpt lat="42.95764" lon="-0.68739">
        <ele>1460</ele>
      </trkpt>
      <trkpt lat="42.95782" lon="-0.68768">
        <ele>1460</ele>
      </trkpt>
      <trkpt lat="42.95771" lon="-0.68768">
        <ele>1460</ele>
      </trkpt>
      <trkpt lat="42.95775" lon="-0.68773">
        <ele>1460</ele>
      </trkpt>
      <trkpt lat="42.95778" lon="-0.68814">
        <ele>1465</ele>
      </trkpt>
      <trkpt lat="42.95795" lon="-0.68854">
        <ele>1490</ele>
      </trkpt>
      <trkpt lat="42.95809" lon="-0.68874">
        <ele>1490</ele>
      </trkpt>
      <trkpt lat="42.95819" lon="-0.68925">
        <ele>1496</ele>
      </trkpt>
      <trkpt lat="42.9583" lon="-0.68943">
        <ele>1496</ele>
      </trkpt>
      <trkpt lat="42.95825" lon="-0.68941">
        <ele>1496</ele>
      </trkpt>
      <trkpt lat="42.9584" lon="-0.68985">
        <ele>1494</ele>
      </trkpt>
      <trkpt lat="42.95852" lon="-0.68999">
        <ele>1494</ele>
      </trkpt>
      <trkpt lat="42.95862" lon="-0.69002">
        <ele>1494</ele>
      </trkpt>
      <trkpt lat="42.95858" lon="-0.69009">
        <ele>1494</ele>
      </trkpt>
      <trkpt lat="42.95862" lon="-0.69013">
        <ele>1494</ele>
      </trkpt>
      <trkpt lat="42.95859" lon="-0.69035">
        <ele>1494</ele>
      </trkpt>
      <trkpt lat="42.95862" lon="-0.69044">
        <ele>1495</ele>
      </trkpt>
      <trkpt lat="42.95879" lon="-0.69066">
        <ele>1527</ele>
      </trkpt>
      <trkpt lat="42.95886" lon="-0.69095">
        <ele>1527</ele>
      </trkpt>
      <trkpt lat="42.95878" lon="-0.69119">
        <ele>1527</ele>
      </trkpt>
      <trkpt lat="42.95882" lon="-0.69132">
        <ele>1539</ele>
      </trkpt>
      <trkpt lat="42.9588" lon="-0.69143">
        <ele>1539</ele>
      </trkpt>
      <trkpt lat="42.95877" lon="-0.69143">
        <ele>1539</ele>
      </trkpt>
      <trkpt lat="42.95879" lon="-0.69168">
        <ele>1539</ele>
      </trkpt>
      <trkpt lat="42.95874" lon="-0.692">
        <ele>1502</ele>
      </trkpt>
      <trkpt lat="42.95878" lon="-0.69211">
        <ele>1544</ele>
      </trkpt>
      <trkpt lat="42.95873" lon="-0.69231">
        <ele>1511</ele>
      </trkpt>
      <trkpt lat="42.95891" lon="-0.69265">
        <ele>1544</ele>
      </trkpt>
      <trkpt lat="42.95894" lon="-0.69353">
        <ele>1543</ele>
      </trkpt>
      <trkpt lat="42.95906" lon="-0.69366">
        <ele>1543</ele>
      </trkpt>
      <trkpt lat="42.95901" lon="-0.69392">
        <ele>1544</ele>
      </trkpt>
      <trkpt lat="42.95908" lon="-0.69424">
        <ele>1544</ele>
      </trkpt>
      <trkpt lat="42.95905" lon="-0.69435">
        <ele>1544</ele>
      </trkpt>
      <trkpt lat="42.95913" lon="-0.69484">
        <ele>1553</ele>
      </trkpt>
      <trkpt lat="42.95925" lon="-0.69488">
        <ele>1553</ele>
      </trkpt>
      <trkpt lat="42.95923" lon="-0.69526">
        <ele>1553</ele>
      </trkpt>
      <trkpt lat="42.95928" lon="-0.69553">
        <ele>1564</ele>
      </trkpt>
      <trkpt lat="42.95949" lon="-0.69604">
        <ele>1564</ele>
      </trkpt>
      <trkpt lat="42.95954" lon="-0.69624">
        <ele>1564</ele>
      </trkpt>
      <trkpt lat="42.95948" lon="-0.69701">
        <ele>1572</ele>
      </trkpt>
      <trkpt lat="42.95963" lon="-0.69793">
        <ele>1616</ele>
      </trkpt>
      <trkpt lat="42.95957" lon="-0.69804">
        <ele>1590</ele>
      </trkpt>
      <trkpt lat="42.95959" lon="-0.69961">
        <ele>1652</ele>
      </trkpt>
      <trkpt lat="42.95948" lon="-0.70018">
        <ele>1615</ele>
      </trkpt>
      <trkpt lat="42.95931" lon="-0.7007">
        <ele>1630</ele>
      </trkpt>
      <trkpt lat="42.95923" lon="-0.70107">
        <ele>1630</ele>
      </trkpt>
      <trkpt lat="42.95914" lon="-0.70207">
        <ele>1640</ele>
      </trkpt>
      <trkpt lat="42.95916" lon="-0.70239">
        <ele>1645</ele>
      </trkpt>
      <trkpt lat="42.95906" lon="-0.70298">
        <ele>1654</ele>
      </trkpt>
      <trkpt lat="42.95896" lon="-0.70308">
        <ele>1654</ele>
      </trkpt>
      <trkpt lat="42.9589" lon="-0.70308">
        <ele>1654</ele>
      </trkpt>
      <trkpt lat="42.95913" lon="-0.70286">
        <ele>1645</ele>
      </trkpt>
      <trkpt lat="42.95926" lon="-0.70341">
        <ele>1654</ele>
      </trkpt>
      <trkpt lat="42.95882" lon="-0.7037">
        <ele>1654</ele>
      </trkpt>
      <trkpt lat="42.95881" lon="-0.70374">
        <ele>1654</ele>
      </trkpt>
      <trkpt lat="42.95877" lon="-0.70372">
        <ele>1654</ele>
      </trkpt>
      <trkpt lat="42.95875" lon="-0.70415">
        <ele>1666</ele>
      </trkpt>
      <trkpt lat="42.95869" lon="-0.70439">
        <ele>1666</ele>
      </trkpt>
      <trkpt lat="42.95862" lon="-0.70453">
        <ele>1666</ele>
      </trkpt>
      <trkpt lat="42.95865" lon="-0.70466">
        <ele>1677</ele>
      </trkpt>
      <trkpt lat="42.95862" lon="-0.70477">
        <ele>1677</ele>
      </trkpt>
      <trkpt lat="42.95867" lon="-0.70481">
        <ele>1677</ele>
      </trkpt>
      <trkpt lat="42.95877" lon="-0.70504">
        <ele>1686</ele>
      </trkpt>
      <trkpt lat="42.95877" lon="-0.7053">
        <ele>1686</ele>
      </trkpt>
      <trkpt lat="42.95862" lon="-0.70531">
        <ele>1677</ele>
      </trkpt>
      <trkpt lat="42.95854" lon="-0.70539">
        <ele>1677</ele>
      </trkpt>
      <trkpt lat="42.95829" lon="-0.70523">
        <ele>1677</ele>
      </trkpt>
      <trkpt lat="42.95815" lon="-0.70506">
        <ele>1677</ele>
      </trkpt>
      <trkpt lat="42.95816" lon="-0.7049">
        <ele>1677</ele>
      </trkpt>
      <trkpt lat="42.9581" lon="-0.70487">
        <ele>1677</ele>
      </trkpt>
      <trkpt lat="42.9579" lon="-0.70429">
        <ele>1715</ele>
      </trkpt>
      <trkpt lat="42.95789" lon="-0.70402">
        <ele>1715</ele>
      </trkpt>
      <trkpt lat="42.9578" lon="-0.70381">
        <ele>1715</ele>
      </trkpt>
      <trkpt lat="42.95775" lon="-0.70358">
        <ele>1709</ele>
      </trkpt>
      <trkpt lat="42.95776" lon="-0.70331">
        <ele>1709</ele>
      </trkpt>
      <trkpt lat="42.95772" lon="-0.70311">
        <ele>1709</ele>
      </trkpt>
      <trkpt lat="42.95754" lon="-0.7027">
        <ele>1691</ele>
      </trkpt>
      <trkpt lat="42.95721" lon="-0.70213">
        <ele>1691</ele>
      </trkpt>
      <trkpt lat="42.95709" lon="-0.70205">
        <ele>1668</ele>
      </trkpt>
      <trkpt lat="42.95703" lon="-0.70188">
        <ele>1713</ele>
      </trkpt>
      <trkpt lat="42.957" lon="-0.70187">
        <ele>1713</ele>
      </trkpt>
      <trkpt lat="42.95696" lon="-0.70162">
        <ele>1713</ele>
      </trkpt>
      <trkpt lat="42.95676" lon="-0.7015">
        <ele>1713</ele>
      </trkpt>
      <trkpt lat="42.95669" lon="-0.7015">
        <ele>1713</ele>
      </trkpt>
      <trkpt lat="42.95663" lon="-0.70138">
        <ele>1713</ele>
      </trkpt>
      <trkpt lat="42.95671" lon="-0.70109">
        <ele>1704</ele>
      </trkpt>
      <trkpt lat="42.95661" lon="-0.70087">
        <ele>1704</ele>
      </trkpt>
      <trkpt lat="42.95663" lon="-0.70066">
        <ele>1704</ele>
      </trkpt>
      <trkpt lat="42.95661" lon="-0.70049">
        <ele>1704</ele>
      </trkpt>
      <trkpt lat="42.95649" lon="-0.70029">
        <ele>1690</ele>
      </trkpt>
      <trkpt lat="42.95641" lon="-0.70023">
        <ele>1690</ele>
      </trkpt>
      <trkpt lat="42.95638" lon="-0.70015">
        <ele>1690</ele>
      </trkpt>
      <trkpt lat="42.95625" lon="-0.70001">
        <ele>1725</ele>
      </trkpt>
      <trkpt lat="42.95603" lon="-0.69991">
        <ele>1725</ele>
      </trkpt>
      <trkpt lat="42.95575" lon="-0.6996">
        <ele>1725</ele>
      </trkpt>
      <trkpt lat="42.95539" lon="-0.69901">
        <ele>1732</ele>
      </trkpt>
      <trkpt lat="42.95523" lon="-0.69885">
        <ele>1732</ele>
      </trkpt>
      <trkpt lat="42.95522" lon="-0.69892">
        <ele>1732</ele>
      </trkpt>
      <trkpt lat="42.95516" lon="-0.69893">
        <ele>1732</ele>
      </trkpt>
      <trkpt lat="42.95516" lon="-0.69888">
        <ele>1732</ele>
      </trkpt>
      <trkpt lat="42.95494" lon="-0.69864">
        <ele>1719</ele>
      </trkpt>
      <trkpt lat="42.95466" lon="-0.69824">
        <ele>1719</ele>
      </trkpt>
      <trkpt lat="42.95455" lon="-0.69783">
        <ele>1760</ele>
      </trkpt>
      <trkpt lat="42.95461" lon="-0.69763">
        <ele>1719</ele>
      </trkpt>
      <trkpt lat="42.95459" lon="-0.69755">
        <ele>1719</ele>
      </trkpt>
      <trkpt lat="42.95447" lon="-0.6974">
        <ele>1760</ele>
      </trkpt>
      <trkpt lat="42.95437" lon="-0.69681">
        <ele>1751</ele>
      </trkpt>
      <trkpt lat="42.95438" lon="-0.69673">
        <ele>1751</ele>
      </trkpt>
      <trkpt lat="42.95435" lon="-0.69668">
        <ele>1751</ele>
      </trkpt>
      <trkpt lat="42.95419" lon="-0.69665">
        <ele>1751</ele>
      </trkpt>
      <trkpt lat="42.95414" lon="-0.69645">
        <ele>1751</ele>
      </trkpt>
      <trkpt lat="42.95415" lon="-0.69634">
        <ele>1751</ele>
      </trkpt>
      <trkpt lat="42.95419" lon="-0.69629">
        <ele>1751</ele>
      </trkpt>
      <trkpt lat="42.95418" lon="-0.69611">
        <ele>1732</ele>
      </trkpt>
      <trkpt lat="42.95405" lon="-0.69603">
        <ele>1732</ele>
      </trkpt>
      <trkpt lat="42.95397" lon="-0.69592">
        <ele>1732</ele>
      </trkpt>
      <trkpt lat="42.95409" lon="-0.69584">
        <ele>1732</ele>
      </trkpt>
      <trkpt lat="42.95429" lon="-0.69613">
        <ele>1732</ele>
      </trkpt>
      <trkpt lat="42.95454" lon="-0.69634">
        <ele>1751</ele>
      </trkpt>
      <trkpt lat="42.95461" lon="-0.69631">
        <ele>1720</ele>
      </trkpt>
      <trkpt lat="42.95465" lon="-0.69642">
        <ele>1720</ele>
      </trkpt>
      <trkpt lat="42.95459" lon="-0.69636">
        <ele>1720</ele>
      </trkpt>
      <trkpt lat="42.95434" lon="-0.69626">
        <ele>1751</ele>
      </trkpt>
      <trkpt lat="42.95406" lon="-0.69592">
        <ele>1732</ele>
      </trkpt>
      <trkpt lat="42.95406" lon="-0.69564">
        <ele>1732</ele>
      </trkpt>
      <trkpt lat="42.95392" lon="-0.69522">
        <ele>1733</ele>
      </trkpt>
      <trkpt lat="42.95373" lon="-0.69387">
        <ele>1747</ele>
      </trkpt>
      <trkpt lat="42.95365" lon="-0.69365">
        <ele>1728</ele>
      </trkpt>
      <trkpt lat="42.95356" lon="-0.6936">
        <ele>1728</ele>
      </trkpt>
      <trkpt lat="42.95334" lon="-0.69335">
        <ele>1728</ele>
      </trkpt>
      <trkpt lat="42.95324" lon="-0.69314">
        <ele>1728</ele>
      </trkpt>
      <trkpt lat="42.95303" lon="-0.69285">
        <ele>1701</ele>
      </trkpt>
      <trkpt lat="42.95293" lon="-0.69287">
        <ele>1701</ele>
      </trkpt>
      <trkpt lat="42.95298" lon="-0.69283">
        <ele>1701</ele>
      </trkpt>
      <trkpt lat="42.95299" lon="-0.69273">
        <ele>1701</ele>
      </trkpt>
      <trkpt lat="42.95284" lon="-0.69267">
        <ele>1716</ele>
      </trkpt>
      <trkpt lat="42.95268" lon="-0.69253">
        <ele>1716</ele>
      </trkpt>
      <trkpt lat="42.95272" lon="-0.69243">
        <ele>1716</ele>
      </trkpt>
      <trkpt lat="42.95262" lon="-0.69241">
        <ele>1716</ele>
      </trkpt>
      <trkpt lat="42.95242" lon="-0.69205">
        <ele>1676</ele>
      </trkpt>
      <trkpt lat="42.95208" lon="-0.69193">
        <ele>1688.5</ele>
      </trkpt>
      <trkpt lat="42.95198" lon="-0.6917">
        <ele>1682.2</ele>
      </trkpt>
      <trkpt lat="42.95188" lon="-0.69161">
        <ele>1682.4</ele>
      </trkpt>
      <trkpt lat="42.95178" lon="-0.69123">
        <ele>1682</ele>
      </trkpt>
      <trkpt lat="42.95189" lon="-0.69068">
        <ele>1682</ele>
      </trkpt>
      <trkpt lat="42.95196" lon="-0.69066">
        <ele>1682</ele>
      </trkpt>
      <trkpt lat="42.95206" lon="-0.69054">
        <ele>1682</ele>
      </trkpt>
      <trkpt lat="42.95208" lon="-0.69035">
        <ele>1685</ele>
      </trkpt>
      <trkpt lat="42.95201" lon="-0.68999">
        <ele>1685</ele>
      </trkpt>
      <trkpt lat="42.9521" lon="-0.68962">
        <ele>1635</ele>
      </trkpt>
      <trkpt lat="42.95125" lon="-0.68877">
        <ele>1676</ele>
      </trkpt>
      <trkpt lat="42.95102" lon="-0.68885">
        <ele>1676</ele>
      </trkpt>
      <trkpt lat="42.95083" lon="-0.68921">
        <ele>1676</ele>
      </trkpt>
      <trkpt lat="42.95081" lon="-0.68943">
        <ele>1676</ele>
      </trkpt>
      <trkpt lat="42.95074" lon="-0.68949">
        <ele>1676</ele>
      </trkpt>
      <trkpt lat="42.95057" lon="-0.68944">
        <ele>1676</ele>
      </trkpt>
      <trkpt lat="42.95034" lon="-0.68974">
        <ele>1689</ele>
      </trkpt>
      <trkpt lat="42.94983" lon="-0.6896">
        <ele>1689</ele>
      </trkpt>
      <trkpt lat="42.94974" lon="-0.68978">
        <ele>1689</ele>
      </trkpt>
      <trkpt lat="42.94966" lon="-0.68974">
        <ele>1689</ele>
      </trkpt>
      <trkpt lat="42.94947" lon="-0.68981">
        <ele>1663</ele>
      </trkpt>
      <trkpt lat="42.94925" lon="-0.69025">
        <ele>1663</ele>
      </trkpt>
      <trkpt lat="42.94918" lon="-0.6907">
        <ele>1693</ele>
      </trkpt>
      <trkpt lat="42.94914" lon="-0.69079">
        <ele>1693</ele>
      </trkpt>
      <trkpt lat="42.94908" lon="-0.69117">
        <ele>1693</ele>
      </trkpt>
      <trkpt lat="42.94896" lon="-0.69134">
        <ele>1718</ele>
      </trkpt>
      <trkpt lat="42.94894" lon="-0.69143">
        <ele>1718</ele>
      </trkpt>
      <trkpt lat="42.94893" lon="-0.69134">
        <ele>1718</ele>
      </trkpt>
      <trkpt lat="42.94885" lon="-0.69139">
        <ele>1718</ele>
      </trkpt>
      <trkpt lat="42.9488" lon="-0.69159">
        <ele>1718</ele>
      </trkpt>
      <trkpt lat="42.94869" lon="-0.6916">
        <ele>1668</ele>
      </trkpt>
      <trkpt lat="42.94855" lon="-0.69172">
        <ele>1668</ele>
      </trkpt>
      <trkpt lat="42.94839" lon="-0.69204">
        <ele>1668</ele>
      </trkpt>
      <trkpt lat="42.94841" lon="-0.69231">
        <ele>1690</ele>
      </trkpt>
      <trkpt lat="42.94837" lon="-0.69236">
        <ele>1690</ele>
      </trkpt>
      <trkpt lat="42.94816" lon="-0.69222">
        <ele>1690</ele>
      </trkpt>
      <trkpt lat="42.94776" lon="-0.69206">
        <ele>1641</ele>
      </trkpt>
      <trkpt lat="42.9476" lon="-0.69207">
        <ele>1641</ele>
      </trkpt>
      <trkpt lat="42.94748" lon="-0.69214">
        <ele>1666</ele>
      </trkpt>
      <trkpt lat="42.94736" lon="-0.69228">
        <ele>1666</ele>
      </trkpt>
      <trkpt lat="42.94717" lon="-0.69285">
        <ele>1666</ele>
      </trkpt>
      <trkpt lat="42.9468" lon="-0.69345">
        <ele>1637</ele>
      </trkpt>
      <trkpt lat="42.9467" lon="-0.69371">
        <ele>1637</ele>
      </trkpt>
      <trkpt lat="42.94646" lon="-0.69404">
        <ele>1644</ele>
      </trkpt>
      <trkpt lat="42.94649" lon="-0.69414">
        <ele>1644</ele>
      </trkpt>
      <trkpt lat="42.94646" lon="-0.69421">
        <ele>1644</ele>
      </trkpt>
      <trkpt lat="42.94621" lon="-0.69409">
        <ele>1638</ele>
      </trkpt>
      <trkpt lat="42.94581" lon="-0.69368">
        <ele>1617</ele>
      </trkpt>
      <trkpt lat="42.94567" lon="-0.69347">
        <ele>1617</ele>
      </trkpt>
      <trkpt lat="42.94565" lon="-0.69329">
        <ele>1617</ele>
      </trkpt>
      <trkpt lat="42.94559" lon="-0.69322">
        <ele>1617</ele>
      </trkpt>
      <trkpt lat="42.94561" lon="-0.69286">
        <ele>1602</ele>
      </trkpt>
      <trkpt lat="42.94553" lon="-0.69279">
        <ele>1602</ele>
      </trkpt>
      <trkpt lat="42.9455" lon="-0.69281">
        <ele>1602</ele>
      </trkpt>
      <trkpt lat="42.9454" lon="-0.69274">
        <ele>1584</ele>
      </trkpt>
      <trkpt lat="42.94524" lon="-0.69277">
        <ele>1584</ele>
      </trkpt>
      <trkpt lat="42.94501" lon="-0.69296">
        <ele>1614</ele>
      </trkpt>
      <trkpt lat="42.94452" lon="-0.69319">
        <ele>1590</ele>
      </trkpt>
      <trkpt lat="42.94473" lon="-0.69309">
        <ele>1614</ele>
      </trkpt>
      <trkpt lat="42.94478" lon="-0.69294">
        <ele>1614</ele>
      </trkpt>
      <trkpt lat="42.94465" lon="-0.69294">
        <ele>1614</ele>
      </trkpt>
      <trkpt lat="42.94446" lon="-0.69301">
        <ele>1590</ele>
      </trkpt>
      <trkpt lat="42.94389" lon="-0.69349">
        <ele>1590</ele>
      </trkpt>
      <trkpt lat="42.94379" lon="-0.6935">
        <ele>1590</ele>
      </trkpt>
      <trkpt lat="42.94324" lon="-0.69396">
        <ele>1605</ele>
      </trkpt>
      <trkpt lat="42.94312" lon="-0.69395">
        <ele>1605</ele>
      </trkpt>
      <trkpt lat="42.9429" lon="-0.69405">
        <ele>1563</ele>
      </trkpt>
      <trkpt lat="42.94286" lon="-0.69402">
        <ele>1563</ele>
      </trkpt>
      <trkpt lat="42.9427" lon="-0.69414">
        <ele>1563</ele>
      </trkpt>
      <trkpt lat="42.94241" lon="-0.69453">
        <ele>1563</ele>
      </trkpt>
      <trkpt lat="42.94227" lon="-0.69478">
        <ele>1585</ele>
      </trkpt>
      <trkpt lat="42.94189" lon="-0.6953">
        <ele>1538</ele>
      </trkpt>
      <trkpt lat="42.94177" lon="-0.69565">
        <ele>1548</ele>
      </trkpt>
      <trkpt lat="42.94156" lon="-0.696">
        <ele>1548</ele>
      </trkpt>
      <trkpt lat="42.94153" lon="-0.6963">
        <ele>1557</ele>
      </trkpt>
      <trkpt lat="42.94138" lon="-0.69701">
        <ele>1557</ele>
      </trkpt>
      <trkpt lat="42.94122" lon="-0.69726">
        <ele>1528</ele>
      </trkpt>
      <trkpt lat="42.94105" lon="-0.69803">
        <ele>1533</ele>
      </trkpt>
      <trkpt lat="42.94079" lon="-0.69874">
        <ele>1533</ele>
      </trkpt>
      <trkpt lat="42.94055" lon="-0.69902">
        <ele>1542</ele>
      </trkpt>
      <trkpt lat="42.94048" lon="-0.69915">
        <ele>1542</ele>
      </trkpt>
      <trkpt lat="42.94021" lon="-0.70003">
        <ele>1527</ele>
      </trkpt>
      <trkpt lat="42.94006" lon="-0.69991">
        <ele>1527</ele>
      </trkpt>
      <trkpt lat="42.94007" lon="-0.69902">
        <ele>1518</ele>
      </trkpt>
      <trkpt lat="42.94012" lon="-0.69831">
        <ele>1513</ele>
      </trkpt>
      <trkpt lat="42.9402" lon="-0.69818">
        <ele>1513</ele>
      </trkpt>
      <trkpt lat="42.94038" lon="-0.69724">
        <ele>1509</ele>
      </trkpt>
      <trkpt lat="42.94051" lon="-0.69587">
        <ele>1506</ele>
      </trkpt>
      <trkpt lat="42.9405" lon="-0.69504">
        <ele>1497</ele>
      </trkpt>
      <trkpt lat="42.94038" lon="-0.69479">
        <ele>1483</ele>
      </trkpt>
      <trkpt lat="42.94025" lon="-0.69465">
        <ele>1483</ele>
      </trkpt>
      <trkpt lat="42.94023" lon="-0.69455">
        <ele>1475</ele>
      </trkpt>
      <trkpt lat="42.94033" lon="-0.6934">
        <ele>1459</ele>
      </trkpt>
      <trkpt lat="42.94021" lon="-0.69328">
        <ele>1459</ele>
      </trkpt>
      <trkpt lat="42.94023" lon="-0.69313">
        <ele>1459</ele>
      </trkpt>
      <trkpt lat="42.94028" lon="-0.69309">
        <ele>1459</ele>
      </trkpt>
      <trkpt lat="42.94038" lon="-0.69276">
        <ele>1445</ele>
      </trkpt>
      <trkpt lat="42.94047" lon="-0.6927">
        <ele>1449</ele>
      </trkpt>
      <trkpt lat="42.94044" lon="-0.69265">
        <ele>1449</ele>
      </trkpt>
      <trkpt lat="42.94034" lon="-0.69262">
        <ele>1445</ele>
      </trkpt>
      <trkpt lat="42.94032" lon="-0.69257">
        <ele>1445</ele>
      </trkpt>
      <trkpt lat="42.94066" lon="-0.69245">
        <ele>1449</ele>
      </trkpt>
      <trkpt lat="42.94103" lon="-0.69223">
        <ele>1449</ele>
      </trkpt>
      <trkpt lat="42.94119" lon="-0.69207">
        <ele>1416</ele>
      </trkpt>
      <trkpt lat="42.94124" lon="-0.69195">
        <ele>1416</ele>
      </trkpt>
      <trkpt lat="42.94141" lon="-0.69181">
        <ele>1424</ele>
      </trkpt>
      <trkpt lat="42.94146" lon="-0.69171">
        <ele>1424</ele>
      </trkpt>
      <trkpt lat="42.94161" lon="-0.69158">
        <ele>1424</ele>
      </trkpt>
      <trkpt lat="42.94167" lon="-0.69148">
        <ele>1424</ele>
      </trkpt>
      <trkpt lat="42.94169" lon="-0.69129">
        <ele>1424</ele>
      </trkpt>
      <trkpt lat="42.94191" lon="-0.69092">
        <ele>1396</ele>
      </trkpt>
      <trkpt lat="42.9419" lon="-0.69086">
        <ele>1396</ele>
      </trkpt>
      <trkpt lat="42.9418" lon="-0.6908">
        <ele>1396</ele>
      </trkpt>
      <trkpt lat="42.94178" lon="-0.6907">
        <ele>1396</ele>
      </trkpt>
      <trkpt lat="42.94192" lon="-0.69013">
        <ele>1386</ele>
      </trkpt>
      <trkpt lat="42.94202" lon="-0.69013">
        <ele>1386</ele>
      </trkpt>
      <trkpt lat="42.94224" lon="-0.68927">
        <ele>1380</ele>
      </trkpt>
      <trkpt lat="42.94237" lon="-0.68902">
        <ele>1380</ele>
      </trkpt>
      <trkpt lat="42.94234" lon="-0.68817">
        <ele>1366</ele>
      </trkpt>
      <trkpt lat="42.9424" lon="-0.68809">
        <ele>1366</ele>
      </trkpt>
      <trkpt lat="42.94249" lon="-0.68772">
        <ele>1353</ele>
      </trkpt>
      <trkpt lat="42.94268" lon="-0.68742">
        <ele>1353</ele>
      </trkpt>
      <trkpt lat="42.94278" lon="-0.68712">
        <ele>1353</ele>
      </trkpt>
      <trkpt lat="42.94292" lon="-0.6863">
        <ele>1360</ele>
      </trkpt>
      <trkpt lat="42.94308" lon="-0.68591">
        <ele>1348</ele>
      </trkpt>
      <trkpt lat="42.94313" lon="-0.68532">
        <ele>1349</ele>
      </trkpt>
      <trkpt lat="42.94307" lon="-0.68482">
        <ele>1349</ele>
      </trkpt>
      <trkpt lat="42.94298" lon="-0.68448">
        <ele>1350</ele>
      </trkpt>
      <trkpt lat="42.94296" lon="-0.68386">
        <ele>1350</ele>
      </trkpt>
      <trkpt lat="42.94292" lon="-0.68363">
        <ele>1344</ele>
      </trkpt>
      <trkpt lat="42.94279" lon="-0.68329">
        <ele>1304</ele>
      </trkpt>
      <trkpt lat="42.94269" lon="-0.68275">
        <ele>1279</ele>
      </trkpt>
      <trkpt lat="42.94262" lon="-0.68268">
        <ele>1279</ele>
      </trkpt>
      <trkpt lat="42.94263" lon="-0.68256">
        <ele>1279</ele>
      </trkpt>
      <trkpt lat="42.94258" lon="-0.68245">
        <ele>1279</ele>
      </trkpt>
      <trkpt lat="42.94252" lon="-0.68201">
        <ele>1241</ele>
      </trkpt>
      <trkpt lat="42.94258" lon="-0.6817">
        <ele>1241</ele>
      </trkpt>
      <trkpt lat="42.94264" lon="-0.68164">
        <ele>1241</ele>
      </trkpt>
      <trkpt lat="42.94258" lon="-0.68166">
        <ele>1241</ele>
      </trkpt>
      <trkpt lat="42.94262" lon="-0.68164">
        <ele>1241</ele>
      </trkpt>
      <trkpt lat="42.94243" lon="-0.68174">
        <ele>1241</ele>
      </trkpt>
      <trkpt lat="42.94245" lon="-0.68169">
        <ele>1241</ele>
      </trkpt>
      <trkpt lat="42.94243" lon="-0.68168">
        <ele>1241</ele>
      </trkpt>
      <trkpt lat="42.94251" lon="-0.68158">
        <ele>1241</ele>
      </trkpt>
      <trkpt lat="42.94238" lon="-0.68157">
        <ele>1241</ele>
      </trkpt>
      <trkpt lat="42.94244" lon="-0.68143">
        <ele>1241</ele>
      </trkpt>
      <trkpt lat="42.94261" lon="-0.68133">
        <ele>1241</ele>
      </trkpt>
      <trkpt lat="42.94262" lon="-0.68123">
        <ele>1195</ele>
      </trkpt>
      <trkpt lat="42.94255" lon="-0.68112">
        <ele>1195</ele>
      </trkpt>
      <trkpt lat="42.94257" lon="-0.68102">
        <ele>1195</ele>
      </trkpt>
      <trkpt lat="42.94248" lon="-0.68082">
        <ele>1195</ele>
      </trkpt>
      <trkpt lat="42.94237" lon="-0.68077">
        <ele>1195</ele>
      </trkpt>
      <trkpt lat="42.94236" lon="-0.68072">
        <ele>1195</ele>
      </trkpt>
      <trkpt lat="42.94256" lon="-0.68052">
        <ele>1195</ele>
      </trkpt>
      <trkpt lat="42.94278" lon="-0.68057">
        <ele>1195</ele>
      </trkpt>
      <trkpt lat="42.94276" lon="-0.6806">
        <ele>1195</ele>
      </trkpt>
      <trkpt lat="42.94274" lon="-0.68053">
        <ele>1195</ele>
      </trkpt>
      <trkpt lat="42.94287" lon="-0.68077">
        <ele>1195</ele>
      </trkpt>
      <trkpt lat="42.9429" lon="-0.68062">
        <ele>1195</ele>
      </trkpt>
      <trkpt lat="42.94307" lon="-0.68068">
        <ele>1174</ele>
      </trkpt>
      <trkpt lat="42.94321" lon="-0.68064">
        <ele>1174</ele>
      </trkpt>
      <trkpt lat="42.94326" lon="-0.68055">
        <ele>1174</ele>
      </trkpt>
      <trkpt lat="42.94343" lon="-0.68051">
        <ele>1174</ele>
      </trkpt>
      <trkpt lat="42.94333" lon="-0.68035">
        <ele>1118</ele>
      </trkpt>
      <trkpt lat="42.94318" lon="-0.68021">
        <ele>1118</ele>
      </trkpt>
      <trkpt lat="42.94331" lon="-0.6801">
        <ele>1118</ele>
      </trkpt>
      <trkpt lat="42.94326" lon="-0.68007">
        <ele>1118</ele>
      </trkpt>
      <trkpt lat="42.94323" lon="-0.67999">
        <ele>1118</ele>
      </trkpt>
      <trkpt lat="42.94309" lon="-0.67995">
        <ele>1118</ele>
      </trkpt>
      <trkpt lat="42.94315" lon="-0.67992">
        <ele>1118</ele>
      </trkpt>
      <trkpt lat="42.94313" lon="-0.67988">
        <ele>1118</ele>
      </trkpt>
      <trkpt lat="42.94315" lon="-0.6798">
        <ele>1118</ele>
      </trkpt>
      <trkpt lat="42.94337" lon="-0.67955">
        <ele>1104</ele>
      </trkpt>
      <trkpt lat="42.94342" lon="-0.67937">
        <ele>1104</ele>
      </trkpt>
      <trkpt lat="42.94349" lon="-0.67935">
        <ele>1104</ele>
      </trkpt>
      <trkpt lat="42.94347" lon="-0.67937">
        <ele>1104</ele>
      </trkpt>
      <trkpt lat="42.9435" lon="-0.6791">
        <ele>1104</ele>
      </trkpt>
      <trkpt lat="42.94328" lon="-0.67843">
        <ele>1104</ele>
      </trkpt>
      <trkpt lat="42.94303" lon="-0.67796">
        <ele>1104</ele>
      </trkpt>
      <trkpt lat="42.94273" lon="-0.67764">
        <ele>1095</ele>
      </trkpt>
      <trkpt lat="42.94244" lon="-0.67709">
        <ele>1095</ele>
      </trkpt>
      <trkpt lat="42.9423" lon="-0.67709">
        <ele>1095</ele>
      </trkpt>
      <trkpt lat="42.94218" lon="-0.67703">
        <ele>1104</ele>
      </trkpt>
      <trkpt lat="42.94212" lon="-0.67728">
        <ele>1095</ele>
      </trkpt>
      <trkpt lat="42.94215" lon="-0.6773">
        <ele>1095</ele>
      </trkpt>
      <trkpt lat="42.94215" lon="-0.6775">
        <ele>1095</ele>
      </trkpt>
      <trkpt lat="42.94213" lon="-0.67747">
        <ele>1095</ele>
      </trkpt>
      <trkpt lat="42.94222" lon="-0.67724">
        <ele>1095</ele>
      </trkpt>
      <trkpt lat="42.94214" lon="-0.67705">
        <ele>1104</ele>
      </trkpt>
      <trkpt lat="42.94189" lon="-0.67679">
        <ele>1088</ele>
      </trkpt>
      <trkpt lat="42.9417" lon="-0.67633">
        <ele>1088</ele>
      </trkpt>
      <trkpt lat="42.94161" lon="-0.67648">
        <ele>1088</ele>
      </trkpt>
      <trkpt lat="42.94105" lon="-0.67665">
        <ele>1083</ele>
      </trkpt>
      <trkpt lat="42.94086" lon="-0.67686">
        <ele>1083</ele>
      </trkpt>
      <trkpt lat="42.94057" lon="-0.67706">
        <ele>1083</ele>
      </trkpt>
      <trkpt lat="42.94042" lon="-0.6776">
        <ele>1087</ele>
      </trkpt>
      <trkpt lat="42.94022" lon="-0.67773">
        <ele>1085</ele>
      </trkpt>
      <trkpt lat="42.94008" lon="-0.67812">
        <ele>1088</ele>
      </trkpt>
      <trkpt lat="42.94008" lon="-0.6783">
        <ele>1088</ele>
      </trkpt>
      <trkpt lat="42.93995" lon="-0.67864">
        <ele>1088</ele>
      </trkpt>
      <trkpt lat="42.9397" lon="-0.67833">
        <ele>1088</ele>
      </trkpt>
      <trkpt lat="42.9393" lon="-0.67727">
        <ele>1098</ele>
      </trkpt>
      <trkpt lat="42.93908" lon="-0.67647">
        <ele>1091</ele>
      </trkpt>
      <trkpt lat="42.93853" lon="-0.67594">
        <ele>1095</ele>
      </trkpt>
      <trkpt lat="42.93807" lon="-0.67572">
        <ele>1095</ele>
      </trkpt>
      <trkpt lat="42.93755" lon="-0.67564">
        <ele>1104</ele>
      </trkpt>
      <trkpt lat="42.93717" lon="-0.67565">
        <ele>1104</ele>
      </trkpt>
      <trkpt lat="42.93691" lon="-0.67465">
        <ele>1125</ele>
      </trkpt>
      <trkpt lat="42.93625" lon="-0.67377">
        <ele>1143</ele>
      </trkpt>
      <trkpt lat="42.93572" lon="-0.6732">
        <ele>1112</ele>
      </trkpt>
      <trkpt lat="42.93517" lon="-0.67221">
        <ele>1124</ele>
      </trkpt>
      <trkpt lat="42.93481" lon="-0.67182">
        <ele>1091</ele>
      </trkpt>
      <trkpt lat="42.93448" lon="-0.67139">
        <ele>1129</ele>
      </trkpt>
      <trkpt lat="42.93405" lon="-0.67048">
        <ele>1094</ele>
      </trkpt>
      <trkpt lat="42.93387" lon="-0.67018">
        <ele>1066</ele>
      </trkpt>
      <trkpt lat="42.93377" lon="-0.66989">
        <ele>1066</ele>
      </trkpt>
      <trkpt lat="42.93368" lon="-0.66977">
        <ele>1102</ele>
      </trkpt>
      <trkpt lat="42.9333" lon="-0.6696">
        <ele>1102</ele>
      </trkpt>
      <trkpt lat="42.93294" lon="-0.66899">
        <ele>1069</ele>
      </trkpt>
      <trkpt lat="42.93284" lon="-0.6686">
        <ele>1089</ele>
      </trkpt>
      <trkpt lat="42.93268" lon="-0.66836">
        <ele>1089</ele>
      </trkpt>
      <trkpt lat="42.9326" lon="-0.66785">
        <ele>1057</ele>
      </trkpt>
      <trkpt lat="42.93242" lon="-0.6675">
        <ele>1057</ele>
      </trkpt>
      <trkpt lat="42.93188" lon="-0.66686">
        <ele>1065</ele>
      </trkpt>
      <trkpt lat="42.93171" lon="-0.66633">
        <ele>1065</ele>
      </trkpt>
      <trkpt lat="42.93115" lon="-0.66561">
        <ele>1075</ele>
      </trkpt>
      <trkpt lat="42.93094" lon="-0.66541">
        <ele>1048</ele>
      </trkpt>
      <trkpt lat="42.93077" lon="-0.66514">
        <ele>1048</ele>
      </trkpt>
      <trkpt lat="42.93051" lon="-0.66461">
        <ele>1048</ele>
      </trkpt>
      <trkpt lat="42.92981" lon="-0.6635">
        <ele>1027</ele>
      </trkpt>
      <trkpt lat="42.92968" lon="-0.66341">
        <ele>1027</ele>
      </trkpt>
      <trkpt lat="42.92931" lon="-0.66335">
        <ele>1036</ele>
      </trkpt>
      <trkpt lat="42.92926" lon="-0.66325">
        <ele>1036</ele>
      </trkpt>
      <trkpt lat="42.92896" lon="-0.66317">
        <ele>1036</ele>
      </trkpt>
      <trkpt lat="42.9289" lon="-0.66336">
        <ele>1036</ele>
      </trkpt>
      <trkpt lat="42.92873" lon="-0.66343">
        <ele>1047</ele>
      </trkpt>
      <trkpt lat="42.9284" lon="-0.66342">
        <ele>1047</ele>
      </trkpt>
      <trkpt lat="42.92808" lon="-0.66312">
        <ele>1047</ele>
      </trkpt>
      <trkpt lat="42.92783" lon="-0.66278">
        <ele>1047</ele>
      </trkpt>
      <trkpt lat="42.92775" lon="-0.66275">
        <ele>1047</ele>
      </trkpt>
      <trkpt lat="42.9274" lon="-0.66284">
        <ele>1047</ele>
      </trkpt>
      <trkpt lat="42.92734" lon="-0.66274">
        <ele>1047</ele>
      </trkpt>
      <trkpt lat="42.9268" lon="-0.66223">
        <ele>1071</ele>
      </trkpt>
      <trkpt lat="42.92665" lon="-0.66195">
        <ele>1051</ele>
      </trkpt>
      <trkpt lat="42.9265" lon="-0.66188">
        <ele>1051</ele>
      </trkpt>
      <trkpt lat="42.92632" lon="-0.66203">
        <ele>1051</ele>
      </trkpt>
      <trkpt lat="42.92612" lon="-0.66248">
        <ele>1055</ele>
      </trkpt>
      <trkpt lat="42.92578" lon="-0.66298">
        <ele>1084</ele>
      </trkpt>
      <trkpt lat="42.92512" lon="-0.66362">
        <ele>1053</ele>
      </trkpt>
      <trkpt lat="42.925" lon="-0.66382">
        <ele>1074</ele>
      </trkpt>
      <trkpt lat="42.92489" lon="-0.66426">
        <ele>1074</ele>
      </trkpt>
      <trkpt lat="42.92489" lon="-0.66486">
        <ele>1077</ele>
      </trkpt>
      <trkpt lat="42.92497" lon="-0.66542">
        <ele>1077</ele>
      </trkpt>
      <trkpt lat="42.92488" lon="-0.66595">
        <ele>1077</ele>
      </trkpt>
      <trkpt lat="42.92471" lon="-0.6664">
        <ele>1075</ele>
      </trkpt>
      <trkpt lat="42.92457" lon="-0.66691">
        <ele>1064</ele>
      </trkpt>
      <trkpt lat="42.92461" lon="-0.66739">
        <ele>1083</ele>
      </trkpt>
      <trkpt lat="42.92453" lon="-0.66784">
        <ele>1072</ele>
      </trkpt>
      <trkpt lat="42.92428" lon="-0.66813">
        <ele>1087</ele>
      </trkpt>
      <trkpt lat="42.92378" lon="-0.66831">
        <ele>1087</ele>
      </trkpt>
      <trkpt lat="42.92347" lon="-0.66848">
        <ele>1081</ele>
      </trkpt>
      <trkpt lat="42.92292" lon="-0.66864">
        <ele>1081</ele>
      </trkpt>
      <trkpt lat="42.92349" lon="-0.66848">
        <ele>1081</ele>
      </trkpt>
      <trkpt lat="42.92368" lon="-0.66838">
        <ele>1081</ele>
      </trkpt>
      <trkpt lat="42.92365" lon="-0.6684">
        <ele>1081</ele>
      </trkpt>
      <trkpt lat="42.9244" lon="-0.66801">
        <ele>1087</ele>
      </trkpt>
      <trkpt lat="42.92457" lon="-0.66768">
        <ele>1072</ele>
      </trkpt>
      <trkpt lat="42.92461" lon="-0.66734">
        <ele>1083</ele>
      </trkpt>
      <trkpt lat="42.92457" lon="-0.6669">
        <ele>1064</ele>
      </trkpt>
      <trkpt lat="42.92484" lon="-0.66608">
        <ele>1077</ele>
      </trkpt>
      <trkpt lat="42.92494" lon="-0.66564">
        <ele>1077</ele>
      </trkpt>
      <trkpt lat="42.9249" lon="-0.66419">
        <ele>1074</ele>
      </trkpt>
      <trkpt lat="42.925" lon="-0.66381">
        <ele>1074</ele>
      </trkpt>
      <trkpt lat="42.92593" lon="-0.66281">
        <ele>1055</ele>
      </trkpt>
      <trkpt lat="42.92634" lon="-0.662">
        <ele>1051</ele>
      </trkpt>
      <trkpt lat="42.92647" lon="-0.66188">
        <ele>1051</ele>
      </trkpt>
      <trkpt lat="42.92657" lon="-0.6619">
        <ele>1051</ele>
      </trkpt>
      <trkpt lat="42.92654" lon="-0.66176">
        <ele>1051</ele>
      </trkpt>
      <trkpt lat="42.92665" lon="-0.66143">
        <ele>1051</ele>
      </trkpt>
      <trkpt lat="42.92674" lon="-0.66141">
        <ele>1051</ele>
      </trkpt>
      <trkpt lat="42.9273" lon="-0.66164">
        <ele>1031</ele>
      </trkpt>
      <trkpt lat="42.92755" lon="-0.66183">
        <ele>1031</ele>
      </trkpt>
      <trkpt lat="42.92774" lon="-0.66186">
        <ele>1031</ele>
      </trkpt>
      <trkpt lat="42.92793" lon="-0.66195">
        <ele>1021</ele>
      </trkpt>
      <trkpt lat="42.9282" lon="-0.66215">
        <ele>1031</ele>
      </trkpt>
      <trkpt lat="42.92834" lon="-0.66206">
        <ele>1021</ele>
      </trkpt>
      <trkpt lat="42.92838" lon="-0.66195">
        <ele>1021</ele>
      </trkpt>
      <trkpt lat="42.92847" lon="-0.66186">
        <ele>1021</ele>
      </trkpt>
      <trkpt lat="42.92843" lon="-0.66173">
        <ele>1021</ele>
      </trkpt>
      <trkpt lat="42.92797" lon="-0.66099">
        <ele>1005</ele>
      </trkpt>
      <trkpt lat="42.92786" lon="-0.66088">
        <ele>1006</ele>
      </trkpt>
      <trkpt lat="42.92772" lon="-0.66031">
        <ele>991</ele>
      </trkpt>
      <trkpt lat="42.92743" lon="-0.65981">
        <ele>991</ele>
      </trkpt>
      <trkpt lat="42.92732" lon="-0.65945">
        <ele>985</ele>
      </trkpt>
      <trkpt lat="42.92708" lon="-0.65899">
        <ele>970</ele>
      </trkpt>
      <trkpt lat="42.92701" lon="-0.65847">
        <ele>971</ele>
      </trkpt>
      <trkpt lat="42.92693" lon="-0.65822">
        <ele>971</ele>
      </trkpt>
      <trkpt lat="42.92678" lon="-0.65737">
        <ele>969</ele>
      </trkpt>
      <trkpt lat="42.92667" lon="-0.65736">
        <ele>969</ele>
      </trkpt>
      <trkpt lat="42.92665" lon="-0.65804">
        <ele>971</ele>
      </trkpt>
      <trkpt lat="42.92654" lon="-0.65822">
        <ele>971</ele>
      </trkpt>
      <trkpt lat="42.92647" lon="-0.65819">
        <ele>971</ele>
      </trkpt>
      <trkpt lat="42.92635" lon="-0.6577">
        <ele>969</ele>
      </trkpt>
      <trkpt lat="42.92623" lon="-0.65749">
        <ele>950</ele>
      </trkpt>
      <trkpt lat="42.9261" lon="-0.65757">
        <ele>950</ele>
      </trkpt>
      <trkpt lat="42.92609" lon="-0.65781">
        <ele>950</ele>
      </trkpt>
      <trkpt lat="42.92613" lon="-0.65812">
        <ele>948</ele>
      </trkpt>
      <trkpt lat="42.92628" lon="-0.65862">
        <ele>971</ele>
      </trkpt>
      <trkpt lat="42.92617" lon="-0.65889">
        <ele>959</ele>
      </trkpt>
      <trkpt lat="42.92608" lon="-0.6589">
        <ele>959</ele>
      </trkpt>
      <trkpt lat="42.92586" lon="-0.65914">
        <ele>959</ele>
      </trkpt>
      <trkpt lat="42.92561" lon="-0.65954">
        <ele>959</ele>
      </trkpt>
      <trkpt lat="42.92535" lon="-0.65977">
        <ele>956</ele>
      </trkpt>
      <trkpt lat="42.92504" lon="-0.65991">
        <ele>956</ele>
      </trkpt>
      <trkpt lat="42.92484" lon="-0.66008">
        <ele>956</ele>
      </trkpt>
      <trkpt lat="42.92435" lon="-0.66016">
        <ele>945</ele>
      </trkpt>
      <trkpt lat="42.92406" lon="-0.66008">
        <ele>945</ele>
      </trkpt>
      <trkpt lat="42.92385" lon="-0.66017">
        <ele>945</ele>
      </trkpt>
      <trkpt lat="42.92336" lon="-0.66051">
        <ele>943</ele>
      </trkpt>
      <trkpt lat="42.92246" lon="-0.66153">
        <ele>943</ele>
      </trkpt>
      <trkpt lat="42.92223" lon="-0.66194">
        <ele>943</ele>
      </trkpt>
      <trkpt lat="42.92185" lon="-0.66298">
        <ele>948</ele>
      </trkpt>
      <trkpt lat="42.92121" lon="-0.66442">
        <ele>943</ele>
      </trkpt>
      <trkpt lat="42.92031" lon="-0.66573">
        <ele>956</ele>
      </trkpt>
      <trkpt lat="42.91999" lon="-0.66602">
        <ele>956</ele>
      </trkpt>
      <trkpt lat="42.91944" lon="-0.66643">
        <ele>976</ele>
      </trkpt>
      <trkpt lat="42.91879" lon="-0.66678">
        <ele>976</ele>
      </trkpt>
      <trkpt lat="42.91842" lon="-0.66681">
        <ele>964</ele>
      </trkpt>
      <trkpt lat="42.91785" lon="-0.66707">
        <ele>953</ele>
      </trkpt>
      <trkpt lat="42.91766" lon="-0.66709">
        <ele>981</ele>
      </trkpt>
      <trkpt lat="42.91757" lon="-0.66706">
        <ele>953</ele>
      </trkpt>
      <trkpt lat="42.91686" lon="-0.66722">
        <ele>978</ele>
      </trkpt>
      <trkpt lat="42.91663" lon="-0.66723">
        <ele>978</ele>
      </trkpt>
      <trkpt lat="42.91571" lon="-0.66757">
        <ele>960</ele>
      </trkpt>
      <trkpt lat="42.91491" lon="-0.66793">
        <ele>982</ele>
      </trkpt>
      <trkpt lat="42.9141" lon="-0.66889">
        <ele>967</ele>
      </trkpt>
      <trkpt lat="42.91373" lon="-0.6699">
        <ele>953</ele>
      </trkpt>
      <trkpt lat="42.91337" lon="-0.67104">
        <ele>964</ele>
      </trkpt>
      <trkpt lat="42.91304" lon="-0.67178">
        <ele>973</ele>
      </trkpt>
      <trkpt lat="42.91266" lon="-0.67213">
        <ele>963</ele>
      </trkpt>
      <trkpt lat="42.91236" lon="-0.67199">
        <ele>956</ele>
      </trkpt>
      <trkpt lat="42.91202" lon="-0.67198">
        <ele>969</ele>
      </trkpt>
      <trkpt lat="42.91203" lon="-0.67132">
        <ele>969</ele>
      </trkpt>
      <trkpt lat="42.91197" lon="-0.67135">
        <ele>969</ele>
      </trkpt>
      <trkpt lat="42.912" lon="-0.6709">
        <ele>969</ele>
      </trkpt>
      <trkpt lat="42.91242" lon="-0.6706">
        <ele>954</ele>
      </trkpt>
      <trkpt lat="42.91257" lon="-0.67037">
        <ele>952</ele>
      </trkpt>
      <trkpt lat="42.91268" lon="-0.66989">
        <ele>952</ele>
      </trkpt>
      <trkpt lat="42.91272" lon="-0.6691">
        <ele>959</ele>
      </trkpt>
      <trkpt lat="42.91285" lon="-0.66872">
        <ele>978</ele>
      </trkpt>
      <trkpt lat="42.91326" lon="-0.66794">
        <ele>946</ele>
      </trkpt>
      <trkpt lat="42.91433" lon="-0.66624">
        <ele>960</ele>
      </trkpt>
      <trkpt lat="42.91482" lon="-0.66573">
        <ele>944</ele>
      </trkpt>
      <trkpt lat="42.91499" lon="-0.66565">
        <ele>944</ele>
      </trkpt>
      <trkpt lat="42.91543" lon="-0.66556">
        <ele>937</ele>
      </trkpt>
      <trkpt lat="42.91593" lon="-0.6652">
        <ele>950</ele>
      </trkpt>
      <trkpt lat="42.9162" lon="-0.6647">
        <ele>950</ele>
      </trkpt>
      <trkpt lat="42.91627" lon="-0.66449">
        <ele>949</ele>
      </trkpt>
      <trkpt lat="42.91685" lon="-0.66399">
        <ele>949</ele>
      </trkpt>
      <trkpt lat="42.91724" lon="-0.66308">
        <ele>943</ele>
      </trkpt>
      <trkpt lat="42.91725" lon="-0.66262">
        <ele>944</ele>
      </trkpt>
      <trkpt lat="42.91718" lon="-0.66251">
        <ele>944</ele>
      </trkpt>
      <trkpt lat="42.91701" lon="-0.66239">
        <ele>962</ele>
      </trkpt>
      <trkpt lat="42.91682" lon="-0.66211">
        <ele>962</ele>
      </trkpt>
      <trkpt lat="42.91681" lon="-0.6616">
        <ele>972</ele>
      </trkpt>
      <trkpt lat="42.91685" lon="-0.66145">
        <ele>972</ele>
      </trkpt>
      <trkpt lat="42.91729" lon="-0.66058">
        <ele>957</ele>
      </trkpt>
      <trkpt lat="42.91764" lon="-0.65971">
        <ele>973</ele>
      </trkpt>
      <trkpt lat="42.91778" lon="-0.65908">
        <ele>989</ele>
      </trkpt>
      <trkpt lat="42.91789" lon="-0.65832">
        <ele>997</ele>
      </trkpt>
      <trkpt lat="42.9179" lon="-0.65764">
        <ele>999</ele>
      </trkpt>
      <trkpt lat="42.9181" lon="-0.65722">
        <ele>974</ele>
      </trkpt>
      <trkpt lat="42.91818" lon="-0.65688">
        <ele>978</ele>
      </trkpt>
      <trkpt lat="42.91825" lon="-0.65567">
        <ele>980</ele>
      </trkpt>
      <trkpt lat="42.91861" lon="-0.65438">
        <ele>990</ele>
      </trkpt>
      <trkpt lat="42.91864" lon="-0.65416">
        <ele>990</ele>
      </trkpt>
      <trkpt lat="42.91879" lon="-0.6537">
        <ele>972</ele>
      </trkpt>
      <trkpt lat="42.91887" lon="-0.65327">
        <ele>972</ele>
      </trkpt>
      <trkpt lat="42.91904" lon="-0.65285">
        <ele>974</ele>
      </trkpt>
      <trkpt lat="42.91912" lon="-0.65275">
        <ele>974</ele>
      </trkpt>
      <trkpt lat="42.91934" lon="-0.65261">
        <ele>974</ele>
      </trkpt>
      <trkpt lat="42.91951" lon="-0.65162">
        <ele>971</ele>
      </trkpt>
      <trkpt lat="42.91967" lon="-0.64863">
        <ele>970</ele>
      </trkpt>
      <trkpt lat="42.91967" lon="-0.64812">
        <ele>970</ele>
      </trkpt>
      <trkpt lat="42.91957" lon="-0.64782">
        <ele>1008</ele>
      </trkpt>
      <trkpt lat="42.91937" lon="-0.64792">
        <ele>1002</ele>
      </trkpt>
      <trkpt lat="42.91902" lon="-0.64938">
        <ele>994</ele>
      </trkpt>
      <trkpt lat="42.91895" lon="-0.64953">
        <ele>994</ele>
      </trkpt>
      <trkpt lat="42.91851" lon="-0.65011">
        <ele>1000</ele>
      </trkpt>
      <trkpt lat="42.91831" lon="-0.6505">
        <ele>993</ele>
      </trkpt>
      <trkpt lat="42.91788" lon="-0.65164">
        <ele>1016</ele>
      </trkpt>
      <trkpt lat="42.91771" lon="-0.65241">
        <ele>1012</ele>
      </trkpt>
      <trkpt lat="42.9176" lon="-0.65246">
        <ele>1012</ele>
      </trkpt>
      <trkpt lat="42.91753" lon="-0.65232">
        <ele>1012</ele>
      </trkpt>
      <trkpt lat="42.91757" lon="-0.65177">
        <ele>1016</ele>
      </trkpt>
      <trkpt lat="42.91755" lon="-0.65128">
        <ele>1016</ele>
      </trkpt>
      <trkpt lat="42.91736" lon="-0.65087">
        <ele>1016</ele>
      </trkpt>
      <trkpt lat="42.9173" lon="-0.6506">
        <ele>1016</ele>
      </trkpt>
      <trkpt lat="42.91729" lon="-0.6502">
        <ele>1024</ele>
      </trkpt>
      <trkpt lat="42.91747" lon="-0.64961">
        <ele>1024</ele>
      </trkpt>
      <trkpt lat="42.91784" lon="-0.64919">
        <ele>1032</ele>
      </trkpt>
      <trkpt lat="42.91777" lon="-0.64906">
        <ele>1032</ele>
      </trkpt>
      <trkpt lat="42.91754" lon="-0.64929">
        <ele>1032</ele>
      </trkpt>
      <trkpt lat="42.91723" lon="-0.64981">
        <ele>1024</ele>
      </trkpt>
      <trkpt lat="42.91692" lon="-0.65002">
        <ele>1046</ele>
      </trkpt>
      <trkpt lat="42.91662" lon="-0.64972">
        <ele>1046</ele>
      </trkpt>
      <trkpt lat="42.91621" lon="-0.64943">
        <ele>1050</ele>
      </trkpt>
      <trkpt lat="42.91565" lon="-0.64991">
        <ele>1050</ele>
      </trkpt>
      <trkpt lat="42.91562" lon="-0.65048">
        <ele>1049</ele>
      </trkpt>
      <trkpt lat="42.91542" lon="-0.65125">
        <ele>1049</ele>
      </trkpt>
      <trkpt lat="42.91492" lon="-0.65181">
        <ele>1048</ele>
      </trkpt>
      <trkpt lat="42.91478" lon="-0.65237">
        <ele>1052</ele>
      </trkpt>
      <trkpt lat="42.91489" lon="-0.65293">
        <ele>1057</ele>
      </trkpt>
      <trkpt lat="42.91497" lon="-0.65384">
        <ele>1061</ele>
      </trkpt>
      <trkpt lat="42.91495" lon="-0.65416">
        <ele>1061</ele>
      </trkpt>
      <trkpt lat="42.91479" lon="-0.65479">
        <ele>1067</ele>
      </trkpt>
      <trkpt lat="42.91461" lon="-0.65512">
        <ele>1067</ele>
      </trkpt>
      <trkpt lat="42.91441" lon="-0.65515">
        <ele>1076</ele>
      </trkpt>
      <trkpt lat="42.91424" lon="-0.65523">
        <ele>1076</ele>
      </trkpt>
      <trkpt lat="42.91383" lon="-0.65502">
        <ele>1076</ele>
      </trkpt>
      <trkpt lat="42.91383" lon="-0.65492">
        <ele>1076</ele>
      </trkpt>
      <trkpt lat="42.914" lon="-0.65485">
        <ele>1076</ele>
      </trkpt>
    </trkseg>
  </trk>
</gpx>